<?xml version="1.0" encoding="UTF-8" standalone="no" ?>
<gpx xmlns="http://www.topografix.com/GPX/1/1" xmlns:xsi="http://www.w3.org/2001/XMLSchema-instance" xsi:schemaLocation="http://www.topografix.com/GPX/1/1 http://www.topografix.com/GPX/1/1/gpx.xsd" version="1.1" creator="VisuGPX - https://www.visugpx.com">
  <metadata>
    <name>ski rando COMBES DES ARAVIS</name>
  </metadata>
  <trk>
    <name><![CDATA[ski rando COMBES DES ARAVIS]]></name>
    <trkseg>
      <trkpt lat="45.92278" lon="6.484">
        <ele>1436.4000244141</ele>
        <time>2014-02-12T07:23:50.000Z</time>
      </trkpt>
      <trkpt lat="45.92272" lon="6.484">
        <ele>1436.5999755859</ele>
        <time>2014-02-12T07:23:55.000Z</time>
      </trkpt>
      <trkpt lat="45.92271" lon="6.48401">
        <ele>1436.4000244141</ele>
        <time>2014-02-12T07:23:56.000Z</time>
      </trkpt>
      <trkpt lat="45.9227" lon="6.48402">
        <ele>1436.4000244141</ele>
        <time>2014-02-12T07:23:57.000Z</time>
      </trkpt>
      <trkpt lat="45.92269" lon="6.48402">
        <ele>1436.5999755859</ele>
        <time>2014-02-12T07:23:58.000Z</time>
      </trkpt>
      <trkpt lat="45.9227" lon="6.48402">
        <ele>1436.5999755859</ele>
        <time>2014-02-12T07:23:59.000Z</time>
      </trkpt>
      <trkpt lat="45.92268" lon="6.48403">
        <ele>1436.1999511719</ele>
        <time>2014-02-12T07:24:00.000Z</time>
      </trkpt>
      <trkpt lat="45.92267" lon="6.48403">
        <ele>1436.1999511719</ele>
        <time>2014-02-12T07:24:01.000Z</time>
      </trkpt>
      <trkpt lat="45.92266" lon="6.48404">
        <ele>1436</ele>
        <time>2014-02-12T07:24:02.000Z</time>
      </trkpt>
      <trkpt lat="45.92266" lon="6.48405">
        <ele>1435.8000488281</ele>
        <time>2014-02-12T07:24:03.000Z</time>
      </trkpt>
      <trkpt lat="45.92265" lon="6.48405">
        <ele>1435.8000488281</ele>
        <time>2014-02-12T07:24:04.000Z</time>
      </trkpt>
      <trkpt lat="45.92264" lon="6.48405">
        <ele>1435.5999755859</ele>
        <time>2014-02-12T07:24:05.000Z</time>
      </trkpt>
      <trkpt lat="45.92264" lon="6.48406">
        <ele>1435.4000244141</ele>
        <time>2014-02-12T07:24:06.000Z</time>
      </trkpt>
      <trkpt lat="45.92263" lon="6.48407">
        <ele>1435.4000244141</ele>
        <time>2014-02-12T07:24:07.000Z</time>
      </trkpt>
      <trkpt lat="45.92262" lon="6.48407">
        <ele>1435.1999511719</ele>
        <time>2014-02-12T07:24:08.000Z</time>
      </trkpt>
      <trkpt lat="45.92261" lon="6.48409">
        <ele>1434.8000488281</ele>
        <time>2014-02-12T07:24:09.000Z</time>
      </trkpt>
      <trkpt lat="45.9226" lon="6.48409">
        <ele>1434.8000488281</ele>
        <time>2014-02-12T07:24:10.000Z</time>
      </trkpt>
      <trkpt lat="45.9226" lon="6.48409">
        <ele>1434.5999755859</ele>
        <time>2014-02-12T07:24:11.000Z</time>
      </trkpt>
      <trkpt lat="45.92259" lon="6.4841">
        <ele>1434.5999755859</ele>
        <time>2014-02-12T07:24:12.000Z</time>
      </trkpt>
      <trkpt lat="45.92258" lon="6.4841">
        <ele>1434.5999755859</ele>
        <time>2014-02-12T07:24:13.000Z</time>
      </trkpt>
      <trkpt lat="45.92257" lon="6.48411">
        <ele>1434.4000244141</ele>
        <time>2014-02-12T07:24:14.000Z</time>
      </trkpt>
      <trkpt lat="45.92257" lon="6.48411">
        <ele>1434.4000244141</ele>
        <time>2014-02-12T07:24:15.000Z</time>
      </trkpt>
      <trkpt lat="45.92257" lon="6.48411">
        <ele>1434.1999511719</ele>
        <time>2014-02-12T07:24:16.000Z</time>
      </trkpt>
      <trkpt lat="45.92257" lon="6.48413">
        <ele>1433.5999755859</ele>
        <time>2014-02-12T07:24:17.000Z</time>
      </trkpt>
      <trkpt lat="45.92257" lon="6.48413">
        <ele>1433.5999755859</ele>
        <time>2014-02-12T07:24:18.000Z</time>
      </trkpt>
      <trkpt lat="45.92257" lon="6.48413">
        <ele>1433.5999755859</ele>
        <time>2014-02-12T07:24:19.000Z</time>
      </trkpt>
      <trkpt lat="45.92257" lon="6.48414">
        <ele>1433.4000244141</ele>
        <time>2014-02-12T07:24:20.000Z</time>
      </trkpt>
      <trkpt lat="45.92256" lon="6.48414">
        <ele>1433.1999511719</ele>
        <time>2014-02-12T07:24:21.000Z</time>
      </trkpt>
      <trkpt lat="45.92256" lon="6.48415">
        <ele>1433</ele>
        <time>2014-02-12T07:24:22.000Z</time>
      </trkpt>
      <trkpt lat="45.92256" lon="6.48415">
        <ele>1433</ele>
        <time>2014-02-12T07:24:23.000Z</time>
      </trkpt>
      <trkpt lat="45.92256" lon="6.48416">
        <ele>1432.8000488281</ele>
        <time>2014-02-12T07:24:24.000Z</time>
      </trkpt>
      <trkpt lat="45.92255" lon="6.48416">
        <ele>1432.5999755859</ele>
        <time>2014-02-12T07:24:25.000Z</time>
      </trkpt>
      <trkpt lat="45.92255" lon="6.48417">
        <ele>1432.4000244141</ele>
        <time>2014-02-12T07:24:26.000Z</time>
      </trkpt>
      <trkpt lat="45.92255" lon="6.48418">
        <ele>1432</ele>
        <time>2014-02-12T07:24:27.000Z</time>
      </trkpt>
      <trkpt lat="45.92254" lon="6.48419">
        <ele>1431.8000488281</ele>
        <time>2014-02-12T07:24:28.000Z</time>
      </trkpt>
      <trkpt lat="45.92253" lon="6.48421">
        <ele>1431.1999511719</ele>
        <time>2014-02-12T07:24:29.000Z</time>
      </trkpt>
      <trkpt lat="45.92252" lon="6.48422">
        <ele>1431</ele>
        <time>2014-02-12T07:24:30.000Z</time>
      </trkpt>
      <trkpt lat="45.92252" lon="6.48422">
        <ele>1431</ele>
        <time>2014-02-12T07:24:31.000Z</time>
      </trkpt>
      <trkpt lat="45.9225" lon="6.48423">
        <ele>1430.5999755859</ele>
        <time>2014-02-12T07:24:32.000Z</time>
      </trkpt>
      <trkpt lat="45.92249" lon="6.48424">
        <ele>1430.5999755859</ele>
        <time>2014-02-12T07:24:33.000Z</time>
      </trkpt>
      <trkpt lat="45.92249" lon="6.48424">
        <ele>1430.5999755859</ele>
        <time>2014-02-12T07:24:34.000Z</time>
      </trkpt>
      <trkpt lat="45.92247" lon="6.48426">
        <ele>1430.5999755859</ele>
        <time>2014-02-12T07:24:35.000Z</time>
      </trkpt>
      <trkpt lat="45.92245" lon="6.48427">
        <ele>1431</ele>
        <time>2014-02-12T07:24:36.000Z</time>
      </trkpt>
      <trkpt lat="45.92244" lon="6.48428">
        <ele>1431.1999511719</ele>
        <time>2014-02-12T07:24:37.000Z</time>
      </trkpt>
      <trkpt lat="45.92244" lon="6.48429">
        <ele>1431.4000244141</ele>
        <time>2014-02-12T07:24:38.000Z</time>
      </trkpt>
      <trkpt lat="45.92242" lon="6.4843">
        <ele>1431.5999755859</ele>
        <time>2014-02-12T07:24:39.000Z</time>
      </trkpt>
      <trkpt lat="45.92241" lon="6.48432">
        <ele>1432</ele>
        <time>2014-02-12T07:24:40.000Z</time>
      </trkpt>
      <trkpt lat="45.9224" lon="6.48434">
        <ele>1432.1999511719</ele>
        <time>2014-02-12T07:24:41.000Z</time>
      </trkpt>
      <trkpt lat="45.92239" lon="6.48434">
        <ele>1432.4000244141</ele>
        <time>2014-02-12T07:24:42.000Z</time>
      </trkpt>
      <trkpt lat="45.92238" lon="6.48436">
        <ele>1432.5999755859</ele>
        <time>2014-02-12T07:24:43.000Z</time>
      </trkpt>
      <trkpt lat="45.92237" lon="6.48437">
        <ele>1432.8000488281</ele>
        <time>2014-02-12T07:24:44.000Z</time>
      </trkpt>
      <trkpt lat="45.92236" lon="6.48438">
        <ele>1433</ele>
        <time>2014-02-12T07:24:45.000Z</time>
      </trkpt>
      <trkpt lat="45.92235" lon="6.48439">
        <ele>1433</ele>
        <time>2014-02-12T07:24:46.000Z</time>
      </trkpt>
      <trkpt lat="45.92234" lon="6.4844">
        <ele>1433.1999511719</ele>
        <time>2014-02-12T07:24:47.000Z</time>
      </trkpt>
      <trkpt lat="45.92233" lon="6.48442">
        <ele>1433.5999755859</ele>
        <time>2014-02-12T07:24:48.000Z</time>
      </trkpt>
      <trkpt lat="45.92232" lon="6.48443">
        <ele>1433.5999755859</ele>
        <time>2014-02-12T07:24:49.000Z</time>
      </trkpt>
      <trkpt lat="45.92231" lon="6.48443">
        <ele>1434</ele>
        <time>2014-02-12T07:24:50.000Z</time>
      </trkpt>
      <trkpt lat="45.9223" lon="6.48445">
        <ele>1434.1999511719</ele>
        <time>2014-02-12T07:24:51.000Z</time>
      </trkpt>
      <trkpt lat="45.92229" lon="6.48446">
        <ele>1434.4000244141</ele>
        <time>2014-02-12T07:24:52.000Z</time>
      </trkpt>
      <trkpt lat="45.92228" lon="6.48448">
        <ele>1434.4000244141</ele>
        <time>2014-02-12T07:24:53.000Z</time>
      </trkpt>
      <trkpt lat="45.92224" lon="6.48451">
        <ele>1435.4000244141</ele>
        <time>2014-02-12T07:24:56.000Z</time>
      </trkpt>
      <trkpt lat="45.92223" lon="6.48452">
        <ele>1435.4000244141</ele>
        <time>2014-02-12T07:24:57.000Z</time>
      </trkpt>
      <trkpt lat="45.92222" lon="6.48453">
        <ele>1435.4000244141</ele>
        <time>2014-02-12T07:24:58.000Z</time>
      </trkpt>
      <trkpt lat="45.92221" lon="6.48455">
        <ele>1435.1999511719</ele>
        <time>2014-02-12T07:24:59.000Z</time>
      </trkpt>
      <trkpt lat="45.9222" lon="6.48456">
        <ele>1435.1999511719</ele>
        <time>2014-02-12T07:25:01.000Z</time>
      </trkpt>
      <trkpt lat="45.92219" lon="6.48457">
        <ele>1435.1999511719</ele>
        <time>2014-02-12T07:25:02.000Z</time>
      </trkpt>
      <trkpt lat="45.92218" lon="6.48458">
        <ele>1435</ele>
        <time>2014-02-12T07:25:04.000Z</time>
      </trkpt>
      <trkpt lat="45.92216" lon="6.48459">
        <ele>1435</ele>
        <time>2014-02-12T07:25:05.000Z</time>
      </trkpt>
      <trkpt lat="45.92216" lon="6.4846">
        <ele>1435</ele>
        <time>2014-02-12T07:25:06.000Z</time>
      </trkpt>
      <trkpt lat="45.92216" lon="6.4846">
        <ele>1435</ele>
        <time>2014-02-12T07:25:07.000Z</time>
      </trkpt>
      <trkpt lat="45.92216" lon="6.48461">
        <ele>1434.8000488281</ele>
        <time>2014-02-12T07:25:08.000Z</time>
      </trkpt>
      <trkpt lat="45.92214" lon="6.48464">
        <ele>1434.8000488281</ele>
        <time>2014-02-12T07:25:09.000Z</time>
      </trkpt>
      <trkpt lat="45.92214" lon="6.48463">
        <ele>1434.8000488281</ele>
        <time>2014-02-12T07:25:10.000Z</time>
      </trkpt>
      <trkpt lat="45.92213" lon="6.48465">
        <ele>1434.5999755859</ele>
        <time>2014-02-12T07:25:11.000Z</time>
      </trkpt>
      <trkpt lat="45.92212" lon="6.48466">
        <ele>1434.5999755859</ele>
        <time>2014-02-12T07:25:12.000Z</time>
      </trkpt>
      <trkpt lat="45.92212" lon="6.48465">
        <ele>1434.5999755859</ele>
        <time>2014-02-12T07:25:13.000Z</time>
      </trkpt>
      <trkpt lat="45.92211" lon="6.48466">
        <ele>1434.5999755859</ele>
        <time>2014-02-12T07:25:14.000Z</time>
      </trkpt>
      <trkpt lat="45.9221" lon="6.48468">
        <ele>1434.4000244141</ele>
        <time>2014-02-12T07:25:15.000Z</time>
      </trkpt>
      <trkpt lat="45.92209" lon="6.4847">
        <ele>1434.5999755859</ele>
        <time>2014-02-12T07:25:16.000Z</time>
      </trkpt>
      <trkpt lat="45.92209" lon="6.48471">
        <ele>1434.8000488281</ele>
        <time>2014-02-12T07:25:17.000Z</time>
      </trkpt>
      <trkpt lat="45.92208" lon="6.48472">
        <ele>1435</ele>
        <time>2014-02-12T07:25:18.000Z</time>
      </trkpt>
      <trkpt lat="45.92208" lon="6.48474">
        <ele>1435.1999511719</ele>
        <time>2014-02-12T07:25:19.000Z</time>
      </trkpt>
      <trkpt lat="45.92208" lon="6.48474">
        <ele>1435.1999511719</ele>
        <time>2014-02-12T07:25:20.000Z</time>
      </trkpt>
      <trkpt lat="45.92207" lon="6.48475">
        <ele>1435.4000244141</ele>
        <time>2014-02-12T07:25:21.000Z</time>
      </trkpt>
      <trkpt lat="45.92206" lon="6.48475">
        <ele>1435.5999755859</ele>
        <time>2014-02-12T07:25:22.000Z</time>
      </trkpt>
      <trkpt lat="45.92206" lon="6.48476">
        <ele>1435.8000488281</ele>
        <time>2014-02-12T07:25:23.000Z</time>
      </trkpt>
      <trkpt lat="45.92204" lon="6.48477">
        <ele>1436.1999511719</ele>
        <time>2014-02-12T07:25:24.000Z</time>
      </trkpt>
      <trkpt lat="45.92204" lon="6.48477">
        <ele>1436.1999511719</ele>
        <time>2014-02-12T07:25:25.000Z</time>
      </trkpt>
      <trkpt lat="45.92203" lon="6.48477">
        <ele>1436.5999755859</ele>
        <time>2014-02-12T07:25:26.000Z</time>
      </trkpt>
      <trkpt lat="45.92201" lon="6.48479">
        <ele>1437.1999511719</ele>
        <time>2014-02-12T07:25:27.000Z</time>
      </trkpt>
      <trkpt lat="45.92201" lon="6.48479">
        <ele>1437.1999511719</ele>
        <time>2014-02-12T07:25:28.000Z</time>
      </trkpt>
      <trkpt lat="45.922" lon="6.48481">
        <ele>1437.5999755859</ele>
        <time>2014-02-12T07:25:29.000Z</time>
      </trkpt>
      <trkpt lat="45.92199" lon="6.48483">
        <ele>1437.8000488281</ele>
        <time>2014-02-12T07:25:30.000Z</time>
      </trkpt>
      <trkpt lat="45.92199" lon="6.48484">
        <ele>1437.8000488281</ele>
        <time>2014-02-12T07:25:31.000Z</time>
      </trkpt>
      <trkpt lat="45.92198" lon="6.48485">
        <ele>1437.5999755859</ele>
        <time>2014-02-12T07:25:32.000Z</time>
      </trkpt>
      <trkpt lat="45.92197" lon="6.48487">
        <ele>1437.4000244141</ele>
        <time>2014-02-12T07:25:33.000Z</time>
      </trkpt>
      <trkpt lat="45.92197" lon="6.48486">
        <ele>1437.5999755859</ele>
        <time>2014-02-12T07:25:34.000Z</time>
      </trkpt>
      <trkpt lat="45.92197" lon="6.48487">
        <ele>1437.5999755859</ele>
        <time>2014-02-12T07:25:35.000Z</time>
      </trkpt>
      <trkpt lat="45.92197" lon="6.48487">
        <ele>1437.5999755859</ele>
        <time>2014-02-12T07:25:36.000Z</time>
      </trkpt>
      <trkpt lat="45.92197" lon="6.48487">
        <ele>1437.5999755859</ele>
        <time>2014-02-12T07:25:37.000Z</time>
      </trkpt>
      <trkpt lat="45.92197" lon="6.48487">
        <ele>1437.5999755859</ele>
        <time>2014-02-12T07:25:38.000Z</time>
      </trkpt>
      <trkpt lat="45.92197" lon="6.48487">
        <ele>1437.5999755859</ele>
        <time>2014-02-12T07:25:39.000Z</time>
      </trkpt>
      <trkpt lat="45.92196" lon="6.48487">
        <ele>1437.5999755859</ele>
        <time>2014-02-12T07:25:40.000Z</time>
      </trkpt>
      <trkpt lat="45.92195" lon="6.48489">
        <ele>1437.4000244141</ele>
        <time>2014-02-12T07:25:41.000Z</time>
      </trkpt>
      <trkpt lat="45.92193" lon="6.48491">
        <ele>1437.1999511719</ele>
        <time>2014-02-12T07:25:42.000Z</time>
      </trkpt>
      <trkpt lat="45.92194" lon="6.48491">
        <ele>1437.1999511719</ele>
        <time>2014-02-12T07:25:43.000Z</time>
      </trkpt>
      <trkpt lat="45.92193" lon="6.48492">
        <ele>1437</ele>
        <time>2014-02-12T07:25:44.000Z</time>
      </trkpt>
      <trkpt lat="45.92192" lon="6.48494">
        <ele>1436.8000488281</ele>
        <time>2014-02-12T07:25:45.000Z</time>
      </trkpt>
      <trkpt lat="45.92192" lon="6.48493">
        <ele>1437</ele>
        <time>2014-02-12T07:25:46.000Z</time>
      </trkpt>
      <trkpt lat="45.92191" lon="6.48494">
        <ele>1436.8000488281</ele>
        <time>2014-02-12T07:25:47.000Z</time>
      </trkpt>
      <trkpt lat="45.9219" lon="6.48495">
        <ele>1436.8000488281</ele>
        <time>2014-02-12T07:25:48.000Z</time>
      </trkpt>
      <trkpt lat="45.9219" lon="6.48496">
        <ele>1436.5999755859</ele>
        <time>2014-02-12T07:25:49.000Z</time>
      </trkpt>
      <trkpt lat="45.92189" lon="6.48496">
        <ele>1436.8000488281</ele>
        <time>2014-02-12T07:25:50.000Z</time>
      </trkpt>
      <trkpt lat="45.92189" lon="6.48496">
        <ele>1436.8000488281</ele>
        <time>2014-02-12T07:25:51.000Z</time>
      </trkpt>
      <trkpt lat="45.92188" lon="6.48497">
        <ele>1436.8000488281</ele>
        <time>2014-02-12T07:25:52.000Z</time>
      </trkpt>
      <trkpt lat="45.92188" lon="6.48498">
        <ele>1436.8000488281</ele>
        <time>2014-02-12T07:25:53.000Z</time>
      </trkpt>
      <trkpt lat="45.92187" lon="6.48499">
        <ele>1436.4000244141</ele>
        <time>2014-02-12T07:25:54.000Z</time>
      </trkpt>
      <trkpt lat="45.92187" lon="6.485">
        <ele>1436.1999511719</ele>
        <time>2014-02-12T07:25:55.000Z</time>
      </trkpt>
      <trkpt lat="45.92186" lon="6.48502">
        <ele>1436</ele>
        <time>2014-02-12T07:25:56.000Z</time>
      </trkpt>
      <trkpt lat="45.92186" lon="6.48501">
        <ele>1436.1999511719</ele>
        <time>2014-02-12T07:25:57.000Z</time>
      </trkpt>
      <trkpt lat="45.92185" lon="6.48502">
        <ele>1436.1999511719</ele>
        <time>2014-02-12T07:25:58.000Z</time>
      </trkpt>
      <trkpt lat="45.92183" lon="6.48504">
        <ele>1436</ele>
        <time>2014-02-12T07:25:59.000Z</time>
      </trkpt>
      <trkpt lat="45.92183" lon="6.48504">
        <ele>1436</ele>
        <time>2014-02-12T07:26:00.000Z</time>
      </trkpt>
      <trkpt lat="45.92182" lon="6.48505">
        <ele>1436.1999511719</ele>
        <time>2014-02-12T07:26:01.000Z</time>
      </trkpt>
      <trkpt lat="45.9218" lon="6.48506">
        <ele>1436.1999511719</ele>
        <time>2014-02-12T07:26:02.000Z</time>
      </trkpt>
      <trkpt lat="45.92179" lon="6.48507">
        <ele>1436.1999511719</ele>
        <time>2014-02-12T07:26:03.000Z</time>
      </trkpt>
      <trkpt lat="45.92179" lon="6.48507">
        <ele>1436</ele>
        <time>2014-02-12T07:26:04.000Z</time>
      </trkpt>
      <trkpt lat="45.92178" lon="6.48509">
        <ele>1435.8000488281</ele>
        <time>2014-02-12T07:26:05.000Z</time>
      </trkpt>
      <trkpt lat="45.92177" lon="6.4851">
        <ele>1435.8000488281</ele>
        <time>2014-02-12T07:26:06.000Z</time>
      </trkpt>
      <trkpt lat="45.92177" lon="6.4851">
        <ele>1435.8000488281</ele>
        <time>2014-02-12T07:26:07.000Z</time>
      </trkpt>
      <trkpt lat="45.92176" lon="6.48511">
        <ele>1435.5999755859</ele>
        <time>2014-02-12T07:26:08.000Z</time>
      </trkpt>
      <trkpt lat="45.92176" lon="6.48512">
        <ele>1435.5999755859</ele>
        <time>2014-02-12T07:26:09.000Z</time>
      </trkpt>
      <trkpt lat="45.92175" lon="6.48512">
        <ele>1435.5999755859</ele>
        <time>2014-02-12T07:26:10.000Z</time>
      </trkpt>
      <trkpt lat="45.92175" lon="6.48513">
        <ele>1435.5999755859</ele>
        <time>2014-02-12T07:26:11.000Z</time>
      </trkpt>
      <trkpt lat="45.92173" lon="6.48514">
        <ele>1435.4000244141</ele>
        <time>2014-02-12T07:26:12.000Z</time>
      </trkpt>
      <trkpt lat="45.92174" lon="6.48515">
        <ele>1435.4000244141</ele>
        <time>2014-02-12T07:26:13.000Z</time>
      </trkpt>
      <trkpt lat="45.92173" lon="6.48515">
        <ele>1435.4000244141</ele>
        <time>2014-02-12T07:26:14.000Z</time>
      </trkpt>
      <trkpt lat="45.92172" lon="6.48516">
        <ele>1435.5999755859</ele>
        <time>2014-02-12T07:26:15.000Z</time>
      </trkpt>
      <trkpt lat="45.92172" lon="6.48517">
        <ele>1435.8000488281</ele>
        <time>2014-02-12T07:26:16.000Z</time>
      </trkpt>
      <trkpt lat="45.92171" lon="6.48518">
        <ele>1436</ele>
        <time>2014-02-12T07:26:17.000Z</time>
      </trkpt>
      <trkpt lat="45.92171" lon="6.48519">
        <ele>1436.1999511719</ele>
        <time>2014-02-12T07:26:18.000Z</time>
      </trkpt>
      <trkpt lat="45.9217" lon="6.4852">
        <ele>1436.5999755859</ele>
        <time>2014-02-12T07:26:19.000Z</time>
      </trkpt>
      <trkpt lat="45.92169" lon="6.48522">
        <ele>1437.1999511719</ele>
        <time>2014-02-12T07:26:20.000Z</time>
      </trkpt>
      <trkpt lat="45.92169" lon="6.48522">
        <ele>1437.1999511719</ele>
        <time>2014-02-12T07:26:21.000Z</time>
      </trkpt>
      <trkpt lat="45.92169" lon="6.48523">
        <ele>1437.1999511719</ele>
        <time>2014-02-12T07:26:22.000Z</time>
      </trkpt>
      <trkpt lat="45.92169" lon="6.48524">
        <ele>1437.4000244141</ele>
        <time>2014-02-12T07:26:23.000Z</time>
      </trkpt>
      <trkpt lat="45.92168" lon="6.48524">
        <ele>1437.5999755859</ele>
        <time>2014-02-12T07:26:24.000Z</time>
      </trkpt>
      <trkpt lat="45.92167" lon="6.48525">
        <ele>1438</ele>
        <time>2014-02-12T07:26:25.000Z</time>
      </trkpt>
      <trkpt lat="45.92167" lon="6.48526">
        <ele>1438.1999511719</ele>
        <time>2014-02-12T07:26:26.000Z</time>
      </trkpt>
      <trkpt lat="45.92166" lon="6.48527">
        <ele>1438.8000488281</ele>
        <time>2014-02-12T07:26:27.000Z</time>
      </trkpt>
      <trkpt lat="45.92165" lon="6.48528">
        <ele>1439.1999511719</ele>
        <time>2014-02-12T07:26:28.000Z</time>
      </trkpt>
      <trkpt lat="45.92164" lon="6.48529">
        <ele>1439.5999755859</ele>
        <time>2014-02-12T07:26:29.000Z</time>
      </trkpt>
      <trkpt lat="45.92164" lon="6.48529">
        <ele>1439.4000244141</ele>
        <time>2014-02-12T07:26:30.000Z</time>
      </trkpt>
      <trkpt lat="45.92164" lon="6.48529">
        <ele>1439.5999755859</ele>
        <time>2014-02-12T07:26:31.000Z</time>
      </trkpt>
      <trkpt lat="45.92163" lon="6.48529">
        <ele>1439.8000488281</ele>
        <time>2014-02-12T07:26:32.000Z</time>
      </trkpt>
      <trkpt lat="45.92163" lon="6.48529">
        <ele>1439.8000488281</ele>
        <time>2014-02-12T07:26:33.000Z</time>
      </trkpt>
      <trkpt lat="45.92163" lon="6.4853">
        <ele>1440.1999511719</ele>
        <time>2014-02-12T07:26:34.000Z</time>
      </trkpt>
      <trkpt lat="45.92162" lon="6.4853">
        <ele>1440.5999755859</ele>
        <time>2014-02-12T07:26:35.000Z</time>
      </trkpt>
      <trkpt lat="45.92162" lon="6.4853">
        <ele>1440.5999755859</ele>
        <time>2014-02-12T07:26:36.000Z</time>
      </trkpt>
      <trkpt lat="45.9216" lon="6.48532">
        <ele>1441.4000244141</ele>
        <time>2014-02-12T07:26:37.000Z</time>
      </trkpt>
      <trkpt lat="45.9216" lon="6.48531">
        <ele>1441.4000244141</ele>
        <time>2014-02-12T07:26:38.000Z</time>
      </trkpt>
      <trkpt lat="45.92159" lon="6.48533">
        <ele>1442</ele>
        <time>2014-02-12T07:26:39.000Z</time>
      </trkpt>
      <trkpt lat="45.92159" lon="6.48533">
        <ele>1441.8000488281</ele>
        <time>2014-02-12T07:26:40.000Z</time>
      </trkpt>
      <trkpt lat="45.92158" lon="6.48535">
        <ele>1442.5999755859</ele>
        <time>2014-02-12T07:26:41.000Z</time>
      </trkpt>
      <trkpt lat="45.92158" lon="6.48535">
        <ele>1442.5999755859</ele>
        <time>2014-02-12T07:26:42.000Z</time>
      </trkpt>
      <trkpt lat="45.92157" lon="6.48535">
        <ele>1443</ele>
        <time>2014-02-12T07:26:43.000Z</time>
      </trkpt>
      <trkpt lat="45.92157" lon="6.48535">
        <ele>1443.1999511719</ele>
        <time>2014-02-12T07:26:44.000Z</time>
      </trkpt>
      <trkpt lat="45.92156" lon="6.48536">
        <ele>1443.4000244141</ele>
        <time>2014-02-12T07:26:45.000Z</time>
      </trkpt>
      <trkpt lat="45.92155" lon="6.48536">
        <ele>1443.8000488281</ele>
        <time>2014-02-12T07:26:46.000Z</time>
      </trkpt>
      <trkpt lat="45.92155" lon="6.48536">
        <ele>1443.8000488281</ele>
        <time>2014-02-12T07:26:47.000Z</time>
      </trkpt>
      <trkpt lat="45.92155" lon="6.48537">
        <ele>1444.1999511719</ele>
        <time>2014-02-12T07:26:48.000Z</time>
      </trkpt>
      <trkpt lat="45.92154" lon="6.48537">
        <ele>1444.4000244141</ele>
        <time>2014-02-12T07:26:49.000Z</time>
      </trkpt>
      <trkpt lat="45.92153" lon="6.48538">
        <ele>1444.8000488281</ele>
        <time>2014-02-12T07:26:50.000Z</time>
      </trkpt>
      <trkpt lat="45.92153" lon="6.48538">
        <ele>1445</ele>
        <time>2014-02-12T07:26:51.000Z</time>
      </trkpt>
      <trkpt lat="45.92152" lon="6.48539">
        <ele>1445.1999511719</ele>
        <time>2014-02-12T07:26:52.000Z</time>
      </trkpt>
      <trkpt lat="45.92152" lon="6.4854">
        <ele>1445.4000244141</ele>
        <time>2014-02-12T07:26:53.000Z</time>
      </trkpt>
      <trkpt lat="45.92151" lon="6.48541">
        <ele>1446</ele>
        <time>2014-02-12T07:26:54.000Z</time>
      </trkpt>
      <trkpt lat="45.92151" lon="6.48541">
        <ele>1445.8000488281</ele>
        <time>2014-02-12T07:26:55.000Z</time>
      </trkpt>
      <trkpt lat="45.92151" lon="6.48543">
        <ele>1446.1999511719</ele>
        <time>2014-02-12T07:26:56.000Z</time>
      </trkpt>
      <trkpt lat="45.9215" lon="6.48544">
        <ele>1446.4000244141</ele>
        <time>2014-02-12T07:26:57.000Z</time>
      </trkpt>
      <trkpt lat="45.9215" lon="6.48545">
        <ele>1446.5999755859</ele>
        <time>2014-02-12T07:26:58.000Z</time>
      </trkpt>
      <trkpt lat="45.9215" lon="6.48545">
        <ele>1446.4000244141</ele>
        <time>2014-02-12T07:26:59.000Z</time>
      </trkpt>
      <trkpt lat="45.9215" lon="6.48546">
        <ele>1446.4000244141</ele>
        <time>2014-02-12T07:27:00.000Z</time>
      </trkpt>
      <trkpt lat="45.92149" lon="6.48547">
        <ele>1446.5999755859</ele>
        <time>2014-02-12T07:27:01.000Z</time>
      </trkpt>
      <trkpt lat="45.92149" lon="6.48548">
        <ele>1446.8000488281</ele>
        <time>2014-02-12T07:27:02.000Z</time>
      </trkpt>
      <trkpt lat="45.92149" lon="6.48549">
        <ele>1447</ele>
        <time>2014-02-12T07:27:03.000Z</time>
      </trkpt>
      <trkpt lat="45.92149" lon="6.48549">
        <ele>1447</ele>
        <time>2014-02-12T07:27:04.000Z</time>
      </trkpt>
      <trkpt lat="45.92148" lon="6.48552">
        <ele>1447.5999755859</ele>
        <time>2014-02-12T07:27:05.000Z</time>
      </trkpt>
      <trkpt lat="45.92147" lon="6.48553">
        <ele>1448</ele>
        <time>2014-02-12T07:27:06.000Z</time>
      </trkpt>
      <trkpt lat="45.92146" lon="6.48554">
        <ele>1448.1999511719</ele>
        <time>2014-02-12T07:27:07.000Z</time>
      </trkpt>
      <trkpt lat="45.92145" lon="6.48554">
        <ele>1448.5999755859</ele>
        <time>2014-02-12T07:27:08.000Z</time>
      </trkpt>
      <trkpt lat="45.92145" lon="6.48554">
        <ele>1448.5999755859</ele>
        <time>2014-02-12T07:27:09.000Z</time>
      </trkpt>
      <trkpt lat="45.92145" lon="6.48554">
        <ele>1449</ele>
        <time>2014-02-12T07:27:10.000Z</time>
      </trkpt>
      <trkpt lat="45.92144" lon="6.48555">
        <ele>1449.4000244141</ele>
        <time>2014-02-12T07:27:11.000Z</time>
      </trkpt>
      <trkpt lat="45.92144" lon="6.48554">
        <ele>1449.5999755859</ele>
        <time>2014-02-12T07:27:12.000Z</time>
      </trkpt>
      <trkpt lat="45.92143" lon="6.48554">
        <ele>1450</ele>
        <time>2014-02-12T07:27:13.000Z</time>
      </trkpt>
      <trkpt lat="45.92143" lon="6.48554">
        <ele>1450</ele>
        <time>2014-02-12T07:27:14.000Z</time>
      </trkpt>
      <trkpt lat="45.92143" lon="6.48554">
        <ele>1450</ele>
        <time>2014-02-12T07:27:15.000Z</time>
      </trkpt>
      <trkpt lat="45.92143" lon="6.48554">
        <ele>1450</ele>
        <time>2014-02-12T07:27:16.000Z</time>
      </trkpt>
      <trkpt lat="45.92141" lon="6.48554">
        <ele>1450.8000488281</ele>
        <time>2014-02-12T07:27:17.000Z</time>
      </trkpt>
      <trkpt lat="45.9214" lon="6.48554">
        <ele>1451.1999511719</ele>
        <time>2014-02-12T07:27:18.000Z</time>
      </trkpt>
      <trkpt lat="45.92139" lon="6.48554">
        <ele>1451.4000244141</ele>
        <time>2014-02-12T07:27:19.000Z</time>
      </trkpt>
      <trkpt lat="45.92138" lon="6.48553">
        <ele>1451.4000244141</ele>
        <time>2014-02-12T07:27:20.000Z</time>
      </trkpt>
      <trkpt lat="45.92138" lon="6.48553">
        <ele>1451.4000244141</ele>
        <time>2014-02-12T07:27:21.000Z</time>
      </trkpt>
      <trkpt lat="45.92138" lon="6.48551">
        <ele>1451.5999755859</ele>
        <time>2014-02-12T07:27:22.000Z</time>
      </trkpt>
      <trkpt lat="45.92137" lon="6.48549">
        <ele>1451.8000488281</ele>
        <time>2014-02-12T07:27:23.000Z</time>
      </trkpt>
      <trkpt lat="45.92137" lon="6.48548">
        <ele>1451.8000488281</ele>
        <time>2014-02-12T07:27:24.000Z</time>
      </trkpt>
      <trkpt lat="45.92136" lon="6.48546">
        <ele>1452</ele>
        <time>2014-02-12T07:27:25.000Z</time>
      </trkpt>
      <trkpt lat="45.92136" lon="6.48546">
        <ele>1451.8000488281</ele>
        <time>2014-02-12T07:27:26.000Z</time>
      </trkpt>
      <trkpt lat="45.92136" lon="6.48543">
        <ele>1452</ele>
        <time>2014-02-12T07:27:27.000Z</time>
      </trkpt>
      <trkpt lat="45.92135" lon="6.48542">
        <ele>1452</ele>
        <time>2014-02-12T07:27:28.000Z</time>
      </trkpt>
      <trkpt lat="45.92135" lon="6.48541">
        <ele>1452.1999511719</ele>
        <time>2014-02-12T07:27:29.000Z</time>
      </trkpt>
      <trkpt lat="45.92135" lon="6.48539">
        <ele>1452.1999511719</ele>
        <time>2014-02-12T07:27:30.000Z</time>
      </trkpt>
      <trkpt lat="45.92134" lon="6.48539">
        <ele>1452.1999511719</ele>
        <time>2014-02-12T07:27:31.000Z</time>
      </trkpt>
      <trkpt lat="45.92134" lon="6.48538">
        <ele>1452.4000244141</ele>
        <time>2014-02-12T07:27:32.000Z</time>
      </trkpt>
      <trkpt lat="45.92133" lon="6.48537">
        <ele>1452.4000244141</ele>
        <time>2014-02-12T07:27:33.000Z</time>
      </trkpt>
      <trkpt lat="45.92132" lon="6.48536">
        <ele>1452.5999755859</ele>
        <time>2014-02-12T07:27:34.000Z</time>
      </trkpt>
      <trkpt lat="45.92131" lon="6.48535">
        <ele>1452.8000488281</ele>
        <time>2014-02-12T07:27:35.000Z</time>
      </trkpt>
      <trkpt lat="45.92131" lon="6.48534">
        <ele>1453</ele>
        <time>2014-02-12T07:27:36.000Z</time>
      </trkpt>
      <trkpt lat="45.9213" lon="6.48533">
        <ele>1453</ele>
        <time>2014-02-12T07:27:37.000Z</time>
      </trkpt>
      <trkpt lat="45.92129" lon="6.48531">
        <ele>1453.1999511719</ele>
        <time>2014-02-12T07:27:38.000Z</time>
      </trkpt>
      <trkpt lat="45.92128" lon="6.48531">
        <ele>1453.4000244141</ele>
        <time>2014-02-12T07:27:39.000Z</time>
      </trkpt>
      <trkpt lat="45.92127" lon="6.48531">
        <ele>1453.5999755859</ele>
        <time>2014-02-12T07:27:40.000Z</time>
      </trkpt>
      <trkpt lat="45.92127" lon="6.48531">
        <ele>1453.5999755859</ele>
        <time>2014-02-12T07:27:41.000Z</time>
      </trkpt>
      <trkpt lat="45.92126" lon="6.48531">
        <ele>1453.5999755859</ele>
        <time>2014-02-12T07:27:42.000Z</time>
      </trkpt>
      <trkpt lat="45.92124" lon="6.48531">
        <ele>1454</ele>
        <time>2014-02-12T07:27:43.000Z</time>
      </trkpt>
      <trkpt lat="45.92124" lon="6.48531">
        <ele>1454</ele>
        <time>2014-02-12T07:27:44.000Z</time>
      </trkpt>
      <trkpt lat="45.92123" lon="6.48531">
        <ele>1454.1999511719</ele>
        <time>2014-02-12T07:27:45.000Z</time>
      </trkpt>
      <trkpt lat="45.92122" lon="6.48531">
        <ele>1454.4000244141</ele>
        <time>2014-02-12T07:27:46.000Z</time>
      </trkpt>
      <trkpt lat="45.92121" lon="6.48532">
        <ele>1454.4000244141</ele>
        <time>2014-02-12T07:27:47.000Z</time>
      </trkpt>
      <trkpt lat="45.9212" lon="6.48532">
        <ele>1454.5999755859</ele>
        <time>2014-02-12T07:27:48.000Z</time>
      </trkpt>
      <trkpt lat="45.92119" lon="6.48532">
        <ele>1454.8000488281</ele>
        <time>2014-02-12T07:27:49.000Z</time>
      </trkpt>
      <trkpt lat="45.92119" lon="6.48533">
        <ele>1454.8000488281</ele>
        <time>2014-02-12T07:27:50.000Z</time>
      </trkpt>
      <trkpt lat="45.92118" lon="6.48533">
        <ele>1454.8000488281</ele>
        <time>2014-02-12T07:27:51.000Z</time>
      </trkpt>
      <trkpt lat="45.92117" lon="6.48535">
        <ele>1455</ele>
        <time>2014-02-12T07:27:52.000Z</time>
      </trkpt>
      <trkpt lat="45.92116" lon="6.48535">
        <ele>1455.1999511719</ele>
        <time>2014-02-12T07:27:53.000Z</time>
      </trkpt>
      <trkpt lat="45.92116" lon="6.48535">
        <ele>1455.1999511719</ele>
        <time>2014-02-12T07:27:54.000Z</time>
      </trkpt>
      <trkpt lat="45.92114" lon="6.48537">
        <ele>1455.5999755859</ele>
        <time>2014-02-12T07:27:55.000Z</time>
      </trkpt>
      <trkpt lat="45.92113" lon="6.48537">
        <ele>1455.8000488281</ele>
        <time>2014-02-12T07:27:56.000Z</time>
      </trkpt>
      <trkpt lat="45.92111" lon="6.48538">
        <ele>1456</ele>
        <time>2014-02-12T07:27:57.000Z</time>
      </trkpt>
      <trkpt lat="45.9211" lon="6.48538">
        <ele>1456.1999511719</ele>
        <time>2014-02-12T07:27:58.000Z</time>
      </trkpt>
      <trkpt lat="45.9211" lon="6.48539">
        <ele>1456.4000244141</ele>
        <time>2014-02-12T07:27:59.000Z</time>
      </trkpt>
      <trkpt lat="45.92109" lon="6.48539">
        <ele>1456.8000488281</ele>
        <time>2014-02-12T07:28:00.000Z</time>
      </trkpt>
      <trkpt lat="45.92109" lon="6.48539">
        <ele>1457</ele>
        <time>2014-02-12T07:28:01.000Z</time>
      </trkpt>
      <trkpt lat="45.92108" lon="6.4854">
        <ele>1457.4000244141</ele>
        <time>2014-02-12T07:28:02.000Z</time>
      </trkpt>
      <trkpt lat="45.92107" lon="6.48541">
        <ele>1457.5999755859</ele>
        <time>2014-02-12T07:28:03.000Z</time>
      </trkpt>
      <trkpt lat="45.92107" lon="6.48541">
        <ele>1457.8000488281</ele>
        <time>2014-02-12T07:28:04.000Z</time>
      </trkpt>
      <trkpt lat="45.92106" lon="6.48541">
        <ele>1458.1999511719</ele>
        <time>2014-02-12T07:28:05.000Z</time>
      </trkpt>
      <trkpt lat="45.92105" lon="6.48542">
        <ele>1458.4000244141</ele>
        <time>2014-02-12T07:28:06.000Z</time>
      </trkpt>
      <trkpt lat="45.92104" lon="6.48542">
        <ele>1458.8000488281</ele>
        <time>2014-02-12T07:28:07.000Z</time>
      </trkpt>
      <trkpt lat="45.92103" lon="6.48543">
        <ele>1459.1999511719</ele>
        <time>2014-02-12T07:28:08.000Z</time>
      </trkpt>
      <trkpt lat="45.92103" lon="6.48543">
        <ele>1459.4000244141</ele>
        <time>2014-02-12T07:28:09.000Z</time>
      </trkpt>
      <trkpt lat="45.92102" lon="6.48544">
        <ele>1459.8000488281</ele>
        <time>2014-02-12T07:28:10.000Z</time>
      </trkpt>
      <trkpt lat="45.92101" lon="6.48544">
        <ele>1460</ele>
        <time>2014-02-12T07:28:11.000Z</time>
      </trkpt>
      <trkpt lat="45.921" lon="6.48544">
        <ele>1460.4000244141</ele>
        <time>2014-02-12T07:28:12.000Z</time>
      </trkpt>
      <trkpt lat="45.92099" lon="6.48546">
        <ele>1461</ele>
        <time>2014-02-12T07:28:13.000Z</time>
      </trkpt>
      <trkpt lat="45.92097" lon="6.48547">
        <ele>1461.5999755859</ele>
        <time>2014-02-12T07:28:14.000Z</time>
      </trkpt>
      <trkpt lat="45.92096" lon="6.48548">
        <ele>1462</ele>
        <time>2014-02-12T07:28:15.000Z</time>
      </trkpt>
      <trkpt lat="45.92096" lon="6.48548">
        <ele>1462.4000244141</ele>
        <time>2014-02-12T07:28:16.000Z</time>
      </trkpt>
      <trkpt lat="45.92095" lon="6.48548">
        <ele>1462.5999755859</ele>
        <time>2014-02-12T07:28:17.000Z</time>
      </trkpt>
      <trkpt lat="45.92094" lon="6.48549">
        <ele>1463</ele>
        <time>2014-02-12T07:28:18.000Z</time>
      </trkpt>
      <trkpt lat="45.92093" lon="6.48549">
        <ele>1463.4000244141</ele>
        <time>2014-02-12T07:28:19.000Z</time>
      </trkpt>
      <trkpt lat="45.92092" lon="6.48549">
        <ele>1463.5999755859</ele>
        <time>2014-02-12T07:28:20.000Z</time>
      </trkpt>
      <trkpt lat="45.92092" lon="6.48549">
        <ele>1463.5999755859</ele>
        <time>2014-02-12T07:28:21.000Z</time>
      </trkpt>
      <trkpt lat="45.92092" lon="6.4855">
        <ele>1463.8000488281</ele>
        <time>2014-02-12T07:28:22.000Z</time>
      </trkpt>
      <trkpt lat="45.92091" lon="6.4855">
        <ele>1464.1999511719</ele>
        <time>2014-02-12T07:28:23.000Z</time>
      </trkpt>
      <trkpt lat="45.9209" lon="6.48551">
        <ele>1464.5999755859</ele>
        <time>2014-02-12T07:28:24.000Z</time>
      </trkpt>
      <trkpt lat="45.92088" lon="6.48552">
        <ele>1465.1999511719</ele>
        <time>2014-02-12T07:28:25.000Z</time>
      </trkpt>
      <trkpt lat="45.92087" lon="6.48553">
        <ele>1465.5999755859</ele>
        <time>2014-02-12T07:28:26.000Z</time>
      </trkpt>
      <trkpt lat="45.92086" lon="6.48554">
        <ele>1466.1999511719</ele>
        <time>2014-02-12T07:28:27.000Z</time>
      </trkpt>
      <trkpt lat="45.92086" lon="6.48555">
        <ele>1466.4000244141</ele>
        <time>2014-02-12T07:28:28.000Z</time>
      </trkpt>
      <trkpt lat="45.92085" lon="6.48556">
        <ele>1466.8000488281</ele>
        <time>2014-02-12T07:28:29.000Z</time>
      </trkpt>
      <trkpt lat="45.92085" lon="6.48556">
        <ele>1466.8000488281</ele>
        <time>2014-02-12T07:28:30.000Z</time>
      </trkpt>
      <trkpt lat="45.92085" lon="6.48556">
        <ele>1466.8000488281</ele>
        <time>2014-02-12T07:28:31.000Z</time>
      </trkpt>
      <trkpt lat="45.92085" lon="6.48557">
        <ele>1467</ele>
        <time>2014-02-12T07:28:32.000Z</time>
      </trkpt>
      <trkpt lat="45.92085" lon="6.48558">
        <ele>1467.1999511719</ele>
        <time>2014-02-12T07:28:33.000Z</time>
      </trkpt>
      <trkpt lat="45.92084" lon="6.48559">
        <ele>1467.5999755859</ele>
        <time>2014-02-12T07:28:34.000Z</time>
      </trkpt>
      <trkpt lat="45.92084" lon="6.4856">
        <ele>1467.8000488281</ele>
        <time>2014-02-12T07:28:35.000Z</time>
      </trkpt>
      <trkpt lat="45.92083" lon="6.48561">
        <ele>1468.4000244141</ele>
        <time>2014-02-12T07:28:36.000Z</time>
      </trkpt>
      <trkpt lat="45.92082" lon="6.48562">
        <ele>1468.8000488281</ele>
        <time>2014-02-12T07:28:37.000Z</time>
      </trkpt>
      <trkpt lat="45.92081" lon="6.48562">
        <ele>1469</ele>
        <time>2014-02-12T07:28:38.000Z</time>
      </trkpt>
      <trkpt lat="45.92081" lon="6.48562">
        <ele>1469</ele>
        <time>2014-02-12T07:28:39.000Z</time>
      </trkpt>
      <trkpt lat="45.9208" lon="6.48563">
        <ele>1469.1999511719</ele>
        <time>2014-02-12T07:28:40.000Z</time>
      </trkpt>
      <trkpt lat="45.92078" lon="6.48564">
        <ele>1470</ele>
        <time>2014-02-12T07:28:41.000Z</time>
      </trkpt>
      <trkpt lat="45.92077" lon="6.48564">
        <ele>1470.4000244141</ele>
        <time>2014-02-12T07:28:42.000Z</time>
      </trkpt>
      <trkpt lat="45.92076" lon="6.48565">
        <ele>1470.5999755859</ele>
        <time>2014-02-12T07:28:43.000Z</time>
      </trkpt>
      <trkpt lat="45.92075" lon="6.48565">
        <ele>1471</ele>
        <time>2014-02-12T07:28:44.000Z</time>
      </trkpt>
      <trkpt lat="45.92075" lon="6.48565">
        <ele>1471.1999511719</ele>
        <time>2014-02-12T07:28:45.000Z</time>
      </trkpt>
      <trkpt lat="45.92074" lon="6.48564">
        <ele>1471.4000244141</ele>
        <time>2014-02-12T07:28:46.000Z</time>
      </trkpt>
      <trkpt lat="45.92073" lon="6.48565">
        <ele>1471.8000488281</ele>
        <time>2014-02-12T07:28:47.000Z</time>
      </trkpt>
      <trkpt lat="45.92072" lon="6.48564">
        <ele>1472</ele>
        <time>2014-02-12T07:28:48.000Z</time>
      </trkpt>
      <trkpt lat="45.92071" lon="6.48564">
        <ele>1472.1999511719</ele>
        <time>2014-02-12T07:28:49.000Z</time>
      </trkpt>
      <trkpt lat="45.9207" lon="6.48564">
        <ele>1472.5999755859</ele>
        <time>2014-02-12T07:28:50.000Z</time>
      </trkpt>
      <trkpt lat="45.92069" lon="6.48563">
        <ele>1472.8000488281</ele>
        <time>2014-02-12T07:28:51.000Z</time>
      </trkpt>
      <trkpt lat="45.92068" lon="6.48563">
        <ele>1473</ele>
        <time>2014-02-12T07:28:52.000Z</time>
      </trkpt>
      <trkpt lat="45.92067" lon="6.48563">
        <ele>1473.4000244141</ele>
        <time>2014-02-12T07:28:53.000Z</time>
      </trkpt>
      <trkpt lat="45.92066" lon="6.48563">
        <ele>1473.5999755859</ele>
        <time>2014-02-12T07:28:54.000Z</time>
      </trkpt>
      <trkpt lat="45.92066" lon="6.48562">
        <ele>1473.8000488281</ele>
        <time>2014-02-12T07:28:55.000Z</time>
      </trkpt>
      <trkpt lat="45.92065" lon="6.48563">
        <ele>1474</ele>
        <time>2014-02-12T07:28:56.000Z</time>
      </trkpt>
      <trkpt lat="45.92062" lon="6.48563">
        <ele>1474.8000488281</ele>
        <time>2014-02-12T07:28:57.000Z</time>
      </trkpt>
      <trkpt lat="45.92061" lon="6.48563">
        <ele>1475.1999511719</ele>
        <time>2014-02-12T07:28:58.000Z</time>
      </trkpt>
      <trkpt lat="45.9206" lon="6.48562">
        <ele>1475.5999755859</ele>
        <time>2014-02-12T07:28:59.000Z</time>
      </trkpt>
      <trkpt lat="45.92059" lon="6.48562">
        <ele>1475.8000488281</ele>
        <time>2014-02-12T07:29:00.000Z</time>
      </trkpt>
      <trkpt lat="45.92058" lon="6.48562">
        <ele>1476.1999511719</ele>
        <time>2014-02-12T07:29:01.000Z</time>
      </trkpt>
      <trkpt lat="45.92057" lon="6.48562">
        <ele>1476.4000244141</ele>
        <time>2014-02-12T07:29:02.000Z</time>
      </trkpt>
      <trkpt lat="45.92056" lon="6.48561">
        <ele>1476.4000244141</ele>
        <time>2014-02-12T07:29:03.000Z</time>
      </trkpt>
      <trkpt lat="45.92055" lon="6.48561">
        <ele>1476.4000244141</ele>
        <time>2014-02-12T07:29:04.000Z</time>
      </trkpt>
      <trkpt lat="45.92054" lon="6.48561">
        <ele>1476.4000244141</ele>
        <time>2014-02-12T07:29:05.000Z</time>
      </trkpt>
      <trkpt lat="45.92053" lon="6.48561">
        <ele>1476.5999755859</ele>
        <time>2014-02-12T07:29:06.000Z</time>
      </trkpt>
      <trkpt lat="45.92052" lon="6.48562">
        <ele>1476.5999755859</ele>
        <time>2014-02-12T07:29:07.000Z</time>
      </trkpt>
      <trkpt lat="45.9205" lon="6.48562">
        <ele>1476.8000488281</ele>
        <time>2014-02-12T07:29:08.000Z</time>
      </trkpt>
      <trkpt lat="45.92049" lon="6.48563">
        <ele>1477</ele>
        <time>2014-02-12T07:29:09.000Z</time>
      </trkpt>
      <trkpt lat="45.92049" lon="6.48562">
        <ele>1477</ele>
        <time>2014-02-12T07:29:10.000Z</time>
      </trkpt>
      <trkpt lat="45.92047" lon="6.48563">
        <ele>1477</ele>
        <time>2014-02-12T07:29:11.000Z</time>
      </trkpt>
      <trkpt lat="45.92046" lon="6.48563">
        <ele>1477.1999511719</ele>
        <time>2014-02-12T07:29:12.000Z</time>
      </trkpt>
      <trkpt lat="45.92045" lon="6.48563">
        <ele>1477.1999511719</ele>
        <time>2014-02-12T07:29:13.000Z</time>
      </trkpt>
      <trkpt lat="45.92045" lon="6.48563">
        <ele>1477.1999511719</ele>
        <time>2014-02-12T07:29:14.000Z</time>
      </trkpt>
      <trkpt lat="45.92044" lon="6.48563">
        <ele>1477.4000244141</ele>
        <time>2014-02-12T07:29:15.000Z</time>
      </trkpt>
      <trkpt lat="45.92043" lon="6.48563">
        <ele>1477.4000244141</ele>
        <time>2014-02-12T07:29:16.000Z</time>
      </trkpt>
      <trkpt lat="45.92043" lon="6.48563">
        <ele>1477.4000244141</ele>
        <time>2014-02-12T07:29:17.000Z</time>
      </trkpt>
      <trkpt lat="45.92042" lon="6.48563">
        <ele>1477.4000244141</ele>
        <time>2014-02-12T07:29:18.000Z</time>
      </trkpt>
      <trkpt lat="45.92042" lon="6.48564">
        <ele>1477.5999755859</ele>
        <time>2014-02-12T07:29:19.000Z</time>
      </trkpt>
      <trkpt lat="45.92041" lon="6.48564">
        <ele>1477.5999755859</ele>
        <time>2014-02-12T07:29:20.000Z</time>
      </trkpt>
      <trkpt lat="45.9204" lon="6.48564">
        <ele>1477.8000488281</ele>
        <time>2014-02-12T07:29:21.000Z</time>
      </trkpt>
      <trkpt lat="45.92039" lon="6.48565">
        <ele>1477.8000488281</ele>
        <time>2014-02-12T07:29:22.000Z</time>
      </trkpt>
      <trkpt lat="45.92038" lon="6.48565">
        <ele>1478</ele>
        <time>2014-02-12T07:29:23.000Z</time>
      </trkpt>
      <trkpt lat="45.92037" lon="6.48565">
        <ele>1478</ele>
        <time>2014-02-12T07:29:24.000Z</time>
      </trkpt>
      <trkpt lat="45.92036" lon="6.48566">
        <ele>1478.1999511719</ele>
        <time>2014-02-12T07:29:25.000Z</time>
      </trkpt>
      <trkpt lat="45.92035" lon="6.48567">
        <ele>1478.4000244141</ele>
        <time>2014-02-12T07:29:26.000Z</time>
      </trkpt>
      <trkpt lat="45.92034" lon="6.48567">
        <ele>1478.4000244141</ele>
        <time>2014-02-12T07:29:27.000Z</time>
      </trkpt>
      <trkpt lat="45.92031" lon="6.48568">
        <ele>1478.5999755859</ele>
        <time>2014-02-12T07:29:29.000Z</time>
      </trkpt>
      <trkpt lat="45.9203" lon="6.48568">
        <ele>1478.5999755859</ele>
        <time>2014-02-12T07:29:30.000Z</time>
      </trkpt>
      <trkpt lat="45.92029" lon="6.48569">
        <ele>1478.8000488281</ele>
        <time>2014-02-12T07:29:31.000Z</time>
      </trkpt>
      <trkpt lat="45.92028" lon="6.48569">
        <ele>1478.8000488281</ele>
        <time>2014-02-12T07:29:32.000Z</time>
      </trkpt>
      <trkpt lat="45.92027" lon="6.48569">
        <ele>1479</ele>
        <time>2014-02-12T07:29:33.000Z</time>
      </trkpt>
      <trkpt lat="45.92026" lon="6.48569">
        <ele>1479</ele>
        <time>2014-02-12T07:29:34.000Z</time>
      </trkpt>
      <trkpt lat="45.92024" lon="6.48568">
        <ele>1479</ele>
        <time>2014-02-12T07:29:35.000Z</time>
      </trkpt>
      <trkpt lat="45.92022" lon="6.48568">
        <ele>1479.1999511719</ele>
        <time>2014-02-12T07:29:37.000Z</time>
      </trkpt>
      <trkpt lat="45.92021" lon="6.48568">
        <ele>1479.1999511719</ele>
        <time>2014-02-12T07:29:38.000Z</time>
      </trkpt>
      <trkpt lat="45.9202" lon="6.48568">
        <ele>1479.4000244141</ele>
        <time>2014-02-12T07:29:39.000Z</time>
      </trkpt>
      <trkpt lat="45.92019" lon="6.48569">
        <ele>1479.4000244141</ele>
        <time>2014-02-12T07:29:40.000Z</time>
      </trkpt>
      <trkpt lat="45.92017" lon="6.48569">
        <ele>1479.4000244141</ele>
        <time>2014-02-12T07:29:41.000Z</time>
      </trkpt>
      <trkpt lat="45.92016" lon="6.48569">
        <ele>1479.5999755859</ele>
        <time>2014-02-12T07:29:42.000Z</time>
      </trkpt>
      <trkpt lat="45.92015" lon="6.48569">
        <ele>1479.5999755859</ele>
        <time>2014-02-12T07:29:43.000Z</time>
      </trkpt>
      <trkpt lat="45.92013" lon="6.48569">
        <ele>1479.8000488281</ele>
        <time>2014-02-12T07:29:44.000Z</time>
      </trkpt>
      <trkpt lat="45.92012" lon="6.48569">
        <ele>1479.8000488281</ele>
        <time>2014-02-12T07:29:45.000Z</time>
      </trkpt>
      <trkpt lat="45.9201" lon="6.48568">
        <ele>1479.8000488281</ele>
        <time>2014-02-12T07:29:46.000Z</time>
      </trkpt>
      <trkpt lat="45.92009" lon="6.48568">
        <ele>1480</ele>
        <time>2014-02-12T07:29:47.000Z</time>
      </trkpt>
      <trkpt lat="45.92009" lon="6.48568">
        <ele>1480</ele>
        <time>2014-02-12T07:29:48.000Z</time>
      </trkpt>
      <trkpt lat="45.92009" lon="6.48568">
        <ele>1480</ele>
        <time>2014-02-12T07:29:49.000Z</time>
      </trkpt>
      <trkpt lat="45.92009" lon="6.48568">
        <ele>1480</ele>
        <time>2014-02-12T07:29:50.000Z</time>
      </trkpt>
      <trkpt lat="45.92009" lon="6.48568">
        <ele>1480</ele>
        <time>2014-02-12T07:29:51.000Z</time>
      </trkpt>
      <trkpt lat="45.92009" lon="6.48568">
        <ele>1480</ele>
        <time>2014-02-12T07:29:52.000Z</time>
      </trkpt>
      <trkpt lat="45.92009" lon="6.48568">
        <ele>1480</ele>
        <time>2014-02-12T07:29:53.000Z</time>
      </trkpt>
      <trkpt lat="45.92008" lon="6.48569">
        <ele>1480</ele>
        <time>2014-02-12T07:29:54.000Z</time>
      </trkpt>
      <trkpt lat="45.92008" lon="6.4857">
        <ele>1480</ele>
        <time>2014-02-12T07:29:55.000Z</time>
      </trkpt>
      <trkpt lat="45.92008" lon="6.48571">
        <ele>1480.1999511719</ele>
        <time>2014-02-12T07:29:56.000Z</time>
      </trkpt>
      <trkpt lat="45.92008" lon="6.48572">
        <ele>1480.1999511719</ele>
        <time>2014-02-12T07:29:57.000Z</time>
      </trkpt>
      <trkpt lat="45.92007" lon="6.48573">
        <ele>1480.1999511719</ele>
        <time>2014-02-12T07:29:58.000Z</time>
      </trkpt>
      <trkpt lat="45.92007" lon="6.48574">
        <ele>1480.1999511719</ele>
        <time>2014-02-12T07:29:59.000Z</time>
      </trkpt>
      <trkpt lat="45.92007" lon="6.48575">
        <ele>1480.1999511719</ele>
        <time>2014-02-12T07:30:00.000Z</time>
      </trkpt>
      <trkpt lat="45.92007" lon="6.48577">
        <ele>1480.4000244141</ele>
        <time>2014-02-12T07:30:01.000Z</time>
      </trkpt>
      <trkpt lat="45.92007" lon="6.48579">
        <ele>1480.4000244141</ele>
        <time>2014-02-12T07:30:02.000Z</time>
      </trkpt>
      <trkpt lat="45.92007" lon="6.4858">
        <ele>1480.4000244141</ele>
        <time>2014-02-12T07:30:03.000Z</time>
      </trkpt>
      <trkpt lat="45.92007" lon="6.48581">
        <ele>1480.5999755859</ele>
        <time>2014-02-12T07:30:04.000Z</time>
      </trkpt>
      <trkpt lat="45.92007" lon="6.48583">
        <ele>1480.5999755859</ele>
        <time>2014-02-12T07:30:05.000Z</time>
      </trkpt>
      <trkpt lat="45.92007" lon="6.48584">
        <ele>1480.5999755859</ele>
        <time>2014-02-12T07:30:06.000Z</time>
      </trkpt>
      <trkpt lat="45.92006" lon="6.48586">
        <ele>1480.8000488281</ele>
        <time>2014-02-12T07:30:07.000Z</time>
      </trkpt>
      <trkpt lat="45.92006" lon="6.48587">
        <ele>1480.8000488281</ele>
        <time>2014-02-12T07:30:08.000Z</time>
      </trkpt>
      <trkpt lat="45.92005" lon="6.48588">
        <ele>1481</ele>
        <time>2014-02-12T07:30:09.000Z</time>
      </trkpt>
      <trkpt lat="45.92004" lon="6.48589">
        <ele>1481</ele>
        <time>2014-02-12T07:30:10.000Z</time>
      </trkpt>
      <trkpt lat="45.92004" lon="6.4859">
        <ele>1481</ele>
        <time>2014-02-12T07:30:11.000Z</time>
      </trkpt>
      <trkpt lat="45.92003" lon="6.48592">
        <ele>1481.1999511719</ele>
        <time>2014-02-12T07:30:12.000Z</time>
      </trkpt>
      <trkpt lat="45.92003" lon="6.48593">
        <ele>1481.1999511719</ele>
        <time>2014-02-12T07:30:13.000Z</time>
      </trkpt>
      <trkpt lat="45.92002" lon="6.48594">
        <ele>1481.4000244141</ele>
        <time>2014-02-12T07:30:14.000Z</time>
      </trkpt>
      <trkpt lat="45.92002" lon="6.48595">
        <ele>1481.4000244141</ele>
        <time>2014-02-12T07:30:15.000Z</time>
      </trkpt>
      <trkpt lat="45.92002" lon="6.48596">
        <ele>1481.5999755859</ele>
        <time>2014-02-12T07:30:16.000Z</time>
      </trkpt>
      <trkpt lat="45.92001" lon="6.48597">
        <ele>1481.8000488281</ele>
        <time>2014-02-12T07:30:17.000Z</time>
      </trkpt>
      <trkpt lat="45.92001" lon="6.48598">
        <ele>1482</ele>
        <time>2014-02-12T07:30:18.000Z</time>
      </trkpt>
      <trkpt lat="45.92001" lon="6.48599">
        <ele>1482.1999511719</ele>
        <time>2014-02-12T07:30:19.000Z</time>
      </trkpt>
      <trkpt lat="45.92" lon="6.486">
        <ele>1482.4000244141</ele>
        <time>2014-02-12T07:30:20.000Z</time>
      </trkpt>
      <trkpt lat="45.92" lon="6.48601">
        <ele>1482.8000488281</ele>
        <time>2014-02-12T07:30:21.000Z</time>
      </trkpt>
      <trkpt lat="45.91999" lon="6.48602">
        <ele>1483</ele>
        <time>2014-02-12T07:30:22.000Z</time>
      </trkpt>
      <trkpt lat="45.91999" lon="6.48604">
        <ele>1483.1999511719</ele>
        <time>2014-02-12T07:30:23.000Z</time>
      </trkpt>
      <trkpt lat="45.91999" lon="6.48605">
        <ele>1483.4000244141</ele>
        <time>2014-02-12T07:30:24.000Z</time>
      </trkpt>
      <trkpt lat="45.91998" lon="6.48606">
        <ele>1483.5999755859</ele>
        <time>2014-02-12T07:30:25.000Z</time>
      </trkpt>
      <trkpt lat="45.91998" lon="6.48606">
        <ele>1484</ele>
        <time>2014-02-12T07:30:26.000Z</time>
      </trkpt>
      <trkpt lat="45.91997" lon="6.48607">
        <ele>1484.1999511719</ele>
        <time>2014-02-12T07:30:27.000Z</time>
      </trkpt>
      <trkpt lat="45.91996" lon="6.48608">
        <ele>1484.5999755859</ele>
        <time>2014-02-12T07:30:28.000Z</time>
      </trkpt>
      <trkpt lat="45.91995" lon="6.48609">
        <ele>1484.8000488281</ele>
        <time>2014-02-12T07:30:29.000Z</time>
      </trkpt>
      <trkpt lat="45.91995" lon="6.4861">
        <ele>1485</ele>
        <time>2014-02-12T07:30:30.000Z</time>
      </trkpt>
      <trkpt lat="45.91994" lon="6.4861">
        <ele>1485.1999511719</ele>
        <time>2014-02-12T07:30:31.000Z</time>
      </trkpt>
      <trkpt lat="45.91993" lon="6.48611">
        <ele>1485.4000244141</ele>
        <time>2014-02-12T07:30:32.000Z</time>
      </trkpt>
      <trkpt lat="45.91993" lon="6.48612">
        <ele>1485.5999755859</ele>
        <time>2014-02-12T07:30:33.000Z</time>
      </trkpt>
      <trkpt lat="45.91993" lon="6.48613">
        <ele>1485.8000488281</ele>
        <time>2014-02-12T07:30:34.000Z</time>
      </trkpt>
      <trkpt lat="45.91992" lon="6.48613">
        <ele>1486</ele>
        <time>2014-02-12T07:30:35.000Z</time>
      </trkpt>
      <trkpt lat="45.91992" lon="6.48614">
        <ele>1486.1999511719</ele>
        <time>2014-02-12T07:30:36.000Z</time>
      </trkpt>
      <trkpt lat="45.91991" lon="6.48615">
        <ele>1486.4000244141</ele>
        <time>2014-02-12T07:30:37.000Z</time>
      </trkpt>
      <trkpt lat="45.91991" lon="6.48616">
        <ele>1486.5999755859</ele>
        <time>2014-02-12T07:30:38.000Z</time>
      </trkpt>
      <trkpt lat="45.9199" lon="6.48617">
        <ele>1487</ele>
        <time>2014-02-12T07:30:39.000Z</time>
      </trkpt>
      <trkpt lat="45.91989" lon="6.48618">
        <ele>1487.1999511719</ele>
        <time>2014-02-12T07:30:40.000Z</time>
      </trkpt>
      <trkpt lat="45.91988" lon="6.48619">
        <ele>1487.5999755859</ele>
        <time>2014-02-12T07:30:41.000Z</time>
      </trkpt>
      <trkpt lat="45.91987" lon="6.48619">
        <ele>1487.8000488281</ele>
        <time>2014-02-12T07:30:42.000Z</time>
      </trkpt>
      <trkpt lat="45.91986" lon="6.4862">
        <ele>1488.1999511719</ele>
        <time>2014-02-12T07:30:43.000Z</time>
      </trkpt>
      <trkpt lat="45.91985" lon="6.4862">
        <ele>1488.1999511719</ele>
        <time>2014-02-12T07:30:44.000Z</time>
      </trkpt>
      <trkpt lat="45.91985" lon="6.48621">
        <ele>1488.4000244141</ele>
        <time>2014-02-12T07:30:45.000Z</time>
      </trkpt>
      <trkpt lat="45.91984" lon="6.48622">
        <ele>1488.8000488281</ele>
        <time>2014-02-12T07:30:46.000Z</time>
      </trkpt>
      <trkpt lat="45.91983" lon="6.48623">
        <ele>1489</ele>
        <time>2014-02-12T07:30:47.000Z</time>
      </trkpt>
      <trkpt lat="45.91982" lon="6.48624">
        <ele>1489.4000244141</ele>
        <time>2014-02-12T07:30:48.000Z</time>
      </trkpt>
      <trkpt lat="45.91981" lon="6.48624">
        <ele>1489.8000488281</ele>
        <time>2014-02-12T07:30:49.000Z</time>
      </trkpt>
      <trkpt lat="45.9198" lon="6.48625">
        <ele>1490</ele>
        <time>2014-02-12T07:30:50.000Z</time>
      </trkpt>
      <trkpt lat="45.9198" lon="6.48626">
        <ele>1490.1999511719</ele>
        <time>2014-02-12T07:30:51.000Z</time>
      </trkpt>
      <trkpt lat="45.91979" lon="6.48627">
        <ele>1490.4000244141</ele>
        <time>2014-02-12T07:30:52.000Z</time>
      </trkpt>
      <trkpt lat="45.91979" lon="6.48628">
        <ele>1490.5999755859</ele>
        <time>2014-02-12T07:30:53.000Z</time>
      </trkpt>
      <trkpt lat="45.91978" lon="6.48629">
        <ele>1491</ele>
        <time>2014-02-12T07:30:54.000Z</time>
      </trkpt>
      <trkpt lat="45.91978" lon="6.4863">
        <ele>1491.1999511719</ele>
        <time>2014-02-12T07:30:55.000Z</time>
      </trkpt>
      <trkpt lat="45.91977" lon="6.48631">
        <ele>1491.4000244141</ele>
        <time>2014-02-12T07:30:56.000Z</time>
      </trkpt>
      <trkpt lat="45.91977" lon="6.48632">
        <ele>1491.5999755859</ele>
        <time>2014-02-12T07:30:57.000Z</time>
      </trkpt>
      <trkpt lat="45.91976" lon="6.48632">
        <ele>1491.8000488281</ele>
        <time>2014-02-12T07:30:58.000Z</time>
      </trkpt>
      <trkpt lat="45.91976" lon="6.48633">
        <ele>1492</ele>
        <time>2014-02-12T07:30:59.000Z</time>
      </trkpt>
      <trkpt lat="45.91975" lon="6.48634">
        <ele>1492.4000244141</ele>
        <time>2014-02-12T07:31:00.000Z</time>
      </trkpt>
      <trkpt lat="45.91974" lon="6.48634">
        <ele>1492.5999755859</ele>
        <time>2014-02-12T07:31:01.000Z</time>
      </trkpt>
      <trkpt lat="45.91974" lon="6.48635">
        <ele>1492.5999755859</ele>
        <time>2014-02-12T07:31:02.000Z</time>
      </trkpt>
      <trkpt lat="45.91973" lon="6.48636">
        <ele>1492.8000488281</ele>
        <time>2014-02-12T07:31:03.000Z</time>
      </trkpt>
      <trkpt lat="45.91973" lon="6.48636">
        <ele>1492.8000488281</ele>
        <time>2014-02-12T07:31:04.000Z</time>
      </trkpt>
      <trkpt lat="45.91972" lon="6.48637">
        <ele>1493</ele>
        <time>2014-02-12T07:31:05.000Z</time>
      </trkpt>
      <trkpt lat="45.91972" lon="6.48638">
        <ele>1493</ele>
        <time>2014-02-12T07:31:06.000Z</time>
      </trkpt>
      <trkpt lat="45.91971" lon="6.48638">
        <ele>1493.1999511719</ele>
        <time>2014-02-12T07:31:07.000Z</time>
      </trkpt>
      <trkpt lat="45.9197" lon="6.48639">
        <ele>1493.1999511719</ele>
        <time>2014-02-12T07:31:08.000Z</time>
      </trkpt>
      <trkpt lat="45.91969" lon="6.48641">
        <ele>1493.4000244141</ele>
        <time>2014-02-12T07:31:09.000Z</time>
      </trkpt>
      <trkpt lat="45.91968" lon="6.48642">
        <ele>1493.5999755859</ele>
        <time>2014-02-12T07:31:10.000Z</time>
      </trkpt>
      <trkpt lat="45.91968" lon="6.48643">
        <ele>1493.8000488281</ele>
        <time>2014-02-12T07:31:11.000Z</time>
      </trkpt>
      <trkpt lat="45.91967" lon="6.48644">
        <ele>1494</ele>
        <time>2014-02-12T07:31:12.000Z</time>
      </trkpt>
      <trkpt lat="45.91966" lon="6.48645">
        <ele>1494.1999511719</ele>
        <time>2014-02-12T07:31:13.000Z</time>
      </trkpt>
      <trkpt lat="45.91966" lon="6.48645">
        <ele>1494.4000244141</ele>
        <time>2014-02-12T07:31:14.000Z</time>
      </trkpt>
      <trkpt lat="45.91965" lon="6.48646">
        <ele>1494.4000244141</ele>
        <time>2014-02-12T07:31:15.000Z</time>
      </trkpt>
      <trkpt lat="45.91965" lon="6.48647">
        <ele>1494.5999755859</ele>
        <time>2014-02-12T07:31:16.000Z</time>
      </trkpt>
      <trkpt lat="45.91965" lon="6.48647">
        <ele>1494.8000488281</ele>
        <time>2014-02-12T07:31:17.000Z</time>
      </trkpt>
      <trkpt lat="45.91964" lon="6.48648">
        <ele>1495</ele>
        <time>2014-02-12T07:31:18.000Z</time>
      </trkpt>
      <trkpt lat="45.91964" lon="6.48648">
        <ele>1495</ele>
        <time>2014-02-12T07:31:19.000Z</time>
      </trkpt>
      <trkpt lat="45.91963" lon="6.48649">
        <ele>1495.1999511719</ele>
        <time>2014-02-12T07:31:20.000Z</time>
      </trkpt>
      <trkpt lat="45.91962" lon="6.4865">
        <ele>1495.4000244141</ele>
        <time>2014-02-12T07:31:21.000Z</time>
      </trkpt>
      <trkpt lat="45.91962" lon="6.48651">
        <ele>1495.5999755859</ele>
        <time>2014-02-12T07:31:22.000Z</time>
      </trkpt>
      <trkpt lat="45.91961" lon="6.48651">
        <ele>1495.5999755859</ele>
        <time>2014-02-12T07:31:23.000Z</time>
      </trkpt>
      <trkpt lat="45.9196" lon="6.48652">
        <ele>1495.5999755859</ele>
        <time>2014-02-12T07:31:24.000Z</time>
      </trkpt>
      <trkpt lat="45.91959" lon="6.48653">
        <ele>1495.8000488281</ele>
        <time>2014-02-12T07:31:25.000Z</time>
      </trkpt>
      <trkpt lat="45.91958" lon="6.48654">
        <ele>1496</ele>
        <time>2014-02-12T07:31:26.000Z</time>
      </trkpt>
      <trkpt lat="45.91957" lon="6.48654">
        <ele>1496</ele>
        <time>2014-02-12T07:31:27.000Z</time>
      </trkpt>
      <trkpt lat="45.91956" lon="6.48655">
        <ele>1496.1999511719</ele>
        <time>2014-02-12T07:31:28.000Z</time>
      </trkpt>
      <trkpt lat="45.91956" lon="6.48656">
        <ele>1496.1999511719</ele>
        <time>2014-02-12T07:31:29.000Z</time>
      </trkpt>
      <trkpt lat="45.91954" lon="6.48657">
        <ele>1496.4000244141</ele>
        <time>2014-02-12T07:31:30.000Z</time>
      </trkpt>
      <trkpt lat="45.91954" lon="6.48657">
        <ele>1496.4000244141</ele>
        <time>2014-02-12T07:31:31.000Z</time>
      </trkpt>
      <trkpt lat="45.91953" lon="6.48657">
        <ele>1496.4000244141</ele>
        <time>2014-02-12T07:31:32.000Z</time>
      </trkpt>
      <trkpt lat="45.91953" lon="6.48657">
        <ele>1496.4000244141</ele>
        <time>2014-02-12T07:31:33.000Z</time>
      </trkpt>
      <trkpt lat="45.91952" lon="6.48657">
        <ele>1496.4000244141</ele>
        <time>2014-02-12T07:31:34.000Z</time>
      </trkpt>
      <trkpt lat="45.91952" lon="6.48657">
        <ele>1496.4000244141</ele>
        <time>2014-02-12T07:31:35.000Z</time>
      </trkpt>
      <trkpt lat="45.91951" lon="6.48658">
        <ele>1496.5999755859</ele>
        <time>2014-02-12T07:31:36.000Z</time>
      </trkpt>
      <trkpt lat="45.91951" lon="6.48658">
        <ele>1496.5999755859</ele>
        <time>2014-02-12T07:31:37.000Z</time>
      </trkpt>
      <trkpt lat="45.91951" lon="6.48659">
        <ele>1496.5999755859</ele>
        <time>2014-02-12T07:31:38.000Z</time>
      </trkpt>
      <trkpt lat="45.91951" lon="6.4866">
        <ele>1496.8000488281</ele>
        <time>2014-02-12T07:31:39.000Z</time>
      </trkpt>
      <trkpt lat="45.91951" lon="6.48661">
        <ele>1497</ele>
        <time>2014-02-12T07:31:40.000Z</time>
      </trkpt>
      <trkpt lat="45.91951" lon="6.48662">
        <ele>1497</ele>
        <time>2014-02-12T07:31:41.000Z</time>
      </trkpt>
      <trkpt lat="45.91951" lon="6.48663">
        <ele>1497</ele>
        <time>2014-02-12T07:31:42.000Z</time>
      </trkpt>
      <trkpt lat="45.91951" lon="6.48664">
        <ele>1497.1999511719</ele>
        <time>2014-02-12T07:31:43.000Z</time>
      </trkpt>
      <trkpt lat="45.91951" lon="6.48665">
        <ele>1497.1999511719</ele>
        <time>2014-02-12T07:31:44.000Z</time>
      </trkpt>
      <trkpt lat="45.91952" lon="6.48665">
        <ele>1497.1999511719</ele>
        <time>2014-02-12T07:31:45.000Z</time>
      </trkpt>
      <trkpt lat="45.91952" lon="6.48665">
        <ele>1497.1999511719</ele>
        <time>2014-02-12T07:31:46.000Z</time>
      </trkpt>
      <trkpt lat="45.91953" lon="6.48666">
        <ele>1497.4000244141</ele>
        <time>2014-02-12T07:31:47.000Z</time>
      </trkpt>
      <trkpt lat="45.91954" lon="6.48667">
        <ele>1497.4000244141</ele>
        <time>2014-02-12T07:31:48.000Z</time>
      </trkpt>
      <trkpt lat="45.91955" lon="6.48667">
        <ele>1497.4000244141</ele>
        <time>2014-02-12T07:31:49.000Z</time>
      </trkpt>
      <trkpt lat="45.91955" lon="6.48668">
        <ele>1497.4000244141</ele>
        <time>2014-02-12T07:31:50.000Z</time>
      </trkpt>
      <trkpt lat="45.91956" lon="6.48668">
        <ele>1497.4000244141</ele>
        <time>2014-02-12T07:31:51.000Z</time>
      </trkpt>
      <trkpt lat="45.91957" lon="6.48668">
        <ele>1497.4000244141</ele>
        <time>2014-02-12T07:31:52.000Z</time>
      </trkpt>
      <trkpt lat="45.91958" lon="6.48669">
        <ele>1497.4000244141</ele>
        <time>2014-02-12T07:31:53.000Z</time>
      </trkpt>
      <trkpt lat="45.91959" lon="6.48669">
        <ele>1497.4000244141</ele>
        <time>2014-02-12T07:31:54.000Z</time>
      </trkpt>
      <trkpt lat="45.9196" lon="6.48669">
        <ele>1497.4000244141</ele>
        <time>2014-02-12T07:31:55.000Z</time>
      </trkpt>
      <trkpt lat="45.91961" lon="6.4867">
        <ele>1497.4000244141</ele>
        <time>2014-02-12T07:31:56.000Z</time>
      </trkpt>
      <trkpt lat="45.91962" lon="6.4867">
        <ele>1497.4000244141</ele>
        <time>2014-02-12T07:31:57.000Z</time>
      </trkpt>
      <trkpt lat="45.91963" lon="6.4867">
        <ele>1497.4000244141</ele>
        <time>2014-02-12T07:31:58.000Z</time>
      </trkpt>
      <trkpt lat="45.91965" lon="6.48671">
        <ele>1497.4000244141</ele>
        <time>2014-02-12T07:31:59.000Z</time>
      </trkpt>
      <trkpt lat="45.91965" lon="6.48672">
        <ele>1497.4000244141</ele>
        <time>2014-02-12T07:32:00.000Z</time>
      </trkpt>
      <trkpt lat="45.91966" lon="6.48673">
        <ele>1497.4000244141</ele>
        <time>2014-02-12T07:32:01.000Z</time>
      </trkpt>
      <trkpt lat="45.91967" lon="6.48674">
        <ele>1497.5999755859</ele>
        <time>2014-02-12T07:32:02.000Z</time>
      </trkpt>
      <trkpt lat="45.91968" lon="6.48674">
        <ele>1497.5999755859</ele>
        <time>2014-02-12T07:32:03.000Z</time>
      </trkpt>
      <trkpt lat="45.91969" lon="6.48675">
        <ele>1497.5999755859</ele>
        <time>2014-02-12T07:32:04.000Z</time>
      </trkpt>
      <trkpt lat="45.9197" lon="6.48675">
        <ele>1497.5999755859</ele>
        <time>2014-02-12T07:32:05.000Z</time>
      </trkpt>
      <trkpt lat="45.91971" lon="6.48675">
        <ele>1497.5999755859</ele>
        <time>2014-02-12T07:32:06.000Z</time>
      </trkpt>
      <trkpt lat="45.91972" lon="6.48676">
        <ele>1497.5999755859</ele>
        <time>2014-02-12T07:32:07.000Z</time>
      </trkpt>
      <trkpt lat="45.91973" lon="6.48676">
        <ele>1497.5999755859</ele>
        <time>2014-02-12T07:32:08.000Z</time>
      </trkpt>
      <trkpt lat="45.91974" lon="6.48676">
        <ele>1497.4000244141</ele>
        <time>2014-02-12T07:32:09.000Z</time>
      </trkpt>
      <trkpt lat="45.91975" lon="6.48676">
        <ele>1497</ele>
        <time>2014-02-12T07:32:10.000Z</time>
      </trkpt>
      <trkpt lat="45.91976" lon="6.48676">
        <ele>1496.5999755859</ele>
        <time>2014-02-12T07:32:11.000Z</time>
      </trkpt>
      <trkpt lat="45.91977" lon="6.48677">
        <ele>1496.1999511719</ele>
        <time>2014-02-12T07:32:12.000Z</time>
      </trkpt>
      <trkpt lat="45.91978" lon="6.48677">
        <ele>1496</ele>
        <time>2014-02-12T07:32:13.000Z</time>
      </trkpt>
      <trkpt lat="45.91979" lon="6.48678">
        <ele>1495.8000488281</ele>
        <time>2014-02-12T07:32:14.000Z</time>
      </trkpt>
      <trkpt lat="45.9198" lon="6.48678">
        <ele>1495.5999755859</ele>
        <time>2014-02-12T07:32:15.000Z</time>
      </trkpt>
      <trkpt lat="45.9198" lon="6.48678">
        <ele>1495.4000244141</ele>
        <time>2014-02-12T07:32:16.000Z</time>
      </trkpt>
      <trkpt lat="45.91981" lon="6.48678">
        <ele>1495.1999511719</ele>
        <time>2014-02-12T07:32:17.000Z</time>
      </trkpt>
      <trkpt lat="45.91982" lon="6.48679">
        <ele>1494.8000488281</ele>
        <time>2014-02-12T07:32:18.000Z</time>
      </trkpt>
      <trkpt lat="45.91982" lon="6.48679">
        <ele>1494.5999755859</ele>
        <time>2014-02-12T07:32:19.000Z</time>
      </trkpt>
      <trkpt lat="45.91983" lon="6.48679">
        <ele>1494.4000244141</ele>
        <time>2014-02-12T07:32:20.000Z</time>
      </trkpt>
      <trkpt lat="45.91985" lon="6.4868">
        <ele>1494</ele>
        <time>2014-02-12T07:32:21.000Z</time>
      </trkpt>
      <trkpt lat="45.91986" lon="6.4868">
        <ele>1493.5999755859</ele>
        <time>2014-02-12T07:32:22.000Z</time>
      </trkpt>
      <trkpt lat="45.91987" lon="6.48681">
        <ele>1493.4000244141</ele>
        <time>2014-02-12T07:32:23.000Z</time>
      </trkpt>
      <trkpt lat="45.91987" lon="6.48681">
        <ele>1493.1999511719</ele>
        <time>2014-02-12T07:32:24.000Z</time>
      </trkpt>
      <trkpt lat="45.91988" lon="6.48682">
        <ele>1493</ele>
        <time>2014-02-12T07:32:25.000Z</time>
      </trkpt>
      <trkpt lat="45.91988" lon="6.48683">
        <ele>1493</ele>
        <time>2014-02-12T07:32:26.000Z</time>
      </trkpt>
      <trkpt lat="45.91989" lon="6.48684">
        <ele>1492.8000488281</ele>
        <time>2014-02-12T07:32:27.000Z</time>
      </trkpt>
      <trkpt lat="45.91989" lon="6.48685">
        <ele>1492.8000488281</ele>
        <time>2014-02-12T07:32:28.000Z</time>
      </trkpt>
      <trkpt lat="45.91989" lon="6.48685">
        <ele>1492.8000488281</ele>
        <time>2014-02-12T07:32:29.000Z</time>
      </trkpt>
      <trkpt lat="45.91989" lon="6.48685">
        <ele>1492.8000488281</ele>
        <time>2014-02-12T07:32:30.000Z</time>
      </trkpt>
      <trkpt lat="45.91988" lon="6.48686">
        <ele>1493.1999511719</ele>
        <time>2014-02-12T07:32:31.000Z</time>
      </trkpt>
      <trkpt lat="45.91988" lon="6.48686">
        <ele>1493.4000244141</ele>
        <time>2014-02-12T07:32:32.000Z</time>
      </trkpt>
      <trkpt lat="45.91987" lon="6.48688">
        <ele>1493.8000488281</ele>
        <time>2014-02-12T07:32:33.000Z</time>
      </trkpt>
      <trkpt lat="45.91986" lon="6.48689">
        <ele>1494.1999511719</ele>
        <time>2014-02-12T07:32:34.000Z</time>
      </trkpt>
      <trkpt lat="45.91985" lon="6.4869">
        <ele>1494.5999755859</ele>
        <time>2014-02-12T07:32:35.000Z</time>
      </trkpt>
      <trkpt lat="45.91984" lon="6.48691">
        <ele>1495.1999511719</ele>
        <time>2014-02-12T07:32:36.000Z</time>
      </trkpt>
      <trkpt lat="45.91983" lon="6.48692">
        <ele>1495.5999755859</ele>
        <time>2014-02-12T07:32:37.000Z</time>
      </trkpt>
      <trkpt lat="45.91983" lon="6.48693">
        <ele>1496</ele>
        <time>2014-02-12T07:32:38.000Z</time>
      </trkpt>
      <trkpt lat="45.91982" lon="6.48695">
        <ele>1496.4000244141</ele>
        <time>2014-02-12T07:32:39.000Z</time>
      </trkpt>
      <trkpt lat="45.91981" lon="6.48696">
        <ele>1496.5999755859</ele>
        <time>2014-02-12T07:32:40.000Z</time>
      </trkpt>
      <trkpt lat="45.91981" lon="6.48697">
        <ele>1497</ele>
        <time>2014-02-12T07:32:41.000Z</time>
      </trkpt>
      <trkpt lat="45.91981" lon="6.48698">
        <ele>1497.1999511719</ele>
        <time>2014-02-12T07:32:42.000Z</time>
      </trkpt>
      <trkpt lat="45.9198" lon="6.48698">
        <ele>1497.4000244141</ele>
        <time>2014-02-12T07:32:43.000Z</time>
      </trkpt>
      <trkpt lat="45.91979" lon="6.487">
        <ele>1497.8000488281</ele>
        <time>2014-02-12T07:32:44.000Z</time>
      </trkpt>
      <trkpt lat="45.91979" lon="6.48701">
        <ele>1498.1999511719</ele>
        <time>2014-02-12T07:32:45.000Z</time>
      </trkpt>
      <trkpt lat="45.91978" lon="6.48702">
        <ele>1498.4000244141</ele>
        <time>2014-02-12T07:32:46.000Z</time>
      </trkpt>
      <trkpt lat="45.91978" lon="6.48702">
        <ele>1498.5999755859</ele>
        <time>2014-02-12T07:32:47.000Z</time>
      </trkpt>
      <trkpt lat="45.91977" lon="6.48702">
        <ele>1498.8000488281</ele>
        <time>2014-02-12T07:32:48.000Z</time>
      </trkpt>
      <trkpt lat="45.91977" lon="6.48703">
        <ele>1499</ele>
        <time>2014-02-12T07:32:49.000Z</time>
      </trkpt>
      <trkpt lat="45.91976" lon="6.48704">
        <ele>1499.4000244141</ele>
        <time>2014-02-12T07:32:50.000Z</time>
      </trkpt>
      <trkpt lat="45.91975" lon="6.48705">
        <ele>1499.8000488281</ele>
        <time>2014-02-12T07:32:51.000Z</time>
      </trkpt>
      <trkpt lat="45.91975" lon="6.48706">
        <ele>1500</ele>
        <time>2014-02-12T07:32:52.000Z</time>
      </trkpt>
      <trkpt lat="45.91974" lon="6.48707">
        <ele>1500.1999511719</ele>
        <time>2014-02-12T07:32:53.000Z</time>
      </trkpt>
      <trkpt lat="45.91974" lon="6.48708">
        <ele>1500.4000244141</ele>
        <time>2014-02-12T07:32:54.000Z</time>
      </trkpt>
      <trkpt lat="45.91973" lon="6.48709">
        <ele>1500.5999755859</ele>
        <time>2014-02-12T07:32:55.000Z</time>
      </trkpt>
      <trkpt lat="45.91973" lon="6.48709">
        <ele>1500.8000488281</ele>
        <time>2014-02-12T07:32:56.000Z</time>
      </trkpt>
      <trkpt lat="45.91972" lon="6.48709">
        <ele>1500.8000488281</ele>
        <time>2014-02-12T07:32:57.000Z</time>
      </trkpt>
      <trkpt lat="45.91972" lon="6.48709">
        <ele>1500.8000488281</ele>
        <time>2014-02-12T07:32:58.000Z</time>
      </trkpt>
      <trkpt lat="45.91971" lon="6.4871">
        <ele>1500.8000488281</ele>
        <time>2014-02-12T07:32:59.000Z</time>
      </trkpt>
      <trkpt lat="45.91971" lon="6.4871">
        <ele>1500.8000488281</ele>
        <time>2014-02-12T07:33:00.000Z</time>
      </trkpt>
      <trkpt lat="45.9197" lon="6.4871">
        <ele>1501</ele>
        <time>2014-02-12T07:33:01.000Z</time>
      </trkpt>
      <trkpt lat="45.9197" lon="6.48711">
        <ele>1501</ele>
        <time>2014-02-12T07:33:02.000Z</time>
      </trkpt>
      <trkpt lat="45.91969" lon="6.48712">
        <ele>1501.1999511719</ele>
        <time>2014-02-12T07:33:03.000Z</time>
      </trkpt>
      <trkpt lat="45.91968" lon="6.48713">
        <ele>1501.1999511719</ele>
        <time>2014-02-12T07:33:04.000Z</time>
      </trkpt>
      <trkpt lat="45.91968" lon="6.48714">
        <ele>1501.4000244141</ele>
        <time>2014-02-12T07:33:05.000Z</time>
      </trkpt>
      <trkpt lat="45.91968" lon="6.48714">
        <ele>1501.4000244141</ele>
        <time>2014-02-12T07:33:06.000Z</time>
      </trkpt>
      <trkpt lat="45.91967" lon="6.48715">
        <ele>1501.4000244141</ele>
        <time>2014-02-12T07:33:07.000Z</time>
      </trkpt>
      <trkpt lat="45.91966" lon="6.48715">
        <ele>1501.5999755859</ele>
        <time>2014-02-12T07:33:08.000Z</time>
      </trkpt>
      <trkpt lat="45.91966" lon="6.48715">
        <ele>1501.5999755859</ele>
        <time>2014-02-12T07:33:09.000Z</time>
      </trkpt>
      <trkpt lat="45.91965" lon="6.48716">
        <ele>1501.5999755859</ele>
        <time>2014-02-12T07:33:10.000Z</time>
      </trkpt>
      <trkpt lat="45.91964" lon="6.48716">
        <ele>1501.8000488281</ele>
        <time>2014-02-12T07:33:11.000Z</time>
      </trkpt>
      <trkpt lat="45.91964" lon="6.48717">
        <ele>1501.8000488281</ele>
        <time>2014-02-12T07:33:12.000Z</time>
      </trkpt>
      <trkpt lat="45.91963" lon="6.48717">
        <ele>1501.8000488281</ele>
        <time>2014-02-12T07:33:13.000Z</time>
      </trkpt>
      <trkpt lat="45.91963" lon="6.48718">
        <ele>1502</ele>
        <time>2014-02-12T07:33:14.000Z</time>
      </trkpt>
      <trkpt lat="45.91962" lon="6.48719">
        <ele>1502</ele>
        <time>2014-02-12T07:33:15.000Z</time>
      </trkpt>
      <trkpt lat="45.91962" lon="6.4872">
        <ele>1502.1999511719</ele>
        <time>2014-02-12T07:33:16.000Z</time>
      </trkpt>
      <trkpt lat="45.91961" lon="6.48721">
        <ele>1502.4000244141</ele>
        <time>2014-02-12T07:33:17.000Z</time>
      </trkpt>
      <trkpt lat="45.91961" lon="6.48722">
        <ele>1502.8000488281</ele>
        <time>2014-02-12T07:33:18.000Z</time>
      </trkpt>
      <trkpt lat="45.9196" lon="6.48723">
        <ele>1503.1999511719</ele>
        <time>2014-02-12T07:33:19.000Z</time>
      </trkpt>
      <trkpt lat="45.9196" lon="6.48723">
        <ele>1503.5999755859</ele>
        <time>2014-02-12T07:33:20.000Z</time>
      </trkpt>
      <trkpt lat="45.91959" lon="6.48724">
        <ele>1503.8000488281</ele>
        <time>2014-02-12T07:33:21.000Z</time>
      </trkpt>
      <trkpt lat="45.91959" lon="6.48724">
        <ele>1504.1999511719</ele>
        <time>2014-02-12T07:33:22.000Z</time>
      </trkpt>
      <trkpt lat="45.91958" lon="6.48724">
        <ele>1504.4000244141</ele>
        <time>2014-02-12T07:33:23.000Z</time>
      </trkpt>
      <trkpt lat="45.91957" lon="6.48724">
        <ele>1504.5999755859</ele>
        <time>2014-02-12T07:33:24.000Z</time>
      </trkpt>
      <trkpt lat="45.91957" lon="6.48725">
        <ele>1504.8000488281</ele>
        <time>2014-02-12T07:33:25.000Z</time>
      </trkpt>
      <trkpt lat="45.91956" lon="6.48725">
        <ele>1505</ele>
        <time>2014-02-12T07:33:26.000Z</time>
      </trkpt>
      <trkpt lat="45.91955" lon="6.48725">
        <ele>1505.1999511719</ele>
        <time>2014-02-12T07:33:27.000Z</time>
      </trkpt>
      <trkpt lat="45.91955" lon="6.48725">
        <ele>1505.5999755859</ele>
        <time>2014-02-12T07:33:28.000Z</time>
      </trkpt>
      <trkpt lat="45.91954" lon="6.48725">
        <ele>1505.8000488281</ele>
        <time>2014-02-12T07:33:29.000Z</time>
      </trkpt>
      <trkpt lat="45.91954" lon="6.48726">
        <ele>1506</ele>
        <time>2014-02-12T07:33:30.000Z</time>
      </trkpt>
      <trkpt lat="45.91954" lon="6.48726">
        <ele>1506</ele>
        <time>2014-02-12T07:33:31.000Z</time>
      </trkpt>
      <trkpt lat="45.91953" lon="6.48726">
        <ele>1506.1999511719</ele>
        <time>2014-02-12T07:33:32.000Z</time>
      </trkpt>
      <trkpt lat="45.91953" lon="6.48726">
        <ele>1506.1999511719</ele>
        <time>2014-02-12T07:33:33.000Z</time>
      </trkpt>
      <trkpt lat="45.91953" lon="6.48726">
        <ele>1506.4000244141</ele>
        <time>2014-02-12T07:33:34.000Z</time>
      </trkpt>
      <trkpt lat="45.91953" lon="6.48726">
        <ele>1506.4000244141</ele>
        <time>2014-02-12T07:33:35.000Z</time>
      </trkpt>
      <trkpt lat="45.91953" lon="6.48726">
        <ele>1506.4000244141</ele>
        <time>2014-02-12T07:33:36.000Z</time>
      </trkpt>
      <trkpt lat="45.91952" lon="6.48727">
        <ele>1507</ele>
        <time>2014-02-12T07:33:38.000Z</time>
      </trkpt>
      <trkpt lat="45.91952" lon="6.48727">
        <ele>1507.1999511719</ele>
        <time>2014-02-12T07:33:39.000Z</time>
      </trkpt>
      <trkpt lat="45.91951" lon="6.48728">
        <ele>1507.4000244141</ele>
        <time>2014-02-12T07:33:40.000Z</time>
      </trkpt>
      <trkpt lat="45.9195" lon="6.48728">
        <ele>1507.5999755859</ele>
        <time>2014-02-12T07:33:41.000Z</time>
      </trkpt>
      <trkpt lat="45.91949" lon="6.48728">
        <ele>1507.8000488281</ele>
        <time>2014-02-12T07:33:42.000Z</time>
      </trkpt>
      <trkpt lat="45.91949" lon="6.48728">
        <ele>1508.1999511719</ele>
        <time>2014-02-12T07:33:43.000Z</time>
      </trkpt>
      <trkpt lat="45.91948" lon="6.48728">
        <ele>1508.4000244141</ele>
        <time>2014-02-12T07:33:44.000Z</time>
      </trkpt>
      <trkpt lat="45.91947" lon="6.48729">
        <ele>1508.8000488281</ele>
        <time>2014-02-12T07:33:45.000Z</time>
      </trkpt>
      <trkpt lat="45.91946" lon="6.48729">
        <ele>1509.1999511719</ele>
        <time>2014-02-12T07:33:46.000Z</time>
      </trkpt>
      <trkpt lat="45.91946" lon="6.4873">
        <ele>1509.5999755859</ele>
        <time>2014-02-12T07:33:47.000Z</time>
      </trkpt>
      <trkpt lat="45.91945" lon="6.4873">
        <ele>1509.8000488281</ele>
        <time>2014-02-12T07:33:48.000Z</time>
      </trkpt>
      <trkpt lat="45.91944" lon="6.4873">
        <ele>1510</ele>
        <time>2014-02-12T07:33:49.000Z</time>
      </trkpt>
      <trkpt lat="45.91944" lon="6.48729">
        <ele>1510</ele>
        <time>2014-02-12T07:33:50.000Z</time>
      </trkpt>
      <trkpt lat="45.91943" lon="6.48729">
        <ele>1510.1999511719</ele>
        <time>2014-02-12T07:33:51.000Z</time>
      </trkpt>
      <trkpt lat="45.91942" lon="6.48729">
        <ele>1510.4000244141</ele>
        <time>2014-02-12T07:33:52.000Z</time>
      </trkpt>
      <trkpt lat="45.91942" lon="6.48729">
        <ele>1510.5999755859</ele>
        <time>2014-02-12T07:33:53.000Z</time>
      </trkpt>
      <trkpt lat="45.91941" lon="6.48729">
        <ele>1510.5999755859</ele>
        <time>2014-02-12T07:33:54.000Z</time>
      </trkpt>
      <trkpt lat="45.9194" lon="6.48729">
        <ele>1510.8000488281</ele>
        <time>2014-02-12T07:33:55.000Z</time>
      </trkpt>
      <trkpt lat="45.91939" lon="6.48729">
        <ele>1511</ele>
        <time>2014-02-12T07:33:56.000Z</time>
      </trkpt>
      <trkpt lat="45.91939" lon="6.48729">
        <ele>1511.1999511719</ele>
        <time>2014-02-12T07:33:57.000Z</time>
      </trkpt>
      <trkpt lat="45.91939" lon="6.48729">
        <ele>1511.1999511719</ele>
        <time>2014-02-12T07:33:58.000Z</time>
      </trkpt>
      <trkpt lat="45.91938" lon="6.48729">
        <ele>1511.4000244141</ele>
        <time>2014-02-12T07:33:59.000Z</time>
      </trkpt>
      <trkpt lat="45.91938" lon="6.48729">
        <ele>1511.8000488281</ele>
        <time>2014-02-12T07:34:00.000Z</time>
      </trkpt>
      <trkpt lat="45.91937" lon="6.4873">
        <ele>1512.1999511719</ele>
        <time>2014-02-12T07:34:01.000Z</time>
      </trkpt>
      <trkpt lat="45.91936" lon="6.4873">
        <ele>1512.4000244141</ele>
        <time>2014-02-12T07:34:02.000Z</time>
      </trkpt>
      <trkpt lat="45.91935" lon="6.4873">
        <ele>1512.5999755859</ele>
        <time>2014-02-12T07:34:03.000Z</time>
      </trkpt>
      <trkpt lat="45.91935" lon="6.48731">
        <ele>1512.8000488281</ele>
        <time>2014-02-12T07:34:04.000Z</time>
      </trkpt>
      <trkpt lat="45.91934" lon="6.48731">
        <ele>1513.1999511719</ele>
        <time>2014-02-12T07:34:05.000Z</time>
      </trkpt>
      <trkpt lat="45.91934" lon="6.48731">
        <ele>1513.4000244141</ele>
        <time>2014-02-12T07:34:06.000Z</time>
      </trkpt>
      <trkpt lat="45.91933" lon="6.48731">
        <ele>1513.5999755859</ele>
        <time>2014-02-12T07:34:07.000Z</time>
      </trkpt>
      <trkpt lat="45.91933" lon="6.48732">
        <ele>1513.8000488281</ele>
        <time>2014-02-12T07:34:08.000Z</time>
      </trkpt>
      <trkpt lat="45.91932" lon="6.48732">
        <ele>1514</ele>
        <time>2014-02-12T07:34:09.000Z</time>
      </trkpt>
      <trkpt lat="45.91931" lon="6.48732">
        <ele>1514.1999511719</ele>
        <time>2014-02-12T07:34:10.000Z</time>
      </trkpt>
      <trkpt lat="45.91931" lon="6.48732">
        <ele>1514.5999755859</ele>
        <time>2014-02-12T07:34:11.000Z</time>
      </trkpt>
      <trkpt lat="45.9193" lon="6.48733">
        <ele>1515</ele>
        <time>2014-02-12T07:34:12.000Z</time>
      </trkpt>
      <trkpt lat="45.9193" lon="6.48733">
        <ele>1515.1999511719</ele>
        <time>2014-02-12T07:34:13.000Z</time>
      </trkpt>
      <trkpt lat="45.91929" lon="6.48733">
        <ele>1515.4000244141</ele>
        <time>2014-02-12T07:34:14.000Z</time>
      </trkpt>
      <trkpt lat="45.91928" lon="6.48733">
        <ele>1515.4000244141</ele>
        <time>2014-02-12T07:34:15.000Z</time>
      </trkpt>
      <trkpt lat="45.91928" lon="6.48733">
        <ele>1515.5999755859</ele>
        <time>2014-02-12T07:34:16.000Z</time>
      </trkpt>
      <trkpt lat="45.91928" lon="6.48733">
        <ele>1515.5999755859</ele>
        <time>2014-02-12T07:34:17.000Z</time>
      </trkpt>
      <trkpt lat="45.91928" lon="6.48733">
        <ele>1515.5999755859</ele>
        <time>2014-02-12T07:34:18.000Z</time>
      </trkpt>
      <trkpt lat="45.91928" lon="6.48733">
        <ele>1515.5999755859</ele>
        <time>2014-02-12T07:34:19.000Z</time>
      </trkpt>
      <trkpt lat="45.91927" lon="6.48733">
        <ele>1515.8000488281</ele>
        <time>2014-02-12T07:34:20.000Z</time>
      </trkpt>
      <trkpt lat="45.91926" lon="6.48733">
        <ele>1516.1999511719</ele>
        <time>2014-02-12T07:34:21.000Z</time>
      </trkpt>
      <trkpt lat="45.91925" lon="6.48733">
        <ele>1516.5999755859</ele>
        <time>2014-02-12T07:34:22.000Z</time>
      </trkpt>
      <trkpt lat="45.91924" lon="6.48733">
        <ele>1516.8000488281</ele>
        <time>2014-02-12T07:34:23.000Z</time>
      </trkpt>
      <trkpt lat="45.91922" lon="6.48734">
        <ele>1517.4000244141</ele>
        <time>2014-02-12T07:34:24.000Z</time>
      </trkpt>
      <trkpt lat="45.91921" lon="6.48734">
        <ele>1517.5999755859</ele>
        <time>2014-02-12T07:34:25.000Z</time>
      </trkpt>
      <trkpt lat="45.91919" lon="6.48734">
        <ele>1518</ele>
        <time>2014-02-12T07:34:26.000Z</time>
      </trkpt>
      <trkpt lat="45.91918" lon="6.48733">
        <ele>1518.4000244141</ele>
        <time>2014-02-12T07:34:27.000Z</time>
      </trkpt>
      <trkpt lat="45.91917" lon="6.48734">
        <ele>1518.8000488281</ele>
        <time>2014-02-12T07:34:28.000Z</time>
      </trkpt>
      <trkpt lat="45.91916" lon="6.48734">
        <ele>1519</ele>
        <time>2014-02-12T07:34:29.000Z</time>
      </trkpt>
      <trkpt lat="45.91916" lon="6.48734">
        <ele>1519</ele>
        <time>2014-02-12T07:34:30.000Z</time>
      </trkpt>
      <trkpt lat="45.91915" lon="6.48735">
        <ele>1519.1999511719</ele>
        <time>2014-02-12T07:34:31.000Z</time>
      </trkpt>
      <trkpt lat="45.91915" lon="6.48735">
        <ele>1519.4000244141</ele>
        <time>2014-02-12T07:34:32.000Z</time>
      </trkpt>
      <trkpt lat="45.91914" lon="6.48736">
        <ele>1519.5999755859</ele>
        <time>2014-02-12T07:34:33.000Z</time>
      </trkpt>
      <trkpt lat="45.91913" lon="6.48736">
        <ele>1520</ele>
        <time>2014-02-12T07:34:34.000Z</time>
      </trkpt>
      <trkpt lat="45.91912" lon="6.48737">
        <ele>1520.1999511719</ele>
        <time>2014-02-12T07:34:35.000Z</time>
      </trkpt>
      <trkpt lat="45.91911" lon="6.48737">
        <ele>1520.4000244141</ele>
        <time>2014-02-12T07:34:36.000Z</time>
      </trkpt>
      <trkpt lat="45.91911" lon="6.48737">
        <ele>1520.5999755859</ele>
        <time>2014-02-12T07:34:37.000Z</time>
      </trkpt>
      <trkpt lat="45.91909" lon="6.48738">
        <ele>1521</ele>
        <time>2014-02-12T07:34:38.000Z</time>
      </trkpt>
      <trkpt lat="45.91908" lon="6.48738">
        <ele>1521.4000244141</ele>
        <time>2014-02-12T07:34:39.000Z</time>
      </trkpt>
      <trkpt lat="45.91907" lon="6.48738">
        <ele>1521.5999755859</ele>
        <time>2014-02-12T07:34:40.000Z</time>
      </trkpt>
      <trkpt lat="45.91906" lon="6.48738">
        <ele>1522</ele>
        <time>2014-02-12T07:34:41.000Z</time>
      </trkpt>
      <trkpt lat="45.91906" lon="6.48738">
        <ele>1522</ele>
        <time>2014-02-12T07:34:42.000Z</time>
      </trkpt>
      <trkpt lat="45.91905" lon="6.48738">
        <ele>1522.1999511719</ele>
        <time>2014-02-12T07:34:43.000Z</time>
      </trkpt>
      <trkpt lat="45.91905" lon="6.48739">
        <ele>1522.4000244141</ele>
        <time>2014-02-12T07:34:44.000Z</time>
      </trkpt>
      <trkpt lat="45.91904" lon="6.48739">
        <ele>1522.5999755859</ele>
        <time>2014-02-12T07:34:45.000Z</time>
      </trkpt>
      <trkpt lat="45.91903" lon="6.48739">
        <ele>1522.8000488281</ele>
        <time>2014-02-12T07:34:46.000Z</time>
      </trkpt>
      <trkpt lat="45.91902" lon="6.48739">
        <ele>1523</ele>
        <time>2014-02-12T07:34:47.000Z</time>
      </trkpt>
      <trkpt lat="45.91902" lon="6.48738">
        <ele>1523.1999511719</ele>
        <time>2014-02-12T07:34:48.000Z</time>
      </trkpt>
      <trkpt lat="45.91901" lon="6.48738">
        <ele>1523.4000244141</ele>
        <time>2014-02-12T07:34:49.000Z</time>
      </trkpt>
      <trkpt lat="45.919" lon="6.48738">
        <ele>1523.5999755859</ele>
        <time>2014-02-12T07:34:50.000Z</time>
      </trkpt>
      <trkpt lat="45.919" lon="6.48738">
        <ele>1523.5999755859</ele>
        <time>2014-02-12T07:34:51.000Z</time>
      </trkpt>
      <trkpt lat="45.91899" lon="6.48738">
        <ele>1524</ele>
        <time>2014-02-12T07:34:52.000Z</time>
      </trkpt>
      <trkpt lat="45.91898" lon="6.48738">
        <ele>1524.1999511719</ele>
        <time>2014-02-12T07:34:53.000Z</time>
      </trkpt>
      <trkpt lat="45.91897" lon="6.48738">
        <ele>1524.4000244141</ele>
        <time>2014-02-12T07:34:54.000Z</time>
      </trkpt>
      <trkpt lat="45.91896" lon="6.48738">
        <ele>1524.8000488281</ele>
        <time>2014-02-12T07:34:55.000Z</time>
      </trkpt>
      <trkpt lat="45.91895" lon="6.48738">
        <ele>1525.4000244141</ele>
        <time>2014-02-12T07:34:56.000Z</time>
      </trkpt>
      <trkpt lat="45.91894" lon="6.48739">
        <ele>1525.8000488281</ele>
        <time>2014-02-12T07:34:57.000Z</time>
      </trkpt>
      <trkpt lat="45.91893" lon="6.48739">
        <ele>1526.4000244141</ele>
        <time>2014-02-12T07:34:58.000Z</time>
      </trkpt>
      <trkpt lat="45.91893" lon="6.48739">
        <ele>1526.5999755859</ele>
        <time>2014-02-12T07:34:59.000Z</time>
      </trkpt>
      <trkpt lat="45.91892" lon="6.48739">
        <ele>1526.8000488281</ele>
        <time>2014-02-12T07:35:00.000Z</time>
      </trkpt>
      <trkpt lat="45.91892" lon="6.4874">
        <ele>1527</ele>
        <time>2014-02-12T07:35:01.000Z</time>
      </trkpt>
      <trkpt lat="45.91891" lon="6.48741">
        <ele>1527.5999755859</ele>
        <time>2014-02-12T07:35:03.000Z</time>
      </trkpt>
      <trkpt lat="45.91891" lon="6.48741">
        <ele>1528</ele>
        <time>2014-02-12T07:35:04.000Z</time>
      </trkpt>
      <trkpt lat="45.9189" lon="6.48741">
        <ele>1528.1999511719</ele>
        <time>2014-02-12T07:35:05.000Z</time>
      </trkpt>
      <trkpt lat="45.9189" lon="6.48741">
        <ele>1528.4000244141</ele>
        <time>2014-02-12T07:35:06.000Z</time>
      </trkpt>
      <trkpt lat="45.91889" lon="6.48741">
        <ele>1528.4000244141</ele>
        <time>2014-02-12T07:35:07.000Z</time>
      </trkpt>
      <trkpt lat="45.91889" lon="6.48741">
        <ele>1528.5999755859</ele>
        <time>2014-02-12T07:35:08.000Z</time>
      </trkpt>
      <trkpt lat="45.91888" lon="6.48741">
        <ele>1528.5999755859</ele>
        <time>2014-02-12T07:35:09.000Z</time>
      </trkpt>
      <trkpt lat="45.91888" lon="6.48741">
        <ele>1528.5999755859</ele>
        <time>2014-02-12T07:35:10.000Z</time>
      </trkpt>
      <trkpt lat="45.91887" lon="6.4874">
        <ele>1528.8000488281</ele>
        <time>2014-02-12T07:35:11.000Z</time>
      </trkpt>
      <trkpt lat="45.91886" lon="6.4874">
        <ele>1528.8000488281</ele>
        <time>2014-02-12T07:35:12.000Z</time>
      </trkpt>
      <trkpt lat="45.91886" lon="6.4874">
        <ele>1529</ele>
        <time>2014-02-12T07:35:13.000Z</time>
      </trkpt>
      <trkpt lat="45.91885" lon="6.4874">
        <ele>1529</ele>
        <time>2014-02-12T07:35:14.000Z</time>
      </trkpt>
      <trkpt lat="45.91884" lon="6.48739">
        <ele>1529</ele>
        <time>2014-02-12T07:35:15.000Z</time>
      </trkpt>
      <trkpt lat="45.91884" lon="6.48739">
        <ele>1529.1999511719</ele>
        <time>2014-02-12T07:35:16.000Z</time>
      </trkpt>
      <trkpt lat="45.91883" lon="6.48739">
        <ele>1529.1999511719</ele>
        <time>2014-02-12T07:35:17.000Z</time>
      </trkpt>
      <trkpt lat="45.91882" lon="6.48738">
        <ele>1529.1999511719</ele>
        <time>2014-02-12T07:35:18.000Z</time>
      </trkpt>
      <trkpt lat="45.91881" lon="6.48738">
        <ele>1529.4000244141</ele>
        <time>2014-02-12T07:35:19.000Z</time>
      </trkpt>
      <trkpt lat="45.91881" lon="6.48738">
        <ele>1529.4000244141</ele>
        <time>2014-02-12T07:35:20.000Z</time>
      </trkpt>
      <trkpt lat="45.9188" lon="6.48738">
        <ele>1529.5999755859</ele>
        <time>2014-02-12T07:35:21.000Z</time>
      </trkpt>
      <trkpt lat="45.9188" lon="6.48738">
        <ele>1529.5999755859</ele>
        <time>2014-02-12T07:35:22.000Z</time>
      </trkpt>
      <trkpt lat="45.91879" lon="6.48738">
        <ele>1529.8000488281</ele>
        <time>2014-02-12T07:35:23.000Z</time>
      </trkpt>
      <trkpt lat="45.91878" lon="6.48738">
        <ele>1530</ele>
        <time>2014-02-12T07:35:24.000Z</time>
      </trkpt>
      <trkpt lat="45.91877" lon="6.48738">
        <ele>1530.1999511719</ele>
        <time>2014-02-12T07:35:25.000Z</time>
      </trkpt>
      <trkpt lat="45.91876" lon="6.48738">
        <ele>1530.4000244141</ele>
        <time>2014-02-12T07:35:26.000Z</time>
      </trkpt>
      <trkpt lat="45.91875" lon="6.48738">
        <ele>1530.8000488281</ele>
        <time>2014-02-12T07:35:27.000Z</time>
      </trkpt>
      <trkpt lat="45.91874" lon="6.48738">
        <ele>1530.8000488281</ele>
        <time>2014-02-12T07:35:28.000Z</time>
      </trkpt>
      <trkpt lat="45.91873" lon="6.48738">
        <ele>1531</ele>
        <time>2014-02-12T07:35:29.000Z</time>
      </trkpt>
      <trkpt lat="45.91873" lon="6.48738">
        <ele>1531.1999511719</ele>
        <time>2014-02-12T07:35:30.000Z</time>
      </trkpt>
      <trkpt lat="45.91872" lon="6.48738">
        <ele>1531.4000244141</ele>
        <time>2014-02-12T07:35:31.000Z</time>
      </trkpt>
      <trkpt lat="45.91871" lon="6.48738">
        <ele>1531.5999755859</ele>
        <time>2014-02-12T07:35:32.000Z</time>
      </trkpt>
      <trkpt lat="45.9187" lon="6.48739">
        <ele>1532</ele>
        <time>2014-02-12T07:35:33.000Z</time>
      </trkpt>
      <trkpt lat="45.9187" lon="6.48739">
        <ele>1532</ele>
        <time>2014-02-12T07:35:34.000Z</time>
      </trkpt>
      <trkpt lat="45.91869" lon="6.48739">
        <ele>1532.4000244141</ele>
        <time>2014-02-12T07:35:35.000Z</time>
      </trkpt>
      <trkpt lat="45.91869" lon="6.48739">
        <ele>1532.4000244141</ele>
        <time>2014-02-12T07:35:36.000Z</time>
      </trkpt>
      <trkpt lat="45.91868" lon="6.48739">
        <ele>1532.4000244141</ele>
        <time>2014-02-12T07:35:37.000Z</time>
      </trkpt>
      <trkpt lat="45.91868" lon="6.48739">
        <ele>1532.5999755859</ele>
        <time>2014-02-12T07:35:38.000Z</time>
      </trkpt>
      <trkpt lat="45.91867" lon="6.48739">
        <ele>1532.5999755859</ele>
        <time>2014-02-12T07:35:39.000Z</time>
      </trkpt>
      <trkpt lat="45.91867" lon="6.48738">
        <ele>1532.5999755859</ele>
        <time>2014-02-12T07:35:40.000Z</time>
      </trkpt>
      <trkpt lat="45.91865" lon="6.48738">
        <ele>1532.8000488281</ele>
        <time>2014-02-12T07:35:41.000Z</time>
      </trkpt>
      <trkpt lat="45.91865" lon="6.48738">
        <ele>1532.8000488281</ele>
        <time>2014-02-12T07:35:42.000Z</time>
      </trkpt>
      <trkpt lat="45.91864" lon="6.48738">
        <ele>1533</ele>
        <time>2014-02-12T07:35:43.000Z</time>
      </trkpt>
      <trkpt lat="45.91864" lon="6.48738">
        <ele>1533</ele>
        <time>2014-02-12T07:35:44.000Z</time>
      </trkpt>
      <trkpt lat="45.91863" lon="6.48737">
        <ele>1533</ele>
        <time>2014-02-12T07:35:45.000Z</time>
      </trkpt>
      <trkpt lat="45.91863" lon="6.48737">
        <ele>1533</ele>
        <time>2014-02-12T07:35:46.000Z</time>
      </trkpt>
      <trkpt lat="45.91862" lon="6.48737">
        <ele>1533</ele>
        <time>2014-02-12T07:35:47.000Z</time>
      </trkpt>
      <trkpt lat="45.91861" lon="6.48737">
        <ele>1533.1999511719</ele>
        <time>2014-02-12T07:35:48.000Z</time>
      </trkpt>
      <trkpt lat="45.91861" lon="6.48736">
        <ele>1533.4000244141</ele>
        <time>2014-02-12T07:35:49.000Z</time>
      </trkpt>
      <trkpt lat="45.9186" lon="6.48736">
        <ele>1533.4000244141</ele>
        <time>2014-02-12T07:35:50.000Z</time>
      </trkpt>
      <trkpt lat="45.9186" lon="6.48736">
        <ele>1533.4000244141</ele>
        <time>2014-02-12T07:35:51.000Z</time>
      </trkpt>
      <trkpt lat="45.91859" lon="6.48735">
        <ele>1533.4000244141</ele>
        <time>2014-02-12T07:35:52.000Z</time>
      </trkpt>
      <trkpt lat="45.91858" lon="6.48734">
        <ele>1533.1999511719</ele>
        <time>2014-02-12T07:35:53.000Z</time>
      </trkpt>
      <trkpt lat="45.91857" lon="6.48734">
        <ele>1533.1999511719</ele>
        <time>2014-02-12T07:35:54.000Z</time>
      </trkpt>
      <trkpt lat="45.91857" lon="6.48733">
        <ele>1533.4000244141</ele>
        <time>2014-02-12T07:35:55.000Z</time>
      </trkpt>
      <trkpt lat="45.91856" lon="6.48733">
        <ele>1533.4000244141</ele>
        <time>2014-02-12T07:35:56.000Z</time>
      </trkpt>
      <trkpt lat="45.91855" lon="6.48733">
        <ele>1533.5999755859</ele>
        <time>2014-02-12T07:35:57.000Z</time>
      </trkpt>
      <trkpt lat="45.91855" lon="6.48734">
        <ele>1533.8000488281</ele>
        <time>2014-02-12T07:35:58.000Z</time>
      </trkpt>
      <trkpt lat="45.91854" lon="6.48734">
        <ele>1534</ele>
        <time>2014-02-12T07:35:59.000Z</time>
      </trkpt>
      <trkpt lat="45.91853" lon="6.48734">
        <ele>1534.1999511719</ele>
        <time>2014-02-12T07:36:00.000Z</time>
      </trkpt>
      <trkpt lat="45.91852" lon="6.48734">
        <ele>1534.1999511719</ele>
        <time>2014-02-12T07:36:01.000Z</time>
      </trkpt>
      <trkpt lat="45.91852" lon="6.48734">
        <ele>1534.5999755859</ele>
        <time>2014-02-12T07:36:02.000Z</time>
      </trkpt>
      <trkpt lat="45.91851" lon="6.48734">
        <ele>1534.8000488281</ele>
        <time>2014-02-12T07:36:03.000Z</time>
      </trkpt>
      <trkpt lat="45.91851" lon="6.48734">
        <ele>1534.8000488281</ele>
        <time>2014-02-12T07:36:04.000Z</time>
      </trkpt>
      <trkpt lat="45.91851" lon="6.48734">
        <ele>1534.8000488281</ele>
        <time>2014-02-12T07:36:05.000Z</time>
      </trkpt>
      <trkpt lat="45.91851" lon="6.48734">
        <ele>1534.8000488281</ele>
        <time>2014-02-12T07:36:06.000Z</time>
      </trkpt>
      <trkpt lat="45.91851" lon="6.48734">
        <ele>1534.8000488281</ele>
        <time>2014-02-12T07:36:07.000Z</time>
      </trkpt>
      <trkpt lat="45.91851" lon="6.48734">
        <ele>1534.8000488281</ele>
        <time>2014-02-12T07:36:08.000Z</time>
      </trkpt>
      <trkpt lat="45.9185" lon="6.48735">
        <ele>1535</ele>
        <time>2014-02-12T07:36:09.000Z</time>
      </trkpt>
      <trkpt lat="45.9185" lon="6.48734">
        <ele>1535</ele>
        <time>2014-02-12T07:36:10.000Z</time>
      </trkpt>
      <trkpt lat="45.9185" lon="6.48734">
        <ele>1535</ele>
        <time>2014-02-12T07:36:11.000Z</time>
      </trkpt>
      <trkpt lat="45.9185" lon="6.48734">
        <ele>1535.1999511719</ele>
        <time>2014-02-12T07:36:13.000Z</time>
      </trkpt>
      <trkpt lat="45.91849" lon="6.48734">
        <ele>1535.1999511719</ele>
        <time>2014-02-12T07:36:14.000Z</time>
      </trkpt>
      <trkpt lat="45.91848" lon="6.48734">
        <ele>1535.4000244141</ele>
        <time>2014-02-12T07:36:15.000Z</time>
      </trkpt>
      <trkpt lat="45.91848" lon="6.48734">
        <ele>1535.5999755859</ele>
        <time>2014-02-12T07:36:16.000Z</time>
      </trkpt>
      <trkpt lat="45.91847" lon="6.48734">
        <ele>1535.5999755859</ele>
        <time>2014-02-12T07:36:17.000Z</time>
      </trkpt>
      <trkpt lat="45.91847" lon="6.48734">
        <ele>1535.8000488281</ele>
        <time>2014-02-12T07:36:18.000Z</time>
      </trkpt>
      <trkpt lat="45.91846" lon="6.48735">
        <ele>1536</ele>
        <time>2014-02-12T07:36:19.000Z</time>
      </trkpt>
      <trkpt lat="45.91845" lon="6.48734">
        <ele>1536.1999511719</ele>
        <time>2014-02-12T07:36:20.000Z</time>
      </trkpt>
      <trkpt lat="45.91845" lon="6.48735">
        <ele>1536.1999511719</ele>
        <time>2014-02-12T07:36:21.000Z</time>
      </trkpt>
      <trkpt lat="45.91844" lon="6.48735">
        <ele>1536.4000244141</ele>
        <time>2014-02-12T07:36:22.000Z</time>
      </trkpt>
      <trkpt lat="45.91844" lon="6.48735">
        <ele>1536.4000244141</ele>
        <time>2014-02-12T07:36:23.000Z</time>
      </trkpt>
      <trkpt lat="45.91844" lon="6.48735">
        <ele>1536.5999755859</ele>
        <time>2014-02-12T07:36:24.000Z</time>
      </trkpt>
      <trkpt lat="45.91844" lon="6.48735">
        <ele>1536.5999755859</ele>
        <time>2014-02-12T07:36:25.000Z</time>
      </trkpt>
      <trkpt lat="45.91843" lon="6.48735">
        <ele>1536.8000488281</ele>
        <time>2014-02-12T07:36:26.000Z</time>
      </trkpt>
      <trkpt lat="45.91843" lon="6.48735">
        <ele>1536.8000488281</ele>
        <time>2014-02-12T07:36:27.000Z</time>
      </trkpt>
      <trkpt lat="45.91842" lon="6.48735">
        <ele>1537</ele>
        <time>2014-02-12T07:36:28.000Z</time>
      </trkpt>
      <trkpt lat="45.91841" lon="6.48735">
        <ele>1537.1999511719</ele>
        <time>2014-02-12T07:36:29.000Z</time>
      </trkpt>
      <trkpt lat="45.9184" lon="6.48734">
        <ele>1537.1999511719</ele>
        <time>2014-02-12T07:36:30.000Z</time>
      </trkpt>
      <trkpt lat="45.91839" lon="6.48734">
        <ele>1537.1999511719</ele>
        <time>2014-02-12T07:36:31.000Z</time>
      </trkpt>
      <trkpt lat="45.91838" lon="6.48733">
        <ele>1537.4000244141</ele>
        <time>2014-02-12T07:36:32.000Z</time>
      </trkpt>
      <trkpt lat="45.91837" lon="6.48733">
        <ele>1537.4000244141</ele>
        <time>2014-02-12T07:36:33.000Z</time>
      </trkpt>
      <trkpt lat="45.91836" lon="6.48733">
        <ele>1537.5999755859</ele>
        <time>2014-02-12T07:36:34.000Z</time>
      </trkpt>
      <trkpt lat="45.91836" lon="6.48732">
        <ele>1537.5999755859</ele>
        <time>2014-02-12T07:36:35.000Z</time>
      </trkpt>
      <trkpt lat="45.91836" lon="6.48732">
        <ele>1537.1999511719</ele>
        <time>2014-02-12T07:36:36.000Z</time>
      </trkpt>
      <trkpt lat="45.91836" lon="6.48732">
        <ele>1537.1999511719</ele>
        <time>2014-02-12T07:36:37.000Z</time>
      </trkpt>
      <trkpt lat="45.91836" lon="6.48732">
        <ele>1537.1999511719</ele>
        <time>2014-02-12T07:36:38.000Z</time>
      </trkpt>
      <trkpt lat="45.91836" lon="6.48732">
        <ele>1537.1999511719</ele>
        <time>2014-02-12T07:36:39.000Z</time>
      </trkpt>
      <trkpt lat="45.91836" lon="6.48732">
        <ele>1537.1999511719</ele>
        <time>2014-02-12T07:36:40.000Z</time>
      </trkpt>
      <trkpt lat="45.91836" lon="6.48732">
        <ele>1537.1999511719</ele>
        <time>2014-02-12T07:36:41.000Z</time>
      </trkpt>
      <trkpt lat="45.91836" lon="6.48732">
        <ele>1537.1999511719</ele>
        <time>2014-02-12T07:36:42.000Z</time>
      </trkpt>
      <trkpt lat="45.91836" lon="6.48732">
        <ele>1537.1999511719</ele>
        <time>2014-02-12T07:36:43.000Z</time>
      </trkpt>
      <trkpt lat="45.91836" lon="6.48732">
        <ele>1537.1999511719</ele>
        <time>2014-02-12T07:36:44.000Z</time>
      </trkpt>
      <trkpt lat="45.91836" lon="6.48732">
        <ele>1537.1999511719</ele>
        <time>2014-02-12T07:36:45.000Z</time>
      </trkpt>
      <trkpt lat="45.91836" lon="6.48732">
        <ele>1537.1999511719</ele>
        <time>2014-02-12T07:36:46.000Z</time>
      </trkpt>
      <trkpt lat="45.91836" lon="6.48732">
        <ele>1537.1999511719</ele>
        <time>2014-02-12T07:36:47.000Z</time>
      </trkpt>
      <trkpt lat="45.91836" lon="6.48732">
        <ele>1537.1999511719</ele>
        <time>2014-02-12T07:36:51.000Z</time>
      </trkpt>
      <trkpt lat="45.91836" lon="6.48732">
        <ele>1537.1999511719</ele>
        <time>2014-02-12T07:36:52.000Z</time>
      </trkpt>
      <trkpt lat="45.91836" lon="6.48732">
        <ele>1537.1999511719</ele>
        <time>2014-02-12T07:36:53.000Z</time>
      </trkpt>
      <trkpt lat="45.91836" lon="6.48732">
        <ele>1537.1999511719</ele>
        <time>2014-02-12T07:36:54.000Z</time>
      </trkpt>
      <trkpt lat="45.91836" lon="6.48732">
        <ele>1537.1999511719</ele>
        <time>2014-02-12T07:36:55.000Z</time>
      </trkpt>
      <trkpt lat="45.91836" lon="6.48732">
        <ele>1537.1999511719</ele>
        <time>2014-02-12T07:36:56.000Z</time>
      </trkpt>
      <trkpt lat="45.91836" lon="6.48732">
        <ele>1537.1999511719</ele>
        <time>2014-02-12T07:36:57.000Z</time>
      </trkpt>
      <trkpt lat="45.91836" lon="6.48732">
        <ele>1537.1999511719</ele>
        <time>2014-02-12T07:36:58.000Z</time>
      </trkpt>
      <trkpt lat="45.91836" lon="6.48732">
        <ele>1537.1999511719</ele>
        <time>2014-02-12T07:36:59.000Z</time>
      </trkpt>
      <trkpt lat="45.91835" lon="6.48732">
        <ele>1537.4000244141</ele>
        <time>2014-02-12T07:37:00.000Z</time>
      </trkpt>
      <trkpt lat="45.91835" lon="6.48732">
        <ele>1537.4000244141</ele>
        <time>2014-02-12T07:37:01.000Z</time>
      </trkpt>
      <trkpt lat="45.91835" lon="6.48732">
        <ele>1537.4000244141</ele>
        <time>2014-02-12T07:37:02.000Z</time>
      </trkpt>
      <trkpt lat="45.91835" lon="6.48732">
        <ele>1537.4000244141</ele>
        <time>2014-02-12T07:37:03.000Z</time>
      </trkpt>
      <trkpt lat="45.91834" lon="6.48732">
        <ele>1537.5999755859</ele>
        <time>2014-02-12T07:37:04.000Z</time>
      </trkpt>
      <trkpt lat="45.91833" lon="6.48731">
        <ele>1537.4000244141</ele>
        <time>2014-02-12T07:37:06.000Z</time>
      </trkpt>
      <trkpt lat="45.91832" lon="6.48731">
        <ele>1537.5999755859</ele>
        <time>2014-02-12T07:37:07.000Z</time>
      </trkpt>
      <trkpt lat="45.91832" lon="6.48731">
        <ele>1537.8000488281</ele>
        <time>2014-02-12T07:37:08.000Z</time>
      </trkpt>
      <trkpt lat="45.9183" lon="6.48733">
        <ele>1538.8000488281</ele>
        <time>2014-02-12T07:37:11.000Z</time>
      </trkpt>
      <trkpt lat="45.9183" lon="6.48734">
        <ele>1539.1999511719</ele>
        <time>2014-02-12T07:37:12.000Z</time>
      </trkpt>
      <trkpt lat="45.9183" lon="6.48734">
        <ele>1539.4000244141</ele>
        <time>2014-02-12T07:37:13.000Z</time>
      </trkpt>
      <trkpt lat="45.91829" lon="6.48735">
        <ele>1539.5999755859</ele>
        <time>2014-02-12T07:37:14.000Z</time>
      </trkpt>
      <trkpt lat="45.91829" lon="6.48735">
        <ele>1539.8000488281</ele>
        <time>2014-02-12T07:37:15.000Z</time>
      </trkpt>
      <trkpt lat="45.91829" lon="6.48735">
        <ele>1540</ele>
        <time>2014-02-12T07:37:16.000Z</time>
      </trkpt>
      <trkpt lat="45.91829" lon="6.48735">
        <ele>1540</ele>
        <time>2014-02-12T07:37:17.000Z</time>
      </trkpt>
      <trkpt lat="45.91829" lon="6.48735">
        <ele>1540</ele>
        <time>2014-02-12T07:37:18.000Z</time>
      </trkpt>
      <trkpt lat="45.91829" lon="6.48735">
        <ele>1540</ele>
        <time>2014-02-12T07:37:19.000Z</time>
      </trkpt>
      <trkpt lat="45.91829" lon="6.48735">
        <ele>1540</ele>
        <time>2014-02-12T07:37:20.000Z</time>
      </trkpt>
      <trkpt lat="45.91829" lon="6.48735">
        <ele>1540</ele>
        <time>2014-02-12T07:37:21.000Z</time>
      </trkpt>
      <trkpt lat="45.91829" lon="6.48735">
        <ele>1540</ele>
        <time>2014-02-12T07:37:22.000Z</time>
      </trkpt>
      <trkpt lat="45.91829" lon="6.48735">
        <ele>1540</ele>
        <time>2014-02-12T07:37:23.000Z</time>
      </trkpt>
      <trkpt lat="45.91829" lon="6.48735">
        <ele>1540</ele>
        <time>2014-02-12T07:37:24.000Z</time>
      </trkpt>
      <trkpt lat="45.91829" lon="6.48735">
        <ele>1540</ele>
        <time>2014-02-12T07:37:25.000Z</time>
      </trkpt>
      <trkpt lat="45.91829" lon="6.48735">
        <ele>1540</ele>
        <time>2014-02-12T07:37:26.000Z</time>
      </trkpt>
      <trkpt lat="45.91829" lon="6.48735">
        <ele>1540</ele>
        <time>2014-02-12T07:37:27.000Z</time>
      </trkpt>
      <trkpt lat="45.91829" lon="6.48735">
        <ele>1540</ele>
        <time>2014-02-12T07:37:28.000Z</time>
      </trkpt>
      <trkpt lat="45.91829" lon="6.48735">
        <ele>1540</ele>
        <time>2014-02-12T07:37:29.000Z</time>
      </trkpt>
      <trkpt lat="45.91828" lon="6.48736">
        <ele>1540.1999511719</ele>
        <time>2014-02-12T07:37:30.000Z</time>
      </trkpt>
      <trkpt lat="45.91828" lon="6.48737">
        <ele>1540.5999755859</ele>
        <time>2014-02-12T07:37:31.000Z</time>
      </trkpt>
      <trkpt lat="45.91827" lon="6.48738">
        <ele>1540.8000488281</ele>
        <time>2014-02-12T07:37:32.000Z</time>
      </trkpt>
      <trkpt lat="45.91827" lon="6.48739">
        <ele>1541.1999511719</ele>
        <time>2014-02-12T07:37:33.000Z</time>
      </trkpt>
      <trkpt lat="45.91827" lon="6.48739">
        <ele>1541.5999755859</ele>
        <time>2014-02-12T07:37:34.000Z</time>
      </trkpt>
      <trkpt lat="45.91827" lon="6.48739">
        <ele>1541.5999755859</ele>
        <time>2014-02-12T07:37:35.000Z</time>
      </trkpt>
      <trkpt lat="45.91827" lon="6.48739">
        <ele>1541.5999755859</ele>
        <time>2014-02-12T07:37:36.000Z</time>
      </trkpt>
      <trkpt lat="45.91827" lon="6.48739">
        <ele>1541.5999755859</ele>
        <time>2014-02-12T07:37:37.000Z</time>
      </trkpt>
      <trkpt lat="45.91827" lon="6.48739">
        <ele>1541.5999755859</ele>
        <time>2014-02-12T07:37:38.000Z</time>
      </trkpt>
      <trkpt lat="45.91827" lon="6.4874">
        <ele>1541.5999755859</ele>
        <time>2014-02-12T07:37:39.000Z</time>
      </trkpt>
      <trkpt lat="45.91827" lon="6.4874">
        <ele>1541.5999755859</ele>
        <time>2014-02-12T07:37:42.000Z</time>
      </trkpt>
      <trkpt lat="45.91827" lon="6.4874">
        <ele>1541.5999755859</ele>
        <time>2014-02-12T07:37:43.000Z</time>
      </trkpt>
      <trkpt lat="45.91828" lon="6.4874">
        <ele>1541.5999755859</ele>
        <time>2014-02-12T07:37:44.000Z</time>
      </trkpt>
      <trkpt lat="45.91828" lon="6.48741">
        <ele>1541.5999755859</ele>
        <time>2014-02-12T07:37:45.000Z</time>
      </trkpt>
      <trkpt lat="45.91829" lon="6.48741">
        <ele>1541.4000244141</ele>
        <time>2014-02-12T07:37:46.000Z</time>
      </trkpt>
      <trkpt lat="45.9183" lon="6.48741">
        <ele>1541.4000244141</ele>
        <time>2014-02-12T07:37:47.000Z</time>
      </trkpt>
      <trkpt lat="45.9183" lon="6.48741">
        <ele>1541.1999511719</ele>
        <time>2014-02-12T07:37:48.000Z</time>
      </trkpt>
      <trkpt lat="45.91831" lon="6.48741">
        <ele>1541.1999511719</ele>
        <time>2014-02-12T07:37:49.000Z</time>
      </trkpt>
      <trkpt lat="45.91832" lon="6.48742">
        <ele>1541.1999511719</ele>
        <time>2014-02-12T07:37:50.000Z</time>
      </trkpt>
      <trkpt lat="45.91832" lon="6.48743">
        <ele>1541.4000244141</ele>
        <time>2014-02-12T07:37:51.000Z</time>
      </trkpt>
      <trkpt lat="45.91833" lon="6.48743">
        <ele>1541.1999511719</ele>
        <time>2014-02-12T07:37:52.000Z</time>
      </trkpt>
      <trkpt lat="45.91833" lon="6.48743">
        <ele>1541.1999511719</ele>
        <time>2014-02-12T07:37:53.000Z</time>
      </trkpt>
      <trkpt lat="45.91834" lon="6.48744">
        <ele>1541.4000244141</ele>
        <time>2014-02-12T07:37:54.000Z</time>
      </trkpt>
      <trkpt lat="45.91833" lon="6.48745">
        <ele>1541.5999755859</ele>
        <time>2014-02-12T07:37:55.000Z</time>
      </trkpt>
      <trkpt lat="45.91833" lon="6.48746">
        <ele>1541.8000488281</ele>
        <time>2014-02-12T07:37:57.000Z</time>
      </trkpt>
      <trkpt lat="45.91833" lon="6.48746">
        <ele>1541.8000488281</ele>
        <time>2014-02-12T07:37:58.000Z</time>
      </trkpt>
      <trkpt lat="45.91833" lon="6.48746">
        <ele>1541.8000488281</ele>
        <time>2014-02-12T07:37:59.000Z</time>
      </trkpt>
      <trkpt lat="45.91833" lon="6.48746">
        <ele>1541.8000488281</ele>
        <time>2014-02-12T07:38:00.000Z</time>
      </trkpt>
      <trkpt lat="45.91833" lon="6.48746">
        <ele>1541.8000488281</ele>
        <time>2014-02-12T07:38:01.000Z</time>
      </trkpt>
      <trkpt lat="45.91833" lon="6.48746">
        <ele>1541.8000488281</ele>
        <time>2014-02-12T07:38:02.000Z</time>
      </trkpt>
      <trkpt lat="45.91833" lon="6.48746">
        <ele>1541.8000488281</ele>
        <time>2014-02-12T07:38:03.000Z</time>
      </trkpt>
      <trkpt lat="45.91832" lon="6.48747">
        <ele>1542.4000244141</ele>
        <time>2014-02-12T07:38:04.000Z</time>
      </trkpt>
      <trkpt lat="45.91831" lon="6.48748">
        <ele>1543</ele>
        <time>2014-02-12T07:38:05.000Z</time>
      </trkpt>
      <trkpt lat="45.9183" lon="6.48748">
        <ele>1543.1999511719</ele>
        <time>2014-02-12T07:38:06.000Z</time>
      </trkpt>
      <trkpt lat="45.9183" lon="6.48749">
        <ele>1543.5999755859</ele>
        <time>2014-02-12T07:38:07.000Z</time>
      </trkpt>
      <trkpt lat="45.91829" lon="6.48749">
        <ele>1543.8000488281</ele>
        <time>2014-02-12T07:38:08.000Z</time>
      </trkpt>
      <trkpt lat="45.91828" lon="6.4875">
        <ele>1544.1999511719</ele>
        <time>2014-02-12T07:38:09.000Z</time>
      </trkpt>
      <trkpt lat="45.91827" lon="6.4875">
        <ele>1544.4000244141</ele>
        <time>2014-02-12T07:38:10.000Z</time>
      </trkpt>
      <trkpt lat="45.91826" lon="6.48751">
        <ele>1545</ele>
        <time>2014-02-12T07:38:11.000Z</time>
      </trkpt>
      <trkpt lat="45.91825" lon="6.48751">
        <ele>1545.1999511719</ele>
        <time>2014-02-12T07:38:12.000Z</time>
      </trkpt>
      <trkpt lat="45.91824" lon="6.48751">
        <ele>1545.5999755859</ele>
        <time>2014-02-12T07:38:13.000Z</time>
      </trkpt>
      <trkpt lat="45.91824" lon="6.48751">
        <ele>1545.5999755859</ele>
        <time>2014-02-12T07:38:14.000Z</time>
      </trkpt>
      <trkpt lat="45.91824" lon="6.48751">
        <ele>1545.5999755859</ele>
        <time>2014-02-12T07:38:15.000Z</time>
      </trkpt>
      <trkpt lat="45.91824" lon="6.4875">
        <ele>1545.4000244141</ele>
        <time>2014-02-12T07:38:16.000Z</time>
      </trkpt>
      <trkpt lat="45.91824" lon="6.4875">
        <ele>1545.4000244141</ele>
        <time>2014-02-12T07:38:17.000Z</time>
      </trkpt>
      <trkpt lat="45.91824" lon="6.4875">
        <ele>1545.4000244141</ele>
        <time>2014-02-12T07:38:18.000Z</time>
      </trkpt>
      <trkpt lat="45.91824" lon="6.4875">
        <ele>1545.4000244141</ele>
        <time>2014-02-12T07:38:19.000Z</time>
      </trkpt>
      <trkpt lat="45.91824" lon="6.4875">
        <ele>1545.4000244141</ele>
        <time>2014-02-12T07:38:20.000Z</time>
      </trkpt>
      <trkpt lat="45.91824" lon="6.4875">
        <ele>1545.4000244141</ele>
        <time>2014-02-12T07:38:21.000Z</time>
      </trkpt>
      <trkpt lat="45.91824" lon="6.4875">
        <ele>1545.4000244141</ele>
        <time>2014-02-12T07:38:23.000Z</time>
      </trkpt>
      <trkpt lat="45.91825" lon="6.48751">
        <ele>1545.4000244141</ele>
        <time>2014-02-12T07:38:24.000Z</time>
      </trkpt>
      <trkpt lat="45.91826" lon="6.48752">
        <ele>1545.4000244141</ele>
        <time>2014-02-12T07:38:25.000Z</time>
      </trkpt>
      <trkpt lat="45.91827" lon="6.48753">
        <ele>1545.5999755859</ele>
        <time>2014-02-12T07:38:26.000Z</time>
      </trkpt>
      <trkpt lat="45.91827" lon="6.48754">
        <ele>1545.5999755859</ele>
        <time>2014-02-12T07:38:27.000Z</time>
      </trkpt>
      <trkpt lat="45.91829" lon="6.48755">
        <ele>1545.4000244141</ele>
        <time>2014-02-12T07:38:28.000Z</time>
      </trkpt>
      <trkpt lat="45.91829" lon="6.48756">
        <ele>1545.8000488281</ele>
        <time>2014-02-12T07:38:29.000Z</time>
      </trkpt>
      <trkpt lat="45.91829" lon="6.48756">
        <ele>1545.8000488281</ele>
        <time>2014-02-12T07:38:30.000Z</time>
      </trkpt>
      <trkpt lat="45.91829" lon="6.48756">
        <ele>1545.8000488281</ele>
        <time>2014-02-12T07:38:31.000Z</time>
      </trkpt>
      <trkpt lat="45.9183" lon="6.48757">
        <ele>1546</ele>
        <time>2014-02-12T07:38:32.000Z</time>
      </trkpt>
      <trkpt lat="45.91831" lon="6.48757">
        <ele>1545.8000488281</ele>
        <time>2014-02-12T07:38:33.000Z</time>
      </trkpt>
      <trkpt lat="45.91832" lon="6.48758">
        <ele>1545.8000488281</ele>
        <time>2014-02-12T07:38:34.000Z</time>
      </trkpt>
      <trkpt lat="45.91832" lon="6.48758">
        <ele>1545.8000488281</ele>
        <time>2014-02-12T07:38:35.000Z</time>
      </trkpt>
      <trkpt lat="45.91832" lon="6.48758">
        <ele>1545.8000488281</ele>
        <time>2014-02-12T07:38:37.000Z</time>
      </trkpt>
      <trkpt lat="45.91832" lon="6.48758">
        <ele>1545.8000488281</ele>
        <time>2014-02-12T07:38:38.000Z</time>
      </trkpt>
      <trkpt lat="45.91832" lon="6.48758">
        <ele>1545.8000488281</ele>
        <time>2014-02-12T07:38:39.000Z</time>
      </trkpt>
      <trkpt lat="45.91832" lon="6.48758">
        <ele>1546</ele>
        <time>2014-02-12T07:38:40.000Z</time>
      </trkpt>
      <trkpt lat="45.91832" lon="6.48758">
        <ele>1546</ele>
        <time>2014-02-12T07:38:41.000Z</time>
      </trkpt>
      <trkpt lat="45.91832" lon="6.48758">
        <ele>1546</ele>
        <time>2014-02-12T07:38:42.000Z</time>
      </trkpt>
      <trkpt lat="45.91831" lon="6.48759">
        <ele>1546.4000244141</ele>
        <time>2014-02-12T07:38:43.000Z</time>
      </trkpt>
      <trkpt lat="45.91831" lon="6.48759">
        <ele>1546.5999755859</ele>
        <time>2014-02-12T07:38:44.000Z</time>
      </trkpt>
      <trkpt lat="45.91831" lon="6.48759">
        <ele>1546.5999755859</ele>
        <time>2014-02-12T07:38:45.000Z</time>
      </trkpt>
      <trkpt lat="45.91831" lon="6.4876">
        <ele>1546.8000488281</ele>
        <time>2014-02-12T07:38:46.000Z</time>
      </trkpt>
      <trkpt lat="45.9183" lon="6.4876">
        <ele>1547.4000244141</ele>
        <time>2014-02-12T07:38:47.000Z</time>
      </trkpt>
      <trkpt lat="45.9183" lon="6.4876">
        <ele>1547.5999755859</ele>
        <time>2014-02-12T07:38:48.000Z</time>
      </trkpt>
      <trkpt lat="45.91829" lon="6.48761">
        <ele>1548.1999511719</ele>
        <time>2014-02-12T07:38:49.000Z</time>
      </trkpt>
      <trkpt lat="45.91828" lon="6.48761">
        <ele>1548.8000488281</ele>
        <time>2014-02-12T07:38:50.000Z</time>
      </trkpt>
      <trkpt lat="45.91828" lon="6.48762">
        <ele>1549.1999511719</ele>
        <time>2014-02-12T07:38:51.000Z</time>
      </trkpt>
      <trkpt lat="45.91827" lon="6.48763">
        <ele>1549.8000488281</ele>
        <time>2014-02-12T07:38:52.000Z</time>
      </trkpt>
      <trkpt lat="45.91827" lon="6.48763">
        <ele>1550.1999511719</ele>
        <time>2014-02-12T07:38:53.000Z</time>
      </trkpt>
      <trkpt lat="45.91826" lon="6.48763">
        <ele>1550.4000244141</ele>
        <time>2014-02-12T07:38:54.000Z</time>
      </trkpt>
      <trkpt lat="45.91826" lon="6.48763">
        <ele>1550.4000244141</ele>
        <time>2014-02-12T07:38:55.000Z</time>
      </trkpt>
      <trkpt lat="45.91825" lon="6.48764">
        <ele>1550.8000488281</ele>
        <time>2014-02-12T07:38:56.000Z</time>
      </trkpt>
      <trkpt lat="45.91825" lon="6.48763">
        <ele>1551</ele>
        <time>2014-02-12T07:38:57.000Z</time>
      </trkpt>
      <trkpt lat="45.91825" lon="6.48763">
        <ele>1551</ele>
        <time>2014-02-12T07:38:58.000Z</time>
      </trkpt>
      <trkpt lat="45.91824" lon="6.48763">
        <ele>1551</ele>
        <time>2014-02-12T07:38:59.000Z</time>
      </trkpt>
      <trkpt lat="45.91824" lon="6.48763">
        <ele>1551</ele>
        <time>2014-02-12T07:39:00.000Z</time>
      </trkpt>
      <trkpt lat="45.91824" lon="6.48763">
        <ele>1551</ele>
        <time>2014-02-12T07:39:01.000Z</time>
      </trkpt>
      <trkpt lat="45.91824" lon="6.48763">
        <ele>1551</ele>
        <time>2014-02-12T07:39:02.000Z</time>
      </trkpt>
      <trkpt lat="45.91824" lon="6.48763">
        <ele>1551</ele>
        <time>2014-02-12T07:39:03.000Z</time>
      </trkpt>
      <trkpt lat="45.91824" lon="6.48763">
        <ele>1551</ele>
        <time>2014-02-12T07:39:04.000Z</time>
      </trkpt>
      <trkpt lat="45.91824" lon="6.48763">
        <ele>1551</ele>
        <time>2014-02-12T07:39:05.000Z</time>
      </trkpt>
      <trkpt lat="45.91824" lon="6.48763">
        <ele>1551</ele>
        <time>2014-02-12T07:39:06.000Z</time>
      </trkpt>
      <trkpt lat="45.91824" lon="6.48763">
        <ele>1551</ele>
        <time>2014-02-12T07:39:07.000Z</time>
      </trkpt>
      <trkpt lat="45.91824" lon="6.48763">
        <ele>1551</ele>
        <time>2014-02-12T07:39:08.000Z</time>
      </trkpt>
      <trkpt lat="45.91824" lon="6.48763">
        <ele>1551</ele>
        <time>2014-02-12T07:39:09.000Z</time>
      </trkpt>
      <trkpt lat="45.91824" lon="6.48763">
        <ele>1551.1999511719</ele>
        <time>2014-02-12T07:39:10.000Z</time>
      </trkpt>
      <trkpt lat="45.91824" lon="6.48763">
        <ele>1551.1999511719</ele>
        <time>2014-02-12T07:39:11.000Z</time>
      </trkpt>
      <trkpt lat="45.91824" lon="6.48763">
        <ele>1551.1999511719</ele>
        <time>2014-02-12T07:39:14.000Z</time>
      </trkpt>
      <trkpt lat="45.91824" lon="6.48763">
        <ele>1551.1999511719</ele>
        <time>2014-02-12T07:39:15.000Z</time>
      </trkpt>
      <trkpt lat="45.91824" lon="6.48763">
        <ele>1551.1999511719</ele>
        <time>2014-02-12T07:39:16.000Z</time>
      </trkpt>
      <trkpt lat="45.91825" lon="6.48764">
        <ele>1551.1999511719</ele>
        <time>2014-02-12T07:39:17.000Z</time>
      </trkpt>
      <trkpt lat="45.91825" lon="6.48765">
        <ele>1551.4000244141</ele>
        <time>2014-02-12T07:39:18.000Z</time>
      </trkpt>
      <trkpt lat="45.91826" lon="6.48766">
        <ele>1551.5999755859</ele>
        <time>2014-02-12T07:39:19.000Z</time>
      </trkpt>
      <trkpt lat="45.91826" lon="6.48767">
        <ele>1552</ele>
        <time>2014-02-12T07:39:20.000Z</time>
      </trkpt>
      <trkpt lat="45.91827" lon="6.48768">
        <ele>1552.1999511719</ele>
        <time>2014-02-12T07:39:21.000Z</time>
      </trkpt>
      <trkpt lat="45.91827" lon="6.48768">
        <ele>1552.4000244141</ele>
        <time>2014-02-12T07:39:22.000Z</time>
      </trkpt>
      <trkpt lat="45.91827" lon="6.48769">
        <ele>1552.4000244141</ele>
        <time>2014-02-12T07:39:23.000Z</time>
      </trkpt>
      <trkpt lat="45.91828" lon="6.4877">
        <ele>1552.5999755859</ele>
        <time>2014-02-12T07:39:24.000Z</time>
      </trkpt>
      <trkpt lat="45.91828" lon="6.4877">
        <ele>1552.8000488281</ele>
        <time>2014-02-12T07:39:25.000Z</time>
      </trkpt>
      <trkpt lat="45.91829" lon="6.48771">
        <ele>1552.8000488281</ele>
        <time>2014-02-12T07:39:26.000Z</time>
      </trkpt>
      <trkpt lat="45.9183" lon="6.48771">
        <ele>1552.5999755859</ele>
        <time>2014-02-12T07:39:27.000Z</time>
      </trkpt>
      <trkpt lat="45.9183" lon="6.48771">
        <ele>1552.5999755859</ele>
        <time>2014-02-12T07:39:28.000Z</time>
      </trkpt>
      <trkpt lat="45.9183" lon="6.48772">
        <ele>1552.5999755859</ele>
        <time>2014-02-12T07:39:29.000Z</time>
      </trkpt>
      <trkpt lat="45.91831" lon="6.48772">
        <ele>1552.4000244141</ele>
        <time>2014-02-12T07:39:30.000Z</time>
      </trkpt>
      <trkpt lat="45.91832" lon="6.48773">
        <ele>1552.5999755859</ele>
        <time>2014-02-12T07:39:31.000Z</time>
      </trkpt>
      <trkpt lat="45.91832" lon="6.48773">
        <ele>1552.4000244141</ele>
        <time>2014-02-12T07:39:32.000Z</time>
      </trkpt>
      <trkpt lat="45.91833" lon="6.48773">
        <ele>1552.4000244141</ele>
        <time>2014-02-12T07:39:33.000Z</time>
      </trkpt>
      <trkpt lat="45.91834" lon="6.48774">
        <ele>1552.1999511719</ele>
        <time>2014-02-12T07:39:34.000Z</time>
      </trkpt>
      <trkpt lat="45.91834" lon="6.48774">
        <ele>1552</ele>
        <time>2014-02-12T07:39:35.000Z</time>
      </trkpt>
      <trkpt lat="45.91835" lon="6.48774">
        <ele>1551.8000488281</ele>
        <time>2014-02-12T07:39:36.000Z</time>
      </trkpt>
      <trkpt lat="45.91835" lon="6.48774">
        <ele>1551.8000488281</ele>
        <time>2014-02-12T07:39:37.000Z</time>
      </trkpt>
      <trkpt lat="45.91835" lon="6.48774">
        <ele>1551.8000488281</ele>
        <time>2014-02-12T07:39:38.000Z</time>
      </trkpt>
      <trkpt lat="45.91836" lon="6.48774">
        <ele>1551.8000488281</ele>
        <time>2014-02-12T07:39:39.000Z</time>
      </trkpt>
      <trkpt lat="45.91836" lon="6.48774">
        <ele>1551.8000488281</ele>
        <time>2014-02-12T07:39:40.000Z</time>
      </trkpt>
      <trkpt lat="45.91836" lon="6.48774">
        <ele>1551.5999755859</ele>
        <time>2014-02-12T07:39:41.000Z</time>
      </trkpt>
      <trkpt lat="45.91836" lon="6.48774">
        <ele>1551.5999755859</ele>
        <time>2014-02-12T07:39:42.000Z</time>
      </trkpt>
      <trkpt lat="45.91836" lon="6.48774">
        <ele>1551.5999755859</ele>
        <time>2014-02-12T07:39:43.000Z</time>
      </trkpt>
      <trkpt lat="45.91836" lon="6.48774">
        <ele>1551.5999755859</ele>
        <time>2014-02-12T07:39:44.000Z</time>
      </trkpt>
      <trkpt lat="45.91836" lon="6.48774">
        <ele>1551.5999755859</ele>
        <time>2014-02-12T07:39:45.000Z</time>
      </trkpt>
      <trkpt lat="45.91836" lon="6.48774">
        <ele>1551.5999755859</ele>
        <time>2014-02-12T07:39:46.000Z</time>
      </trkpt>
      <trkpt lat="45.91836" lon="6.48774">
        <ele>1551.5999755859</ele>
        <time>2014-02-12T07:39:47.000Z</time>
      </trkpt>
      <trkpt lat="45.91836" lon="6.48775">
        <ele>1551.5999755859</ele>
        <time>2014-02-12T07:39:48.000Z</time>
      </trkpt>
      <trkpt lat="45.91837" lon="6.48775">
        <ele>1551.5999755859</ele>
        <time>2014-02-12T07:39:49.000Z</time>
      </trkpt>
      <trkpt lat="45.91837" lon="6.48775">
        <ele>1551.5999755859</ele>
        <time>2014-02-12T07:39:50.000Z</time>
      </trkpt>
      <trkpt lat="45.91837" lon="6.48775">
        <ele>1551.5999755859</ele>
        <time>2014-02-12T07:39:51.000Z</time>
      </trkpt>
      <trkpt lat="45.91837" lon="6.48775">
        <ele>1551.5999755859</ele>
        <time>2014-02-12T07:39:52.000Z</time>
      </trkpt>
      <trkpt lat="45.91837" lon="6.48775">
        <ele>1551.5999755859</ele>
        <time>2014-02-12T07:39:53.000Z</time>
      </trkpt>
      <trkpt lat="45.91837" lon="6.48775">
        <ele>1551.5999755859</ele>
        <time>2014-02-12T07:39:54.000Z</time>
      </trkpt>
      <trkpt lat="45.91837" lon="6.48775">
        <ele>1551.5999755859</ele>
        <time>2014-02-12T07:39:55.000Z</time>
      </trkpt>
      <trkpt lat="45.91837" lon="6.48775">
        <ele>1551.5999755859</ele>
        <time>2014-02-12T07:39:56.000Z</time>
      </trkpt>
      <trkpt lat="45.91837" lon="6.48775">
        <ele>1551.5999755859</ele>
        <time>2014-02-12T07:39:57.000Z</time>
      </trkpt>
      <trkpt lat="45.91835" lon="6.48776">
        <ele>1552.5999755859</ele>
        <time>2014-02-12T07:39:58.000Z</time>
      </trkpt>
      <trkpt lat="45.91835" lon="6.48776">
        <ele>1552.5999755859</ele>
        <time>2014-02-12T07:39:59.000Z</time>
      </trkpt>
      <trkpt lat="45.91835" lon="6.48777">
        <ele>1553.1999511719</ele>
        <time>2014-02-12T07:40:00.000Z</time>
      </trkpt>
      <trkpt lat="45.91834" lon="6.48778">
        <ele>1553.8000488281</ele>
        <time>2014-02-12T07:40:01.000Z</time>
      </trkpt>
      <trkpt lat="45.91834" lon="6.48779">
        <ele>1554.4000244141</ele>
        <time>2014-02-12T07:40:02.000Z</time>
      </trkpt>
      <trkpt lat="45.91833" lon="6.48779">
        <ele>1554.8000488281</ele>
        <time>2014-02-12T07:40:03.000Z</time>
      </trkpt>
      <trkpt lat="45.91833" lon="6.48779">
        <ele>1555.1999511719</ele>
        <time>2014-02-12T07:40:04.000Z</time>
      </trkpt>
      <trkpt lat="45.91833" lon="6.4878">
        <ele>1555.5999755859</ele>
        <time>2014-02-12T07:40:05.000Z</time>
      </trkpt>
      <trkpt lat="45.91832" lon="6.48781">
        <ele>1556</ele>
        <time>2014-02-12T07:40:06.000Z</time>
      </trkpt>
      <trkpt lat="45.91832" lon="6.48781">
        <ele>1556</ele>
        <time>2014-02-12T07:40:07.000Z</time>
      </trkpt>
      <trkpt lat="45.91832" lon="6.48781">
        <ele>1556</ele>
        <time>2014-02-12T07:40:08.000Z</time>
      </trkpt>
      <trkpt lat="45.91832" lon="6.48781">
        <ele>1556.5999755859</ele>
        <time>2014-02-12T07:40:09.000Z</time>
      </trkpt>
      <trkpt lat="45.91831" lon="6.48782">
        <ele>1557.1999511719</ele>
        <time>2014-02-12T07:40:10.000Z</time>
      </trkpt>
      <trkpt lat="45.9183" lon="6.48782">
        <ele>1557.4000244141</ele>
        <time>2014-02-12T07:40:11.000Z</time>
      </trkpt>
      <trkpt lat="45.9183" lon="6.48782">
        <ele>1557.8000488281</ele>
        <time>2014-02-12T07:40:12.000Z</time>
      </trkpt>
      <trkpt lat="45.91829" lon="6.48782">
        <ele>1557.8000488281</ele>
        <time>2014-02-12T07:40:13.000Z</time>
      </trkpt>
      <trkpt lat="45.91829" lon="6.48782">
        <ele>1558.1999511719</ele>
        <time>2014-02-12T07:40:14.000Z</time>
      </trkpt>
      <trkpt lat="45.91828" lon="6.48782">
        <ele>1558.1999511719</ele>
        <time>2014-02-12T07:40:15.000Z</time>
      </trkpt>
      <trkpt lat="45.91827" lon="6.48782">
        <ele>1558.4000244141</ele>
        <time>2014-02-12T07:40:16.000Z</time>
      </trkpt>
      <trkpt lat="45.91826" lon="6.48782">
        <ele>1558.8000488281</ele>
        <time>2014-02-12T07:40:17.000Z</time>
      </trkpt>
      <trkpt lat="45.91825" lon="6.48782">
        <ele>1559.1999511719</ele>
        <time>2014-02-12T07:40:18.000Z</time>
      </trkpt>
      <trkpt lat="45.91825" lon="6.48782">
        <ele>1559.4000244141</ele>
        <time>2014-02-12T07:40:19.000Z</time>
      </trkpt>
      <trkpt lat="45.91824" lon="6.48782">
        <ele>1559.8000488281</ele>
        <time>2014-02-12T07:40:20.000Z</time>
      </trkpt>
      <trkpt lat="45.91824" lon="6.48783">
        <ele>1560</ele>
        <time>2014-02-12T07:40:21.000Z</time>
      </trkpt>
      <trkpt lat="45.91823" lon="6.48783">
        <ele>1560.4000244141</ele>
        <time>2014-02-12T07:40:22.000Z</time>
      </trkpt>
      <trkpt lat="45.91823" lon="6.48783">
        <ele>1560.4000244141</ele>
        <time>2014-02-12T07:40:23.000Z</time>
      </trkpt>
      <trkpt lat="45.91823" lon="6.48783">
        <ele>1560.4000244141</ele>
        <time>2014-02-12T07:40:24.000Z</time>
      </trkpt>
      <trkpt lat="45.91823" lon="6.48783">
        <ele>1560.4000244141</ele>
        <time>2014-02-12T07:40:25.000Z</time>
      </trkpt>
      <trkpt lat="45.91823" lon="6.48783">
        <ele>1560.4000244141</ele>
        <time>2014-02-12T07:40:26.000Z</time>
      </trkpt>
      <trkpt lat="45.91822" lon="6.48782">
        <ele>1560.4000244141</ele>
        <time>2014-02-12T07:40:27.000Z</time>
      </trkpt>
      <trkpt lat="45.91821" lon="6.48781">
        <ele>1560.4000244141</ele>
        <time>2014-02-12T07:40:28.000Z</time>
      </trkpt>
      <trkpt lat="45.91821" lon="6.48781">
        <ele>1560.4000244141</ele>
        <time>2014-02-12T07:40:29.000Z</time>
      </trkpt>
      <trkpt lat="45.91821" lon="6.4878">
        <ele>1560.1999511719</ele>
        <time>2014-02-12T07:40:30.000Z</time>
      </trkpt>
      <trkpt lat="45.9182" lon="6.4878">
        <ele>1560.1999511719</ele>
        <time>2014-02-12T07:40:31.000Z</time>
      </trkpt>
      <trkpt lat="45.9182" lon="6.4878">
        <ele>1560.1999511719</ele>
        <time>2014-02-12T07:40:32.000Z</time>
      </trkpt>
      <trkpt lat="45.9182" lon="6.48779">
        <ele>1560.1999511719</ele>
        <time>2014-02-12T07:40:33.000Z</time>
      </trkpt>
      <trkpt lat="45.91819" lon="6.48779">
        <ele>1560.4000244141</ele>
        <time>2014-02-12T07:40:34.000Z</time>
      </trkpt>
      <trkpt lat="45.91819" lon="6.48779">
        <ele>1560.4000244141</ele>
        <time>2014-02-12T07:40:35.000Z</time>
      </trkpt>
      <trkpt lat="45.91818" lon="6.48779">
        <ele>1560.8000488281</ele>
        <time>2014-02-12T07:40:36.000Z</time>
      </trkpt>
      <trkpt lat="45.91818" lon="6.4878">
        <ele>1561</ele>
        <time>2014-02-12T07:40:37.000Z</time>
      </trkpt>
      <trkpt lat="45.91818" lon="6.4878">
        <ele>1561</ele>
        <time>2014-02-12T07:40:38.000Z</time>
      </trkpt>
      <trkpt lat="45.91817" lon="6.4878">
        <ele>1561.5999755859</ele>
        <time>2014-02-12T07:40:39.000Z</time>
      </trkpt>
      <trkpt lat="45.91817" lon="6.48781">
        <ele>1562.1999511719</ele>
        <time>2014-02-12T07:40:40.000Z</time>
      </trkpt>
      <trkpt lat="45.91816" lon="6.48782">
        <ele>1562.5999755859</ele>
        <time>2014-02-12T07:40:41.000Z</time>
      </trkpt>
      <trkpt lat="45.91816" lon="6.48781">
        <ele>1562.5999755859</ele>
        <time>2014-02-12T07:40:42.000Z</time>
      </trkpt>
      <trkpt lat="45.91816" lon="6.48781">
        <ele>1562.5999755859</ele>
        <time>2014-02-12T07:40:43.000Z</time>
      </trkpt>
      <trkpt lat="45.91816" lon="6.48781">
        <ele>1562.5999755859</ele>
        <time>2014-02-12T07:40:44.000Z</time>
      </trkpt>
      <trkpt lat="45.91816" lon="6.48781">
        <ele>1562.5999755859</ele>
        <time>2014-02-12T07:40:45.000Z</time>
      </trkpt>
      <trkpt lat="45.91816" lon="6.48781">
        <ele>1562.5999755859</ele>
        <time>2014-02-12T07:40:46.000Z</time>
      </trkpt>
      <trkpt lat="45.91816" lon="6.48781">
        <ele>1562.5999755859</ele>
        <time>2014-02-12T07:40:47.000Z</time>
      </trkpt>
      <trkpt lat="45.91816" lon="6.48781">
        <ele>1562.5999755859</ele>
        <time>2014-02-12T07:40:48.000Z</time>
      </trkpt>
      <trkpt lat="45.91816" lon="6.48781">
        <ele>1562.8000488281</ele>
        <time>2014-02-12T07:40:49.000Z</time>
      </trkpt>
      <trkpt lat="45.91816" lon="6.48782">
        <ele>1562.8000488281</ele>
        <time>2014-02-12T07:40:50.000Z</time>
      </trkpt>
      <trkpt lat="45.91816" lon="6.48782">
        <ele>1562.8000488281</ele>
        <time>2014-02-12T07:40:51.000Z</time>
      </trkpt>
      <trkpt lat="45.91816" lon="6.48782">
        <ele>1562.8000488281</ele>
        <time>2014-02-12T07:40:52.000Z</time>
      </trkpt>
      <trkpt lat="45.91817" lon="6.48783">
        <ele>1562.8000488281</ele>
        <time>2014-02-12T07:40:53.000Z</time>
      </trkpt>
      <trkpt lat="45.91817" lon="6.48784">
        <ele>1563</ele>
        <time>2014-02-12T07:40:54.000Z</time>
      </trkpt>
      <trkpt lat="45.91818" lon="6.48784">
        <ele>1563</ele>
        <time>2014-02-12T07:40:55.000Z</time>
      </trkpt>
      <trkpt lat="45.91818" lon="6.48785">
        <ele>1563.4000244141</ele>
        <time>2014-02-12T07:40:56.000Z</time>
      </trkpt>
      <trkpt lat="45.91818" lon="6.48785">
        <ele>1563.8000488281</ele>
        <time>2014-02-12T07:40:57.000Z</time>
      </trkpt>
      <trkpt lat="45.91818" lon="6.48786">
        <ele>1563.8000488281</ele>
        <time>2014-02-12T07:40:58.000Z</time>
      </trkpt>
      <trkpt lat="45.91818" lon="6.48786">
        <ele>1563.8000488281</ele>
        <time>2014-02-12T07:40:59.000Z</time>
      </trkpt>
      <trkpt lat="45.91818" lon="6.48786">
        <ele>1563.8000488281</ele>
        <time>2014-02-12T07:41:00.000Z</time>
      </trkpt>
      <trkpt lat="45.91819" lon="6.48787">
        <ele>1563.8000488281</ele>
        <time>2014-02-12T07:41:01.000Z</time>
      </trkpt>
      <trkpt lat="45.91819" lon="6.48787">
        <ele>1563.8000488281</ele>
        <time>2014-02-12T07:41:02.000Z</time>
      </trkpt>
      <trkpt lat="45.91819" lon="6.48787">
        <ele>1564</ele>
        <time>2014-02-12T07:41:03.000Z</time>
      </trkpt>
      <trkpt lat="45.9182" lon="6.48788">
        <ele>1564.1999511719</ele>
        <time>2014-02-12T07:41:04.000Z</time>
      </trkpt>
      <trkpt lat="45.9182" lon="6.48789">
        <ele>1564.5999755859</ele>
        <time>2014-02-12T07:41:05.000Z</time>
      </trkpt>
      <trkpt lat="45.91821" lon="6.48791">
        <ele>1565</ele>
        <time>2014-02-12T07:41:06.000Z</time>
      </trkpt>
      <trkpt lat="45.91821" lon="6.48792">
        <ele>1565.1999511719</ele>
        <time>2014-02-12T07:41:07.000Z</time>
      </trkpt>
      <trkpt lat="45.91821" lon="6.48792">
        <ele>1565.5999755859</ele>
        <time>2014-02-12T07:41:08.000Z</time>
      </trkpt>
      <trkpt lat="45.91821" lon="6.48792">
        <ele>1565.5999755859</ele>
        <time>2014-02-12T07:41:09.000Z</time>
      </trkpt>
      <trkpt lat="45.91821" lon="6.48793">
        <ele>1565.8000488281</ele>
        <time>2014-02-12T07:41:10.000Z</time>
      </trkpt>
      <trkpt lat="45.91821" lon="6.48793">
        <ele>1566</ele>
        <time>2014-02-12T07:41:11.000Z</time>
      </trkpt>
      <trkpt lat="45.91821" lon="6.48794">
        <ele>1566.1999511719</ele>
        <time>2014-02-12T07:41:12.000Z</time>
      </trkpt>
      <trkpt lat="45.91822" lon="6.48795">
        <ele>1566.4000244141</ele>
        <time>2014-02-12T07:41:13.000Z</time>
      </trkpt>
      <trkpt lat="45.91823" lon="6.48796">
        <ele>1566.5999755859</ele>
        <time>2014-02-12T07:41:14.000Z</time>
      </trkpt>
      <trkpt lat="45.91824" lon="6.48797">
        <ele>1566.5999755859</ele>
        <time>2014-02-12T07:41:15.000Z</time>
      </trkpt>
      <trkpt lat="45.91824" lon="6.48797">
        <ele>1566.5999755859</ele>
        <time>2014-02-12T07:41:16.000Z</time>
      </trkpt>
      <trkpt lat="45.91825" lon="6.48798">
        <ele>1566.5999755859</ele>
        <time>2014-02-12T07:41:17.000Z</time>
      </trkpt>
      <trkpt lat="45.91825" lon="6.48798">
        <ele>1566.5999755859</ele>
        <time>2014-02-12T07:41:18.000Z</time>
      </trkpt>
      <trkpt lat="45.91826" lon="6.48799">
        <ele>1566.8000488281</ele>
        <time>2014-02-12T07:41:19.000Z</time>
      </trkpt>
      <trkpt lat="45.91826" lon="6.48799">
        <ele>1567</ele>
        <time>2014-02-12T07:41:20.000Z</time>
      </trkpt>
      <trkpt lat="45.91826" lon="6.488">
        <ele>1567.4000244141</ele>
        <time>2014-02-12T07:41:21.000Z</time>
      </trkpt>
      <trkpt lat="45.91826" lon="6.48801">
        <ele>1567.5999755859</ele>
        <time>2014-02-12T07:41:22.000Z</time>
      </trkpt>
      <trkpt lat="45.91826" lon="6.48801">
        <ele>1568</ele>
        <time>2014-02-12T07:41:23.000Z</time>
      </trkpt>
      <trkpt lat="45.91826" lon="6.48801">
        <ele>1568</ele>
        <time>2014-02-12T07:41:24.000Z</time>
      </trkpt>
      <trkpt lat="45.91826" lon="6.48801">
        <ele>1568</ele>
        <time>2014-02-12T07:41:25.000Z</time>
      </trkpt>
      <trkpt lat="45.91825" lon="6.48801">
        <ele>1568</ele>
        <time>2014-02-12T07:41:26.000Z</time>
      </trkpt>
      <trkpt lat="45.91824" lon="6.48801">
        <ele>1568</ele>
        <time>2014-02-12T07:41:27.000Z</time>
      </trkpt>
      <trkpt lat="45.91824" lon="6.488">
        <ele>1568</ele>
        <time>2014-02-12T07:41:28.000Z</time>
      </trkpt>
      <trkpt lat="45.91824" lon="6.488">
        <ele>1568</ele>
        <time>2014-02-12T07:41:29.000Z</time>
      </trkpt>
      <trkpt lat="45.91824" lon="6.488">
        <ele>1568</ele>
        <time>2014-02-12T07:41:30.000Z</time>
      </trkpt>
      <trkpt lat="45.91824" lon="6.488">
        <ele>1568</ele>
        <time>2014-02-12T07:41:31.000Z</time>
      </trkpt>
      <trkpt lat="45.91824" lon="6.488">
        <ele>1568</ele>
        <time>2014-02-12T07:41:32.000Z</time>
      </trkpt>
      <trkpt lat="45.91824" lon="6.488">
        <ele>1568</ele>
        <time>2014-02-12T07:41:33.000Z</time>
      </trkpt>
      <trkpt lat="45.91824" lon="6.488">
        <ele>1568</ele>
        <time>2014-02-12T07:41:34.000Z</time>
      </trkpt>
      <trkpt lat="45.91824" lon="6.488">
        <ele>1568</ele>
        <time>2014-02-12T07:41:35.000Z</time>
      </trkpt>
      <trkpt lat="45.91824" lon="6.488">
        <ele>1568</ele>
        <time>2014-02-12T07:41:36.000Z</time>
      </trkpt>
      <trkpt lat="45.91824" lon="6.488">
        <ele>1568</ele>
        <time>2014-02-12T07:41:37.000Z</time>
      </trkpt>
      <trkpt lat="45.91824" lon="6.488">
        <ele>1568</ele>
        <time>2014-02-12T07:41:38.000Z</time>
      </trkpt>
      <trkpt lat="45.91824" lon="6.488">
        <ele>1568</ele>
        <time>2014-02-12T07:41:39.000Z</time>
      </trkpt>
      <trkpt lat="45.91824" lon="6.488">
        <ele>1568</ele>
        <time>2014-02-12T07:41:40.000Z</time>
      </trkpt>
      <trkpt lat="45.91824" lon="6.488">
        <ele>1568</ele>
        <time>2014-02-12T07:41:41.000Z</time>
      </trkpt>
      <trkpt lat="45.91824" lon="6.488">
        <ele>1568</ele>
        <time>2014-02-12T07:41:42.000Z</time>
      </trkpt>
      <trkpt lat="45.91824" lon="6.488">
        <ele>1568</ele>
        <time>2014-02-12T07:41:43.000Z</time>
      </trkpt>
      <trkpt lat="45.91823" lon="6.488">
        <ele>1568.4000244141</ele>
        <time>2014-02-12T07:41:44.000Z</time>
      </trkpt>
      <trkpt lat="45.91823" lon="6.488">
        <ele>1568.4000244141</ele>
        <time>2014-02-12T07:41:45.000Z</time>
      </trkpt>
      <trkpt lat="45.91822" lon="6.488">
        <ele>1568.8000488281</ele>
        <time>2014-02-12T07:41:46.000Z</time>
      </trkpt>
      <trkpt lat="45.91822" lon="6.488">
        <ele>1569</ele>
        <time>2014-02-12T07:41:47.000Z</time>
      </trkpt>
      <trkpt lat="45.91821" lon="6.488">
        <ele>1569.1999511719</ele>
        <time>2014-02-12T07:41:48.000Z</time>
      </trkpt>
      <trkpt lat="45.9182" lon="6.488">
        <ele>1569.4000244141</ele>
        <time>2014-02-12T07:41:49.000Z</time>
      </trkpt>
      <trkpt lat="45.9182" lon="6.488">
        <ele>1569.4000244141</ele>
        <time>2014-02-12T07:41:50.000Z</time>
      </trkpt>
      <trkpt lat="45.91819" lon="6.488">
        <ele>1569.5999755859</ele>
        <time>2014-02-12T07:41:51.000Z</time>
      </trkpt>
      <trkpt lat="45.91819" lon="6.488">
        <ele>1570</ele>
        <time>2014-02-12T07:41:52.000Z</time>
      </trkpt>
      <trkpt lat="45.91818" lon="6.488">
        <ele>1570</ele>
        <time>2014-02-12T07:41:53.000Z</time>
      </trkpt>
      <trkpt lat="45.91818" lon="6.488">
        <ele>1570.1999511719</ele>
        <time>2014-02-12T07:41:54.000Z</time>
      </trkpt>
      <trkpt lat="45.91818" lon="6.488">
        <ele>1570.4000244141</ele>
        <time>2014-02-12T07:41:55.000Z</time>
      </trkpt>
      <trkpt lat="45.91817" lon="6.488">
        <ele>1570.4000244141</ele>
        <time>2014-02-12T07:41:56.000Z</time>
      </trkpt>
      <trkpt lat="45.91817" lon="6.48799">
        <ele>1570.4000244141</ele>
        <time>2014-02-12T07:41:57.000Z</time>
      </trkpt>
      <trkpt lat="45.91816" lon="6.48798">
        <ele>1570.4000244141</ele>
        <time>2014-02-12T07:41:58.000Z</time>
      </trkpt>
      <trkpt lat="45.91815" lon="6.48798">
        <ele>1570.4000244141</ele>
        <time>2014-02-12T07:41:59.000Z</time>
      </trkpt>
      <trkpt lat="45.91815" lon="6.48798">
        <ele>1570.5999755859</ele>
        <time>2014-02-12T07:42:00.000Z</time>
      </trkpt>
      <trkpt lat="45.91814" lon="6.48798">
        <ele>1570.8000488281</ele>
        <time>2014-02-12T07:42:01.000Z</time>
      </trkpt>
      <trkpt lat="45.91814" lon="6.48798">
        <ele>1570.8000488281</ele>
        <time>2014-02-12T07:42:02.000Z</time>
      </trkpt>
      <trkpt lat="45.91814" lon="6.48798">
        <ele>1571</ele>
        <time>2014-02-12T07:42:03.000Z</time>
      </trkpt>
      <trkpt lat="45.91813" lon="6.48798">
        <ele>1571</ele>
        <time>2014-02-12T07:42:04.000Z</time>
      </trkpt>
      <trkpt lat="45.91813" lon="6.48798">
        <ele>1571</ele>
        <time>2014-02-12T07:42:05.000Z</time>
      </trkpt>
      <trkpt lat="45.91813" lon="6.48797">
        <ele>1571</ele>
        <time>2014-02-12T07:42:06.000Z</time>
      </trkpt>
      <trkpt lat="45.91812" lon="6.48796">
        <ele>1571</ele>
        <time>2014-02-12T07:42:07.000Z</time>
      </trkpt>
      <trkpt lat="45.91811" lon="6.48796">
        <ele>1571.1999511719</ele>
        <time>2014-02-12T07:42:08.000Z</time>
      </trkpt>
      <trkpt lat="45.9181" lon="6.48796">
        <ele>1571.4000244141</ele>
        <time>2014-02-12T07:42:09.000Z</time>
      </trkpt>
      <trkpt lat="45.91809" lon="6.48796">
        <ele>1571.8000488281</ele>
        <time>2014-02-12T07:42:10.000Z</time>
      </trkpt>
      <trkpt lat="45.91809" lon="6.48796">
        <ele>1571.8000488281</ele>
        <time>2014-02-12T07:42:11.000Z</time>
      </trkpt>
      <trkpt lat="45.91808" lon="6.48795">
        <ele>1571.8000488281</ele>
        <time>2014-02-12T07:42:12.000Z</time>
      </trkpt>
      <trkpt lat="45.91808" lon="6.48795">
        <ele>1571.8000488281</ele>
        <time>2014-02-12T07:42:13.000Z</time>
      </trkpt>
      <trkpt lat="45.91807" lon="6.48795">
        <ele>1572</ele>
        <time>2014-02-12T07:42:14.000Z</time>
      </trkpt>
      <trkpt lat="45.91807" lon="6.48795">
        <ele>1572</ele>
        <time>2014-02-12T07:42:15.000Z</time>
      </trkpt>
      <trkpt lat="45.91806" lon="6.48795">
        <ele>1572</ele>
        <time>2014-02-12T07:42:16.000Z</time>
      </trkpt>
      <trkpt lat="45.91806" lon="6.48794">
        <ele>1572</ele>
        <time>2014-02-12T07:42:17.000Z</time>
      </trkpt>
      <trkpt lat="45.91805" lon="6.48794">
        <ele>1572</ele>
        <time>2014-02-12T07:42:18.000Z</time>
      </trkpt>
      <trkpt lat="45.91805" lon="6.48794">
        <ele>1572</ele>
        <time>2014-02-12T07:42:19.000Z</time>
      </trkpt>
      <trkpt lat="45.91805" lon="6.48794">
        <ele>1572</ele>
        <time>2014-02-12T07:42:20.000Z</time>
      </trkpt>
      <trkpt lat="45.91805" lon="6.48794">
        <ele>1572</ele>
        <time>2014-02-12T07:42:21.000Z</time>
      </trkpt>
      <trkpt lat="45.91805" lon="6.48794">
        <ele>1572</ele>
        <time>2014-02-12T07:42:22.000Z</time>
      </trkpt>
      <trkpt lat="45.91805" lon="6.48794">
        <ele>1572</ele>
        <time>2014-02-12T07:42:23.000Z</time>
      </trkpt>
      <trkpt lat="45.91805" lon="6.48794">
        <ele>1572</ele>
        <time>2014-02-12T07:42:24.000Z</time>
      </trkpt>
      <trkpt lat="45.91805" lon="6.48794">
        <ele>1572</ele>
        <time>2014-02-12T07:42:25.000Z</time>
      </trkpt>
      <trkpt lat="45.91805" lon="6.48794">
        <ele>1572</ele>
        <time>2014-02-12T07:42:26.000Z</time>
      </trkpt>
      <trkpt lat="45.91805" lon="6.48794">
        <ele>1572</ele>
        <time>2014-02-12T07:42:27.000Z</time>
      </trkpt>
      <trkpt lat="45.91805" lon="6.48794">
        <ele>1572</ele>
        <time>2014-02-12T07:42:28.000Z</time>
      </trkpt>
      <trkpt lat="45.91805" lon="6.48794">
        <ele>1572</ele>
        <time>2014-02-12T07:42:29.000Z</time>
      </trkpt>
      <trkpt lat="45.91805" lon="6.48794">
        <ele>1572</ele>
        <time>2014-02-12T07:42:30.000Z</time>
      </trkpt>
      <trkpt lat="45.91805" lon="6.48794">
        <ele>1572</ele>
        <time>2014-02-12T07:42:31.000Z</time>
      </trkpt>
      <trkpt lat="45.91805" lon="6.48794">
        <ele>1572</ele>
        <time>2014-02-12T07:42:32.000Z</time>
      </trkpt>
      <trkpt lat="45.91805" lon="6.48794">
        <ele>1572</ele>
        <time>2014-02-12T07:42:33.000Z</time>
      </trkpt>
      <trkpt lat="45.91807" lon="6.48797">
        <ele>1573.1999511719</ele>
        <time>2014-02-12T07:42:34.000Z</time>
      </trkpt>
      <trkpt lat="45.91808" lon="6.48799">
        <ele>1573.5999755859</ele>
        <time>2014-02-12T07:42:36.000Z</time>
      </trkpt>
      <trkpt lat="45.91808" lon="6.488">
        <ele>1574</ele>
        <time>2014-02-12T07:42:37.000Z</time>
      </trkpt>
      <trkpt lat="45.91809" lon="6.48801">
        <ele>1574.4000244141</ele>
        <time>2014-02-12T07:42:38.000Z</time>
      </trkpt>
      <trkpt lat="45.91809" lon="6.48802">
        <ele>1574.5999755859</ele>
        <time>2014-02-12T07:42:39.000Z</time>
      </trkpt>
      <trkpt lat="45.91809" lon="6.48803">
        <ele>1575</ele>
        <time>2014-02-12T07:42:40.000Z</time>
      </trkpt>
      <trkpt lat="45.91809" lon="6.48804">
        <ele>1575.4000244141</ele>
        <time>2014-02-12T07:42:41.000Z</time>
      </trkpt>
      <trkpt lat="45.9181" lon="6.48805">
        <ele>1575.5999755859</ele>
        <time>2014-02-12T07:42:42.000Z</time>
      </trkpt>
      <trkpt lat="45.9181" lon="6.48806">
        <ele>1576</ele>
        <time>2014-02-12T07:42:43.000Z</time>
      </trkpt>
      <trkpt lat="45.9181" lon="6.48807">
        <ele>1576.1999511719</ele>
        <time>2014-02-12T07:42:44.000Z</time>
      </trkpt>
      <trkpt lat="45.91811" lon="6.48807">
        <ele>1576.4000244141</ele>
        <time>2014-02-12T07:42:45.000Z</time>
      </trkpt>
      <trkpt lat="45.9181" lon="6.48808">
        <ele>1576.5999755859</ele>
        <time>2014-02-12T07:42:46.000Z</time>
      </trkpt>
      <trkpt lat="45.91811" lon="6.48808">
        <ele>1576.8000488281</ele>
        <time>2014-02-12T07:42:47.000Z</time>
      </trkpt>
      <trkpt lat="45.91811" lon="6.48809">
        <ele>1577</ele>
        <time>2014-02-12T07:42:48.000Z</time>
      </trkpt>
      <trkpt lat="45.91811" lon="6.4881">
        <ele>1577.1999511719</ele>
        <time>2014-02-12T07:42:49.000Z</time>
      </trkpt>
      <trkpt lat="45.91812" lon="6.4881">
        <ele>1577.1999511719</ele>
        <time>2014-02-12T07:42:50.000Z</time>
      </trkpt>
      <trkpt lat="45.91812" lon="6.4881">
        <ele>1577.1999511719</ele>
        <time>2014-02-12T07:42:51.000Z</time>
      </trkpt>
      <trkpt lat="45.91813" lon="6.4881">
        <ele>1576.8000488281</ele>
        <time>2014-02-12T07:42:52.000Z</time>
      </trkpt>
      <trkpt lat="45.91813" lon="6.4881">
        <ele>1576.8000488281</ele>
        <time>2014-02-12T07:42:53.000Z</time>
      </trkpt>
      <trkpt lat="45.91813" lon="6.4881">
        <ele>1576.8000488281</ele>
        <time>2014-02-12T07:42:54.000Z</time>
      </trkpt>
      <trkpt lat="45.91813" lon="6.4881">
        <ele>1576.5999755859</ele>
        <time>2014-02-12T07:42:55.000Z</time>
      </trkpt>
      <trkpt lat="45.91813" lon="6.48809">
        <ele>1576.5999755859</ele>
        <time>2014-02-12T07:42:56.000Z</time>
      </trkpt>
      <trkpt lat="45.91813" lon="6.48809">
        <ele>1576.5999755859</ele>
        <time>2014-02-12T07:42:57.000Z</time>
      </trkpt>
      <trkpt lat="45.91813" lon="6.48809">
        <ele>1576.5999755859</ele>
        <time>2014-02-12T07:42:58.000Z</time>
      </trkpt>
      <trkpt lat="45.91813" lon="6.48809">
        <ele>1576.5999755859</ele>
        <time>2014-02-12T07:42:59.000Z</time>
      </trkpt>
      <trkpt lat="45.91812" lon="6.48808">
        <ele>1576.4000244141</ele>
        <time>2014-02-12T07:43:00.000Z</time>
      </trkpt>
      <trkpt lat="45.91812" lon="6.48808">
        <ele>1576.4000244141</ele>
        <time>2014-02-12T07:43:01.000Z</time>
      </trkpt>
      <trkpt lat="45.91812" lon="6.48808">
        <ele>1576.4000244141</ele>
        <time>2014-02-12T07:43:02.000Z</time>
      </trkpt>
      <trkpt lat="45.91811" lon="6.48808">
        <ele>1576.5999755859</ele>
        <time>2014-02-12T07:43:03.000Z</time>
      </trkpt>
      <trkpt lat="45.9181" lon="6.48807">
        <ele>1576.5999755859</ele>
        <time>2014-02-12T07:43:04.000Z</time>
      </trkpt>
      <trkpt lat="45.9181" lon="6.48807">
        <ele>1576.5999755859</ele>
        <time>2014-02-12T07:43:05.000Z</time>
      </trkpt>
      <trkpt lat="45.91809" lon="6.48807">
        <ele>1576.8000488281</ele>
        <time>2014-02-12T07:43:06.000Z</time>
      </trkpt>
      <trkpt lat="45.91809" lon="6.48807">
        <ele>1576.8000488281</ele>
        <time>2014-02-12T07:43:07.000Z</time>
      </trkpt>
      <trkpt lat="45.91808" lon="6.48806">
        <ele>1576.8000488281</ele>
        <time>2014-02-12T07:43:08.000Z</time>
      </trkpt>
      <trkpt lat="45.91807" lon="6.48806">
        <ele>1577</ele>
        <time>2014-02-12T07:43:09.000Z</time>
      </trkpt>
      <trkpt lat="45.91807" lon="6.48805">
        <ele>1577</ele>
        <time>2014-02-12T07:43:10.000Z</time>
      </trkpt>
      <trkpt lat="45.91806" lon="6.48805">
        <ele>1576.8000488281</ele>
        <time>2014-02-12T07:43:11.000Z</time>
      </trkpt>
      <trkpt lat="45.91806" lon="6.48805">
        <ele>1576.8000488281</ele>
        <time>2014-02-12T07:43:12.000Z</time>
      </trkpt>
      <trkpt lat="45.91805" lon="6.48804">
        <ele>1576.5999755859</ele>
        <time>2014-02-12T07:43:13.000Z</time>
      </trkpt>
      <trkpt lat="45.91805" lon="6.48804">
        <ele>1576.5999755859</ele>
        <time>2014-02-12T07:43:14.000Z</time>
      </trkpt>
      <trkpt lat="45.91805" lon="6.48804">
        <ele>1576.5999755859</ele>
        <time>2014-02-12T07:43:15.000Z</time>
      </trkpt>
      <trkpt lat="45.91805" lon="6.48804">
        <ele>1576.5999755859</ele>
        <time>2014-02-12T07:43:16.000Z</time>
      </trkpt>
      <trkpt lat="45.91805" lon="6.48804">
        <ele>1576.5999755859</ele>
        <time>2014-02-12T07:43:17.000Z</time>
      </trkpt>
      <trkpt lat="45.91804" lon="6.48804">
        <ele>1576.5999755859</ele>
        <time>2014-02-12T07:43:18.000Z</time>
      </trkpt>
      <trkpt lat="45.91803" lon="6.48803">
        <ele>1576.4000244141</ele>
        <time>2014-02-12T07:43:19.000Z</time>
      </trkpt>
      <trkpt lat="45.91803" lon="6.48803">
        <ele>1576.4000244141</ele>
        <time>2014-02-12T07:43:20.000Z</time>
      </trkpt>
      <trkpt lat="45.91802" lon="6.48802">
        <ele>1576.1999511719</ele>
        <time>2014-02-12T07:43:21.000Z</time>
      </trkpt>
      <trkpt lat="45.91801" lon="6.48802">
        <ele>1576</ele>
        <time>2014-02-12T07:43:22.000Z</time>
      </trkpt>
      <trkpt lat="45.91801" lon="6.48802">
        <ele>1576</ele>
        <time>2014-02-12T07:43:23.000Z</time>
      </trkpt>
      <trkpt lat="45.918" lon="6.48801">
        <ele>1575.8000488281</ele>
        <time>2014-02-12T07:43:24.000Z</time>
      </trkpt>
      <trkpt lat="45.91799" lon="6.48801">
        <ele>1575.8000488281</ele>
        <time>2014-02-12T07:43:25.000Z</time>
      </trkpt>
      <trkpt lat="45.91799" lon="6.488">
        <ele>1575.8000488281</ele>
        <time>2014-02-12T07:43:26.000Z</time>
      </trkpt>
      <trkpt lat="45.91798" lon="6.488">
        <ele>1575.8000488281</ele>
        <time>2014-02-12T07:43:27.000Z</time>
      </trkpt>
      <trkpt lat="45.91797" lon="6.488">
        <ele>1575.8000488281</ele>
        <time>2014-02-12T07:43:28.000Z</time>
      </trkpt>
      <trkpt lat="45.91796" lon="6.488">
        <ele>1575.8000488281</ele>
        <time>2014-02-12T07:43:29.000Z</time>
      </trkpt>
      <trkpt lat="45.91796" lon="6.488">
        <ele>1575.8000488281</ele>
        <time>2014-02-12T07:43:30.000Z</time>
      </trkpt>
      <trkpt lat="45.91795" lon="6.488">
        <ele>1575.8000488281</ele>
        <time>2014-02-12T07:43:31.000Z</time>
      </trkpt>
      <trkpt lat="45.91795" lon="6.48799">
        <ele>1575.8000488281</ele>
        <time>2014-02-12T07:43:32.000Z</time>
      </trkpt>
      <trkpt lat="45.91794" lon="6.48799">
        <ele>1575.4000244141</ele>
        <time>2014-02-12T07:43:33.000Z</time>
      </trkpt>
      <trkpt lat="45.91794" lon="6.48798">
        <ele>1575.1999511719</ele>
        <time>2014-02-12T07:43:34.000Z</time>
      </trkpt>
      <trkpt lat="45.91793" lon="6.48797">
        <ele>1575</ele>
        <time>2014-02-12T07:43:35.000Z</time>
      </trkpt>
      <trkpt lat="45.91793" lon="6.48797">
        <ele>1575</ele>
        <time>2014-02-12T07:43:36.000Z</time>
      </trkpt>
      <trkpt lat="45.91792" lon="6.48796">
        <ele>1574.8000488281</ele>
        <time>2014-02-12T07:43:37.000Z</time>
      </trkpt>
      <trkpt lat="45.91792" lon="6.48796">
        <ele>1574.5999755859</ele>
        <time>2014-02-12T07:43:38.000Z</time>
      </trkpt>
      <trkpt lat="45.91792" lon="6.48796">
        <ele>1574.5999755859</ele>
        <time>2014-02-12T07:43:39.000Z</time>
      </trkpt>
      <trkpt lat="45.91792" lon="6.48796">
        <ele>1574.5999755859</ele>
        <time>2014-02-12T07:43:40.000Z</time>
      </trkpt>
      <trkpt lat="45.91792" lon="6.48796">
        <ele>1574.5999755859</ele>
        <time>2014-02-12T07:43:41.000Z</time>
      </trkpt>
      <trkpt lat="45.91791" lon="6.48796">
        <ele>1574.5999755859</ele>
        <time>2014-02-12T07:43:42.000Z</time>
      </trkpt>
      <trkpt lat="45.91791" lon="6.48796">
        <ele>1574.5999755859</ele>
        <time>2014-02-12T07:43:43.000Z</time>
      </trkpt>
      <trkpt lat="45.91791" lon="6.48796">
        <ele>1574.5999755859</ele>
        <time>2014-02-12T07:43:44.000Z</time>
      </trkpt>
      <trkpt lat="45.91791" lon="6.48796">
        <ele>1574.5999755859</ele>
        <time>2014-02-12T07:43:45.000Z</time>
      </trkpt>
      <trkpt lat="45.91791" lon="6.48796">
        <ele>1574.5999755859</ele>
        <time>2014-02-12T07:43:46.000Z</time>
      </trkpt>
      <trkpt lat="45.91791" lon="6.48796">
        <ele>1574.5999755859</ele>
        <time>2014-02-12T07:43:47.000Z</time>
      </trkpt>
      <trkpt lat="45.91791" lon="6.48796">
        <ele>1574.5999755859</ele>
        <time>2014-02-12T07:43:48.000Z</time>
      </trkpt>
      <trkpt lat="45.91791" lon="6.48796">
        <ele>1574.5999755859</ele>
        <time>2014-02-12T07:43:49.000Z</time>
      </trkpt>
      <trkpt lat="45.91791" lon="6.48796">
        <ele>1574.5999755859</ele>
        <time>2014-02-12T07:43:50.000Z</time>
      </trkpt>
      <trkpt lat="45.91791" lon="6.48796">
        <ele>1574.5999755859</ele>
        <time>2014-02-12T07:43:51.000Z</time>
      </trkpt>
      <trkpt lat="45.91791" lon="6.48796">
        <ele>1574.5999755859</ele>
        <time>2014-02-12T07:43:52.000Z</time>
      </trkpt>
      <trkpt lat="45.91791" lon="6.48796">
        <ele>1574.5999755859</ele>
        <time>2014-02-12T07:43:53.000Z</time>
      </trkpt>
      <trkpt lat="45.91792" lon="6.48797">
        <ele>1575</ele>
        <time>2014-02-12T07:43:54.000Z</time>
      </trkpt>
      <trkpt lat="45.91792" lon="6.48798">
        <ele>1575.4000244141</ele>
        <time>2014-02-12T07:43:55.000Z</time>
      </trkpt>
      <trkpt lat="45.91793" lon="6.48799">
        <ele>1575.8000488281</ele>
        <time>2014-02-12T07:43:56.000Z</time>
      </trkpt>
      <trkpt lat="45.91793" lon="6.488">
        <ele>1576.1999511719</ele>
        <time>2014-02-12T07:43:57.000Z</time>
      </trkpt>
      <trkpt lat="45.91794" lon="6.48801">
        <ele>1576.8000488281</ele>
        <time>2014-02-12T07:43:58.000Z</time>
      </trkpt>
      <trkpt lat="45.91794" lon="6.48802">
        <ele>1577.1999511719</ele>
        <time>2014-02-12T07:43:59.000Z</time>
      </trkpt>
      <trkpt lat="45.91794" lon="6.48803">
        <ele>1577.4000244141</ele>
        <time>2014-02-12T07:44:00.000Z</time>
      </trkpt>
      <trkpt lat="45.91794" lon="6.48803">
        <ele>1577.5999755859</ele>
        <time>2014-02-12T07:44:01.000Z</time>
      </trkpt>
      <trkpt lat="45.91794" lon="6.48804">
        <ele>1578</ele>
        <time>2014-02-12T07:44:02.000Z</time>
      </trkpt>
      <trkpt lat="45.91795" lon="6.48805">
        <ele>1578.1999511719</ele>
        <time>2014-02-12T07:44:03.000Z</time>
      </trkpt>
      <trkpt lat="45.91795" lon="6.48806">
        <ele>1578.5999755859</ele>
        <time>2014-02-12T07:44:04.000Z</time>
      </trkpt>
      <trkpt lat="45.91796" lon="6.48807">
        <ele>1578.8000488281</ele>
        <time>2014-02-12T07:44:05.000Z</time>
      </trkpt>
      <trkpt lat="45.91796" lon="6.48807">
        <ele>1579</ele>
        <time>2014-02-12T07:44:06.000Z</time>
      </trkpt>
      <trkpt lat="45.91796" lon="6.48808">
        <ele>1579.4000244141</ele>
        <time>2014-02-12T07:44:07.000Z</time>
      </trkpt>
      <trkpt lat="45.91797" lon="6.48809">
        <ele>1579.5999755859</ele>
        <time>2014-02-12T07:44:08.000Z</time>
      </trkpt>
      <trkpt lat="45.91797" lon="6.4881">
        <ele>1579.8000488281</ele>
        <time>2014-02-12T07:44:09.000Z</time>
      </trkpt>
      <trkpt lat="45.91797" lon="6.48811">
        <ele>1580.4000244141</ele>
        <time>2014-02-12T07:44:11.000Z</time>
      </trkpt>
      <trkpt lat="45.91797" lon="6.48813">
        <ele>1580.8000488281</ele>
        <time>2014-02-12T07:44:12.000Z</time>
      </trkpt>
      <trkpt lat="45.91797" lon="6.48813">
        <ele>1581</ele>
        <time>2014-02-12T07:44:13.000Z</time>
      </trkpt>
      <trkpt lat="45.91797" lon="6.48814">
        <ele>1581.4000244141</ele>
        <time>2014-02-12T07:44:14.000Z</time>
      </trkpt>
      <trkpt lat="45.91798" lon="6.48815">
        <ele>1581.5999755859</ele>
        <time>2014-02-12T07:44:15.000Z</time>
      </trkpt>
      <trkpt lat="45.91798" lon="6.48816">
        <ele>1582</ele>
        <time>2014-02-12T07:44:16.000Z</time>
      </trkpt>
      <trkpt lat="45.91798" lon="6.48817">
        <ele>1582.1999511719</ele>
        <time>2014-02-12T07:44:17.000Z</time>
      </trkpt>
      <trkpt lat="45.91799" lon="6.48817">
        <ele>1582.5999755859</ele>
        <time>2014-02-12T07:44:18.000Z</time>
      </trkpt>
      <trkpt lat="45.91799" lon="6.48818">
        <ele>1582.8000488281</ele>
        <time>2014-02-12T07:44:19.000Z</time>
      </trkpt>
      <trkpt lat="45.918" lon="6.48819">
        <ele>1583.1999511719</ele>
        <time>2014-02-12T07:44:20.000Z</time>
      </trkpt>
      <trkpt lat="45.918" lon="6.48819">
        <ele>1583.1999511719</ele>
        <time>2014-02-12T07:44:21.000Z</time>
      </trkpt>
      <trkpt lat="45.918" lon="6.48819">
        <ele>1583.1999511719</ele>
        <time>2014-02-12T07:44:22.000Z</time>
      </trkpt>
      <trkpt lat="45.918" lon="6.48819">
        <ele>1583.1999511719</ele>
        <time>2014-02-12T07:44:23.000Z</time>
      </trkpt>
      <trkpt lat="45.91801" lon="6.48819">
        <ele>1583.1999511719</ele>
        <time>2014-02-12T07:44:24.000Z</time>
      </trkpt>
      <trkpt lat="45.91801" lon="6.48819">
        <ele>1583.1999511719</ele>
        <time>2014-02-12T07:44:25.000Z</time>
      </trkpt>
      <trkpt lat="45.91801" lon="6.4882">
        <ele>1583.4000244141</ele>
        <time>2014-02-12T07:44:26.000Z</time>
      </trkpt>
      <trkpt lat="45.91801" lon="6.4882">
        <ele>1583.4000244141</ele>
        <time>2014-02-12T07:44:27.000Z</time>
      </trkpt>
      <trkpt lat="45.91801" lon="6.4882">
        <ele>1583.8000488281</ele>
        <time>2014-02-12T07:44:28.000Z</time>
      </trkpt>
      <trkpt lat="45.91801" lon="6.4882">
        <ele>1583.8000488281</ele>
        <time>2014-02-12T07:44:29.000Z</time>
      </trkpt>
      <trkpt lat="45.91801" lon="6.48821">
        <ele>1584.1999511719</ele>
        <time>2014-02-12T07:44:30.000Z</time>
      </trkpt>
      <trkpt lat="45.91802" lon="6.48822">
        <ele>1584.4000244141</ele>
        <time>2014-02-12T07:44:31.000Z</time>
      </trkpt>
      <trkpt lat="45.91802" lon="6.48823">
        <ele>1584.8000488281</ele>
        <time>2014-02-12T07:44:32.000Z</time>
      </trkpt>
      <trkpt lat="45.91802" lon="6.48823">
        <ele>1585</ele>
        <time>2014-02-12T07:44:33.000Z</time>
      </trkpt>
      <trkpt lat="45.91803" lon="6.48824">
        <ele>1585.4000244141</ele>
        <time>2014-02-12T07:44:34.000Z</time>
      </trkpt>
      <trkpt lat="45.91803" lon="6.48825">
        <ele>1585.8000488281</ele>
        <time>2014-02-12T07:44:35.000Z</time>
      </trkpt>
      <trkpt lat="45.91804" lon="6.48825">
        <ele>1586</ele>
        <time>2014-02-12T07:44:36.000Z</time>
      </trkpt>
      <trkpt lat="45.91805" lon="6.48826">
        <ele>1586.4000244141</ele>
        <time>2014-02-12T07:44:37.000Z</time>
      </trkpt>
      <trkpt lat="45.91805" lon="6.48827">
        <ele>1586.8000488281</ele>
        <time>2014-02-12T07:44:38.000Z</time>
      </trkpt>
      <trkpt lat="45.91806" lon="6.48829">
        <ele>1587.8000488281</ele>
        <time>2014-02-12T07:44:39.000Z</time>
      </trkpt>
      <trkpt lat="45.91806" lon="6.48831">
        <ele>1588.4000244141</ele>
        <time>2014-02-12T07:44:40.000Z</time>
      </trkpt>
      <trkpt lat="45.91807" lon="6.48832">
        <ele>1589</ele>
        <time>2014-02-12T07:44:41.000Z</time>
      </trkpt>
      <trkpt lat="45.91807" lon="6.48834">
        <ele>1590</ele>
        <time>2014-02-12T07:44:43.000Z</time>
      </trkpt>
      <trkpt lat="45.91807" lon="6.48835">
        <ele>1590.1999511719</ele>
        <time>2014-02-12T07:44:44.000Z</time>
      </trkpt>
      <trkpt lat="45.91808" lon="6.48836">
        <ele>1590.4000244141</ele>
        <time>2014-02-12T07:44:45.000Z</time>
      </trkpt>
      <trkpt lat="45.91808" lon="6.48836">
        <ele>1590.4000244141</ele>
        <time>2014-02-12T07:44:46.000Z</time>
      </trkpt>
      <trkpt lat="45.91809" lon="6.48837">
        <ele>1590.4000244141</ele>
        <time>2014-02-12T07:44:47.000Z</time>
      </trkpt>
      <trkpt lat="45.91809" lon="6.48837">
        <ele>1590.5999755859</ele>
        <time>2014-02-12T07:44:48.000Z</time>
      </trkpt>
      <trkpt lat="45.91809" lon="6.48837">
        <ele>1590.5999755859</ele>
        <time>2014-02-12T07:44:49.000Z</time>
      </trkpt>
      <trkpt lat="45.91809" lon="6.48837">
        <ele>1590.5999755859</ele>
        <time>2014-02-12T07:44:50.000Z</time>
      </trkpt>
      <trkpt lat="45.91809" lon="6.48837">
        <ele>1590.5999755859</ele>
        <time>2014-02-12T07:44:51.000Z</time>
      </trkpt>
      <trkpt lat="45.91809" lon="6.48838">
        <ele>1590.5999755859</ele>
        <time>2014-02-12T07:44:52.000Z</time>
      </trkpt>
      <trkpt lat="45.91809" lon="6.48838">
        <ele>1590.5999755859</ele>
        <time>2014-02-12T07:44:53.000Z</time>
      </trkpt>
      <trkpt lat="45.9181" lon="6.48838">
        <ele>1590.5999755859</ele>
        <time>2014-02-12T07:44:54.000Z</time>
      </trkpt>
      <trkpt lat="45.9181" lon="6.48838">
        <ele>1590.5999755859</ele>
        <time>2014-02-12T07:44:55.000Z</time>
      </trkpt>
      <trkpt lat="45.9181" lon="6.48838">
        <ele>1590.5999755859</ele>
        <time>2014-02-12T07:44:56.000Z</time>
      </trkpt>
      <trkpt lat="45.9181" lon="6.48839">
        <ele>1590.5999755859</ele>
        <time>2014-02-12T07:44:57.000Z</time>
      </trkpt>
      <trkpt lat="45.9181" lon="6.4884">
        <ele>1590.8000488281</ele>
        <time>2014-02-12T07:44:58.000Z</time>
      </trkpt>
      <trkpt lat="45.91811" lon="6.4884">
        <ele>1590.5999755859</ele>
        <time>2014-02-12T07:44:59.000Z</time>
      </trkpt>
      <trkpt lat="45.91811" lon="6.4884">
        <ele>1590.5999755859</ele>
        <time>2014-02-12T07:45:00.000Z</time>
      </trkpt>
      <trkpt lat="45.91811" lon="6.4884">
        <ele>1590.5999755859</ele>
        <time>2014-02-12T07:45:01.000Z</time>
      </trkpt>
      <trkpt lat="45.91811" lon="6.4884">
        <ele>1590.5999755859</ele>
        <time>2014-02-12T07:45:02.000Z</time>
      </trkpt>
      <trkpt lat="45.91811" lon="6.4884">
        <ele>1590.5999755859</ele>
        <time>2014-02-12T07:45:03.000Z</time>
      </trkpt>
      <trkpt lat="45.91811" lon="6.4884">
        <ele>1590.5999755859</ele>
        <time>2014-02-12T07:45:04.000Z</time>
      </trkpt>
      <trkpt lat="45.91811" lon="6.4884">
        <ele>1590.5999755859</ele>
        <time>2014-02-12T07:45:05.000Z</time>
      </trkpt>
      <trkpt lat="45.91811" lon="6.4884">
        <ele>1590.5999755859</ele>
        <time>2014-02-12T07:45:06.000Z</time>
      </trkpt>
      <trkpt lat="45.91811" lon="6.4884">
        <ele>1590.5999755859</ele>
        <time>2014-02-12T07:45:07.000Z</time>
      </trkpt>
      <trkpt lat="45.91811" lon="6.4884">
        <ele>1590.5999755859</ele>
        <time>2014-02-12T07:45:08.000Z</time>
      </trkpt>
      <trkpt lat="45.91811" lon="6.4884">
        <ele>1590.5999755859</ele>
        <time>2014-02-12T07:45:09.000Z</time>
      </trkpt>
      <trkpt lat="45.91811" lon="6.4884">
        <ele>1590.5999755859</ele>
        <time>2014-02-12T07:45:11.000Z</time>
      </trkpt>
      <trkpt lat="45.91811" lon="6.4884">
        <ele>1590.5999755859</ele>
        <time>2014-02-12T07:45:12.000Z</time>
      </trkpt>
      <trkpt lat="45.91811" lon="6.4884">
        <ele>1590.5999755859</ele>
        <time>2014-02-12T07:45:13.000Z</time>
      </trkpt>
      <trkpt lat="45.91811" lon="6.4884">
        <ele>1590.5999755859</ele>
        <time>2014-02-12T07:45:14.000Z</time>
      </trkpt>
      <trkpt lat="45.91811" lon="6.4884">
        <ele>1590.5999755859</ele>
        <time>2014-02-12T07:45:15.000Z</time>
      </trkpt>
      <trkpt lat="45.91811" lon="6.4884">
        <ele>1590.5999755859</ele>
        <time>2014-02-12T07:45:16.000Z</time>
      </trkpt>
      <trkpt lat="45.91811" lon="6.4884">
        <ele>1590.5999755859</ele>
        <time>2014-02-12T07:45:17.000Z</time>
      </trkpt>
      <trkpt lat="45.91811" lon="6.4884">
        <ele>1590.5999755859</ele>
        <time>2014-02-12T07:45:18.000Z</time>
      </trkpt>
      <trkpt lat="45.91811" lon="6.48841">
        <ele>1590.8000488281</ele>
        <time>2014-02-12T07:45:20.000Z</time>
      </trkpt>
      <trkpt lat="45.91811" lon="6.48841">
        <ele>1590.8000488281</ele>
        <time>2014-02-12T07:45:21.000Z</time>
      </trkpt>
      <trkpt lat="45.91811" lon="6.48841">
        <ele>1590.8000488281</ele>
        <time>2014-02-12T07:45:23.000Z</time>
      </trkpt>
      <trkpt lat="45.91811" lon="6.48841">
        <ele>1590.8000488281</ele>
        <time>2014-02-12T07:45:25.000Z</time>
      </trkpt>
      <trkpt lat="45.91811" lon="6.48841">
        <ele>1590.8000488281</ele>
        <time>2014-02-12T07:45:26.000Z</time>
      </trkpt>
      <trkpt lat="45.91811" lon="6.48842">
        <ele>1591.1999511719</ele>
        <time>2014-02-12T07:45:27.000Z</time>
      </trkpt>
      <trkpt lat="45.91811" lon="6.48842">
        <ele>1591.4000244141</ele>
        <time>2014-02-12T07:45:28.000Z</time>
      </trkpt>
      <trkpt lat="45.91811" lon="6.48844">
        <ele>1592</ele>
        <time>2014-02-12T07:45:29.000Z</time>
      </trkpt>
      <trkpt lat="45.91811" lon="6.48844">
        <ele>1592.4000244141</ele>
        <time>2014-02-12T07:45:30.000Z</time>
      </trkpt>
      <trkpt lat="45.91811" lon="6.48844">
        <ele>1592.4000244141</ele>
        <time>2014-02-12T07:45:31.000Z</time>
      </trkpt>
      <trkpt lat="45.91811" lon="6.48845">
        <ele>1592.8000488281</ele>
        <time>2014-02-12T07:45:32.000Z</time>
      </trkpt>
      <trkpt lat="45.9181" lon="6.48845">
        <ele>1593.4000244141</ele>
        <time>2014-02-12T07:45:33.000Z</time>
      </trkpt>
      <trkpt lat="45.91809" lon="6.48845">
        <ele>1594</ele>
        <time>2014-02-12T07:45:34.000Z</time>
      </trkpt>
      <trkpt lat="45.91808" lon="6.48845">
        <ele>1594.4000244141</ele>
        <time>2014-02-12T07:45:35.000Z</time>
      </trkpt>
      <trkpt lat="45.91807" lon="6.48845">
        <ele>1595</ele>
        <time>2014-02-12T07:45:36.000Z</time>
      </trkpt>
      <trkpt lat="45.91807" lon="6.48845">
        <ele>1595.1999511719</ele>
        <time>2014-02-12T07:45:37.000Z</time>
      </trkpt>
      <trkpt lat="45.91807" lon="6.48845">
        <ele>1595.1999511719</ele>
        <time>2014-02-12T07:45:38.000Z</time>
      </trkpt>
      <trkpt lat="45.91806" lon="6.48845">
        <ele>1595</ele>
        <time>2014-02-12T07:45:39.000Z</time>
      </trkpt>
      <trkpt lat="45.91806" lon="6.48845">
        <ele>1595</ele>
        <time>2014-02-12T07:45:40.000Z</time>
      </trkpt>
      <trkpt lat="45.91806" lon="6.48845">
        <ele>1595</ele>
        <time>2014-02-12T07:45:41.000Z</time>
      </trkpt>
      <trkpt lat="45.91806" lon="6.48845">
        <ele>1595.1999511719</ele>
        <time>2014-02-12T07:45:42.000Z</time>
      </trkpt>
      <trkpt lat="45.91806" lon="6.48845">
        <ele>1595</ele>
        <time>2014-02-12T07:45:43.000Z</time>
      </trkpt>
      <trkpt lat="45.91805" lon="6.48845">
        <ele>1595</ele>
        <time>2014-02-12T07:45:44.000Z</time>
      </trkpt>
      <trkpt lat="45.91805" lon="6.48845">
        <ele>1595</ele>
        <time>2014-02-12T07:45:45.000Z</time>
      </trkpt>
      <trkpt lat="45.91805" lon="6.48845">
        <ele>1595</ele>
        <time>2014-02-12T07:45:46.000Z</time>
      </trkpt>
      <trkpt lat="45.91804" lon="6.48845">
        <ele>1595</ele>
        <time>2014-02-12T07:45:47.000Z</time>
      </trkpt>
      <trkpt lat="45.91804" lon="6.48846">
        <ele>1595.4000244141</ele>
        <time>2014-02-12T07:45:48.000Z</time>
      </trkpt>
      <trkpt lat="45.91803" lon="6.48846">
        <ele>1595.1999511719</ele>
        <time>2014-02-12T07:45:49.000Z</time>
      </trkpt>
      <trkpt lat="45.91803" lon="6.48846">
        <ele>1595.4000244141</ele>
        <time>2014-02-12T07:45:50.000Z</time>
      </trkpt>
      <trkpt lat="45.91802" lon="6.48846">
        <ele>1595.4000244141</ele>
        <time>2014-02-12T07:45:51.000Z</time>
      </trkpt>
      <trkpt lat="45.91802" lon="6.48846">
        <ele>1595.4000244141</ele>
        <time>2014-02-12T07:45:52.000Z</time>
      </trkpt>
      <trkpt lat="45.91802" lon="6.48846">
        <ele>1595.4000244141</ele>
        <time>2014-02-12T07:45:53.000Z</time>
      </trkpt>
      <trkpt lat="45.91801" lon="6.48846">
        <ele>1595.4000244141</ele>
        <time>2014-02-12T07:45:54.000Z</time>
      </trkpt>
      <trkpt lat="45.91801" lon="6.48845">
        <ele>1595.1999511719</ele>
        <time>2014-02-12T07:45:55.000Z</time>
      </trkpt>
      <trkpt lat="45.918" lon="6.48845">
        <ele>1595</ele>
        <time>2014-02-12T07:45:56.000Z</time>
      </trkpt>
      <trkpt lat="45.918" lon="6.48845">
        <ele>1595</ele>
        <time>2014-02-12T07:45:57.000Z</time>
      </trkpt>
      <trkpt lat="45.91799" lon="6.48845">
        <ele>1595</ele>
        <time>2014-02-12T07:45:58.000Z</time>
      </trkpt>
      <trkpt lat="45.91799" lon="6.48845">
        <ele>1594.8000488281</ele>
        <time>2014-02-12T07:45:59.000Z</time>
      </trkpt>
      <trkpt lat="45.91799" lon="6.48845">
        <ele>1595</ele>
        <time>2014-02-12T07:46:00.000Z</time>
      </trkpt>
      <trkpt lat="45.91799" lon="6.48846">
        <ele>1595.4000244141</ele>
        <time>2014-02-12T07:46:01.000Z</time>
      </trkpt>
      <trkpt lat="45.91799" lon="6.48846">
        <ele>1595.4000244141</ele>
        <time>2014-02-12T07:46:02.000Z</time>
      </trkpt>
      <trkpt lat="45.91798" lon="6.48846">
        <ele>1595.5999755859</ele>
        <time>2014-02-12T07:46:03.000Z</time>
      </trkpt>
      <trkpt lat="45.91797" lon="6.48846">
        <ele>1595.5999755859</ele>
        <time>2014-02-12T07:46:04.000Z</time>
      </trkpt>
      <trkpt lat="45.91796" lon="6.48846">
        <ele>1595.5999755859</ele>
        <time>2014-02-12T07:46:05.000Z</time>
      </trkpt>
      <trkpt lat="45.91796" lon="6.48846">
        <ele>1595.4000244141</ele>
        <time>2014-02-12T07:46:06.000Z</time>
      </trkpt>
      <trkpt lat="45.91794" lon="6.48845">
        <ele>1595</ele>
        <time>2014-02-12T07:46:07.000Z</time>
      </trkpt>
      <trkpt lat="45.91793" lon="6.48844">
        <ele>1594.8000488281</ele>
        <time>2014-02-12T07:46:08.000Z</time>
      </trkpt>
      <trkpt lat="45.91793" lon="6.48844">
        <ele>1594.8000488281</ele>
        <time>2014-02-12T07:46:09.000Z</time>
      </trkpt>
      <trkpt lat="45.91792" lon="6.48844">
        <ele>1594.8000488281</ele>
        <time>2014-02-12T07:46:10.000Z</time>
      </trkpt>
      <trkpt lat="45.91792" lon="6.48844">
        <ele>1594.8000488281</ele>
        <time>2014-02-12T07:46:11.000Z</time>
      </trkpt>
      <trkpt lat="45.91791" lon="6.48844">
        <ele>1594.8000488281</ele>
        <time>2014-02-12T07:46:12.000Z</time>
      </trkpt>
      <trkpt lat="45.9179" lon="6.48844">
        <ele>1594.8000488281</ele>
        <time>2014-02-12T07:46:13.000Z</time>
      </trkpt>
      <trkpt lat="45.9179" lon="6.48844">
        <ele>1594.8000488281</ele>
        <time>2014-02-12T07:46:14.000Z</time>
      </trkpt>
      <trkpt lat="45.9179" lon="6.48845">
        <ele>1595</ele>
        <time>2014-02-12T07:46:15.000Z</time>
      </trkpt>
      <trkpt lat="45.9179" lon="6.48844">
        <ele>1595</ele>
        <time>2014-02-12T07:46:16.000Z</time>
      </trkpt>
      <trkpt lat="45.91789" lon="6.48844">
        <ele>1594.8000488281</ele>
        <time>2014-02-12T07:46:17.000Z</time>
      </trkpt>
      <trkpt lat="45.91789" lon="6.48844">
        <ele>1594.8000488281</ele>
        <time>2014-02-12T07:46:18.000Z</time>
      </trkpt>
      <trkpt lat="45.91789" lon="6.48844">
        <ele>1594.8000488281</ele>
        <time>2014-02-12T07:46:19.000Z</time>
      </trkpt>
      <trkpt lat="45.91789" lon="6.48844">
        <ele>1594.8000488281</ele>
        <time>2014-02-12T07:46:20.000Z</time>
      </trkpt>
      <trkpt lat="45.91789" lon="6.48844">
        <ele>1594.8000488281</ele>
        <time>2014-02-12T07:46:21.000Z</time>
      </trkpt>
      <trkpt lat="45.91789" lon="6.48844">
        <ele>1594.8000488281</ele>
        <time>2014-02-12T07:46:22.000Z</time>
      </trkpt>
      <trkpt lat="45.91789" lon="6.48844">
        <ele>1594.8000488281</ele>
        <time>2014-02-12T07:46:23.000Z</time>
      </trkpt>
      <trkpt lat="45.91789" lon="6.48844">
        <ele>1594.8000488281</ele>
        <time>2014-02-12T07:46:24.000Z</time>
      </trkpt>
      <trkpt lat="45.91789" lon="6.48844">
        <ele>1594.8000488281</ele>
        <time>2014-02-12T07:46:25.000Z</time>
      </trkpt>
      <trkpt lat="45.91789" lon="6.48844">
        <ele>1594.8000488281</ele>
        <time>2014-02-12T07:46:26.000Z</time>
      </trkpt>
      <trkpt lat="45.91789" lon="6.48844">
        <ele>1594.8000488281</ele>
        <time>2014-02-12T07:46:27.000Z</time>
      </trkpt>
      <trkpt lat="45.91789" lon="6.48844">
        <ele>1594.8000488281</ele>
        <time>2014-02-12T07:46:28.000Z</time>
      </trkpt>
      <trkpt lat="45.91789" lon="6.48844">
        <ele>1594.8000488281</ele>
        <time>2014-02-12T07:46:29.000Z</time>
      </trkpt>
      <trkpt lat="45.91789" lon="6.48844">
        <ele>1594.8000488281</ele>
        <time>2014-02-12T07:46:30.000Z</time>
      </trkpt>
      <trkpt lat="45.91789" lon="6.48844">
        <ele>1594.8000488281</ele>
        <time>2014-02-12T07:46:33.000Z</time>
      </trkpt>
      <trkpt lat="45.91789" lon="6.48844">
        <ele>1594.8000488281</ele>
        <time>2014-02-12T07:46:34.000Z</time>
      </trkpt>
      <trkpt lat="45.91789" lon="6.48844">
        <ele>1594.8000488281</ele>
        <time>2014-02-12T07:46:35.000Z</time>
      </trkpt>
      <trkpt lat="45.91788" lon="6.48844">
        <ele>1594.8000488281</ele>
        <time>2014-02-12T07:46:36.000Z</time>
      </trkpt>
      <trkpt lat="45.91788" lon="6.48844">
        <ele>1594.8000488281</ele>
        <time>2014-02-12T07:46:37.000Z</time>
      </trkpt>
      <trkpt lat="45.91788" lon="6.48844">
        <ele>1594.8000488281</ele>
        <time>2014-02-12T07:46:39.000Z</time>
      </trkpt>
      <trkpt lat="45.91788" lon="6.48844">
        <ele>1594.8000488281</ele>
        <time>2014-02-12T07:46:40.000Z</time>
      </trkpt>
      <trkpt lat="45.91788" lon="6.48844">
        <ele>1594.8000488281</ele>
        <time>2014-02-12T07:46:41.000Z</time>
      </trkpt>
      <trkpt lat="45.91787" lon="6.48844">
        <ele>1594.5999755859</ele>
        <time>2014-02-12T07:46:42.000Z</time>
      </trkpt>
      <trkpt lat="45.91786" lon="6.48844">
        <ele>1594.5999755859</ele>
        <time>2014-02-12T07:46:43.000Z</time>
      </trkpt>
      <trkpt lat="45.91785" lon="6.48843">
        <ele>1594.4000244141</ele>
        <time>2014-02-12T07:46:44.000Z</time>
      </trkpt>
      <trkpt lat="45.91784" lon="6.48843">
        <ele>1594.4000244141</ele>
        <time>2014-02-12T07:46:45.000Z</time>
      </trkpt>
      <trkpt lat="45.91783" lon="6.48843">
        <ele>1594.5999755859</ele>
        <time>2014-02-12T07:46:46.000Z</time>
      </trkpt>
      <trkpt lat="45.91782" lon="6.48843">
        <ele>1594.4000244141</ele>
        <time>2014-02-12T07:46:47.000Z</time>
      </trkpt>
      <trkpt lat="45.91781" lon="6.48843">
        <ele>1594.5999755859</ele>
        <time>2014-02-12T07:46:48.000Z</time>
      </trkpt>
      <trkpt lat="45.9178" lon="6.48843">
        <ele>1594.4000244141</ele>
        <time>2014-02-12T07:46:49.000Z</time>
      </trkpt>
      <trkpt lat="45.9178" lon="6.48843">
        <ele>1594.4000244141</ele>
        <time>2014-02-12T07:46:50.000Z</time>
      </trkpt>
      <trkpt lat="45.91779" lon="6.48843">
        <ele>1594.1999511719</ele>
        <time>2014-02-12T07:46:51.000Z</time>
      </trkpt>
      <trkpt lat="45.91778" lon="6.48842">
        <ele>1594.1999511719</ele>
        <time>2014-02-12T07:46:52.000Z</time>
      </trkpt>
      <trkpt lat="45.91778" lon="6.48843">
        <ele>1594.1999511719</ele>
        <time>2014-02-12T07:46:53.000Z</time>
      </trkpt>
      <trkpt lat="45.91777" lon="6.48843">
        <ele>1594.1999511719</ele>
        <time>2014-02-12T07:46:54.000Z</time>
      </trkpt>
      <trkpt lat="45.91777" lon="6.48843">
        <ele>1594.4000244141</ele>
        <time>2014-02-12T07:46:55.000Z</time>
      </trkpt>
      <trkpt lat="45.91774" lon="6.48844">
        <ele>1595.1999511719</ele>
        <time>2014-02-12T07:46:59.000Z</time>
      </trkpt>
      <trkpt lat="45.91774" lon="6.48844">
        <ele>1595.1999511719</ele>
        <time>2014-02-12T07:47:00.000Z</time>
      </trkpt>
      <trkpt lat="45.91774" lon="6.48845">
        <ele>1595.4000244141</ele>
        <time>2014-02-12T07:47:01.000Z</time>
      </trkpt>
      <trkpt lat="45.91773" lon="6.48845">
        <ele>1595.4000244141</ele>
        <time>2014-02-12T07:47:02.000Z</time>
      </trkpt>
      <trkpt lat="45.91773" lon="6.48845">
        <ele>1595.5999755859</ele>
        <time>2014-02-12T07:47:03.000Z</time>
      </trkpt>
      <trkpt lat="45.91772" lon="6.48845">
        <ele>1595.4000244141</ele>
        <time>2014-02-12T07:47:04.000Z</time>
      </trkpt>
      <trkpt lat="45.91772" lon="6.48845">
        <ele>1595.4000244141</ele>
        <time>2014-02-12T07:47:05.000Z</time>
      </trkpt>
      <trkpt lat="45.91772" lon="6.48846">
        <ele>1595.5999755859</ele>
        <time>2014-02-12T07:47:06.000Z</time>
      </trkpt>
      <trkpt lat="45.91772" lon="6.48846">
        <ele>1595.8000488281</ele>
        <time>2014-02-12T07:47:07.000Z</time>
      </trkpt>
      <trkpt lat="45.91772" lon="6.48846">
        <ele>1595.8000488281</ele>
        <time>2014-02-12T07:47:08.000Z</time>
      </trkpt>
      <trkpt lat="45.91771" lon="6.48847">
        <ele>1596.4000244141</ele>
        <time>2014-02-12T07:47:09.000Z</time>
      </trkpt>
      <trkpt lat="45.91771" lon="6.48847">
        <ele>1596.4000244141</ele>
        <time>2014-02-12T07:47:10.000Z</time>
      </trkpt>
      <trkpt lat="45.9177" lon="6.48848">
        <ele>1596.5999755859</ele>
        <time>2014-02-12T07:47:11.000Z</time>
      </trkpt>
      <trkpt lat="45.9177" lon="6.48848">
        <ele>1596.8000488281</ele>
        <time>2014-02-12T07:47:12.000Z</time>
      </trkpt>
      <trkpt lat="45.9177" lon="6.48848">
        <ele>1596.8000488281</ele>
        <time>2014-02-12T07:47:13.000Z</time>
      </trkpt>
      <trkpt lat="45.9177" lon="6.48848">
        <ele>1596.8000488281</ele>
        <time>2014-02-12T07:47:14.000Z</time>
      </trkpt>
      <trkpt lat="45.9177" lon="6.48848">
        <ele>1596.8000488281</ele>
        <time>2014-02-12T07:47:15.000Z</time>
      </trkpt>
      <trkpt lat="45.9177" lon="6.48848">
        <ele>1596.8000488281</ele>
        <time>2014-02-12T07:47:16.000Z</time>
      </trkpt>
      <trkpt lat="45.9177" lon="6.48848">
        <ele>1596.8000488281</ele>
        <time>2014-02-12T07:47:17.000Z</time>
      </trkpt>
      <trkpt lat="45.9177" lon="6.48848">
        <ele>1596.8000488281</ele>
        <time>2014-02-12T07:47:18.000Z</time>
      </trkpt>
      <trkpt lat="45.9177" lon="6.48848">
        <ele>1596.8000488281</ele>
        <time>2014-02-12T07:47:19.000Z</time>
      </trkpt>
      <trkpt lat="45.9177" lon="6.48848">
        <ele>1596.8000488281</ele>
        <time>2014-02-12T07:47:20.000Z</time>
      </trkpt>
      <trkpt lat="45.9177" lon="6.48848">
        <ele>1596.8000488281</ele>
        <time>2014-02-12T07:47:21.000Z</time>
      </trkpt>
      <trkpt lat="45.9177" lon="6.48848">
        <ele>1596.8000488281</ele>
        <time>2014-02-12T07:47:22.000Z</time>
      </trkpt>
      <trkpt lat="45.9177" lon="6.48848">
        <ele>1596.8000488281</ele>
        <time>2014-02-12T07:47:23.000Z</time>
      </trkpt>
      <trkpt lat="45.9177" lon="6.48848">
        <ele>1596.8000488281</ele>
        <time>2014-02-12T07:47:24.000Z</time>
      </trkpt>
      <trkpt lat="45.9177" lon="6.48848">
        <ele>1596.8000488281</ele>
        <time>2014-02-12T07:47:25.000Z</time>
      </trkpt>
      <trkpt lat="45.9177" lon="6.48848">
        <ele>1596.8000488281</ele>
        <time>2014-02-12T07:47:26.000Z</time>
      </trkpt>
      <trkpt lat="45.9177" lon="6.48848">
        <ele>1596.8000488281</ele>
        <time>2014-02-12T07:47:27.000Z</time>
      </trkpt>
      <trkpt lat="45.9177" lon="6.48848">
        <ele>1596.8000488281</ele>
        <time>2014-02-12T07:47:29.000Z</time>
      </trkpt>
      <trkpt lat="45.9177" lon="6.48848">
        <ele>1596.8000488281</ele>
        <time>2014-02-12T07:47:30.000Z</time>
      </trkpt>
      <trkpt lat="45.9177" lon="6.48848">
        <ele>1596.8000488281</ele>
        <time>2014-02-12T07:47:31.000Z</time>
      </trkpt>
      <trkpt lat="45.9177" lon="6.48848">
        <ele>1596.8000488281</ele>
        <time>2014-02-12T07:47:33.000Z</time>
      </trkpt>
      <trkpt lat="45.9177" lon="6.48848">
        <ele>1596.8000488281</ele>
        <time>2014-02-12T07:47:34.000Z</time>
      </trkpt>
      <trkpt lat="45.9177" lon="6.48848">
        <ele>1596.8000488281</ele>
        <time>2014-02-12T07:47:35.000Z</time>
      </trkpt>
      <trkpt lat="45.9177" lon="6.48848">
        <ele>1596.8000488281</ele>
        <time>2014-02-12T07:47:36.000Z</time>
      </trkpt>
      <trkpt lat="45.9177" lon="6.48848">
        <ele>1596.8000488281</ele>
        <time>2014-02-12T07:47:37.000Z</time>
      </trkpt>
      <trkpt lat="45.9177" lon="6.48848">
        <ele>1596.8000488281</ele>
        <time>2014-02-12T07:47:38.000Z</time>
      </trkpt>
      <trkpt lat="45.9177" lon="6.48848">
        <ele>1596.8000488281</ele>
        <time>2014-02-12T07:47:40.000Z</time>
      </trkpt>
      <trkpt lat="45.9177" lon="6.48848">
        <ele>1596.8000488281</ele>
        <time>2014-02-12T07:47:41.000Z</time>
      </trkpt>
      <trkpt lat="45.9177" lon="6.48848">
        <ele>1596.8000488281</ele>
        <time>2014-02-12T07:47:42.000Z</time>
      </trkpt>
      <trkpt lat="45.9177" lon="6.48848">
        <ele>1596.8000488281</ele>
        <time>2014-02-12T07:47:43.000Z</time>
      </trkpt>
      <trkpt lat="45.9177" lon="6.48848">
        <ele>1596.8000488281</ele>
        <time>2014-02-12T07:47:44.000Z</time>
      </trkpt>
      <trkpt lat="45.9177" lon="6.48848">
        <ele>1596.8000488281</ele>
        <time>2014-02-12T07:47:45.000Z</time>
      </trkpt>
      <trkpt lat="45.9177" lon="6.48848">
        <ele>1596.8000488281</ele>
        <time>2014-02-12T07:47:46.000Z</time>
      </trkpt>
      <trkpt lat="45.9177" lon="6.48848">
        <ele>1596.8000488281</ele>
        <time>2014-02-12T07:47:47.000Z</time>
      </trkpt>
      <trkpt lat="45.9177" lon="6.48848">
        <ele>1596.8000488281</ele>
        <time>2014-02-12T07:47:48.000Z</time>
      </trkpt>
      <trkpt lat="45.9177" lon="6.48848">
        <ele>1596.8000488281</ele>
        <time>2014-02-12T07:47:49.000Z</time>
      </trkpt>
      <trkpt lat="45.9177" lon="6.48848">
        <ele>1596.8000488281</ele>
        <time>2014-02-12T07:47:50.000Z</time>
      </trkpt>
      <trkpt lat="45.9177" lon="6.48848">
        <ele>1596.8000488281</ele>
        <time>2014-02-12T07:47:51.000Z</time>
      </trkpt>
      <trkpt lat="45.9177" lon="6.48848">
        <ele>1596.8000488281</ele>
        <time>2014-02-12T07:47:52.000Z</time>
      </trkpt>
      <trkpt lat="45.9177" lon="6.48848">
        <ele>1596.8000488281</ele>
        <time>2014-02-12T07:47:53.000Z</time>
      </trkpt>
      <trkpt lat="45.9177" lon="6.48848">
        <ele>1596.8000488281</ele>
        <time>2014-02-12T07:47:54.000Z</time>
      </trkpt>
      <trkpt lat="45.9177" lon="6.48848">
        <ele>1596.8000488281</ele>
        <time>2014-02-12T07:47:55.000Z</time>
      </trkpt>
      <trkpt lat="45.9177" lon="6.48848">
        <ele>1596.8000488281</ele>
        <time>2014-02-12T07:47:56.000Z</time>
      </trkpt>
      <trkpt lat="45.9177" lon="6.48848">
        <ele>1596.8000488281</ele>
        <time>2014-02-12T07:47:57.000Z</time>
      </trkpt>
      <trkpt lat="45.9177" lon="6.48848">
        <ele>1596.8000488281</ele>
        <time>2014-02-12T07:47:58.000Z</time>
      </trkpt>
      <trkpt lat="45.9177" lon="6.48848">
        <ele>1596.8000488281</ele>
        <time>2014-02-12T07:47:59.000Z</time>
      </trkpt>
      <trkpt lat="45.9177" lon="6.48848">
        <ele>1596.8000488281</ele>
        <time>2014-02-12T07:48:00.000Z</time>
      </trkpt>
      <trkpt lat="45.9177" lon="6.48848">
        <ele>1596.8000488281</ele>
        <time>2014-02-12T07:48:01.000Z</time>
      </trkpt>
      <trkpt lat="45.9177" lon="6.48848">
        <ele>1596.8000488281</ele>
        <time>2014-02-12T07:48:02.000Z</time>
      </trkpt>
      <trkpt lat="45.9177" lon="6.48848">
        <ele>1596.8000488281</ele>
        <time>2014-02-12T07:48:03.000Z</time>
      </trkpt>
      <trkpt lat="45.9177" lon="6.48848">
        <ele>1596.8000488281</ele>
        <time>2014-02-12T07:48:04.000Z</time>
      </trkpt>
      <trkpt lat="45.9177" lon="6.48848">
        <ele>1596.8000488281</ele>
        <time>2014-02-12T07:48:05.000Z</time>
      </trkpt>
      <trkpt lat="45.9177" lon="6.48848">
        <ele>1596.8000488281</ele>
        <time>2014-02-12T07:48:06.000Z</time>
      </trkpt>
      <trkpt lat="45.9177" lon="6.48848">
        <ele>1596.8000488281</ele>
        <time>2014-02-12T07:48:07.000Z</time>
      </trkpt>
      <trkpt lat="45.9177" lon="6.48848">
        <ele>1596.8000488281</ele>
        <time>2014-02-12T07:48:08.000Z</time>
      </trkpt>
      <trkpt lat="45.9177" lon="6.48848">
        <ele>1596.8000488281</ele>
        <time>2014-02-12T07:48:09.000Z</time>
      </trkpt>
      <trkpt lat="45.9177" lon="6.48848">
        <ele>1596.8000488281</ele>
        <time>2014-02-12T07:48:10.000Z</time>
      </trkpt>
      <trkpt lat="45.9177" lon="6.48848">
        <ele>1596.8000488281</ele>
        <time>2014-02-12T07:48:11.000Z</time>
      </trkpt>
      <trkpt lat="45.9177" lon="6.48848">
        <ele>1596.8000488281</ele>
        <time>2014-02-12T07:48:12.000Z</time>
      </trkpt>
      <trkpt lat="45.9177" lon="6.48848">
        <ele>1596.8000488281</ele>
        <time>2014-02-12T07:48:13.000Z</time>
      </trkpt>
      <trkpt lat="45.9177" lon="6.48848">
        <ele>1596.8000488281</ele>
        <time>2014-02-12T07:48:14.000Z</time>
      </trkpt>
      <trkpt lat="45.9177" lon="6.48848">
        <ele>1596.8000488281</ele>
        <time>2014-02-12T07:48:15.000Z</time>
      </trkpt>
      <trkpt lat="45.9177" lon="6.48848">
        <ele>1596.8000488281</ele>
        <time>2014-02-12T07:48:16.000Z</time>
      </trkpt>
      <trkpt lat="45.9177" lon="6.48848">
        <ele>1596.8000488281</ele>
        <time>2014-02-12T07:48:17.000Z</time>
      </trkpt>
      <trkpt lat="45.9177" lon="6.48848">
        <ele>1596.8000488281</ele>
        <time>2014-02-12T07:48:18.000Z</time>
      </trkpt>
      <trkpt lat="45.9177" lon="6.48848">
        <ele>1596.8000488281</ele>
        <time>2014-02-12T07:48:19.000Z</time>
      </trkpt>
      <trkpt lat="45.9177" lon="6.48848">
        <ele>1596.8000488281</ele>
        <time>2014-02-12T07:48:20.000Z</time>
      </trkpt>
      <trkpt lat="45.9177" lon="6.48848">
        <ele>1596.8000488281</ele>
        <time>2014-02-12T07:48:21.000Z</time>
      </trkpt>
      <trkpt lat="45.9177" lon="6.48848">
        <ele>1596.8000488281</ele>
        <time>2014-02-12T07:48:22.000Z</time>
      </trkpt>
      <trkpt lat="45.91772" lon="6.48847">
        <ele>1596.4000244141</ele>
        <time>2014-02-12T07:48:23.000Z</time>
      </trkpt>
      <trkpt lat="45.91773" lon="6.48846">
        <ele>1595.8000488281</ele>
        <time>2014-02-12T07:48:24.000Z</time>
      </trkpt>
      <trkpt lat="45.91775" lon="6.48844">
        <ele>1595</ele>
        <time>2014-02-12T07:48:25.000Z</time>
      </trkpt>
      <trkpt lat="45.91778" lon="6.48842">
        <ele>1594</ele>
        <time>2014-02-12T07:48:26.000Z</time>
      </trkpt>
      <trkpt lat="45.9178" lon="6.48841">
        <ele>1593.5999755859</ele>
        <time>2014-02-12T07:48:27.000Z</time>
      </trkpt>
      <trkpt lat="45.91781" lon="6.48842">
        <ele>1593.8000488281</ele>
        <time>2014-02-12T07:48:28.000Z</time>
      </trkpt>
      <trkpt lat="45.91782" lon="6.48841">
        <ele>1593.5999755859</ele>
        <time>2014-02-12T07:48:29.000Z</time>
      </trkpt>
      <trkpt lat="45.91781" lon="6.48841">
        <ele>1593.4000244141</ele>
        <time>2014-02-12T07:48:30.000Z</time>
      </trkpt>
      <trkpt lat="45.91781" lon="6.48841">
        <ele>1593.4000244141</ele>
        <time>2014-02-12T07:48:31.000Z</time>
      </trkpt>
      <trkpt lat="45.91781" lon="6.48841">
        <ele>1593.4000244141</ele>
        <time>2014-02-12T07:48:32.000Z</time>
      </trkpt>
      <trkpt lat="45.91781" lon="6.48841">
        <ele>1593.4000244141</ele>
        <time>2014-02-12T07:48:33.000Z</time>
      </trkpt>
      <trkpt lat="45.91781" lon="6.48841">
        <ele>1593.4000244141</ele>
        <time>2014-02-12T07:48:34.000Z</time>
      </trkpt>
      <trkpt lat="45.91781" lon="6.48841">
        <ele>1593.4000244141</ele>
        <time>2014-02-12T07:48:35.000Z</time>
      </trkpt>
      <trkpt lat="45.91781" lon="6.48841">
        <ele>1593.4000244141</ele>
        <time>2014-02-12T07:48:36.000Z</time>
      </trkpt>
      <trkpt lat="45.91781" lon="6.48841">
        <ele>1593.4000244141</ele>
        <time>2014-02-12T07:48:37.000Z</time>
      </trkpt>
      <trkpt lat="45.91781" lon="6.48841">
        <ele>1593.4000244141</ele>
        <time>2014-02-12T07:48:38.000Z</time>
      </trkpt>
      <trkpt lat="45.91781" lon="6.48841">
        <ele>1593.4000244141</ele>
        <time>2014-02-12T07:48:39.000Z</time>
      </trkpt>
      <trkpt lat="45.91781" lon="6.48841">
        <ele>1593.4000244141</ele>
        <time>2014-02-12T07:48:40.000Z</time>
      </trkpt>
      <trkpt lat="45.91781" lon="6.48841">
        <ele>1593.4000244141</ele>
        <time>2014-02-12T07:48:41.000Z</time>
      </trkpt>
      <trkpt lat="45.91781" lon="6.48841">
        <ele>1593.4000244141</ele>
        <time>2014-02-12T07:48:42.000Z</time>
      </trkpt>
      <trkpt lat="45.91781" lon="6.48841">
        <ele>1593.4000244141</ele>
        <time>2014-02-12T07:48:43.000Z</time>
      </trkpt>
      <trkpt lat="45.91781" lon="6.48841">
        <ele>1593.4000244141</ele>
        <time>2014-02-12T07:48:44.000Z</time>
      </trkpt>
      <trkpt lat="45.91781" lon="6.48841">
        <ele>1593.4000244141</ele>
        <time>2014-02-12T07:48:45.000Z</time>
      </trkpt>
      <trkpt lat="45.91781" lon="6.48841">
        <ele>1593.4000244141</ele>
        <time>2014-02-12T07:48:46.000Z</time>
      </trkpt>
      <trkpt lat="45.91781" lon="6.48841">
        <ele>1593.4000244141</ele>
        <time>2014-02-12T07:48:47.000Z</time>
      </trkpt>
      <trkpt lat="45.91781" lon="6.48841">
        <ele>1593.4000244141</ele>
        <time>2014-02-12T07:48:48.000Z</time>
      </trkpt>
      <trkpt lat="45.91781" lon="6.48841">
        <ele>1593.4000244141</ele>
        <time>2014-02-12T07:48:49.000Z</time>
      </trkpt>
      <trkpt lat="45.91781" lon="6.48841">
        <ele>1593.4000244141</ele>
        <time>2014-02-12T07:48:50.000Z</time>
      </trkpt>
      <trkpt lat="45.91781" lon="6.48841">
        <ele>1593.4000244141</ele>
        <time>2014-02-12T07:48:51.000Z</time>
      </trkpt>
      <trkpt lat="45.91781" lon="6.48841">
        <ele>1593.4000244141</ele>
        <time>2014-02-12T07:48:52.000Z</time>
      </trkpt>
      <trkpt lat="45.91781" lon="6.48841">
        <ele>1593.4000244141</ele>
        <time>2014-02-12T07:48:53.000Z</time>
      </trkpt>
      <trkpt lat="45.91781" lon="6.48841">
        <ele>1593.4000244141</ele>
        <time>2014-02-12T07:48:54.000Z</time>
      </trkpt>
      <trkpt lat="45.91781" lon="6.48841">
        <ele>1593.4000244141</ele>
        <time>2014-02-12T07:48:55.000Z</time>
      </trkpt>
      <trkpt lat="45.91781" lon="6.48841">
        <ele>1593.4000244141</ele>
        <time>2014-02-12T07:48:56.000Z</time>
      </trkpt>
      <trkpt lat="45.91781" lon="6.48841">
        <ele>1593.4000244141</ele>
        <time>2014-02-12T07:48:57.000Z</time>
      </trkpt>
      <trkpt lat="45.91781" lon="6.48841">
        <ele>1593.4000244141</ele>
        <time>2014-02-12T07:48:58.000Z</time>
      </trkpt>
      <trkpt lat="45.91781" lon="6.48841">
        <ele>1593.4000244141</ele>
        <time>2014-02-12T07:48:59.000Z</time>
      </trkpt>
      <trkpt lat="45.91782" lon="6.48838">
        <ele>1592.1999511719</ele>
        <time>2014-02-12T07:49:00.000Z</time>
      </trkpt>
      <trkpt lat="45.91784" lon="6.48834">
        <ele>1590.1999511719</ele>
        <time>2014-02-12T07:49:01.000Z</time>
      </trkpt>
      <trkpt lat="45.91785" lon="6.48831">
        <ele>1588.5999755859</ele>
        <time>2014-02-12T07:49:02.000Z</time>
      </trkpt>
      <trkpt lat="45.91786" lon="6.48828">
        <ele>1587.5999755859</ele>
        <time>2014-02-12T07:49:03.000Z</time>
      </trkpt>
      <trkpt lat="45.91787" lon="6.48827">
        <ele>1586.8000488281</ele>
        <time>2014-02-12T07:49:04.000Z</time>
      </trkpt>
      <trkpt lat="45.91788" lon="6.48826">
        <ele>1586.8000488281</ele>
        <time>2014-02-12T07:49:05.000Z</time>
      </trkpt>
      <trkpt lat="45.91788" lon="6.48826">
        <ele>1586.5999755859</ele>
        <time>2014-02-12T07:49:06.000Z</time>
      </trkpt>
      <trkpt lat="45.91788" lon="6.48826">
        <ele>1586.4000244141</ele>
        <time>2014-02-12T07:49:07.000Z</time>
      </trkpt>
      <trkpt lat="45.91789" lon="6.48825">
        <ele>1586</ele>
        <time>2014-02-12T07:49:08.000Z</time>
      </trkpt>
      <trkpt lat="45.91789" lon="6.48825">
        <ele>1586</ele>
        <time>2014-02-12T07:49:09.000Z</time>
      </trkpt>
      <trkpt lat="45.9179" lon="6.48824">
        <ele>1585.5999755859</ele>
        <time>2014-02-12T07:49:10.000Z</time>
      </trkpt>
      <trkpt lat="45.9179" lon="6.48824">
        <ele>1585.5999755859</ele>
        <time>2014-02-12T07:49:11.000Z</time>
      </trkpt>
      <trkpt lat="45.9179" lon="6.48823">
        <ele>1585.4000244141</ele>
        <time>2014-02-12T07:49:12.000Z</time>
      </trkpt>
      <trkpt lat="45.9179" lon="6.48823">
        <ele>1585.4000244141</ele>
        <time>2014-02-12T07:49:13.000Z</time>
      </trkpt>
      <trkpt lat="45.9179" lon="6.48823">
        <ele>1585.4000244141</ele>
        <time>2014-02-12T07:49:14.000Z</time>
      </trkpt>
      <trkpt lat="45.9179" lon="6.48823">
        <ele>1585.4000244141</ele>
        <time>2014-02-12T07:49:15.000Z</time>
      </trkpt>
      <trkpt lat="45.9179" lon="6.48823">
        <ele>1585</ele>
        <time>2014-02-12T07:49:16.000Z</time>
      </trkpt>
      <trkpt lat="45.91792" lon="6.48821">
        <ele>1584.4000244141</ele>
        <time>2014-02-12T07:49:17.000Z</time>
      </trkpt>
      <trkpt lat="45.91793" lon="6.48819">
        <ele>1583.4000244141</ele>
        <time>2014-02-12T07:49:18.000Z</time>
      </trkpt>
      <trkpt lat="45.91795" lon="6.48818">
        <ele>1582.8000488281</ele>
        <time>2014-02-12T07:49:19.000Z</time>
      </trkpt>
      <trkpt lat="45.91797" lon="6.48817">
        <ele>1582.1999511719</ele>
        <time>2014-02-12T07:49:20.000Z</time>
      </trkpt>
      <trkpt lat="45.91799" lon="6.48816">
        <ele>1582</ele>
        <time>2014-02-12T07:49:21.000Z</time>
      </trkpt>
      <trkpt lat="45.918" lon="6.48816">
        <ele>1582</ele>
        <time>2014-02-12T07:49:22.000Z</time>
      </trkpt>
      <trkpt lat="45.91801" lon="6.48816">
        <ele>1582</ele>
        <time>2014-02-12T07:49:23.000Z</time>
      </trkpt>
      <trkpt lat="45.91803" lon="6.48816">
        <ele>1581.8000488281</ele>
        <time>2014-02-12T07:49:24.000Z</time>
      </trkpt>
      <trkpt lat="45.91804" lon="6.48814">
        <ele>1581.1999511719</ele>
        <time>2014-02-12T07:49:25.000Z</time>
      </trkpt>
      <trkpt lat="45.91805" lon="6.48811">
        <ele>1579.5999755859</ele>
        <time>2014-02-12T07:49:26.000Z</time>
      </trkpt>
      <trkpt lat="45.91805" lon="6.48809">
        <ele>1578.8000488281</ele>
        <time>2014-02-12T07:49:27.000Z</time>
      </trkpt>
      <trkpt lat="45.91804" lon="6.48809">
        <ele>1578.8000488281</ele>
        <time>2014-02-12T07:49:28.000Z</time>
      </trkpt>
      <trkpt lat="45.91804" lon="6.48809">
        <ele>1578.8000488281</ele>
        <time>2014-02-12T07:49:29.000Z</time>
      </trkpt>
      <trkpt lat="45.91804" lon="6.48809">
        <ele>1578.8000488281</ele>
        <time>2014-02-12T07:49:30.000Z</time>
      </trkpt>
      <trkpt lat="45.91804" lon="6.48809">
        <ele>1578.8000488281</ele>
        <time>2014-02-12T07:49:31.000Z</time>
      </trkpt>
      <trkpt lat="45.91804" lon="6.48809">
        <ele>1578.8000488281</ele>
        <time>2014-02-12T07:49:32.000Z</time>
      </trkpt>
      <trkpt lat="45.91804" lon="6.48809">
        <ele>1578.8000488281</ele>
        <time>2014-02-12T07:49:33.000Z</time>
      </trkpt>
      <trkpt lat="45.91804" lon="6.48809">
        <ele>1578.8000488281</ele>
        <time>2014-02-12T07:49:34.000Z</time>
      </trkpt>
      <trkpt lat="45.91804" lon="6.48809">
        <ele>1578.8000488281</ele>
        <time>2014-02-12T07:49:35.000Z</time>
      </trkpt>
      <trkpt lat="45.91803" lon="6.48809">
        <ele>1579</ele>
        <time>2014-02-12T07:49:36.000Z</time>
      </trkpt>
      <trkpt lat="45.91803" lon="6.48809">
        <ele>1579.1999511719</ele>
        <time>2014-02-12T07:49:37.000Z</time>
      </trkpt>
      <trkpt lat="45.91803" lon="6.48809">
        <ele>1579.1999511719</ele>
        <time>2014-02-12T07:49:38.000Z</time>
      </trkpt>
      <trkpt lat="45.91802" lon="6.48808">
        <ele>1578.8000488281</ele>
        <time>2014-02-12T07:49:39.000Z</time>
      </trkpt>
      <trkpt lat="45.918" lon="6.48807">
        <ele>1578.4000244141</ele>
        <time>2014-02-12T07:49:40.000Z</time>
      </trkpt>
      <trkpt lat="45.91799" lon="6.48805">
        <ele>1577.5999755859</ele>
        <time>2014-02-12T07:49:41.000Z</time>
      </trkpt>
      <trkpt lat="45.91798" lon="6.48803">
        <ele>1577</ele>
        <time>2014-02-12T07:49:42.000Z</time>
      </trkpt>
      <trkpt lat="45.91798" lon="6.48802">
        <ele>1576.5999755859</ele>
        <time>2014-02-12T07:49:43.000Z</time>
      </trkpt>
      <trkpt lat="45.91796" lon="6.488">
        <ele>1576</ele>
        <time>2014-02-12T07:49:44.000Z</time>
      </trkpt>
      <trkpt lat="45.91795" lon="6.48799">
        <ele>1575.4000244141</ele>
        <time>2014-02-12T07:49:45.000Z</time>
      </trkpt>
      <trkpt lat="45.91794" lon="6.48797">
        <ele>1574.8000488281</ele>
        <time>2014-02-12T07:49:46.000Z</time>
      </trkpt>
      <trkpt lat="45.91793" lon="6.48796">
        <ele>1574.4000244141</ele>
        <time>2014-02-12T07:49:47.000Z</time>
      </trkpt>
      <trkpt lat="45.91792" lon="6.48795">
        <ele>1574</ele>
        <time>2014-02-12T07:49:48.000Z</time>
      </trkpt>
      <trkpt lat="45.91792" lon="6.48794">
        <ele>1573.5999755859</ele>
        <time>2014-02-12T07:49:49.000Z</time>
      </trkpt>
      <trkpt lat="45.91791" lon="6.48792">
        <ele>1573</ele>
        <time>2014-02-12T07:49:50.000Z</time>
      </trkpt>
      <trkpt lat="45.9179" lon="6.48792">
        <ele>1573</ele>
        <time>2014-02-12T07:49:51.000Z</time>
      </trkpt>
      <trkpt lat="45.91789" lon="6.48792">
        <ele>1573</ele>
        <time>2014-02-12T07:49:52.000Z</time>
      </trkpt>
      <trkpt lat="45.91788" lon="6.48792">
        <ele>1573.1999511719</ele>
        <time>2014-02-12T07:49:53.000Z</time>
      </trkpt>
      <trkpt lat="45.91788" lon="6.48792">
        <ele>1573.4000244141</ele>
        <time>2014-02-12T07:49:54.000Z</time>
      </trkpt>
      <trkpt lat="45.91787" lon="6.48792">
        <ele>1573.5999755859</ele>
        <time>2014-02-12T07:49:55.000Z</time>
      </trkpt>
      <trkpt lat="45.91786" lon="6.48792">
        <ele>1573.8000488281</ele>
        <time>2014-02-12T07:49:56.000Z</time>
      </trkpt>
      <trkpt lat="45.91785" lon="6.48793">
        <ele>1574.1999511719</ele>
        <time>2014-02-12T07:49:57.000Z</time>
      </trkpt>
      <trkpt lat="45.91784" lon="6.48794">
        <ele>1574.5999755859</ele>
        <time>2014-02-12T07:49:58.000Z</time>
      </trkpt>
      <trkpt lat="45.91784" lon="6.48794">
        <ele>1574.8000488281</ele>
        <time>2014-02-12T07:49:59.000Z</time>
      </trkpt>
      <trkpt lat="45.91783" lon="6.48795">
        <ele>1575</ele>
        <time>2014-02-12T07:50:00.000Z</time>
      </trkpt>
      <trkpt lat="45.91782" lon="6.48794">
        <ele>1574.8000488281</ele>
        <time>2014-02-12T07:50:01.000Z</time>
      </trkpt>
      <trkpt lat="45.91781" lon="6.48795">
        <ele>1575</ele>
        <time>2014-02-12T07:50:02.000Z</time>
      </trkpt>
      <trkpt lat="45.9178" lon="6.48795">
        <ele>1575</ele>
        <time>2014-02-12T07:50:03.000Z</time>
      </trkpt>
      <trkpt lat="45.91779" lon="6.48795">
        <ele>1575</ele>
        <time>2014-02-12T07:50:04.000Z</time>
      </trkpt>
      <trkpt lat="45.91779" lon="6.48795">
        <ele>1575</ele>
        <time>2014-02-12T07:50:05.000Z</time>
      </trkpt>
      <trkpt lat="45.91778" lon="6.48795">
        <ele>1575</ele>
        <time>2014-02-12T07:50:06.000Z</time>
      </trkpt>
      <trkpt lat="45.91777" lon="6.48795">
        <ele>1575</ele>
        <time>2014-02-12T07:50:07.000Z</time>
      </trkpt>
      <trkpt lat="45.91775" lon="6.48796">
        <ele>1575.4000244141</ele>
        <time>2014-02-12T07:50:08.000Z</time>
      </trkpt>
      <trkpt lat="45.91774" lon="6.48797">
        <ele>1575.5999755859</ele>
        <time>2014-02-12T07:50:09.000Z</time>
      </trkpt>
      <trkpt lat="45.91772" lon="6.48798">
        <ele>1576.1999511719</ele>
        <time>2014-02-12T07:50:10.000Z</time>
      </trkpt>
      <trkpt lat="45.9177" lon="6.488">
        <ele>1576.8000488281</ele>
        <time>2014-02-12T07:50:11.000Z</time>
      </trkpt>
      <trkpt lat="45.91767" lon="6.48801">
        <ele>1577.4000244141</ele>
        <time>2014-02-12T07:50:12.000Z</time>
      </trkpt>
      <trkpt lat="45.91765" lon="6.48802">
        <ele>1577.8000488281</ele>
        <time>2014-02-12T07:50:13.000Z</time>
      </trkpt>
      <trkpt lat="45.91763" lon="6.48802">
        <ele>1577.8000488281</ele>
        <time>2014-02-12T07:50:14.000Z</time>
      </trkpt>
      <trkpt lat="45.91761" lon="6.48802">
        <ele>1577.8000488281</ele>
        <time>2014-02-12T07:50:15.000Z</time>
      </trkpt>
      <trkpt lat="45.91761" lon="6.48802">
        <ele>1577.8000488281</ele>
        <time>2014-02-12T07:50:16.000Z</time>
      </trkpt>
      <trkpt lat="45.9176" lon="6.48803">
        <ele>1578</ele>
        <time>2014-02-12T07:50:17.000Z</time>
      </trkpt>
      <trkpt lat="45.91759" lon="6.48803">
        <ele>1578</ele>
        <time>2014-02-12T07:50:18.000Z</time>
      </trkpt>
      <trkpt lat="45.91759" lon="6.48804">
        <ele>1578.1999511719</ele>
        <time>2014-02-12T07:50:19.000Z</time>
      </trkpt>
      <trkpt lat="45.91758" lon="6.48804">
        <ele>1578.4000244141</ele>
        <time>2014-02-12T07:50:20.000Z</time>
      </trkpt>
      <trkpt lat="45.91758" lon="6.48805">
        <ele>1578.5999755859</ele>
        <time>2014-02-12T07:50:21.000Z</time>
      </trkpt>
      <trkpt lat="45.91758" lon="6.48805">
        <ele>1578.8000488281</ele>
        <time>2014-02-12T07:50:22.000Z</time>
      </trkpt>
      <trkpt lat="45.91758" lon="6.48805">
        <ele>1578.8000488281</ele>
        <time>2014-02-12T07:50:23.000Z</time>
      </trkpt>
      <trkpt lat="45.91758" lon="6.48805">
        <ele>1578.8000488281</ele>
        <time>2014-02-12T07:50:24.000Z</time>
      </trkpt>
      <trkpt lat="45.91758" lon="6.48805">
        <ele>1578.8000488281</ele>
        <time>2014-02-12T07:50:25.000Z</time>
      </trkpt>
      <trkpt lat="45.91758" lon="6.48806">
        <ele>1579.1999511719</ele>
        <time>2014-02-12T07:50:26.000Z</time>
      </trkpt>
      <trkpt lat="45.91757" lon="6.48808">
        <ele>1579.5999755859</ele>
        <time>2014-02-12T07:50:27.000Z</time>
      </trkpt>
      <trkpt lat="45.91755" lon="6.48808">
        <ele>1579.8000488281</ele>
        <time>2014-02-12T07:50:28.000Z</time>
      </trkpt>
      <trkpt lat="45.91754" lon="6.48809">
        <ele>1580.1999511719</ele>
        <time>2014-02-12T07:50:29.000Z</time>
      </trkpt>
      <trkpt lat="45.91752" lon="6.4881">
        <ele>1580.4000244141</ele>
        <time>2014-02-12T07:50:30.000Z</time>
      </trkpt>
      <trkpt lat="45.91751" lon="6.4881">
        <ele>1580.5999755859</ele>
        <time>2014-02-12T07:50:31.000Z</time>
      </trkpt>
      <trkpt lat="45.9175" lon="6.4881">
        <ele>1580.5999755859</ele>
        <time>2014-02-12T07:50:32.000Z</time>
      </trkpt>
      <trkpt lat="45.91749" lon="6.4881">
        <ele>1580.5999755859</ele>
        <time>2014-02-12T07:50:33.000Z</time>
      </trkpt>
      <trkpt lat="45.91749" lon="6.4881">
        <ele>1580.5999755859</ele>
        <time>2014-02-12T07:50:34.000Z</time>
      </trkpt>
      <trkpt lat="45.91747" lon="6.4881">
        <ele>1580.5999755859</ele>
        <time>2014-02-12T07:50:35.000Z</time>
      </trkpt>
      <trkpt lat="45.91746" lon="6.48811">
        <ele>1580.8000488281</ele>
        <time>2014-02-12T07:50:36.000Z</time>
      </trkpt>
      <trkpt lat="45.91745" lon="6.48812">
        <ele>1581</ele>
        <time>2014-02-12T07:50:37.000Z</time>
      </trkpt>
      <trkpt lat="45.91744" lon="6.48812">
        <ele>1581.4000244141</ele>
        <time>2014-02-12T07:50:38.000Z</time>
      </trkpt>
      <trkpt lat="45.91742" lon="6.48812">
        <ele>1581.1999511719</ele>
        <time>2014-02-12T07:50:39.000Z</time>
      </trkpt>
      <trkpt lat="45.91741" lon="6.48812">
        <ele>1581.1999511719</ele>
        <time>2014-02-12T07:50:40.000Z</time>
      </trkpt>
      <trkpt lat="45.9174" lon="6.48812">
        <ele>1581.4000244141</ele>
        <time>2014-02-12T07:50:41.000Z</time>
      </trkpt>
      <trkpt lat="45.91739" lon="6.48813">
        <ele>1581.4000244141</ele>
        <time>2014-02-12T07:50:42.000Z</time>
      </trkpt>
      <trkpt lat="45.91739" lon="6.48813">
        <ele>1581.5999755859</ele>
        <time>2014-02-12T07:50:43.000Z</time>
      </trkpt>
      <trkpt lat="45.91738" lon="6.48812">
        <ele>1581.4000244141</ele>
        <time>2014-02-12T07:50:44.000Z</time>
      </trkpt>
      <trkpt lat="45.91737" lon="6.48812">
        <ele>1581.4000244141</ele>
        <time>2014-02-12T07:50:45.000Z</time>
      </trkpt>
      <trkpt lat="45.91737" lon="6.48812">
        <ele>1581.4000244141</ele>
        <time>2014-02-12T07:50:46.000Z</time>
      </trkpt>
      <trkpt lat="45.91737" lon="6.48812">
        <ele>1581.4000244141</ele>
        <time>2014-02-12T07:50:47.000Z</time>
      </trkpt>
      <trkpt lat="45.91737" lon="6.48812">
        <ele>1581.4000244141</ele>
        <time>2014-02-12T07:50:48.000Z</time>
      </trkpt>
      <trkpt lat="45.91736" lon="6.48813">
        <ele>1581.5999755859</ele>
        <time>2014-02-12T07:50:49.000Z</time>
      </trkpt>
      <trkpt lat="45.91736" lon="6.48814">
        <ele>1582</ele>
        <time>2014-02-12T07:50:50.000Z</time>
      </trkpt>
      <trkpt lat="45.91736" lon="6.48815">
        <ele>1582.1999511719</ele>
        <time>2014-02-12T07:50:51.000Z</time>
      </trkpt>
      <trkpt lat="45.91735" lon="6.48816">
        <ele>1582.5999755859</ele>
        <time>2014-02-12T07:50:52.000Z</time>
      </trkpt>
      <trkpt lat="45.91735" lon="6.48816">
        <ele>1582.8000488281</ele>
        <time>2014-02-12T07:50:53.000Z</time>
      </trkpt>
      <trkpt lat="45.91734" lon="6.48817">
        <ele>1583</ele>
        <time>2014-02-12T07:50:54.000Z</time>
      </trkpt>
      <trkpt lat="45.91733" lon="6.48817">
        <ele>1583.1999511719</ele>
        <time>2014-02-12T07:50:55.000Z</time>
      </trkpt>
      <trkpt lat="45.91732" lon="6.48818">
        <ele>1583.4000244141</ele>
        <time>2014-02-12T07:50:56.000Z</time>
      </trkpt>
      <trkpt lat="45.91731" lon="6.48818">
        <ele>1583.4000244141</ele>
        <time>2014-02-12T07:50:57.000Z</time>
      </trkpt>
      <trkpt lat="45.9173" lon="6.48818">
        <ele>1583.5999755859</ele>
        <time>2014-02-12T07:50:58.000Z</time>
      </trkpt>
      <trkpt lat="45.91729" lon="6.48819">
        <ele>1583.8000488281</ele>
        <time>2014-02-12T07:50:59.000Z</time>
      </trkpt>
      <trkpt lat="45.91728" lon="6.48819">
        <ele>1584.1999511719</ele>
        <time>2014-02-12T07:51:00.000Z</time>
      </trkpt>
      <trkpt lat="45.91727" lon="6.4882">
        <ele>1584.5999755859</ele>
        <time>2014-02-12T07:51:01.000Z</time>
      </trkpt>
      <trkpt lat="45.91727" lon="6.48821">
        <ele>1585</ele>
        <time>2014-02-12T07:51:02.000Z</time>
      </trkpt>
      <trkpt lat="45.91726" lon="6.48822">
        <ele>1585.5999755859</ele>
        <time>2014-02-12T07:51:03.000Z</time>
      </trkpt>
      <trkpt lat="45.91726" lon="6.48823">
        <ele>1586.1999511719</ele>
        <time>2014-02-12T07:51:04.000Z</time>
      </trkpt>
      <trkpt lat="45.91726" lon="6.48824">
        <ele>1586.4000244141</ele>
        <time>2014-02-12T07:51:05.000Z</time>
      </trkpt>
      <trkpt lat="45.91726" lon="6.48824">
        <ele>1586.4000244141</ele>
        <time>2014-02-12T07:51:06.000Z</time>
      </trkpt>
      <trkpt lat="45.91726" lon="6.48824">
        <ele>1586.4000244141</ele>
        <time>2014-02-12T07:51:07.000Z</time>
      </trkpt>
      <trkpt lat="45.91726" lon="6.48824">
        <ele>1586.4000244141</ele>
        <time>2014-02-12T07:51:08.000Z</time>
      </trkpt>
      <trkpt lat="45.91726" lon="6.48824">
        <ele>1586.4000244141</ele>
        <time>2014-02-12T07:51:09.000Z</time>
      </trkpt>
      <trkpt lat="45.91726" lon="6.48824">
        <ele>1586.4000244141</ele>
        <time>2014-02-12T07:51:10.000Z</time>
      </trkpt>
      <trkpt lat="45.91726" lon="6.48824">
        <ele>1586.4000244141</ele>
        <time>2014-02-12T07:51:11.000Z</time>
      </trkpt>
      <trkpt lat="45.91726" lon="6.48824">
        <ele>1586.4000244141</ele>
        <time>2014-02-12T07:51:12.000Z</time>
      </trkpt>
      <trkpt lat="45.91726" lon="6.48824">
        <ele>1586.4000244141</ele>
        <time>2014-02-12T07:51:13.000Z</time>
      </trkpt>
      <trkpt lat="45.91726" lon="6.48824">
        <ele>1586.4000244141</ele>
        <time>2014-02-12T07:51:14.000Z</time>
      </trkpt>
      <trkpt lat="45.91726" lon="6.48824">
        <ele>1586.4000244141</ele>
        <time>2014-02-12T07:51:15.000Z</time>
      </trkpt>
      <trkpt lat="45.91726" lon="6.48824">
        <ele>1586.4000244141</ele>
        <time>2014-02-12T07:51:16.000Z</time>
      </trkpt>
      <trkpt lat="45.91726" lon="6.48824">
        <ele>1586.4000244141</ele>
        <time>2014-02-12T07:51:17.000Z</time>
      </trkpt>
      <trkpt lat="45.91726" lon="6.48824">
        <ele>1586.4000244141</ele>
        <time>2014-02-12T07:51:18.000Z</time>
      </trkpt>
      <trkpt lat="45.91726" lon="6.48824">
        <ele>1586.4000244141</ele>
        <time>2014-02-12T07:51:19.000Z</time>
      </trkpt>
      <trkpt lat="45.91726" lon="6.48824">
        <ele>1586.4000244141</ele>
        <time>2014-02-12T07:51:20.000Z</time>
      </trkpt>
      <trkpt lat="45.91726" lon="6.48824">
        <ele>1586.4000244141</ele>
        <time>2014-02-12T07:51:21.000Z</time>
      </trkpt>
      <trkpt lat="45.91726" lon="6.48824">
        <ele>1586.4000244141</ele>
        <time>2014-02-12T07:51:22.000Z</time>
      </trkpt>
      <trkpt lat="45.91725" lon="6.48824">
        <ele>1586.4000244141</ele>
        <time>2014-02-12T07:51:23.000Z</time>
      </trkpt>
      <trkpt lat="45.91724" lon="6.48824">
        <ele>1586.5999755859</ele>
        <time>2014-02-12T07:51:24.000Z</time>
      </trkpt>
      <trkpt lat="45.91724" lon="6.48824">
        <ele>1586.8000488281</ele>
        <time>2014-02-12T07:51:25.000Z</time>
      </trkpt>
      <trkpt lat="45.91723" lon="6.48824">
        <ele>1586.8000488281</ele>
        <time>2014-02-12T07:51:26.000Z</time>
      </trkpt>
      <trkpt lat="45.91722" lon="6.48824">
        <ele>1586.5999755859</ele>
        <time>2014-02-12T07:51:27.000Z</time>
      </trkpt>
      <trkpt lat="45.91722" lon="6.48825">
        <ele>1586.8000488281</ele>
        <time>2014-02-12T07:51:28.000Z</time>
      </trkpt>
      <trkpt lat="45.91721" lon="6.48826">
        <ele>1587.4000244141</ele>
        <time>2014-02-12T07:51:29.000Z</time>
      </trkpt>
      <trkpt lat="45.9172" lon="6.48827">
        <ele>1588</ele>
        <time>2014-02-12T07:51:30.000Z</time>
      </trkpt>
      <trkpt lat="45.91719" lon="6.48829">
        <ele>1588.8000488281</ele>
        <time>2014-02-12T07:51:31.000Z</time>
      </trkpt>
      <trkpt lat="45.91718" lon="6.48831">
        <ele>1589.4000244141</ele>
        <time>2014-02-12T07:51:33.000Z</time>
      </trkpt>
      <trkpt lat="45.91718" lon="6.48831">
        <ele>1589.5999755859</ele>
        <time>2014-02-12T07:51:34.000Z</time>
      </trkpt>
      <trkpt lat="45.91717" lon="6.48831">
        <ele>1589.8000488281</ele>
        <time>2014-02-12T07:51:35.000Z</time>
      </trkpt>
      <trkpt lat="45.91717" lon="6.48831">
        <ele>1589.8000488281</ele>
        <time>2014-02-12T07:51:36.000Z</time>
      </trkpt>
      <trkpt lat="45.91717" lon="6.48831">
        <ele>1589.8000488281</ele>
        <time>2014-02-12T07:51:37.000Z</time>
      </trkpt>
      <trkpt lat="45.91717" lon="6.48832">
        <ele>1589.8000488281</ele>
        <time>2014-02-12T07:51:38.000Z</time>
      </trkpt>
      <trkpt lat="45.91716" lon="6.48832">
        <ele>1589.8000488281</ele>
        <time>2014-02-12T07:51:39.000Z</time>
      </trkpt>
      <trkpt lat="45.91716" lon="6.48833">
        <ele>1590.4000244141</ele>
        <time>2014-02-12T07:51:40.000Z</time>
      </trkpt>
      <trkpt lat="45.91716" lon="6.48834">
        <ele>1590.8000488281</ele>
        <time>2014-02-12T07:51:41.000Z</time>
      </trkpt>
      <trkpt lat="45.91715" lon="6.48834">
        <ele>1590.8000488281</ele>
        <time>2014-02-12T07:51:42.000Z</time>
      </trkpt>
      <trkpt lat="45.91715" lon="6.48834">
        <ele>1591</ele>
        <time>2014-02-12T07:51:43.000Z</time>
      </trkpt>
      <trkpt lat="45.91715" lon="6.48834">
        <ele>1591</ele>
        <time>2014-02-12T07:51:44.000Z</time>
      </trkpt>
      <trkpt lat="45.91714" lon="6.48835">
        <ele>1591.1999511719</ele>
        <time>2014-02-12T07:51:45.000Z</time>
      </trkpt>
      <trkpt lat="45.91714" lon="6.48835">
        <ele>1591.4000244141</ele>
        <time>2014-02-12T07:51:46.000Z</time>
      </trkpt>
      <trkpt lat="45.91714" lon="6.48835">
        <ele>1591.4000244141</ele>
        <time>2014-02-12T07:51:47.000Z</time>
      </trkpt>
      <trkpt lat="45.91714" lon="6.48835">
        <ele>1591.4000244141</ele>
        <time>2014-02-12T07:51:48.000Z</time>
      </trkpt>
      <trkpt lat="45.91714" lon="6.48835">
        <ele>1591.4000244141</ele>
        <time>2014-02-12T07:51:49.000Z</time>
      </trkpt>
      <trkpt lat="45.91714" lon="6.48835">
        <ele>1591.4000244141</ele>
        <time>2014-02-12T07:51:51.000Z</time>
      </trkpt>
      <trkpt lat="45.91714" lon="6.48835">
        <ele>1591.4000244141</ele>
        <time>2014-02-12T07:51:52.000Z</time>
      </trkpt>
      <trkpt lat="45.91714" lon="6.48835">
        <ele>1591.4000244141</ele>
        <time>2014-02-12T07:51:53.000Z</time>
      </trkpt>
      <trkpt lat="45.91713" lon="6.48835">
        <ele>1591.1999511719</ele>
        <time>2014-02-12T07:51:54.000Z</time>
      </trkpt>
      <trkpt lat="45.91713" lon="6.48836">
        <ele>1591.5999755859</ele>
        <time>2014-02-12T07:51:55.000Z</time>
      </trkpt>
      <trkpt lat="45.91713" lon="6.48836">
        <ele>1591.5999755859</ele>
        <time>2014-02-12T07:51:56.000Z</time>
      </trkpt>
      <trkpt lat="45.91713" lon="6.48836">
        <ele>1591.5999755859</ele>
        <time>2014-02-12T07:51:57.000Z</time>
      </trkpt>
      <trkpt lat="45.91713" lon="6.48836">
        <ele>1591.5999755859</ele>
        <time>2014-02-12T07:51:58.000Z</time>
      </trkpt>
      <trkpt lat="45.91713" lon="6.48836">
        <ele>1591.5999755859</ele>
        <time>2014-02-12T07:52:00.000Z</time>
      </trkpt>
      <trkpt lat="45.91713" lon="6.48836">
        <ele>1591.5999755859</ele>
        <time>2014-02-12T07:52:01.000Z</time>
      </trkpt>
      <trkpt lat="45.91713" lon="6.48836">
        <ele>1591.5999755859</ele>
        <time>2014-02-12T07:52:02.000Z</time>
      </trkpt>
      <trkpt lat="45.91713" lon="6.48836">
        <ele>1591.5999755859</ele>
        <time>2014-02-12T07:52:03.000Z</time>
      </trkpt>
      <trkpt lat="45.91713" lon="6.48836">
        <ele>1591.5999755859</ele>
        <time>2014-02-12T07:52:04.000Z</time>
      </trkpt>
      <trkpt lat="45.91713" lon="6.48836">
        <ele>1591.5999755859</ele>
        <time>2014-02-12T07:52:05.000Z</time>
      </trkpt>
      <trkpt lat="45.91713" lon="6.48836">
        <ele>1591.5999755859</ele>
        <time>2014-02-12T07:52:06.000Z</time>
      </trkpt>
      <trkpt lat="45.91713" lon="6.48836">
        <ele>1591.5999755859</ele>
        <time>2014-02-12T07:52:07.000Z</time>
      </trkpt>
      <trkpt lat="45.91713" lon="6.48836">
        <ele>1591.5999755859</ele>
        <time>2014-02-12T07:52:08.000Z</time>
      </trkpt>
      <trkpt lat="45.91713" lon="6.48836">
        <ele>1591.5999755859</ele>
        <time>2014-02-12T07:52:09.000Z</time>
      </trkpt>
      <trkpt lat="45.91713" lon="6.48836">
        <ele>1591.5999755859</ele>
        <time>2014-02-12T07:52:10.000Z</time>
      </trkpt>
      <trkpt lat="45.91713" lon="6.48837">
        <ele>1592</ele>
        <time>2014-02-12T07:52:11.000Z</time>
      </trkpt>
      <trkpt lat="45.91713" lon="6.48837">
        <ele>1592.1999511719</ele>
        <time>2014-02-12T07:52:12.000Z</time>
      </trkpt>
      <trkpt lat="45.91712" lon="6.48839">
        <ele>1593</ele>
        <time>2014-02-12T07:52:13.000Z</time>
      </trkpt>
      <trkpt lat="45.91712" lon="6.4884">
        <ele>1593.8000488281</ele>
        <time>2014-02-12T07:52:14.000Z</time>
      </trkpt>
      <trkpt lat="45.91712" lon="6.48842">
        <ele>1594.4000244141</ele>
        <time>2014-02-12T07:52:15.000Z</time>
      </trkpt>
      <trkpt lat="45.91711" lon="6.48843">
        <ele>1595.1999511719</ele>
        <time>2014-02-12T07:52:16.000Z</time>
      </trkpt>
      <trkpt lat="45.91711" lon="6.48845">
        <ele>1596</ele>
        <time>2014-02-12T07:52:17.000Z</time>
      </trkpt>
      <trkpt lat="45.9171" lon="6.48846">
        <ele>1596.5999755859</ele>
        <time>2014-02-12T07:52:18.000Z</time>
      </trkpt>
      <trkpt lat="45.9171" lon="6.48847">
        <ele>1597</ele>
        <time>2014-02-12T07:52:19.000Z</time>
      </trkpt>
      <trkpt lat="45.9171" lon="6.48848">
        <ele>1597.4000244141</ele>
        <time>2014-02-12T07:52:20.000Z</time>
      </trkpt>
      <trkpt lat="45.91709" lon="6.48849">
        <ele>1598</ele>
        <time>2014-02-12T07:52:21.000Z</time>
      </trkpt>
      <trkpt lat="45.91708" lon="6.48851">
        <ele>1598.5999755859</ele>
        <time>2014-02-12T07:52:22.000Z</time>
      </trkpt>
      <trkpt lat="45.91707" lon="6.48851">
        <ele>1598.4000244141</ele>
        <time>2014-02-12T07:52:23.000Z</time>
      </trkpt>
      <trkpt lat="45.91706" lon="6.48851">
        <ele>1598.1999511719</ele>
        <time>2014-02-12T07:52:24.000Z</time>
      </trkpt>
      <trkpt lat="45.91705" lon="6.4885">
        <ele>1598</ele>
        <time>2014-02-12T07:52:25.000Z</time>
      </trkpt>
      <trkpt lat="45.91704" lon="6.4885">
        <ele>1597.8000488281</ele>
        <time>2014-02-12T07:52:26.000Z</time>
      </trkpt>
      <trkpt lat="45.91704" lon="6.4885">
        <ele>1597.5999755859</ele>
        <time>2014-02-12T07:52:27.000Z</time>
      </trkpt>
      <trkpt lat="45.91704" lon="6.4885">
        <ele>1597.5999755859</ele>
        <time>2014-02-12T07:52:28.000Z</time>
      </trkpt>
      <trkpt lat="45.91704" lon="6.4885">
        <ele>1597.5999755859</ele>
        <time>2014-02-12T07:52:29.000Z</time>
      </trkpt>
      <trkpt lat="45.91704" lon="6.4885">
        <ele>1597.5999755859</ele>
        <time>2014-02-12T07:52:30.000Z</time>
      </trkpt>
      <trkpt lat="45.91704" lon="6.4885">
        <ele>1597.5999755859</ele>
        <time>2014-02-12T07:52:31.000Z</time>
      </trkpt>
      <trkpt lat="45.91703" lon="6.4885">
        <ele>1597.8000488281</ele>
        <time>2014-02-12T07:52:32.000Z</time>
      </trkpt>
      <trkpt lat="45.91703" lon="6.4885">
        <ele>1597.8000488281</ele>
        <time>2014-02-12T07:52:33.000Z</time>
      </trkpt>
      <trkpt lat="45.91702" lon="6.4885">
        <ele>1597.8000488281</ele>
        <time>2014-02-12T07:52:34.000Z</time>
      </trkpt>
      <trkpt lat="45.91701" lon="6.4885">
        <ele>1597.5999755859</ele>
        <time>2014-02-12T07:52:35.000Z</time>
      </trkpt>
      <trkpt lat="45.917" lon="6.4885">
        <ele>1597.4000244141</ele>
        <time>2014-02-12T07:52:36.000Z</time>
      </trkpt>
      <trkpt lat="45.91699" lon="6.4885">
        <ele>1597.5999755859</ele>
        <time>2014-02-12T07:52:37.000Z</time>
      </trkpt>
      <trkpt lat="45.91698" lon="6.48851">
        <ele>1597.8000488281</ele>
        <time>2014-02-12T07:52:38.000Z</time>
      </trkpt>
      <trkpt lat="45.91696" lon="6.48852">
        <ele>1598</ele>
        <time>2014-02-12T07:52:39.000Z</time>
      </trkpt>
      <trkpt lat="45.91694" lon="6.48852">
        <ele>1597.8000488281</ele>
        <time>2014-02-12T07:52:40.000Z</time>
      </trkpt>
      <trkpt lat="45.91693" lon="6.48851">
        <ele>1597.5999755859</ele>
        <time>2014-02-12T07:52:41.000Z</time>
      </trkpt>
      <trkpt lat="45.91692" lon="6.48851">
        <ele>1597.4000244141</ele>
        <time>2014-02-12T07:52:42.000Z</time>
      </trkpt>
      <trkpt lat="45.91691" lon="6.48851">
        <ele>1597.4000244141</ele>
        <time>2014-02-12T07:52:43.000Z</time>
      </trkpt>
      <trkpt lat="45.91691" lon="6.48851">
        <ele>1597.1999511719</ele>
        <time>2014-02-12T07:52:44.000Z</time>
      </trkpt>
      <trkpt lat="45.9169" lon="6.48851">
        <ele>1597</ele>
        <time>2014-02-12T07:52:45.000Z</time>
      </trkpt>
      <trkpt lat="45.9169" lon="6.48851">
        <ele>1597</ele>
        <time>2014-02-12T07:52:46.000Z</time>
      </trkpt>
      <trkpt lat="45.9169" lon="6.48852">
        <ele>1597.5999755859</ele>
        <time>2014-02-12T07:52:47.000Z</time>
      </trkpt>
      <trkpt lat="45.9169" lon="6.48852">
        <ele>1597.5999755859</ele>
        <time>2014-02-12T07:52:48.000Z</time>
      </trkpt>
      <trkpt lat="45.9169" lon="6.48852">
        <ele>1597.5999755859</ele>
        <time>2014-02-12T07:52:49.000Z</time>
      </trkpt>
      <trkpt lat="45.9169" lon="6.48852">
        <ele>1597.5999755859</ele>
        <time>2014-02-12T07:52:50.000Z</time>
      </trkpt>
      <trkpt lat="45.9169" lon="6.48852">
        <ele>1597.5999755859</ele>
        <time>2014-02-12T07:52:51.000Z</time>
      </trkpt>
      <trkpt lat="45.9169" lon="6.48852">
        <ele>1597.5999755859</ele>
        <time>2014-02-12T07:52:52.000Z</time>
      </trkpt>
      <trkpt lat="45.9169" lon="6.48852">
        <ele>1597.5999755859</ele>
        <time>2014-02-12T07:52:54.000Z</time>
      </trkpt>
      <trkpt lat="45.9169" lon="6.48852">
        <ele>1597.5999755859</ele>
        <time>2014-02-12T07:52:55.000Z</time>
      </trkpt>
      <trkpt lat="45.9169" lon="6.48852">
        <ele>1597.5999755859</ele>
        <time>2014-02-12T07:52:56.000Z</time>
      </trkpt>
      <trkpt lat="45.9169" lon="6.48852">
        <ele>1597.5999755859</ele>
        <time>2014-02-12T07:52:57.000Z</time>
      </trkpt>
      <trkpt lat="45.9169" lon="6.48853">
        <ele>1598</ele>
        <time>2014-02-12T07:52:58.000Z</time>
      </trkpt>
      <trkpt lat="45.91689" lon="6.48853">
        <ele>1598.1999511719</ele>
        <time>2014-02-12T07:52:59.000Z</time>
      </trkpt>
      <trkpt lat="45.91688" lon="6.48854">
        <ele>1598.4000244141</ele>
        <time>2014-02-12T07:53:01.000Z</time>
      </trkpt>
      <trkpt lat="45.91687" lon="6.48855">
        <ele>1599</ele>
        <time>2014-02-12T07:53:02.000Z</time>
      </trkpt>
      <trkpt lat="45.91687" lon="6.48856">
        <ele>1599.4000244141</ele>
        <time>2014-02-12T07:53:03.000Z</time>
      </trkpt>
      <trkpt lat="45.91686" lon="6.48857">
        <ele>1599.5999755859</ele>
        <time>2014-02-12T07:53:04.000Z</time>
      </trkpt>
      <trkpt lat="45.91685" lon="6.48858">
        <ele>1600</ele>
        <time>2014-02-12T07:53:05.000Z</time>
      </trkpt>
      <trkpt lat="45.91684" lon="6.48858">
        <ele>1600.1999511719</ele>
        <time>2014-02-12T07:53:06.000Z</time>
      </trkpt>
      <trkpt lat="45.91684" lon="6.48859">
        <ele>1600.4000244141</ele>
        <time>2014-02-12T07:53:07.000Z</time>
      </trkpt>
      <trkpt lat="45.91683" lon="6.4886">
        <ele>1601</ele>
        <time>2014-02-12T07:53:08.000Z</time>
      </trkpt>
      <trkpt lat="45.91682" lon="6.48861">
        <ele>1601.1999511719</ele>
        <time>2014-02-12T07:53:09.000Z</time>
      </trkpt>
      <trkpt lat="45.91681" lon="6.48861">
        <ele>1601.4000244141</ele>
        <time>2014-02-12T07:53:10.000Z</time>
      </trkpt>
      <trkpt lat="45.9168" lon="6.48861">
        <ele>1601.4000244141</ele>
        <time>2014-02-12T07:53:11.000Z</time>
      </trkpt>
      <trkpt lat="45.9168" lon="6.48861">
        <ele>1601.4000244141</ele>
        <time>2014-02-12T07:53:12.000Z</time>
      </trkpt>
      <trkpt lat="45.91679" lon="6.48862">
        <ele>1601.5999755859</ele>
        <time>2014-02-12T07:53:13.000Z</time>
      </trkpt>
      <trkpt lat="45.91679" lon="6.48863">
        <ele>1602.1999511719</ele>
        <time>2014-02-12T07:53:14.000Z</time>
      </trkpt>
      <trkpt lat="45.91679" lon="6.48863">
        <ele>1602.1999511719</ele>
        <time>2014-02-12T07:53:15.000Z</time>
      </trkpt>
      <trkpt lat="45.91679" lon="6.48863">
        <ele>1602</ele>
        <time>2014-02-12T07:53:16.000Z</time>
      </trkpt>
      <trkpt lat="45.91679" lon="6.48863">
        <ele>1602</ele>
        <time>2014-02-12T07:53:17.000Z</time>
      </trkpt>
      <trkpt lat="45.91679" lon="6.48863">
        <ele>1602</ele>
        <time>2014-02-12T07:53:18.000Z</time>
      </trkpt>
      <trkpt lat="45.91679" lon="6.48863">
        <ele>1602</ele>
        <time>2014-02-12T07:53:19.000Z</time>
      </trkpt>
      <trkpt lat="45.91679" lon="6.48863">
        <ele>1602</ele>
        <time>2014-02-12T07:53:20.000Z</time>
      </trkpt>
      <trkpt lat="45.91679" lon="6.48863">
        <ele>1602.1999511719</ele>
        <time>2014-02-12T07:53:21.000Z</time>
      </trkpt>
      <trkpt lat="45.91678" lon="6.48864">
        <ele>1602.4000244141</ele>
        <time>2014-02-12T07:53:22.000Z</time>
      </trkpt>
      <trkpt lat="45.91677" lon="6.48864">
        <ele>1602.4000244141</ele>
        <time>2014-02-12T07:53:23.000Z</time>
      </trkpt>
      <trkpt lat="45.91677" lon="6.48864">
        <ele>1602.4000244141</ele>
        <time>2014-02-12T07:53:24.000Z</time>
      </trkpt>
      <trkpt lat="45.91675" lon="6.48864">
        <ele>1602.1999511719</ele>
        <time>2014-02-12T07:53:25.000Z</time>
      </trkpt>
      <trkpt lat="45.91674" lon="6.48863">
        <ele>1601.8000488281</ele>
        <time>2014-02-12T07:53:26.000Z</time>
      </trkpt>
      <trkpt lat="45.91673" lon="6.48863">
        <ele>1601.5999755859</ele>
        <time>2014-02-12T07:53:27.000Z</time>
      </trkpt>
      <trkpt lat="45.91673" lon="6.48863">
        <ele>1601.4000244141</ele>
        <time>2014-02-12T07:53:28.000Z</time>
      </trkpt>
      <trkpt lat="45.91672" lon="6.48861">
        <ele>1600.8000488281</ele>
        <time>2014-02-12T07:53:29.000Z</time>
      </trkpt>
      <trkpt lat="45.91672" lon="6.48861">
        <ele>1600.8000488281</ele>
        <time>2014-02-12T07:53:30.000Z</time>
      </trkpt>
      <trkpt lat="45.91672" lon="6.48861">
        <ele>1600.8000488281</ele>
        <time>2014-02-12T07:53:31.000Z</time>
      </trkpt>
      <trkpt lat="45.91672" lon="6.48861">
        <ele>1600.8000488281</ele>
        <time>2014-02-12T07:53:32.000Z</time>
      </trkpt>
      <trkpt lat="45.91672" lon="6.48862">
        <ele>1601.1999511719</ele>
        <time>2014-02-12T07:53:33.000Z</time>
      </trkpt>
      <trkpt lat="45.91671" lon="6.48862">
        <ele>1601</ele>
        <time>2014-02-12T07:53:34.000Z</time>
      </trkpt>
      <trkpt lat="45.91671" lon="6.48862">
        <ele>1601</ele>
        <time>2014-02-12T07:53:35.000Z</time>
      </trkpt>
      <trkpt lat="45.9167" lon="6.48862">
        <ele>1600.8000488281</ele>
        <time>2014-02-12T07:53:36.000Z</time>
      </trkpt>
      <trkpt lat="45.91669" lon="6.48862">
        <ele>1600.8000488281</ele>
        <time>2014-02-12T07:53:38.000Z</time>
      </trkpt>
      <trkpt lat="45.9167" lon="6.48863">
        <ele>1601.4000244141</ele>
        <time>2014-02-12T07:53:39.000Z</time>
      </trkpt>
      <trkpt lat="45.9167" lon="6.48863">
        <ele>1601.4000244141</ele>
        <time>2014-02-12T07:53:40.000Z</time>
      </trkpt>
      <trkpt lat="45.9167" lon="6.48863">
        <ele>1601.4000244141</ele>
        <time>2014-02-12T07:53:41.000Z</time>
      </trkpt>
      <trkpt lat="45.9167" lon="6.48863">
        <ele>1601.4000244141</ele>
        <time>2014-02-12T07:53:42.000Z</time>
      </trkpt>
      <trkpt lat="45.9167" lon="6.48863">
        <ele>1601.4000244141</ele>
        <time>2014-02-12T07:53:43.000Z</time>
      </trkpt>
      <trkpt lat="45.9167" lon="6.48863">
        <ele>1601.4000244141</ele>
        <time>2014-02-12T07:53:44.000Z</time>
      </trkpt>
      <trkpt lat="45.9167" lon="6.48863">
        <ele>1601.4000244141</ele>
        <time>2014-02-12T07:53:45.000Z</time>
      </trkpt>
      <trkpt lat="45.9167" lon="6.48863">
        <ele>1601.4000244141</ele>
        <time>2014-02-12T07:53:46.000Z</time>
      </trkpt>
      <trkpt lat="45.9167" lon="6.48863">
        <ele>1601.4000244141</ele>
        <time>2014-02-12T07:53:48.000Z</time>
      </trkpt>
      <trkpt lat="45.9167" lon="6.48863">
        <ele>1601.4000244141</ele>
        <time>2014-02-12T07:53:49.000Z</time>
      </trkpt>
      <trkpt lat="45.9167" lon="6.48863">
        <ele>1601.4000244141</ele>
        <time>2014-02-12T07:53:50.000Z</time>
      </trkpt>
      <trkpt lat="45.9167" lon="6.48863">
        <ele>1601.4000244141</ele>
        <time>2014-02-12T07:53:51.000Z</time>
      </trkpt>
      <trkpt lat="45.91668" lon="6.48863">
        <ele>1601</ele>
        <time>2014-02-12T07:53:53.000Z</time>
      </trkpt>
      <trkpt lat="45.91667" lon="6.48862">
        <ele>1600.8000488281</ele>
        <time>2014-02-12T07:53:54.000Z</time>
      </trkpt>
      <trkpt lat="45.91666" lon="6.48863">
        <ele>1601</ele>
        <time>2014-02-12T07:53:55.000Z</time>
      </trkpt>
      <trkpt lat="45.91666" lon="6.48864">
        <ele>1601.4000244141</ele>
        <time>2014-02-12T07:53:56.000Z</time>
      </trkpt>
      <trkpt lat="45.91665" lon="6.48864">
        <ele>1601.5999755859</ele>
        <time>2014-02-12T07:53:57.000Z</time>
      </trkpt>
      <trkpt lat="45.91664" lon="6.48865">
        <ele>1601.5999755859</ele>
        <time>2014-02-12T07:53:58.000Z</time>
      </trkpt>
      <trkpt lat="45.91663" lon="6.48865">
        <ele>1601.8000488281</ele>
        <time>2014-02-12T07:53:59.000Z</time>
      </trkpt>
      <trkpt lat="45.91662" lon="6.48865">
        <ele>1601.8000488281</ele>
        <time>2014-02-12T07:54:00.000Z</time>
      </trkpt>
      <trkpt lat="45.91661" lon="6.48866">
        <ele>1602</ele>
        <time>2014-02-12T07:54:01.000Z</time>
      </trkpt>
      <trkpt lat="45.91661" lon="6.48866">
        <ele>1602.1999511719</ele>
        <time>2014-02-12T07:54:02.000Z</time>
      </trkpt>
      <trkpt lat="45.9166" lon="6.48866">
        <ele>1602</ele>
        <time>2014-02-12T07:54:03.000Z</time>
      </trkpt>
      <trkpt lat="45.91659" lon="6.48866">
        <ele>1602</ele>
        <time>2014-02-12T07:54:04.000Z</time>
      </trkpt>
      <trkpt lat="45.91658" lon="6.48867">
        <ele>1602.4000244141</ele>
        <time>2014-02-12T07:54:05.000Z</time>
      </trkpt>
      <trkpt lat="45.91658" lon="6.48867">
        <ele>1602.4000244141</ele>
        <time>2014-02-12T07:54:06.000Z</time>
      </trkpt>
      <trkpt lat="45.91658" lon="6.48868">
        <ele>1602.8000488281</ele>
        <time>2014-02-12T07:54:07.000Z</time>
      </trkpt>
      <trkpt lat="45.91658" lon="6.48868">
        <ele>1602.8000488281</ele>
        <time>2014-02-12T07:54:08.000Z</time>
      </trkpt>
      <trkpt lat="45.91657" lon="6.48868">
        <ele>1602.5999755859</ele>
        <time>2014-02-12T07:54:09.000Z</time>
      </trkpt>
      <trkpt lat="45.91657" lon="6.48868">
        <ele>1602.4000244141</ele>
        <time>2014-02-12T07:54:10.000Z</time>
      </trkpt>
      <trkpt lat="45.91656" lon="6.48867">
        <ele>1602.1999511719</ele>
        <time>2014-02-12T07:54:11.000Z</time>
      </trkpt>
      <trkpt lat="45.91655" lon="6.48867">
        <ele>1602</ele>
        <time>2014-02-12T07:54:12.000Z</time>
      </trkpt>
      <trkpt lat="45.91655" lon="6.48867">
        <ele>1602.1999511719</ele>
        <time>2014-02-12T07:54:13.000Z</time>
      </trkpt>
      <trkpt lat="45.91654" lon="6.48868">
        <ele>1602.1999511719</ele>
        <time>2014-02-12T07:54:14.000Z</time>
      </trkpt>
      <trkpt lat="45.91654" lon="6.48868">
        <ele>1602.5999755859</ele>
        <time>2014-02-12T07:54:15.000Z</time>
      </trkpt>
      <trkpt lat="45.91653" lon="6.48868">
        <ele>1602.5999755859</ele>
        <time>2014-02-12T07:54:16.000Z</time>
      </trkpt>
      <trkpt lat="45.91652" lon="6.48868">
        <ele>1602.1999511719</ele>
        <time>2014-02-12T07:54:17.000Z</time>
      </trkpt>
      <trkpt lat="45.91651" lon="6.48868">
        <ele>1602</ele>
        <time>2014-02-12T07:54:18.000Z</time>
      </trkpt>
      <trkpt lat="45.91651" lon="6.48867">
        <ele>1601.8000488281</ele>
        <time>2014-02-12T07:54:19.000Z</time>
      </trkpt>
      <trkpt lat="45.9165" lon="6.48867">
        <ele>1601.8000488281</ele>
        <time>2014-02-12T07:54:20.000Z</time>
      </trkpt>
      <trkpt lat="45.91648" lon="6.48867">
        <ele>1601.4000244141</ele>
        <time>2014-02-12T07:54:21.000Z</time>
      </trkpt>
      <trkpt lat="45.91648" lon="6.48866">
        <ele>1601.1999511719</ele>
        <time>2014-02-12T07:54:22.000Z</time>
      </trkpt>
      <trkpt lat="45.91647" lon="6.48867">
        <ele>1601.4000244141</ele>
        <time>2014-02-12T07:54:23.000Z</time>
      </trkpt>
      <trkpt lat="45.91647" lon="6.48868">
        <ele>1601.5999755859</ele>
        <time>2014-02-12T07:54:24.000Z</time>
      </trkpt>
      <trkpt lat="45.91645" lon="6.48868">
        <ele>1601.4000244141</ele>
        <time>2014-02-12T07:54:25.000Z</time>
      </trkpt>
      <trkpt lat="45.91644" lon="6.48868">
        <ele>1601.5999755859</ele>
        <time>2014-02-12T07:54:26.000Z</time>
      </trkpt>
      <trkpt lat="45.91644" lon="6.48869">
        <ele>1602</ele>
        <time>2014-02-12T07:54:27.000Z</time>
      </trkpt>
      <trkpt lat="45.91643" lon="6.4887">
        <ele>1602.4000244141</ele>
        <time>2014-02-12T07:54:28.000Z</time>
      </trkpt>
      <trkpt lat="45.91643" lon="6.4887">
        <ele>1602.5999755859</ele>
        <time>2014-02-12T07:54:29.000Z</time>
      </trkpt>
      <trkpt lat="45.91643" lon="6.4887">
        <ele>1602.5999755859</ele>
        <time>2014-02-12T07:54:30.000Z</time>
      </trkpt>
      <trkpt lat="45.91643" lon="6.48871">
        <ele>1603.1999511719</ele>
        <time>2014-02-12T07:54:31.000Z</time>
      </trkpt>
      <trkpt lat="45.91643" lon="6.48872">
        <ele>1603.4000244141</ele>
        <time>2014-02-12T07:54:32.000Z</time>
      </trkpt>
      <trkpt lat="45.91643" lon="6.48872">
        <ele>1603.4000244141</ele>
        <time>2014-02-12T07:54:33.000Z</time>
      </trkpt>
      <trkpt lat="45.91643" lon="6.48872">
        <ele>1603.4000244141</ele>
        <time>2014-02-12T07:54:34.000Z</time>
      </trkpt>
      <trkpt lat="45.91643" lon="6.48872">
        <ele>1603.4000244141</ele>
        <time>2014-02-12T07:54:35.000Z</time>
      </trkpt>
      <trkpt lat="45.91643" lon="6.48872">
        <ele>1603.4000244141</ele>
        <time>2014-02-12T07:54:36.000Z</time>
      </trkpt>
      <trkpt lat="45.91643" lon="6.48872">
        <ele>1603.4000244141</ele>
        <time>2014-02-12T07:54:37.000Z</time>
      </trkpt>
      <trkpt lat="45.91643" lon="6.48872">
        <ele>1603.4000244141</ele>
        <time>2014-02-12T07:54:38.000Z</time>
      </trkpt>
      <trkpt lat="45.91643" lon="6.48872">
        <ele>1603.4000244141</ele>
        <time>2014-02-12T07:54:39.000Z</time>
      </trkpt>
      <trkpt lat="45.91643" lon="6.48872">
        <ele>1603.4000244141</ele>
        <time>2014-02-12T07:54:40.000Z</time>
      </trkpt>
      <trkpt lat="45.91643" lon="6.48872">
        <ele>1603.4000244141</ele>
        <time>2014-02-12T07:54:41.000Z</time>
      </trkpt>
      <trkpt lat="45.91643" lon="6.48872">
        <ele>1603.4000244141</ele>
        <time>2014-02-12T07:54:42.000Z</time>
      </trkpt>
      <trkpt lat="45.91643" lon="6.48872">
        <ele>1603.4000244141</ele>
        <time>2014-02-12T07:54:43.000Z</time>
      </trkpt>
      <trkpt lat="45.91643" lon="6.48872">
        <ele>1603.4000244141</ele>
        <time>2014-02-12T07:54:44.000Z</time>
      </trkpt>
      <trkpt lat="45.91643" lon="6.48872">
        <ele>1603.4000244141</ele>
        <time>2014-02-12T07:54:46.000Z</time>
      </trkpt>
      <trkpt lat="45.91643" lon="6.48872">
        <ele>1603.4000244141</ele>
        <time>2014-02-12T07:54:47.000Z</time>
      </trkpt>
      <trkpt lat="45.91643" lon="6.48872">
        <ele>1603.4000244141</ele>
        <time>2014-02-12T07:54:48.000Z</time>
      </trkpt>
      <trkpt lat="45.91643" lon="6.48872">
        <ele>1603.4000244141</ele>
        <time>2014-02-12T07:54:49.000Z</time>
      </trkpt>
      <trkpt lat="45.91643" lon="6.48872">
        <ele>1603.4000244141</ele>
        <time>2014-02-12T07:54:50.000Z</time>
      </trkpt>
      <trkpt lat="45.91643" lon="6.48872">
        <ele>1603.4000244141</ele>
        <time>2014-02-12T07:54:51.000Z</time>
      </trkpt>
      <trkpt lat="45.91643" lon="6.48872">
        <ele>1603.4000244141</ele>
        <time>2014-02-12T07:54:53.000Z</time>
      </trkpt>
      <trkpt lat="45.91643" lon="6.48872">
        <ele>1603.4000244141</ele>
        <time>2014-02-12T07:54:54.000Z</time>
      </trkpt>
      <trkpt lat="45.91643" lon="6.48872">
        <ele>1603.4000244141</ele>
        <time>2014-02-12T07:54:55.000Z</time>
      </trkpt>
      <trkpt lat="45.91643" lon="6.48872">
        <ele>1603.4000244141</ele>
        <time>2014-02-12T07:54:56.000Z</time>
      </trkpt>
      <trkpt lat="45.91643" lon="6.48872">
        <ele>1603.4000244141</ele>
        <time>2014-02-12T07:54:57.000Z</time>
      </trkpt>
      <trkpt lat="45.91643" lon="6.48872">
        <ele>1603.4000244141</ele>
        <time>2014-02-12T07:54:58.000Z</time>
      </trkpt>
      <trkpt lat="45.91643" lon="6.48872">
        <ele>1603.4000244141</ele>
        <time>2014-02-12T07:54:59.000Z</time>
      </trkpt>
      <trkpt lat="45.91643" lon="6.48872">
        <ele>1603.4000244141</ele>
        <time>2014-02-12T07:55:00.000Z</time>
      </trkpt>
      <trkpt lat="45.91643" lon="6.48872">
        <ele>1603.4000244141</ele>
        <time>2014-02-12T07:55:01.000Z</time>
      </trkpt>
      <trkpt lat="45.91643" lon="6.48872">
        <ele>1603.4000244141</ele>
        <time>2014-02-12T07:55:03.000Z</time>
      </trkpt>
      <trkpt lat="45.91643" lon="6.48872">
        <ele>1603.4000244141</ele>
        <time>2014-02-12T07:55:04.000Z</time>
      </trkpt>
      <trkpt lat="45.91642" lon="6.48873">
        <ele>1603.5999755859</ele>
        <time>2014-02-12T07:55:05.000Z</time>
      </trkpt>
      <trkpt lat="45.91641" lon="6.48874">
        <ele>1604.1999511719</ele>
        <time>2014-02-12T07:55:06.000Z</time>
      </trkpt>
      <trkpt lat="45.9164" lon="6.48874">
        <ele>1604.1999511719</ele>
        <time>2014-02-12T07:55:07.000Z</time>
      </trkpt>
      <trkpt lat="45.9164" lon="6.48874">
        <ele>1604.4000244141</ele>
        <time>2014-02-12T07:55:08.000Z</time>
      </trkpt>
      <trkpt lat="45.91639" lon="6.48875">
        <ele>1604.8000488281</ele>
        <time>2014-02-12T07:55:09.000Z</time>
      </trkpt>
      <trkpt lat="45.91638" lon="6.48875">
        <ele>1605</ele>
        <time>2014-02-12T07:55:10.000Z</time>
      </trkpt>
      <trkpt lat="45.91638" lon="6.48876">
        <ele>1605.1999511719</ele>
        <time>2014-02-12T07:55:11.000Z</time>
      </trkpt>
      <trkpt lat="45.91637" lon="6.48876">
        <ele>1605.4000244141</ele>
        <time>2014-02-12T07:55:12.000Z</time>
      </trkpt>
      <trkpt lat="45.91637" lon="6.48876">
        <ele>1605.4000244141</ele>
        <time>2014-02-12T07:55:13.000Z</time>
      </trkpt>
      <trkpt lat="45.91635" lon="6.48876">
        <ele>1605.4000244141</ele>
        <time>2014-02-12T07:55:14.000Z</time>
      </trkpt>
      <trkpt lat="45.91635" lon="6.48875">
        <ele>1605.1999511719</ele>
        <time>2014-02-12T07:55:15.000Z</time>
      </trkpt>
      <trkpt lat="45.91634" lon="6.48875">
        <ele>1605.1999511719</ele>
        <time>2014-02-12T07:55:16.000Z</time>
      </trkpt>
      <trkpt lat="45.91633" lon="6.48875">
        <ele>1605.1999511719</ele>
        <time>2014-02-12T07:55:17.000Z</time>
      </trkpt>
      <trkpt lat="45.91633" lon="6.48875">
        <ele>1605</ele>
        <time>2014-02-12T07:55:18.000Z</time>
      </trkpt>
      <trkpt lat="45.91632" lon="6.48875">
        <ele>1605.1999511719</ele>
        <time>2014-02-12T07:55:19.000Z</time>
      </trkpt>
      <trkpt lat="45.91632" lon="6.48875">
        <ele>1605.4000244141</ele>
        <time>2014-02-12T07:55:20.000Z</time>
      </trkpt>
      <trkpt lat="45.91631" lon="6.48876">
        <ele>1605.5999755859</ele>
        <time>2014-02-12T07:55:21.000Z</time>
      </trkpt>
      <trkpt lat="45.9163" lon="6.48878">
        <ele>1606.4000244141</ele>
        <time>2014-02-12T07:55:22.000Z</time>
      </trkpt>
      <trkpt lat="45.9163" lon="6.48878">
        <ele>1606.5999755859</ele>
        <time>2014-02-12T07:55:23.000Z</time>
      </trkpt>
      <trkpt lat="45.91629" lon="6.48878">
        <ele>1606.8000488281</ele>
        <time>2014-02-12T07:55:24.000Z</time>
      </trkpt>
      <trkpt lat="45.91629" lon="6.48879">
        <ele>1607.1999511719</ele>
        <time>2014-02-12T07:55:25.000Z</time>
      </trkpt>
      <trkpt lat="45.91628" lon="6.4888">
        <ele>1607.5999755859</ele>
        <time>2014-02-12T07:55:26.000Z</time>
      </trkpt>
      <trkpt lat="45.91628" lon="6.4888">
        <ele>1607.8000488281</ele>
        <time>2014-02-12T07:55:27.000Z</time>
      </trkpt>
      <trkpt lat="45.91627" lon="6.4888">
        <ele>1608</ele>
        <time>2014-02-12T07:55:28.000Z</time>
      </trkpt>
      <trkpt lat="45.91626" lon="6.48881">
        <ele>1608.1999511719</ele>
        <time>2014-02-12T07:55:29.000Z</time>
      </trkpt>
      <trkpt lat="45.91625" lon="6.48881">
        <ele>1608.4000244141</ele>
        <time>2014-02-12T07:55:30.000Z</time>
      </trkpt>
      <trkpt lat="45.91624" lon="6.4888">
        <ele>1608.1999511719</ele>
        <time>2014-02-12T07:55:31.000Z</time>
      </trkpt>
      <trkpt lat="45.91624" lon="6.48881">
        <ele>1608.4000244141</ele>
        <time>2014-02-12T07:55:32.000Z</time>
      </trkpt>
      <trkpt lat="45.91623" lon="6.48881">
        <ele>1608.5999755859</ele>
        <time>2014-02-12T07:55:33.000Z</time>
      </trkpt>
      <trkpt lat="45.91622" lon="6.48881">
        <ele>1608.4000244141</ele>
        <time>2014-02-12T07:55:34.000Z</time>
      </trkpt>
      <trkpt lat="45.91622" lon="6.48881">
        <ele>1608.4000244141</ele>
        <time>2014-02-12T07:55:35.000Z</time>
      </trkpt>
      <trkpt lat="45.91621" lon="6.4888">
        <ele>1608.4000244141</ele>
        <time>2014-02-12T07:55:36.000Z</time>
      </trkpt>
      <trkpt lat="45.9162" lon="6.4888">
        <ele>1608.1999511719</ele>
        <time>2014-02-12T07:55:37.000Z</time>
      </trkpt>
      <trkpt lat="45.91619" lon="6.4888">
        <ele>1608.1999511719</ele>
        <time>2014-02-12T07:55:38.000Z</time>
      </trkpt>
      <trkpt lat="45.91619" lon="6.48881">
        <ele>1608.1999511719</ele>
        <time>2014-02-12T07:55:39.000Z</time>
      </trkpt>
      <trkpt lat="45.91618" lon="6.48881">
        <ele>1608</ele>
        <time>2014-02-12T07:55:40.000Z</time>
      </trkpt>
      <trkpt lat="45.91617" lon="6.48881">
        <ele>1608</ele>
        <time>2014-02-12T07:55:41.000Z</time>
      </trkpt>
      <trkpt lat="45.91616" lon="6.48881">
        <ele>1607.8000488281</ele>
        <time>2014-02-12T07:55:42.000Z</time>
      </trkpt>
      <trkpt lat="45.91615" lon="6.48881">
        <ele>1607.8000488281</ele>
        <time>2014-02-12T07:55:43.000Z</time>
      </trkpt>
      <trkpt lat="45.91615" lon="6.48881">
        <ele>1607.8000488281</ele>
        <time>2014-02-12T07:55:44.000Z</time>
      </trkpt>
      <trkpt lat="45.91614" lon="6.48881">
        <ele>1607.8000488281</ele>
        <time>2014-02-12T07:55:45.000Z</time>
      </trkpt>
      <trkpt lat="45.91613" lon="6.48882">
        <ele>1608</ele>
        <time>2014-02-12T07:55:46.000Z</time>
      </trkpt>
      <trkpt lat="45.91613" lon="6.48883">
        <ele>1608</ele>
        <time>2014-02-12T07:55:47.000Z</time>
      </trkpt>
      <trkpt lat="45.91612" lon="6.48883">
        <ele>1608</ele>
        <time>2014-02-12T07:55:48.000Z</time>
      </trkpt>
      <trkpt lat="45.91612" lon="6.48884">
        <ele>1608.1999511719</ele>
        <time>2014-02-12T07:55:49.000Z</time>
      </trkpt>
      <trkpt lat="45.91611" lon="6.48884">
        <ele>1608.1999511719</ele>
        <time>2014-02-12T07:55:50.000Z</time>
      </trkpt>
      <trkpt lat="45.91611" lon="6.48884">
        <ele>1608.1999511719</ele>
        <time>2014-02-12T07:55:51.000Z</time>
      </trkpt>
      <trkpt lat="45.9161" lon="6.48885">
        <ele>1608.1999511719</ele>
        <time>2014-02-12T07:55:52.000Z</time>
      </trkpt>
      <trkpt lat="45.9161" lon="6.48885">
        <ele>1608.1999511719</ele>
        <time>2014-02-12T07:55:53.000Z</time>
      </trkpt>
      <trkpt lat="45.91609" lon="6.48885">
        <ele>1608.4000244141</ele>
        <time>2014-02-12T07:55:54.000Z</time>
      </trkpt>
      <trkpt lat="45.91608" lon="6.48886">
        <ele>1608.4000244141</ele>
        <time>2014-02-12T07:55:55.000Z</time>
      </trkpt>
      <trkpt lat="45.91608" lon="6.48886">
        <ele>1608.4000244141</ele>
        <time>2014-02-12T07:55:56.000Z</time>
      </trkpt>
      <trkpt lat="45.91607" lon="6.48887">
        <ele>1608.5999755859</ele>
        <time>2014-02-12T07:55:57.000Z</time>
      </trkpt>
      <trkpt lat="45.91607" lon="6.48887">
        <ele>1608.5999755859</ele>
        <time>2014-02-12T07:55:58.000Z</time>
      </trkpt>
      <trkpt lat="45.91607" lon="6.48888">
        <ele>1608.8000488281</ele>
        <time>2014-02-12T07:55:59.000Z</time>
      </trkpt>
      <trkpt lat="45.91606" lon="6.48888">
        <ele>1608.8000488281</ele>
        <time>2014-02-12T07:56:00.000Z</time>
      </trkpt>
      <trkpt lat="45.91606" lon="6.48888">
        <ele>1608.8000488281</ele>
        <time>2014-02-12T07:56:01.000Z</time>
      </trkpt>
      <trkpt lat="45.91606" lon="6.48889">
        <ele>1609.1999511719</ele>
        <time>2014-02-12T07:56:02.000Z</time>
      </trkpt>
      <trkpt lat="45.91605" lon="6.4889">
        <ele>1609.1999511719</ele>
        <time>2014-02-12T07:56:03.000Z</time>
      </trkpt>
      <trkpt lat="45.91605" lon="6.48891">
        <ele>1609.5999755859</ele>
        <time>2014-02-12T07:56:04.000Z</time>
      </trkpt>
      <trkpt lat="45.91605" lon="6.48892">
        <ele>1609.8000488281</ele>
        <time>2014-02-12T07:56:05.000Z</time>
      </trkpt>
      <trkpt lat="45.91604" lon="6.48892">
        <ele>1609.8000488281</ele>
        <time>2014-02-12T07:56:06.000Z</time>
      </trkpt>
      <trkpt lat="45.91604" lon="6.48892">
        <ele>1609.8000488281</ele>
        <time>2014-02-12T07:56:07.000Z</time>
      </trkpt>
      <trkpt lat="45.91604" lon="6.48892">
        <ele>1609.8000488281</ele>
        <time>2014-02-12T07:56:08.000Z</time>
      </trkpt>
      <trkpt lat="45.91604" lon="6.48892">
        <ele>1609.8000488281</ele>
        <time>2014-02-12T07:56:09.000Z</time>
      </trkpt>
      <trkpt lat="45.91604" lon="6.48892">
        <ele>1609.8000488281</ele>
        <time>2014-02-12T07:56:10.000Z</time>
      </trkpt>
      <trkpt lat="45.91603" lon="6.48892">
        <ele>1609.5999755859</ele>
        <time>2014-02-12T07:56:11.000Z</time>
      </trkpt>
      <trkpt lat="45.91603" lon="6.48892">
        <ele>1609.5999755859</ele>
        <time>2014-02-12T07:56:12.000Z</time>
      </trkpt>
      <trkpt lat="45.91603" lon="6.48892">
        <ele>1609.5999755859</ele>
        <time>2014-02-12T07:56:13.000Z</time>
      </trkpt>
      <trkpt lat="45.91602" lon="6.48893">
        <ele>1609.5999755859</ele>
        <time>2014-02-12T07:56:14.000Z</time>
      </trkpt>
      <trkpt lat="45.91601" lon="6.48893">
        <ele>1609.5999755859</ele>
        <time>2014-02-12T07:56:15.000Z</time>
      </trkpt>
      <trkpt lat="45.91601" lon="6.48893">
        <ele>1609.5999755859</ele>
        <time>2014-02-12T07:56:16.000Z</time>
      </trkpt>
      <trkpt lat="45.91601" lon="6.48893">
        <ele>1609.5999755859</ele>
        <time>2014-02-12T07:56:17.000Z</time>
      </trkpt>
      <trkpt lat="45.916" lon="6.48894">
        <ele>1609.8000488281</ele>
        <time>2014-02-12T07:56:18.000Z</time>
      </trkpt>
      <trkpt lat="45.91599" lon="6.48894">
        <ele>1609.8000488281</ele>
        <time>2014-02-12T07:56:19.000Z</time>
      </trkpt>
      <trkpt lat="45.91599" lon="6.48894">
        <ele>1609.8000488281</ele>
        <time>2014-02-12T07:56:20.000Z</time>
      </trkpt>
      <trkpt lat="45.91599" lon="6.48894">
        <ele>1609.8000488281</ele>
        <time>2014-02-12T07:56:21.000Z</time>
      </trkpt>
      <trkpt lat="45.91599" lon="6.48894">
        <ele>1609.8000488281</ele>
        <time>2014-02-12T07:56:22.000Z</time>
      </trkpt>
      <trkpt lat="45.91599" lon="6.48894">
        <ele>1609.8000488281</ele>
        <time>2014-02-12T07:56:23.000Z</time>
      </trkpt>
      <trkpt lat="45.91599" lon="6.48894">
        <ele>1609.8000488281</ele>
        <time>2014-02-12T07:56:24.000Z</time>
      </trkpt>
      <trkpt lat="45.91599" lon="6.48894">
        <ele>1609.8000488281</ele>
        <time>2014-02-12T07:56:25.000Z</time>
      </trkpt>
      <trkpt lat="45.91599" lon="6.48894">
        <ele>1609.8000488281</ele>
        <time>2014-02-12T07:56:26.000Z</time>
      </trkpt>
      <trkpt lat="45.91599" lon="6.48894">
        <ele>1609.8000488281</ele>
        <time>2014-02-12T07:56:27.000Z</time>
      </trkpt>
      <trkpt lat="45.91599" lon="6.48894">
        <ele>1609.8000488281</ele>
        <time>2014-02-12T07:56:28.000Z</time>
      </trkpt>
      <trkpt lat="45.91599" lon="6.48894">
        <ele>1609.8000488281</ele>
        <time>2014-02-12T07:56:29.000Z</time>
      </trkpt>
      <trkpt lat="45.91599" lon="6.48894">
        <ele>1609.8000488281</ele>
        <time>2014-02-12T07:56:30.000Z</time>
      </trkpt>
      <trkpt lat="45.91599" lon="6.48894">
        <ele>1609.8000488281</ele>
        <time>2014-02-12T07:56:31.000Z</time>
      </trkpt>
      <trkpt lat="45.91599" lon="6.48894">
        <ele>1609.8000488281</ele>
        <time>2014-02-12T07:56:32.000Z</time>
      </trkpt>
      <trkpt lat="45.91599" lon="6.48894">
        <ele>1609.8000488281</ele>
        <time>2014-02-12T07:56:33.000Z</time>
      </trkpt>
      <trkpt lat="45.91599" lon="6.48894">
        <ele>1609.8000488281</ele>
        <time>2014-02-12T07:56:34.000Z</time>
      </trkpt>
      <trkpt lat="45.91599" lon="6.48894">
        <ele>1609.8000488281</ele>
        <time>2014-02-12T07:56:35.000Z</time>
      </trkpt>
      <trkpt lat="45.91599" lon="6.48894">
        <ele>1609.8000488281</ele>
        <time>2014-02-12T07:56:36.000Z</time>
      </trkpt>
      <trkpt lat="45.91599" lon="6.48894">
        <ele>1609.8000488281</ele>
        <time>2014-02-12T07:56:37.000Z</time>
      </trkpt>
      <trkpt lat="45.91599" lon="6.48896">
        <ele>1610.1999511719</ele>
        <time>2014-02-12T07:56:38.000Z</time>
      </trkpt>
      <trkpt lat="45.91598" lon="6.48897">
        <ele>1610.5999755859</ele>
        <time>2014-02-12T07:56:39.000Z</time>
      </trkpt>
      <trkpt lat="45.91598" lon="6.48897">
        <ele>1610.5999755859</ele>
        <time>2014-02-12T07:56:40.000Z</time>
      </trkpt>
      <trkpt lat="45.91598" lon="6.48898">
        <ele>1611</ele>
        <time>2014-02-12T07:56:41.000Z</time>
      </trkpt>
      <trkpt lat="45.91598" lon="6.489">
        <ele>1611.5999755859</ele>
        <time>2014-02-12T07:56:42.000Z</time>
      </trkpt>
      <trkpt lat="45.91598" lon="6.48901">
        <ele>1612.1999511719</ele>
        <time>2014-02-12T07:56:43.000Z</time>
      </trkpt>
      <trkpt lat="45.91599" lon="6.48903">
        <ele>1613</ele>
        <time>2014-02-12T07:56:44.000Z</time>
      </trkpt>
      <trkpt lat="45.91599" lon="6.48904">
        <ele>1614</ele>
        <time>2014-02-12T07:56:45.000Z</time>
      </trkpt>
      <trkpt lat="45.91599" lon="6.48906">
        <ele>1615.1999511719</ele>
        <time>2014-02-12T07:56:46.000Z</time>
      </trkpt>
      <trkpt lat="45.91599" lon="6.48907">
        <ele>1616</ele>
        <time>2014-02-12T07:56:47.000Z</time>
      </trkpt>
      <trkpt lat="45.91598" lon="6.48909">
        <ele>1616.5999755859</ele>
        <time>2014-02-12T07:56:48.000Z</time>
      </trkpt>
      <trkpt lat="45.91597" lon="6.4891">
        <ele>1617</ele>
        <time>2014-02-12T07:56:49.000Z</time>
      </trkpt>
      <trkpt lat="45.91597" lon="6.4891">
        <ele>1617</ele>
        <time>2014-02-12T07:56:50.000Z</time>
      </trkpt>
      <trkpt lat="45.91596" lon="6.4891">
        <ele>1617.1999511719</ele>
        <time>2014-02-12T07:56:51.000Z</time>
      </trkpt>
      <trkpt lat="45.91595" lon="6.48911">
        <ele>1617.4000244141</ele>
        <time>2014-02-12T07:56:52.000Z</time>
      </trkpt>
      <trkpt lat="45.91595" lon="6.48911">
        <ele>1617.5999755859</ele>
        <time>2014-02-12T07:56:53.000Z</time>
      </trkpt>
      <trkpt lat="45.91595" lon="6.48911">
        <ele>1617.4000244141</ele>
        <time>2014-02-12T07:56:54.000Z</time>
      </trkpt>
      <trkpt lat="45.91594" lon="6.48911">
        <ele>1617.5999755859</ele>
        <time>2014-02-12T07:56:55.000Z</time>
      </trkpt>
      <trkpt lat="45.91594" lon="6.48912">
        <ele>1618</ele>
        <time>2014-02-12T07:56:56.000Z</time>
      </trkpt>
      <trkpt lat="45.91593" lon="6.48913">
        <ele>1618.4000244141</ele>
        <time>2014-02-12T07:56:57.000Z</time>
      </trkpt>
      <trkpt lat="45.91593" lon="6.48914">
        <ele>1618.8000488281</ele>
        <time>2014-02-12T07:56:58.000Z</time>
      </trkpt>
      <trkpt lat="45.91593" lon="6.48915">
        <ele>1619.4000244141</ele>
        <time>2014-02-12T07:56:59.000Z</time>
      </trkpt>
      <trkpt lat="45.91592" lon="6.48915">
        <ele>1619.8000488281</ele>
        <time>2014-02-12T07:57:00.000Z</time>
      </trkpt>
      <trkpt lat="45.91592" lon="6.48917">
        <ele>1620.5999755859</ele>
        <time>2014-02-12T07:57:01.000Z</time>
      </trkpt>
      <trkpt lat="45.91592" lon="6.48918">
        <ele>1621.4000244141</ele>
        <time>2014-02-12T07:57:02.000Z</time>
      </trkpt>
      <trkpt lat="45.91593" lon="6.4892">
        <ele>1622.4000244141</ele>
        <time>2014-02-12T07:57:03.000Z</time>
      </trkpt>
      <trkpt lat="45.91593" lon="6.48921">
        <ele>1623.1999511719</ele>
        <time>2014-02-12T07:57:04.000Z</time>
      </trkpt>
      <trkpt lat="45.91593" lon="6.48922">
        <ele>1623.5999755859</ele>
        <time>2014-02-12T07:57:05.000Z</time>
      </trkpt>
      <trkpt lat="45.91593" lon="6.48922">
        <ele>1623.8000488281</ele>
        <time>2014-02-12T07:57:06.000Z</time>
      </trkpt>
      <trkpt lat="45.91593" lon="6.48923">
        <ele>1624</ele>
        <time>2014-02-12T07:57:07.000Z</time>
      </trkpt>
      <trkpt lat="45.91593" lon="6.48923">
        <ele>1624</ele>
        <time>2014-02-12T07:57:08.000Z</time>
      </trkpt>
      <trkpt lat="45.91593" lon="6.48923">
        <ele>1624.1999511719</ele>
        <time>2014-02-12T07:57:09.000Z</time>
      </trkpt>
      <trkpt lat="45.91593" lon="6.48923">
        <ele>1624.1999511719</ele>
        <time>2014-02-12T07:57:10.000Z</time>
      </trkpt>
      <trkpt lat="45.91593" lon="6.48924">
        <ele>1624.5999755859</ele>
        <time>2014-02-12T07:57:11.000Z</time>
      </trkpt>
      <trkpt lat="45.91593" lon="6.48925">
        <ele>1625.1999511719</ele>
        <time>2014-02-12T07:57:12.000Z</time>
      </trkpt>
      <trkpt lat="45.91592" lon="6.48926">
        <ele>1626</ele>
        <time>2014-02-12T07:57:13.000Z</time>
      </trkpt>
      <trkpt lat="45.91592" lon="6.48927">
        <ele>1626.5999755859</ele>
        <time>2014-02-12T07:57:14.000Z</time>
      </trkpt>
      <trkpt lat="45.91592" lon="6.48927">
        <ele>1626.5999755859</ele>
        <time>2014-02-12T07:57:15.000Z</time>
      </trkpt>
      <trkpt lat="45.91592" lon="6.48927">
        <ele>1626.8000488281</ele>
        <time>2014-02-12T07:57:16.000Z</time>
      </trkpt>
      <trkpt lat="45.91592" lon="6.48927">
        <ele>1626.8000488281</ele>
        <time>2014-02-12T07:57:17.000Z</time>
      </trkpt>
      <trkpt lat="45.91592" lon="6.48927">
        <ele>1626.8000488281</ele>
        <time>2014-02-12T07:57:18.000Z</time>
      </trkpt>
      <trkpt lat="45.91591" lon="6.48927">
        <ele>1626.1999511719</ele>
        <time>2014-02-12T07:57:19.000Z</time>
      </trkpt>
      <trkpt lat="45.9159" lon="6.48927">
        <ele>1626.4000244141</ele>
        <time>2014-02-12T07:57:20.000Z</time>
      </trkpt>
      <trkpt lat="45.91589" lon="6.48928">
        <ele>1626.5999755859</ele>
        <time>2014-02-12T07:57:21.000Z</time>
      </trkpt>
      <trkpt lat="45.91589" lon="6.48928">
        <ele>1626.5999755859</ele>
        <time>2014-02-12T07:57:22.000Z</time>
      </trkpt>
      <trkpt lat="45.91589" lon="6.48928">
        <ele>1626.8000488281</ele>
        <time>2014-02-12T07:57:23.000Z</time>
      </trkpt>
      <trkpt lat="45.91589" lon="6.48928">
        <ele>1626.8000488281</ele>
        <time>2014-02-12T07:57:24.000Z</time>
      </trkpt>
      <trkpt lat="45.91589" lon="6.48928">
        <ele>1626.8000488281</ele>
        <time>2014-02-12T07:57:25.000Z</time>
      </trkpt>
      <trkpt lat="45.91589" lon="6.48928">
        <ele>1626.8000488281</ele>
        <time>2014-02-12T07:57:26.000Z</time>
      </trkpt>
      <trkpt lat="45.91589" lon="6.48929">
        <ele>1627.4000244141</ele>
        <time>2014-02-12T07:57:27.000Z</time>
      </trkpt>
      <trkpt lat="45.91589" lon="6.4893">
        <ele>1628</ele>
        <time>2014-02-12T07:57:28.000Z</time>
      </trkpt>
      <trkpt lat="45.91589" lon="6.48931">
        <ele>1628.8000488281</ele>
        <time>2014-02-12T07:57:29.000Z</time>
      </trkpt>
      <trkpt lat="45.91589" lon="6.48932">
        <ele>1629.1999511719</ele>
        <time>2014-02-12T07:57:30.000Z</time>
      </trkpt>
      <trkpt lat="45.91588" lon="6.48933">
        <ele>1629.4000244141</ele>
        <time>2014-02-12T07:57:31.000Z</time>
      </trkpt>
      <trkpt lat="45.91588" lon="6.48933">
        <ele>1629.4000244141</ele>
        <time>2014-02-12T07:57:32.000Z</time>
      </trkpt>
      <trkpt lat="45.91587" lon="6.48933">
        <ele>1629.1999511719</ele>
        <time>2014-02-12T07:57:33.000Z</time>
      </trkpt>
      <trkpt lat="45.91586" lon="6.48933">
        <ele>1629.1999511719</ele>
        <time>2014-02-12T07:57:34.000Z</time>
      </trkpt>
      <trkpt lat="45.91586" lon="6.48933">
        <ele>1629.1999511719</ele>
        <time>2014-02-12T07:57:35.000Z</time>
      </trkpt>
      <trkpt lat="45.91586" lon="6.48933">
        <ele>1629</ele>
        <time>2014-02-12T07:57:36.000Z</time>
      </trkpt>
      <trkpt lat="45.91585" lon="6.48933">
        <ele>1628.8000488281</ele>
        <time>2014-02-12T07:57:37.000Z</time>
      </trkpt>
      <trkpt lat="45.91585" lon="6.48933">
        <ele>1629</ele>
        <time>2014-02-12T07:57:38.000Z</time>
      </trkpt>
      <trkpt lat="45.91585" lon="6.48933">
        <ele>1629</ele>
        <time>2014-02-12T07:57:39.000Z</time>
      </trkpt>
      <trkpt lat="45.91585" lon="6.48933">
        <ele>1629</ele>
        <time>2014-02-12T07:57:40.000Z</time>
      </trkpt>
      <trkpt lat="45.91585" lon="6.48935">
        <ele>1629.8000488281</ele>
        <time>2014-02-12T07:57:41.000Z</time>
      </trkpt>
      <trkpt lat="45.91585" lon="6.48937">
        <ele>1630.8000488281</ele>
        <time>2014-02-12T07:57:42.000Z</time>
      </trkpt>
      <trkpt lat="45.91584" lon="6.48939">
        <ele>1631.5999755859</ele>
        <time>2014-02-12T07:57:43.000Z</time>
      </trkpt>
      <trkpt lat="45.91584" lon="6.4894">
        <ele>1632</ele>
        <time>2014-02-12T07:57:44.000Z</time>
      </trkpt>
      <trkpt lat="45.91584" lon="6.48941">
        <ele>1632.4000244141</ele>
        <time>2014-02-12T07:57:45.000Z</time>
      </trkpt>
      <trkpt lat="45.91583" lon="6.48942">
        <ele>1632.8000488281</ele>
        <time>2014-02-12T07:57:46.000Z</time>
      </trkpt>
      <trkpt lat="45.91582" lon="6.48943">
        <ele>1633.1999511719</ele>
        <time>2014-02-12T07:57:47.000Z</time>
      </trkpt>
      <trkpt lat="45.91582" lon="6.48943">
        <ele>1633.1999511719</ele>
        <time>2014-02-12T07:57:48.000Z</time>
      </trkpt>
      <trkpt lat="45.91581" lon="6.48944">
        <ele>1633.1999511719</ele>
        <time>2014-02-12T07:57:49.000Z</time>
      </trkpt>
      <trkpt lat="45.9158" lon="6.48944">
        <ele>1633.1999511719</ele>
        <time>2014-02-12T07:57:50.000Z</time>
      </trkpt>
      <trkpt lat="45.9158" lon="6.48944">
        <ele>1633.1999511719</ele>
        <time>2014-02-12T07:57:51.000Z</time>
      </trkpt>
      <trkpt lat="45.9158" lon="6.48946">
        <ele>1634</ele>
        <time>2014-02-12T07:57:52.000Z</time>
      </trkpt>
      <trkpt lat="45.9158" lon="6.48948">
        <ele>1635.4000244141</ele>
        <time>2014-02-12T07:57:53.000Z</time>
      </trkpt>
      <trkpt lat="45.9158" lon="6.4895">
        <ele>1636.1999511719</ele>
        <time>2014-02-12T07:57:54.000Z</time>
      </trkpt>
      <trkpt lat="45.9158" lon="6.48951">
        <ele>1636.4000244141</ele>
        <time>2014-02-12T07:57:55.000Z</time>
      </trkpt>
      <trkpt lat="45.91579" lon="6.4895">
        <ele>1636.1999511719</ele>
        <time>2014-02-12T07:57:56.000Z</time>
      </trkpt>
      <trkpt lat="45.91579" lon="6.48951">
        <ele>1636.4000244141</ele>
        <time>2014-02-12T07:57:57.000Z</time>
      </trkpt>
      <trkpt lat="45.91579" lon="6.48951">
        <ele>1636.4000244141</ele>
        <time>2014-02-12T07:57:58.000Z</time>
      </trkpt>
      <trkpt lat="45.91578" lon="6.48951">
        <ele>1636.4000244141</ele>
        <time>2014-02-12T07:57:59.000Z</time>
      </trkpt>
      <trkpt lat="45.91578" lon="6.48953">
        <ele>1637.1999511719</ele>
        <time>2014-02-12T07:58:00.000Z</time>
      </trkpt>
      <trkpt lat="45.91578" lon="6.48954">
        <ele>1637.8000488281</ele>
        <time>2014-02-12T07:58:01.000Z</time>
      </trkpt>
      <trkpt lat="45.91578" lon="6.48956">
        <ele>1639</ele>
        <time>2014-02-12T07:58:02.000Z</time>
      </trkpt>
      <trkpt lat="45.91578" lon="6.48958">
        <ele>1639.8000488281</ele>
        <time>2014-02-12T07:58:03.000Z</time>
      </trkpt>
      <trkpt lat="45.91578" lon="6.48959">
        <ele>1640.4000244141</ele>
        <time>2014-02-12T07:58:04.000Z</time>
      </trkpt>
      <trkpt lat="45.91578" lon="6.4896">
        <ele>1640.8000488281</ele>
        <time>2014-02-12T07:58:05.000Z</time>
      </trkpt>
      <trkpt lat="45.91578" lon="6.48961">
        <ele>1641.1999511719</ele>
        <time>2014-02-12T07:58:06.000Z</time>
      </trkpt>
      <trkpt lat="45.91577" lon="6.48961">
        <ele>1641.1999511719</ele>
        <time>2014-02-12T07:58:07.000Z</time>
      </trkpt>
      <trkpt lat="45.91577" lon="6.48961">
        <ele>1641.1999511719</ele>
        <time>2014-02-12T07:58:08.000Z</time>
      </trkpt>
      <trkpt lat="45.91577" lon="6.48961">
        <ele>1641.1999511719</ele>
        <time>2014-02-12T07:58:09.000Z</time>
      </trkpt>
      <trkpt lat="45.91577" lon="6.48961">
        <ele>1641.1999511719</ele>
        <time>2014-02-12T07:58:10.000Z</time>
      </trkpt>
      <trkpt lat="45.91576" lon="6.48962">
        <ele>1641.4000244141</ele>
        <time>2014-02-12T07:58:11.000Z</time>
      </trkpt>
      <trkpt lat="45.91576" lon="6.48962">
        <ele>1641.4000244141</ele>
        <time>2014-02-12T07:58:12.000Z</time>
      </trkpt>
      <trkpt lat="45.91576" lon="6.48963">
        <ele>1642.1999511719</ele>
        <time>2014-02-12T07:58:13.000Z</time>
      </trkpt>
      <trkpt lat="45.91576" lon="6.48963">
        <ele>1642.1999511719</ele>
        <time>2014-02-12T07:58:14.000Z</time>
      </trkpt>
      <trkpt lat="45.91576" lon="6.48964">
        <ele>1642.5999755859</ele>
        <time>2014-02-12T07:58:15.000Z</time>
      </trkpt>
      <trkpt lat="45.91576" lon="6.48964">
        <ele>1642.5999755859</ele>
        <time>2014-02-12T07:58:16.000Z</time>
      </trkpt>
      <trkpt lat="45.91576" lon="6.48964">
        <ele>1642.5999755859</ele>
        <time>2014-02-12T07:58:17.000Z</time>
      </trkpt>
      <trkpt lat="45.91576" lon="6.48964">
        <ele>1642.5999755859</ele>
        <time>2014-02-12T07:58:18.000Z</time>
      </trkpt>
      <trkpt lat="45.91576" lon="6.48964">
        <ele>1642.5999755859</ele>
        <time>2014-02-12T07:58:19.000Z</time>
      </trkpt>
      <trkpt lat="45.91576" lon="6.48966">
        <ele>1643.4000244141</ele>
        <time>2014-02-12T07:58:20.000Z</time>
      </trkpt>
      <trkpt lat="45.91576" lon="6.48966">
        <ele>1643.5999755859</ele>
        <time>2014-02-12T07:58:21.000Z</time>
      </trkpt>
      <trkpt lat="45.91576" lon="6.48967">
        <ele>1643.8000488281</ele>
        <time>2014-02-12T07:58:22.000Z</time>
      </trkpt>
      <trkpt lat="45.91575" lon="6.48967">
        <ele>1644</ele>
        <time>2014-02-12T07:58:23.000Z</time>
      </trkpt>
      <trkpt lat="45.91575" lon="6.48968">
        <ele>1644</ele>
        <time>2014-02-12T07:58:24.000Z</time>
      </trkpt>
      <trkpt lat="45.91574" lon="6.48968">
        <ele>1643.8000488281</ele>
        <time>2014-02-12T07:58:25.000Z</time>
      </trkpt>
      <trkpt lat="45.91574" lon="6.48968">
        <ele>1643.8000488281</ele>
        <time>2014-02-12T07:58:26.000Z</time>
      </trkpt>
      <trkpt lat="45.91574" lon="6.48968">
        <ele>1643.8000488281</ele>
        <time>2014-02-12T07:58:27.000Z</time>
      </trkpt>
      <trkpt lat="45.91574" lon="6.48968">
        <ele>1643.8000488281</ele>
        <time>2014-02-12T07:58:28.000Z</time>
      </trkpt>
      <trkpt lat="45.91574" lon="6.48968">
        <ele>1643.8000488281</ele>
        <time>2014-02-12T07:58:29.000Z</time>
      </trkpt>
      <trkpt lat="45.91574" lon="6.48968">
        <ele>1643.8000488281</ele>
        <time>2014-02-12T07:58:30.000Z</time>
      </trkpt>
      <trkpt lat="45.91574" lon="6.48968">
        <ele>1643.8000488281</ele>
        <time>2014-02-12T07:58:31.000Z</time>
      </trkpt>
      <trkpt lat="45.91574" lon="6.48968">
        <ele>1643.8000488281</ele>
        <time>2014-02-12T07:58:32.000Z</time>
      </trkpt>
      <trkpt lat="45.91574" lon="6.48968">
        <ele>1643.8000488281</ele>
        <time>2014-02-12T07:58:33.000Z</time>
      </trkpt>
      <trkpt lat="45.91574" lon="6.48968">
        <ele>1643.8000488281</ele>
        <time>2014-02-12T07:58:34.000Z</time>
      </trkpt>
      <trkpt lat="45.91574" lon="6.48968">
        <ele>1643.8000488281</ele>
        <time>2014-02-12T07:58:35.000Z</time>
      </trkpt>
      <trkpt lat="45.91574" lon="6.48968">
        <ele>1643.8000488281</ele>
        <time>2014-02-12T07:58:41.000Z</time>
      </trkpt>
      <trkpt lat="45.91574" lon="6.48968">
        <ele>1643.8000488281</ele>
        <time>2014-02-12T07:58:42.000Z</time>
      </trkpt>
      <trkpt lat="45.91574" lon="6.48968">
        <ele>1643.8000488281</ele>
        <time>2014-02-12T07:58:43.000Z</time>
      </trkpt>
      <trkpt lat="45.91574" lon="6.48968">
        <ele>1643.8000488281</ele>
        <time>2014-02-12T07:58:44.000Z</time>
      </trkpt>
      <trkpt lat="45.91574" lon="6.48968">
        <ele>1643.8000488281</ele>
        <time>2014-02-12T07:58:46.000Z</time>
      </trkpt>
      <trkpt lat="45.91574" lon="6.48968">
        <ele>1643.8000488281</ele>
        <time>2014-02-12T07:58:49.000Z</time>
      </trkpt>
      <trkpt lat="45.91574" lon="6.48968">
        <ele>1643.8000488281</ele>
        <time>2014-02-12T07:58:51.000Z</time>
      </trkpt>
      <trkpt lat="45.91574" lon="6.48968">
        <ele>1643.8000488281</ele>
        <time>2014-02-12T07:58:52.000Z</time>
      </trkpt>
      <trkpt lat="45.91574" lon="6.48968">
        <ele>1643.8000488281</ele>
        <time>2014-02-12T07:58:53.000Z</time>
      </trkpt>
      <trkpt lat="45.91574" lon="6.48968">
        <ele>1643.8000488281</ele>
        <time>2014-02-12T07:58:54.000Z</time>
      </trkpt>
      <trkpt lat="45.91574" lon="6.48968">
        <ele>1643.8000488281</ele>
        <time>2014-02-12T07:59:00.000Z</time>
      </trkpt>
      <trkpt lat="45.91574" lon="6.48968">
        <ele>1643.8000488281</ele>
        <time>2014-02-12T07:59:01.000Z</time>
      </trkpt>
      <trkpt lat="45.91574" lon="6.48968">
        <ele>1643.8000488281</ele>
        <time>2014-02-12T07:59:02.000Z</time>
      </trkpt>
      <trkpt lat="45.91574" lon="6.48968">
        <ele>1643.8000488281</ele>
        <time>2014-02-12T07:59:03.000Z</time>
      </trkpt>
      <trkpt lat="45.91574" lon="6.48968">
        <ele>1643.8000488281</ele>
        <time>2014-02-12T07:59:04.000Z</time>
      </trkpt>
      <trkpt lat="45.91574" lon="6.48968">
        <ele>1644</ele>
        <time>2014-02-12T07:59:05.000Z</time>
      </trkpt>
      <trkpt lat="45.91574" lon="6.48968">
        <ele>1644</ele>
        <time>2014-02-12T07:59:06.000Z</time>
      </trkpt>
      <trkpt lat="45.91574" lon="6.48968">
        <ele>1644</ele>
        <time>2014-02-12T07:59:07.000Z</time>
      </trkpt>
      <trkpt lat="45.91574" lon="6.48968">
        <ele>1644</ele>
        <time>2014-02-12T07:59:08.000Z</time>
      </trkpt>
      <trkpt lat="45.91574" lon="6.48968">
        <ele>1644</ele>
        <time>2014-02-12T07:59:09.000Z</time>
      </trkpt>
      <trkpt lat="45.91574" lon="6.48968">
        <ele>1644</ele>
        <time>2014-02-12T07:59:10.000Z</time>
      </trkpt>
      <trkpt lat="45.91574" lon="6.48968">
        <ele>1644</ele>
        <time>2014-02-12T07:59:12.000Z</time>
      </trkpt>
      <trkpt lat="45.91574" lon="6.48968">
        <ele>1644</ele>
        <time>2014-02-12T07:59:13.000Z</time>
      </trkpt>
      <trkpt lat="45.91574" lon="6.48968">
        <ele>1644</ele>
        <time>2014-02-12T07:59:16.000Z</time>
      </trkpt>
      <trkpt lat="45.91574" lon="6.48968">
        <ele>1644</ele>
        <time>2014-02-12T07:59:17.000Z</time>
      </trkpt>
      <trkpt lat="45.91574" lon="6.48968">
        <ele>1644</ele>
        <time>2014-02-12T07:59:18.000Z</time>
      </trkpt>
      <trkpt lat="45.91574" lon="6.48968">
        <ele>1644</ele>
        <time>2014-02-12T07:59:20.000Z</time>
      </trkpt>
      <trkpt lat="45.91574" lon="6.48968">
        <ele>1644</ele>
        <time>2014-02-12T07:59:21.000Z</time>
      </trkpt>
      <trkpt lat="45.91574" lon="6.48968">
        <ele>1644</ele>
        <time>2014-02-12T07:59:22.000Z</time>
      </trkpt>
      <trkpt lat="45.91574" lon="6.48968">
        <ele>1644</ele>
        <time>2014-02-12T07:59:23.000Z</time>
      </trkpt>
      <trkpt lat="45.91574" lon="6.48968">
        <ele>1644</ele>
        <time>2014-02-12T07:59:24.000Z</time>
      </trkpt>
      <trkpt lat="45.91574" lon="6.48968">
        <ele>1644</ele>
        <time>2014-02-12T07:59:25.000Z</time>
      </trkpt>
      <trkpt lat="45.91574" lon="6.48968">
        <ele>1644</ele>
        <time>2014-02-12T07:59:30.000Z</time>
      </trkpt>
      <trkpt lat="45.91574" lon="6.48968">
        <ele>1644</ele>
        <time>2014-02-12T07:59:31.000Z</time>
      </trkpt>
      <trkpt lat="45.91574" lon="6.48968">
        <ele>1644</ele>
        <time>2014-02-12T07:59:34.000Z</time>
      </trkpt>
      <trkpt lat="45.91574" lon="6.48968">
        <ele>1644</ele>
        <time>2014-02-12T07:59:35.000Z</time>
      </trkpt>
      <trkpt lat="45.91574" lon="6.48968">
        <ele>1644</ele>
        <time>2014-02-12T07:59:36.000Z</time>
      </trkpt>
      <trkpt lat="45.91574" lon="6.48968">
        <ele>1644</ele>
        <time>2014-02-12T07:59:37.000Z</time>
      </trkpt>
      <trkpt lat="45.91574" lon="6.48968">
        <ele>1644</ele>
        <time>2014-02-12T07:59:38.000Z</time>
      </trkpt>
      <trkpt lat="45.91574" lon="6.48968">
        <ele>1644</ele>
        <time>2014-02-12T07:59:39.000Z</time>
      </trkpt>
      <trkpt lat="45.91574" lon="6.48968">
        <ele>1644</ele>
        <time>2014-02-12T07:59:43.000Z</time>
      </trkpt>
      <trkpt lat="45.91574" lon="6.48968">
        <ele>1644</ele>
        <time>2014-02-12T07:59:44.000Z</time>
      </trkpt>
      <trkpt lat="45.91574" lon="6.48968">
        <ele>1644</ele>
        <time>2014-02-12T07:59:45.000Z</time>
      </trkpt>
      <trkpt lat="45.91574" lon="6.48968">
        <ele>1644</ele>
        <time>2014-02-12T07:59:46.000Z</time>
      </trkpt>
      <trkpt lat="45.91574" lon="6.48968">
        <ele>1644</ele>
        <time>2014-02-12T07:59:47.000Z</time>
      </trkpt>
      <trkpt lat="45.91574" lon="6.48968">
        <ele>1644</ele>
        <time>2014-02-12T07:59:48.000Z</time>
      </trkpt>
      <trkpt lat="45.91574" lon="6.48968">
        <ele>1644</ele>
        <time>2014-02-12T07:59:49.000Z</time>
      </trkpt>
      <trkpt lat="45.91574" lon="6.48968">
        <ele>1644</ele>
        <time>2014-02-12T07:59:50.000Z</time>
      </trkpt>
      <trkpt lat="45.91574" lon="6.48968">
        <ele>1644</ele>
        <time>2014-02-12T07:59:52.000Z</time>
      </trkpt>
      <trkpt lat="45.91574" lon="6.48968">
        <ele>1644</ele>
        <time>2014-02-12T07:59:53.000Z</time>
      </trkpt>
      <trkpt lat="45.91574" lon="6.48968">
        <ele>1644</ele>
        <time>2014-02-12T07:59:54.000Z</time>
      </trkpt>
      <trkpt lat="45.91574" lon="6.48968">
        <ele>1644</ele>
        <time>2014-02-12T07:59:55.000Z</time>
      </trkpt>
      <trkpt lat="45.91574" lon="6.48968">
        <ele>1644</ele>
        <time>2014-02-12T07:59:57.000Z</time>
      </trkpt>
      <trkpt lat="45.91574" lon="6.48968">
        <ele>1644</ele>
        <time>2014-02-12T07:59:58.000Z</time>
      </trkpt>
      <trkpt lat="45.91574" lon="6.48968">
        <ele>1644</ele>
        <time>2014-02-12T07:59:59.000Z</time>
      </trkpt>
      <trkpt lat="45.91574" lon="6.48968">
        <ele>1644</ele>
        <time>2014-02-12T08:00:00.000Z</time>
      </trkpt>
      <trkpt lat="45.91574" lon="6.48968">
        <ele>1644</ele>
        <time>2014-02-12T08:00:01.000Z</time>
      </trkpt>
      <trkpt lat="45.91574" lon="6.48968">
        <ele>1644</ele>
        <time>2014-02-12T08:00:02.000Z</time>
      </trkpt>
      <trkpt lat="45.91574" lon="6.48968">
        <ele>1644</ele>
        <time>2014-02-12T08:00:03.000Z</time>
      </trkpt>
      <trkpt lat="45.91574" lon="6.48968">
        <ele>1644</ele>
        <time>2014-02-12T08:00:04.000Z</time>
      </trkpt>
      <trkpt lat="45.91574" lon="6.48968">
        <ele>1644</ele>
        <time>2014-02-12T08:00:05.000Z</time>
      </trkpt>
      <trkpt lat="45.91574" lon="6.48968">
        <ele>1644</ele>
        <time>2014-02-12T08:00:06.000Z</time>
      </trkpt>
      <trkpt lat="45.91574" lon="6.48968">
        <ele>1644</ele>
        <time>2014-02-12T08:00:08.000Z</time>
      </trkpt>
      <trkpt lat="45.91574" lon="6.48968">
        <ele>1644</ele>
        <time>2014-02-12T08:00:09.000Z</time>
      </trkpt>
      <trkpt lat="45.91574" lon="6.48968">
        <ele>1644</ele>
        <time>2014-02-12T08:00:10.000Z</time>
      </trkpt>
      <trkpt lat="45.91574" lon="6.48968">
        <ele>1644</ele>
        <time>2014-02-12T08:00:11.000Z</time>
      </trkpt>
      <trkpt lat="45.91574" lon="6.48968">
        <ele>1644</ele>
        <time>2014-02-12T08:00:12.000Z</time>
      </trkpt>
      <trkpt lat="45.91574" lon="6.48968">
        <ele>1644</ele>
        <time>2014-02-12T08:00:13.000Z</time>
      </trkpt>
      <trkpt lat="45.91574" lon="6.48968">
        <ele>1644</ele>
        <time>2014-02-12T08:00:15.000Z</time>
      </trkpt>
      <trkpt lat="45.91574" lon="6.48968">
        <ele>1644</ele>
        <time>2014-02-12T08:00:16.000Z</time>
      </trkpt>
      <trkpt lat="45.91574" lon="6.48968">
        <ele>1644</ele>
        <time>2014-02-12T08:00:20.000Z</time>
      </trkpt>
      <trkpt lat="45.91574" lon="6.48968">
        <ele>1644</ele>
        <time>2014-02-12T08:00:22.000Z</time>
      </trkpt>
      <trkpt lat="45.91574" lon="6.48968">
        <ele>1644</ele>
        <time>2014-02-12T08:00:30.000Z</time>
      </trkpt>
      <trkpt lat="45.91574" lon="6.48968">
        <ele>1644</ele>
        <time>2014-02-12T08:00:31.000Z</time>
      </trkpt>
      <trkpt lat="45.91574" lon="6.48968">
        <ele>1644</ele>
        <time>2014-02-12T08:00:32.000Z</time>
      </trkpt>
      <trkpt lat="45.91574" lon="6.48968">
        <ele>1644</ele>
        <time>2014-02-12T08:00:33.000Z</time>
      </trkpt>
      <trkpt lat="45.91574" lon="6.48968">
        <ele>1643.8000488281</ele>
        <time>2014-02-12T08:00:40.000Z</time>
      </trkpt>
      <trkpt lat="45.91574" lon="6.48968">
        <ele>1643.8000488281</ele>
        <time>2014-02-12T08:00:44.000Z</time>
      </trkpt>
      <trkpt lat="45.91574" lon="6.48968">
        <ele>1643.8000488281</ele>
        <time>2014-02-12T08:00:45.000Z</time>
      </trkpt>
      <trkpt lat="45.91574" lon="6.48968">
        <ele>1643.8000488281</ele>
        <time>2014-02-12T08:00:46.000Z</time>
      </trkpt>
      <trkpt lat="45.91574" lon="6.48968">
        <ele>1643.8000488281</ele>
        <time>2014-02-12T08:00:47.000Z</time>
      </trkpt>
      <trkpt lat="45.91574" lon="6.48968">
        <ele>1643.8000488281</ele>
        <time>2014-02-12T08:00:48.000Z</time>
      </trkpt>
      <trkpt lat="45.91574" lon="6.48968">
        <ele>1643.8000488281</ele>
        <time>2014-02-12T08:00:49.000Z</time>
      </trkpt>
      <trkpt lat="45.91574" lon="6.48968">
        <ele>1643.8000488281</ele>
        <time>2014-02-12T08:00:50.000Z</time>
      </trkpt>
      <trkpt lat="45.91574" lon="6.48968">
        <ele>1643.8000488281</ele>
        <time>2014-02-12T08:00:51.000Z</time>
      </trkpt>
      <trkpt lat="45.91574" lon="6.48968">
        <ele>1643.8000488281</ele>
        <time>2014-02-12T08:00:52.000Z</time>
      </trkpt>
      <trkpt lat="45.91574" lon="6.48968">
        <ele>1643.8000488281</ele>
        <time>2014-02-12T08:00:53.000Z</time>
      </trkpt>
      <trkpt lat="45.91574" lon="6.48968">
        <ele>1643.8000488281</ele>
        <time>2014-02-12T08:00:54.000Z</time>
      </trkpt>
      <trkpt lat="45.91574" lon="6.48968">
        <ele>1643.8000488281</ele>
        <time>2014-02-12T08:00:55.000Z</time>
      </trkpt>
      <trkpt lat="45.91574" lon="6.48968">
        <ele>1643.8000488281</ele>
        <time>2014-02-12T08:00:56.000Z</time>
      </trkpt>
      <trkpt lat="45.91574" lon="6.48968">
        <ele>1643.8000488281</ele>
        <time>2014-02-12T08:00:57.000Z</time>
      </trkpt>
      <trkpt lat="45.91574" lon="6.48968">
        <ele>1643.8000488281</ele>
        <time>2014-02-12T08:00:58.000Z</time>
      </trkpt>
      <trkpt lat="45.91577" lon="6.48969">
        <ele>1644.8000488281</ele>
        <time>2014-02-12T08:00:59.000Z</time>
      </trkpt>
      <trkpt lat="45.91578" lon="6.48969">
        <ele>1645.4000244141</ele>
        <time>2014-02-12T08:01:00.000Z</time>
      </trkpt>
      <trkpt lat="45.91579" lon="6.48969">
        <ele>1645.8000488281</ele>
        <time>2014-02-12T08:01:01.000Z</time>
      </trkpt>
      <trkpt lat="45.91579" lon="6.4897">
        <ele>1646</ele>
        <time>2014-02-12T08:01:02.000Z</time>
      </trkpt>
      <trkpt lat="45.9158" lon="6.48971">
        <ele>1646.5999755859</ele>
        <time>2014-02-12T08:01:03.000Z</time>
      </trkpt>
      <trkpt lat="45.91582" lon="6.48971">
        <ele>1647.4000244141</ele>
        <time>2014-02-12T08:01:04.000Z</time>
      </trkpt>
      <trkpt lat="45.91583" lon="6.48972">
        <ele>1648</ele>
        <time>2014-02-12T08:01:05.000Z</time>
      </trkpt>
      <trkpt lat="45.91583" lon="6.48973">
        <ele>1648.8000488281</ele>
        <time>2014-02-12T08:01:06.000Z</time>
      </trkpt>
      <trkpt lat="45.91583" lon="6.48973">
        <ele>1648.8000488281</ele>
        <time>2014-02-12T08:01:07.000Z</time>
      </trkpt>
      <trkpt lat="45.91584" lon="6.48974">
        <ele>1649.4000244141</ele>
        <time>2014-02-12T08:01:08.000Z</time>
      </trkpt>
      <trkpt lat="45.91584" lon="6.48975">
        <ele>1649.8000488281</ele>
        <time>2014-02-12T08:01:09.000Z</time>
      </trkpt>
      <trkpt lat="45.91585" lon="6.48975">
        <ele>1649.8000488281</ele>
        <time>2014-02-12T08:01:10.000Z</time>
      </trkpt>
      <trkpt lat="45.91585" lon="6.48975">
        <ele>1650</ele>
        <time>2014-02-12T08:01:11.000Z</time>
      </trkpt>
      <trkpt lat="45.91586" lon="6.48975">
        <ele>1650.1999511719</ele>
        <time>2014-02-12T08:01:12.000Z</time>
      </trkpt>
      <trkpt lat="45.91586" lon="6.48976">
        <ele>1650.4000244141</ele>
        <time>2014-02-12T08:01:13.000Z</time>
      </trkpt>
      <trkpt lat="45.91586" lon="6.48976">
        <ele>1650.8000488281</ele>
        <time>2014-02-12T08:01:14.000Z</time>
      </trkpt>
      <trkpt lat="45.91587" lon="6.48977">
        <ele>1651.1999511719</ele>
        <time>2014-02-12T08:01:15.000Z</time>
      </trkpt>
      <trkpt lat="45.91588" lon="6.48977">
        <ele>1651.8000488281</ele>
        <time>2014-02-12T08:01:16.000Z</time>
      </trkpt>
      <trkpt lat="45.91589" lon="6.48978">
        <ele>1652.1999511719</ele>
        <time>2014-02-12T08:01:17.000Z</time>
      </trkpt>
      <trkpt lat="45.91589" lon="6.48979">
        <ele>1652.8000488281</ele>
        <time>2014-02-12T08:01:18.000Z</time>
      </trkpt>
      <trkpt lat="45.9159" lon="6.48979">
        <ele>1653.1999511719</ele>
        <time>2014-02-12T08:01:19.000Z</time>
      </trkpt>
      <trkpt lat="45.9159" lon="6.48979">
        <ele>1653.1999511719</ele>
        <time>2014-02-12T08:01:20.000Z</time>
      </trkpt>
      <trkpt lat="45.91591" lon="6.4898">
        <ele>1653.8000488281</ele>
        <time>2014-02-12T08:01:21.000Z</time>
      </trkpt>
      <trkpt lat="45.91591" lon="6.4898">
        <ele>1653.8000488281</ele>
        <time>2014-02-12T08:01:22.000Z</time>
      </trkpt>
      <trkpt lat="45.91591" lon="6.4898">
        <ele>1653.4000244141</ele>
        <time>2014-02-12T08:01:23.000Z</time>
      </trkpt>
      <trkpt lat="45.9159" lon="6.48979">
        <ele>1653.1999511719</ele>
        <time>2014-02-12T08:01:24.000Z</time>
      </trkpt>
      <trkpt lat="45.9159" lon="6.48979">
        <ele>1653.1999511719</ele>
        <time>2014-02-12T08:01:25.000Z</time>
      </trkpt>
      <trkpt lat="45.91591" lon="6.48979">
        <ele>1653.1999511719</ele>
        <time>2014-02-12T08:01:26.000Z</time>
      </trkpt>
      <trkpt lat="45.91591" lon="6.48979">
        <ele>1653.1999511719</ele>
        <time>2014-02-12T08:01:27.000Z</time>
      </trkpt>
      <trkpt lat="45.91591" lon="6.48979">
        <ele>1653.1999511719</ele>
        <time>2014-02-12T08:01:28.000Z</time>
      </trkpt>
      <trkpt lat="45.91591" lon="6.48979">
        <ele>1653.1999511719</ele>
        <time>2014-02-12T08:01:29.000Z</time>
      </trkpt>
      <trkpt lat="45.91591" lon="6.48979">
        <ele>1653.1999511719</ele>
        <time>2014-02-12T08:01:30.000Z</time>
      </trkpt>
      <trkpt lat="45.91591" lon="6.4898">
        <ele>1653.5999755859</ele>
        <time>2014-02-12T08:01:31.000Z</time>
      </trkpt>
      <trkpt lat="45.91591" lon="6.4898">
        <ele>1653.5999755859</ele>
        <time>2014-02-12T08:01:32.000Z</time>
      </trkpt>
      <trkpt lat="45.91591" lon="6.4898">
        <ele>1653.5999755859</ele>
        <time>2014-02-12T08:01:33.000Z</time>
      </trkpt>
      <trkpt lat="45.91591" lon="6.4898">
        <ele>1653.5999755859</ele>
        <time>2014-02-12T08:01:34.000Z</time>
      </trkpt>
      <trkpt lat="45.91591" lon="6.4898">
        <ele>1653.5999755859</ele>
        <time>2014-02-12T08:01:35.000Z</time>
      </trkpt>
      <trkpt lat="45.91591" lon="6.4898">
        <ele>1653.5999755859</ele>
        <time>2014-02-12T08:01:36.000Z</time>
      </trkpt>
      <trkpt lat="45.91591" lon="6.4898">
        <ele>1653.5999755859</ele>
        <time>2014-02-12T08:01:37.000Z</time>
      </trkpt>
      <trkpt lat="45.91591" lon="6.4898">
        <ele>1653.5999755859</ele>
        <time>2014-02-12T08:01:38.000Z</time>
      </trkpt>
      <trkpt lat="45.91591" lon="6.4898">
        <ele>1653.5999755859</ele>
        <time>2014-02-12T08:01:39.000Z</time>
      </trkpt>
      <trkpt lat="45.91591" lon="6.4898">
        <ele>1653.5999755859</ele>
        <time>2014-02-12T08:01:40.000Z</time>
      </trkpt>
      <trkpt lat="45.91591" lon="6.4898">
        <ele>1653.5999755859</ele>
        <time>2014-02-12T08:01:41.000Z</time>
      </trkpt>
      <trkpt lat="45.91592" lon="6.48981">
        <ele>1654.4000244141</ele>
        <time>2014-02-12T08:01:42.000Z</time>
      </trkpt>
      <trkpt lat="45.91592" lon="6.48983">
        <ele>1655.4000244141</ele>
        <time>2014-02-12T08:01:43.000Z</time>
      </trkpt>
      <trkpt lat="45.91593" lon="6.48984">
        <ele>1656.1999511719</ele>
        <time>2014-02-12T08:01:44.000Z</time>
      </trkpt>
      <trkpt lat="45.91594" lon="6.48985">
        <ele>1656.8000488281</ele>
        <time>2014-02-12T08:01:45.000Z</time>
      </trkpt>
      <trkpt lat="45.91594" lon="6.48986">
        <ele>1657.1999511719</ele>
        <time>2014-02-12T08:01:46.000Z</time>
      </trkpt>
      <trkpt lat="45.91595" lon="6.48986">
        <ele>1657.8000488281</ele>
        <time>2014-02-12T08:01:47.000Z</time>
      </trkpt>
      <trkpt lat="45.91595" lon="6.48986">
        <ele>1657.8000488281</ele>
        <time>2014-02-12T08:01:48.000Z</time>
      </trkpt>
      <trkpt lat="45.91596" lon="6.48987">
        <ele>1658</ele>
        <time>2014-02-12T08:01:49.000Z</time>
      </trkpt>
      <trkpt lat="45.91596" lon="6.48987">
        <ele>1658</ele>
        <time>2014-02-12T08:01:50.000Z</time>
      </trkpt>
      <trkpt lat="45.91596" lon="6.48987">
        <ele>1658</ele>
        <time>2014-02-12T08:01:51.000Z</time>
      </trkpt>
      <trkpt lat="45.91596" lon="6.48987">
        <ele>1658</ele>
        <time>2014-02-12T08:01:52.000Z</time>
      </trkpt>
      <trkpt lat="45.91596" lon="6.48987">
        <ele>1658</ele>
        <time>2014-02-12T08:01:53.000Z</time>
      </trkpt>
      <trkpt lat="45.91596" lon="6.48987">
        <ele>1658</ele>
        <time>2014-02-12T08:01:54.000Z</time>
      </trkpt>
      <trkpt lat="45.91596" lon="6.48987">
        <ele>1658</ele>
        <time>2014-02-12T08:01:55.000Z</time>
      </trkpt>
      <trkpt lat="45.91594" lon="6.48986">
        <ele>1657.4000244141</ele>
        <time>2014-02-12T08:01:56.000Z</time>
      </trkpt>
      <trkpt lat="45.91594" lon="6.48987">
        <ele>1657.5999755859</ele>
        <time>2014-02-12T08:01:57.000Z</time>
      </trkpt>
      <trkpt lat="45.91593" lon="6.48987">
        <ele>1657.8000488281</ele>
        <time>2014-02-12T08:01:58.000Z</time>
      </trkpt>
      <trkpt lat="45.91593" lon="6.48987">
        <ele>1657.8000488281</ele>
        <time>2014-02-12T08:01:59.000Z</time>
      </trkpt>
      <trkpt lat="45.91592" lon="6.48988">
        <ele>1657.8000488281</ele>
        <time>2014-02-12T08:02:00.000Z</time>
      </trkpt>
      <trkpt lat="45.91592" lon="6.48989">
        <ele>1658.4000244141</ele>
        <time>2014-02-12T08:02:01.000Z</time>
      </trkpt>
      <trkpt lat="45.91592" lon="6.48989">
        <ele>1658.4000244141</ele>
        <time>2014-02-12T08:02:02.000Z</time>
      </trkpt>
      <trkpt lat="45.91591" lon="6.48989">
        <ele>1658.4000244141</ele>
        <time>2014-02-12T08:02:03.000Z</time>
      </trkpt>
      <trkpt lat="45.91591" lon="6.48989">
        <ele>1658.4000244141</ele>
        <time>2014-02-12T08:02:04.000Z</time>
      </trkpt>
      <trkpt lat="45.91591" lon="6.48991">
        <ele>1659.1999511719</ele>
        <time>2014-02-12T08:02:05.000Z</time>
      </trkpt>
      <trkpt lat="45.91591" lon="6.48992">
        <ele>1659.8000488281</ele>
        <time>2014-02-12T08:02:06.000Z</time>
      </trkpt>
      <trkpt lat="45.9159" lon="6.48993">
        <ele>1660</ele>
        <time>2014-02-12T08:02:07.000Z</time>
      </trkpt>
      <trkpt lat="45.9159" lon="6.48994">
        <ele>1660.5999755859</ele>
        <time>2014-02-12T08:02:08.000Z</time>
      </trkpt>
      <trkpt lat="45.9159" lon="6.48996">
        <ele>1661.4000244141</ele>
        <time>2014-02-12T08:02:09.000Z</time>
      </trkpt>
      <trkpt lat="45.9159" lon="6.48997">
        <ele>1662</ele>
        <time>2014-02-12T08:02:10.000Z</time>
      </trkpt>
      <trkpt lat="45.9159" lon="6.48997">
        <ele>1662</ele>
        <time>2014-02-12T08:02:11.000Z</time>
      </trkpt>
      <trkpt lat="45.9159" lon="6.48998">
        <ele>1662.5999755859</ele>
        <time>2014-02-12T08:02:12.000Z</time>
      </trkpt>
      <trkpt lat="45.9159" lon="6.48998">
        <ele>1662.5999755859</ele>
        <time>2014-02-12T08:02:13.000Z</time>
      </trkpt>
      <trkpt lat="45.9159" lon="6.48999">
        <ele>1663.1999511719</ele>
        <time>2014-02-12T08:02:14.000Z</time>
      </trkpt>
      <trkpt lat="45.9159" lon="6.48999">
        <ele>1663.1999511719</ele>
        <time>2014-02-12T08:02:15.000Z</time>
      </trkpt>
      <trkpt lat="45.9159" lon="6.49">
        <ele>1663.8000488281</ele>
        <time>2014-02-12T08:02:16.000Z</time>
      </trkpt>
      <trkpt lat="45.9159" lon="6.49">
        <ele>1663.8000488281</ele>
        <time>2014-02-12T08:02:17.000Z</time>
      </trkpt>
      <trkpt lat="45.9159" lon="6.49002">
        <ele>1664.5999755859</ele>
        <time>2014-02-12T08:02:18.000Z</time>
      </trkpt>
      <trkpt lat="45.9159" lon="6.49002">
        <ele>1664.5999755859</ele>
        <time>2014-02-12T08:02:19.000Z</time>
      </trkpt>
      <trkpt lat="45.9159" lon="6.49003">
        <ele>1665</ele>
        <time>2014-02-12T08:02:20.000Z</time>
      </trkpt>
      <trkpt lat="45.9159" lon="6.49003">
        <ele>1665</ele>
        <time>2014-02-12T08:02:21.000Z</time>
      </trkpt>
      <trkpt lat="45.91589" lon="6.49003">
        <ele>1665.1999511719</ele>
        <time>2014-02-12T08:02:22.000Z</time>
      </trkpt>
      <trkpt lat="45.91589" lon="6.49003">
        <ele>1665.1999511719</ele>
        <time>2014-02-12T08:02:23.000Z</time>
      </trkpt>
      <trkpt lat="45.91589" lon="6.49005">
        <ele>1665.8000488281</ele>
        <time>2014-02-12T08:02:24.000Z</time>
      </trkpt>
      <trkpt lat="45.91589" lon="6.49005">
        <ele>1665.8000488281</ele>
        <time>2014-02-12T08:02:25.000Z</time>
      </trkpt>
      <trkpt lat="45.91588" lon="6.49005">
        <ele>1665.8000488281</ele>
        <time>2014-02-12T08:02:26.000Z</time>
      </trkpt>
      <trkpt lat="45.91588" lon="6.49005">
        <ele>1665.8000488281</ele>
        <time>2014-02-12T08:02:27.000Z</time>
      </trkpt>
      <trkpt lat="45.91588" lon="6.49005">
        <ele>1665.8000488281</ele>
        <time>2014-02-12T08:02:28.000Z</time>
      </trkpt>
      <trkpt lat="45.91587" lon="6.49005">
        <ele>1665.4000244141</ele>
        <time>2014-02-12T08:02:29.000Z</time>
      </trkpt>
      <trkpt lat="45.91586" lon="6.49005">
        <ele>1665.1999511719</ele>
        <time>2014-02-12T08:02:30.000Z</time>
      </trkpt>
      <trkpt lat="45.91584" lon="6.49004">
        <ele>1664.5999755859</ele>
        <time>2014-02-12T08:02:31.000Z</time>
      </trkpt>
      <trkpt lat="45.91583" lon="6.49004">
        <ele>1664.1999511719</ele>
        <time>2014-02-12T08:02:32.000Z</time>
      </trkpt>
      <trkpt lat="45.91583" lon="6.49004">
        <ele>1664</ele>
        <time>2014-02-12T08:02:33.000Z</time>
      </trkpt>
      <trkpt lat="45.91583" lon="6.49004">
        <ele>1664</ele>
        <time>2014-02-12T08:02:34.000Z</time>
      </trkpt>
      <trkpt lat="45.91583" lon="6.49004">
        <ele>1664</ele>
        <time>2014-02-12T08:02:35.000Z</time>
      </trkpt>
      <trkpt lat="45.91583" lon="6.49004">
        <ele>1664</ele>
        <time>2014-02-12T08:02:36.000Z</time>
      </trkpt>
      <trkpt lat="45.91583" lon="6.49004">
        <ele>1664</ele>
        <time>2014-02-12T08:02:37.000Z</time>
      </trkpt>
      <trkpt lat="45.91583" lon="6.49004">
        <ele>1664</ele>
        <time>2014-02-12T08:02:38.000Z</time>
      </trkpt>
      <trkpt lat="45.91583" lon="6.49004">
        <ele>1664</ele>
        <time>2014-02-12T08:02:39.000Z</time>
      </trkpt>
      <trkpt lat="45.91583" lon="6.49004">
        <ele>1664</ele>
        <time>2014-02-12T08:02:40.000Z</time>
      </trkpt>
      <trkpt lat="45.91583" lon="6.49004">
        <ele>1664</ele>
        <time>2014-02-12T08:02:41.000Z</time>
      </trkpt>
      <trkpt lat="45.91583" lon="6.49004">
        <ele>1664</ele>
        <time>2014-02-12T08:02:42.000Z</time>
      </trkpt>
      <trkpt lat="45.91583" lon="6.49004">
        <ele>1664</ele>
        <time>2014-02-12T08:02:43.000Z</time>
      </trkpt>
      <trkpt lat="45.91583" lon="6.49004">
        <ele>1664</ele>
        <time>2014-02-12T08:02:44.000Z</time>
      </trkpt>
      <trkpt lat="45.91583" lon="6.49004">
        <ele>1664</ele>
        <time>2014-02-12T08:02:45.000Z</time>
      </trkpt>
      <trkpt lat="45.91583" lon="6.49004">
        <ele>1664</ele>
        <time>2014-02-12T08:02:46.000Z</time>
      </trkpt>
      <trkpt lat="45.91583" lon="6.49004">
        <ele>1664</ele>
        <time>2014-02-12T08:02:47.000Z</time>
      </trkpt>
      <trkpt lat="45.91583" lon="6.49004">
        <ele>1664</ele>
        <time>2014-02-12T08:02:48.000Z</time>
      </trkpt>
      <trkpt lat="45.91583" lon="6.49004">
        <ele>1664</ele>
        <time>2014-02-12T08:02:49.000Z</time>
      </trkpt>
      <trkpt lat="45.91583" lon="6.49004">
        <ele>1664</ele>
        <time>2014-02-12T08:02:50.000Z</time>
      </trkpt>
      <trkpt lat="45.91583" lon="6.49004">
        <ele>1664</ele>
        <time>2014-02-12T08:02:51.000Z</time>
      </trkpt>
      <trkpt lat="45.91583" lon="6.49004">
        <ele>1664</ele>
        <time>2014-02-12T08:02:52.000Z</time>
      </trkpt>
      <trkpt lat="45.91583" lon="6.49004">
        <ele>1664</ele>
        <time>2014-02-12T08:02:53.000Z</time>
      </trkpt>
      <trkpt lat="45.91583" lon="6.49004">
        <ele>1664</ele>
        <time>2014-02-12T08:02:54.000Z</time>
      </trkpt>
      <trkpt lat="45.91583" lon="6.49004">
        <ele>1664</ele>
        <time>2014-02-12T08:02:55.000Z</time>
      </trkpt>
      <trkpt lat="45.91583" lon="6.49004">
        <ele>1664</ele>
        <time>2014-02-12T08:02:56.000Z</time>
      </trkpt>
      <trkpt lat="45.91583" lon="6.49004">
        <ele>1664</ele>
        <time>2014-02-12T08:02:57.000Z</time>
      </trkpt>
      <trkpt lat="45.91583" lon="6.49004">
        <ele>1664</ele>
        <time>2014-02-12T08:02:58.000Z</time>
      </trkpt>
      <trkpt lat="45.91583" lon="6.49004">
        <ele>1664</ele>
        <time>2014-02-12T08:02:59.000Z</time>
      </trkpt>
      <trkpt lat="45.91585" lon="6.49005">
        <ele>1664.8000488281</ele>
        <time>2014-02-12T08:03:00.000Z</time>
      </trkpt>
      <trkpt lat="45.91586" lon="6.49005">
        <ele>1665.4000244141</ele>
        <time>2014-02-12T08:03:01.000Z</time>
      </trkpt>
      <trkpt lat="45.91586" lon="6.49005">
        <ele>1665.4000244141</ele>
        <time>2014-02-12T08:03:02.000Z</time>
      </trkpt>
      <trkpt lat="45.91586" lon="6.49005">
        <ele>1665.4000244141</ele>
        <time>2014-02-12T08:03:03.000Z</time>
      </trkpt>
      <trkpt lat="45.91586" lon="6.49005">
        <ele>1665.4000244141</ele>
        <time>2014-02-12T08:03:04.000Z</time>
      </trkpt>
      <trkpt lat="45.91588" lon="6.49006">
        <ele>1666.1999511719</ele>
        <time>2014-02-12T08:03:05.000Z</time>
      </trkpt>
      <trkpt lat="45.91589" lon="6.49007">
        <ele>1667</ele>
        <time>2014-02-12T08:03:06.000Z</time>
      </trkpt>
      <trkpt lat="45.91589" lon="6.49008">
        <ele>1667.4000244141</ele>
        <time>2014-02-12T08:03:07.000Z</time>
      </trkpt>
      <trkpt lat="45.91589" lon="6.49008">
        <ele>1667.4000244141</ele>
        <time>2014-02-12T08:03:08.000Z</time>
      </trkpt>
      <trkpt lat="45.91589" lon="6.49008">
        <ele>1667.4000244141</ele>
        <time>2014-02-12T08:03:09.000Z</time>
      </trkpt>
      <trkpt lat="45.91589" lon="6.49008">
        <ele>1667.4000244141</ele>
        <time>2014-02-12T08:03:10.000Z</time>
      </trkpt>
      <trkpt lat="45.91589" lon="6.49008">
        <ele>1667.4000244141</ele>
        <time>2014-02-12T08:03:11.000Z</time>
      </trkpt>
      <trkpt lat="45.91589" lon="6.49008">
        <ele>1667.4000244141</ele>
        <time>2014-02-12T08:03:12.000Z</time>
      </trkpt>
      <trkpt lat="45.91589" lon="6.49008">
        <ele>1667.4000244141</ele>
        <time>2014-02-12T08:03:13.000Z</time>
      </trkpt>
      <trkpt lat="45.91588" lon="6.49009">
        <ele>1667.5999755859</ele>
        <time>2014-02-12T08:03:14.000Z</time>
      </trkpt>
      <trkpt lat="45.91588" lon="6.49009">
        <ele>1667.5999755859</ele>
        <time>2014-02-12T08:03:15.000Z</time>
      </trkpt>
      <trkpt lat="45.91588" lon="6.4901">
        <ele>1668</ele>
        <time>2014-02-12T08:03:16.000Z</time>
      </trkpt>
      <trkpt lat="45.91588" lon="6.4901">
        <ele>1668</ele>
        <time>2014-02-12T08:03:17.000Z</time>
      </trkpt>
      <trkpt lat="45.91588" lon="6.49011">
        <ele>1668.4000244141</ele>
        <time>2014-02-12T08:03:18.000Z</time>
      </trkpt>
      <trkpt lat="45.91588" lon="6.49011">
        <ele>1668.4000244141</ele>
        <time>2014-02-12T08:03:19.000Z</time>
      </trkpt>
      <trkpt lat="45.91588" lon="6.49011">
        <ele>1668.4000244141</ele>
        <time>2014-02-12T08:03:20.000Z</time>
      </trkpt>
      <trkpt lat="45.91588" lon="6.49011">
        <ele>1668.4000244141</ele>
        <time>2014-02-12T08:03:21.000Z</time>
      </trkpt>
      <trkpt lat="45.91588" lon="6.49011">
        <ele>1668.4000244141</ele>
        <time>2014-02-12T08:03:22.000Z</time>
      </trkpt>
      <trkpt lat="45.91588" lon="6.49011">
        <ele>1668.4000244141</ele>
        <time>2014-02-12T08:03:23.000Z</time>
      </trkpt>
      <trkpt lat="45.91588" lon="6.49012">
        <ele>1669</ele>
        <time>2014-02-12T08:03:24.000Z</time>
      </trkpt>
      <trkpt lat="45.91588" lon="6.49012">
        <ele>1669</ele>
        <time>2014-02-12T08:03:25.000Z</time>
      </trkpt>
      <trkpt lat="45.91588" lon="6.49012">
        <ele>1669</ele>
        <time>2014-02-12T08:03:26.000Z</time>
      </trkpt>
      <trkpt lat="45.91588" lon="6.49012">
        <ele>1669</ele>
        <time>2014-02-12T08:03:27.000Z</time>
      </trkpt>
      <trkpt lat="45.91587" lon="6.49013">
        <ele>1669.4000244141</ele>
        <time>2014-02-12T08:03:28.000Z</time>
      </trkpt>
      <trkpt lat="45.91587" lon="6.49014">
        <ele>1670.1999511719</ele>
        <time>2014-02-12T08:03:29.000Z</time>
      </trkpt>
      <trkpt lat="45.91587" lon="6.49014">
        <ele>1670.1999511719</ele>
        <time>2014-02-12T08:03:30.000Z</time>
      </trkpt>
      <trkpt lat="45.91587" lon="6.49014">
        <ele>1670.1999511719</ele>
        <time>2014-02-12T08:03:31.000Z</time>
      </trkpt>
      <trkpt lat="45.91587" lon="6.49014">
        <ele>1670.1999511719</ele>
        <time>2014-02-12T08:03:32.000Z</time>
      </trkpt>
      <trkpt lat="45.91586" lon="6.49016">
        <ele>1670.8000488281</ele>
        <time>2014-02-12T08:03:33.000Z</time>
      </trkpt>
      <trkpt lat="45.91586" lon="6.49016">
        <ele>1670.8000488281</ele>
        <time>2014-02-12T08:03:34.000Z</time>
      </trkpt>
      <trkpt lat="45.91585" lon="6.49017">
        <ele>1671.1999511719</ele>
        <time>2014-02-12T08:03:35.000Z</time>
      </trkpt>
      <trkpt lat="45.91585" lon="6.49017">
        <ele>1671.1999511719</ele>
        <time>2014-02-12T08:03:36.000Z</time>
      </trkpt>
      <trkpt lat="45.91585" lon="6.49018">
        <ele>1671.5999755859</ele>
        <time>2014-02-12T08:03:37.000Z</time>
      </trkpt>
      <trkpt lat="45.91585" lon="6.49018">
        <ele>1671.5999755859</ele>
        <time>2014-02-12T08:03:38.000Z</time>
      </trkpt>
      <trkpt lat="45.91585" lon="6.49018">
        <ele>1671.5999755859</ele>
        <time>2014-02-12T08:03:39.000Z</time>
      </trkpt>
      <trkpt lat="45.91585" lon="6.49018">
        <ele>1671.5999755859</ele>
        <time>2014-02-12T08:03:40.000Z</time>
      </trkpt>
      <trkpt lat="45.91585" lon="6.49018">
        <ele>1671.5999755859</ele>
        <time>2014-02-12T08:03:41.000Z</time>
      </trkpt>
      <trkpt lat="45.91585" lon="6.49018">
        <ele>1671.5999755859</ele>
        <time>2014-02-12T08:03:42.000Z</time>
      </trkpt>
      <trkpt lat="45.91585" lon="6.49018">
        <ele>1671.5999755859</ele>
        <time>2014-02-12T08:03:43.000Z</time>
      </trkpt>
      <trkpt lat="45.91585" lon="6.49018">
        <ele>1671.5999755859</ele>
        <time>2014-02-12T08:03:44.000Z</time>
      </trkpt>
      <trkpt lat="45.91585" lon="6.49018">
        <ele>1671.5999755859</ele>
        <time>2014-02-12T08:03:45.000Z</time>
      </trkpt>
      <trkpt lat="45.91585" lon="6.49018">
        <ele>1671.5999755859</ele>
        <time>2014-02-12T08:03:46.000Z</time>
      </trkpt>
      <trkpt lat="45.91585" lon="6.49018">
        <ele>1671.5999755859</ele>
        <time>2014-02-12T08:03:47.000Z</time>
      </trkpt>
      <trkpt lat="45.91585" lon="6.49018">
        <ele>1671.5999755859</ele>
        <time>2014-02-12T08:03:48.000Z</time>
      </trkpt>
      <trkpt lat="45.91585" lon="6.49018">
        <ele>1671.5999755859</ele>
        <time>2014-02-12T08:03:49.000Z</time>
      </trkpt>
      <trkpt lat="45.91585" lon="6.49018">
        <ele>1671.5999755859</ele>
        <time>2014-02-12T08:03:50.000Z</time>
      </trkpt>
      <trkpt lat="45.91585" lon="6.49018">
        <ele>1671.5999755859</ele>
        <time>2014-02-12T08:03:51.000Z</time>
      </trkpt>
      <trkpt lat="45.91585" lon="6.49018">
        <ele>1671.5999755859</ele>
        <time>2014-02-12T08:03:52.000Z</time>
      </trkpt>
      <trkpt lat="45.91585" lon="6.49018">
        <ele>1671.5999755859</ele>
        <time>2014-02-12T08:03:53.000Z</time>
      </trkpt>
      <trkpt lat="45.91585" lon="6.49018">
        <ele>1671.5999755859</ele>
        <time>2014-02-12T08:03:54.000Z</time>
      </trkpt>
      <trkpt lat="45.91585" lon="6.49018">
        <ele>1671.5999755859</ele>
        <time>2014-02-12T08:03:55.000Z</time>
      </trkpt>
      <trkpt lat="45.91585" lon="6.49018">
        <ele>1671.5999755859</ele>
        <time>2014-02-12T08:03:56.000Z</time>
      </trkpt>
      <trkpt lat="45.91585" lon="6.49018">
        <ele>1671.5999755859</ele>
        <time>2014-02-12T08:03:57.000Z</time>
      </trkpt>
      <trkpt lat="45.91585" lon="6.49018">
        <ele>1671.5999755859</ele>
        <time>2014-02-12T08:03:58.000Z</time>
      </trkpt>
      <trkpt lat="45.91585" lon="6.49018">
        <ele>1671.5999755859</ele>
        <time>2014-02-12T08:03:59.000Z</time>
      </trkpt>
      <trkpt lat="45.91585" lon="6.49018">
        <ele>1671.5999755859</ele>
        <time>2014-02-12T08:04:00.000Z</time>
      </trkpt>
      <trkpt lat="45.91585" lon="6.49018">
        <ele>1671.5999755859</ele>
        <time>2014-02-12T08:04:01.000Z</time>
      </trkpt>
      <trkpt lat="45.91585" lon="6.49018">
        <ele>1671.5999755859</ele>
        <time>2014-02-12T08:04:02.000Z</time>
      </trkpt>
      <trkpt lat="45.91585" lon="6.49018">
        <ele>1671.5999755859</ele>
        <time>2014-02-12T08:04:03.000Z</time>
      </trkpt>
      <trkpt lat="45.91585" lon="6.49018">
        <ele>1671.5999755859</ele>
        <time>2014-02-12T08:04:04.000Z</time>
      </trkpt>
      <trkpt lat="45.91585" lon="6.49018">
        <ele>1671.5999755859</ele>
        <time>2014-02-12T08:04:05.000Z</time>
      </trkpt>
      <trkpt lat="45.91585" lon="6.49018">
        <ele>1671.5999755859</ele>
        <time>2014-02-12T08:04:06.000Z</time>
      </trkpt>
      <trkpt lat="45.91585" lon="6.49018">
        <ele>1671.5999755859</ele>
        <time>2014-02-12T08:04:07.000Z</time>
      </trkpt>
      <trkpt lat="45.91585" lon="6.49018">
        <ele>1671.5999755859</ele>
        <time>2014-02-12T08:04:08.000Z</time>
      </trkpt>
      <trkpt lat="45.91587" lon="6.49019">
        <ele>1672.8000488281</ele>
        <time>2014-02-12T08:04:09.000Z</time>
      </trkpt>
      <trkpt lat="45.91587" lon="6.49019">
        <ele>1672.8000488281</ele>
        <time>2014-02-12T08:04:10.000Z</time>
      </trkpt>
      <trkpt lat="45.91587" lon="6.49019">
        <ele>1672.8000488281</ele>
        <time>2014-02-12T08:04:11.000Z</time>
      </trkpt>
      <trkpt lat="45.91587" lon="6.49019">
        <ele>1672.8000488281</ele>
        <time>2014-02-12T08:04:12.000Z</time>
      </trkpt>
      <trkpt lat="45.91587" lon="6.49019">
        <ele>1672.8000488281</ele>
        <time>2014-02-12T08:04:13.000Z</time>
      </trkpt>
      <trkpt lat="45.91587" lon="6.49019">
        <ele>1672.8000488281</ele>
        <time>2014-02-12T08:04:14.000Z</time>
      </trkpt>
      <trkpt lat="45.91587" lon="6.49019">
        <ele>1672.8000488281</ele>
        <time>2014-02-12T08:04:15.000Z</time>
      </trkpt>
      <trkpt lat="45.91587" lon="6.49019">
        <ele>1672.8000488281</ele>
        <time>2014-02-12T08:04:16.000Z</time>
      </trkpt>
      <trkpt lat="45.91587" lon="6.49019">
        <ele>1672.8000488281</ele>
        <time>2014-02-12T08:04:17.000Z</time>
      </trkpt>
      <trkpt lat="45.91587" lon="6.49019">
        <ele>1672.8000488281</ele>
        <time>2014-02-12T08:04:18.000Z</time>
      </trkpt>
      <trkpt lat="45.91587" lon="6.49019">
        <ele>1672.8000488281</ele>
        <time>2014-02-12T08:04:19.000Z</time>
      </trkpt>
      <trkpt lat="45.91587" lon="6.49019">
        <ele>1672.8000488281</ele>
        <time>2014-02-12T08:04:20.000Z</time>
      </trkpt>
      <trkpt lat="45.91587" lon="6.49019">
        <ele>1672.8000488281</ele>
        <time>2014-02-12T08:04:21.000Z</time>
      </trkpt>
      <trkpt lat="45.91586" lon="6.49022">
        <ele>1674</ele>
        <time>2014-02-12T08:04:22.000Z</time>
      </trkpt>
      <trkpt lat="45.91585" lon="6.49023">
        <ele>1674.4000244141</ele>
        <time>2014-02-12T08:04:23.000Z</time>
      </trkpt>
      <trkpt lat="45.91585" lon="6.49024">
        <ele>1675</ele>
        <time>2014-02-12T08:04:24.000Z</time>
      </trkpt>
      <trkpt lat="45.91585" lon="6.49024">
        <ele>1675</ele>
        <time>2014-02-12T08:04:25.000Z</time>
      </trkpt>
      <trkpt lat="45.91584" lon="6.49025">
        <ele>1675.5999755859</ele>
        <time>2014-02-12T08:04:26.000Z</time>
      </trkpt>
      <trkpt lat="45.91584" lon="6.49025">
        <ele>1675.5999755859</ele>
        <time>2014-02-12T08:04:27.000Z</time>
      </trkpt>
      <trkpt lat="45.91584" lon="6.49025">
        <ele>1675.5999755859</ele>
        <time>2014-02-12T08:04:28.000Z</time>
      </trkpt>
      <trkpt lat="45.91585" lon="6.49028">
        <ele>1677.1999511719</ele>
        <time>2014-02-12T08:04:29.000Z</time>
      </trkpt>
      <trkpt lat="45.91585" lon="6.4903">
        <ele>1678.1999511719</ele>
        <time>2014-02-12T08:04:30.000Z</time>
      </trkpt>
      <trkpt lat="45.91585" lon="6.49031">
        <ele>1678.8000488281</ele>
        <time>2014-02-12T08:04:31.000Z</time>
      </trkpt>
      <trkpt lat="45.91585" lon="6.49031">
        <ele>1678.8000488281</ele>
        <time>2014-02-12T08:04:32.000Z</time>
      </trkpt>
      <trkpt lat="45.91585" lon="6.49031">
        <ele>1678.8000488281</ele>
        <time>2014-02-12T08:04:33.000Z</time>
      </trkpt>
      <trkpt lat="45.91585" lon="6.49031">
        <ele>1678.8000488281</ele>
        <time>2014-02-12T08:04:34.000Z</time>
      </trkpt>
      <trkpt lat="45.91584" lon="6.49033">
        <ele>1679.5999755859</ele>
        <time>2014-02-12T08:04:35.000Z</time>
      </trkpt>
      <trkpt lat="45.91584" lon="6.49033">
        <ele>1679.5999755859</ele>
        <time>2014-02-12T08:04:36.000Z</time>
      </trkpt>
      <trkpt lat="45.91584" lon="6.49034">
        <ele>1680</ele>
        <time>2014-02-12T08:04:37.000Z</time>
      </trkpt>
      <trkpt lat="45.91583" lon="6.49034">
        <ele>1680.1999511719</ele>
        <time>2014-02-12T08:04:38.000Z</time>
      </trkpt>
      <trkpt lat="45.91583" lon="6.49034">
        <ele>1680.1999511719</ele>
        <time>2014-02-12T08:04:39.000Z</time>
      </trkpt>
      <trkpt lat="45.91582" lon="6.49035">
        <ele>1680.4000244141</ele>
        <time>2014-02-12T08:04:40.000Z</time>
      </trkpt>
      <trkpt lat="45.91581" lon="6.49035">
        <ele>1680.1999511719</ele>
        <time>2014-02-12T08:04:41.000Z</time>
      </trkpt>
      <trkpt lat="45.9158" lon="6.49035">
        <ele>1680</ele>
        <time>2014-02-12T08:04:42.000Z</time>
      </trkpt>
      <trkpt lat="45.9158" lon="6.49035">
        <ele>1680</ele>
        <time>2014-02-12T08:04:43.000Z</time>
      </trkpt>
      <trkpt lat="45.9158" lon="6.49035">
        <ele>1680</ele>
        <time>2014-02-12T08:04:44.000Z</time>
      </trkpt>
      <trkpt lat="45.9158" lon="6.49035">
        <ele>1680</ele>
        <time>2014-02-12T08:04:45.000Z</time>
      </trkpt>
      <trkpt lat="45.9158" lon="6.49035">
        <ele>1680</ele>
        <time>2014-02-12T08:04:46.000Z</time>
      </trkpt>
      <trkpt lat="45.9158" lon="6.49035">
        <ele>1680</ele>
        <time>2014-02-12T08:04:47.000Z</time>
      </trkpt>
      <trkpt lat="45.9158" lon="6.49035">
        <ele>1680</ele>
        <time>2014-02-12T08:04:48.000Z</time>
      </trkpt>
      <trkpt lat="45.9158" lon="6.49035">
        <ele>1680</ele>
        <time>2014-02-12T08:04:49.000Z</time>
      </trkpt>
      <trkpt lat="45.9158" lon="6.49035">
        <ele>1680</ele>
        <time>2014-02-12T08:04:50.000Z</time>
      </trkpt>
      <trkpt lat="45.9158" lon="6.49035">
        <ele>1680</ele>
        <time>2014-02-12T08:04:51.000Z</time>
      </trkpt>
      <trkpt lat="45.9158" lon="6.49035">
        <ele>1680</ele>
        <time>2014-02-12T08:04:52.000Z</time>
      </trkpt>
      <trkpt lat="45.9158" lon="6.49035">
        <ele>1680</ele>
        <time>2014-02-12T08:04:53.000Z</time>
      </trkpt>
      <trkpt lat="45.91581" lon="6.49036">
        <ele>1680.8000488281</ele>
        <time>2014-02-12T08:04:54.000Z</time>
      </trkpt>
      <trkpt lat="45.91582" lon="6.49036">
        <ele>1681.1999511719</ele>
        <time>2014-02-12T08:04:55.000Z</time>
      </trkpt>
      <trkpt lat="45.91583" lon="6.49037">
        <ele>1681.8000488281</ele>
        <time>2014-02-12T08:04:56.000Z</time>
      </trkpt>
      <trkpt lat="45.91583" lon="6.49037">
        <ele>1681.8000488281</ele>
        <time>2014-02-12T08:04:57.000Z</time>
      </trkpt>
      <trkpt lat="45.91584" lon="6.49038">
        <ele>1682.4000244141</ele>
        <time>2014-02-12T08:04:58.000Z</time>
      </trkpt>
      <trkpt lat="45.91586" lon="6.4904">
        <ele>1683.8000488281</ele>
        <time>2014-02-12T08:05:00.000Z</time>
      </trkpt>
      <trkpt lat="45.91587" lon="6.49041">
        <ele>1684.5999755859</ele>
        <time>2014-02-12T08:05:01.000Z</time>
      </trkpt>
      <trkpt lat="45.91587" lon="6.49042">
        <ele>1685.1999511719</ele>
        <time>2014-02-12T08:05:02.000Z</time>
      </trkpt>
      <trkpt lat="45.91588" lon="6.49043">
        <ele>1686</ele>
        <time>2014-02-12T08:05:03.000Z</time>
      </trkpt>
      <trkpt lat="45.91588" lon="6.49044">
        <ele>1686.5999755859</ele>
        <time>2014-02-12T08:05:04.000Z</time>
      </trkpt>
      <trkpt lat="45.91588" lon="6.49044">
        <ele>1686.5999755859</ele>
        <time>2014-02-12T08:05:05.000Z</time>
      </trkpt>
      <trkpt lat="45.91589" lon="6.49045">
        <ele>1687.4000244141</ele>
        <time>2014-02-12T08:05:06.000Z</time>
      </trkpt>
      <trkpt lat="45.9159" lon="6.49047">
        <ele>1688.4000244141</ele>
        <time>2014-02-12T08:05:07.000Z</time>
      </trkpt>
      <trkpt lat="45.91591" lon="6.49048">
        <ele>1689.1999511719</ele>
        <time>2014-02-12T08:05:08.000Z</time>
      </trkpt>
      <trkpt lat="45.91592" lon="6.49049">
        <ele>1689.5999755859</ele>
        <time>2014-02-12T08:05:09.000Z</time>
      </trkpt>
      <trkpt lat="45.91593" lon="6.4905">
        <ele>1690.4000244141</ele>
        <time>2014-02-12T08:05:10.000Z</time>
      </trkpt>
      <trkpt lat="45.91593" lon="6.49051">
        <ele>1691.1999511719</ele>
        <time>2014-02-12T08:05:11.000Z</time>
      </trkpt>
      <trkpt lat="45.91594" lon="6.49052">
        <ele>1691.5999755859</ele>
        <time>2014-02-12T08:05:12.000Z</time>
      </trkpt>
      <trkpt lat="45.91594" lon="6.49052">
        <ele>1691.8000488281</ele>
        <time>2014-02-12T08:05:13.000Z</time>
      </trkpt>
      <trkpt lat="45.91595" lon="6.49052">
        <ele>1692</ele>
        <time>2014-02-12T08:05:14.000Z</time>
      </trkpt>
      <trkpt lat="45.91595" lon="6.49052">
        <ele>1692</ele>
        <time>2014-02-12T08:05:15.000Z</time>
      </trkpt>
      <trkpt lat="45.91596" lon="6.49052">
        <ele>1692.4000244141</ele>
        <time>2014-02-12T08:05:16.000Z</time>
      </trkpt>
      <trkpt lat="45.91597" lon="6.49053">
        <ele>1692.8000488281</ele>
        <time>2014-02-12T08:05:17.000Z</time>
      </trkpt>
      <trkpt lat="45.91598" lon="6.49054">
        <ele>1693.4000244141</ele>
        <time>2014-02-12T08:05:18.000Z</time>
      </trkpt>
      <trkpt lat="45.91599" lon="6.49054">
        <ele>1694</ele>
        <time>2014-02-12T08:05:19.000Z</time>
      </trkpt>
      <trkpt lat="45.916" lon="6.49055">
        <ele>1694.5999755859</ele>
        <time>2014-02-12T08:05:20.000Z</time>
      </trkpt>
      <trkpt lat="45.91601" lon="6.49056">
        <ele>1695.4000244141</ele>
        <time>2014-02-12T08:05:21.000Z</time>
      </trkpt>
      <trkpt lat="45.91603" lon="6.49057">
        <ele>1696</ele>
        <time>2014-02-12T08:05:22.000Z</time>
      </trkpt>
      <trkpt lat="45.91604" lon="6.49058">
        <ele>1697</ele>
        <time>2014-02-12T08:05:23.000Z</time>
      </trkpt>
      <trkpt lat="45.91604" lon="6.49059">
        <ele>1697.4000244141</ele>
        <time>2014-02-12T08:05:24.000Z</time>
      </trkpt>
      <trkpt lat="45.91604" lon="6.49059">
        <ele>1697.5999755859</ele>
        <time>2014-02-12T08:05:25.000Z</time>
      </trkpt>
      <trkpt lat="45.91604" lon="6.4906">
        <ele>1697.8000488281</ele>
        <time>2014-02-12T08:05:26.000Z</time>
      </trkpt>
      <trkpt lat="45.91605" lon="6.4906">
        <ele>1698</ele>
        <time>2014-02-12T08:05:27.000Z</time>
      </trkpt>
      <trkpt lat="45.91605" lon="6.49061">
        <ele>1698.5999755859</ele>
        <time>2014-02-12T08:05:28.000Z</time>
      </trkpt>
      <trkpt lat="45.91606" lon="6.49061">
        <ele>1698.8000488281</ele>
        <time>2014-02-12T08:05:29.000Z</time>
      </trkpt>
      <trkpt lat="45.91606" lon="6.49061">
        <ele>1698.8000488281</ele>
        <time>2014-02-12T08:05:30.000Z</time>
      </trkpt>
      <trkpt lat="45.91606" lon="6.49061">
        <ele>1699</ele>
        <time>2014-02-12T08:05:31.000Z</time>
      </trkpt>
      <trkpt lat="45.91606" lon="6.49061">
        <ele>1699</ele>
        <time>2014-02-12T08:05:32.000Z</time>
      </trkpt>
      <trkpt lat="45.91607" lon="6.49061">
        <ele>1699.1999511719</ele>
        <time>2014-02-12T08:05:33.000Z</time>
      </trkpt>
      <trkpt lat="45.91608" lon="6.49062">
        <ele>1699.5999755859</ele>
        <time>2014-02-12T08:05:34.000Z</time>
      </trkpt>
      <trkpt lat="45.91608" lon="6.49062">
        <ele>1700</ele>
        <time>2014-02-12T08:05:35.000Z</time>
      </trkpt>
      <trkpt lat="45.91608" lon="6.49062">
        <ele>1700</ele>
        <time>2014-02-12T08:05:36.000Z</time>
      </trkpt>
      <trkpt lat="45.91609" lon="6.49063">
        <ele>1700.1999511719</ele>
        <time>2014-02-12T08:05:37.000Z</time>
      </trkpt>
      <trkpt lat="45.91609" lon="6.49063">
        <ele>1700.1999511719</ele>
        <time>2014-02-12T08:05:38.000Z</time>
      </trkpt>
      <trkpt lat="45.91609" lon="6.49063">
        <ele>1700.4000244141</ele>
        <time>2014-02-12T08:05:39.000Z</time>
      </trkpt>
      <trkpt lat="45.91609" lon="6.49063">
        <ele>1700.4000244141</ele>
        <time>2014-02-12T08:05:40.000Z</time>
      </trkpt>
      <trkpt lat="45.91609" lon="6.49063">
        <ele>1700.4000244141</ele>
        <time>2014-02-12T08:05:41.000Z</time>
      </trkpt>
      <trkpt lat="45.91609" lon="6.49063">
        <ele>1700.4000244141</ele>
        <time>2014-02-12T08:05:42.000Z</time>
      </trkpt>
      <trkpt lat="45.91609" lon="6.49063">
        <ele>1700.4000244141</ele>
        <time>2014-02-12T08:05:43.000Z</time>
      </trkpt>
      <trkpt lat="45.91609" lon="6.49063">
        <ele>1700.4000244141</ele>
        <time>2014-02-12T08:05:44.000Z</time>
      </trkpt>
      <trkpt lat="45.91609" lon="6.49063">
        <ele>1700.4000244141</ele>
        <time>2014-02-12T08:05:45.000Z</time>
      </trkpt>
      <trkpt lat="45.91609" lon="6.49064">
        <ele>1701.1999511719</ele>
        <time>2014-02-12T08:05:46.000Z</time>
      </trkpt>
      <trkpt lat="45.91609" lon="6.49064">
        <ele>1701.1999511719</ele>
        <time>2014-02-12T08:05:47.000Z</time>
      </trkpt>
      <trkpt lat="45.91609" lon="6.49064">
        <ele>1701.1999511719</ele>
        <time>2014-02-12T08:05:48.000Z</time>
      </trkpt>
      <trkpt lat="45.91609" lon="6.49064">
        <ele>1701.1999511719</ele>
        <time>2014-02-12T08:05:49.000Z</time>
      </trkpt>
      <trkpt lat="45.9161" lon="6.49065">
        <ele>1701.4000244141</ele>
        <time>2014-02-12T08:05:50.000Z</time>
      </trkpt>
      <trkpt lat="45.9161" lon="6.49065">
        <ele>1701.4000244141</ele>
        <time>2014-02-12T08:05:51.000Z</time>
      </trkpt>
      <trkpt lat="45.9161" lon="6.49065">
        <ele>1701.8000488281</ele>
        <time>2014-02-12T08:05:52.000Z</time>
      </trkpt>
      <trkpt lat="45.9161" lon="6.49066">
        <ele>1702</ele>
        <time>2014-02-12T08:05:53.000Z</time>
      </trkpt>
      <trkpt lat="45.91611" lon="6.49066">
        <ele>1702.4000244141</ele>
        <time>2014-02-12T08:05:54.000Z</time>
      </trkpt>
      <trkpt lat="45.91611" lon="6.49067">
        <ele>1702.8000488281</ele>
        <time>2014-02-12T08:05:55.000Z</time>
      </trkpt>
      <trkpt lat="45.91612" lon="6.49067">
        <ele>1703.1999511719</ele>
        <time>2014-02-12T08:05:56.000Z</time>
      </trkpt>
      <trkpt lat="45.91612" lon="6.49067">
        <ele>1703.4000244141</ele>
        <time>2014-02-12T08:05:57.000Z</time>
      </trkpt>
      <trkpt lat="45.91613" lon="6.49068">
        <ele>1703.5999755859</ele>
        <time>2014-02-12T08:05:58.000Z</time>
      </trkpt>
      <trkpt lat="45.91613" lon="6.49068">
        <ele>1703.8000488281</ele>
        <time>2014-02-12T08:05:59.000Z</time>
      </trkpt>
      <trkpt lat="45.91613" lon="6.49068">
        <ele>1703.8000488281</ele>
        <time>2014-02-12T08:06:00.000Z</time>
      </trkpt>
      <trkpt lat="45.91613" lon="6.49068">
        <ele>1704</ele>
        <time>2014-02-12T08:06:01.000Z</time>
      </trkpt>
      <trkpt lat="45.91614" lon="6.49069">
        <ele>1704.4000244141</ele>
        <time>2014-02-12T08:06:02.000Z</time>
      </trkpt>
      <trkpt lat="45.91614" lon="6.49069">
        <ele>1704.5999755859</ele>
        <time>2014-02-12T08:06:03.000Z</time>
      </trkpt>
      <trkpt lat="45.91614" lon="6.4907">
        <ele>1705</ele>
        <time>2014-02-12T08:06:04.000Z</time>
      </trkpt>
      <trkpt lat="45.91615" lon="6.4907">
        <ele>1705.1999511719</ele>
        <time>2014-02-12T08:06:05.000Z</time>
      </trkpt>
      <trkpt lat="45.91615" lon="6.49071">
        <ele>1705.5999755859</ele>
        <time>2014-02-12T08:06:06.000Z</time>
      </trkpt>
      <trkpt lat="45.91616" lon="6.49071">
        <ele>1706</ele>
        <time>2014-02-12T08:06:07.000Z</time>
      </trkpt>
      <trkpt lat="45.91616" lon="6.49072">
        <ele>1706.4000244141</ele>
        <time>2014-02-12T08:06:08.000Z</time>
      </trkpt>
      <trkpt lat="45.91617" lon="6.49072">
        <ele>1706.5999755859</ele>
        <time>2014-02-12T08:06:09.000Z</time>
      </trkpt>
      <trkpt lat="45.91617" lon="6.49073">
        <ele>1707.1999511719</ele>
        <time>2014-02-12T08:06:10.000Z</time>
      </trkpt>
      <trkpt lat="45.91618" lon="6.49073">
        <ele>1707.5999755859</ele>
        <time>2014-02-12T08:06:11.000Z</time>
      </trkpt>
      <trkpt lat="45.91618" lon="6.49074">
        <ele>1707.8000488281</ele>
        <time>2014-02-12T08:06:12.000Z</time>
      </trkpt>
      <trkpt lat="45.91619" lon="6.49074">
        <ele>1708.1999511719</ele>
        <time>2014-02-12T08:06:13.000Z</time>
      </trkpt>
      <trkpt lat="45.91619" lon="6.49075">
        <ele>1708.4000244141</ele>
        <time>2014-02-12T08:06:14.000Z</time>
      </trkpt>
      <trkpt lat="45.91619" lon="6.49075">
        <ele>1708.5999755859</ele>
        <time>2014-02-12T08:06:15.000Z</time>
      </trkpt>
      <trkpt lat="45.9162" lon="6.49076">
        <ele>1709</ele>
        <time>2014-02-12T08:06:16.000Z</time>
      </trkpt>
      <trkpt lat="45.9162" lon="6.49076">
        <ele>1709</ele>
        <time>2014-02-12T08:06:17.000Z</time>
      </trkpt>
      <trkpt lat="45.9162" lon="6.49076">
        <ele>1709.1999511719</ele>
        <time>2014-02-12T08:06:18.000Z</time>
      </trkpt>
      <trkpt lat="45.9162" lon="6.49076">
        <ele>1709.1999511719</ele>
        <time>2014-02-12T08:06:19.000Z</time>
      </trkpt>
      <trkpt lat="45.91621" lon="6.49076">
        <ele>1709.4000244141</ele>
        <time>2014-02-12T08:06:20.000Z</time>
      </trkpt>
      <trkpt lat="45.91621" lon="6.49076">
        <ele>1709.4000244141</ele>
        <time>2014-02-12T08:06:21.000Z</time>
      </trkpt>
      <trkpt lat="45.91621" lon="6.49076">
        <ele>1709.5999755859</ele>
        <time>2014-02-12T08:06:22.000Z</time>
      </trkpt>
      <trkpt lat="45.91621" lon="6.49076">
        <ele>1709.5999755859</ele>
        <time>2014-02-12T08:06:23.000Z</time>
      </trkpt>
      <trkpt lat="45.91621" lon="6.49076">
        <ele>1709.5999755859</ele>
        <time>2014-02-12T08:06:24.000Z</time>
      </trkpt>
      <trkpt lat="45.91621" lon="6.49076">
        <ele>1709.5999755859</ele>
        <time>2014-02-12T08:06:25.000Z</time>
      </trkpt>
      <trkpt lat="45.91621" lon="6.49077">
        <ele>1709.8000488281</ele>
        <time>2014-02-12T08:06:26.000Z</time>
      </trkpt>
      <trkpt lat="45.91621" lon="6.49077">
        <ele>1709.8000488281</ele>
        <time>2014-02-12T08:06:27.000Z</time>
      </trkpt>
      <trkpt lat="45.91621" lon="6.49077">
        <ele>1710</ele>
        <time>2014-02-12T08:06:28.000Z</time>
      </trkpt>
      <trkpt lat="45.91622" lon="6.49078">
        <ele>1710.4000244141</ele>
        <time>2014-02-12T08:06:29.000Z</time>
      </trkpt>
      <trkpt lat="45.91622" lon="6.49079">
        <ele>1710.8000488281</ele>
        <time>2014-02-12T08:06:30.000Z</time>
      </trkpt>
      <trkpt lat="45.91622" lon="6.49079">
        <ele>1711.1999511719</ele>
        <time>2014-02-12T08:06:31.000Z</time>
      </trkpt>
      <trkpt lat="45.91622" lon="6.49079">
        <ele>1711.1999511719</ele>
        <time>2014-02-12T08:06:32.000Z</time>
      </trkpt>
      <trkpt lat="45.91622" lon="6.49079">
        <ele>1711.1999511719</ele>
        <time>2014-02-12T08:06:33.000Z</time>
      </trkpt>
      <trkpt lat="45.91623" lon="6.49079">
        <ele>1711.4000244141</ele>
        <time>2014-02-12T08:06:34.000Z</time>
      </trkpt>
      <trkpt lat="45.91623" lon="6.49079">
        <ele>1711.4000244141</ele>
        <time>2014-02-12T08:06:35.000Z</time>
      </trkpt>
      <trkpt lat="45.91623" lon="6.4908">
        <ele>1711.5999755859</ele>
        <time>2014-02-12T08:06:36.000Z</time>
      </trkpt>
      <trkpt lat="45.91624" lon="6.4908">
        <ele>1711.8000488281</ele>
        <time>2014-02-12T08:06:37.000Z</time>
      </trkpt>
      <trkpt lat="45.91624" lon="6.4908">
        <ele>1712.1999511719</ele>
        <time>2014-02-12T08:06:38.000Z</time>
      </trkpt>
      <trkpt lat="45.91624" lon="6.4908">
        <ele>1712.1999511719</ele>
        <time>2014-02-12T08:06:39.000Z</time>
      </trkpt>
      <trkpt lat="45.91624" lon="6.4908">
        <ele>1712.1999511719</ele>
        <time>2014-02-12T08:06:40.000Z</time>
      </trkpt>
      <trkpt lat="45.91624" lon="6.4908">
        <ele>1712.1999511719</ele>
        <time>2014-02-12T08:06:41.000Z</time>
      </trkpt>
      <trkpt lat="45.91624" lon="6.4908">
        <ele>1712.1999511719</ele>
        <time>2014-02-12T08:06:42.000Z</time>
      </trkpt>
      <trkpt lat="45.91624" lon="6.4908">
        <ele>1712.1999511719</ele>
        <time>2014-02-12T08:06:43.000Z</time>
      </trkpt>
      <trkpt lat="45.91624" lon="6.4908">
        <ele>1712.1999511719</ele>
        <time>2014-02-12T08:06:44.000Z</time>
      </trkpt>
      <trkpt lat="45.91624" lon="6.4908">
        <ele>1712.1999511719</ele>
        <time>2014-02-12T08:06:45.000Z</time>
      </trkpt>
      <trkpt lat="45.91624" lon="6.4908">
        <ele>1712.1999511719</ele>
        <time>2014-02-12T08:06:46.000Z</time>
      </trkpt>
      <trkpt lat="45.91624" lon="6.4908">
        <ele>1712.1999511719</ele>
        <time>2014-02-12T08:06:47.000Z</time>
      </trkpt>
      <trkpt lat="45.91624" lon="6.4908">
        <ele>1712.1999511719</ele>
        <time>2014-02-12T08:06:48.000Z</time>
      </trkpt>
      <trkpt lat="45.91625" lon="6.49081">
        <ele>1712.5999755859</ele>
        <time>2014-02-12T08:06:49.000Z</time>
      </trkpt>
      <trkpt lat="45.91625" lon="6.49081">
        <ele>1712.5999755859</ele>
        <time>2014-02-12T08:06:50.000Z</time>
      </trkpt>
      <trkpt lat="45.91625" lon="6.49081">
        <ele>1712.5999755859</ele>
        <time>2014-02-12T08:06:51.000Z</time>
      </trkpt>
      <trkpt lat="45.91625" lon="6.49081">
        <ele>1712.5999755859</ele>
        <time>2014-02-12T08:06:52.000Z</time>
      </trkpt>
      <trkpt lat="45.91625" lon="6.49081">
        <ele>1712.5999755859</ele>
        <time>2014-02-12T08:06:53.000Z</time>
      </trkpt>
      <trkpt lat="45.91625" lon="6.49081">
        <ele>1712.8000488281</ele>
        <time>2014-02-12T08:06:54.000Z</time>
      </trkpt>
      <trkpt lat="45.91625" lon="6.49081">
        <ele>1712.8000488281</ele>
        <time>2014-02-12T08:06:55.000Z</time>
      </trkpt>
      <trkpt lat="45.91626" lon="6.49081">
        <ele>1713</ele>
        <time>2014-02-12T08:06:56.000Z</time>
      </trkpt>
      <trkpt lat="45.91626" lon="6.49081">
        <ele>1713</ele>
        <time>2014-02-12T08:06:57.000Z</time>
      </trkpt>
      <trkpt lat="45.91626" lon="6.49082">
        <ele>1713.4000244141</ele>
        <time>2014-02-12T08:06:58.000Z</time>
      </trkpt>
      <trkpt lat="45.91626" lon="6.49082">
        <ele>1713.4000244141</ele>
        <time>2014-02-12T08:06:59.000Z</time>
      </trkpt>
      <trkpt lat="45.91627" lon="6.49082">
        <ele>1713.5999755859</ele>
        <time>2014-02-12T08:07:00.000Z</time>
      </trkpt>
      <trkpt lat="45.91627" lon="6.49082">
        <ele>1713.5999755859</ele>
        <time>2014-02-12T08:07:01.000Z</time>
      </trkpt>
      <trkpt lat="45.91628" lon="6.49082">
        <ele>1713.8000488281</ele>
        <time>2014-02-12T08:07:02.000Z</time>
      </trkpt>
      <trkpt lat="45.91628" lon="6.49082">
        <ele>1714</ele>
        <time>2014-02-12T08:07:03.000Z</time>
      </trkpt>
      <trkpt lat="45.91628" lon="6.49082">
        <ele>1714</ele>
        <time>2014-02-12T08:07:04.000Z</time>
      </trkpt>
      <trkpt lat="45.91628" lon="6.49082">
        <ele>1714</ele>
        <time>2014-02-12T08:07:05.000Z</time>
      </trkpt>
      <trkpt lat="45.91628" lon="6.49082">
        <ele>1714</ele>
        <time>2014-02-12T08:07:06.000Z</time>
      </trkpt>
      <trkpt lat="45.91628" lon="6.49082">
        <ele>1714</ele>
        <time>2014-02-12T08:07:07.000Z</time>
      </trkpt>
      <trkpt lat="45.91628" lon="6.49082">
        <ele>1714</ele>
        <time>2014-02-12T08:07:08.000Z</time>
      </trkpt>
      <trkpt lat="45.91628" lon="6.49082">
        <ele>1714</ele>
        <time>2014-02-12T08:07:09.000Z</time>
      </trkpt>
      <trkpt lat="45.91628" lon="6.49082">
        <ele>1714</ele>
        <time>2014-02-12T08:07:10.000Z</time>
      </trkpt>
      <trkpt lat="45.91628" lon="6.49082">
        <ele>1714</ele>
        <time>2014-02-12T08:07:11.000Z</time>
      </trkpt>
      <trkpt lat="45.91628" lon="6.49082">
        <ele>1714</ele>
        <time>2014-02-12T08:07:12.000Z</time>
      </trkpt>
      <trkpt lat="45.91628" lon="6.49082">
        <ele>1714</ele>
        <time>2014-02-12T08:07:13.000Z</time>
      </trkpt>
      <trkpt lat="45.91628" lon="6.49082">
        <ele>1714</ele>
        <time>2014-02-12T08:07:14.000Z</time>
      </trkpt>
      <trkpt lat="45.91628" lon="6.49082">
        <ele>1714</ele>
        <time>2014-02-12T08:07:15.000Z</time>
      </trkpt>
      <trkpt lat="45.91628" lon="6.49082">
        <ele>1714</ele>
        <time>2014-02-12T08:07:16.000Z</time>
      </trkpt>
      <trkpt lat="45.91628" lon="6.49082">
        <ele>1714</ele>
        <time>2014-02-12T08:07:17.000Z</time>
      </trkpt>
      <trkpt lat="45.91628" lon="6.49082">
        <ele>1714</ele>
        <time>2014-02-12T08:07:18.000Z</time>
      </trkpt>
      <trkpt lat="45.91628" lon="6.49082">
        <ele>1714</ele>
        <time>2014-02-12T08:07:19.000Z</time>
      </trkpt>
      <trkpt lat="45.91628" lon="6.49084">
        <ele>1714.5999755859</ele>
        <time>2014-02-12T08:07:20.000Z</time>
      </trkpt>
      <trkpt lat="45.91628" lon="6.49085">
        <ele>1715.1999511719</ele>
        <time>2014-02-12T08:07:21.000Z</time>
      </trkpt>
      <trkpt lat="45.91627" lon="6.49087">
        <ele>1716</ele>
        <time>2014-02-12T08:07:22.000Z</time>
      </trkpt>
      <trkpt lat="45.91627" lon="6.49088">
        <ele>1716.5999755859</ele>
        <time>2014-02-12T08:07:23.000Z</time>
      </trkpt>
      <trkpt lat="45.91627" lon="6.4909">
        <ele>1717.4000244141</ele>
        <time>2014-02-12T08:07:24.000Z</time>
      </trkpt>
      <trkpt lat="45.91627" lon="6.49091">
        <ele>1718.1999511719</ele>
        <time>2014-02-12T08:07:25.000Z</time>
      </trkpt>
      <trkpt lat="45.91627" lon="6.49093">
        <ele>1719.1999511719</ele>
        <time>2014-02-12T08:07:26.000Z</time>
      </trkpt>
      <trkpt lat="45.91627" lon="6.49094">
        <ele>1720</ele>
        <time>2014-02-12T08:07:27.000Z</time>
      </trkpt>
      <trkpt lat="45.91627" lon="6.49096">
        <ele>1720.5999755859</ele>
        <time>2014-02-12T08:07:28.000Z</time>
      </trkpt>
      <trkpt lat="45.91627" lon="6.49097">
        <ele>1721.1999511719</ele>
        <time>2014-02-12T08:07:29.000Z</time>
      </trkpt>
      <trkpt lat="45.91626" lon="6.49098">
        <ele>1721.8000488281</ele>
        <time>2014-02-12T08:07:30.000Z</time>
      </trkpt>
      <trkpt lat="45.91626" lon="6.49099">
        <ele>1722.1999511719</ele>
        <time>2014-02-12T08:07:31.000Z</time>
      </trkpt>
      <trkpt lat="45.91626" lon="6.491">
        <ele>1722.5999755859</ele>
        <time>2014-02-12T08:07:32.000Z</time>
      </trkpt>
      <trkpt lat="45.91625" lon="6.49101">
        <ele>1723</ele>
        <time>2014-02-12T08:07:33.000Z</time>
      </trkpt>
      <trkpt lat="45.91625" lon="6.49101">
        <ele>1723</ele>
        <time>2014-02-12T08:07:34.000Z</time>
      </trkpt>
      <trkpt lat="45.91625" lon="6.49102">
        <ele>1723.4000244141</ele>
        <time>2014-02-12T08:07:35.000Z</time>
      </trkpt>
      <trkpt lat="45.91625" lon="6.49102">
        <ele>1723.5999755859</ele>
        <time>2014-02-12T08:07:36.000Z</time>
      </trkpt>
      <trkpt lat="45.91625" lon="6.49103">
        <ele>1724</ele>
        <time>2014-02-12T08:07:37.000Z</time>
      </trkpt>
      <trkpt lat="45.91625" lon="6.49104">
        <ele>1724.5999755859</ele>
        <time>2014-02-12T08:07:38.000Z</time>
      </trkpt>
      <trkpt lat="45.91625" lon="6.49105">
        <ele>1725</ele>
        <time>2014-02-12T08:07:39.000Z</time>
      </trkpt>
      <trkpt lat="45.91624" lon="6.49106">
        <ele>1725.1999511719</ele>
        <time>2014-02-12T08:07:40.000Z</time>
      </trkpt>
      <trkpt lat="45.91624" lon="6.49107">
        <ele>1725.5999755859</ele>
        <time>2014-02-12T08:07:41.000Z</time>
      </trkpt>
      <trkpt lat="45.91624" lon="6.49107">
        <ele>1725.5999755859</ele>
        <time>2014-02-12T08:07:42.000Z</time>
      </trkpt>
      <trkpt lat="45.91624" lon="6.49107">
        <ele>1725.8000488281</ele>
        <time>2014-02-12T08:07:43.000Z</time>
      </trkpt>
      <trkpt lat="45.91624" lon="6.49107">
        <ele>1725.8000488281</ele>
        <time>2014-02-12T08:07:44.000Z</time>
      </trkpt>
      <trkpt lat="45.91623" lon="6.49108">
        <ele>1726.1999511719</ele>
        <time>2014-02-12T08:07:45.000Z</time>
      </trkpt>
      <trkpt lat="45.91623" lon="6.49108">
        <ele>1726.4000244141</ele>
        <time>2014-02-12T08:07:46.000Z</time>
      </trkpt>
      <trkpt lat="45.91622" lon="6.49109">
        <ele>1726.4000244141</ele>
        <time>2014-02-12T08:07:47.000Z</time>
      </trkpt>
      <trkpt lat="45.91621" lon="6.49109">
        <ele>1726.5999755859</ele>
        <time>2014-02-12T08:07:48.000Z</time>
      </trkpt>
      <trkpt lat="45.91621" lon="6.4911">
        <ele>1726.8000488281</ele>
        <time>2014-02-12T08:07:49.000Z</time>
      </trkpt>
      <trkpt lat="45.9162" lon="6.4911">
        <ele>1727</ele>
        <time>2014-02-12T08:07:50.000Z</time>
      </trkpt>
      <trkpt lat="45.91619" lon="6.49111">
        <ele>1726.8000488281</ele>
        <time>2014-02-12T08:07:52.000Z</time>
      </trkpt>
      <trkpt lat="45.91619" lon="6.49111">
        <ele>1726.8000488281</ele>
        <time>2014-02-12T08:07:53.000Z</time>
      </trkpt>
      <trkpt lat="45.91619" lon="6.49111">
        <ele>1726.8000488281</ele>
        <time>2014-02-12T08:07:54.000Z</time>
      </trkpt>
      <trkpt lat="45.91618" lon="6.49111">
        <ele>1726.8000488281</ele>
        <time>2014-02-12T08:07:55.000Z</time>
      </trkpt>
      <trkpt lat="45.91618" lon="6.49111">
        <ele>1726.8000488281</ele>
        <time>2014-02-12T08:07:56.000Z</time>
      </trkpt>
      <trkpt lat="45.91617" lon="6.49111">
        <ele>1726.8000488281</ele>
        <time>2014-02-12T08:07:57.000Z</time>
      </trkpt>
      <trkpt lat="45.91617" lon="6.49112">
        <ele>1727</ele>
        <time>2014-02-12T08:07:58.000Z</time>
      </trkpt>
      <trkpt lat="45.91615" lon="6.49113">
        <ele>1727.1999511719</ele>
        <time>2014-02-12T08:08:00.000Z</time>
      </trkpt>
      <trkpt lat="45.91615" lon="6.49113">
        <ele>1727.4000244141</ele>
        <time>2014-02-12T08:08:01.000Z</time>
      </trkpt>
      <trkpt lat="45.91614" lon="6.49113">
        <ele>1727.4000244141</ele>
        <time>2014-02-12T08:08:02.000Z</time>
      </trkpt>
      <trkpt lat="45.91613" lon="6.49114">
        <ele>1727.5999755859</ele>
        <time>2014-02-12T08:08:03.000Z</time>
      </trkpt>
      <trkpt lat="45.91613" lon="6.49114">
        <ele>1727.5999755859</ele>
        <time>2014-02-12T08:08:04.000Z</time>
      </trkpt>
      <trkpt lat="45.91612" lon="6.49115">
        <ele>1727.8000488281</ele>
        <time>2014-02-12T08:08:05.000Z</time>
      </trkpt>
      <trkpt lat="45.91611" lon="6.49116">
        <ele>1728.1999511719</ele>
        <time>2014-02-12T08:08:06.000Z</time>
      </trkpt>
      <trkpt lat="45.91611" lon="6.49117">
        <ele>1728.5999755859</ele>
        <time>2014-02-12T08:08:07.000Z</time>
      </trkpt>
      <trkpt lat="45.91611" lon="6.49118">
        <ele>1729</ele>
        <time>2014-02-12T08:08:08.000Z</time>
      </trkpt>
      <trkpt lat="45.9161" lon="6.49119">
        <ele>1729.4000244141</ele>
        <time>2014-02-12T08:08:09.000Z</time>
      </trkpt>
      <trkpt lat="45.9161" lon="6.49119">
        <ele>1729.5999755859</ele>
        <time>2014-02-12T08:08:10.000Z</time>
      </trkpt>
      <trkpt lat="45.91609" lon="6.4912">
        <ele>1730</ele>
        <time>2014-02-12T08:08:11.000Z</time>
      </trkpt>
      <trkpt lat="45.91608" lon="6.4912">
        <ele>1730</ele>
        <time>2014-02-12T08:08:12.000Z</time>
      </trkpt>
      <trkpt lat="45.91608" lon="6.49121">
        <ele>1730</ele>
        <time>2014-02-12T08:08:13.000Z</time>
      </trkpt>
      <trkpt lat="45.91607" lon="6.49121">
        <ele>1730</ele>
        <time>2014-02-12T08:08:14.000Z</time>
      </trkpt>
      <trkpt lat="45.91607" lon="6.49121">
        <ele>1730</ele>
        <time>2014-02-12T08:08:15.000Z</time>
      </trkpt>
      <trkpt lat="45.91607" lon="6.49121">
        <ele>1730</ele>
        <time>2014-02-12T08:08:16.000Z</time>
      </trkpt>
      <trkpt lat="45.91607" lon="6.49121">
        <ele>1730</ele>
        <time>2014-02-12T08:08:17.000Z</time>
      </trkpt>
      <trkpt lat="45.91607" lon="6.49121">
        <ele>1730</ele>
        <time>2014-02-12T08:08:18.000Z</time>
      </trkpt>
      <trkpt lat="45.91607" lon="6.49121">
        <ele>1730</ele>
        <time>2014-02-12T08:08:19.000Z</time>
      </trkpt>
      <trkpt lat="45.91607" lon="6.49121">
        <ele>1730</ele>
        <time>2014-02-12T08:08:20.000Z</time>
      </trkpt>
      <trkpt lat="45.91607" lon="6.49121">
        <ele>1730</ele>
        <time>2014-02-12T08:08:21.000Z</time>
      </trkpt>
      <trkpt lat="45.91607" lon="6.49121">
        <ele>1730</ele>
        <time>2014-02-12T08:08:22.000Z</time>
      </trkpt>
      <trkpt lat="45.91607" lon="6.49121">
        <ele>1730</ele>
        <time>2014-02-12T08:08:23.000Z</time>
      </trkpt>
      <trkpt lat="45.91607" lon="6.49121">
        <ele>1730</ele>
        <time>2014-02-12T08:08:24.000Z</time>
      </trkpt>
      <trkpt lat="45.91607" lon="6.49121">
        <ele>1730</ele>
        <time>2014-02-12T08:08:25.000Z</time>
      </trkpt>
      <trkpt lat="45.91607" lon="6.49121">
        <ele>1730</ele>
        <time>2014-02-12T08:08:26.000Z</time>
      </trkpt>
      <trkpt lat="45.91607" lon="6.49121">
        <ele>1730</ele>
        <time>2014-02-12T08:08:27.000Z</time>
      </trkpt>
      <trkpt lat="45.91607" lon="6.49121">
        <ele>1730</ele>
        <time>2014-02-12T08:08:28.000Z</time>
      </trkpt>
      <trkpt lat="45.91607" lon="6.49121">
        <ele>1730</ele>
        <time>2014-02-12T08:08:29.000Z</time>
      </trkpt>
      <trkpt lat="45.91607" lon="6.49121">
        <ele>1730</ele>
        <time>2014-02-12T08:08:30.000Z</time>
      </trkpt>
      <trkpt lat="45.91607" lon="6.49121">
        <ele>1730</ele>
        <time>2014-02-12T08:08:32.000Z</time>
      </trkpt>
      <trkpt lat="45.91607" lon="6.49121">
        <ele>1730</ele>
        <time>2014-02-12T08:08:33.000Z</time>
      </trkpt>
      <trkpt lat="45.91607" lon="6.49121">
        <ele>1730</ele>
        <time>2014-02-12T08:08:34.000Z</time>
      </trkpt>
      <trkpt lat="45.91607" lon="6.49121">
        <ele>1730</ele>
        <time>2014-02-12T08:08:36.000Z</time>
      </trkpt>
      <trkpt lat="45.91607" lon="6.49121">
        <ele>1730</ele>
        <time>2014-02-12T08:08:37.000Z</time>
      </trkpt>
      <trkpt lat="45.91607" lon="6.49121">
        <ele>1730</ele>
        <time>2014-02-12T08:08:38.000Z</time>
      </trkpt>
      <trkpt lat="45.91607" lon="6.49121">
        <ele>1730</ele>
        <time>2014-02-12T08:08:39.000Z</time>
      </trkpt>
      <trkpt lat="45.91607" lon="6.49121">
        <ele>1730</ele>
        <time>2014-02-12T08:08:40.000Z</time>
      </trkpt>
      <trkpt lat="45.91607" lon="6.49121">
        <ele>1730</ele>
        <time>2014-02-12T08:08:41.000Z</time>
      </trkpt>
      <trkpt lat="45.91607" lon="6.49121">
        <ele>1730</ele>
        <time>2014-02-12T08:08:42.000Z</time>
      </trkpt>
      <trkpt lat="45.91607" lon="6.49121">
        <ele>1730</ele>
        <time>2014-02-12T08:08:43.000Z</time>
      </trkpt>
      <trkpt lat="45.91607" lon="6.49121">
        <ele>1730</ele>
        <time>2014-02-12T08:08:44.000Z</time>
      </trkpt>
      <trkpt lat="45.91607" lon="6.49121">
        <ele>1730</ele>
        <time>2014-02-12T08:08:45.000Z</time>
      </trkpt>
      <trkpt lat="45.91607" lon="6.49121">
        <ele>1730</ele>
        <time>2014-02-12T08:08:46.000Z</time>
      </trkpt>
      <trkpt lat="45.91607" lon="6.49121">
        <ele>1730</ele>
        <time>2014-02-12T08:08:47.000Z</time>
      </trkpt>
      <trkpt lat="45.91607" lon="6.49121">
        <ele>1730</ele>
        <time>2014-02-12T08:08:55.000Z</time>
      </trkpt>
      <trkpt lat="45.91607" lon="6.49121">
        <ele>1730</ele>
        <time>2014-02-12T08:08:57.000Z</time>
      </trkpt>
      <trkpt lat="45.91607" lon="6.49121">
        <ele>1730</ele>
        <time>2014-02-12T08:08:58.000Z</time>
      </trkpt>
      <trkpt lat="45.91607" lon="6.49121">
        <ele>1730</ele>
        <time>2014-02-12T08:08:59.000Z</time>
      </trkpt>
      <trkpt lat="45.91607" lon="6.49122">
        <ele>1730.4000244141</ele>
        <time>2014-02-12T08:09:00.000Z</time>
      </trkpt>
      <trkpt lat="45.91607" lon="6.49122">
        <ele>1730.4000244141</ele>
        <time>2014-02-12T08:09:01.000Z</time>
      </trkpt>
      <trkpt lat="45.91607" lon="6.49122">
        <ele>1730.4000244141</ele>
        <time>2014-02-12T08:09:02.000Z</time>
      </trkpt>
      <trkpt lat="45.91607" lon="6.49122">
        <ele>1730.4000244141</ele>
        <time>2014-02-12T08:09:03.000Z</time>
      </trkpt>
      <trkpt lat="45.91607" lon="6.49122">
        <ele>1730.4000244141</ele>
        <time>2014-02-12T08:09:04.000Z</time>
      </trkpt>
      <trkpt lat="45.91607" lon="6.49122">
        <ele>1730.4000244141</ele>
        <time>2014-02-12T08:09:05.000Z</time>
      </trkpt>
      <trkpt lat="45.91607" lon="6.49122">
        <ele>1730.4000244141</ele>
        <time>2014-02-12T08:09:06.000Z</time>
      </trkpt>
      <trkpt lat="45.91607" lon="6.49122">
        <ele>1730.4000244141</ele>
        <time>2014-02-12T08:09:07.000Z</time>
      </trkpt>
      <trkpt lat="45.91607" lon="6.49122">
        <ele>1730.4000244141</ele>
        <time>2014-02-12T08:09:08.000Z</time>
      </trkpt>
      <trkpt lat="45.91607" lon="6.49122">
        <ele>1730.4000244141</ele>
        <time>2014-02-12T08:09:09.000Z</time>
      </trkpt>
      <trkpt lat="45.91607" lon="6.49122">
        <ele>1730.4000244141</ele>
        <time>2014-02-12T08:09:10.000Z</time>
      </trkpt>
      <trkpt lat="45.91607" lon="6.49122">
        <ele>1730.4000244141</ele>
        <time>2014-02-12T08:09:11.000Z</time>
      </trkpt>
      <trkpt lat="45.91607" lon="6.49123">
        <ele>1731.1999511719</ele>
        <time>2014-02-12T08:09:12.000Z</time>
      </trkpt>
      <trkpt lat="45.91607" lon="6.49124">
        <ele>1731.5999755859</ele>
        <time>2014-02-12T08:09:13.000Z</time>
      </trkpt>
      <trkpt lat="45.91607" lon="6.49125">
        <ele>1732.1999511719</ele>
        <time>2014-02-12T08:09:14.000Z</time>
      </trkpt>
      <trkpt lat="45.91607" lon="6.49127">
        <ele>1732.8000488281</ele>
        <time>2014-02-12T08:09:15.000Z</time>
      </trkpt>
      <trkpt lat="45.91607" lon="6.49127">
        <ele>1733</ele>
        <time>2014-02-12T08:09:16.000Z</time>
      </trkpt>
      <trkpt lat="45.91607" lon="6.49128">
        <ele>1733.4000244141</ele>
        <time>2014-02-12T08:09:17.000Z</time>
      </trkpt>
      <trkpt lat="45.91608" lon="6.49128">
        <ele>1733.8000488281</ele>
        <time>2014-02-12T08:09:18.000Z</time>
      </trkpt>
      <trkpt lat="45.91608" lon="6.49129">
        <ele>1734.1999511719</ele>
        <time>2014-02-12T08:09:19.000Z</time>
      </trkpt>
      <trkpt lat="45.91608" lon="6.4913">
        <ele>1734.5999755859</ele>
        <time>2014-02-12T08:09:20.000Z</time>
      </trkpt>
      <trkpt lat="45.91609" lon="6.4913">
        <ele>1735</ele>
        <time>2014-02-12T08:09:21.000Z</time>
      </trkpt>
      <trkpt lat="45.91609" lon="6.49131">
        <ele>1735.4000244141</ele>
        <time>2014-02-12T08:09:22.000Z</time>
      </trkpt>
      <trkpt lat="45.91609" lon="6.49131">
        <ele>1735.4000244141</ele>
        <time>2014-02-12T08:09:23.000Z</time>
      </trkpt>
      <trkpt lat="45.91609" lon="6.49131">
        <ele>1735.4000244141</ele>
        <time>2014-02-12T08:09:24.000Z</time>
      </trkpt>
      <trkpt lat="45.91609" lon="6.49131">
        <ele>1735.4000244141</ele>
        <time>2014-02-12T08:09:25.000Z</time>
      </trkpt>
      <trkpt lat="45.91609" lon="6.49131">
        <ele>1735.4000244141</ele>
        <time>2014-02-12T08:09:26.000Z</time>
      </trkpt>
      <trkpt lat="45.91609" lon="6.49131">
        <ele>1735.4000244141</ele>
        <time>2014-02-12T08:09:27.000Z</time>
      </trkpt>
      <trkpt lat="45.91609" lon="6.49131">
        <ele>1735.4000244141</ele>
        <time>2014-02-12T08:09:28.000Z</time>
      </trkpt>
      <trkpt lat="45.91609" lon="6.49131">
        <ele>1735.4000244141</ele>
        <time>2014-02-12T08:09:29.000Z</time>
      </trkpt>
      <trkpt lat="45.91609" lon="6.49131">
        <ele>1735.4000244141</ele>
        <time>2014-02-12T08:09:30.000Z</time>
      </trkpt>
      <trkpt lat="45.91609" lon="6.49131">
        <ele>1735.4000244141</ele>
        <time>2014-02-12T08:09:31.000Z</time>
      </trkpt>
      <trkpt lat="45.91609" lon="6.49131">
        <ele>1735.4000244141</ele>
        <time>2014-02-12T08:09:32.000Z</time>
      </trkpt>
      <trkpt lat="45.91609" lon="6.49131">
        <ele>1735.4000244141</ele>
        <time>2014-02-12T08:09:33.000Z</time>
      </trkpt>
      <trkpt lat="45.91609" lon="6.49131">
        <ele>1735.4000244141</ele>
        <time>2014-02-12T08:09:34.000Z</time>
      </trkpt>
      <trkpt lat="45.91609" lon="6.49131">
        <ele>1735.4000244141</ele>
        <time>2014-02-12T08:09:36.000Z</time>
      </trkpt>
      <trkpt lat="45.91609" lon="6.49131">
        <ele>1735.4000244141</ele>
        <time>2014-02-12T08:09:37.000Z</time>
      </trkpt>
      <trkpt lat="45.91609" lon="6.49131">
        <ele>1735.4000244141</ele>
        <time>2014-02-12T08:09:38.000Z</time>
      </trkpt>
      <trkpt lat="45.91609" lon="6.49131">
        <ele>1735.4000244141</ele>
        <time>2014-02-12T08:09:39.000Z</time>
      </trkpt>
      <trkpt lat="45.91609" lon="6.49131">
        <ele>1735.4000244141</ele>
        <time>2014-02-12T08:09:40.000Z</time>
      </trkpt>
      <trkpt lat="45.91609" lon="6.49131">
        <ele>1735.4000244141</ele>
        <time>2014-02-12T08:09:42.000Z</time>
      </trkpt>
      <trkpt lat="45.91609" lon="6.49131">
        <ele>1735.4000244141</ele>
        <time>2014-02-12T08:09:43.000Z</time>
      </trkpt>
      <trkpt lat="45.91609" lon="6.49131">
        <ele>1735.4000244141</ele>
        <time>2014-02-12T08:09:44.000Z</time>
      </trkpt>
      <trkpt lat="45.91609" lon="6.49131">
        <ele>1735.4000244141</ele>
        <time>2014-02-12T08:09:45.000Z</time>
      </trkpt>
      <trkpt lat="45.91609" lon="6.49131">
        <ele>1735.4000244141</ele>
        <time>2014-02-12T08:09:46.000Z</time>
      </trkpt>
      <trkpt lat="45.91609" lon="6.49131">
        <ele>1735.4000244141</ele>
        <time>2014-02-12T08:09:47.000Z</time>
      </trkpt>
      <trkpt lat="45.91609" lon="6.49131">
        <ele>1735.4000244141</ele>
        <time>2014-02-12T08:09:48.000Z</time>
      </trkpt>
      <trkpt lat="45.91609" lon="6.49131">
        <ele>1735.4000244141</ele>
        <time>2014-02-12T08:09:49.000Z</time>
      </trkpt>
      <trkpt lat="45.91609" lon="6.49131">
        <ele>1735.4000244141</ele>
        <time>2014-02-12T08:09:50.000Z</time>
      </trkpt>
      <trkpt lat="45.91609" lon="6.49131">
        <ele>1735.4000244141</ele>
        <time>2014-02-12T08:09:52.000Z</time>
      </trkpt>
      <trkpt lat="45.91609" lon="6.49131">
        <ele>1735.4000244141</ele>
        <time>2014-02-12T08:09:53.000Z</time>
      </trkpt>
      <trkpt lat="45.91609" lon="6.49131">
        <ele>1735.4000244141</ele>
        <time>2014-02-12T08:09:54.000Z</time>
      </trkpt>
      <trkpt lat="45.91609" lon="6.49131">
        <ele>1735.4000244141</ele>
        <time>2014-02-12T08:09:55.000Z</time>
      </trkpt>
      <trkpt lat="45.91609" lon="6.49131">
        <ele>1735.4000244141</ele>
        <time>2014-02-12T08:09:56.000Z</time>
      </trkpt>
      <trkpt lat="45.91609" lon="6.49131">
        <ele>1735.4000244141</ele>
        <time>2014-02-12T08:09:57.000Z</time>
      </trkpt>
      <trkpt lat="45.91608" lon="6.49132">
        <ele>1736</ele>
        <time>2014-02-12T08:10:06.000Z</time>
      </trkpt>
      <trkpt lat="45.91608" lon="6.49132">
        <ele>1736</ele>
        <time>2014-02-12T08:10:07.000Z</time>
      </trkpt>
      <trkpt lat="45.91608" lon="6.49132">
        <ele>1736</ele>
        <time>2014-02-12T08:10:08.000Z</time>
      </trkpt>
      <trkpt lat="45.91608" lon="6.49132">
        <ele>1736</ele>
        <time>2014-02-12T08:10:09.000Z</time>
      </trkpt>
      <trkpt lat="45.91608" lon="6.49132">
        <ele>1736</ele>
        <time>2014-02-12T08:10:10.000Z</time>
      </trkpt>
      <trkpt lat="45.91608" lon="6.49132">
        <ele>1736</ele>
        <time>2014-02-12T08:10:11.000Z</time>
      </trkpt>
      <trkpt lat="45.91608" lon="6.49132">
        <ele>1736</ele>
        <time>2014-02-12T08:10:12.000Z</time>
      </trkpt>
      <trkpt lat="45.91608" lon="6.49132">
        <ele>1736</ele>
        <time>2014-02-12T08:10:13.000Z</time>
      </trkpt>
      <trkpt lat="45.91608" lon="6.49132">
        <ele>1736</ele>
        <time>2014-02-12T08:10:14.000Z</time>
      </trkpt>
      <trkpt lat="45.91608" lon="6.49132">
        <ele>1736</ele>
        <time>2014-02-12T08:10:15.000Z</time>
      </trkpt>
      <trkpt lat="45.91608" lon="6.49132">
        <ele>1736</ele>
        <time>2014-02-12T08:10:16.000Z</time>
      </trkpt>
      <trkpt lat="45.91608" lon="6.49132">
        <ele>1736</ele>
        <time>2014-02-12T08:10:17.000Z</time>
      </trkpt>
      <trkpt lat="45.91608" lon="6.49132">
        <ele>1736</ele>
        <time>2014-02-12T08:10:20.000Z</time>
      </trkpt>
      <trkpt lat="45.91608" lon="6.49132">
        <ele>1736</ele>
        <time>2014-02-12T08:10:21.000Z</time>
      </trkpt>
      <trkpt lat="45.91608" lon="6.49132">
        <ele>1736</ele>
        <time>2014-02-12T08:10:25.000Z</time>
      </trkpt>
      <trkpt lat="45.91608" lon="6.49132">
        <ele>1736</ele>
        <time>2014-02-12T08:10:26.000Z</time>
      </trkpt>
      <trkpt lat="45.91608" lon="6.49132">
        <ele>1736</ele>
        <time>2014-02-12T08:10:27.000Z</time>
      </trkpt>
      <trkpt lat="45.91608" lon="6.49132">
        <ele>1736</ele>
        <time>2014-02-12T08:10:32.000Z</time>
      </trkpt>
      <trkpt lat="45.91608" lon="6.49132">
        <ele>1736</ele>
        <time>2014-02-12T08:10:33.000Z</time>
      </trkpt>
      <trkpt lat="45.91608" lon="6.49132">
        <ele>1736</ele>
        <time>2014-02-12T08:10:34.000Z</time>
      </trkpt>
      <trkpt lat="45.91613" lon="6.49139">
        <ele>1740.4000244141</ele>
        <time>2014-02-12T08:10:37.000Z</time>
      </trkpt>
      <trkpt lat="45.91614" lon="6.49142">
        <ele>1742</ele>
        <time>2014-02-12T08:10:38.000Z</time>
      </trkpt>
      <trkpt lat="45.91615" lon="6.49145">
        <ele>1743.8000488281</ele>
        <time>2014-02-12T08:10:39.000Z</time>
      </trkpt>
      <trkpt lat="45.91616" lon="6.49148">
        <ele>1745.4000244141</ele>
        <time>2014-02-12T08:10:40.000Z</time>
      </trkpt>
      <trkpt lat="45.91617" lon="6.49151">
        <ele>1746.8000488281</ele>
        <time>2014-02-12T08:10:41.000Z</time>
      </trkpt>
      <trkpt lat="45.91617" lon="6.49151">
        <ele>1746.8000488281</ele>
        <time>2014-02-12T08:10:42.000Z</time>
      </trkpt>
      <trkpt lat="45.91617" lon="6.49151">
        <ele>1746.8000488281</ele>
        <time>2014-02-12T08:10:43.000Z</time>
      </trkpt>
      <trkpt lat="45.91617" lon="6.49151">
        <ele>1746.8000488281</ele>
        <time>2014-02-12T08:10:44.000Z</time>
      </trkpt>
      <trkpt lat="45.91618" lon="6.49154">
        <ele>1748.1999511719</ele>
        <time>2014-02-12T08:10:46.000Z</time>
      </trkpt>
      <trkpt lat="45.91619" lon="6.49154">
        <ele>1748.4000244141</ele>
        <time>2014-02-12T08:10:47.000Z</time>
      </trkpt>
      <trkpt lat="45.91619" lon="6.49154">
        <ele>1748.5999755859</ele>
        <time>2014-02-12T08:10:48.000Z</time>
      </trkpt>
      <trkpt lat="45.91619" lon="6.49155">
        <ele>1748.8000488281</ele>
        <time>2014-02-12T08:10:49.000Z</time>
      </trkpt>
      <trkpt lat="45.91619" lon="6.49155">
        <ele>1748.8000488281</ele>
        <time>2014-02-12T08:10:50.000Z</time>
      </trkpt>
      <trkpt lat="45.91619" lon="6.49155">
        <ele>1748.8000488281</ele>
        <time>2014-02-12T08:10:51.000Z</time>
      </trkpt>
      <trkpt lat="45.91619" lon="6.49155">
        <ele>1748.8000488281</ele>
        <time>2014-02-12T08:10:52.000Z</time>
      </trkpt>
      <trkpt lat="45.91619" lon="6.49155">
        <ele>1748.8000488281</ele>
        <time>2014-02-12T08:10:53.000Z</time>
      </trkpt>
      <trkpt lat="45.91619" lon="6.49155">
        <ele>1748.8000488281</ele>
        <time>2014-02-12T08:10:54.000Z</time>
      </trkpt>
      <trkpt lat="45.91619" lon="6.49155">
        <ele>1748.8000488281</ele>
        <time>2014-02-12T08:10:55.000Z</time>
      </trkpt>
      <trkpt lat="45.9162" lon="6.49155">
        <ele>1749</ele>
        <time>2014-02-12T08:10:56.000Z</time>
      </trkpt>
      <trkpt lat="45.9162" lon="6.49155">
        <ele>1749.1999511719</ele>
        <time>2014-02-12T08:10:57.000Z</time>
      </trkpt>
      <trkpt lat="45.91621" lon="6.49155">
        <ele>1749.4000244141</ele>
        <time>2014-02-12T08:10:58.000Z</time>
      </trkpt>
      <trkpt lat="45.91622" lon="6.49155">
        <ele>1749.5999755859</ele>
        <time>2014-02-12T08:10:59.000Z</time>
      </trkpt>
      <trkpt lat="45.91622" lon="6.49156">
        <ele>1749.8000488281</ele>
        <time>2014-02-12T08:11:00.000Z</time>
      </trkpt>
      <trkpt lat="45.91623" lon="6.49156">
        <ele>1750.1999511719</ele>
        <time>2014-02-12T08:11:01.000Z</time>
      </trkpt>
      <trkpt lat="45.91623" lon="6.49157">
        <ele>1750.5999755859</ele>
        <time>2014-02-12T08:11:02.000Z</time>
      </trkpt>
      <trkpt lat="45.91624" lon="6.49158">
        <ele>1751</ele>
        <time>2014-02-12T08:11:03.000Z</time>
      </trkpt>
      <trkpt lat="45.91624" lon="6.49159">
        <ele>1751.4000244141</ele>
        <time>2014-02-12T08:11:04.000Z</time>
      </trkpt>
      <trkpt lat="45.91625" lon="6.49159">
        <ele>1751.8000488281</ele>
        <time>2014-02-12T08:11:05.000Z</time>
      </trkpt>
      <trkpt lat="45.91626" lon="6.4916">
        <ele>1752.4000244141</ele>
        <time>2014-02-12T08:11:06.000Z</time>
      </trkpt>
      <trkpt lat="45.91626" lon="6.4916">
        <ele>1752.4000244141</ele>
        <time>2014-02-12T08:11:07.000Z</time>
      </trkpt>
      <trkpt lat="45.91627" lon="6.49161">
        <ele>1752.8000488281</ele>
        <time>2014-02-12T08:11:08.000Z</time>
      </trkpt>
      <trkpt lat="45.91627" lon="6.49161">
        <ele>1753</ele>
        <time>2014-02-12T08:11:09.000Z</time>
      </trkpt>
      <trkpt lat="45.91628" lon="6.49161">
        <ele>1753</ele>
        <time>2014-02-12T08:11:10.000Z</time>
      </trkpt>
      <trkpt lat="45.91628" lon="6.49161">
        <ele>1753</ele>
        <time>2014-02-12T08:11:11.000Z</time>
      </trkpt>
      <trkpt lat="45.91628" lon="6.49161">
        <ele>1753</ele>
        <time>2014-02-12T08:11:12.000Z</time>
      </trkpt>
      <trkpt lat="45.91628" lon="6.49161">
        <ele>1753.1999511719</ele>
        <time>2014-02-12T08:11:13.000Z</time>
      </trkpt>
      <trkpt lat="45.91629" lon="6.49161">
        <ele>1753.1999511719</ele>
        <time>2014-02-12T08:11:14.000Z</time>
      </trkpt>
      <trkpt lat="45.9163" lon="6.49161">
        <ele>1753.4000244141</ele>
        <time>2014-02-12T08:11:15.000Z</time>
      </trkpt>
      <trkpt lat="45.9163" lon="6.49161">
        <ele>1753.5999755859</ele>
        <time>2014-02-12T08:11:16.000Z</time>
      </trkpt>
      <trkpt lat="45.91631" lon="6.4916">
        <ele>1753.4000244141</ele>
        <time>2014-02-12T08:11:17.000Z</time>
      </trkpt>
      <trkpt lat="45.91631" lon="6.4916">
        <ele>1753.1999511719</ele>
        <time>2014-02-12T08:11:18.000Z</time>
      </trkpt>
      <trkpt lat="45.91632" lon="6.49159">
        <ele>1753.1999511719</ele>
        <time>2014-02-12T08:11:19.000Z</time>
      </trkpt>
      <trkpt lat="45.91632" lon="6.49159">
        <ele>1753.1999511719</ele>
        <time>2014-02-12T08:11:20.000Z</time>
      </trkpt>
      <trkpt lat="45.91632" lon="6.49159">
        <ele>1753.1999511719</ele>
        <time>2014-02-12T08:11:21.000Z</time>
      </trkpt>
      <trkpt lat="45.91633" lon="6.49159">
        <ele>1753.4000244141</ele>
        <time>2014-02-12T08:11:22.000Z</time>
      </trkpt>
      <trkpt lat="45.91633" lon="6.4916">
        <ele>1753.5999755859</ele>
        <time>2014-02-12T08:11:23.000Z</time>
      </trkpt>
      <trkpt lat="45.91634" lon="6.49159">
        <ele>1753.5999755859</ele>
        <time>2014-02-12T08:11:24.000Z</time>
      </trkpt>
      <trkpt lat="45.91634" lon="6.49159">
        <ele>1753.4000244141</ele>
        <time>2014-02-12T08:11:25.000Z</time>
      </trkpt>
      <trkpt lat="45.91634" lon="6.49159">
        <ele>1753.4000244141</ele>
        <time>2014-02-12T08:11:26.000Z</time>
      </trkpt>
      <trkpt lat="45.91634" lon="6.49159">
        <ele>1753.4000244141</ele>
        <time>2014-02-12T08:11:27.000Z</time>
      </trkpt>
      <trkpt lat="45.91635" lon="6.49159">
        <ele>1753.4000244141</ele>
        <time>2014-02-12T08:11:28.000Z</time>
      </trkpt>
      <trkpt lat="45.91635" lon="6.49159">
        <ele>1753.5999755859</ele>
        <time>2014-02-12T08:11:29.000Z</time>
      </trkpt>
      <trkpt lat="45.91636" lon="6.49159">
        <ele>1753.5999755859</ele>
        <time>2014-02-12T08:11:30.000Z</time>
      </trkpt>
      <trkpt lat="45.91636" lon="6.49159">
        <ele>1753.5999755859</ele>
        <time>2014-02-12T08:11:31.000Z</time>
      </trkpt>
      <trkpt lat="45.91636" lon="6.49159">
        <ele>1753.8000488281</ele>
        <time>2014-02-12T08:11:32.000Z</time>
      </trkpt>
      <trkpt lat="45.91637" lon="6.49159">
        <ele>1754.1999511719</ele>
        <time>2014-02-12T08:11:33.000Z</time>
      </trkpt>
      <trkpt lat="45.91637" lon="6.49159">
        <ele>1754</ele>
        <time>2014-02-12T08:11:34.000Z</time>
      </trkpt>
      <trkpt lat="45.91637" lon="6.49159">
        <ele>1754</ele>
        <time>2014-02-12T08:11:35.000Z</time>
      </trkpt>
      <trkpt lat="45.91637" lon="6.49159">
        <ele>1754</ele>
        <time>2014-02-12T08:11:36.000Z</time>
      </trkpt>
      <trkpt lat="45.91637" lon="6.49158">
        <ele>1753.4000244141</ele>
        <time>2014-02-12T08:11:37.000Z</time>
      </trkpt>
      <trkpt lat="45.91637" lon="6.49158">
        <ele>1753.4000244141</ele>
        <time>2014-02-12T08:11:38.000Z</time>
      </trkpt>
      <trkpt lat="45.91637" lon="6.49158">
        <ele>1753.4000244141</ele>
        <time>2014-02-12T08:11:39.000Z</time>
      </trkpt>
      <trkpt lat="45.91637" lon="6.49158">
        <ele>1753.4000244141</ele>
        <time>2014-02-12T08:11:40.000Z</time>
      </trkpt>
      <trkpt lat="45.91637" lon="6.49158">
        <ele>1753.4000244141</ele>
        <time>2014-02-12T08:11:41.000Z</time>
      </trkpt>
      <trkpt lat="45.91637" lon="6.49158">
        <ele>1753.4000244141</ele>
        <time>2014-02-12T08:11:42.000Z</time>
      </trkpt>
      <trkpt lat="45.91637" lon="6.49158">
        <ele>1753.4000244141</ele>
        <time>2014-02-12T08:11:43.000Z</time>
      </trkpt>
      <trkpt lat="45.91636" lon="6.49158">
        <ele>1753.5999755859</ele>
        <time>2014-02-12T08:11:44.000Z</time>
      </trkpt>
      <trkpt lat="45.91636" lon="6.49158">
        <ele>1753.5999755859</ele>
        <time>2014-02-12T08:11:45.000Z</time>
      </trkpt>
      <trkpt lat="45.91636" lon="6.49159">
        <ele>1753.8000488281</ele>
        <time>2014-02-12T08:11:46.000Z</time>
      </trkpt>
      <trkpt lat="45.91635" lon="6.4916">
        <ele>1754.1999511719</ele>
        <time>2014-02-12T08:11:47.000Z</time>
      </trkpt>
      <trkpt lat="45.91635" lon="6.49161">
        <ele>1754.5999755859</ele>
        <time>2014-02-12T08:11:48.000Z</time>
      </trkpt>
      <trkpt lat="45.91634" lon="6.49162">
        <ele>1754.8000488281</ele>
        <time>2014-02-12T08:11:49.000Z</time>
      </trkpt>
      <trkpt lat="45.91633" lon="6.49164">
        <ele>1755.4000244141</ele>
        <time>2014-02-12T08:11:50.000Z</time>
      </trkpt>
      <trkpt lat="45.91633" lon="6.49165">
        <ele>1755.8000488281</ele>
        <time>2014-02-12T08:11:51.000Z</time>
      </trkpt>
      <trkpt lat="45.91633" lon="6.49165">
        <ele>1755.8000488281</ele>
        <time>2014-02-12T08:11:52.000Z</time>
      </trkpt>
      <trkpt lat="45.91633" lon="6.49165">
        <ele>1755.8000488281</ele>
        <time>2014-02-12T08:11:53.000Z</time>
      </trkpt>
      <trkpt lat="45.91633" lon="6.49165">
        <ele>1755.8000488281</ele>
        <time>2014-02-12T08:11:54.000Z</time>
      </trkpt>
      <trkpt lat="45.91633" lon="6.49165">
        <ele>1755.8000488281</ele>
        <time>2014-02-12T08:11:55.000Z</time>
      </trkpt>
      <trkpt lat="45.91633" lon="6.49165">
        <ele>1755.8000488281</ele>
        <time>2014-02-12T08:11:56.000Z</time>
      </trkpt>
      <trkpt lat="45.91633" lon="6.49165">
        <ele>1755.8000488281</ele>
        <time>2014-02-12T08:11:57.000Z</time>
      </trkpt>
      <trkpt lat="45.91633" lon="6.49165">
        <ele>1755.8000488281</ele>
        <time>2014-02-12T08:11:58.000Z</time>
      </trkpt>
      <trkpt lat="45.91633" lon="6.49165">
        <ele>1755.8000488281</ele>
        <time>2014-02-12T08:12:00.000Z</time>
      </trkpt>
      <trkpt lat="45.91633" lon="6.49165">
        <ele>1755.8000488281</ele>
        <time>2014-02-12T08:12:01.000Z</time>
      </trkpt>
      <trkpt lat="45.91633" lon="6.49165">
        <ele>1755.8000488281</ele>
        <time>2014-02-12T08:12:02.000Z</time>
      </trkpt>
      <trkpt lat="45.91633" lon="6.49166">
        <ele>1756</ele>
        <time>2014-02-12T08:12:03.000Z</time>
      </trkpt>
      <trkpt lat="45.91633" lon="6.49166">
        <ele>1756</ele>
        <time>2014-02-12T08:12:04.000Z</time>
      </trkpt>
      <trkpt lat="45.91633" lon="6.49167">
        <ele>1756.4000244141</ele>
        <time>2014-02-12T08:12:06.000Z</time>
      </trkpt>
      <trkpt lat="45.91632" lon="6.49167">
        <ele>1756.5999755859</ele>
        <time>2014-02-12T08:12:07.000Z</time>
      </trkpt>
      <trkpt lat="45.91632" lon="6.49168">
        <ele>1756.5999755859</ele>
        <time>2014-02-12T08:12:08.000Z</time>
      </trkpt>
      <trkpt lat="45.91631" lon="6.49169">
        <ele>1756.8000488281</ele>
        <time>2014-02-12T08:12:09.000Z</time>
      </trkpt>
      <trkpt lat="45.9163" lon="6.49169">
        <ele>1756.8000488281</ele>
        <time>2014-02-12T08:12:10.000Z</time>
      </trkpt>
      <trkpt lat="45.9163" lon="6.4917">
        <ele>1757</ele>
        <time>2014-02-12T08:12:11.000Z</time>
      </trkpt>
      <trkpt lat="45.91629" lon="6.49172">
        <ele>1757.8000488281</ele>
        <time>2014-02-12T08:12:12.000Z</time>
      </trkpt>
      <trkpt lat="45.91629" lon="6.49171">
        <ele>1757.5999755859</ele>
        <time>2014-02-12T08:12:13.000Z</time>
      </trkpt>
      <trkpt lat="45.91628" lon="6.49172">
        <ele>1757.8000488281</ele>
        <time>2014-02-12T08:12:14.000Z</time>
      </trkpt>
      <trkpt lat="45.91628" lon="6.49173">
        <ele>1758</ele>
        <time>2014-02-12T08:12:15.000Z</time>
      </trkpt>
      <trkpt lat="45.91627" lon="6.49173">
        <ele>1758</ele>
        <time>2014-02-12T08:12:16.000Z</time>
      </trkpt>
      <trkpt lat="45.91627" lon="6.49174">
        <ele>1758.1999511719</ele>
        <time>2014-02-12T08:12:17.000Z</time>
      </trkpt>
      <trkpt lat="45.91626" lon="6.49174">
        <ele>1758.1999511719</ele>
        <time>2014-02-12T08:12:18.000Z</time>
      </trkpt>
      <trkpt lat="45.91626" lon="6.49174">
        <ele>1758.1999511719</ele>
        <time>2014-02-12T08:12:19.000Z</time>
      </trkpt>
      <trkpt lat="45.91626" lon="6.49174">
        <ele>1758.1999511719</ele>
        <time>2014-02-12T08:12:20.000Z</time>
      </trkpt>
      <trkpt lat="45.91626" lon="6.49174">
        <ele>1758.1999511719</ele>
        <time>2014-02-12T08:12:21.000Z</time>
      </trkpt>
      <trkpt lat="45.91626" lon="6.49174">
        <ele>1758.1999511719</ele>
        <time>2014-02-12T08:12:22.000Z</time>
      </trkpt>
      <trkpt lat="45.91626" lon="6.49174">
        <ele>1758.1999511719</ele>
        <time>2014-02-12T08:12:23.000Z</time>
      </trkpt>
      <trkpt lat="45.91626" lon="6.49175">
        <ele>1758.1999511719</ele>
        <time>2014-02-12T08:12:24.000Z</time>
      </trkpt>
      <trkpt lat="45.91625" lon="6.49175">
        <ele>1758.4000244141</ele>
        <time>2014-02-12T08:12:25.000Z</time>
      </trkpt>
      <trkpt lat="45.91624" lon="6.49176">
        <ele>1758.4000244141</ele>
        <time>2014-02-12T08:12:26.000Z</time>
      </trkpt>
      <trkpt lat="45.91624" lon="6.49176">
        <ele>1758.5999755859</ele>
        <time>2014-02-12T08:12:27.000Z</time>
      </trkpt>
      <trkpt lat="45.91623" lon="6.49177">
        <ele>1758.8000488281</ele>
        <time>2014-02-12T08:12:28.000Z</time>
      </trkpt>
      <trkpt lat="45.91623" lon="6.49177">
        <ele>1758.8000488281</ele>
        <time>2014-02-12T08:12:29.000Z</time>
      </trkpt>
      <trkpt lat="45.91623" lon="6.49178">
        <ele>1759.1999511719</ele>
        <time>2014-02-12T08:12:30.000Z</time>
      </trkpt>
      <trkpt lat="45.91623" lon="6.49178">
        <ele>1759.1999511719</ele>
        <time>2014-02-12T08:12:31.000Z</time>
      </trkpt>
      <trkpt lat="45.91622" lon="6.49179">
        <ele>1759.4000244141</ele>
        <time>2014-02-12T08:12:32.000Z</time>
      </trkpt>
      <trkpt lat="45.91622" lon="6.4918">
        <ele>1759.5999755859</ele>
        <time>2014-02-12T08:12:33.000Z</time>
      </trkpt>
      <trkpt lat="45.91621" lon="6.4918">
        <ele>1759.8000488281</ele>
        <time>2014-02-12T08:12:34.000Z</time>
      </trkpt>
      <trkpt lat="45.91621" lon="6.49181">
        <ele>1760</ele>
        <time>2014-02-12T08:12:35.000Z</time>
      </trkpt>
      <trkpt lat="45.9162" lon="6.49181">
        <ele>1760</ele>
        <time>2014-02-12T08:12:36.000Z</time>
      </trkpt>
      <trkpt lat="45.9162" lon="6.49182">
        <ele>1760.1999511719</ele>
        <time>2014-02-12T08:12:37.000Z</time>
      </trkpt>
      <trkpt lat="45.91619" lon="6.49182">
        <ele>1760.1999511719</ele>
        <time>2014-02-12T08:12:38.000Z</time>
      </trkpt>
      <trkpt lat="45.91618" lon="6.49183">
        <ele>1760.1999511719</ele>
        <time>2014-02-12T08:12:39.000Z</time>
      </trkpt>
      <trkpt lat="45.91617" lon="6.49184">
        <ele>1760.1999511719</ele>
        <time>2014-02-12T08:12:40.000Z</time>
      </trkpt>
      <trkpt lat="45.91617" lon="6.49185">
        <ele>1760.5999755859</ele>
        <time>2014-02-12T08:12:41.000Z</time>
      </trkpt>
      <trkpt lat="45.91616" lon="6.49185">
        <ele>1760.5999755859</ele>
        <time>2014-02-12T08:12:42.000Z</time>
      </trkpt>
      <trkpt lat="45.91615" lon="6.49185">
        <ele>1760.4000244141</ele>
        <time>2014-02-12T08:12:43.000Z</time>
      </trkpt>
      <trkpt lat="45.91614" lon="6.49184">
        <ele>1759.8000488281</ele>
        <time>2014-02-12T08:12:44.000Z</time>
      </trkpt>
      <trkpt lat="45.91614" lon="6.49183">
        <ele>1759.5999755859</ele>
        <time>2014-02-12T08:12:45.000Z</time>
      </trkpt>
      <trkpt lat="45.91614" lon="6.49183">
        <ele>1759.1999511719</ele>
        <time>2014-02-12T08:12:46.000Z</time>
      </trkpt>
      <trkpt lat="45.91613" lon="6.49182">
        <ele>1758.8000488281</ele>
        <time>2014-02-12T08:12:47.000Z</time>
      </trkpt>
      <trkpt lat="45.91611" lon="6.49181">
        <ele>1758</ele>
        <time>2014-02-12T08:12:48.000Z</time>
      </trkpt>
      <trkpt lat="45.9161" lon="6.4918">
        <ele>1757.5999755859</ele>
        <time>2014-02-12T08:12:49.000Z</time>
      </trkpt>
      <trkpt lat="45.91609" lon="6.49179">
        <ele>1756.8000488281</ele>
        <time>2014-02-12T08:12:50.000Z</time>
      </trkpt>
      <trkpt lat="45.91608" lon="6.49178">
        <ele>1756.1999511719</ele>
        <time>2014-02-12T08:12:51.000Z</time>
      </trkpt>
      <trkpt lat="45.91607" lon="6.49178">
        <ele>1756.1999511719</ele>
        <time>2014-02-12T08:12:52.000Z</time>
      </trkpt>
      <trkpt lat="45.91608" lon="6.49178">
        <ele>1756.4000244141</ele>
        <time>2014-02-12T08:12:53.000Z</time>
      </trkpt>
      <trkpt lat="45.91607" lon="6.49178">
        <ele>1756</ele>
        <time>2014-02-12T08:12:54.000Z</time>
      </trkpt>
      <trkpt lat="45.91607" lon="6.49179">
        <ele>1756.4000244141</ele>
        <time>2014-02-12T08:12:55.000Z</time>
      </trkpt>
      <trkpt lat="45.91606" lon="6.49179">
        <ele>1756.1999511719</ele>
        <time>2014-02-12T08:12:56.000Z</time>
      </trkpt>
      <trkpt lat="45.91606" lon="6.49179">
        <ele>1756.1999511719</ele>
        <time>2014-02-12T08:12:57.000Z</time>
      </trkpt>
      <trkpt lat="45.91605" lon="6.49179">
        <ele>1756.1999511719</ele>
        <time>2014-02-12T08:12:58.000Z</time>
      </trkpt>
      <trkpt lat="45.91605" lon="6.49179">
        <ele>1756.1999511719</ele>
        <time>2014-02-12T08:12:59.000Z</time>
      </trkpt>
      <trkpt lat="45.91605" lon="6.49179">
        <ele>1756.1999511719</ele>
        <time>2014-02-12T08:13:00.000Z</time>
      </trkpt>
      <trkpt lat="45.91605" lon="6.49179">
        <ele>1756.1999511719</ele>
        <time>2014-02-12T08:13:01.000Z</time>
      </trkpt>
      <trkpt lat="45.91605" lon="6.49179">
        <ele>1756.1999511719</ele>
        <time>2014-02-12T08:13:02.000Z</time>
      </trkpt>
      <trkpt lat="45.91605" lon="6.49179">
        <ele>1756.1999511719</ele>
        <time>2014-02-12T08:13:03.000Z</time>
      </trkpt>
      <trkpt lat="45.91605" lon="6.49179">
        <ele>1756.1999511719</ele>
        <time>2014-02-12T08:13:07.000Z</time>
      </trkpt>
      <trkpt lat="45.91605" lon="6.49179">
        <ele>1756.1999511719</ele>
        <time>2014-02-12T08:13:08.000Z</time>
      </trkpt>
      <trkpt lat="45.91605" lon="6.49179">
        <ele>1756.1999511719</ele>
        <time>2014-02-12T08:13:09.000Z</time>
      </trkpt>
      <trkpt lat="45.91605" lon="6.49179">
        <ele>1756.1999511719</ele>
        <time>2014-02-12T08:13:10.000Z</time>
      </trkpt>
      <trkpt lat="45.91605" lon="6.49179">
        <ele>1756.1999511719</ele>
        <time>2014-02-12T08:13:11.000Z</time>
      </trkpt>
      <trkpt lat="45.91605" lon="6.49179">
        <ele>1756</ele>
        <time>2014-02-12T08:13:13.000Z</time>
      </trkpt>
      <trkpt lat="45.91604" lon="6.49179">
        <ele>1755.8000488281</ele>
        <time>2014-02-12T08:13:14.000Z</time>
      </trkpt>
      <trkpt lat="45.91604" lon="6.49178">
        <ele>1755.5999755859</ele>
        <time>2014-02-12T08:13:15.000Z</time>
      </trkpt>
      <trkpt lat="45.91604" lon="6.49178">
        <ele>1755.5999755859</ele>
        <time>2014-02-12T08:13:16.000Z</time>
      </trkpt>
      <trkpt lat="45.91604" lon="6.49178">
        <ele>1755.5999755859</ele>
        <time>2014-02-12T08:13:17.000Z</time>
      </trkpt>
      <trkpt lat="45.91603" lon="6.49178">
        <ele>1755.4000244141</ele>
        <time>2014-02-12T08:13:18.000Z</time>
      </trkpt>
      <trkpt lat="45.91603" lon="6.49178">
        <ele>1755.1999511719</ele>
        <time>2014-02-12T08:13:19.000Z</time>
      </trkpt>
      <trkpt lat="45.91602" lon="6.49178">
        <ele>1755.1999511719</ele>
        <time>2014-02-12T08:13:20.000Z</time>
      </trkpt>
      <trkpt lat="45.91602" lon="6.49178">
        <ele>1755.1999511719</ele>
        <time>2014-02-12T08:13:21.000Z</time>
      </trkpt>
      <trkpt lat="45.91601" lon="6.49179">
        <ele>1755.1999511719</ele>
        <time>2014-02-12T08:13:22.000Z</time>
      </trkpt>
      <trkpt lat="45.916" lon="6.49179">
        <ele>1755.1999511719</ele>
        <time>2014-02-12T08:13:23.000Z</time>
      </trkpt>
      <trkpt lat="45.916" lon="6.4918">
        <ele>1755.4000244141</ele>
        <time>2014-02-12T08:13:24.000Z</time>
      </trkpt>
      <trkpt lat="45.916" lon="6.4918">
        <ele>1755.4000244141</ele>
        <time>2014-02-12T08:13:25.000Z</time>
      </trkpt>
      <trkpt lat="45.916" lon="6.4918">
        <ele>1755.4000244141</ele>
        <time>2014-02-12T08:13:26.000Z</time>
      </trkpt>
      <trkpt lat="45.916" lon="6.4918">
        <ele>1755.5999755859</ele>
        <time>2014-02-12T08:13:27.000Z</time>
      </trkpt>
      <trkpt lat="45.916" lon="6.4918">
        <ele>1755.5999755859</ele>
        <time>2014-02-12T08:13:28.000Z</time>
      </trkpt>
      <trkpt lat="45.916" lon="6.4918">
        <ele>1755.5999755859</ele>
        <time>2014-02-12T08:13:29.000Z</time>
      </trkpt>
      <trkpt lat="45.916" lon="6.4918">
        <ele>1755.5999755859</ele>
        <time>2014-02-12T08:13:30.000Z</time>
      </trkpt>
      <trkpt lat="45.916" lon="6.4918">
        <ele>1755.5999755859</ele>
        <time>2014-02-12T08:13:32.000Z</time>
      </trkpt>
      <trkpt lat="45.916" lon="6.4918">
        <ele>1755.5999755859</ele>
        <time>2014-02-12T08:13:33.000Z</time>
      </trkpt>
      <trkpt lat="45.916" lon="6.4918">
        <ele>1755.5999755859</ele>
        <time>2014-02-12T08:13:34.000Z</time>
      </trkpt>
      <trkpt lat="45.916" lon="6.4918">
        <ele>1755.5999755859</ele>
        <time>2014-02-12T08:13:35.000Z</time>
      </trkpt>
      <trkpt lat="45.916" lon="6.4918">
        <ele>1755.5999755859</ele>
        <time>2014-02-12T08:13:36.000Z</time>
      </trkpt>
      <trkpt lat="45.916" lon="6.4918">
        <ele>1755.5999755859</ele>
        <time>2014-02-12T08:13:37.000Z</time>
      </trkpt>
      <trkpt lat="45.916" lon="6.4918">
        <ele>1755.5999755859</ele>
        <time>2014-02-12T08:13:38.000Z</time>
      </trkpt>
      <trkpt lat="45.916" lon="6.4918">
        <ele>1755.5999755859</ele>
        <time>2014-02-12T08:13:39.000Z</time>
      </trkpt>
      <trkpt lat="45.916" lon="6.4918">
        <ele>1755.5999755859</ele>
        <time>2014-02-12T08:13:40.000Z</time>
      </trkpt>
      <trkpt lat="45.916" lon="6.4918">
        <ele>1755.5999755859</ele>
        <time>2014-02-12T08:13:41.000Z</time>
      </trkpt>
      <trkpt lat="45.916" lon="6.4918">
        <ele>1755.5999755859</ele>
        <time>2014-02-12T08:13:42.000Z</time>
      </trkpt>
      <trkpt lat="45.916" lon="6.4918">
        <ele>1755.5999755859</ele>
        <time>2014-02-12T08:13:43.000Z</time>
      </trkpt>
      <trkpt lat="45.916" lon="6.49182">
        <ele>1756.1999511719</ele>
        <time>2014-02-12T08:13:44.000Z</time>
      </trkpt>
      <trkpt lat="45.916" lon="6.49182">
        <ele>1756.1999511719</ele>
        <time>2014-02-12T08:13:45.000Z</time>
      </trkpt>
      <trkpt lat="45.916" lon="6.49182">
        <ele>1756.1999511719</ele>
        <time>2014-02-12T08:13:46.000Z</time>
      </trkpt>
      <trkpt lat="45.916" lon="6.49182">
        <ele>1756.1999511719</ele>
        <time>2014-02-12T08:13:47.000Z</time>
      </trkpt>
      <trkpt lat="45.91601" lon="6.49183">
        <ele>1756.8000488281</ele>
        <time>2014-02-12T08:13:48.000Z</time>
      </trkpt>
      <trkpt lat="45.91601" lon="6.49184">
        <ele>1757.4000244141</ele>
        <time>2014-02-12T08:13:49.000Z</time>
      </trkpt>
      <trkpt lat="45.91602" lon="6.49185">
        <ele>1757.8000488281</ele>
        <time>2014-02-12T08:13:50.000Z</time>
      </trkpt>
      <trkpt lat="45.91602" lon="6.49186">
        <ele>1758.4000244141</ele>
        <time>2014-02-12T08:13:51.000Z</time>
      </trkpt>
      <trkpt lat="45.91603" lon="6.49186">
        <ele>1758.5999755859</ele>
        <time>2014-02-12T08:13:52.000Z</time>
      </trkpt>
      <trkpt lat="45.91603" lon="6.49187">
        <ele>1759</ele>
        <time>2014-02-12T08:13:53.000Z</time>
      </trkpt>
      <trkpt lat="45.91604" lon="6.49188">
        <ele>1759.5999755859</ele>
        <time>2014-02-12T08:13:54.000Z</time>
      </trkpt>
      <trkpt lat="45.91606" lon="6.49191">
        <ele>1760.8000488281</ele>
        <time>2014-02-12T08:13:55.000Z</time>
      </trkpt>
      <trkpt lat="45.91606" lon="6.49191">
        <ele>1761.1999511719</ele>
        <time>2014-02-12T08:13:56.000Z</time>
      </trkpt>
      <trkpt lat="45.91607" lon="6.49192">
        <ele>1761.5999755859</ele>
        <time>2014-02-12T08:13:57.000Z</time>
      </trkpt>
      <trkpt lat="45.91607" lon="6.49192">
        <ele>1761.5999755859</ele>
        <time>2014-02-12T08:13:58.000Z</time>
      </trkpt>
      <trkpt lat="45.91607" lon="6.49192">
        <ele>1761.5999755859</ele>
        <time>2014-02-12T08:13:59.000Z</time>
      </trkpt>
      <trkpt lat="45.91607" lon="6.49192">
        <ele>1761.5999755859</ele>
        <time>2014-02-12T08:14:00.000Z</time>
      </trkpt>
      <trkpt lat="45.91607" lon="6.49192">
        <ele>1761.5999755859</ele>
        <time>2014-02-12T08:14:01.000Z</time>
      </trkpt>
      <trkpt lat="45.91607" lon="6.49192">
        <ele>1761.5999755859</ele>
        <time>2014-02-12T08:14:02.000Z</time>
      </trkpt>
      <trkpt lat="45.91607" lon="6.49192">
        <ele>1761.5999755859</ele>
        <time>2014-02-12T08:14:03.000Z</time>
      </trkpt>
      <trkpt lat="45.91607" lon="6.49192">
        <ele>1761.5999755859</ele>
        <time>2014-02-12T08:14:04.000Z</time>
      </trkpt>
      <trkpt lat="45.91607" lon="6.49192">
        <ele>1761.5999755859</ele>
        <time>2014-02-12T08:14:06.000Z</time>
      </trkpt>
      <trkpt lat="45.91607" lon="6.49192">
        <ele>1761.5999755859</ele>
        <time>2014-02-12T08:14:07.000Z</time>
      </trkpt>
      <trkpt lat="45.91607" lon="6.49192">
        <ele>1761.5999755859</ele>
        <time>2014-02-12T08:14:08.000Z</time>
      </trkpt>
      <trkpt lat="45.91607" lon="6.49192">
        <ele>1761.5999755859</ele>
        <time>2014-02-12T08:14:09.000Z</time>
      </trkpt>
      <trkpt lat="45.91607" lon="6.49192">
        <ele>1761.5999755859</ele>
        <time>2014-02-12T08:14:10.000Z</time>
      </trkpt>
      <trkpt lat="45.91607" lon="6.49192">
        <ele>1761.5999755859</ele>
        <time>2014-02-12T08:14:11.000Z</time>
      </trkpt>
      <trkpt lat="45.91607" lon="6.49192">
        <ele>1761.5999755859</ele>
        <time>2014-02-12T08:14:12.000Z</time>
      </trkpt>
      <trkpt lat="45.91607" lon="6.49192">
        <ele>1761.5999755859</ele>
        <time>2014-02-12T08:14:13.000Z</time>
      </trkpt>
      <trkpt lat="45.91607" lon="6.49192">
        <ele>1761.5999755859</ele>
        <time>2014-02-12T08:14:14.000Z</time>
      </trkpt>
      <trkpt lat="45.91607" lon="6.49192">
        <ele>1761.5999755859</ele>
        <time>2014-02-12T08:14:15.000Z</time>
      </trkpt>
      <trkpt lat="45.91607" lon="6.49192">
        <ele>1761.5999755859</ele>
        <time>2014-02-12T08:14:16.000Z</time>
      </trkpt>
      <trkpt lat="45.91607" lon="6.49192">
        <ele>1761.5999755859</ele>
        <time>2014-02-12T08:14:17.000Z</time>
      </trkpt>
      <trkpt lat="45.91607" lon="6.49192">
        <ele>1761.5999755859</ele>
        <time>2014-02-12T08:14:18.000Z</time>
      </trkpt>
      <trkpt lat="45.91607" lon="6.49192">
        <ele>1761.5999755859</ele>
        <time>2014-02-12T08:14:19.000Z</time>
      </trkpt>
      <trkpt lat="45.91607" lon="6.49192">
        <ele>1761.5999755859</ele>
        <time>2014-02-12T08:14:20.000Z</time>
      </trkpt>
      <trkpt lat="45.91607" lon="6.49192">
        <ele>1761.5999755859</ele>
        <time>2014-02-12T08:14:22.000Z</time>
      </trkpt>
      <trkpt lat="45.91607" lon="6.49192">
        <ele>1761.5999755859</ele>
        <time>2014-02-12T08:14:23.000Z</time>
      </trkpt>
      <trkpt lat="45.91607" lon="6.49192">
        <ele>1761.8000488281</ele>
        <time>2014-02-12T08:14:24.000Z</time>
      </trkpt>
      <trkpt lat="45.91607" lon="6.49192">
        <ele>1761.8000488281</ele>
        <time>2014-02-12T08:14:25.000Z</time>
      </trkpt>
      <trkpt lat="45.91607" lon="6.49193">
        <ele>1762</ele>
        <time>2014-02-12T08:14:26.000Z</time>
      </trkpt>
      <trkpt lat="45.91607" lon="6.49193">
        <ele>1762</ele>
        <time>2014-02-12T08:14:27.000Z</time>
      </trkpt>
      <trkpt lat="45.91607" lon="6.49193">
        <ele>1762</ele>
        <time>2014-02-12T08:14:28.000Z</time>
      </trkpt>
      <trkpt lat="45.91607" lon="6.49193">
        <ele>1762.1999511719</ele>
        <time>2014-02-12T08:14:29.000Z</time>
      </trkpt>
      <trkpt lat="45.91607" lon="6.49193">
        <ele>1762.1999511719</ele>
        <time>2014-02-12T08:14:30.000Z</time>
      </trkpt>
      <trkpt lat="45.91607" lon="6.49193">
        <ele>1762.1999511719</ele>
        <time>2014-02-12T08:14:31.000Z</time>
      </trkpt>
      <trkpt lat="45.91607" lon="6.49194">
        <ele>1762.5999755859</ele>
        <time>2014-02-12T08:14:32.000Z</time>
      </trkpt>
      <trkpt lat="45.91607" lon="6.49194">
        <ele>1762.5999755859</ele>
        <time>2014-02-12T08:14:33.000Z</time>
      </trkpt>
      <trkpt lat="45.91608" lon="6.49195">
        <ele>1763</ele>
        <time>2014-02-12T08:14:34.000Z</time>
      </trkpt>
      <trkpt lat="45.91608" lon="6.49196">
        <ele>1763.5999755859</ele>
        <time>2014-02-12T08:14:35.000Z</time>
      </trkpt>
      <trkpt lat="45.91608" lon="6.49196">
        <ele>1763.5999755859</ele>
        <time>2014-02-12T08:14:36.000Z</time>
      </trkpt>
      <trkpt lat="45.91608" lon="6.49196">
        <ele>1763.5999755859</ele>
        <time>2014-02-12T08:14:37.000Z</time>
      </trkpt>
      <trkpt lat="45.91608" lon="6.49196">
        <ele>1763.5999755859</ele>
        <time>2014-02-12T08:14:38.000Z</time>
      </trkpt>
      <trkpt lat="45.91608" lon="6.49196">
        <ele>1763.5999755859</ele>
        <time>2014-02-12T08:14:39.000Z</time>
      </trkpt>
      <trkpt lat="45.91608" lon="6.49196">
        <ele>1763.5999755859</ele>
        <time>2014-02-12T08:14:40.000Z</time>
      </trkpt>
      <trkpt lat="45.91608" lon="6.49196">
        <ele>1763.5999755859</ele>
        <time>2014-02-12T08:14:41.000Z</time>
      </trkpt>
      <trkpt lat="45.91608" lon="6.49197">
        <ele>1763.8000488281</ele>
        <time>2014-02-12T08:14:42.000Z</time>
      </trkpt>
      <trkpt lat="45.91608" lon="6.49197">
        <ele>1763.8000488281</ele>
        <time>2014-02-12T08:14:43.000Z</time>
      </trkpt>
      <trkpt lat="45.91608" lon="6.49197">
        <ele>1763.8000488281</ele>
        <time>2014-02-12T08:14:44.000Z</time>
      </trkpt>
      <trkpt lat="45.91608" lon="6.49197">
        <ele>1763.8000488281</ele>
        <time>2014-02-12T08:14:45.000Z</time>
      </trkpt>
      <trkpt lat="45.91608" lon="6.49197">
        <ele>1763.8000488281</ele>
        <time>2014-02-12T08:14:46.000Z</time>
      </trkpt>
      <trkpt lat="45.91608" lon="6.49197">
        <ele>1763.8000488281</ele>
        <time>2014-02-12T08:14:47.000Z</time>
      </trkpt>
      <trkpt lat="45.91608" lon="6.49197">
        <ele>1763.8000488281</ele>
        <time>2014-02-12T08:14:48.000Z</time>
      </trkpt>
      <trkpt lat="45.91608" lon="6.49197">
        <ele>1763.8000488281</ele>
        <time>2014-02-12T08:14:49.000Z</time>
      </trkpt>
      <trkpt lat="45.91608" lon="6.49197">
        <ele>1763.8000488281</ele>
        <time>2014-02-12T08:14:50.000Z</time>
      </trkpt>
      <trkpt lat="45.91608" lon="6.49197">
        <ele>1763.8000488281</ele>
        <time>2014-02-12T08:14:51.000Z</time>
      </trkpt>
      <trkpt lat="45.91608" lon="6.49196">
        <ele>1763.5999755859</ele>
        <time>2014-02-12T08:14:52.000Z</time>
      </trkpt>
      <trkpt lat="45.91608" lon="6.49196">
        <ele>1763.5999755859</ele>
        <time>2014-02-12T08:14:53.000Z</time>
      </trkpt>
      <trkpt lat="45.91608" lon="6.49196">
        <ele>1763.5999755859</ele>
        <time>2014-02-12T08:14:54.000Z</time>
      </trkpt>
      <trkpt lat="45.91608" lon="6.49196">
        <ele>1763.5999755859</ele>
        <time>2014-02-12T08:14:55.000Z</time>
      </trkpt>
      <trkpt lat="45.91608" lon="6.49196">
        <ele>1763.5999755859</ele>
        <time>2014-02-12T08:14:56.000Z</time>
      </trkpt>
      <trkpt lat="45.91608" lon="6.49196">
        <ele>1763.5999755859</ele>
        <time>2014-02-12T08:14:57.000Z</time>
      </trkpt>
      <trkpt lat="45.91608" lon="6.49196">
        <ele>1763.5999755859</ele>
        <time>2014-02-12T08:14:58.000Z</time>
      </trkpt>
      <trkpt lat="45.91608" lon="6.49196">
        <ele>1763.5999755859</ele>
        <time>2014-02-12T08:14:59.000Z</time>
      </trkpt>
      <trkpt lat="45.91608" lon="6.49196">
        <ele>1763.5999755859</ele>
        <time>2014-02-12T08:15:00.000Z</time>
      </trkpt>
      <trkpt lat="45.91608" lon="6.49196">
        <ele>1763.5999755859</ele>
        <time>2014-02-12T08:15:01.000Z</time>
      </trkpt>
      <trkpt lat="45.91608" lon="6.49196">
        <ele>1763.5999755859</ele>
        <time>2014-02-12T08:15:02.000Z</time>
      </trkpt>
      <trkpt lat="45.91607" lon="6.49196">
        <ele>1763.4000244141</ele>
        <time>2014-02-12T08:15:03.000Z</time>
      </trkpt>
      <trkpt lat="45.91607" lon="6.49196">
        <ele>1763.4000244141</ele>
        <time>2014-02-12T08:15:04.000Z</time>
      </trkpt>
      <trkpt lat="45.91607" lon="6.49196">
        <ele>1763.4000244141</ele>
        <time>2014-02-12T08:15:05.000Z</time>
      </trkpt>
      <trkpt lat="45.91606" lon="6.49196">
        <ele>1763.1999511719</ele>
        <time>2014-02-12T08:15:07.000Z</time>
      </trkpt>
      <trkpt lat="45.91606" lon="6.49196">
        <ele>1763.1999511719</ele>
        <time>2014-02-12T08:15:08.000Z</time>
      </trkpt>
      <trkpt lat="45.91606" lon="6.49196">
        <ele>1763</ele>
        <time>2014-02-12T08:15:09.000Z</time>
      </trkpt>
      <trkpt lat="45.91606" lon="6.49196">
        <ele>1763</ele>
        <time>2014-02-12T08:15:10.000Z</time>
      </trkpt>
      <trkpt lat="45.91606" lon="6.49196">
        <ele>1763</ele>
        <time>2014-02-12T08:15:11.000Z</time>
      </trkpt>
      <trkpt lat="45.91605" lon="6.49196">
        <ele>1763</ele>
        <time>2014-02-12T08:15:12.000Z</time>
      </trkpt>
      <trkpt lat="45.91605" lon="6.49196">
        <ele>1763</ele>
        <time>2014-02-12T08:15:13.000Z</time>
      </trkpt>
      <trkpt lat="45.91605" lon="6.49196">
        <ele>1763</ele>
        <time>2014-02-12T08:15:14.000Z</time>
      </trkpt>
      <trkpt lat="45.91605" lon="6.49196">
        <ele>1763.1999511719</ele>
        <time>2014-02-12T08:15:15.000Z</time>
      </trkpt>
      <trkpt lat="45.91605" lon="6.49196">
        <ele>1763.1999511719</ele>
        <time>2014-02-12T08:15:16.000Z</time>
      </trkpt>
      <trkpt lat="45.91605" lon="6.49196">
        <ele>1763.1999511719</ele>
        <time>2014-02-12T08:15:17.000Z</time>
      </trkpt>
      <trkpt lat="45.91605" lon="6.49196">
        <ele>1763.1999511719</ele>
        <time>2014-02-12T08:15:18.000Z</time>
      </trkpt>
      <trkpt lat="45.91605" lon="6.49196">
        <ele>1763.1999511719</ele>
        <time>2014-02-12T08:15:19.000Z</time>
      </trkpt>
      <trkpt lat="45.91605" lon="6.49196">
        <ele>1763.1999511719</ele>
        <time>2014-02-12T08:15:21.000Z</time>
      </trkpt>
      <trkpt lat="45.91605" lon="6.49196">
        <ele>1763.1999511719</ele>
        <time>2014-02-12T08:15:22.000Z</time>
      </trkpt>
      <trkpt lat="45.91605" lon="6.49196">
        <ele>1763.1999511719</ele>
        <time>2014-02-12T08:15:24.000Z</time>
      </trkpt>
      <trkpt lat="45.91605" lon="6.49196">
        <ele>1763.1999511719</ele>
        <time>2014-02-12T08:15:25.000Z</time>
      </trkpt>
      <trkpt lat="45.91605" lon="6.49196">
        <ele>1763.1999511719</ele>
        <time>2014-02-12T08:15:26.000Z</time>
      </trkpt>
      <trkpt lat="45.91605" lon="6.49196">
        <ele>1763.1999511719</ele>
        <time>2014-02-12T08:15:27.000Z</time>
      </trkpt>
      <trkpt lat="45.91605" lon="6.49196">
        <ele>1763.1999511719</ele>
        <time>2014-02-12T08:15:28.000Z</time>
      </trkpt>
      <trkpt lat="45.91605" lon="6.49196">
        <ele>1763.1999511719</ele>
        <time>2014-02-12T08:15:29.000Z</time>
      </trkpt>
      <trkpt lat="45.91605" lon="6.49196">
        <ele>1763.1999511719</ele>
        <time>2014-02-12T08:15:30.000Z</time>
      </trkpt>
      <trkpt lat="45.91605" lon="6.49197">
        <ele>1763.1999511719</ele>
        <time>2014-02-12T08:15:31.000Z</time>
      </trkpt>
      <trkpt lat="45.91605" lon="6.49197">
        <ele>1763.1999511719</ele>
        <time>2014-02-12T08:15:32.000Z</time>
      </trkpt>
      <trkpt lat="45.91605" lon="6.49197">
        <ele>1763.1999511719</ele>
        <time>2014-02-12T08:15:33.000Z</time>
      </trkpt>
      <trkpt lat="45.91605" lon="6.49197">
        <ele>1763.4000244141</ele>
        <time>2014-02-12T08:15:34.000Z</time>
      </trkpt>
      <trkpt lat="45.91605" lon="6.49198">
        <ele>1763.8000488281</ele>
        <time>2014-02-12T08:15:35.000Z</time>
      </trkpt>
      <trkpt lat="45.91605" lon="6.49198">
        <ele>1763.8000488281</ele>
        <time>2014-02-12T08:15:36.000Z</time>
      </trkpt>
      <trkpt lat="45.91605" lon="6.49198">
        <ele>1763.8000488281</ele>
        <time>2014-02-12T08:15:37.000Z</time>
      </trkpt>
      <trkpt lat="45.91605" lon="6.49198">
        <ele>1763.8000488281</ele>
        <time>2014-02-12T08:15:38.000Z</time>
      </trkpt>
      <trkpt lat="45.91605" lon="6.49198">
        <ele>1763.8000488281</ele>
        <time>2014-02-12T08:15:39.000Z</time>
      </trkpt>
      <trkpt lat="45.91605" lon="6.49198">
        <ele>1763.8000488281</ele>
        <time>2014-02-12T08:15:40.000Z</time>
      </trkpt>
      <trkpt lat="45.91605" lon="6.49198">
        <ele>1763.8000488281</ele>
        <time>2014-02-12T08:15:41.000Z</time>
      </trkpt>
      <trkpt lat="45.91605" lon="6.49198">
        <ele>1764</ele>
        <time>2014-02-12T08:15:42.000Z</time>
      </trkpt>
      <trkpt lat="45.91605" lon="6.49198">
        <ele>1764</ele>
        <time>2014-02-12T08:15:43.000Z</time>
      </trkpt>
      <trkpt lat="45.91605" lon="6.49198">
        <ele>1764</ele>
        <time>2014-02-12T08:15:44.000Z</time>
      </trkpt>
      <trkpt lat="45.91605" lon="6.49198">
        <ele>1764</ele>
        <time>2014-02-12T08:15:45.000Z</time>
      </trkpt>
      <trkpt lat="45.91605" lon="6.49198">
        <ele>1764</ele>
        <time>2014-02-12T08:15:47.000Z</time>
      </trkpt>
      <trkpt lat="45.91605" lon="6.49198">
        <ele>1764</ele>
        <time>2014-02-12T08:15:48.000Z</time>
      </trkpt>
      <trkpt lat="45.91605" lon="6.49198">
        <ele>1764</ele>
        <time>2014-02-12T08:15:49.000Z</time>
      </trkpt>
      <trkpt lat="45.91605" lon="6.49198">
        <ele>1764</ele>
        <time>2014-02-12T08:15:50.000Z</time>
      </trkpt>
      <trkpt lat="45.91605" lon="6.49198">
        <ele>1764</ele>
        <time>2014-02-12T08:15:51.000Z</time>
      </trkpt>
      <trkpt lat="45.91605" lon="6.49198">
        <ele>1764</ele>
        <time>2014-02-12T08:15:52.000Z</time>
      </trkpt>
      <trkpt lat="45.91605" lon="6.49198">
        <ele>1764</ele>
        <time>2014-02-12T08:15:53.000Z</time>
      </trkpt>
      <trkpt lat="45.91605" lon="6.49198">
        <ele>1764</ele>
        <time>2014-02-12T08:15:54.000Z</time>
      </trkpt>
      <trkpt lat="45.91605" lon="6.49198">
        <ele>1764</ele>
        <time>2014-02-12T08:15:55.000Z</time>
      </trkpt>
      <trkpt lat="45.91605" lon="6.49198">
        <ele>1764</ele>
        <time>2014-02-12T08:15:56.000Z</time>
      </trkpt>
      <trkpt lat="45.91605" lon="6.49198">
        <ele>1764</ele>
        <time>2014-02-12T08:15:57.000Z</time>
      </trkpt>
      <trkpt lat="45.91605" lon="6.49198">
        <ele>1764</ele>
        <time>2014-02-12T08:15:58.000Z</time>
      </trkpt>
      <trkpt lat="45.91605" lon="6.49198">
        <ele>1764</ele>
        <time>2014-02-12T08:15:59.000Z</time>
      </trkpt>
      <trkpt lat="45.91605" lon="6.49198">
        <ele>1764</ele>
        <time>2014-02-12T08:16:00.000Z</time>
      </trkpt>
      <trkpt lat="45.91605" lon="6.49198">
        <ele>1764</ele>
        <time>2014-02-12T08:16:01.000Z</time>
      </trkpt>
      <trkpt lat="45.91605" lon="6.49198">
        <ele>1764</ele>
        <time>2014-02-12T08:16:02.000Z</time>
      </trkpt>
      <trkpt lat="45.91605" lon="6.49198">
        <ele>1764</ele>
        <time>2014-02-12T08:16:03.000Z</time>
      </trkpt>
      <trkpt lat="45.91605" lon="6.49198">
        <ele>1764</ele>
        <time>2014-02-12T08:16:04.000Z</time>
      </trkpt>
      <trkpt lat="45.91605" lon="6.49198">
        <ele>1764</ele>
        <time>2014-02-12T08:16:05.000Z</time>
      </trkpt>
      <trkpt lat="45.91605" lon="6.49198">
        <ele>1764</ele>
        <time>2014-02-12T08:16:06.000Z</time>
      </trkpt>
      <trkpt lat="45.91605" lon="6.49198">
        <ele>1764</ele>
        <time>2014-02-12T08:16:09.000Z</time>
      </trkpt>
      <trkpt lat="45.91605" lon="6.49198">
        <ele>1764</ele>
        <time>2014-02-12T08:16:10.000Z</time>
      </trkpt>
      <trkpt lat="45.91605" lon="6.49198">
        <ele>1764</ele>
        <time>2014-02-12T08:16:11.000Z</time>
      </trkpt>
      <trkpt lat="45.91604" lon="6.49199">
        <ele>1764</ele>
        <time>2014-02-12T08:16:12.000Z</time>
      </trkpt>
      <trkpt lat="45.91604" lon="6.49199">
        <ele>1764</ele>
        <time>2014-02-12T08:16:13.000Z</time>
      </trkpt>
      <trkpt lat="45.91604" lon="6.49199">
        <ele>1764.1999511719</ele>
        <time>2014-02-12T08:16:14.000Z</time>
      </trkpt>
      <trkpt lat="45.91604" lon="6.49199">
        <ele>1764.1999511719</ele>
        <time>2014-02-12T08:16:15.000Z</time>
      </trkpt>
      <trkpt lat="45.91604" lon="6.49199">
        <ele>1764.1999511719</ele>
        <time>2014-02-12T08:16:16.000Z</time>
      </trkpt>
      <trkpt lat="45.91604" lon="6.49199">
        <ele>1764.1999511719</ele>
        <time>2014-02-12T08:16:17.000Z</time>
      </trkpt>
      <trkpt lat="45.91604" lon="6.49199">
        <ele>1764.4000244141</ele>
        <time>2014-02-12T08:16:18.000Z</time>
      </trkpt>
      <trkpt lat="45.91604" lon="6.49199">
        <ele>1764.4000244141</ele>
        <time>2014-02-12T08:16:19.000Z</time>
      </trkpt>
      <trkpt lat="45.91604" lon="6.49199">
        <ele>1764.4000244141</ele>
        <time>2014-02-12T08:16:20.000Z</time>
      </trkpt>
      <trkpt lat="45.91603" lon="6.49199">
        <ele>1764.4000244141</ele>
        <time>2014-02-12T08:16:21.000Z</time>
      </trkpt>
      <trkpt lat="45.91603" lon="6.49199">
        <ele>1764.4000244141</ele>
        <time>2014-02-12T08:16:22.000Z</time>
      </trkpt>
      <trkpt lat="45.91603" lon="6.49199">
        <ele>1764.4000244141</ele>
        <time>2014-02-12T08:16:23.000Z</time>
      </trkpt>
      <trkpt lat="45.91603" lon="6.49199">
        <ele>1764.4000244141</ele>
        <time>2014-02-12T08:16:24.000Z</time>
      </trkpt>
      <trkpt lat="45.91603" lon="6.49199">
        <ele>1764.5999755859</ele>
        <time>2014-02-12T08:16:25.000Z</time>
      </trkpt>
      <trkpt lat="45.91603" lon="6.49199">
        <ele>1764.5999755859</ele>
        <time>2014-02-12T08:16:26.000Z</time>
      </trkpt>
      <trkpt lat="45.91603" lon="6.49199">
        <ele>1764.5999755859</ele>
        <time>2014-02-12T08:16:27.000Z</time>
      </trkpt>
      <trkpt lat="45.91603" lon="6.49199">
        <ele>1764.5999755859</ele>
        <time>2014-02-12T08:16:28.000Z</time>
      </trkpt>
      <trkpt lat="45.91603" lon="6.49199">
        <ele>1764.5999755859</ele>
        <time>2014-02-12T08:16:29.000Z</time>
      </trkpt>
      <trkpt lat="45.91603" lon="6.49199">
        <ele>1764.5999755859</ele>
        <time>2014-02-12T08:16:30.000Z</time>
      </trkpt>
      <trkpt lat="45.91603" lon="6.49199">
        <ele>1764.5999755859</ele>
        <time>2014-02-12T08:16:31.000Z</time>
      </trkpt>
      <trkpt lat="45.91603" lon="6.49199">
        <ele>1764.5999755859</ele>
        <time>2014-02-12T08:16:32.000Z</time>
      </trkpt>
      <trkpt lat="45.91603" lon="6.49199">
        <ele>1764.5999755859</ele>
        <time>2014-02-12T08:16:33.000Z</time>
      </trkpt>
      <trkpt lat="45.91603" lon="6.49199">
        <ele>1764.5999755859</ele>
        <time>2014-02-12T08:16:34.000Z</time>
      </trkpt>
      <trkpt lat="45.91603" lon="6.49199">
        <ele>1764.5999755859</ele>
        <time>2014-02-12T08:16:35.000Z</time>
      </trkpt>
      <trkpt lat="45.91603" lon="6.49199">
        <ele>1764.5999755859</ele>
        <time>2014-02-12T08:16:36.000Z</time>
      </trkpt>
      <trkpt lat="45.91603" lon="6.49199">
        <ele>1764.5999755859</ele>
        <time>2014-02-12T08:16:37.000Z</time>
      </trkpt>
      <trkpt lat="45.91603" lon="6.49199">
        <ele>1764.5999755859</ele>
        <time>2014-02-12T08:16:38.000Z</time>
      </trkpt>
      <trkpt lat="45.91603" lon="6.49199">
        <ele>1764.5999755859</ele>
        <time>2014-02-12T08:16:39.000Z</time>
      </trkpt>
      <trkpt lat="45.91603" lon="6.49199">
        <ele>1764.5999755859</ele>
        <time>2014-02-12T08:16:40.000Z</time>
      </trkpt>
      <trkpt lat="45.91603" lon="6.49199">
        <ele>1764.5999755859</ele>
        <time>2014-02-12T08:16:41.000Z</time>
      </trkpt>
      <trkpt lat="45.91603" lon="6.49199">
        <ele>1764.5999755859</ele>
        <time>2014-02-12T08:16:42.000Z</time>
      </trkpt>
      <trkpt lat="45.91603" lon="6.49199">
        <ele>1764.5999755859</ele>
        <time>2014-02-12T08:16:43.000Z</time>
      </trkpt>
      <trkpt lat="45.91603" lon="6.49199">
        <ele>1764.5999755859</ele>
        <time>2014-02-12T08:16:44.000Z</time>
      </trkpt>
      <trkpt lat="45.91603" lon="6.49199">
        <ele>1764.5999755859</ele>
        <time>2014-02-12T08:16:45.000Z</time>
      </trkpt>
      <trkpt lat="45.91603" lon="6.49199">
        <ele>1764.5999755859</ele>
        <time>2014-02-12T08:16:46.000Z</time>
      </trkpt>
      <trkpt lat="45.91603" lon="6.49199">
        <ele>1764.5999755859</ele>
        <time>2014-02-12T08:16:47.000Z</time>
      </trkpt>
      <trkpt lat="45.91603" lon="6.49199">
        <ele>1764.5999755859</ele>
        <time>2014-02-12T08:16:48.000Z</time>
      </trkpt>
      <trkpt lat="45.91603" lon="6.49199">
        <ele>1764.5999755859</ele>
        <time>2014-02-12T08:16:49.000Z</time>
      </trkpt>
      <trkpt lat="45.91603" lon="6.49199">
        <ele>1764.5999755859</ele>
        <time>2014-02-12T08:16:50.000Z</time>
      </trkpt>
      <trkpt lat="45.91603" lon="6.49199">
        <ele>1764.5999755859</ele>
        <time>2014-02-12T08:16:51.000Z</time>
      </trkpt>
      <trkpt lat="45.91603" lon="6.49199">
        <ele>1764.5999755859</ele>
        <time>2014-02-12T08:16:52.000Z</time>
      </trkpt>
      <trkpt lat="45.91603" lon="6.49199">
        <ele>1764.5999755859</ele>
        <time>2014-02-12T08:16:53.000Z</time>
      </trkpt>
      <trkpt lat="45.91603" lon="6.49199">
        <ele>1764.5999755859</ele>
        <time>2014-02-12T08:16:54.000Z</time>
      </trkpt>
      <trkpt lat="45.91603" lon="6.49199">
        <ele>1764.5999755859</ele>
        <time>2014-02-12T08:16:55.000Z</time>
      </trkpt>
      <trkpt lat="45.91603" lon="6.49199">
        <ele>1764.5999755859</ele>
        <time>2014-02-12T08:16:56.000Z</time>
      </trkpt>
      <trkpt lat="45.91603" lon="6.49199">
        <ele>1764.5999755859</ele>
        <time>2014-02-12T08:16:57.000Z</time>
      </trkpt>
      <trkpt lat="45.91603" lon="6.49199">
        <ele>1764.5999755859</ele>
        <time>2014-02-12T08:16:58.000Z</time>
      </trkpt>
      <trkpt lat="45.91603" lon="6.49199">
        <ele>1764.5999755859</ele>
        <time>2014-02-12T08:16:59.000Z</time>
      </trkpt>
      <trkpt lat="45.91603" lon="6.49199">
        <ele>1764.5999755859</ele>
        <time>2014-02-12T08:17:00.000Z</time>
      </trkpt>
      <trkpt lat="45.91603" lon="6.49199">
        <ele>1764.5999755859</ele>
        <time>2014-02-12T08:17:01.000Z</time>
      </trkpt>
      <trkpt lat="45.91603" lon="6.49199">
        <ele>1764.5999755859</ele>
        <time>2014-02-12T08:17:02.000Z</time>
      </trkpt>
      <trkpt lat="45.91603" lon="6.49199">
        <ele>1764.5999755859</ele>
        <time>2014-02-12T08:17:03.000Z</time>
      </trkpt>
      <trkpt lat="45.91603" lon="6.49199">
        <ele>1764.5999755859</ele>
        <time>2014-02-12T08:17:04.000Z</time>
      </trkpt>
      <trkpt lat="45.91603" lon="6.492">
        <ele>1764.5999755859</ele>
        <time>2014-02-12T08:17:05.000Z</time>
      </trkpt>
      <trkpt lat="45.91603" lon="6.492">
        <ele>1764.5999755859</ele>
        <time>2014-02-12T08:17:06.000Z</time>
      </trkpt>
      <trkpt lat="45.91603" lon="6.492">
        <ele>1764.5999755859</ele>
        <time>2014-02-12T08:17:07.000Z</time>
      </trkpt>
      <trkpt lat="45.91603" lon="6.492">
        <ele>1764.5999755859</ele>
        <time>2014-02-12T08:17:08.000Z</time>
      </trkpt>
      <trkpt lat="45.91603" lon="6.492">
        <ele>1764.5999755859</ele>
        <time>2014-02-12T08:17:09.000Z</time>
      </trkpt>
      <trkpt lat="45.91603" lon="6.492">
        <ele>1764.5999755859</ele>
        <time>2014-02-12T08:17:10.000Z</time>
      </trkpt>
      <trkpt lat="45.91603" lon="6.492">
        <ele>1764.5999755859</ele>
        <time>2014-02-12T08:17:11.000Z</time>
      </trkpt>
      <trkpt lat="45.91603" lon="6.492">
        <ele>1764.5999755859</ele>
        <time>2014-02-12T08:17:12.000Z</time>
      </trkpt>
      <trkpt lat="45.91603" lon="6.492">
        <ele>1764.5999755859</ele>
        <time>2014-02-12T08:17:13.000Z</time>
      </trkpt>
      <trkpt lat="45.91603" lon="6.492">
        <ele>1764.5999755859</ele>
        <time>2014-02-12T08:17:14.000Z</time>
      </trkpt>
      <trkpt lat="45.91603" lon="6.492">
        <ele>1764.5999755859</ele>
        <time>2014-02-12T08:17:15.000Z</time>
      </trkpt>
      <trkpt lat="45.91603" lon="6.492">
        <ele>1764.5999755859</ele>
        <time>2014-02-12T08:17:16.000Z</time>
      </trkpt>
      <trkpt lat="45.91603" lon="6.492">
        <ele>1764.5999755859</ele>
        <time>2014-02-12T08:17:17.000Z</time>
      </trkpt>
      <trkpt lat="45.91603" lon="6.492">
        <ele>1764.5999755859</ele>
        <time>2014-02-12T08:17:18.000Z</time>
      </trkpt>
      <trkpt lat="45.91603" lon="6.492">
        <ele>1764.5999755859</ele>
        <time>2014-02-12T08:17:19.000Z</time>
      </trkpt>
      <trkpt lat="45.91603" lon="6.49199">
        <ele>1764.4000244141</ele>
        <time>2014-02-12T08:17:20.000Z</time>
      </trkpt>
      <trkpt lat="45.91603" lon="6.49199">
        <ele>1764.4000244141</ele>
        <time>2014-02-12T08:17:21.000Z</time>
      </trkpt>
      <trkpt lat="45.91603" lon="6.49199">
        <ele>1764.4000244141</ele>
        <time>2014-02-12T08:17:22.000Z</time>
      </trkpt>
      <trkpt lat="45.91603" lon="6.49199">
        <ele>1764.4000244141</ele>
        <time>2014-02-12T08:17:23.000Z</time>
      </trkpt>
      <trkpt lat="45.91603" lon="6.49199">
        <ele>1764.4000244141</ele>
        <time>2014-02-12T08:17:24.000Z</time>
      </trkpt>
      <trkpt lat="45.91603" lon="6.49199">
        <ele>1764.4000244141</ele>
        <time>2014-02-12T08:17:25.000Z</time>
      </trkpt>
      <trkpt lat="45.91603" lon="6.49199">
        <ele>1764.4000244141</ele>
        <time>2014-02-12T08:17:26.000Z</time>
      </trkpt>
      <trkpt lat="45.91603" lon="6.49199">
        <ele>1764.4000244141</ele>
        <time>2014-02-12T08:17:27.000Z</time>
      </trkpt>
      <trkpt lat="45.91603" lon="6.49199">
        <ele>1764.4000244141</ele>
        <time>2014-02-12T08:17:28.000Z</time>
      </trkpt>
      <trkpt lat="45.91605" lon="6.49199">
        <ele>1764.5999755859</ele>
        <time>2014-02-12T08:17:31.000Z</time>
      </trkpt>
      <trkpt lat="45.91606" lon="6.49199">
        <ele>1764.5999755859</ele>
        <time>2014-02-12T08:17:32.000Z</time>
      </trkpt>
      <trkpt lat="45.91607" lon="6.49199">
        <ele>1764.5999755859</ele>
        <time>2014-02-12T08:17:33.000Z</time>
      </trkpt>
      <trkpt lat="45.91607" lon="6.49199">
        <ele>1764.5999755859</ele>
        <time>2014-02-12T08:17:34.000Z</time>
      </trkpt>
      <trkpt lat="45.91608" lon="6.49199">
        <ele>1764.8000488281</ele>
        <time>2014-02-12T08:17:35.000Z</time>
      </trkpt>
      <trkpt lat="45.91611" lon="6.49197">
        <ele>1764.5999755859</ele>
        <time>2014-02-12T08:17:36.000Z</time>
      </trkpt>
      <trkpt lat="45.91614" lon="6.49196">
        <ele>1764.5999755859</ele>
        <time>2014-02-12T08:17:37.000Z</time>
      </trkpt>
      <trkpt lat="45.91617" lon="6.49194">
        <ele>1764.5999755859</ele>
        <time>2014-02-12T08:17:38.000Z</time>
      </trkpt>
      <trkpt lat="45.91619" lon="6.49194">
        <ele>1764.5999755859</ele>
        <time>2014-02-12T08:17:39.000Z</time>
      </trkpt>
      <trkpt lat="45.9162" lon="6.49193">
        <ele>1764.5999755859</ele>
        <time>2014-02-12T08:17:40.000Z</time>
      </trkpt>
      <trkpt lat="45.91621" lon="6.49192">
        <ele>1764.5999755859</ele>
        <time>2014-02-12T08:17:41.000Z</time>
      </trkpt>
      <trkpt lat="45.91621" lon="6.49192">
        <ele>1764.4000244141</ele>
        <time>2014-02-12T08:17:42.000Z</time>
      </trkpt>
      <trkpt lat="45.9162" lon="6.49191">
        <ele>1763.8000488281</ele>
        <time>2014-02-12T08:17:43.000Z</time>
      </trkpt>
      <trkpt lat="45.9162" lon="6.49191">
        <ele>1763.8000488281</ele>
        <time>2014-02-12T08:17:44.000Z</time>
      </trkpt>
      <trkpt lat="45.9162" lon="6.49191">
        <ele>1763.8000488281</ele>
        <time>2014-02-12T08:17:45.000Z</time>
      </trkpt>
      <trkpt lat="45.9162" lon="6.49191">
        <ele>1763.8000488281</ele>
        <time>2014-02-12T08:17:46.000Z</time>
      </trkpt>
      <trkpt lat="45.9162" lon="6.49191">
        <ele>1763.8000488281</ele>
        <time>2014-02-12T08:17:47.000Z</time>
      </trkpt>
      <trkpt lat="45.9162" lon="6.49191">
        <ele>1763.8000488281</ele>
        <time>2014-02-12T08:17:48.000Z</time>
      </trkpt>
      <trkpt lat="45.9162" lon="6.49191">
        <ele>1763.8000488281</ele>
        <time>2014-02-12T08:17:49.000Z</time>
      </trkpt>
      <trkpt lat="45.9162" lon="6.49191">
        <ele>1763.8000488281</ele>
        <time>2014-02-12T08:17:50.000Z</time>
      </trkpt>
      <trkpt lat="45.9162" lon="6.49191">
        <ele>1763.8000488281</ele>
        <time>2014-02-12T08:17:51.000Z</time>
      </trkpt>
      <trkpt lat="45.9162" lon="6.49191">
        <ele>1763.8000488281</ele>
        <time>2014-02-12T08:17:52.000Z</time>
      </trkpt>
      <trkpt lat="45.9162" lon="6.49191">
        <ele>1763.8000488281</ele>
        <time>2014-02-12T08:17:53.000Z</time>
      </trkpt>
      <trkpt lat="45.9162" lon="6.49191">
        <ele>1763.8000488281</ele>
        <time>2014-02-12T08:17:54.000Z</time>
      </trkpt>
      <trkpt lat="45.9162" lon="6.49191">
        <ele>1763.8000488281</ele>
        <time>2014-02-12T08:17:55.000Z</time>
      </trkpt>
      <trkpt lat="45.9162" lon="6.49191">
        <ele>1763.8000488281</ele>
        <time>2014-02-12T08:17:56.000Z</time>
      </trkpt>
      <trkpt lat="45.9162" lon="6.49191">
        <ele>1763.8000488281</ele>
        <time>2014-02-12T08:17:57.000Z</time>
      </trkpt>
      <trkpt lat="45.9162" lon="6.49191">
        <ele>1763.8000488281</ele>
        <time>2014-02-12T08:17:58.000Z</time>
      </trkpt>
      <trkpt lat="45.9162" lon="6.49191">
        <ele>1763.8000488281</ele>
        <time>2014-02-12T08:17:59.000Z</time>
      </trkpt>
      <trkpt lat="45.9162" lon="6.49191">
        <ele>1763.8000488281</ele>
        <time>2014-02-12T08:18:00.000Z</time>
      </trkpt>
      <trkpt lat="45.9162" lon="6.49191">
        <ele>1763.8000488281</ele>
        <time>2014-02-12T08:18:01.000Z</time>
      </trkpt>
      <trkpt lat="45.9162" lon="6.49191">
        <ele>1763.8000488281</ele>
        <time>2014-02-12T08:18:02.000Z</time>
      </trkpt>
      <trkpt lat="45.9162" lon="6.49191">
        <ele>1763.8000488281</ele>
        <time>2014-02-12T08:18:03.000Z</time>
      </trkpt>
      <trkpt lat="45.9162" lon="6.49191">
        <ele>1763.8000488281</ele>
        <time>2014-02-12T08:18:04.000Z</time>
      </trkpt>
      <trkpt lat="45.9162" lon="6.49191">
        <ele>1763.8000488281</ele>
        <time>2014-02-12T08:18:10.000Z</time>
      </trkpt>
      <trkpt lat="45.9162" lon="6.49191">
        <ele>1763.8000488281</ele>
        <time>2014-02-12T08:18:11.000Z</time>
      </trkpt>
      <trkpt lat="45.9162" lon="6.49191">
        <ele>1763.8000488281</ele>
        <time>2014-02-12T08:18:12.000Z</time>
      </trkpt>
      <trkpt lat="45.9162" lon="6.49191">
        <ele>1763.8000488281</ele>
        <time>2014-02-12T08:18:13.000Z</time>
      </trkpt>
      <trkpt lat="45.9162" lon="6.49191">
        <ele>1763.8000488281</ele>
        <time>2014-02-12T08:18:14.000Z</time>
      </trkpt>
      <trkpt lat="45.9162" lon="6.49191">
        <ele>1763.8000488281</ele>
        <time>2014-02-12T08:18:15.000Z</time>
      </trkpt>
      <trkpt lat="45.9162" lon="6.49191">
        <ele>1763.8000488281</ele>
        <time>2014-02-12T08:18:16.000Z</time>
      </trkpt>
      <trkpt lat="45.9162" lon="6.49191">
        <ele>1763.8000488281</ele>
        <time>2014-02-12T08:18:17.000Z</time>
      </trkpt>
      <trkpt lat="45.9162" lon="6.49191">
        <ele>1763.8000488281</ele>
        <time>2014-02-12T08:18:18.000Z</time>
      </trkpt>
      <trkpt lat="45.9162" lon="6.49191">
        <ele>1763.8000488281</ele>
        <time>2014-02-12T08:18:20.000Z</time>
      </trkpt>
      <trkpt lat="45.9162" lon="6.49191">
        <ele>1763.8000488281</ele>
        <time>2014-02-12T08:18:21.000Z</time>
      </trkpt>
      <trkpt lat="45.9162" lon="6.49191">
        <ele>1763.8000488281</ele>
        <time>2014-02-12T08:18:22.000Z</time>
      </trkpt>
      <trkpt lat="45.9162" lon="6.49191">
        <ele>1763.8000488281</ele>
        <time>2014-02-12T08:18:23.000Z</time>
      </trkpt>
      <trkpt lat="45.9162" lon="6.49191">
        <ele>1763.8000488281</ele>
        <time>2014-02-12T08:18:24.000Z</time>
      </trkpt>
      <trkpt lat="45.9162" lon="6.49191">
        <ele>1763.8000488281</ele>
        <time>2014-02-12T08:18:25.000Z</time>
      </trkpt>
      <trkpt lat="45.9162" lon="6.49191">
        <ele>1763.8000488281</ele>
        <time>2014-02-12T08:18:26.000Z</time>
      </trkpt>
      <trkpt lat="45.9162" lon="6.49191">
        <ele>1763.8000488281</ele>
        <time>2014-02-12T08:18:27.000Z</time>
      </trkpt>
      <trkpt lat="45.9162" lon="6.49191">
        <ele>1763.8000488281</ele>
        <time>2014-02-12T08:18:28.000Z</time>
      </trkpt>
      <trkpt lat="45.9162" lon="6.49191">
        <ele>1763.8000488281</ele>
        <time>2014-02-12T08:18:29.000Z</time>
      </trkpt>
      <trkpt lat="45.9162" lon="6.49191">
        <ele>1763.8000488281</ele>
        <time>2014-02-12T08:18:30.000Z</time>
      </trkpt>
      <trkpt lat="45.9162" lon="6.49191">
        <ele>1763.8000488281</ele>
        <time>2014-02-12T08:18:32.000Z</time>
      </trkpt>
      <trkpt lat="45.9162" lon="6.49191">
        <ele>1763.8000488281</ele>
        <time>2014-02-12T08:18:33.000Z</time>
      </trkpt>
      <trkpt lat="45.9162" lon="6.49191">
        <ele>1763.8000488281</ele>
        <time>2014-02-12T08:18:34.000Z</time>
      </trkpt>
      <trkpt lat="45.9162" lon="6.49191">
        <ele>1763.8000488281</ele>
        <time>2014-02-12T08:18:35.000Z</time>
      </trkpt>
      <trkpt lat="45.9162" lon="6.49191">
        <ele>1763.8000488281</ele>
        <time>2014-02-12T08:18:37.000Z</time>
      </trkpt>
      <trkpt lat="45.9162" lon="6.49191">
        <ele>1763.8000488281</ele>
        <time>2014-02-12T08:18:38.000Z</time>
      </trkpt>
      <trkpt lat="45.9162" lon="6.49191">
        <ele>1763.8000488281</ele>
        <time>2014-02-12T08:18:39.000Z</time>
      </trkpt>
      <trkpt lat="45.9162" lon="6.49191">
        <ele>1763.8000488281</ele>
        <time>2014-02-12T08:18:40.000Z</time>
      </trkpt>
      <trkpt lat="45.9162" lon="6.49191">
        <ele>1763.8000488281</ele>
        <time>2014-02-12T08:18:41.000Z</time>
      </trkpt>
      <trkpt lat="45.9162" lon="6.49191">
        <ele>1763.8000488281</ele>
        <time>2014-02-12T08:18:42.000Z</time>
      </trkpt>
      <trkpt lat="45.9162" lon="6.49191">
        <ele>1763.8000488281</ele>
        <time>2014-02-12T08:18:43.000Z</time>
      </trkpt>
      <trkpt lat="45.9162" lon="6.49191">
        <ele>1763.8000488281</ele>
        <time>2014-02-12T08:18:44.000Z</time>
      </trkpt>
      <trkpt lat="45.9162" lon="6.4919">
        <ele>1763.4000244141</ele>
        <time>2014-02-12T08:18:45.000Z</time>
      </trkpt>
      <trkpt lat="45.91621" lon="6.49189">
        <ele>1763</ele>
        <time>2014-02-12T08:18:46.000Z</time>
      </trkpt>
      <trkpt lat="45.9162" lon="6.49186">
        <ele>1761.8000488281</ele>
        <time>2014-02-12T08:18:47.000Z</time>
      </trkpt>
      <trkpt lat="45.91617" lon="6.49184">
        <ele>1760.1999511719</ele>
        <time>2014-02-12T08:18:48.000Z</time>
      </trkpt>
      <trkpt lat="45.91615" lon="6.49181">
        <ele>1759</ele>
        <time>2014-02-12T08:18:49.000Z</time>
      </trkpt>
      <trkpt lat="45.91614" lon="6.49179">
        <ele>1757.8000488281</ele>
        <time>2014-02-12T08:18:50.000Z</time>
      </trkpt>
      <trkpt lat="45.91613" lon="6.49179">
        <ele>1757.4000244141</ele>
        <time>2014-02-12T08:18:51.000Z</time>
      </trkpt>
      <trkpt lat="45.91612" lon="6.49179">
        <ele>1757.4000244141</ele>
        <time>2014-02-12T08:18:52.000Z</time>
      </trkpt>
      <trkpt lat="45.91611" lon="6.49179">
        <ele>1757.1999511719</ele>
        <time>2014-02-12T08:18:53.000Z</time>
      </trkpt>
      <trkpt lat="45.91611" lon="6.49178">
        <ele>1756.8000488281</ele>
        <time>2014-02-12T08:18:54.000Z</time>
      </trkpt>
      <trkpt lat="45.9161" lon="6.49178">
        <ele>1756.4000244141</ele>
        <time>2014-02-12T08:18:55.000Z</time>
      </trkpt>
      <trkpt lat="45.91609" lon="6.49176">
        <ele>1755.8000488281</ele>
        <time>2014-02-12T08:18:56.000Z</time>
      </trkpt>
      <trkpt lat="45.91609" lon="6.49175">
        <ele>1755.1999511719</ele>
        <time>2014-02-12T08:18:57.000Z</time>
      </trkpt>
      <trkpt lat="45.91608" lon="6.49174">
        <ele>1754.5999755859</ele>
        <time>2014-02-12T08:18:58.000Z</time>
      </trkpt>
      <trkpt lat="45.91607" lon="6.49173">
        <ele>1754</ele>
        <time>2014-02-12T08:18:59.000Z</time>
      </trkpt>
      <trkpt lat="45.91607" lon="6.4917">
        <ele>1753</ele>
        <time>2014-02-12T08:19:00.000Z</time>
      </trkpt>
      <trkpt lat="45.91606" lon="6.49168">
        <ele>1752</ele>
        <time>2014-02-12T08:19:01.000Z</time>
      </trkpt>
      <trkpt lat="45.91605" lon="6.49167">
        <ele>1751.4000244141</ele>
        <time>2014-02-12T08:19:02.000Z</time>
      </trkpt>
      <trkpt lat="45.91605" lon="6.49166">
        <ele>1750.8000488281</ele>
        <time>2014-02-12T08:19:03.000Z</time>
      </trkpt>
      <trkpt lat="45.91604" lon="6.49166">
        <ele>1750.4000244141</ele>
        <time>2014-02-12T08:19:04.000Z</time>
      </trkpt>
      <trkpt lat="45.91602" lon="6.49165">
        <ele>1749.8000488281</ele>
        <time>2014-02-12T08:19:05.000Z</time>
      </trkpt>
      <trkpt lat="45.91601" lon="6.49163">
        <ele>1749</ele>
        <time>2014-02-12T08:19:06.000Z</time>
      </trkpt>
      <trkpt lat="45.916" lon="6.49162">
        <ele>1748.4000244141</ele>
        <time>2014-02-12T08:19:07.000Z</time>
      </trkpt>
      <trkpt lat="45.916" lon="6.49162">
        <ele>1748.1999511719</ele>
        <time>2014-02-12T08:19:08.000Z</time>
      </trkpt>
      <trkpt lat="45.916" lon="6.49162">
        <ele>1748</ele>
        <time>2014-02-12T08:19:09.000Z</time>
      </trkpt>
      <trkpt lat="45.916" lon="6.49161">
        <ele>1747.8000488281</ele>
        <time>2014-02-12T08:19:10.000Z</time>
      </trkpt>
      <trkpt lat="45.91599" lon="6.49159">
        <ele>1747</ele>
        <time>2014-02-12T08:19:11.000Z</time>
      </trkpt>
      <trkpt lat="45.91598" lon="6.49157">
        <ele>1745.8000488281</ele>
        <time>2014-02-12T08:19:12.000Z</time>
      </trkpt>
      <trkpt lat="45.91597" lon="6.49155">
        <ele>1744.5999755859</ele>
        <time>2014-02-12T08:19:13.000Z</time>
      </trkpt>
      <trkpt lat="45.91596" lon="6.49152">
        <ele>1743.4000244141</ele>
        <time>2014-02-12T08:19:14.000Z</time>
      </trkpt>
      <trkpt lat="45.91595" lon="6.49151">
        <ele>1742.8000488281</ele>
        <time>2014-02-12T08:19:15.000Z</time>
      </trkpt>
      <trkpt lat="45.91594" lon="6.4915">
        <ele>1741.8000488281</ele>
        <time>2014-02-12T08:19:16.000Z</time>
      </trkpt>
      <trkpt lat="45.91593" lon="6.49148">
        <ele>1741</ele>
        <time>2014-02-12T08:19:17.000Z</time>
      </trkpt>
      <trkpt lat="45.91591" lon="6.49147">
        <ele>1740.1999511719</ele>
        <time>2014-02-12T08:19:18.000Z</time>
      </trkpt>
      <trkpt lat="45.9159" lon="6.49144">
        <ele>1738.4000244141</ele>
        <time>2014-02-12T08:19:19.000Z</time>
      </trkpt>
      <trkpt lat="45.91588" lon="6.49142">
        <ele>1737</ele>
        <time>2014-02-12T08:19:20.000Z</time>
      </trkpt>
      <trkpt lat="45.91586" lon="6.49139">
        <ele>1735</ele>
        <time>2014-02-12T08:19:21.000Z</time>
      </trkpt>
      <trkpt lat="45.91584" lon="6.49137">
        <ele>1733.5999755859</ele>
        <time>2014-02-12T08:19:22.000Z</time>
      </trkpt>
      <trkpt lat="45.91584" lon="6.49136">
        <ele>1733</ele>
        <time>2014-02-12T08:19:23.000Z</time>
      </trkpt>
      <trkpt lat="45.91584" lon="6.49136">
        <ele>1732.8000488281</ele>
        <time>2014-02-12T08:19:24.000Z</time>
      </trkpt>
      <trkpt lat="45.91584" lon="6.49135">
        <ele>1732.8000488281</ele>
        <time>2014-02-12T08:19:25.000Z</time>
      </trkpt>
      <trkpt lat="45.91584" lon="6.49135">
        <ele>1732.8000488281</ele>
        <time>2014-02-12T08:19:26.000Z</time>
      </trkpt>
      <trkpt lat="45.91583" lon="6.49135">
        <ele>1732.4000244141</ele>
        <time>2014-02-12T08:19:27.000Z</time>
      </trkpt>
      <trkpt lat="45.91582" lon="6.49133">
        <ele>1731.4000244141</ele>
        <time>2014-02-12T08:19:28.000Z</time>
      </trkpt>
      <trkpt lat="45.91581" lon="6.49131">
        <ele>1730</ele>
        <time>2014-02-12T08:19:29.000Z</time>
      </trkpt>
      <trkpt lat="45.9158" lon="6.49128">
        <ele>1728.5999755859</ele>
        <time>2014-02-12T08:19:30.000Z</time>
      </trkpt>
      <trkpt lat="45.91579" lon="6.49125">
        <ele>1726.8000488281</ele>
        <time>2014-02-12T08:19:31.000Z</time>
      </trkpt>
      <trkpt lat="45.91578" lon="6.49123">
        <ele>1725.4000244141</ele>
        <time>2014-02-12T08:19:32.000Z</time>
      </trkpt>
      <trkpt lat="45.91577" lon="6.49121">
        <ele>1724.4000244141</ele>
        <time>2014-02-12T08:19:33.000Z</time>
      </trkpt>
      <trkpt lat="45.91577" lon="6.4912">
        <ele>1723.8000488281</ele>
        <time>2014-02-12T08:19:34.000Z</time>
      </trkpt>
      <trkpt lat="45.91577" lon="6.49119">
        <ele>1723.1999511719</ele>
        <time>2014-02-12T08:19:35.000Z</time>
      </trkpt>
      <trkpt lat="45.91577" lon="6.49119">
        <ele>1723.1999511719</ele>
        <time>2014-02-12T08:19:36.000Z</time>
      </trkpt>
      <trkpt lat="45.91577" lon="6.49119">
        <ele>1723.1999511719</ele>
        <time>2014-02-12T08:19:37.000Z</time>
      </trkpt>
      <trkpt lat="45.91577" lon="6.49119">
        <ele>1723.1999511719</ele>
        <time>2014-02-12T08:19:38.000Z</time>
      </trkpt>
      <trkpt lat="45.91577" lon="6.49119">
        <ele>1723.1999511719</ele>
        <time>2014-02-12T08:19:39.000Z</time>
      </trkpt>
      <trkpt lat="45.91577" lon="6.49119">
        <ele>1723.1999511719</ele>
        <time>2014-02-12T08:19:40.000Z</time>
      </trkpt>
      <trkpt lat="45.91577" lon="6.49119">
        <ele>1723.1999511719</ele>
        <time>2014-02-12T08:19:41.000Z</time>
      </trkpt>
      <trkpt lat="45.91577" lon="6.49119">
        <ele>1723.1999511719</ele>
        <time>2014-02-12T08:19:42.000Z</time>
      </trkpt>
      <trkpt lat="45.91577" lon="6.49119">
        <ele>1723.1999511719</ele>
        <time>2014-02-12T08:19:43.000Z</time>
      </trkpt>
      <trkpt lat="45.91577" lon="6.49119">
        <ele>1723.1999511719</ele>
        <time>2014-02-12T08:19:44.000Z</time>
      </trkpt>
      <trkpt lat="45.91577" lon="6.49119">
        <ele>1723.1999511719</ele>
        <time>2014-02-12T08:19:45.000Z</time>
      </trkpt>
      <trkpt lat="45.91577" lon="6.49119">
        <ele>1723.1999511719</ele>
        <time>2014-02-12T08:19:46.000Z</time>
      </trkpt>
      <trkpt lat="45.91577" lon="6.49119">
        <ele>1723.1999511719</ele>
        <time>2014-02-12T08:19:47.000Z</time>
      </trkpt>
      <trkpt lat="45.91577" lon="6.49119">
        <ele>1723.1999511719</ele>
        <time>2014-02-12T08:19:48.000Z</time>
      </trkpt>
      <trkpt lat="45.91577" lon="6.49119">
        <ele>1723.1999511719</ele>
        <time>2014-02-12T08:19:49.000Z</time>
      </trkpt>
      <trkpt lat="45.91577" lon="6.49119">
        <ele>1723.1999511719</ele>
        <time>2014-02-12T08:19:50.000Z</time>
      </trkpt>
      <trkpt lat="45.91577" lon="6.49119">
        <ele>1723.1999511719</ele>
        <time>2014-02-12T08:19:51.000Z</time>
      </trkpt>
      <trkpt lat="45.91577" lon="6.49119">
        <ele>1723.1999511719</ele>
        <time>2014-02-12T08:19:52.000Z</time>
      </trkpt>
      <trkpt lat="45.91577" lon="6.49119">
        <ele>1723.1999511719</ele>
        <time>2014-02-12T08:19:53.000Z</time>
      </trkpt>
      <trkpt lat="45.91577" lon="6.49119">
        <ele>1723.1999511719</ele>
        <time>2014-02-12T08:19:55.000Z</time>
      </trkpt>
      <trkpt lat="45.91577" lon="6.49119">
        <ele>1723.1999511719</ele>
        <time>2014-02-12T08:19:56.000Z</time>
      </trkpt>
      <trkpt lat="45.91577" lon="6.49119">
        <ele>1723.1999511719</ele>
        <time>2014-02-12T08:19:57.000Z</time>
      </trkpt>
      <trkpt lat="45.91577" lon="6.49119">
        <ele>1723.1999511719</ele>
        <time>2014-02-12T08:20:00.000Z</time>
      </trkpt>
      <trkpt lat="45.91577" lon="6.49119">
        <ele>1723.1999511719</ele>
        <time>2014-02-12T08:20:01.000Z</time>
      </trkpt>
      <trkpt lat="45.91577" lon="6.49119">
        <ele>1723.1999511719</ele>
        <time>2014-02-12T08:20:02.000Z</time>
      </trkpt>
      <trkpt lat="45.91577" lon="6.49119">
        <ele>1723.1999511719</ele>
        <time>2014-02-12T08:20:03.000Z</time>
      </trkpt>
      <trkpt lat="45.91577" lon="6.49119">
        <ele>1723.1999511719</ele>
        <time>2014-02-12T08:20:04.000Z</time>
      </trkpt>
      <trkpt lat="45.91577" lon="6.49119">
        <ele>1723.1999511719</ele>
        <time>2014-02-12T08:20:06.000Z</time>
      </trkpt>
      <trkpt lat="45.91577" lon="6.49119">
        <ele>1723.1999511719</ele>
        <time>2014-02-12T08:20:07.000Z</time>
      </trkpt>
      <trkpt lat="45.91577" lon="6.49119">
        <ele>1723.1999511719</ele>
        <time>2014-02-12T08:20:08.000Z</time>
      </trkpt>
      <trkpt lat="45.91577" lon="6.49119">
        <ele>1723.1999511719</ele>
        <time>2014-02-12T08:20:09.000Z</time>
      </trkpt>
      <trkpt lat="45.91577" lon="6.49119">
        <ele>1723.1999511719</ele>
        <time>2014-02-12T08:20:10.000Z</time>
      </trkpt>
      <trkpt lat="45.91577" lon="6.49119">
        <ele>1723.1999511719</ele>
        <time>2014-02-12T08:20:11.000Z</time>
      </trkpt>
      <trkpt lat="45.91577" lon="6.49119">
        <ele>1723.1999511719</ele>
        <time>2014-02-12T08:20:12.000Z</time>
      </trkpt>
      <trkpt lat="45.91577" lon="6.49119">
        <ele>1723.1999511719</ele>
        <time>2014-02-12T08:20:13.000Z</time>
      </trkpt>
      <trkpt lat="45.91577" lon="6.49119">
        <ele>1723.1999511719</ele>
        <time>2014-02-12T08:20:16.000Z</time>
      </trkpt>
      <trkpt lat="45.91577" lon="6.49119">
        <ele>1723.1999511719</ele>
        <time>2014-02-12T08:20:17.000Z</time>
      </trkpt>
      <trkpt lat="45.91577" lon="6.49119">
        <ele>1723.1999511719</ele>
        <time>2014-02-12T08:20:18.000Z</time>
      </trkpt>
      <trkpt lat="45.91577" lon="6.49119">
        <ele>1723.1999511719</ele>
        <time>2014-02-12T08:20:19.000Z</time>
      </trkpt>
      <trkpt lat="45.91577" lon="6.49119">
        <ele>1723.1999511719</ele>
        <time>2014-02-12T08:20:20.000Z</time>
      </trkpt>
      <trkpt lat="45.91577" lon="6.49119">
        <ele>1723.1999511719</ele>
        <time>2014-02-12T08:20:21.000Z</time>
      </trkpt>
      <trkpt lat="45.91577" lon="6.49119">
        <ele>1723.1999511719</ele>
        <time>2014-02-12T08:20:22.000Z</time>
      </trkpt>
      <trkpt lat="45.91577" lon="6.49119">
        <ele>1723.1999511719</ele>
        <time>2014-02-12T08:20:26.000Z</time>
      </trkpt>
      <trkpt lat="45.91577" lon="6.49119">
        <ele>1723.1999511719</ele>
        <time>2014-02-12T08:20:27.000Z</time>
      </trkpt>
      <trkpt lat="45.91577" lon="6.49119">
        <ele>1723.1999511719</ele>
        <time>2014-02-12T08:20:28.000Z</time>
      </trkpt>
      <trkpt lat="45.91577" lon="6.49119">
        <ele>1723.1999511719</ele>
        <time>2014-02-12T08:20:29.000Z</time>
      </trkpt>
      <trkpt lat="45.91576" lon="6.49117">
        <ele>1722.1999511719</ele>
        <time>2014-02-12T08:20:30.000Z</time>
      </trkpt>
      <trkpt lat="45.91576" lon="6.49117">
        <ele>1722.1999511719</ele>
        <time>2014-02-12T08:20:31.000Z</time>
      </trkpt>
      <trkpt lat="45.91575" lon="6.49117">
        <ele>1721.8000488281</ele>
        <time>2014-02-12T08:20:32.000Z</time>
      </trkpt>
      <trkpt lat="45.91575" lon="6.49116">
        <ele>1721.4000244141</ele>
        <time>2014-02-12T08:20:33.000Z</time>
      </trkpt>
      <trkpt lat="45.91575" lon="6.49116">
        <ele>1721.4000244141</ele>
        <time>2014-02-12T08:20:34.000Z</time>
      </trkpt>
      <trkpt lat="45.91575" lon="6.49116">
        <ele>1721.4000244141</ele>
        <time>2014-02-12T08:20:35.000Z</time>
      </trkpt>
      <trkpt lat="45.91575" lon="6.49116">
        <ele>1721.4000244141</ele>
        <time>2014-02-12T08:20:37.000Z</time>
      </trkpt>
      <trkpt lat="45.91575" lon="6.49116">
        <ele>1721.4000244141</ele>
        <time>2014-02-12T08:20:38.000Z</time>
      </trkpt>
      <trkpt lat="45.91575" lon="6.49116">
        <ele>1721.4000244141</ele>
        <time>2014-02-12T08:20:39.000Z</time>
      </trkpt>
      <trkpt lat="45.91575" lon="6.49116">
        <ele>1721.4000244141</ele>
        <time>2014-02-12T08:20:40.000Z</time>
      </trkpt>
      <trkpt lat="45.91575" lon="6.49116">
        <ele>1721.4000244141</ele>
        <time>2014-02-12T08:20:41.000Z</time>
      </trkpt>
      <trkpt lat="45.91575" lon="6.49116">
        <ele>1721.4000244141</ele>
        <time>2014-02-12T08:20:42.000Z</time>
      </trkpt>
      <trkpt lat="45.91575" lon="6.49116">
        <ele>1721.4000244141</ele>
        <time>2014-02-12T08:20:43.000Z</time>
      </trkpt>
      <trkpt lat="45.91575" lon="6.49116">
        <ele>1721.4000244141</ele>
        <time>2014-02-12T08:20:44.000Z</time>
      </trkpt>
      <trkpt lat="45.91575" lon="6.49116">
        <ele>1721.4000244141</ele>
        <time>2014-02-12T08:20:45.000Z</time>
      </trkpt>
      <trkpt lat="45.91575" lon="6.49116">
        <ele>1721.4000244141</ele>
        <time>2014-02-12T08:20:46.000Z</time>
      </trkpt>
      <trkpt lat="45.91574" lon="6.49116">
        <ele>1721.4000244141</ele>
        <time>2014-02-12T08:20:47.000Z</time>
      </trkpt>
      <trkpt lat="45.91573" lon="6.49117">
        <ele>1721.4000244141</ele>
        <time>2014-02-12T08:20:48.000Z</time>
      </trkpt>
      <trkpt lat="45.91572" lon="6.49116">
        <ele>1721</ele>
        <time>2014-02-12T08:20:49.000Z</time>
      </trkpt>
      <trkpt lat="45.91571" lon="6.49116">
        <ele>1720.4000244141</ele>
        <time>2014-02-12T08:20:50.000Z</time>
      </trkpt>
      <trkpt lat="45.9157" lon="6.49114">
        <ele>1719.4000244141</ele>
        <time>2014-02-12T08:20:51.000Z</time>
      </trkpt>
      <trkpt lat="45.91568" lon="6.49113">
        <ele>1718.5999755859</ele>
        <time>2014-02-12T08:20:52.000Z</time>
      </trkpt>
      <trkpt lat="45.91568" lon="6.49112">
        <ele>1718</ele>
        <time>2014-02-12T08:20:53.000Z</time>
      </trkpt>
      <trkpt lat="45.91567" lon="6.49111">
        <ele>1717.1999511719</ele>
        <time>2014-02-12T08:20:54.000Z</time>
      </trkpt>
      <trkpt lat="45.91567" lon="6.49109">
        <ele>1716.4000244141</ele>
        <time>2014-02-12T08:20:55.000Z</time>
      </trkpt>
      <trkpt lat="45.91566" lon="6.49108">
        <ele>1715.5999755859</ele>
        <time>2014-02-12T08:20:56.000Z</time>
      </trkpt>
      <trkpt lat="45.91566" lon="6.49107">
        <ele>1715</ele>
        <time>2014-02-12T08:20:57.000Z</time>
      </trkpt>
      <trkpt lat="45.91565" lon="6.49106">
        <ele>1714.5999755859</ele>
        <time>2014-02-12T08:20:58.000Z</time>
      </trkpt>
      <trkpt lat="45.91565" lon="6.49105">
        <ele>1714</ele>
        <time>2014-02-12T08:20:59.000Z</time>
      </trkpt>
      <trkpt lat="45.91564" lon="6.49105">
        <ele>1714</ele>
        <time>2014-02-12T08:21:00.000Z</time>
      </trkpt>
      <trkpt lat="45.91564" lon="6.49105">
        <ele>1713.8000488281</ele>
        <time>2014-02-12T08:21:01.000Z</time>
      </trkpt>
      <trkpt lat="45.91563" lon="6.49105">
        <ele>1713.5999755859</ele>
        <time>2014-02-12T08:21:02.000Z</time>
      </trkpt>
      <trkpt lat="45.91563" lon="6.49105">
        <ele>1713.5999755859</ele>
        <time>2014-02-12T08:21:03.000Z</time>
      </trkpt>
      <trkpt lat="45.91562" lon="6.49105">
        <ele>1713.5999755859</ele>
        <time>2014-02-12T08:21:04.000Z</time>
      </trkpt>
      <trkpt lat="45.91562" lon="6.49106">
        <ele>1713.5999755859</ele>
        <time>2014-02-12T08:21:05.000Z</time>
      </trkpt>
      <trkpt lat="45.91562" lon="6.49106">
        <ele>1713.5999755859</ele>
        <time>2014-02-12T08:21:06.000Z</time>
      </trkpt>
      <trkpt lat="45.91561" lon="6.49105">
        <ele>1713.4000244141</ele>
        <time>2014-02-12T08:21:07.000Z</time>
      </trkpt>
      <trkpt lat="45.91561" lon="6.49105">
        <ele>1713.4000244141</ele>
        <time>2014-02-12T08:21:08.000Z</time>
      </trkpt>
      <trkpt lat="45.91561" lon="6.49105">
        <ele>1713.4000244141</ele>
        <time>2014-02-12T08:21:09.000Z</time>
      </trkpt>
      <trkpt lat="45.91561" lon="6.49105">
        <ele>1713.4000244141</ele>
        <time>2014-02-12T08:21:10.000Z</time>
      </trkpt>
      <trkpt lat="45.91561" lon="6.49105">
        <ele>1713.4000244141</ele>
        <time>2014-02-12T08:21:11.000Z</time>
      </trkpt>
      <trkpt lat="45.91561" lon="6.49105">
        <ele>1713.4000244141</ele>
        <time>2014-02-12T08:21:12.000Z</time>
      </trkpt>
      <trkpt lat="45.91561" lon="6.49105">
        <ele>1713.1999511719</ele>
        <time>2014-02-12T08:21:13.000Z</time>
      </trkpt>
      <trkpt lat="45.91561" lon="6.49105">
        <ele>1713.1999511719</ele>
        <time>2014-02-12T08:21:14.000Z</time>
      </trkpt>
      <trkpt lat="45.91561" lon="6.49105">
        <ele>1713.1999511719</ele>
        <time>2014-02-12T08:21:15.000Z</time>
      </trkpt>
      <trkpt lat="45.91561" lon="6.49105">
        <ele>1713.1999511719</ele>
        <time>2014-02-12T08:21:16.000Z</time>
      </trkpt>
      <trkpt lat="45.91561" lon="6.49105">
        <ele>1713.1999511719</ele>
        <time>2014-02-12T08:21:17.000Z</time>
      </trkpt>
      <trkpt lat="45.91561" lon="6.49105">
        <ele>1713</ele>
        <time>2014-02-12T08:21:18.000Z</time>
      </trkpt>
      <trkpt lat="45.91561" lon="6.49105">
        <ele>1713</ele>
        <time>2014-02-12T08:21:19.000Z</time>
      </trkpt>
      <trkpt lat="45.91561" lon="6.49105">
        <ele>1713</ele>
        <time>2014-02-12T08:21:20.000Z</time>
      </trkpt>
      <trkpt lat="45.9156" lon="6.49104">
        <ele>1712.4000244141</ele>
        <time>2014-02-12T08:21:21.000Z</time>
      </trkpt>
      <trkpt lat="45.9156" lon="6.49104">
        <ele>1712.4000244141</ele>
        <time>2014-02-12T08:21:22.000Z</time>
      </trkpt>
      <trkpt lat="45.9156" lon="6.49104">
        <ele>1712.4000244141</ele>
        <time>2014-02-12T08:21:23.000Z</time>
      </trkpt>
      <trkpt lat="45.9156" lon="6.49104">
        <ele>1712.4000244141</ele>
        <time>2014-02-12T08:21:24.000Z</time>
      </trkpt>
      <trkpt lat="45.9156" lon="6.49104">
        <ele>1712.4000244141</ele>
        <time>2014-02-12T08:21:25.000Z</time>
      </trkpt>
      <trkpt lat="45.9156" lon="6.49104">
        <ele>1712.4000244141</ele>
        <time>2014-02-12T08:21:26.000Z</time>
      </trkpt>
      <trkpt lat="45.9156" lon="6.49104">
        <ele>1712.4000244141</ele>
        <time>2014-02-12T08:21:27.000Z</time>
      </trkpt>
      <trkpt lat="45.9156" lon="6.49104">
        <ele>1712.4000244141</ele>
        <time>2014-02-12T08:21:28.000Z</time>
      </trkpt>
      <trkpt lat="45.9156" lon="6.49104">
        <ele>1712.4000244141</ele>
        <time>2014-02-12T08:21:29.000Z</time>
      </trkpt>
      <trkpt lat="45.9156" lon="6.49104">
        <ele>1712.4000244141</ele>
        <time>2014-02-12T08:21:30.000Z</time>
      </trkpt>
      <trkpt lat="45.9156" lon="6.49104">
        <ele>1712.4000244141</ele>
        <time>2014-02-12T08:21:31.000Z</time>
      </trkpt>
      <trkpt lat="45.9156" lon="6.49104">
        <ele>1712.4000244141</ele>
        <time>2014-02-12T08:21:32.000Z</time>
      </trkpt>
      <trkpt lat="45.9156" lon="6.49104">
        <ele>1712.4000244141</ele>
        <time>2014-02-12T08:21:33.000Z</time>
      </trkpt>
      <trkpt lat="45.9156" lon="6.49104">
        <ele>1712.4000244141</ele>
        <time>2014-02-12T08:21:34.000Z</time>
      </trkpt>
      <trkpt lat="45.9156" lon="6.49104">
        <ele>1712.4000244141</ele>
        <time>2014-02-12T08:21:35.000Z</time>
      </trkpt>
      <trkpt lat="45.9156" lon="6.49104">
        <ele>1712.4000244141</ele>
        <time>2014-02-12T08:21:36.000Z</time>
      </trkpt>
      <trkpt lat="45.9156" lon="6.49103">
        <ele>1712</ele>
        <time>2014-02-12T08:21:37.000Z</time>
      </trkpt>
      <trkpt lat="45.91559" lon="6.49102">
        <ele>1711.1999511719</ele>
        <time>2014-02-12T08:21:38.000Z</time>
      </trkpt>
      <trkpt lat="45.91558" lon="6.491">
        <ele>1710.1999511719</ele>
        <time>2014-02-12T08:21:39.000Z</time>
      </trkpt>
      <trkpt lat="45.91557" lon="6.49098">
        <ele>1709</ele>
        <time>2014-02-12T08:21:40.000Z</time>
      </trkpt>
      <trkpt lat="45.91557" lon="6.49097">
        <ele>1708.4000244141</ele>
        <time>2014-02-12T08:21:41.000Z</time>
      </trkpt>
      <trkpt lat="45.91557" lon="6.49097">
        <ele>1708.4000244141</ele>
        <time>2014-02-12T08:21:42.000Z</time>
      </trkpt>
      <trkpt lat="45.91557" lon="6.49097">
        <ele>1708.4000244141</ele>
        <time>2014-02-12T08:21:43.000Z</time>
      </trkpt>
      <trkpt lat="45.91557" lon="6.49097">
        <ele>1708.4000244141</ele>
        <time>2014-02-12T08:21:44.000Z</time>
      </trkpt>
      <trkpt lat="45.91556" lon="6.49098">
        <ele>1708.5999755859</ele>
        <time>2014-02-12T08:21:45.000Z</time>
      </trkpt>
      <trkpt lat="45.91556" lon="6.49098">
        <ele>1708.5999755859</ele>
        <time>2014-02-12T08:21:46.000Z</time>
      </trkpt>
      <trkpt lat="45.91556" lon="6.49098">
        <ele>1708.5999755859</ele>
        <time>2014-02-12T08:21:47.000Z</time>
      </trkpt>
      <trkpt lat="45.91556" lon="6.49098">
        <ele>1708.5999755859</ele>
        <time>2014-02-12T08:21:48.000Z</time>
      </trkpt>
      <trkpt lat="45.91556" lon="6.49098">
        <ele>1708.8000488281</ele>
        <time>2014-02-12T08:21:49.000Z</time>
      </trkpt>
      <trkpt lat="45.91556" lon="6.49098">
        <ele>1708.8000488281</ele>
        <time>2014-02-12T08:21:50.000Z</time>
      </trkpt>
      <trkpt lat="45.91555" lon="6.49097">
        <ele>1708.5999755859</ele>
        <time>2014-02-12T08:21:51.000Z</time>
      </trkpt>
      <trkpt lat="45.91555" lon="6.49097">
        <ele>1708.5999755859</ele>
        <time>2014-02-12T08:21:52.000Z</time>
      </trkpt>
      <trkpt lat="45.91554" lon="6.49097">
        <ele>1708.4000244141</ele>
        <time>2014-02-12T08:21:53.000Z</time>
      </trkpt>
      <trkpt lat="45.91554" lon="6.49097">
        <ele>1708.4000244141</ele>
        <time>2014-02-12T08:21:54.000Z</time>
      </trkpt>
      <trkpt lat="45.91554" lon="6.49096">
        <ele>1708.4000244141</ele>
        <time>2014-02-12T08:21:55.000Z</time>
      </trkpt>
      <trkpt lat="45.91553" lon="6.49097">
        <ele>1708.4000244141</ele>
        <time>2014-02-12T08:21:56.000Z</time>
      </trkpt>
      <trkpt lat="45.91553" lon="6.49097">
        <ele>1708.4000244141</ele>
        <time>2014-02-12T08:21:57.000Z</time>
      </trkpt>
      <trkpt lat="45.91553" lon="6.49097">
        <ele>1708.5999755859</ele>
        <time>2014-02-12T08:21:58.000Z</time>
      </trkpt>
      <trkpt lat="45.91553" lon="6.49097">
        <ele>1708.8000488281</ele>
        <time>2014-02-12T08:21:59.000Z</time>
      </trkpt>
      <trkpt lat="45.91553" lon="6.49097">
        <ele>1708.8000488281</ele>
        <time>2014-02-12T08:22:00.000Z</time>
      </trkpt>
      <trkpt lat="45.91553" lon="6.49098">
        <ele>1709.1999511719</ele>
        <time>2014-02-12T08:22:01.000Z</time>
      </trkpt>
      <trkpt lat="45.91553" lon="6.49098">
        <ele>1709.1999511719</ele>
        <time>2014-02-12T08:22:02.000Z</time>
      </trkpt>
      <trkpt lat="45.91553" lon="6.49098">
        <ele>1709.1999511719</ele>
        <time>2014-02-12T08:22:03.000Z</time>
      </trkpt>
      <trkpt lat="45.91553" lon="6.49098">
        <ele>1709.1999511719</ele>
        <time>2014-02-12T08:22:04.000Z</time>
      </trkpt>
      <trkpt lat="45.91553" lon="6.49098">
        <ele>1709.1999511719</ele>
        <time>2014-02-12T08:22:05.000Z</time>
      </trkpt>
      <trkpt lat="45.91553" lon="6.49098">
        <ele>1709.1999511719</ele>
        <time>2014-02-12T08:22:06.000Z</time>
      </trkpt>
      <trkpt lat="45.91553" lon="6.49098">
        <ele>1709.1999511719</ele>
        <time>2014-02-12T08:22:07.000Z</time>
      </trkpt>
      <trkpt lat="45.91553" lon="6.49098">
        <ele>1709.1999511719</ele>
        <time>2014-02-12T08:22:08.000Z</time>
      </trkpt>
      <trkpt lat="45.91553" lon="6.49098">
        <ele>1709.1999511719</ele>
        <time>2014-02-12T08:22:09.000Z</time>
      </trkpt>
      <trkpt lat="45.91553" lon="6.49098">
        <ele>1709.1999511719</ele>
        <time>2014-02-12T08:22:10.000Z</time>
      </trkpt>
      <trkpt lat="45.91553" lon="6.49098">
        <ele>1709.1999511719</ele>
        <time>2014-02-12T08:22:11.000Z</time>
      </trkpt>
      <trkpt lat="45.91553" lon="6.49098">
        <ele>1709.1999511719</ele>
        <time>2014-02-12T08:22:13.000Z</time>
      </trkpt>
      <trkpt lat="45.91553" lon="6.49098">
        <ele>1709.1999511719</ele>
        <time>2014-02-12T08:22:14.000Z</time>
      </trkpt>
      <trkpt lat="45.91553" lon="6.49098">
        <ele>1709.1999511719</ele>
        <time>2014-02-12T08:22:15.000Z</time>
      </trkpt>
      <trkpt lat="45.91553" lon="6.49098">
        <ele>1709.1999511719</ele>
        <time>2014-02-12T08:22:16.000Z</time>
      </trkpt>
      <trkpt lat="45.91553" lon="6.49098">
        <ele>1709.1999511719</ele>
        <time>2014-02-12T08:22:17.000Z</time>
      </trkpt>
      <trkpt lat="45.91553" lon="6.49098">
        <ele>1709.1999511719</ele>
        <time>2014-02-12T08:22:18.000Z</time>
      </trkpt>
      <trkpt lat="45.91552" lon="6.49099">
        <ele>1709.5999755859</ele>
        <time>2014-02-12T08:22:19.000Z</time>
      </trkpt>
      <trkpt lat="45.91552" lon="6.491">
        <ele>1710.1999511719</ele>
        <time>2014-02-12T08:22:20.000Z</time>
      </trkpt>
      <trkpt lat="45.91552" lon="6.49101">
        <ele>1710.8000488281</ele>
        <time>2014-02-12T08:22:21.000Z</time>
      </trkpt>
      <trkpt lat="45.91552" lon="6.49102">
        <ele>1711</ele>
        <time>2014-02-12T08:22:22.000Z</time>
      </trkpt>
      <trkpt lat="45.91552" lon="6.49102">
        <ele>1711</ele>
        <time>2014-02-12T08:22:23.000Z</time>
      </trkpt>
      <trkpt lat="45.91552" lon="6.49102">
        <ele>1711</ele>
        <time>2014-02-12T08:22:24.000Z</time>
      </trkpt>
      <trkpt lat="45.91552" lon="6.49102">
        <ele>1711</ele>
        <time>2014-02-12T08:22:25.000Z</time>
      </trkpt>
      <trkpt lat="45.91552" lon="6.49102">
        <ele>1711</ele>
        <time>2014-02-12T08:22:26.000Z</time>
      </trkpt>
      <trkpt lat="45.91552" lon="6.49102">
        <ele>1711</ele>
        <time>2014-02-12T08:22:27.000Z</time>
      </trkpt>
      <trkpt lat="45.91552" lon="6.49102">
        <ele>1711</ele>
        <time>2014-02-12T08:22:28.000Z</time>
      </trkpt>
      <trkpt lat="45.91552" lon="6.49102">
        <ele>1711</ele>
        <time>2014-02-12T08:22:29.000Z</time>
      </trkpt>
      <trkpt lat="45.91552" lon="6.49102">
        <ele>1711</ele>
        <time>2014-02-12T08:22:30.000Z</time>
      </trkpt>
      <trkpt lat="45.91552" lon="6.49102">
        <ele>1711</ele>
        <time>2014-02-12T08:22:31.000Z</time>
      </trkpt>
      <trkpt lat="45.91552" lon="6.49102">
        <ele>1711</ele>
        <time>2014-02-12T08:22:32.000Z</time>
      </trkpt>
      <trkpt lat="45.91552" lon="6.49102">
        <ele>1711</ele>
        <time>2014-02-12T08:22:33.000Z</time>
      </trkpt>
      <trkpt lat="45.91551" lon="6.49102">
        <ele>1711.1999511719</ele>
        <time>2014-02-12T08:22:34.000Z</time>
      </trkpt>
      <trkpt lat="45.91551" lon="6.49102">
        <ele>1711.1999511719</ele>
        <time>2014-02-12T08:22:35.000Z</time>
      </trkpt>
      <trkpt lat="45.91551" lon="6.49102">
        <ele>1711.1999511719</ele>
        <time>2014-02-12T08:22:36.000Z</time>
      </trkpt>
      <trkpt lat="45.91551" lon="6.49102">
        <ele>1711.1999511719</ele>
        <time>2014-02-12T08:22:38.000Z</time>
      </trkpt>
      <trkpt lat="45.91551" lon="6.49102">
        <ele>1711.1999511719</ele>
        <time>2014-02-12T08:22:39.000Z</time>
      </trkpt>
      <trkpt lat="45.91551" lon="6.49102">
        <ele>1711.1999511719</ele>
        <time>2014-02-12T08:22:40.000Z</time>
      </trkpt>
      <trkpt lat="45.91551" lon="6.49102">
        <ele>1711.1999511719</ele>
        <time>2014-02-12T08:22:41.000Z</time>
      </trkpt>
      <trkpt lat="45.91551" lon="6.49102">
        <ele>1711.1999511719</ele>
        <time>2014-02-12T08:22:42.000Z</time>
      </trkpt>
      <trkpt lat="45.91551" lon="6.49102">
        <ele>1711.1999511719</ele>
        <time>2014-02-12T08:22:43.000Z</time>
      </trkpt>
      <trkpt lat="45.91551" lon="6.49102">
        <ele>1711.1999511719</ele>
        <time>2014-02-12T08:22:44.000Z</time>
      </trkpt>
      <trkpt lat="45.91549" lon="6.49101">
        <ele>1711</ele>
        <time>2014-02-12T08:22:47.000Z</time>
      </trkpt>
      <trkpt lat="45.91549" lon="6.49101">
        <ele>1711</ele>
        <time>2014-02-12T08:22:48.000Z</time>
      </trkpt>
      <trkpt lat="45.91549" lon="6.49101">
        <ele>1710.8000488281</ele>
        <time>2014-02-12T08:22:49.000Z</time>
      </trkpt>
      <trkpt lat="45.91548" lon="6.491">
        <ele>1710.5999755859</ele>
        <time>2014-02-12T08:22:50.000Z</time>
      </trkpt>
      <trkpt lat="45.91547" lon="6.491">
        <ele>1710.4000244141</ele>
        <time>2014-02-12T08:22:52.000Z</time>
      </trkpt>
      <trkpt lat="45.91547" lon="6.491">
        <ele>1710.4000244141</ele>
        <time>2014-02-12T08:22:53.000Z</time>
      </trkpt>
      <trkpt lat="45.91547" lon="6.491">
        <ele>1710.4000244141</ele>
        <time>2014-02-12T08:22:54.000Z</time>
      </trkpt>
      <trkpt lat="45.91547" lon="6.491">
        <ele>1710.4000244141</ele>
        <time>2014-02-12T08:22:55.000Z</time>
      </trkpt>
      <trkpt lat="45.91547" lon="6.491">
        <ele>1710.5999755859</ele>
        <time>2014-02-12T08:22:56.000Z</time>
      </trkpt>
      <trkpt lat="45.91546" lon="6.491">
        <ele>1710.5999755859</ele>
        <time>2014-02-12T08:22:57.000Z</time>
      </trkpt>
      <trkpt lat="45.91545" lon="6.491">
        <ele>1710.5999755859</ele>
        <time>2014-02-12T08:22:58.000Z</time>
      </trkpt>
      <trkpt lat="45.91545" lon="6.491">
        <ele>1710.5999755859</ele>
        <time>2014-02-12T08:22:59.000Z</time>
      </trkpt>
      <trkpt lat="45.91545" lon="6.491">
        <ele>1711</ele>
        <time>2014-02-12T08:23:00.000Z</time>
      </trkpt>
      <trkpt lat="45.91545" lon="6.491">
        <ele>1711</ele>
        <time>2014-02-12T08:23:01.000Z</time>
      </trkpt>
      <trkpt lat="45.91545" lon="6.491">
        <ele>1711</ele>
        <time>2014-02-12T08:23:02.000Z</time>
      </trkpt>
      <trkpt lat="45.91545" lon="6.491">
        <ele>1711</ele>
        <time>2014-02-12T08:23:03.000Z</time>
      </trkpt>
      <trkpt lat="45.91545" lon="6.491">
        <ele>1711</ele>
        <time>2014-02-12T08:23:04.000Z</time>
      </trkpt>
      <trkpt lat="45.91545" lon="6.491">
        <ele>1711</ele>
        <time>2014-02-12T08:23:05.000Z</time>
      </trkpt>
      <trkpt lat="45.91545" lon="6.491">
        <ele>1711</ele>
        <time>2014-02-12T08:23:06.000Z</time>
      </trkpt>
      <trkpt lat="45.91544" lon="6.49101">
        <ele>1711</ele>
        <time>2014-02-12T08:23:07.000Z</time>
      </trkpt>
      <trkpt lat="45.91544" lon="6.49101">
        <ele>1711</ele>
        <time>2014-02-12T08:23:08.000Z</time>
      </trkpt>
      <trkpt lat="45.91544" lon="6.49101">
        <ele>1711</ele>
        <time>2014-02-12T08:23:09.000Z</time>
      </trkpt>
      <trkpt lat="45.91544" lon="6.49101">
        <ele>1711</ele>
        <time>2014-02-12T08:23:10.000Z</time>
      </trkpt>
      <trkpt lat="45.91543" lon="6.49101">
        <ele>1711.1999511719</ele>
        <time>2014-02-12T08:23:12.000Z</time>
      </trkpt>
      <trkpt lat="45.91543" lon="6.49101">
        <ele>1711.1999511719</ele>
        <time>2014-02-12T08:23:13.000Z</time>
      </trkpt>
      <trkpt lat="45.91543" lon="6.49101">
        <ele>1711.1999511719</ele>
        <time>2014-02-12T08:23:14.000Z</time>
      </trkpt>
      <trkpt lat="45.91543" lon="6.49101">
        <ele>1711.1999511719</ele>
        <time>2014-02-12T08:23:15.000Z</time>
      </trkpt>
      <trkpt lat="45.91543" lon="6.49101">
        <ele>1711.1999511719</ele>
        <time>2014-02-12T08:23:16.000Z</time>
      </trkpt>
      <trkpt lat="45.91542" lon="6.49101">
        <ele>1711.1999511719</ele>
        <time>2014-02-12T08:23:17.000Z</time>
      </trkpt>
      <trkpt lat="45.91541" lon="6.491">
        <ele>1711.1999511719</ele>
        <time>2014-02-12T08:23:18.000Z</time>
      </trkpt>
      <trkpt lat="45.91541" lon="6.491">
        <ele>1711.1999511719</ele>
        <time>2014-02-12T08:23:19.000Z</time>
      </trkpt>
      <trkpt lat="45.9154" lon="6.49101">
        <ele>1711.5999755859</ele>
        <time>2014-02-12T08:23:20.000Z</time>
      </trkpt>
      <trkpt lat="45.9154" lon="6.49101">
        <ele>1711.5999755859</ele>
        <time>2014-02-12T08:23:21.000Z</time>
      </trkpt>
      <trkpt lat="45.9154" lon="6.49101">
        <ele>1711.5999755859</ele>
        <time>2014-02-12T08:23:22.000Z</time>
      </trkpt>
      <trkpt lat="45.9154" lon="6.49101">
        <ele>1711.8000488281</ele>
        <time>2014-02-12T08:23:23.000Z</time>
      </trkpt>
      <trkpt lat="45.9154" lon="6.49101">
        <ele>1711.8000488281</ele>
        <time>2014-02-12T08:23:24.000Z</time>
      </trkpt>
      <trkpt lat="45.9154" lon="6.49101">
        <ele>1711.8000488281</ele>
        <time>2014-02-12T08:23:25.000Z</time>
      </trkpt>
      <trkpt lat="45.9154" lon="6.49101">
        <ele>1711.8000488281</ele>
        <time>2014-02-12T08:23:26.000Z</time>
      </trkpt>
      <trkpt lat="45.91539" lon="6.49102">
        <ele>1712</ele>
        <time>2014-02-12T08:23:27.000Z</time>
      </trkpt>
      <trkpt lat="45.91539" lon="6.49103">
        <ele>1712.4000244141</ele>
        <time>2014-02-12T08:23:28.000Z</time>
      </trkpt>
      <trkpt lat="45.91539" lon="6.49103">
        <ele>1712.4000244141</ele>
        <time>2014-02-12T08:23:29.000Z</time>
      </trkpt>
      <trkpt lat="45.91538" lon="6.49103">
        <ele>1712.5999755859</ele>
        <time>2014-02-12T08:23:31.000Z</time>
      </trkpt>
      <trkpt lat="45.91538" lon="6.49103">
        <ele>1712.5999755859</ele>
        <time>2014-02-12T08:23:32.000Z</time>
      </trkpt>
      <trkpt lat="45.91538" lon="6.49103">
        <ele>1712.8000488281</ele>
        <time>2014-02-12T08:23:33.000Z</time>
      </trkpt>
      <trkpt lat="45.91538" lon="6.49103">
        <ele>1712.8000488281</ele>
        <time>2014-02-12T08:23:34.000Z</time>
      </trkpt>
      <trkpt lat="45.91538" lon="6.49103">
        <ele>1712.8000488281</ele>
        <time>2014-02-12T08:23:35.000Z</time>
      </trkpt>
      <trkpt lat="45.91537" lon="6.49103">
        <ele>1712.8000488281</ele>
        <time>2014-02-12T08:23:36.000Z</time>
      </trkpt>
      <trkpt lat="45.91536" lon="6.49103">
        <ele>1712.8000488281</ele>
        <time>2014-02-12T08:23:37.000Z</time>
      </trkpt>
      <trkpt lat="45.91535" lon="6.49103">
        <ele>1712.8000488281</ele>
        <time>2014-02-12T08:23:38.000Z</time>
      </trkpt>
      <trkpt lat="45.91535" lon="6.49103">
        <ele>1713</ele>
        <time>2014-02-12T08:23:39.000Z</time>
      </trkpt>
      <trkpt lat="45.91534" lon="6.49104">
        <ele>1713.4000244141</ele>
        <time>2014-02-12T08:23:40.000Z</time>
      </trkpt>
      <trkpt lat="45.91533" lon="6.49104">
        <ele>1713.5999755859</ele>
        <time>2014-02-12T08:23:41.000Z</time>
      </trkpt>
      <trkpt lat="45.91532" lon="6.49104">
        <ele>1713.5999755859</ele>
        <time>2014-02-12T08:23:42.000Z</time>
      </trkpt>
      <trkpt lat="45.91531" lon="6.49104">
        <ele>1713.4000244141</ele>
        <time>2014-02-12T08:23:43.000Z</time>
      </trkpt>
      <trkpt lat="45.9153" lon="6.49104">
        <ele>1713.5999755859</ele>
        <time>2014-02-12T08:23:44.000Z</time>
      </trkpt>
      <trkpt lat="45.91529" lon="6.49103">
        <ele>1713.5999755859</ele>
        <time>2014-02-12T08:23:45.000Z</time>
      </trkpt>
      <trkpt lat="45.91528" lon="6.49103">
        <ele>1713.5999755859</ele>
        <time>2014-02-12T08:23:46.000Z</time>
      </trkpt>
      <trkpt lat="45.91527" lon="6.49104">
        <ele>1713.8000488281</ele>
        <time>2014-02-12T08:23:47.000Z</time>
      </trkpt>
      <trkpt lat="45.91527" lon="6.49104">
        <ele>1714.1999511719</ele>
        <time>2014-02-12T08:23:48.000Z</time>
      </trkpt>
      <trkpt lat="45.91526" lon="6.49104">
        <ele>1714.1999511719</ele>
        <time>2014-02-12T08:23:49.000Z</time>
      </trkpt>
      <trkpt lat="45.91525" lon="6.49104">
        <ele>1714.4000244141</ele>
        <time>2014-02-12T08:23:50.000Z</time>
      </trkpt>
      <trkpt lat="45.91524" lon="6.49105">
        <ele>1714.5999755859</ele>
        <time>2014-02-12T08:23:51.000Z</time>
      </trkpt>
      <trkpt lat="45.91523" lon="6.49105">
        <ele>1714.8000488281</ele>
        <time>2014-02-12T08:23:52.000Z</time>
      </trkpt>
      <trkpt lat="45.91522" lon="6.49105">
        <ele>1715</ele>
        <time>2014-02-12T08:23:53.000Z</time>
      </trkpt>
      <trkpt lat="45.91521" lon="6.49106">
        <ele>1715.1999511719</ele>
        <time>2014-02-12T08:23:54.000Z</time>
      </trkpt>
      <trkpt lat="45.9152" lon="6.49105">
        <ele>1715.1999511719</ele>
        <time>2014-02-12T08:23:55.000Z</time>
      </trkpt>
      <trkpt lat="45.91519" lon="6.49105">
        <ele>1715.1999511719</ele>
        <time>2014-02-12T08:23:56.000Z</time>
      </trkpt>
      <trkpt lat="45.91518" lon="6.49106">
        <ele>1715.4000244141</ele>
        <time>2014-02-12T08:23:57.000Z</time>
      </trkpt>
      <trkpt lat="45.91517" lon="6.49105">
        <ele>1715.4000244141</ele>
        <time>2014-02-12T08:23:58.000Z</time>
      </trkpt>
      <trkpt lat="45.91517" lon="6.49105">
        <ele>1715.4000244141</ele>
        <time>2014-02-12T08:23:59.000Z</time>
      </trkpt>
      <trkpt lat="45.91516" lon="6.49105">
        <ele>1715.4000244141</ele>
        <time>2014-02-12T08:24:00.000Z</time>
      </trkpt>
      <trkpt lat="45.91515" lon="6.49105">
        <ele>1715.4000244141</ele>
        <time>2014-02-12T08:24:01.000Z</time>
      </trkpt>
      <trkpt lat="45.91514" lon="6.49105">
        <ele>1715.4000244141</ele>
        <time>2014-02-12T08:24:02.000Z</time>
      </trkpt>
      <trkpt lat="45.91513" lon="6.49105">
        <ele>1715.5999755859</ele>
        <time>2014-02-12T08:24:03.000Z</time>
      </trkpt>
      <trkpt lat="45.91512" lon="6.49105">
        <ele>1715.5999755859</ele>
        <time>2014-02-12T08:24:04.000Z</time>
      </trkpt>
      <trkpt lat="45.91511" lon="6.49105">
        <ele>1715.8000488281</ele>
        <time>2014-02-12T08:24:05.000Z</time>
      </trkpt>
      <trkpt lat="45.91511" lon="6.49105">
        <ele>1716</ele>
        <time>2014-02-12T08:24:06.000Z</time>
      </trkpt>
      <trkpt lat="45.9151" lon="6.49106">
        <ele>1716.4000244141</ele>
        <time>2014-02-12T08:24:07.000Z</time>
      </trkpt>
      <trkpt lat="45.9151" lon="6.49106">
        <ele>1716.8000488281</ele>
        <time>2014-02-12T08:24:08.000Z</time>
      </trkpt>
      <trkpt lat="45.91509" lon="6.49107">
        <ele>1717.8000488281</ele>
        <time>2014-02-12T08:24:09.000Z</time>
      </trkpt>
      <trkpt lat="45.91509" lon="6.49108">
        <ele>1717.8000488281</ele>
        <time>2014-02-12T08:24:10.000Z</time>
      </trkpt>
      <trkpt lat="45.91508" lon="6.49108">
        <ele>1718</ele>
        <time>2014-02-12T08:24:11.000Z</time>
      </trkpt>
      <trkpt lat="45.91507" lon="6.49108">
        <ele>1718.5999755859</ele>
        <time>2014-02-12T08:24:12.000Z</time>
      </trkpt>
      <trkpt lat="45.91506" lon="6.49108">
        <ele>1718.5999755859</ele>
        <time>2014-02-12T08:24:13.000Z</time>
      </trkpt>
      <trkpt lat="45.91506" lon="6.49109">
        <ele>1719.1999511719</ele>
        <time>2014-02-12T08:24:14.000Z</time>
      </trkpt>
      <trkpt lat="45.91505" lon="6.49109">
        <ele>1719.5999755859</ele>
        <time>2014-02-12T08:24:15.000Z</time>
      </trkpt>
      <trkpt lat="45.91504" lon="6.4911">
        <ele>1720.1999511719</ele>
        <time>2014-02-12T08:24:16.000Z</time>
      </trkpt>
      <trkpt lat="45.91504" lon="6.4911">
        <ele>1720.4000244141</ele>
        <time>2014-02-12T08:24:17.000Z</time>
      </trkpt>
      <trkpt lat="45.91503" lon="6.4911">
        <ele>1720.8000488281</ele>
        <time>2014-02-12T08:24:18.000Z</time>
      </trkpt>
      <trkpt lat="45.91502" lon="6.4911">
        <ele>1720.5999755859</ele>
        <time>2014-02-12T08:24:19.000Z</time>
      </trkpt>
      <trkpt lat="45.91501" lon="6.49109">
        <ele>1720.1999511719</ele>
        <time>2014-02-12T08:24:20.000Z</time>
      </trkpt>
      <trkpt lat="45.91501" lon="6.49109">
        <ele>1720.1999511719</ele>
        <time>2014-02-12T08:24:21.000Z</time>
      </trkpt>
      <trkpt lat="45.91501" lon="6.49109">
        <ele>1720.1999511719</ele>
        <time>2014-02-12T08:24:22.000Z</time>
      </trkpt>
      <trkpt lat="45.91501" lon="6.49109">
        <ele>1720.1999511719</ele>
        <time>2014-02-12T08:24:23.000Z</time>
      </trkpt>
      <trkpt lat="45.91501" lon="6.49109">
        <ele>1720.1999511719</ele>
        <time>2014-02-12T08:24:24.000Z</time>
      </trkpt>
      <trkpt lat="45.91501" lon="6.49109">
        <ele>1720.1999511719</ele>
        <time>2014-02-12T08:24:25.000Z</time>
      </trkpt>
      <trkpt lat="45.91501" lon="6.49109">
        <ele>1720.1999511719</ele>
        <time>2014-02-12T08:24:26.000Z</time>
      </trkpt>
      <trkpt lat="45.91501" lon="6.49109">
        <ele>1720.1999511719</ele>
        <time>2014-02-12T08:24:27.000Z</time>
      </trkpt>
      <trkpt lat="45.91501" lon="6.49109">
        <ele>1720.1999511719</ele>
        <time>2014-02-12T08:24:28.000Z</time>
      </trkpt>
      <trkpt lat="45.91501" lon="6.49109">
        <ele>1720.4000244141</ele>
        <time>2014-02-12T08:24:29.000Z</time>
      </trkpt>
      <trkpt lat="45.915" lon="6.49109">
        <ele>1720.5999755859</ele>
        <time>2014-02-12T08:24:30.000Z</time>
      </trkpt>
      <trkpt lat="45.915" lon="6.4911">
        <ele>1721</ele>
        <time>2014-02-12T08:24:31.000Z</time>
      </trkpt>
      <trkpt lat="45.915" lon="6.4911">
        <ele>1721.5999755859</ele>
        <time>2014-02-12T08:24:32.000Z</time>
      </trkpt>
      <trkpt lat="45.91499" lon="6.49111">
        <ele>1722</ele>
        <time>2014-02-12T08:24:33.000Z</time>
      </trkpt>
      <trkpt lat="45.91499" lon="6.49111">
        <ele>1722.4000244141</ele>
        <time>2014-02-12T08:24:34.000Z</time>
      </trkpt>
      <trkpt lat="45.91499" lon="6.49112">
        <ele>1722.8000488281</ele>
        <time>2014-02-12T08:24:35.000Z</time>
      </trkpt>
      <trkpt lat="45.91498" lon="6.49113">
        <ele>1723.4000244141</ele>
        <time>2014-02-12T08:24:36.000Z</time>
      </trkpt>
      <trkpt lat="45.91498" lon="6.49114">
        <ele>1724.1999511719</ele>
        <time>2014-02-12T08:24:37.000Z</time>
      </trkpt>
      <trkpt lat="45.91498" lon="6.49114">
        <ele>1724.1999511719</ele>
        <time>2014-02-12T08:24:38.000Z</time>
      </trkpt>
      <trkpt lat="45.91497" lon="6.49114">
        <ele>1724.1999511719</ele>
        <time>2014-02-12T08:24:39.000Z</time>
      </trkpt>
      <trkpt lat="45.91497" lon="6.49114">
        <ele>1724.5999755859</ele>
        <time>2014-02-12T08:24:40.000Z</time>
      </trkpt>
      <trkpt lat="45.91497" lon="6.49115">
        <ele>1725.1999511719</ele>
        <time>2014-02-12T08:24:41.000Z</time>
      </trkpt>
      <trkpt lat="45.91497" lon="6.49115">
        <ele>1725.4000244141</ele>
        <time>2014-02-12T08:24:42.000Z</time>
      </trkpt>
      <trkpt lat="45.91496" lon="6.49116">
        <ele>1725.5999755859</ele>
        <time>2014-02-12T08:24:43.000Z</time>
      </trkpt>
      <trkpt lat="45.91496" lon="6.49116">
        <ele>1725.8000488281</ele>
        <time>2014-02-12T08:24:44.000Z</time>
      </trkpt>
      <trkpt lat="45.91496" lon="6.49116">
        <ele>1725.8000488281</ele>
        <time>2014-02-12T08:24:45.000Z</time>
      </trkpt>
      <trkpt lat="45.91495" lon="6.49116">
        <ele>1726</ele>
        <time>2014-02-12T08:24:46.000Z</time>
      </trkpt>
      <trkpt lat="45.91495" lon="6.49116">
        <ele>1726.1999511719</ele>
        <time>2014-02-12T08:24:47.000Z</time>
      </trkpt>
      <trkpt lat="45.91495" lon="6.49116">
        <ele>1726.1999511719</ele>
        <time>2014-02-12T08:24:48.000Z</time>
      </trkpt>
      <trkpt lat="45.91495" lon="6.49117">
        <ele>1726.8000488281</ele>
        <time>2014-02-12T08:24:49.000Z</time>
      </trkpt>
      <trkpt lat="45.91495" lon="6.49117">
        <ele>1726.8000488281</ele>
        <time>2014-02-12T08:24:50.000Z</time>
      </trkpt>
      <trkpt lat="45.91495" lon="6.49117">
        <ele>1726.8000488281</ele>
        <time>2014-02-12T08:24:51.000Z</time>
      </trkpt>
      <trkpt lat="45.91494" lon="6.49118">
        <ele>1727.4000244141</ele>
        <time>2014-02-12T08:24:52.000Z</time>
      </trkpt>
      <trkpt lat="45.91494" lon="6.49118">
        <ele>1727.4000244141</ele>
        <time>2014-02-12T08:24:53.000Z</time>
      </trkpt>
      <trkpt lat="45.91493" lon="6.49118">
        <ele>1727.5999755859</ele>
        <time>2014-02-12T08:24:54.000Z</time>
      </trkpt>
      <trkpt lat="45.91492" lon="6.49118">
        <ele>1727.5999755859</ele>
        <time>2014-02-12T08:24:55.000Z</time>
      </trkpt>
      <trkpt lat="45.91492" lon="6.49118">
        <ele>1728</ele>
        <time>2014-02-12T08:24:56.000Z</time>
      </trkpt>
      <trkpt lat="45.91491" lon="6.49118">
        <ele>1728.4000244141</ele>
        <time>2014-02-12T08:24:57.000Z</time>
      </trkpt>
      <trkpt lat="45.91491" lon="6.49118">
        <ele>1728.4000244141</ele>
        <time>2014-02-12T08:24:58.000Z</time>
      </trkpt>
      <trkpt lat="45.91491" lon="6.49118">
        <ele>1728.4000244141</ele>
        <time>2014-02-12T08:24:59.000Z</time>
      </trkpt>
      <trkpt lat="45.91491" lon="6.49119">
        <ele>1728.8000488281</ele>
        <time>2014-02-12T08:25:00.000Z</time>
      </trkpt>
      <trkpt lat="45.91491" lon="6.49119">
        <ele>1728.8000488281</ele>
        <time>2014-02-12T08:25:01.000Z</time>
      </trkpt>
      <trkpt lat="45.91491" lon="6.4912">
        <ele>1729.1999511719</ele>
        <time>2014-02-12T08:25:02.000Z</time>
      </trkpt>
      <trkpt lat="45.9149" lon="6.4912">
        <ele>1729.8000488281</ele>
        <time>2014-02-12T08:25:03.000Z</time>
      </trkpt>
      <trkpt lat="45.91489" lon="6.49121">
        <ele>1730.1999511719</ele>
        <time>2014-02-12T08:25:04.000Z</time>
      </trkpt>
      <trkpt lat="45.91488" lon="6.49121">
        <ele>1730.8000488281</ele>
        <time>2014-02-12T08:25:05.000Z</time>
      </trkpt>
      <trkpt lat="45.91487" lon="6.49121">
        <ele>1731.1999511719</ele>
        <time>2014-02-12T08:25:06.000Z</time>
      </trkpt>
      <trkpt lat="45.91486" lon="6.49122">
        <ele>1731.5999755859</ele>
        <time>2014-02-12T08:25:07.000Z</time>
      </trkpt>
      <trkpt lat="45.91485" lon="6.49122">
        <ele>1732</ele>
        <time>2014-02-12T08:25:08.000Z</time>
      </trkpt>
      <trkpt lat="45.91484" lon="6.49123">
        <ele>1732.4000244141</ele>
        <time>2014-02-12T08:25:09.000Z</time>
      </trkpt>
      <trkpt lat="45.91484" lon="6.49123">
        <ele>1733</ele>
        <time>2014-02-12T08:25:10.000Z</time>
      </trkpt>
      <trkpt lat="45.91483" lon="6.49124">
        <ele>1733.8000488281</ele>
        <time>2014-02-12T08:25:11.000Z</time>
      </trkpt>
      <trkpt lat="45.91482" lon="6.49125">
        <ele>1734.5999755859</ele>
        <time>2014-02-12T08:25:12.000Z</time>
      </trkpt>
      <trkpt lat="45.91481" lon="6.49126">
        <ele>1735.1999511719</ele>
        <time>2014-02-12T08:25:13.000Z</time>
      </trkpt>
      <trkpt lat="45.9148" lon="6.49126">
        <ele>1735.5999755859</ele>
        <time>2014-02-12T08:25:14.000Z</time>
      </trkpt>
      <trkpt lat="45.91479" lon="6.49127">
        <ele>1736</ele>
        <time>2014-02-12T08:25:15.000Z</time>
      </trkpt>
      <trkpt lat="45.91479" lon="6.49127">
        <ele>1736.4000244141</ele>
        <time>2014-02-12T08:25:16.000Z</time>
      </trkpt>
      <trkpt lat="45.91478" lon="6.49126">
        <ele>1736.1999511719</ele>
        <time>2014-02-12T08:25:17.000Z</time>
      </trkpt>
      <trkpt lat="45.91478" lon="6.49126">
        <ele>1736</ele>
        <time>2014-02-12T08:25:18.000Z</time>
      </trkpt>
      <trkpt lat="45.91477" lon="6.49126">
        <ele>1736.1999511719</ele>
        <time>2014-02-12T08:25:19.000Z</time>
      </trkpt>
      <trkpt lat="45.91476" lon="6.49126">
        <ele>1736.1999511719</ele>
        <time>2014-02-12T08:25:20.000Z</time>
      </trkpt>
      <trkpt lat="45.91475" lon="6.49126">
        <ele>1736.5999755859</ele>
        <time>2014-02-12T08:25:21.000Z</time>
      </trkpt>
      <trkpt lat="45.91474" lon="6.49126">
        <ele>1737</ele>
        <time>2014-02-12T08:25:22.000Z</time>
      </trkpt>
      <trkpt lat="45.91473" lon="6.49127">
        <ele>1737.4000244141</ele>
        <time>2014-02-12T08:25:23.000Z</time>
      </trkpt>
      <trkpt lat="45.91472" lon="6.49128">
        <ele>1738</ele>
        <time>2014-02-12T08:25:24.000Z</time>
      </trkpt>
      <trkpt lat="45.91471" lon="6.49128">
        <ele>1738.4000244141</ele>
        <time>2014-02-12T08:25:25.000Z</time>
      </trkpt>
      <trkpt lat="45.91471" lon="6.49129">
        <ele>1738.5999755859</ele>
        <time>2014-02-12T08:25:26.000Z</time>
      </trkpt>
      <trkpt lat="45.9147" lon="6.49128">
        <ele>1738.5999755859</ele>
        <time>2014-02-12T08:25:27.000Z</time>
      </trkpt>
      <trkpt lat="45.91469" lon="6.49129">
        <ele>1738.8000488281</ele>
        <time>2014-02-12T08:25:28.000Z</time>
      </trkpt>
      <trkpt lat="45.91468" lon="6.49128">
        <ele>1738.5999755859</ele>
        <time>2014-02-12T08:25:29.000Z</time>
      </trkpt>
      <trkpt lat="45.91467" lon="6.49128">
        <ele>1738.8000488281</ele>
        <time>2014-02-12T08:25:30.000Z</time>
      </trkpt>
      <trkpt lat="45.91466" lon="6.49128">
        <ele>1738.5999755859</ele>
        <time>2014-02-12T08:25:31.000Z</time>
      </trkpt>
      <trkpt lat="45.91465" lon="6.49128">
        <ele>1739</ele>
        <time>2014-02-12T08:25:32.000Z</time>
      </trkpt>
      <trkpt lat="45.91464" lon="6.49129">
        <ele>1739.1999511719</ele>
        <time>2014-02-12T08:25:33.000Z</time>
      </trkpt>
      <trkpt lat="45.91463" lon="6.49129">
        <ele>1739.5999755859</ele>
        <time>2014-02-12T08:25:34.000Z</time>
      </trkpt>
      <trkpt lat="45.91462" lon="6.4913">
        <ele>1740</ele>
        <time>2014-02-12T08:25:35.000Z</time>
      </trkpt>
      <trkpt lat="45.91461" lon="6.4913">
        <ele>1740.5999755859</ele>
        <time>2014-02-12T08:25:36.000Z</time>
      </trkpt>
      <trkpt lat="45.9146" lon="6.4913">
        <ele>1740.5999755859</ele>
        <time>2014-02-12T08:25:37.000Z</time>
      </trkpt>
      <trkpt lat="45.91459" lon="6.4913">
        <ele>1740.5999755859</ele>
        <time>2014-02-12T08:25:38.000Z</time>
      </trkpt>
      <trkpt lat="45.91458" lon="6.4913">
        <ele>1740.5999755859</ele>
        <time>2014-02-12T08:25:39.000Z</time>
      </trkpt>
      <trkpt lat="45.91457" lon="6.4913">
        <ele>1741</ele>
        <time>2014-02-12T08:25:40.000Z</time>
      </trkpt>
      <trkpt lat="45.91456" lon="6.49131">
        <ele>1741.1999511719</ele>
        <time>2014-02-12T08:25:41.000Z</time>
      </trkpt>
      <trkpt lat="45.91456" lon="6.49131">
        <ele>1741.5999755859</ele>
        <time>2014-02-12T08:25:42.000Z</time>
      </trkpt>
      <trkpt lat="45.91455" lon="6.49131">
        <ele>1741.8000488281</ele>
        <time>2014-02-12T08:25:43.000Z</time>
      </trkpt>
      <trkpt lat="45.91454" lon="6.49132">
        <ele>1741.8000488281</ele>
        <time>2014-02-12T08:25:44.000Z</time>
      </trkpt>
      <trkpt lat="45.91453" lon="6.49131">
        <ele>1741.4000244141</ele>
        <time>2014-02-12T08:25:45.000Z</time>
      </trkpt>
      <trkpt lat="45.91452" lon="6.49131">
        <ele>1741.4000244141</ele>
        <time>2014-02-12T08:25:46.000Z</time>
      </trkpt>
      <trkpt lat="45.91451" lon="6.49132">
        <ele>1741.4000244141</ele>
        <time>2014-02-12T08:25:47.000Z</time>
      </trkpt>
      <trkpt lat="45.91451" lon="6.49132">
        <ele>1741.4000244141</ele>
        <time>2014-02-12T08:25:48.000Z</time>
      </trkpt>
      <trkpt lat="45.9145" lon="6.49131">
        <ele>1741.1999511719</ele>
        <time>2014-02-12T08:25:49.000Z</time>
      </trkpt>
      <trkpt lat="45.91449" lon="6.49131">
        <ele>1740.8000488281</ele>
        <time>2014-02-12T08:25:50.000Z</time>
      </trkpt>
      <trkpt lat="45.91448" lon="6.49131">
        <ele>1740.5999755859</ele>
        <time>2014-02-12T08:25:51.000Z</time>
      </trkpt>
      <trkpt lat="45.91447" lon="6.49131">
        <ele>1740.4000244141</ele>
        <time>2014-02-12T08:25:52.000Z</time>
      </trkpt>
      <trkpt lat="45.91447" lon="6.49131">
        <ele>1740.8000488281</ele>
        <time>2014-02-12T08:25:53.000Z</time>
      </trkpt>
      <trkpt lat="45.91446" lon="6.49133">
        <ele>1741.1999511719</ele>
        <time>2014-02-12T08:25:54.000Z</time>
      </trkpt>
      <trkpt lat="45.91446" lon="6.49133">
        <ele>1741.4000244141</ele>
        <time>2014-02-12T08:25:55.000Z</time>
      </trkpt>
      <trkpt lat="45.91445" lon="6.49133">
        <ele>1741.4000244141</ele>
        <time>2014-02-12T08:25:56.000Z</time>
      </trkpt>
      <trkpt lat="45.91445" lon="6.49134">
        <ele>1741.5999755859</ele>
        <time>2014-02-12T08:25:57.000Z</time>
      </trkpt>
      <trkpt lat="45.91444" lon="6.49135">
        <ele>1742.1999511719</ele>
        <time>2014-02-12T08:25:58.000Z</time>
      </trkpt>
      <trkpt lat="45.91444" lon="6.49136">
        <ele>1742.4000244141</ele>
        <time>2014-02-12T08:25:59.000Z</time>
      </trkpt>
      <trkpt lat="45.91443" lon="6.49137">
        <ele>1743</ele>
        <time>2014-02-12T08:26:00.000Z</time>
      </trkpt>
      <trkpt lat="45.91443" lon="6.49138">
        <ele>1743.1999511719</ele>
        <time>2014-02-12T08:26:01.000Z</time>
      </trkpt>
      <trkpt lat="45.91443" lon="6.49138">
        <ele>1743.1999511719</ele>
        <time>2014-02-12T08:26:02.000Z</time>
      </trkpt>
      <trkpt lat="45.91443" lon="6.49138">
        <ele>1743.1999511719</ele>
        <time>2014-02-12T08:26:03.000Z</time>
      </trkpt>
      <trkpt lat="45.91442" lon="6.49139">
        <ele>1743.4000244141</ele>
        <time>2014-02-12T08:26:04.000Z</time>
      </trkpt>
      <trkpt lat="45.91442" lon="6.4914">
        <ele>1743.8000488281</ele>
        <time>2014-02-12T08:26:05.000Z</time>
      </trkpt>
      <trkpt lat="45.91441" lon="6.4914">
        <ele>1744</ele>
        <time>2014-02-12T08:26:06.000Z</time>
      </trkpt>
      <trkpt lat="45.91441" lon="6.4914">
        <ele>1744</ele>
        <time>2014-02-12T08:26:07.000Z</time>
      </trkpt>
      <trkpt lat="45.91441" lon="6.4914">
        <ele>1743.8000488281</ele>
        <time>2014-02-12T08:26:08.000Z</time>
      </trkpt>
      <trkpt lat="45.91441" lon="6.4914">
        <ele>1743.8000488281</ele>
        <time>2014-02-12T08:26:09.000Z</time>
      </trkpt>
      <trkpt lat="45.9144" lon="6.4914">
        <ele>1743.8000488281</ele>
        <time>2014-02-12T08:26:10.000Z</time>
      </trkpt>
      <trkpt lat="45.9144" lon="6.4914">
        <ele>1743.8000488281</ele>
        <time>2014-02-12T08:26:11.000Z</time>
      </trkpt>
      <trkpt lat="45.9144" lon="6.49141">
        <ele>1744</ele>
        <time>2014-02-12T08:26:12.000Z</time>
      </trkpt>
      <trkpt lat="45.9144" lon="6.49141">
        <ele>1744</ele>
        <time>2014-02-12T08:26:13.000Z</time>
      </trkpt>
      <trkpt lat="45.91439" lon="6.49141">
        <ele>1744.1999511719</ele>
        <time>2014-02-12T08:26:14.000Z</time>
      </trkpt>
      <trkpt lat="45.91438" lon="6.49142">
        <ele>1744.1999511719</ele>
        <time>2014-02-12T08:26:15.000Z</time>
      </trkpt>
      <trkpt lat="45.91438" lon="6.49142">
        <ele>1744.4000244141</ele>
        <time>2014-02-12T08:26:16.000Z</time>
      </trkpt>
      <trkpt lat="45.91438" lon="6.49142">
        <ele>1744.4000244141</ele>
        <time>2014-02-12T08:26:17.000Z</time>
      </trkpt>
      <trkpt lat="45.91438" lon="6.49142">
        <ele>1744.4000244141</ele>
        <time>2014-02-12T08:26:18.000Z</time>
      </trkpt>
      <trkpt lat="45.91437" lon="6.49142">
        <ele>1744.4000244141</ele>
        <time>2014-02-12T08:26:19.000Z</time>
      </trkpt>
      <trkpt lat="45.91437" lon="6.49142">
        <ele>1744.4000244141</ele>
        <time>2014-02-12T08:26:20.000Z</time>
      </trkpt>
      <trkpt lat="45.91437" lon="6.49142">
        <ele>1744.4000244141</ele>
        <time>2014-02-12T08:26:21.000Z</time>
      </trkpt>
      <trkpt lat="45.91436" lon="6.49143">
        <ele>1744.4000244141</ele>
        <time>2014-02-12T08:26:22.000Z</time>
      </trkpt>
      <trkpt lat="45.91435" lon="6.49143">
        <ele>1744.4000244141</ele>
        <time>2014-02-12T08:26:23.000Z</time>
      </trkpt>
      <trkpt lat="45.91434" lon="6.49143">
        <ele>1744.1999511719</ele>
        <time>2014-02-12T08:26:24.000Z</time>
      </trkpt>
      <trkpt lat="45.91434" lon="6.49143">
        <ele>1744.1999511719</ele>
        <time>2014-02-12T08:26:25.000Z</time>
      </trkpt>
      <trkpt lat="45.91433" lon="6.49143">
        <ele>1744</ele>
        <time>2014-02-12T08:26:26.000Z</time>
      </trkpt>
      <trkpt lat="45.91433" lon="6.49143">
        <ele>1744</ele>
        <time>2014-02-12T08:26:27.000Z</time>
      </trkpt>
      <trkpt lat="45.91433" lon="6.49143">
        <ele>1744</ele>
        <time>2014-02-12T08:26:28.000Z</time>
      </trkpt>
      <trkpt lat="45.91433" lon="6.49143">
        <ele>1744</ele>
        <time>2014-02-12T08:26:29.000Z</time>
      </trkpt>
      <trkpt lat="45.91432" lon="6.49143">
        <ele>1744.1999511719</ele>
        <time>2014-02-12T08:26:30.000Z</time>
      </trkpt>
      <trkpt lat="45.91432" lon="6.49143">
        <ele>1744.1999511719</ele>
        <time>2014-02-12T08:26:31.000Z</time>
      </trkpt>
      <trkpt lat="45.91431" lon="6.49144">
        <ele>1744.4000244141</ele>
        <time>2014-02-12T08:26:32.000Z</time>
      </trkpt>
      <trkpt lat="45.91431" lon="6.49144">
        <ele>1744.4000244141</ele>
        <time>2014-02-12T08:26:33.000Z</time>
      </trkpt>
      <trkpt lat="45.91431" lon="6.49145">
        <ele>1744.5999755859</ele>
        <time>2014-02-12T08:26:34.000Z</time>
      </trkpt>
      <trkpt lat="45.91431" lon="6.49145">
        <ele>1744.5999755859</ele>
        <time>2014-02-12T08:26:35.000Z</time>
      </trkpt>
      <trkpt lat="45.9143" lon="6.49146">
        <ele>1745</ele>
        <time>2014-02-12T08:26:36.000Z</time>
      </trkpt>
      <trkpt lat="45.9143" lon="6.49146">
        <ele>1745</ele>
        <time>2014-02-12T08:26:37.000Z</time>
      </trkpt>
      <trkpt lat="45.9143" lon="6.49146">
        <ele>1745.1999511719</ele>
        <time>2014-02-12T08:26:38.000Z</time>
      </trkpt>
      <trkpt lat="45.91429" lon="6.49146">
        <ele>1745.1999511719</ele>
        <time>2014-02-12T08:26:39.000Z</time>
      </trkpt>
      <trkpt lat="45.91429" lon="6.49147">
        <ele>1745.4000244141</ele>
        <time>2014-02-12T08:26:40.000Z</time>
      </trkpt>
      <trkpt lat="45.91428" lon="6.49147">
        <ele>1745.1999511719</ele>
        <time>2014-02-12T08:26:41.000Z</time>
      </trkpt>
      <trkpt lat="45.91427" lon="6.49147">
        <ele>1745.1999511719</ele>
        <time>2014-02-12T08:26:42.000Z</time>
      </trkpt>
      <trkpt lat="45.91427" lon="6.49147">
        <ele>1745.1999511719</ele>
        <time>2014-02-12T08:26:43.000Z</time>
      </trkpt>
      <trkpt lat="45.91426" lon="6.49148">
        <ele>1745.4000244141</ele>
        <time>2014-02-12T08:26:44.000Z</time>
      </trkpt>
      <trkpt lat="45.91426" lon="6.49148">
        <ele>1745.4000244141</ele>
        <time>2014-02-12T08:26:45.000Z</time>
      </trkpt>
      <trkpt lat="45.91425" lon="6.49148">
        <ele>1745.4000244141</ele>
        <time>2014-02-12T08:26:46.000Z</time>
      </trkpt>
      <trkpt lat="45.91424" lon="6.49148">
        <ele>1745.4000244141</ele>
        <time>2014-02-12T08:26:47.000Z</time>
      </trkpt>
      <trkpt lat="45.91423" lon="6.49148">
        <ele>1745.1999511719</ele>
        <time>2014-02-12T08:26:48.000Z</time>
      </trkpt>
      <trkpt lat="45.91422" lon="6.49149">
        <ele>1745.1999511719</ele>
        <time>2014-02-12T08:26:49.000Z</time>
      </trkpt>
      <trkpt lat="45.91421" lon="6.49149">
        <ele>1745.1999511719</ele>
        <time>2014-02-12T08:26:50.000Z</time>
      </trkpt>
      <trkpt lat="45.9142" lon="6.49149">
        <ele>1745.1999511719</ele>
        <time>2014-02-12T08:26:51.000Z</time>
      </trkpt>
      <trkpt lat="45.91419" lon="6.49149">
        <ele>1745</ele>
        <time>2014-02-12T08:26:52.000Z</time>
      </trkpt>
      <trkpt lat="45.91418" lon="6.49149">
        <ele>1744.8000488281</ele>
        <time>2014-02-12T08:26:53.000Z</time>
      </trkpt>
      <trkpt lat="45.91417" lon="6.49149">
        <ele>1744.8000488281</ele>
        <time>2014-02-12T08:26:54.000Z</time>
      </trkpt>
      <trkpt lat="45.91416" lon="6.49149">
        <ele>1744.8000488281</ele>
        <time>2014-02-12T08:26:55.000Z</time>
      </trkpt>
      <trkpt lat="45.91416" lon="6.49149">
        <ele>1744.8000488281</ele>
        <time>2014-02-12T08:26:56.000Z</time>
      </trkpt>
      <trkpt lat="45.91416" lon="6.4915">
        <ele>1745</ele>
        <time>2014-02-12T08:26:57.000Z</time>
      </trkpt>
      <trkpt lat="45.91416" lon="6.4915">
        <ele>1745</ele>
        <time>2014-02-12T08:26:58.000Z</time>
      </trkpt>
      <trkpt lat="45.91415" lon="6.4915">
        <ele>1745.1999511719</ele>
        <time>2014-02-12T08:26:59.000Z</time>
      </trkpt>
      <trkpt lat="45.91415" lon="6.49151">
        <ele>1745.4000244141</ele>
        <time>2014-02-12T08:27:00.000Z</time>
      </trkpt>
      <trkpt lat="45.91415" lon="6.49151">
        <ele>1745.4000244141</ele>
        <time>2014-02-12T08:27:01.000Z</time>
      </trkpt>
      <trkpt lat="45.91415" lon="6.49151">
        <ele>1745.4000244141</ele>
        <time>2014-02-12T08:27:02.000Z</time>
      </trkpt>
      <trkpt lat="45.91415" lon="6.49151">
        <ele>1745.4000244141</ele>
        <time>2014-02-12T08:27:03.000Z</time>
      </trkpt>
      <trkpt lat="45.91415" lon="6.49151">
        <ele>1745.4000244141</ele>
        <time>2014-02-12T08:27:04.000Z</time>
      </trkpt>
      <trkpt lat="45.91415" lon="6.49151">
        <ele>1745.4000244141</ele>
        <time>2014-02-12T08:27:05.000Z</time>
      </trkpt>
      <trkpt lat="45.91415" lon="6.49151">
        <ele>1745.4000244141</ele>
        <time>2014-02-12T08:27:06.000Z</time>
      </trkpt>
      <trkpt lat="45.91415" lon="6.49151">
        <ele>1745.4000244141</ele>
        <time>2014-02-12T08:27:07.000Z</time>
      </trkpt>
      <trkpt lat="45.91415" lon="6.49151">
        <ele>1745.4000244141</ele>
        <time>2014-02-12T08:27:08.000Z</time>
      </trkpt>
      <trkpt lat="45.91415" lon="6.49151">
        <ele>1745.4000244141</ele>
        <time>2014-02-12T08:27:09.000Z</time>
      </trkpt>
      <trkpt lat="45.91414" lon="6.49151">
        <ele>1745.5999755859</ele>
        <time>2014-02-12T08:27:11.000Z</time>
      </trkpt>
      <trkpt lat="45.91413" lon="6.49152">
        <ele>1745.5999755859</ele>
        <time>2014-02-12T08:27:12.000Z</time>
      </trkpt>
      <trkpt lat="45.91413" lon="6.49152">
        <ele>1745.5999755859</ele>
        <time>2014-02-12T08:27:13.000Z</time>
      </trkpt>
      <trkpt lat="45.91412" lon="6.49152">
        <ele>1745.5999755859</ele>
        <time>2014-02-12T08:27:14.000Z</time>
      </trkpt>
      <trkpt lat="45.91412" lon="6.49152">
        <ele>1745.5999755859</ele>
        <time>2014-02-12T08:27:15.000Z</time>
      </trkpt>
      <trkpt lat="45.91411" lon="6.49152">
        <ele>1745.5999755859</ele>
        <time>2014-02-12T08:27:16.000Z</time>
      </trkpt>
      <trkpt lat="45.91411" lon="6.49152">
        <ele>1745.5999755859</ele>
        <time>2014-02-12T08:27:17.000Z</time>
      </trkpt>
      <trkpt lat="45.91411" lon="6.49152">
        <ele>1745.5999755859</ele>
        <time>2014-02-12T08:27:18.000Z</time>
      </trkpt>
      <trkpt lat="45.91411" lon="6.49152">
        <ele>1745.5999755859</ele>
        <time>2014-02-12T08:27:19.000Z</time>
      </trkpt>
      <trkpt lat="45.9141" lon="6.49153">
        <ele>1745.8000488281</ele>
        <time>2014-02-12T08:27:20.000Z</time>
      </trkpt>
      <trkpt lat="45.9141" lon="6.49153">
        <ele>1745.8000488281</ele>
        <time>2014-02-12T08:27:21.000Z</time>
      </trkpt>
      <trkpt lat="45.91409" lon="6.49153">
        <ele>1746</ele>
        <time>2014-02-12T08:27:22.000Z</time>
      </trkpt>
      <trkpt lat="45.91409" lon="6.49153">
        <ele>1746</ele>
        <time>2014-02-12T08:27:23.000Z</time>
      </trkpt>
      <trkpt lat="45.91408" lon="6.49154">
        <ele>1746.1999511719</ele>
        <time>2014-02-12T08:27:24.000Z</time>
      </trkpt>
      <trkpt lat="45.91408" lon="6.49154">
        <ele>1746</ele>
        <time>2014-02-12T08:27:25.000Z</time>
      </trkpt>
      <trkpt lat="45.91407" lon="6.49154">
        <ele>1746.1999511719</ele>
        <time>2014-02-12T08:27:26.000Z</time>
      </trkpt>
      <trkpt lat="45.91407" lon="6.49155">
        <ele>1746.4000244141</ele>
        <time>2014-02-12T08:27:27.000Z</time>
      </trkpt>
      <trkpt lat="45.91406" lon="6.49155">
        <ele>1746.4000244141</ele>
        <time>2014-02-12T08:27:28.000Z</time>
      </trkpt>
      <trkpt lat="45.91405" lon="6.49155">
        <ele>1746.4000244141</ele>
        <time>2014-02-12T08:27:29.000Z</time>
      </trkpt>
      <trkpt lat="45.91404" lon="6.49156">
        <ele>1746.5999755859</ele>
        <time>2014-02-12T08:27:30.000Z</time>
      </trkpt>
      <trkpt lat="45.91403" lon="6.49156">
        <ele>1746.8000488281</ele>
        <time>2014-02-12T08:27:31.000Z</time>
      </trkpt>
      <trkpt lat="45.91403" lon="6.49156">
        <ele>1746.8000488281</ele>
        <time>2014-02-12T08:27:32.000Z</time>
      </trkpt>
      <trkpt lat="45.91403" lon="6.49157">
        <ele>1747</ele>
        <time>2014-02-12T08:27:33.000Z</time>
      </trkpt>
      <trkpt lat="45.91403" lon="6.49157">
        <ele>1747</ele>
        <time>2014-02-12T08:27:34.000Z</time>
      </trkpt>
      <trkpt lat="45.91402" lon="6.49157">
        <ele>1747.1999511719</ele>
        <time>2014-02-12T08:27:35.000Z</time>
      </trkpt>
      <trkpt lat="45.91402" lon="6.49157">
        <ele>1747.1999511719</ele>
        <time>2014-02-12T08:27:36.000Z</time>
      </trkpt>
      <trkpt lat="45.91402" lon="6.49157">
        <ele>1747.1999511719</ele>
        <time>2014-02-12T08:27:37.000Z</time>
      </trkpt>
      <trkpt lat="45.91402" lon="6.49157">
        <ele>1747.1999511719</ele>
        <time>2014-02-12T08:27:38.000Z</time>
      </trkpt>
      <trkpt lat="45.91401" lon="6.49158">
        <ele>1747.1999511719</ele>
        <time>2014-02-12T08:27:39.000Z</time>
      </trkpt>
      <trkpt lat="45.914" lon="6.49158">
        <ele>1747</ele>
        <time>2014-02-12T08:27:40.000Z</time>
      </trkpt>
      <trkpt lat="45.914" lon="6.49158">
        <ele>1747.1999511719</ele>
        <time>2014-02-12T08:27:41.000Z</time>
      </trkpt>
      <trkpt lat="45.914" lon="6.49158">
        <ele>1747.1999511719</ele>
        <time>2014-02-12T08:27:42.000Z</time>
      </trkpt>
      <trkpt lat="45.914" lon="6.49158">
        <ele>1747.1999511719</ele>
        <time>2014-02-12T08:27:43.000Z</time>
      </trkpt>
      <trkpt lat="45.91399" lon="6.49158">
        <ele>1747.4000244141</ele>
        <time>2014-02-12T08:27:44.000Z</time>
      </trkpt>
      <trkpt lat="45.91399" lon="6.49158">
        <ele>1747.1999511719</ele>
        <time>2014-02-12T08:27:45.000Z</time>
      </trkpt>
      <trkpt lat="45.91398" lon="6.49159">
        <ele>1747.1999511719</ele>
        <time>2014-02-12T08:27:46.000Z</time>
      </trkpt>
      <trkpt lat="45.91397" lon="6.49159">
        <ele>1747.1999511719</ele>
        <time>2014-02-12T08:27:47.000Z</time>
      </trkpt>
      <trkpt lat="45.91397" lon="6.49159">
        <ele>1747.1999511719</ele>
        <time>2014-02-12T08:27:48.000Z</time>
      </trkpt>
      <trkpt lat="45.91396" lon="6.4916">
        <ele>1747.4000244141</ele>
        <time>2014-02-12T08:27:49.000Z</time>
      </trkpt>
      <trkpt lat="45.91396" lon="6.4916">
        <ele>1747.4000244141</ele>
        <time>2014-02-12T08:27:50.000Z</time>
      </trkpt>
      <trkpt lat="45.91395" lon="6.4916">
        <ele>1747.4000244141</ele>
        <time>2014-02-12T08:27:51.000Z</time>
      </trkpt>
      <trkpt lat="45.91394" lon="6.49161">
        <ele>1747.5999755859</ele>
        <time>2014-02-12T08:27:52.000Z</time>
      </trkpt>
      <trkpt lat="45.91393" lon="6.49161">
        <ele>1747.5999755859</ele>
        <time>2014-02-12T08:27:53.000Z</time>
      </trkpt>
      <trkpt lat="45.91393" lon="6.49161">
        <ele>1747.4000244141</ele>
        <time>2014-02-12T08:27:54.000Z</time>
      </trkpt>
      <trkpt lat="45.91392" lon="6.4916">
        <ele>1747.1999511719</ele>
        <time>2014-02-12T08:27:55.000Z</time>
      </trkpt>
      <trkpt lat="45.9139" lon="6.4916">
        <ele>1746.4000244141</ele>
        <time>2014-02-12T08:27:57.000Z</time>
      </trkpt>
      <trkpt lat="45.91389" lon="6.49159">
        <ele>1746.5999755859</ele>
        <time>2014-02-12T08:27:58.000Z</time>
      </trkpt>
      <trkpt lat="45.91389" lon="6.4916">
        <ele>1746.8000488281</ele>
        <time>2014-02-12T08:27:59.000Z</time>
      </trkpt>
      <trkpt lat="45.91388" lon="6.4916">
        <ele>1747</ele>
        <time>2014-02-12T08:28:00.000Z</time>
      </trkpt>
      <trkpt lat="45.91387" lon="6.49161">
        <ele>1747.5999755859</ele>
        <time>2014-02-12T08:28:01.000Z</time>
      </trkpt>
      <trkpt lat="45.91386" lon="6.49161">
        <ele>1747.8000488281</ele>
        <time>2014-02-12T08:28:02.000Z</time>
      </trkpt>
      <trkpt lat="45.91386" lon="6.49161">
        <ele>1748</ele>
        <time>2014-02-12T08:28:03.000Z</time>
      </trkpt>
      <trkpt lat="45.91385" lon="6.49161">
        <ele>1748</ele>
        <time>2014-02-12T08:28:04.000Z</time>
      </trkpt>
      <trkpt lat="45.91384" lon="6.49161">
        <ele>1748.1999511719</ele>
        <time>2014-02-12T08:28:05.000Z</time>
      </trkpt>
      <trkpt lat="45.91384" lon="6.49162">
        <ele>1748.4000244141</ele>
        <time>2014-02-12T08:28:06.000Z</time>
      </trkpt>
      <trkpt lat="45.91384" lon="6.49161">
        <ele>1748.4000244141</ele>
        <time>2014-02-12T08:28:07.000Z</time>
      </trkpt>
      <trkpt lat="45.91383" lon="6.49161">
        <ele>1748.4000244141</ele>
        <time>2014-02-12T08:28:08.000Z</time>
      </trkpt>
      <trkpt lat="45.91383" lon="6.49161">
        <ele>1748.4000244141</ele>
        <time>2014-02-12T08:28:09.000Z</time>
      </trkpt>
      <trkpt lat="45.91383" lon="6.49161">
        <ele>1748.4000244141</ele>
        <time>2014-02-12T08:28:10.000Z</time>
      </trkpt>
      <trkpt lat="45.91383" lon="6.49161">
        <ele>1748.4000244141</ele>
        <time>2014-02-12T08:28:11.000Z</time>
      </trkpt>
      <trkpt lat="45.91383" lon="6.49161">
        <ele>1748.4000244141</ele>
        <time>2014-02-12T08:28:12.000Z</time>
      </trkpt>
      <trkpt lat="45.91383" lon="6.49162">
        <ele>1748.5999755859</ele>
        <time>2014-02-12T08:28:13.000Z</time>
      </trkpt>
      <trkpt lat="45.91382" lon="6.49162">
        <ele>1749</ele>
        <time>2014-02-12T08:28:14.000Z</time>
      </trkpt>
      <trkpt lat="45.91381" lon="6.49162">
        <ele>1749</ele>
        <time>2014-02-12T08:28:15.000Z</time>
      </trkpt>
      <trkpt lat="45.9138" lon="6.49162">
        <ele>1749.1999511719</ele>
        <time>2014-02-12T08:28:17.000Z</time>
      </trkpt>
      <trkpt lat="45.91379" lon="6.49162">
        <ele>1749.1999511719</ele>
        <time>2014-02-12T08:28:18.000Z</time>
      </trkpt>
      <trkpt lat="45.91378" lon="6.49162">
        <ele>1749.4000244141</ele>
        <time>2014-02-12T08:28:19.000Z</time>
      </trkpt>
      <trkpt lat="45.91378" lon="6.49163">
        <ele>1749.8000488281</ele>
        <time>2014-02-12T08:28:20.000Z</time>
      </trkpt>
      <trkpt lat="45.91378" lon="6.49163">
        <ele>1749.8000488281</ele>
        <time>2014-02-12T08:28:21.000Z</time>
      </trkpt>
      <trkpt lat="45.91377" lon="6.49163">
        <ele>1750.1999511719</ele>
        <time>2014-02-12T08:28:22.000Z</time>
      </trkpt>
      <trkpt lat="45.91376" lon="6.49164">
        <ele>1750.4000244141</ele>
        <time>2014-02-12T08:28:23.000Z</time>
      </trkpt>
      <trkpt lat="45.91376" lon="6.49164">
        <ele>1750.5999755859</ele>
        <time>2014-02-12T08:28:24.000Z</time>
      </trkpt>
      <trkpt lat="45.91376" lon="6.49164">
        <ele>1750.5999755859</ele>
        <time>2014-02-12T08:28:25.000Z</time>
      </trkpt>
      <trkpt lat="45.91375" lon="6.49164">
        <ele>1750.8000488281</ele>
        <time>2014-02-12T08:28:26.000Z</time>
      </trkpt>
      <trkpt lat="45.91375" lon="6.49164">
        <ele>1750.8000488281</ele>
        <time>2014-02-12T08:28:27.000Z</time>
      </trkpt>
      <trkpt lat="45.91375" lon="6.49164">
        <ele>1751</ele>
        <time>2014-02-12T08:28:28.000Z</time>
      </trkpt>
      <trkpt lat="45.91374" lon="6.49165">
        <ele>1751.1999511719</ele>
        <time>2014-02-12T08:28:29.000Z</time>
      </trkpt>
      <trkpt lat="45.91373" lon="6.49165">
        <ele>1751.4000244141</ele>
        <time>2014-02-12T08:28:30.000Z</time>
      </trkpt>
      <trkpt lat="45.91372" lon="6.49165">
        <ele>1751.4000244141</ele>
        <time>2014-02-12T08:28:31.000Z</time>
      </trkpt>
      <trkpt lat="45.91371" lon="6.49165">
        <ele>1751.8000488281</ele>
        <time>2014-02-12T08:28:32.000Z</time>
      </trkpt>
      <trkpt lat="45.91371" lon="6.49165">
        <ele>1751.8000488281</ele>
        <time>2014-02-12T08:28:33.000Z</time>
      </trkpt>
      <trkpt lat="45.91369" lon="6.49166">
        <ele>1752.4000244141</ele>
        <time>2014-02-12T08:28:34.000Z</time>
      </trkpt>
      <trkpt lat="45.91369" lon="6.49166">
        <ele>1752.5999755859</ele>
        <time>2014-02-12T08:28:35.000Z</time>
      </trkpt>
      <trkpt lat="45.91369" lon="6.49166">
        <ele>1752.5999755859</ele>
        <time>2014-02-12T08:28:36.000Z</time>
      </trkpt>
      <trkpt lat="45.91368" lon="6.49166">
        <ele>1752.8000488281</ele>
        <time>2014-02-12T08:28:37.000Z</time>
      </trkpt>
      <trkpt lat="45.91368" lon="6.49166">
        <ele>1752.8000488281</ele>
        <time>2014-02-12T08:28:38.000Z</time>
      </trkpt>
      <trkpt lat="45.91367" lon="6.49166">
        <ele>1753</ele>
        <time>2014-02-12T08:28:39.000Z</time>
      </trkpt>
      <trkpt lat="45.91367" lon="6.49167">
        <ele>1753.1999511719</ele>
        <time>2014-02-12T08:28:40.000Z</time>
      </trkpt>
      <trkpt lat="45.91366" lon="6.49167">
        <ele>1753.5999755859</ele>
        <time>2014-02-12T08:28:41.000Z</time>
      </trkpt>
      <trkpt lat="45.91365" lon="6.49168">
        <ele>1754</ele>
        <time>2014-02-12T08:28:42.000Z</time>
      </trkpt>
      <trkpt lat="45.91364" lon="6.49168">
        <ele>1754</ele>
        <time>2014-02-12T08:28:43.000Z</time>
      </trkpt>
      <trkpt lat="45.91364" lon="6.49168">
        <ele>1754.4000244141</ele>
        <time>2014-02-12T08:28:44.000Z</time>
      </trkpt>
      <trkpt lat="45.91363" lon="6.49168">
        <ele>1754.5999755859</ele>
        <time>2014-02-12T08:28:45.000Z</time>
      </trkpt>
      <trkpt lat="45.91362" lon="6.49169">
        <ele>1755</ele>
        <time>2014-02-12T08:28:46.000Z</time>
      </trkpt>
      <trkpt lat="45.91361" lon="6.49169">
        <ele>1755.1999511719</ele>
        <time>2014-02-12T08:28:47.000Z</time>
      </trkpt>
      <trkpt lat="45.9136" lon="6.49169">
        <ele>1755.1999511719</ele>
        <time>2014-02-12T08:28:48.000Z</time>
      </trkpt>
      <trkpt lat="45.91359" lon="6.49169">
        <ele>1755.4000244141</ele>
        <time>2014-02-12T08:28:49.000Z</time>
      </trkpt>
      <trkpt lat="45.91359" lon="6.49169">
        <ele>1755.4000244141</ele>
        <time>2014-02-12T08:28:50.000Z</time>
      </trkpt>
      <trkpt lat="45.91359" lon="6.49169">
        <ele>1755.4000244141</ele>
        <time>2014-02-12T08:28:51.000Z</time>
      </trkpt>
      <trkpt lat="45.91359" lon="6.49169">
        <ele>1755.4000244141</ele>
        <time>2014-02-12T08:28:52.000Z</time>
      </trkpt>
      <trkpt lat="45.91359" lon="6.49169">
        <ele>1755.4000244141</ele>
        <time>2014-02-12T08:28:53.000Z</time>
      </trkpt>
      <trkpt lat="45.91359" lon="6.49169">
        <ele>1755.4000244141</ele>
        <time>2014-02-12T08:28:54.000Z</time>
      </trkpt>
      <trkpt lat="45.91359" lon="6.49169">
        <ele>1755.4000244141</ele>
        <time>2014-02-12T08:28:55.000Z</time>
      </trkpt>
      <trkpt lat="45.91359" lon="6.49169">
        <ele>1755.4000244141</ele>
        <time>2014-02-12T08:28:56.000Z</time>
      </trkpt>
      <trkpt lat="45.91359" lon="6.49169">
        <ele>1755.4000244141</ele>
        <time>2014-02-12T08:28:57.000Z</time>
      </trkpt>
      <trkpt lat="45.91359" lon="6.49169">
        <ele>1755.4000244141</ele>
        <time>2014-02-12T08:28:58.000Z</time>
      </trkpt>
      <trkpt lat="45.91359" lon="6.49169">
        <ele>1755.4000244141</ele>
        <time>2014-02-12T08:28:59.000Z</time>
      </trkpt>
      <trkpt lat="45.91359" lon="6.49169">
        <ele>1755.4000244141</ele>
        <time>2014-02-12T08:29:00.000Z</time>
      </trkpt>
      <trkpt lat="45.91359" lon="6.49169">
        <ele>1755.4000244141</ele>
        <time>2014-02-12T08:29:01.000Z</time>
      </trkpt>
      <trkpt lat="45.91359" lon="6.49169">
        <ele>1755.4000244141</ele>
        <time>2014-02-12T08:29:02.000Z</time>
      </trkpt>
      <trkpt lat="45.91358" lon="6.49169">
        <ele>1755.5999755859</ele>
        <time>2014-02-12T08:29:03.000Z</time>
      </trkpt>
      <trkpt lat="45.91357" lon="6.49169">
        <ele>1755.8000488281</ele>
        <time>2014-02-12T08:29:04.000Z</time>
      </trkpt>
      <trkpt lat="45.91357" lon="6.49169">
        <ele>1755.8000488281</ele>
        <time>2014-02-12T08:29:05.000Z</time>
      </trkpt>
      <trkpt lat="45.91356" lon="6.49169">
        <ele>1756</ele>
        <time>2014-02-12T08:29:06.000Z</time>
      </trkpt>
      <trkpt lat="45.91356" lon="6.49169">
        <ele>1756.1999511719</ele>
        <time>2014-02-12T08:29:07.000Z</time>
      </trkpt>
      <trkpt lat="45.91355" lon="6.49169">
        <ele>1756.1999511719</ele>
        <time>2014-02-12T08:29:08.000Z</time>
      </trkpt>
      <trkpt lat="45.91354" lon="6.49169">
        <ele>1756.4000244141</ele>
        <time>2014-02-12T08:29:09.000Z</time>
      </trkpt>
      <trkpt lat="45.91353" lon="6.49169">
        <ele>1756.5999755859</ele>
        <time>2014-02-12T08:29:10.000Z</time>
      </trkpt>
      <trkpt lat="45.91352" lon="6.4917">
        <ele>1756.8000488281</ele>
        <time>2014-02-12T08:29:11.000Z</time>
      </trkpt>
      <trkpt lat="45.91352" lon="6.4917">
        <ele>1757</ele>
        <time>2014-02-12T08:29:12.000Z</time>
      </trkpt>
      <trkpt lat="45.91351" lon="6.4917">
        <ele>1757.1999511719</ele>
        <time>2014-02-12T08:29:13.000Z</time>
      </trkpt>
      <trkpt lat="45.9135" lon="6.4917">
        <ele>1757.4000244141</ele>
        <time>2014-02-12T08:29:14.000Z</time>
      </trkpt>
      <trkpt lat="45.9135" lon="6.4917">
        <ele>1757.1999511719</ele>
        <time>2014-02-12T08:29:15.000Z</time>
      </trkpt>
      <trkpt lat="45.91349" lon="6.4917">
        <ele>1757.1999511719</ele>
        <time>2014-02-12T08:29:16.000Z</time>
      </trkpt>
      <trkpt lat="45.91349" lon="6.4917">
        <ele>1757.5999755859</ele>
        <time>2014-02-12T08:29:17.000Z</time>
      </trkpt>
      <trkpt lat="45.91348" lon="6.4917">
        <ele>1757.5999755859</ele>
        <time>2014-02-12T08:29:18.000Z</time>
      </trkpt>
      <trkpt lat="45.91348" lon="6.4917">
        <ele>1757.5999755859</ele>
        <time>2014-02-12T08:29:19.000Z</time>
      </trkpt>
      <trkpt lat="45.91347" lon="6.4917">
        <ele>1757.4000244141</ele>
        <time>2014-02-12T08:29:20.000Z</time>
      </trkpt>
      <trkpt lat="45.91346" lon="6.4917">
        <ele>1757.5999755859</ele>
        <time>2014-02-12T08:29:21.000Z</time>
      </trkpt>
      <trkpt lat="45.91345" lon="6.49169">
        <ele>1757.5999755859</ele>
        <time>2014-02-12T08:29:22.000Z</time>
      </trkpt>
      <trkpt lat="45.91345" lon="6.49169">
        <ele>1757.5999755859</ele>
        <time>2014-02-12T08:29:23.000Z</time>
      </trkpt>
      <trkpt lat="45.91344" lon="6.49169">
        <ele>1757.4000244141</ele>
        <time>2014-02-12T08:29:24.000Z</time>
      </trkpt>
      <trkpt lat="45.91343" lon="6.49168">
        <ele>1757.4000244141</ele>
        <time>2014-02-12T08:29:25.000Z</time>
      </trkpt>
      <trkpt lat="45.91342" lon="6.49168">
        <ele>1757.1999511719</ele>
        <time>2014-02-12T08:29:26.000Z</time>
      </trkpt>
      <trkpt lat="45.91342" lon="6.49168">
        <ele>1757.1999511719</ele>
        <time>2014-02-12T08:29:27.000Z</time>
      </trkpt>
      <trkpt lat="45.91341" lon="6.49167">
        <ele>1757</ele>
        <time>2014-02-12T08:29:28.000Z</time>
      </trkpt>
      <trkpt lat="45.91341" lon="6.49167">
        <ele>1757.1999511719</ele>
        <time>2014-02-12T08:29:29.000Z</time>
      </trkpt>
      <trkpt lat="45.9134" lon="6.49167">
        <ele>1757.1999511719</ele>
        <time>2014-02-12T08:29:30.000Z</time>
      </trkpt>
      <trkpt lat="45.91339" lon="6.49166">
        <ele>1757.1999511719</ele>
        <time>2014-02-12T08:29:31.000Z</time>
      </trkpt>
      <trkpt lat="45.91338" lon="6.49167">
        <ele>1757.1999511719</ele>
        <time>2014-02-12T08:29:32.000Z</time>
      </trkpt>
      <trkpt lat="45.91338" lon="6.49167">
        <ele>1757.4000244141</ele>
        <time>2014-02-12T08:29:33.000Z</time>
      </trkpt>
      <trkpt lat="45.91338" lon="6.49167">
        <ele>1757.4000244141</ele>
        <time>2014-02-12T08:29:34.000Z</time>
      </trkpt>
      <trkpt lat="45.91338" lon="6.49167">
        <ele>1757.4000244141</ele>
        <time>2014-02-12T08:29:35.000Z</time>
      </trkpt>
      <trkpt lat="45.91337" lon="6.49167">
        <ele>1757.4000244141</ele>
        <time>2014-02-12T08:29:36.000Z</time>
      </trkpt>
      <trkpt lat="45.91337" lon="6.49167">
        <ele>1757.5999755859</ele>
        <time>2014-02-12T08:29:37.000Z</time>
      </trkpt>
      <trkpt lat="45.91336" lon="6.49167">
        <ele>1757.8000488281</ele>
        <time>2014-02-12T08:29:38.000Z</time>
      </trkpt>
      <trkpt lat="45.91336" lon="6.49167">
        <ele>1757.8000488281</ele>
        <time>2014-02-12T08:29:39.000Z</time>
      </trkpt>
      <trkpt lat="45.91335" lon="6.49167">
        <ele>1757.8000488281</ele>
        <time>2014-02-12T08:29:40.000Z</time>
      </trkpt>
      <trkpt lat="45.91335" lon="6.49167">
        <ele>1757.8000488281</ele>
        <time>2014-02-12T08:29:41.000Z</time>
      </trkpt>
      <trkpt lat="45.91334" lon="6.49167">
        <ele>1758</ele>
        <time>2014-02-12T08:29:42.000Z</time>
      </trkpt>
      <trkpt lat="45.91334" lon="6.49167">
        <ele>1758</ele>
        <time>2014-02-12T08:29:43.000Z</time>
      </trkpt>
      <trkpt lat="45.91333" lon="6.49167">
        <ele>1758</ele>
        <time>2014-02-12T08:29:44.000Z</time>
      </trkpt>
      <trkpt lat="45.91332" lon="6.49166">
        <ele>1758.1999511719</ele>
        <time>2014-02-12T08:29:45.000Z</time>
      </trkpt>
      <trkpt lat="45.91332" lon="6.49167">
        <ele>1758.1999511719</ele>
        <time>2014-02-12T08:29:46.000Z</time>
      </trkpt>
      <trkpt lat="45.91331" lon="6.49166">
        <ele>1758.4000244141</ele>
        <time>2014-02-12T08:29:47.000Z</time>
      </trkpt>
      <trkpt lat="45.91331" lon="6.49167">
        <ele>1758.4000244141</ele>
        <time>2014-02-12T08:29:48.000Z</time>
      </trkpt>
      <trkpt lat="45.9133" lon="6.49166">
        <ele>1758.1999511719</ele>
        <time>2014-02-12T08:29:49.000Z</time>
      </trkpt>
      <trkpt lat="45.91329" lon="6.49165">
        <ele>1758.1999511719</ele>
        <time>2014-02-12T08:29:50.000Z</time>
      </trkpt>
      <trkpt lat="45.91328" lon="6.49165">
        <ele>1758.1999511719</ele>
        <time>2014-02-12T08:29:51.000Z</time>
      </trkpt>
      <trkpt lat="45.91328" lon="6.49165">
        <ele>1758.1999511719</ele>
        <time>2014-02-12T08:29:52.000Z</time>
      </trkpt>
      <trkpt lat="45.91327" lon="6.49165">
        <ele>1758.1999511719</ele>
        <time>2014-02-12T08:29:53.000Z</time>
      </trkpt>
      <trkpt lat="45.91327" lon="6.49166">
        <ele>1758.8000488281</ele>
        <time>2014-02-12T08:29:54.000Z</time>
      </trkpt>
      <trkpt lat="45.91327" lon="6.49166">
        <ele>1758.8000488281</ele>
        <time>2014-02-12T08:29:55.000Z</time>
      </trkpt>
      <trkpt lat="45.91327" lon="6.49167">
        <ele>1759.1999511719</ele>
        <time>2014-02-12T08:29:56.000Z</time>
      </trkpt>
      <trkpt lat="45.91327" lon="6.49167">
        <ele>1759.1999511719</ele>
        <time>2014-02-12T08:29:57.000Z</time>
      </trkpt>
      <trkpt lat="45.91327" lon="6.49169">
        <ele>1759.8000488281</ele>
        <time>2014-02-12T08:29:58.000Z</time>
      </trkpt>
      <trkpt lat="45.91326" lon="6.49169">
        <ele>1760.1999511719</ele>
        <time>2014-02-12T08:29:59.000Z</time>
      </trkpt>
      <trkpt lat="45.91326" lon="6.4917">
        <ele>1760.5999755859</ele>
        <time>2014-02-12T08:30:00.000Z</time>
      </trkpt>
      <trkpt lat="45.91326" lon="6.4917">
        <ele>1760.5999755859</ele>
        <time>2014-02-12T08:30:01.000Z</time>
      </trkpt>
      <trkpt lat="45.91325" lon="6.4917">
        <ele>1760.8000488281</ele>
        <time>2014-02-12T08:30:02.000Z</time>
      </trkpt>
      <trkpt lat="45.91325" lon="6.4917">
        <ele>1760.8000488281</ele>
        <time>2014-02-12T08:30:03.000Z</time>
      </trkpt>
      <trkpt lat="45.91325" lon="6.49171">
        <ele>1761.1999511719</ele>
        <time>2014-02-12T08:30:04.000Z</time>
      </trkpt>
      <trkpt lat="45.91325" lon="6.49171">
        <ele>1761.1999511719</ele>
        <time>2014-02-12T08:30:05.000Z</time>
      </trkpt>
      <trkpt lat="45.91324" lon="6.49172">
        <ele>1761.8000488281</ele>
        <time>2014-02-12T08:30:06.000Z</time>
      </trkpt>
      <trkpt lat="45.91323" lon="6.49173">
        <ele>1762.1999511719</ele>
        <time>2014-02-12T08:30:07.000Z</time>
      </trkpt>
      <trkpt lat="45.91323" lon="6.49174">
        <ele>1762.5999755859</ele>
        <time>2014-02-12T08:30:08.000Z</time>
      </trkpt>
      <trkpt lat="45.91322" lon="6.49174">
        <ele>1762.8000488281</ele>
        <time>2014-02-12T08:30:09.000Z</time>
      </trkpt>
      <trkpt lat="45.91321" lon="6.49174">
        <ele>1762.8000488281</ele>
        <time>2014-02-12T08:30:10.000Z</time>
      </trkpt>
      <trkpt lat="45.91321" lon="6.49174">
        <ele>1762.8000488281</ele>
        <time>2014-02-12T08:30:11.000Z</time>
      </trkpt>
      <trkpt lat="45.9132" lon="6.49174">
        <ele>1763</ele>
        <time>2014-02-12T08:30:12.000Z</time>
      </trkpt>
      <trkpt lat="45.9132" lon="6.49174">
        <ele>1763</ele>
        <time>2014-02-12T08:30:13.000Z</time>
      </trkpt>
      <trkpt lat="45.91319" lon="6.49174">
        <ele>1763.1999511719</ele>
        <time>2014-02-12T08:30:14.000Z</time>
      </trkpt>
      <trkpt lat="45.91319" lon="6.49174">
        <ele>1763.4000244141</ele>
        <time>2014-02-12T08:30:15.000Z</time>
      </trkpt>
      <trkpt lat="45.91318" lon="6.49174">
        <ele>1763.4000244141</ele>
        <time>2014-02-12T08:30:16.000Z</time>
      </trkpt>
      <trkpt lat="45.91318" lon="6.49175">
        <ele>1763.5999755859</ele>
        <time>2014-02-12T08:30:17.000Z</time>
      </trkpt>
      <trkpt lat="45.91317" lon="6.49174">
        <ele>1763.5999755859</ele>
        <time>2014-02-12T08:30:18.000Z</time>
      </trkpt>
      <trkpt lat="45.91317" lon="6.49174">
        <ele>1763.5999755859</ele>
        <time>2014-02-12T08:30:19.000Z</time>
      </trkpt>
      <trkpt lat="45.91316" lon="6.49174">
        <ele>1763.4000244141</ele>
        <time>2014-02-12T08:30:20.000Z</time>
      </trkpt>
      <trkpt lat="45.91316" lon="6.49173">
        <ele>1763.1999511719</ele>
        <time>2014-02-12T08:30:21.000Z</time>
      </trkpt>
      <trkpt lat="45.91315" lon="6.49172">
        <ele>1762.8000488281</ele>
        <time>2014-02-12T08:30:22.000Z</time>
      </trkpt>
      <trkpt lat="45.91315" lon="6.49171">
        <ele>1762.5999755859</ele>
        <time>2014-02-12T08:30:23.000Z</time>
      </trkpt>
      <trkpt lat="45.91315" lon="6.49171">
        <ele>1762.5999755859</ele>
        <time>2014-02-12T08:30:24.000Z</time>
      </trkpt>
      <trkpt lat="45.91315" lon="6.49171">
        <ele>1762.5999755859</ele>
        <time>2014-02-12T08:30:25.000Z</time>
      </trkpt>
      <trkpt lat="45.91314" lon="6.49171">
        <ele>1762.4000244141</ele>
        <time>2014-02-12T08:30:26.000Z</time>
      </trkpt>
      <trkpt lat="45.91314" lon="6.49171">
        <ele>1762.4000244141</ele>
        <time>2014-02-12T08:30:27.000Z</time>
      </trkpt>
      <trkpt lat="45.91314" lon="6.49171">
        <ele>1762.4000244141</ele>
        <time>2014-02-12T08:30:28.000Z</time>
      </trkpt>
      <trkpt lat="45.91313" lon="6.49171">
        <ele>1762.4000244141</ele>
        <time>2014-02-12T08:30:29.000Z</time>
      </trkpt>
      <trkpt lat="45.91313" lon="6.4917">
        <ele>1762.1999511719</ele>
        <time>2014-02-12T08:30:30.000Z</time>
      </trkpt>
      <trkpt lat="45.91313" lon="6.4917">
        <ele>1762.1999511719</ele>
        <time>2014-02-12T08:30:31.000Z</time>
      </trkpt>
      <trkpt lat="45.91313" lon="6.4917">
        <ele>1762.1999511719</ele>
        <time>2014-02-12T08:30:32.000Z</time>
      </trkpt>
      <trkpt lat="45.91313" lon="6.4917">
        <ele>1762.1999511719</ele>
        <time>2014-02-12T08:30:33.000Z</time>
      </trkpt>
      <trkpt lat="45.91312" lon="6.49171">
        <ele>1762.5999755859</ele>
        <time>2014-02-12T08:30:34.000Z</time>
      </trkpt>
      <trkpt lat="45.91312" lon="6.49171">
        <ele>1762.5999755859</ele>
        <time>2014-02-12T08:30:35.000Z</time>
      </trkpt>
      <trkpt lat="45.91311" lon="6.49171">
        <ele>1762.5999755859</ele>
        <time>2014-02-12T08:30:36.000Z</time>
      </trkpt>
      <trkpt lat="45.91311" lon="6.49171">
        <ele>1762.5999755859</ele>
        <time>2014-02-12T08:30:37.000Z</time>
      </trkpt>
      <trkpt lat="45.91311" lon="6.49171">
        <ele>1762.8000488281</ele>
        <time>2014-02-12T08:30:38.000Z</time>
      </trkpt>
      <trkpt lat="45.91311" lon="6.49171">
        <ele>1762.8000488281</ele>
        <time>2014-02-12T08:30:39.000Z</time>
      </trkpt>
      <trkpt lat="45.9131" lon="6.49172">
        <ele>1763.1999511719</ele>
        <time>2014-02-12T08:30:40.000Z</time>
      </trkpt>
      <trkpt lat="45.9131" lon="6.49172">
        <ele>1763.1999511719</ele>
        <time>2014-02-12T08:30:41.000Z</time>
      </trkpt>
      <trkpt lat="45.9131" lon="6.49172">
        <ele>1763.1999511719</ele>
        <time>2014-02-12T08:30:42.000Z</time>
      </trkpt>
      <trkpt lat="45.9131" lon="6.49172">
        <ele>1763.4000244141</ele>
        <time>2014-02-12T08:30:43.000Z</time>
      </trkpt>
      <trkpt lat="45.91308" lon="6.49172">
        <ele>1763.4000244141</ele>
        <time>2014-02-12T08:30:44.000Z</time>
      </trkpt>
      <trkpt lat="45.91308" lon="6.49172">
        <ele>1763.5999755859</ele>
        <time>2014-02-12T08:30:45.000Z</time>
      </trkpt>
      <trkpt lat="45.91307" lon="6.49172">
        <ele>1764</ele>
        <time>2014-02-12T08:30:46.000Z</time>
      </trkpt>
      <trkpt lat="45.91306" lon="6.49172">
        <ele>1764.1999511719</ele>
        <time>2014-02-12T08:30:47.000Z</time>
      </trkpt>
      <trkpt lat="45.91305" lon="6.49173">
        <ele>1764.5999755859</ele>
        <time>2014-02-12T08:30:48.000Z</time>
      </trkpt>
      <trkpt lat="45.91305" lon="6.49173">
        <ele>1765</ele>
        <time>2014-02-12T08:30:49.000Z</time>
      </trkpt>
      <trkpt lat="45.91304" lon="6.49173">
        <ele>1765.4000244141</ele>
        <time>2014-02-12T08:30:50.000Z</time>
      </trkpt>
      <trkpt lat="45.91303" lon="6.49174">
        <ele>1765.8000488281</ele>
        <time>2014-02-12T08:30:51.000Z</time>
      </trkpt>
      <trkpt lat="45.91302" lon="6.49174">
        <ele>1766</ele>
        <time>2014-02-12T08:30:52.000Z</time>
      </trkpt>
      <trkpt lat="45.91301" lon="6.49174">
        <ele>1766.5999755859</ele>
        <time>2014-02-12T08:30:53.000Z</time>
      </trkpt>
      <trkpt lat="45.91301" lon="6.49174">
        <ele>1767</ele>
        <time>2014-02-12T08:30:54.000Z</time>
      </trkpt>
      <trkpt lat="45.913" lon="6.49175">
        <ele>1767.5999755859</ele>
        <time>2014-02-12T08:30:55.000Z</time>
      </trkpt>
      <trkpt lat="45.91298" lon="6.49175">
        <ele>1768.1999511719</ele>
        <time>2014-02-12T08:30:56.000Z</time>
      </trkpt>
      <trkpt lat="45.91297" lon="6.49175">
        <ele>1768.5999755859</ele>
        <time>2014-02-12T08:30:57.000Z</time>
      </trkpt>
      <trkpt lat="45.91297" lon="6.49175">
        <ele>1768.8000488281</ele>
        <time>2014-02-12T08:30:58.000Z</time>
      </trkpt>
      <trkpt lat="45.91297" lon="6.49176">
        <ele>1769</ele>
        <time>2014-02-12T08:30:59.000Z</time>
      </trkpt>
      <trkpt lat="45.91296" lon="6.49176">
        <ele>1769.1999511719</ele>
        <time>2014-02-12T08:31:00.000Z</time>
      </trkpt>
      <trkpt lat="45.91296" lon="6.49176">
        <ele>1769.5999755859</ele>
        <time>2014-02-12T08:31:01.000Z</time>
      </trkpt>
      <trkpt lat="45.91295" lon="6.49177">
        <ele>1770</ele>
        <time>2014-02-12T08:31:02.000Z</time>
      </trkpt>
      <trkpt lat="45.91295" lon="6.49178">
        <ele>1770.5999755859</ele>
        <time>2014-02-12T08:31:03.000Z</time>
      </trkpt>
      <trkpt lat="45.91294" lon="6.49178">
        <ele>1770.8000488281</ele>
        <time>2014-02-12T08:31:04.000Z</time>
      </trkpt>
      <trkpt lat="45.91294" lon="6.49178">
        <ele>1771</ele>
        <time>2014-02-12T08:31:05.000Z</time>
      </trkpt>
      <trkpt lat="45.91294" lon="6.49178">
        <ele>1771</ele>
        <time>2014-02-12T08:31:06.000Z</time>
      </trkpt>
      <trkpt lat="45.91293" lon="6.49178">
        <ele>1771.4000244141</ele>
        <time>2014-02-12T08:31:07.000Z</time>
      </trkpt>
      <trkpt lat="45.91293" lon="6.49178">
        <ele>1771.4000244141</ele>
        <time>2014-02-12T08:31:08.000Z</time>
      </trkpt>
      <trkpt lat="45.91293" lon="6.49178">
        <ele>1771.4000244141</ele>
        <time>2014-02-12T08:31:09.000Z</time>
      </trkpt>
      <trkpt lat="45.91293" lon="6.49178">
        <ele>1771.4000244141</ele>
        <time>2014-02-12T08:31:10.000Z</time>
      </trkpt>
      <trkpt lat="45.91293" lon="6.49178">
        <ele>1771.4000244141</ele>
        <time>2014-02-12T08:31:11.000Z</time>
      </trkpt>
      <trkpt lat="45.91293" lon="6.49178">
        <ele>1771.4000244141</ele>
        <time>2014-02-12T08:31:12.000Z</time>
      </trkpt>
      <trkpt lat="45.91293" lon="6.49178">
        <ele>1771.4000244141</ele>
        <time>2014-02-12T08:31:13.000Z</time>
      </trkpt>
      <trkpt lat="45.91293" lon="6.49178">
        <ele>1771.4000244141</ele>
        <time>2014-02-12T08:31:14.000Z</time>
      </trkpt>
      <trkpt lat="45.91293" lon="6.49178">
        <ele>1771.4000244141</ele>
        <time>2014-02-12T08:31:15.000Z</time>
      </trkpt>
      <trkpt lat="45.91293" lon="6.49178">
        <ele>1771.4000244141</ele>
        <time>2014-02-12T08:31:16.000Z</time>
      </trkpt>
      <trkpt lat="45.91293" lon="6.49178">
        <ele>1771.4000244141</ele>
        <time>2014-02-12T08:31:17.000Z</time>
      </trkpt>
      <trkpt lat="45.91293" lon="6.49178">
        <ele>1771.4000244141</ele>
        <time>2014-02-12T08:31:18.000Z</time>
      </trkpt>
      <trkpt lat="45.91293" lon="6.49178">
        <ele>1771.4000244141</ele>
        <time>2014-02-12T08:31:19.000Z</time>
      </trkpt>
      <trkpt lat="45.91293" lon="6.49178">
        <ele>1771.4000244141</ele>
        <time>2014-02-12T08:31:20.000Z</time>
      </trkpt>
      <trkpt lat="45.91293" lon="6.49178">
        <ele>1771.4000244141</ele>
        <time>2014-02-12T08:31:21.000Z</time>
      </trkpt>
      <trkpt lat="45.91293" lon="6.49178">
        <ele>1771.4000244141</ele>
        <time>2014-02-12T08:31:23.000Z</time>
      </trkpt>
      <trkpt lat="45.91293" lon="6.49178">
        <ele>1771.4000244141</ele>
        <time>2014-02-12T08:31:24.000Z</time>
      </trkpt>
      <trkpt lat="45.91293" lon="6.49178">
        <ele>1771.4000244141</ele>
        <time>2014-02-12T08:31:25.000Z</time>
      </trkpt>
      <trkpt lat="45.91293" lon="6.49178">
        <ele>1771.4000244141</ele>
        <time>2014-02-12T08:31:26.000Z</time>
      </trkpt>
      <trkpt lat="45.91293" lon="6.49178">
        <ele>1771.4000244141</ele>
        <time>2014-02-12T08:31:27.000Z</time>
      </trkpt>
      <trkpt lat="45.91293" lon="6.49178">
        <ele>1771.4000244141</ele>
        <time>2014-02-12T08:31:29.000Z</time>
      </trkpt>
      <trkpt lat="45.91293" lon="6.49178">
        <ele>1771.4000244141</ele>
        <time>2014-02-12T08:31:30.000Z</time>
      </trkpt>
      <trkpt lat="45.91293" lon="6.49179">
        <ele>1771.5999755859</ele>
        <time>2014-02-12T08:31:31.000Z</time>
      </trkpt>
      <trkpt lat="45.91293" lon="6.49179">
        <ele>1771.5999755859</ele>
        <time>2014-02-12T08:31:32.000Z</time>
      </trkpt>
      <trkpt lat="45.91293" lon="6.4918">
        <ele>1772.1999511719</ele>
        <time>2014-02-12T08:31:33.000Z</time>
      </trkpt>
      <trkpt lat="45.91292" lon="6.49181">
        <ele>1773</ele>
        <time>2014-02-12T08:31:34.000Z</time>
      </trkpt>
      <trkpt lat="45.91292" lon="6.49181">
        <ele>1773</ele>
        <time>2014-02-12T08:31:35.000Z</time>
      </trkpt>
      <trkpt lat="45.91291" lon="6.49182">
        <ele>1773.8000488281</ele>
        <time>2014-02-12T08:31:36.000Z</time>
      </trkpt>
      <trkpt lat="45.91291" lon="6.49184">
        <ele>1774.8000488281</ele>
        <time>2014-02-12T08:31:37.000Z</time>
      </trkpt>
      <trkpt lat="45.9129" lon="6.49185">
        <ele>1775.1999511719</ele>
        <time>2014-02-12T08:31:38.000Z</time>
      </trkpt>
      <trkpt lat="45.91289" lon="6.49186">
        <ele>1776</ele>
        <time>2014-02-12T08:31:39.000Z</time>
      </trkpt>
      <trkpt lat="45.91289" lon="6.49186">
        <ele>1776.1999511719</ele>
        <time>2014-02-12T08:31:40.000Z</time>
      </trkpt>
      <trkpt lat="45.91288" lon="6.49187">
        <ele>1776.5999755859</ele>
        <time>2014-02-12T08:31:41.000Z</time>
      </trkpt>
      <trkpt lat="45.91288" lon="6.49187">
        <ele>1777.1999511719</ele>
        <time>2014-02-12T08:31:42.000Z</time>
      </trkpt>
      <trkpt lat="45.91287" lon="6.49188">
        <ele>1777.8000488281</ele>
        <time>2014-02-12T08:31:43.000Z</time>
      </trkpt>
      <trkpt lat="45.91287" lon="6.49189">
        <ele>1778.1999511719</ele>
        <time>2014-02-12T08:31:44.000Z</time>
      </trkpt>
      <trkpt lat="45.91287" lon="6.49189">
        <ele>1778.5999755859</ele>
        <time>2014-02-12T08:31:45.000Z</time>
      </trkpt>
      <trkpt lat="45.91286" lon="6.4919">
        <ele>1779</ele>
        <time>2014-02-12T08:31:46.000Z</time>
      </trkpt>
      <trkpt lat="45.91285" lon="6.49191">
        <ele>1779.8000488281</ele>
        <time>2014-02-12T08:31:47.000Z</time>
      </trkpt>
      <trkpt lat="45.91285" lon="6.49191">
        <ele>1779.8000488281</ele>
        <time>2014-02-12T08:31:48.000Z</time>
      </trkpt>
      <trkpt lat="45.91285" lon="6.49191">
        <ele>1780</ele>
        <time>2014-02-12T08:31:49.000Z</time>
      </trkpt>
      <trkpt lat="45.91285" lon="6.49191">
        <ele>1780</ele>
        <time>2014-02-12T08:31:50.000Z</time>
      </trkpt>
      <trkpt lat="45.91285" lon="6.49193">
        <ele>1780.5999755859</ele>
        <time>2014-02-12T08:31:51.000Z</time>
      </trkpt>
      <trkpt lat="45.91285" lon="6.49194">
        <ele>1781.4000244141</ele>
        <time>2014-02-12T08:31:52.000Z</time>
      </trkpt>
      <trkpt lat="45.91284" lon="6.49196">
        <ele>1782.1999511719</ele>
        <time>2014-02-12T08:31:53.000Z</time>
      </trkpt>
      <trkpt lat="45.91284" lon="6.49197">
        <ele>1782.8000488281</ele>
        <time>2014-02-12T08:31:54.000Z</time>
      </trkpt>
      <trkpt lat="45.91283" lon="6.49199">
        <ele>1783.8000488281</ele>
        <time>2014-02-12T08:31:55.000Z</time>
      </trkpt>
      <trkpt lat="45.91283" lon="6.492">
        <ele>1784.4000244141</ele>
        <time>2014-02-12T08:31:56.000Z</time>
      </trkpt>
      <trkpt lat="45.91283" lon="6.49202">
        <ele>1785.4000244141</ele>
        <time>2014-02-12T08:31:57.000Z</time>
      </trkpt>
      <trkpt lat="45.91282" lon="6.49202">
        <ele>1786</ele>
        <time>2014-02-12T08:31:58.000Z</time>
      </trkpt>
      <trkpt lat="45.91281" lon="6.49204">
        <ele>1786.8000488281</ele>
        <time>2014-02-12T08:31:59.000Z</time>
      </trkpt>
      <trkpt lat="45.91281" lon="6.49204">
        <ele>1787</ele>
        <time>2014-02-12T08:32:00.000Z</time>
      </trkpt>
      <trkpt lat="45.91281" lon="6.49205">
        <ele>1787.4000244141</ele>
        <time>2014-02-12T08:32:01.000Z</time>
      </trkpt>
      <trkpt lat="45.9128" lon="6.49206">
        <ele>1788</ele>
        <time>2014-02-12T08:32:02.000Z</time>
      </trkpt>
      <trkpt lat="45.9128" lon="6.49206">
        <ele>1788.4000244141</ele>
        <time>2014-02-12T08:32:03.000Z</time>
      </trkpt>
      <trkpt lat="45.9128" lon="6.49207">
        <ele>1788.8000488281</ele>
        <time>2014-02-12T08:32:04.000Z</time>
      </trkpt>
      <trkpt lat="45.91279" lon="6.49209">
        <ele>1789.1999511719</ele>
        <time>2014-02-12T08:32:05.000Z</time>
      </trkpt>
      <trkpt lat="45.91279" lon="6.4921">
        <ele>1789.8000488281</ele>
        <time>2014-02-12T08:32:06.000Z</time>
      </trkpt>
      <trkpt lat="45.91279" lon="6.4921">
        <ele>1789.8000488281</ele>
        <time>2014-02-12T08:32:07.000Z</time>
      </trkpt>
      <trkpt lat="45.91279" lon="6.49211">
        <ele>1790</ele>
        <time>2014-02-12T08:32:08.000Z</time>
      </trkpt>
      <trkpt lat="45.91279" lon="6.49212">
        <ele>1790.1999511719</ele>
        <time>2014-02-12T08:32:09.000Z</time>
      </trkpt>
      <trkpt lat="45.91279" lon="6.49212">
        <ele>1790.1999511719</ele>
        <time>2014-02-12T08:32:10.000Z</time>
      </trkpt>
      <trkpt lat="45.91279" lon="6.49212">
        <ele>1790.4000244141</ele>
        <time>2014-02-12T08:32:11.000Z</time>
      </trkpt>
      <trkpt lat="45.91279" lon="6.49212">
        <ele>1790.4000244141</ele>
        <time>2014-02-12T08:32:12.000Z</time>
      </trkpt>
      <trkpt lat="45.91278" lon="6.49213">
        <ele>1790.5999755859</ele>
        <time>2014-02-12T08:32:13.000Z</time>
      </trkpt>
      <trkpt lat="45.91278" lon="6.49213">
        <ele>1790.5999755859</ele>
        <time>2014-02-12T08:32:14.000Z</time>
      </trkpt>
      <trkpt lat="45.91278" lon="6.49213">
        <ele>1791</ele>
        <time>2014-02-12T08:32:15.000Z</time>
      </trkpt>
      <trkpt lat="45.91278" lon="6.49214">
        <ele>1791.4000244141</ele>
        <time>2014-02-12T08:32:16.000Z</time>
      </trkpt>
      <trkpt lat="45.91277" lon="6.49215">
        <ele>1791.5999755859</ele>
        <time>2014-02-12T08:32:17.000Z</time>
      </trkpt>
      <trkpt lat="45.91277" lon="6.49215">
        <ele>1791.5999755859</ele>
        <time>2014-02-12T08:32:18.000Z</time>
      </trkpt>
      <trkpt lat="45.91277" lon="6.49216">
        <ele>1792</ele>
        <time>2014-02-12T08:32:19.000Z</time>
      </trkpt>
      <trkpt lat="45.91277" lon="6.49216">
        <ele>1792</ele>
        <time>2014-02-12T08:32:20.000Z</time>
      </trkpt>
      <trkpt lat="45.91276" lon="6.49216">
        <ele>1792.1999511719</ele>
        <time>2014-02-12T08:32:21.000Z</time>
      </trkpt>
      <trkpt lat="45.91276" lon="6.49216">
        <ele>1792.1999511719</ele>
        <time>2014-02-12T08:32:22.000Z</time>
      </trkpt>
      <trkpt lat="45.91276" lon="6.49218">
        <ele>1792.5999755859</ele>
        <time>2014-02-12T08:32:23.000Z</time>
      </trkpt>
      <trkpt lat="45.91276" lon="6.49218">
        <ele>1792.5999755859</ele>
        <time>2014-02-12T08:32:24.000Z</time>
      </trkpt>
      <trkpt lat="45.91276" lon="6.49218">
        <ele>1792.5999755859</ele>
        <time>2014-02-12T08:32:25.000Z</time>
      </trkpt>
      <trkpt lat="45.91276" lon="6.49218">
        <ele>1792.5999755859</ele>
        <time>2014-02-12T08:32:26.000Z</time>
      </trkpt>
      <trkpt lat="45.91276" lon="6.49218">
        <ele>1792.5999755859</ele>
        <time>2014-02-12T08:32:27.000Z</time>
      </trkpt>
      <trkpt lat="45.91276" lon="6.49218">
        <ele>1792.8000488281</ele>
        <time>2014-02-12T08:32:28.000Z</time>
      </trkpt>
      <trkpt lat="45.91276" lon="6.49218">
        <ele>1792.8000488281</ele>
        <time>2014-02-12T08:32:29.000Z</time>
      </trkpt>
      <trkpt lat="45.91276" lon="6.49218">
        <ele>1792.8000488281</ele>
        <time>2014-02-12T08:32:30.000Z</time>
      </trkpt>
      <trkpt lat="45.91276" lon="6.49218">
        <ele>1792.8000488281</ele>
        <time>2014-02-12T08:32:31.000Z</time>
      </trkpt>
      <trkpt lat="45.91276" lon="6.49219">
        <ele>1793.1999511719</ele>
        <time>2014-02-12T08:32:32.000Z</time>
      </trkpt>
      <trkpt lat="45.91276" lon="6.49219">
        <ele>1793.1999511719</ele>
        <time>2014-02-12T08:32:33.000Z</time>
      </trkpt>
      <trkpt lat="45.91274" lon="6.4922">
        <ele>1793.5999755859</ele>
        <time>2014-02-12T08:32:34.000Z</time>
      </trkpt>
      <trkpt lat="45.91273" lon="6.4922">
        <ele>1793.8000488281</ele>
        <time>2014-02-12T08:32:35.000Z</time>
      </trkpt>
      <trkpt lat="45.91273" lon="6.4922">
        <ele>1794</ele>
        <time>2014-02-12T08:32:36.000Z</time>
      </trkpt>
      <trkpt lat="45.91272" lon="6.4922">
        <ele>1794.1999511719</ele>
        <time>2014-02-12T08:32:37.000Z</time>
      </trkpt>
      <trkpt lat="45.91271" lon="6.4922">
        <ele>1794.4000244141</ele>
        <time>2014-02-12T08:32:38.000Z</time>
      </trkpt>
      <trkpt lat="45.91271" lon="6.4922">
        <ele>1794.5999755859</ele>
        <time>2014-02-12T08:32:39.000Z</time>
      </trkpt>
      <trkpt lat="45.91271" lon="6.4922">
        <ele>1794.5999755859</ele>
        <time>2014-02-12T08:32:40.000Z</time>
      </trkpt>
      <trkpt lat="45.91271" lon="6.4922">
        <ele>1794.5999755859</ele>
        <time>2014-02-12T08:32:41.000Z</time>
      </trkpt>
      <trkpt lat="45.91271" lon="6.4922">
        <ele>1794.5999755859</ele>
        <time>2014-02-12T08:32:42.000Z</time>
      </trkpt>
      <trkpt lat="45.9127" lon="6.49221">
        <ele>1794.5999755859</ele>
        <time>2014-02-12T08:32:43.000Z</time>
      </trkpt>
      <trkpt lat="45.9127" lon="6.49221">
        <ele>1794.8000488281</ele>
        <time>2014-02-12T08:32:44.000Z</time>
      </trkpt>
      <trkpt lat="45.91269" lon="6.49221">
        <ele>1795</ele>
        <time>2014-02-12T08:32:45.000Z</time>
      </trkpt>
      <trkpt lat="45.91268" lon="6.49221">
        <ele>1795</ele>
        <time>2014-02-12T08:32:46.000Z</time>
      </trkpt>
      <trkpt lat="45.91268" lon="6.49221">
        <ele>1795.1999511719</ele>
        <time>2014-02-12T08:32:47.000Z</time>
      </trkpt>
      <trkpt lat="45.91268" lon="6.4922">
        <ele>1795.1999511719</ele>
        <time>2014-02-12T08:32:48.000Z</time>
      </trkpt>
      <trkpt lat="45.91267" lon="6.4922">
        <ele>1795.1999511719</ele>
        <time>2014-02-12T08:32:49.000Z</time>
      </trkpt>
      <trkpt lat="45.91267" lon="6.4922">
        <ele>1795.4000244141</ele>
        <time>2014-02-12T08:32:50.000Z</time>
      </trkpt>
      <trkpt lat="45.91266" lon="6.4922">
        <ele>1795.4000244141</ele>
        <time>2014-02-12T08:32:51.000Z</time>
      </trkpt>
      <trkpt lat="45.91265" lon="6.4922">
        <ele>1795.5999755859</ele>
        <time>2014-02-12T08:32:52.000Z</time>
      </trkpt>
      <trkpt lat="45.91264" lon="6.4922">
        <ele>1795.5999755859</ele>
        <time>2014-02-12T08:32:53.000Z</time>
      </trkpt>
      <trkpt lat="45.91264" lon="6.4922">
        <ele>1795.8000488281</ele>
        <time>2014-02-12T08:32:54.000Z</time>
      </trkpt>
      <trkpt lat="45.91263" lon="6.4922">
        <ele>1795.8000488281</ele>
        <time>2014-02-12T08:32:55.000Z</time>
      </trkpt>
      <trkpt lat="45.91263" lon="6.4922">
        <ele>1796</ele>
        <time>2014-02-12T08:32:56.000Z</time>
      </trkpt>
      <trkpt lat="45.91262" lon="6.49219">
        <ele>1796</ele>
        <time>2014-02-12T08:32:57.000Z</time>
      </trkpt>
      <trkpt lat="45.91261" lon="6.49219">
        <ele>1796</ele>
        <time>2014-02-12T08:32:58.000Z</time>
      </trkpt>
      <trkpt lat="45.9126" lon="6.49218">
        <ele>1796</ele>
        <time>2014-02-12T08:32:59.000Z</time>
      </trkpt>
      <trkpt lat="45.91259" lon="6.49218">
        <ele>1796.1999511719</ele>
        <time>2014-02-12T08:33:00.000Z</time>
      </trkpt>
      <trkpt lat="45.91258" lon="6.49218">
        <ele>1796.1999511719</ele>
        <time>2014-02-12T08:33:01.000Z</time>
      </trkpt>
      <trkpt lat="45.91259" lon="6.49219">
        <ele>1796.5999755859</ele>
        <time>2014-02-12T08:33:02.000Z</time>
      </trkpt>
      <trkpt lat="45.91258" lon="6.4922">
        <ele>1797</ele>
        <time>2014-02-12T08:33:03.000Z</time>
      </trkpt>
      <trkpt lat="45.91258" lon="6.49221">
        <ele>1797.4000244141</ele>
        <time>2014-02-12T08:33:04.000Z</time>
      </trkpt>
      <trkpt lat="45.91258" lon="6.49223">
        <ele>1797.8000488281</ele>
        <time>2014-02-12T08:33:05.000Z</time>
      </trkpt>
      <trkpt lat="45.91257" lon="6.49224">
        <ele>1798.4000244141</ele>
        <time>2014-02-12T08:33:06.000Z</time>
      </trkpt>
      <trkpt lat="45.91257" lon="6.49226">
        <ele>1798.8000488281</ele>
        <time>2014-02-12T08:33:07.000Z</time>
      </trkpt>
      <trkpt lat="45.91257" lon="6.49227">
        <ele>1799.1999511719</ele>
        <time>2014-02-12T08:33:08.000Z</time>
      </trkpt>
      <trkpt lat="45.91257" lon="6.49227">
        <ele>1799.1999511719</ele>
        <time>2014-02-12T08:33:09.000Z</time>
      </trkpt>
      <trkpt lat="45.91257" lon="6.49228">
        <ele>1799.5999755859</ele>
        <time>2014-02-12T08:33:10.000Z</time>
      </trkpt>
      <trkpt lat="45.91257" lon="6.49229">
        <ele>1800</ele>
        <time>2014-02-12T08:33:11.000Z</time>
      </trkpt>
      <trkpt lat="45.91257" lon="6.4923">
        <ele>1800.4000244141</ele>
        <time>2014-02-12T08:33:12.000Z</time>
      </trkpt>
      <trkpt lat="45.91257" lon="6.49232">
        <ele>1800.5999755859</ele>
        <time>2014-02-12T08:33:13.000Z</time>
      </trkpt>
      <trkpt lat="45.91257" lon="6.49232">
        <ele>1800.8000488281</ele>
        <time>2014-02-12T08:33:14.000Z</time>
      </trkpt>
      <trkpt lat="45.91258" lon="6.49233">
        <ele>1801.1999511719</ele>
        <time>2014-02-12T08:33:15.000Z</time>
      </trkpt>
      <trkpt lat="45.91258" lon="6.49235">
        <ele>1801.8000488281</ele>
        <time>2014-02-12T08:33:16.000Z</time>
      </trkpt>
      <trkpt lat="45.91258" lon="6.49236">
        <ele>1802.5999755859</ele>
        <time>2014-02-12T08:33:17.000Z</time>
      </trkpt>
      <trkpt lat="45.91258" lon="6.49238">
        <ele>1803.1999511719</ele>
        <time>2014-02-12T08:33:18.000Z</time>
      </trkpt>
      <trkpt lat="45.91258" lon="6.49239">
        <ele>1804</ele>
        <time>2014-02-12T08:33:19.000Z</time>
      </trkpt>
      <trkpt lat="45.91259" lon="6.4924">
        <ele>1804.5999755859</ele>
        <time>2014-02-12T08:33:20.000Z</time>
      </trkpt>
      <trkpt lat="45.91259" lon="6.4924">
        <ele>1804.5999755859</ele>
        <time>2014-02-12T08:33:21.000Z</time>
      </trkpt>
      <trkpt lat="45.91258" lon="6.49241">
        <ele>1805.1999511719</ele>
        <time>2014-02-12T08:33:22.000Z</time>
      </trkpt>
      <trkpt lat="45.91258" lon="6.49242">
        <ele>1805.8000488281</ele>
        <time>2014-02-12T08:33:23.000Z</time>
      </trkpt>
      <trkpt lat="45.91258" lon="6.49243">
        <ele>1806.4000244141</ele>
        <time>2014-02-12T08:33:24.000Z</time>
      </trkpt>
      <trkpt lat="45.91258" lon="6.49243">
        <ele>1806.4000244141</ele>
        <time>2014-02-12T08:33:25.000Z</time>
      </trkpt>
      <trkpt lat="45.91258" lon="6.49243">
        <ele>1806.4000244141</ele>
        <time>2014-02-12T08:33:26.000Z</time>
      </trkpt>
      <trkpt lat="45.91258" lon="6.49243">
        <ele>1806.4000244141</ele>
        <time>2014-02-12T08:33:27.000Z</time>
      </trkpt>
      <trkpt lat="45.91258" lon="6.49243">
        <ele>1806.4000244141</ele>
        <time>2014-02-12T08:33:28.000Z</time>
      </trkpt>
      <trkpt lat="45.91257" lon="6.49243">
        <ele>1806.4000244141</ele>
        <time>2014-02-12T08:33:29.000Z</time>
      </trkpt>
      <trkpt lat="45.91257" lon="6.49243">
        <ele>1806.4000244141</ele>
        <time>2014-02-12T08:33:30.000Z</time>
      </trkpt>
      <trkpt lat="45.91256" lon="6.49243">
        <ele>1806.5999755859</ele>
        <time>2014-02-12T08:33:31.000Z</time>
      </trkpt>
      <trkpt lat="45.91255" lon="6.49243">
        <ele>1806.8000488281</ele>
        <time>2014-02-12T08:33:32.000Z</time>
      </trkpt>
      <trkpt lat="45.91254" lon="6.49243">
        <ele>1807</ele>
        <time>2014-02-12T08:33:33.000Z</time>
      </trkpt>
      <trkpt lat="45.91253" lon="6.49242">
        <ele>1806.5999755859</ele>
        <time>2014-02-12T08:33:34.000Z</time>
      </trkpt>
      <trkpt lat="45.91253" lon="6.49242">
        <ele>1806.4000244141</ele>
        <time>2014-02-12T08:33:35.000Z</time>
      </trkpt>
      <trkpt lat="45.91252" lon="6.49241">
        <ele>1806.1999511719</ele>
        <time>2014-02-12T08:33:36.000Z</time>
      </trkpt>
      <trkpt lat="45.91251" lon="6.49241">
        <ele>1806.4000244141</ele>
        <time>2014-02-12T08:33:37.000Z</time>
      </trkpt>
      <trkpt lat="45.91251" lon="6.49241">
        <ele>1806.4000244141</ele>
        <time>2014-02-12T08:33:38.000Z</time>
      </trkpt>
      <trkpt lat="45.91251" lon="6.49241">
        <ele>1806.4000244141</ele>
        <time>2014-02-12T08:33:39.000Z</time>
      </trkpt>
      <trkpt lat="45.9125" lon="6.4924">
        <ele>1806.4000244141</ele>
        <time>2014-02-12T08:33:40.000Z</time>
      </trkpt>
      <trkpt lat="45.9125" lon="6.4924">
        <ele>1806.4000244141</ele>
        <time>2014-02-12T08:33:41.000Z</time>
      </trkpt>
      <trkpt lat="45.91249" lon="6.4924">
        <ele>1806.4000244141</ele>
        <time>2014-02-12T08:33:42.000Z</time>
      </trkpt>
      <trkpt lat="45.91248" lon="6.4924">
        <ele>1806.5999755859</ele>
        <time>2014-02-12T08:33:43.000Z</time>
      </trkpt>
      <trkpt lat="45.91248" lon="6.4924">
        <ele>1806.5999755859</ele>
        <time>2014-02-12T08:33:44.000Z</time>
      </trkpt>
      <trkpt lat="45.91247" lon="6.4924">
        <ele>1806.5999755859</ele>
        <time>2014-02-12T08:33:45.000Z</time>
      </trkpt>
      <trkpt lat="45.91246" lon="6.49239">
        <ele>1806.4000244141</ele>
        <time>2014-02-12T08:33:46.000Z</time>
      </trkpt>
      <trkpt lat="45.91245" lon="6.49238">
        <ele>1806.1999511719</ele>
        <time>2014-02-12T08:33:47.000Z</time>
      </trkpt>
      <trkpt lat="45.91244" lon="6.49238">
        <ele>1806.1999511719</ele>
        <time>2014-02-12T08:33:48.000Z</time>
      </trkpt>
      <trkpt lat="45.91244" lon="6.49238">
        <ele>1806.1999511719</ele>
        <time>2014-02-12T08:33:49.000Z</time>
      </trkpt>
      <trkpt lat="45.91243" lon="6.49237">
        <ele>1806</ele>
        <time>2014-02-12T08:33:50.000Z</time>
      </trkpt>
      <trkpt lat="45.91243" lon="6.49237">
        <ele>1806</ele>
        <time>2014-02-12T08:33:51.000Z</time>
      </trkpt>
      <trkpt lat="45.91243" lon="6.49237">
        <ele>1806</ele>
        <time>2014-02-12T08:33:52.000Z</time>
      </trkpt>
      <trkpt lat="45.91243" lon="6.49237">
        <ele>1806</ele>
        <time>2014-02-12T08:33:53.000Z</time>
      </trkpt>
      <trkpt lat="45.91243" lon="6.49237">
        <ele>1806</ele>
        <time>2014-02-12T08:33:54.000Z</time>
      </trkpt>
      <trkpt lat="45.91244" lon="6.49239">
        <ele>1807.1999511719</ele>
        <time>2014-02-12T08:33:55.000Z</time>
      </trkpt>
      <trkpt lat="45.91244" lon="6.49239">
        <ele>1807.1999511719</ele>
        <time>2014-02-12T08:33:56.000Z</time>
      </trkpt>
      <trkpt lat="45.91244" lon="6.49241">
        <ele>1808</ele>
        <time>2014-02-12T08:33:57.000Z</time>
      </trkpt>
      <trkpt lat="45.91244" lon="6.49241">
        <ele>1808</ele>
        <time>2014-02-12T08:33:58.000Z</time>
      </trkpt>
      <trkpt lat="45.91244" lon="6.49243">
        <ele>1808.8000488281</ele>
        <time>2014-02-12T08:33:59.000Z</time>
      </trkpt>
      <trkpt lat="45.91244" lon="6.49245">
        <ele>1809.8000488281</ele>
        <time>2014-02-12T08:34:00.000Z</time>
      </trkpt>
      <trkpt lat="45.91244" lon="6.49246">
        <ele>1810.8000488281</ele>
        <time>2014-02-12T08:34:01.000Z</time>
      </trkpt>
      <trkpt lat="45.91244" lon="6.49248">
        <ele>1811.5999755859</ele>
        <time>2014-02-12T08:34:02.000Z</time>
      </trkpt>
      <trkpt lat="45.91244" lon="6.4925">
        <ele>1812.4000244141</ele>
        <time>2014-02-12T08:34:03.000Z</time>
      </trkpt>
      <trkpt lat="45.91244" lon="6.4925">
        <ele>1812.4000244141</ele>
        <time>2014-02-12T08:34:04.000Z</time>
      </trkpt>
      <trkpt lat="45.91244" lon="6.49252">
        <ele>1813.8000488281</ele>
        <time>2014-02-12T08:34:05.000Z</time>
      </trkpt>
      <trkpt lat="45.91245" lon="6.49254">
        <ele>1814.8000488281</ele>
        <time>2014-02-12T08:34:06.000Z</time>
      </trkpt>
      <trkpt lat="45.91245" lon="6.49256">
        <ele>1815.8000488281</ele>
        <time>2014-02-12T08:34:07.000Z</time>
      </trkpt>
      <trkpt lat="45.91245" lon="6.49258">
        <ele>1816.5999755859</ele>
        <time>2014-02-12T08:34:08.000Z</time>
      </trkpt>
      <trkpt lat="45.91244" lon="6.4926">
        <ele>1817.4000244141</ele>
        <time>2014-02-12T08:34:09.000Z</time>
      </trkpt>
      <trkpt lat="45.91244" lon="6.4926">
        <ele>1817.4000244141</ele>
        <time>2014-02-12T08:34:10.000Z</time>
      </trkpt>
      <trkpt lat="45.91244" lon="6.4926">
        <ele>1817.4000244141</ele>
        <time>2014-02-12T08:34:11.000Z</time>
      </trkpt>
      <trkpt lat="45.91244" lon="6.4926">
        <ele>1817.4000244141</ele>
        <time>2014-02-12T08:34:12.000Z</time>
      </trkpt>
      <trkpt lat="45.91243" lon="6.49259">
        <ele>1817.4000244141</ele>
        <time>2014-02-12T08:34:13.000Z</time>
      </trkpt>
      <trkpt lat="45.91242" lon="6.49259">
        <ele>1817.1999511719</ele>
        <time>2014-02-12T08:34:14.000Z</time>
      </trkpt>
      <trkpt lat="45.91241" lon="6.49258">
        <ele>1817.1999511719</ele>
        <time>2014-02-12T08:34:15.000Z</time>
      </trkpt>
      <trkpt lat="45.9124" lon="6.49258">
        <ele>1817.1999511719</ele>
        <time>2014-02-12T08:34:16.000Z</time>
      </trkpt>
      <trkpt lat="45.9124" lon="6.49258">
        <ele>1817.1999511719</ele>
        <time>2014-02-12T08:34:17.000Z</time>
      </trkpt>
      <trkpt lat="45.91239" lon="6.49257">
        <ele>1817</ele>
        <time>2014-02-12T08:34:18.000Z</time>
      </trkpt>
      <trkpt lat="45.91238" lon="6.49257">
        <ele>1817</ele>
        <time>2014-02-12T08:34:19.000Z</time>
      </trkpt>
      <trkpt lat="45.91238" lon="6.49257">
        <ele>1816.8000488281</ele>
        <time>2014-02-12T08:34:20.000Z</time>
      </trkpt>
      <trkpt lat="45.91237" lon="6.49256">
        <ele>1816.5999755859</ele>
        <time>2014-02-12T08:34:21.000Z</time>
      </trkpt>
      <trkpt lat="45.91237" lon="6.49255">
        <ele>1816.4000244141</ele>
        <time>2014-02-12T08:34:22.000Z</time>
      </trkpt>
      <trkpt lat="45.91236" lon="6.49255">
        <ele>1816.4000244141</ele>
        <time>2014-02-12T08:34:23.000Z</time>
      </trkpt>
      <trkpt lat="45.91235" lon="6.49254">
        <ele>1816.1999511719</ele>
        <time>2014-02-12T08:34:24.000Z</time>
      </trkpt>
      <trkpt lat="45.91235" lon="6.49254">
        <ele>1816</ele>
        <time>2014-02-12T08:34:25.000Z</time>
      </trkpt>
      <trkpt lat="45.91234" lon="6.49253">
        <ele>1815.8000488281</ele>
        <time>2014-02-12T08:34:26.000Z</time>
      </trkpt>
      <trkpt lat="45.91233" lon="6.49252">
        <ele>1815.4000244141</ele>
        <time>2014-02-12T08:34:27.000Z</time>
      </trkpt>
      <trkpt lat="45.91232" lon="6.49251">
        <ele>1815.1999511719</ele>
        <time>2014-02-12T08:34:28.000Z</time>
      </trkpt>
      <trkpt lat="45.91232" lon="6.49251">
        <ele>1815</ele>
        <time>2014-02-12T08:34:29.000Z</time>
      </trkpt>
      <trkpt lat="45.91231" lon="6.4925">
        <ele>1815</ele>
        <time>2014-02-12T08:34:30.000Z</time>
      </trkpt>
      <trkpt lat="45.91231" lon="6.4925">
        <ele>1814.8000488281</ele>
        <time>2014-02-12T08:34:31.000Z</time>
      </trkpt>
      <trkpt lat="45.9123" lon="6.49249">
        <ele>1814.5999755859</ele>
        <time>2014-02-12T08:34:32.000Z</time>
      </trkpt>
      <trkpt lat="45.91229" lon="6.49248">
        <ele>1814.1999511719</ele>
        <time>2014-02-12T08:34:33.000Z</time>
      </trkpt>
      <trkpt lat="45.91229" lon="6.49248">
        <ele>1814</ele>
        <time>2014-02-12T08:34:34.000Z</time>
      </trkpt>
      <trkpt lat="45.91228" lon="6.49247">
        <ele>1813.5999755859</ele>
        <time>2014-02-12T08:34:35.000Z</time>
      </trkpt>
      <trkpt lat="45.91228" lon="6.49246">
        <ele>1813.5999755859</ele>
        <time>2014-02-12T08:34:36.000Z</time>
      </trkpt>
      <trkpt lat="45.91227" lon="6.49246">
        <ele>1813.4000244141</ele>
        <time>2014-02-12T08:34:37.000Z</time>
      </trkpt>
      <trkpt lat="45.91227" lon="6.49246">
        <ele>1813.1999511719</ele>
        <time>2014-02-12T08:34:38.000Z</time>
      </trkpt>
      <trkpt lat="45.91226" lon="6.49245">
        <ele>1813</ele>
        <time>2014-02-12T08:34:39.000Z</time>
      </trkpt>
      <trkpt lat="45.91226" lon="6.49245">
        <ele>1813</ele>
        <time>2014-02-12T08:34:40.000Z</time>
      </trkpt>
      <trkpt lat="45.91225" lon="6.49244">
        <ele>1813</ele>
        <time>2014-02-12T08:34:41.000Z</time>
      </trkpt>
      <trkpt lat="45.91225" lon="6.49244">
        <ele>1812.8000488281</ele>
        <time>2014-02-12T08:34:42.000Z</time>
      </trkpt>
      <trkpt lat="45.91225" lon="6.49244">
        <ele>1812.5999755859</ele>
        <time>2014-02-12T08:34:43.000Z</time>
      </trkpt>
      <trkpt lat="45.91224" lon="6.49243">
        <ele>1812.5999755859</ele>
        <time>2014-02-12T08:34:44.000Z</time>
      </trkpt>
      <trkpt lat="45.91224" lon="6.49244">
        <ele>1812.8000488281</ele>
        <time>2014-02-12T08:34:45.000Z</time>
      </trkpt>
      <trkpt lat="45.91224" lon="6.49244">
        <ele>1813</ele>
        <time>2014-02-12T08:34:46.000Z</time>
      </trkpt>
      <trkpt lat="45.91224" lon="6.49244">
        <ele>1813</ele>
        <time>2014-02-12T08:34:47.000Z</time>
      </trkpt>
      <trkpt lat="45.91224" lon="6.49245">
        <ele>1813.5999755859</ele>
        <time>2014-02-12T08:34:48.000Z</time>
      </trkpt>
      <trkpt lat="45.91224" lon="6.49245">
        <ele>1813.5999755859</ele>
        <time>2014-02-12T08:34:49.000Z</time>
      </trkpt>
      <trkpt lat="45.91224" lon="6.49246">
        <ele>1814</ele>
        <time>2014-02-12T08:34:50.000Z</time>
      </trkpt>
      <trkpt lat="45.91224" lon="6.49246">
        <ele>1814</ele>
        <time>2014-02-12T08:34:51.000Z</time>
      </trkpt>
      <trkpt lat="45.91224" lon="6.49248">
        <ele>1814.5999755859</ele>
        <time>2014-02-12T08:34:52.000Z</time>
      </trkpt>
      <trkpt lat="45.91224" lon="6.49248">
        <ele>1814.5999755859</ele>
        <time>2014-02-12T08:34:53.000Z</time>
      </trkpt>
      <trkpt lat="45.91224" lon="6.49249">
        <ele>1815.4000244141</ele>
        <time>2014-02-12T08:34:54.000Z</time>
      </trkpt>
      <trkpt lat="45.91224" lon="6.49251">
        <ele>1816.4000244141</ele>
        <time>2014-02-12T08:34:55.000Z</time>
      </trkpt>
      <trkpt lat="45.91224" lon="6.49253">
        <ele>1817</ele>
        <time>2014-02-12T08:34:56.000Z</time>
      </trkpt>
      <trkpt lat="45.91224" lon="6.49253">
        <ele>1817</ele>
        <time>2014-02-12T08:34:57.000Z</time>
      </trkpt>
      <trkpt lat="45.91224" lon="6.49253">
        <ele>1817</ele>
        <time>2014-02-12T08:34:58.000Z</time>
      </trkpt>
      <trkpt lat="45.91224" lon="6.49253">
        <ele>1817</ele>
        <time>2014-02-12T08:34:59.000Z</time>
      </trkpt>
      <trkpt lat="45.91224" lon="6.49253">
        <ele>1817</ele>
        <time>2014-02-12T08:35:00.000Z</time>
      </trkpt>
      <trkpt lat="45.91224" lon="6.49253">
        <ele>1817</ele>
        <time>2014-02-12T08:35:01.000Z</time>
      </trkpt>
      <trkpt lat="45.91224" lon="6.49253">
        <ele>1817</ele>
        <time>2014-02-12T08:35:02.000Z</time>
      </trkpt>
      <trkpt lat="45.91224" lon="6.49253">
        <ele>1817</ele>
        <time>2014-02-12T08:35:03.000Z</time>
      </trkpt>
      <trkpt lat="45.91224" lon="6.49255">
        <ele>1818</ele>
        <time>2014-02-12T08:35:04.000Z</time>
      </trkpt>
      <trkpt lat="45.91224" lon="6.49255">
        <ele>1818</ele>
        <time>2014-02-12T08:35:05.000Z</time>
      </trkpt>
      <trkpt lat="45.91224" lon="6.49255">
        <ele>1818</ele>
        <time>2014-02-12T08:35:06.000Z</time>
      </trkpt>
      <trkpt lat="45.91224" lon="6.49255">
        <ele>1818</ele>
        <time>2014-02-12T08:35:07.000Z</time>
      </trkpt>
      <trkpt lat="45.91224" lon="6.49255">
        <ele>1818</ele>
        <time>2014-02-12T08:35:08.000Z</time>
      </trkpt>
      <trkpt lat="45.91224" lon="6.49255">
        <ele>1818</ele>
        <time>2014-02-12T08:35:09.000Z</time>
      </trkpt>
      <trkpt lat="45.91225" lon="6.49257">
        <ele>1818.8000488281</ele>
        <time>2014-02-12T08:35:10.000Z</time>
      </trkpt>
      <trkpt lat="45.91225" lon="6.49257">
        <ele>1818.8000488281</ele>
        <time>2014-02-12T08:35:11.000Z</time>
      </trkpt>
      <trkpt lat="45.91225" lon="6.49258">
        <ele>1819.5999755859</ele>
        <time>2014-02-12T08:35:12.000Z</time>
      </trkpt>
      <trkpt lat="45.91225" lon="6.49258">
        <ele>1819.5999755859</ele>
        <time>2014-02-12T08:35:13.000Z</time>
      </trkpt>
      <trkpt lat="45.91224" lon="6.49259">
        <ele>1819.8000488281</ele>
        <time>2014-02-12T08:35:14.000Z</time>
      </trkpt>
      <trkpt lat="45.91224" lon="6.49259">
        <ele>1819.8000488281</ele>
        <time>2014-02-12T08:35:15.000Z</time>
      </trkpt>
      <trkpt lat="45.91224" lon="6.49259">
        <ele>1819.8000488281</ele>
        <time>2014-02-12T08:35:16.000Z</time>
      </trkpt>
      <trkpt lat="45.91223" lon="6.4926">
        <ele>1820.5999755859</ele>
        <time>2014-02-12T08:35:17.000Z</time>
      </trkpt>
      <trkpt lat="45.91222" lon="6.4926">
        <ele>1820.8000488281</ele>
        <time>2014-02-12T08:35:18.000Z</time>
      </trkpt>
      <trkpt lat="45.91221" lon="6.4926">
        <ele>1821.5999755859</ele>
        <time>2014-02-12T08:35:19.000Z</time>
      </trkpt>
      <trkpt lat="45.9122" lon="6.49262">
        <ele>1822.4000244141</ele>
        <time>2014-02-12T08:35:20.000Z</time>
      </trkpt>
      <trkpt lat="45.9122" lon="6.49262">
        <ele>1822.8000488281</ele>
        <time>2014-02-12T08:35:21.000Z</time>
      </trkpt>
      <trkpt lat="45.91219" lon="6.49262">
        <ele>1823.4000244141</ele>
        <time>2014-02-12T08:35:22.000Z</time>
      </trkpt>
      <trkpt lat="45.91218" lon="6.49262">
        <ele>1823.5999755859</ele>
        <time>2014-02-12T08:35:23.000Z</time>
      </trkpt>
      <trkpt lat="45.91217" lon="6.49262">
        <ele>1824</ele>
        <time>2014-02-12T08:35:24.000Z</time>
      </trkpt>
      <trkpt lat="45.91217" lon="6.49262">
        <ele>1824.1999511719</ele>
        <time>2014-02-12T08:35:25.000Z</time>
      </trkpt>
      <trkpt lat="45.91216" lon="6.49262">
        <ele>1824.4000244141</ele>
        <time>2014-02-12T08:35:26.000Z</time>
      </trkpt>
      <trkpt lat="45.91215" lon="6.49262">
        <ele>1824.5999755859</ele>
        <time>2014-02-12T08:35:27.000Z</time>
      </trkpt>
      <trkpt lat="45.91214" lon="6.49262">
        <ele>1824.8000488281</ele>
        <time>2014-02-12T08:35:28.000Z</time>
      </trkpt>
      <trkpt lat="45.91214" lon="6.49262">
        <ele>1825</ele>
        <time>2014-02-12T08:35:29.000Z</time>
      </trkpt>
      <trkpt lat="45.91214" lon="6.49262">
        <ele>1825.1999511719</ele>
        <time>2014-02-12T08:35:30.000Z</time>
      </trkpt>
      <trkpt lat="45.91213" lon="6.49262">
        <ele>1825.4000244141</ele>
        <time>2014-02-12T08:35:31.000Z</time>
      </trkpt>
      <trkpt lat="45.91212" lon="6.49262">
        <ele>1825.5999755859</ele>
        <time>2014-02-12T08:35:32.000Z</time>
      </trkpt>
      <trkpt lat="45.91212" lon="6.49261">
        <ele>1825.4000244141</ele>
        <time>2014-02-12T08:35:33.000Z</time>
      </trkpt>
      <trkpt lat="45.91211" lon="6.49261">
        <ele>1825.4000244141</ele>
        <time>2014-02-12T08:35:34.000Z</time>
      </trkpt>
      <trkpt lat="45.91211" lon="6.4926">
        <ele>1825.1999511719</ele>
        <time>2014-02-12T08:35:35.000Z</time>
      </trkpt>
      <trkpt lat="45.91211" lon="6.4926">
        <ele>1825.1999511719</ele>
        <time>2014-02-12T08:35:36.000Z</time>
      </trkpt>
      <trkpt lat="45.9121" lon="6.49259">
        <ele>1825</ele>
        <time>2014-02-12T08:35:37.000Z</time>
      </trkpt>
      <trkpt lat="45.91209" lon="6.49259">
        <ele>1825.1999511719</ele>
        <time>2014-02-12T08:35:38.000Z</time>
      </trkpt>
      <trkpt lat="45.91209" lon="6.49258">
        <ele>1825.4000244141</ele>
        <time>2014-02-12T08:35:39.000Z</time>
      </trkpt>
      <trkpt lat="45.91208" lon="6.49258">
        <ele>1825.4000244141</ele>
        <time>2014-02-12T08:35:40.000Z</time>
      </trkpt>
      <trkpt lat="45.91208" lon="6.49258">
        <ele>1825.5999755859</ele>
        <time>2014-02-12T08:35:41.000Z</time>
      </trkpt>
      <trkpt lat="45.91207" lon="6.49258">
        <ele>1825.5999755859</ele>
        <time>2014-02-12T08:35:42.000Z</time>
      </trkpt>
      <trkpt lat="45.91207" lon="6.49258">
        <ele>1825.5999755859</ele>
        <time>2014-02-12T08:35:43.000Z</time>
      </trkpt>
      <trkpt lat="45.91206" lon="6.49257">
        <ele>1825.4000244141</ele>
        <time>2014-02-12T08:35:44.000Z</time>
      </trkpt>
      <trkpt lat="45.91206" lon="6.49256">
        <ele>1825.4000244141</ele>
        <time>2014-02-12T08:35:45.000Z</time>
      </trkpt>
      <trkpt lat="45.91205" lon="6.49255">
        <ele>1825.1999511719</ele>
        <time>2014-02-12T08:35:46.000Z</time>
      </trkpt>
      <trkpt lat="45.91205" lon="6.49255">
        <ele>1825.1999511719</ele>
        <time>2014-02-12T08:35:47.000Z</time>
      </trkpt>
      <trkpt lat="45.91204" lon="6.49255">
        <ele>1825.4000244141</ele>
        <time>2014-02-12T08:35:48.000Z</time>
      </trkpt>
      <trkpt lat="45.91204" lon="6.49255">
        <ele>1825.5999755859</ele>
        <time>2014-02-12T08:35:49.000Z</time>
      </trkpt>
      <trkpt lat="45.91203" lon="6.49255">
        <ele>1825.8000488281</ele>
        <time>2014-02-12T08:35:50.000Z</time>
      </trkpt>
      <trkpt lat="45.91203" lon="6.49255">
        <ele>1826</ele>
        <time>2014-02-12T08:35:51.000Z</time>
      </trkpt>
      <trkpt lat="45.91203" lon="6.49256">
        <ele>1826.4000244141</ele>
        <time>2014-02-12T08:35:52.000Z</time>
      </trkpt>
      <trkpt lat="45.91202" lon="6.49256">
        <ele>1826.4000244141</ele>
        <time>2014-02-12T08:35:53.000Z</time>
      </trkpt>
      <trkpt lat="45.91202" lon="6.49256">
        <ele>1826.5999755859</ele>
        <time>2014-02-12T08:35:54.000Z</time>
      </trkpt>
      <trkpt lat="45.91202" lon="6.49256">
        <ele>1826.5999755859</ele>
        <time>2014-02-12T08:35:55.000Z</time>
      </trkpt>
      <trkpt lat="45.91202" lon="6.49256">
        <ele>1826.5999755859</ele>
        <time>2014-02-12T08:35:56.000Z</time>
      </trkpt>
      <trkpt lat="45.91202" lon="6.49256">
        <ele>1826.5999755859</ele>
        <time>2014-02-12T08:35:57.000Z</time>
      </trkpt>
      <trkpt lat="45.91202" lon="6.49257">
        <ele>1827</ele>
        <time>2014-02-12T08:35:58.000Z</time>
      </trkpt>
      <trkpt lat="45.91202" lon="6.49257">
        <ele>1827.1999511719</ele>
        <time>2014-02-12T08:35:59.000Z</time>
      </trkpt>
      <trkpt lat="45.91202" lon="6.49258">
        <ele>1828</ele>
        <time>2014-02-12T08:36:00.000Z</time>
      </trkpt>
      <trkpt lat="45.91201" lon="6.4926">
        <ele>1829</ele>
        <time>2014-02-12T08:36:01.000Z</time>
      </trkpt>
      <trkpt lat="45.91201" lon="6.49261">
        <ele>1829.5999755859</ele>
        <time>2014-02-12T08:36:02.000Z</time>
      </trkpt>
      <trkpt lat="45.912" lon="6.49263">
        <ele>1830.4000244141</ele>
        <time>2014-02-12T08:36:03.000Z</time>
      </trkpt>
      <trkpt lat="45.912" lon="6.49264">
        <ele>1831.1999511719</ele>
        <time>2014-02-12T08:36:04.000Z</time>
      </trkpt>
      <trkpt lat="45.912" lon="6.49265">
        <ele>1831.5999755859</ele>
        <time>2014-02-12T08:36:05.000Z</time>
      </trkpt>
      <trkpt lat="45.91201" lon="6.49266">
        <ele>1832</ele>
        <time>2014-02-12T08:36:06.000Z</time>
      </trkpt>
      <trkpt lat="45.91201" lon="6.49268">
        <ele>1832.5999755859</ele>
        <time>2014-02-12T08:36:07.000Z</time>
      </trkpt>
      <trkpt lat="45.91201" lon="6.49269">
        <ele>1833.1999511719</ele>
        <time>2014-02-12T08:36:08.000Z</time>
      </trkpt>
      <trkpt lat="45.91201" lon="6.4927">
        <ele>1833.8000488281</ele>
        <time>2014-02-12T08:36:09.000Z</time>
      </trkpt>
      <trkpt lat="45.91201" lon="6.49272">
        <ele>1834.5999755859</ele>
        <time>2014-02-12T08:36:10.000Z</time>
      </trkpt>
      <trkpt lat="45.912" lon="6.49273">
        <ele>1835</ele>
        <time>2014-02-12T08:36:11.000Z</time>
      </trkpt>
      <trkpt lat="45.912" lon="6.49273">
        <ele>1835.5999755859</ele>
        <time>2014-02-12T08:36:12.000Z</time>
      </trkpt>
      <trkpt lat="45.912" lon="6.49274">
        <ele>1836.1999511719</ele>
        <time>2014-02-12T08:36:13.000Z</time>
      </trkpt>
      <trkpt lat="45.912" lon="6.49275">
        <ele>1836.4000244141</ele>
        <time>2014-02-12T08:36:14.000Z</time>
      </trkpt>
      <trkpt lat="45.912" lon="6.49276">
        <ele>1836.8000488281</ele>
        <time>2014-02-12T08:36:15.000Z</time>
      </trkpt>
      <trkpt lat="45.912" lon="6.49277">
        <ele>1837.4000244141</ele>
        <time>2014-02-12T08:36:16.000Z</time>
      </trkpt>
      <trkpt lat="45.91201" lon="6.49279">
        <ele>1838</ele>
        <time>2014-02-12T08:36:17.000Z</time>
      </trkpt>
      <trkpt lat="45.91201" lon="6.4928">
        <ele>1838</ele>
        <time>2014-02-12T08:36:18.000Z</time>
      </trkpt>
      <trkpt lat="45.91202" lon="6.49281">
        <ele>1838.4000244141</ele>
        <time>2014-02-12T08:36:19.000Z</time>
      </trkpt>
      <trkpt lat="45.91203" lon="6.49282">
        <ele>1838.4000244141</ele>
        <time>2014-02-12T08:36:20.000Z</time>
      </trkpt>
      <trkpt lat="45.91203" lon="6.49282">
        <ele>1838.5999755859</ele>
        <time>2014-02-12T08:36:21.000Z</time>
      </trkpt>
      <trkpt lat="45.91203" lon="6.49283">
        <ele>1838.8000488281</ele>
        <time>2014-02-12T08:36:22.000Z</time>
      </trkpt>
      <trkpt lat="45.91203" lon="6.49285">
        <ele>1839.5999755859</ele>
        <time>2014-02-12T08:36:23.000Z</time>
      </trkpt>
      <trkpt lat="45.91204" lon="6.49286">
        <ele>1840.1999511719</ele>
        <time>2014-02-12T08:36:24.000Z</time>
      </trkpt>
      <trkpt lat="45.91204" lon="6.49288">
        <ele>1840.8000488281</ele>
        <time>2014-02-12T08:36:25.000Z</time>
      </trkpt>
      <trkpt lat="45.91204" lon="6.49289">
        <ele>1841.4000244141</ele>
        <time>2014-02-12T08:36:26.000Z</time>
      </trkpt>
      <trkpt lat="45.91204" lon="6.4929">
        <ele>1841.8000488281</ele>
        <time>2014-02-12T08:36:27.000Z</time>
      </trkpt>
      <trkpt lat="45.91204" lon="6.49291">
        <ele>1842</ele>
        <time>2014-02-12T08:36:28.000Z</time>
      </trkpt>
      <trkpt lat="45.91204" lon="6.49291">
        <ele>1842.1999511719</ele>
        <time>2014-02-12T08:36:29.000Z</time>
      </trkpt>
      <trkpt lat="45.91204" lon="6.49291">
        <ele>1842.1999511719</ele>
        <time>2014-02-12T08:36:30.000Z</time>
      </trkpt>
      <trkpt lat="45.91204" lon="6.4929">
        <ele>1841.8000488281</ele>
        <time>2014-02-12T08:36:31.000Z</time>
      </trkpt>
      <trkpt lat="45.91204" lon="6.4929">
        <ele>1841.8000488281</ele>
        <time>2014-02-12T08:36:32.000Z</time>
      </trkpt>
      <trkpt lat="45.91204" lon="6.4929">
        <ele>1841.8000488281</ele>
        <time>2014-02-12T08:36:33.000Z</time>
      </trkpt>
      <trkpt lat="45.91204" lon="6.4929">
        <ele>1841.8000488281</ele>
        <time>2014-02-12T08:36:34.000Z</time>
      </trkpt>
      <trkpt lat="45.91204" lon="6.4929">
        <ele>1841.8000488281</ele>
        <time>2014-02-12T08:36:35.000Z</time>
      </trkpt>
      <trkpt lat="45.91204" lon="6.4929">
        <ele>1841.8000488281</ele>
        <time>2014-02-12T08:36:36.000Z</time>
      </trkpt>
      <trkpt lat="45.91203" lon="6.4929">
        <ele>1841.8000488281</ele>
        <time>2014-02-12T08:36:37.000Z</time>
      </trkpt>
      <trkpt lat="45.91203" lon="6.49288">
        <ele>1841.5999755859</ele>
        <time>2014-02-12T08:36:38.000Z</time>
      </trkpt>
      <trkpt lat="45.91201" lon="6.49288">
        <ele>1842</ele>
        <time>2014-02-12T08:36:39.000Z</time>
      </trkpt>
      <trkpt lat="45.912" lon="6.49287">
        <ele>1842</ele>
        <time>2014-02-12T08:36:40.000Z</time>
      </trkpt>
      <trkpt lat="45.91199" lon="6.49288">
        <ele>1842.4000244141</ele>
        <time>2014-02-12T08:36:41.000Z</time>
      </trkpt>
      <trkpt lat="45.91199" lon="6.49287">
        <ele>1842.4000244141</ele>
        <time>2014-02-12T08:36:42.000Z</time>
      </trkpt>
      <trkpt lat="45.91198" lon="6.49287">
        <ele>1842.5999755859</ele>
        <time>2014-02-12T08:36:43.000Z</time>
      </trkpt>
      <trkpt lat="45.91197" lon="6.49286">
        <ele>1842.5999755859</ele>
        <time>2014-02-12T08:36:44.000Z</time>
      </trkpt>
      <trkpt lat="45.91197" lon="6.49286">
        <ele>1842.5999755859</ele>
        <time>2014-02-12T08:36:45.000Z</time>
      </trkpt>
      <trkpt lat="45.91197" lon="6.49286">
        <ele>1842.5999755859</ele>
        <time>2014-02-12T08:36:46.000Z</time>
      </trkpt>
      <trkpt lat="45.91196" lon="6.49285">
        <ele>1842.5999755859</ele>
        <time>2014-02-12T08:36:47.000Z</time>
      </trkpt>
      <trkpt lat="45.91196" lon="6.49285">
        <ele>1842.4000244141</ele>
        <time>2014-02-12T08:36:48.000Z</time>
      </trkpt>
      <trkpt lat="45.91195" lon="6.49284">
        <ele>1842.4000244141</ele>
        <time>2014-02-12T08:36:49.000Z</time>
      </trkpt>
      <trkpt lat="45.91195" lon="6.49284">
        <ele>1842.5999755859</ele>
        <time>2014-02-12T08:36:50.000Z</time>
      </trkpt>
      <trkpt lat="45.91193" lon="6.49284">
        <ele>1843</ele>
        <time>2014-02-12T08:36:51.000Z</time>
      </trkpt>
      <trkpt lat="45.91193" lon="6.49284">
        <ele>1843.1999511719</ele>
        <time>2014-02-12T08:36:52.000Z</time>
      </trkpt>
      <trkpt lat="45.91193" lon="6.49284">
        <ele>1843.1999511719</ele>
        <time>2014-02-12T08:36:53.000Z</time>
      </trkpt>
      <trkpt lat="45.91193" lon="6.49284">
        <ele>1843.1999511719</ele>
        <time>2014-02-12T08:36:54.000Z</time>
      </trkpt>
      <trkpt lat="45.91193" lon="6.49284">
        <ele>1843.1999511719</ele>
        <time>2014-02-12T08:36:55.000Z</time>
      </trkpt>
      <trkpt lat="45.91192" lon="6.49283">
        <ele>1843.1999511719</ele>
        <time>2014-02-12T08:36:56.000Z</time>
      </trkpt>
      <trkpt lat="45.91191" lon="6.49283">
        <ele>1843.4000244141</ele>
        <time>2014-02-12T08:36:57.000Z</time>
      </trkpt>
      <trkpt lat="45.91191" lon="6.49283">
        <ele>1843.4000244141</ele>
        <time>2014-02-12T08:36:58.000Z</time>
      </trkpt>
      <trkpt lat="45.9119" lon="6.49282">
        <ele>1843.4000244141</ele>
        <time>2014-02-12T08:36:59.000Z</time>
      </trkpt>
      <trkpt lat="45.91189" lon="6.49282">
        <ele>1843.4000244141</ele>
        <time>2014-02-12T08:37:00.000Z</time>
      </trkpt>
      <trkpt lat="45.91189" lon="6.49282">
        <ele>1843.4000244141</ele>
        <time>2014-02-12T08:37:01.000Z</time>
      </trkpt>
      <trkpt lat="45.91189" lon="6.49281">
        <ele>1843.4000244141</ele>
        <time>2014-02-12T08:37:02.000Z</time>
      </trkpt>
      <trkpt lat="45.91189" lon="6.49281">
        <ele>1843.4000244141</ele>
        <time>2014-02-12T08:37:03.000Z</time>
      </trkpt>
      <trkpt lat="45.91188" lon="6.49281">
        <ele>1843.5999755859</ele>
        <time>2014-02-12T08:37:04.000Z</time>
      </trkpt>
      <trkpt lat="45.91188" lon="6.49281">
        <ele>1843.5999755859</ele>
        <time>2014-02-12T08:37:05.000Z</time>
      </trkpt>
      <trkpt lat="45.91187" lon="6.49281">
        <ele>1843.5999755859</ele>
        <time>2014-02-12T08:37:06.000Z</time>
      </trkpt>
      <trkpt lat="45.91187" lon="6.49281">
        <ele>1843.8000488281</ele>
        <time>2014-02-12T08:37:07.000Z</time>
      </trkpt>
      <trkpt lat="45.91187" lon="6.49281">
        <ele>1843.8000488281</ele>
        <time>2014-02-12T08:37:08.000Z</time>
      </trkpt>
      <trkpt lat="45.91187" lon="6.49281">
        <ele>1843.8000488281</ele>
        <time>2014-02-12T08:37:09.000Z</time>
      </trkpt>
      <trkpt lat="45.91187" lon="6.49281">
        <ele>1843.8000488281</ele>
        <time>2014-02-12T08:37:10.000Z</time>
      </trkpt>
      <trkpt lat="45.91187" lon="6.49281">
        <ele>1843.8000488281</ele>
        <time>2014-02-12T08:37:11.000Z</time>
      </trkpt>
      <trkpt lat="45.91186" lon="6.49282">
        <ele>1844</ele>
        <time>2014-02-12T08:37:12.000Z</time>
      </trkpt>
      <trkpt lat="45.91186" lon="6.49283">
        <ele>1844.4000244141</ele>
        <time>2014-02-12T08:37:13.000Z</time>
      </trkpt>
      <trkpt lat="45.91185" lon="6.49283">
        <ele>1844.5999755859</ele>
        <time>2014-02-12T08:37:14.000Z</time>
      </trkpt>
      <trkpt lat="45.91185" lon="6.49285">
        <ele>1845</ele>
        <time>2014-02-12T08:37:15.000Z</time>
      </trkpt>
      <trkpt lat="45.91185" lon="6.49286">
        <ele>1845.1999511719</ele>
        <time>2014-02-12T08:37:16.000Z</time>
      </trkpt>
      <trkpt lat="45.91185" lon="6.49286">
        <ele>1845.1999511719</ele>
        <time>2014-02-12T08:37:17.000Z</time>
      </trkpt>
      <trkpt lat="45.91185" lon="6.49287">
        <ele>1845.5999755859</ele>
        <time>2014-02-12T08:37:18.000Z</time>
      </trkpt>
      <trkpt lat="45.91185" lon="6.49287">
        <ele>1845.5999755859</ele>
        <time>2014-02-12T08:37:19.000Z</time>
      </trkpt>
      <trkpt lat="45.91184" lon="6.49288">
        <ele>1845.8000488281</ele>
        <time>2014-02-12T08:37:20.000Z</time>
      </trkpt>
      <trkpt lat="45.91184" lon="6.4929">
        <ele>1846.1999511719</ele>
        <time>2014-02-12T08:37:21.000Z</time>
      </trkpt>
      <trkpt lat="45.91184" lon="6.4929">
        <ele>1846.1999511719</ele>
        <time>2014-02-12T08:37:22.000Z</time>
      </trkpt>
      <trkpt lat="45.91184" lon="6.4929">
        <ele>1846.1999511719</ele>
        <time>2014-02-12T08:37:23.000Z</time>
      </trkpt>
      <trkpt lat="45.91184" lon="6.49291">
        <ele>1846.4000244141</ele>
        <time>2014-02-12T08:37:24.000Z</time>
      </trkpt>
      <trkpt lat="45.91184" lon="6.49291">
        <ele>1846.4000244141</ele>
        <time>2014-02-12T08:37:25.000Z</time>
      </trkpt>
      <trkpt lat="45.91184" lon="6.49291">
        <ele>1846.4000244141</ele>
        <time>2014-02-12T08:37:26.000Z</time>
      </trkpt>
      <trkpt lat="45.91184" lon="6.49292">
        <ele>1846.5999755859</ele>
        <time>2014-02-12T08:37:27.000Z</time>
      </trkpt>
      <trkpt lat="45.91184" lon="6.49292">
        <ele>1846.5999755859</ele>
        <time>2014-02-12T08:37:30.000Z</time>
      </trkpt>
      <trkpt lat="45.91184" lon="6.49292">
        <ele>1846.5999755859</ele>
        <time>2014-02-12T08:37:31.000Z</time>
      </trkpt>
      <trkpt lat="45.91184" lon="6.49292">
        <ele>1846.5999755859</ele>
        <time>2014-02-12T08:37:32.000Z</time>
      </trkpt>
      <trkpt lat="45.91184" lon="6.49292">
        <ele>1846.8000488281</ele>
        <time>2014-02-12T08:37:33.000Z</time>
      </trkpt>
      <trkpt lat="45.91183" lon="6.49292">
        <ele>1847</ele>
        <time>2014-02-12T08:37:34.000Z</time>
      </trkpt>
      <trkpt lat="45.91182" lon="6.49292">
        <ele>1847</ele>
        <time>2014-02-12T08:37:35.000Z</time>
      </trkpt>
      <trkpt lat="45.91181" lon="6.49292">
        <ele>1847.1999511719</ele>
        <time>2014-02-12T08:37:36.000Z</time>
      </trkpt>
      <trkpt lat="45.91181" lon="6.49292">
        <ele>1847.1999511719</ele>
        <time>2014-02-12T08:37:37.000Z</time>
      </trkpt>
      <trkpt lat="45.9118" lon="6.49292">
        <ele>1847.4000244141</ele>
        <time>2014-02-12T08:37:38.000Z</time>
      </trkpt>
      <trkpt lat="45.91179" lon="6.49292">
        <ele>1847.4000244141</ele>
        <time>2014-02-12T08:37:39.000Z</time>
      </trkpt>
      <trkpt lat="45.91179" lon="6.49291">
        <ele>1847.4000244141</ele>
        <time>2014-02-12T08:37:40.000Z</time>
      </trkpt>
      <trkpt lat="45.91178" lon="6.4929">
        <ele>1847.1999511719</ele>
        <time>2014-02-12T08:37:41.000Z</time>
      </trkpt>
      <trkpt lat="45.91177" lon="6.4929">
        <ele>1847.1999511719</ele>
        <time>2014-02-12T08:37:42.000Z</time>
      </trkpt>
      <trkpt lat="45.91176" lon="6.49289">
        <ele>1847.1999511719</ele>
        <time>2014-02-12T08:37:43.000Z</time>
      </trkpt>
      <trkpt lat="45.91176" lon="6.49288">
        <ele>1847</ele>
        <time>2014-02-12T08:37:44.000Z</time>
      </trkpt>
      <trkpt lat="45.91176" lon="6.49288">
        <ele>1846.8000488281</ele>
        <time>2014-02-12T08:37:45.000Z</time>
      </trkpt>
      <trkpt lat="45.91176" lon="6.49287">
        <ele>1846.8000488281</ele>
        <time>2014-02-12T08:37:46.000Z</time>
      </trkpt>
      <trkpt lat="45.91175" lon="6.49287">
        <ele>1846.8000488281</ele>
        <time>2014-02-12T08:37:47.000Z</time>
      </trkpt>
      <trkpt lat="45.91175" lon="6.49287">
        <ele>1847</ele>
        <time>2014-02-12T08:37:48.000Z</time>
      </trkpt>
      <trkpt lat="45.91174" lon="6.49287">
        <ele>1847</ele>
        <time>2014-02-12T08:37:49.000Z</time>
      </trkpt>
      <trkpt lat="45.91173" lon="6.49286">
        <ele>1847</ele>
        <time>2014-02-12T08:37:50.000Z</time>
      </trkpt>
      <trkpt lat="45.91172" lon="6.49285">
        <ele>1846.8000488281</ele>
        <time>2014-02-12T08:37:51.000Z</time>
      </trkpt>
      <trkpt lat="45.91171" lon="6.49285">
        <ele>1846.8000488281</ele>
        <time>2014-02-12T08:37:52.000Z</time>
      </trkpt>
      <trkpt lat="45.9117" lon="6.49284">
        <ele>1846.8000488281</ele>
        <time>2014-02-12T08:37:53.000Z</time>
      </trkpt>
      <trkpt lat="45.9117" lon="6.49283">
        <ele>1846.5999755859</ele>
        <time>2014-02-12T08:37:54.000Z</time>
      </trkpt>
      <trkpt lat="45.91169" lon="6.49283">
        <ele>1846.5999755859</ele>
        <time>2014-02-12T08:37:55.000Z</time>
      </trkpt>
      <trkpt lat="45.91169" lon="6.49283">
        <ele>1846.5999755859</ele>
        <time>2014-02-12T08:37:56.000Z</time>
      </trkpt>
      <trkpt lat="45.91168" lon="6.49282">
        <ele>1846.8000488281</ele>
        <time>2014-02-12T08:37:57.000Z</time>
      </trkpt>
      <trkpt lat="45.91168" lon="6.49283">
        <ele>1846.8000488281</ele>
        <time>2014-02-12T08:37:58.000Z</time>
      </trkpt>
      <trkpt lat="45.91167" lon="6.49283">
        <ele>1847</ele>
        <time>2014-02-12T08:37:59.000Z</time>
      </trkpt>
      <trkpt lat="45.91166" lon="6.49283">
        <ele>1847</ele>
        <time>2014-02-12T08:38:00.000Z</time>
      </trkpt>
      <trkpt lat="45.91166" lon="6.49284">
        <ele>1847.4000244141</ele>
        <time>2014-02-12T08:38:01.000Z</time>
      </trkpt>
      <trkpt lat="45.91165" lon="6.49284">
        <ele>1847.5999755859</ele>
        <time>2014-02-12T08:38:02.000Z</time>
      </trkpt>
      <trkpt lat="45.91164" lon="6.49284">
        <ele>1847.8000488281</ele>
        <time>2014-02-12T08:38:03.000Z</time>
      </trkpt>
      <trkpt lat="45.91164" lon="6.49284">
        <ele>1847.8000488281</ele>
        <time>2014-02-12T08:38:04.000Z</time>
      </trkpt>
      <trkpt lat="45.91163" lon="6.49284">
        <ele>1847.8000488281</ele>
        <time>2014-02-12T08:38:05.000Z</time>
      </trkpt>
      <trkpt lat="45.91163" lon="6.49285">
        <ele>1848</ele>
        <time>2014-02-12T08:38:06.000Z</time>
      </trkpt>
      <trkpt lat="45.91163" lon="6.49285">
        <ele>1848</ele>
        <time>2014-02-12T08:38:07.000Z</time>
      </trkpt>
      <trkpt lat="45.91163" lon="6.49285">
        <ele>1848</ele>
        <time>2014-02-12T08:38:08.000Z</time>
      </trkpt>
      <trkpt lat="45.91163" lon="6.49285">
        <ele>1848</ele>
        <time>2014-02-12T08:38:09.000Z</time>
      </trkpt>
      <trkpt lat="45.91163" lon="6.49285">
        <ele>1848</ele>
        <time>2014-02-12T08:38:10.000Z</time>
      </trkpt>
      <trkpt lat="45.91163" lon="6.49285">
        <ele>1848</ele>
        <time>2014-02-12T08:38:11.000Z</time>
      </trkpt>
      <trkpt lat="45.91163" lon="6.49285">
        <ele>1848</ele>
        <time>2014-02-12T08:38:12.000Z</time>
      </trkpt>
      <trkpt lat="45.91163" lon="6.49285">
        <ele>1848</ele>
        <time>2014-02-12T08:38:13.000Z</time>
      </trkpt>
      <trkpt lat="45.91163" lon="6.49285">
        <ele>1848</ele>
        <time>2014-02-12T08:38:14.000Z</time>
      </trkpt>
      <trkpt lat="45.91163" lon="6.49285">
        <ele>1848</ele>
        <time>2014-02-12T08:38:18.000Z</time>
      </trkpt>
      <trkpt lat="45.91162" lon="6.49285">
        <ele>1848.4000244141</ele>
        <time>2014-02-12T08:38:19.000Z</time>
      </trkpt>
      <trkpt lat="45.91162" lon="6.49286">
        <ele>1848.4000244141</ele>
        <time>2014-02-12T08:38:20.000Z</time>
      </trkpt>
      <trkpt lat="45.91161" lon="6.49286">
        <ele>1848.5999755859</ele>
        <time>2014-02-12T08:38:21.000Z</time>
      </trkpt>
      <trkpt lat="45.9116" lon="6.49286">
        <ele>1848.8000488281</ele>
        <time>2014-02-12T08:38:22.000Z</time>
      </trkpt>
      <trkpt lat="45.9116" lon="6.49286">
        <ele>1849</ele>
        <time>2014-02-12T08:38:23.000Z</time>
      </trkpt>
      <trkpt lat="45.9116" lon="6.49286">
        <ele>1849</ele>
        <time>2014-02-12T08:38:24.000Z</time>
      </trkpt>
      <trkpt lat="45.9116" lon="6.49286">
        <ele>1849</ele>
        <time>2014-02-12T08:38:25.000Z</time>
      </trkpt>
      <trkpt lat="45.9116" lon="6.49286">
        <ele>1849</ele>
        <time>2014-02-12T08:38:26.000Z</time>
      </trkpt>
      <trkpt lat="45.91159" lon="6.49287">
        <ele>1849.1999511719</ele>
        <time>2014-02-12T08:38:27.000Z</time>
      </trkpt>
      <trkpt lat="45.91158" lon="6.49287">
        <ele>1849.1999511719</ele>
        <time>2014-02-12T08:38:28.000Z</time>
      </trkpt>
      <trkpt lat="45.91158" lon="6.49287">
        <ele>1849.1999511719</ele>
        <time>2014-02-12T08:38:29.000Z</time>
      </trkpt>
      <trkpt lat="45.91158" lon="6.49287">
        <ele>1849.4000244141</ele>
        <time>2014-02-12T08:38:30.000Z</time>
      </trkpt>
      <trkpt lat="45.91157" lon="6.49287">
        <ele>1849.4000244141</ele>
        <time>2014-02-12T08:38:31.000Z</time>
      </trkpt>
      <trkpt lat="45.91157" lon="6.49287">
        <ele>1849.5999755859</ele>
        <time>2014-02-12T08:38:32.000Z</time>
      </trkpt>
      <trkpt lat="45.91156" lon="6.49287">
        <ele>1849.5999755859</ele>
        <time>2014-02-12T08:38:33.000Z</time>
      </trkpt>
      <trkpt lat="45.91156" lon="6.49288">
        <ele>1849.8000488281</ele>
        <time>2014-02-12T08:38:34.000Z</time>
      </trkpt>
      <trkpt lat="45.91155" lon="6.49288">
        <ele>1850</ele>
        <time>2014-02-12T08:38:35.000Z</time>
      </trkpt>
      <trkpt lat="45.91154" lon="6.49288">
        <ele>1850.1999511719</ele>
        <time>2014-02-12T08:38:36.000Z</time>
      </trkpt>
      <trkpt lat="45.91153" lon="6.49288">
        <ele>1850.1999511719</ele>
        <time>2014-02-12T08:38:37.000Z</time>
      </trkpt>
      <trkpt lat="45.91152" lon="6.49289">
        <ele>1850.5999755859</ele>
        <time>2014-02-12T08:38:38.000Z</time>
      </trkpt>
      <trkpt lat="45.91152" lon="6.49289">
        <ele>1850.8000488281</ele>
        <time>2014-02-12T08:38:39.000Z</time>
      </trkpt>
      <trkpt lat="45.9115" lon="6.4929">
        <ele>1851</ele>
        <time>2014-02-12T08:38:40.000Z</time>
      </trkpt>
      <trkpt lat="45.91149" lon="6.4929">
        <ele>1851.4000244141</ele>
        <time>2014-02-12T08:38:41.000Z</time>
      </trkpt>
      <trkpt lat="45.91148" lon="6.49291">
        <ele>1851.8000488281</ele>
        <time>2014-02-12T08:38:42.000Z</time>
      </trkpt>
      <trkpt lat="45.91148" lon="6.49292">
        <ele>1851.8000488281</ele>
        <time>2014-02-12T08:38:43.000Z</time>
      </trkpt>
      <trkpt lat="45.91147" lon="6.49293">
        <ele>1852.1999511719</ele>
        <time>2014-02-12T08:38:44.000Z</time>
      </trkpt>
      <trkpt lat="45.91147" lon="6.49294">
        <ele>1852.4000244141</ele>
        <time>2014-02-12T08:38:45.000Z</time>
      </trkpt>
      <trkpt lat="45.91147" lon="6.49295">
        <ele>1853</ele>
        <time>2014-02-12T08:38:46.000Z</time>
      </trkpt>
      <trkpt lat="45.91146" lon="6.49297">
        <ele>1853.4000244141</ele>
        <time>2014-02-12T08:38:47.000Z</time>
      </trkpt>
      <trkpt lat="45.91146" lon="6.49298">
        <ele>1853.8000488281</ele>
        <time>2014-02-12T08:38:48.000Z</time>
      </trkpt>
      <trkpt lat="45.91145" lon="6.493">
        <ele>1854.1999511719</ele>
        <time>2014-02-12T08:38:49.000Z</time>
      </trkpt>
      <trkpt lat="45.91145" lon="6.49301">
        <ele>1854.4000244141</ele>
        <time>2014-02-12T08:38:50.000Z</time>
      </trkpt>
      <trkpt lat="45.91145" lon="6.49301">
        <ele>1854.5999755859</ele>
        <time>2014-02-12T08:38:51.000Z</time>
      </trkpt>
      <trkpt lat="45.91145" lon="6.49303">
        <ele>1855</ele>
        <time>2014-02-12T08:38:52.000Z</time>
      </trkpt>
      <trkpt lat="45.91145" lon="6.49304">
        <ele>1855.1999511719</ele>
        <time>2014-02-12T08:38:53.000Z</time>
      </trkpt>
      <trkpt lat="45.91146" lon="6.49305">
        <ele>1855.4000244141</ele>
        <time>2014-02-12T08:38:54.000Z</time>
      </trkpt>
      <trkpt lat="45.91146" lon="6.49306">
        <ele>1855.4000244141</ele>
        <time>2014-02-12T08:38:55.000Z</time>
      </trkpt>
      <trkpt lat="45.91147" lon="6.49306">
        <ele>1855.5999755859</ele>
        <time>2014-02-12T08:38:56.000Z</time>
      </trkpt>
      <trkpt lat="45.91148" lon="6.49307">
        <ele>1855.5999755859</ele>
        <time>2014-02-12T08:38:57.000Z</time>
      </trkpt>
      <trkpt lat="45.91149" lon="6.49309">
        <ele>1856</ele>
        <time>2014-02-12T08:38:58.000Z</time>
      </trkpt>
      <trkpt lat="45.91149" lon="6.4931">
        <ele>1856</ele>
        <time>2014-02-12T08:38:59.000Z</time>
      </trkpt>
      <trkpt lat="45.9115" lon="6.49311">
        <ele>1856.4000244141</ele>
        <time>2014-02-12T08:39:00.000Z</time>
      </trkpt>
      <trkpt lat="45.9115" lon="6.49312">
        <ele>1856.5999755859</ele>
        <time>2014-02-12T08:39:01.000Z</time>
      </trkpt>
      <trkpt lat="45.91151" lon="6.49313">
        <ele>1856.5999755859</ele>
        <time>2014-02-12T08:39:02.000Z</time>
      </trkpt>
      <trkpt lat="45.91151" lon="6.49314">
        <ele>1856.8000488281</ele>
        <time>2014-02-12T08:39:03.000Z</time>
      </trkpt>
      <trkpt lat="45.91151" lon="6.49314">
        <ele>1857</ele>
        <time>2014-02-12T08:39:04.000Z</time>
      </trkpt>
      <trkpt lat="45.91151" lon="6.49315">
        <ele>1857.1999511719</ele>
        <time>2014-02-12T08:39:05.000Z</time>
      </trkpt>
      <trkpt lat="45.91151" lon="6.49316">
        <ele>1857.1999511719</ele>
        <time>2014-02-12T08:39:06.000Z</time>
      </trkpt>
      <trkpt lat="45.91151" lon="6.49316">
        <ele>1857.1999511719</ele>
        <time>2014-02-12T08:39:07.000Z</time>
      </trkpt>
      <trkpt lat="45.91151" lon="6.49316">
        <ele>1857.1999511719</ele>
        <time>2014-02-12T08:39:08.000Z</time>
      </trkpt>
      <trkpt lat="45.91151" lon="6.49316">
        <ele>1857.1999511719</ele>
        <time>2014-02-12T08:39:09.000Z</time>
      </trkpt>
      <trkpt lat="45.91152" lon="6.49317">
        <ele>1857.4000244141</ele>
        <time>2014-02-12T08:39:10.000Z</time>
      </trkpt>
      <trkpt lat="45.91153" lon="6.49318">
        <ele>1858.4000244141</ele>
        <time>2014-02-12T08:39:11.000Z</time>
      </trkpt>
      <trkpt lat="45.91153" lon="6.49318">
        <ele>1858.5999755859</ele>
        <time>2014-02-12T08:39:12.000Z</time>
      </trkpt>
      <trkpt lat="45.91153" lon="6.49319">
        <ele>1859.4000244141</ele>
        <time>2014-02-12T08:39:13.000Z</time>
      </trkpt>
      <trkpt lat="45.91153" lon="6.4932">
        <ele>1860</ele>
        <time>2014-02-12T08:39:14.000Z</time>
      </trkpt>
      <trkpt lat="45.91154" lon="6.4932">
        <ele>1860.4000244141</ele>
        <time>2014-02-12T08:39:15.000Z</time>
      </trkpt>
      <trkpt lat="45.91154" lon="6.49321">
        <ele>1860.8000488281</ele>
        <time>2014-02-12T08:39:16.000Z</time>
      </trkpt>
      <trkpt lat="45.91154" lon="6.49321">
        <ele>1861.1999511719</ele>
        <time>2014-02-12T08:39:17.000Z</time>
      </trkpt>
      <trkpt lat="45.91154" lon="6.49322">
        <ele>1861.5999755859</ele>
        <time>2014-02-12T08:39:18.000Z</time>
      </trkpt>
      <trkpt lat="45.91154" lon="6.49322">
        <ele>1862</ele>
        <time>2014-02-12T08:39:19.000Z</time>
      </trkpt>
      <trkpt lat="45.91154" lon="6.49322">
        <ele>1862</ele>
        <time>2014-02-12T08:39:20.000Z</time>
      </trkpt>
      <trkpt lat="45.91154" lon="6.49322">
        <ele>1862</ele>
        <time>2014-02-12T08:39:21.000Z</time>
      </trkpt>
      <trkpt lat="45.91154" lon="6.49322">
        <ele>1862</ele>
        <time>2014-02-12T08:39:22.000Z</time>
      </trkpt>
      <trkpt lat="45.91154" lon="6.49322">
        <ele>1862</ele>
        <time>2014-02-12T08:39:23.000Z</time>
      </trkpt>
      <trkpt lat="45.91154" lon="6.49322">
        <ele>1862</ele>
        <time>2014-02-12T08:39:24.000Z</time>
      </trkpt>
      <trkpt lat="45.91154" lon="6.49322">
        <ele>1862</ele>
        <time>2014-02-12T08:39:25.000Z</time>
      </trkpt>
      <trkpt lat="45.91154" lon="6.49322">
        <ele>1862</ele>
        <time>2014-02-12T08:39:26.000Z</time>
      </trkpt>
      <trkpt lat="45.91154" lon="6.49322">
        <ele>1862</ele>
        <time>2014-02-12T08:39:27.000Z</time>
      </trkpt>
      <trkpt lat="45.91154" lon="6.49322">
        <ele>1862</ele>
        <time>2014-02-12T08:39:28.000Z</time>
      </trkpt>
      <trkpt lat="45.91154" lon="6.49322">
        <ele>1862</ele>
        <time>2014-02-12T08:39:29.000Z</time>
      </trkpt>
      <trkpt lat="45.91154" lon="6.49322">
        <ele>1862</ele>
        <time>2014-02-12T08:39:30.000Z</time>
      </trkpt>
      <trkpt lat="45.91154" lon="6.49322">
        <ele>1862</ele>
        <time>2014-02-12T08:39:31.000Z</time>
      </trkpt>
      <trkpt lat="45.91154" lon="6.49322">
        <ele>1862</ele>
        <time>2014-02-12T08:39:32.000Z</time>
      </trkpt>
      <trkpt lat="45.91154" lon="6.49322">
        <ele>1862</ele>
        <time>2014-02-12T08:39:33.000Z</time>
      </trkpt>
      <trkpt lat="45.91154" lon="6.49322">
        <ele>1862</ele>
        <time>2014-02-12T08:39:34.000Z</time>
      </trkpt>
      <trkpt lat="45.91154" lon="6.49322">
        <ele>1862</ele>
        <time>2014-02-12T08:39:35.000Z</time>
      </trkpt>
      <trkpt lat="45.91154" lon="6.49322">
        <ele>1862</ele>
        <time>2014-02-12T08:39:36.000Z</time>
      </trkpt>
      <trkpt lat="45.91154" lon="6.49322">
        <ele>1862</ele>
        <time>2014-02-12T08:39:37.000Z</time>
      </trkpt>
      <trkpt lat="45.91154" lon="6.49322">
        <ele>1862</ele>
        <time>2014-02-12T08:39:38.000Z</time>
      </trkpt>
      <trkpt lat="45.91154" lon="6.49322">
        <ele>1862</ele>
        <time>2014-02-12T08:39:39.000Z</time>
      </trkpt>
      <trkpt lat="45.91154" lon="6.49322">
        <ele>1862</ele>
        <time>2014-02-12T08:39:40.000Z</time>
      </trkpt>
      <trkpt lat="45.91154" lon="6.49322">
        <ele>1862</ele>
        <time>2014-02-12T08:39:41.000Z</time>
      </trkpt>
      <trkpt lat="45.91154" lon="6.49322">
        <ele>1862</ele>
        <time>2014-02-12T08:39:42.000Z</time>
      </trkpt>
      <trkpt lat="45.91154" lon="6.49322">
        <ele>1862</ele>
        <time>2014-02-12T08:39:43.000Z</time>
      </trkpt>
      <trkpt lat="45.91154" lon="6.49322">
        <ele>1862</ele>
        <time>2014-02-12T08:39:44.000Z</time>
      </trkpt>
      <trkpt lat="45.91154" lon="6.49322">
        <ele>1862</ele>
        <time>2014-02-12T08:39:45.000Z</time>
      </trkpt>
      <trkpt lat="45.91154" lon="6.49322">
        <ele>1862</ele>
        <time>2014-02-12T08:39:46.000Z</time>
      </trkpt>
      <trkpt lat="45.91154" lon="6.49322">
        <ele>1862</ele>
        <time>2014-02-12T08:39:47.000Z</time>
      </trkpt>
      <trkpt lat="45.91154" lon="6.49322">
        <ele>1862</ele>
        <time>2014-02-12T08:39:48.000Z</time>
      </trkpt>
      <trkpt lat="45.91154" lon="6.49322">
        <ele>1862</ele>
        <time>2014-02-12T08:39:49.000Z</time>
      </trkpt>
      <trkpt lat="45.91154" lon="6.49322">
        <ele>1862</ele>
        <time>2014-02-12T08:39:50.000Z</time>
      </trkpt>
      <trkpt lat="45.91154" lon="6.49322">
        <ele>1862</ele>
        <time>2014-02-12T08:39:51.000Z</time>
      </trkpt>
      <trkpt lat="45.91154" lon="6.49322">
        <ele>1862</ele>
        <time>2014-02-12T08:39:52.000Z</time>
      </trkpt>
      <trkpt lat="45.91154" lon="6.49322">
        <ele>1862</ele>
        <time>2014-02-12T08:39:53.000Z</time>
      </trkpt>
      <trkpt lat="45.91155" lon="6.49324">
        <ele>1863.1999511719</ele>
        <time>2014-02-12T08:39:54.000Z</time>
      </trkpt>
      <trkpt lat="45.91156" lon="6.49324">
        <ele>1864</ele>
        <time>2014-02-12T08:39:55.000Z</time>
      </trkpt>
      <trkpt lat="45.91157" lon="6.49326">
        <ele>1865.1999511719</ele>
        <time>2014-02-12T08:39:56.000Z</time>
      </trkpt>
      <trkpt lat="45.91157" lon="6.49326">
        <ele>1865.1999511719</ele>
        <time>2014-02-12T08:39:57.000Z</time>
      </trkpt>
      <trkpt lat="45.91157" lon="6.49327">
        <ele>1866.1999511719</ele>
        <time>2014-02-12T08:39:58.000Z</time>
      </trkpt>
      <trkpt lat="45.91157" lon="6.49327">
        <ele>1866.1999511719</ele>
        <time>2014-02-12T08:39:59.000Z</time>
      </trkpt>
      <trkpt lat="45.91157" lon="6.49327">
        <ele>1866.1999511719</ele>
        <time>2014-02-12T08:40:00.000Z</time>
      </trkpt>
      <trkpt lat="45.91157" lon="6.49327">
        <ele>1866.1999511719</ele>
        <time>2014-02-12T08:40:01.000Z</time>
      </trkpt>
      <trkpt lat="45.91157" lon="6.49327">
        <ele>1866.1999511719</ele>
        <time>2014-02-12T08:40:02.000Z</time>
      </trkpt>
      <trkpt lat="45.91157" lon="6.49327">
        <ele>1866.5999755859</ele>
        <time>2014-02-12T08:40:03.000Z</time>
      </trkpt>
      <trkpt lat="45.91158" lon="6.49328">
        <ele>1867.4000244141</ele>
        <time>2014-02-12T08:40:04.000Z</time>
      </trkpt>
      <trkpt lat="45.91158" lon="6.49329">
        <ele>1867.8000488281</ele>
        <time>2014-02-12T08:40:05.000Z</time>
      </trkpt>
      <trkpt lat="45.91158" lon="6.4933">
        <ele>1868.8000488281</ele>
        <time>2014-02-12T08:40:06.000Z</time>
      </trkpt>
      <trkpt lat="45.91158" lon="6.4933">
        <ele>1868.8000488281</ele>
        <time>2014-02-12T08:40:07.000Z</time>
      </trkpt>
      <trkpt lat="45.91158" lon="6.4933">
        <ele>1868.8000488281</ele>
        <time>2014-02-12T08:40:08.000Z</time>
      </trkpt>
      <trkpt lat="45.91158" lon="6.4933">
        <ele>1868.8000488281</ele>
        <time>2014-02-12T08:40:09.000Z</time>
      </trkpt>
      <trkpt lat="45.91158" lon="6.4933">
        <ele>1868.8000488281</ele>
        <time>2014-02-12T08:40:10.000Z</time>
      </trkpt>
      <trkpt lat="45.91158" lon="6.4933">
        <ele>1868.8000488281</ele>
        <time>2014-02-12T08:40:11.000Z</time>
      </trkpt>
      <trkpt lat="45.91158" lon="6.4933">
        <ele>1868.8000488281</ele>
        <time>2014-02-12T08:40:12.000Z</time>
      </trkpt>
      <trkpt lat="45.91158" lon="6.4933">
        <ele>1868.8000488281</ele>
        <time>2014-02-12T08:40:13.000Z</time>
      </trkpt>
      <trkpt lat="45.91158" lon="6.4933">
        <ele>1868.8000488281</ele>
        <time>2014-02-12T08:40:14.000Z</time>
      </trkpt>
      <trkpt lat="45.91158" lon="6.4933">
        <ele>1868.8000488281</ele>
        <time>2014-02-12T08:40:15.000Z</time>
      </trkpt>
      <trkpt lat="45.91158" lon="6.4933">
        <ele>1868.8000488281</ele>
        <time>2014-02-12T08:40:16.000Z</time>
      </trkpt>
      <trkpt lat="45.91158" lon="6.4933">
        <ele>1868.8000488281</ele>
        <time>2014-02-12T08:40:17.000Z</time>
      </trkpt>
      <trkpt lat="45.91158" lon="6.4933">
        <ele>1868.8000488281</ele>
        <time>2014-02-12T08:40:18.000Z</time>
      </trkpt>
      <trkpt lat="45.91158" lon="6.4933">
        <ele>1868.8000488281</ele>
        <time>2014-02-12T08:40:20.000Z</time>
      </trkpt>
      <trkpt lat="45.91158" lon="6.4933">
        <ele>1868.8000488281</ele>
        <time>2014-02-12T08:40:21.000Z</time>
      </trkpt>
      <trkpt lat="45.91158" lon="6.4933">
        <ele>1868.8000488281</ele>
        <time>2014-02-12T08:40:22.000Z</time>
      </trkpt>
      <trkpt lat="45.91158" lon="6.4933">
        <ele>1868.8000488281</ele>
        <time>2014-02-12T08:40:23.000Z</time>
      </trkpt>
      <trkpt lat="45.91158" lon="6.4933">
        <ele>1868.8000488281</ele>
        <time>2014-02-12T08:40:24.000Z</time>
      </trkpt>
      <trkpt lat="45.91158" lon="6.4933">
        <ele>1868.8000488281</ele>
        <time>2014-02-12T08:40:25.000Z</time>
      </trkpt>
      <trkpt lat="45.91158" lon="6.4933">
        <ele>1868.8000488281</ele>
        <time>2014-02-12T08:40:26.000Z</time>
      </trkpt>
      <trkpt lat="45.91158" lon="6.4933">
        <ele>1868.8000488281</ele>
        <time>2014-02-12T08:40:27.000Z</time>
      </trkpt>
      <trkpt lat="45.91158" lon="6.4933">
        <ele>1868.8000488281</ele>
        <time>2014-02-12T08:40:28.000Z</time>
      </trkpt>
      <trkpt lat="45.91158" lon="6.4933">
        <ele>1868.8000488281</ele>
        <time>2014-02-12T08:40:29.000Z</time>
      </trkpt>
      <trkpt lat="45.91158" lon="6.4933">
        <ele>1868.8000488281</ele>
        <time>2014-02-12T08:40:30.000Z</time>
      </trkpt>
      <trkpt lat="45.91158" lon="6.4933">
        <ele>1868.8000488281</ele>
        <time>2014-02-12T08:40:31.000Z</time>
      </trkpt>
      <trkpt lat="45.91158" lon="6.4933">
        <ele>1868.8000488281</ele>
        <time>2014-02-12T08:40:32.000Z</time>
      </trkpt>
      <trkpt lat="45.91158" lon="6.4933">
        <ele>1868.8000488281</ele>
        <time>2014-02-12T08:40:33.000Z</time>
      </trkpt>
      <trkpt lat="45.91158" lon="6.4933">
        <ele>1868.8000488281</ele>
        <time>2014-02-12T08:40:34.000Z</time>
      </trkpt>
      <trkpt lat="45.91158" lon="6.4933">
        <ele>1868.8000488281</ele>
        <time>2014-02-12T08:40:35.000Z</time>
      </trkpt>
      <trkpt lat="45.91158" lon="6.4933">
        <ele>1868.8000488281</ele>
        <time>2014-02-12T08:40:36.000Z</time>
      </trkpt>
      <trkpt lat="45.91158" lon="6.4933">
        <ele>1868.5999755859</ele>
        <time>2014-02-12T08:40:37.000Z</time>
      </trkpt>
      <trkpt lat="45.91156" lon="6.49331">
        <ele>1869.8000488281</ele>
        <time>2014-02-12T08:40:38.000Z</time>
      </trkpt>
      <trkpt lat="45.91155" lon="6.49332">
        <ele>1870.5999755859</ele>
        <time>2014-02-12T08:40:39.000Z</time>
      </trkpt>
      <trkpt lat="45.91154" lon="6.49333">
        <ele>1870.8000488281</ele>
        <time>2014-02-12T08:40:40.000Z</time>
      </trkpt>
      <trkpt lat="45.91152" lon="6.49333">
        <ele>1870</ele>
        <time>2014-02-12T08:40:41.000Z</time>
      </trkpt>
      <trkpt lat="45.91151" lon="6.49334">
        <ele>1870</ele>
        <time>2014-02-12T08:40:42.000Z</time>
      </trkpt>
      <trkpt lat="45.9115" lon="6.49334">
        <ele>1869.5999755859</ele>
        <time>2014-02-12T08:40:43.000Z</time>
      </trkpt>
      <trkpt lat="45.91149" lon="6.49335">
        <ele>1869.5999755859</ele>
        <time>2014-02-12T08:40:44.000Z</time>
      </trkpt>
      <trkpt lat="45.91148" lon="6.49335">
        <ele>1869</ele>
        <time>2014-02-12T08:40:45.000Z</time>
      </trkpt>
      <trkpt lat="45.91148" lon="6.49336">
        <ele>1869.1999511719</ele>
        <time>2014-02-12T08:40:46.000Z</time>
      </trkpt>
      <trkpt lat="45.91146" lon="6.49336">
        <ele>1868.5999755859</ele>
        <time>2014-02-12T08:40:47.000Z</time>
      </trkpt>
      <trkpt lat="45.91146" lon="6.49336">
        <ele>1868.8000488281</ele>
        <time>2014-02-12T08:40:48.000Z</time>
      </trkpt>
      <trkpt lat="45.91145" lon="6.49337">
        <ele>1868.5999755859</ele>
        <time>2014-02-12T08:40:49.000Z</time>
      </trkpt>
      <trkpt lat="45.91145" lon="6.49337">
        <ele>1868.4000244141</ele>
        <time>2014-02-12T08:40:50.000Z</time>
      </trkpt>
      <trkpt lat="45.91144" lon="6.49337">
        <ele>1868.1999511719</ele>
        <time>2014-02-12T08:40:51.000Z</time>
      </trkpt>
      <trkpt lat="45.91144" lon="6.49337">
        <ele>1868.1999511719</ele>
        <time>2014-02-12T08:40:52.000Z</time>
      </trkpt>
      <trkpt lat="45.91144" lon="6.49337">
        <ele>1868.1999511719</ele>
        <time>2014-02-12T08:40:53.000Z</time>
      </trkpt>
      <trkpt lat="45.91144" lon="6.49337">
        <ele>1868.1999511719</ele>
        <time>2014-02-12T08:40:54.000Z</time>
      </trkpt>
      <trkpt lat="45.91144" lon="6.49337">
        <ele>1868.1999511719</ele>
        <time>2014-02-12T08:40:55.000Z</time>
      </trkpt>
      <trkpt lat="45.91144" lon="6.49337">
        <ele>1868.1999511719</ele>
        <time>2014-02-12T08:40:56.000Z</time>
      </trkpt>
      <trkpt lat="45.91144" lon="6.49337">
        <ele>1868.1999511719</ele>
        <time>2014-02-12T08:40:57.000Z</time>
      </trkpt>
      <trkpt lat="45.91144" lon="6.49337">
        <ele>1868.1999511719</ele>
        <time>2014-02-12T08:40:58.000Z</time>
      </trkpt>
      <trkpt lat="45.91144" lon="6.49337">
        <ele>1868.1999511719</ele>
        <time>2014-02-12T08:40:59.000Z</time>
      </trkpt>
      <trkpt lat="45.91144" lon="6.49337">
        <ele>1868.1999511719</ele>
        <time>2014-02-12T08:41:00.000Z</time>
      </trkpt>
      <trkpt lat="45.91144" lon="6.49337">
        <ele>1868.1999511719</ele>
        <time>2014-02-12T08:41:02.000Z</time>
      </trkpt>
      <trkpt lat="45.91144" lon="6.49337">
        <ele>1868.1999511719</ele>
        <time>2014-02-12T08:41:03.000Z</time>
      </trkpt>
      <trkpt lat="45.91144" lon="6.49337">
        <ele>1868.1999511719</ele>
        <time>2014-02-12T08:41:04.000Z</time>
      </trkpt>
      <trkpt lat="45.91144" lon="6.49337">
        <ele>1868.1999511719</ele>
        <time>2014-02-12T08:41:05.000Z</time>
      </trkpt>
      <trkpt lat="45.91144" lon="6.49337">
        <ele>1868.1999511719</ele>
        <time>2014-02-12T08:41:06.000Z</time>
      </trkpt>
      <trkpt lat="45.91144" lon="6.49337">
        <ele>1868.1999511719</ele>
        <time>2014-02-12T08:41:07.000Z</time>
      </trkpt>
      <trkpt lat="45.91144" lon="6.49337">
        <ele>1868.1999511719</ele>
        <time>2014-02-12T08:41:08.000Z</time>
      </trkpt>
      <trkpt lat="45.91144" lon="6.49337">
        <ele>1868.1999511719</ele>
        <time>2014-02-12T08:41:09.000Z</time>
      </trkpt>
      <trkpt lat="45.91144" lon="6.49337">
        <ele>1868.1999511719</ele>
        <time>2014-02-12T08:41:10.000Z</time>
      </trkpt>
      <trkpt lat="45.91144" lon="6.49337">
        <ele>1868.1999511719</ele>
        <time>2014-02-12T08:41:11.000Z</time>
      </trkpt>
      <trkpt lat="45.91144" lon="6.49337">
        <ele>1868.1999511719</ele>
        <time>2014-02-12T08:41:12.000Z</time>
      </trkpt>
      <trkpt lat="45.91144" lon="6.49337">
        <ele>1868.1999511719</ele>
        <time>2014-02-12T08:41:13.000Z</time>
      </trkpt>
      <trkpt lat="45.91144" lon="6.49337">
        <ele>1868.1999511719</ele>
        <time>2014-02-12T08:41:14.000Z</time>
      </trkpt>
      <trkpt lat="45.91144" lon="6.49337">
        <ele>1868.1999511719</ele>
        <time>2014-02-12T08:41:15.000Z</time>
      </trkpt>
      <trkpt lat="45.91144" lon="6.49337">
        <ele>1868.1999511719</ele>
        <time>2014-02-12T08:41:16.000Z</time>
      </trkpt>
      <trkpt lat="45.91144" lon="6.49337">
        <ele>1868.1999511719</ele>
        <time>2014-02-12T08:41:17.000Z</time>
      </trkpt>
      <trkpt lat="45.91144" lon="6.49337">
        <ele>1868.1999511719</ele>
        <time>2014-02-12T08:41:18.000Z</time>
      </trkpt>
      <trkpt lat="45.91144" lon="6.49337">
        <ele>1868.1999511719</ele>
        <time>2014-02-12T08:41:19.000Z</time>
      </trkpt>
      <trkpt lat="45.91144" lon="6.49337">
        <ele>1868.1999511719</ele>
        <time>2014-02-12T08:41:21.000Z</time>
      </trkpt>
      <trkpt lat="45.91144" lon="6.49337">
        <ele>1868.1999511719</ele>
        <time>2014-02-12T08:41:22.000Z</time>
      </trkpt>
      <trkpt lat="45.91144" lon="6.49337">
        <ele>1868.1999511719</ele>
        <time>2014-02-12T08:41:23.000Z</time>
      </trkpt>
      <trkpt lat="45.91144" lon="6.49337">
        <ele>1868.1999511719</ele>
        <time>2014-02-12T08:41:24.000Z</time>
      </trkpt>
      <trkpt lat="45.91144" lon="6.49337">
        <ele>1868.1999511719</ele>
        <time>2014-02-12T08:41:25.000Z</time>
      </trkpt>
      <trkpt lat="45.91144" lon="6.49337">
        <ele>1868.1999511719</ele>
        <time>2014-02-12T08:41:26.000Z</time>
      </trkpt>
      <trkpt lat="45.91144" lon="6.49337">
        <ele>1868.1999511719</ele>
        <time>2014-02-12T08:41:27.000Z</time>
      </trkpt>
      <trkpt lat="45.91144" lon="6.49337">
        <ele>1868.1999511719</ele>
        <time>2014-02-12T08:41:28.000Z</time>
      </trkpt>
      <trkpt lat="45.91144" lon="6.49337">
        <ele>1868.1999511719</ele>
        <time>2014-02-12T08:41:29.000Z</time>
      </trkpt>
      <trkpt lat="45.91144" lon="6.49337">
        <ele>1868.1999511719</ele>
        <time>2014-02-12T08:41:30.000Z</time>
      </trkpt>
      <trkpt lat="45.91144" lon="6.49337">
        <ele>1868.1999511719</ele>
        <time>2014-02-12T08:41:31.000Z</time>
      </trkpt>
      <trkpt lat="45.91144" lon="6.49337">
        <ele>1868.1999511719</ele>
        <time>2014-02-12T08:41:32.000Z</time>
      </trkpt>
      <trkpt lat="45.91142" lon="6.49337">
        <ele>1867.5999755859</ele>
        <time>2014-02-12T08:41:33.000Z</time>
      </trkpt>
      <trkpt lat="45.91142" lon="6.49337">
        <ele>1867.5999755859</ele>
        <time>2014-02-12T08:41:34.000Z</time>
      </trkpt>
      <trkpt lat="45.91142" lon="6.49337">
        <ele>1867.5999755859</ele>
        <time>2014-02-12T08:41:35.000Z</time>
      </trkpt>
      <trkpt lat="45.91142" lon="6.49337">
        <ele>1867.5999755859</ele>
        <time>2014-02-12T08:41:36.000Z</time>
      </trkpt>
      <trkpt lat="45.91142" lon="6.49337">
        <ele>1867.5999755859</ele>
        <time>2014-02-12T08:41:37.000Z</time>
      </trkpt>
      <trkpt lat="45.9114" lon="6.49338">
        <ele>1866.8000488281</ele>
        <time>2014-02-12T08:41:38.000Z</time>
      </trkpt>
      <trkpt lat="45.91138" lon="6.49337">
        <ele>1867.4000244141</ele>
        <time>2014-02-12T08:41:39.000Z</time>
      </trkpt>
      <trkpt lat="45.91137" lon="6.49338">
        <ele>1867.8000488281</ele>
        <time>2014-02-12T08:41:40.000Z</time>
      </trkpt>
      <trkpt lat="45.91135" lon="6.49337">
        <ele>1868.1999511719</ele>
        <time>2014-02-12T08:41:41.000Z</time>
      </trkpt>
      <trkpt lat="45.91134" lon="6.49337">
        <ele>1868.4000244141</ele>
        <time>2014-02-12T08:41:42.000Z</time>
      </trkpt>
      <trkpt lat="45.91132" lon="6.49337">
        <ele>1868.8000488281</ele>
        <time>2014-02-12T08:41:43.000Z</time>
      </trkpt>
      <trkpt lat="45.91131" lon="6.49337">
        <ele>1869</ele>
        <time>2014-02-12T08:41:44.000Z</time>
      </trkpt>
      <trkpt lat="45.9113" lon="6.49336">
        <ele>1869.4000244141</ele>
        <time>2014-02-12T08:41:45.000Z</time>
      </trkpt>
      <trkpt lat="45.91129" lon="6.49336">
        <ele>1869.5999755859</ele>
        <time>2014-02-12T08:41:46.000Z</time>
      </trkpt>
      <trkpt lat="45.91127" lon="6.49336">
        <ele>1869.8000488281</ele>
        <time>2014-02-12T08:41:47.000Z</time>
      </trkpt>
      <trkpt lat="45.91125" lon="6.49334">
        <ele>1870</ele>
        <time>2014-02-12T08:41:49.000Z</time>
      </trkpt>
      <trkpt lat="45.91124" lon="6.49333">
        <ele>1869.8000488281</ele>
        <time>2014-02-12T08:41:50.000Z</time>
      </trkpt>
      <trkpt lat="45.91122" lon="6.49331">
        <ele>1869.8000488281</ele>
        <time>2014-02-12T08:41:51.000Z</time>
      </trkpt>
      <trkpt lat="45.91121" lon="6.49331">
        <ele>1869.8000488281</ele>
        <time>2014-02-12T08:41:52.000Z</time>
      </trkpt>
      <trkpt lat="45.91119" lon="6.4933">
        <ele>1869.8000488281</ele>
        <time>2014-02-12T08:41:53.000Z</time>
      </trkpt>
      <trkpt lat="45.91118" lon="6.49329">
        <ele>1869.8000488281</ele>
        <time>2014-02-12T08:41:54.000Z</time>
      </trkpt>
      <trkpt lat="45.91117" lon="6.49328">
        <ele>1869.8000488281</ele>
        <time>2014-02-12T08:41:55.000Z</time>
      </trkpt>
      <trkpt lat="45.91116" lon="6.49327">
        <ele>1869.5999755859</ele>
        <time>2014-02-12T08:41:56.000Z</time>
      </trkpt>
      <trkpt lat="45.91115" lon="6.49326">
        <ele>1869.5999755859</ele>
        <time>2014-02-12T08:41:57.000Z</time>
      </trkpt>
      <trkpt lat="45.91114" lon="6.49325">
        <ele>1869.5999755859</ele>
        <time>2014-02-12T08:41:58.000Z</time>
      </trkpt>
      <trkpt lat="45.91112" lon="6.49324">
        <ele>1869.5999755859</ele>
        <time>2014-02-12T08:41:59.000Z</time>
      </trkpt>
      <trkpt lat="45.91111" lon="6.49323">
        <ele>1869.5999755859</ele>
        <time>2014-02-12T08:42:00.000Z</time>
      </trkpt>
      <trkpt lat="45.9111" lon="6.49322">
        <ele>1869.8000488281</ele>
        <time>2014-02-12T08:42:01.000Z</time>
      </trkpt>
      <trkpt lat="45.91109" lon="6.49322">
        <ele>1869.8000488281</ele>
        <time>2014-02-12T08:42:02.000Z</time>
      </trkpt>
      <trkpt lat="45.91108" lon="6.4932">
        <ele>1869.8000488281</ele>
        <time>2014-02-12T08:42:03.000Z</time>
      </trkpt>
      <trkpt lat="45.91107" lon="6.4932">
        <ele>1869.8000488281</ele>
        <time>2014-02-12T08:42:04.000Z</time>
      </trkpt>
      <trkpt lat="45.91106" lon="6.49319">
        <ele>1869.8000488281</ele>
        <time>2014-02-12T08:42:05.000Z</time>
      </trkpt>
      <trkpt lat="45.91105" lon="6.49318">
        <ele>1869.8000488281</ele>
        <time>2014-02-12T08:42:06.000Z</time>
      </trkpt>
      <trkpt lat="45.91104" lon="6.49318">
        <ele>1870</ele>
        <time>2014-02-12T08:42:07.000Z</time>
      </trkpt>
      <trkpt lat="45.91103" lon="6.49317">
        <ele>1869.8000488281</ele>
        <time>2014-02-12T08:42:08.000Z</time>
      </trkpt>
      <trkpt lat="45.91102" lon="6.49316">
        <ele>1870</ele>
        <time>2014-02-12T08:42:09.000Z</time>
      </trkpt>
      <trkpt lat="45.91101" lon="6.49316">
        <ele>1870.1999511719</ele>
        <time>2014-02-12T08:42:10.000Z</time>
      </trkpt>
      <trkpt lat="45.911" lon="6.49315">
        <ele>1870.4000244141</ele>
        <time>2014-02-12T08:42:11.000Z</time>
      </trkpt>
      <trkpt lat="45.911" lon="6.49316">
        <ele>1870.4000244141</ele>
        <time>2014-02-12T08:42:12.000Z</time>
      </trkpt>
      <trkpt lat="45.911" lon="6.49316">
        <ele>1870.5999755859</ele>
        <time>2014-02-12T08:42:13.000Z</time>
      </trkpt>
      <trkpt lat="45.91099" lon="6.49316">
        <ele>1870.8000488281</ele>
        <time>2014-02-12T08:42:14.000Z</time>
      </trkpt>
      <trkpt lat="45.91099" lon="6.49316">
        <ele>1870.8000488281</ele>
        <time>2014-02-12T08:42:15.000Z</time>
      </trkpt>
      <trkpt lat="45.91098" lon="6.49316">
        <ele>1871</ele>
        <time>2014-02-12T08:42:16.000Z</time>
      </trkpt>
      <trkpt lat="45.91097" lon="6.49316">
        <ele>1871.1999511719</ele>
        <time>2014-02-12T08:42:17.000Z</time>
      </trkpt>
      <trkpt lat="45.91096" lon="6.49315">
        <ele>1871.4000244141</ele>
        <time>2014-02-12T08:42:18.000Z</time>
      </trkpt>
      <trkpt lat="45.91096" lon="6.49315">
        <ele>1871.5999755859</ele>
        <time>2014-02-12T08:42:19.000Z</time>
      </trkpt>
      <trkpt lat="45.91096" lon="6.49316">
        <ele>1871.5999755859</ele>
        <time>2014-02-12T08:42:20.000Z</time>
      </trkpt>
      <trkpt lat="45.91096" lon="6.49316">
        <ele>1871.8000488281</ele>
        <time>2014-02-12T08:42:21.000Z</time>
      </trkpt>
      <trkpt lat="45.91096" lon="6.49317">
        <ele>1871.8000488281</ele>
        <time>2014-02-12T08:42:22.000Z</time>
      </trkpt>
      <trkpt lat="45.91095" lon="6.49316">
        <ele>1871.8000488281</ele>
        <time>2014-02-12T08:42:23.000Z</time>
      </trkpt>
      <trkpt lat="45.91095" lon="6.49316">
        <ele>1872</ele>
        <time>2014-02-12T08:42:24.000Z</time>
      </trkpt>
      <trkpt lat="45.91095" lon="6.49317">
        <ele>1872.1999511719</ele>
        <time>2014-02-12T08:42:25.000Z</time>
      </trkpt>
      <trkpt lat="45.91095" lon="6.49318">
        <ele>1872.5999755859</ele>
        <time>2014-02-12T08:42:26.000Z</time>
      </trkpt>
      <trkpt lat="45.91095" lon="6.49318">
        <ele>1872.5999755859</ele>
        <time>2014-02-12T08:42:27.000Z</time>
      </trkpt>
      <trkpt lat="45.91095" lon="6.49318">
        <ele>1872.5999755859</ele>
        <time>2014-02-12T08:42:28.000Z</time>
      </trkpt>
      <trkpt lat="45.91095" lon="6.49318">
        <ele>1872.5999755859</ele>
        <time>2014-02-12T08:42:29.000Z</time>
      </trkpt>
      <trkpt lat="45.91095" lon="6.49318">
        <ele>1872.5999755859</ele>
        <time>2014-02-12T08:42:30.000Z</time>
      </trkpt>
      <trkpt lat="45.91095" lon="6.49318">
        <ele>1872.5999755859</ele>
        <time>2014-02-12T08:42:31.000Z</time>
      </trkpt>
      <trkpt lat="45.91095" lon="6.49318">
        <ele>1872.5999755859</ele>
        <time>2014-02-12T08:42:32.000Z</time>
      </trkpt>
      <trkpt lat="45.91095" lon="6.49318">
        <ele>1872.5999755859</ele>
        <time>2014-02-12T08:42:33.000Z</time>
      </trkpt>
      <trkpt lat="45.91095" lon="6.49318">
        <ele>1872.5999755859</ele>
        <time>2014-02-12T08:42:34.000Z</time>
      </trkpt>
      <trkpt lat="45.91095" lon="6.49318">
        <ele>1872.5999755859</ele>
        <time>2014-02-12T08:42:35.000Z</time>
      </trkpt>
      <trkpt lat="45.91095" lon="6.49318">
        <ele>1872.5999755859</ele>
        <time>2014-02-12T08:42:36.000Z</time>
      </trkpt>
      <trkpt lat="45.91095" lon="6.49318">
        <ele>1872.5999755859</ele>
        <time>2014-02-12T08:42:37.000Z</time>
      </trkpt>
      <trkpt lat="45.91095" lon="6.49318">
        <ele>1872.5999755859</ele>
        <time>2014-02-12T08:42:38.000Z</time>
      </trkpt>
      <trkpt lat="45.91095" lon="6.49318">
        <ele>1872.5999755859</ele>
        <time>2014-02-12T08:42:39.000Z</time>
      </trkpt>
      <trkpt lat="45.91095" lon="6.49318">
        <ele>1872.5999755859</ele>
        <time>2014-02-12T08:42:40.000Z</time>
      </trkpt>
      <trkpt lat="45.91095" lon="6.49318">
        <ele>1872.5999755859</ele>
        <time>2014-02-12T08:42:41.000Z</time>
      </trkpt>
      <trkpt lat="45.91095" lon="6.49318">
        <ele>1872.5999755859</ele>
        <time>2014-02-12T08:42:42.000Z</time>
      </trkpt>
      <trkpt lat="45.91095" lon="6.49318">
        <ele>1872.5999755859</ele>
        <time>2014-02-12T08:42:43.000Z</time>
      </trkpt>
      <trkpt lat="45.91095" lon="6.49318">
        <ele>1872.5999755859</ele>
        <time>2014-02-12T08:42:44.000Z</time>
      </trkpt>
      <trkpt lat="45.91095" lon="6.49318">
        <ele>1872.5999755859</ele>
        <time>2014-02-12T08:42:45.000Z</time>
      </trkpt>
      <trkpt lat="45.91095" lon="6.49318">
        <ele>1872.5999755859</ele>
        <time>2014-02-12T08:42:46.000Z</time>
      </trkpt>
      <trkpt lat="45.91095" lon="6.49318">
        <ele>1872.5999755859</ele>
        <time>2014-02-12T08:42:47.000Z</time>
      </trkpt>
      <trkpt lat="45.91094" lon="6.49319">
        <ele>1873.4000244141</ele>
        <time>2014-02-12T08:42:48.000Z</time>
      </trkpt>
      <trkpt lat="45.91093" lon="6.4932">
        <ele>1873.8000488281</ele>
        <time>2014-02-12T08:42:49.000Z</time>
      </trkpt>
      <trkpt lat="45.91092" lon="6.49322">
        <ele>1874.8000488281</ele>
        <time>2014-02-12T08:42:50.000Z</time>
      </trkpt>
      <trkpt lat="45.91092" lon="6.49322">
        <ele>1875</ele>
        <time>2014-02-12T08:42:51.000Z</time>
      </trkpt>
      <trkpt lat="45.91092" lon="6.49322">
        <ele>1875</ele>
        <time>2014-02-12T08:42:52.000Z</time>
      </trkpt>
      <trkpt lat="45.91092" lon="6.49323">
        <ele>1875.5999755859</ele>
        <time>2014-02-12T08:42:53.000Z</time>
      </trkpt>
      <trkpt lat="45.91092" lon="6.49323">
        <ele>1875.5999755859</ele>
        <time>2014-02-12T08:42:54.000Z</time>
      </trkpt>
      <trkpt lat="45.91091" lon="6.49324">
        <ele>1876</ele>
        <time>2014-02-12T08:42:55.000Z</time>
      </trkpt>
      <trkpt lat="45.91091" lon="6.49324">
        <ele>1876</ele>
        <time>2014-02-12T08:42:56.000Z</time>
      </trkpt>
      <trkpt lat="45.9109" lon="6.49325">
        <ele>1876.4000244141</ele>
        <time>2014-02-12T08:42:57.000Z</time>
      </trkpt>
      <trkpt lat="45.9109" lon="6.49326">
        <ele>1877</ele>
        <time>2014-02-12T08:42:58.000Z</time>
      </trkpt>
      <trkpt lat="45.91089" lon="6.49326">
        <ele>1877.1999511719</ele>
        <time>2014-02-12T08:42:59.000Z</time>
      </trkpt>
      <trkpt lat="45.91089" lon="6.49326">
        <ele>1877.1999511719</ele>
        <time>2014-02-12T08:43:00.000Z</time>
      </trkpt>
      <trkpt lat="45.91089" lon="6.49326">
        <ele>1877.1999511719</ele>
        <time>2014-02-12T08:43:01.000Z</time>
      </trkpt>
      <trkpt lat="45.91089" lon="6.49326">
        <ele>1877.1999511719</ele>
        <time>2014-02-12T08:43:02.000Z</time>
      </trkpt>
      <trkpt lat="45.91089" lon="6.49326">
        <ele>1877.1999511719</ele>
        <time>2014-02-12T08:43:03.000Z</time>
      </trkpt>
      <trkpt lat="45.91089" lon="6.49326">
        <ele>1877.1999511719</ele>
        <time>2014-02-12T08:43:04.000Z</time>
      </trkpt>
      <trkpt lat="45.91089" lon="6.49326">
        <ele>1877.1999511719</ele>
        <time>2014-02-12T08:43:05.000Z</time>
      </trkpt>
      <trkpt lat="45.91089" lon="6.49326">
        <ele>1877.1999511719</ele>
        <time>2014-02-12T08:43:06.000Z</time>
      </trkpt>
      <trkpt lat="45.91089" lon="6.49326">
        <ele>1877.1999511719</ele>
        <time>2014-02-12T08:43:07.000Z</time>
      </trkpt>
      <trkpt lat="45.91089" lon="6.49326">
        <ele>1877.1999511719</ele>
        <time>2014-02-12T08:43:08.000Z</time>
      </trkpt>
      <trkpt lat="45.91089" lon="6.49326">
        <ele>1877.1999511719</ele>
        <time>2014-02-12T08:43:09.000Z</time>
      </trkpt>
      <trkpt lat="45.91089" lon="6.49326">
        <ele>1877.1999511719</ele>
        <time>2014-02-12T08:43:10.000Z</time>
      </trkpt>
      <trkpt lat="45.91089" lon="6.49326">
        <ele>1877.1999511719</ele>
        <time>2014-02-12T08:43:11.000Z</time>
      </trkpt>
      <trkpt lat="45.91089" lon="6.49326">
        <ele>1877.1999511719</ele>
        <time>2014-02-12T08:43:12.000Z</time>
      </trkpt>
      <trkpt lat="45.91089" lon="6.49326">
        <ele>1877.1999511719</ele>
        <time>2014-02-12T08:43:13.000Z</time>
      </trkpt>
      <trkpt lat="45.91089" lon="6.49326">
        <ele>1877.1999511719</ele>
        <time>2014-02-12T08:43:14.000Z</time>
      </trkpt>
      <trkpt lat="45.91089" lon="6.49326">
        <ele>1877.1999511719</ele>
        <time>2014-02-12T08:43:15.000Z</time>
      </trkpt>
      <trkpt lat="45.91089" lon="6.49326">
        <ele>1877.1999511719</ele>
        <time>2014-02-12T08:43:16.000Z</time>
      </trkpt>
      <trkpt lat="45.91089" lon="6.49326">
        <ele>1877.1999511719</ele>
        <time>2014-02-12T08:43:17.000Z</time>
      </trkpt>
      <trkpt lat="45.91089" lon="6.49326">
        <ele>1877.1999511719</ele>
        <time>2014-02-12T08:43:18.000Z</time>
      </trkpt>
      <trkpt lat="45.91089" lon="6.49326">
        <ele>1877.1999511719</ele>
        <time>2014-02-12T08:43:19.000Z</time>
      </trkpt>
      <trkpt lat="45.91089" lon="6.49326">
        <ele>1877.1999511719</ele>
        <time>2014-02-12T08:43:20.000Z</time>
      </trkpt>
      <trkpt lat="45.91089" lon="6.49326">
        <ele>1877.1999511719</ele>
        <time>2014-02-12T08:43:21.000Z</time>
      </trkpt>
      <trkpt lat="45.91089" lon="6.49326">
        <ele>1877.1999511719</ele>
        <time>2014-02-12T08:43:22.000Z</time>
      </trkpt>
      <trkpt lat="45.91089" lon="6.49326">
        <ele>1877.1999511719</ele>
        <time>2014-02-12T08:43:23.000Z</time>
      </trkpt>
      <trkpt lat="45.91089" lon="6.49326">
        <ele>1877.1999511719</ele>
        <time>2014-02-12T08:43:24.000Z</time>
      </trkpt>
      <trkpt lat="45.91089" lon="6.49326">
        <ele>1877.1999511719</ele>
        <time>2014-02-12T08:43:25.000Z</time>
      </trkpt>
      <trkpt lat="45.91089" lon="6.49326">
        <ele>1877.1999511719</ele>
        <time>2014-02-12T08:43:26.000Z</time>
      </trkpt>
      <trkpt lat="45.91089" lon="6.49326">
        <ele>1877.1999511719</ele>
        <time>2014-02-12T08:43:27.000Z</time>
      </trkpt>
      <trkpt lat="45.91089" lon="6.49326">
        <ele>1877.1999511719</ele>
        <time>2014-02-12T08:43:28.000Z</time>
      </trkpt>
      <trkpt lat="45.91089" lon="6.49326">
        <ele>1877.1999511719</ele>
        <time>2014-02-12T08:43:29.000Z</time>
      </trkpt>
      <trkpt lat="45.91089" lon="6.49326">
        <ele>1877.1999511719</ele>
        <time>2014-02-12T08:43:30.000Z</time>
      </trkpt>
      <trkpt lat="45.91088" lon="6.49327">
        <ele>1878</ele>
        <time>2014-02-12T08:43:31.000Z</time>
      </trkpt>
      <trkpt lat="45.91088" lon="6.49327">
        <ele>1878</ele>
        <time>2014-02-12T08:43:32.000Z</time>
      </trkpt>
      <trkpt lat="45.91087" lon="6.49328">
        <ele>1878.5999755859</ele>
        <time>2014-02-12T08:43:33.000Z</time>
      </trkpt>
      <trkpt lat="45.91086" lon="6.49329">
        <ele>1879.1999511719</ele>
        <time>2014-02-12T08:43:34.000Z</time>
      </trkpt>
      <trkpt lat="45.91085" lon="6.4933">
        <ele>1879.8000488281</ele>
        <time>2014-02-12T08:43:35.000Z</time>
      </trkpt>
      <trkpt lat="45.91085" lon="6.4933">
        <ele>1879.8000488281</ele>
        <time>2014-02-12T08:43:36.000Z</time>
      </trkpt>
      <trkpt lat="45.91084" lon="6.49331">
        <ele>1880.4000244141</ele>
        <time>2014-02-12T08:43:37.000Z</time>
      </trkpt>
      <trkpt lat="45.91083" lon="6.49332">
        <ele>1881.1999511719</ele>
        <time>2014-02-12T08:43:38.000Z</time>
      </trkpt>
      <trkpt lat="45.91082" lon="6.49333">
        <ele>1882</ele>
        <time>2014-02-12T08:43:39.000Z</time>
      </trkpt>
      <trkpt lat="45.91081" lon="6.49335">
        <ele>1882.8000488281</ele>
        <time>2014-02-12T08:43:40.000Z</time>
      </trkpt>
      <trkpt lat="45.9108" lon="6.49336">
        <ele>1883.5999755859</ele>
        <time>2014-02-12T08:43:41.000Z</time>
      </trkpt>
      <trkpt lat="45.91079" lon="6.49337">
        <ele>1884.1999511719</ele>
        <time>2014-02-12T08:43:42.000Z</time>
      </trkpt>
      <trkpt lat="45.91077" lon="6.49339">
        <ele>1885.4000244141</ele>
        <time>2014-02-12T08:43:43.000Z</time>
      </trkpt>
      <trkpt lat="45.91077" lon="6.49339">
        <ele>1886</ele>
        <time>2014-02-12T08:43:44.000Z</time>
      </trkpt>
      <trkpt lat="45.91075" lon="6.49341">
        <ele>1887</ele>
        <time>2014-02-12T08:43:45.000Z</time>
      </trkpt>
      <trkpt lat="45.91075" lon="6.49342">
        <ele>1887.4000244141</ele>
        <time>2014-02-12T08:43:46.000Z</time>
      </trkpt>
      <trkpt lat="45.91074" lon="6.49342">
        <ele>1887.8000488281</ele>
        <time>2014-02-12T08:43:47.000Z</time>
      </trkpt>
      <trkpt lat="45.91073" lon="6.49343">
        <ele>1888.5999755859</ele>
        <time>2014-02-12T08:43:48.000Z</time>
      </trkpt>
      <trkpt lat="45.91073" lon="6.49343">
        <ele>1888.5999755859</ele>
        <time>2014-02-12T08:43:49.000Z</time>
      </trkpt>
      <trkpt lat="45.91073" lon="6.49344">
        <ele>1889</ele>
        <time>2014-02-12T08:43:50.000Z</time>
      </trkpt>
      <trkpt lat="45.91073" lon="6.49344">
        <ele>1889</ele>
        <time>2014-02-12T08:43:51.000Z</time>
      </trkpt>
      <trkpt lat="45.91072" lon="6.49344">
        <ele>1889.4000244141</ele>
        <time>2014-02-12T08:43:52.000Z</time>
      </trkpt>
      <trkpt lat="45.91071" lon="6.49345">
        <ele>1890</ele>
        <time>2014-02-12T08:43:53.000Z</time>
      </trkpt>
      <trkpt lat="45.91071" lon="6.49345">
        <ele>1890.4000244141</ele>
        <time>2014-02-12T08:43:54.000Z</time>
      </trkpt>
      <trkpt lat="45.91071" lon="6.49345">
        <ele>1890.4000244141</ele>
        <time>2014-02-12T08:43:55.000Z</time>
      </trkpt>
      <trkpt lat="45.9107" lon="6.49346">
        <ele>1890.8000488281</ele>
        <time>2014-02-12T08:43:56.000Z</time>
      </trkpt>
      <trkpt lat="45.9107" lon="6.49346">
        <ele>1890.8000488281</ele>
        <time>2014-02-12T08:43:57.000Z</time>
      </trkpt>
      <trkpt lat="45.9107" lon="6.49346">
        <ele>1891.1999511719</ele>
        <time>2014-02-12T08:43:58.000Z</time>
      </trkpt>
      <trkpt lat="45.91069" lon="6.49347">
        <ele>1891.8000488281</ele>
        <time>2014-02-12T08:43:59.000Z</time>
      </trkpt>
      <trkpt lat="45.91069" lon="6.49349">
        <ele>1892.5999755859</ele>
        <time>2014-02-12T08:44:00.000Z</time>
      </trkpt>
      <trkpt lat="45.91068" lon="6.4935">
        <ele>1893.1999511719</ele>
        <time>2014-02-12T08:44:01.000Z</time>
      </trkpt>
      <trkpt lat="45.91067" lon="6.4935">
        <ele>1893.5999755859</ele>
        <time>2014-02-12T08:44:02.000Z</time>
      </trkpt>
      <trkpt lat="45.91067" lon="6.4935">
        <ele>1893.5999755859</ele>
        <time>2014-02-12T08:44:03.000Z</time>
      </trkpt>
      <trkpt lat="45.91067" lon="6.49351">
        <ele>1894</ele>
        <time>2014-02-12T08:44:04.000Z</time>
      </trkpt>
      <trkpt lat="45.91066" lon="6.49352">
        <ele>1894.4000244141</ele>
        <time>2014-02-12T08:44:05.000Z</time>
      </trkpt>
      <trkpt lat="45.91066" lon="6.49352">
        <ele>1895</ele>
        <time>2014-02-12T08:44:06.000Z</time>
      </trkpt>
      <trkpt lat="45.91065" lon="6.49355">
        <ele>1896.1999511719</ele>
        <time>2014-02-12T08:44:07.000Z</time>
      </trkpt>
      <trkpt lat="45.91064" lon="6.49355">
        <ele>1896.5999755859</ele>
        <time>2014-02-12T08:44:08.000Z</time>
      </trkpt>
      <trkpt lat="45.91064" lon="6.49357">
        <ele>1897.5999755859</ele>
        <time>2014-02-12T08:44:09.000Z</time>
      </trkpt>
      <trkpt lat="45.91063" lon="6.49357">
        <ele>1898</ele>
        <time>2014-02-12T08:44:10.000Z</time>
      </trkpt>
      <trkpt lat="45.91062" lon="6.49358">
        <ele>1898.8000488281</ele>
        <time>2014-02-12T08:44:11.000Z</time>
      </trkpt>
      <trkpt lat="45.91061" lon="6.49359">
        <ele>1899.1999511719</ele>
        <time>2014-02-12T08:44:12.000Z</time>
      </trkpt>
      <trkpt lat="45.91061" lon="6.4936">
        <ele>1899.8000488281</ele>
        <time>2014-02-12T08:44:13.000Z</time>
      </trkpt>
      <trkpt lat="45.9106" lon="6.4936">
        <ele>1900.1999511719</ele>
        <time>2014-02-12T08:44:14.000Z</time>
      </trkpt>
      <trkpt lat="45.9106" lon="6.49361">
        <ele>1900.5999755859</ele>
        <time>2014-02-12T08:44:15.000Z</time>
      </trkpt>
      <trkpt lat="45.91059" lon="6.49361">
        <ele>1901</ele>
        <time>2014-02-12T08:44:16.000Z</time>
      </trkpt>
      <trkpt lat="45.91058" lon="6.49362">
        <ele>1901.4000244141</ele>
        <time>2014-02-12T08:44:17.000Z</time>
      </trkpt>
      <trkpt lat="45.91057" lon="6.49362">
        <ele>1901.8000488281</ele>
        <time>2014-02-12T08:44:18.000Z</time>
      </trkpt>
      <trkpt lat="45.91057" lon="6.49362">
        <ele>1902</ele>
        <time>2014-02-12T08:44:19.000Z</time>
      </trkpt>
      <trkpt lat="45.91051" lon="6.4936">
        <ele>1903</ele>
        <time>2014-02-12T08:44:20.000Z</time>
      </trkpt>
      <trkpt lat="45.91052" lon="6.49363">
        <ele>1904</ele>
        <time>2014-02-12T08:44:21.000Z</time>
      </trkpt>
      <trkpt lat="45.91052" lon="6.49365">
        <ele>1904.8000488281</ele>
        <time>2014-02-12T08:44:22.000Z</time>
      </trkpt>
      <trkpt lat="45.91052" lon="6.49366">
        <ele>1905</ele>
        <time>2014-02-12T08:44:23.000Z</time>
      </trkpt>
      <trkpt lat="45.91053" lon="6.49365">
        <ele>1904.8000488281</ele>
        <time>2014-02-12T08:44:24.000Z</time>
      </trkpt>
      <trkpt lat="45.91052" lon="6.49365">
        <ele>1905</ele>
        <time>2014-02-12T08:44:25.000Z</time>
      </trkpt>
      <trkpt lat="45.9105" lon="6.49364">
        <ele>1905</ele>
        <time>2014-02-12T08:44:26.000Z</time>
      </trkpt>
      <trkpt lat="45.91048" lon="6.49363">
        <ele>1905.4000244141</ele>
        <time>2014-02-12T08:44:27.000Z</time>
      </trkpt>
      <trkpt lat="45.91047" lon="6.49362">
        <ele>1905.1999511719</ele>
        <time>2014-02-12T08:44:28.000Z</time>
      </trkpt>
      <trkpt lat="45.91045" lon="6.49359">
        <ele>1904.5999755859</ele>
        <time>2014-02-12T08:44:30.000Z</time>
      </trkpt>
      <trkpt lat="45.91045" lon="6.49359">
        <ele>1904.4000244141</ele>
        <time>2014-02-12T08:44:31.000Z</time>
      </trkpt>
      <trkpt lat="45.91045" lon="6.49359">
        <ele>1904.4000244141</ele>
        <time>2014-02-12T08:44:32.000Z</time>
      </trkpt>
      <trkpt lat="45.91045" lon="6.49359">
        <ele>1904.5999755859</ele>
        <time>2014-02-12T08:44:33.000Z</time>
      </trkpt>
      <trkpt lat="45.91045" lon="6.49359">
        <ele>1904.8000488281</ele>
        <time>2014-02-12T08:44:34.000Z</time>
      </trkpt>
      <trkpt lat="45.91045" lon="6.49359">
        <ele>1904.8000488281</ele>
        <time>2014-02-12T08:44:35.000Z</time>
      </trkpt>
      <trkpt lat="45.91045" lon="6.49359">
        <ele>1904.8000488281</ele>
        <time>2014-02-12T08:44:36.000Z</time>
      </trkpt>
      <trkpt lat="45.91045" lon="6.49359">
        <ele>1904.8000488281</ele>
        <time>2014-02-12T08:44:37.000Z</time>
      </trkpt>
      <trkpt lat="45.91045" lon="6.49359">
        <ele>1904.5999755859</ele>
        <time>2014-02-12T08:44:38.000Z</time>
      </trkpt>
      <trkpt lat="45.91045" lon="6.49359">
        <ele>1904.5999755859</ele>
        <time>2014-02-12T08:44:39.000Z</time>
      </trkpt>
      <trkpt lat="45.91044" lon="6.49359">
        <ele>1904.8000488281</ele>
        <time>2014-02-12T08:44:40.000Z</time>
      </trkpt>
      <trkpt lat="45.91044" lon="6.49359">
        <ele>1904.8000488281</ele>
        <time>2014-02-12T08:44:41.000Z</time>
      </trkpt>
      <trkpt lat="45.91044" lon="6.49358">
        <ele>1904.8000488281</ele>
        <time>2014-02-12T08:44:42.000Z</time>
      </trkpt>
      <trkpt lat="45.91044" lon="6.49358">
        <ele>1904.5999755859</ele>
        <time>2014-02-12T08:44:43.000Z</time>
      </trkpt>
      <trkpt lat="45.91044" lon="6.49357">
        <ele>1904.4000244141</ele>
        <time>2014-02-12T08:44:44.000Z</time>
      </trkpt>
      <trkpt lat="45.91044" lon="6.49357">
        <ele>1904</ele>
        <time>2014-02-12T08:44:45.000Z</time>
      </trkpt>
      <trkpt lat="45.91044" lon="6.49357">
        <ele>1904</ele>
        <time>2014-02-12T08:44:46.000Z</time>
      </trkpt>
      <trkpt lat="45.91045" lon="6.49357">
        <ele>1904</ele>
        <time>2014-02-12T08:44:47.000Z</time>
      </trkpt>
      <trkpt lat="45.91045" lon="6.49358">
        <ele>1904.4000244141</ele>
        <time>2014-02-12T08:44:49.000Z</time>
      </trkpt>
      <trkpt lat="45.91046" lon="6.49359">
        <ele>1904.5999755859</ele>
        <time>2014-02-12T08:44:51.000Z</time>
      </trkpt>
      <trkpt lat="45.91046" lon="6.4936">
        <ele>1904.5999755859</ele>
        <time>2014-02-12T08:44:52.000Z</time>
      </trkpt>
      <trkpt lat="45.91046" lon="6.49359">
        <ele>1904.5999755859</ele>
        <time>2014-02-12T08:44:53.000Z</time>
      </trkpt>
      <trkpt lat="45.91046" lon="6.49359">
        <ele>1904.5999755859</ele>
        <time>2014-02-12T08:44:54.000Z</time>
      </trkpt>
      <trkpt lat="45.91044" lon="6.4936">
        <ele>1905</ele>
        <time>2014-02-12T08:44:58.000Z</time>
      </trkpt>
      <trkpt lat="45.91044" lon="6.4936">
        <ele>1905.1999511719</ele>
        <time>2014-02-12T08:44:59.000Z</time>
      </trkpt>
      <trkpt lat="45.91044" lon="6.4936">
        <ele>1905.1999511719</ele>
        <time>2014-02-12T08:45:00.000Z</time>
      </trkpt>
      <trkpt lat="45.91044" lon="6.49359">
        <ele>1905</ele>
        <time>2014-02-12T08:45:02.000Z</time>
      </trkpt>
      <trkpt lat="45.91046" lon="6.49359">
        <ele>1904.5999755859</ele>
        <time>2014-02-12T08:45:04.000Z</time>
      </trkpt>
      <trkpt lat="45.91046" lon="6.49358">
        <ele>1904.1999511719</ele>
        <time>2014-02-12T08:45:05.000Z</time>
      </trkpt>
      <trkpt lat="45.91046" lon="6.49357">
        <ele>1903.8000488281</ele>
        <time>2014-02-12T08:45:06.000Z</time>
      </trkpt>
      <trkpt lat="45.91046" lon="6.49356">
        <ele>1903.1999511719</ele>
        <time>2014-02-12T08:45:07.000Z</time>
      </trkpt>
      <trkpt lat="45.91046" lon="6.49356">
        <ele>1903</ele>
        <time>2014-02-12T08:45:08.000Z</time>
      </trkpt>
      <trkpt lat="45.91046" lon="6.49355">
        <ele>1902.8000488281</ele>
        <time>2014-02-12T08:45:09.000Z</time>
      </trkpt>
      <trkpt lat="45.91046" lon="6.49355">
        <ele>1902.8000488281</ele>
        <time>2014-02-12T08:45:10.000Z</time>
      </trkpt>
      <trkpt lat="45.91047" lon="6.49356">
        <ele>1902.8000488281</ele>
        <time>2014-02-12T08:45:12.000Z</time>
      </trkpt>
      <trkpt lat="45.91047" lon="6.49356">
        <ele>1902.8000488281</ele>
        <time>2014-02-12T08:45:13.000Z</time>
      </trkpt>
      <trkpt lat="45.91047" lon="6.49356">
        <ele>1902.5999755859</ele>
        <time>2014-02-12T08:45:14.000Z</time>
      </trkpt>
      <trkpt lat="45.91047" lon="6.49356">
        <ele>1902.5999755859</ele>
        <time>2014-02-12T08:45:15.000Z</time>
      </trkpt>
      <trkpt lat="45.91046" lon="6.49356">
        <ele>1902.8000488281</ele>
        <time>2014-02-12T08:45:18.000Z</time>
      </trkpt>
      <trkpt lat="45.91046" lon="6.49355">
        <ele>1902.5999755859</ele>
        <time>2014-02-12T08:45:19.000Z</time>
      </trkpt>
      <trkpt lat="45.91047" lon="6.49354">
        <ele>1902</ele>
        <time>2014-02-12T08:45:21.000Z</time>
      </trkpt>
      <trkpt lat="45.91049" lon="6.49354">
        <ele>1901.1999511719</ele>
        <time>2014-02-12T08:45:22.000Z</time>
      </trkpt>
      <trkpt lat="45.91048" lon="6.49353">
        <ele>1901</ele>
        <time>2014-02-12T08:45:25.000Z</time>
      </trkpt>
      <trkpt lat="45.91047" lon="6.49353">
        <ele>1901.1999511719</ele>
        <time>2014-02-12T08:45:26.000Z</time>
      </trkpt>
      <trkpt lat="45.91047" lon="6.49352">
        <ele>1901.1999511719</ele>
        <time>2014-02-12T08:45:27.000Z</time>
      </trkpt>
      <trkpt lat="45.91046" lon="6.49351">
        <ele>1901.1999511719</ele>
        <time>2014-02-12T08:45:28.000Z</time>
      </trkpt>
      <trkpt lat="45.91046" lon="6.49352">
        <ele>1901.1999511719</ele>
        <time>2014-02-12T08:45:29.000Z</time>
      </trkpt>
      <trkpt lat="45.91047" lon="6.49351">
        <ele>1900.8000488281</ele>
        <time>2014-02-12T08:45:31.000Z</time>
      </trkpt>
      <trkpt lat="45.91047" lon="6.4935">
        <ele>1900.4000244141</ele>
        <time>2014-02-12T08:45:32.000Z</time>
      </trkpt>
      <trkpt lat="45.91047" lon="6.49349">
        <ele>1900</ele>
        <time>2014-02-12T08:45:33.000Z</time>
      </trkpt>
      <trkpt lat="45.91047" lon="6.49349">
        <ele>1899.5999755859</ele>
        <time>2014-02-12T08:45:34.000Z</time>
      </trkpt>
      <trkpt lat="45.91048" lon="6.49349">
        <ele>1899.4000244141</ele>
        <time>2014-02-12T08:45:35.000Z</time>
      </trkpt>
      <trkpt lat="45.91048" lon="6.49349">
        <ele>1899.4000244141</ele>
        <time>2014-02-12T08:45:36.000Z</time>
      </trkpt>
      <trkpt lat="45.91047" lon="6.49349">
        <ele>1899.5999755859</ele>
        <time>2014-02-12T08:45:37.000Z</time>
      </trkpt>
      <trkpt lat="45.91047" lon="6.49349">
        <ele>1899.8000488281</ele>
        <time>2014-02-12T08:45:39.000Z</time>
      </trkpt>
      <trkpt lat="45.91047" lon="6.49348">
        <ele>1899.5999755859</ele>
        <time>2014-02-12T08:45:41.000Z</time>
      </trkpt>
      <trkpt lat="45.91047" lon="6.49348">
        <ele>1899.1999511719</ele>
        <time>2014-02-12T08:45:42.000Z</time>
      </trkpt>
      <trkpt lat="45.91047" lon="6.49347">
        <ele>1899</ele>
        <time>2014-02-12T08:45:43.000Z</time>
      </trkpt>
      <trkpt lat="45.91047" lon="6.49347">
        <ele>1898.8000488281</ele>
        <time>2014-02-12T08:45:45.000Z</time>
      </trkpt>
      <trkpt lat="45.91047" lon="6.49346">
        <ele>1898.8000488281</ele>
        <time>2014-02-12T08:45:46.000Z</time>
      </trkpt>
      <trkpt lat="45.91046" lon="6.49346">
        <ele>1898.8000488281</ele>
        <time>2014-02-12T08:45:47.000Z</time>
      </trkpt>
      <trkpt lat="45.91046" lon="6.49346">
        <ele>1898.8000488281</ele>
        <time>2014-02-12T08:45:48.000Z</time>
      </trkpt>
      <trkpt lat="45.91045" lon="6.49345">
        <ele>1898.5999755859</ele>
        <time>2014-02-12T08:45:49.000Z</time>
      </trkpt>
      <trkpt lat="45.91045" lon="6.49345">
        <ele>1898.8000488281</ele>
        <time>2014-02-12T08:45:50.000Z</time>
      </trkpt>
      <trkpt lat="45.91046" lon="6.49346">
        <ele>1898.8000488281</ele>
        <time>2014-02-12T08:45:51.000Z</time>
      </trkpt>
      <trkpt lat="45.91046" lon="6.49347">
        <ele>1899.1999511719</ele>
        <time>2014-02-12T08:45:52.000Z</time>
      </trkpt>
      <trkpt lat="45.91047" lon="6.49347">
        <ele>1899</ele>
        <time>2014-02-12T08:45:54.000Z</time>
      </trkpt>
      <trkpt lat="45.91048" lon="6.49346">
        <ele>1898.4000244141</ele>
        <time>2014-02-12T08:45:55.000Z</time>
      </trkpt>
      <trkpt lat="45.91048" lon="6.49346">
        <ele>1898.1999511719</ele>
        <time>2014-02-12T08:45:56.000Z</time>
      </trkpt>
      <trkpt lat="45.91048" lon="6.49346">
        <ele>1898.1999511719</ele>
        <time>2014-02-12T08:45:57.000Z</time>
      </trkpt>
      <trkpt lat="45.91047" lon="6.49345">
        <ele>1898.4000244141</ele>
        <time>2014-02-12T08:45:58.000Z</time>
      </trkpt>
      <trkpt lat="45.91046" lon="6.49346">
        <ele>1898.8000488281</ele>
        <time>2014-02-12T08:45:59.000Z</time>
      </trkpt>
      <trkpt lat="45.91046" lon="6.49345">
        <ele>1898.4000244141</ele>
        <time>2014-02-12T08:46:00.000Z</time>
      </trkpt>
      <trkpt lat="45.91046" lon="6.49345">
        <ele>1898.4000244141</ele>
        <time>2014-02-12T08:46:01.000Z</time>
      </trkpt>
      <trkpt lat="45.91046" lon="6.49345">
        <ele>1898.4000244141</ele>
        <time>2014-02-12T08:46:03.000Z</time>
      </trkpt>
      <trkpt lat="45.91046" lon="6.49345">
        <ele>1898.4000244141</ele>
        <time>2014-02-12T08:46:04.000Z</time>
      </trkpt>
      <trkpt lat="45.91046" lon="6.49345">
        <ele>1898.4000244141</ele>
        <time>2014-02-12T08:46:05.000Z</time>
      </trkpt>
      <trkpt lat="45.91046" lon="6.49345">
        <ele>1898.4000244141</ele>
        <time>2014-02-12T08:46:06.000Z</time>
      </trkpt>
      <trkpt lat="45.91046" lon="6.49345">
        <ele>1898.4000244141</ele>
        <time>2014-02-12T08:46:07.000Z</time>
      </trkpt>
      <trkpt lat="45.91046" lon="6.49345">
        <ele>1898.4000244141</ele>
        <time>2014-02-12T08:46:08.000Z</time>
      </trkpt>
      <trkpt lat="45.91046" lon="6.49345">
        <ele>1898.4000244141</ele>
        <time>2014-02-12T08:46:09.000Z</time>
      </trkpt>
      <trkpt lat="45.91046" lon="6.49345">
        <ele>1898.4000244141</ele>
        <time>2014-02-12T08:46:10.000Z</time>
      </trkpt>
      <trkpt lat="45.91046" lon="6.49345">
        <ele>1898.4000244141</ele>
        <time>2014-02-12T08:46:11.000Z</time>
      </trkpt>
      <trkpt lat="45.91046" lon="6.49345">
        <ele>1898.4000244141</ele>
        <time>2014-02-12T08:46:12.000Z</time>
      </trkpt>
      <trkpt lat="45.91046" lon="6.49345">
        <ele>1898.4000244141</ele>
        <time>2014-02-12T08:46:13.000Z</time>
      </trkpt>
      <trkpt lat="45.91046" lon="6.49345">
        <ele>1898.4000244141</ele>
        <time>2014-02-12T08:46:15.000Z</time>
      </trkpt>
      <trkpt lat="45.91046" lon="6.49345">
        <ele>1898.4000244141</ele>
        <time>2014-02-12T08:46:16.000Z</time>
      </trkpt>
      <trkpt lat="45.91046" lon="6.49345">
        <ele>1898.4000244141</ele>
        <time>2014-02-12T08:46:20.000Z</time>
      </trkpt>
      <trkpt lat="45.91046" lon="6.49345">
        <ele>1898.4000244141</ele>
        <time>2014-02-12T08:46:23.000Z</time>
      </trkpt>
      <trkpt lat="45.91046" lon="6.49345">
        <ele>1898.4000244141</ele>
        <time>2014-02-12T08:46:24.000Z</time>
      </trkpt>
      <trkpt lat="45.91046" lon="6.49345">
        <ele>1898.4000244141</ele>
        <time>2014-02-12T08:46:27.000Z</time>
      </trkpt>
      <trkpt lat="45.91046" lon="6.49345">
        <ele>1898.4000244141</ele>
        <time>2014-02-12T08:46:28.000Z</time>
      </trkpt>
      <trkpt lat="45.91046" lon="6.49345">
        <ele>1898.4000244141</ele>
        <time>2014-02-12T08:46:29.000Z</time>
      </trkpt>
      <trkpt lat="45.91046" lon="6.49345">
        <ele>1898.4000244141</ele>
        <time>2014-02-12T08:46:30.000Z</time>
      </trkpt>
      <trkpt lat="45.91046" lon="6.49345">
        <ele>1898.4000244141</ele>
        <time>2014-02-12T08:46:32.000Z</time>
      </trkpt>
      <trkpt lat="45.91046" lon="6.49348">
        <ele>1900</ele>
        <time>2014-02-12T08:46:33.000Z</time>
      </trkpt>
      <trkpt lat="45.91045" lon="6.49352">
        <ele>1901.4000244141</ele>
        <time>2014-02-12T08:46:34.000Z</time>
      </trkpt>
      <trkpt lat="45.91045" lon="6.49355">
        <ele>1902.8000488281</ele>
        <time>2014-02-12T08:46:35.000Z</time>
      </trkpt>
      <trkpt lat="45.91045" lon="6.49357">
        <ele>1903.8000488281</ele>
        <time>2014-02-12T08:46:36.000Z</time>
      </trkpt>
      <trkpt lat="45.91044" lon="6.49359">
        <ele>1904.8000488281</ele>
        <time>2014-02-12T08:46:37.000Z</time>
      </trkpt>
      <trkpt lat="45.91043" lon="6.4936">
        <ele>1905.8000488281</ele>
        <time>2014-02-12T08:46:38.000Z</time>
      </trkpt>
      <trkpt lat="45.91043" lon="6.49362">
        <ele>1906.8000488281</ele>
        <time>2014-02-12T08:46:39.000Z</time>
      </trkpt>
      <trkpt lat="45.91042" lon="6.49364">
        <ele>1907.4000244141</ele>
        <time>2014-02-12T08:46:40.000Z</time>
      </trkpt>
      <trkpt lat="45.91042" lon="6.49366">
        <ele>1908.4000244141</ele>
        <time>2014-02-12T08:46:41.000Z</time>
      </trkpt>
      <trkpt lat="45.91042" lon="6.49366">
        <ele>1908.8000488281</ele>
        <time>2014-02-12T08:46:42.000Z</time>
      </trkpt>
      <trkpt lat="45.91041" lon="6.49367">
        <ele>1909.4000244141</ele>
        <time>2014-02-12T08:46:43.000Z</time>
      </trkpt>
      <trkpt lat="45.91041" lon="6.49368">
        <ele>1909.8000488281</ele>
        <time>2014-02-12T08:46:44.000Z</time>
      </trkpt>
      <trkpt lat="45.91041" lon="6.49369">
        <ele>1910.4000244141</ele>
        <time>2014-02-12T08:46:45.000Z</time>
      </trkpt>
      <trkpt lat="45.91041" lon="6.4937">
        <ele>1910.8000488281</ele>
        <time>2014-02-12T08:46:46.000Z</time>
      </trkpt>
      <trkpt lat="45.9104" lon="6.49371">
        <ele>1911.1999511719</ele>
        <time>2014-02-12T08:46:47.000Z</time>
      </trkpt>
      <trkpt lat="45.9104" lon="6.49372">
        <ele>1911.5999755859</ele>
        <time>2014-02-12T08:46:48.000Z</time>
      </trkpt>
      <trkpt lat="45.9104" lon="6.49373">
        <ele>1912</ele>
        <time>2014-02-12T08:46:49.000Z</time>
      </trkpt>
      <trkpt lat="45.9104" lon="6.49373">
        <ele>1912.4000244141</ele>
        <time>2014-02-12T08:46:50.000Z</time>
      </trkpt>
      <trkpt lat="45.91039" lon="6.49374">
        <ele>1912.8000488281</ele>
        <time>2014-02-12T08:46:51.000Z</time>
      </trkpt>
      <trkpt lat="45.91039" lon="6.49375">
        <ele>1913.1999511719</ele>
        <time>2014-02-12T08:46:52.000Z</time>
      </trkpt>
      <trkpt lat="45.91039" lon="6.49376">
        <ele>1913.5999755859</ele>
        <time>2014-02-12T08:46:53.000Z</time>
      </trkpt>
      <trkpt lat="45.91039" lon="6.49377">
        <ele>1914</ele>
        <time>2014-02-12T08:46:54.000Z</time>
      </trkpt>
      <trkpt lat="45.91039" lon="6.49378">
        <ele>1914.5999755859</ele>
        <time>2014-02-12T08:46:55.000Z</time>
      </trkpt>
      <trkpt lat="45.91039" lon="6.49379">
        <ele>1915</ele>
        <time>2014-02-12T08:46:56.000Z</time>
      </trkpt>
      <trkpt lat="45.91039" lon="6.4938">
        <ele>1915.5999755859</ele>
        <time>2014-02-12T08:46:57.000Z</time>
      </trkpt>
      <trkpt lat="45.91039" lon="6.49381">
        <ele>1916.1999511719</ele>
        <time>2014-02-12T08:46:58.000Z</time>
      </trkpt>
      <trkpt lat="45.91039" lon="6.49383">
        <ele>1916.5999755859</ele>
        <time>2014-02-12T08:46:59.000Z</time>
      </trkpt>
      <trkpt lat="45.91039" lon="6.49384">
        <ele>1917</ele>
        <time>2014-02-12T08:47:00.000Z</time>
      </trkpt>
      <trkpt lat="45.91039" lon="6.49385">
        <ele>1917.1999511719</ele>
        <time>2014-02-12T08:47:01.000Z</time>
      </trkpt>
      <trkpt lat="45.91039" lon="6.49386">
        <ele>1917.4000244141</ele>
        <time>2014-02-12T08:47:02.000Z</time>
      </trkpt>
      <trkpt lat="45.91038" lon="6.49386">
        <ele>1917.5999755859</ele>
        <time>2014-02-12T08:47:03.000Z</time>
      </trkpt>
      <trkpt lat="45.91038" lon="6.49387">
        <ele>1917.8000488281</ele>
        <time>2014-02-12T08:47:04.000Z</time>
      </trkpt>
      <trkpt lat="45.91039" lon="6.49388">
        <ele>1918.1999511719</ele>
        <time>2014-02-12T08:47:05.000Z</time>
      </trkpt>
      <trkpt lat="45.91039" lon="6.4939">
        <ele>1918.5999755859</ele>
        <time>2014-02-12T08:47:06.000Z</time>
      </trkpt>
      <trkpt lat="45.91039" lon="6.4939">
        <ele>1918.8000488281</ele>
        <time>2014-02-12T08:47:07.000Z</time>
      </trkpt>
      <trkpt lat="45.91039" lon="6.49391">
        <ele>1918.8000488281</ele>
        <time>2014-02-12T08:47:08.000Z</time>
      </trkpt>
      <trkpt lat="45.91039" lon="6.49391">
        <ele>1919</ele>
        <time>2014-02-12T08:47:09.000Z</time>
      </trkpt>
      <trkpt lat="45.91039" lon="6.49392">
        <ele>1919.4000244141</ele>
        <time>2014-02-12T08:47:10.000Z</time>
      </trkpt>
      <trkpt lat="45.91039" lon="6.49393">
        <ele>1919.5999755859</ele>
        <time>2014-02-12T08:47:11.000Z</time>
      </trkpt>
      <trkpt lat="45.9104" lon="6.49394">
        <ele>1919.8000488281</ele>
        <time>2014-02-12T08:47:12.000Z</time>
      </trkpt>
      <trkpt lat="45.9104" lon="6.49395">
        <ele>1920</ele>
        <time>2014-02-12T08:47:13.000Z</time>
      </trkpt>
      <trkpt lat="45.9104" lon="6.49396">
        <ele>1920.1999511719</ele>
        <time>2014-02-12T08:47:14.000Z</time>
      </trkpt>
      <trkpt lat="45.9104" lon="6.49396">
        <ele>1920.4000244141</ele>
        <time>2014-02-12T08:47:15.000Z</time>
      </trkpt>
      <trkpt lat="45.9104" lon="6.49397">
        <ele>1920.5999755859</ele>
        <time>2014-02-12T08:47:16.000Z</time>
      </trkpt>
      <trkpt lat="45.91041" lon="6.49398">
        <ele>1920.5999755859</ele>
        <time>2014-02-12T08:47:17.000Z</time>
      </trkpt>
      <trkpt lat="45.91041" lon="6.49398">
        <ele>1920.5999755859</ele>
        <time>2014-02-12T08:47:18.000Z</time>
      </trkpt>
      <trkpt lat="45.91041" lon="6.49398">
        <ele>1920.5999755859</ele>
        <time>2014-02-12T08:47:19.000Z</time>
      </trkpt>
      <trkpt lat="45.91041" lon="6.49398">
        <ele>1920.5999755859</ele>
        <time>2014-02-12T08:47:20.000Z</time>
      </trkpt>
      <trkpt lat="45.91042" lon="6.49399">
        <ele>1920.8000488281</ele>
        <time>2014-02-12T08:47:21.000Z</time>
      </trkpt>
      <trkpt lat="45.91042" lon="6.494">
        <ele>1921</ele>
        <time>2014-02-12T08:47:22.000Z</time>
      </trkpt>
      <trkpt lat="45.91041" lon="6.49401">
        <ele>1921.4000244141</ele>
        <time>2014-02-12T08:47:23.000Z</time>
      </trkpt>
      <trkpt lat="45.91042" lon="6.49402">
        <ele>1921.8000488281</ele>
        <time>2014-02-12T08:47:24.000Z</time>
      </trkpt>
      <trkpt lat="45.91042" lon="6.49403">
        <ele>1922.1999511719</ele>
        <time>2014-02-12T08:47:25.000Z</time>
      </trkpt>
      <trkpt lat="45.91042" lon="6.49404">
        <ele>1922.4000244141</ele>
        <time>2014-02-12T08:47:26.000Z</time>
      </trkpt>
      <trkpt lat="45.91043" lon="6.49405">
        <ele>1922.5999755859</ele>
        <time>2014-02-12T08:47:27.000Z</time>
      </trkpt>
      <trkpt lat="45.91043" lon="6.49406">
        <ele>1923</ele>
        <time>2014-02-12T08:47:28.000Z</time>
      </trkpt>
      <trkpt lat="45.91043" lon="6.49407">
        <ele>1923.1999511719</ele>
        <time>2014-02-12T08:47:29.000Z</time>
      </trkpt>
      <trkpt lat="45.91043" lon="6.49407">
        <ele>1923.4000244141</ele>
        <time>2014-02-12T08:47:30.000Z</time>
      </trkpt>
      <trkpt lat="45.91043" lon="6.49408">
        <ele>1923.5999755859</ele>
        <time>2014-02-12T08:47:31.000Z</time>
      </trkpt>
      <trkpt lat="45.91043" lon="6.49409">
        <ele>1924</ele>
        <time>2014-02-12T08:47:32.000Z</time>
      </trkpt>
      <trkpt lat="45.91043" lon="6.4941">
        <ele>1924.4000244141</ele>
        <time>2014-02-12T08:47:33.000Z</time>
      </trkpt>
      <trkpt lat="45.91043" lon="6.49412">
        <ele>1924.8000488281</ele>
        <time>2014-02-12T08:47:34.000Z</time>
      </trkpt>
      <trkpt lat="45.91043" lon="6.49413">
        <ele>1925.1999511719</ele>
        <time>2014-02-12T08:47:35.000Z</time>
      </trkpt>
      <trkpt lat="45.91043" lon="6.49414">
        <ele>1925.5999755859</ele>
        <time>2014-02-12T08:47:36.000Z</time>
      </trkpt>
      <trkpt lat="45.91044" lon="6.49415">
        <ele>1925.8000488281</ele>
        <time>2014-02-12T08:47:37.000Z</time>
      </trkpt>
      <trkpt lat="45.91044" lon="6.49417">
        <ele>1926.1999511719</ele>
        <time>2014-02-12T08:47:38.000Z</time>
      </trkpt>
      <trkpt lat="45.91045" lon="6.49418">
        <ele>1926.4000244141</ele>
        <time>2014-02-12T08:47:39.000Z</time>
      </trkpt>
      <trkpt lat="45.91045" lon="6.49418">
        <ele>1926.5999755859</ele>
        <time>2014-02-12T08:47:40.000Z</time>
      </trkpt>
      <trkpt lat="45.91045" lon="6.49419">
        <ele>1926.5999755859</ele>
        <time>2014-02-12T08:47:41.000Z</time>
      </trkpt>
      <trkpt lat="45.91046" lon="6.49419">
        <ele>1926.8000488281</ele>
        <time>2014-02-12T08:47:42.000Z</time>
      </trkpt>
      <trkpt lat="45.91046" lon="6.4942">
        <ele>1927</ele>
        <time>2014-02-12T08:47:43.000Z</time>
      </trkpt>
      <trkpt lat="45.91046" lon="6.49421">
        <ele>1927.1999511719</ele>
        <time>2014-02-12T08:47:44.000Z</time>
      </trkpt>
      <trkpt lat="45.91047" lon="6.49421">
        <ele>1927.4000244141</ele>
        <time>2014-02-12T08:47:45.000Z</time>
      </trkpt>
      <trkpt lat="45.91047" lon="6.49422">
        <ele>1927.4000244141</ele>
        <time>2014-02-12T08:47:46.000Z</time>
      </trkpt>
      <trkpt lat="45.91047" lon="6.49422">
        <ele>1927.4000244141</ele>
        <time>2014-02-12T08:47:47.000Z</time>
      </trkpt>
      <trkpt lat="45.91047" lon="6.49422">
        <ele>1927.4000244141</ele>
        <time>2014-02-12T08:47:48.000Z</time>
      </trkpt>
      <trkpt lat="45.91047" lon="6.49422">
        <ele>1927.4000244141</ele>
        <time>2014-02-12T08:47:49.000Z</time>
      </trkpt>
      <trkpt lat="45.91047" lon="6.49422">
        <ele>1927.4000244141</ele>
        <time>2014-02-12T08:47:50.000Z</time>
      </trkpt>
      <trkpt lat="45.91048" lon="6.49423">
        <ele>1927.5999755859</ele>
        <time>2014-02-12T08:47:51.000Z</time>
      </trkpt>
      <trkpt lat="45.91048" lon="6.49424">
        <ele>1927.8000488281</ele>
        <time>2014-02-12T08:47:52.000Z</time>
      </trkpt>
      <trkpt lat="45.91048" lon="6.49424">
        <ele>1928</ele>
        <time>2014-02-12T08:47:53.000Z</time>
      </trkpt>
      <trkpt lat="45.91049" lon="6.49425">
        <ele>1928.1999511719</ele>
        <time>2014-02-12T08:47:54.000Z</time>
      </trkpt>
      <trkpt lat="45.91049" lon="6.49427">
        <ele>1928.5999755859</ele>
        <time>2014-02-12T08:47:55.000Z</time>
      </trkpt>
      <trkpt lat="45.91049" lon="6.49428">
        <ele>1929</ele>
        <time>2014-02-12T08:47:56.000Z</time>
      </trkpt>
      <trkpt lat="45.91048" lon="6.4943">
        <ele>1929.8000488281</ele>
        <time>2014-02-12T08:47:57.000Z</time>
      </trkpt>
      <trkpt lat="45.91048" lon="6.4943">
        <ele>1929.8000488281</ele>
        <time>2014-02-12T08:47:58.000Z</time>
      </trkpt>
      <trkpt lat="45.91048" lon="6.4943">
        <ele>1929.8000488281</ele>
        <time>2014-02-12T08:47:59.000Z</time>
      </trkpt>
      <trkpt lat="45.91048" lon="6.49431">
        <ele>1930.1999511719</ele>
        <time>2014-02-12T08:48:00.000Z</time>
      </trkpt>
      <trkpt lat="45.91048" lon="6.49431">
        <ele>1930.4000244141</ele>
        <time>2014-02-12T08:48:01.000Z</time>
      </trkpt>
      <trkpt lat="45.91047" lon="6.49432">
        <ele>1930.8000488281</ele>
        <time>2014-02-12T08:48:02.000Z</time>
      </trkpt>
      <trkpt lat="45.91047" lon="6.49433">
        <ele>1931</ele>
        <time>2014-02-12T08:48:03.000Z</time>
      </trkpt>
      <trkpt lat="45.91045" lon="6.49434">
        <ele>1931.5999755859</ele>
        <time>2014-02-12T08:48:04.000Z</time>
      </trkpt>
      <trkpt lat="45.91045" lon="6.49434">
        <ele>1931.8000488281</ele>
        <time>2014-02-12T08:48:05.000Z</time>
      </trkpt>
      <trkpt lat="45.91044" lon="6.49435">
        <ele>1932.4000244141</ele>
        <time>2014-02-12T08:48:06.000Z</time>
      </trkpt>
      <trkpt lat="45.91044" lon="6.49435">
        <ele>1932.4000244141</ele>
        <time>2014-02-12T08:48:07.000Z</time>
      </trkpt>
      <trkpt lat="45.91044" lon="6.49435">
        <ele>1932.5999755859</ele>
        <time>2014-02-12T08:48:08.000Z</time>
      </trkpt>
      <trkpt lat="45.91043" lon="6.49436">
        <ele>1933</ele>
        <time>2014-02-12T08:48:09.000Z</time>
      </trkpt>
      <trkpt lat="45.91042" lon="6.49437">
        <ele>1933.5999755859</ele>
        <time>2014-02-12T08:48:10.000Z</time>
      </trkpt>
      <trkpt lat="45.91042" lon="6.49438">
        <ele>1933.8000488281</ele>
        <time>2014-02-12T08:48:11.000Z</time>
      </trkpt>
      <trkpt lat="45.91042" lon="6.49439">
        <ele>1934.1999511719</ele>
        <time>2014-02-12T08:48:12.000Z</time>
      </trkpt>
      <trkpt lat="45.91041" lon="6.49441">
        <ele>1935</ele>
        <time>2014-02-12T08:48:13.000Z</time>
      </trkpt>
      <trkpt lat="45.9104" lon="6.49442">
        <ele>1935.4000244141</ele>
        <time>2014-02-12T08:48:14.000Z</time>
      </trkpt>
      <trkpt lat="45.9104" lon="6.49444">
        <ele>1936.4000244141</ele>
        <time>2014-02-12T08:48:15.000Z</time>
      </trkpt>
      <trkpt lat="45.91039" lon="6.49445">
        <ele>1936.5999755859</ele>
        <time>2014-02-12T08:48:16.000Z</time>
      </trkpt>
      <trkpt lat="45.91038" lon="6.49445">
        <ele>1937</ele>
        <time>2014-02-12T08:48:17.000Z</time>
      </trkpt>
      <trkpt lat="45.91038" lon="6.49445">
        <ele>1937</ele>
        <time>2014-02-12T08:48:18.000Z</time>
      </trkpt>
      <trkpt lat="45.91038" lon="6.49445">
        <ele>1937.1999511719</ele>
        <time>2014-02-12T08:48:19.000Z</time>
      </trkpt>
      <trkpt lat="45.91037" lon="6.49446">
        <ele>1937.4000244141</ele>
        <time>2014-02-12T08:48:20.000Z</time>
      </trkpt>
      <trkpt lat="45.91037" lon="6.49447">
        <ele>1937.5999755859</ele>
        <time>2014-02-12T08:48:21.000Z</time>
      </trkpt>
      <trkpt lat="45.91037" lon="6.49447">
        <ele>1938</ele>
        <time>2014-02-12T08:48:22.000Z</time>
      </trkpt>
      <trkpt lat="45.91037" lon="6.49448">
        <ele>1938.1999511719</ele>
        <time>2014-02-12T08:48:23.000Z</time>
      </trkpt>
      <trkpt lat="45.91035" lon="6.49449">
        <ele>1939</ele>
        <time>2014-02-12T08:48:24.000Z</time>
      </trkpt>
      <trkpt lat="45.91035" lon="6.4945">
        <ele>1939.4000244141</ele>
        <time>2014-02-12T08:48:25.000Z</time>
      </trkpt>
      <trkpt lat="45.91034" lon="6.49451">
        <ele>1940</ele>
        <time>2014-02-12T08:48:26.000Z</time>
      </trkpt>
      <trkpt lat="45.91034" lon="6.49451">
        <ele>1940</ele>
        <time>2014-02-12T08:48:27.000Z</time>
      </trkpt>
      <trkpt lat="45.91033" lon="6.49452">
        <ele>1940.1999511719</ele>
        <time>2014-02-12T08:48:28.000Z</time>
      </trkpt>
      <trkpt lat="45.91033" lon="6.49452">
        <ele>1940.1999511719</ele>
        <time>2014-02-12T08:48:29.000Z</time>
      </trkpt>
      <trkpt lat="45.91033" lon="6.49452">
        <ele>1940.1999511719</ele>
        <time>2014-02-12T08:48:30.000Z</time>
      </trkpt>
      <trkpt lat="45.91032" lon="6.49452">
        <ele>1940.5999755859</ele>
        <time>2014-02-12T08:48:31.000Z</time>
      </trkpt>
      <trkpt lat="45.91032" lon="6.49452">
        <ele>1940.4000244141</ele>
        <time>2014-02-12T08:48:32.000Z</time>
      </trkpt>
      <trkpt lat="45.91031" lon="6.49453">
        <ele>1941.1999511719</ele>
        <time>2014-02-12T08:48:33.000Z</time>
      </trkpt>
      <trkpt lat="45.91032" lon="6.49454">
        <ele>1941.1999511719</ele>
        <time>2014-02-12T08:48:34.000Z</time>
      </trkpt>
      <trkpt lat="45.91032" lon="6.49455">
        <ele>1941.4000244141</ele>
        <time>2014-02-12T08:48:35.000Z</time>
      </trkpt>
      <trkpt lat="45.91032" lon="6.49455">
        <ele>1941.5999755859</ele>
        <time>2014-02-12T08:48:36.000Z</time>
      </trkpt>
      <trkpt lat="45.91032" lon="6.49456">
        <ele>1942</ele>
        <time>2014-02-12T08:48:37.000Z</time>
      </trkpt>
      <trkpt lat="45.91031" lon="6.49458">
        <ele>1942.8000488281</ele>
        <time>2014-02-12T08:48:38.000Z</time>
      </trkpt>
      <trkpt lat="45.9103" lon="6.49458">
        <ele>1942.8000488281</ele>
        <time>2014-02-12T08:48:39.000Z</time>
      </trkpt>
      <trkpt lat="45.91029" lon="6.49459">
        <ele>1943.4000244141</ele>
        <time>2014-02-12T08:48:40.000Z</time>
      </trkpt>
      <trkpt lat="45.91028" lon="6.49459">
        <ele>1943.5999755859</ele>
        <time>2014-02-12T08:48:41.000Z</time>
      </trkpt>
      <trkpt lat="45.91028" lon="6.49459">
        <ele>1943.5999755859</ele>
        <time>2014-02-12T08:48:42.000Z</time>
      </trkpt>
      <trkpt lat="45.91027" lon="6.49459">
        <ele>1943.8000488281</ele>
        <time>2014-02-12T08:48:43.000Z</time>
      </trkpt>
      <trkpt lat="45.91027" lon="6.4946">
        <ele>1944</ele>
        <time>2014-02-12T08:48:44.000Z</time>
      </trkpt>
      <trkpt lat="45.91026" lon="6.49461">
        <ele>1944.4000244141</ele>
        <time>2014-02-12T08:48:45.000Z</time>
      </trkpt>
      <trkpt lat="45.91026" lon="6.49461">
        <ele>1944.4000244141</ele>
        <time>2014-02-12T08:48:46.000Z</time>
      </trkpt>
      <trkpt lat="45.91026" lon="6.49461">
        <ele>1944.8000488281</ele>
        <time>2014-02-12T08:48:47.000Z</time>
      </trkpt>
      <trkpt lat="45.91025" lon="6.49463">
        <ele>1945.1999511719</ele>
        <time>2014-02-12T08:48:48.000Z</time>
      </trkpt>
      <trkpt lat="45.91025" lon="6.49464">
        <ele>1945.5999755859</ele>
        <time>2014-02-12T08:48:49.000Z</time>
      </trkpt>
      <trkpt lat="45.91025" lon="6.49465">
        <ele>1945.8000488281</ele>
        <time>2014-02-12T08:48:50.000Z</time>
      </trkpt>
      <trkpt lat="45.91025" lon="6.49466">
        <ele>1946</ele>
        <time>2014-02-12T08:48:51.000Z</time>
      </trkpt>
      <trkpt lat="45.91026" lon="6.49467">
        <ele>1946.1999511719</ele>
        <time>2014-02-12T08:48:52.000Z</time>
      </trkpt>
      <trkpt lat="45.91026" lon="6.49467">
        <ele>1946.1999511719</ele>
        <time>2014-02-12T08:48:53.000Z</time>
      </trkpt>
      <trkpt lat="45.91026" lon="6.49467">
        <ele>1946.1999511719</ele>
        <time>2014-02-12T08:48:54.000Z</time>
      </trkpt>
      <trkpt lat="45.91026" lon="6.49467">
        <ele>1946.1999511719</ele>
        <time>2014-02-12T08:48:55.000Z</time>
      </trkpt>
      <trkpt lat="45.91026" lon="6.49467">
        <ele>1946.1999511719</ele>
        <time>2014-02-12T08:48:56.000Z</time>
      </trkpt>
      <trkpt lat="45.91026" lon="6.49467">
        <ele>1946.1999511719</ele>
        <time>2014-02-12T08:48:57.000Z</time>
      </trkpt>
      <trkpt lat="45.91026" lon="6.49467">
        <ele>1946.1999511719</ele>
        <time>2014-02-12T08:48:58.000Z</time>
      </trkpt>
      <trkpt lat="45.91027" lon="6.49467">
        <ele>1946.1999511719</ele>
        <time>2014-02-12T08:48:59.000Z</time>
      </trkpt>
      <trkpt lat="45.91027" lon="6.49467">
        <ele>1946</ele>
        <time>2014-02-12T08:49:00.000Z</time>
      </trkpt>
      <trkpt lat="45.91028" lon="6.49468">
        <ele>1946.1999511719</ele>
        <time>2014-02-12T08:49:01.000Z</time>
      </trkpt>
      <trkpt lat="45.91029" lon="6.49468">
        <ele>1946.1999511719</ele>
        <time>2014-02-12T08:49:02.000Z</time>
      </trkpt>
      <trkpt lat="45.9103" lon="6.4947">
        <ele>1946.4000244141</ele>
        <time>2014-02-12T08:49:03.000Z</time>
      </trkpt>
      <trkpt lat="45.9103" lon="6.49469">
        <ele>1946.4000244141</ele>
        <time>2014-02-12T08:49:04.000Z</time>
      </trkpt>
      <trkpt lat="45.91031" lon="6.49471">
        <ele>1946.8000488281</ele>
        <time>2014-02-12T08:49:05.000Z</time>
      </trkpt>
      <trkpt lat="45.9103" lon="6.49472">
        <ele>1947</ele>
        <time>2014-02-12T08:49:06.000Z</time>
      </trkpt>
      <trkpt lat="45.91031" lon="6.49473">
        <ele>1947.4000244141</ele>
        <time>2014-02-12T08:49:07.000Z</time>
      </trkpt>
      <trkpt lat="45.91031" lon="6.49474">
        <ele>1947.5999755859</ele>
        <time>2014-02-12T08:49:08.000Z</time>
      </trkpt>
      <trkpt lat="45.91031" lon="6.49474">
        <ele>1947.5999755859</ele>
        <time>2014-02-12T08:49:09.000Z</time>
      </trkpt>
      <trkpt lat="45.91031" lon="6.49475">
        <ele>1947.5999755859</ele>
        <time>2014-02-12T08:49:10.000Z</time>
      </trkpt>
      <trkpt lat="45.91032" lon="6.49475">
        <ele>1947.8000488281</ele>
        <time>2014-02-12T08:49:11.000Z</time>
      </trkpt>
      <trkpt lat="45.91032" lon="6.49475">
        <ele>1947.8000488281</ele>
        <time>2014-02-12T08:49:12.000Z</time>
      </trkpt>
      <trkpt lat="45.91032" lon="6.49475">
        <ele>1947.8000488281</ele>
        <time>2014-02-12T08:49:13.000Z</time>
      </trkpt>
      <trkpt lat="45.91033" lon="6.49477">
        <ele>1948.1999511719</ele>
        <time>2014-02-12T08:49:14.000Z</time>
      </trkpt>
      <trkpt lat="45.91033" lon="6.49477">
        <ele>1948.1999511719</ele>
        <time>2014-02-12T08:49:15.000Z</time>
      </trkpt>
      <trkpt lat="45.91034" lon="6.49479">
        <ele>1948.5999755859</ele>
        <time>2014-02-12T08:49:16.000Z</time>
      </trkpt>
      <trkpt lat="45.91034" lon="6.49479">
        <ele>1948.5999755859</ele>
        <time>2014-02-12T08:49:17.000Z</time>
      </trkpt>
      <trkpt lat="45.91034" lon="6.4948">
        <ele>1948.8000488281</ele>
        <time>2014-02-12T08:49:18.000Z</time>
      </trkpt>
      <trkpt lat="45.91034" lon="6.4948">
        <ele>1949</ele>
        <time>2014-02-12T08:49:19.000Z</time>
      </trkpt>
      <trkpt lat="45.91034" lon="6.49481">
        <ele>1949</ele>
        <time>2014-02-12T08:49:20.000Z</time>
      </trkpt>
      <trkpt lat="45.91035" lon="6.49481">
        <ele>1949</ele>
        <time>2014-02-12T08:49:21.000Z</time>
      </trkpt>
      <trkpt lat="45.91035" lon="6.49481">
        <ele>1949.1999511719</ele>
        <time>2014-02-12T08:49:22.000Z</time>
      </trkpt>
      <trkpt lat="45.91035" lon="6.49481">
        <ele>1949.1999511719</ele>
        <time>2014-02-12T08:49:23.000Z</time>
      </trkpt>
      <trkpt lat="45.91035" lon="6.49482">
        <ele>1949.1999511719</ele>
        <time>2014-02-12T08:49:24.000Z</time>
      </trkpt>
      <trkpt lat="45.91036" lon="6.49483">
        <ele>1949.4000244141</ele>
        <time>2014-02-12T08:49:25.000Z</time>
      </trkpt>
      <trkpt lat="45.91036" lon="6.49483">
        <ele>1949.4000244141</ele>
        <time>2014-02-12T08:49:26.000Z</time>
      </trkpt>
      <trkpt lat="45.91037" lon="6.49484">
        <ele>1949.5999755859</ele>
        <time>2014-02-12T08:49:27.000Z</time>
      </trkpt>
      <trkpt lat="45.91037" lon="6.49484">
        <ele>1949.5999755859</ele>
        <time>2014-02-12T08:49:28.000Z</time>
      </trkpt>
      <trkpt lat="45.91038" lon="6.49485">
        <ele>1949.8000488281</ele>
        <time>2014-02-12T08:49:29.000Z</time>
      </trkpt>
      <trkpt lat="45.91038" lon="6.49485">
        <ele>1949.8000488281</ele>
        <time>2014-02-12T08:49:30.000Z</time>
      </trkpt>
      <trkpt lat="45.91038" lon="6.49486">
        <ele>1950</ele>
        <time>2014-02-12T08:49:31.000Z</time>
      </trkpt>
      <trkpt lat="45.91039" lon="6.49487">
        <ele>1950.1999511719</ele>
        <time>2014-02-12T08:49:32.000Z</time>
      </trkpt>
      <trkpt lat="45.91039" lon="6.49487">
        <ele>1950.1999511719</ele>
        <time>2014-02-12T08:49:33.000Z</time>
      </trkpt>
      <trkpt lat="45.91039" lon="6.49488">
        <ele>1950.4000244141</ele>
        <time>2014-02-12T08:49:34.000Z</time>
      </trkpt>
      <trkpt lat="45.9104" lon="6.49488">
        <ele>1950.5999755859</ele>
        <time>2014-02-12T08:49:35.000Z</time>
      </trkpt>
      <trkpt lat="45.9104" lon="6.49489">
        <ele>1950.5999755859</ele>
        <time>2014-02-12T08:49:36.000Z</time>
      </trkpt>
      <trkpt lat="45.91041" lon="6.4949">
        <ele>1950.8000488281</ele>
        <time>2014-02-12T08:49:37.000Z</time>
      </trkpt>
      <trkpt lat="45.91041" lon="6.49491">
        <ele>1951.1999511719</ele>
        <time>2014-02-12T08:49:38.000Z</time>
      </trkpt>
      <trkpt lat="45.91041" lon="6.49491">
        <ele>1951.1999511719</ele>
        <time>2014-02-12T08:49:39.000Z</time>
      </trkpt>
      <trkpt lat="45.91041" lon="6.49492">
        <ele>1951.4000244141</ele>
        <time>2014-02-12T08:49:40.000Z</time>
      </trkpt>
      <trkpt lat="45.91041" lon="6.49492">
        <ele>1951.5999755859</ele>
        <time>2014-02-12T08:49:41.000Z</time>
      </trkpt>
      <trkpt lat="45.91042" lon="6.49493">
        <ele>1951.5999755859</ele>
        <time>2014-02-12T08:49:42.000Z</time>
      </trkpt>
      <trkpt lat="45.91042" lon="6.49493">
        <ele>1951.5999755859</ele>
        <time>2014-02-12T08:49:43.000Z</time>
      </trkpt>
      <trkpt lat="45.91042" lon="6.49493">
        <ele>1951.8000488281</ele>
        <time>2014-02-12T08:49:44.000Z</time>
      </trkpt>
      <trkpt lat="45.91042" lon="6.49493">
        <ele>1951.8000488281</ele>
        <time>2014-02-12T08:49:45.000Z</time>
      </trkpt>
      <trkpt lat="45.91042" lon="6.49494">
        <ele>1951.8000488281</ele>
        <time>2014-02-12T08:49:46.000Z</time>
      </trkpt>
      <trkpt lat="45.91042" lon="6.49494">
        <ele>1951.8000488281</ele>
        <time>2014-02-12T08:49:47.000Z</time>
      </trkpt>
      <trkpt lat="45.91043" lon="6.49494">
        <ele>1952</ele>
        <time>2014-02-12T08:49:48.000Z</time>
      </trkpt>
      <trkpt lat="45.91043" lon="6.49494">
        <ele>1952</ele>
        <time>2014-02-12T08:49:49.000Z</time>
      </trkpt>
      <trkpt lat="45.91043" lon="6.49495">
        <ele>1952</ele>
        <time>2014-02-12T08:49:50.000Z</time>
      </trkpt>
      <trkpt lat="45.91043" lon="6.49495">
        <ele>1952</ele>
        <time>2014-02-12T08:49:51.000Z</time>
      </trkpt>
      <trkpt lat="45.91043" lon="6.49495">
        <ele>1952.1999511719</ele>
        <time>2014-02-12T08:49:52.000Z</time>
      </trkpt>
      <trkpt lat="45.91044" lon="6.49496">
        <ele>1952.4000244141</ele>
        <time>2014-02-12T08:49:53.000Z</time>
      </trkpt>
      <trkpt lat="45.91044" lon="6.49497">
        <ele>1952.5999755859</ele>
        <time>2014-02-12T08:49:54.000Z</time>
      </trkpt>
      <trkpt lat="45.91044" lon="6.49497">
        <ele>1952.5999755859</ele>
        <time>2014-02-12T08:49:55.000Z</time>
      </trkpt>
      <trkpt lat="45.91044" lon="6.49497">
        <ele>1952.5999755859</ele>
        <time>2014-02-12T08:49:56.000Z</time>
      </trkpt>
      <trkpt lat="45.91044" lon="6.49497">
        <ele>1952.5999755859</ele>
        <time>2014-02-12T08:49:57.000Z</time>
      </trkpt>
      <trkpt lat="45.91044" lon="6.49497">
        <ele>1952.8000488281</ele>
        <time>2014-02-12T08:49:58.000Z</time>
      </trkpt>
      <trkpt lat="45.91043" lon="6.49498">
        <ele>1953.4000244141</ele>
        <time>2014-02-12T08:49:59.000Z</time>
      </trkpt>
      <trkpt lat="45.91043" lon="6.49499">
        <ele>1953.5999755859</ele>
        <time>2014-02-12T08:50:00.000Z</time>
      </trkpt>
      <trkpt lat="45.91041" lon="6.495">
        <ele>1954.1999511719</ele>
        <time>2014-02-12T08:50:01.000Z</time>
      </trkpt>
      <trkpt lat="45.91041" lon="6.495">
        <ele>1954.4000244141</ele>
        <time>2014-02-12T08:50:02.000Z</time>
      </trkpt>
      <trkpt lat="45.9104" lon="6.49501">
        <ele>1954.8000488281</ele>
        <time>2014-02-12T08:50:03.000Z</time>
      </trkpt>
      <trkpt lat="45.9104" lon="6.49502">
        <ele>1955.1999511719</ele>
        <time>2014-02-12T08:50:04.000Z</time>
      </trkpt>
      <trkpt lat="45.9104" lon="6.49503">
        <ele>1955.4000244141</ele>
        <time>2014-02-12T08:50:05.000Z</time>
      </trkpt>
      <trkpt lat="45.91039" lon="6.49504">
        <ele>1956</ele>
        <time>2014-02-12T08:50:06.000Z</time>
      </trkpt>
      <trkpt lat="45.91039" lon="6.49504">
        <ele>1956</ele>
        <time>2014-02-12T08:50:07.000Z</time>
      </trkpt>
      <trkpt lat="45.91038" lon="6.49505">
        <ele>1956.4000244141</ele>
        <time>2014-02-12T08:50:08.000Z</time>
      </trkpt>
      <trkpt lat="45.91037" lon="6.49506">
        <ele>1956.8000488281</ele>
        <time>2014-02-12T08:50:09.000Z</time>
      </trkpt>
      <trkpt lat="45.91037" lon="6.49507">
        <ele>1957.1999511719</ele>
        <time>2014-02-12T08:50:10.000Z</time>
      </trkpt>
      <trkpt lat="45.91037" lon="6.49508">
        <ele>1957.5999755859</ele>
        <time>2014-02-12T08:50:11.000Z</time>
      </trkpt>
      <trkpt lat="45.91036" lon="6.49508">
        <ele>1957.8000488281</ele>
        <time>2014-02-12T08:50:12.000Z</time>
      </trkpt>
      <trkpt lat="45.91035" lon="6.49508">
        <ele>1958</ele>
        <time>2014-02-12T08:50:13.000Z</time>
      </trkpt>
      <trkpt lat="45.91035" lon="6.49508">
        <ele>1958</ele>
        <time>2014-02-12T08:50:14.000Z</time>
      </trkpt>
      <trkpt lat="45.91035" lon="6.49508">
        <ele>1958.1999511719</ele>
        <time>2014-02-12T08:50:15.000Z</time>
      </trkpt>
      <trkpt lat="45.91035" lon="6.49508">
        <ele>1958.1999511719</ele>
        <time>2014-02-12T08:50:16.000Z</time>
      </trkpt>
      <trkpt lat="45.91035" lon="6.49509">
        <ele>1958.1999511719</ele>
        <time>2014-02-12T08:50:17.000Z</time>
      </trkpt>
      <trkpt lat="45.91034" lon="6.49509">
        <ele>1958.4000244141</ele>
        <time>2014-02-12T08:50:18.000Z</time>
      </trkpt>
      <trkpt lat="45.91033" lon="6.4951">
        <ele>1959</ele>
        <time>2014-02-12T08:50:19.000Z</time>
      </trkpt>
      <trkpt lat="45.91033" lon="6.49509">
        <ele>1958.8000488281</ele>
        <time>2014-02-12T08:50:20.000Z</time>
      </trkpt>
      <trkpt lat="45.91032" lon="6.49511">
        <ele>1959.4000244141</ele>
        <time>2014-02-12T08:50:21.000Z</time>
      </trkpt>
      <trkpt lat="45.91031" lon="6.49511">
        <ele>1959.5999755859</ele>
        <time>2014-02-12T08:50:22.000Z</time>
      </trkpt>
      <trkpt lat="45.9103" lon="6.49513">
        <ele>1960.4000244141</ele>
        <time>2014-02-12T08:50:23.000Z</time>
      </trkpt>
      <trkpt lat="45.9103" lon="6.49513">
        <ele>1960.4000244141</ele>
        <time>2014-02-12T08:50:24.000Z</time>
      </trkpt>
      <trkpt lat="45.91029" lon="6.49514">
        <ele>1960.8000488281</ele>
        <time>2014-02-12T08:50:25.000Z</time>
      </trkpt>
      <trkpt lat="45.91029" lon="6.49514">
        <ele>1961</ele>
        <time>2014-02-12T08:50:26.000Z</time>
      </trkpt>
      <trkpt lat="45.91029" lon="6.49515">
        <ele>1961.1999511719</ele>
        <time>2014-02-12T08:50:27.000Z</time>
      </trkpt>
      <trkpt lat="45.91028" lon="6.49515">
        <ele>1961.5999755859</ele>
        <time>2014-02-12T08:50:28.000Z</time>
      </trkpt>
      <trkpt lat="45.91028" lon="6.49515">
        <ele>1961.5999755859</ele>
        <time>2014-02-12T08:50:29.000Z</time>
      </trkpt>
      <trkpt lat="45.91027" lon="6.49516">
        <ele>1962</ele>
        <time>2014-02-12T08:50:30.000Z</time>
      </trkpt>
      <trkpt lat="45.91027" lon="6.49516">
        <ele>1962.1999511719</ele>
        <time>2014-02-12T08:50:31.000Z</time>
      </trkpt>
      <trkpt lat="45.91025" lon="6.49517">
        <ele>1962.5999755859</ele>
        <time>2014-02-12T08:50:32.000Z</time>
      </trkpt>
      <trkpt lat="45.91025" lon="6.49518">
        <ele>1962.8000488281</ele>
        <time>2014-02-12T08:50:33.000Z</time>
      </trkpt>
      <trkpt lat="45.91025" lon="6.49518">
        <ele>1963</ele>
        <time>2014-02-12T08:50:34.000Z</time>
      </trkpt>
      <trkpt lat="45.91024" lon="6.49518">
        <ele>1963.1999511719</ele>
        <time>2014-02-12T08:50:35.000Z</time>
      </trkpt>
      <trkpt lat="45.91024" lon="6.49518">
        <ele>1963.1999511719</ele>
        <time>2014-02-12T08:50:36.000Z</time>
      </trkpt>
      <trkpt lat="45.91024" lon="6.49518">
        <ele>1963.1999511719</ele>
        <time>2014-02-12T08:50:37.000Z</time>
      </trkpt>
      <trkpt lat="45.91023" lon="6.49519">
        <ele>1963.5999755859</ele>
        <time>2014-02-12T08:50:38.000Z</time>
      </trkpt>
      <trkpt lat="45.91023" lon="6.49518">
        <ele>1963.4000244141</ele>
        <time>2014-02-12T08:50:39.000Z</time>
      </trkpt>
      <trkpt lat="45.91023" lon="6.49518">
        <ele>1963.4000244141</ele>
        <time>2014-02-12T08:50:40.000Z</time>
      </trkpt>
      <trkpt lat="45.91023" lon="6.49519">
        <ele>1963.5999755859</ele>
        <time>2014-02-12T08:50:41.000Z</time>
      </trkpt>
      <trkpt lat="45.91022" lon="6.49519">
        <ele>1964</ele>
        <time>2014-02-12T08:50:42.000Z</time>
      </trkpt>
      <trkpt lat="45.91022" lon="6.49519">
        <ele>1964</ele>
        <time>2014-02-12T08:50:43.000Z</time>
      </trkpt>
      <trkpt lat="45.91022" lon="6.4952">
        <ele>1964.1999511719</ele>
        <time>2014-02-12T08:50:44.000Z</time>
      </trkpt>
      <trkpt lat="45.91021" lon="6.49519">
        <ele>1964.1999511719</ele>
        <time>2014-02-12T08:50:45.000Z</time>
      </trkpt>
      <trkpt lat="45.91021" lon="6.49519">
        <ele>1964.1999511719</ele>
        <time>2014-02-12T08:50:46.000Z</time>
      </trkpt>
      <trkpt lat="45.91021" lon="6.4952">
        <ele>1964.1999511719</ele>
        <time>2014-02-12T08:50:47.000Z</time>
      </trkpt>
      <trkpt lat="45.91021" lon="6.4952">
        <ele>1964.1999511719</ele>
        <time>2014-02-12T08:50:48.000Z</time>
      </trkpt>
      <trkpt lat="45.9102" lon="6.4952">
        <ele>1964.4000244141</ele>
        <time>2014-02-12T08:50:49.000Z</time>
      </trkpt>
      <trkpt lat="45.9102" lon="6.4952">
        <ele>1964.5999755859</ele>
        <time>2014-02-12T08:50:50.000Z</time>
      </trkpt>
      <trkpt lat="45.91019" lon="6.49521">
        <ele>1964.8000488281</ele>
        <time>2014-02-12T08:50:51.000Z</time>
      </trkpt>
      <trkpt lat="45.91019" lon="6.49521">
        <ele>1965</ele>
        <time>2014-02-12T08:50:52.000Z</time>
      </trkpt>
      <trkpt lat="45.91018" lon="6.49521">
        <ele>1965.1999511719</ele>
        <time>2014-02-12T08:50:53.000Z</time>
      </trkpt>
      <trkpt lat="45.91018" lon="6.49521">
        <ele>1965.4000244141</ele>
        <time>2014-02-12T08:50:54.000Z</time>
      </trkpt>
      <trkpt lat="45.91017" lon="6.49521">
        <ele>1965.4000244141</ele>
        <time>2014-02-12T08:50:55.000Z</time>
      </trkpt>
      <trkpt lat="45.91017" lon="6.49521">
        <ele>1965.4000244141</ele>
        <time>2014-02-12T08:50:56.000Z</time>
      </trkpt>
      <trkpt lat="45.91016" lon="6.49521">
        <ele>1965.4000244141</ele>
        <time>2014-02-12T08:50:57.000Z</time>
      </trkpt>
      <trkpt lat="45.91016" lon="6.49521">
        <ele>1965.4000244141</ele>
        <time>2014-02-12T08:50:58.000Z</time>
      </trkpt>
      <trkpt lat="45.91016" lon="6.49521">
        <ele>1965.4000244141</ele>
        <time>2014-02-12T08:50:59.000Z</time>
      </trkpt>
      <trkpt lat="45.91016" lon="6.49522">
        <ele>1966</ele>
        <time>2014-02-12T08:51:00.000Z</time>
      </trkpt>
      <trkpt lat="45.91016" lon="6.49524">
        <ele>1966.4000244141</ele>
        <time>2014-02-12T08:51:01.000Z</time>
      </trkpt>
      <trkpt lat="45.91016" lon="6.49525">
        <ele>1966.8000488281</ele>
        <time>2014-02-12T08:51:02.000Z</time>
      </trkpt>
      <trkpt lat="45.91017" lon="6.49526">
        <ele>1967.1999511719</ele>
        <time>2014-02-12T08:51:03.000Z</time>
      </trkpt>
      <trkpt lat="45.91017" lon="6.49527">
        <ele>1967.4000244141</ele>
        <time>2014-02-12T08:51:04.000Z</time>
      </trkpt>
      <trkpt lat="45.91017" lon="6.49528">
        <ele>1967.5999755859</ele>
        <time>2014-02-12T08:51:05.000Z</time>
      </trkpt>
      <trkpt lat="45.91017" lon="6.49528">
        <ele>1967.5999755859</ele>
        <time>2014-02-12T08:51:06.000Z</time>
      </trkpt>
      <trkpt lat="45.91017" lon="6.49529">
        <ele>1967.8000488281</ele>
        <time>2014-02-12T08:51:07.000Z</time>
      </trkpt>
      <trkpt lat="45.91017" lon="6.49529">
        <ele>1967.8000488281</ele>
        <time>2014-02-12T08:51:08.000Z</time>
      </trkpt>
      <trkpt lat="45.91018" lon="6.4953">
        <ele>1968</ele>
        <time>2014-02-12T08:51:09.000Z</time>
      </trkpt>
      <trkpt lat="45.91018" lon="6.49531">
        <ele>1968.1999511719</ele>
        <time>2014-02-12T08:51:10.000Z</time>
      </trkpt>
      <trkpt lat="45.91018" lon="6.49532">
        <ele>1968.4000244141</ele>
        <time>2014-02-12T08:51:11.000Z</time>
      </trkpt>
      <trkpt lat="45.91018" lon="6.49532">
        <ele>1968.4000244141</ele>
        <time>2014-02-12T08:51:12.000Z</time>
      </trkpt>
      <trkpt lat="45.91018" lon="6.49533">
        <ele>1968.8000488281</ele>
        <time>2014-02-12T08:51:13.000Z</time>
      </trkpt>
      <trkpt lat="45.91018" lon="6.49535">
        <ele>1969</ele>
        <time>2014-02-12T08:51:14.000Z</time>
      </trkpt>
      <trkpt lat="45.91018" lon="6.49536">
        <ele>1969.4000244141</ele>
        <time>2014-02-12T08:51:15.000Z</time>
      </trkpt>
      <trkpt lat="45.91018" lon="6.49537">
        <ele>1969.5999755859</ele>
        <time>2014-02-12T08:51:16.000Z</time>
      </trkpt>
      <trkpt lat="45.91018" lon="6.49538">
        <ele>1969.8000488281</ele>
        <time>2014-02-12T08:51:17.000Z</time>
      </trkpt>
      <trkpt lat="45.91018" lon="6.49538">
        <ele>1970</ele>
        <time>2014-02-12T08:51:18.000Z</time>
      </trkpt>
      <trkpt lat="45.91018" lon="6.49539">
        <ele>1970</ele>
        <time>2014-02-12T08:51:19.000Z</time>
      </trkpt>
      <trkpt lat="45.91018" lon="6.49539">
        <ele>1970.1999511719</ele>
        <time>2014-02-12T08:51:20.000Z</time>
      </trkpt>
      <trkpt lat="45.91019" lon="6.49541">
        <ele>1970.5999755859</ele>
        <time>2014-02-12T08:51:21.000Z</time>
      </trkpt>
      <trkpt lat="45.91019" lon="6.49541">
        <ele>1970.5999755859</ele>
        <time>2014-02-12T08:51:22.000Z</time>
      </trkpt>
      <trkpt lat="45.9102" lon="6.49543">
        <ele>1970.8000488281</ele>
        <time>2014-02-12T08:51:23.000Z</time>
      </trkpt>
      <trkpt lat="45.9102" lon="6.49543">
        <ele>1971</ele>
        <time>2014-02-12T08:51:24.000Z</time>
      </trkpt>
      <trkpt lat="45.9102" lon="6.49543">
        <ele>1971</ele>
        <time>2014-02-12T08:51:25.000Z</time>
      </trkpt>
      <trkpt lat="45.91021" lon="6.49543">
        <ele>1971</ele>
        <time>2014-02-12T08:51:26.000Z</time>
      </trkpt>
      <trkpt lat="45.91021" lon="6.49543">
        <ele>1971</ele>
        <time>2014-02-12T08:51:28.000Z</time>
      </trkpt>
      <trkpt lat="45.91021" lon="6.49543">
        <ele>1971</ele>
        <time>2014-02-12T08:51:29.000Z</time>
      </trkpt>
      <trkpt lat="45.91021" lon="6.49543">
        <ele>1971</ele>
        <time>2014-02-12T08:51:30.000Z</time>
      </trkpt>
      <trkpt lat="45.91021" lon="6.49543">
        <ele>1971</ele>
        <time>2014-02-12T08:51:31.000Z</time>
      </trkpt>
      <trkpt lat="45.91021" lon="6.49543">
        <ele>1971</ele>
        <time>2014-02-12T08:51:32.000Z</time>
      </trkpt>
      <trkpt lat="45.91021" lon="6.49543">
        <ele>1971</ele>
        <time>2014-02-12T08:51:33.000Z</time>
      </trkpt>
      <trkpt lat="45.91021" lon="6.49544">
        <ele>1971.1999511719</ele>
        <time>2014-02-12T08:51:34.000Z</time>
      </trkpt>
      <trkpt lat="45.91021" lon="6.49545">
        <ele>1971.1999511719</ele>
        <time>2014-02-12T08:51:35.000Z</time>
      </trkpt>
      <trkpt lat="45.91021" lon="6.49545">
        <ele>1971.4000244141</ele>
        <time>2014-02-12T08:51:36.000Z</time>
      </trkpt>
      <trkpt lat="45.91021" lon="6.49545">
        <ele>1971.4000244141</ele>
        <time>2014-02-12T08:51:37.000Z</time>
      </trkpt>
      <trkpt lat="45.91022" lon="6.49546">
        <ele>1971.4000244141</ele>
        <time>2014-02-12T08:51:38.000Z</time>
      </trkpt>
      <trkpt lat="45.91022" lon="6.49546">
        <ele>1971.4000244141</ele>
        <time>2014-02-12T08:51:39.000Z</time>
      </trkpt>
      <trkpt lat="45.91022" lon="6.49546">
        <ele>1971.4000244141</ele>
        <time>2014-02-12T08:51:40.000Z</time>
      </trkpt>
      <trkpt lat="45.91022" lon="6.49546">
        <ele>1971.4000244141</ele>
        <time>2014-02-12T08:51:41.000Z</time>
      </trkpt>
      <trkpt lat="45.91022" lon="6.49546">
        <ele>1971.4000244141</ele>
        <time>2014-02-12T08:51:42.000Z</time>
      </trkpt>
      <trkpt lat="45.91021" lon="6.49547">
        <ele>1971.8000488281</ele>
        <time>2014-02-12T08:51:45.000Z</time>
      </trkpt>
      <trkpt lat="45.91021" lon="6.49547">
        <ele>1971.8000488281</ele>
        <time>2014-02-12T08:51:46.000Z</time>
      </trkpt>
      <trkpt lat="45.9102" lon="6.49547">
        <ele>1972</ele>
        <time>2014-02-12T08:51:47.000Z</time>
      </trkpt>
      <trkpt lat="45.9102" lon="6.49547">
        <ele>1972</ele>
        <time>2014-02-12T08:51:48.000Z</time>
      </trkpt>
      <trkpt lat="45.91019" lon="6.49548">
        <ele>1972.1999511719</ele>
        <time>2014-02-12T08:51:49.000Z</time>
      </trkpt>
      <trkpt lat="45.91019" lon="6.49548">
        <ele>1972.1999511719</ele>
        <time>2014-02-12T08:51:50.000Z</time>
      </trkpt>
      <trkpt lat="45.91019" lon="6.49548">
        <ele>1972.1999511719</ele>
        <time>2014-02-12T08:51:51.000Z</time>
      </trkpt>
      <trkpt lat="45.91018" lon="6.49548">
        <ele>1972.4000244141</ele>
        <time>2014-02-12T08:51:52.000Z</time>
      </trkpt>
      <trkpt lat="45.91017" lon="6.49548">
        <ele>1972.4000244141</ele>
        <time>2014-02-12T08:51:53.000Z</time>
      </trkpt>
      <trkpt lat="45.91017" lon="6.49548">
        <ele>1972.4000244141</ele>
        <time>2014-02-12T08:51:54.000Z</time>
      </trkpt>
      <trkpt lat="45.91016" lon="6.49549">
        <ele>1972.5999755859</ele>
        <time>2014-02-12T08:51:55.000Z</time>
      </trkpt>
      <trkpt lat="45.91015" lon="6.49549">
        <ele>1972.8000488281</ele>
        <time>2014-02-12T08:51:56.000Z</time>
      </trkpt>
      <trkpt lat="45.91014" lon="6.4955">
        <ele>1973.1999511719</ele>
        <time>2014-02-12T08:51:57.000Z</time>
      </trkpt>
      <trkpt lat="45.91013" lon="6.4955">
        <ele>1973.1999511719</ele>
        <time>2014-02-12T08:51:58.000Z</time>
      </trkpt>
      <trkpt lat="45.91012" lon="6.49552">
        <ele>1973.5999755859</ele>
        <time>2014-02-12T08:51:59.000Z</time>
      </trkpt>
      <trkpt lat="45.91012" lon="6.49552">
        <ele>1973.8000488281</ele>
        <time>2014-02-12T08:52:00.000Z</time>
      </trkpt>
      <trkpt lat="45.91011" lon="6.49552">
        <ele>1973.8000488281</ele>
        <time>2014-02-12T08:52:01.000Z</time>
      </trkpt>
      <trkpt lat="45.91011" lon="6.49553">
        <ele>1974</ele>
        <time>2014-02-12T08:52:02.000Z</time>
      </trkpt>
      <trkpt lat="45.91009" lon="6.49552">
        <ele>1973.8000488281</ele>
        <time>2014-02-12T08:52:03.000Z</time>
      </trkpt>
      <trkpt lat="45.91009" lon="6.49551">
        <ele>1973.8000488281</ele>
        <time>2014-02-12T08:52:04.000Z</time>
      </trkpt>
      <trkpt lat="45.91009" lon="6.49551">
        <ele>1973.8000488281</ele>
        <time>2014-02-12T08:52:05.000Z</time>
      </trkpt>
      <trkpt lat="45.91008" lon="6.49551">
        <ele>1973.8000488281</ele>
        <time>2014-02-12T08:52:06.000Z</time>
      </trkpt>
      <trkpt lat="45.91008" lon="6.49551">
        <ele>1973.8000488281</ele>
        <time>2014-02-12T08:52:07.000Z</time>
      </trkpt>
      <trkpt lat="45.91007" lon="6.49552">
        <ele>1974</ele>
        <time>2014-02-12T08:52:08.000Z</time>
      </trkpt>
      <trkpt lat="45.91007" lon="6.49552">
        <ele>1974</ele>
        <time>2014-02-12T08:52:09.000Z</time>
      </trkpt>
      <trkpt lat="45.91007" lon="6.49553">
        <ele>1974.4000244141</ele>
        <time>2014-02-12T08:52:10.000Z</time>
      </trkpt>
      <trkpt lat="45.91007" lon="6.49553">
        <ele>1974.4000244141</ele>
        <time>2014-02-12T08:52:11.000Z</time>
      </trkpt>
      <trkpt lat="45.91006" lon="6.49553">
        <ele>1974.4000244141</ele>
        <time>2014-02-12T08:52:12.000Z</time>
      </trkpt>
      <trkpt lat="45.91006" lon="6.49554">
        <ele>1974.5999755859</ele>
        <time>2014-02-12T08:52:13.000Z</time>
      </trkpt>
      <trkpt lat="45.91005" lon="6.49555">
        <ele>1975</ele>
        <time>2014-02-12T08:52:14.000Z</time>
      </trkpt>
      <trkpt lat="45.91005" lon="6.49555">
        <ele>1975</ele>
        <time>2014-02-12T08:52:15.000Z</time>
      </trkpt>
      <trkpt lat="45.91003" lon="6.49556">
        <ele>1975.1999511719</ele>
        <time>2014-02-12T08:52:16.000Z</time>
      </trkpt>
      <trkpt lat="45.91003" lon="6.49556">
        <ele>1975.4000244141</ele>
        <time>2014-02-12T08:52:17.000Z</time>
      </trkpt>
      <trkpt lat="45.91001" lon="6.49557">
        <ele>1975.5999755859</ele>
        <time>2014-02-12T08:52:18.000Z</time>
      </trkpt>
      <trkpt lat="45.91001" lon="6.49557">
        <ele>1975.5999755859</ele>
        <time>2014-02-12T08:52:19.000Z</time>
      </trkpt>
      <trkpt lat="45.91" lon="6.49557">
        <ele>1975.8000488281</ele>
        <time>2014-02-12T08:52:20.000Z</time>
      </trkpt>
      <trkpt lat="45.91" lon="6.49558">
        <ele>1976</ele>
        <time>2014-02-12T08:52:21.000Z</time>
      </trkpt>
      <trkpt lat="45.91" lon="6.49558">
        <ele>1976</ele>
        <time>2014-02-12T08:52:22.000Z</time>
      </trkpt>
      <trkpt lat="45.91" lon="6.49558">
        <ele>1976</ele>
        <time>2014-02-12T08:52:23.000Z</time>
      </trkpt>
      <trkpt lat="45.91" lon="6.49558">
        <ele>1976</ele>
        <time>2014-02-12T08:52:24.000Z</time>
      </trkpt>
      <trkpt lat="45.90999" lon="6.49558">
        <ele>1976.1999511719</ele>
        <time>2014-02-12T08:52:25.000Z</time>
      </trkpt>
      <trkpt lat="45.90999" lon="6.49559">
        <ele>1976.1999511719</ele>
        <time>2014-02-12T08:52:27.000Z</time>
      </trkpt>
      <trkpt lat="45.90999" lon="6.49559">
        <ele>1976.1999511719</ele>
        <time>2014-02-12T08:52:28.000Z</time>
      </trkpt>
      <trkpt lat="45.90998" lon="6.49559">
        <ele>1976.4000244141</ele>
        <time>2014-02-12T08:52:29.000Z</time>
      </trkpt>
      <trkpt lat="45.90998" lon="6.49559">
        <ele>1976.4000244141</ele>
        <time>2014-02-12T08:52:30.000Z</time>
      </trkpt>
      <trkpt lat="45.90998" lon="6.49559">
        <ele>1976.4000244141</ele>
        <time>2014-02-12T08:52:31.000Z</time>
      </trkpt>
      <trkpt lat="45.90998" lon="6.49559">
        <ele>1976.4000244141</ele>
        <time>2014-02-12T08:52:32.000Z</time>
      </trkpt>
      <trkpt lat="45.90998" lon="6.49559">
        <ele>1976.4000244141</ele>
        <time>2014-02-12T08:52:33.000Z</time>
      </trkpt>
      <trkpt lat="45.90998" lon="6.49559">
        <ele>1976.4000244141</ele>
        <time>2014-02-12T08:52:34.000Z</time>
      </trkpt>
      <trkpt lat="45.90998" lon="6.49559">
        <ele>1976.4000244141</ele>
        <time>2014-02-12T08:52:35.000Z</time>
      </trkpt>
      <trkpt lat="45.90998" lon="6.49559">
        <ele>1976.4000244141</ele>
        <time>2014-02-12T08:52:36.000Z</time>
      </trkpt>
      <trkpt lat="45.90998" lon="6.49559">
        <ele>1976.4000244141</ele>
        <time>2014-02-12T08:52:37.000Z</time>
      </trkpt>
      <trkpt lat="45.90998" lon="6.4956">
        <ele>1976.5999755859</ele>
        <time>2014-02-12T08:52:38.000Z</time>
      </trkpt>
      <trkpt lat="45.90998" lon="6.4956">
        <ele>1976.5999755859</ele>
        <time>2014-02-12T08:52:39.000Z</time>
      </trkpt>
      <trkpt lat="45.90998" lon="6.4956">
        <ele>1976.5999755859</ele>
        <time>2014-02-12T08:52:41.000Z</time>
      </trkpt>
      <trkpt lat="45.90998" lon="6.4956">
        <ele>1976.5999755859</ele>
        <time>2014-02-12T08:52:42.000Z</time>
      </trkpt>
      <trkpt lat="45.90998" lon="6.4956">
        <ele>1976.5999755859</ele>
        <time>2014-02-12T08:52:43.000Z</time>
      </trkpt>
      <trkpt lat="45.90998" lon="6.4956">
        <ele>1976.5999755859</ele>
        <time>2014-02-12T08:52:44.000Z</time>
      </trkpt>
      <trkpt lat="45.90998" lon="6.49561">
        <ele>1976.8000488281</ele>
        <time>2014-02-12T08:52:45.000Z</time>
      </trkpt>
      <trkpt lat="45.90998" lon="6.49561">
        <ele>1976.8000488281</ele>
        <time>2014-02-12T08:52:46.000Z</time>
      </trkpt>
      <trkpt lat="45.90998" lon="6.49563">
        <ele>1977.1999511719</ele>
        <time>2014-02-12T08:52:47.000Z</time>
      </trkpt>
      <trkpt lat="45.90998" lon="6.49564">
        <ele>1977.5999755859</ele>
        <time>2014-02-12T08:52:48.000Z</time>
      </trkpt>
      <trkpt lat="45.90999" lon="6.49565">
        <ele>1977.8000488281</ele>
        <time>2014-02-12T08:52:49.000Z</time>
      </trkpt>
      <trkpt lat="45.90999" lon="6.49565">
        <ele>1977.8000488281</ele>
        <time>2014-02-12T08:52:50.000Z</time>
      </trkpt>
      <trkpt lat="45.90999" lon="6.49566">
        <ele>1978</ele>
        <time>2014-02-12T08:52:51.000Z</time>
      </trkpt>
      <trkpt lat="45.90999" lon="6.49566">
        <ele>1978</ele>
        <time>2014-02-12T08:52:52.000Z</time>
      </trkpt>
      <trkpt lat="45.91" lon="6.49567">
        <ele>1978.1999511719</ele>
        <time>2014-02-12T08:52:53.000Z</time>
      </trkpt>
      <trkpt lat="45.91" lon="6.49568">
        <ele>1978.5999755859</ele>
        <time>2014-02-12T08:52:54.000Z</time>
      </trkpt>
      <trkpt lat="45.91" lon="6.49569">
        <ele>1979.1999511719</ele>
        <time>2014-02-12T08:52:55.000Z</time>
      </trkpt>
      <trkpt lat="45.91" lon="6.49569">
        <ele>1979.1999511719</ele>
        <time>2014-02-12T08:52:56.000Z</time>
      </trkpt>
      <trkpt lat="45.91001" lon="6.49571">
        <ele>1979.8000488281</ele>
        <time>2014-02-12T08:52:57.000Z</time>
      </trkpt>
      <trkpt lat="45.91001" lon="6.49572">
        <ele>1980</ele>
        <time>2014-02-12T08:52:58.000Z</time>
      </trkpt>
      <trkpt lat="45.91001" lon="6.49573">
        <ele>1980.5999755859</ele>
        <time>2014-02-12T08:52:59.000Z</time>
      </trkpt>
      <trkpt lat="45.91002" lon="6.49574">
        <ele>1980.8000488281</ele>
        <time>2014-02-12T08:53:00.000Z</time>
      </trkpt>
      <trkpt lat="45.91002" lon="6.49575">
        <ele>1981.1999511719</ele>
        <time>2014-02-12T08:53:01.000Z</time>
      </trkpt>
      <trkpt lat="45.91002" lon="6.49576">
        <ele>1981.4000244141</ele>
        <time>2014-02-12T08:53:02.000Z</time>
      </trkpt>
      <trkpt lat="45.91002" lon="6.49576">
        <ele>1981.4000244141</ele>
        <time>2014-02-12T08:53:03.000Z</time>
      </trkpt>
      <trkpt lat="45.91002" lon="6.49577">
        <ele>1982</ele>
        <time>2014-02-12T08:53:04.000Z</time>
      </trkpt>
      <trkpt lat="45.91002" lon="6.49577">
        <ele>1982</ele>
        <time>2014-02-12T08:53:05.000Z</time>
      </trkpt>
      <trkpt lat="45.91001" lon="6.49579">
        <ele>1982.5999755859</ele>
        <time>2014-02-12T08:53:06.000Z</time>
      </trkpt>
      <trkpt lat="45.91001" lon="6.49579">
        <ele>1982.5999755859</ele>
        <time>2014-02-12T08:53:07.000Z</time>
      </trkpt>
      <trkpt lat="45.91002" lon="6.4958">
        <ele>1983</ele>
        <time>2014-02-12T08:53:08.000Z</time>
      </trkpt>
      <trkpt lat="45.91002" lon="6.49581">
        <ele>1983.5999755859</ele>
        <time>2014-02-12T08:53:09.000Z</time>
      </trkpt>
      <trkpt lat="45.91002" lon="6.49583">
        <ele>1984.1999511719</ele>
        <time>2014-02-12T08:53:10.000Z</time>
      </trkpt>
      <trkpt lat="45.91002" lon="6.49584">
        <ele>1984.5999755859</ele>
        <time>2014-02-12T08:53:11.000Z</time>
      </trkpt>
      <trkpt lat="45.91002" lon="6.49585">
        <ele>1985</ele>
        <time>2014-02-12T08:53:12.000Z</time>
      </trkpt>
      <trkpt lat="45.91003" lon="6.49586">
        <ele>1985.4000244141</ele>
        <time>2014-02-12T08:53:13.000Z</time>
      </trkpt>
      <trkpt lat="45.91003" lon="6.49587">
        <ele>1985.5999755859</ele>
        <time>2014-02-12T08:53:14.000Z</time>
      </trkpt>
      <trkpt lat="45.91003" lon="6.49588">
        <ele>1986</ele>
        <time>2014-02-12T08:53:15.000Z</time>
      </trkpt>
      <trkpt lat="45.91003" lon="6.49589">
        <ele>1986.4000244141</ele>
        <time>2014-02-12T08:53:16.000Z</time>
      </trkpt>
      <trkpt lat="45.91003" lon="6.49589">
        <ele>1986.5999755859</ele>
        <time>2014-02-12T08:53:17.000Z</time>
      </trkpt>
      <trkpt lat="45.91003" lon="6.49589">
        <ele>1986.5999755859</ele>
        <time>2014-02-12T08:53:18.000Z</time>
      </trkpt>
      <trkpt lat="45.91003" lon="6.49589">
        <ele>1986.5999755859</ele>
        <time>2014-02-12T08:53:19.000Z</time>
      </trkpt>
      <trkpt lat="45.91003" lon="6.49589">
        <ele>1986.5999755859</ele>
        <time>2014-02-12T08:53:20.000Z</time>
      </trkpt>
      <trkpt lat="45.91003" lon="6.49589">
        <ele>1986.5999755859</ele>
        <time>2014-02-12T08:53:21.000Z</time>
      </trkpt>
      <trkpt lat="45.91003" lon="6.49589">
        <ele>1986.5999755859</ele>
        <time>2014-02-12T08:53:22.000Z</time>
      </trkpt>
      <trkpt lat="45.91002" lon="6.4959">
        <ele>1987</ele>
        <time>2014-02-12T08:53:23.000Z</time>
      </trkpt>
      <trkpt lat="45.91001" lon="6.49591">
        <ele>1987.4000244141</ele>
        <time>2014-02-12T08:53:24.000Z</time>
      </trkpt>
      <trkpt lat="45.91001" lon="6.49591">
        <ele>1987.4000244141</ele>
        <time>2014-02-12T08:53:25.000Z</time>
      </trkpt>
      <trkpt lat="45.91" lon="6.49592">
        <ele>1987.8000488281</ele>
        <time>2014-02-12T08:53:26.000Z</time>
      </trkpt>
      <trkpt lat="45.90999" lon="6.49592">
        <ele>1987.8000488281</ele>
        <time>2014-02-12T08:53:27.000Z</time>
      </trkpt>
      <trkpt lat="45.90998" lon="6.49591">
        <ele>1987.8000488281</ele>
        <time>2014-02-12T08:53:28.000Z</time>
      </trkpt>
      <trkpt lat="45.90998" lon="6.49591">
        <ele>1987.8000488281</ele>
        <time>2014-02-12T08:53:29.000Z</time>
      </trkpt>
      <trkpt lat="45.90997" lon="6.49591">
        <ele>1987.8000488281</ele>
        <time>2014-02-12T08:53:30.000Z</time>
      </trkpt>
      <trkpt lat="45.90996" lon="6.49592">
        <ele>1987.8000488281</ele>
        <time>2014-02-12T08:53:31.000Z</time>
      </trkpt>
      <trkpt lat="45.90995" lon="6.49591">
        <ele>1988</ele>
        <time>2014-02-12T08:53:32.000Z</time>
      </trkpt>
      <trkpt lat="45.90995" lon="6.49592">
        <ele>1988.1999511719</ele>
        <time>2014-02-12T08:53:33.000Z</time>
      </trkpt>
      <trkpt lat="45.90994" lon="6.49593">
        <ele>1988.4000244141</ele>
        <time>2014-02-12T08:53:34.000Z</time>
      </trkpt>
      <trkpt lat="45.90993" lon="6.49592">
        <ele>1988.4000244141</ele>
        <time>2014-02-12T08:53:35.000Z</time>
      </trkpt>
      <trkpt lat="45.90993" lon="6.49592">
        <ele>1988.4000244141</ele>
        <time>2014-02-12T08:53:36.000Z</time>
      </trkpt>
      <trkpt lat="45.90992" lon="6.49592">
        <ele>1988.4000244141</ele>
        <time>2014-02-12T08:53:37.000Z</time>
      </trkpt>
      <trkpt lat="45.90991" lon="6.49592">
        <ele>1988.4000244141</ele>
        <time>2014-02-12T08:53:38.000Z</time>
      </trkpt>
      <trkpt lat="45.9099" lon="6.49592">
        <ele>1988.4000244141</ele>
        <time>2014-02-12T08:53:39.000Z</time>
      </trkpt>
      <trkpt lat="45.9099" lon="6.49592">
        <ele>1988.4000244141</ele>
        <time>2014-02-12T08:53:40.000Z</time>
      </trkpt>
      <trkpt lat="45.90988" lon="6.49592">
        <ele>1988.4000244141</ele>
        <time>2014-02-12T08:53:41.000Z</time>
      </trkpt>
      <trkpt lat="45.90988" lon="6.49592">
        <ele>1988.4000244141</ele>
        <time>2014-02-12T08:53:42.000Z</time>
      </trkpt>
      <trkpt lat="45.90988" lon="6.49592">
        <ele>1988.5999755859</ele>
        <time>2014-02-12T08:53:43.000Z</time>
      </trkpt>
      <trkpt lat="45.90987" lon="6.49592">
        <ele>1988.5999755859</ele>
        <time>2014-02-12T08:53:44.000Z</time>
      </trkpt>
      <trkpt lat="45.90986" lon="6.49592">
        <ele>1988.8000488281</ele>
        <time>2014-02-12T08:53:46.000Z</time>
      </trkpt>
      <trkpt lat="45.90986" lon="6.49592">
        <ele>1988.8000488281</ele>
        <time>2014-02-12T08:53:47.000Z</time>
      </trkpt>
      <trkpt lat="45.90985" lon="6.49592">
        <ele>1988.8000488281</ele>
        <time>2014-02-12T08:53:48.000Z</time>
      </trkpt>
      <trkpt lat="45.90985" lon="6.49592">
        <ele>1988.8000488281</ele>
        <time>2014-02-12T08:53:49.000Z</time>
      </trkpt>
      <trkpt lat="45.90984" lon="6.49592">
        <ele>1988.8000488281</ele>
        <time>2014-02-12T08:53:50.000Z</time>
      </trkpt>
      <trkpt lat="45.90984" lon="6.49592">
        <ele>1989</ele>
        <time>2014-02-12T08:53:51.000Z</time>
      </trkpt>
      <trkpt lat="45.90984" lon="6.49592">
        <ele>1989</ele>
        <time>2014-02-12T08:53:52.000Z</time>
      </trkpt>
      <trkpt lat="45.90984" lon="6.49592">
        <ele>1989</ele>
        <time>2014-02-12T08:53:53.000Z</time>
      </trkpt>
      <trkpt lat="45.90984" lon="6.49592">
        <ele>1989</ele>
        <time>2014-02-12T08:53:54.000Z</time>
      </trkpt>
      <trkpt lat="45.90984" lon="6.49592">
        <ele>1989</ele>
        <time>2014-02-12T08:53:55.000Z</time>
      </trkpt>
      <trkpt lat="45.90984" lon="6.49592">
        <ele>1989</ele>
        <time>2014-02-12T08:53:56.000Z</time>
      </trkpt>
      <trkpt lat="45.90983" lon="6.49592">
        <ele>1989</ele>
        <time>2014-02-12T08:53:57.000Z</time>
      </trkpt>
      <trkpt lat="45.90983" lon="6.49592">
        <ele>1989</ele>
        <time>2014-02-12T08:53:58.000Z</time>
      </trkpt>
      <trkpt lat="45.90983" lon="6.49592">
        <ele>1988.8000488281</ele>
        <time>2014-02-12T08:53:59.000Z</time>
      </trkpt>
      <trkpt lat="45.90982" lon="6.49591">
        <ele>1988.5999755859</ele>
        <time>2014-02-12T08:54:00.000Z</time>
      </trkpt>
      <trkpt lat="45.9098" lon="6.4959">
        <ele>1988.1999511719</ele>
        <time>2014-02-12T08:54:01.000Z</time>
      </trkpt>
      <trkpt lat="45.90979" lon="6.4959">
        <ele>1988.4000244141</ele>
        <time>2014-02-12T08:54:02.000Z</time>
      </trkpt>
      <trkpt lat="45.90979" lon="6.4959">
        <ele>1988.4000244141</ele>
        <time>2014-02-12T08:54:03.000Z</time>
      </trkpt>
      <trkpt lat="45.90978" lon="6.4959">
        <ele>1988.4000244141</ele>
        <time>2014-02-12T08:54:04.000Z</time>
      </trkpt>
      <trkpt lat="45.90978" lon="6.4959">
        <ele>1988.4000244141</ele>
        <time>2014-02-12T08:54:05.000Z</time>
      </trkpt>
      <trkpt lat="45.90977" lon="6.4959">
        <ele>1988.5999755859</ele>
        <time>2014-02-12T08:54:06.000Z</time>
      </trkpt>
      <trkpt lat="45.90976" lon="6.49589">
        <ele>1988.1999511719</ele>
        <time>2014-02-12T08:54:07.000Z</time>
      </trkpt>
      <trkpt lat="45.90975" lon="6.49589">
        <ele>1988.1999511719</ele>
        <time>2014-02-12T08:54:08.000Z</time>
      </trkpt>
      <trkpt lat="45.90975" lon="6.49589">
        <ele>1988.1999511719</ele>
        <time>2014-02-12T08:54:09.000Z</time>
      </trkpt>
      <trkpt lat="45.90974" lon="6.49588">
        <ele>1988</ele>
        <time>2014-02-12T08:54:10.000Z</time>
      </trkpt>
      <trkpt lat="45.90973" lon="6.49588">
        <ele>1988</ele>
        <time>2014-02-12T08:54:11.000Z</time>
      </trkpt>
      <trkpt lat="45.90973" lon="6.49588">
        <ele>1988</ele>
        <time>2014-02-12T08:54:12.000Z</time>
      </trkpt>
      <trkpt lat="45.90973" lon="6.49588">
        <ele>1988.1999511719</ele>
        <time>2014-02-12T08:54:13.000Z</time>
      </trkpt>
      <trkpt lat="45.90971" lon="6.49588">
        <ele>1988.5999755859</ele>
        <time>2014-02-12T08:54:14.000Z</time>
      </trkpt>
      <trkpt lat="45.90971" lon="6.49589">
        <ele>1988.8000488281</ele>
        <time>2014-02-12T08:54:15.000Z</time>
      </trkpt>
      <trkpt lat="45.9097" lon="6.49588">
        <ele>1988.8000488281</ele>
        <time>2014-02-12T08:54:16.000Z</time>
      </trkpt>
      <trkpt lat="45.9097" lon="6.49588">
        <ele>1989</ele>
        <time>2014-02-12T08:54:17.000Z</time>
      </trkpt>
      <trkpt lat="45.9097" lon="6.49588">
        <ele>1989</ele>
        <time>2014-02-12T08:54:18.000Z</time>
      </trkpt>
      <trkpt lat="45.90969" lon="6.49588">
        <ele>1989</ele>
        <time>2014-02-12T08:54:19.000Z</time>
      </trkpt>
      <trkpt lat="45.90969" lon="6.49587">
        <ele>1989</ele>
        <time>2014-02-12T08:54:20.000Z</time>
      </trkpt>
      <trkpt lat="45.90968" lon="6.49587">
        <ele>1989</ele>
        <time>2014-02-12T08:54:21.000Z</time>
      </trkpt>
      <trkpt lat="45.90968" lon="6.49587">
        <ele>1989.1999511719</ele>
        <time>2014-02-12T08:54:22.000Z</time>
      </trkpt>
      <trkpt lat="45.90967" lon="6.49588">
        <ele>1989.5999755859</ele>
        <time>2014-02-12T08:54:23.000Z</time>
      </trkpt>
      <trkpt lat="45.90967" lon="6.49588">
        <ele>1989.8000488281</ele>
        <time>2014-02-12T08:54:24.000Z</time>
      </trkpt>
      <trkpt lat="45.90966" lon="6.49589">
        <ele>1990.1999511719</ele>
        <time>2014-02-12T08:54:25.000Z</time>
      </trkpt>
      <trkpt lat="45.90966" lon="6.4959">
        <ele>1990.8000488281</ele>
        <time>2014-02-12T08:54:26.000Z</time>
      </trkpt>
      <trkpt lat="45.90965" lon="6.49591">
        <ele>1991.4000244141</ele>
        <time>2014-02-12T08:54:27.000Z</time>
      </trkpt>
      <trkpt lat="45.90965" lon="6.49592">
        <ele>1991.8000488281</ele>
        <time>2014-02-12T08:54:28.000Z</time>
      </trkpt>
      <trkpt lat="45.90965" lon="6.49593">
        <ele>1992.1999511719</ele>
        <time>2014-02-12T08:54:29.000Z</time>
      </trkpt>
      <trkpt lat="45.90965" lon="6.49594">
        <ele>1992.5999755859</ele>
        <time>2014-02-12T08:54:30.000Z</time>
      </trkpt>
      <trkpt lat="45.90964" lon="6.49596">
        <ele>1993.4000244141</ele>
        <time>2014-02-12T08:54:31.000Z</time>
      </trkpt>
      <trkpt lat="45.90963" lon="6.49595">
        <ele>1993.4000244141</ele>
        <time>2014-02-12T08:54:32.000Z</time>
      </trkpt>
      <trkpt lat="45.90962" lon="6.49597">
        <ele>1994.4000244141</ele>
        <time>2014-02-12T08:54:33.000Z</time>
      </trkpt>
      <trkpt lat="45.90962" lon="6.49597">
        <ele>1994.4000244141</ele>
        <time>2014-02-12T08:54:34.000Z</time>
      </trkpt>
      <trkpt lat="45.90962" lon="6.49598">
        <ele>1995</ele>
        <time>2014-02-12T08:54:35.000Z</time>
      </trkpt>
      <trkpt lat="45.90962" lon="6.49599">
        <ele>1995.1999511719</ele>
        <time>2014-02-12T08:54:36.000Z</time>
      </trkpt>
      <trkpt lat="45.90962" lon="6.496">
        <ele>1995.5999755859</ele>
        <time>2014-02-12T08:54:37.000Z</time>
      </trkpt>
      <trkpt lat="45.90962" lon="6.49601">
        <ele>1996</ele>
        <time>2014-02-12T08:54:38.000Z</time>
      </trkpt>
      <trkpt lat="45.90962" lon="6.49602">
        <ele>1996.4000244141</ele>
        <time>2014-02-12T08:54:39.000Z</time>
      </trkpt>
      <trkpt lat="45.90961" lon="6.49602">
        <ele>1996.4000244141</ele>
        <time>2014-02-12T08:54:40.000Z</time>
      </trkpt>
      <trkpt lat="45.90961" lon="6.49602">
        <ele>1996.5999755859</ele>
        <time>2014-02-12T08:54:41.000Z</time>
      </trkpt>
      <trkpt lat="45.9096" lon="6.49602">
        <ele>1997</ele>
        <time>2014-02-12T08:54:42.000Z</time>
      </trkpt>
      <trkpt lat="45.9096" lon="6.49602">
        <ele>1997</ele>
        <time>2014-02-12T08:54:43.000Z</time>
      </trkpt>
      <trkpt lat="45.9096" lon="6.49602">
        <ele>1997</ele>
        <time>2014-02-12T08:54:44.000Z</time>
      </trkpt>
      <trkpt lat="45.9096" lon="6.49602">
        <ele>1997</ele>
        <time>2014-02-12T08:54:45.000Z</time>
      </trkpt>
      <trkpt lat="45.9096" lon="6.49602">
        <ele>1997</ele>
        <time>2014-02-12T08:54:46.000Z</time>
      </trkpt>
      <trkpt lat="45.9096" lon="6.49603">
        <ele>1997.1999511719</ele>
        <time>2014-02-12T08:54:47.000Z</time>
      </trkpt>
      <trkpt lat="45.9096" lon="6.49603">
        <ele>1997.1999511719</ele>
        <time>2014-02-12T08:54:48.000Z</time>
      </trkpt>
      <trkpt lat="45.90959" lon="6.49603">
        <ele>1997.4000244141</ele>
        <time>2014-02-12T08:54:49.000Z</time>
      </trkpt>
      <trkpt lat="45.90959" lon="6.49603">
        <ele>1997.5999755859</ele>
        <time>2014-02-12T08:54:50.000Z</time>
      </trkpt>
      <trkpt lat="45.90958" lon="6.49603">
        <ele>1997.5999755859</ele>
        <time>2014-02-12T08:54:51.000Z</time>
      </trkpt>
      <trkpt lat="45.90958" lon="6.49603">
        <ele>1997.8000488281</ele>
        <time>2014-02-12T08:54:52.000Z</time>
      </trkpt>
      <trkpt lat="45.90956" lon="6.49602">
        <ele>1998.1999511719</ele>
        <time>2014-02-12T08:54:53.000Z</time>
      </trkpt>
      <trkpt lat="45.90956" lon="6.49602">
        <ele>1998.1999511719</ele>
        <time>2014-02-12T08:54:54.000Z</time>
      </trkpt>
      <trkpt lat="45.90955" lon="6.49603">
        <ele>1998.5999755859</ele>
        <time>2014-02-12T08:54:55.000Z</time>
      </trkpt>
      <trkpt lat="45.90955" lon="6.49602">
        <ele>1998.5999755859</ele>
        <time>2014-02-12T08:54:56.000Z</time>
      </trkpt>
      <trkpt lat="45.90954" lon="6.49603">
        <ele>1998.8000488281</ele>
        <time>2014-02-12T08:54:57.000Z</time>
      </trkpt>
      <trkpt lat="45.90954" lon="6.49603">
        <ele>1999</ele>
        <time>2014-02-12T08:54:58.000Z</time>
      </trkpt>
      <trkpt lat="45.90953" lon="6.49603">
        <ele>1999</ele>
        <time>2014-02-12T08:54:59.000Z</time>
      </trkpt>
      <trkpt lat="45.90953" lon="6.49603">
        <ele>1999.1999511719</ele>
        <time>2014-02-12T08:55:00.000Z</time>
      </trkpt>
      <trkpt lat="45.90952" lon="6.49603">
        <ele>1999.1999511719</ele>
        <time>2014-02-12T08:55:01.000Z</time>
      </trkpt>
      <trkpt lat="45.90951" lon="6.49603">
        <ele>1999.5999755859</ele>
        <time>2014-02-12T08:55:02.000Z</time>
      </trkpt>
      <trkpt lat="45.90952" lon="6.49602">
        <ele>1999.1999511719</ele>
        <time>2014-02-12T08:55:03.000Z</time>
      </trkpt>
      <trkpt lat="45.9095" lon="6.49602">
        <ele>1999.8000488281</ele>
        <time>2014-02-12T08:55:04.000Z</time>
      </trkpt>
      <trkpt lat="45.9095" lon="6.49602">
        <ele>1999.5999755859</ele>
        <time>2014-02-12T08:55:05.000Z</time>
      </trkpt>
      <trkpt lat="45.90949" lon="6.49602">
        <ele>1999.8000488281</ele>
        <time>2014-02-12T08:55:06.000Z</time>
      </trkpt>
      <trkpt lat="45.90948" lon="6.49602">
        <ele>2000.1999511719</ele>
        <time>2014-02-12T08:55:07.000Z</time>
      </trkpt>
      <trkpt lat="45.90947" lon="6.49602">
        <ele>2000.5999755859</ele>
        <time>2014-02-12T08:55:08.000Z</time>
      </trkpt>
      <trkpt lat="45.90946" lon="6.49603">
        <ele>2000.8000488281</ele>
        <time>2014-02-12T08:55:09.000Z</time>
      </trkpt>
      <trkpt lat="45.90946" lon="6.49603">
        <ele>2001</ele>
        <time>2014-02-12T08:55:10.000Z</time>
      </trkpt>
      <trkpt lat="45.90945" lon="6.49601">
        <ele>2001</ele>
        <time>2014-02-12T08:55:11.000Z</time>
      </trkpt>
      <trkpt lat="45.90945" lon="6.49602">
        <ele>2001</ele>
        <time>2014-02-12T08:55:12.000Z</time>
      </trkpt>
      <trkpt lat="45.90944" lon="6.49602">
        <ele>2001.1999511719</ele>
        <time>2014-02-12T08:55:13.000Z</time>
      </trkpt>
      <trkpt lat="45.90944" lon="6.49602">
        <ele>2001.4000244141</ele>
        <time>2014-02-12T08:55:14.000Z</time>
      </trkpt>
      <trkpt lat="45.90944" lon="6.49602">
        <ele>2001.4000244141</ele>
        <time>2014-02-12T08:55:15.000Z</time>
      </trkpt>
      <trkpt lat="45.90943" lon="6.49602">
        <ele>2001.5999755859</ele>
        <time>2014-02-12T08:55:16.000Z</time>
      </trkpt>
      <trkpt lat="45.90943" lon="6.49602">
        <ele>2001.8000488281</ele>
        <time>2014-02-12T08:55:17.000Z</time>
      </trkpt>
      <trkpt lat="45.90942" lon="6.49602">
        <ele>2002</ele>
        <time>2014-02-12T08:55:18.000Z</time>
      </trkpt>
      <trkpt lat="45.90942" lon="6.49602">
        <ele>2002.1999511719</ele>
        <time>2014-02-12T08:55:19.000Z</time>
      </trkpt>
      <trkpt lat="45.90941" lon="6.49602">
        <ele>2002.4000244141</ele>
        <time>2014-02-12T08:55:20.000Z</time>
      </trkpt>
      <trkpt lat="45.9094" lon="6.49603">
        <ele>2002.5999755859</ele>
        <time>2014-02-12T08:55:21.000Z</time>
      </trkpt>
      <trkpt lat="45.9094" lon="6.49603">
        <ele>2002.5999755859</ele>
        <time>2014-02-12T08:55:22.000Z</time>
      </trkpt>
      <trkpt lat="45.9094" lon="6.49603">
        <ele>2002.8000488281</ele>
        <time>2014-02-12T08:55:23.000Z</time>
      </trkpt>
      <trkpt lat="45.90938" lon="6.49602">
        <ele>2003</ele>
        <time>2014-02-12T08:55:24.000Z</time>
      </trkpt>
      <trkpt lat="45.90938" lon="6.49602">
        <ele>2003</ele>
        <time>2014-02-12T08:55:25.000Z</time>
      </trkpt>
      <trkpt lat="45.90937" lon="6.49602">
        <ele>2003.1999511719</ele>
        <time>2014-02-12T08:55:26.000Z</time>
      </trkpt>
      <trkpt lat="45.90937" lon="6.49603">
        <ele>2003.5999755859</ele>
        <time>2014-02-12T08:55:27.000Z</time>
      </trkpt>
      <trkpt lat="45.90937" lon="6.49603">
        <ele>2003.5999755859</ele>
        <time>2014-02-12T08:55:28.000Z</time>
      </trkpt>
      <trkpt lat="45.90936" lon="6.49603">
        <ele>2003.8000488281</ele>
        <time>2014-02-12T08:55:29.000Z</time>
      </trkpt>
      <trkpt lat="45.90936" lon="6.49603">
        <ele>2003.8000488281</ele>
        <time>2014-02-12T08:55:30.000Z</time>
      </trkpt>
      <trkpt lat="45.90935" lon="6.49603">
        <ele>2004.1999511719</ele>
        <time>2014-02-12T08:55:31.000Z</time>
      </trkpt>
      <trkpt lat="45.90933" lon="6.49603">
        <ele>2004.4000244141</ele>
        <time>2014-02-12T08:55:32.000Z</time>
      </trkpt>
      <trkpt lat="45.90932" lon="6.49603">
        <ele>2005</ele>
        <time>2014-02-12T08:55:33.000Z</time>
      </trkpt>
      <trkpt lat="45.90932" lon="6.49603">
        <ele>2005</ele>
        <time>2014-02-12T08:55:34.000Z</time>
      </trkpt>
      <trkpt lat="45.9093" lon="6.49603">
        <ele>2005.5999755859</ele>
        <time>2014-02-12T08:55:35.000Z</time>
      </trkpt>
      <trkpt lat="45.9093" lon="6.49603">
        <ele>2005.5999755859</ele>
        <time>2014-02-12T08:55:36.000Z</time>
      </trkpt>
      <trkpt lat="45.9093" lon="6.49603">
        <ele>2005.5999755859</ele>
        <time>2014-02-12T08:55:37.000Z</time>
      </trkpt>
      <trkpt lat="45.9093" lon="6.49604">
        <ele>2005.8000488281</ele>
        <time>2014-02-12T08:55:38.000Z</time>
      </trkpt>
      <trkpt lat="45.90929" lon="6.49604">
        <ele>2006</ele>
        <time>2014-02-12T08:55:39.000Z</time>
      </trkpt>
      <trkpt lat="45.90929" lon="6.49604">
        <ele>2006.1999511719</ele>
        <time>2014-02-12T08:55:40.000Z</time>
      </trkpt>
      <trkpt lat="45.90928" lon="6.49604">
        <ele>2006.4000244141</ele>
        <time>2014-02-12T08:55:41.000Z</time>
      </trkpt>
      <trkpt lat="45.90928" lon="6.49604">
        <ele>2006.5999755859</ele>
        <time>2014-02-12T08:55:42.000Z</time>
      </trkpt>
      <trkpt lat="45.90927" lon="6.49604">
        <ele>2006.8000488281</ele>
        <time>2014-02-12T08:55:43.000Z</time>
      </trkpt>
      <trkpt lat="45.90926" lon="6.49604">
        <ele>2007</ele>
        <time>2014-02-12T08:55:44.000Z</time>
      </trkpt>
      <trkpt lat="45.90926" lon="6.49605">
        <ele>2007</ele>
        <time>2014-02-12T08:55:45.000Z</time>
      </trkpt>
      <trkpt lat="45.90925" lon="6.49604">
        <ele>2007.1999511719</ele>
        <time>2014-02-12T08:55:46.000Z</time>
      </trkpt>
      <trkpt lat="45.90924" lon="6.49604">
        <ele>2007.1999511719</ele>
        <time>2014-02-12T08:55:47.000Z</time>
      </trkpt>
      <trkpt lat="45.90924" lon="6.49604">
        <ele>2007.1999511719</ele>
        <time>2014-02-12T08:55:48.000Z</time>
      </trkpt>
      <trkpt lat="45.90924" lon="6.49604">
        <ele>2007.1999511719</ele>
        <time>2014-02-12T08:55:49.000Z</time>
      </trkpt>
      <trkpt lat="45.90924" lon="6.49604">
        <ele>2007.1999511719</ele>
        <time>2014-02-12T08:55:50.000Z</time>
      </trkpt>
      <trkpt lat="45.90924" lon="6.49604">
        <ele>2007.1999511719</ele>
        <time>2014-02-12T08:55:51.000Z</time>
      </trkpt>
      <trkpt lat="45.90924" lon="6.49604">
        <ele>2007.1999511719</ele>
        <time>2014-02-12T08:55:52.000Z</time>
      </trkpt>
      <trkpt lat="45.90924" lon="6.49604">
        <ele>2007.1999511719</ele>
        <time>2014-02-12T08:55:53.000Z</time>
      </trkpt>
      <trkpt lat="45.90924" lon="6.49604">
        <ele>2007.1999511719</ele>
        <time>2014-02-12T08:55:54.000Z</time>
      </trkpt>
      <trkpt lat="45.90924" lon="6.49604">
        <ele>2007.1999511719</ele>
        <time>2014-02-12T08:55:55.000Z</time>
      </trkpt>
      <trkpt lat="45.90924" lon="6.49604">
        <ele>2007.1999511719</ele>
        <time>2014-02-12T08:55:56.000Z</time>
      </trkpt>
      <trkpt lat="45.90924" lon="6.49605">
        <ele>2007.4000244141</ele>
        <time>2014-02-12T08:55:58.000Z</time>
      </trkpt>
      <trkpt lat="45.90924" lon="6.49605">
        <ele>2007.4000244141</ele>
        <time>2014-02-12T08:56:00.000Z</time>
      </trkpt>
      <trkpt lat="45.90924" lon="6.49605">
        <ele>2007.4000244141</ele>
        <time>2014-02-12T08:56:01.000Z</time>
      </trkpt>
      <trkpt lat="45.90923" lon="6.49605">
        <ele>2007.4000244141</ele>
        <time>2014-02-12T08:56:02.000Z</time>
      </trkpt>
      <trkpt lat="45.90923" lon="6.49605">
        <ele>2007.4000244141</ele>
        <time>2014-02-12T08:56:03.000Z</time>
      </trkpt>
      <trkpt lat="45.90923" lon="6.49605">
        <ele>2007.5999755859</ele>
        <time>2014-02-12T08:56:04.000Z</time>
      </trkpt>
      <trkpt lat="45.90922" lon="6.49605">
        <ele>2007.5999755859</ele>
        <time>2014-02-12T08:56:05.000Z</time>
      </trkpt>
      <trkpt lat="45.90921" lon="6.49605">
        <ele>2007.8000488281</ele>
        <time>2014-02-12T08:56:06.000Z</time>
      </trkpt>
      <trkpt lat="45.9092" lon="6.49605">
        <ele>2008</ele>
        <time>2014-02-12T08:56:07.000Z</time>
      </trkpt>
      <trkpt lat="45.9092" lon="6.49605">
        <ele>2008</ele>
        <time>2014-02-12T08:56:08.000Z</time>
      </trkpt>
      <trkpt lat="45.90919" lon="6.49605">
        <ele>2008.1999511719</ele>
        <time>2014-02-12T08:56:09.000Z</time>
      </trkpt>
      <trkpt lat="45.90919" lon="6.49605">
        <ele>2008.1999511719</ele>
        <time>2014-02-12T08:56:10.000Z</time>
      </trkpt>
      <trkpt lat="45.90919" lon="6.49605">
        <ele>2008.1999511719</ele>
        <time>2014-02-12T08:56:11.000Z</time>
      </trkpt>
      <trkpt lat="45.90919" lon="6.49605">
        <ele>2008.1999511719</ele>
        <time>2014-02-12T08:56:12.000Z</time>
      </trkpt>
      <trkpt lat="45.90919" lon="6.49605">
        <ele>2008.1999511719</ele>
        <time>2014-02-12T08:56:13.000Z</time>
      </trkpt>
      <trkpt lat="45.90919" lon="6.49605">
        <ele>2008.1999511719</ele>
        <time>2014-02-12T08:56:14.000Z</time>
      </trkpt>
      <trkpt lat="45.90919" lon="6.49605">
        <ele>2008.1999511719</ele>
        <time>2014-02-12T08:56:15.000Z</time>
      </trkpt>
      <trkpt lat="45.90919" lon="6.49605">
        <ele>2008.1999511719</ele>
        <time>2014-02-12T08:56:16.000Z</time>
      </trkpt>
      <trkpt lat="45.90919" lon="6.49605">
        <ele>2008.1999511719</ele>
        <time>2014-02-12T08:56:17.000Z</time>
      </trkpt>
      <trkpt lat="45.90919" lon="6.49605">
        <ele>2008.1999511719</ele>
        <time>2014-02-12T08:56:18.000Z</time>
      </trkpt>
      <trkpt lat="45.90919" lon="6.49605">
        <ele>2008.1999511719</ele>
        <time>2014-02-12T08:56:19.000Z</time>
      </trkpt>
      <trkpt lat="45.90919" lon="6.49605">
        <ele>2008.1999511719</ele>
        <time>2014-02-12T08:56:20.000Z</time>
      </trkpt>
      <trkpt lat="45.90919" lon="6.49605">
        <ele>2008.1999511719</ele>
        <time>2014-02-12T08:56:21.000Z</time>
      </trkpt>
      <trkpt lat="45.90919" lon="6.49605">
        <ele>2008.1999511719</ele>
        <time>2014-02-12T08:56:22.000Z</time>
      </trkpt>
      <trkpt lat="45.90919" lon="6.49605">
        <ele>2008.1999511719</ele>
        <time>2014-02-12T08:56:23.000Z</time>
      </trkpt>
      <trkpt lat="45.90919" lon="6.49605">
        <ele>2008.1999511719</ele>
        <time>2014-02-12T08:56:24.000Z</time>
      </trkpt>
      <trkpt lat="45.90919" lon="6.49605">
        <ele>2008.1999511719</ele>
        <time>2014-02-12T08:56:25.000Z</time>
      </trkpt>
      <trkpt lat="45.90919" lon="6.49605">
        <ele>2008.1999511719</ele>
        <time>2014-02-12T08:56:26.000Z</time>
      </trkpt>
      <trkpt lat="45.90919" lon="6.49605">
        <ele>2008.1999511719</ele>
        <time>2014-02-12T08:56:27.000Z</time>
      </trkpt>
      <trkpt lat="45.90916" lon="6.49605">
        <ele>2008.5999755859</ele>
        <time>2014-02-12T08:56:28.000Z</time>
      </trkpt>
      <trkpt lat="45.90916" lon="6.49605">
        <ele>2008.5999755859</ele>
        <time>2014-02-12T08:56:29.000Z</time>
      </trkpt>
      <trkpt lat="45.90914" lon="6.49605">
        <ele>2008.8000488281</ele>
        <time>2014-02-12T08:56:30.000Z</time>
      </trkpt>
      <trkpt lat="45.90911" lon="6.49604">
        <ele>2009.1999511719</ele>
        <time>2014-02-12T08:56:31.000Z</time>
      </trkpt>
      <trkpt lat="45.90909" lon="6.49604">
        <ele>2009.5999755859</ele>
        <time>2014-02-12T08:56:32.000Z</time>
      </trkpt>
      <trkpt lat="45.90907" lon="6.49604">
        <ele>2009.8000488281</ele>
        <time>2014-02-12T08:56:33.000Z</time>
      </trkpt>
      <trkpt lat="45.90906" lon="6.49604">
        <ele>2010</ele>
        <time>2014-02-12T08:56:34.000Z</time>
      </trkpt>
      <trkpt lat="45.90904" lon="6.49604">
        <ele>2010.1999511719</ele>
        <time>2014-02-12T08:56:35.000Z</time>
      </trkpt>
      <trkpt lat="45.90904" lon="6.49604">
        <ele>2010.4000244141</ele>
        <time>2014-02-12T08:56:36.000Z</time>
      </trkpt>
      <trkpt lat="45.90903" lon="6.49604">
        <ele>2010.4000244141</ele>
        <time>2014-02-12T08:56:37.000Z</time>
      </trkpt>
      <trkpt lat="45.90902" lon="6.49603">
        <ele>2010.4000244141</ele>
        <time>2014-02-12T08:56:38.000Z</time>
      </trkpt>
      <trkpt lat="45.909" lon="6.49602">
        <ele>2010.4000244141</ele>
        <time>2014-02-12T08:56:39.000Z</time>
      </trkpt>
      <trkpt lat="45.909" lon="6.49602">
        <ele>2010.5999755859</ele>
        <time>2014-02-12T08:56:40.000Z</time>
      </trkpt>
      <trkpt lat="45.90898" lon="6.49602">
        <ele>2010.8000488281</ele>
        <time>2014-02-12T08:56:41.000Z</time>
      </trkpt>
      <trkpt lat="45.90897" lon="6.49602">
        <ele>2010.8000488281</ele>
        <time>2014-02-12T08:56:42.000Z</time>
      </trkpt>
      <trkpt lat="45.90896" lon="6.49602">
        <ele>2010.8000488281</ele>
        <time>2014-02-12T08:56:43.000Z</time>
      </trkpt>
      <trkpt lat="45.90896" lon="6.49602">
        <ele>2010.8000488281</ele>
        <time>2014-02-12T08:56:44.000Z</time>
      </trkpt>
      <trkpt lat="45.90895" lon="6.49602">
        <ele>2011</ele>
        <time>2014-02-12T08:56:45.000Z</time>
      </trkpt>
      <trkpt lat="45.90895" lon="6.49602">
        <ele>2011.1999511719</ele>
        <time>2014-02-12T08:56:46.000Z</time>
      </trkpt>
      <trkpt lat="45.90894" lon="6.49602">
        <ele>2011.4000244141</ele>
        <time>2014-02-12T08:56:47.000Z</time>
      </trkpt>
      <trkpt lat="45.90894" lon="6.49602">
        <ele>2011.4000244141</ele>
        <time>2014-02-12T08:56:48.000Z</time>
      </trkpt>
      <trkpt lat="45.90894" lon="6.49603">
        <ele>2011.5999755859</ele>
        <time>2014-02-12T08:56:49.000Z</time>
      </trkpt>
      <trkpt lat="45.90894" lon="6.49603">
        <ele>2011.5999755859</ele>
        <time>2014-02-12T08:56:50.000Z</time>
      </trkpt>
      <trkpt lat="45.90893" lon="6.49602">
        <ele>2011.5999755859</ele>
        <time>2014-02-12T08:56:51.000Z</time>
      </trkpt>
      <trkpt lat="45.90893" lon="6.49602">
        <ele>2011.5999755859</ele>
        <time>2014-02-12T08:56:52.000Z</time>
      </trkpt>
      <trkpt lat="45.90892" lon="6.49602">
        <ele>2011.8000488281</ele>
        <time>2014-02-12T08:56:53.000Z</time>
      </trkpt>
      <trkpt lat="45.9089" lon="6.49602">
        <ele>2012</ele>
        <time>2014-02-12T08:56:55.000Z</time>
      </trkpt>
      <trkpt lat="45.90888" lon="6.49602">
        <ele>2012.8000488281</ele>
        <time>2014-02-12T08:56:56.000Z</time>
      </trkpt>
      <trkpt lat="45.90888" lon="6.49601">
        <ele>2012.5999755859</ele>
        <time>2014-02-12T08:56:57.000Z</time>
      </trkpt>
      <trkpt lat="45.90888" lon="6.49601">
        <ele>2012.5999755859</ele>
        <time>2014-02-12T08:56:58.000Z</time>
      </trkpt>
      <trkpt lat="45.90887" lon="6.49601">
        <ele>2013</ele>
        <time>2014-02-12T08:56:59.000Z</time>
      </trkpt>
      <trkpt lat="45.90886" lon="6.49601">
        <ele>2013.5999755859</ele>
        <time>2014-02-12T08:57:00.000Z</time>
      </trkpt>
      <trkpt lat="45.90885" lon="6.49602">
        <ele>2013.8000488281</ele>
        <time>2014-02-12T08:57:01.000Z</time>
      </trkpt>
      <trkpt lat="45.90884" lon="6.49601">
        <ele>2014.4000244141</ele>
        <time>2014-02-12T08:57:02.000Z</time>
      </trkpt>
      <trkpt lat="45.90883" lon="6.49601">
        <ele>2014.5999755859</ele>
        <time>2014-02-12T08:57:03.000Z</time>
      </trkpt>
      <trkpt lat="45.90882" lon="6.49601">
        <ele>2015</ele>
        <time>2014-02-12T08:57:04.000Z</time>
      </trkpt>
      <trkpt lat="45.90881" lon="6.49601">
        <ele>2015.1999511719</ele>
        <time>2014-02-12T08:57:05.000Z</time>
      </trkpt>
      <trkpt lat="45.9088" lon="6.496">
        <ele>2015.4000244141</ele>
        <time>2014-02-12T08:57:06.000Z</time>
      </trkpt>
      <trkpt lat="45.9088" lon="6.496">
        <ele>2015.8000488281</ele>
        <time>2014-02-12T08:57:07.000Z</time>
      </trkpt>
      <trkpt lat="45.90879" lon="6.496">
        <ele>2016</ele>
        <time>2014-02-12T08:57:08.000Z</time>
      </trkpt>
      <trkpt lat="45.90879" lon="6.496">
        <ele>2016</ele>
        <time>2014-02-12T08:57:09.000Z</time>
      </trkpt>
      <trkpt lat="45.90878" lon="6.496">
        <ele>2016.4000244141</ele>
        <time>2014-02-12T08:57:10.000Z</time>
      </trkpt>
      <trkpt lat="45.90878" lon="6.496">
        <ele>2016.4000244141</ele>
        <time>2014-02-12T08:57:11.000Z</time>
      </trkpt>
      <trkpt lat="45.90876" lon="6.496">
        <ele>2017</ele>
        <time>2014-02-12T08:57:12.000Z</time>
      </trkpt>
      <trkpt lat="45.90876" lon="6.496">
        <ele>2017.1999511719</ele>
        <time>2014-02-12T08:57:13.000Z</time>
      </trkpt>
      <trkpt lat="45.90874" lon="6.496">
        <ele>2018</ele>
        <time>2014-02-12T08:57:14.000Z</time>
      </trkpt>
      <trkpt lat="45.90873" lon="6.496">
        <ele>2018</ele>
        <time>2014-02-12T08:57:15.000Z</time>
      </trkpt>
      <trkpt lat="45.90871" lon="6.49599">
        <ele>2018.5999755859</ele>
        <time>2014-02-12T08:57:16.000Z</time>
      </trkpt>
      <trkpt lat="45.90871" lon="6.49599">
        <ele>2018.5999755859</ele>
        <time>2014-02-12T08:57:17.000Z</time>
      </trkpt>
      <trkpt lat="45.9087" lon="6.49598">
        <ele>2019</ele>
        <time>2014-02-12T08:57:18.000Z</time>
      </trkpt>
      <trkpt lat="45.9087" lon="6.49598">
        <ele>2019</ele>
        <time>2014-02-12T08:57:19.000Z</time>
      </trkpt>
      <trkpt lat="45.90868" lon="6.49597">
        <ele>2019.4000244141</ele>
        <time>2014-02-12T08:57:20.000Z</time>
      </trkpt>
      <trkpt lat="45.90868" lon="6.49597">
        <ele>2019.4000244141</ele>
        <time>2014-02-12T08:57:21.000Z</time>
      </trkpt>
      <trkpt lat="45.90867" lon="6.49596">
        <ele>2019.4000244141</ele>
        <time>2014-02-12T08:57:22.000Z</time>
      </trkpt>
      <trkpt lat="45.90867" lon="6.49596">
        <ele>2019.5999755859</ele>
        <time>2014-02-12T08:57:23.000Z</time>
      </trkpt>
      <trkpt lat="45.90865" lon="6.49595">
        <ele>2019.8000488281</ele>
        <time>2014-02-12T08:57:24.000Z</time>
      </trkpt>
      <trkpt lat="45.90865" lon="6.49594">
        <ele>2020</ele>
        <time>2014-02-12T08:57:25.000Z</time>
      </trkpt>
      <trkpt lat="45.90863" lon="6.49593">
        <ele>2020.4000244141</ele>
        <time>2014-02-12T08:57:26.000Z</time>
      </trkpt>
      <trkpt lat="45.90863" lon="6.49593">
        <ele>2020.4000244141</ele>
        <time>2014-02-12T08:57:27.000Z</time>
      </trkpt>
      <trkpt lat="45.90861" lon="6.49592">
        <ele>2021</ele>
        <time>2014-02-12T08:57:29.000Z</time>
      </trkpt>
      <trkpt lat="45.9086" lon="6.49591">
        <ele>2021.1999511719</ele>
        <time>2014-02-12T08:57:30.000Z</time>
      </trkpt>
      <trkpt lat="45.9086" lon="6.49591">
        <ele>2021.1999511719</ele>
        <time>2014-02-12T08:57:31.000Z</time>
      </trkpt>
      <trkpt lat="45.90859" lon="6.49591">
        <ele>2021.4000244141</ele>
        <time>2014-02-12T08:57:32.000Z</time>
      </trkpt>
      <trkpt lat="45.90859" lon="6.49591">
        <ele>2021.4000244141</ele>
        <time>2014-02-12T08:57:33.000Z</time>
      </trkpt>
      <trkpt lat="45.90858" lon="6.49591">
        <ele>2021.8000488281</ele>
        <time>2014-02-12T08:57:34.000Z</time>
      </trkpt>
      <trkpt lat="45.90859" lon="6.49592">
        <ele>2021.8000488281</ele>
        <time>2014-02-12T08:57:35.000Z</time>
      </trkpt>
      <trkpt lat="45.90857" lon="6.49591">
        <ele>2022.1999511719</ele>
        <time>2014-02-12T08:57:36.000Z</time>
      </trkpt>
      <trkpt lat="45.90857" lon="6.49591">
        <ele>2022.4000244141</ele>
        <time>2014-02-12T08:57:37.000Z</time>
      </trkpt>
      <trkpt lat="45.90855" lon="6.4959">
        <ele>2022.5999755859</ele>
        <time>2014-02-12T08:57:38.000Z</time>
      </trkpt>
      <trkpt lat="45.90855" lon="6.49589">
        <ele>2022.5999755859</ele>
        <time>2014-02-12T08:57:39.000Z</time>
      </trkpt>
      <trkpt lat="45.90853" lon="6.49587">
        <ele>2022.8000488281</ele>
        <time>2014-02-12T08:57:40.000Z</time>
      </trkpt>
      <trkpt lat="45.90852" lon="6.49586">
        <ele>2022.8000488281</ele>
        <time>2014-02-12T08:57:41.000Z</time>
      </trkpt>
      <trkpt lat="45.90851" lon="6.49585">
        <ele>2023</ele>
        <time>2014-02-12T08:57:42.000Z</time>
      </trkpt>
      <trkpt lat="45.90851" lon="6.49584">
        <ele>2023.1999511719</ele>
        <time>2014-02-12T08:57:43.000Z</time>
      </trkpt>
      <trkpt lat="45.9085" lon="6.49584">
        <ele>2023.5999755859</ele>
        <time>2014-02-12T08:57:44.000Z</time>
      </trkpt>
      <trkpt lat="45.90849" lon="6.49584">
        <ele>2023.8000488281</ele>
        <time>2014-02-12T08:57:45.000Z</time>
      </trkpt>
      <trkpt lat="45.90848" lon="6.49586">
        <ele>2024.4000244141</ele>
        <time>2014-02-12T08:57:46.000Z</time>
      </trkpt>
      <trkpt lat="45.90847" lon="6.49585">
        <ele>2024.8000488281</ele>
        <time>2014-02-12T08:57:47.000Z</time>
      </trkpt>
      <trkpt lat="45.90846" lon="6.49587">
        <ele>2025.4000244141</ele>
        <time>2014-02-12T08:57:48.000Z</time>
      </trkpt>
      <trkpt lat="45.90846" lon="6.49586">
        <ele>2025.5999755859</ele>
        <time>2014-02-12T08:57:49.000Z</time>
      </trkpt>
      <trkpt lat="45.90845" lon="6.49586">
        <ele>2025.8000488281</ele>
        <time>2014-02-12T08:57:50.000Z</time>
      </trkpt>
      <trkpt lat="45.90845" lon="6.49585">
        <ele>2025.5999755859</ele>
        <time>2014-02-12T08:57:51.000Z</time>
      </trkpt>
      <trkpt lat="45.90844" lon="6.49585">
        <ele>2025.8000488281</ele>
        <time>2014-02-12T08:57:52.000Z</time>
      </trkpt>
      <trkpt lat="45.90843" lon="6.49584">
        <ele>2025.8000488281</ele>
        <time>2014-02-12T08:57:53.000Z</time>
      </trkpt>
      <trkpt lat="45.90843" lon="6.49584">
        <ele>2026</ele>
        <time>2014-02-12T08:57:54.000Z</time>
      </trkpt>
      <trkpt lat="45.90843" lon="6.49583">
        <ele>2025.8000488281</ele>
        <time>2014-02-12T08:57:55.000Z</time>
      </trkpt>
      <trkpt lat="45.90842" lon="6.49583">
        <ele>2026</ele>
        <time>2014-02-12T08:57:56.000Z</time>
      </trkpt>
      <trkpt lat="45.90843" lon="6.49583">
        <ele>2026</ele>
        <time>2014-02-12T08:57:57.000Z</time>
      </trkpt>
      <trkpt lat="45.90843" lon="6.49584">
        <ele>2026.1999511719</ele>
        <time>2014-02-12T08:57:58.000Z</time>
      </trkpt>
      <trkpt lat="45.90843" lon="6.49584">
        <ele>2026.4000244141</ele>
        <time>2014-02-12T08:57:59.000Z</time>
      </trkpt>
      <trkpt lat="45.90842" lon="6.49585">
        <ele>2026.4000244141</ele>
        <time>2014-02-12T08:58:00.000Z</time>
      </trkpt>
      <trkpt lat="45.90842" lon="6.49585">
        <ele>2026.5999755859</ele>
        <time>2014-02-12T08:58:01.000Z</time>
      </trkpt>
      <trkpt lat="45.90842" lon="6.49585">
        <ele>2026.8000488281</ele>
        <time>2014-02-12T08:58:02.000Z</time>
      </trkpt>
      <trkpt lat="45.90841" lon="6.49584">
        <ele>2027</ele>
        <time>2014-02-12T08:58:03.000Z</time>
      </trkpt>
      <trkpt lat="45.90841" lon="6.49584">
        <ele>2027.1999511719</ele>
        <time>2014-02-12T08:58:04.000Z</time>
      </trkpt>
      <trkpt lat="45.9084" lon="6.49584">
        <ele>2027.4000244141</ele>
        <time>2014-02-12T08:58:05.000Z</time>
      </trkpt>
      <trkpt lat="45.90839" lon="6.49584">
        <ele>2027.5999755859</ele>
        <time>2014-02-12T08:58:06.000Z</time>
      </trkpt>
      <trkpt lat="45.90838" lon="6.49584">
        <ele>2028</ele>
        <time>2014-02-12T08:58:07.000Z</time>
      </trkpt>
      <trkpt lat="45.90838" lon="6.49584">
        <ele>2028.1999511719</ele>
        <time>2014-02-12T08:58:08.000Z</time>
      </trkpt>
      <trkpt lat="45.90837" lon="6.49584">
        <ele>2028.4000244141</ele>
        <time>2014-02-12T08:58:09.000Z</time>
      </trkpt>
      <trkpt lat="45.90837" lon="6.49584">
        <ele>2028.5999755859</ele>
        <time>2014-02-12T08:58:10.000Z</time>
      </trkpt>
      <trkpt lat="45.90836" lon="6.49584">
        <ele>2028.5999755859</ele>
        <time>2014-02-12T08:58:11.000Z</time>
      </trkpt>
      <trkpt lat="45.90836" lon="6.49584">
        <ele>2028.8000488281</ele>
        <time>2014-02-12T08:58:12.000Z</time>
      </trkpt>
      <trkpt lat="45.90836" lon="6.49584">
        <ele>2028.8000488281</ele>
        <time>2014-02-12T08:58:13.000Z</time>
      </trkpt>
      <trkpt lat="45.90836" lon="6.49585">
        <ele>2029.1999511719</ele>
        <time>2014-02-12T08:58:14.000Z</time>
      </trkpt>
      <trkpt lat="45.90836" lon="6.49585">
        <ele>2029.1999511719</ele>
        <time>2014-02-12T08:58:15.000Z</time>
      </trkpt>
      <trkpt lat="45.90835" lon="6.49585">
        <ele>2029.4000244141</ele>
        <time>2014-02-12T08:58:16.000Z</time>
      </trkpt>
      <trkpt lat="45.90835" lon="6.49584">
        <ele>2029.4000244141</ele>
        <time>2014-02-12T08:58:17.000Z</time>
      </trkpt>
      <trkpt lat="45.90835" lon="6.49584">
        <ele>2029.4000244141</ele>
        <time>2014-02-12T08:58:18.000Z</time>
      </trkpt>
      <trkpt lat="45.90835" lon="6.49584">
        <ele>2029.4000244141</ele>
        <time>2014-02-12T08:58:19.000Z</time>
      </trkpt>
      <trkpt lat="45.90835" lon="6.49584">
        <ele>2029.4000244141</ele>
        <time>2014-02-12T08:58:20.000Z</time>
      </trkpt>
      <trkpt lat="45.90835" lon="6.49584">
        <ele>2029.4000244141</ele>
        <time>2014-02-12T08:58:21.000Z</time>
      </trkpt>
      <trkpt lat="45.90835" lon="6.49584">
        <ele>2029.4000244141</ele>
        <time>2014-02-12T08:58:22.000Z</time>
      </trkpt>
      <trkpt lat="45.90835" lon="6.49584">
        <ele>2029.4000244141</ele>
        <time>2014-02-12T08:58:23.000Z</time>
      </trkpt>
      <trkpt lat="45.90835" lon="6.49584">
        <ele>2029.4000244141</ele>
        <time>2014-02-12T08:58:24.000Z</time>
      </trkpt>
      <trkpt lat="45.90835" lon="6.49584">
        <ele>2029.4000244141</ele>
        <time>2014-02-12T08:58:26.000Z</time>
      </trkpt>
      <trkpt lat="45.90835" lon="6.49584">
        <ele>2029.4000244141</ele>
        <time>2014-02-12T08:58:27.000Z</time>
      </trkpt>
      <trkpt lat="45.90835" lon="6.49584">
        <ele>2029.4000244141</ele>
        <time>2014-02-12T08:58:28.000Z</time>
      </trkpt>
      <trkpt lat="45.90835" lon="6.49584">
        <ele>2029.4000244141</ele>
        <time>2014-02-12T08:58:29.000Z</time>
      </trkpt>
      <trkpt lat="45.90835" lon="6.49584">
        <ele>2029.4000244141</ele>
        <time>2014-02-12T08:58:30.000Z</time>
      </trkpt>
      <trkpt lat="45.90835" lon="6.49584">
        <ele>2029.4000244141</ele>
        <time>2014-02-12T08:58:37.000Z</time>
      </trkpt>
      <trkpt lat="45.90835" lon="6.49584">
        <ele>2029.4000244141</ele>
        <time>2014-02-12T08:58:38.000Z</time>
      </trkpt>
      <trkpt lat="45.90835" lon="6.49584">
        <ele>2029.4000244141</ele>
        <time>2014-02-12T08:58:39.000Z</time>
      </trkpt>
      <trkpt lat="45.90835" lon="6.49584">
        <ele>2029.4000244141</ele>
        <time>2014-02-12T08:58:40.000Z</time>
      </trkpt>
      <trkpt lat="45.90835" lon="6.49584">
        <ele>2029.4000244141</ele>
        <time>2014-02-12T08:58:41.000Z</time>
      </trkpt>
      <trkpt lat="45.90835" lon="6.49584">
        <ele>2029.4000244141</ele>
        <time>2014-02-12T08:58:42.000Z</time>
      </trkpt>
      <trkpt lat="45.90835" lon="6.49584">
        <ele>2029.4000244141</ele>
        <time>2014-02-12T08:58:43.000Z</time>
      </trkpt>
      <trkpt lat="45.90835" lon="6.49584">
        <ele>2029.4000244141</ele>
        <time>2014-02-12T08:58:44.000Z</time>
      </trkpt>
      <trkpt lat="45.90835" lon="6.49584">
        <ele>2029.4000244141</ele>
        <time>2014-02-12T08:58:45.000Z</time>
      </trkpt>
      <trkpt lat="45.90835" lon="6.49584">
        <ele>2029.4000244141</ele>
        <time>2014-02-12T08:58:46.000Z</time>
      </trkpt>
      <trkpt lat="45.90834" lon="6.49584">
        <ele>2029.5999755859</ele>
        <time>2014-02-12T08:58:48.000Z</time>
      </trkpt>
      <trkpt lat="45.90834" lon="6.49584">
        <ele>2029.5999755859</ele>
        <time>2014-02-12T08:58:49.000Z</time>
      </trkpt>
      <trkpt lat="45.90832" lon="6.49583">
        <ele>2030</ele>
        <time>2014-02-12T08:58:50.000Z</time>
      </trkpt>
      <trkpt lat="45.90832" lon="6.49583">
        <ele>2030</ele>
        <time>2014-02-12T08:58:51.000Z</time>
      </trkpt>
      <trkpt lat="45.90832" lon="6.49583">
        <ele>2030.4000244141</ele>
        <time>2014-02-12T08:58:52.000Z</time>
      </trkpt>
      <trkpt lat="45.90831" lon="6.49583">
        <ele>2030.5999755859</ele>
        <time>2014-02-12T08:58:53.000Z</time>
      </trkpt>
      <trkpt lat="45.9083" lon="6.49582">
        <ele>2030.8000488281</ele>
        <time>2014-02-12T08:58:54.000Z</time>
      </trkpt>
      <trkpt lat="45.9083" lon="6.49582">
        <ele>2030.8000488281</ele>
        <time>2014-02-12T08:58:55.000Z</time>
      </trkpt>
      <trkpt lat="45.90829" lon="6.49582">
        <ele>2031</ele>
        <time>2014-02-12T08:58:56.000Z</time>
      </trkpt>
      <trkpt lat="45.90829" lon="6.49582">
        <ele>2031.1999511719</ele>
        <time>2014-02-12T08:58:57.000Z</time>
      </trkpt>
      <trkpt lat="45.90828" lon="6.49582">
        <ele>2031.4000244141</ele>
        <time>2014-02-12T08:58:58.000Z</time>
      </trkpt>
      <trkpt lat="45.90828" lon="6.49582">
        <ele>2031.5999755859</ele>
        <time>2014-02-12T08:58:59.000Z</time>
      </trkpt>
      <trkpt lat="45.90827" lon="6.49582">
        <ele>2031.8000488281</ele>
        <time>2014-02-12T08:59:00.000Z</time>
      </trkpt>
      <trkpt lat="45.90827" lon="6.49582">
        <ele>2031.8000488281</ele>
        <time>2014-02-12T08:59:01.000Z</time>
      </trkpt>
      <trkpt lat="45.90827" lon="6.49582">
        <ele>2031.8000488281</ele>
        <time>2014-02-12T08:59:02.000Z</time>
      </trkpt>
      <trkpt lat="45.90827" lon="6.49582">
        <ele>2031.8000488281</ele>
        <time>2014-02-12T08:59:03.000Z</time>
      </trkpt>
      <trkpt lat="45.90827" lon="6.49582">
        <ele>2031.8000488281</ele>
        <time>2014-02-12T08:59:04.000Z</time>
      </trkpt>
      <trkpt lat="45.90827" lon="6.49582">
        <ele>2031.8000488281</ele>
        <time>2014-02-12T08:59:05.000Z</time>
      </trkpt>
      <trkpt lat="45.90827" lon="6.49582">
        <ele>2031.8000488281</ele>
        <time>2014-02-12T08:59:06.000Z</time>
      </trkpt>
      <trkpt lat="45.90827" lon="6.49582">
        <ele>2031.8000488281</ele>
        <time>2014-02-12T08:59:08.000Z</time>
      </trkpt>
      <trkpt lat="45.90827" lon="6.49582">
        <ele>2031.8000488281</ele>
        <time>2014-02-12T08:59:12.000Z</time>
      </trkpt>
      <trkpt lat="45.90827" lon="6.49582">
        <ele>2031.8000488281</ele>
        <time>2014-02-12T08:59:13.000Z</time>
      </trkpt>
      <trkpt lat="45.90827" lon="6.49582">
        <ele>2031.8000488281</ele>
        <time>2014-02-12T08:59:14.000Z</time>
      </trkpt>
      <trkpt lat="45.90827" lon="6.49582">
        <ele>2031.8000488281</ele>
        <time>2014-02-12T08:59:15.000Z</time>
      </trkpt>
      <trkpt lat="45.90827" lon="6.49582">
        <ele>2031.8000488281</ele>
        <time>2014-02-12T08:59:16.000Z</time>
      </trkpt>
      <trkpt lat="45.90827" lon="6.49582">
        <ele>2031.8000488281</ele>
        <time>2014-02-12T08:59:17.000Z</time>
      </trkpt>
      <trkpt lat="45.90827" lon="6.49582">
        <ele>2031.8000488281</ele>
        <time>2014-02-12T08:59:18.000Z</time>
      </trkpt>
      <trkpt lat="45.90827" lon="6.49582">
        <ele>2032</ele>
        <time>2014-02-12T08:59:19.000Z</time>
      </trkpt>
      <trkpt lat="45.90827" lon="6.49582">
        <ele>2032</ele>
        <time>2014-02-12T08:59:20.000Z</time>
      </trkpt>
      <trkpt lat="45.90826" lon="6.49582">
        <ele>2032.1999511719</ele>
        <time>2014-02-12T08:59:21.000Z</time>
      </trkpt>
      <trkpt lat="45.90826" lon="6.49582">
        <ele>2032.5999755859</ele>
        <time>2014-02-12T08:59:22.000Z</time>
      </trkpt>
      <trkpt lat="45.90825" lon="6.49583">
        <ele>2032.8000488281</ele>
        <time>2014-02-12T08:59:23.000Z</time>
      </trkpt>
      <trkpt lat="45.90825" lon="6.49583">
        <ele>2032.8000488281</ele>
        <time>2014-02-12T08:59:24.000Z</time>
      </trkpt>
      <trkpt lat="45.90824" lon="6.49582">
        <ele>2033.1999511719</ele>
        <time>2014-02-12T08:59:25.000Z</time>
      </trkpt>
      <trkpt lat="45.90824" lon="6.49582">
        <ele>2033.1999511719</ele>
        <time>2014-02-12T08:59:26.000Z</time>
      </trkpt>
      <trkpt lat="45.90823" lon="6.49582">
        <ele>2033.4000244141</ele>
        <time>2014-02-12T08:59:27.000Z</time>
      </trkpt>
      <trkpt lat="45.90823" lon="6.49581">
        <ele>2033.4000244141</ele>
        <time>2014-02-12T08:59:28.000Z</time>
      </trkpt>
      <trkpt lat="45.90823" lon="6.49581">
        <ele>2033.4000244141</ele>
        <time>2014-02-12T08:59:29.000Z</time>
      </trkpt>
      <trkpt lat="45.90822" lon="6.49581">
        <ele>2033.5999755859</ele>
        <time>2014-02-12T08:59:30.000Z</time>
      </trkpt>
      <trkpt lat="45.90821" lon="6.4958">
        <ele>2033.5999755859</ele>
        <time>2014-02-12T08:59:31.000Z</time>
      </trkpt>
      <trkpt lat="45.90821" lon="6.4958">
        <ele>2033.8000488281</ele>
        <time>2014-02-12T08:59:32.000Z</time>
      </trkpt>
      <trkpt lat="45.9082" lon="6.4958">
        <ele>2034</ele>
        <time>2014-02-12T08:59:33.000Z</time>
      </trkpt>
      <trkpt lat="45.9082" lon="6.4958">
        <ele>2034</ele>
        <time>2014-02-12T08:59:34.000Z</time>
      </trkpt>
      <trkpt lat="45.9082" lon="6.49579">
        <ele>2034.1999511719</ele>
        <time>2014-02-12T08:59:35.000Z</time>
      </trkpt>
      <trkpt lat="45.9082" lon="6.49579">
        <ele>2034.1999511719</ele>
        <time>2014-02-12T08:59:36.000Z</time>
      </trkpt>
      <trkpt lat="45.90819" lon="6.49579">
        <ele>2034.1999511719</ele>
        <time>2014-02-12T08:59:37.000Z</time>
      </trkpt>
      <trkpt lat="45.90819" lon="6.49579">
        <ele>2034.1999511719</ele>
        <time>2014-02-12T08:59:38.000Z</time>
      </trkpt>
      <trkpt lat="45.90818" lon="6.49579">
        <ele>2034.4000244141</ele>
        <time>2014-02-12T08:59:39.000Z</time>
      </trkpt>
      <trkpt lat="45.90818" lon="6.49579">
        <ele>2034.4000244141</ele>
        <time>2014-02-12T08:59:40.000Z</time>
      </trkpt>
      <trkpt lat="45.90818" lon="6.49578">
        <ele>2034.5999755859</ele>
        <time>2014-02-12T08:59:41.000Z</time>
      </trkpt>
      <trkpt lat="45.90818" lon="6.49578">
        <ele>2034.5999755859</ele>
        <time>2014-02-12T08:59:42.000Z</time>
      </trkpt>
      <trkpt lat="45.90817" lon="6.49577">
        <ele>2034.5999755859</ele>
        <time>2014-02-12T08:59:43.000Z</time>
      </trkpt>
      <trkpt lat="45.90817" lon="6.49577">
        <ele>2034.5999755859</ele>
        <time>2014-02-12T08:59:44.000Z</time>
      </trkpt>
      <trkpt lat="45.90816" lon="6.49577">
        <ele>2034.8000488281</ele>
        <time>2014-02-12T08:59:45.000Z</time>
      </trkpt>
      <trkpt lat="45.90816" lon="6.49576">
        <ele>2034.8000488281</ele>
        <time>2014-02-12T08:59:46.000Z</time>
      </trkpt>
      <trkpt lat="45.90816" lon="6.49576">
        <ele>2034.8000488281</ele>
        <time>2014-02-12T08:59:47.000Z</time>
      </trkpt>
      <trkpt lat="45.90816" lon="6.49576">
        <ele>2034.8000488281</ele>
        <time>2014-02-12T08:59:48.000Z</time>
      </trkpt>
      <trkpt lat="45.90816" lon="6.49576">
        <ele>2034.8000488281</ele>
        <time>2014-02-12T08:59:49.000Z</time>
      </trkpt>
      <trkpt lat="45.90816" lon="6.49576">
        <ele>2034.8000488281</ele>
        <time>2014-02-12T08:59:50.000Z</time>
      </trkpt>
      <trkpt lat="45.90816" lon="6.49576">
        <ele>2034.8000488281</ele>
        <time>2014-02-12T08:59:51.000Z</time>
      </trkpt>
      <trkpt lat="45.90816" lon="6.49576">
        <ele>2034.8000488281</ele>
        <time>2014-02-12T08:59:52.000Z</time>
      </trkpt>
      <trkpt lat="45.90816" lon="6.49576">
        <ele>2034.8000488281</ele>
        <time>2014-02-12T08:59:53.000Z</time>
      </trkpt>
      <trkpt lat="45.90816" lon="6.49576">
        <ele>2034.8000488281</ele>
        <time>2014-02-12T08:59:54.000Z</time>
      </trkpt>
      <trkpt lat="45.90816" lon="6.49576">
        <ele>2034.8000488281</ele>
        <time>2014-02-12T08:59:55.000Z</time>
      </trkpt>
      <trkpt lat="45.90816" lon="6.49576">
        <ele>2034.8000488281</ele>
        <time>2014-02-12T08:59:56.000Z</time>
      </trkpt>
      <trkpt lat="45.90816" lon="6.49576">
        <ele>2034.8000488281</ele>
        <time>2014-02-12T08:59:57.000Z</time>
      </trkpt>
      <trkpt lat="45.90816" lon="6.49576">
        <ele>2034.8000488281</ele>
        <time>2014-02-12T08:59:58.000Z</time>
      </trkpt>
      <trkpt lat="45.90816" lon="6.49579">
        <ele>2035.4000244141</ele>
        <time>2014-02-12T09:00:01.000Z</time>
      </trkpt>
      <trkpt lat="45.90816" lon="6.4958">
        <ele>2035.8000488281</ele>
        <time>2014-02-12T09:00:02.000Z</time>
      </trkpt>
      <trkpt lat="45.90816" lon="6.49581">
        <ele>2036.1999511719</ele>
        <time>2014-02-12T09:00:03.000Z</time>
      </trkpt>
      <trkpt lat="45.90815" lon="6.49582">
        <ele>2036.8000488281</ele>
        <time>2014-02-12T09:00:04.000Z</time>
      </trkpt>
      <trkpt lat="45.90815" lon="6.49583">
        <ele>2037.1999511719</ele>
        <time>2014-02-12T09:00:05.000Z</time>
      </trkpt>
      <trkpt lat="45.90815" lon="6.49584">
        <ele>2037.5999755859</ele>
        <time>2014-02-12T09:00:06.000Z</time>
      </trkpt>
      <trkpt lat="45.90814" lon="6.49585">
        <ele>2038</ele>
        <time>2014-02-12T09:00:07.000Z</time>
      </trkpt>
      <trkpt lat="45.90814" lon="6.49586">
        <ele>2038.4000244141</ele>
        <time>2014-02-12T09:00:08.000Z</time>
      </trkpt>
      <trkpt lat="45.90814" lon="6.49587">
        <ele>2038.8000488281</ele>
        <time>2014-02-12T09:00:09.000Z</time>
      </trkpt>
      <trkpt lat="45.90814" lon="6.49587">
        <ele>2038.8000488281</ele>
        <time>2014-02-12T09:00:10.000Z</time>
      </trkpt>
      <trkpt lat="45.90814" lon="6.49588">
        <ele>2039</ele>
        <time>2014-02-12T09:00:11.000Z</time>
      </trkpt>
      <trkpt lat="45.90814" lon="6.49588">
        <ele>2039</ele>
        <time>2014-02-12T09:00:12.000Z</time>
      </trkpt>
      <trkpt lat="45.90813" lon="6.49589">
        <ele>2039.5999755859</ele>
        <time>2014-02-12T09:00:13.000Z</time>
      </trkpt>
      <trkpt lat="45.90813" lon="6.49589">
        <ele>2039.5999755859</ele>
        <time>2014-02-12T09:00:14.000Z</time>
      </trkpt>
      <trkpt lat="45.90813" lon="6.4959">
        <ele>2039.8000488281</ele>
        <time>2014-02-12T09:00:15.000Z</time>
      </trkpt>
      <trkpt lat="45.90813" lon="6.4959">
        <ele>2039.8000488281</ele>
        <time>2014-02-12T09:00:16.000Z</time>
      </trkpt>
      <trkpt lat="45.90813" lon="6.4959">
        <ele>2039.8000488281</ele>
        <time>2014-02-12T09:00:17.000Z</time>
      </trkpt>
      <trkpt lat="45.90813" lon="6.4959">
        <ele>2039.8000488281</ele>
        <time>2014-02-12T09:00:18.000Z</time>
      </trkpt>
      <trkpt lat="45.90813" lon="6.49591">
        <ele>2040.4000244141</ele>
        <time>2014-02-12T09:00:19.000Z</time>
      </trkpt>
      <trkpt lat="45.90813" lon="6.49591">
        <ele>2040.4000244141</ele>
        <time>2014-02-12T09:00:20.000Z</time>
      </trkpt>
      <trkpt lat="45.90813" lon="6.49593">
        <ele>2040.8000488281</ele>
        <time>2014-02-12T09:00:21.000Z</time>
      </trkpt>
      <trkpt lat="45.90813" lon="6.49593">
        <ele>2040.8000488281</ele>
        <time>2014-02-12T09:00:22.000Z</time>
      </trkpt>
      <trkpt lat="45.90813" lon="6.49594">
        <ele>2041.1999511719</ele>
        <time>2014-02-12T09:00:23.000Z</time>
      </trkpt>
      <trkpt lat="45.90813" lon="6.49594">
        <ele>2041.1999511719</ele>
        <time>2014-02-12T09:00:24.000Z</time>
      </trkpt>
      <trkpt lat="45.90813" lon="6.49596">
        <ele>2041.4000244141</ele>
        <time>2014-02-12T09:00:25.000Z</time>
      </trkpt>
      <trkpt lat="45.90813" lon="6.49597">
        <ele>2041.5999755859</ele>
        <time>2014-02-12T09:00:26.000Z</time>
      </trkpt>
      <trkpt lat="45.90813" lon="6.49598">
        <ele>2042.1999511719</ele>
        <time>2014-02-12T09:00:27.000Z</time>
      </trkpt>
      <trkpt lat="45.90813" lon="6.49601">
        <ele>2042.8000488281</ele>
        <time>2014-02-12T09:00:28.000Z</time>
      </trkpt>
      <trkpt lat="45.90813" lon="6.49602">
        <ele>2043.1999511719</ele>
        <time>2014-02-12T09:00:29.000Z</time>
      </trkpt>
      <trkpt lat="45.90813" lon="6.49602">
        <ele>2043.1999511719</ele>
        <time>2014-02-12T09:00:30.000Z</time>
      </trkpt>
      <trkpt lat="45.90813" lon="6.49603">
        <ele>2043.1999511719</ele>
        <time>2014-02-12T09:00:31.000Z</time>
      </trkpt>
      <trkpt lat="45.90814" lon="6.49604">
        <ele>2043.4000244141</ele>
        <time>2014-02-12T09:00:32.000Z</time>
      </trkpt>
      <trkpt lat="45.90814" lon="6.49605">
        <ele>2043.4000244141</ele>
        <time>2014-02-12T09:00:33.000Z</time>
      </trkpt>
      <trkpt lat="45.90814" lon="6.49605">
        <ele>2043.4000244141</ele>
        <time>2014-02-12T09:00:34.000Z</time>
      </trkpt>
      <trkpt lat="45.90814" lon="6.49605">
        <ele>2043.4000244141</ele>
        <time>2014-02-12T09:00:35.000Z</time>
      </trkpt>
      <trkpt lat="45.90814" lon="6.49605">
        <ele>2043.4000244141</ele>
        <time>2014-02-12T09:00:36.000Z</time>
      </trkpt>
      <trkpt lat="45.90814" lon="6.49605">
        <ele>2043.4000244141</ele>
        <time>2014-02-12T09:00:37.000Z</time>
      </trkpt>
      <trkpt lat="45.90814" lon="6.49605">
        <ele>2043.4000244141</ele>
        <time>2014-02-12T09:00:38.000Z</time>
      </trkpt>
      <trkpt lat="45.90814" lon="6.49605">
        <ele>2043.4000244141</ele>
        <time>2014-02-12T09:00:39.000Z</time>
      </trkpt>
      <trkpt lat="45.90814" lon="6.49605">
        <ele>2043.4000244141</ele>
        <time>2014-02-12T09:00:40.000Z</time>
      </trkpt>
      <trkpt lat="45.90813" lon="6.49605">
        <ele>2043.8000488281</ele>
        <time>2014-02-12T09:00:41.000Z</time>
      </trkpt>
      <trkpt lat="45.90813" lon="6.49605">
        <ele>2044</ele>
        <time>2014-02-12T09:00:42.000Z</time>
      </trkpt>
      <trkpt lat="45.90812" lon="6.49604">
        <ele>2044.1999511719</ele>
        <time>2014-02-12T09:00:43.000Z</time>
      </trkpt>
      <trkpt lat="45.90811" lon="6.49604">
        <ele>2044.4000244141</ele>
        <time>2014-02-12T09:00:44.000Z</time>
      </trkpt>
      <trkpt lat="45.90811" lon="6.49604">
        <ele>2044.4000244141</ele>
        <time>2014-02-12T09:00:45.000Z</time>
      </trkpt>
      <trkpt lat="45.90811" lon="6.49604">
        <ele>2044.4000244141</ele>
        <time>2014-02-12T09:00:46.000Z</time>
      </trkpt>
      <trkpt lat="45.90811" lon="6.49604">
        <ele>2044.4000244141</ele>
        <time>2014-02-12T09:00:47.000Z</time>
      </trkpt>
      <trkpt lat="45.90811" lon="6.49604">
        <ele>2044.4000244141</ele>
        <time>2014-02-12T09:00:48.000Z</time>
      </trkpt>
      <trkpt lat="45.90811" lon="6.49604">
        <ele>2044.4000244141</ele>
        <time>2014-02-12T09:00:49.000Z</time>
      </trkpt>
      <trkpt lat="45.90811" lon="6.49604">
        <ele>2044.4000244141</ele>
        <time>2014-02-12T09:00:50.000Z</time>
      </trkpt>
      <trkpt lat="45.90811" lon="6.49604">
        <ele>2044.4000244141</ele>
        <time>2014-02-12T09:00:51.000Z</time>
      </trkpt>
      <trkpt lat="45.90811" lon="6.49604">
        <ele>2044.4000244141</ele>
        <time>2014-02-12T09:00:52.000Z</time>
      </trkpt>
      <trkpt lat="45.90811" lon="6.49604">
        <ele>2044.4000244141</ele>
        <time>2014-02-12T09:00:53.000Z</time>
      </trkpt>
      <trkpt lat="45.90811" lon="6.49604">
        <ele>2044.4000244141</ele>
        <time>2014-02-12T09:00:54.000Z</time>
      </trkpt>
      <trkpt lat="45.90811" lon="6.49604">
        <ele>2044.4000244141</ele>
        <time>2014-02-12T09:00:55.000Z</time>
      </trkpt>
      <trkpt lat="45.90811" lon="6.49604">
        <ele>2044.4000244141</ele>
        <time>2014-02-12T09:00:56.000Z</time>
      </trkpt>
      <trkpt lat="45.90811" lon="6.49604">
        <ele>2044.4000244141</ele>
        <time>2014-02-12T09:00:57.000Z</time>
      </trkpt>
      <trkpt lat="45.90811" lon="6.49604">
        <ele>2044.4000244141</ele>
        <time>2014-02-12T09:00:58.000Z</time>
      </trkpt>
      <trkpt lat="45.90811" lon="6.49604">
        <ele>2044.4000244141</ele>
        <time>2014-02-12T09:00:59.000Z</time>
      </trkpt>
      <trkpt lat="45.9081" lon="6.49603">
        <ele>2044.8000488281</ele>
        <time>2014-02-12T09:01:00.000Z</time>
      </trkpt>
      <trkpt lat="45.90809" lon="6.49603">
        <ele>2045.1999511719</ele>
        <time>2014-02-12T09:01:01.000Z</time>
      </trkpt>
      <trkpt lat="45.90807" lon="6.49603">
        <ele>2045.8000488281</ele>
        <time>2014-02-12T09:01:02.000Z</time>
      </trkpt>
      <trkpt lat="45.90806" lon="6.49602">
        <ele>2046</ele>
        <time>2014-02-12T09:01:03.000Z</time>
      </trkpt>
      <trkpt lat="45.90805" lon="6.49602">
        <ele>2046.4000244141</ele>
        <time>2014-02-12T09:01:04.000Z</time>
      </trkpt>
      <trkpt lat="45.90804" lon="6.49601">
        <ele>2046.5999755859</ele>
        <time>2014-02-12T09:01:05.000Z</time>
      </trkpt>
      <trkpt lat="45.90803" lon="6.496">
        <ele>2046.8000488281</ele>
        <time>2014-02-12T09:01:06.000Z</time>
      </trkpt>
      <trkpt lat="45.90802" lon="6.496">
        <ele>2047</ele>
        <time>2014-02-12T09:01:07.000Z</time>
      </trkpt>
      <trkpt lat="45.90802" lon="6.49599">
        <ele>2047.1999511719</ele>
        <time>2014-02-12T09:01:08.000Z</time>
      </trkpt>
      <trkpt lat="45.90801" lon="6.49599">
        <ele>2047.5999755859</ele>
        <time>2014-02-12T09:01:09.000Z</time>
      </trkpt>
      <trkpt lat="45.908" lon="6.49598">
        <ele>2047.5999755859</ele>
        <time>2014-02-12T09:01:10.000Z</time>
      </trkpt>
      <trkpt lat="45.908" lon="6.49598">
        <ele>2047.8000488281</ele>
        <time>2014-02-12T09:01:11.000Z</time>
      </trkpt>
      <trkpt lat="45.90799" lon="6.49597">
        <ele>2047.8000488281</ele>
        <time>2014-02-12T09:01:12.000Z</time>
      </trkpt>
      <trkpt lat="45.90799" lon="6.49597">
        <ele>2047.8000488281</ele>
        <time>2014-02-12T09:01:13.000Z</time>
      </trkpt>
      <trkpt lat="45.90799" lon="6.49597">
        <ele>2047.8000488281</ele>
        <time>2014-02-12T09:01:14.000Z</time>
      </trkpt>
      <trkpt lat="45.90798" lon="6.49597">
        <ele>2048</ele>
        <time>2014-02-12T09:01:15.000Z</time>
      </trkpt>
      <trkpt lat="45.90798" lon="6.49597">
        <ele>2048</ele>
        <time>2014-02-12T09:01:16.000Z</time>
      </trkpt>
      <trkpt lat="45.90798" lon="6.49597">
        <ele>2048</ele>
        <time>2014-02-12T09:01:17.000Z</time>
      </trkpt>
      <trkpt lat="45.90797" lon="6.49597">
        <ele>2048.3999023438</ele>
        <time>2014-02-12T09:01:18.000Z</time>
      </trkpt>
      <trkpt lat="45.90797" lon="6.49597">
        <ele>2048.6000976562</ele>
        <time>2014-02-12T09:01:19.000Z</time>
      </trkpt>
      <trkpt lat="45.90797" lon="6.49597">
        <ele>2048.6000976562</ele>
        <time>2014-02-12T09:01:20.000Z</time>
      </trkpt>
      <trkpt lat="45.90796" lon="6.49596">
        <ele>2048.6000976562</ele>
        <time>2014-02-12T09:01:21.000Z</time>
      </trkpt>
      <trkpt lat="45.90796" lon="6.49596">
        <ele>2048.8000488281</ele>
        <time>2014-02-12T09:01:22.000Z</time>
      </trkpt>
      <trkpt lat="45.90796" lon="6.49596">
        <ele>2048.8000488281</ele>
        <time>2014-02-12T09:01:23.000Z</time>
      </trkpt>
      <trkpt lat="45.90796" lon="6.49596">
        <ele>2049</ele>
        <time>2014-02-12T09:01:24.000Z</time>
      </trkpt>
      <trkpt lat="45.90796" lon="6.49596">
        <ele>2049</ele>
        <time>2014-02-12T09:01:25.000Z</time>
      </trkpt>
      <trkpt lat="45.90795" lon="6.49597">
        <ele>2049.3999023438</ele>
        <time>2014-02-12T09:01:26.000Z</time>
      </trkpt>
      <trkpt lat="45.90795" lon="6.49598">
        <ele>2049.8000488281</ele>
        <time>2014-02-12T09:01:27.000Z</time>
      </trkpt>
      <trkpt lat="45.90795" lon="6.49599">
        <ele>2050</ele>
        <time>2014-02-12T09:01:28.000Z</time>
      </trkpt>
      <trkpt lat="45.90795" lon="6.49601">
        <ele>2050.6000976562</ele>
        <time>2014-02-12T09:01:29.000Z</time>
      </trkpt>
      <trkpt lat="45.90795" lon="6.49601">
        <ele>2050.6000976562</ele>
        <time>2014-02-12T09:01:30.000Z</time>
      </trkpt>
      <trkpt lat="45.90794" lon="6.49601">
        <ele>2051</ele>
        <time>2014-02-12T09:01:31.000Z</time>
      </trkpt>
      <trkpt lat="45.90794" lon="6.49602">
        <ele>2051.3999023438</ele>
        <time>2014-02-12T09:01:32.000Z</time>
      </trkpt>
      <trkpt lat="45.90793" lon="6.49603">
        <ele>2052</ele>
        <time>2014-02-12T09:01:33.000Z</time>
      </trkpt>
      <trkpt lat="45.90793" lon="6.49604">
        <ele>2052.3999023438</ele>
        <time>2014-02-12T09:01:34.000Z</time>
      </trkpt>
      <trkpt lat="45.90792" lon="6.49607">
        <ele>2053.3999023438</ele>
        <time>2014-02-12T09:01:35.000Z</time>
      </trkpt>
      <trkpt lat="45.90792" lon="6.49607">
        <ele>2053.3999023438</ele>
        <time>2014-02-12T09:01:36.000Z</time>
      </trkpt>
      <trkpt lat="45.90792" lon="6.49608">
        <ele>2054</ele>
        <time>2014-02-12T09:01:37.000Z</time>
      </trkpt>
      <trkpt lat="45.90792" lon="6.49609">
        <ele>2054.3999023438</ele>
        <time>2014-02-12T09:01:38.000Z</time>
      </trkpt>
      <trkpt lat="45.90791" lon="6.4961">
        <ele>2054.8000488281</ele>
        <time>2014-02-12T09:01:39.000Z</time>
      </trkpt>
      <trkpt lat="45.90791" lon="6.49612">
        <ele>2055.1999511719</ele>
        <time>2014-02-12T09:01:40.000Z</time>
      </trkpt>
      <trkpt lat="45.90791" lon="6.49612">
        <ele>2055.6000976562</ele>
        <time>2014-02-12T09:01:41.000Z</time>
      </trkpt>
      <trkpt lat="45.9079" lon="6.49613">
        <ele>2055.8000488281</ele>
        <time>2014-02-12T09:01:42.000Z</time>
      </trkpt>
      <trkpt lat="45.9079" lon="6.49613">
        <ele>2055.8000488281</ele>
        <time>2014-02-12T09:01:43.000Z</time>
      </trkpt>
      <trkpt lat="45.9079" lon="6.49613">
        <ele>2056</ele>
        <time>2014-02-12T09:01:44.000Z</time>
      </trkpt>
      <trkpt lat="45.9079" lon="6.49613">
        <ele>2056</ele>
        <time>2014-02-12T09:01:45.000Z</time>
      </trkpt>
      <trkpt lat="45.90791" lon="6.49614">
        <ele>2056</ele>
        <time>2014-02-12T09:01:46.000Z</time>
      </trkpt>
      <trkpt lat="45.90791" lon="6.49615">
        <ele>2056</ele>
        <time>2014-02-12T09:01:47.000Z</time>
      </trkpt>
      <trkpt lat="45.90791" lon="6.49615">
        <ele>2056.1999511719</ele>
        <time>2014-02-12T09:01:48.000Z</time>
      </trkpt>
      <trkpt lat="45.90792" lon="6.49616">
        <ele>2056.1999511719</ele>
        <time>2014-02-12T09:01:49.000Z</time>
      </trkpt>
      <trkpt lat="45.90792" lon="6.49617">
        <ele>2056.1999511719</ele>
        <time>2014-02-12T09:01:50.000Z</time>
      </trkpt>
      <trkpt lat="45.90792" lon="6.49617">
        <ele>2056.1999511719</ele>
        <time>2014-02-12T09:01:51.000Z</time>
      </trkpt>
      <trkpt lat="45.90792" lon="6.49618">
        <ele>2056.3999023438</ele>
        <time>2014-02-12T09:01:52.000Z</time>
      </trkpt>
      <trkpt lat="45.90793" lon="6.49618">
        <ele>2056.3999023438</ele>
        <time>2014-02-12T09:01:53.000Z</time>
      </trkpt>
      <trkpt lat="45.90793" lon="6.49619">
        <ele>2056.3999023438</ele>
        <time>2014-02-12T09:01:54.000Z</time>
      </trkpt>
      <trkpt lat="45.90793" lon="6.49619">
        <ele>2056.3999023438</ele>
        <time>2014-02-12T09:01:55.000Z</time>
      </trkpt>
      <trkpt lat="45.90793" lon="6.49619">
        <ele>2056.6000976562</ele>
        <time>2014-02-12T09:01:56.000Z</time>
      </trkpt>
      <trkpt lat="45.90793" lon="6.49619">
        <ele>2056.6000976562</ele>
        <time>2014-02-12T09:01:57.000Z</time>
      </trkpt>
      <trkpt lat="45.90793" lon="6.49621">
        <ele>2056.8000488281</ele>
        <time>2014-02-12T09:01:58.000Z</time>
      </trkpt>
      <trkpt lat="45.90793" lon="6.49622">
        <ele>2057</ele>
        <time>2014-02-12T09:01:59.000Z</time>
      </trkpt>
      <trkpt lat="45.90793" lon="6.49623">
        <ele>2057.3999023438</ele>
        <time>2014-02-12T09:02:00.000Z</time>
      </trkpt>
      <trkpt lat="45.90793" lon="6.49623">
        <ele>2057.3999023438</ele>
        <time>2014-02-12T09:02:01.000Z</time>
      </trkpt>
      <trkpt lat="45.90794" lon="6.49624">
        <ele>2057.8000488281</ele>
        <time>2014-02-12T09:02:02.000Z</time>
      </trkpt>
      <trkpt lat="45.90794" lon="6.49626">
        <ele>2058</ele>
        <time>2014-02-12T09:02:03.000Z</time>
      </trkpt>
      <trkpt lat="45.90794" lon="6.49626">
        <ele>2058.1999511719</ele>
        <time>2014-02-12T09:02:04.000Z</time>
      </trkpt>
      <trkpt lat="45.90794" lon="6.49628">
        <ele>2058.6000976562</ele>
        <time>2014-02-12T09:02:05.000Z</time>
      </trkpt>
      <trkpt lat="45.90794" lon="6.49628">
        <ele>2058.6000976562</ele>
        <time>2014-02-12T09:02:06.000Z</time>
      </trkpt>
      <trkpt lat="45.90793" lon="6.49629">
        <ele>2059</ele>
        <time>2014-02-12T09:02:07.000Z</time>
      </trkpt>
      <trkpt lat="45.90794" lon="6.4963">
        <ele>2059.1999511719</ele>
        <time>2014-02-12T09:02:08.000Z</time>
      </trkpt>
      <trkpt lat="45.90794" lon="6.4963">
        <ele>2059.3999023438</ele>
        <time>2014-02-12T09:02:09.000Z</time>
      </trkpt>
      <trkpt lat="45.90794" lon="6.49631">
        <ele>2059.3999023438</ele>
        <time>2014-02-12T09:02:10.000Z</time>
      </trkpt>
      <trkpt lat="45.90794" lon="6.49632">
        <ele>2059.6000976562</ele>
        <time>2014-02-12T09:02:11.000Z</time>
      </trkpt>
      <trkpt lat="45.90794" lon="6.49633">
        <ele>2059.6000976562</ele>
        <time>2014-02-12T09:02:12.000Z</time>
      </trkpt>
      <trkpt lat="45.90794" lon="6.49633">
        <ele>2059.8000488281</ele>
        <time>2014-02-12T09:02:13.000Z</time>
      </trkpt>
      <trkpt lat="45.90795" lon="6.49635">
        <ele>2060</ele>
        <time>2014-02-12T09:02:15.000Z</time>
      </trkpt>
      <trkpt lat="45.90795" lon="6.49635">
        <ele>2060.1999511719</ele>
        <time>2014-02-12T09:02:16.000Z</time>
      </trkpt>
      <trkpt lat="45.90795" lon="6.49636">
        <ele>2060.1999511719</ele>
        <time>2014-02-12T09:02:17.000Z</time>
      </trkpt>
      <trkpt lat="45.90795" lon="6.49636">
        <ele>2060.1999511719</ele>
        <time>2014-02-12T09:02:18.000Z</time>
      </trkpt>
      <trkpt lat="45.90795" lon="6.49637">
        <ele>2060.3999023438</ele>
        <time>2014-02-12T09:02:19.000Z</time>
      </trkpt>
      <trkpt lat="45.90796" lon="6.49638">
        <ele>2060.6000976562</ele>
        <time>2014-02-12T09:02:20.000Z</time>
      </trkpt>
      <trkpt lat="45.90796" lon="6.49639">
        <ele>2060.8000488281</ele>
        <time>2014-02-12T09:02:21.000Z</time>
      </trkpt>
      <trkpt lat="45.90796" lon="6.49641">
        <ele>2061</ele>
        <time>2014-02-12T09:02:22.000Z</time>
      </trkpt>
      <trkpt lat="45.90796" lon="6.49642">
        <ele>2061</ele>
        <time>2014-02-12T09:02:23.000Z</time>
      </trkpt>
      <trkpt lat="45.90796" lon="6.49642">
        <ele>2061</ele>
        <time>2014-02-12T09:02:24.000Z</time>
      </trkpt>
      <trkpt lat="45.90796" lon="6.49642">
        <ele>2061.1999511719</ele>
        <time>2014-02-12T09:02:25.000Z</time>
      </trkpt>
      <trkpt lat="45.90796" lon="6.49642">
        <ele>2061.1999511719</ele>
        <time>2014-02-12T09:02:26.000Z</time>
      </trkpt>
      <trkpt lat="45.90796" lon="6.49643">
        <ele>2061.3999023438</ele>
        <time>2014-02-12T09:02:27.000Z</time>
      </trkpt>
      <trkpt lat="45.90796" lon="6.49643">
        <ele>2061.3999023438</ele>
        <time>2014-02-12T09:02:28.000Z</time>
      </trkpt>
      <trkpt lat="45.90796" lon="6.49643">
        <ele>2061.3999023438</ele>
        <time>2014-02-12T09:02:29.000Z</time>
      </trkpt>
      <trkpt lat="45.90796" lon="6.49643">
        <ele>2061.3999023438</ele>
        <time>2014-02-12T09:02:30.000Z</time>
      </trkpt>
      <trkpt lat="45.90796" lon="6.49643">
        <ele>2061.3999023438</ele>
        <time>2014-02-12T09:02:31.000Z</time>
      </trkpt>
      <trkpt lat="45.90796" lon="6.49643">
        <ele>2061.3999023438</ele>
        <time>2014-02-12T09:02:32.000Z</time>
      </trkpt>
      <trkpt lat="45.90796" lon="6.49643">
        <ele>2061.3999023438</ele>
        <time>2014-02-12T09:02:34.000Z</time>
      </trkpt>
      <trkpt lat="45.90796" lon="6.49643">
        <ele>2061.3999023438</ele>
        <time>2014-02-12T09:02:35.000Z</time>
      </trkpt>
      <trkpt lat="45.90796" lon="6.49643">
        <ele>2061.3999023438</ele>
        <time>2014-02-12T09:02:36.000Z</time>
      </trkpt>
      <trkpt lat="45.90796" lon="6.49643">
        <ele>2061.3999023438</ele>
        <time>2014-02-12T09:02:37.000Z</time>
      </trkpt>
      <trkpt lat="45.90796" lon="6.49643">
        <ele>2061.3999023438</ele>
        <time>2014-02-12T09:02:38.000Z</time>
      </trkpt>
      <trkpt lat="45.90796" lon="6.49643">
        <ele>2061.3999023438</ele>
        <time>2014-02-12T09:02:39.000Z</time>
      </trkpt>
      <trkpt lat="45.90796" lon="6.49643">
        <ele>2061.3999023438</ele>
        <time>2014-02-12T09:02:40.000Z</time>
      </trkpt>
      <trkpt lat="45.90796" lon="6.49643">
        <ele>2061.3999023438</ele>
        <time>2014-02-12T09:02:41.000Z</time>
      </trkpt>
      <trkpt lat="45.90796" lon="6.49643">
        <ele>2061.3999023438</ele>
        <time>2014-02-12T09:02:42.000Z</time>
      </trkpt>
      <trkpt lat="45.90796" lon="6.49643">
        <ele>2061.3999023438</ele>
        <time>2014-02-12T09:02:43.000Z</time>
      </trkpt>
      <trkpt lat="45.90796" lon="6.49643">
        <ele>2061.3999023438</ele>
        <time>2014-02-12T09:02:44.000Z</time>
      </trkpt>
      <trkpt lat="45.90796" lon="6.49643">
        <ele>2061.3999023438</ele>
        <time>2014-02-12T09:02:45.000Z</time>
      </trkpt>
      <trkpt lat="45.90796" lon="6.49643">
        <ele>2061.3999023438</ele>
        <time>2014-02-12T09:02:46.000Z</time>
      </trkpt>
      <trkpt lat="45.90796" lon="6.49643">
        <ele>2061.3999023438</ele>
        <time>2014-02-12T09:02:47.000Z</time>
      </trkpt>
      <trkpt lat="45.90796" lon="6.49643">
        <ele>2061.3999023438</ele>
        <time>2014-02-12T09:02:48.000Z</time>
      </trkpt>
      <trkpt lat="45.90796" lon="6.49643">
        <ele>2061.3999023438</ele>
        <time>2014-02-12T09:02:49.000Z</time>
      </trkpt>
      <trkpt lat="45.90796" lon="6.49643">
        <ele>2061.3999023438</ele>
        <time>2014-02-12T09:02:50.000Z</time>
      </trkpt>
      <trkpt lat="45.90796" lon="6.49643">
        <ele>2061.3999023438</ele>
        <time>2014-02-12T09:02:51.000Z</time>
      </trkpt>
      <trkpt lat="45.90795" lon="6.49644">
        <ele>2061.6000976562</ele>
        <time>2014-02-12T09:02:52.000Z</time>
      </trkpt>
      <trkpt lat="45.90794" lon="6.49644">
        <ele>2062</ele>
        <time>2014-02-12T09:02:53.000Z</time>
      </trkpt>
      <trkpt lat="45.90793" lon="6.49644">
        <ele>2062.1999511719</ele>
        <time>2014-02-12T09:02:54.000Z</time>
      </trkpt>
      <trkpt lat="45.90792" lon="6.49644">
        <ele>2062.3999023438</ele>
        <time>2014-02-12T09:02:55.000Z</time>
      </trkpt>
      <trkpt lat="45.90792" lon="6.49644">
        <ele>2062.6000976562</ele>
        <time>2014-02-12T09:02:56.000Z</time>
      </trkpt>
      <trkpt lat="45.9079" lon="6.49644">
        <ele>2063</ele>
        <time>2014-02-12T09:02:57.000Z</time>
      </trkpt>
      <trkpt lat="45.9079" lon="6.49644">
        <ele>2063.1999511719</ele>
        <time>2014-02-12T09:02:58.000Z</time>
      </trkpt>
      <trkpt lat="45.90789" lon="6.49644">
        <ele>2063.3999023438</ele>
        <time>2014-02-12T09:02:59.000Z</time>
      </trkpt>
      <trkpt lat="45.90788" lon="6.49644">
        <ele>2063.6000976562</ele>
        <time>2014-02-12T09:03:00.000Z</time>
      </trkpt>
      <trkpt lat="45.90787" lon="6.49644">
        <ele>2064.1999511719</ele>
        <time>2014-02-12T09:03:01.000Z</time>
      </trkpt>
      <trkpt lat="45.90786" lon="6.49645">
        <ele>2064.1999511719</ele>
        <time>2014-02-12T09:03:02.000Z</time>
      </trkpt>
      <trkpt lat="45.90784" lon="6.49645">
        <ele>2064.8000488281</ele>
        <time>2014-02-12T09:03:03.000Z</time>
      </trkpt>
      <trkpt lat="45.90784" lon="6.49645">
        <ele>2064.8000488281</ele>
        <time>2014-02-12T09:03:04.000Z</time>
      </trkpt>
      <trkpt lat="45.90783" lon="6.49645">
        <ele>2065.3999023438</ele>
        <time>2014-02-12T09:03:05.000Z</time>
      </trkpt>
      <trkpt lat="45.90782" lon="6.49645">
        <ele>2065.3999023438</ele>
        <time>2014-02-12T09:03:06.000Z</time>
      </trkpt>
      <trkpt lat="45.9078" lon="6.49645">
        <ele>2066</ele>
        <time>2014-02-12T09:03:07.000Z</time>
      </trkpt>
      <trkpt lat="45.90781" lon="6.49644">
        <ele>2065.8000488281</ele>
        <time>2014-02-12T09:03:08.000Z</time>
      </trkpt>
      <trkpt lat="45.90779" lon="6.49644">
        <ele>2066.3999023438</ele>
        <time>2014-02-12T09:03:09.000Z</time>
      </trkpt>
      <trkpt lat="45.90779" lon="6.49644">
        <ele>2066.3999023438</ele>
        <time>2014-02-12T09:03:10.000Z</time>
      </trkpt>
      <trkpt lat="45.90778" lon="6.49644">
        <ele>2066.3999023438</ele>
        <time>2014-02-12T09:03:11.000Z</time>
      </trkpt>
      <trkpt lat="45.90778" lon="6.49644">
        <ele>2066.6000976562</ele>
        <time>2014-02-12T09:03:12.000Z</time>
      </trkpt>
      <trkpt lat="45.90778" lon="6.49644">
        <ele>2066.6000976562</ele>
        <time>2014-02-12T09:03:13.000Z</time>
      </trkpt>
      <trkpt lat="45.90778" lon="6.49644">
        <ele>2066.6000976562</ele>
        <time>2014-02-12T09:03:14.000Z</time>
      </trkpt>
      <trkpt lat="45.90778" lon="6.49644">
        <ele>2066.6000976562</ele>
        <time>2014-02-12T09:03:15.000Z</time>
      </trkpt>
      <trkpt lat="45.90778" lon="6.49644">
        <ele>2066.6000976562</ele>
        <time>2014-02-12T09:03:16.000Z</time>
      </trkpt>
      <trkpt lat="45.90778" lon="6.49644">
        <ele>2066.6000976562</ele>
        <time>2014-02-12T09:03:17.000Z</time>
      </trkpt>
      <trkpt lat="45.90778" lon="6.49644">
        <ele>2066.6000976562</ele>
        <time>2014-02-12T09:03:18.000Z</time>
      </trkpt>
      <trkpt lat="45.90777" lon="6.49644">
        <ele>2066.8000488281</ele>
        <time>2014-02-12T09:03:21.000Z</time>
      </trkpt>
      <trkpt lat="45.90775" lon="6.49644">
        <ele>2067.1999511719</ele>
        <time>2014-02-12T09:03:22.000Z</time>
      </trkpt>
      <trkpt lat="45.90776" lon="6.49644">
        <ele>2067.1999511719</ele>
        <time>2014-02-12T09:03:23.000Z</time>
      </trkpt>
      <trkpt lat="45.90774" lon="6.49644">
        <ele>2067.6000976562</ele>
        <time>2014-02-12T09:03:24.000Z</time>
      </trkpt>
      <trkpt lat="45.90774" lon="6.49644">
        <ele>2067.6000976562</ele>
        <time>2014-02-12T09:03:25.000Z</time>
      </trkpt>
      <trkpt lat="45.90772" lon="6.49644">
        <ele>2068.1999511719</ele>
        <time>2014-02-12T09:03:26.000Z</time>
      </trkpt>
      <trkpt lat="45.90773" lon="6.49644">
        <ele>2068</ele>
        <time>2014-02-12T09:03:27.000Z</time>
      </trkpt>
      <trkpt lat="45.90771" lon="6.49644">
        <ele>2068.6000976562</ele>
        <time>2014-02-12T09:03:28.000Z</time>
      </trkpt>
      <trkpt lat="45.90771" lon="6.49644">
        <ele>2068.3999023438</ele>
        <time>2014-02-12T09:03:29.000Z</time>
      </trkpt>
      <trkpt lat="45.9077" lon="6.49644">
        <ele>2068.8000488281</ele>
        <time>2014-02-12T09:03:30.000Z</time>
      </trkpt>
      <trkpt lat="45.9077" lon="6.49644">
        <ele>2068.8000488281</ele>
        <time>2014-02-12T09:03:31.000Z</time>
      </trkpt>
      <trkpt lat="45.90768" lon="6.49644">
        <ele>2069.1999511719</ele>
        <time>2014-02-12T09:03:32.000Z</time>
      </trkpt>
      <trkpt lat="45.90769" lon="6.49644">
        <ele>2069.1999511719</ele>
        <time>2014-02-12T09:03:33.000Z</time>
      </trkpt>
      <trkpt lat="45.90768" lon="6.49644">
        <ele>2069.1999511719</ele>
        <time>2014-02-12T09:03:34.000Z</time>
      </trkpt>
      <trkpt lat="45.90768" lon="6.49644">
        <ele>2069.3999023438</ele>
        <time>2014-02-12T09:03:35.000Z</time>
      </trkpt>
      <trkpt lat="45.90767" lon="6.49644">
        <ele>2069.6000976562</ele>
        <time>2014-02-12T09:03:36.000Z</time>
      </trkpt>
      <trkpt lat="45.90767" lon="6.49645">
        <ele>2069.8000488281</ele>
        <time>2014-02-12T09:03:37.000Z</time>
      </trkpt>
      <trkpt lat="45.90767" lon="6.49645">
        <ele>2070</ele>
        <time>2014-02-12T09:03:38.000Z</time>
      </trkpt>
      <trkpt lat="45.90766" lon="6.49645">
        <ele>2070.1999511719</ele>
        <time>2014-02-12T09:03:39.000Z</time>
      </trkpt>
      <trkpt lat="45.90765" lon="6.49645">
        <ele>2070.3999023438</ele>
        <time>2014-02-12T09:03:40.000Z</time>
      </trkpt>
      <trkpt lat="45.90765" lon="6.49645">
        <ele>2070.6000976562</ele>
        <time>2014-02-12T09:03:41.000Z</time>
      </trkpt>
      <trkpt lat="45.90764" lon="6.49645">
        <ele>2070.8000488281</ele>
        <time>2014-02-12T09:03:42.000Z</time>
      </trkpt>
      <trkpt lat="45.90763" lon="6.49645">
        <ele>2071</ele>
        <time>2014-02-12T09:03:43.000Z</time>
      </trkpt>
      <trkpt lat="45.90763" lon="6.49646">
        <ele>2071.1999511719</ele>
        <time>2014-02-12T09:03:44.000Z</time>
      </trkpt>
      <trkpt lat="45.90761" lon="6.49646">
        <ele>2071.6000976562</ele>
        <time>2014-02-12T09:03:45.000Z</time>
      </trkpt>
      <trkpt lat="45.90762" lon="6.49646">
        <ele>2071.6000976562</ele>
        <time>2014-02-12T09:03:46.000Z</time>
      </trkpt>
      <trkpt lat="45.90761" lon="6.49646">
        <ele>2071.8000488281</ele>
        <time>2014-02-12T09:03:47.000Z</time>
      </trkpt>
      <trkpt lat="45.90761" lon="6.49646">
        <ele>2071.8000488281</ele>
        <time>2014-02-12T09:03:48.000Z</time>
      </trkpt>
      <trkpt lat="45.90759" lon="6.49647">
        <ele>2072.1999511719</ele>
        <time>2014-02-12T09:03:49.000Z</time>
      </trkpt>
      <trkpt lat="45.90759" lon="6.49646">
        <ele>2072.1999511719</ele>
        <time>2014-02-12T09:03:50.000Z</time>
      </trkpt>
      <trkpt lat="45.90758" lon="6.49646">
        <ele>2072.8000488281</ele>
        <time>2014-02-12T09:03:51.000Z</time>
      </trkpt>
      <trkpt lat="45.90758" lon="6.49646">
        <ele>2072.6000976562</ele>
        <time>2014-02-12T09:03:52.000Z</time>
      </trkpt>
      <trkpt lat="45.90756" lon="6.49647">
        <ele>2073.1999511719</ele>
        <time>2014-02-12T09:03:53.000Z</time>
      </trkpt>
      <trkpt lat="45.90757" lon="6.49647">
        <ele>2073</ele>
        <time>2014-02-12T09:03:54.000Z</time>
      </trkpt>
      <trkpt lat="45.90755" lon="6.49647">
        <ele>2073.3999023438</ele>
        <time>2014-02-12T09:03:55.000Z</time>
      </trkpt>
      <trkpt lat="45.90756" lon="6.49647">
        <ele>2073.3999023438</ele>
        <time>2014-02-12T09:03:56.000Z</time>
      </trkpt>
      <trkpt lat="45.90755" lon="6.49648">
        <ele>2073.6000976562</ele>
        <time>2014-02-12T09:03:57.000Z</time>
      </trkpt>
      <trkpt lat="45.90755" lon="6.49648">
        <ele>2073.8000488281</ele>
        <time>2014-02-12T09:03:58.000Z</time>
      </trkpt>
      <trkpt lat="45.90755" lon="6.49648">
        <ele>2073.8000488281</ele>
        <time>2014-02-12T09:03:59.000Z</time>
      </trkpt>
      <trkpt lat="45.90754" lon="6.49648">
        <ele>2074</ele>
        <time>2014-02-12T09:04:00.000Z</time>
      </trkpt>
      <trkpt lat="45.90754" lon="6.49648">
        <ele>2074.1999511719</ele>
        <time>2014-02-12T09:04:01.000Z</time>
      </trkpt>
      <trkpt lat="45.90753" lon="6.49649">
        <ele>2074.3999023438</ele>
        <time>2014-02-12T09:04:02.000Z</time>
      </trkpt>
      <trkpt lat="45.90752" lon="6.49649">
        <ele>2074.6000976562</ele>
        <time>2014-02-12T09:04:03.000Z</time>
      </trkpt>
      <trkpt lat="45.90752" lon="6.49649">
        <ele>2074.6000976562</ele>
        <time>2014-02-12T09:04:04.000Z</time>
      </trkpt>
      <trkpt lat="45.90752" lon="6.49649">
        <ele>2074.6000976562</ele>
        <time>2014-02-12T09:04:05.000Z</time>
      </trkpt>
      <trkpt lat="45.90752" lon="6.49649">
        <ele>2074.8000488281</ele>
        <time>2014-02-12T09:04:06.000Z</time>
      </trkpt>
      <trkpt lat="45.90752" lon="6.49649">
        <ele>2074.8000488281</ele>
        <time>2014-02-12T09:04:07.000Z</time>
      </trkpt>
      <trkpt lat="45.90751" lon="6.4965">
        <ele>2075</ele>
        <time>2014-02-12T09:04:08.000Z</time>
      </trkpt>
      <trkpt lat="45.9075" lon="6.49649">
        <ele>2075.3999023438</ele>
        <time>2014-02-12T09:04:09.000Z</time>
      </trkpt>
      <trkpt lat="45.9075" lon="6.4965">
        <ele>2075.3999023438</ele>
        <time>2014-02-12T09:04:10.000Z</time>
      </trkpt>
      <trkpt lat="45.90749" lon="6.4965">
        <ele>2075.6000976562</ele>
        <time>2014-02-12T09:04:11.000Z</time>
      </trkpt>
      <trkpt lat="45.90749" lon="6.4965">
        <ele>2075.8000488281</ele>
        <time>2014-02-12T09:04:12.000Z</time>
      </trkpt>
      <trkpt lat="45.90749" lon="6.4965">
        <ele>2075.8000488281</ele>
        <time>2014-02-12T09:04:13.000Z</time>
      </trkpt>
      <trkpt lat="45.90748" lon="6.4965">
        <ele>2076.1999511719</ele>
        <time>2014-02-12T09:04:14.000Z</time>
      </trkpt>
      <trkpt lat="45.90748" lon="6.49651">
        <ele>2076.3999023438</ele>
        <time>2014-02-12T09:04:15.000Z</time>
      </trkpt>
      <trkpt lat="45.90747" lon="6.4965">
        <ele>2076.3999023438</ele>
        <time>2014-02-12T09:04:16.000Z</time>
      </trkpt>
      <trkpt lat="45.90746" lon="6.4965">
        <ele>2076.6000976562</ele>
        <time>2014-02-12T09:04:17.000Z</time>
      </trkpt>
      <trkpt lat="45.90746" lon="6.4965">
        <ele>2076.8000488281</ele>
        <time>2014-02-12T09:04:18.000Z</time>
      </trkpt>
      <trkpt lat="45.90745" lon="6.4965">
        <ele>2077</ele>
        <time>2014-02-12T09:04:19.000Z</time>
      </trkpt>
      <trkpt lat="45.90745" lon="6.4965">
        <ele>2077</ele>
        <time>2014-02-12T09:04:20.000Z</time>
      </trkpt>
      <trkpt lat="45.90744" lon="6.4965">
        <ele>2077.1999511719</ele>
        <time>2014-02-12T09:04:21.000Z</time>
      </trkpt>
      <trkpt lat="45.90743" lon="6.4965">
        <ele>2077.3999023438</ele>
        <time>2014-02-12T09:04:22.000Z</time>
      </trkpt>
      <trkpt lat="45.90743" lon="6.4965">
        <ele>2077.6000976562</ele>
        <time>2014-02-12T09:04:23.000Z</time>
      </trkpt>
      <trkpt lat="45.90742" lon="6.4965">
        <ele>2077.8000488281</ele>
        <time>2014-02-12T09:04:24.000Z</time>
      </trkpt>
      <trkpt lat="45.90741" lon="6.4965">
        <ele>2078</ele>
        <time>2014-02-12T09:04:25.000Z</time>
      </trkpt>
      <trkpt lat="45.90741" lon="6.4965">
        <ele>2078.1999511719</ele>
        <time>2014-02-12T09:04:26.000Z</time>
      </trkpt>
      <trkpt lat="45.9074" lon="6.49651">
        <ele>2078.3999023438</ele>
        <time>2014-02-12T09:04:27.000Z</time>
      </trkpt>
      <trkpt lat="45.9074" lon="6.49651">
        <ele>2078.6000976562</ele>
        <time>2014-02-12T09:04:28.000Z</time>
      </trkpt>
      <trkpt lat="45.90739" lon="6.49651">
        <ele>2079</ele>
        <time>2014-02-12T09:04:29.000Z</time>
      </trkpt>
      <trkpt lat="45.90739" lon="6.49651">
        <ele>2079.1999511719</ele>
        <time>2014-02-12T09:04:30.000Z</time>
      </trkpt>
      <trkpt lat="45.90738" lon="6.49652">
        <ele>2079.3999023438</ele>
        <time>2014-02-12T09:04:31.000Z</time>
      </trkpt>
      <trkpt lat="45.90738" lon="6.49652">
        <ele>2079.3999023438</ele>
        <time>2014-02-12T09:04:32.000Z</time>
      </trkpt>
      <trkpt lat="45.90738" lon="6.49652">
        <ele>2079.3999023438</ele>
        <time>2014-02-12T09:04:33.000Z</time>
      </trkpt>
      <trkpt lat="45.90738" lon="6.49652">
        <ele>2079.3999023438</ele>
        <time>2014-02-12T09:04:34.000Z</time>
      </trkpt>
      <trkpt lat="45.90738" lon="6.49652">
        <ele>2079.3999023438</ele>
        <time>2014-02-12T09:04:35.000Z</time>
      </trkpt>
      <trkpt lat="45.90738" lon="6.49652">
        <ele>2079.3999023438</ele>
        <time>2014-02-12T09:04:36.000Z</time>
      </trkpt>
      <trkpt lat="45.90738" lon="6.49651">
        <ele>2079.3999023438</ele>
        <time>2014-02-12T09:04:37.000Z</time>
      </trkpt>
      <trkpt lat="45.90738" lon="6.49651">
        <ele>2079.3999023438</ele>
        <time>2014-02-12T09:04:38.000Z</time>
      </trkpt>
      <trkpt lat="45.90737" lon="6.49651">
        <ele>2079.3999023438</ele>
        <time>2014-02-12T09:04:39.000Z</time>
      </trkpt>
      <trkpt lat="45.90736" lon="6.4965">
        <ele>2079.3999023438</ele>
        <time>2014-02-12T09:04:40.000Z</time>
      </trkpt>
      <trkpt lat="45.90735" lon="6.4965">
        <ele>2079.6000976562</ele>
        <time>2014-02-12T09:04:41.000Z</time>
      </trkpt>
      <trkpt lat="45.90735" lon="6.4965">
        <ele>2079.8000488281</ele>
        <time>2014-02-12T09:04:42.000Z</time>
      </trkpt>
      <trkpt lat="45.90734" lon="6.49649">
        <ele>2080</ele>
        <time>2014-02-12T09:04:43.000Z</time>
      </trkpt>
      <trkpt lat="45.90733" lon="6.4965">
        <ele>2080.1999511719</ele>
        <time>2014-02-12T09:04:44.000Z</time>
      </trkpt>
      <trkpt lat="45.90733" lon="6.4965">
        <ele>2080.3999023438</ele>
        <time>2014-02-12T09:04:45.000Z</time>
      </trkpt>
      <trkpt lat="45.90732" lon="6.4965">
        <ele>2080.3999023438</ele>
        <time>2014-02-12T09:04:46.000Z</time>
      </trkpt>
      <trkpt lat="45.90732" lon="6.4965">
        <ele>2080.6000976562</ele>
        <time>2014-02-12T09:04:47.000Z</time>
      </trkpt>
      <trkpt lat="45.90731" lon="6.4965">
        <ele>2080.8000488281</ele>
        <time>2014-02-12T09:04:48.000Z</time>
      </trkpt>
      <trkpt lat="45.9073" lon="6.4965">
        <ele>2081</ele>
        <time>2014-02-12T09:04:49.000Z</time>
      </trkpt>
      <trkpt lat="45.90729" lon="6.49649">
        <ele>2081.1999511719</ele>
        <time>2014-02-12T09:04:50.000Z</time>
      </trkpt>
      <trkpt lat="45.90729" lon="6.49649">
        <ele>2081.3999023438</ele>
        <time>2014-02-12T09:04:51.000Z</time>
      </trkpt>
      <trkpt lat="45.90728" lon="6.49649">
        <ele>2081.6000976562</ele>
        <time>2014-02-12T09:04:52.000Z</time>
      </trkpt>
      <trkpt lat="45.90727" lon="6.49649">
        <ele>2081.8000488281</ele>
        <time>2014-02-12T09:04:53.000Z</time>
      </trkpt>
      <trkpt lat="45.90727" lon="6.49649">
        <ele>2081.8000488281</ele>
        <time>2014-02-12T09:04:54.000Z</time>
      </trkpt>
      <trkpt lat="45.90726" lon="6.49648">
        <ele>2082</ele>
        <time>2014-02-12T09:04:55.000Z</time>
      </trkpt>
      <trkpt lat="45.90726" lon="6.49648">
        <ele>2082</ele>
        <time>2014-02-12T09:04:56.000Z</time>
      </trkpt>
      <trkpt lat="45.90725" lon="6.49648">
        <ele>2082.1999511719</ele>
        <time>2014-02-12T09:04:57.000Z</time>
      </trkpt>
      <trkpt lat="45.90724" lon="6.49648">
        <ele>2082.3999023438</ele>
        <time>2014-02-12T09:04:58.000Z</time>
      </trkpt>
      <trkpt lat="45.90724" lon="6.49648">
        <ele>2082.6000976562</ele>
        <time>2014-02-12T09:04:59.000Z</time>
      </trkpt>
      <trkpt lat="45.90723" lon="6.49648">
        <ele>2082.8000488281</ele>
        <time>2014-02-12T09:05:00.000Z</time>
      </trkpt>
      <trkpt lat="45.90723" lon="6.49648">
        <ele>2082.8000488281</ele>
        <time>2014-02-12T09:05:01.000Z</time>
      </trkpt>
      <trkpt lat="45.90722" lon="6.49648">
        <ele>2083</ele>
        <time>2014-02-12T09:05:02.000Z</time>
      </trkpt>
      <trkpt lat="45.90722" lon="6.49648">
        <ele>2083</ele>
        <time>2014-02-12T09:05:03.000Z</time>
      </trkpt>
      <trkpt lat="45.9072" lon="6.49648">
        <ele>2083.1999511719</ele>
        <time>2014-02-12T09:05:04.000Z</time>
      </trkpt>
      <trkpt lat="45.90721" lon="6.49648">
        <ele>2083.1999511719</ele>
        <time>2014-02-12T09:05:05.000Z</time>
      </trkpt>
      <trkpt lat="45.90719" lon="6.49649">
        <ele>2083.3999023438</ele>
        <time>2014-02-12T09:05:06.000Z</time>
      </trkpt>
      <trkpt lat="45.9072" lon="6.49649">
        <ele>2083.3999023438</ele>
        <time>2014-02-12T09:05:07.000Z</time>
      </trkpt>
      <trkpt lat="45.90718" lon="6.49649">
        <ele>2083.6000976562</ele>
        <time>2014-02-12T09:05:08.000Z</time>
      </trkpt>
      <trkpt lat="45.90718" lon="6.49649">
        <ele>2083.6000976562</ele>
        <time>2014-02-12T09:05:09.000Z</time>
      </trkpt>
      <trkpt lat="45.90716" lon="6.49649">
        <ele>2083.8000488281</ele>
        <time>2014-02-12T09:05:10.000Z</time>
      </trkpt>
      <trkpt lat="45.90717" lon="6.49649">
        <ele>2083.8000488281</ele>
        <time>2014-02-12T09:05:11.000Z</time>
      </trkpt>
      <trkpt lat="45.90715" lon="6.49649">
        <ele>2084.1999511719</ele>
        <time>2014-02-12T09:05:12.000Z</time>
      </trkpt>
      <trkpt lat="45.90714" lon="6.49649">
        <ele>2084.1999511719</ele>
        <time>2014-02-12T09:05:13.000Z</time>
      </trkpt>
      <trkpt lat="45.90713" lon="6.49649">
        <ele>2084.3999023438</ele>
        <time>2014-02-12T09:05:14.000Z</time>
      </trkpt>
      <trkpt lat="45.90712" lon="6.49648">
        <ele>2084.3999023438</ele>
        <time>2014-02-12T09:05:15.000Z</time>
      </trkpt>
      <trkpt lat="45.90711" lon="6.49648">
        <ele>2084.3999023438</ele>
        <time>2014-02-12T09:05:16.000Z</time>
      </trkpt>
      <trkpt lat="45.9071" lon="6.49647">
        <ele>2084.3999023438</ele>
        <time>2014-02-12T09:05:17.000Z</time>
      </trkpt>
      <trkpt lat="45.90709" lon="6.49647">
        <ele>2084.6000976562</ele>
        <time>2014-02-12T09:05:18.000Z</time>
      </trkpt>
      <trkpt lat="45.90708" lon="6.49646">
        <ele>2084.6000976562</ele>
        <time>2014-02-12T09:05:19.000Z</time>
      </trkpt>
      <trkpt lat="45.90707" lon="6.49646">
        <ele>2084.8000488281</ele>
        <time>2014-02-12T09:05:20.000Z</time>
      </trkpt>
      <trkpt lat="45.90707" lon="6.49647">
        <ele>2084.8000488281</ele>
        <time>2014-02-12T09:05:21.000Z</time>
      </trkpt>
      <trkpt lat="45.90707" lon="6.49647">
        <ele>2084.8000488281</ele>
        <time>2014-02-12T09:05:22.000Z</time>
      </trkpt>
      <trkpt lat="45.90706" lon="6.49647">
        <ele>2085</ele>
        <time>2014-02-12T09:05:23.000Z</time>
      </trkpt>
      <trkpt lat="45.90706" lon="6.49647">
        <ele>2085</ele>
        <time>2014-02-12T09:05:24.000Z</time>
      </trkpt>
      <trkpt lat="45.90706" lon="6.49647">
        <ele>2085</ele>
        <time>2014-02-12T09:05:25.000Z</time>
      </trkpt>
      <trkpt lat="45.90705" lon="6.49647">
        <ele>2085.1999511719</ele>
        <time>2014-02-12T09:05:26.000Z</time>
      </trkpt>
      <trkpt lat="45.90705" lon="6.49647">
        <ele>2085.1999511719</ele>
        <time>2014-02-12T09:05:27.000Z</time>
      </trkpt>
      <trkpt lat="45.90705" lon="6.49647">
        <ele>2085.1999511719</ele>
        <time>2014-02-12T09:05:28.000Z</time>
      </trkpt>
      <trkpt lat="45.90703" lon="6.49646">
        <ele>2085.3999023438</ele>
        <time>2014-02-12T09:05:29.000Z</time>
      </trkpt>
      <trkpt lat="45.90703" lon="6.49647">
        <ele>2085.3999023438</ele>
        <time>2014-02-12T09:05:30.000Z</time>
      </trkpt>
      <trkpt lat="45.90702" lon="6.49647">
        <ele>2085.6000976562</ele>
        <time>2014-02-12T09:05:32.000Z</time>
      </trkpt>
      <trkpt lat="45.907" lon="6.49648">
        <ele>2086</ele>
        <time>2014-02-12T09:05:33.000Z</time>
      </trkpt>
      <trkpt lat="45.90701" lon="6.49648">
        <ele>2086</ele>
        <time>2014-02-12T09:05:34.000Z</time>
      </trkpt>
      <trkpt lat="45.90699" lon="6.49647">
        <ele>2086</ele>
        <time>2014-02-12T09:05:35.000Z</time>
      </trkpt>
      <trkpt lat="45.907" lon="6.49647">
        <ele>2086</ele>
        <time>2014-02-12T09:05:36.000Z</time>
      </trkpt>
      <trkpt lat="45.90699" lon="6.49647">
        <ele>2086</ele>
        <time>2014-02-12T09:05:37.000Z</time>
      </trkpt>
      <trkpt lat="45.90698" lon="6.49647">
        <ele>2086.1999511719</ele>
        <time>2014-02-12T09:05:38.000Z</time>
      </trkpt>
      <trkpt lat="45.90698" lon="6.49647">
        <ele>2086.1999511719</ele>
        <time>2014-02-12T09:05:39.000Z</time>
      </trkpt>
      <trkpt lat="45.90698" lon="6.49647">
        <ele>2086.1999511719</ele>
        <time>2014-02-12T09:05:40.000Z</time>
      </trkpt>
      <trkpt lat="45.90697" lon="6.49646">
        <ele>2086.1999511719</ele>
        <time>2014-02-12T09:05:41.000Z</time>
      </trkpt>
      <trkpt lat="45.90697" lon="6.49646">
        <ele>2086.1999511719</ele>
        <time>2014-02-12T09:05:42.000Z</time>
      </trkpt>
      <trkpt lat="45.90697" lon="6.49646">
        <ele>2086.1999511719</ele>
        <time>2014-02-12T09:05:43.000Z</time>
      </trkpt>
      <trkpt lat="45.90697" lon="6.49646">
        <ele>2086.1999511719</ele>
        <time>2014-02-12T09:05:44.000Z</time>
      </trkpt>
      <trkpt lat="45.90697" lon="6.49646">
        <ele>2086.1999511719</ele>
        <time>2014-02-12T09:05:45.000Z</time>
      </trkpt>
      <trkpt lat="45.90697" lon="6.49646">
        <ele>2086.1999511719</ele>
        <time>2014-02-12T09:05:46.000Z</time>
      </trkpt>
      <trkpt lat="45.90697" lon="6.49646">
        <ele>2086.1999511719</ele>
        <time>2014-02-12T09:05:47.000Z</time>
      </trkpt>
      <trkpt lat="45.90697" lon="6.49646">
        <ele>2086.1999511719</ele>
        <time>2014-02-12T09:05:48.000Z</time>
      </trkpt>
      <trkpt lat="45.90697" lon="6.49646">
        <ele>2086.1999511719</ele>
        <time>2014-02-12T09:05:49.000Z</time>
      </trkpt>
      <trkpt lat="45.90697" lon="6.49646">
        <ele>2086.1999511719</ele>
        <time>2014-02-12T09:05:51.000Z</time>
      </trkpt>
      <trkpt lat="45.90697" lon="6.49646">
        <ele>2086.1999511719</ele>
        <time>2014-02-12T09:05:52.000Z</time>
      </trkpt>
      <trkpt lat="45.90697" lon="6.49646">
        <ele>2086.1999511719</ele>
        <time>2014-02-12T09:05:53.000Z</time>
      </trkpt>
      <trkpt lat="45.90697" lon="6.49646">
        <ele>2086.1999511719</ele>
        <time>2014-02-12T09:05:54.000Z</time>
      </trkpt>
      <trkpt lat="45.90697" lon="6.49646">
        <ele>2086.1999511719</ele>
        <time>2014-02-12T09:05:56.000Z</time>
      </trkpt>
      <trkpt lat="45.90697" lon="6.49646">
        <ele>2086.1999511719</ele>
        <time>2014-02-12T09:05:58.000Z</time>
      </trkpt>
      <trkpt lat="45.90697" lon="6.49646">
        <ele>2086.1999511719</ele>
        <time>2014-02-12T09:05:59.000Z</time>
      </trkpt>
      <trkpt lat="45.90697" lon="6.49646">
        <ele>2086.1999511719</ele>
        <time>2014-02-12T09:06:00.000Z</time>
      </trkpt>
      <trkpt lat="45.90697" lon="6.49646">
        <ele>2086.1999511719</ele>
        <time>2014-02-12T09:06:01.000Z</time>
      </trkpt>
      <trkpt lat="45.90697" lon="6.49646">
        <ele>2086.1999511719</ele>
        <time>2014-02-12T09:06:02.000Z</time>
      </trkpt>
      <trkpt lat="45.90697" lon="6.49646">
        <ele>2086.1999511719</ele>
        <time>2014-02-12T09:06:03.000Z</time>
      </trkpt>
      <trkpt lat="45.90697" lon="6.49646">
        <ele>2086.1999511719</ele>
        <time>2014-02-12T09:06:04.000Z</time>
      </trkpt>
      <trkpt lat="45.90697" lon="6.49646">
        <ele>2086.1999511719</ele>
        <time>2014-02-12T09:06:05.000Z</time>
      </trkpt>
      <trkpt lat="45.90697" lon="6.49646">
        <ele>2086.1999511719</ele>
        <time>2014-02-12T09:06:06.000Z</time>
      </trkpt>
      <trkpt lat="45.90697" lon="6.49646">
        <ele>2086.1999511719</ele>
        <time>2014-02-12T09:06:07.000Z</time>
      </trkpt>
      <trkpt lat="45.90697" lon="6.49646">
        <ele>2086.1999511719</ele>
        <time>2014-02-12T09:06:08.000Z</time>
      </trkpt>
      <trkpt lat="45.90697" lon="6.49646">
        <ele>2086.1999511719</ele>
        <time>2014-02-12T09:06:09.000Z</time>
      </trkpt>
      <trkpt lat="45.90697" lon="6.49646">
        <ele>2086.1999511719</ele>
        <time>2014-02-12T09:06:10.000Z</time>
      </trkpt>
      <trkpt lat="45.90697" lon="6.49646">
        <ele>2086.1999511719</ele>
        <time>2014-02-12T09:06:11.000Z</time>
      </trkpt>
      <trkpt lat="45.90697" lon="6.49646">
        <ele>2086.1999511719</ele>
        <time>2014-02-12T09:06:12.000Z</time>
      </trkpt>
      <trkpt lat="45.90697" lon="6.49646">
        <ele>2086.1999511719</ele>
        <time>2014-02-12T09:06:13.000Z</time>
      </trkpt>
      <trkpt lat="45.90697" lon="6.49646">
        <ele>2086.1999511719</ele>
        <time>2014-02-12T09:06:14.000Z</time>
      </trkpt>
      <trkpt lat="45.90697" lon="6.49646">
        <ele>2086.1999511719</ele>
        <time>2014-02-12T09:06:15.000Z</time>
      </trkpt>
      <trkpt lat="45.90697" lon="6.49646">
        <ele>2086.1999511719</ele>
        <time>2014-02-12T09:06:17.000Z</time>
      </trkpt>
      <trkpt lat="45.90697" lon="6.49646">
        <ele>2086.1999511719</ele>
        <time>2014-02-12T09:06:18.000Z</time>
      </trkpt>
      <trkpt lat="45.90697" lon="6.49646">
        <ele>2086.1999511719</ele>
        <time>2014-02-12T09:06:19.000Z</time>
      </trkpt>
      <trkpt lat="45.90697" lon="6.49646">
        <ele>2086.1999511719</ele>
        <time>2014-02-12T09:06:20.000Z</time>
      </trkpt>
      <trkpt lat="45.90697" lon="6.49646">
        <ele>2086.1999511719</ele>
        <time>2014-02-12T09:06:21.000Z</time>
      </trkpt>
      <trkpt lat="45.90697" lon="6.49646">
        <ele>2086.1999511719</ele>
        <time>2014-02-12T09:06:22.000Z</time>
      </trkpt>
      <trkpt lat="45.90697" lon="6.49646">
        <ele>2086.1999511719</ele>
        <time>2014-02-12T09:06:23.000Z</time>
      </trkpt>
      <trkpt lat="45.90697" lon="6.49646">
        <ele>2086.1999511719</ele>
        <time>2014-02-12T09:06:24.000Z</time>
      </trkpt>
      <trkpt lat="45.90697" lon="6.49646">
        <ele>2086.1999511719</ele>
        <time>2014-02-12T09:06:25.000Z</time>
      </trkpt>
      <trkpt lat="45.90697" lon="6.49646">
        <ele>2086.1999511719</ele>
        <time>2014-02-12T09:06:26.000Z</time>
      </trkpt>
      <trkpt lat="45.90697" lon="6.49646">
        <ele>2086.1999511719</ele>
        <time>2014-02-12T09:06:27.000Z</time>
      </trkpt>
      <trkpt lat="45.90697" lon="6.49646">
        <ele>2086.1999511719</ele>
        <time>2014-02-12T09:06:29.000Z</time>
      </trkpt>
      <trkpt lat="45.90697" lon="6.49646">
        <ele>2086.1999511719</ele>
        <time>2014-02-12T09:06:30.000Z</time>
      </trkpt>
      <trkpt lat="45.90697" lon="6.49646">
        <ele>2086.1999511719</ele>
        <time>2014-02-12T09:06:31.000Z</time>
      </trkpt>
      <trkpt lat="45.90697" lon="6.49646">
        <ele>2086.1999511719</ele>
        <time>2014-02-12T09:06:32.000Z</time>
      </trkpt>
      <trkpt lat="45.90697" lon="6.49646">
        <ele>2086.1999511719</ele>
        <time>2014-02-12T09:06:33.000Z</time>
      </trkpt>
      <trkpt lat="45.90697" lon="6.49646">
        <ele>2086.1999511719</ele>
        <time>2014-02-12T09:06:34.000Z</time>
      </trkpt>
      <trkpt lat="45.907" lon="6.4965">
        <ele>2086.3999023438</ele>
        <time>2014-02-12T09:06:35.000Z</time>
      </trkpt>
      <trkpt lat="45.907" lon="6.4965">
        <ele>2086.3999023438</ele>
        <time>2014-02-12T09:06:36.000Z</time>
      </trkpt>
      <trkpt lat="45.907" lon="6.4965">
        <ele>2086.3999023438</ele>
        <time>2014-02-12T09:06:38.000Z</time>
      </trkpt>
      <trkpt lat="45.907" lon="6.4965">
        <ele>2086.3999023438</ele>
        <time>2014-02-12T09:06:39.000Z</time>
      </trkpt>
      <trkpt lat="45.907" lon="6.4965">
        <ele>2086.3999023438</ele>
        <time>2014-02-12T09:06:40.000Z</time>
      </trkpt>
      <trkpt lat="45.907" lon="6.4965">
        <ele>2086.3999023438</ele>
        <time>2014-02-12T09:06:41.000Z</time>
      </trkpt>
      <trkpt lat="45.907" lon="6.4965">
        <ele>2086.3999023438</ele>
        <time>2014-02-12T09:06:43.000Z</time>
      </trkpt>
      <trkpt lat="45.907" lon="6.4965">
        <ele>2086.3999023438</ele>
        <time>2014-02-12T09:06:44.000Z</time>
      </trkpt>
      <trkpt lat="45.907" lon="6.4965">
        <ele>2086.3999023438</ele>
        <time>2014-02-12T09:06:45.000Z</time>
      </trkpt>
      <trkpt lat="45.907" lon="6.4965">
        <ele>2086.3999023438</ele>
        <time>2014-02-12T09:06:46.000Z</time>
      </trkpt>
      <trkpt lat="45.907" lon="6.4965">
        <ele>2086.3999023438</ele>
        <time>2014-02-12T09:06:47.000Z</time>
      </trkpt>
      <trkpt lat="45.907" lon="6.4965">
        <ele>2086.3999023438</ele>
        <time>2014-02-12T09:06:48.000Z</time>
      </trkpt>
      <trkpt lat="45.907" lon="6.4965">
        <ele>2086.3999023438</ele>
        <time>2014-02-12T09:06:49.000Z</time>
      </trkpt>
      <trkpt lat="45.907" lon="6.4965">
        <ele>2086.3999023438</ele>
        <time>2014-02-12T09:06:50.000Z</time>
      </trkpt>
      <trkpt lat="45.907" lon="6.4965">
        <ele>2086.3999023438</ele>
        <time>2014-02-12T09:06:51.000Z</time>
      </trkpt>
      <trkpt lat="45.907" lon="6.4965">
        <ele>2086.3999023438</ele>
        <time>2014-02-12T09:06:52.000Z</time>
      </trkpt>
      <trkpt lat="45.907" lon="6.4965">
        <ele>2086.3999023438</ele>
        <time>2014-02-12T09:06:53.000Z</time>
      </trkpt>
      <trkpt lat="45.907" lon="6.4965">
        <ele>2086.3999023438</ele>
        <time>2014-02-12T09:06:54.000Z</time>
      </trkpt>
      <trkpt lat="45.907" lon="6.4965">
        <ele>2086.3999023438</ele>
        <time>2014-02-12T09:06:55.000Z</time>
      </trkpt>
      <trkpt lat="45.907" lon="6.4965">
        <ele>2086.3999023438</ele>
        <time>2014-02-12T09:06:56.000Z</time>
      </trkpt>
      <trkpt lat="45.907" lon="6.4965">
        <ele>2086.3999023438</ele>
        <time>2014-02-12T09:06:57.000Z</time>
      </trkpt>
      <trkpt lat="45.907" lon="6.4965">
        <ele>2086.3999023438</ele>
        <time>2014-02-12T09:06:58.000Z</time>
      </trkpt>
      <trkpt lat="45.907" lon="6.4965">
        <ele>2086.3999023438</ele>
        <time>2014-02-12T09:06:59.000Z</time>
      </trkpt>
      <trkpt lat="45.907" lon="6.4965">
        <ele>2086.3999023438</ele>
        <time>2014-02-12T09:07:00.000Z</time>
      </trkpt>
      <trkpt lat="45.907" lon="6.4965">
        <ele>2086.3999023438</ele>
        <time>2014-02-12T09:07:01.000Z</time>
      </trkpt>
      <trkpt lat="45.907" lon="6.4965">
        <ele>2086.3999023438</ele>
        <time>2014-02-12T09:07:02.000Z</time>
      </trkpt>
      <trkpt lat="45.907" lon="6.4965">
        <ele>2086.3999023438</ele>
        <time>2014-02-12T09:07:03.000Z</time>
      </trkpt>
      <trkpt lat="45.907" lon="6.4965">
        <ele>2086.3999023438</ele>
        <time>2014-02-12T09:07:04.000Z</time>
      </trkpt>
      <trkpt lat="45.907" lon="6.4965">
        <ele>2086.3999023438</ele>
        <time>2014-02-12T09:07:05.000Z</time>
      </trkpt>
      <trkpt lat="45.907" lon="6.4965">
        <ele>2086.3999023438</ele>
        <time>2014-02-12T09:07:06.000Z</time>
      </trkpt>
      <trkpt lat="45.907" lon="6.4965">
        <ele>2086.3999023438</ele>
        <time>2014-02-12T09:07:07.000Z</time>
      </trkpt>
      <trkpt lat="45.907" lon="6.4965">
        <ele>2086.3999023438</ele>
        <time>2014-02-12T09:07:08.000Z</time>
      </trkpt>
      <trkpt lat="45.907" lon="6.4965">
        <ele>2086.3999023438</ele>
        <time>2014-02-12T09:07:11.000Z</time>
      </trkpt>
      <trkpt lat="45.907" lon="6.4965">
        <ele>2086.3999023438</ele>
        <time>2014-02-12T09:07:13.000Z</time>
      </trkpt>
      <trkpt lat="45.907" lon="6.4965">
        <ele>2086.3999023438</ele>
        <time>2014-02-12T09:07:14.000Z</time>
      </trkpt>
      <trkpt lat="45.907" lon="6.4965">
        <ele>2086.3999023438</ele>
        <time>2014-02-12T09:07:16.000Z</time>
      </trkpt>
      <trkpt lat="45.907" lon="6.4965">
        <ele>2086.3999023438</ele>
        <time>2014-02-12T09:07:23.000Z</time>
      </trkpt>
      <trkpt lat="45.907" lon="6.4965">
        <ele>2086.3999023438</ele>
        <time>2014-02-12T09:07:24.000Z</time>
      </trkpt>
      <trkpt lat="45.907" lon="6.4965">
        <ele>2086.3999023438</ele>
        <time>2014-02-12T09:07:25.000Z</time>
      </trkpt>
      <trkpt lat="45.907" lon="6.4965">
        <ele>2086.3999023438</ele>
        <time>2014-02-12T09:07:26.000Z</time>
      </trkpt>
      <trkpt lat="45.907" lon="6.4965">
        <ele>2086.3999023438</ele>
        <time>2014-02-12T09:07:27.000Z</time>
      </trkpt>
      <trkpt lat="45.907" lon="6.4965">
        <ele>2086.3999023438</ele>
        <time>2014-02-12T09:07:28.000Z</time>
      </trkpt>
      <trkpt lat="45.907" lon="6.4965">
        <ele>2086.3999023438</ele>
        <time>2014-02-12T09:07:29.000Z</time>
      </trkpt>
      <trkpt lat="45.907" lon="6.4965">
        <ele>2086.3999023438</ele>
        <time>2014-02-12T09:07:30.000Z</time>
      </trkpt>
      <trkpt lat="45.907" lon="6.4965">
        <ele>2086.3999023438</ele>
        <time>2014-02-12T09:07:31.000Z</time>
      </trkpt>
      <trkpt lat="45.907" lon="6.4965">
        <ele>2086.3999023438</ele>
        <time>2014-02-12T09:07:32.000Z</time>
      </trkpt>
      <trkpt lat="45.907" lon="6.4965">
        <ele>2086.3999023438</ele>
        <time>2014-02-12T09:07:33.000Z</time>
      </trkpt>
      <trkpt lat="45.907" lon="6.4965">
        <ele>2086.3999023438</ele>
        <time>2014-02-12T09:07:34.000Z</time>
      </trkpt>
      <trkpt lat="45.907" lon="6.4965">
        <ele>2086.3999023438</ele>
        <time>2014-02-12T09:07:35.000Z</time>
      </trkpt>
      <trkpt lat="45.907" lon="6.4965">
        <ele>2086.3999023438</ele>
        <time>2014-02-12T09:07:36.000Z</time>
      </trkpt>
      <trkpt lat="45.907" lon="6.4965">
        <ele>2086.3999023438</ele>
        <time>2014-02-12T09:07:37.000Z</time>
      </trkpt>
      <trkpt lat="45.907" lon="6.4965">
        <ele>2086.3999023438</ele>
        <time>2014-02-12T09:07:38.000Z</time>
      </trkpt>
      <trkpt lat="45.907" lon="6.4965">
        <ele>2086.3999023438</ele>
        <time>2014-02-12T09:07:39.000Z</time>
      </trkpt>
      <trkpt lat="45.907" lon="6.4965">
        <ele>2086.3999023438</ele>
        <time>2014-02-12T09:07:40.000Z</time>
      </trkpt>
      <trkpt lat="45.907" lon="6.4965">
        <ele>2086.3999023438</ele>
        <time>2014-02-12T09:07:41.000Z</time>
      </trkpt>
      <trkpt lat="45.907" lon="6.4965">
        <ele>2086.3999023438</ele>
        <time>2014-02-12T09:07:42.000Z</time>
      </trkpt>
      <trkpt lat="45.907" lon="6.4965">
        <ele>2086.3999023438</ele>
        <time>2014-02-12T09:07:43.000Z</time>
      </trkpt>
      <trkpt lat="45.907" lon="6.4965">
        <ele>2086.3999023438</ele>
        <time>2014-02-12T09:07:44.000Z</time>
      </trkpt>
      <trkpt lat="45.907" lon="6.4965">
        <ele>2086.3999023438</ele>
        <time>2014-02-12T09:07:45.000Z</time>
      </trkpt>
      <trkpt lat="45.907" lon="6.4965">
        <ele>2086.3999023438</ele>
        <time>2014-02-12T09:07:46.000Z</time>
      </trkpt>
      <trkpt lat="45.907" lon="6.4965">
        <ele>2086.3999023438</ele>
        <time>2014-02-12T09:07:47.000Z</time>
      </trkpt>
      <trkpt lat="45.907" lon="6.4965">
        <ele>2086.3999023438</ele>
        <time>2014-02-12T09:07:48.000Z</time>
      </trkpt>
      <trkpt lat="45.907" lon="6.4965">
        <ele>2086.3999023438</ele>
        <time>2014-02-12T09:07:49.000Z</time>
      </trkpt>
      <trkpt lat="45.907" lon="6.4965">
        <ele>2086.3999023438</ele>
        <time>2014-02-12T09:07:50.000Z</time>
      </trkpt>
      <trkpt lat="45.907" lon="6.4965">
        <ele>2086.3999023438</ele>
        <time>2014-02-12T09:07:51.000Z</time>
      </trkpt>
      <trkpt lat="45.907" lon="6.4965">
        <ele>2086.3999023438</ele>
        <time>2014-02-12T09:07:52.000Z</time>
      </trkpt>
      <trkpt lat="45.907" lon="6.4965">
        <ele>2086.3999023438</ele>
        <time>2014-02-12T09:07:53.000Z</time>
      </trkpt>
      <trkpt lat="45.907" lon="6.4965">
        <ele>2086.3999023438</ele>
        <time>2014-02-12T09:07:54.000Z</time>
      </trkpt>
      <trkpt lat="45.907" lon="6.4965">
        <ele>2086.3999023438</ele>
        <time>2014-02-12T09:07:55.000Z</time>
      </trkpt>
      <trkpt lat="45.907" lon="6.4965">
        <ele>2086.3999023438</ele>
        <time>2014-02-12T09:07:56.000Z</time>
      </trkpt>
      <trkpt lat="45.907" lon="6.4965">
        <ele>2086.3999023438</ele>
        <time>2014-02-12T09:07:57.000Z</time>
      </trkpt>
      <trkpt lat="45.907" lon="6.4965">
        <ele>2086.3999023438</ele>
        <time>2014-02-12T09:07:58.000Z</time>
      </trkpt>
      <trkpt lat="45.907" lon="6.4965">
        <ele>2086.3999023438</ele>
        <time>2014-02-12T09:07:59.000Z</time>
      </trkpt>
      <trkpt lat="45.907" lon="6.4965">
        <ele>2086.3999023438</ele>
        <time>2014-02-12T09:08:00.000Z</time>
      </trkpt>
      <trkpt lat="45.907" lon="6.4965">
        <ele>2086.3999023438</ele>
        <time>2014-02-12T09:08:01.000Z</time>
      </trkpt>
      <trkpt lat="45.907" lon="6.4965">
        <ele>2086.3999023438</ele>
        <time>2014-02-12T09:08:03.000Z</time>
      </trkpt>
      <trkpt lat="45.907" lon="6.4965">
        <ele>2086.3999023438</ele>
        <time>2014-02-12T09:08:05.000Z</time>
      </trkpt>
      <trkpt lat="45.907" lon="6.4965">
        <ele>2086.3999023438</ele>
        <time>2014-02-12T09:08:06.000Z</time>
      </trkpt>
      <trkpt lat="45.907" lon="6.4965">
        <ele>2086.3999023438</ele>
        <time>2014-02-12T09:08:07.000Z</time>
      </trkpt>
      <trkpt lat="45.907" lon="6.4965">
        <ele>2086.3999023438</ele>
        <time>2014-02-12T09:08:08.000Z</time>
      </trkpt>
      <trkpt lat="45.907" lon="6.4965">
        <ele>2086.3999023438</ele>
        <time>2014-02-12T09:08:09.000Z</time>
      </trkpt>
      <trkpt lat="45.907" lon="6.4965">
        <ele>2086.3999023438</ele>
        <time>2014-02-12T09:08:11.000Z</time>
      </trkpt>
      <trkpt lat="45.907" lon="6.4965">
        <ele>2086.3999023438</ele>
        <time>2014-02-12T09:08:12.000Z</time>
      </trkpt>
      <trkpt lat="45.907" lon="6.4965">
        <ele>2086.3999023438</ele>
        <time>2014-02-12T09:08:13.000Z</time>
      </trkpt>
      <trkpt lat="45.907" lon="6.4965">
        <ele>2086.3999023438</ele>
        <time>2014-02-12T09:08:14.000Z</time>
      </trkpt>
      <trkpt lat="45.907" lon="6.4965">
        <ele>2086.3999023438</ele>
        <time>2014-02-12T09:08:15.000Z</time>
      </trkpt>
      <trkpt lat="45.907" lon="6.4965">
        <ele>2086.3999023438</ele>
        <time>2014-02-12T09:08:16.000Z</time>
      </trkpt>
      <trkpt lat="45.907" lon="6.4965">
        <ele>2086.3999023438</ele>
        <time>2014-02-12T09:08:17.000Z</time>
      </trkpt>
      <trkpt lat="45.907" lon="6.4965">
        <ele>2086.3999023438</ele>
        <time>2014-02-12T09:08:18.000Z</time>
      </trkpt>
      <trkpt lat="45.907" lon="6.4965">
        <ele>2086.3999023438</ele>
        <time>2014-02-12T09:08:19.000Z</time>
      </trkpt>
      <trkpt lat="45.907" lon="6.4965">
        <ele>2086.3999023438</ele>
        <time>2014-02-12T09:08:20.000Z</time>
      </trkpt>
      <trkpt lat="45.907" lon="6.4965">
        <ele>2086.3999023438</ele>
        <time>2014-02-12T09:08:21.000Z</time>
      </trkpt>
      <trkpt lat="45.907" lon="6.4965">
        <ele>2086.3999023438</ele>
        <time>2014-02-12T09:08:22.000Z</time>
      </trkpt>
      <trkpt lat="45.907" lon="6.4965">
        <ele>2086.3999023438</ele>
        <time>2014-02-12T09:08:23.000Z</time>
      </trkpt>
      <trkpt lat="45.907" lon="6.4965">
        <ele>2086.3999023438</ele>
        <time>2014-02-12T09:08:26.000Z</time>
      </trkpt>
      <trkpt lat="45.907" lon="6.4965">
        <ele>2086.3999023438</ele>
        <time>2014-02-12T09:08:27.000Z</time>
      </trkpt>
      <trkpt lat="45.907" lon="6.4965">
        <ele>2086.3999023438</ele>
        <time>2014-02-12T09:08:28.000Z</time>
      </trkpt>
      <trkpt lat="45.907" lon="6.4965">
        <ele>2086.3999023438</ele>
        <time>2014-02-12T09:08:29.000Z</time>
      </trkpt>
      <trkpt lat="45.907" lon="6.4965">
        <ele>2086.3999023438</ele>
        <time>2014-02-12T09:08:30.000Z</time>
      </trkpt>
      <trkpt lat="45.907" lon="6.4965">
        <ele>2086.3999023438</ele>
        <time>2014-02-12T09:08:35.000Z</time>
      </trkpt>
      <trkpt lat="45.907" lon="6.4965">
        <ele>2086.3999023438</ele>
        <time>2014-02-12T09:08:36.000Z</time>
      </trkpt>
      <trkpt lat="45.907" lon="6.4965">
        <ele>2086.3999023438</ele>
        <time>2014-02-12T09:08:37.000Z</time>
      </trkpt>
      <trkpt lat="45.907" lon="6.4965">
        <ele>2086.3999023438</ele>
        <time>2014-02-12T09:08:38.000Z</time>
      </trkpt>
      <trkpt lat="45.907" lon="6.4965">
        <ele>2086.3999023438</ele>
        <time>2014-02-12T09:08:40.000Z</time>
      </trkpt>
      <trkpt lat="45.907" lon="6.4965">
        <ele>2086.3999023438</ele>
        <time>2014-02-12T09:08:41.000Z</time>
      </trkpt>
      <trkpt lat="45.907" lon="6.4965">
        <ele>2086.3999023438</ele>
        <time>2014-02-12T09:08:42.000Z</time>
      </trkpt>
      <trkpt lat="45.907" lon="6.4965">
        <ele>2086.3999023438</ele>
        <time>2014-02-12T09:08:43.000Z</time>
      </trkpt>
      <trkpt lat="45.907" lon="6.4965">
        <ele>2086.3999023438</ele>
        <time>2014-02-12T09:08:44.000Z</time>
      </trkpt>
      <trkpt lat="45.907" lon="6.4965">
        <ele>2086.3999023438</ele>
        <time>2014-02-12T09:08:45.000Z</time>
      </trkpt>
      <trkpt lat="45.907" lon="6.4965">
        <ele>2086.3999023438</ele>
        <time>2014-02-12T09:08:46.000Z</time>
      </trkpt>
      <trkpt lat="45.907" lon="6.4965">
        <ele>2086.3999023438</ele>
        <time>2014-02-12T09:08:47.000Z</time>
      </trkpt>
      <trkpt lat="45.907" lon="6.4965">
        <ele>2086.3999023438</ele>
        <time>2014-02-12T09:08:48.000Z</time>
      </trkpt>
      <trkpt lat="45.907" lon="6.4965">
        <ele>2086.3999023438</ele>
        <time>2014-02-12T09:08:49.000Z</time>
      </trkpt>
      <trkpt lat="45.907" lon="6.4965">
        <ele>2086.3999023438</ele>
        <time>2014-02-12T09:08:50.000Z</time>
      </trkpt>
      <trkpt lat="45.907" lon="6.4965">
        <ele>2086.3999023438</ele>
        <time>2014-02-12T09:08:51.000Z</time>
      </trkpt>
      <trkpt lat="45.907" lon="6.4965">
        <ele>2086.3999023438</ele>
        <time>2014-02-12T09:08:52.000Z</time>
      </trkpt>
      <trkpt lat="45.907" lon="6.4965">
        <ele>2086.3999023438</ele>
        <time>2014-02-12T09:08:53.000Z</time>
      </trkpt>
      <trkpt lat="45.907" lon="6.4965">
        <ele>2086.3999023438</ele>
        <time>2014-02-12T09:08:54.000Z</time>
      </trkpt>
      <trkpt lat="45.907" lon="6.4965">
        <ele>2086.3999023438</ele>
        <time>2014-02-12T09:08:55.000Z</time>
      </trkpt>
      <trkpt lat="45.907" lon="6.4965">
        <ele>2086.3999023438</ele>
        <time>2014-02-12T09:08:56.000Z</time>
      </trkpt>
      <trkpt lat="45.907" lon="6.4965">
        <ele>2086.3999023438</ele>
        <time>2014-02-12T09:08:58.000Z</time>
      </trkpt>
      <trkpt lat="45.907" lon="6.4965">
        <ele>2086.3999023438</ele>
        <time>2014-02-12T09:08:59.000Z</time>
      </trkpt>
      <trkpt lat="45.907" lon="6.4965">
        <ele>2086.3999023438</ele>
        <time>2014-02-12T09:09:00.000Z</time>
      </trkpt>
      <trkpt lat="45.907" lon="6.4965">
        <ele>2086.3999023438</ele>
        <time>2014-02-12T09:09:01.000Z</time>
      </trkpt>
      <trkpt lat="45.907" lon="6.4965">
        <ele>2086.3999023438</ele>
        <time>2014-02-12T09:09:02.000Z</time>
      </trkpt>
      <trkpt lat="45.907" lon="6.4965">
        <ele>2086.3999023438</ele>
        <time>2014-02-12T09:09:03.000Z</time>
      </trkpt>
      <trkpt lat="45.907" lon="6.4965">
        <ele>2086.3999023438</ele>
        <time>2014-02-12T09:09:04.000Z</time>
      </trkpt>
      <trkpt lat="45.907" lon="6.4965">
        <ele>2086.3999023438</ele>
        <time>2014-02-12T09:09:05.000Z</time>
      </trkpt>
      <trkpt lat="45.907" lon="6.4965">
        <ele>2086.3999023438</ele>
        <time>2014-02-12T09:09:10.000Z</time>
      </trkpt>
      <trkpt lat="45.907" lon="6.4965">
        <ele>2086.3999023438</ele>
        <time>2014-02-12T09:09:16.000Z</time>
      </trkpt>
      <trkpt lat="45.907" lon="6.4965">
        <ele>2086.3999023438</ele>
        <time>2014-02-12T09:09:17.000Z</time>
      </trkpt>
      <trkpt lat="45.907" lon="6.4965">
        <ele>2086.3999023438</ele>
        <time>2014-02-12T09:09:18.000Z</time>
      </trkpt>
      <trkpt lat="45.907" lon="6.4965">
        <ele>2086.3999023438</ele>
        <time>2014-02-12T09:09:21.000Z</time>
      </trkpt>
      <trkpt lat="45.907" lon="6.4965">
        <ele>2086.3999023438</ele>
        <time>2014-02-12T09:09:22.000Z</time>
      </trkpt>
      <trkpt lat="45.907" lon="6.4965">
        <ele>2086.3999023438</ele>
        <time>2014-02-12T09:09:23.000Z</time>
      </trkpt>
      <trkpt lat="45.907" lon="6.4965">
        <ele>2086.3999023438</ele>
        <time>2014-02-12T09:09:26.000Z</time>
      </trkpt>
      <trkpt lat="45.907" lon="6.4965">
        <ele>2086.3999023438</ele>
        <time>2014-02-12T09:09:30.000Z</time>
      </trkpt>
      <trkpt lat="45.907" lon="6.4965">
        <ele>2086.3999023438</ele>
        <time>2014-02-12T09:09:31.000Z</time>
      </trkpt>
      <trkpt lat="45.907" lon="6.4965">
        <ele>2086.3999023438</ele>
        <time>2014-02-12T09:09:32.000Z</time>
      </trkpt>
      <trkpt lat="45.907" lon="6.4965">
        <ele>2086.3999023438</ele>
        <time>2014-02-12T09:09:33.000Z</time>
      </trkpt>
      <trkpt lat="45.907" lon="6.4965">
        <ele>2086.3999023438</ele>
        <time>2014-02-12T09:09:34.000Z</time>
      </trkpt>
      <trkpt lat="45.907" lon="6.4965">
        <ele>2086.3999023438</ele>
        <time>2014-02-12T09:09:35.000Z</time>
      </trkpt>
      <trkpt lat="45.907" lon="6.4965">
        <ele>2086.3999023438</ele>
        <time>2014-02-12T09:09:36.000Z</time>
      </trkpt>
      <trkpt lat="45.907" lon="6.4965">
        <ele>2086.3999023438</ele>
        <time>2014-02-12T09:09:37.000Z</time>
      </trkpt>
      <trkpt lat="45.907" lon="6.4965">
        <ele>2086.3999023438</ele>
        <time>2014-02-12T09:09:38.000Z</time>
      </trkpt>
      <trkpt lat="45.907" lon="6.4965">
        <ele>2086.3999023438</ele>
        <time>2014-02-12T09:09:39.000Z</time>
      </trkpt>
      <trkpt lat="45.907" lon="6.4965">
        <ele>2086.3999023438</ele>
        <time>2014-02-12T09:09:40.000Z</time>
      </trkpt>
      <trkpt lat="45.907" lon="6.4965">
        <ele>2086.3999023438</ele>
        <time>2014-02-12T09:09:41.000Z</time>
      </trkpt>
      <trkpt lat="45.907" lon="6.4965">
        <ele>2086.3999023438</ele>
        <time>2014-02-12T09:09:42.000Z</time>
      </trkpt>
      <trkpt lat="45.907" lon="6.4965">
        <ele>2086.3999023438</ele>
        <time>2014-02-12T09:09:43.000Z</time>
      </trkpt>
      <trkpt lat="45.907" lon="6.4965">
        <ele>2086.3999023438</ele>
        <time>2014-02-12T09:09:44.000Z</time>
      </trkpt>
      <trkpt lat="45.907" lon="6.4965">
        <ele>2086.3999023438</ele>
        <time>2014-02-12T09:09:45.000Z</time>
      </trkpt>
      <trkpt lat="45.907" lon="6.4965">
        <ele>2086.3999023438</ele>
        <time>2014-02-12T09:09:46.000Z</time>
      </trkpt>
      <trkpt lat="45.907" lon="6.4965">
        <ele>2086.3999023438</ele>
        <time>2014-02-12T09:09:47.000Z</time>
      </trkpt>
      <trkpt lat="45.907" lon="6.4965">
        <ele>2086.3999023438</ele>
        <time>2014-02-12T09:09:48.000Z</time>
      </trkpt>
      <trkpt lat="45.907" lon="6.4965">
        <ele>2086.3999023438</ele>
        <time>2014-02-12T09:09:50.000Z</time>
      </trkpt>
      <trkpt lat="45.907" lon="6.4965">
        <ele>2086.3999023438</ele>
        <time>2014-02-12T09:09:51.000Z</time>
      </trkpt>
      <trkpt lat="45.907" lon="6.4965">
        <ele>2086.3999023438</ele>
        <time>2014-02-12T09:09:52.000Z</time>
      </trkpt>
      <trkpt lat="45.90701" lon="6.49651">
        <ele>2086.6000976562</ele>
        <time>2014-02-12T09:09:54.000Z</time>
      </trkpt>
      <trkpt lat="45.90701" lon="6.49651">
        <ele>2086.6000976562</ele>
        <time>2014-02-12T09:09:55.000Z</time>
      </trkpt>
      <trkpt lat="45.90701" lon="6.49651">
        <ele>2086.6000976562</ele>
        <time>2014-02-12T09:09:56.000Z</time>
      </trkpt>
      <trkpt lat="45.90701" lon="6.49651">
        <ele>2086.6000976562</ele>
        <time>2014-02-12T09:09:57.000Z</time>
      </trkpt>
      <trkpt lat="45.90701" lon="6.49651">
        <ele>2086.6000976562</ele>
        <time>2014-02-12T09:09:58.000Z</time>
      </trkpt>
      <trkpt lat="45.90701" lon="6.49651">
        <ele>2086.6000976562</ele>
        <time>2014-02-12T09:09:59.000Z</time>
      </trkpt>
      <trkpt lat="45.90701" lon="6.49651">
        <ele>2086.6000976562</ele>
        <time>2014-02-12T09:10:00.000Z</time>
      </trkpt>
      <trkpt lat="45.90701" lon="6.49651">
        <ele>2086.6000976562</ele>
        <time>2014-02-12T09:10:01.000Z</time>
      </trkpt>
      <trkpt lat="45.90701" lon="6.49651">
        <ele>2086.6000976562</ele>
        <time>2014-02-12T09:10:02.000Z</time>
      </trkpt>
      <trkpt lat="45.90701" lon="6.49651">
        <ele>2086.6000976562</ele>
        <time>2014-02-12T09:10:03.000Z</time>
      </trkpt>
      <trkpt lat="45.90701" lon="6.49651">
        <ele>2086.6000976562</ele>
        <time>2014-02-12T09:10:04.000Z</time>
      </trkpt>
      <trkpt lat="45.90701" lon="6.49651">
        <ele>2086.6000976562</ele>
        <time>2014-02-12T09:10:05.000Z</time>
      </trkpt>
      <trkpt lat="45.90701" lon="6.49651">
        <ele>2086.6000976562</ele>
        <time>2014-02-12T09:10:07.000Z</time>
      </trkpt>
      <trkpt lat="45.90701" lon="6.49651">
        <ele>2086.6000976562</ele>
        <time>2014-02-12T09:10:08.000Z</time>
      </trkpt>
      <trkpt lat="45.90701" lon="6.49651">
        <ele>2086.6000976562</ele>
        <time>2014-02-12T09:10:09.000Z</time>
      </trkpt>
      <trkpt lat="45.90701" lon="6.49651">
        <ele>2086.6000976562</ele>
        <time>2014-02-12T09:10:10.000Z</time>
      </trkpt>
      <trkpt lat="45.90701" lon="6.49651">
        <ele>2086.6000976562</ele>
        <time>2014-02-12T09:10:11.000Z</time>
      </trkpt>
      <trkpt lat="45.90701" lon="6.49651">
        <ele>2086.6000976562</ele>
        <time>2014-02-12T09:10:13.000Z</time>
      </trkpt>
      <trkpt lat="45.90701" lon="6.49651">
        <ele>2086.6000976562</ele>
        <time>2014-02-12T09:10:14.000Z</time>
      </trkpt>
      <trkpt lat="45.90701" lon="6.49651">
        <ele>2086.6000976562</ele>
        <time>2014-02-12T09:10:15.000Z</time>
      </trkpt>
      <trkpt lat="45.90701" lon="6.49651">
        <ele>2086.6000976562</ele>
        <time>2014-02-12T09:10:16.000Z</time>
      </trkpt>
      <trkpt lat="45.90701" lon="6.49651">
        <ele>2086.6000976562</ele>
        <time>2014-02-12T09:10:18.000Z</time>
      </trkpt>
      <trkpt lat="45.90701" lon="6.49651">
        <ele>2086.6000976562</ele>
        <time>2014-02-12T09:10:19.000Z</time>
      </trkpt>
      <trkpt lat="45.90701" lon="6.49651">
        <ele>2086.6000976562</ele>
        <time>2014-02-12T09:10:21.000Z</time>
      </trkpt>
      <trkpt lat="45.90701" lon="6.49651">
        <ele>2086.6000976562</ele>
        <time>2014-02-12T09:10:22.000Z</time>
      </trkpt>
      <trkpt lat="45.90701" lon="6.49651">
        <ele>2086.6000976562</ele>
        <time>2014-02-12T09:10:23.000Z</time>
      </trkpt>
      <trkpt lat="45.90701" lon="6.49651">
        <ele>2086.6000976562</ele>
        <time>2014-02-12T09:10:24.000Z</time>
      </trkpt>
      <trkpt lat="45.90701" lon="6.49651">
        <ele>2086.6000976562</ele>
        <time>2014-02-12T09:10:25.000Z</time>
      </trkpt>
      <trkpt lat="45.90701" lon="6.49651">
        <ele>2086.6000976562</ele>
        <time>2014-02-12T09:10:26.000Z</time>
      </trkpt>
      <trkpt lat="45.90701" lon="6.49651">
        <ele>2086.6000976562</ele>
        <time>2014-02-12T09:10:27.000Z</time>
      </trkpt>
      <trkpt lat="45.90701" lon="6.49651">
        <ele>2086.6000976562</ele>
        <time>2014-02-12T09:10:28.000Z</time>
      </trkpt>
      <trkpt lat="45.90701" lon="6.49651">
        <ele>2086.6000976562</ele>
        <time>2014-02-12T09:10:29.000Z</time>
      </trkpt>
      <trkpt lat="45.90701" lon="6.49651">
        <ele>2086.6000976562</ele>
        <time>2014-02-12T09:10:30.000Z</time>
      </trkpt>
      <trkpt lat="45.90701" lon="6.49651">
        <ele>2086.6000976562</ele>
        <time>2014-02-12T09:10:31.000Z</time>
      </trkpt>
      <trkpt lat="45.90701" lon="6.49651">
        <ele>2086.6000976562</ele>
        <time>2014-02-12T09:10:32.000Z</time>
      </trkpt>
      <trkpt lat="45.90701" lon="6.49651">
        <ele>2086.6000976562</ele>
        <time>2014-02-12T09:10:33.000Z</time>
      </trkpt>
      <trkpt lat="45.90701" lon="6.49652">
        <ele>2086.6000976562</ele>
        <time>2014-02-12T09:10:34.000Z</time>
      </trkpt>
      <trkpt lat="45.90701" lon="6.49652">
        <ele>2086.6000976562</ele>
        <time>2014-02-12T09:10:35.000Z</time>
      </trkpt>
      <trkpt lat="45.90701" lon="6.49652">
        <ele>2086.6000976562</ele>
        <time>2014-02-12T09:10:36.000Z</time>
      </trkpt>
      <trkpt lat="45.90701" lon="6.49652">
        <ele>2086.6000976562</ele>
        <time>2014-02-12T09:10:37.000Z</time>
      </trkpt>
      <trkpt lat="45.90701" lon="6.49652">
        <ele>2086.6000976562</ele>
        <time>2014-02-12T09:10:38.000Z</time>
      </trkpt>
      <trkpt lat="45.90701" lon="6.49652">
        <ele>2086.6000976562</ele>
        <time>2014-02-12T09:10:39.000Z</time>
      </trkpt>
      <trkpt lat="45.90701" lon="6.49652">
        <ele>2086.6000976562</ele>
        <time>2014-02-12T09:10:40.000Z</time>
      </trkpt>
      <trkpt lat="45.90701" lon="6.49652">
        <ele>2086.6000976562</ele>
        <time>2014-02-12T09:10:44.000Z</time>
      </trkpt>
      <trkpt lat="45.90701" lon="6.49652">
        <ele>2086.6000976562</ele>
        <time>2014-02-12T09:10:45.000Z</time>
      </trkpt>
      <trkpt lat="45.90701" lon="6.49652">
        <ele>2086.6000976562</ele>
        <time>2014-02-12T09:10:46.000Z</time>
      </trkpt>
      <trkpt lat="45.90701" lon="6.49652">
        <ele>2086.6000976562</ele>
        <time>2014-02-12T09:10:47.000Z</time>
      </trkpt>
      <trkpt lat="45.90701" lon="6.49652">
        <ele>2086.6000976562</ele>
        <time>2014-02-12T09:10:48.000Z</time>
      </trkpt>
      <trkpt lat="45.90701" lon="6.49652">
        <ele>2086.6000976562</ele>
        <time>2014-02-12T09:10:50.000Z</time>
      </trkpt>
      <trkpt lat="45.90701" lon="6.49652">
        <ele>2086.6000976562</ele>
        <time>2014-02-12T09:10:51.000Z</time>
      </trkpt>
      <trkpt lat="45.90701" lon="6.49652">
        <ele>2086.6000976562</ele>
        <time>2014-02-12T09:10:52.000Z</time>
      </trkpt>
      <trkpt lat="45.90701" lon="6.49652">
        <ele>2086.6000976562</ele>
        <time>2014-02-12T09:10:53.000Z</time>
      </trkpt>
      <trkpt lat="45.90701" lon="6.49652">
        <ele>2086.6000976562</ele>
        <time>2014-02-12T09:10:54.000Z</time>
      </trkpt>
      <trkpt lat="45.90701" lon="6.49652">
        <ele>2086.6000976562</ele>
        <time>2014-02-12T09:10:55.000Z</time>
      </trkpt>
      <trkpt lat="45.90701" lon="6.49652">
        <ele>2086.6000976562</ele>
        <time>2014-02-12T09:10:56.000Z</time>
      </trkpt>
      <trkpt lat="45.90701" lon="6.49652">
        <ele>2086.6000976562</ele>
        <time>2014-02-12T09:10:57.000Z</time>
      </trkpt>
      <trkpt lat="45.90701" lon="6.49652">
        <ele>2086.6000976562</ele>
        <time>2014-02-12T09:10:58.000Z</time>
      </trkpt>
      <trkpt lat="45.90701" lon="6.49652">
        <ele>2086.6000976562</ele>
        <time>2014-02-12T09:10:59.000Z</time>
      </trkpt>
      <trkpt lat="45.90701" lon="6.49652">
        <ele>2086.6000976562</ele>
        <time>2014-02-12T09:11:00.000Z</time>
      </trkpt>
      <trkpt lat="45.90701" lon="6.49652">
        <ele>2086.6000976562</ele>
        <time>2014-02-12T09:11:01.000Z</time>
      </trkpt>
      <trkpt lat="45.90701" lon="6.49652">
        <ele>2086.6000976562</ele>
        <time>2014-02-12T09:11:03.000Z</time>
      </trkpt>
      <trkpt lat="45.90701" lon="6.49652">
        <ele>2086.6000976562</ele>
        <time>2014-02-12T09:11:04.000Z</time>
      </trkpt>
      <trkpt lat="45.90701" lon="6.49652">
        <ele>2086.6000976562</ele>
        <time>2014-02-12T09:11:05.000Z</time>
      </trkpt>
      <trkpt lat="45.90701" lon="6.49652">
        <ele>2086.6000976562</ele>
        <time>2014-02-12T09:11:06.000Z</time>
      </trkpt>
      <trkpt lat="45.90701" lon="6.49652">
        <ele>2086.6000976562</ele>
        <time>2014-02-12T09:11:07.000Z</time>
      </trkpt>
      <trkpt lat="45.90701" lon="6.49652">
        <ele>2086.6000976562</ele>
        <time>2014-02-12T09:11:08.000Z</time>
      </trkpt>
      <trkpt lat="45.90701" lon="6.49652">
        <ele>2086.6000976562</ele>
        <time>2014-02-12T09:11:09.000Z</time>
      </trkpt>
      <trkpt lat="45.90701" lon="6.49652">
        <ele>2086.6000976562</ele>
        <time>2014-02-12T09:11:10.000Z</time>
      </trkpt>
      <trkpt lat="45.90701" lon="6.49652">
        <ele>2086.6000976562</ele>
        <time>2014-02-12T09:11:11.000Z</time>
      </trkpt>
      <trkpt lat="45.90701" lon="6.49652">
        <ele>2086.6000976562</ele>
        <time>2014-02-12T09:11:13.000Z</time>
      </trkpt>
      <trkpt lat="45.90701" lon="6.49651">
        <ele>2086.6000976562</ele>
        <time>2014-02-12T09:11:14.000Z</time>
      </trkpt>
      <trkpt lat="45.90701" lon="6.49651">
        <ele>2086.6000976562</ele>
        <time>2014-02-12T09:11:15.000Z</time>
      </trkpt>
      <trkpt lat="45.90701" lon="6.49651">
        <ele>2086.6000976562</ele>
        <time>2014-02-12T09:11:16.000Z</time>
      </trkpt>
      <trkpt lat="45.90701" lon="6.49651">
        <ele>2086.6000976562</ele>
        <time>2014-02-12T09:11:17.000Z</time>
      </trkpt>
      <trkpt lat="45.90701" lon="6.49651">
        <ele>2086.6000976562</ele>
        <time>2014-02-12T09:11:18.000Z</time>
      </trkpt>
      <trkpt lat="45.90701" lon="6.49651">
        <ele>2086.6000976562</ele>
        <time>2014-02-12T09:11:19.000Z</time>
      </trkpt>
      <trkpt lat="45.90701" lon="6.49651">
        <ele>2086.6000976562</ele>
        <time>2014-02-12T09:11:21.000Z</time>
      </trkpt>
      <trkpt lat="45.90701" lon="6.49651">
        <ele>2086.6000976562</ele>
        <time>2014-02-12T09:11:22.000Z</time>
      </trkpt>
      <trkpt lat="45.90701" lon="6.49651">
        <ele>2086.6000976562</ele>
        <time>2014-02-12T09:11:23.000Z</time>
      </trkpt>
      <trkpt lat="45.90701" lon="6.49651">
        <ele>2086.6000976562</ele>
        <time>2014-02-12T09:11:25.000Z</time>
      </trkpt>
      <trkpt lat="45.90701" lon="6.49651">
        <ele>2086.6000976562</ele>
        <time>2014-02-12T09:11:26.000Z</time>
      </trkpt>
      <trkpt lat="45.90701" lon="6.49651">
        <ele>2086.6000976562</ele>
        <time>2014-02-12T09:11:27.000Z</time>
      </trkpt>
      <trkpt lat="45.90701" lon="6.49651">
        <ele>2086.6000976562</ele>
        <time>2014-02-12T09:11:28.000Z</time>
      </trkpt>
      <trkpt lat="45.90701" lon="6.49651">
        <ele>2086.6000976562</ele>
        <time>2014-02-12T09:11:29.000Z</time>
      </trkpt>
      <trkpt lat="45.90701" lon="6.49651">
        <ele>2086.6000976562</ele>
        <time>2014-02-12T09:11:30.000Z</time>
      </trkpt>
      <trkpt lat="45.90701" lon="6.49651">
        <ele>2086.6000976562</ele>
        <time>2014-02-12T09:11:31.000Z</time>
      </trkpt>
      <trkpt lat="45.90701" lon="6.49651">
        <ele>2086.6000976562</ele>
        <time>2014-02-12T09:11:32.000Z</time>
      </trkpt>
      <trkpt lat="45.90701" lon="6.49651">
        <ele>2086.6000976562</ele>
        <time>2014-02-12T09:11:33.000Z</time>
      </trkpt>
      <trkpt lat="45.90701" lon="6.49651">
        <ele>2086.6000976562</ele>
        <time>2014-02-12T09:11:34.000Z</time>
      </trkpt>
      <trkpt lat="45.90701" lon="6.49651">
        <ele>2086.6000976562</ele>
        <time>2014-02-12T09:11:35.000Z</time>
      </trkpt>
      <trkpt lat="45.90701" lon="6.49651">
        <ele>2086.6000976562</ele>
        <time>2014-02-12T09:11:36.000Z</time>
      </trkpt>
      <trkpt lat="45.90701" lon="6.49651">
        <ele>2086.6000976562</ele>
        <time>2014-02-12T09:11:37.000Z</time>
      </trkpt>
      <trkpt lat="45.90701" lon="6.49651">
        <ele>2086.6000976562</ele>
        <time>2014-02-12T09:11:40.000Z</time>
      </trkpt>
      <trkpt lat="45.90701" lon="6.49651">
        <ele>2086.6000976562</ele>
        <time>2014-02-12T09:11:41.000Z</time>
      </trkpt>
      <trkpt lat="45.90701" lon="6.49651">
        <ele>2086.6000976562</ele>
        <time>2014-02-12T09:11:42.000Z</time>
      </trkpt>
      <trkpt lat="45.90701" lon="6.49651">
        <ele>2086.6000976562</ele>
        <time>2014-02-12T09:11:46.000Z</time>
      </trkpt>
      <trkpt lat="45.90701" lon="6.49651">
        <ele>2086.6000976562</ele>
        <time>2014-02-12T09:11:47.000Z</time>
      </trkpt>
      <trkpt lat="45.90701" lon="6.49651">
        <ele>2086.6000976562</ele>
        <time>2014-02-12T09:11:48.000Z</time>
      </trkpt>
      <trkpt lat="45.90701" lon="6.49651">
        <ele>2086.6000976562</ele>
        <time>2014-02-12T09:11:49.000Z</time>
      </trkpt>
      <trkpt lat="45.90701" lon="6.49651">
        <ele>2086.6000976562</ele>
        <time>2014-02-12T09:11:50.000Z</time>
      </trkpt>
      <trkpt lat="45.90701" lon="6.49651">
        <ele>2086.6000976562</ele>
        <time>2014-02-12T09:11:51.000Z</time>
      </trkpt>
      <trkpt lat="45.90701" lon="6.49651">
        <ele>2086.6000976562</ele>
        <time>2014-02-12T09:11:52.000Z</time>
      </trkpt>
      <trkpt lat="45.90701" lon="6.49651">
        <ele>2086.6000976562</ele>
        <time>2014-02-12T09:11:53.000Z</time>
      </trkpt>
      <trkpt lat="45.90701" lon="6.49651">
        <ele>2086.6000976562</ele>
        <time>2014-02-12T09:11:54.000Z</time>
      </trkpt>
      <trkpt lat="45.90701" lon="6.49651">
        <ele>2086.6000976562</ele>
        <time>2014-02-12T09:11:55.000Z</time>
      </trkpt>
      <trkpt lat="45.90701" lon="6.49651">
        <ele>2086.6000976562</ele>
        <time>2014-02-12T09:11:56.000Z</time>
      </trkpt>
      <trkpt lat="45.90701" lon="6.49651">
        <ele>2086.6000976562</ele>
        <time>2014-02-12T09:11:57.000Z</time>
      </trkpt>
      <trkpt lat="45.90701" lon="6.49651">
        <ele>2086.6000976562</ele>
        <time>2014-02-12T09:11:59.000Z</time>
      </trkpt>
      <trkpt lat="45.90701" lon="6.49651">
        <ele>2086.6000976562</ele>
        <time>2014-02-12T09:12:00.000Z</time>
      </trkpt>
      <trkpt lat="45.90701" lon="6.49651">
        <ele>2086.6000976562</ele>
        <time>2014-02-12T09:12:01.000Z</time>
      </trkpt>
      <trkpt lat="45.90701" lon="6.49651">
        <ele>2086.6000976562</ele>
        <time>2014-02-12T09:12:04.000Z</time>
      </trkpt>
      <trkpt lat="45.90701" lon="6.49651">
        <ele>2086.6000976562</ele>
        <time>2014-02-12T09:12:06.000Z</time>
      </trkpt>
      <trkpt lat="45.90701" lon="6.49651">
        <ele>2086.6000976562</ele>
        <time>2014-02-12T09:12:09.000Z</time>
      </trkpt>
      <trkpt lat="45.90701" lon="6.49651">
        <ele>2086.6000976562</ele>
        <time>2014-02-12T09:12:10.000Z</time>
      </trkpt>
      <trkpt lat="45.90701" lon="6.49651">
        <ele>2086.6000976562</ele>
        <time>2014-02-12T09:12:11.000Z</time>
      </trkpt>
      <trkpt lat="45.90701" lon="6.49651">
        <ele>2086.6000976562</ele>
        <time>2014-02-12T09:12:12.000Z</time>
      </trkpt>
      <trkpt lat="45.90701" lon="6.49651">
        <ele>2086.6000976562</ele>
        <time>2014-02-12T09:12:16.000Z</time>
      </trkpt>
      <trkpt lat="45.90701" lon="6.49651">
        <ele>2086.6000976562</ele>
        <time>2014-02-12T09:12:19.000Z</time>
      </trkpt>
      <trkpt lat="45.90701" lon="6.49651">
        <ele>2086.6000976562</ele>
        <time>2014-02-12T09:12:20.000Z</time>
      </trkpt>
      <trkpt lat="45.90701" lon="6.49651">
        <ele>2086.6000976562</ele>
        <time>2014-02-12T09:12:21.000Z</time>
      </trkpt>
      <trkpt lat="45.90701" lon="6.49651">
        <ele>2086.6000976562</ele>
        <time>2014-02-12T09:12:22.000Z</time>
      </trkpt>
      <trkpt lat="45.90701" lon="6.49651">
        <ele>2086.6000976562</ele>
        <time>2014-02-12T09:12:23.000Z</time>
      </trkpt>
      <trkpt lat="45.90701" lon="6.49651">
        <ele>2086.6000976562</ele>
        <time>2014-02-12T09:12:24.000Z</time>
      </trkpt>
      <trkpt lat="45.90701" lon="6.49651">
        <ele>2086.6000976562</ele>
        <time>2014-02-12T09:12:25.000Z</time>
      </trkpt>
      <trkpt lat="45.90701" lon="6.49651">
        <ele>2086.6000976562</ele>
        <time>2014-02-12T09:12:26.000Z</time>
      </trkpt>
      <trkpt lat="45.90701" lon="6.49651">
        <ele>2086.6000976562</ele>
        <time>2014-02-12T09:12:27.000Z</time>
      </trkpt>
      <trkpt lat="45.90701" lon="6.49651">
        <ele>2086.6000976562</ele>
        <time>2014-02-12T09:12:28.000Z</time>
      </trkpt>
      <trkpt lat="45.90701" lon="6.49652">
        <ele>2086.6000976562</ele>
        <time>2014-02-12T09:12:34.000Z</time>
      </trkpt>
      <trkpt lat="45.90701" lon="6.49652">
        <ele>2086.6000976562</ele>
        <time>2014-02-12T09:12:35.000Z</time>
      </trkpt>
      <trkpt lat="45.90701" lon="6.49652">
        <ele>2086.6000976562</ele>
        <time>2014-02-12T09:12:36.000Z</time>
      </trkpt>
      <trkpt lat="45.90701" lon="6.49652">
        <ele>2086.6000976562</ele>
        <time>2014-02-12T09:12:37.000Z</time>
      </trkpt>
      <trkpt lat="45.90701" lon="6.49652">
        <ele>2086.6000976562</ele>
        <time>2014-02-12T09:12:39.000Z</time>
      </trkpt>
      <trkpt lat="45.90701" lon="6.49652">
        <ele>2086.6000976562</ele>
        <time>2014-02-12T09:12:40.000Z</time>
      </trkpt>
      <trkpt lat="45.90701" lon="6.49652">
        <ele>2086.6000976562</ele>
        <time>2014-02-12T09:12:41.000Z</time>
      </trkpt>
      <trkpt lat="45.90701" lon="6.49652">
        <ele>2086.6000976562</ele>
        <time>2014-02-12T09:12:42.000Z</time>
      </trkpt>
      <trkpt lat="45.90701" lon="6.49652">
        <ele>2086.6000976562</ele>
        <time>2014-02-12T09:12:43.000Z</time>
      </trkpt>
      <trkpt lat="45.90701" lon="6.49652">
        <ele>2086.6000976562</ele>
        <time>2014-02-12T09:12:44.000Z</time>
      </trkpt>
      <trkpt lat="45.90701" lon="6.49652">
        <ele>2086.6000976562</ele>
        <time>2014-02-12T09:12:45.000Z</time>
      </trkpt>
      <trkpt lat="45.90701" lon="6.49652">
        <ele>2086.6000976562</ele>
        <time>2014-02-12T09:12:46.000Z</time>
      </trkpt>
      <trkpt lat="45.90701" lon="6.49652">
        <ele>2086.6000976562</ele>
        <time>2014-02-12T09:12:47.000Z</time>
      </trkpt>
      <trkpt lat="45.90701" lon="6.49652">
        <ele>2086.6000976562</ele>
        <time>2014-02-12T09:12:48.000Z</time>
      </trkpt>
      <trkpt lat="45.90701" lon="6.49652">
        <ele>2086.6000976562</ele>
        <time>2014-02-12T09:12:49.000Z</time>
      </trkpt>
      <trkpt lat="45.90701" lon="6.49652">
        <ele>2086.6000976562</ele>
        <time>2014-02-12T09:12:50.000Z</time>
      </trkpt>
      <trkpt lat="45.90701" lon="6.49652">
        <ele>2086.6000976562</ele>
        <time>2014-02-12T09:12:53.000Z</time>
      </trkpt>
      <trkpt lat="45.90701" lon="6.49652">
        <ele>2086.6000976562</ele>
        <time>2014-02-12T09:12:54.000Z</time>
      </trkpt>
      <trkpt lat="45.90701" lon="6.49652">
        <ele>2086.6000976562</ele>
        <time>2014-02-12T09:12:55.000Z</time>
      </trkpt>
      <trkpt lat="45.90701" lon="6.49652">
        <ele>2086.6000976562</ele>
        <time>2014-02-12T09:12:57.000Z</time>
      </trkpt>
      <trkpt lat="45.90701" lon="6.49652">
        <ele>2086.6000976562</ele>
        <time>2014-02-12T09:12:58.000Z</time>
      </trkpt>
      <trkpt lat="45.90701" lon="6.49652">
        <ele>2086.6000976562</ele>
        <time>2014-02-12T09:12:59.000Z</time>
      </trkpt>
      <trkpt lat="45.90701" lon="6.49652">
        <ele>2086.6000976562</ele>
        <time>2014-02-12T09:13:00.000Z</time>
      </trkpt>
      <trkpt lat="45.90701" lon="6.49652">
        <ele>2086.6000976562</ele>
        <time>2014-02-12T09:13:01.000Z</time>
      </trkpt>
      <trkpt lat="45.90701" lon="6.49652">
        <ele>2086.6000976562</ele>
        <time>2014-02-12T09:13:02.000Z</time>
      </trkpt>
      <trkpt lat="45.90701" lon="6.49652">
        <ele>2086.6000976562</ele>
        <time>2014-02-12T09:13:03.000Z</time>
      </trkpt>
      <trkpt lat="45.90701" lon="6.49652">
        <ele>2086.6000976562</ele>
        <time>2014-02-12T09:13:04.000Z</time>
      </trkpt>
      <trkpt lat="45.90701" lon="6.49652">
        <ele>2086.6000976562</ele>
        <time>2014-02-12T09:13:05.000Z</time>
      </trkpt>
      <trkpt lat="45.90701" lon="6.49652">
        <ele>2086.6000976562</ele>
        <time>2014-02-12T09:13:09.000Z</time>
      </trkpt>
      <trkpt lat="45.90701" lon="6.49652">
        <ele>2086.6000976562</ele>
        <time>2014-02-12T09:13:10.000Z</time>
      </trkpt>
      <trkpt lat="45.90701" lon="6.49652">
        <ele>2086.6000976562</ele>
        <time>2014-02-12T09:13:11.000Z</time>
      </trkpt>
      <trkpt lat="45.90701" lon="6.49652">
        <ele>2086.6000976562</ele>
        <time>2014-02-12T09:13:12.000Z</time>
      </trkpt>
      <trkpt lat="45.90701" lon="6.49652">
        <ele>2086.6000976562</ele>
        <time>2014-02-12T09:13:13.000Z</time>
      </trkpt>
      <trkpt lat="45.90701" lon="6.49651">
        <ele>2086.3999023438</ele>
        <time>2014-02-12T09:13:14.000Z</time>
      </trkpt>
      <trkpt lat="45.90701" lon="6.49651">
        <ele>2086.3999023438</ele>
        <time>2014-02-12T09:13:16.000Z</time>
      </trkpt>
      <trkpt lat="45.90701" lon="6.49651">
        <ele>2086.3999023438</ele>
        <time>2014-02-12T09:13:17.000Z</time>
      </trkpt>
      <trkpt lat="45.90701" lon="6.49651">
        <ele>2086.3999023438</ele>
        <time>2014-02-12T09:13:18.000Z</time>
      </trkpt>
      <trkpt lat="45.90701" lon="6.49651">
        <ele>2086.3999023438</ele>
        <time>2014-02-12T09:13:19.000Z</time>
      </trkpt>
      <trkpt lat="45.90701" lon="6.49651">
        <ele>2086.3999023438</ele>
        <time>2014-02-12T09:13:20.000Z</time>
      </trkpt>
      <trkpt lat="45.90701" lon="6.49651">
        <ele>2086.3999023438</ele>
        <time>2014-02-12T09:13:21.000Z</time>
      </trkpt>
      <trkpt lat="45.907" lon="6.4965">
        <ele>2086.6000976562</ele>
        <time>2014-02-12T09:13:22.000Z</time>
      </trkpt>
      <trkpt lat="45.90699" lon="6.4965">
        <ele>2086.6000976562</ele>
        <time>2014-02-12T09:13:23.000Z</time>
      </trkpt>
      <trkpt lat="45.90698" lon="6.4965">
        <ele>2086.8000488281</ele>
        <time>2014-02-12T09:13:24.000Z</time>
      </trkpt>
      <trkpt lat="45.90697" lon="6.4965">
        <ele>2086.8000488281</ele>
        <time>2014-02-12T09:13:25.000Z</time>
      </trkpt>
      <trkpt lat="45.90696" lon="6.4965">
        <ele>2087</ele>
        <time>2014-02-12T09:13:26.000Z</time>
      </trkpt>
      <trkpt lat="45.90695" lon="6.4965">
        <ele>2087</ele>
        <time>2014-02-12T09:13:27.000Z</time>
      </trkpt>
      <trkpt lat="45.90694" lon="6.4965">
        <ele>2087.1999511719</ele>
        <time>2014-02-12T09:13:28.000Z</time>
      </trkpt>
      <trkpt lat="45.90693" lon="6.4965">
        <ele>2087.1999511719</ele>
        <time>2014-02-12T09:13:29.000Z</time>
      </trkpt>
      <trkpt lat="45.90692" lon="6.4965">
        <ele>2087.3999023438</ele>
        <time>2014-02-12T09:13:30.000Z</time>
      </trkpt>
      <trkpt lat="45.90691" lon="6.4965">
        <ele>2087.6000976562</ele>
        <time>2014-02-12T09:13:31.000Z</time>
      </trkpt>
      <trkpt lat="45.9069" lon="6.4965">
        <ele>2087.8000488281</ele>
        <time>2014-02-12T09:13:32.000Z</time>
      </trkpt>
      <trkpt lat="45.90689" lon="6.4965">
        <ele>2088</ele>
        <time>2014-02-12T09:13:33.000Z</time>
      </trkpt>
      <trkpt lat="45.90688" lon="6.49651">
        <ele>2088.1999511719</ele>
        <time>2014-02-12T09:13:34.000Z</time>
      </trkpt>
      <trkpt lat="45.90687" lon="6.49651">
        <ele>2088.3999023438</ele>
        <time>2014-02-12T09:13:35.000Z</time>
      </trkpt>
      <trkpt lat="45.90686" lon="6.49651">
        <ele>2088.8000488281</ele>
        <time>2014-02-12T09:13:36.000Z</time>
      </trkpt>
      <trkpt lat="45.90686" lon="6.49652">
        <ele>2089</ele>
        <time>2014-02-12T09:13:37.000Z</time>
      </trkpt>
      <trkpt lat="45.90685" lon="6.49652">
        <ele>2089.1999511719</ele>
        <time>2014-02-12T09:13:38.000Z</time>
      </trkpt>
      <trkpt lat="45.90684" lon="6.49653">
        <ele>2089.6000976562</ele>
        <time>2014-02-12T09:13:39.000Z</time>
      </trkpt>
      <trkpt lat="45.90683" lon="6.49654">
        <ele>2089.8000488281</ele>
        <time>2014-02-12T09:13:40.000Z</time>
      </trkpt>
      <trkpt lat="45.90683" lon="6.49654">
        <ele>2090</ele>
        <time>2014-02-12T09:13:41.000Z</time>
      </trkpt>
      <trkpt lat="45.90682" lon="6.49655">
        <ele>2090.1999511719</ele>
        <time>2014-02-12T09:13:42.000Z</time>
      </trkpt>
      <trkpt lat="45.90682" lon="6.49655">
        <ele>2090.6000976562</ele>
        <time>2014-02-12T09:13:43.000Z</time>
      </trkpt>
      <trkpt lat="45.90681" lon="6.49656">
        <ele>2090.8000488281</ele>
        <time>2014-02-12T09:13:44.000Z</time>
      </trkpt>
      <trkpt lat="45.90681" lon="6.49657">
        <ele>2091.1999511719</ele>
        <time>2014-02-12T09:13:45.000Z</time>
      </trkpt>
      <trkpt lat="45.9068" lon="6.49658">
        <ele>2091.3999023438</ele>
        <time>2014-02-12T09:13:46.000Z</time>
      </trkpt>
      <trkpt lat="45.9068" lon="6.49658">
        <ele>2091.3999023438</ele>
        <time>2014-02-12T09:13:47.000Z</time>
      </trkpt>
      <trkpt lat="45.9068" lon="6.49658">
        <ele>2091.3999023438</ele>
        <time>2014-02-12T09:13:48.000Z</time>
      </trkpt>
      <trkpt lat="45.9068" lon="6.49658">
        <ele>2091.3999023438</ele>
        <time>2014-02-12T09:13:49.000Z</time>
      </trkpt>
      <trkpt lat="45.9068" lon="6.49658">
        <ele>2091.3999023438</ele>
        <time>2014-02-12T09:13:50.000Z</time>
      </trkpt>
      <trkpt lat="45.9068" lon="6.49658">
        <ele>2091.3999023438</ele>
        <time>2014-02-12T09:13:51.000Z</time>
      </trkpt>
      <trkpt lat="45.9068" lon="6.49658">
        <ele>2091.3999023438</ele>
        <time>2014-02-12T09:13:53.000Z</time>
      </trkpt>
      <trkpt lat="45.90679" lon="6.49658">
        <ele>2091.6000976562</ele>
        <time>2014-02-12T09:13:54.000Z</time>
      </trkpt>
      <trkpt lat="45.90678" lon="6.49659">
        <ele>2092</ele>
        <time>2014-02-12T09:13:55.000Z</time>
      </trkpt>
      <trkpt lat="45.90678" lon="6.4966">
        <ele>2092.3999023438</ele>
        <time>2014-02-12T09:13:56.000Z</time>
      </trkpt>
      <trkpt lat="45.90678" lon="6.49661">
        <ele>2092.6000976562</ele>
        <time>2014-02-12T09:13:57.000Z</time>
      </trkpt>
      <trkpt lat="45.90677" lon="6.49662">
        <ele>2093.1999511719</ele>
        <time>2014-02-12T09:13:58.000Z</time>
      </trkpt>
      <trkpt lat="45.90676" lon="6.49663">
        <ele>2093.3999023438</ele>
        <time>2014-02-12T09:13:59.000Z</time>
      </trkpt>
      <trkpt lat="45.90676" lon="6.49663">
        <ele>2093.8000488281</ele>
        <time>2014-02-12T09:14:00.000Z</time>
      </trkpt>
      <trkpt lat="45.90675" lon="6.49664">
        <ele>2094</ele>
        <time>2014-02-12T09:14:01.000Z</time>
      </trkpt>
      <trkpt lat="45.90675" lon="6.49665">
        <ele>2094.3999023438</ele>
        <time>2014-02-12T09:14:02.000Z</time>
      </trkpt>
      <trkpt lat="45.90675" lon="6.49666">
        <ele>2094.8000488281</ele>
        <time>2014-02-12T09:14:03.000Z</time>
      </trkpt>
      <trkpt lat="45.90674" lon="6.49668">
        <ele>2095.1999511719</ele>
        <time>2014-02-12T09:14:04.000Z</time>
      </trkpt>
      <trkpt lat="45.90674" lon="6.49669">
        <ele>2095.6000976562</ele>
        <time>2014-02-12T09:14:05.000Z</time>
      </trkpt>
      <trkpt lat="45.90673" lon="6.4967">
        <ele>2096</ele>
        <time>2014-02-12T09:14:06.000Z</time>
      </trkpt>
      <trkpt lat="45.90673" lon="6.49671">
        <ele>2096.1999511719</ele>
        <time>2014-02-12T09:14:07.000Z</time>
      </trkpt>
      <trkpt lat="45.90673" lon="6.49672">
        <ele>2096.6000976562</ele>
        <time>2014-02-12T09:14:08.000Z</time>
      </trkpt>
      <trkpt lat="45.90673" lon="6.49673">
        <ele>2097</ele>
        <time>2014-02-12T09:14:09.000Z</time>
      </trkpt>
      <trkpt lat="45.90672" lon="6.49674">
        <ele>2097.3999023438</ele>
        <time>2014-02-12T09:14:10.000Z</time>
      </trkpt>
      <trkpt lat="45.90672" lon="6.49675">
        <ele>2097.6000976562</ele>
        <time>2014-02-12T09:14:11.000Z</time>
      </trkpt>
      <trkpt lat="45.90671" lon="6.49676">
        <ele>2098</ele>
        <time>2014-02-12T09:14:12.000Z</time>
      </trkpt>
      <trkpt lat="45.90671" lon="6.49676">
        <ele>2098</ele>
        <time>2014-02-12T09:14:13.000Z</time>
      </trkpt>
      <trkpt lat="45.90671" lon="6.49676">
        <ele>2098</ele>
        <time>2014-02-12T09:14:14.000Z</time>
      </trkpt>
      <trkpt lat="45.90671" lon="6.49676">
        <ele>2098</ele>
        <time>2014-02-12T09:14:15.000Z</time>
      </trkpt>
      <trkpt lat="45.90671" lon="6.49676">
        <ele>2098</ele>
        <time>2014-02-12T09:14:16.000Z</time>
      </trkpt>
      <trkpt lat="45.90671" lon="6.49676">
        <ele>2098</ele>
        <time>2014-02-12T09:14:17.000Z</time>
      </trkpt>
      <trkpt lat="45.90671" lon="6.49676">
        <ele>2098</ele>
        <time>2014-02-12T09:14:18.000Z</time>
      </trkpt>
      <trkpt lat="45.90671" lon="6.49676">
        <ele>2098</ele>
        <time>2014-02-12T09:14:19.000Z</time>
      </trkpt>
      <trkpt lat="45.90671" lon="6.49676">
        <ele>2098</ele>
        <time>2014-02-12T09:14:20.000Z</time>
      </trkpt>
      <trkpt lat="45.90671" lon="6.49676">
        <ele>2098</ele>
        <time>2014-02-12T09:14:21.000Z</time>
      </trkpt>
      <trkpt lat="45.90671" lon="6.49676">
        <ele>2098</ele>
        <time>2014-02-12T09:14:22.000Z</time>
      </trkpt>
      <trkpt lat="45.90671" lon="6.49676">
        <ele>2098</ele>
        <time>2014-02-12T09:14:23.000Z</time>
      </trkpt>
      <trkpt lat="45.90671" lon="6.49676">
        <ele>2098</ele>
        <time>2014-02-12T09:14:24.000Z</time>
      </trkpt>
      <trkpt lat="45.90671" lon="6.49676">
        <ele>2098</ele>
        <time>2014-02-12T09:14:25.000Z</time>
      </trkpt>
      <trkpt lat="45.90671" lon="6.49676">
        <ele>2098</ele>
        <time>2014-02-12T09:14:26.000Z</time>
      </trkpt>
      <trkpt lat="45.90671" lon="6.49676">
        <ele>2098</ele>
        <time>2014-02-12T09:14:27.000Z</time>
      </trkpt>
      <trkpt lat="45.90671" lon="6.49676">
        <ele>2098</ele>
        <time>2014-02-12T09:14:28.000Z</time>
      </trkpt>
      <trkpt lat="45.90671" lon="6.49676">
        <ele>2098</ele>
        <time>2014-02-12T09:14:29.000Z</time>
      </trkpt>
      <trkpt lat="45.90671" lon="6.49676">
        <ele>2098</ele>
        <time>2014-02-12T09:14:30.000Z</time>
      </trkpt>
      <trkpt lat="45.90671" lon="6.49676">
        <ele>2098</ele>
        <time>2014-02-12T09:14:31.000Z</time>
      </trkpt>
      <trkpt lat="45.90671" lon="6.49676">
        <ele>2098</ele>
        <time>2014-02-12T09:14:32.000Z</time>
      </trkpt>
      <trkpt lat="45.90671" lon="6.49676">
        <ele>2098</ele>
        <time>2014-02-12T09:14:33.000Z</time>
      </trkpt>
      <trkpt lat="45.90671" lon="6.49676">
        <ele>2098</ele>
        <time>2014-02-12T09:14:34.000Z</time>
      </trkpt>
      <trkpt lat="45.90671" lon="6.49676">
        <ele>2098</ele>
        <time>2014-02-12T09:14:35.000Z</time>
      </trkpt>
      <trkpt lat="45.90671" lon="6.49676">
        <ele>2098</ele>
        <time>2014-02-12T09:14:36.000Z</time>
      </trkpt>
      <trkpt lat="45.90671" lon="6.49676">
        <ele>2098</ele>
        <time>2014-02-12T09:14:37.000Z</time>
      </trkpt>
      <trkpt lat="45.90671" lon="6.49676">
        <ele>2098</ele>
        <time>2014-02-12T09:14:38.000Z</time>
      </trkpt>
      <trkpt lat="45.90671" lon="6.49676">
        <ele>2098</ele>
        <time>2014-02-12T09:14:39.000Z</time>
      </trkpt>
      <trkpt lat="45.90671" lon="6.49676">
        <ele>2098</ele>
        <time>2014-02-12T09:14:40.000Z</time>
      </trkpt>
      <trkpt lat="45.90671" lon="6.49676">
        <ele>2098</ele>
        <time>2014-02-12T09:14:41.000Z</time>
      </trkpt>
      <trkpt lat="45.90671" lon="6.49676">
        <ele>2098</ele>
        <time>2014-02-12T09:14:42.000Z</time>
      </trkpt>
      <trkpt lat="45.90671" lon="6.49676">
        <ele>2098</ele>
        <time>2014-02-12T09:14:43.000Z</time>
      </trkpt>
      <trkpt lat="45.90671" lon="6.49676">
        <ele>2098</ele>
        <time>2014-02-12T09:14:44.000Z</time>
      </trkpt>
      <trkpt lat="45.90671" lon="6.49676">
        <ele>2098</ele>
        <time>2014-02-12T09:14:45.000Z</time>
      </trkpt>
      <trkpt lat="45.90671" lon="6.49676">
        <ele>2098</ele>
        <time>2014-02-12T09:14:46.000Z</time>
      </trkpt>
      <trkpt lat="45.9067" lon="6.49677">
        <ele>2098.6000976562</ele>
        <time>2014-02-12T09:14:47.000Z</time>
      </trkpt>
      <trkpt lat="45.90669" lon="6.49678">
        <ele>2099</ele>
        <time>2014-02-12T09:14:48.000Z</time>
      </trkpt>
      <trkpt lat="45.90669" lon="6.4968">
        <ele>2099.3999023438</ele>
        <time>2014-02-12T09:14:49.000Z</time>
      </trkpt>
      <trkpt lat="45.90669" lon="6.49682">
        <ele>2099.8000488281</ele>
        <time>2014-02-12T09:14:50.000Z</time>
      </trkpt>
      <trkpt lat="45.90669" lon="6.49683">
        <ele>2100</ele>
        <time>2014-02-12T09:14:51.000Z</time>
      </trkpt>
      <trkpt lat="45.90669" lon="6.49685">
        <ele>2100.3999023438</ele>
        <time>2014-02-12T09:14:52.000Z</time>
      </trkpt>
      <trkpt lat="45.90669" lon="6.49686">
        <ele>2100.6000976562</ele>
        <time>2014-02-12T09:14:53.000Z</time>
      </trkpt>
      <trkpt lat="45.90669" lon="6.49687">
        <ele>2100.8000488281</ele>
        <time>2014-02-12T09:14:54.000Z</time>
      </trkpt>
      <trkpt lat="45.90668" lon="6.49688">
        <ele>2101</ele>
        <time>2014-02-12T09:14:55.000Z</time>
      </trkpt>
      <trkpt lat="45.90668" lon="6.4969">
        <ele>2101.1999511719</ele>
        <time>2014-02-12T09:14:56.000Z</time>
      </trkpt>
      <trkpt lat="45.90668" lon="6.49691">
        <ele>2101.6000976562</ele>
        <time>2014-02-12T09:14:57.000Z</time>
      </trkpt>
      <trkpt lat="45.90668" lon="6.49692">
        <ele>2101.8000488281</ele>
        <time>2014-02-12T09:14:58.000Z</time>
      </trkpt>
      <trkpt lat="45.90668" lon="6.49694">
        <ele>2102</ele>
        <time>2014-02-12T09:14:59.000Z</time>
      </trkpt>
      <trkpt lat="45.90668" lon="6.49695">
        <ele>2102.3999023438</ele>
        <time>2014-02-12T09:15:00.000Z</time>
      </trkpt>
      <trkpt lat="45.90668" lon="6.49696">
        <ele>2102.6000976562</ele>
        <time>2014-02-12T09:15:01.000Z</time>
      </trkpt>
      <trkpt lat="45.90668" lon="6.49697">
        <ele>2102.8000488281</ele>
        <time>2014-02-12T09:15:02.000Z</time>
      </trkpt>
      <trkpt lat="45.90667" lon="6.49698">
        <ele>2103</ele>
        <time>2014-02-12T09:15:03.000Z</time>
      </trkpt>
      <trkpt lat="45.90667" lon="6.497">
        <ele>2103.1999511719</ele>
        <time>2014-02-12T09:15:04.000Z</time>
      </trkpt>
      <trkpt lat="45.90667" lon="6.49701">
        <ele>2103.6000976562</ele>
        <time>2014-02-12T09:15:05.000Z</time>
      </trkpt>
      <trkpt lat="45.90667" lon="6.49703">
        <ele>2103.8000488281</ele>
        <time>2014-02-12T09:15:06.000Z</time>
      </trkpt>
      <trkpt lat="45.90666" lon="6.49704">
        <ele>2104</ele>
        <time>2014-02-12T09:15:07.000Z</time>
      </trkpt>
      <trkpt lat="45.90665" lon="6.49705">
        <ele>2104.3999023438</ele>
        <time>2014-02-12T09:15:08.000Z</time>
      </trkpt>
      <trkpt lat="45.90665" lon="6.49706">
        <ele>2104.6000976562</ele>
        <time>2014-02-12T09:15:09.000Z</time>
      </trkpt>
      <trkpt lat="45.90664" lon="6.49707">
        <ele>2104.8000488281</ele>
        <time>2014-02-12T09:15:10.000Z</time>
      </trkpt>
      <trkpt lat="45.90663" lon="6.49709">
        <ele>2105.1999511719</ele>
        <time>2014-02-12T09:15:11.000Z</time>
      </trkpt>
      <trkpt lat="45.90663" lon="6.4971">
        <ele>2105.3999023438</ele>
        <time>2014-02-12T09:15:12.000Z</time>
      </trkpt>
      <trkpt lat="45.90663" lon="6.49711">
        <ele>2105.6000976562</ele>
        <time>2014-02-12T09:15:13.000Z</time>
      </trkpt>
      <trkpt lat="45.90662" lon="6.49712">
        <ele>2106</ele>
        <time>2014-02-12T09:15:14.000Z</time>
      </trkpt>
      <trkpt lat="45.90662" lon="6.49713">
        <ele>2106.1999511719</ele>
        <time>2014-02-12T09:15:15.000Z</time>
      </trkpt>
      <trkpt lat="45.90662" lon="6.49715">
        <ele>2106.3999023438</ele>
        <time>2014-02-12T09:15:16.000Z</time>
      </trkpt>
      <trkpt lat="45.90662" lon="6.49715">
        <ele>2106.3999023438</ele>
        <time>2014-02-12T09:15:17.000Z</time>
      </trkpt>
      <trkpt lat="45.90662" lon="6.49715">
        <ele>2106.3999023438</ele>
        <time>2014-02-12T09:15:18.000Z</time>
      </trkpt>
      <trkpt lat="45.90662" lon="6.49715">
        <ele>2106.3999023438</ele>
        <time>2014-02-12T09:15:19.000Z</time>
      </trkpt>
      <trkpt lat="45.90662" lon="6.49715">
        <ele>2106.3999023438</ele>
        <time>2014-02-12T09:15:20.000Z</time>
      </trkpt>
      <trkpt lat="45.90662" lon="6.49715">
        <ele>2106.3999023438</ele>
        <time>2014-02-12T09:15:21.000Z</time>
      </trkpt>
      <trkpt lat="45.90662" lon="6.49715">
        <ele>2106.3999023438</ele>
        <time>2014-02-12T09:15:22.000Z</time>
      </trkpt>
      <trkpt lat="45.90662" lon="6.49715">
        <ele>2106.3999023438</ele>
        <time>2014-02-12T09:15:23.000Z</time>
      </trkpt>
      <trkpt lat="45.90662" lon="6.49715">
        <ele>2106.3999023438</ele>
        <time>2014-02-12T09:15:24.000Z</time>
      </trkpt>
      <trkpt lat="45.90662" lon="6.49715">
        <ele>2106.3999023438</ele>
        <time>2014-02-12T09:15:25.000Z</time>
      </trkpt>
      <trkpt lat="45.90662" lon="6.49715">
        <ele>2106.3999023438</ele>
        <time>2014-02-12T09:15:26.000Z</time>
      </trkpt>
      <trkpt lat="45.90662" lon="6.49715">
        <ele>2106.3999023438</ele>
        <time>2014-02-12T09:15:27.000Z</time>
      </trkpt>
      <trkpt lat="45.90662" lon="6.49715">
        <ele>2106.3999023438</ele>
        <time>2014-02-12T09:15:28.000Z</time>
      </trkpt>
      <trkpt lat="45.90662" lon="6.49715">
        <ele>2106.3999023438</ele>
        <time>2014-02-12T09:15:29.000Z</time>
      </trkpt>
      <trkpt lat="45.90662" lon="6.49715">
        <ele>2106.3999023438</ele>
        <time>2014-02-12T09:15:30.000Z</time>
      </trkpt>
      <trkpt lat="45.90662" lon="6.49715">
        <ele>2106.3999023438</ele>
        <time>2014-02-12T09:15:31.000Z</time>
      </trkpt>
      <trkpt lat="45.90662" lon="6.49715">
        <ele>2106.3999023438</ele>
        <time>2014-02-12T09:15:32.000Z</time>
      </trkpt>
      <trkpt lat="45.90662" lon="6.49715">
        <ele>2106.3999023438</ele>
        <time>2014-02-12T09:15:33.000Z</time>
      </trkpt>
      <trkpt lat="45.90662" lon="6.49715">
        <ele>2106.3999023438</ele>
        <time>2014-02-12T09:15:34.000Z</time>
      </trkpt>
      <trkpt lat="45.90662" lon="6.49715">
        <ele>2106.3999023438</ele>
        <time>2014-02-12T09:15:35.000Z</time>
      </trkpt>
      <trkpt lat="45.90662" lon="6.49715">
        <ele>2106.3999023438</ele>
        <time>2014-02-12T09:15:36.000Z</time>
      </trkpt>
      <trkpt lat="45.90662" lon="6.49715">
        <ele>2106.3999023438</ele>
        <time>2014-02-12T09:15:37.000Z</time>
      </trkpt>
      <trkpt lat="45.90662" lon="6.49715">
        <ele>2106.3999023438</ele>
        <time>2014-02-12T09:15:38.000Z</time>
      </trkpt>
      <trkpt lat="45.90661" lon="6.49716">
        <ele>2106.6000976562</ele>
        <time>2014-02-12T09:15:39.000Z</time>
      </trkpt>
      <trkpt lat="45.90659" lon="6.49717">
        <ele>2107</ele>
        <time>2014-02-12T09:15:40.000Z</time>
      </trkpt>
      <trkpt lat="45.90658" lon="6.49718">
        <ele>2107.1999511719</ele>
        <time>2014-02-12T09:15:41.000Z</time>
      </trkpt>
      <trkpt lat="45.90657" lon="6.49719">
        <ele>2107.3999023438</ele>
        <time>2014-02-12T09:15:42.000Z</time>
      </trkpt>
      <trkpt lat="45.90656" lon="6.49719">
        <ele>2107.6000976562</ele>
        <time>2014-02-12T09:15:43.000Z</time>
      </trkpt>
      <trkpt lat="45.90655" lon="6.4972">
        <ele>2107.8000488281</ele>
        <time>2014-02-12T09:15:44.000Z</time>
      </trkpt>
      <trkpt lat="45.90654" lon="6.49722">
        <ele>2108.1999511719</ele>
        <time>2014-02-12T09:15:45.000Z</time>
      </trkpt>
      <trkpt lat="45.90653" lon="6.49723">
        <ele>2108.3999023438</ele>
        <time>2014-02-12T09:15:46.000Z</time>
      </trkpt>
      <trkpt lat="45.90652" lon="6.49724">
        <ele>2108.6000976562</ele>
        <time>2014-02-12T09:15:47.000Z</time>
      </trkpt>
      <trkpt lat="45.90652" lon="6.49724">
        <ele>2108.6000976562</ele>
        <time>2014-02-12T09:15:48.000Z</time>
      </trkpt>
      <trkpt lat="45.90652" lon="6.49726">
        <ele>2109</ele>
        <time>2014-02-12T09:15:49.000Z</time>
      </trkpt>
      <trkpt lat="45.90652" lon="6.49726">
        <ele>2109</ele>
        <time>2014-02-12T09:15:50.000Z</time>
      </trkpt>
      <trkpt lat="45.90651" lon="6.49727">
        <ele>2109.1999511719</ele>
        <time>2014-02-12T09:15:51.000Z</time>
      </trkpt>
      <trkpt lat="45.90651" lon="6.49727">
        <ele>2109.1999511719</ele>
        <time>2014-02-12T09:15:52.000Z</time>
      </trkpt>
      <trkpt lat="45.90651" lon="6.49727">
        <ele>2109.1999511719</ele>
        <time>2014-02-12T09:15:53.000Z</time>
      </trkpt>
      <trkpt lat="45.90651" lon="6.49727">
        <ele>2109.1999511719</ele>
        <time>2014-02-12T09:15:54.000Z</time>
      </trkpt>
      <trkpt lat="45.90651" lon="6.49727">
        <ele>2109.1999511719</ele>
        <time>2014-02-12T09:15:55.000Z</time>
      </trkpt>
      <trkpt lat="45.90651" lon="6.49727">
        <ele>2109.3999023438</ele>
        <time>2014-02-12T09:15:56.000Z</time>
      </trkpt>
      <trkpt lat="45.90651" lon="6.49729">
        <ele>2109.6000976562</ele>
        <time>2014-02-12T09:15:57.000Z</time>
      </trkpt>
      <trkpt lat="45.90651" lon="6.49729">
        <ele>2109.6000976562</ele>
        <time>2014-02-12T09:15:58.000Z</time>
      </trkpt>
      <trkpt lat="45.90651" lon="6.49729">
        <ele>2109.6000976562</ele>
        <time>2014-02-12T09:15:59.000Z</time>
      </trkpt>
      <trkpt lat="45.90651" lon="6.49729">
        <ele>2109.6000976562</ele>
        <time>2014-02-12T09:16:00.000Z</time>
      </trkpt>
      <trkpt lat="45.90651" lon="6.49731">
        <ele>2110</ele>
        <time>2014-02-12T09:16:01.000Z</time>
      </trkpt>
      <trkpt lat="45.90651" lon="6.49732">
        <ele>2110.1999511719</ele>
        <time>2014-02-12T09:16:02.000Z</time>
      </trkpt>
      <trkpt lat="45.90651" lon="6.49734">
        <ele>2110.6000976562</ele>
        <time>2014-02-12T09:16:03.000Z</time>
      </trkpt>
      <trkpt lat="45.90651" lon="6.49735">
        <ele>2111.1999511719</ele>
        <time>2014-02-12T09:16:04.000Z</time>
      </trkpt>
      <trkpt lat="45.90651" lon="6.49736">
        <ele>2111.6000976562</ele>
        <time>2014-02-12T09:16:05.000Z</time>
      </trkpt>
      <trkpt lat="45.90651" lon="6.49738">
        <ele>2112.1999511719</ele>
        <time>2014-02-12T09:16:06.000Z</time>
      </trkpt>
      <trkpt lat="45.90651" lon="6.49739">
        <ele>2112.6000976562</ele>
        <time>2014-02-12T09:16:07.000Z</time>
      </trkpt>
      <trkpt lat="45.90651" lon="6.49741">
        <ele>2113.1999511719</ele>
        <time>2014-02-12T09:16:08.000Z</time>
      </trkpt>
      <trkpt lat="45.90651" lon="6.49742">
        <ele>2113.8000488281</ele>
        <time>2014-02-12T09:16:09.000Z</time>
      </trkpt>
      <trkpt lat="45.90651" lon="6.49743">
        <ele>2114.1999511719</ele>
        <time>2014-02-12T09:16:10.000Z</time>
      </trkpt>
      <trkpt lat="45.90651" lon="6.49744">
        <ele>2114.6000976562</ele>
        <time>2014-02-12T09:16:11.000Z</time>
      </trkpt>
      <trkpt lat="45.90651" lon="6.49745">
        <ele>2115</ele>
        <time>2014-02-12T09:16:12.000Z</time>
      </trkpt>
      <trkpt lat="45.90651" lon="6.49746">
        <ele>2115.3999023438</ele>
        <time>2014-02-12T09:16:13.000Z</time>
      </trkpt>
      <trkpt lat="45.90651" lon="6.49747">
        <ele>2115.6000976562</ele>
        <time>2014-02-12T09:16:14.000Z</time>
      </trkpt>
      <trkpt lat="45.90651" lon="6.49749">
        <ele>2116</ele>
        <time>2014-02-12T09:16:15.000Z</time>
      </trkpt>
      <trkpt lat="45.90651" lon="6.4975">
        <ele>2116.3999023438</ele>
        <time>2014-02-12T09:16:16.000Z</time>
      </trkpt>
      <trkpt lat="45.90651" lon="6.49751">
        <ele>2117</ele>
        <time>2014-02-12T09:16:17.000Z</time>
      </trkpt>
      <trkpt lat="45.90651" lon="6.49753">
        <ele>2117.3999023438</ele>
        <time>2014-02-12T09:16:18.000Z</time>
      </trkpt>
      <trkpt lat="45.90651" lon="6.49753">
        <ele>2117.3999023438</ele>
        <time>2014-02-12T09:16:19.000Z</time>
      </trkpt>
      <trkpt lat="45.90651" lon="6.49755">
        <ele>2118.1999511719</ele>
        <time>2014-02-12T09:16:20.000Z</time>
      </trkpt>
      <trkpt lat="45.90651" lon="6.49757">
        <ele>2118.6000976562</ele>
        <time>2014-02-12T09:16:21.000Z</time>
      </trkpt>
      <trkpt lat="45.90651" lon="6.49758">
        <ele>2118.8000488281</ele>
        <time>2014-02-12T09:16:22.000Z</time>
      </trkpt>
      <trkpt lat="45.90651" lon="6.49758">
        <ele>2118.8000488281</ele>
        <time>2014-02-12T09:16:23.000Z</time>
      </trkpt>
      <trkpt lat="45.90651" lon="6.49759">
        <ele>2119.1999511719</ele>
        <time>2014-02-12T09:16:24.000Z</time>
      </trkpt>
      <trkpt lat="45.90651" lon="6.49759">
        <ele>2119.1999511719</ele>
        <time>2014-02-12T09:16:25.000Z</time>
      </trkpt>
      <trkpt lat="45.90651" lon="6.49759">
        <ele>2119.3999023438</ele>
        <time>2014-02-12T09:16:26.000Z</time>
      </trkpt>
      <trkpt lat="45.90651" lon="6.49759">
        <ele>2119.3999023438</ele>
        <time>2014-02-12T09:16:27.000Z</time>
      </trkpt>
      <trkpt lat="45.90651" lon="6.49761">
        <ele>2119.8000488281</ele>
        <time>2014-02-12T09:16:28.000Z</time>
      </trkpt>
      <trkpt lat="45.90651" lon="6.49761">
        <ele>2119.8000488281</ele>
        <time>2014-02-12T09:16:29.000Z</time>
      </trkpt>
      <trkpt lat="45.90651" lon="6.49762">
        <ele>2120.1999511719</ele>
        <time>2014-02-12T09:16:30.000Z</time>
      </trkpt>
      <trkpt lat="45.90651" lon="6.49762">
        <ele>2120.1999511719</ele>
        <time>2014-02-12T09:16:31.000Z</time>
      </trkpt>
      <trkpt lat="45.90651" lon="6.49763">
        <ele>2120.6000976562</ele>
        <time>2014-02-12T09:16:32.000Z</time>
      </trkpt>
      <trkpt lat="45.90651" lon="6.49765">
        <ele>2121</ele>
        <time>2014-02-12T09:16:33.000Z</time>
      </trkpt>
      <trkpt lat="45.90651" lon="6.49765">
        <ele>2121</ele>
        <time>2014-02-12T09:16:34.000Z</time>
      </trkpt>
      <trkpt lat="45.90651" lon="6.49765">
        <ele>2121</ele>
        <time>2014-02-12T09:16:35.000Z</time>
      </trkpt>
      <trkpt lat="45.90651" lon="6.49766">
        <ele>2121.6000976562</ele>
        <time>2014-02-12T09:16:36.000Z</time>
      </trkpt>
      <trkpt lat="45.90652" lon="6.49768">
        <ele>2122</ele>
        <time>2014-02-12T09:16:37.000Z</time>
      </trkpt>
      <trkpt lat="45.90652" lon="6.49769">
        <ele>2122.3999023438</ele>
        <time>2014-02-12T09:16:38.000Z</time>
      </trkpt>
      <trkpt lat="45.90652" lon="6.4977">
        <ele>2122.8000488281</ele>
        <time>2014-02-12T09:16:39.000Z</time>
      </trkpt>
      <trkpt lat="45.90652" lon="6.49772">
        <ele>2123.3999023438</ele>
        <time>2014-02-12T09:16:40.000Z</time>
      </trkpt>
      <trkpt lat="45.90652" lon="6.49773">
        <ele>2123.6000976562</ele>
        <time>2014-02-12T09:16:41.000Z</time>
      </trkpt>
      <trkpt lat="45.90653" lon="6.49774">
        <ele>2124</ele>
        <time>2014-02-12T09:16:42.000Z</time>
      </trkpt>
      <trkpt lat="45.90654" lon="6.49775">
        <ele>2124.3999023438</ele>
        <time>2014-02-12T09:16:43.000Z</time>
      </trkpt>
      <trkpt lat="45.90654" lon="6.49776">
        <ele>2124.8000488281</ele>
        <time>2014-02-12T09:16:44.000Z</time>
      </trkpt>
      <trkpt lat="45.90655" lon="6.49777">
        <ele>2125</ele>
        <time>2014-02-12T09:16:45.000Z</time>
      </trkpt>
      <trkpt lat="45.90655" lon="6.49777">
        <ele>2125.1999511719</ele>
        <time>2014-02-12T09:16:46.000Z</time>
      </trkpt>
      <trkpt lat="45.90655" lon="6.49778">
        <ele>2125.1999511719</ele>
        <time>2014-02-12T09:16:47.000Z</time>
      </trkpt>
      <trkpt lat="45.90655" lon="6.49778">
        <ele>2125.1999511719</ele>
        <time>2014-02-12T09:16:48.000Z</time>
      </trkpt>
      <trkpt lat="45.90655" lon="6.49779">
        <ele>2125.6000976562</ele>
        <time>2014-02-12T09:16:49.000Z</time>
      </trkpt>
      <trkpt lat="45.90655" lon="6.49779">
        <ele>2125.6000976562</ele>
        <time>2014-02-12T09:16:50.000Z</time>
      </trkpt>
      <trkpt lat="45.90655" lon="6.4978">
        <ele>2126</ele>
        <time>2014-02-12T09:16:51.000Z</time>
      </trkpt>
      <trkpt lat="45.90655" lon="6.4978">
        <ele>2126</ele>
        <time>2014-02-12T09:16:52.000Z</time>
      </trkpt>
      <trkpt lat="45.90655" lon="6.49781">
        <ele>2126.1999511719</ele>
        <time>2014-02-12T09:16:53.000Z</time>
      </trkpt>
      <trkpt lat="45.90655" lon="6.49781">
        <ele>2126.1999511719</ele>
        <time>2014-02-12T09:16:54.000Z</time>
      </trkpt>
      <trkpt lat="45.90655" lon="6.49782">
        <ele>2126.6000976562</ele>
        <time>2014-02-12T09:16:55.000Z</time>
      </trkpt>
      <trkpt lat="45.90655" lon="6.49783">
        <ele>2126.8000488281</ele>
        <time>2014-02-12T09:16:56.000Z</time>
      </trkpt>
      <trkpt lat="45.90655" lon="6.49784">
        <ele>2127.1999511719</ele>
        <time>2014-02-12T09:16:57.000Z</time>
      </trkpt>
      <trkpt lat="45.90656" lon="6.49785">
        <ele>2127.3999023438</ele>
        <time>2014-02-12T09:16:58.000Z</time>
      </trkpt>
      <trkpt lat="45.90656" lon="6.49786">
        <ele>2128</ele>
        <time>2014-02-12T09:16:59.000Z</time>
      </trkpt>
      <trkpt lat="45.90657" lon="6.49787">
        <ele>2128.1999511719</ele>
        <time>2014-02-12T09:17:00.000Z</time>
      </trkpt>
      <trkpt lat="45.90657" lon="6.49788">
        <ele>2128.6000976562</ele>
        <time>2014-02-12T09:17:01.000Z</time>
      </trkpt>
      <trkpt lat="45.90657" lon="6.49789">
        <ele>2128.8000488281</ele>
        <time>2014-02-12T09:17:02.000Z</time>
      </trkpt>
      <trkpt lat="45.90658" lon="6.4979">
        <ele>2129.1999511719</ele>
        <time>2014-02-12T09:17:03.000Z</time>
      </trkpt>
      <trkpt lat="45.90658" lon="6.49791">
        <ele>2129.3999023438</ele>
        <time>2014-02-12T09:17:04.000Z</time>
      </trkpt>
      <trkpt lat="45.90658" lon="6.49792">
        <ele>2129.8000488281</ele>
        <time>2014-02-12T09:17:05.000Z</time>
      </trkpt>
      <trkpt lat="45.90659" lon="6.49793">
        <ele>2130</ele>
        <time>2014-02-12T09:17:06.000Z</time>
      </trkpt>
      <trkpt lat="45.90659" lon="6.49793">
        <ele>2130</ele>
        <time>2014-02-12T09:17:07.000Z</time>
      </trkpt>
      <trkpt lat="45.90658" lon="6.49793">
        <ele>2130</ele>
        <time>2014-02-12T09:17:08.000Z</time>
      </trkpt>
      <trkpt lat="45.90659" lon="6.49794">
        <ele>2130.1999511719</ele>
        <time>2014-02-12T09:17:09.000Z</time>
      </trkpt>
      <trkpt lat="45.90659" lon="6.49795">
        <ele>2130.6000976562</ele>
        <time>2014-02-12T09:17:10.000Z</time>
      </trkpt>
      <trkpt lat="45.90659" lon="6.49795">
        <ele>2130.6000976562</ele>
        <time>2014-02-12T09:17:11.000Z</time>
      </trkpt>
      <trkpt lat="45.90659" lon="6.49795">
        <ele>2130.6000976562</ele>
        <time>2014-02-12T09:17:12.000Z</time>
      </trkpt>
      <trkpt lat="45.90659" lon="6.49795">
        <ele>2130.6000976562</ele>
        <time>2014-02-12T09:17:13.000Z</time>
      </trkpt>
      <trkpt lat="45.90659" lon="6.49795">
        <ele>2130.6000976562</ele>
        <time>2014-02-12T09:17:14.000Z</time>
      </trkpt>
      <trkpt lat="45.90659" lon="6.49795">
        <ele>2130.6000976562</ele>
        <time>2014-02-12T09:17:15.000Z</time>
      </trkpt>
      <trkpt lat="45.90659" lon="6.49795">
        <ele>2130.6000976562</ele>
        <time>2014-02-12T09:17:16.000Z</time>
      </trkpt>
      <trkpt lat="45.90659" lon="6.49795">
        <ele>2130.8000488281</ele>
        <time>2014-02-12T09:17:17.000Z</time>
      </trkpt>
      <trkpt lat="45.90659" lon="6.49795">
        <ele>2130.8000488281</ele>
        <time>2014-02-12T09:17:18.000Z</time>
      </trkpt>
      <trkpt lat="45.90659" lon="6.49795">
        <ele>2130.8000488281</ele>
        <time>2014-02-12T09:17:19.000Z</time>
      </trkpt>
      <trkpt lat="45.90659" lon="6.49795">
        <ele>2130.8000488281</ele>
        <time>2014-02-12T09:17:20.000Z</time>
      </trkpt>
      <trkpt lat="45.90659" lon="6.49795">
        <ele>2130.8000488281</ele>
        <time>2014-02-12T09:17:21.000Z</time>
      </trkpt>
      <trkpt lat="45.90659" lon="6.49795">
        <ele>2130.8000488281</ele>
        <time>2014-02-12T09:17:22.000Z</time>
      </trkpt>
      <trkpt lat="45.90659" lon="6.49795">
        <ele>2130.8000488281</ele>
        <time>2014-02-12T09:17:23.000Z</time>
      </trkpt>
      <trkpt lat="45.90659" lon="6.49795">
        <ele>2130.8000488281</ele>
        <time>2014-02-12T09:17:24.000Z</time>
      </trkpt>
      <trkpt lat="45.90659" lon="6.49795">
        <ele>2130.8000488281</ele>
        <time>2014-02-12T09:17:25.000Z</time>
      </trkpt>
      <trkpt lat="45.90659" lon="6.49795">
        <ele>2130.8000488281</ele>
        <time>2014-02-12T09:17:26.000Z</time>
      </trkpt>
      <trkpt lat="45.90659" lon="6.49795">
        <ele>2130.8000488281</ele>
        <time>2014-02-12T09:17:29.000Z</time>
      </trkpt>
      <trkpt lat="45.90659" lon="6.49795">
        <ele>2130.8000488281</ele>
        <time>2014-02-12T09:17:30.000Z</time>
      </trkpt>
      <trkpt lat="45.90659" lon="6.49795">
        <ele>2130.8000488281</ele>
        <time>2014-02-12T09:17:31.000Z</time>
      </trkpt>
      <trkpt lat="45.90659" lon="6.49795">
        <ele>2130.8000488281</ele>
        <time>2014-02-12T09:17:32.000Z</time>
      </trkpt>
      <trkpt lat="45.90659" lon="6.49795">
        <ele>2130.8000488281</ele>
        <time>2014-02-12T09:17:34.000Z</time>
      </trkpt>
      <trkpt lat="45.90659" lon="6.49795">
        <ele>2130.8000488281</ele>
        <time>2014-02-12T09:17:35.000Z</time>
      </trkpt>
      <trkpt lat="45.90659" lon="6.49795">
        <ele>2130.8000488281</ele>
        <time>2014-02-12T09:17:36.000Z</time>
      </trkpt>
      <trkpt lat="45.90659" lon="6.49795">
        <ele>2130.8000488281</ele>
        <time>2014-02-12T09:17:37.000Z</time>
      </trkpt>
      <trkpt lat="45.90659" lon="6.49795">
        <ele>2130.8000488281</ele>
        <time>2014-02-12T09:17:38.000Z</time>
      </trkpt>
      <trkpt lat="45.90659" lon="6.49795">
        <ele>2130.8000488281</ele>
        <time>2014-02-12T09:17:39.000Z</time>
      </trkpt>
      <trkpt lat="45.90659" lon="6.49795">
        <ele>2130.8000488281</ele>
        <time>2014-02-12T09:17:40.000Z</time>
      </trkpt>
      <trkpt lat="45.90659" lon="6.49795">
        <ele>2130.8000488281</ele>
        <time>2014-02-12T09:17:41.000Z</time>
      </trkpt>
      <trkpt lat="45.90659" lon="6.49797">
        <ele>2131.1999511719</ele>
        <time>2014-02-12T09:17:42.000Z</time>
      </trkpt>
      <trkpt lat="45.9066" lon="6.49798">
        <ele>2131.3999023438</ele>
        <time>2014-02-12T09:17:43.000Z</time>
      </trkpt>
      <trkpt lat="45.9066" lon="6.49798">
        <ele>2131.6000976562</ele>
        <time>2014-02-12T09:17:44.000Z</time>
      </trkpt>
      <trkpt lat="45.9066" lon="6.49799">
        <ele>2131.8000488281</ele>
        <time>2014-02-12T09:17:45.000Z</time>
      </trkpt>
      <trkpt lat="45.90661" lon="6.498">
        <ele>2132.3999023438</ele>
        <time>2014-02-12T09:17:46.000Z</time>
      </trkpt>
      <trkpt lat="45.90661" lon="6.49801">
        <ele>2132.6000976562</ele>
        <time>2014-02-12T09:17:47.000Z</time>
      </trkpt>
      <trkpt lat="45.90662" lon="6.49802">
        <ele>2133</ele>
        <time>2014-02-12T09:17:48.000Z</time>
      </trkpt>
      <trkpt lat="45.90662" lon="6.49803">
        <ele>2133.3999023438</ele>
        <time>2014-02-12T09:17:49.000Z</time>
      </trkpt>
      <trkpt lat="45.90663" lon="6.49804">
        <ele>2133.6000976562</ele>
        <time>2014-02-12T09:17:50.000Z</time>
      </trkpt>
      <trkpt lat="45.90663" lon="6.49805">
        <ele>2134</ele>
        <time>2014-02-12T09:17:51.000Z</time>
      </trkpt>
      <trkpt lat="45.90663" lon="6.49806">
        <ele>2134</ele>
        <time>2014-02-12T09:17:52.000Z</time>
      </trkpt>
      <trkpt lat="45.90663" lon="6.49807">
        <ele>2134.6000976562</ele>
        <time>2014-02-12T09:17:53.000Z</time>
      </trkpt>
      <trkpt lat="45.90663" lon="6.49807">
        <ele>2134.6000976562</ele>
        <time>2014-02-12T09:17:54.000Z</time>
      </trkpt>
      <trkpt lat="45.90663" lon="6.49809">
        <ele>2135.1999511719</ele>
        <time>2014-02-12T09:17:55.000Z</time>
      </trkpt>
      <trkpt lat="45.90663" lon="6.49809">
        <ele>2135.1999511719</ele>
        <time>2014-02-12T09:17:56.000Z</time>
      </trkpt>
      <trkpt lat="45.90663" lon="6.4981">
        <ele>2135.6000976562</ele>
        <time>2014-02-12T09:17:57.000Z</time>
      </trkpt>
      <trkpt lat="45.90663" lon="6.49811">
        <ele>2136</ele>
        <time>2014-02-12T09:17:58.000Z</time>
      </trkpt>
      <trkpt lat="45.90663" lon="6.49813">
        <ele>2136.1999511719</ele>
        <time>2014-02-12T09:17:59.000Z</time>
      </trkpt>
      <trkpt lat="45.90664" lon="6.49813">
        <ele>2136.6000976562</ele>
        <time>2014-02-12T09:18:00.000Z</time>
      </trkpt>
      <trkpt lat="45.90664" lon="6.49813">
        <ele>2136.6000976562</ele>
        <time>2014-02-12T09:18:01.000Z</time>
      </trkpt>
      <trkpt lat="45.90664" lon="6.49815">
        <ele>2137</ele>
        <time>2014-02-12T09:18:02.000Z</time>
      </trkpt>
      <trkpt lat="45.90664" lon="6.49815">
        <ele>2137</ele>
        <time>2014-02-12T09:18:03.000Z</time>
      </trkpt>
      <trkpt lat="45.90664" lon="6.49816">
        <ele>2137.3999023438</ele>
        <time>2014-02-12T09:18:04.000Z</time>
      </trkpt>
      <trkpt lat="45.90664" lon="6.49816">
        <ele>2137.3999023438</ele>
        <time>2014-02-12T09:18:05.000Z</time>
      </trkpt>
      <trkpt lat="45.90664" lon="6.49817">
        <ele>2137.8000488281</ele>
        <time>2014-02-12T09:18:06.000Z</time>
      </trkpt>
      <trkpt lat="45.90664" lon="6.49817">
        <ele>2137.8000488281</ele>
        <time>2014-02-12T09:18:07.000Z</time>
      </trkpt>
      <trkpt lat="45.90664" lon="6.49819">
        <ele>2138.3999023438</ele>
        <time>2014-02-12T09:18:08.000Z</time>
      </trkpt>
      <trkpt lat="45.90664" lon="6.49819">
        <ele>2138.3999023438</ele>
        <time>2014-02-12T09:18:09.000Z</time>
      </trkpt>
      <trkpt lat="45.90664" lon="6.49819">
        <ele>2138.6000976562</ele>
        <time>2014-02-12T09:18:10.000Z</time>
      </trkpt>
      <trkpt lat="45.90664" lon="6.49819">
        <ele>2138.6000976562</ele>
        <time>2014-02-12T09:18:11.000Z</time>
      </trkpt>
      <trkpt lat="45.90664" lon="6.49819">
        <ele>2138.6000976562</ele>
        <time>2014-02-12T09:18:12.000Z</time>
      </trkpt>
      <trkpt lat="45.90664" lon="6.49819">
        <ele>2138.6000976562</ele>
        <time>2014-02-12T09:18:13.000Z</time>
      </trkpt>
      <trkpt lat="45.90664" lon="6.4982">
        <ele>2138.8000488281</ele>
        <time>2014-02-12T09:18:14.000Z</time>
      </trkpt>
      <trkpt lat="45.90663" lon="6.49821">
        <ele>2139.1999511719</ele>
        <time>2014-02-12T09:18:15.000Z</time>
      </trkpt>
      <trkpt lat="45.90663" lon="6.49822">
        <ele>2139.6000976562</ele>
        <time>2014-02-12T09:18:16.000Z</time>
      </trkpt>
      <trkpt lat="45.90663" lon="6.49823">
        <ele>2139.8000488281</ele>
        <time>2014-02-12T09:18:17.000Z</time>
      </trkpt>
      <trkpt lat="45.90662" lon="6.49823">
        <ele>2140</ele>
        <time>2014-02-12T09:18:18.000Z</time>
      </trkpt>
      <trkpt lat="45.90662" lon="6.49824">
        <ele>2140</ele>
        <time>2014-02-12T09:18:19.000Z</time>
      </trkpt>
      <trkpt lat="45.90661" lon="6.49824">
        <ele>2140.1999511719</ele>
        <time>2014-02-12T09:18:20.000Z</time>
      </trkpt>
      <trkpt lat="45.90661" lon="6.49824">
        <ele>2140.1999511719</ele>
        <time>2014-02-12T09:18:21.000Z</time>
      </trkpt>
      <trkpt lat="45.90661" lon="6.49824">
        <ele>2140.1999511719</ele>
        <time>2014-02-12T09:18:22.000Z</time>
      </trkpt>
      <trkpt lat="45.90661" lon="6.49824">
        <ele>2140.1999511719</ele>
        <time>2014-02-12T09:18:23.000Z</time>
      </trkpt>
      <trkpt lat="45.90661" lon="6.49824">
        <ele>2140.1999511719</ele>
        <time>2014-02-12T09:18:24.000Z</time>
      </trkpt>
      <trkpt lat="45.90661" lon="6.49824">
        <ele>2140.1999511719</ele>
        <time>2014-02-12T09:18:25.000Z</time>
      </trkpt>
      <trkpt lat="45.90661" lon="6.49824">
        <ele>2140.1999511719</ele>
        <time>2014-02-12T09:18:26.000Z</time>
      </trkpt>
      <trkpt lat="45.90661" lon="6.49824">
        <ele>2140.1999511719</ele>
        <time>2014-02-12T09:18:27.000Z</time>
      </trkpt>
      <trkpt lat="45.90661" lon="6.49824">
        <ele>2140.1999511719</ele>
        <time>2014-02-12T09:18:28.000Z</time>
      </trkpt>
      <trkpt lat="45.90661" lon="6.49824">
        <ele>2140.1999511719</ele>
        <time>2014-02-12T09:18:29.000Z</time>
      </trkpt>
      <trkpt lat="45.90661" lon="6.49824">
        <ele>2140.1999511719</ele>
        <time>2014-02-12T09:18:30.000Z</time>
      </trkpt>
      <trkpt lat="45.90661" lon="6.49824">
        <ele>2140.1999511719</ele>
        <time>2014-02-12T09:18:31.000Z</time>
      </trkpt>
      <trkpt lat="45.90661" lon="6.49824">
        <ele>2140.1999511719</ele>
        <time>2014-02-12T09:18:32.000Z</time>
      </trkpt>
      <trkpt lat="45.9066" lon="6.49824">
        <ele>2140.1999511719</ele>
        <time>2014-02-12T09:18:33.000Z</time>
      </trkpt>
      <trkpt lat="45.90659" lon="6.49825">
        <ele>2140.3999023438</ele>
        <time>2014-02-12T09:18:34.000Z</time>
      </trkpt>
      <trkpt lat="45.90658" lon="6.49825">
        <ele>2140.6000976562</ele>
        <time>2014-02-12T09:18:35.000Z</time>
      </trkpt>
      <trkpt lat="45.90657" lon="6.49826">
        <ele>2140.6000976562</ele>
        <time>2014-02-12T09:18:36.000Z</time>
      </trkpt>
      <trkpt lat="45.90656" lon="6.49826">
        <ele>2140.8000488281</ele>
        <time>2014-02-12T09:18:37.000Z</time>
      </trkpt>
      <trkpt lat="45.90655" lon="6.49826">
        <ele>2140.6000976562</ele>
        <time>2014-02-12T09:18:38.000Z</time>
      </trkpt>
      <trkpt lat="45.90654" lon="6.49826">
        <ele>2140.6000976562</ele>
        <time>2014-02-12T09:18:39.000Z</time>
      </trkpt>
      <trkpt lat="45.90653" lon="6.49825">
        <ele>2140.6000976562</ele>
        <time>2014-02-12T09:18:40.000Z</time>
      </trkpt>
      <trkpt lat="45.90652" lon="6.49825">
        <ele>2140.3999023438</ele>
        <time>2014-02-12T09:18:41.000Z</time>
      </trkpt>
      <trkpt lat="45.90652" lon="6.49825">
        <ele>2140.3999023438</ele>
        <time>2014-02-12T09:18:42.000Z</time>
      </trkpt>
      <trkpt lat="45.90651" lon="6.49825">
        <ele>2140.3999023438</ele>
        <time>2014-02-12T09:18:43.000Z</time>
      </trkpt>
      <trkpt lat="45.9065" lon="6.49825">
        <ele>2140.3999023438</ele>
        <time>2014-02-12T09:18:44.000Z</time>
      </trkpt>
      <trkpt lat="45.9065" lon="6.49825">
        <ele>2140.3999023438</ele>
        <time>2014-02-12T09:18:45.000Z</time>
      </trkpt>
      <trkpt lat="45.90649" lon="6.49825">
        <ele>2140.3999023438</ele>
        <time>2014-02-12T09:18:46.000Z</time>
      </trkpt>
      <trkpt lat="45.90648" lon="6.49826">
        <ele>2140.6000976562</ele>
        <time>2014-02-12T09:18:47.000Z</time>
      </trkpt>
      <trkpt lat="45.90648" lon="6.49826">
        <ele>2140.6000976562</ele>
        <time>2014-02-12T09:18:48.000Z</time>
      </trkpt>
      <trkpt lat="45.90648" lon="6.49826">
        <ele>2140.6000976562</ele>
        <time>2014-02-12T09:18:49.000Z</time>
      </trkpt>
      <trkpt lat="45.90648" lon="6.49826">
        <ele>2140.6000976562</ele>
        <time>2014-02-12T09:18:50.000Z</time>
      </trkpt>
      <trkpt lat="45.90648" lon="6.49826">
        <ele>2140.6000976562</ele>
        <time>2014-02-12T09:18:51.000Z</time>
      </trkpt>
      <trkpt lat="45.90648" lon="6.49826">
        <ele>2140.6000976562</ele>
        <time>2014-02-12T09:18:52.000Z</time>
      </trkpt>
      <trkpt lat="45.90648" lon="6.49826">
        <ele>2140.6000976562</ele>
        <time>2014-02-12T09:18:53.000Z</time>
      </trkpt>
      <trkpt lat="45.90648" lon="6.49826">
        <ele>2140.6000976562</ele>
        <time>2014-02-12T09:18:54.000Z</time>
      </trkpt>
      <trkpt lat="45.90648" lon="6.49826">
        <ele>2140.6000976562</ele>
        <time>2014-02-12T09:18:55.000Z</time>
      </trkpt>
      <trkpt lat="45.90648" lon="6.49826">
        <ele>2140.6000976562</ele>
        <time>2014-02-12T09:18:56.000Z</time>
      </trkpt>
      <trkpt lat="45.90648" lon="6.49826">
        <ele>2140.6000976562</ele>
        <time>2014-02-12T09:18:57.000Z</time>
      </trkpt>
      <trkpt lat="45.90648" lon="6.49826">
        <ele>2140.6000976562</ele>
        <time>2014-02-12T09:18:58.000Z</time>
      </trkpt>
      <trkpt lat="45.90648" lon="6.49826">
        <ele>2140.6000976562</ele>
        <time>2014-02-12T09:18:59.000Z</time>
      </trkpt>
      <trkpt lat="45.90648" lon="6.49826">
        <ele>2140.6000976562</ele>
        <time>2014-02-12T09:19:00.000Z</time>
      </trkpt>
      <trkpt lat="45.90648" lon="6.49826">
        <ele>2140.6000976562</ele>
        <time>2014-02-12T09:19:01.000Z</time>
      </trkpt>
      <trkpt lat="45.90648" lon="6.49826">
        <ele>2140.6000976562</ele>
        <time>2014-02-12T09:19:02.000Z</time>
      </trkpt>
      <trkpt lat="45.90648" lon="6.49826">
        <ele>2140.6000976562</ele>
        <time>2014-02-12T09:19:03.000Z</time>
      </trkpt>
      <trkpt lat="45.90648" lon="6.49826">
        <ele>2140.6000976562</ele>
        <time>2014-02-12T09:19:04.000Z</time>
      </trkpt>
      <trkpt lat="45.90648" lon="6.49826">
        <ele>2140.6000976562</ele>
        <time>2014-02-12T09:19:05.000Z</time>
      </trkpt>
      <trkpt lat="45.90648" lon="6.49826">
        <ele>2140.6000976562</ele>
        <time>2014-02-12T09:19:06.000Z</time>
      </trkpt>
      <trkpt lat="45.90648" lon="6.49826">
        <ele>2140.6000976562</ele>
        <time>2014-02-12T09:19:07.000Z</time>
      </trkpt>
      <trkpt lat="45.90648" lon="6.49826">
        <ele>2140.6000976562</ele>
        <time>2014-02-12T09:19:08.000Z</time>
      </trkpt>
      <trkpt lat="45.90648" lon="6.49826">
        <ele>2140.6000976562</ele>
        <time>2014-02-12T09:19:09.000Z</time>
      </trkpt>
      <trkpt lat="45.90648" lon="6.49826">
        <ele>2140.6000976562</ele>
        <time>2014-02-12T09:19:10.000Z</time>
      </trkpt>
      <trkpt lat="45.9065" lon="6.49831">
        <ele>2142.3999023438</ele>
        <time>2014-02-12T09:19:11.000Z</time>
      </trkpt>
      <trkpt lat="45.9065" lon="6.49831">
        <ele>2142.3999023438</ele>
        <time>2014-02-12T09:19:12.000Z</time>
      </trkpt>
      <trkpt lat="45.9065" lon="6.49833">
        <ele>2143.3999023438</ele>
        <time>2014-02-12T09:19:13.000Z</time>
      </trkpt>
      <trkpt lat="45.9065" lon="6.49834">
        <ele>2143.3999023438</ele>
        <time>2014-02-12T09:19:14.000Z</time>
      </trkpt>
      <trkpt lat="45.9065" lon="6.49836">
        <ele>2144.1999511719</ele>
        <time>2014-02-12T09:19:15.000Z</time>
      </trkpt>
      <trkpt lat="45.9065" lon="6.49836">
        <ele>2144.1999511719</ele>
        <time>2014-02-12T09:19:16.000Z</time>
      </trkpt>
      <trkpt lat="45.9065" lon="6.49838">
        <ele>2145</ele>
        <time>2014-02-12T09:19:17.000Z</time>
      </trkpt>
      <trkpt lat="45.9065" lon="6.49838">
        <ele>2145</ele>
        <time>2014-02-12T09:19:18.000Z</time>
      </trkpt>
      <trkpt lat="45.9065" lon="6.4984">
        <ele>2145.8000488281</ele>
        <time>2014-02-12T09:19:19.000Z</time>
      </trkpt>
      <trkpt lat="45.90651" lon="6.49843">
        <ele>2146.6000976562</ele>
        <time>2014-02-12T09:19:20.000Z</time>
      </trkpt>
      <trkpt lat="45.90651" lon="6.49844">
        <ele>2147.1999511719</ele>
        <time>2014-02-12T09:19:21.000Z</time>
      </trkpt>
      <trkpt lat="45.90651" lon="6.49844">
        <ele>2147.1999511719</ele>
        <time>2014-02-12T09:19:22.000Z</time>
      </trkpt>
      <trkpt lat="45.90651" lon="6.49846">
        <ele>2147.8000488281</ele>
        <time>2014-02-12T09:19:23.000Z</time>
      </trkpt>
      <trkpt lat="45.90651" lon="6.49846">
        <ele>2147.8000488281</ele>
        <time>2014-02-12T09:19:24.000Z</time>
      </trkpt>
      <trkpt lat="45.90652" lon="6.49847">
        <ele>2148.3999023438</ele>
        <time>2014-02-12T09:19:25.000Z</time>
      </trkpt>
      <trkpt lat="45.90652" lon="6.49847">
        <ele>2148.3999023438</ele>
        <time>2014-02-12T09:19:26.000Z</time>
      </trkpt>
      <trkpt lat="45.90652" lon="6.49849">
        <ele>2149</ele>
        <time>2014-02-12T09:19:27.000Z</time>
      </trkpt>
      <trkpt lat="45.90652" lon="6.49849">
        <ele>2149</ele>
        <time>2014-02-12T09:19:28.000Z</time>
      </trkpt>
      <trkpt lat="45.90652" lon="6.49849">
        <ele>2149</ele>
        <time>2014-02-12T09:19:29.000Z</time>
      </trkpt>
      <trkpt lat="45.90652" lon="6.49849">
        <ele>2149</ele>
        <time>2014-02-12T09:19:30.000Z</time>
      </trkpt>
      <trkpt lat="45.90652" lon="6.49849">
        <ele>2149</ele>
        <time>2014-02-12T09:19:31.000Z</time>
      </trkpt>
      <trkpt lat="45.90652" lon="6.49849">
        <ele>2149</ele>
        <time>2014-02-12T09:19:32.000Z</time>
      </trkpt>
      <trkpt lat="45.90651" lon="6.4985">
        <ele>2149.1999511719</ele>
        <time>2014-02-12T09:19:33.000Z</time>
      </trkpt>
      <trkpt lat="45.9065" lon="6.49851">
        <ele>2149.6000976562</ele>
        <time>2014-02-12T09:19:34.000Z</time>
      </trkpt>
      <trkpt lat="45.90648" lon="6.49853">
        <ele>2150.1999511719</ele>
        <time>2014-02-12T09:19:35.000Z</time>
      </trkpt>
      <trkpt lat="45.90648" lon="6.49853">
        <ele>2150.1999511719</ele>
        <time>2014-02-12T09:19:36.000Z</time>
      </trkpt>
      <trkpt lat="45.90647" lon="6.49855">
        <ele>2150.8000488281</ele>
        <time>2014-02-12T09:19:37.000Z</time>
      </trkpt>
      <trkpt lat="45.90646" lon="6.49856">
        <ele>2151.1999511719</ele>
        <time>2014-02-12T09:19:38.000Z</time>
      </trkpt>
      <trkpt lat="45.90645" lon="6.49856">
        <ele>2151.3999023438</ele>
        <time>2014-02-12T09:19:39.000Z</time>
      </trkpt>
      <trkpt lat="45.90645" lon="6.49857">
        <ele>2151.8000488281</ele>
        <time>2014-02-12T09:19:40.000Z</time>
      </trkpt>
      <trkpt lat="45.90644" lon="6.49858">
        <ele>2151.8000488281</ele>
        <time>2014-02-12T09:19:41.000Z</time>
      </trkpt>
      <trkpt lat="45.90644" lon="6.49858">
        <ele>2152</ele>
        <time>2014-02-12T09:19:42.000Z</time>
      </trkpt>
      <trkpt lat="45.90644" lon="6.49858">
        <ele>2152.1999511719</ele>
        <time>2014-02-12T09:19:43.000Z</time>
      </trkpt>
      <trkpt lat="45.90643" lon="6.49858">
        <ele>2152</ele>
        <time>2014-02-12T09:19:44.000Z</time>
      </trkpt>
      <trkpt lat="45.90642" lon="6.49858">
        <ele>2152</ele>
        <time>2014-02-12T09:19:45.000Z</time>
      </trkpt>
      <trkpt lat="45.90642" lon="6.49859">
        <ele>2152.1999511719</ele>
        <time>2014-02-12T09:19:46.000Z</time>
      </trkpt>
      <trkpt lat="45.90641" lon="6.49859">
        <ele>2152.1999511719</ele>
        <time>2014-02-12T09:19:47.000Z</time>
      </trkpt>
      <trkpt lat="45.9064" lon="6.49859">
        <ele>2152.1999511719</ele>
        <time>2014-02-12T09:19:48.000Z</time>
      </trkpt>
      <trkpt lat="45.9064" lon="6.49858">
        <ele>2152</ele>
        <time>2014-02-12T09:19:49.000Z</time>
      </trkpt>
      <trkpt lat="45.90639" lon="6.49859">
        <ele>2152.1999511719</ele>
        <time>2014-02-12T09:19:50.000Z</time>
      </trkpt>
      <trkpt lat="45.90639" lon="6.49859">
        <ele>2152.6000976562</ele>
        <time>2014-02-12T09:19:51.000Z</time>
      </trkpt>
      <trkpt lat="45.90639" lon="6.4986">
        <ele>2152.8000488281</ele>
        <time>2014-02-12T09:19:52.000Z</time>
      </trkpt>
      <trkpt lat="45.90638" lon="6.49861">
        <ele>2153</ele>
        <time>2014-02-12T09:19:53.000Z</time>
      </trkpt>
      <trkpt lat="45.90637" lon="6.49861">
        <ele>2153.1999511719</ele>
        <time>2014-02-12T09:19:54.000Z</time>
      </trkpt>
      <trkpt lat="45.90637" lon="6.49861">
        <ele>2153.3999023438</ele>
        <time>2014-02-12T09:19:55.000Z</time>
      </trkpt>
      <trkpt lat="45.90636" lon="6.49862">
        <ele>2153.6000976562</ele>
        <time>2014-02-12T09:19:56.000Z</time>
      </trkpt>
      <trkpt lat="45.90636" lon="6.49862">
        <ele>2153.8000488281</ele>
        <time>2014-02-12T09:19:57.000Z</time>
      </trkpt>
      <trkpt lat="45.90635" lon="6.49863">
        <ele>2154</ele>
        <time>2014-02-12T09:19:58.000Z</time>
      </trkpt>
      <trkpt lat="45.90635" lon="6.49863">
        <ele>2154.1999511719</ele>
        <time>2014-02-12T09:19:59.000Z</time>
      </trkpt>
      <trkpt lat="45.90634" lon="6.49863">
        <ele>2154.3999023438</ele>
        <time>2014-02-12T09:20:00.000Z</time>
      </trkpt>
      <trkpt lat="45.90634" lon="6.49863">
        <ele>2154.3999023438</ele>
        <time>2014-02-12T09:20:01.000Z</time>
      </trkpt>
      <trkpt lat="45.90634" lon="6.49863">
        <ele>2154.3999023438</ele>
        <time>2014-02-12T09:20:02.000Z</time>
      </trkpt>
      <trkpt lat="45.90634" lon="6.49863">
        <ele>2154.3999023438</ele>
        <time>2014-02-12T09:20:03.000Z</time>
      </trkpt>
      <trkpt lat="45.90634" lon="6.49863">
        <ele>2154.3999023438</ele>
        <time>2014-02-12T09:20:04.000Z</time>
      </trkpt>
      <trkpt lat="45.90634" lon="6.49863">
        <ele>2154.3999023438</ele>
        <time>2014-02-12T09:20:05.000Z</time>
      </trkpt>
      <trkpt lat="45.90634" lon="6.49863">
        <ele>2154.3999023438</ele>
        <time>2014-02-12T09:20:06.000Z</time>
      </trkpt>
      <trkpt lat="45.90634" lon="6.49863">
        <ele>2154.3999023438</ele>
        <time>2014-02-12T09:20:07.000Z</time>
      </trkpt>
      <trkpt lat="45.90634" lon="6.49863">
        <ele>2154.3999023438</ele>
        <time>2014-02-12T09:20:08.000Z</time>
      </trkpt>
      <trkpt lat="45.90634" lon="6.49863">
        <ele>2154.3999023438</ele>
        <time>2014-02-12T09:20:09.000Z</time>
      </trkpt>
      <trkpt lat="45.90634" lon="6.49863">
        <ele>2154.3999023438</ele>
        <time>2014-02-12T09:20:10.000Z</time>
      </trkpt>
      <trkpt lat="45.90634" lon="6.49863">
        <ele>2154.3999023438</ele>
        <time>2014-02-12T09:20:14.000Z</time>
      </trkpt>
      <trkpt lat="45.90634" lon="6.49863">
        <ele>2154.3999023438</ele>
        <time>2014-02-12T09:20:15.000Z</time>
      </trkpt>
      <trkpt lat="45.90634" lon="6.49863">
        <ele>2154.3999023438</ele>
        <time>2014-02-12T09:20:16.000Z</time>
      </trkpt>
      <trkpt lat="45.90634" lon="6.49863">
        <ele>2154.3999023438</ele>
        <time>2014-02-12T09:20:17.000Z</time>
      </trkpt>
      <trkpt lat="45.90634" lon="6.49863">
        <ele>2154.3999023438</ele>
        <time>2014-02-12T09:20:18.000Z</time>
      </trkpt>
      <trkpt lat="45.90634" lon="6.49863">
        <ele>2154.3999023438</ele>
        <time>2014-02-12T09:20:19.000Z</time>
      </trkpt>
      <trkpt lat="45.90634" lon="6.49863">
        <ele>2154.3999023438</ele>
        <time>2014-02-12T09:20:20.000Z</time>
      </trkpt>
      <trkpt lat="45.90634" lon="6.49863">
        <ele>2154.3999023438</ele>
        <time>2014-02-12T09:20:24.000Z</time>
      </trkpt>
      <trkpt lat="45.90634" lon="6.49863">
        <ele>2154.3999023438</ele>
        <time>2014-02-12T09:20:27.000Z</time>
      </trkpt>
      <trkpt lat="45.90635" lon="6.49863">
        <ele>2154</ele>
        <time>2014-02-12T09:20:28.000Z</time>
      </trkpt>
      <trkpt lat="45.90635" lon="6.49863">
        <ele>2154</ele>
        <time>2014-02-12T09:20:29.000Z</time>
      </trkpt>
      <trkpt lat="45.90635" lon="6.49863">
        <ele>2154</ele>
        <time>2014-02-12T09:20:30.000Z</time>
      </trkpt>
      <trkpt lat="45.90635" lon="6.49863">
        <ele>2154</ele>
        <time>2014-02-12T09:20:31.000Z</time>
      </trkpt>
      <trkpt lat="45.90635" lon="6.49863">
        <ele>2154</ele>
        <time>2014-02-12T09:20:32.000Z</time>
      </trkpt>
      <trkpt lat="45.90635" lon="6.49863">
        <ele>2154.1999511719</ele>
        <time>2014-02-12T09:20:33.000Z</time>
      </trkpt>
      <trkpt lat="45.90635" lon="6.49863">
        <ele>2154.1999511719</ele>
        <time>2014-02-12T09:20:34.000Z</time>
      </trkpt>
      <trkpt lat="45.90635" lon="6.49863">
        <ele>2154.1999511719</ele>
        <time>2014-02-12T09:20:35.000Z</time>
      </trkpt>
      <trkpt lat="45.90635" lon="6.49864">
        <ele>2154.6000976562</ele>
        <time>2014-02-12T09:20:36.000Z</time>
      </trkpt>
      <trkpt lat="45.90634" lon="6.49864">
        <ele>2154.8000488281</ele>
        <time>2014-02-12T09:20:37.000Z</time>
      </trkpt>
      <trkpt lat="45.90633" lon="6.49865">
        <ele>2155.1999511719</ele>
        <time>2014-02-12T09:20:39.000Z</time>
      </trkpt>
      <trkpt lat="45.90633" lon="6.49866">
        <ele>2155.3999023438</ele>
        <time>2014-02-12T09:20:40.000Z</time>
      </trkpt>
      <trkpt lat="45.90632" lon="6.49866">
        <ele>2155.8000488281</ele>
        <time>2014-02-12T09:20:41.000Z</time>
      </trkpt>
      <trkpt lat="45.90631" lon="6.49867">
        <ele>2156</ele>
        <time>2014-02-12T09:20:42.000Z</time>
      </trkpt>
      <trkpt lat="45.9063" lon="6.49868">
        <ele>2156.3999023438</ele>
        <time>2014-02-12T09:20:43.000Z</time>
      </trkpt>
      <trkpt lat="45.90629" lon="6.49868">
        <ele>2156.6000976562</ele>
        <time>2014-02-12T09:20:44.000Z</time>
      </trkpt>
      <trkpt lat="45.90629" lon="6.49868">
        <ele>2156.6000976562</ele>
        <time>2014-02-12T09:20:45.000Z</time>
      </trkpt>
      <trkpt lat="45.90628" lon="6.49868">
        <ele>2156.8000488281</ele>
        <time>2014-02-12T09:20:46.000Z</time>
      </trkpt>
      <trkpt lat="45.90628" lon="6.49869">
        <ele>2157</ele>
        <time>2014-02-12T09:20:47.000Z</time>
      </trkpt>
      <trkpt lat="45.90627" lon="6.49869">
        <ele>2157.3999023438</ele>
        <time>2014-02-12T09:20:48.000Z</time>
      </trkpt>
      <trkpt lat="45.90626" lon="6.4987">
        <ele>2157.6000976562</ele>
        <time>2014-02-12T09:20:49.000Z</time>
      </trkpt>
      <trkpt lat="45.90626" lon="6.4987">
        <ele>2157.8000488281</ele>
        <time>2014-02-12T09:20:50.000Z</time>
      </trkpt>
      <trkpt lat="45.90625" lon="6.4987">
        <ele>2158</ele>
        <time>2014-02-12T09:20:51.000Z</time>
      </trkpt>
      <trkpt lat="45.90624" lon="6.49871">
        <ele>2158.1999511719</ele>
        <time>2014-02-12T09:20:52.000Z</time>
      </trkpt>
      <trkpt lat="45.90623" lon="6.49871">
        <ele>2158.3999023438</ele>
        <time>2014-02-12T09:20:53.000Z</time>
      </trkpt>
      <trkpt lat="45.90622" lon="6.49872">
        <ele>2158.6000976562</ele>
        <time>2014-02-12T09:20:54.000Z</time>
      </trkpt>
      <trkpt lat="45.90622" lon="6.49873">
        <ele>2159</ele>
        <time>2014-02-12T09:20:55.000Z</time>
      </trkpt>
      <trkpt lat="45.90621" lon="6.49874">
        <ele>2159.6000976562</ele>
        <time>2014-02-12T09:20:56.000Z</time>
      </trkpt>
      <trkpt lat="45.90621" lon="6.49875">
        <ele>2160</ele>
        <time>2014-02-12T09:20:57.000Z</time>
      </trkpt>
      <trkpt lat="45.9062" lon="6.49876">
        <ele>2160.3999023438</ele>
        <time>2014-02-12T09:20:58.000Z</time>
      </trkpt>
      <trkpt lat="45.90619" lon="6.49876">
        <ele>2160.6000976562</ele>
        <time>2014-02-12T09:20:59.000Z</time>
      </trkpt>
      <trkpt lat="45.90619" lon="6.49877">
        <ele>2160.8000488281</ele>
        <time>2014-02-12T09:21:00.000Z</time>
      </trkpt>
      <trkpt lat="45.90618" lon="6.49877">
        <ele>2161.3999023438</ele>
        <time>2014-02-12T09:21:01.000Z</time>
      </trkpt>
      <trkpt lat="45.90617" lon="6.49878">
        <ele>2161.3999023438</ele>
        <time>2014-02-12T09:21:02.000Z</time>
      </trkpt>
      <trkpt lat="45.90616" lon="6.49878">
        <ele>2161.6000976562</ele>
        <time>2014-02-12T09:21:03.000Z</time>
      </trkpt>
      <trkpt lat="45.90615" lon="6.49879">
        <ele>2161.8000488281</ele>
        <time>2014-02-12T09:21:04.000Z</time>
      </trkpt>
      <trkpt lat="45.90614" lon="6.4988">
        <ele>2162</ele>
        <time>2014-02-12T09:21:05.000Z</time>
      </trkpt>
      <trkpt lat="45.90613" lon="6.49881">
        <ele>2162.1999511719</ele>
        <time>2014-02-12T09:21:06.000Z</time>
      </trkpt>
      <trkpt lat="45.90612" lon="6.49882">
        <ele>2162.3999023438</ele>
        <time>2014-02-12T09:21:07.000Z</time>
      </trkpt>
      <trkpt lat="45.90611" lon="6.49883">
        <ele>2162.8000488281</ele>
        <time>2014-02-12T09:21:08.000Z</time>
      </trkpt>
      <trkpt lat="45.9061" lon="6.49884">
        <ele>2163</ele>
        <time>2014-02-12T09:21:09.000Z</time>
      </trkpt>
      <trkpt lat="45.90609" lon="6.49884">
        <ele>2163.1999511719</ele>
        <time>2014-02-12T09:21:10.000Z</time>
      </trkpt>
      <trkpt lat="45.90609" lon="6.49885">
        <ele>2163.3999023438</ele>
        <time>2014-02-12T09:21:11.000Z</time>
      </trkpt>
      <trkpt lat="45.90608" lon="6.49885">
        <ele>2163.6000976562</ele>
        <time>2014-02-12T09:21:12.000Z</time>
      </trkpt>
      <trkpt lat="45.90607" lon="6.49886">
        <ele>2163.6000976562</ele>
        <time>2014-02-12T09:21:13.000Z</time>
      </trkpt>
      <trkpt lat="45.90606" lon="6.49886">
        <ele>2163.8000488281</ele>
        <time>2014-02-12T09:21:14.000Z</time>
      </trkpt>
      <trkpt lat="45.90605" lon="6.49887">
        <ele>2164</ele>
        <time>2014-02-12T09:21:15.000Z</time>
      </trkpt>
      <trkpt lat="45.90604" lon="6.49888">
        <ele>2164.1999511719</ele>
        <time>2014-02-12T09:21:16.000Z</time>
      </trkpt>
      <trkpt lat="45.90603" lon="6.49889">
        <ele>2164.6000976562</ele>
        <time>2014-02-12T09:21:17.000Z</time>
      </trkpt>
      <trkpt lat="45.90602" lon="6.4989">
        <ele>2164.8000488281</ele>
        <time>2014-02-12T09:21:18.000Z</time>
      </trkpt>
      <trkpt lat="45.90602" lon="6.49891">
        <ele>2165</ele>
        <time>2014-02-12T09:21:19.000Z</time>
      </trkpt>
      <trkpt lat="45.90601" lon="6.49892">
        <ele>2165.3999023438</ele>
        <time>2014-02-12T09:21:20.000Z</time>
      </trkpt>
      <trkpt lat="45.90601" lon="6.49893">
        <ele>2165.6000976562</ele>
        <time>2014-02-12T09:21:21.000Z</time>
      </trkpt>
      <trkpt lat="45.906" lon="6.49893">
        <ele>2165.6000976562</ele>
        <time>2014-02-12T09:21:22.000Z</time>
      </trkpt>
      <trkpt lat="45.90599" lon="6.49894">
        <ele>2165.8000488281</ele>
        <time>2014-02-12T09:21:23.000Z</time>
      </trkpt>
      <trkpt lat="45.90598" lon="6.49894">
        <ele>2165.8000488281</ele>
        <time>2014-02-12T09:21:24.000Z</time>
      </trkpt>
      <trkpt lat="45.90597" lon="6.49894">
        <ele>2166</ele>
        <time>2014-02-12T09:21:25.000Z</time>
      </trkpt>
      <trkpt lat="45.90597" lon="6.49894">
        <ele>2166</ele>
        <time>2014-02-12T09:21:26.000Z</time>
      </trkpt>
      <trkpt lat="45.90597" lon="6.49894">
        <ele>2166</ele>
        <time>2014-02-12T09:21:27.000Z</time>
      </trkpt>
      <trkpt lat="45.90597" lon="6.49894">
        <ele>2166</ele>
        <time>2014-02-12T09:21:28.000Z</time>
      </trkpt>
      <trkpt lat="45.90597" lon="6.49894">
        <ele>2166</ele>
        <time>2014-02-12T09:21:29.000Z</time>
      </trkpt>
      <trkpt lat="45.90597" lon="6.49894">
        <ele>2166</ele>
        <time>2014-02-12T09:21:30.000Z</time>
      </trkpt>
      <trkpt lat="45.90596" lon="6.49894">
        <ele>2166</ele>
        <time>2014-02-12T09:21:31.000Z</time>
      </trkpt>
      <trkpt lat="45.90596" lon="6.49894">
        <ele>2166</ele>
        <time>2014-02-12T09:21:32.000Z</time>
      </trkpt>
      <trkpt lat="45.90594" lon="6.49895">
        <ele>2166.1999511719</ele>
        <time>2014-02-12T09:21:33.000Z</time>
      </trkpt>
      <trkpt lat="45.90594" lon="6.49895">
        <ele>2166.1999511719</ele>
        <time>2014-02-12T09:21:34.000Z</time>
      </trkpt>
      <trkpt lat="45.90593" lon="6.49895">
        <ele>2166.1999511719</ele>
        <time>2014-02-12T09:21:35.000Z</time>
      </trkpt>
      <trkpt lat="45.90592" lon="6.49896">
        <ele>2166.3999023438</ele>
        <time>2014-02-12T09:21:36.000Z</time>
      </trkpt>
      <trkpt lat="45.90591" lon="6.49896">
        <ele>2166.3999023438</ele>
        <time>2014-02-12T09:21:37.000Z</time>
      </trkpt>
      <trkpt lat="45.9059" lon="6.49896">
        <ele>2166.6000976562</ele>
        <time>2014-02-12T09:21:38.000Z</time>
      </trkpt>
      <trkpt lat="45.9059" lon="6.49896">
        <ele>2166.6000976562</ele>
        <time>2014-02-12T09:21:39.000Z</time>
      </trkpt>
      <trkpt lat="45.90588" lon="6.49897">
        <ele>2166.8000488281</ele>
        <time>2014-02-12T09:21:40.000Z</time>
      </trkpt>
      <trkpt lat="45.90587" lon="6.49898">
        <ele>2167</ele>
        <time>2014-02-12T09:21:41.000Z</time>
      </trkpt>
      <trkpt lat="45.90586" lon="6.49898">
        <ele>2167</ele>
        <time>2014-02-12T09:21:42.000Z</time>
      </trkpt>
      <trkpt lat="45.90586" lon="6.49898">
        <ele>2167.1999511719</ele>
        <time>2014-02-12T09:21:43.000Z</time>
      </trkpt>
      <trkpt lat="45.90585" lon="6.49899">
        <ele>2167.1999511719</ele>
        <time>2014-02-12T09:21:44.000Z</time>
      </trkpt>
      <trkpt lat="45.90584" lon="6.49899">
        <ele>2167.3999023438</ele>
        <time>2014-02-12T09:21:45.000Z</time>
      </trkpt>
      <trkpt lat="45.90583" lon="6.49899">
        <ele>2167.3999023438</ele>
        <time>2014-02-12T09:21:46.000Z</time>
      </trkpt>
      <trkpt lat="45.90582" lon="6.49899">
        <ele>2167.3999023438</ele>
        <time>2014-02-12T09:21:47.000Z</time>
      </trkpt>
      <trkpt lat="45.90582" lon="6.49899">
        <ele>2167.3999023438</ele>
        <time>2014-02-12T09:21:48.000Z</time>
      </trkpt>
      <trkpt lat="45.90581" lon="6.499">
        <ele>2167.6000976562</ele>
        <time>2014-02-12T09:21:49.000Z</time>
      </trkpt>
      <trkpt lat="45.90581" lon="6.499">
        <ele>2167.8000488281</ele>
        <time>2014-02-12T09:21:50.000Z</time>
      </trkpt>
      <trkpt lat="45.9058" lon="6.49901">
        <ele>2168.3999023438</ele>
        <time>2014-02-12T09:21:51.000Z</time>
      </trkpt>
      <trkpt lat="45.9058" lon="6.49903">
        <ele>2168.8000488281</ele>
        <time>2014-02-12T09:21:52.000Z</time>
      </trkpt>
      <trkpt lat="45.90579" lon="6.49904">
        <ele>2169.3999023438</ele>
        <time>2014-02-12T09:21:53.000Z</time>
      </trkpt>
      <trkpt lat="45.90578" lon="6.49905">
        <ele>2169.8000488281</ele>
        <time>2014-02-12T09:21:54.000Z</time>
      </trkpt>
      <trkpt lat="45.90578" lon="6.49906">
        <ele>2170.1999511719</ele>
        <time>2014-02-12T09:21:55.000Z</time>
      </trkpt>
      <trkpt lat="45.90577" lon="6.49906">
        <ele>2170.1999511719</ele>
        <time>2014-02-12T09:21:56.000Z</time>
      </trkpt>
      <trkpt lat="45.90577" lon="6.49906">
        <ele>2170.3999023438</ele>
        <time>2014-02-12T09:21:57.000Z</time>
      </trkpt>
      <trkpt lat="45.90576" lon="6.49906">
        <ele>2170.3999023438</ele>
        <time>2014-02-12T09:21:58.000Z</time>
      </trkpt>
      <trkpt lat="45.90575" lon="6.49906">
        <ele>2170.3999023438</ele>
        <time>2014-02-12T09:21:59.000Z</time>
      </trkpt>
      <trkpt lat="45.90575" lon="6.49907">
        <ele>2170.6000976562</ele>
        <time>2014-02-12T09:22:00.000Z</time>
      </trkpt>
      <trkpt lat="45.90574" lon="6.49907">
        <ele>2170.6000976562</ele>
        <time>2014-02-12T09:22:01.000Z</time>
      </trkpt>
      <trkpt lat="45.90573" lon="6.49907">
        <ele>2170.8000488281</ele>
        <time>2014-02-12T09:22:02.000Z</time>
      </trkpt>
      <trkpt lat="45.90572" lon="6.49907">
        <ele>2171</ele>
        <time>2014-02-12T09:22:03.000Z</time>
      </trkpt>
      <trkpt lat="45.90572" lon="6.49908">
        <ele>2171</ele>
        <time>2014-02-12T09:22:04.000Z</time>
      </trkpt>
      <trkpt lat="45.90572" lon="6.49908">
        <ele>2171.1999511719</ele>
        <time>2014-02-12T09:22:05.000Z</time>
      </trkpt>
      <trkpt lat="45.90571" lon="6.49909">
        <ele>2171.3999023438</ele>
        <time>2014-02-12T09:22:06.000Z</time>
      </trkpt>
      <trkpt lat="45.90571" lon="6.49909">
        <ele>2171.3999023438</ele>
        <time>2014-02-12T09:22:07.000Z</time>
      </trkpt>
      <trkpt lat="45.9057" lon="6.49909">
        <ele>2171.6000976562</ele>
        <time>2014-02-12T09:22:08.000Z</time>
      </trkpt>
      <trkpt lat="45.90569" lon="6.4991">
        <ele>2172</ele>
        <time>2014-02-12T09:22:09.000Z</time>
      </trkpt>
      <trkpt lat="45.90569" lon="6.49911">
        <ele>2172.1999511719</ele>
        <time>2014-02-12T09:22:10.000Z</time>
      </trkpt>
      <trkpt lat="45.90568" lon="6.49911">
        <ele>2172.3999023438</ele>
        <time>2014-02-12T09:22:11.000Z</time>
      </trkpt>
      <trkpt lat="45.90567" lon="6.49911">
        <ele>2172.3999023438</ele>
        <time>2014-02-12T09:22:12.000Z</time>
      </trkpt>
      <trkpt lat="45.90567" lon="6.49911">
        <ele>2172.3999023438</ele>
        <time>2014-02-12T09:22:13.000Z</time>
      </trkpt>
      <trkpt lat="45.90566" lon="6.49912">
        <ele>2172.3999023438</ele>
        <time>2014-02-12T09:22:14.000Z</time>
      </trkpt>
      <trkpt lat="45.90565" lon="6.49912">
        <ele>2172.6000976562</ele>
        <time>2014-02-12T09:22:15.000Z</time>
      </trkpt>
      <trkpt lat="45.90564" lon="6.49913">
        <ele>2172.6000976562</ele>
        <time>2014-02-12T09:22:16.000Z</time>
      </trkpt>
      <trkpt lat="45.90564" lon="6.49913">
        <ele>2172.6000976562</ele>
        <time>2014-02-12T09:22:17.000Z</time>
      </trkpt>
      <trkpt lat="45.90563" lon="6.49914">
        <ele>2172.6000976562</ele>
        <time>2014-02-12T09:22:18.000Z</time>
      </trkpt>
      <trkpt lat="45.90561" lon="6.49914">
        <ele>2172.6000976562</ele>
        <time>2014-02-12T09:22:19.000Z</time>
      </trkpt>
      <trkpt lat="45.90561" lon="6.49915">
        <ele>2172.6000976562</ele>
        <time>2014-02-12T09:22:20.000Z</time>
      </trkpt>
      <trkpt lat="45.9056" lon="6.49915">
        <ele>2172.6000976562</ele>
        <time>2014-02-12T09:22:21.000Z</time>
      </trkpt>
      <trkpt lat="45.90559" lon="6.49916">
        <ele>2172.8000488281</ele>
        <time>2014-02-12T09:22:22.000Z</time>
      </trkpt>
      <trkpt lat="45.90559" lon="6.49916">
        <ele>2172.8000488281</ele>
        <time>2014-02-12T09:22:23.000Z</time>
      </trkpt>
      <trkpt lat="45.90559" lon="6.49917">
        <ele>2172.8000488281</ele>
        <time>2014-02-12T09:22:24.000Z</time>
      </trkpt>
      <trkpt lat="45.90558" lon="6.49916">
        <ele>2172.8000488281</ele>
        <time>2014-02-12T09:22:25.000Z</time>
      </trkpt>
      <trkpt lat="45.90557" lon="6.49917">
        <ele>2172.8000488281</ele>
        <time>2014-02-12T09:22:26.000Z</time>
      </trkpt>
      <trkpt lat="45.90557" lon="6.49917">
        <ele>2172.8000488281</ele>
        <time>2014-02-12T09:22:27.000Z</time>
      </trkpt>
      <trkpt lat="45.90556" lon="6.49918">
        <ele>2173</ele>
        <time>2014-02-12T09:22:28.000Z</time>
      </trkpt>
      <trkpt lat="45.90556" lon="6.49918">
        <ele>2173.1999511719</ele>
        <time>2014-02-12T09:22:29.000Z</time>
      </trkpt>
      <trkpt lat="45.90555" lon="6.49919">
        <ele>2173.3999023438</ele>
        <time>2014-02-12T09:22:30.000Z</time>
      </trkpt>
      <trkpt lat="45.90553" lon="6.49919">
        <ele>2173.8000488281</ele>
        <time>2014-02-12T09:22:31.000Z</time>
      </trkpt>
      <trkpt lat="45.90552" lon="6.4992">
        <ele>2174.1999511719</ele>
        <time>2014-02-12T09:22:32.000Z</time>
      </trkpt>
      <trkpt lat="45.90552" lon="6.4992">
        <ele>2174.3999023438</ele>
        <time>2014-02-12T09:22:33.000Z</time>
      </trkpt>
      <trkpt lat="45.90552" lon="6.4992">
        <ele>2174.3999023438</ele>
        <time>2014-02-12T09:22:34.000Z</time>
      </trkpt>
      <trkpt lat="45.90552" lon="6.4992">
        <ele>2174.3999023438</ele>
        <time>2014-02-12T09:22:35.000Z</time>
      </trkpt>
      <trkpt lat="45.90552" lon="6.4992">
        <ele>2174.3999023438</ele>
        <time>2014-02-12T09:22:36.000Z</time>
      </trkpt>
      <trkpt lat="45.90552" lon="6.4992">
        <ele>2174.3999023438</ele>
        <time>2014-02-12T09:22:37.000Z</time>
      </trkpt>
      <trkpt lat="45.90552" lon="6.49921">
        <ele>2174.6000976562</ele>
        <time>2014-02-12T09:22:38.000Z</time>
      </trkpt>
      <trkpt lat="45.90552" lon="6.49921">
        <ele>2174.6000976562</ele>
        <time>2014-02-12T09:22:39.000Z</time>
      </trkpt>
      <trkpt lat="45.90551" lon="6.49922">
        <ele>2175</ele>
        <time>2014-02-12T09:22:41.000Z</time>
      </trkpt>
      <trkpt lat="45.9055" lon="6.49923">
        <ele>2175.6000976562</ele>
        <time>2014-02-12T09:22:42.000Z</time>
      </trkpt>
      <trkpt lat="45.9055" lon="6.49924">
        <ele>2175.8000488281</ele>
        <time>2014-02-12T09:22:43.000Z</time>
      </trkpt>
      <trkpt lat="45.90549" lon="6.49926">
        <ele>2176.3999023438</ele>
        <time>2014-02-12T09:22:44.000Z</time>
      </trkpt>
      <trkpt lat="45.90549" lon="6.49927">
        <ele>2176.6000976562</ele>
        <time>2014-02-12T09:22:45.000Z</time>
      </trkpt>
      <trkpt lat="45.90549" lon="6.49927">
        <ele>2176.8000488281</ele>
        <time>2014-02-12T09:22:46.000Z</time>
      </trkpt>
      <trkpt lat="45.90549" lon="6.49929">
        <ele>2177.1999511719</ele>
        <time>2014-02-12T09:22:47.000Z</time>
      </trkpt>
      <trkpt lat="45.90548" lon="6.4993">
        <ele>2177.6000976562</ele>
        <time>2014-02-12T09:22:48.000Z</time>
      </trkpt>
      <trkpt lat="45.90548" lon="6.49931">
        <ele>2178</ele>
        <time>2014-02-12T09:22:49.000Z</time>
      </trkpt>
      <trkpt lat="45.90547" lon="6.49932">
        <ele>2178.3999023438</ele>
        <time>2014-02-12T09:22:50.000Z</time>
      </trkpt>
      <trkpt lat="45.90547" lon="6.49932">
        <ele>2178.6000976562</ele>
        <time>2014-02-12T09:22:51.000Z</time>
      </trkpt>
      <trkpt lat="45.90547" lon="6.49933">
        <ele>2178.8000488281</ele>
        <time>2014-02-12T09:22:52.000Z</time>
      </trkpt>
      <trkpt lat="45.90547" lon="6.49935">
        <ele>2179.3999023438</ele>
        <time>2014-02-12T09:22:53.000Z</time>
      </trkpt>
      <trkpt lat="45.90547" lon="6.49936">
        <ele>2179.6000976562</ele>
        <time>2014-02-12T09:22:54.000Z</time>
      </trkpt>
      <trkpt lat="45.90547" lon="6.49938">
        <ele>2180</ele>
        <time>2014-02-12T09:22:55.000Z</time>
      </trkpt>
      <trkpt lat="45.90547" lon="6.49939">
        <ele>2180.3999023438</ele>
        <time>2014-02-12T09:22:56.000Z</time>
      </trkpt>
      <trkpt lat="45.90548" lon="6.4994">
        <ele>2180.8000488281</ele>
        <time>2014-02-12T09:22:57.000Z</time>
      </trkpt>
      <trkpt lat="45.90548" lon="6.49942">
        <ele>2181.1999511719</ele>
        <time>2014-02-12T09:22:58.000Z</time>
      </trkpt>
      <trkpt lat="45.90548" lon="6.49943">
        <ele>2181.3999023438</ele>
        <time>2014-02-12T09:22:59.000Z</time>
      </trkpt>
      <trkpt lat="45.90549" lon="6.49944">
        <ele>2181.6000976562</ele>
        <time>2014-02-12T09:23:00.000Z</time>
      </trkpt>
      <trkpt lat="45.90549" lon="6.49945">
        <ele>2181.8000488281</ele>
        <time>2014-02-12T09:23:01.000Z</time>
      </trkpt>
      <trkpt lat="45.90549" lon="6.49946">
        <ele>2182</ele>
        <time>2014-02-12T09:23:02.000Z</time>
      </trkpt>
      <trkpt lat="45.90548" lon="6.49948">
        <ele>2182.6000976562</ele>
        <time>2014-02-12T09:23:03.000Z</time>
      </trkpt>
      <trkpt lat="45.90548" lon="6.4995">
        <ele>2183</ele>
        <time>2014-02-12T09:23:04.000Z</time>
      </trkpt>
      <trkpt lat="45.90548" lon="6.4995">
        <ele>2183.1999511719</ele>
        <time>2014-02-12T09:23:05.000Z</time>
      </trkpt>
      <trkpt lat="45.90547" lon="6.49951">
        <ele>2183.6000976562</ele>
        <time>2014-02-12T09:23:06.000Z</time>
      </trkpt>
      <trkpt lat="45.90547" lon="6.49953">
        <ele>2184.1999511719</ele>
        <time>2014-02-12T09:23:07.000Z</time>
      </trkpt>
      <trkpt lat="45.90546" lon="6.49954">
        <ele>2184.6000976562</ele>
        <time>2014-02-12T09:23:08.000Z</time>
      </trkpt>
      <trkpt lat="45.90545" lon="6.49954">
        <ele>2185</ele>
        <time>2014-02-12T09:23:09.000Z</time>
      </trkpt>
      <trkpt lat="45.90545" lon="6.49955">
        <ele>2185</ele>
        <time>2014-02-12T09:23:10.000Z</time>
      </trkpt>
      <trkpt lat="45.90544" lon="6.49955">
        <ele>2185.3999023438</ele>
        <time>2014-02-12T09:23:11.000Z</time>
      </trkpt>
      <trkpt lat="45.90543" lon="6.49956">
        <ele>2185.6000976562</ele>
        <time>2014-02-12T09:23:12.000Z</time>
      </trkpt>
      <trkpt lat="45.90544" lon="6.49958">
        <ele>2186</ele>
        <time>2014-02-12T09:23:13.000Z</time>
      </trkpt>
      <trkpt lat="45.90543" lon="6.49958">
        <ele>2186.3999023438</ele>
        <time>2014-02-12T09:23:14.000Z</time>
      </trkpt>
      <trkpt lat="45.90542" lon="6.49958">
        <ele>2186.3999023438</ele>
        <time>2014-02-12T09:23:15.000Z</time>
      </trkpt>
      <trkpt lat="45.90542" lon="6.49958">
        <ele>2186.3999023438</ele>
        <time>2014-02-12T09:23:16.000Z</time>
      </trkpt>
      <trkpt lat="45.90542" lon="6.49958">
        <ele>2186.3999023438</ele>
        <time>2014-02-12T09:23:17.000Z</time>
      </trkpt>
      <trkpt lat="45.90542" lon="6.49958">
        <ele>2186.3999023438</ele>
        <time>2014-02-12T09:23:18.000Z</time>
      </trkpt>
      <trkpt lat="45.90542" lon="6.49958">
        <ele>2186.3999023438</ele>
        <time>2014-02-12T09:23:19.000Z</time>
      </trkpt>
      <trkpt lat="45.90542" lon="6.49958">
        <ele>2186.3999023438</ele>
        <time>2014-02-12T09:23:20.000Z</time>
      </trkpt>
      <trkpt lat="45.90542" lon="6.49958">
        <ele>2186.3999023438</ele>
        <time>2014-02-12T09:23:21.000Z</time>
      </trkpt>
      <trkpt lat="45.90542" lon="6.49958">
        <ele>2186.3999023438</ele>
        <time>2014-02-12T09:23:22.000Z</time>
      </trkpt>
      <trkpt lat="45.90542" lon="6.49958">
        <ele>2186.3999023438</ele>
        <time>2014-02-12T09:23:23.000Z</time>
      </trkpt>
      <trkpt lat="45.90542" lon="6.49958">
        <ele>2186.3999023438</ele>
        <time>2014-02-12T09:23:24.000Z</time>
      </trkpt>
      <trkpt lat="45.90542" lon="6.49958">
        <ele>2186.3999023438</ele>
        <time>2014-02-12T09:23:25.000Z</time>
      </trkpt>
      <trkpt lat="45.90542" lon="6.49958">
        <ele>2186.3999023438</ele>
        <time>2014-02-12T09:23:26.000Z</time>
      </trkpt>
      <trkpt lat="45.90542" lon="6.49958">
        <ele>2186.3999023438</ele>
        <time>2014-02-12T09:23:27.000Z</time>
      </trkpt>
      <trkpt lat="45.90542" lon="6.49959">
        <ele>2186.6000976562</ele>
        <time>2014-02-12T09:23:28.000Z</time>
      </trkpt>
      <trkpt lat="45.90542" lon="6.4996">
        <ele>2187</ele>
        <time>2014-02-12T09:23:29.000Z</time>
      </trkpt>
      <trkpt lat="45.90542" lon="6.49961">
        <ele>2187.1999511719</ele>
        <time>2014-02-12T09:23:30.000Z</time>
      </trkpt>
      <trkpt lat="45.90542" lon="6.49962">
        <ele>2187.6000976562</ele>
        <time>2014-02-12T09:23:31.000Z</time>
      </trkpt>
      <trkpt lat="45.90542" lon="6.49964">
        <ele>2188.1999511719</ele>
        <time>2014-02-12T09:23:32.000Z</time>
      </trkpt>
      <trkpt lat="45.90541" lon="6.49966">
        <ele>2188.6000976562</ele>
        <time>2014-02-12T09:23:33.000Z</time>
      </trkpt>
      <trkpt lat="45.90541" lon="6.49969">
        <ele>2189.3999023438</ele>
        <time>2014-02-12T09:23:34.000Z</time>
      </trkpt>
      <trkpt lat="45.90541" lon="6.4997">
        <ele>2189.6000976562</ele>
        <time>2014-02-12T09:23:35.000Z</time>
      </trkpt>
      <trkpt lat="45.90541" lon="6.49971">
        <ele>2189.8000488281</ele>
        <time>2014-02-12T09:23:36.000Z</time>
      </trkpt>
      <trkpt lat="45.9054" lon="6.49973">
        <ele>2190</ele>
        <time>2014-02-12T09:23:37.000Z</time>
      </trkpt>
      <trkpt lat="45.9054" lon="6.49974">
        <ele>2190.1999511719</ele>
        <time>2014-02-12T09:23:38.000Z</time>
      </trkpt>
      <trkpt lat="45.9054" lon="6.49975">
        <ele>2190.3999023438</ele>
        <time>2014-02-12T09:23:39.000Z</time>
      </trkpt>
      <trkpt lat="45.9054" lon="6.49975">
        <ele>2190.3999023438</ele>
        <time>2014-02-12T09:23:40.000Z</time>
      </trkpt>
      <trkpt lat="45.9054" lon="6.49976">
        <ele>2190.3999023438</ele>
        <time>2014-02-12T09:23:41.000Z</time>
      </trkpt>
      <trkpt lat="45.9054" lon="6.49978">
        <ele>2190.6000976562</ele>
        <time>2014-02-12T09:23:42.000Z</time>
      </trkpt>
      <trkpt lat="45.90541" lon="6.49979">
        <ele>2190.8000488281</ele>
        <time>2014-02-12T09:23:43.000Z</time>
      </trkpt>
      <trkpt lat="45.9054" lon="6.4998">
        <ele>2191</ele>
        <time>2014-02-12T09:23:44.000Z</time>
      </trkpt>
      <trkpt lat="45.9054" lon="6.49982">
        <ele>2191.1999511719</ele>
        <time>2014-02-12T09:23:45.000Z</time>
      </trkpt>
      <trkpt lat="45.9054" lon="6.49983">
        <ele>2191.1999511719</ele>
        <time>2014-02-12T09:23:46.000Z</time>
      </trkpt>
      <trkpt lat="45.9054" lon="6.49984">
        <ele>2191.6000976562</ele>
        <time>2014-02-12T09:23:47.000Z</time>
      </trkpt>
      <trkpt lat="45.9054" lon="6.49987">
        <ele>2192.1999511719</ele>
        <time>2014-02-12T09:23:48.000Z</time>
      </trkpt>
      <trkpt lat="45.9054" lon="6.49988">
        <ele>2192.8000488281</ele>
        <time>2014-02-12T09:23:49.000Z</time>
      </trkpt>
      <trkpt lat="45.9054" lon="6.4999">
        <ele>2193.1999511719</ele>
        <time>2014-02-12T09:23:50.000Z</time>
      </trkpt>
      <trkpt lat="45.9054" lon="6.49992">
        <ele>2193.8000488281</ele>
        <time>2014-02-12T09:23:51.000Z</time>
      </trkpt>
      <trkpt lat="45.9054" lon="6.49994">
        <ele>2194.1999511719</ele>
        <time>2014-02-12T09:23:52.000Z</time>
      </trkpt>
      <trkpt lat="45.90541" lon="6.49995">
        <ele>2194.6000976562</ele>
        <time>2014-02-12T09:23:53.000Z</time>
      </trkpt>
      <trkpt lat="45.90541" lon="6.49997">
        <ele>2195</ele>
        <time>2014-02-12T09:23:54.000Z</time>
      </trkpt>
      <trkpt lat="45.90542" lon="6.49998">
        <ele>2195.3999023438</ele>
        <time>2014-02-12T09:23:55.000Z</time>
      </trkpt>
      <trkpt lat="45.90542" lon="6.5">
        <ele>2196</ele>
        <time>2014-02-12T09:23:56.000Z</time>
      </trkpt>
      <trkpt lat="45.90542" lon="6.50002">
        <ele>2196.3999023438</ele>
        <time>2014-02-12T09:23:57.000Z</time>
      </trkpt>
      <trkpt lat="45.90541" lon="6.50002">
        <ele>2196.6000976562</ele>
        <time>2014-02-12T09:23:58.000Z</time>
      </trkpt>
      <trkpt lat="45.90541" lon="6.50004">
        <ele>2197</ele>
        <time>2014-02-12T09:23:59.000Z</time>
      </trkpt>
      <trkpt lat="45.90541" lon="6.50005">
        <ele>2197.3999023438</ele>
        <time>2014-02-12T09:24:00.000Z</time>
      </trkpt>
      <trkpt lat="45.90541" lon="6.50006">
        <ele>2197.6000976562</ele>
        <time>2014-02-12T09:24:01.000Z</time>
      </trkpt>
      <trkpt lat="45.90541" lon="6.50007">
        <ele>2198</ele>
        <time>2014-02-12T09:24:02.000Z</time>
      </trkpt>
      <trkpt lat="45.90541" lon="6.50008">
        <ele>2198.1999511719</ele>
        <time>2014-02-12T09:24:03.000Z</time>
      </trkpt>
      <trkpt lat="45.9054" lon="6.50009">
        <ele>2198.3999023438</ele>
        <time>2014-02-12T09:24:04.000Z</time>
      </trkpt>
      <trkpt lat="45.9054" lon="6.5001">
        <ele>2198.8000488281</ele>
        <time>2014-02-12T09:24:05.000Z</time>
      </trkpt>
      <trkpt lat="45.90539" lon="6.50011">
        <ele>2199</ele>
        <time>2014-02-12T09:24:06.000Z</time>
      </trkpt>
      <trkpt lat="45.90538" lon="6.50012">
        <ele>2199.1999511719</ele>
        <time>2014-02-12T09:24:07.000Z</time>
      </trkpt>
      <trkpt lat="45.90537" lon="6.50013">
        <ele>2199.8000488281</ele>
        <time>2014-02-12T09:24:08.000Z</time>
      </trkpt>
      <trkpt lat="45.90537" lon="6.50014">
        <ele>2200</ele>
        <time>2014-02-12T09:24:09.000Z</time>
      </trkpt>
      <trkpt lat="45.90537" lon="6.50015">
        <ele>2200.1999511719</ele>
        <time>2014-02-12T09:24:10.000Z</time>
      </trkpt>
      <trkpt lat="45.90537" lon="6.50017">
        <ele>2200.6000976562</ele>
        <time>2014-02-12T09:24:11.000Z</time>
      </trkpt>
      <trkpt lat="45.90536" lon="6.50017">
        <ele>2200.8000488281</ele>
        <time>2014-02-12T09:24:12.000Z</time>
      </trkpt>
      <trkpt lat="45.90536" lon="6.50019">
        <ele>2201.1999511719</ele>
        <time>2014-02-12T09:24:13.000Z</time>
      </trkpt>
      <trkpt lat="45.90536" lon="6.50019">
        <ele>2201.3999023438</ele>
        <time>2014-02-12T09:24:14.000Z</time>
      </trkpt>
      <trkpt lat="45.90536" lon="6.5002">
        <ele>2201.6000976562</ele>
        <time>2014-02-12T09:24:15.000Z</time>
      </trkpt>
      <trkpt lat="45.90535" lon="6.50022">
        <ele>2202.1999511719</ele>
        <time>2014-02-12T09:24:16.000Z</time>
      </trkpt>
      <trkpt lat="45.90535" lon="6.50022">
        <ele>2202.1999511719</ele>
        <time>2014-02-12T09:24:17.000Z</time>
      </trkpt>
      <trkpt lat="45.90534" lon="6.50024">
        <ele>2202.6000976562</ele>
        <time>2014-02-12T09:24:18.000Z</time>
      </trkpt>
      <trkpt lat="45.90534" lon="6.50025">
        <ele>2203.1999511719</ele>
        <time>2014-02-12T09:24:19.000Z</time>
      </trkpt>
      <trkpt lat="45.90533" lon="6.50026">
        <ele>2203.3999023438</ele>
        <time>2014-02-12T09:24:20.000Z</time>
      </trkpt>
      <trkpt lat="45.90532" lon="6.50028">
        <ele>2203.8000488281</ele>
        <time>2014-02-12T09:24:21.000Z</time>
      </trkpt>
      <trkpt lat="45.90532" lon="6.5003">
        <ele>2204.3999023438</ele>
        <time>2014-02-12T09:24:22.000Z</time>
      </trkpt>
      <trkpt lat="45.90532" lon="6.50031">
        <ele>2204.6000976562</ele>
        <time>2014-02-12T09:24:23.000Z</time>
      </trkpt>
      <trkpt lat="45.90532" lon="6.50032">
        <ele>2205.1999511719</ele>
        <time>2014-02-12T09:24:24.000Z</time>
      </trkpt>
      <trkpt lat="45.90531" lon="6.50033">
        <ele>2205.3999023438</ele>
        <time>2014-02-12T09:24:25.000Z</time>
      </trkpt>
      <trkpt lat="45.9053" lon="6.50033">
        <ele>2205.3999023438</ele>
        <time>2014-02-12T09:24:26.000Z</time>
      </trkpt>
      <trkpt lat="45.9053" lon="6.50035">
        <ele>2206</ele>
        <time>2014-02-12T09:24:27.000Z</time>
      </trkpt>
      <trkpt lat="45.9053" lon="6.50036">
        <ele>2206.1999511719</ele>
        <time>2014-02-12T09:24:28.000Z</time>
      </trkpt>
      <trkpt lat="45.9053" lon="6.50037">
        <ele>2206.3999023438</ele>
        <time>2014-02-12T09:24:29.000Z</time>
      </trkpt>
      <trkpt lat="45.9053" lon="6.50039">
        <ele>2206.8000488281</ele>
        <time>2014-02-12T09:24:30.000Z</time>
      </trkpt>
      <trkpt lat="45.9053" lon="6.50039">
        <ele>2207</ele>
        <time>2014-02-12T09:24:31.000Z</time>
      </trkpt>
      <trkpt lat="45.9053" lon="6.50041">
        <ele>2207.3999023438</ele>
        <time>2014-02-12T09:24:32.000Z</time>
      </trkpt>
      <trkpt lat="45.90529" lon="6.50043">
        <ele>2207.3999023438</ele>
        <time>2014-02-12T09:24:33.000Z</time>
      </trkpt>
      <trkpt lat="45.90528" lon="6.50044">
        <ele>2207.3999023438</ele>
        <time>2014-02-12T09:24:34.000Z</time>
      </trkpt>
      <trkpt lat="45.90527" lon="6.50045">
        <ele>2207.1999511719</ele>
        <time>2014-02-12T09:24:35.000Z</time>
      </trkpt>
      <trkpt lat="45.90527" lon="6.50045">
        <ele>2207.1999511719</ele>
        <time>2014-02-12T09:24:36.000Z</time>
      </trkpt>
      <trkpt lat="45.90526" lon="6.50046">
        <ele>2207.1999511719</ele>
        <time>2014-02-12T09:24:37.000Z</time>
      </trkpt>
      <trkpt lat="45.90526" lon="6.50049">
        <ele>2207.3999023438</ele>
        <time>2014-02-12T09:24:38.000Z</time>
      </trkpt>
      <trkpt lat="45.90525" lon="6.5005">
        <ele>2207.3999023438</ele>
        <time>2014-02-12T09:24:39.000Z</time>
      </trkpt>
      <trkpt lat="45.90525" lon="6.50052">
        <ele>2207.6000976562</ele>
        <time>2014-02-12T09:24:40.000Z</time>
      </trkpt>
      <trkpt lat="45.90525" lon="6.50054">
        <ele>2207.8000488281</ele>
        <time>2014-02-12T09:24:41.000Z</time>
      </trkpt>
      <trkpt lat="45.90525" lon="6.50056">
        <ele>2208</ele>
        <time>2014-02-12T09:24:42.000Z</time>
      </trkpt>
      <trkpt lat="45.90524" lon="6.50057">
        <ele>2208</ele>
        <time>2014-02-12T09:24:43.000Z</time>
      </trkpt>
      <trkpt lat="45.90524" lon="6.50059">
        <ele>2208.1999511719</ele>
        <time>2014-02-12T09:24:44.000Z</time>
      </trkpt>
      <trkpt lat="45.90523" lon="6.50061">
        <ele>2208.1999511719</ele>
        <time>2014-02-12T09:24:45.000Z</time>
      </trkpt>
      <trkpt lat="45.90523" lon="6.50063">
        <ele>2208.3999023438</ele>
        <time>2014-02-12T09:24:46.000Z</time>
      </trkpt>
      <trkpt lat="45.90522" lon="6.50065">
        <ele>2208.3999023438</ele>
        <time>2014-02-12T09:24:47.000Z</time>
      </trkpt>
      <trkpt lat="45.90522" lon="6.50067">
        <ele>2208.6000976562</ele>
        <time>2014-02-12T09:24:48.000Z</time>
      </trkpt>
      <trkpt lat="45.90523" lon="6.50068">
        <ele>2209</ele>
        <time>2014-02-12T09:24:49.000Z</time>
      </trkpt>
      <trkpt lat="45.90523" lon="6.5007">
        <ele>2209.1999511719</ele>
        <time>2014-02-12T09:24:50.000Z</time>
      </trkpt>
      <trkpt lat="45.90523" lon="6.50072">
        <ele>2209.6000976562</ele>
        <time>2014-02-12T09:24:51.000Z</time>
      </trkpt>
      <trkpt lat="45.90523" lon="6.50074">
        <ele>2210.1999511719</ele>
        <time>2014-02-12T09:24:52.000Z</time>
      </trkpt>
      <trkpt lat="45.90523" lon="6.50075">
        <ele>2210.3999023438</ele>
        <time>2014-02-12T09:24:53.000Z</time>
      </trkpt>
      <trkpt lat="45.90523" lon="6.50077">
        <ele>2210.8000488281</ele>
        <time>2014-02-12T09:24:54.000Z</time>
      </trkpt>
      <trkpt lat="45.90523" lon="6.50078">
        <ele>2211</ele>
        <time>2014-02-12T09:24:55.000Z</time>
      </trkpt>
      <trkpt lat="45.90523" lon="6.5008">
        <ele>2211.1999511719</ele>
        <time>2014-02-12T09:24:56.000Z</time>
      </trkpt>
      <trkpt lat="45.90523" lon="6.50081">
        <ele>2211.3999023438</ele>
        <time>2014-02-12T09:24:57.000Z</time>
      </trkpt>
      <trkpt lat="45.90523" lon="6.50082">
        <ele>2211.6000976562</ele>
        <time>2014-02-12T09:24:58.000Z</time>
      </trkpt>
      <trkpt lat="45.90523" lon="6.50083">
        <ele>2211.8000488281</ele>
        <time>2014-02-12T09:24:59.000Z</time>
      </trkpt>
      <trkpt lat="45.90523" lon="6.50084">
        <ele>2212</ele>
        <time>2014-02-12T09:25:00.000Z</time>
      </trkpt>
      <trkpt lat="45.90523" lon="6.50085">
        <ele>2212.1999511719</ele>
        <time>2014-02-12T09:25:01.000Z</time>
      </trkpt>
      <trkpt lat="45.90523" lon="6.50087">
        <ele>2212.6000976562</ele>
        <time>2014-02-12T09:25:02.000Z</time>
      </trkpt>
      <trkpt lat="45.90523" lon="6.50088">
        <ele>2212.8000488281</ele>
        <time>2014-02-12T09:25:03.000Z</time>
      </trkpt>
      <trkpt lat="45.90522" lon="6.50089">
        <ele>2212.8000488281</ele>
        <time>2014-02-12T09:25:04.000Z</time>
      </trkpt>
      <trkpt lat="45.90522" lon="6.50091">
        <ele>2213.1999511719</ele>
        <time>2014-02-12T09:25:05.000Z</time>
      </trkpt>
      <trkpt lat="45.90521" lon="6.50093">
        <ele>2213.6000976562</ele>
        <time>2014-02-12T09:25:06.000Z</time>
      </trkpt>
      <trkpt lat="45.90522" lon="6.50095">
        <ele>2213.8000488281</ele>
        <time>2014-02-12T09:25:07.000Z</time>
      </trkpt>
      <trkpt lat="45.90522" lon="6.50096">
        <ele>2214.1999511719</ele>
        <time>2014-02-12T09:25:08.000Z</time>
      </trkpt>
      <trkpt lat="45.90522" lon="6.50097">
        <ele>2214.3999023438</ele>
        <time>2014-02-12T09:25:09.000Z</time>
      </trkpt>
      <trkpt lat="45.90521" lon="6.50097">
        <ele>2214.1999511719</ele>
        <time>2014-02-12T09:25:10.000Z</time>
      </trkpt>
      <trkpt lat="45.9052" lon="6.50099">
        <ele>2214.3999023438</ele>
        <time>2014-02-12T09:25:11.000Z</time>
      </trkpt>
      <trkpt lat="45.9052" lon="6.50099">
        <ele>2214.6000976562</ele>
        <time>2014-02-12T09:25:12.000Z</time>
      </trkpt>
      <trkpt lat="45.9052" lon="6.50101">
        <ele>2214.8000488281</ele>
        <time>2014-02-12T09:25:13.000Z</time>
      </trkpt>
      <trkpt lat="45.90519" lon="6.50103">
        <ele>2215</ele>
        <time>2014-02-12T09:25:14.000Z</time>
      </trkpt>
      <trkpt lat="45.90519" lon="6.50103">
        <ele>2215</ele>
        <time>2014-02-12T09:25:15.000Z</time>
      </trkpt>
      <trkpt lat="45.90518" lon="6.50105">
        <ele>2215.1999511719</ele>
        <time>2014-02-12T09:25:16.000Z</time>
      </trkpt>
      <trkpt lat="45.90518" lon="6.50106">
        <ele>2215.3999023438</ele>
        <time>2014-02-12T09:25:17.000Z</time>
      </trkpt>
      <trkpt lat="45.90518" lon="6.50106">
        <ele>2215.6000976562</ele>
        <time>2014-02-12T09:25:18.000Z</time>
      </trkpt>
      <trkpt lat="45.90518" lon="6.50108">
        <ele>2215.8000488281</ele>
        <time>2014-02-12T09:25:19.000Z</time>
      </trkpt>
      <trkpt lat="45.90518" lon="6.5011">
        <ele>2216.3999023438</ele>
        <time>2014-02-12T09:25:20.000Z</time>
      </trkpt>
      <trkpt lat="45.90519" lon="6.50111">
        <ele>2216.6000976562</ele>
        <time>2014-02-12T09:25:21.000Z</time>
      </trkpt>
      <trkpt lat="45.90519" lon="6.50114">
        <ele>2216.8000488281</ele>
        <time>2014-02-12T09:25:22.000Z</time>
      </trkpt>
      <trkpt lat="45.90519" lon="6.50114">
        <ele>2216.8000488281</ele>
        <time>2014-02-12T09:25:23.000Z</time>
      </trkpt>
      <trkpt lat="45.90519" lon="6.50116">
        <ele>2216.6000976562</ele>
        <time>2014-02-12T09:25:24.000Z</time>
      </trkpt>
      <trkpt lat="45.90519" lon="6.50118">
        <ele>2216.6000976562</ele>
        <time>2014-02-12T09:25:25.000Z</time>
      </trkpt>
      <trkpt lat="45.90519" lon="6.5012">
        <ele>2216.6000976562</ele>
        <time>2014-02-12T09:25:26.000Z</time>
      </trkpt>
      <trkpt lat="45.9052" lon="6.50121">
        <ele>2216.8000488281</ele>
        <time>2014-02-12T09:25:27.000Z</time>
      </trkpt>
      <trkpt lat="45.9052" lon="6.50122">
        <ele>2216.6000976562</ele>
        <time>2014-02-12T09:25:28.000Z</time>
      </trkpt>
      <trkpt lat="45.9052" lon="6.50124">
        <ele>2216.8000488281</ele>
        <time>2014-02-12T09:25:29.000Z</time>
      </trkpt>
      <trkpt lat="45.9052" lon="6.50125">
        <ele>2216.8000488281</ele>
        <time>2014-02-12T09:25:30.000Z</time>
      </trkpt>
      <trkpt lat="45.9052" lon="6.50126">
        <ele>2216.6000976562</ele>
        <time>2014-02-12T09:25:31.000Z</time>
      </trkpt>
      <trkpt lat="45.9052" lon="6.50127">
        <ele>2216.6000976562</ele>
        <time>2014-02-12T09:25:32.000Z</time>
      </trkpt>
      <trkpt lat="45.9052" lon="6.50128">
        <ele>2216.8000488281</ele>
        <time>2014-02-12T09:25:33.000Z</time>
      </trkpt>
      <trkpt lat="45.90521" lon="6.50129">
        <ele>2216.8000488281</ele>
        <time>2014-02-12T09:25:34.000Z</time>
      </trkpt>
      <trkpt lat="45.90521" lon="6.50131">
        <ele>2217.1999511719</ele>
        <time>2014-02-12T09:25:35.000Z</time>
      </trkpt>
      <trkpt lat="45.90522" lon="6.50133">
        <ele>2217.1999511719</ele>
        <time>2014-02-12T09:25:36.000Z</time>
      </trkpt>
      <trkpt lat="45.90523" lon="6.50134">
        <ele>2217.3999023438</ele>
        <time>2014-02-12T09:25:37.000Z</time>
      </trkpt>
      <trkpt lat="45.90523" lon="6.50135">
        <ele>2217.3999023438</ele>
        <time>2014-02-12T09:25:38.000Z</time>
      </trkpt>
      <trkpt lat="45.90523" lon="6.50137">
        <ele>2217.3999023438</ele>
        <time>2014-02-12T09:25:39.000Z</time>
      </trkpt>
      <trkpt lat="45.90523" lon="6.50138">
        <ele>2217.3999023438</ele>
        <time>2014-02-12T09:25:40.000Z</time>
      </trkpt>
      <trkpt lat="45.90523" lon="6.5014">
        <ele>2217.1999511719</ele>
        <time>2014-02-12T09:25:41.000Z</time>
      </trkpt>
      <trkpt lat="45.90522" lon="6.50141">
        <ele>2217.1999511719</ele>
        <time>2014-02-12T09:25:42.000Z</time>
      </trkpt>
      <trkpt lat="45.90521" lon="6.50142">
        <ele>2216.8000488281</ele>
        <time>2014-02-12T09:25:43.000Z</time>
      </trkpt>
      <trkpt lat="45.90521" lon="6.50143">
        <ele>2216.3999023438</ele>
        <time>2014-02-12T09:25:44.000Z</time>
      </trkpt>
      <trkpt lat="45.90521" lon="6.50144">
        <ele>2216.1999511719</ele>
        <time>2014-02-12T09:25:45.000Z</time>
      </trkpt>
      <trkpt lat="45.90521" lon="6.50145">
        <ele>2216.1999511719</ele>
        <time>2014-02-12T09:25:46.000Z</time>
      </trkpt>
      <trkpt lat="45.90521" lon="6.50147">
        <ele>2216.1999511719</ele>
        <time>2014-02-12T09:25:47.000Z</time>
      </trkpt>
      <trkpt lat="45.90521" lon="6.50148">
        <ele>2216.1999511719</ele>
        <time>2014-02-12T09:25:48.000Z</time>
      </trkpt>
      <trkpt lat="45.90521" lon="6.5015">
        <ele>2216</ele>
        <time>2014-02-12T09:25:49.000Z</time>
      </trkpt>
      <trkpt lat="45.9052" lon="6.5015">
        <ele>2215.8000488281</ele>
        <time>2014-02-12T09:25:50.000Z</time>
      </trkpt>
      <trkpt lat="45.9052" lon="6.50151">
        <ele>2215.8000488281</ele>
        <time>2014-02-12T09:25:51.000Z</time>
      </trkpt>
      <trkpt lat="45.9052" lon="6.50152">
        <ele>2215.8000488281</ele>
        <time>2014-02-12T09:25:52.000Z</time>
      </trkpt>
      <trkpt lat="45.90519" lon="6.50153">
        <ele>2215.6000976562</ele>
        <time>2014-02-12T09:25:53.000Z</time>
      </trkpt>
      <trkpt lat="45.90518" lon="6.50154">
        <ele>2215.3999023438</ele>
        <time>2014-02-12T09:25:54.000Z</time>
      </trkpt>
      <trkpt lat="45.90517" lon="6.50154">
        <ele>2215</ele>
        <time>2014-02-12T09:25:55.000Z</time>
      </trkpt>
      <trkpt lat="45.90517" lon="6.50155">
        <ele>2214.6000976562</ele>
        <time>2014-02-12T09:25:56.000Z</time>
      </trkpt>
      <trkpt lat="45.90516" lon="6.50156">
        <ele>2214.3999023438</ele>
        <time>2014-02-12T09:25:57.000Z</time>
      </trkpt>
      <trkpt lat="45.90516" lon="6.50157">
        <ele>2214.3999023438</ele>
        <time>2014-02-12T09:25:58.000Z</time>
      </trkpt>
      <trkpt lat="45.90516" lon="6.50158">
        <ele>2214.3999023438</ele>
        <time>2014-02-12T09:25:59.000Z</time>
      </trkpt>
      <trkpt lat="45.90516" lon="6.50159">
        <ele>2214.3999023438</ele>
        <time>2014-02-12T09:26:00.000Z</time>
      </trkpt>
      <trkpt lat="45.90515" lon="6.5016">
        <ele>2214.1999511719</ele>
        <time>2014-02-12T09:26:01.000Z</time>
      </trkpt>
      <trkpt lat="45.90515" lon="6.50161">
        <ele>2214.1999511719</ele>
        <time>2014-02-12T09:26:02.000Z</time>
      </trkpt>
      <trkpt lat="45.90515" lon="6.50162">
        <ele>2214</ele>
        <time>2014-02-12T09:26:03.000Z</time>
      </trkpt>
      <trkpt lat="45.90514" lon="6.50163">
        <ele>2214</ele>
        <time>2014-02-12T09:26:04.000Z</time>
      </trkpt>
      <trkpt lat="45.90514" lon="6.50164">
        <ele>2213.8000488281</ele>
        <time>2014-02-12T09:26:05.000Z</time>
      </trkpt>
      <trkpt lat="45.90513" lon="6.50165">
        <ele>2213.6000976562</ele>
        <time>2014-02-12T09:26:06.000Z</time>
      </trkpt>
      <trkpt lat="45.90513" lon="6.50166">
        <ele>2213.6000976562</ele>
        <time>2014-02-12T09:26:07.000Z</time>
      </trkpt>
      <trkpt lat="45.90514" lon="6.50166">
        <ele>2213.8000488281</ele>
        <time>2014-02-12T09:26:08.000Z</time>
      </trkpt>
      <trkpt lat="45.90514" lon="6.50167">
        <ele>2213.8000488281</ele>
        <time>2014-02-12T09:26:09.000Z</time>
      </trkpt>
      <trkpt lat="45.90514" lon="6.50167">
        <ele>2213.8000488281</ele>
        <time>2014-02-12T09:26:10.000Z</time>
      </trkpt>
      <trkpt lat="45.90514" lon="6.50168">
        <ele>2213.8000488281</ele>
        <time>2014-02-12T09:26:11.000Z</time>
      </trkpt>
      <trkpt lat="45.90514" lon="6.5017">
        <ele>2213.8000488281</ele>
        <time>2014-02-12T09:26:12.000Z</time>
      </trkpt>
      <trkpt lat="45.90514" lon="6.5017">
        <ele>2214</ele>
        <time>2014-02-12T09:26:13.000Z</time>
      </trkpt>
      <trkpt lat="45.90515" lon="6.50172">
        <ele>2214.3999023438</ele>
        <time>2014-02-12T09:26:14.000Z</time>
      </trkpt>
      <trkpt lat="45.90515" lon="6.50172">
        <ele>2214.6000976562</ele>
        <time>2014-02-12T09:26:15.000Z</time>
      </trkpt>
      <trkpt lat="45.90516" lon="6.50173">
        <ele>2214.8000488281</ele>
        <time>2014-02-12T09:26:16.000Z</time>
      </trkpt>
      <trkpt lat="45.90516" lon="6.50174">
        <ele>2215</ele>
        <time>2014-02-12T09:26:17.000Z</time>
      </trkpt>
      <trkpt lat="45.90516" lon="6.50175">
        <ele>2215</ele>
        <time>2014-02-12T09:26:18.000Z</time>
      </trkpt>
      <trkpt lat="45.90517" lon="6.50176">
        <ele>2215.1999511719</ele>
        <time>2014-02-12T09:26:19.000Z</time>
      </trkpt>
      <trkpt lat="45.90517" lon="6.50177">
        <ele>2215.1999511719</ele>
        <time>2014-02-12T09:26:20.000Z</time>
      </trkpt>
      <trkpt lat="45.90517" lon="6.50178">
        <ele>2215.3999023438</ele>
        <time>2014-02-12T09:26:21.000Z</time>
      </trkpt>
      <trkpt lat="45.90517" lon="6.50178">
        <ele>2215.3999023438</ele>
        <time>2014-02-12T09:26:22.000Z</time>
      </trkpt>
      <trkpt lat="45.90518" lon="6.50179">
        <ele>2215.6000976562</ele>
        <time>2014-02-12T09:26:23.000Z</time>
      </trkpt>
      <trkpt lat="45.90518" lon="6.5018">
        <ele>2215.8000488281</ele>
        <time>2014-02-12T09:26:24.000Z</time>
      </trkpt>
      <trkpt lat="45.90518" lon="6.50183">
        <ele>2215.8000488281</ele>
        <time>2014-02-12T09:26:25.000Z</time>
      </trkpt>
      <trkpt lat="45.90518" lon="6.50184">
        <ele>2216</ele>
        <time>2014-02-12T09:26:26.000Z</time>
      </trkpt>
      <trkpt lat="45.90519" lon="6.50185">
        <ele>2216.1999511719</ele>
        <time>2014-02-12T09:26:27.000Z</time>
      </trkpt>
      <trkpt lat="45.90519" lon="6.50186">
        <ele>2216.1999511719</ele>
        <time>2014-02-12T09:26:28.000Z</time>
      </trkpt>
      <trkpt lat="45.90519" lon="6.50187">
        <ele>2216.1999511719</ele>
        <time>2014-02-12T09:26:29.000Z</time>
      </trkpt>
      <trkpt lat="45.90519" lon="6.50188">
        <ele>2216.1999511719</ele>
        <time>2014-02-12T09:26:30.000Z</time>
      </trkpt>
      <trkpt lat="45.90518" lon="6.50189">
        <ele>2216</ele>
        <time>2014-02-12T09:26:31.000Z</time>
      </trkpt>
      <trkpt lat="45.90518" lon="6.50189">
        <ele>2216</ele>
        <time>2014-02-12T09:26:32.000Z</time>
      </trkpt>
      <trkpt lat="45.90518" lon="6.50189">
        <ele>2216</ele>
        <time>2014-02-12T09:26:33.000Z</time>
      </trkpt>
      <trkpt lat="45.90518" lon="6.50189">
        <ele>2216</ele>
        <time>2014-02-12T09:26:34.000Z</time>
      </trkpt>
      <trkpt lat="45.90518" lon="6.50189">
        <ele>2216</ele>
        <time>2014-02-12T09:26:35.000Z</time>
      </trkpt>
      <trkpt lat="45.90518" lon="6.50189">
        <ele>2216</ele>
        <time>2014-02-12T09:26:36.000Z</time>
      </trkpt>
      <trkpt lat="45.90518" lon="6.50189">
        <ele>2216</ele>
        <time>2014-02-12T09:26:37.000Z</time>
      </trkpt>
      <trkpt lat="45.90518" lon="6.50189">
        <ele>2216</ele>
        <time>2014-02-12T09:26:38.000Z</time>
      </trkpt>
      <trkpt lat="45.90518" lon="6.50189">
        <ele>2216</ele>
        <time>2014-02-12T09:26:39.000Z</time>
      </trkpt>
      <trkpt lat="45.90518" lon="6.50189">
        <ele>2216</ele>
        <time>2014-02-12T09:26:40.000Z</time>
      </trkpt>
      <trkpt lat="45.90518" lon="6.50189">
        <ele>2216</ele>
        <time>2014-02-12T09:26:41.000Z</time>
      </trkpt>
      <trkpt lat="45.90518" lon="6.50189">
        <ele>2216.1999511719</ele>
        <time>2014-02-12T09:26:42.000Z</time>
      </trkpt>
      <trkpt lat="45.90519" lon="6.5019">
        <ele>2216.3999023438</ele>
        <time>2014-02-12T09:26:43.000Z</time>
      </trkpt>
      <trkpt lat="45.9052" lon="6.5019">
        <ele>2216.6000976562</ele>
        <time>2014-02-12T09:26:44.000Z</time>
      </trkpt>
      <trkpt lat="45.90521" lon="6.50191">
        <ele>2217.1999511719</ele>
        <time>2014-02-12T09:26:45.000Z</time>
      </trkpt>
      <trkpt lat="45.90522" lon="6.50191">
        <ele>2217.3999023438</ele>
        <time>2014-02-12T09:26:46.000Z</time>
      </trkpt>
      <trkpt lat="45.90522" lon="6.50193">
        <ele>2217.8000488281</ele>
        <time>2014-02-12T09:26:47.000Z</time>
      </trkpt>
      <trkpt lat="45.90523" lon="6.50193">
        <ele>2217.8000488281</ele>
        <time>2014-02-12T09:26:48.000Z</time>
      </trkpt>
      <trkpt lat="45.90523" lon="6.50194">
        <ele>2218</ele>
        <time>2014-02-12T09:26:49.000Z</time>
      </trkpt>
      <trkpt lat="45.90524" lon="6.50195">
        <ele>2218.3999023438</ele>
        <time>2014-02-12T09:26:50.000Z</time>
      </trkpt>
      <trkpt lat="45.90524" lon="6.50196">
        <ele>2218.3999023438</ele>
        <time>2014-02-12T09:26:51.000Z</time>
      </trkpt>
      <trkpt lat="45.90524" lon="6.50197">
        <ele>2218.6000976562</ele>
        <time>2014-02-12T09:26:52.000Z</time>
      </trkpt>
      <trkpt lat="45.90524" lon="6.50197">
        <ele>2218.6000976562</ele>
        <time>2014-02-12T09:26:53.000Z</time>
      </trkpt>
      <trkpt lat="45.90525" lon="6.50198">
        <ele>2218.8000488281</ele>
        <time>2014-02-12T09:26:54.000Z</time>
      </trkpt>
      <trkpt lat="45.90525" lon="6.502">
        <ele>2219.1999511719</ele>
        <time>2014-02-12T09:26:55.000Z</time>
      </trkpt>
      <trkpt lat="45.90526" lon="6.50201">
        <ele>2219.1999511719</ele>
        <time>2014-02-12T09:26:56.000Z</time>
      </trkpt>
      <trkpt lat="45.90527" lon="6.50202">
        <ele>2219.6000976562</ele>
        <time>2014-02-12T09:26:57.000Z</time>
      </trkpt>
      <trkpt lat="45.90527" lon="6.50203">
        <ele>2219.6000976562</ele>
        <time>2014-02-12T09:26:58.000Z</time>
      </trkpt>
      <trkpt lat="45.90527" lon="6.50203">
        <ele>2219.8000488281</ele>
        <time>2014-02-12T09:26:59.000Z</time>
      </trkpt>
      <trkpt lat="45.90527" lon="6.50204">
        <ele>2220</ele>
        <time>2014-02-12T09:27:00.000Z</time>
      </trkpt>
      <trkpt lat="45.90528" lon="6.50205">
        <ele>2220.1999511719</ele>
        <time>2014-02-12T09:27:01.000Z</time>
      </trkpt>
      <trkpt lat="45.90528" lon="6.50206">
        <ele>2220.1999511719</ele>
        <time>2014-02-12T09:27:02.000Z</time>
      </trkpt>
      <trkpt lat="45.90529" lon="6.50207">
        <ele>2220.6000976562</ele>
        <time>2014-02-12T09:27:03.000Z</time>
      </trkpt>
      <trkpt lat="45.9053" lon="6.50209">
        <ele>2221</ele>
        <time>2014-02-12T09:27:04.000Z</time>
      </trkpt>
      <trkpt lat="45.9053" lon="6.5021">
        <ele>2221.3999023438</ele>
        <time>2014-02-12T09:27:05.000Z</time>
      </trkpt>
      <trkpt lat="45.90531" lon="6.50211">
        <ele>2221.6000976562</ele>
        <time>2014-02-12T09:27:06.000Z</time>
      </trkpt>
      <trkpt lat="45.90531" lon="6.50211">
        <ele>2221.8000488281</ele>
        <time>2014-02-12T09:27:07.000Z</time>
      </trkpt>
      <trkpt lat="45.90532" lon="6.50212">
        <ele>2222</ele>
        <time>2014-02-12T09:27:08.000Z</time>
      </trkpt>
      <trkpt lat="45.90532" lon="6.50212">
        <ele>2222</ele>
        <time>2014-02-12T09:27:09.000Z</time>
      </trkpt>
      <trkpt lat="45.90532" lon="6.50212">
        <ele>2222</ele>
        <time>2014-02-12T09:27:10.000Z</time>
      </trkpt>
      <trkpt lat="45.90533" lon="6.50213">
        <ele>2222.3999023438</ele>
        <time>2014-02-12T09:27:11.000Z</time>
      </trkpt>
      <trkpt lat="45.90534" lon="6.50213">
        <ele>2222.6000976562</ele>
        <time>2014-02-12T09:27:12.000Z</time>
      </trkpt>
      <trkpt lat="45.90535" lon="6.50214">
        <ele>2223</ele>
        <time>2014-02-12T09:27:13.000Z</time>
      </trkpt>
      <trkpt lat="45.90535" lon="6.50215">
        <ele>2223.1999511719</ele>
        <time>2014-02-12T09:27:14.000Z</time>
      </trkpt>
      <trkpt lat="45.90535" lon="6.50215">
        <ele>2223.3999023438</ele>
        <time>2014-02-12T09:27:15.000Z</time>
      </trkpt>
      <trkpt lat="45.90536" lon="6.50217">
        <ele>2223.6000976562</ele>
        <time>2014-02-12T09:27:16.000Z</time>
      </trkpt>
      <trkpt lat="45.90535" lon="6.50218">
        <ele>2223.6000976562</ele>
        <time>2014-02-12T09:27:17.000Z</time>
      </trkpt>
      <trkpt lat="45.90536" lon="6.50219">
        <ele>2223.6000976562</ele>
        <time>2014-02-12T09:27:18.000Z</time>
      </trkpt>
      <trkpt lat="45.90536" lon="6.50221">
        <ele>2223.8000488281</ele>
        <time>2014-02-12T09:27:19.000Z</time>
      </trkpt>
      <trkpt lat="45.90536" lon="6.50222">
        <ele>2224</ele>
        <time>2014-02-12T09:27:20.000Z</time>
      </trkpt>
      <trkpt lat="45.90536" lon="6.50222">
        <ele>2224.1999511719</ele>
        <time>2014-02-12T09:27:21.000Z</time>
      </trkpt>
      <trkpt lat="45.90537" lon="6.50223">
        <ele>2224.1999511719</ele>
        <time>2014-02-12T09:27:22.000Z</time>
      </trkpt>
      <trkpt lat="45.90537" lon="6.50223">
        <ele>2224.1999511719</ele>
        <time>2014-02-12T09:27:23.000Z</time>
      </trkpt>
      <trkpt lat="45.90537" lon="6.50223">
        <ele>2224.1999511719</ele>
        <time>2014-02-12T09:27:24.000Z</time>
      </trkpt>
      <trkpt lat="45.90538" lon="6.50224">
        <ele>2224.6000976562</ele>
        <time>2014-02-12T09:27:25.000Z</time>
      </trkpt>
      <trkpt lat="45.90538" lon="6.50226">
        <ele>2225</ele>
        <time>2014-02-12T09:27:26.000Z</time>
      </trkpt>
      <trkpt lat="45.90538" lon="6.50227">
        <ele>2225</ele>
        <time>2014-02-12T09:27:27.000Z</time>
      </trkpt>
      <trkpt lat="45.90539" lon="6.50229">
        <ele>2225.1999511719</ele>
        <time>2014-02-12T09:27:28.000Z</time>
      </trkpt>
      <trkpt lat="45.90539" lon="6.5023">
        <ele>2225.3999023438</ele>
        <time>2014-02-12T09:27:29.000Z</time>
      </trkpt>
      <trkpt lat="45.90539" lon="6.50231">
        <ele>2225.3999023438</ele>
        <time>2014-02-12T09:27:30.000Z</time>
      </trkpt>
      <trkpt lat="45.90539" lon="6.50232">
        <ele>2225.3999023438</ele>
        <time>2014-02-12T09:27:31.000Z</time>
      </trkpt>
      <trkpt lat="45.90539" lon="6.50233">
        <ele>2225.3999023438</ele>
        <time>2014-02-12T09:27:32.000Z</time>
      </trkpt>
      <trkpt lat="45.90538" lon="6.50235">
        <ele>2225.3999023438</ele>
        <time>2014-02-12T09:27:33.000Z</time>
      </trkpt>
      <trkpt lat="45.90538" lon="6.50236">
        <ele>2225.6000976562</ele>
        <time>2014-02-12T09:27:34.000Z</time>
      </trkpt>
      <trkpt lat="45.90538" lon="6.50238">
        <ele>2225.8000488281</ele>
        <time>2014-02-12T09:27:35.000Z</time>
      </trkpt>
      <trkpt lat="45.90538" lon="6.5024">
        <ele>2226</ele>
        <time>2014-02-12T09:27:36.000Z</time>
      </trkpt>
      <trkpt lat="45.90538" lon="6.50241">
        <ele>2226</ele>
        <time>2014-02-12T09:27:37.000Z</time>
      </trkpt>
      <trkpt lat="45.90539" lon="6.50242">
        <ele>2226.3999023438</ele>
        <time>2014-02-12T09:27:38.000Z</time>
      </trkpt>
      <trkpt lat="45.90539" lon="6.50243">
        <ele>2226.6000976562</ele>
        <time>2014-02-12T09:27:39.000Z</time>
      </trkpt>
      <trkpt lat="45.90539" lon="6.50244">
        <ele>2227</ele>
        <time>2014-02-12T09:27:40.000Z</time>
      </trkpt>
      <trkpt lat="45.9054" lon="6.50245">
        <ele>2227.1999511719</ele>
        <time>2014-02-12T09:27:41.000Z</time>
      </trkpt>
      <trkpt lat="45.9054" lon="6.50246">
        <ele>2227.1999511719</ele>
        <time>2014-02-12T09:27:42.000Z</time>
      </trkpt>
      <trkpt lat="45.90539" lon="6.50247">
        <ele>2227.3999023438</ele>
        <time>2014-02-12T09:27:43.000Z</time>
      </trkpt>
      <trkpt lat="45.90539" lon="6.50248">
        <ele>2227.3999023438</ele>
        <time>2014-02-12T09:27:44.000Z</time>
      </trkpt>
      <trkpt lat="45.90539" lon="6.50249">
        <ele>2227.3999023438</ele>
        <time>2014-02-12T09:27:45.000Z</time>
      </trkpt>
      <trkpt lat="45.90539" lon="6.50249">
        <ele>2227.6000976562</ele>
        <time>2014-02-12T09:27:46.000Z</time>
      </trkpt>
      <trkpt lat="45.90539" lon="6.50249">
        <ele>2227.6000976562</ele>
        <time>2014-02-12T09:27:47.000Z</time>
      </trkpt>
      <trkpt lat="45.90539" lon="6.50249">
        <ele>2227.6000976562</ele>
        <time>2014-02-12T09:27:48.000Z</time>
      </trkpt>
      <trkpt lat="45.90539" lon="6.50249">
        <ele>2227.6000976562</ele>
        <time>2014-02-12T09:27:49.000Z</time>
      </trkpt>
      <trkpt lat="45.90539" lon="6.5025">
        <ele>2227.6000976562</ele>
        <time>2014-02-12T09:27:50.000Z</time>
      </trkpt>
      <trkpt lat="45.90539" lon="6.5025">
        <ele>2227.6000976562</ele>
        <time>2014-02-12T09:27:51.000Z</time>
      </trkpt>
      <trkpt lat="45.90539" lon="6.50252">
        <ele>2227.8000488281</ele>
        <time>2014-02-12T09:27:52.000Z</time>
      </trkpt>
      <trkpt lat="45.90539" lon="6.50253">
        <ele>2228.1999511719</ele>
        <time>2014-02-12T09:27:53.000Z</time>
      </trkpt>
      <trkpt lat="45.9054" lon="6.50255">
        <ele>2228.6000976562</ele>
        <time>2014-02-12T09:27:54.000Z</time>
      </trkpt>
      <trkpt lat="45.9054" lon="6.50256">
        <ele>2228.8000488281</ele>
        <time>2014-02-12T09:27:55.000Z</time>
      </trkpt>
      <trkpt lat="45.90541" lon="6.50258">
        <ele>2229.1999511719</ele>
        <time>2014-02-12T09:27:56.000Z</time>
      </trkpt>
      <trkpt lat="45.90541" lon="6.50258">
        <ele>2229.1999511719</ele>
        <time>2014-02-12T09:27:57.000Z</time>
      </trkpt>
      <trkpt lat="45.90541" lon="6.5026">
        <ele>2229.3999023438</ele>
        <time>2014-02-12T09:27:58.000Z</time>
      </trkpt>
      <trkpt lat="45.90541" lon="6.5026">
        <ele>2229.3999023438</ele>
        <time>2014-02-12T09:27:59.000Z</time>
      </trkpt>
      <trkpt lat="45.90541" lon="6.50261">
        <ele>2229.6000976562</ele>
        <time>2014-02-12T09:28:00.000Z</time>
      </trkpt>
      <trkpt lat="45.90541" lon="6.50262">
        <ele>2229.8000488281</ele>
        <time>2014-02-12T09:28:01.000Z</time>
      </trkpt>
      <trkpt lat="45.90541" lon="6.50263">
        <ele>2229.8000488281</ele>
        <time>2014-02-12T09:28:02.000Z</time>
      </trkpt>
      <trkpt lat="45.90541" lon="6.50265">
        <ele>2229.8000488281</ele>
        <time>2014-02-12T09:28:03.000Z</time>
      </trkpt>
      <trkpt lat="45.90541" lon="6.50266">
        <ele>2230</ele>
        <time>2014-02-12T09:28:04.000Z</time>
      </trkpt>
      <trkpt lat="45.90541" lon="6.50267">
        <ele>2230.1999511719</ele>
        <time>2014-02-12T09:28:05.000Z</time>
      </trkpt>
      <trkpt lat="45.90541" lon="6.50268">
        <ele>2230.6000976562</ele>
        <time>2014-02-12T09:28:06.000Z</time>
      </trkpt>
      <trkpt lat="45.90541" lon="6.50269">
        <ele>2230.6000976562</ele>
        <time>2014-02-12T09:28:07.000Z</time>
      </trkpt>
      <trkpt lat="45.90541" lon="6.5027">
        <ele>2230.6000976562</ele>
        <time>2014-02-12T09:28:08.000Z</time>
      </trkpt>
      <trkpt lat="45.9054" lon="6.50271">
        <ele>2230.6000976562</ele>
        <time>2014-02-12T09:28:09.000Z</time>
      </trkpt>
      <trkpt lat="45.9054" lon="6.50272">
        <ele>2230.8000488281</ele>
        <time>2014-02-12T09:28:10.000Z</time>
      </trkpt>
      <trkpt lat="45.9054" lon="6.50272">
        <ele>2230.8000488281</ele>
        <time>2014-02-12T09:28:11.000Z</time>
      </trkpt>
      <trkpt lat="45.9054" lon="6.50272">
        <ele>2230.6000976562</ele>
        <time>2014-02-12T09:28:12.000Z</time>
      </trkpt>
      <trkpt lat="45.9054" lon="6.50273">
        <ele>2230.8000488281</ele>
        <time>2014-02-12T09:28:13.000Z</time>
      </trkpt>
      <trkpt lat="45.90541" lon="6.50274">
        <ele>2231</ele>
        <time>2014-02-12T09:28:14.000Z</time>
      </trkpt>
      <trkpt lat="45.90541" lon="6.50275">
        <ele>2231.1999511719</ele>
        <time>2014-02-12T09:28:15.000Z</time>
      </trkpt>
      <trkpt lat="45.90541" lon="6.50275">
        <ele>2231.1999511719</ele>
        <time>2014-02-12T09:28:16.000Z</time>
      </trkpt>
      <trkpt lat="45.90541" lon="6.50275">
        <ele>2231.1999511719</ele>
        <time>2014-02-12T09:28:17.000Z</time>
      </trkpt>
      <trkpt lat="45.90541" lon="6.50276">
        <ele>2231.3999023438</ele>
        <time>2014-02-12T09:28:18.000Z</time>
      </trkpt>
      <trkpt lat="45.90541" lon="6.50276">
        <ele>2231.3999023438</ele>
        <time>2014-02-12T09:28:19.000Z</time>
      </trkpt>
      <trkpt lat="45.90541" lon="6.50277">
        <ele>2231.6000976562</ele>
        <time>2014-02-12T09:28:20.000Z</time>
      </trkpt>
      <trkpt lat="45.90541" lon="6.50279">
        <ele>2231.8000488281</ele>
        <time>2014-02-12T09:28:21.000Z</time>
      </trkpt>
      <trkpt lat="45.90541" lon="6.50281">
        <ele>2231.8000488281</ele>
        <time>2014-02-12T09:28:22.000Z</time>
      </trkpt>
      <trkpt lat="45.90541" lon="6.50281">
        <ele>2231.8000488281</ele>
        <time>2014-02-12T09:28:23.000Z</time>
      </trkpt>
      <trkpt lat="45.90541" lon="6.50282">
        <ele>2232</ele>
        <time>2014-02-12T09:28:24.000Z</time>
      </trkpt>
      <trkpt lat="45.90541" lon="6.50282">
        <ele>2232</ele>
        <time>2014-02-12T09:28:25.000Z</time>
      </trkpt>
      <trkpt lat="45.90541" lon="6.50282">
        <ele>2232</ele>
        <time>2014-02-12T09:28:26.000Z</time>
      </trkpt>
      <trkpt lat="45.9054" lon="6.50284">
        <ele>2232</ele>
        <time>2014-02-12T09:28:27.000Z</time>
      </trkpt>
      <trkpt lat="45.9054" lon="6.50284">
        <ele>2232</ele>
        <time>2014-02-12T09:28:28.000Z</time>
      </trkpt>
      <trkpt lat="45.9054" lon="6.50284">
        <ele>2232.1999511719</ele>
        <time>2014-02-12T09:28:29.000Z</time>
      </trkpt>
      <trkpt lat="45.9054" lon="6.50284">
        <ele>2232.1999511719</ele>
        <time>2014-02-12T09:28:30.000Z</time>
      </trkpt>
      <trkpt lat="45.9054" lon="6.50284">
        <ele>2232.1999511719</ele>
        <time>2014-02-12T09:28:31.000Z</time>
      </trkpt>
      <trkpt lat="45.9054" lon="6.50285">
        <ele>2232.1999511719</ele>
        <time>2014-02-12T09:28:32.000Z</time>
      </trkpt>
      <trkpt lat="45.9054" lon="6.50285">
        <ele>2232.1999511719</ele>
        <time>2014-02-12T09:28:33.000Z</time>
      </trkpt>
      <trkpt lat="45.9054" lon="6.50285">
        <ele>2232.1999511719</ele>
        <time>2014-02-12T09:28:34.000Z</time>
      </trkpt>
      <trkpt lat="45.9054" lon="6.50285">
        <ele>2232.1999511719</ele>
        <time>2014-02-12T09:28:35.000Z</time>
      </trkpt>
      <trkpt lat="45.9054" lon="6.50285">
        <ele>2232.1999511719</ele>
        <time>2014-02-12T09:28:36.000Z</time>
      </trkpt>
      <trkpt lat="45.9054" lon="6.50285">
        <ele>2232.1999511719</ele>
        <time>2014-02-12T09:28:37.000Z</time>
      </trkpt>
      <trkpt lat="45.90541" lon="6.50285">
        <ele>2232.6000976562</ele>
        <time>2014-02-12T09:28:38.000Z</time>
      </trkpt>
      <trkpt lat="45.90541" lon="6.50285">
        <ele>2232.6000976562</ele>
        <time>2014-02-12T09:28:39.000Z</time>
      </trkpt>
      <trkpt lat="45.90541" lon="6.50285">
        <ele>2232.6000976562</ele>
        <time>2014-02-12T09:28:40.000Z</time>
      </trkpt>
      <trkpt lat="45.90541" lon="6.50285">
        <ele>2232.6000976562</ele>
        <time>2014-02-12T09:28:41.000Z</time>
      </trkpt>
      <trkpt lat="45.90541" lon="6.50285">
        <ele>2232.6000976562</ele>
        <time>2014-02-12T09:28:42.000Z</time>
      </trkpt>
      <trkpt lat="45.90541" lon="6.50285">
        <ele>2232.6000976562</ele>
        <time>2014-02-12T09:28:43.000Z</time>
      </trkpt>
      <trkpt lat="45.90541" lon="6.50285">
        <ele>2232.6000976562</ele>
        <time>2014-02-12T09:28:44.000Z</time>
      </trkpt>
      <trkpt lat="45.90541" lon="6.50285">
        <ele>2232.6000976562</ele>
        <time>2014-02-12T09:28:45.000Z</time>
      </trkpt>
      <trkpt lat="45.90541" lon="6.50285">
        <ele>2232.6000976562</ele>
        <time>2014-02-12T09:28:46.000Z</time>
      </trkpt>
      <trkpt lat="45.90543" lon="6.50286">
        <ele>2233.1999511719</ele>
        <time>2014-02-12T09:28:47.000Z</time>
      </trkpt>
      <trkpt lat="45.90544" lon="6.50287">
        <ele>2233.8000488281</ele>
        <time>2014-02-12T09:28:48.000Z</time>
      </trkpt>
      <trkpt lat="45.90545" lon="6.50287">
        <ele>2234.1999511719</ele>
        <time>2014-02-12T09:28:49.000Z</time>
      </trkpt>
      <trkpt lat="45.90546" lon="6.50288">
        <ele>2234.6000976562</ele>
        <time>2014-02-12T09:28:50.000Z</time>
      </trkpt>
      <trkpt lat="45.90547" lon="6.50288">
        <ele>2235</ele>
        <time>2014-02-12T09:28:51.000Z</time>
      </trkpt>
      <trkpt lat="45.90547" lon="6.50288">
        <ele>2235.1999511719</ele>
        <time>2014-02-12T09:28:52.000Z</time>
      </trkpt>
      <trkpt lat="45.90548" lon="6.50289">
        <ele>2235.6000976562</ele>
        <time>2014-02-12T09:28:53.000Z</time>
      </trkpt>
      <trkpt lat="45.90549" lon="6.50289">
        <ele>2235.8000488281</ele>
        <time>2014-02-12T09:28:54.000Z</time>
      </trkpt>
      <trkpt lat="45.90549" lon="6.50289">
        <ele>2236</ele>
        <time>2014-02-12T09:28:55.000Z</time>
      </trkpt>
      <trkpt lat="45.9055" lon="6.5029">
        <ele>2236.1999511719</ele>
        <time>2014-02-12T09:28:56.000Z</time>
      </trkpt>
      <trkpt lat="45.9055" lon="6.50291">
        <ele>2236.3999023438</ele>
        <time>2014-02-12T09:28:57.000Z</time>
      </trkpt>
      <trkpt lat="45.90551" lon="6.50291">
        <ele>2236.6000976562</ele>
        <time>2014-02-12T09:28:58.000Z</time>
      </trkpt>
      <trkpt lat="45.90551" lon="6.50291">
        <ele>2236.8000488281</ele>
        <time>2014-02-12T09:28:59.000Z</time>
      </trkpt>
      <trkpt lat="45.90552" lon="6.50292">
        <ele>2237.1999511719</ele>
        <time>2014-02-12T09:29:00.000Z</time>
      </trkpt>
      <trkpt lat="45.90553" lon="6.50293">
        <ele>2237.6000976562</ele>
        <time>2014-02-12T09:29:01.000Z</time>
      </trkpt>
      <trkpt lat="45.90554" lon="6.50293">
        <ele>2238</ele>
        <time>2014-02-12T09:29:02.000Z</time>
      </trkpt>
      <trkpt lat="45.90555" lon="6.50293">
        <ele>2238.3999023438</ele>
        <time>2014-02-12T09:29:03.000Z</time>
      </trkpt>
      <trkpt lat="45.90556" lon="6.50293">
        <ele>2238.8000488281</ele>
        <time>2014-02-12T09:29:04.000Z</time>
      </trkpt>
      <trkpt lat="45.90557" lon="6.50293">
        <ele>2239</ele>
        <time>2014-02-12T09:29:05.000Z</time>
      </trkpt>
      <trkpt lat="45.90557" lon="6.50293">
        <ele>2239</ele>
        <time>2014-02-12T09:29:06.000Z</time>
      </trkpt>
      <trkpt lat="45.90557" lon="6.50293">
        <ele>2239.3999023438</ele>
        <time>2014-02-12T09:29:07.000Z</time>
      </trkpt>
      <trkpt lat="45.90557" lon="6.50293">
        <ele>2239.3999023438</ele>
        <time>2014-02-12T09:29:08.000Z</time>
      </trkpt>
      <trkpt lat="45.90557" lon="6.50293">
        <ele>2239.3999023438</ele>
        <time>2014-02-12T09:29:09.000Z</time>
      </trkpt>
      <trkpt lat="45.90558" lon="6.50293">
        <ele>2239.8000488281</ele>
        <time>2014-02-12T09:29:10.000Z</time>
      </trkpt>
      <trkpt lat="45.90558" lon="6.50293">
        <ele>2239.8000488281</ele>
        <time>2014-02-12T09:29:11.000Z</time>
      </trkpt>
      <trkpt lat="45.9056" lon="6.50294">
        <ele>2240.3999023438</ele>
        <time>2014-02-12T09:29:12.000Z</time>
      </trkpt>
      <trkpt lat="45.9056" lon="6.50294">
        <ele>2240.3999023438</ele>
        <time>2014-02-12T09:29:13.000Z</time>
      </trkpt>
      <trkpt lat="45.9056" lon="6.50294">
        <ele>2240.3999023438</ele>
        <time>2014-02-12T09:29:14.000Z</time>
      </trkpt>
      <trkpt lat="45.90561" lon="6.50293">
        <ele>2241</ele>
        <time>2014-02-12T09:29:15.000Z</time>
      </trkpt>
      <trkpt lat="45.90561" lon="6.50293">
        <ele>2241</ele>
        <time>2014-02-12T09:29:16.000Z</time>
      </trkpt>
      <trkpt lat="45.90561" lon="6.50293">
        <ele>2241</ele>
        <time>2014-02-12T09:29:17.000Z</time>
      </trkpt>
      <trkpt lat="45.90562" lon="6.50293">
        <ele>2241.3999023438</ele>
        <time>2014-02-12T09:29:18.000Z</time>
      </trkpt>
      <trkpt lat="45.90562" lon="6.50293">
        <ele>2241.3999023438</ele>
        <time>2014-02-12T09:29:19.000Z</time>
      </trkpt>
      <trkpt lat="45.90562" lon="6.50293">
        <ele>2241.3999023438</ele>
        <time>2014-02-12T09:29:20.000Z</time>
      </trkpt>
      <trkpt lat="45.90562" lon="6.50293">
        <ele>2241.3999023438</ele>
        <time>2014-02-12T09:29:21.000Z</time>
      </trkpt>
      <trkpt lat="45.90562" lon="6.50293">
        <ele>2241.3999023438</ele>
        <time>2014-02-12T09:29:22.000Z</time>
      </trkpt>
      <trkpt lat="45.90562" lon="6.50293">
        <ele>2241.3999023438</ele>
        <time>2014-02-12T09:29:23.000Z</time>
      </trkpt>
      <trkpt lat="45.90562" lon="6.50293">
        <ele>2241.3999023438</ele>
        <time>2014-02-12T09:29:24.000Z</time>
      </trkpt>
      <trkpt lat="45.90563" lon="6.50293">
        <ele>2241.8000488281</ele>
        <time>2014-02-12T09:29:26.000Z</time>
      </trkpt>
      <trkpt lat="45.90564" lon="6.50293">
        <ele>2242.3999023438</ele>
        <time>2014-02-12T09:29:27.000Z</time>
      </trkpt>
      <trkpt lat="45.90565" lon="6.50294">
        <ele>2242.6000976562</ele>
        <time>2014-02-12T09:29:28.000Z</time>
      </trkpt>
      <trkpt lat="45.90565" lon="6.50294">
        <ele>2242.6000976562</ele>
        <time>2014-02-12T09:29:29.000Z</time>
      </trkpt>
      <trkpt lat="45.90565" lon="6.50294">
        <ele>2242.6000976562</ele>
        <time>2014-02-12T09:29:30.000Z</time>
      </trkpt>
      <trkpt lat="45.90566" lon="6.50295">
        <ele>2243.1999511719</ele>
        <time>2014-02-12T09:29:31.000Z</time>
      </trkpt>
      <trkpt lat="45.90566" lon="6.50297">
        <ele>2243.6000976562</ele>
        <time>2014-02-12T09:29:32.000Z</time>
      </trkpt>
      <trkpt lat="45.90566" lon="6.50299">
        <ele>2244</ele>
        <time>2014-02-12T09:29:33.000Z</time>
      </trkpt>
      <trkpt lat="45.90567" lon="6.503">
        <ele>2244.1999511719</ele>
        <time>2014-02-12T09:29:34.000Z</time>
      </trkpt>
      <trkpt lat="45.90567" lon="6.503">
        <ele>2244.3999023438</ele>
        <time>2014-02-12T09:29:35.000Z</time>
      </trkpt>
      <trkpt lat="45.90568" lon="6.50302">
        <ele>2244.8000488281</ele>
        <time>2014-02-12T09:29:36.000Z</time>
      </trkpt>
      <trkpt lat="45.90568" lon="6.50303">
        <ele>2245.1999511719</ele>
        <time>2014-02-12T09:29:37.000Z</time>
      </trkpt>
      <trkpt lat="45.90569" lon="6.50304">
        <ele>2245.6000976562</ele>
        <time>2014-02-12T09:29:38.000Z</time>
      </trkpt>
      <trkpt lat="45.90568" lon="6.50305">
        <ele>2245.6000976562</ele>
        <time>2014-02-12T09:29:39.000Z</time>
      </trkpt>
      <trkpt lat="45.90568" lon="6.50306">
        <ele>2245.3999023438</ele>
        <time>2014-02-12T09:29:40.000Z</time>
      </trkpt>
      <trkpt lat="45.90567" lon="6.50308">
        <ele>2245.3999023438</ele>
        <time>2014-02-12T09:29:41.000Z</time>
      </trkpt>
      <trkpt lat="45.90567" lon="6.50309">
        <ele>2245.6000976562</ele>
        <time>2014-02-12T09:29:42.000Z</time>
      </trkpt>
      <trkpt lat="45.90567" lon="6.5031">
        <ele>2245.3999023438</ele>
        <time>2014-02-12T09:29:43.000Z</time>
      </trkpt>
      <trkpt lat="45.90566" lon="6.5031">
        <ele>2245.3999023438</ele>
        <time>2014-02-12T09:29:44.000Z</time>
      </trkpt>
      <trkpt lat="45.90566" lon="6.5031">
        <ele>2245.3999023438</ele>
        <time>2014-02-12T09:29:45.000Z</time>
      </trkpt>
      <trkpt lat="45.90567" lon="6.50312">
        <ele>2245.6000976562</ele>
        <time>2014-02-12T09:29:46.000Z</time>
      </trkpt>
      <trkpt lat="45.90567" lon="6.50313">
        <ele>2245.8000488281</ele>
        <time>2014-02-12T09:29:47.000Z</time>
      </trkpt>
      <trkpt lat="45.90567" lon="6.50313">
        <ele>2245.8000488281</ele>
        <time>2014-02-12T09:29:48.000Z</time>
      </trkpt>
      <trkpt lat="45.90567" lon="6.50314">
        <ele>2246</ele>
        <time>2014-02-12T09:29:49.000Z</time>
      </trkpt>
      <trkpt lat="45.90567" lon="6.50314">
        <ele>2246</ele>
        <time>2014-02-12T09:29:50.000Z</time>
      </trkpt>
      <trkpt lat="45.90567" lon="6.50314">
        <ele>2246</ele>
        <time>2014-02-12T09:29:51.000Z</time>
      </trkpt>
      <trkpt lat="45.90567" lon="6.50316">
        <ele>2246.3999023438</ele>
        <time>2014-02-12T09:29:52.000Z</time>
      </trkpt>
      <trkpt lat="45.90567" lon="6.50316">
        <ele>2246.3999023438</ele>
        <time>2014-02-12T09:29:53.000Z</time>
      </trkpt>
      <trkpt lat="45.90567" lon="6.50317">
        <ele>2246.3999023438</ele>
        <time>2014-02-12T09:29:54.000Z</time>
      </trkpt>
      <trkpt lat="45.90567" lon="6.50317">
        <ele>2246.3999023438</ele>
        <time>2014-02-12T09:29:55.000Z</time>
      </trkpt>
      <trkpt lat="45.90567" lon="6.50318">
        <ele>2246.3999023438</ele>
        <time>2014-02-12T09:29:56.000Z</time>
      </trkpt>
      <trkpt lat="45.90566" lon="6.50319">
        <ele>2246.6000976562</ele>
        <time>2014-02-12T09:29:57.000Z</time>
      </trkpt>
      <trkpt lat="45.90566" lon="6.50319">
        <ele>2246.6000976562</ele>
        <time>2014-02-12T09:29:58.000Z</time>
      </trkpt>
      <trkpt lat="45.90566" lon="6.50319">
        <ele>2246.6000976562</ele>
        <time>2014-02-12T09:29:59.000Z</time>
      </trkpt>
      <trkpt lat="45.90566" lon="6.50319">
        <ele>2246.6000976562</ele>
        <time>2014-02-12T09:30:00.000Z</time>
      </trkpt>
      <trkpt lat="45.90566" lon="6.50319">
        <ele>2246.6000976562</ele>
        <time>2014-02-12T09:30:01.000Z</time>
      </trkpt>
      <trkpt lat="45.90566" lon="6.50319">
        <ele>2246.6000976562</ele>
        <time>2014-02-12T09:30:02.000Z</time>
      </trkpt>
      <trkpt lat="45.90567" lon="6.50319">
        <ele>2246.8000488281</ele>
        <time>2014-02-12T09:30:03.000Z</time>
      </trkpt>
      <trkpt lat="45.90567" lon="6.50319">
        <ele>2246.8000488281</ele>
        <time>2014-02-12T09:30:04.000Z</time>
      </trkpt>
      <trkpt lat="45.90568" lon="6.50319">
        <ele>2247.1999511719</ele>
        <time>2014-02-12T09:30:05.000Z</time>
      </trkpt>
      <trkpt lat="45.90569" lon="6.50319">
        <ele>2247.6000976562</ele>
        <time>2014-02-12T09:30:06.000Z</time>
      </trkpt>
      <trkpt lat="45.90569" lon="6.50319">
        <ele>2247.8000488281</ele>
        <time>2014-02-12T09:30:07.000Z</time>
      </trkpt>
      <trkpt lat="45.90571" lon="6.50319">
        <ele>2248.1999511719</ele>
        <time>2014-02-12T09:30:08.000Z</time>
      </trkpt>
      <trkpt lat="45.90571" lon="6.50318">
        <ele>2248.6000976562</ele>
        <time>2014-02-12T09:30:09.000Z</time>
      </trkpt>
      <trkpt lat="45.90572" lon="6.50318">
        <ele>2248.8000488281</ele>
        <time>2014-02-12T09:30:10.000Z</time>
      </trkpt>
      <trkpt lat="45.90573" lon="6.50318">
        <ele>2249.1999511719</ele>
        <time>2014-02-12T09:30:11.000Z</time>
      </trkpt>
      <trkpt lat="45.90574" lon="6.50318">
        <ele>2249.6000976562</ele>
        <time>2014-02-12T09:30:12.000Z</time>
      </trkpt>
      <trkpt lat="45.90575" lon="6.50318">
        <ele>2250</ele>
        <time>2014-02-12T09:30:13.000Z</time>
      </trkpt>
      <trkpt lat="45.90575" lon="6.50318">
        <ele>2250.1999511719</ele>
        <time>2014-02-12T09:30:14.000Z</time>
      </trkpt>
      <trkpt lat="45.90576" lon="6.50318">
        <ele>2250.6000976562</ele>
        <time>2014-02-12T09:30:15.000Z</time>
      </trkpt>
      <trkpt lat="45.90577" lon="6.50318">
        <ele>2250.8000488281</ele>
        <time>2014-02-12T09:30:16.000Z</time>
      </trkpt>
      <trkpt lat="45.90577" lon="6.50318">
        <ele>2251</ele>
        <time>2014-02-12T09:30:17.000Z</time>
      </trkpt>
      <trkpt lat="45.90578" lon="6.50318">
        <ele>2251.3999023438</ele>
        <time>2014-02-12T09:30:18.000Z</time>
      </trkpt>
      <trkpt lat="45.90579" lon="6.50317">
        <ele>2251.6000976562</ele>
        <time>2014-02-12T09:30:19.000Z</time>
      </trkpt>
      <trkpt lat="45.90579" lon="6.50317">
        <ele>2251.6000976562</ele>
        <time>2014-02-12T09:30:20.000Z</time>
      </trkpt>
      <trkpt lat="45.9058" lon="6.50317">
        <ele>2251.8000488281</ele>
        <time>2014-02-12T09:30:21.000Z</time>
      </trkpt>
      <trkpt lat="45.9058" lon="6.50317">
        <ele>2252</ele>
        <time>2014-02-12T09:30:22.000Z</time>
      </trkpt>
      <trkpt lat="45.9058" lon="6.50317">
        <ele>2252</ele>
        <time>2014-02-12T09:30:23.000Z</time>
      </trkpt>
      <trkpt lat="45.90581" lon="6.50317">
        <ele>2252.3999023438</ele>
        <time>2014-02-12T09:30:24.000Z</time>
      </trkpt>
      <trkpt lat="45.90582" lon="6.50317">
        <ele>2252.6000976562</ele>
        <time>2014-02-12T09:30:25.000Z</time>
      </trkpt>
      <trkpt lat="45.90583" lon="6.50317">
        <ele>2253.1999511719</ele>
        <time>2014-02-12T09:30:26.000Z</time>
      </trkpt>
      <trkpt lat="45.90583" lon="6.50317">
        <ele>2253.3999023438</ele>
        <time>2014-02-12T09:30:27.000Z</time>
      </trkpt>
      <trkpt lat="45.90584" lon="6.50316">
        <ele>2253.6000976562</ele>
        <time>2014-02-12T09:30:28.000Z</time>
      </trkpt>
      <trkpt lat="45.90584" lon="6.50316">
        <ele>2253.8000488281</ele>
        <time>2014-02-12T09:30:29.000Z</time>
      </trkpt>
      <trkpt lat="45.90585" lon="6.50316">
        <ele>2254</ele>
        <time>2014-02-12T09:30:30.000Z</time>
      </trkpt>
      <trkpt lat="45.90585" lon="6.50316">
        <ele>2254.1999511719</ele>
        <time>2014-02-12T09:30:31.000Z</time>
      </trkpt>
      <trkpt lat="45.90586" lon="6.50316">
        <ele>2254.6000976562</ele>
        <time>2014-02-12T09:30:32.000Z</time>
      </trkpt>
      <trkpt lat="45.90587" lon="6.50316">
        <ele>2255</ele>
        <time>2014-02-12T09:30:33.000Z</time>
      </trkpt>
      <trkpt lat="45.90588" lon="6.50316">
        <ele>2255.3999023438</ele>
        <time>2014-02-12T09:30:34.000Z</time>
      </trkpt>
      <trkpt lat="45.90589" lon="6.50316">
        <ele>2255.6000976562</ele>
        <time>2014-02-12T09:30:35.000Z</time>
      </trkpt>
      <trkpt lat="45.90589" lon="6.50316">
        <ele>2255.8000488281</ele>
        <time>2014-02-12T09:30:36.000Z</time>
      </trkpt>
      <trkpt lat="45.9059" lon="6.50316">
        <ele>2256.1999511719</ele>
        <time>2014-02-12T09:30:37.000Z</time>
      </trkpt>
      <trkpt lat="45.90591" lon="6.50316">
        <ele>2256.3999023438</ele>
        <time>2014-02-12T09:30:38.000Z</time>
      </trkpt>
      <trkpt lat="45.90591" lon="6.50316">
        <ele>2256.8000488281</ele>
        <time>2014-02-12T09:30:39.000Z</time>
      </trkpt>
      <trkpt lat="45.90592" lon="6.50316">
        <ele>2257</ele>
        <time>2014-02-12T09:30:40.000Z</time>
      </trkpt>
      <trkpt lat="45.90592" lon="6.50316">
        <ele>2257.1999511719</ele>
        <time>2014-02-12T09:30:41.000Z</time>
      </trkpt>
      <trkpt lat="45.90593" lon="6.50316">
        <ele>2257.6000976562</ele>
        <time>2014-02-12T09:30:42.000Z</time>
      </trkpt>
      <trkpt lat="45.90594" lon="6.50316">
        <ele>2257.8000488281</ele>
        <time>2014-02-12T09:30:43.000Z</time>
      </trkpt>
      <trkpt lat="45.90595" lon="6.50316">
        <ele>2258.1999511719</ele>
        <time>2014-02-12T09:30:44.000Z</time>
      </trkpt>
      <trkpt lat="45.90596" lon="6.50316">
        <ele>2258.8000488281</ele>
        <time>2014-02-12T09:30:45.000Z</time>
      </trkpt>
      <trkpt lat="45.90596" lon="6.50317">
        <ele>2259.1999511719</ele>
        <time>2014-02-12T09:30:46.000Z</time>
      </trkpt>
      <trkpt lat="45.90597" lon="6.50317">
        <ele>2259.3999023438</ele>
        <time>2014-02-12T09:30:47.000Z</time>
      </trkpt>
      <trkpt lat="45.90597" lon="6.50318">
        <ele>2259.8000488281</ele>
        <time>2014-02-12T09:30:48.000Z</time>
      </trkpt>
      <trkpt lat="45.90598" lon="6.50318">
        <ele>2260</ele>
        <time>2014-02-12T09:30:49.000Z</time>
      </trkpt>
      <trkpt lat="45.90598" lon="6.5032">
        <ele>2260.3999023438</ele>
        <time>2014-02-12T09:30:50.000Z</time>
      </trkpt>
      <trkpt lat="45.90598" lon="6.5032">
        <ele>2260.6000976562</ele>
        <time>2014-02-12T09:30:51.000Z</time>
      </trkpt>
      <trkpt lat="45.90599" lon="6.50321">
        <ele>2260.8000488281</ele>
        <time>2014-02-12T09:30:52.000Z</time>
      </trkpt>
      <trkpt lat="45.90599" lon="6.50322">
        <ele>2261.3999023438</ele>
        <time>2014-02-12T09:30:53.000Z</time>
      </trkpt>
      <trkpt lat="45.906" lon="6.50323">
        <ele>2261.8000488281</ele>
        <time>2014-02-12T09:30:54.000Z</time>
      </trkpt>
      <trkpt lat="45.906" lon="6.50325">
        <ele>2262.1999511719</ele>
        <time>2014-02-12T09:30:55.000Z</time>
      </trkpt>
      <trkpt lat="45.90601" lon="6.50326">
        <ele>2262.6000976562</ele>
        <time>2014-02-12T09:30:56.000Z</time>
      </trkpt>
      <trkpt lat="45.90601" lon="6.50327">
        <ele>2263</ele>
        <time>2014-02-12T09:30:57.000Z</time>
      </trkpt>
      <trkpt lat="45.90601" lon="6.50328">
        <ele>2263.3999023438</ele>
        <time>2014-02-12T09:30:58.000Z</time>
      </trkpt>
      <trkpt lat="45.90602" lon="6.50329">
        <ele>2263.8000488281</ele>
        <time>2014-02-12T09:30:59.000Z</time>
      </trkpt>
      <trkpt lat="45.90602" lon="6.5033">
        <ele>2264</ele>
        <time>2014-02-12T09:31:00.000Z</time>
      </trkpt>
      <trkpt lat="45.90602" lon="6.50331">
        <ele>2264.3999023438</ele>
        <time>2014-02-12T09:31:01.000Z</time>
      </trkpt>
      <trkpt lat="45.90602" lon="6.50332">
        <ele>2264.6000976562</ele>
        <time>2014-02-12T09:31:02.000Z</time>
      </trkpt>
      <trkpt lat="45.90602" lon="6.50332">
        <ele>2264.6000976562</ele>
        <time>2014-02-12T09:31:03.000Z</time>
      </trkpt>
      <trkpt lat="45.90602" lon="6.50332">
        <ele>2264.6000976562</ele>
        <time>2014-02-12T09:31:04.000Z</time>
      </trkpt>
      <trkpt lat="45.90602" lon="6.50332">
        <ele>2264.6000976562</ele>
        <time>2014-02-12T09:31:05.000Z</time>
      </trkpt>
      <trkpt lat="45.90602" lon="6.50332">
        <ele>2264.6000976562</ele>
        <time>2014-02-12T09:31:06.000Z</time>
      </trkpt>
      <trkpt lat="45.90603" lon="6.50333">
        <ele>2264.8000488281</ele>
        <time>2014-02-12T09:31:07.000Z</time>
      </trkpt>
      <trkpt lat="45.90603" lon="6.50333">
        <ele>2264.8000488281</ele>
        <time>2014-02-12T09:31:08.000Z</time>
      </trkpt>
      <trkpt lat="45.90603" lon="6.50333">
        <ele>2265.1999511719</ele>
        <time>2014-02-12T09:31:09.000Z</time>
      </trkpt>
      <trkpt lat="45.90604" lon="6.50334">
        <ele>2265.8000488281</ele>
        <time>2014-02-12T09:31:10.000Z</time>
      </trkpt>
      <trkpt lat="45.90604" lon="6.50335">
        <ele>2266</ele>
        <time>2014-02-12T09:31:11.000Z</time>
      </trkpt>
      <trkpt lat="45.90605" lon="6.50335">
        <ele>2266.1999511719</ele>
        <time>2014-02-12T09:31:12.000Z</time>
      </trkpt>
      <trkpt lat="45.90605" lon="6.50335">
        <ele>2266.6000976562</ele>
        <time>2014-02-12T09:31:13.000Z</time>
      </trkpt>
      <trkpt lat="45.90606" lon="6.50336">
        <ele>2266.8000488281</ele>
        <time>2014-02-12T09:31:14.000Z</time>
      </trkpt>
      <trkpt lat="45.90606" lon="6.50336">
        <ele>2267.1999511719</ele>
        <time>2014-02-12T09:31:15.000Z</time>
      </trkpt>
      <trkpt lat="45.90607" lon="6.50337">
        <ele>2267.3999023438</ele>
        <time>2014-02-12T09:31:16.000Z</time>
      </trkpt>
      <trkpt lat="45.90607" lon="6.50337">
        <ele>2267.8000488281</ele>
        <time>2014-02-12T09:31:17.000Z</time>
      </trkpt>
      <trkpt lat="45.90608" lon="6.50338">
        <ele>2268</ele>
        <time>2014-02-12T09:31:18.000Z</time>
      </trkpt>
      <trkpt lat="45.90609" lon="6.50338">
        <ele>2268.3999023438</ele>
        <time>2014-02-12T09:31:19.000Z</time>
      </trkpt>
      <trkpt lat="45.90609" lon="6.50339">
        <ele>2268.8000488281</ele>
        <time>2014-02-12T09:31:20.000Z</time>
      </trkpt>
      <trkpt lat="45.9061" lon="6.50339">
        <ele>2269</ele>
        <time>2014-02-12T09:31:21.000Z</time>
      </trkpt>
      <trkpt lat="45.9061" lon="6.5034">
        <ele>2269.3999023438</ele>
        <time>2014-02-12T09:31:22.000Z</time>
      </trkpt>
      <trkpt lat="45.90611" lon="6.50341">
        <ele>2269.8000488281</ele>
        <time>2014-02-12T09:31:23.000Z</time>
      </trkpt>
      <trkpt lat="45.90611" lon="6.50342">
        <ele>2270.3999023438</ele>
        <time>2014-02-12T09:31:24.000Z</time>
      </trkpt>
      <trkpt lat="45.90612" lon="6.50342">
        <ele>2270.8000488281</ele>
        <time>2014-02-12T09:31:25.000Z</time>
      </trkpt>
      <trkpt lat="45.90613" lon="6.50343">
        <ele>2271.1999511719</ele>
        <time>2014-02-12T09:31:26.000Z</time>
      </trkpt>
      <trkpt lat="45.90614" lon="6.50344">
        <ele>2271.8000488281</ele>
        <time>2014-02-12T09:31:27.000Z</time>
      </trkpt>
      <trkpt lat="45.90614" lon="6.50344">
        <ele>2272</ele>
        <time>2014-02-12T09:31:28.000Z</time>
      </trkpt>
      <trkpt lat="45.90615" lon="6.50345">
        <ele>2272.3999023438</ele>
        <time>2014-02-12T09:31:29.000Z</time>
      </trkpt>
      <trkpt lat="45.90616" lon="6.50345">
        <ele>2272.8000488281</ele>
        <time>2014-02-12T09:31:30.000Z</time>
      </trkpt>
      <trkpt lat="45.90616" lon="6.50346">
        <ele>2273.1999511719</ele>
        <time>2014-02-12T09:31:31.000Z</time>
      </trkpt>
      <trkpt lat="45.90617" lon="6.50346">
        <ele>2273.3999023438</ele>
        <time>2014-02-12T09:31:32.000Z</time>
      </trkpt>
      <trkpt lat="45.90617" lon="6.50347">
        <ele>2273.8000488281</ele>
        <time>2014-02-12T09:31:33.000Z</time>
      </trkpt>
      <trkpt lat="45.90618" lon="6.50347">
        <ele>2274.1999511719</ele>
        <time>2014-02-12T09:31:34.000Z</time>
      </trkpt>
      <trkpt lat="45.90618" lon="6.50348">
        <ele>2274.3999023438</ele>
        <time>2014-02-12T09:31:35.000Z</time>
      </trkpt>
      <trkpt lat="45.90619" lon="6.50348">
        <ele>2274.8000488281</ele>
        <time>2014-02-12T09:31:36.000Z</time>
      </trkpt>
      <trkpt lat="45.90619" lon="6.50349">
        <ele>2275</ele>
        <time>2014-02-12T09:31:37.000Z</time>
      </trkpt>
      <trkpt lat="45.90619" lon="6.50349">
        <ele>2275</ele>
        <time>2014-02-12T09:31:38.000Z</time>
      </trkpt>
      <trkpt lat="45.90619" lon="6.50349">
        <ele>2275</ele>
        <time>2014-02-12T09:31:39.000Z</time>
      </trkpt>
      <trkpt lat="45.90619" lon="6.50349">
        <ele>2275</ele>
        <time>2014-02-12T09:31:40.000Z</time>
      </trkpt>
      <trkpt lat="45.90619" lon="6.50349">
        <ele>2275</ele>
        <time>2014-02-12T09:31:41.000Z</time>
      </trkpt>
      <trkpt lat="45.90619" lon="6.50349">
        <ele>2275</ele>
        <time>2014-02-12T09:31:42.000Z</time>
      </trkpt>
      <trkpt lat="45.90619" lon="6.50349">
        <ele>2275</ele>
        <time>2014-02-12T09:31:43.000Z</time>
      </trkpt>
      <trkpt lat="45.90619" lon="6.50349">
        <ele>2275</ele>
        <time>2014-02-12T09:31:44.000Z</time>
      </trkpt>
      <trkpt lat="45.90619" lon="6.50349">
        <ele>2275</ele>
        <time>2014-02-12T09:31:45.000Z</time>
      </trkpt>
      <trkpt lat="45.90619" lon="6.50349">
        <ele>2275</ele>
        <time>2014-02-12T09:31:46.000Z</time>
      </trkpt>
      <trkpt lat="45.90619" lon="6.50349">
        <ele>2275</ele>
        <time>2014-02-12T09:31:47.000Z</time>
      </trkpt>
      <trkpt lat="45.90619" lon="6.50349">
        <ele>2275</ele>
        <time>2014-02-12T09:31:48.000Z</time>
      </trkpt>
      <trkpt lat="45.90619" lon="6.50349">
        <ele>2275</ele>
        <time>2014-02-12T09:31:49.000Z</time>
      </trkpt>
      <trkpt lat="45.90619" lon="6.50349">
        <ele>2275</ele>
        <time>2014-02-12T09:31:50.000Z</time>
      </trkpt>
      <trkpt lat="45.90619" lon="6.50349">
        <ele>2275</ele>
        <time>2014-02-12T09:31:51.000Z</time>
      </trkpt>
      <trkpt lat="45.90619" lon="6.5035">
        <ele>2275</ele>
        <time>2014-02-12T09:31:52.000Z</time>
      </trkpt>
      <trkpt lat="45.90619" lon="6.50351">
        <ele>2275.1999511719</ele>
        <time>2014-02-12T09:31:53.000Z</time>
      </trkpt>
      <trkpt lat="45.90619" lon="6.50353">
        <ele>2275.6000976562</ele>
        <time>2014-02-12T09:31:54.000Z</time>
      </trkpt>
      <trkpt lat="45.90619" lon="6.50354">
        <ele>2275.8000488281</ele>
        <time>2014-02-12T09:31:55.000Z</time>
      </trkpt>
      <trkpt lat="45.90619" lon="6.50354">
        <ele>2275.8000488281</ele>
        <time>2014-02-12T09:31:56.000Z</time>
      </trkpt>
      <trkpt lat="45.90619" lon="6.50354">
        <ele>2275.8000488281</ele>
        <time>2014-02-12T09:31:57.000Z</time>
      </trkpt>
      <trkpt lat="45.90619" lon="6.50354">
        <ele>2275.8000488281</ele>
        <time>2014-02-12T09:31:58.000Z</time>
      </trkpt>
      <trkpt lat="45.90619" lon="6.50354">
        <ele>2275.8000488281</ele>
        <time>2014-02-12T09:31:59.000Z</time>
      </trkpt>
      <trkpt lat="45.90619" lon="6.50354">
        <ele>2275.8000488281</ele>
        <time>2014-02-12T09:32:00.000Z</time>
      </trkpt>
      <trkpt lat="45.90619" lon="6.50354">
        <ele>2275.8000488281</ele>
        <time>2014-02-12T09:32:01.000Z</time>
      </trkpt>
      <trkpt lat="45.90619" lon="6.50354">
        <ele>2275.8000488281</ele>
        <time>2014-02-12T09:32:02.000Z</time>
      </trkpt>
      <trkpt lat="45.90619" lon="6.50354">
        <ele>2275.8000488281</ele>
        <time>2014-02-12T09:32:03.000Z</time>
      </trkpt>
      <trkpt lat="45.90619" lon="6.50354">
        <ele>2276</ele>
        <time>2014-02-12T09:32:04.000Z</time>
      </trkpt>
      <trkpt lat="45.90619" lon="6.50355">
        <ele>2276.3999023438</ele>
        <time>2014-02-12T09:32:05.000Z</time>
      </trkpt>
      <trkpt lat="45.9062" lon="6.50356">
        <ele>2276.8000488281</ele>
        <time>2014-02-12T09:32:06.000Z</time>
      </trkpt>
      <trkpt lat="45.9062" lon="6.50357">
        <ele>2277.1999511719</ele>
        <time>2014-02-12T09:32:07.000Z</time>
      </trkpt>
      <trkpt lat="45.90621" lon="6.50358">
        <ele>2277.6000976562</ele>
        <time>2014-02-12T09:32:08.000Z</time>
      </trkpt>
      <trkpt lat="45.90622" lon="6.50358">
        <ele>2278</ele>
        <time>2014-02-12T09:32:09.000Z</time>
      </trkpt>
      <trkpt lat="45.90622" lon="6.50359">
        <ele>2278.1999511719</ele>
        <time>2014-02-12T09:32:10.000Z</time>
      </trkpt>
      <trkpt lat="45.90623" lon="6.5036">
        <ele>2278.6000976562</ele>
        <time>2014-02-12T09:32:11.000Z</time>
      </trkpt>
      <trkpt lat="45.90623" lon="6.50361">
        <ele>2279</ele>
        <time>2014-02-12T09:32:12.000Z</time>
      </trkpt>
      <trkpt lat="45.90624" lon="6.50362">
        <ele>2279.3999023438</ele>
        <time>2014-02-12T09:32:13.000Z</time>
      </trkpt>
      <trkpt lat="45.90624" lon="6.50363">
        <ele>2279.8000488281</ele>
        <time>2014-02-12T09:32:14.000Z</time>
      </trkpt>
      <trkpt lat="45.90624" lon="6.50366">
        <ele>2280.3999023438</ele>
        <time>2014-02-12T09:32:15.000Z</time>
      </trkpt>
      <trkpt lat="45.90624" lon="6.50366">
        <ele>2280.3999023438</ele>
        <time>2014-02-12T09:32:16.000Z</time>
      </trkpt>
      <trkpt lat="45.90624" lon="6.50368">
        <ele>2280.8000488281</ele>
        <time>2014-02-12T09:32:17.000Z</time>
      </trkpt>
      <trkpt lat="45.90623" lon="6.5037">
        <ele>2281</ele>
        <time>2014-02-12T09:32:18.000Z</time>
      </trkpt>
      <trkpt lat="45.90623" lon="6.50371">
        <ele>2281</ele>
        <time>2014-02-12T09:32:19.000Z</time>
      </trkpt>
      <trkpt lat="45.90623" lon="6.50372">
        <ele>2281.1999511719</ele>
        <time>2014-02-12T09:32:20.000Z</time>
      </trkpt>
      <trkpt lat="45.90623" lon="6.50374">
        <ele>2281.6000976562</ele>
        <time>2014-02-12T09:32:21.000Z</time>
      </trkpt>
      <trkpt lat="45.90623" lon="6.50375">
        <ele>2281.6000976562</ele>
        <time>2014-02-12T09:32:22.000Z</time>
      </trkpt>
      <trkpt lat="45.90623" lon="6.50376">
        <ele>2281.8000488281</ele>
        <time>2014-02-12T09:32:23.000Z</time>
      </trkpt>
      <trkpt lat="45.90622" lon="6.50379">
        <ele>2282</ele>
        <time>2014-02-12T09:32:24.000Z</time>
      </trkpt>
      <trkpt lat="45.90622" lon="6.50379">
        <ele>2282</ele>
        <time>2014-02-12T09:32:25.000Z</time>
      </trkpt>
      <trkpt lat="45.90622" lon="6.5038">
        <ele>2282</ele>
        <time>2014-02-12T09:32:26.000Z</time>
      </trkpt>
      <trkpt lat="45.90621" lon="6.50381">
        <ele>2282.1999511719</ele>
        <time>2014-02-12T09:32:27.000Z</time>
      </trkpt>
      <trkpt lat="45.90621" lon="6.50382">
        <ele>2282.1999511719</ele>
        <time>2014-02-12T09:32:28.000Z</time>
      </trkpt>
      <trkpt lat="45.90621" lon="6.50382">
        <ele>2282.3999023438</ele>
        <time>2014-02-12T09:32:29.000Z</time>
      </trkpt>
      <trkpt lat="45.9062" lon="6.50384">
        <ele>2282.8000488281</ele>
        <time>2014-02-12T09:32:30.000Z</time>
      </trkpt>
      <trkpt lat="45.9062" lon="6.50385">
        <ele>2283</ele>
        <time>2014-02-12T09:32:31.000Z</time>
      </trkpt>
      <trkpt lat="45.90619" lon="6.50386">
        <ele>2283.1999511719</ele>
        <time>2014-02-12T09:32:32.000Z</time>
      </trkpt>
      <trkpt lat="45.90619" lon="6.50387">
        <ele>2283.3999023438</ele>
        <time>2014-02-12T09:32:33.000Z</time>
      </trkpt>
      <trkpt lat="45.90619" lon="6.50388">
        <ele>2283.6000976562</ele>
        <time>2014-02-12T09:32:34.000Z</time>
      </trkpt>
      <trkpt lat="45.90618" lon="6.50389">
        <ele>2283.6000976562</ele>
        <time>2014-02-12T09:32:35.000Z</time>
      </trkpt>
      <trkpt lat="45.90618" lon="6.5039">
        <ele>2283.8000488281</ele>
        <time>2014-02-12T09:32:36.000Z</time>
      </trkpt>
      <trkpt lat="45.90617" lon="6.50391">
        <ele>2284</ele>
        <time>2014-02-12T09:32:37.000Z</time>
      </trkpt>
      <trkpt lat="45.90617" lon="6.50392">
        <ele>2284.3999023438</ele>
        <time>2014-02-12T09:32:38.000Z</time>
      </trkpt>
      <trkpt lat="45.90617" lon="6.50393">
        <ele>2284.3999023438</ele>
        <time>2014-02-12T09:32:39.000Z</time>
      </trkpt>
      <trkpt lat="45.90616" lon="6.50393">
        <ele>2284.6000976562</ele>
        <time>2014-02-12T09:32:40.000Z</time>
      </trkpt>
      <trkpt lat="45.90616" lon="6.50394">
        <ele>2284.8000488281</ele>
        <time>2014-02-12T09:32:41.000Z</time>
      </trkpt>
      <trkpt lat="45.90616" lon="6.50396">
        <ele>2285.1999511719</ele>
        <time>2014-02-12T09:32:42.000Z</time>
      </trkpt>
      <trkpt lat="45.90615" lon="6.50397">
        <ele>2285.3999023438</ele>
        <time>2014-02-12T09:32:43.000Z</time>
      </trkpt>
      <trkpt lat="45.90615" lon="6.50398">
        <ele>2285.8000488281</ele>
        <time>2014-02-12T09:32:44.000Z</time>
      </trkpt>
      <trkpt lat="45.90615" lon="6.50399">
        <ele>2286</ele>
        <time>2014-02-12T09:32:45.000Z</time>
      </trkpt>
      <trkpt lat="45.90614" lon="6.504">
        <ele>2286.1999511719</ele>
        <time>2014-02-12T09:32:46.000Z</time>
      </trkpt>
      <trkpt lat="45.90614" lon="6.504">
        <ele>2286.1999511719</ele>
        <time>2014-02-12T09:32:47.000Z</time>
      </trkpt>
      <trkpt lat="45.90614" lon="6.504">
        <ele>2286.1999511719</ele>
        <time>2014-02-12T09:32:48.000Z</time>
      </trkpt>
      <trkpt lat="45.90614" lon="6.504">
        <ele>2286.1999511719</ele>
        <time>2014-02-12T09:32:49.000Z</time>
      </trkpt>
      <trkpt lat="45.90614" lon="6.504">
        <ele>2286.1999511719</ele>
        <time>2014-02-12T09:32:50.000Z</time>
      </trkpt>
      <trkpt lat="45.90614" lon="6.504">
        <ele>2286.1999511719</ele>
        <time>2014-02-12T09:32:51.000Z</time>
      </trkpt>
      <trkpt lat="45.90614" lon="6.504">
        <ele>2286.1999511719</ele>
        <time>2014-02-12T09:32:52.000Z</time>
      </trkpt>
      <trkpt lat="45.90615" lon="6.504">
        <ele>2286.1999511719</ele>
        <time>2014-02-12T09:32:53.000Z</time>
      </trkpt>
      <trkpt lat="45.90615" lon="6.504">
        <ele>2286.3999023438</ele>
        <time>2014-02-12T09:32:54.000Z</time>
      </trkpt>
      <trkpt lat="45.90616" lon="6.50401">
        <ele>2287</ele>
        <time>2014-02-12T09:32:55.000Z</time>
      </trkpt>
      <trkpt lat="45.90617" lon="6.50401">
        <ele>2287.3999023438</ele>
        <time>2014-02-12T09:32:56.000Z</time>
      </trkpt>
      <trkpt lat="45.90618" lon="6.50401">
        <ele>2287.6000976562</ele>
        <time>2014-02-12T09:32:57.000Z</time>
      </trkpt>
      <trkpt lat="45.90618" lon="6.50402">
        <ele>2288</ele>
        <time>2014-02-12T09:32:58.000Z</time>
      </trkpt>
      <trkpt lat="45.90619" lon="6.50402">
        <ele>2288.3999023438</ele>
        <time>2014-02-12T09:32:59.000Z</time>
      </trkpt>
      <trkpt lat="45.9062" lon="6.50402">
        <ele>2288.8000488281</ele>
        <time>2014-02-12T09:33:00.000Z</time>
      </trkpt>
      <trkpt lat="45.90621" lon="6.50403">
        <ele>2289</ele>
        <time>2014-02-12T09:33:01.000Z</time>
      </trkpt>
      <trkpt lat="45.90622" lon="6.50403">
        <ele>2289.6000976562</ele>
        <time>2014-02-12T09:33:02.000Z</time>
      </trkpt>
      <trkpt lat="45.90622" lon="6.50403">
        <ele>2289.6000976562</ele>
        <time>2014-02-12T09:33:03.000Z</time>
      </trkpt>
      <trkpt lat="45.90623" lon="6.50404">
        <ele>2290</ele>
        <time>2014-02-12T09:33:04.000Z</time>
      </trkpt>
      <trkpt lat="45.90624" lon="6.50404">
        <ele>2290.3999023438</ele>
        <time>2014-02-12T09:33:05.000Z</time>
      </trkpt>
      <trkpt lat="45.90625" lon="6.50405">
        <ele>2290.8000488281</ele>
        <time>2014-02-12T09:33:06.000Z</time>
      </trkpt>
      <trkpt lat="45.90625" lon="6.50405">
        <ele>2291</ele>
        <time>2014-02-12T09:33:07.000Z</time>
      </trkpt>
      <trkpt lat="45.90626" lon="6.50405">
        <ele>2291.3999023438</ele>
        <time>2014-02-12T09:33:08.000Z</time>
      </trkpt>
      <trkpt lat="45.90627" lon="6.50405">
        <ele>2291.8000488281</ele>
        <time>2014-02-12T09:33:09.000Z</time>
      </trkpt>
      <trkpt lat="45.90628" lon="6.50405">
        <ele>2292</ele>
        <time>2014-02-12T09:33:10.000Z</time>
      </trkpt>
      <trkpt lat="45.90629" lon="6.50406">
        <ele>2292.3999023438</ele>
        <time>2014-02-12T09:33:11.000Z</time>
      </trkpt>
      <trkpt lat="45.90629" lon="6.50406">
        <ele>2292.6000976562</ele>
        <time>2014-02-12T09:33:12.000Z</time>
      </trkpt>
      <trkpt lat="45.9063" lon="6.50406">
        <ele>2292.8000488281</ele>
        <time>2014-02-12T09:33:13.000Z</time>
      </trkpt>
      <trkpt lat="45.90631" lon="6.50406">
        <ele>2293</ele>
        <time>2014-02-12T09:33:14.000Z</time>
      </trkpt>
      <trkpt lat="45.90631" lon="6.50406">
        <ele>2293.1999511719</ele>
        <time>2014-02-12T09:33:15.000Z</time>
      </trkpt>
      <trkpt lat="45.90632" lon="6.50406">
        <ele>2293.3999023438</ele>
        <time>2014-02-12T09:33:16.000Z</time>
      </trkpt>
      <trkpt lat="45.90632" lon="6.50406">
        <ele>2293.6000976562</ele>
        <time>2014-02-12T09:33:17.000Z</time>
      </trkpt>
      <trkpt lat="45.90633" lon="6.50407">
        <ele>2293.8000488281</ele>
        <time>2014-02-12T09:33:18.000Z</time>
      </trkpt>
      <trkpt lat="45.90633" lon="6.50407">
        <ele>2293.8000488281</ele>
        <time>2014-02-12T09:33:19.000Z</time>
      </trkpt>
      <trkpt lat="45.90633" lon="6.50407">
        <ele>2293.8000488281</ele>
        <time>2014-02-12T09:33:20.000Z</time>
      </trkpt>
      <trkpt lat="45.90633" lon="6.50407">
        <ele>2293.8000488281</ele>
        <time>2014-02-12T09:33:21.000Z</time>
      </trkpt>
      <trkpt lat="45.90633" lon="6.50407">
        <ele>2293.8000488281</ele>
        <time>2014-02-12T09:33:22.000Z</time>
      </trkpt>
      <trkpt lat="45.90633" lon="6.50407">
        <ele>2293.8000488281</ele>
        <time>2014-02-12T09:33:23.000Z</time>
      </trkpt>
      <trkpt lat="45.90632" lon="6.50407">
        <ele>2294</ele>
        <time>2014-02-12T09:33:24.000Z</time>
      </trkpt>
      <trkpt lat="45.90632" lon="6.50408">
        <ele>2294.1999511719</ele>
        <time>2014-02-12T09:33:25.000Z</time>
      </trkpt>
      <trkpt lat="45.90632" lon="6.50409">
        <ele>2294.3999023438</ele>
        <time>2014-02-12T09:33:26.000Z</time>
      </trkpt>
      <trkpt lat="45.90631" lon="6.50411">
        <ele>2294.8000488281</ele>
        <time>2014-02-12T09:33:27.000Z</time>
      </trkpt>
      <trkpt lat="45.90631" lon="6.50412">
        <ele>2294.8000488281</ele>
        <time>2014-02-12T09:33:28.000Z</time>
      </trkpt>
      <trkpt lat="45.9063" lon="6.50412">
        <ele>2295</ele>
        <time>2014-02-12T09:33:29.000Z</time>
      </trkpt>
      <trkpt lat="45.90629" lon="6.50414">
        <ele>2295</ele>
        <time>2014-02-12T09:33:30.000Z</time>
      </trkpt>
      <trkpt lat="45.90628" lon="6.50415">
        <ele>2295.1999511719</ele>
        <time>2014-02-12T09:33:31.000Z</time>
      </trkpt>
      <trkpt lat="45.90628" lon="6.50415">
        <ele>2295.1999511719</ele>
        <time>2014-02-12T09:33:32.000Z</time>
      </trkpt>
      <trkpt lat="45.90628" lon="6.50416">
        <ele>2295.6000976562</ele>
        <time>2014-02-12T09:33:33.000Z</time>
      </trkpt>
      <trkpt lat="45.90628" lon="6.50417">
        <ele>2295.6000976562</ele>
        <time>2014-02-12T09:33:34.000Z</time>
      </trkpt>
      <trkpt lat="45.90627" lon="6.50417">
        <ele>2295.8000488281</ele>
        <time>2014-02-12T09:33:35.000Z</time>
      </trkpt>
      <trkpt lat="45.90626" lon="6.50418">
        <ele>2295.8000488281</ele>
        <time>2014-02-12T09:33:36.000Z</time>
      </trkpt>
      <trkpt lat="45.90626" lon="6.50419">
        <ele>2296</ele>
        <time>2014-02-12T09:33:37.000Z</time>
      </trkpt>
      <trkpt lat="45.90626" lon="6.5042">
        <ele>2296</ele>
        <time>2014-02-12T09:33:38.000Z</time>
      </trkpt>
      <trkpt lat="45.90625" lon="6.50421">
        <ele>2296.1999511719</ele>
        <time>2014-02-12T09:33:39.000Z</time>
      </trkpt>
      <trkpt lat="45.90624" lon="6.50422">
        <ele>2296.3999023438</ele>
        <time>2014-02-12T09:33:40.000Z</time>
      </trkpt>
      <trkpt lat="45.90624" lon="6.50423">
        <ele>2296.3999023438</ele>
        <time>2014-02-12T09:33:41.000Z</time>
      </trkpt>
      <trkpt lat="45.90623" lon="6.50424">
        <ele>2296.6000976562</ele>
        <time>2014-02-12T09:33:42.000Z</time>
      </trkpt>
      <trkpt lat="45.90623" lon="6.50425">
        <ele>2297</ele>
        <time>2014-02-12T09:33:43.000Z</time>
      </trkpt>
      <trkpt lat="45.90622" lon="6.50426">
        <ele>2297</ele>
        <time>2014-02-12T09:33:44.000Z</time>
      </trkpt>
      <trkpt lat="45.90622" lon="6.50426">
        <ele>2297</ele>
        <time>2014-02-12T09:33:45.000Z</time>
      </trkpt>
      <trkpt lat="45.90621" lon="6.50428">
        <ele>2297.3999023438</ele>
        <time>2014-02-12T09:33:46.000Z</time>
      </trkpt>
      <trkpt lat="45.90621" lon="6.50428">
        <ele>2297.3999023438</ele>
        <time>2014-02-12T09:33:47.000Z</time>
      </trkpt>
      <trkpt lat="45.90621" lon="6.50429">
        <ele>2297.6000976562</ele>
        <time>2014-02-12T09:33:48.000Z</time>
      </trkpt>
      <trkpt lat="45.9062" lon="6.50431">
        <ele>2297.8000488281</ele>
        <time>2014-02-12T09:33:49.000Z</time>
      </trkpt>
      <trkpt lat="45.9062" lon="6.50431">
        <ele>2297.8000488281</ele>
        <time>2014-02-12T09:33:50.000Z</time>
      </trkpt>
      <trkpt lat="45.90619" lon="6.50431">
        <ele>2297.8000488281</ele>
        <time>2014-02-12T09:33:51.000Z</time>
      </trkpt>
      <trkpt lat="45.90619" lon="6.50431">
        <ele>2297.8000488281</ele>
        <time>2014-02-12T09:33:52.000Z</time>
      </trkpt>
      <trkpt lat="45.90619" lon="6.50431">
        <ele>2297.8000488281</ele>
        <time>2014-02-12T09:33:53.000Z</time>
      </trkpt>
      <trkpt lat="45.90619" lon="6.50431">
        <ele>2297.8000488281</ele>
        <time>2014-02-12T09:33:54.000Z</time>
      </trkpt>
      <trkpt lat="45.90619" lon="6.50431">
        <ele>2297.8000488281</ele>
        <time>2014-02-12T09:33:55.000Z</time>
      </trkpt>
      <trkpt lat="45.9062" lon="6.50431">
        <ele>2298</ele>
        <time>2014-02-12T09:33:56.000Z</time>
      </trkpt>
      <trkpt lat="45.9062" lon="6.50431">
        <ele>2298</ele>
        <time>2014-02-12T09:33:57.000Z</time>
      </trkpt>
      <trkpt lat="45.90621" lon="6.50432">
        <ele>2298.3999023438</ele>
        <time>2014-02-12T09:33:58.000Z</time>
      </trkpt>
      <trkpt lat="45.90622" lon="6.50432">
        <ele>2299</ele>
        <time>2014-02-12T09:33:59.000Z</time>
      </trkpt>
      <trkpt lat="45.90623" lon="6.50432">
        <ele>2299.1999511719</ele>
        <time>2014-02-12T09:34:00.000Z</time>
      </trkpt>
      <trkpt lat="45.90623" lon="6.50432">
        <ele>2299.3999023438</ele>
        <time>2014-02-12T09:34:01.000Z</time>
      </trkpt>
      <trkpt lat="45.90624" lon="6.50433">
        <ele>2299.6000976562</ele>
        <time>2014-02-12T09:34:02.000Z</time>
      </trkpt>
      <trkpt lat="45.90625" lon="6.50433">
        <ele>2300</ele>
        <time>2014-02-12T09:34:03.000Z</time>
      </trkpt>
      <trkpt lat="45.90626" lon="6.50433">
        <ele>2300.1999511719</ele>
        <time>2014-02-12T09:34:04.000Z</time>
      </trkpt>
      <trkpt lat="45.90626" lon="6.50433">
        <ele>2300.3999023438</ele>
        <time>2014-02-12T09:34:05.000Z</time>
      </trkpt>
      <trkpt lat="45.90627" lon="6.50433">
        <ele>2300.6000976562</ele>
        <time>2014-02-12T09:34:06.000Z</time>
      </trkpt>
      <trkpt lat="45.90628" lon="6.50433">
        <ele>2301</ele>
        <time>2014-02-12T09:34:07.000Z</time>
      </trkpt>
      <trkpt lat="45.90629" lon="6.50433">
        <ele>2301.1999511719</ele>
        <time>2014-02-12T09:34:08.000Z</time>
      </trkpt>
      <trkpt lat="45.9063" lon="6.50434">
        <ele>2301.6000976562</ele>
        <time>2014-02-12T09:34:09.000Z</time>
      </trkpt>
      <trkpt lat="45.9063" lon="6.50434">
        <ele>2302</ele>
        <time>2014-02-12T09:34:10.000Z</time>
      </trkpt>
      <trkpt lat="45.90631" lon="6.50434">
        <ele>2302.1999511719</ele>
        <time>2014-02-12T09:34:11.000Z</time>
      </trkpt>
      <trkpt lat="45.90632" lon="6.50434">
        <ele>2302.3999023438</ele>
        <time>2014-02-12T09:34:12.000Z</time>
      </trkpt>
      <trkpt lat="45.90632" lon="6.50434">
        <ele>2302.6000976562</ele>
        <time>2014-02-12T09:34:13.000Z</time>
      </trkpt>
      <trkpt lat="45.90633" lon="6.50434">
        <ele>2302.8000488281</ele>
        <time>2014-02-12T09:34:14.000Z</time>
      </trkpt>
      <trkpt lat="45.90634" lon="6.50434">
        <ele>2303</ele>
        <time>2014-02-12T09:34:15.000Z</time>
      </trkpt>
      <trkpt lat="45.90635" lon="6.50434">
        <ele>2303.1999511719</ele>
        <time>2014-02-12T09:34:16.000Z</time>
      </trkpt>
      <trkpt lat="45.90635" lon="6.50434">
        <ele>2303.3999023438</ele>
        <time>2014-02-12T09:34:17.000Z</time>
      </trkpt>
      <trkpt lat="45.90636" lon="6.50433">
        <ele>2303.6000976562</ele>
        <time>2014-02-12T09:34:18.000Z</time>
      </trkpt>
      <trkpt lat="45.90637" lon="6.50433">
        <ele>2303.8000488281</ele>
        <time>2014-02-12T09:34:19.000Z</time>
      </trkpt>
      <trkpt lat="45.90638" lon="6.50433">
        <ele>2304</ele>
        <time>2014-02-12T09:34:20.000Z</time>
      </trkpt>
      <trkpt lat="45.90639" lon="6.50433">
        <ele>2304.1999511719</ele>
        <time>2014-02-12T09:34:21.000Z</time>
      </trkpt>
      <trkpt lat="45.9064" lon="6.50433">
        <ele>2304.6000976562</ele>
        <time>2014-02-12T09:34:22.000Z</time>
      </trkpt>
      <trkpt lat="45.9064" lon="6.50434">
        <ele>2304.8000488281</ele>
        <time>2014-02-12T09:34:23.000Z</time>
      </trkpt>
      <trkpt lat="45.9064" lon="6.50434">
        <ele>2304.8000488281</ele>
        <time>2014-02-12T09:34:24.000Z</time>
      </trkpt>
      <trkpt lat="45.9064" lon="6.50434">
        <ele>2304.8000488281</ele>
        <time>2014-02-12T09:34:25.000Z</time>
      </trkpt>
      <trkpt lat="45.9064" lon="6.50434">
        <ele>2304.8000488281</ele>
        <time>2014-02-12T09:34:26.000Z</time>
      </trkpt>
      <trkpt lat="45.9064" lon="6.50434">
        <ele>2304.8000488281</ele>
        <time>2014-02-12T09:34:27.000Z</time>
      </trkpt>
      <trkpt lat="45.9064" lon="6.50434">
        <ele>2304.8000488281</ele>
        <time>2014-02-12T09:34:28.000Z</time>
      </trkpt>
      <trkpt lat="45.9064" lon="6.50434">
        <ele>2305</ele>
        <time>2014-02-12T09:34:29.000Z</time>
      </trkpt>
      <trkpt lat="45.9064" lon="6.50435">
        <ele>2305.1999511719</ele>
        <time>2014-02-12T09:34:30.000Z</time>
      </trkpt>
      <trkpt lat="45.90639" lon="6.50436">
        <ele>2305.3999023438</ele>
        <time>2014-02-12T09:34:31.000Z</time>
      </trkpt>
      <trkpt lat="45.90639" lon="6.50438">
        <ele>2305.8000488281</ele>
        <time>2014-02-12T09:34:32.000Z</time>
      </trkpt>
      <trkpt lat="45.90638" lon="6.50439">
        <ele>2306.1999511719</ele>
        <time>2014-02-12T09:34:33.000Z</time>
      </trkpt>
      <trkpt lat="45.90638" lon="6.5044">
        <ele>2306.1999511719</ele>
        <time>2014-02-12T09:34:34.000Z</time>
      </trkpt>
      <trkpt lat="45.90638" lon="6.50441">
        <ele>2306.6000976562</ele>
        <time>2014-02-12T09:34:35.000Z</time>
      </trkpt>
      <trkpt lat="45.90637" lon="6.50442">
        <ele>2306.6000976562</ele>
        <time>2014-02-12T09:34:36.000Z</time>
      </trkpt>
      <trkpt lat="45.90637" lon="6.50442">
        <ele>2306.8000488281</ele>
        <time>2014-02-12T09:34:37.000Z</time>
      </trkpt>
      <trkpt lat="45.90637" lon="6.50444">
        <ele>2307.1999511719</ele>
        <time>2014-02-12T09:34:38.000Z</time>
      </trkpt>
      <trkpt lat="45.90636" lon="6.50446">
        <ele>2307.3999023438</ele>
        <time>2014-02-12T09:34:39.000Z</time>
      </trkpt>
      <trkpt lat="45.90636" lon="6.50446">
        <ele>2307.6000976562</ele>
        <time>2014-02-12T09:34:40.000Z</time>
      </trkpt>
      <trkpt lat="45.90635" lon="6.50447">
        <ele>2307.8000488281</ele>
        <time>2014-02-12T09:34:41.000Z</time>
      </trkpt>
      <trkpt lat="45.90635" lon="6.50449">
        <ele>2308</ele>
        <time>2014-02-12T09:34:42.000Z</time>
      </trkpt>
      <trkpt lat="45.90634" lon="6.50449">
        <ele>2308.1999511719</ele>
        <time>2014-02-12T09:34:43.000Z</time>
      </trkpt>
      <trkpt lat="45.90634" lon="6.5045">
        <ele>2308.1999511719</ele>
        <time>2014-02-12T09:34:44.000Z</time>
      </trkpt>
      <trkpt lat="45.90634" lon="6.5045">
        <ele>2308.1999511719</ele>
        <time>2014-02-12T09:34:45.000Z</time>
      </trkpt>
      <trkpt lat="45.90634" lon="6.5045">
        <ele>2308.1999511719</ele>
        <time>2014-02-12T09:34:46.000Z</time>
      </trkpt>
      <trkpt lat="45.90634" lon="6.5045">
        <ele>2308.1999511719</ele>
        <time>2014-02-12T09:34:47.000Z</time>
      </trkpt>
      <trkpt lat="45.90634" lon="6.5045">
        <ele>2308.1999511719</ele>
        <time>2014-02-12T09:34:48.000Z</time>
      </trkpt>
      <trkpt lat="45.90634" lon="6.5045">
        <ele>2308.1999511719</ele>
        <time>2014-02-12T09:34:49.000Z</time>
      </trkpt>
      <trkpt lat="45.90635" lon="6.5045">
        <ele>2308.3999023438</ele>
        <time>2014-02-12T09:34:50.000Z</time>
      </trkpt>
      <trkpt lat="45.90635" lon="6.5045">
        <ele>2308.6000976562</ele>
        <time>2014-02-12T09:34:51.000Z</time>
      </trkpt>
      <trkpt lat="45.90635" lon="6.5045">
        <ele>2308.8000488281</ele>
        <time>2014-02-12T09:34:52.000Z</time>
      </trkpt>
      <trkpt lat="45.90637" lon="6.5045">
        <ele>2309</ele>
        <time>2014-02-12T09:34:53.000Z</time>
      </trkpt>
      <trkpt lat="45.90637" lon="6.5045">
        <ele>2309.3999023438</ele>
        <time>2014-02-12T09:34:54.000Z</time>
      </trkpt>
      <trkpt lat="45.90638" lon="6.5045">
        <ele>2309.3999023438</ele>
        <time>2014-02-12T09:34:55.000Z</time>
      </trkpt>
      <trkpt lat="45.90639" lon="6.50451">
        <ele>2310</ele>
        <time>2014-02-12T09:34:56.000Z</time>
      </trkpt>
      <trkpt lat="45.90639" lon="6.50451">
        <ele>2310.1999511719</ele>
        <time>2014-02-12T09:34:57.000Z</time>
      </trkpt>
      <trkpt lat="45.9064" lon="6.50451">
        <ele>2310.3999023438</ele>
        <time>2014-02-12T09:34:58.000Z</time>
      </trkpt>
      <trkpt lat="45.90641" lon="6.50451">
        <ele>2310.6000976562</ele>
        <time>2014-02-12T09:34:59.000Z</time>
      </trkpt>
      <trkpt lat="45.90642" lon="6.50451">
        <ele>2311</ele>
        <time>2014-02-12T09:35:00.000Z</time>
      </trkpt>
      <trkpt lat="45.90643" lon="6.50451">
        <ele>2311.1999511719</ele>
        <time>2014-02-12T09:35:01.000Z</time>
      </trkpt>
      <trkpt lat="45.90643" lon="6.50451">
        <ele>2311.3999023438</ele>
        <time>2014-02-12T09:35:02.000Z</time>
      </trkpt>
      <trkpt lat="45.90644" lon="6.50451">
        <ele>2311.8000488281</ele>
        <time>2014-02-12T09:35:03.000Z</time>
      </trkpt>
      <trkpt lat="45.90645" lon="6.50451">
        <ele>2312.1999511719</ele>
        <time>2014-02-12T09:35:04.000Z</time>
      </trkpt>
      <trkpt lat="45.90646" lon="6.50451">
        <ele>2312.6000976562</ele>
        <time>2014-02-12T09:35:05.000Z</time>
      </trkpt>
      <trkpt lat="45.90647" lon="6.50451">
        <ele>2313</ele>
        <time>2014-02-12T09:35:06.000Z</time>
      </trkpt>
      <trkpt lat="45.90648" lon="6.50451">
        <ele>2313</ele>
        <time>2014-02-12T09:35:07.000Z</time>
      </trkpt>
      <trkpt lat="45.90648" lon="6.50451">
        <ele>2313.1999511719</ele>
        <time>2014-02-12T09:35:08.000Z</time>
      </trkpt>
      <trkpt lat="45.9065" lon="6.50451">
        <ele>2313.6000976562</ele>
        <time>2014-02-12T09:35:09.000Z</time>
      </trkpt>
      <trkpt lat="45.9065" lon="6.50451">
        <ele>2313.6000976562</ele>
        <time>2014-02-12T09:35:10.000Z</time>
      </trkpt>
      <trkpt lat="45.90651" lon="6.5045">
        <ele>2313.8000488281</ele>
        <time>2014-02-12T09:35:11.000Z</time>
      </trkpt>
      <trkpt lat="45.90652" lon="6.5045">
        <ele>2314</ele>
        <time>2014-02-12T09:35:12.000Z</time>
      </trkpt>
      <trkpt lat="45.90652" lon="6.5045">
        <ele>2314</ele>
        <time>2014-02-12T09:35:13.000Z</time>
      </trkpt>
      <trkpt lat="45.90652" lon="6.5045">
        <ele>2314</ele>
        <time>2014-02-12T09:35:14.000Z</time>
      </trkpt>
      <trkpt lat="45.90652" lon="6.5045">
        <ele>2314</ele>
        <time>2014-02-12T09:35:15.000Z</time>
      </trkpt>
      <trkpt lat="45.90652" lon="6.5045">
        <ele>2314</ele>
        <time>2014-02-12T09:35:16.000Z</time>
      </trkpt>
      <trkpt lat="45.90652" lon="6.5045">
        <ele>2314</ele>
        <time>2014-02-12T09:35:17.000Z</time>
      </trkpt>
      <trkpt lat="45.90652" lon="6.5045">
        <ele>2314</ele>
        <time>2014-02-12T09:35:18.000Z</time>
      </trkpt>
      <trkpt lat="45.90652" lon="6.50451">
        <ele>2314.3999023438</ele>
        <time>2014-02-12T09:35:19.000Z</time>
      </trkpt>
      <trkpt lat="45.90652" lon="6.50451">
        <ele>2314.6000976562</ele>
        <time>2014-02-12T09:35:20.000Z</time>
      </trkpt>
      <trkpt lat="45.90652" lon="6.50453">
        <ele>2315.1999511719</ele>
        <time>2014-02-12T09:35:21.000Z</time>
      </trkpt>
      <trkpt lat="45.90652" lon="6.50454">
        <ele>2315.3999023438</ele>
        <time>2014-02-12T09:35:22.000Z</time>
      </trkpt>
      <trkpt lat="45.90652" lon="6.50455">
        <ele>2315.6000976562</ele>
        <time>2014-02-12T09:35:23.000Z</time>
      </trkpt>
      <trkpt lat="45.90651" lon="6.50456">
        <ele>2315.6000976562</ele>
        <time>2014-02-12T09:35:24.000Z</time>
      </trkpt>
      <trkpt lat="45.9065" lon="6.50458">
        <ele>2316</ele>
        <time>2014-02-12T09:35:25.000Z</time>
      </trkpt>
      <trkpt lat="45.9065" lon="6.50458">
        <ele>2316.1999511719</ele>
        <time>2014-02-12T09:35:26.000Z</time>
      </trkpt>
      <trkpt lat="45.9065" lon="6.50459">
        <ele>2316.3999023438</ele>
        <time>2014-02-12T09:35:27.000Z</time>
      </trkpt>
      <trkpt lat="45.90649" lon="6.50461">
        <ele>2316.6000976562</ele>
        <time>2014-02-12T09:35:28.000Z</time>
      </trkpt>
      <trkpt lat="45.90649" lon="6.50462">
        <ele>2316.8000488281</ele>
        <time>2014-02-12T09:35:29.000Z</time>
      </trkpt>
      <trkpt lat="45.90649" lon="6.50462">
        <ele>2317</ele>
        <time>2014-02-12T09:35:30.000Z</time>
      </trkpt>
      <trkpt lat="45.90649" lon="6.50463">
        <ele>2317.3999023438</ele>
        <time>2014-02-12T09:35:31.000Z</time>
      </trkpt>
      <trkpt lat="45.90648" lon="6.50465">
        <ele>2317.6000976562</ele>
        <time>2014-02-12T09:35:32.000Z</time>
      </trkpt>
      <trkpt lat="45.90648" lon="6.50465">
        <ele>2317.8000488281</ele>
        <time>2014-02-12T09:35:33.000Z</time>
      </trkpt>
      <trkpt lat="45.90648" lon="6.50466">
        <ele>2318</ele>
        <time>2014-02-12T09:35:34.000Z</time>
      </trkpt>
      <trkpt lat="45.90647" lon="6.50468">
        <ele>2318.1999511719</ele>
        <time>2014-02-12T09:35:35.000Z</time>
      </trkpt>
      <trkpt lat="45.90647" lon="6.50468">
        <ele>2318.1999511719</ele>
        <time>2014-02-12T09:35:36.000Z</time>
      </trkpt>
      <trkpt lat="45.90647" lon="6.50468">
        <ele>2318.3999023438</ele>
        <time>2014-02-12T09:35:37.000Z</time>
      </trkpt>
      <trkpt lat="45.90647" lon="6.50469">
        <ele>2318.3999023438</ele>
        <time>2014-02-12T09:35:38.000Z</time>
      </trkpt>
      <trkpt lat="45.90647" lon="6.50469">
        <ele>2318.3999023438</ele>
        <time>2014-02-12T09:35:39.000Z</time>
      </trkpt>
      <trkpt lat="45.90647" lon="6.50469">
        <ele>2318.3999023438</ele>
        <time>2014-02-12T09:35:40.000Z</time>
      </trkpt>
      <trkpt lat="45.90647" lon="6.50469">
        <ele>2318.3999023438</ele>
        <time>2014-02-12T09:35:41.000Z</time>
      </trkpt>
      <trkpt lat="45.90647" lon="6.50469">
        <ele>2318.3999023438</ele>
        <time>2014-02-12T09:35:42.000Z</time>
      </trkpt>
      <trkpt lat="45.90647" lon="6.50469">
        <ele>2318.3999023438</ele>
        <time>2014-02-12T09:35:43.000Z</time>
      </trkpt>
      <trkpt lat="45.90647" lon="6.50469">
        <ele>2318.3999023438</ele>
        <time>2014-02-12T09:35:44.000Z</time>
      </trkpt>
      <trkpt lat="45.90647" lon="6.50469">
        <ele>2318.3999023438</ele>
        <time>2014-02-12T09:35:45.000Z</time>
      </trkpt>
      <trkpt lat="45.90647" lon="6.50469">
        <ele>2318.3999023438</ele>
        <time>2014-02-12T09:35:46.000Z</time>
      </trkpt>
      <trkpt lat="45.90647" lon="6.50469">
        <ele>2318.3999023438</ele>
        <time>2014-02-12T09:35:47.000Z</time>
      </trkpt>
      <trkpt lat="45.90647" lon="6.50469">
        <ele>2318.3999023438</ele>
        <time>2014-02-12T09:35:48.000Z</time>
      </trkpt>
      <trkpt lat="45.90647" lon="6.50469">
        <ele>2318.3999023438</ele>
        <time>2014-02-12T09:35:49.000Z</time>
      </trkpt>
      <trkpt lat="45.90647" lon="6.50469">
        <ele>2318.3999023438</ele>
        <time>2014-02-12T09:35:50.000Z</time>
      </trkpt>
      <trkpt lat="45.90647" lon="6.50469">
        <ele>2318.3999023438</ele>
        <time>2014-02-12T09:35:51.000Z</time>
      </trkpt>
      <trkpt lat="45.90647" lon="6.50469">
        <ele>2318.3999023438</ele>
        <time>2014-02-12T09:35:52.000Z</time>
      </trkpt>
      <trkpt lat="45.90647" lon="6.50469">
        <ele>2318.3999023438</ele>
        <time>2014-02-12T09:35:53.000Z</time>
      </trkpt>
      <trkpt lat="45.90647" lon="6.50469">
        <ele>2318.3999023438</ele>
        <time>2014-02-12T09:35:54.000Z</time>
      </trkpt>
      <trkpt lat="45.90647" lon="6.50469">
        <ele>2318.3999023438</ele>
        <time>2014-02-12T09:35:55.000Z</time>
      </trkpt>
      <trkpt lat="45.90647" lon="6.50469">
        <ele>2318.3999023438</ele>
        <time>2014-02-12T09:35:56.000Z</time>
      </trkpt>
      <trkpt lat="45.90647" lon="6.50469">
        <ele>2318.3999023438</ele>
        <time>2014-02-12T09:35:57.000Z</time>
      </trkpt>
      <trkpt lat="45.90647" lon="6.50469">
        <ele>2318.3999023438</ele>
        <time>2014-02-12T09:35:58.000Z</time>
      </trkpt>
      <trkpt lat="45.90647" lon="6.50469">
        <ele>2318.3999023438</ele>
        <time>2014-02-12T09:35:59.000Z</time>
      </trkpt>
      <trkpt lat="45.90647" lon="6.50469">
        <ele>2318.3999023438</ele>
        <time>2014-02-12T09:36:00.000Z</time>
      </trkpt>
      <trkpt lat="45.90647" lon="6.50469">
        <ele>2318.3999023438</ele>
        <time>2014-02-12T09:36:01.000Z</time>
      </trkpt>
      <trkpt lat="45.90647" lon="6.50469">
        <ele>2318.3999023438</ele>
        <time>2014-02-12T09:36:02.000Z</time>
      </trkpt>
      <trkpt lat="45.90647" lon="6.50469">
        <ele>2318.3999023438</ele>
        <time>2014-02-12T09:36:03.000Z</time>
      </trkpt>
      <trkpt lat="45.90647" lon="6.50468">
        <ele>2318.3999023438</ele>
        <time>2014-02-12T09:36:04.000Z</time>
      </trkpt>
      <trkpt lat="45.90649" lon="6.50467">
        <ele>2318.6000976562</ele>
        <time>2014-02-12T09:36:05.000Z</time>
      </trkpt>
      <trkpt lat="45.9065" lon="6.50466">
        <ele>2318.6000976562</ele>
        <time>2014-02-12T09:36:06.000Z</time>
      </trkpt>
      <trkpt lat="45.90652" lon="6.50465">
        <ele>2319</ele>
        <time>2014-02-12T09:36:07.000Z</time>
      </trkpt>
      <trkpt lat="45.90653" lon="6.50464">
        <ele>2319</ele>
        <time>2014-02-12T09:36:08.000Z</time>
      </trkpt>
      <trkpt lat="45.90654" lon="6.50463">
        <ele>2319.1999511719</ele>
        <time>2014-02-12T09:36:09.000Z</time>
      </trkpt>
      <trkpt lat="45.90654" lon="6.50463">
        <ele>2319.1999511719</ele>
        <time>2014-02-12T09:36:10.000Z</time>
      </trkpt>
      <trkpt lat="45.90654" lon="6.50463">
        <ele>2319.1999511719</ele>
        <time>2014-02-12T09:36:11.000Z</time>
      </trkpt>
      <trkpt lat="45.90654" lon="6.50463">
        <ele>2319.1999511719</ele>
        <time>2014-02-12T09:36:12.000Z</time>
      </trkpt>
      <trkpt lat="45.90654" lon="6.50464">
        <ele>2319.3999023438</ele>
        <time>2014-02-12T09:36:13.000Z</time>
      </trkpt>
      <trkpt lat="45.90655" lon="6.50464">
        <ele>2319.8000488281</ele>
        <time>2014-02-12T09:36:14.000Z</time>
      </trkpt>
      <trkpt lat="45.90656" lon="6.50465">
        <ele>2320.3999023438</ele>
        <time>2014-02-12T09:36:15.000Z</time>
      </trkpt>
      <trkpt lat="45.90656" lon="6.50467">
        <ele>2321.1999511719</ele>
        <time>2014-02-12T09:36:16.000Z</time>
      </trkpt>
      <trkpt lat="45.90658" lon="6.50469">
        <ele>2322.1999511719</ele>
        <time>2014-02-12T09:36:17.000Z</time>
      </trkpt>
      <trkpt lat="45.90659" lon="6.50469">
        <ele>2322.6000976562</ele>
        <time>2014-02-12T09:36:18.000Z</time>
      </trkpt>
      <trkpt lat="45.90659" lon="6.50472">
        <ele>2323.6000976562</ele>
        <time>2014-02-12T09:36:19.000Z</time>
      </trkpt>
      <trkpt lat="45.90659" lon="6.50474">
        <ele>2324.1999511719</ele>
        <time>2014-02-12T09:36:20.000Z</time>
      </trkpt>
      <trkpt lat="45.9066" lon="6.50474">
        <ele>2324.3999023438</ele>
        <time>2014-02-12T09:36:21.000Z</time>
      </trkpt>
      <trkpt lat="45.9066" lon="6.50476">
        <ele>2325</ele>
        <time>2014-02-12T09:36:22.000Z</time>
      </trkpt>
      <trkpt lat="45.90659" lon="6.50477">
        <ele>2325.3999023438</ele>
        <time>2014-02-12T09:36:23.000Z</time>
      </trkpt>
      <trkpt lat="45.90659" lon="6.50478">
        <ele>2325.3999023438</ele>
        <time>2014-02-12T09:36:24.000Z</time>
      </trkpt>
      <trkpt lat="45.90659" lon="6.50479">
        <ele>2325.8000488281</ele>
        <time>2014-02-12T09:36:25.000Z</time>
      </trkpt>
      <trkpt lat="45.90659" lon="6.5048">
        <ele>2326.1999511719</ele>
        <time>2014-02-12T09:36:26.000Z</time>
      </trkpt>
      <trkpt lat="45.90658" lon="6.50481">
        <ele>2326.1999511719</ele>
        <time>2014-02-12T09:36:27.000Z</time>
      </trkpt>
      <trkpt lat="45.90658" lon="6.50481">
        <ele>2326.1999511719</ele>
        <time>2014-02-12T09:36:28.000Z</time>
      </trkpt>
      <trkpt lat="45.90658" lon="6.50482">
        <ele>2326.3999023438</ele>
        <time>2014-02-12T09:36:29.000Z</time>
      </trkpt>
      <trkpt lat="45.90657" lon="6.50484">
        <ele>2326.8000488281</ele>
        <time>2014-02-12T09:36:30.000Z</time>
      </trkpt>
      <trkpt lat="45.90657" lon="6.50485">
        <ele>2327</ele>
        <time>2014-02-12T09:36:31.000Z</time>
      </trkpt>
      <trkpt lat="45.90657" lon="6.50485">
        <ele>2327</ele>
        <time>2014-02-12T09:36:32.000Z</time>
      </trkpt>
      <trkpt lat="45.90656" lon="6.50487">
        <ele>2327.1999511719</ele>
        <time>2014-02-12T09:36:33.000Z</time>
      </trkpt>
      <trkpt lat="45.90656" lon="6.50487">
        <ele>2327.1999511719</ele>
        <time>2014-02-12T09:36:34.000Z</time>
      </trkpt>
      <trkpt lat="45.90656" lon="6.50487">
        <ele>2327.1999511719</ele>
        <time>2014-02-12T09:36:35.000Z</time>
      </trkpt>
      <trkpt lat="45.90656" lon="6.50487">
        <ele>2327.1999511719</ele>
        <time>2014-02-12T09:36:36.000Z</time>
      </trkpt>
      <trkpt lat="45.90656" lon="6.50487">
        <ele>2327.1999511719</ele>
        <time>2014-02-12T09:36:37.000Z</time>
      </trkpt>
      <trkpt lat="45.90656" lon="6.50487">
        <ele>2327.1999511719</ele>
        <time>2014-02-12T09:36:38.000Z</time>
      </trkpt>
      <trkpt lat="45.90657" lon="6.50487">
        <ele>2327.3999023438</ele>
        <time>2014-02-12T09:36:39.000Z</time>
      </trkpt>
      <trkpt lat="45.90659" lon="6.50486">
        <ele>2328</ele>
        <time>2014-02-12T09:36:40.000Z</time>
      </trkpt>
      <trkpt lat="45.9066" lon="6.50486">
        <ele>2328.1999511719</ele>
        <time>2014-02-12T09:36:41.000Z</time>
      </trkpt>
      <trkpt lat="45.9066" lon="6.50486">
        <ele>2328.3999023438</ele>
        <time>2014-02-12T09:36:42.000Z</time>
      </trkpt>
      <trkpt lat="45.90661" lon="6.50486">
        <ele>2328.6000976562</ele>
        <time>2014-02-12T09:36:43.000Z</time>
      </trkpt>
      <trkpt lat="45.90661" lon="6.50486">
        <ele>2328.8000488281</ele>
        <time>2014-02-12T09:36:44.000Z</time>
      </trkpt>
      <trkpt lat="45.90663" lon="6.50486">
        <ele>2329.1999511719</ele>
        <time>2014-02-12T09:36:45.000Z</time>
      </trkpt>
      <trkpt lat="45.90664" lon="6.50486">
        <ele>2329.3999023438</ele>
        <time>2014-02-12T09:36:46.000Z</time>
      </trkpt>
      <trkpt lat="45.90664" lon="6.50486">
        <ele>2329.8000488281</ele>
        <time>2014-02-12T09:36:47.000Z</time>
      </trkpt>
      <trkpt lat="45.90665" lon="6.50486">
        <ele>2330.1999511719</ele>
        <time>2014-02-12T09:36:48.000Z</time>
      </trkpt>
      <trkpt lat="45.90667" lon="6.50486">
        <ele>2330.6000976562</ele>
        <time>2014-02-12T09:36:49.000Z</time>
      </trkpt>
      <trkpt lat="45.90667" lon="6.50486">
        <ele>2330.8000488281</ele>
        <time>2014-02-12T09:36:50.000Z</time>
      </trkpt>
      <trkpt lat="45.90668" lon="6.50486">
        <ele>2331</ele>
        <time>2014-02-12T09:36:51.000Z</time>
      </trkpt>
      <trkpt lat="45.90669" lon="6.50486">
        <ele>2331.1999511719</ele>
        <time>2014-02-12T09:36:52.000Z</time>
      </trkpt>
      <trkpt lat="45.9067" lon="6.50486">
        <ele>2331.6000976562</ele>
        <time>2014-02-12T09:36:53.000Z</time>
      </trkpt>
      <trkpt lat="45.90671" lon="6.50486">
        <ele>2331.8000488281</ele>
        <time>2014-02-12T09:36:54.000Z</time>
      </trkpt>
      <trkpt lat="45.90672" lon="6.50486">
        <ele>2332.1999511719</ele>
        <time>2014-02-12T09:36:55.000Z</time>
      </trkpt>
      <trkpt lat="45.90672" lon="6.50485">
        <ele>2332.1999511719</ele>
        <time>2014-02-12T09:36:56.000Z</time>
      </trkpt>
      <trkpt lat="45.90672" lon="6.50485">
        <ele>2332.1999511719</ele>
        <time>2014-02-12T09:36:57.000Z</time>
      </trkpt>
      <trkpt lat="45.90672" lon="6.50485">
        <ele>2332.1999511719</ele>
        <time>2014-02-12T09:36:58.000Z</time>
      </trkpt>
      <trkpt lat="45.90672" lon="6.50485">
        <ele>2332.1999511719</ele>
        <time>2014-02-12T09:36:59.000Z</time>
      </trkpt>
      <trkpt lat="45.90672" lon="6.50485">
        <ele>2332.1999511719</ele>
        <time>2014-02-12T09:37:00.000Z</time>
      </trkpt>
      <trkpt lat="45.90672" lon="6.50485">
        <ele>2332.1999511719</ele>
        <time>2014-02-12T09:37:01.000Z</time>
      </trkpt>
      <trkpt lat="45.90672" lon="6.50485">
        <ele>2332.1999511719</ele>
        <time>2014-02-12T09:37:02.000Z</time>
      </trkpt>
      <trkpt lat="45.90672" lon="6.50485">
        <ele>2332.1999511719</ele>
        <time>2014-02-12T09:37:03.000Z</time>
      </trkpt>
      <trkpt lat="45.90672" lon="6.50485">
        <ele>2332.1999511719</ele>
        <time>2014-02-12T09:37:04.000Z</time>
      </trkpt>
      <trkpt lat="45.90672" lon="6.50487">
        <ele>2332.6000976562</ele>
        <time>2014-02-12T09:37:05.000Z</time>
      </trkpt>
      <trkpt lat="45.90673" lon="6.50487">
        <ele>2333</ele>
        <time>2014-02-12T09:37:06.000Z</time>
      </trkpt>
      <trkpt lat="45.90674" lon="6.50489">
        <ele>2333.8000488281</ele>
        <time>2014-02-12T09:37:07.000Z</time>
      </trkpt>
      <trkpt lat="45.90674" lon="6.5049">
        <ele>2334.1999511719</ele>
        <time>2014-02-12T09:37:08.000Z</time>
      </trkpt>
      <trkpt lat="45.90674" lon="6.50492">
        <ele>2334.6000976562</ele>
        <time>2014-02-12T09:37:09.000Z</time>
      </trkpt>
      <trkpt lat="45.90674" lon="6.50493">
        <ele>2334.8000488281</ele>
        <time>2014-02-12T09:37:10.000Z</time>
      </trkpt>
      <trkpt lat="45.90674" lon="6.50495">
        <ele>2335.1999511719</ele>
        <time>2014-02-12T09:37:11.000Z</time>
      </trkpt>
      <trkpt lat="45.90674" lon="6.50497">
        <ele>2335.6000976562</ele>
        <time>2014-02-12T09:37:12.000Z</time>
      </trkpt>
      <trkpt lat="45.90674" lon="6.50497">
        <ele>2335.8000488281</ele>
        <time>2014-02-12T09:37:13.000Z</time>
      </trkpt>
      <trkpt lat="45.90673" lon="6.50498">
        <ele>2336</ele>
        <time>2014-02-12T09:37:14.000Z</time>
      </trkpt>
      <trkpt lat="45.90673" lon="6.505">
        <ele>2336.1999511719</ele>
        <time>2014-02-12T09:37:15.000Z</time>
      </trkpt>
      <trkpt lat="45.90673" lon="6.50501">
        <ele>2336.3999023438</ele>
        <time>2014-02-12T09:37:16.000Z</time>
      </trkpt>
      <trkpt lat="45.90673" lon="6.50501">
        <ele>2336.6000976562</ele>
        <time>2014-02-12T09:37:17.000Z</time>
      </trkpt>
      <trkpt lat="45.90672" lon="6.50503">
        <ele>2336.6000976562</ele>
        <time>2014-02-12T09:37:18.000Z</time>
      </trkpt>
      <trkpt lat="45.90671" lon="6.50504">
        <ele>2336.8000488281</ele>
        <time>2014-02-12T09:37:19.000Z</time>
      </trkpt>
      <trkpt lat="45.90671" lon="6.50504">
        <ele>2337</ele>
        <time>2014-02-12T09:37:20.000Z</time>
      </trkpt>
      <trkpt lat="45.90671" lon="6.50505">
        <ele>2337</ele>
        <time>2014-02-12T09:37:21.000Z</time>
      </trkpt>
      <trkpt lat="45.9067" lon="6.50507">
        <ele>2337.1999511719</ele>
        <time>2014-02-12T09:37:22.000Z</time>
      </trkpt>
      <trkpt lat="45.90669" lon="6.50508">
        <ele>2337.3999023438</ele>
        <time>2014-02-12T09:37:23.000Z</time>
      </trkpt>
      <trkpt lat="45.9067" lon="6.50508">
        <ele>2337.3999023438</ele>
        <time>2014-02-12T09:37:24.000Z</time>
      </trkpt>
      <trkpt lat="45.90669" lon="6.50509">
        <ele>2337.6000976562</ele>
        <time>2014-02-12T09:37:25.000Z</time>
      </trkpt>
      <trkpt lat="45.90669" lon="6.5051">
        <ele>2337.8000488281</ele>
        <time>2014-02-12T09:37:26.000Z</time>
      </trkpt>
      <trkpt lat="45.90669" lon="6.5051">
        <ele>2337.8000488281</ele>
        <time>2014-02-12T09:37:27.000Z</time>
      </trkpt>
      <trkpt lat="45.90669" lon="6.5051">
        <ele>2337.8000488281</ele>
        <time>2014-02-12T09:37:28.000Z</time>
      </trkpt>
      <trkpt lat="45.90669" lon="6.5051">
        <ele>2337.8000488281</ele>
        <time>2014-02-12T09:37:29.000Z</time>
      </trkpt>
      <trkpt lat="45.90669" lon="6.5051">
        <ele>2337.8000488281</ele>
        <time>2014-02-12T09:37:30.000Z</time>
      </trkpt>
      <trkpt lat="45.90669" lon="6.5051">
        <ele>2337.8000488281</ele>
        <time>2014-02-12T09:37:31.000Z</time>
      </trkpt>
      <trkpt lat="45.90669" lon="6.5051">
        <ele>2337.8000488281</ele>
        <time>2014-02-12T09:37:32.000Z</time>
      </trkpt>
      <trkpt lat="45.90669" lon="6.5051">
        <ele>2337.8000488281</ele>
        <time>2014-02-12T09:37:33.000Z</time>
      </trkpt>
      <trkpt lat="45.90669" lon="6.5051">
        <ele>2337.8000488281</ele>
        <time>2014-02-12T09:37:34.000Z</time>
      </trkpt>
      <trkpt lat="45.90669" lon="6.5051">
        <ele>2337.8000488281</ele>
        <time>2014-02-12T09:37:35.000Z</time>
      </trkpt>
      <trkpt lat="45.90669" lon="6.5051">
        <ele>2337.8000488281</ele>
        <time>2014-02-12T09:37:36.000Z</time>
      </trkpt>
      <trkpt lat="45.90669" lon="6.5051">
        <ele>2337.8000488281</ele>
        <time>2014-02-12T09:37:37.000Z</time>
      </trkpt>
      <trkpt lat="45.90669" lon="6.5051">
        <ele>2337.8000488281</ele>
        <time>2014-02-12T09:37:38.000Z</time>
      </trkpt>
      <trkpt lat="45.90669" lon="6.5051">
        <ele>2337.8000488281</ele>
        <time>2014-02-12T09:37:39.000Z</time>
      </trkpt>
      <trkpt lat="45.90669" lon="6.5051">
        <ele>2337.8000488281</ele>
        <time>2014-02-12T09:37:40.000Z</time>
      </trkpt>
      <trkpt lat="45.90669" lon="6.5051">
        <ele>2337.8000488281</ele>
        <time>2014-02-12T09:37:41.000Z</time>
      </trkpt>
      <trkpt lat="45.90669" lon="6.5051">
        <ele>2337.8000488281</ele>
        <time>2014-02-12T09:37:42.000Z</time>
      </trkpt>
      <trkpt lat="45.90669" lon="6.5051">
        <ele>2337.8000488281</ele>
        <time>2014-02-12T09:37:43.000Z</time>
      </trkpt>
      <trkpt lat="45.90669" lon="6.5051">
        <ele>2337.8000488281</ele>
        <time>2014-02-12T09:37:44.000Z</time>
      </trkpt>
      <trkpt lat="45.90669" lon="6.5051">
        <ele>2337.8000488281</ele>
        <time>2014-02-12T09:37:45.000Z</time>
      </trkpt>
      <trkpt lat="45.90669" lon="6.5051">
        <ele>2337.8000488281</ele>
        <time>2014-02-12T09:37:46.000Z</time>
      </trkpt>
      <trkpt lat="45.90669" lon="6.5051">
        <ele>2337.8000488281</ele>
        <time>2014-02-12T09:37:47.000Z</time>
      </trkpt>
      <trkpt lat="45.90669" lon="6.5051">
        <ele>2337.8000488281</ele>
        <time>2014-02-12T09:37:48.000Z</time>
      </trkpt>
      <trkpt lat="45.90669" lon="6.5051">
        <ele>2337.8000488281</ele>
        <time>2014-02-12T09:37:49.000Z</time>
      </trkpt>
      <trkpt lat="45.90669" lon="6.5051">
        <ele>2337.8000488281</ele>
        <time>2014-02-12T09:37:50.000Z</time>
      </trkpt>
      <trkpt lat="45.90669" lon="6.5051">
        <ele>2337.8000488281</ele>
        <time>2014-02-12T09:37:51.000Z</time>
      </trkpt>
      <trkpt lat="45.90669" lon="6.5051">
        <ele>2337.8000488281</ele>
        <time>2014-02-12T09:37:52.000Z</time>
      </trkpt>
      <trkpt lat="45.90669" lon="6.5051">
        <ele>2337.8000488281</ele>
        <time>2014-02-12T09:37:53.000Z</time>
      </trkpt>
      <trkpt lat="45.90669" lon="6.5051">
        <ele>2337.8000488281</ele>
        <time>2014-02-12T09:37:54.000Z</time>
      </trkpt>
      <trkpt lat="45.90669" lon="6.5051">
        <ele>2337.8000488281</ele>
        <time>2014-02-12T09:37:55.000Z</time>
      </trkpt>
      <trkpt lat="45.90669" lon="6.5051">
        <ele>2337.8000488281</ele>
        <time>2014-02-12T09:37:56.000Z</time>
      </trkpt>
      <trkpt lat="45.90669" lon="6.5051">
        <ele>2337.8000488281</ele>
        <time>2014-02-12T09:37:57.000Z</time>
      </trkpt>
      <trkpt lat="45.90669" lon="6.5051">
        <ele>2337.8000488281</ele>
        <time>2014-02-12T09:37:58.000Z</time>
      </trkpt>
      <trkpt lat="45.90669" lon="6.50511">
        <ele>2338</ele>
        <time>2014-02-12T09:37:59.000Z</time>
      </trkpt>
      <trkpt lat="45.9067" lon="6.50512">
        <ele>2338.6000976562</ele>
        <time>2014-02-12T09:38:00.000Z</time>
      </trkpt>
      <trkpt lat="45.9067" lon="6.50514">
        <ele>2339.1999511719</ele>
        <time>2014-02-12T09:38:01.000Z</time>
      </trkpt>
      <trkpt lat="45.90671" lon="6.50515">
        <ele>2339.8000488281</ele>
        <time>2014-02-12T09:38:02.000Z</time>
      </trkpt>
      <trkpt lat="45.90672" lon="6.50517">
        <ele>2340.3999023438</ele>
        <time>2014-02-12T09:38:03.000Z</time>
      </trkpt>
      <trkpt lat="45.90672" lon="6.50518">
        <ele>2341</ele>
        <time>2014-02-12T09:38:04.000Z</time>
      </trkpt>
      <trkpt lat="45.90672" lon="6.50519">
        <ele>2341.6000976562</ele>
        <time>2014-02-12T09:38:05.000Z</time>
      </trkpt>
      <trkpt lat="45.90673" lon="6.50522">
        <ele>2342.3999023438</ele>
        <time>2014-02-12T09:38:06.000Z</time>
      </trkpt>
      <trkpt lat="45.90673" lon="6.50522">
        <ele>2342.6000976562</ele>
        <time>2014-02-12T09:38:07.000Z</time>
      </trkpt>
      <trkpt lat="45.90673" lon="6.50524">
        <ele>2343.1999511719</ele>
        <time>2014-02-12T09:38:08.000Z</time>
      </trkpt>
      <trkpt lat="45.90673" lon="6.50526">
        <ele>2343.8000488281</ele>
        <time>2014-02-12T09:38:09.000Z</time>
      </trkpt>
      <trkpt lat="45.90674" lon="6.50526">
        <ele>2344</ele>
        <time>2014-02-12T09:38:10.000Z</time>
      </trkpt>
      <trkpt lat="45.90674" lon="6.50527">
        <ele>2344.3999023438</ele>
        <time>2014-02-12T09:38:11.000Z</time>
      </trkpt>
      <trkpt lat="45.90674" lon="6.50528">
        <ele>2345</ele>
        <time>2014-02-12T09:38:12.000Z</time>
      </trkpt>
      <trkpt lat="45.90674" lon="6.50529">
        <ele>2345.1999511719</ele>
        <time>2014-02-12T09:38:13.000Z</time>
      </trkpt>
      <trkpt lat="45.90674" lon="6.5053">
        <ele>2345.3999023438</ele>
        <time>2014-02-12T09:38:14.000Z</time>
      </trkpt>
      <trkpt lat="45.90674" lon="6.5053">
        <ele>2345.3999023438</ele>
        <time>2014-02-12T09:38:15.000Z</time>
      </trkpt>
      <trkpt lat="45.90674" lon="6.5053">
        <ele>2345.3999023438</ele>
        <time>2014-02-12T09:38:16.000Z</time>
      </trkpt>
      <trkpt lat="45.90674" lon="6.5053">
        <ele>2345.3999023438</ele>
        <time>2014-02-12T09:38:17.000Z</time>
      </trkpt>
      <trkpt lat="45.90674" lon="6.5053">
        <ele>2345.3999023438</ele>
        <time>2014-02-12T09:38:18.000Z</time>
      </trkpt>
      <trkpt lat="45.90674" lon="6.5053">
        <ele>2345.3999023438</ele>
        <time>2014-02-12T09:38:19.000Z</time>
      </trkpt>
      <trkpt lat="45.90674" lon="6.5053">
        <ele>2345.3999023438</ele>
        <time>2014-02-12T09:38:20.000Z</time>
      </trkpt>
      <trkpt lat="45.90674" lon="6.5053">
        <ele>2345.3999023438</ele>
        <time>2014-02-12T09:38:21.000Z</time>
      </trkpt>
      <trkpt lat="45.90674" lon="6.5053">
        <ele>2345.3999023438</ele>
        <time>2014-02-12T09:38:22.000Z</time>
      </trkpt>
      <trkpt lat="45.90674" lon="6.5053">
        <ele>2345.3999023438</ele>
        <time>2014-02-12T09:38:23.000Z</time>
      </trkpt>
      <trkpt lat="45.90674" lon="6.5053">
        <ele>2345.3999023438</ele>
        <time>2014-02-12T09:38:24.000Z</time>
      </trkpt>
      <trkpt lat="45.90674" lon="6.5053">
        <ele>2345.3999023438</ele>
        <time>2014-02-12T09:38:25.000Z</time>
      </trkpt>
      <trkpt lat="45.90674" lon="6.5053">
        <ele>2345.3999023438</ele>
        <time>2014-02-12T09:38:26.000Z</time>
      </trkpt>
      <trkpt lat="45.90674" lon="6.5053">
        <ele>2345.3999023438</ele>
        <time>2014-02-12T09:38:27.000Z</time>
      </trkpt>
      <trkpt lat="45.90674" lon="6.5053">
        <ele>2345.3999023438</ele>
        <time>2014-02-12T09:38:28.000Z</time>
      </trkpt>
      <trkpt lat="45.90674" lon="6.5053">
        <ele>2345.3999023438</ele>
        <time>2014-02-12T09:38:29.000Z</time>
      </trkpt>
      <trkpt lat="45.90674" lon="6.5053">
        <ele>2345.3999023438</ele>
        <time>2014-02-12T09:38:30.000Z</time>
      </trkpt>
      <trkpt lat="45.90674" lon="6.5053">
        <ele>2345.3999023438</ele>
        <time>2014-02-12T09:38:31.000Z</time>
      </trkpt>
      <trkpt lat="45.90674" lon="6.5053">
        <ele>2345.3999023438</ele>
        <time>2014-02-12T09:38:32.000Z</time>
      </trkpt>
      <trkpt lat="45.90674" lon="6.5053">
        <ele>2345.3999023438</ele>
        <time>2014-02-12T09:38:33.000Z</time>
      </trkpt>
      <trkpt lat="45.90676" lon="6.50528">
        <ele>2345.3999023438</ele>
        <time>2014-02-12T09:38:34.000Z</time>
      </trkpt>
      <trkpt lat="45.90677" lon="6.50528">
        <ele>2345.6000976562</ele>
        <time>2014-02-12T09:38:35.000Z</time>
      </trkpt>
      <trkpt lat="45.90677" lon="6.50528">
        <ele>2345.6000976562</ele>
        <time>2014-02-12T09:38:36.000Z</time>
      </trkpt>
      <trkpt lat="45.90677" lon="6.50528">
        <ele>2345.6000976562</ele>
        <time>2014-02-12T09:38:37.000Z</time>
      </trkpt>
      <trkpt lat="45.90678" lon="6.50527">
        <ele>2345.6000976562</ele>
        <time>2014-02-12T09:38:38.000Z</time>
      </trkpt>
      <trkpt lat="45.90679" lon="6.50527">
        <ele>2345.8000488281</ele>
        <time>2014-02-12T09:38:39.000Z</time>
      </trkpt>
      <trkpt lat="45.90679" lon="6.50527">
        <ele>2345.8000488281</ele>
        <time>2014-02-12T09:38:40.000Z</time>
      </trkpt>
      <trkpt lat="45.9068" lon="6.50527">
        <ele>2346</ele>
        <time>2014-02-12T09:38:41.000Z</time>
      </trkpt>
      <trkpt lat="45.9068" lon="6.50527">
        <ele>2346</ele>
        <time>2014-02-12T09:38:42.000Z</time>
      </trkpt>
      <trkpt lat="45.9068" lon="6.50527">
        <ele>2346</ele>
        <time>2014-02-12T09:38:43.000Z</time>
      </trkpt>
      <trkpt lat="45.9068" lon="6.50527">
        <ele>2346</ele>
        <time>2014-02-12T09:38:44.000Z</time>
      </trkpt>
      <trkpt lat="45.9068" lon="6.50527">
        <ele>2346</ele>
        <time>2014-02-12T09:38:45.000Z</time>
      </trkpt>
      <trkpt lat="45.9068" lon="6.50527">
        <ele>2346</ele>
        <time>2014-02-12T09:38:46.000Z</time>
      </trkpt>
      <trkpt lat="45.9068" lon="6.50528">
        <ele>2346.3999023438</ele>
        <time>2014-02-12T09:38:47.000Z</time>
      </trkpt>
      <trkpt lat="45.90681" lon="6.50528">
        <ele>2346.8000488281</ele>
        <time>2014-02-12T09:38:48.000Z</time>
      </trkpt>
      <trkpt lat="45.90681" lon="6.5053">
        <ele>2347.3999023438</ele>
        <time>2014-02-12T09:38:49.000Z</time>
      </trkpt>
      <trkpt lat="45.90681" lon="6.50532">
        <ele>2348.1999511719</ele>
        <time>2014-02-12T09:38:50.000Z</time>
      </trkpt>
      <trkpt lat="45.90682" lon="6.50534">
        <ele>2348.8000488281</ele>
        <time>2014-02-12T09:38:51.000Z</time>
      </trkpt>
      <trkpt lat="45.90682" lon="6.50534">
        <ele>2349.1999511719</ele>
        <time>2014-02-12T09:38:52.000Z</time>
      </trkpt>
      <trkpt lat="45.90683" lon="6.50536">
        <ele>2350</ele>
        <time>2014-02-12T09:38:53.000Z</time>
      </trkpt>
      <trkpt lat="45.90684" lon="6.50538">
        <ele>2350.8000488281</ele>
        <time>2014-02-12T09:38:54.000Z</time>
      </trkpt>
      <trkpt lat="45.90684" lon="6.50539">
        <ele>2351.1999511719</ele>
        <time>2014-02-12T09:38:55.000Z</time>
      </trkpt>
      <trkpt lat="45.90685" lon="6.5054">
        <ele>2351.6000976562</ele>
        <time>2014-02-12T09:38:56.000Z</time>
      </trkpt>
      <trkpt lat="45.90685" lon="6.50542">
        <ele>2352.6000976562</ele>
        <time>2014-02-12T09:38:57.000Z</time>
      </trkpt>
      <trkpt lat="45.90686" lon="6.50543">
        <ele>2353.1999511719</ele>
        <time>2014-02-12T09:38:58.000Z</time>
      </trkpt>
      <trkpt lat="45.90686" lon="6.50544">
        <ele>2353.3999023438</ele>
        <time>2014-02-12T09:38:59.000Z</time>
      </trkpt>
      <trkpt lat="45.90687" lon="6.50545">
        <ele>2353.8000488281</ele>
        <time>2014-02-12T09:39:00.000Z</time>
      </trkpt>
      <trkpt lat="45.90687" lon="6.50546">
        <ele>2354.3999023438</ele>
        <time>2014-02-12T09:39:01.000Z</time>
      </trkpt>
      <trkpt lat="45.90688" lon="6.50547">
        <ele>2354.8000488281</ele>
        <time>2014-02-12T09:39:02.000Z</time>
      </trkpt>
      <trkpt lat="45.90688" lon="6.50547">
        <ele>2354.8000488281</ele>
        <time>2014-02-12T09:39:03.000Z</time>
      </trkpt>
      <trkpt lat="45.90688" lon="6.50548">
        <ele>2355.1999511719</ele>
        <time>2014-02-12T09:39:04.000Z</time>
      </trkpt>
      <trkpt lat="45.90689" lon="6.50548">
        <ele>2355.3999023438</ele>
        <time>2014-02-12T09:39:05.000Z</time>
      </trkpt>
      <trkpt lat="45.90689" lon="6.50549">
        <ele>2355.8000488281</ele>
        <time>2014-02-12T09:39:06.000Z</time>
      </trkpt>
      <trkpt lat="45.90689" lon="6.50549">
        <ele>2355.8000488281</ele>
        <time>2014-02-12T09:39:07.000Z</time>
      </trkpt>
      <trkpt lat="45.90689" lon="6.50549">
        <ele>2355.8000488281</ele>
        <time>2014-02-12T09:39:08.000Z</time>
      </trkpt>
      <trkpt lat="45.90689" lon="6.50549">
        <ele>2355.8000488281</ele>
        <time>2014-02-12T09:39:09.000Z</time>
      </trkpt>
      <trkpt lat="45.90689" lon="6.50549">
        <ele>2355.8000488281</ele>
        <time>2014-02-12T09:39:10.000Z</time>
      </trkpt>
      <trkpt lat="45.90689" lon="6.50549">
        <ele>2355.8000488281</ele>
        <time>2014-02-12T09:39:11.000Z</time>
      </trkpt>
      <trkpt lat="45.90689" lon="6.50549">
        <ele>2355.8000488281</ele>
        <time>2014-02-12T09:39:12.000Z</time>
      </trkpt>
      <trkpt lat="45.90689" lon="6.50549">
        <ele>2355.8000488281</ele>
        <time>2014-02-12T09:39:13.000Z</time>
      </trkpt>
      <trkpt lat="45.90689" lon="6.50549">
        <ele>2355.8000488281</ele>
        <time>2014-02-12T09:39:14.000Z</time>
      </trkpt>
      <trkpt lat="45.90689" lon="6.50549">
        <ele>2355.8000488281</ele>
        <time>2014-02-12T09:39:15.000Z</time>
      </trkpt>
      <trkpt lat="45.90689" lon="6.50549">
        <ele>2355.8000488281</ele>
        <time>2014-02-12T09:39:16.000Z</time>
      </trkpt>
      <trkpt lat="45.90689" lon="6.50549">
        <ele>2355.8000488281</ele>
        <time>2014-02-12T09:39:17.000Z</time>
      </trkpt>
      <trkpt lat="45.90689" lon="6.50549">
        <ele>2355.8000488281</ele>
        <time>2014-02-12T09:39:18.000Z</time>
      </trkpt>
      <trkpt lat="45.90689" lon="6.50549">
        <ele>2355.8000488281</ele>
        <time>2014-02-12T09:39:19.000Z</time>
      </trkpt>
      <trkpt lat="45.90689" lon="6.50549">
        <ele>2355.8000488281</ele>
        <time>2014-02-12T09:39:20.000Z</time>
      </trkpt>
      <trkpt lat="45.90689" lon="6.50549">
        <ele>2355.8000488281</ele>
        <time>2014-02-12T09:39:21.000Z</time>
      </trkpt>
      <trkpt lat="45.90689" lon="6.50549">
        <ele>2355.8000488281</ele>
        <time>2014-02-12T09:39:22.000Z</time>
      </trkpt>
      <trkpt lat="45.90689" lon="6.50549">
        <ele>2355.8000488281</ele>
        <time>2014-02-12T09:39:23.000Z</time>
      </trkpt>
      <trkpt lat="45.90689" lon="6.50549">
        <ele>2355.8000488281</ele>
        <time>2014-02-12T09:39:24.000Z</time>
      </trkpt>
      <trkpt lat="45.90689" lon="6.50549">
        <ele>2355.8000488281</ele>
        <time>2014-02-12T09:39:25.000Z</time>
      </trkpt>
      <trkpt lat="45.90689" lon="6.50549">
        <ele>2355.8000488281</ele>
        <time>2014-02-12T09:39:26.000Z</time>
      </trkpt>
      <trkpt lat="45.90689" lon="6.50549">
        <ele>2355.8000488281</ele>
        <time>2014-02-12T09:39:27.000Z</time>
      </trkpt>
      <trkpt lat="45.90689" lon="6.50549">
        <ele>2355.8000488281</ele>
        <time>2014-02-12T09:39:28.000Z</time>
      </trkpt>
      <trkpt lat="45.90689" lon="6.50549">
        <ele>2355.8000488281</ele>
        <time>2014-02-12T09:39:29.000Z</time>
      </trkpt>
      <trkpt lat="45.90689" lon="6.50549">
        <ele>2355.8000488281</ele>
        <time>2014-02-12T09:39:30.000Z</time>
      </trkpt>
      <trkpt lat="45.90689" lon="6.50549">
        <ele>2355.8000488281</ele>
        <time>2014-02-12T09:39:31.000Z</time>
      </trkpt>
      <trkpt lat="45.90689" lon="6.50549">
        <ele>2355.8000488281</ele>
        <time>2014-02-12T09:39:32.000Z</time>
      </trkpt>
      <trkpt lat="45.90689" lon="6.50549">
        <ele>2355.8000488281</ele>
        <time>2014-02-12T09:39:33.000Z</time>
      </trkpt>
      <trkpt lat="45.90689" lon="6.50549">
        <ele>2355.8000488281</ele>
        <time>2014-02-12T09:39:34.000Z</time>
      </trkpt>
      <trkpt lat="45.90689" lon="6.50549">
        <ele>2355.8000488281</ele>
        <time>2014-02-12T09:39:35.000Z</time>
      </trkpt>
      <trkpt lat="45.90689" lon="6.50549">
        <ele>2355.8000488281</ele>
        <time>2014-02-12T09:39:36.000Z</time>
      </trkpt>
      <trkpt lat="45.90689" lon="6.50549">
        <ele>2355.8000488281</ele>
        <time>2014-02-12T09:39:37.000Z</time>
      </trkpt>
      <trkpt lat="45.90689" lon="6.50549">
        <ele>2355.8000488281</ele>
        <time>2014-02-12T09:39:38.000Z</time>
      </trkpt>
      <trkpt lat="45.90689" lon="6.50549">
        <ele>2355.8000488281</ele>
        <time>2014-02-12T09:39:39.000Z</time>
      </trkpt>
      <trkpt lat="45.90689" lon="6.50549">
        <ele>2355.8000488281</ele>
        <time>2014-02-12T09:39:40.000Z</time>
      </trkpt>
      <trkpt lat="45.90689" lon="6.50549">
        <ele>2355.8000488281</ele>
        <time>2014-02-12T09:39:41.000Z</time>
      </trkpt>
      <trkpt lat="45.90689" lon="6.50549">
        <ele>2355.8000488281</ele>
        <time>2014-02-12T09:39:42.000Z</time>
      </trkpt>
      <trkpt lat="45.90689" lon="6.50549">
        <ele>2355.8000488281</ele>
        <time>2014-02-12T09:39:43.000Z</time>
      </trkpt>
      <trkpt lat="45.90689" lon="6.50549">
        <ele>2355.8000488281</ele>
        <time>2014-02-12T09:39:44.000Z</time>
      </trkpt>
      <trkpt lat="45.90689" lon="6.50549">
        <ele>2355.8000488281</ele>
        <time>2014-02-12T09:39:45.000Z</time>
      </trkpt>
      <trkpt lat="45.9069" lon="6.50549">
        <ele>2356.1999511719</ele>
        <time>2014-02-12T09:39:46.000Z</time>
      </trkpt>
      <trkpt lat="45.9069" lon="6.50549">
        <ele>2356.1999511719</ele>
        <time>2014-02-12T09:39:47.000Z</time>
      </trkpt>
      <trkpt lat="45.9069" lon="6.50549">
        <ele>2356.1999511719</ele>
        <time>2014-02-12T09:39:48.000Z</time>
      </trkpt>
      <trkpt lat="45.9069" lon="6.50549">
        <ele>2356.1999511719</ele>
        <time>2014-02-12T09:39:49.000Z</time>
      </trkpt>
      <trkpt lat="45.9069" lon="6.50549">
        <ele>2356.1999511719</ele>
        <time>2014-02-12T09:39:50.000Z</time>
      </trkpt>
      <trkpt lat="45.9069" lon="6.50549">
        <ele>2356.1999511719</ele>
        <time>2014-02-12T09:39:51.000Z</time>
      </trkpt>
      <trkpt lat="45.9069" lon="6.50549">
        <ele>2356.1999511719</ele>
        <time>2014-02-12T09:39:52.000Z</time>
      </trkpt>
      <trkpt lat="45.9069" lon="6.50549">
        <ele>2356.1999511719</ele>
        <time>2014-02-12T09:39:53.000Z</time>
      </trkpt>
      <trkpt lat="45.9069" lon="6.50549">
        <ele>2356.1999511719</ele>
        <time>2014-02-12T09:39:54.000Z</time>
      </trkpt>
      <trkpt lat="45.9069" lon="6.50549">
        <ele>2356.1999511719</ele>
        <time>2014-02-12T09:39:55.000Z</time>
      </trkpt>
      <trkpt lat="45.9069" lon="6.50549">
        <ele>2356.1999511719</ele>
        <time>2014-02-12T09:39:56.000Z</time>
      </trkpt>
      <trkpt lat="45.90691" lon="6.50552">
        <ele>2357.1999511719</ele>
        <time>2014-02-12T09:39:58.000Z</time>
      </trkpt>
      <trkpt lat="45.90692" lon="6.50554">
        <ele>2358</ele>
        <time>2014-02-12T09:39:59.000Z</time>
      </trkpt>
      <trkpt lat="45.90692" lon="6.50557">
        <ele>2359.3999023438</ele>
        <time>2014-02-12T09:40:00.000Z</time>
      </trkpt>
      <trkpt lat="45.90693" lon="6.50559">
        <ele>2360.3999023438</ele>
        <time>2014-02-12T09:40:01.000Z</time>
      </trkpt>
      <trkpt lat="45.90694" lon="6.5056">
        <ele>2361</ele>
        <time>2014-02-12T09:40:02.000Z</time>
      </trkpt>
      <trkpt lat="45.90694" lon="6.50562">
        <ele>2361.6000976562</ele>
        <time>2014-02-12T09:40:03.000Z</time>
      </trkpt>
      <trkpt lat="45.90695" lon="6.50565">
        <ele>2362.8000488281</ele>
        <time>2014-02-12T09:40:04.000Z</time>
      </trkpt>
      <trkpt lat="45.90695" lon="6.50566">
        <ele>2363.1999511719</ele>
        <time>2014-02-12T09:40:05.000Z</time>
      </trkpt>
      <trkpt lat="45.90695" lon="6.50566">
        <ele>2363.1999511719</ele>
        <time>2014-02-12T09:40:06.000Z</time>
      </trkpt>
      <trkpt lat="45.90695" lon="6.50566">
        <ele>2363.1999511719</ele>
        <time>2014-02-12T09:40:07.000Z</time>
      </trkpt>
      <trkpt lat="45.90695" lon="6.50566">
        <ele>2363.1999511719</ele>
        <time>2014-02-12T09:40:08.000Z</time>
      </trkpt>
      <trkpt lat="45.90695" lon="6.50566">
        <ele>2363.1999511719</ele>
        <time>2014-02-12T09:40:09.000Z</time>
      </trkpt>
      <trkpt lat="45.90695" lon="6.50566">
        <ele>2363.1999511719</ele>
        <time>2014-02-12T09:40:10.000Z</time>
      </trkpt>
      <trkpt lat="45.90695" lon="6.50566">
        <ele>2363.1999511719</ele>
        <time>2014-02-12T09:40:11.000Z</time>
      </trkpt>
      <trkpt lat="45.90695" lon="6.50566">
        <ele>2363.1999511719</ele>
        <time>2014-02-12T09:40:12.000Z</time>
      </trkpt>
      <trkpt lat="45.90695" lon="6.50566">
        <ele>2363.1999511719</ele>
        <time>2014-02-12T09:40:14.000Z</time>
      </trkpt>
      <trkpt lat="45.90695" lon="6.50566">
        <ele>2363.1999511719</ele>
        <time>2014-02-12T09:40:15.000Z</time>
      </trkpt>
      <trkpt lat="45.90695" lon="6.50566">
        <ele>2363.1999511719</ele>
        <time>2014-02-12T09:40:16.000Z</time>
      </trkpt>
      <trkpt lat="45.90695" lon="6.50566">
        <ele>2363.1999511719</ele>
        <time>2014-02-12T09:40:17.000Z</time>
      </trkpt>
      <trkpt lat="45.90695" lon="6.50566">
        <ele>2363.1999511719</ele>
        <time>2014-02-12T09:40:18.000Z</time>
      </trkpt>
      <trkpt lat="45.90695" lon="6.50566">
        <ele>2363.1999511719</ele>
        <time>2014-02-12T09:40:19.000Z</time>
      </trkpt>
      <trkpt lat="45.90695" lon="6.50566">
        <ele>2363.1999511719</ele>
        <time>2014-02-12T09:40:20.000Z</time>
      </trkpt>
      <trkpt lat="45.90695" lon="6.50566">
        <ele>2363.1999511719</ele>
        <time>2014-02-12T09:40:21.000Z</time>
      </trkpt>
      <trkpt lat="45.90695" lon="6.50566">
        <ele>2363.1999511719</ele>
        <time>2014-02-12T09:40:22.000Z</time>
      </trkpt>
      <trkpt lat="45.90695" lon="6.50566">
        <ele>2363.1999511719</ele>
        <time>2014-02-12T09:40:24.000Z</time>
      </trkpt>
      <trkpt lat="45.90695" lon="6.50566">
        <ele>2363.3999023438</ele>
        <time>2014-02-12T09:40:25.000Z</time>
      </trkpt>
      <trkpt lat="45.90696" lon="6.50567">
        <ele>2363.8000488281</ele>
        <time>2014-02-12T09:40:26.000Z</time>
      </trkpt>
      <trkpt lat="45.90696" lon="6.50568">
        <ele>2364.1999511719</ele>
        <time>2014-02-12T09:40:27.000Z</time>
      </trkpt>
      <trkpt lat="45.90697" lon="6.50571">
        <ele>2365</ele>
        <time>2014-02-12T09:40:28.000Z</time>
      </trkpt>
      <trkpt lat="45.90698" lon="6.50572">
        <ele>2365.1999511719</ele>
        <time>2014-02-12T09:40:29.000Z</time>
      </trkpt>
      <trkpt lat="45.90698" lon="6.50573">
        <ele>2365.6000976562</ele>
        <time>2014-02-12T09:40:30.000Z</time>
      </trkpt>
      <trkpt lat="45.90699" lon="6.50574">
        <ele>2366.1999511719</ele>
        <time>2014-02-12T09:40:31.000Z</time>
      </trkpt>
      <trkpt lat="45.90699" lon="6.50576">
        <ele>2366.6000976562</ele>
        <time>2014-02-12T09:40:32.000Z</time>
      </trkpt>
      <trkpt lat="45.90699" lon="6.50576">
        <ele>2366.6000976562</ele>
        <time>2014-02-12T09:40:33.000Z</time>
      </trkpt>
      <trkpt lat="45.90699" lon="6.50576">
        <ele>2366.6000976562</ele>
        <time>2014-02-12T09:40:34.000Z</time>
      </trkpt>
      <trkpt lat="45.90699" lon="6.50576">
        <ele>2366.6000976562</ele>
        <time>2014-02-12T09:40:35.000Z</time>
      </trkpt>
      <trkpt lat="45.90699" lon="6.50576">
        <ele>2366.6000976562</ele>
        <time>2014-02-12T09:40:36.000Z</time>
      </trkpt>
      <trkpt lat="45.90699" lon="6.50576">
        <ele>2366.6000976562</ele>
        <time>2014-02-12T09:40:37.000Z</time>
      </trkpt>
      <trkpt lat="45.90699" lon="6.50576">
        <ele>2366.6000976562</ele>
        <time>2014-02-12T09:40:38.000Z</time>
      </trkpt>
      <trkpt lat="45.90699" lon="6.50576">
        <ele>2366.6000976562</ele>
        <time>2014-02-12T09:40:39.000Z</time>
      </trkpt>
      <trkpt lat="45.90699" lon="6.50576">
        <ele>2366.6000976562</ele>
        <time>2014-02-12T09:40:40.000Z</time>
      </trkpt>
      <trkpt lat="45.90699" lon="6.50576">
        <ele>2366.6000976562</ele>
        <time>2014-02-12T09:40:41.000Z</time>
      </trkpt>
      <trkpt lat="45.90699" lon="6.50576">
        <ele>2366.6000976562</ele>
        <time>2014-02-12T09:40:42.000Z</time>
      </trkpt>
      <trkpt lat="45.90699" lon="6.50576">
        <ele>2366.6000976562</ele>
        <time>2014-02-12T09:40:43.000Z</time>
      </trkpt>
      <trkpt lat="45.90699" lon="6.50576">
        <ele>2366.6000976562</ele>
        <time>2014-02-12T09:40:44.000Z</time>
      </trkpt>
      <trkpt lat="45.90699" lon="6.50576">
        <ele>2366.6000976562</ele>
        <time>2014-02-12T09:40:45.000Z</time>
      </trkpt>
      <trkpt lat="45.90699" lon="6.50576">
        <ele>2366.6000976562</ele>
        <time>2014-02-12T09:40:46.000Z</time>
      </trkpt>
      <trkpt lat="45.90699" lon="6.50576">
        <ele>2366.6000976562</ele>
        <time>2014-02-12T09:40:47.000Z</time>
      </trkpt>
      <trkpt lat="45.90699" lon="6.50576">
        <ele>2366.6000976562</ele>
        <time>2014-02-12T09:40:48.000Z</time>
      </trkpt>
      <trkpt lat="45.90699" lon="6.50576">
        <ele>2366.6000976562</ele>
        <time>2014-02-12T09:40:49.000Z</time>
      </trkpt>
      <trkpt lat="45.90699" lon="6.50576">
        <ele>2366.6000976562</ele>
        <time>2014-02-12T09:40:50.000Z</time>
      </trkpt>
      <trkpt lat="45.90699" lon="6.50576">
        <ele>2366.6000976562</ele>
        <time>2014-02-12T09:40:51.000Z</time>
      </trkpt>
      <trkpt lat="45.90699" lon="6.50576">
        <ele>2366.6000976562</ele>
        <time>2014-02-12T09:40:52.000Z</time>
      </trkpt>
      <trkpt lat="45.90699" lon="6.50576">
        <ele>2366.6000976562</ele>
        <time>2014-02-12T09:40:53.000Z</time>
      </trkpt>
      <trkpt lat="45.90699" lon="6.50576">
        <ele>2366.6000976562</ele>
        <time>2014-02-12T09:40:54.000Z</time>
      </trkpt>
      <trkpt lat="45.90699" lon="6.50576">
        <ele>2366.6000976562</ele>
        <time>2014-02-12T09:40:55.000Z</time>
      </trkpt>
      <trkpt lat="45.90699" lon="6.50576">
        <ele>2366.6000976562</ele>
        <time>2014-02-12T09:40:56.000Z</time>
      </trkpt>
      <trkpt lat="45.90699" lon="6.50576">
        <ele>2366.6000976562</ele>
        <time>2014-02-12T09:40:57.000Z</time>
      </trkpt>
      <trkpt lat="45.90699" lon="6.50576">
        <ele>2366.6000976562</ele>
        <time>2014-02-12T09:40:58.000Z</time>
      </trkpt>
      <trkpt lat="45.90699" lon="6.50576">
        <ele>2366.6000976562</ele>
        <time>2014-02-12T09:40:59.000Z</time>
      </trkpt>
      <trkpt lat="45.90699" lon="6.50576">
        <ele>2366.6000976562</ele>
        <time>2014-02-12T09:41:00.000Z</time>
      </trkpt>
      <trkpt lat="45.90699" lon="6.50576">
        <ele>2366.6000976562</ele>
        <time>2014-02-12T09:41:01.000Z</time>
      </trkpt>
      <trkpt lat="45.90699" lon="6.50576">
        <ele>2366.6000976562</ele>
        <time>2014-02-12T09:41:02.000Z</time>
      </trkpt>
      <trkpt lat="45.90699" lon="6.50576">
        <ele>2366.6000976562</ele>
        <time>2014-02-12T09:41:03.000Z</time>
      </trkpt>
      <trkpt lat="45.90699" lon="6.50576">
        <ele>2366.6000976562</ele>
        <time>2014-02-12T09:41:04.000Z</time>
      </trkpt>
      <trkpt lat="45.90699" lon="6.50576">
        <ele>2366.6000976562</ele>
        <time>2014-02-12T09:41:05.000Z</time>
      </trkpt>
      <trkpt lat="45.90699" lon="6.50576">
        <ele>2366.6000976562</ele>
        <time>2014-02-12T09:41:06.000Z</time>
      </trkpt>
      <trkpt lat="45.90699" lon="6.50577">
        <ele>2366.8000488281</ele>
        <time>2014-02-12T09:41:07.000Z</time>
      </trkpt>
      <trkpt lat="45.907" lon="6.50578">
        <ele>2367.1999511719</ele>
        <time>2014-02-12T09:41:08.000Z</time>
      </trkpt>
      <trkpt lat="45.90702" lon="6.5058">
        <ele>2368</ele>
        <time>2014-02-12T09:41:09.000Z</time>
      </trkpt>
      <trkpt lat="45.90703" lon="6.50582">
        <ele>2368.8000488281</ele>
        <time>2014-02-12T09:41:10.000Z</time>
      </trkpt>
      <trkpt lat="45.90705" lon="6.50584">
        <ele>2369.8000488281</ele>
        <time>2014-02-12T09:41:11.000Z</time>
      </trkpt>
      <trkpt lat="45.90706" lon="6.50586">
        <ele>2370.6000976562</ele>
        <time>2014-02-12T09:41:12.000Z</time>
      </trkpt>
      <trkpt lat="45.90707" lon="6.50588">
        <ele>2371.1999511719</ele>
        <time>2014-02-12T09:41:13.000Z</time>
      </trkpt>
      <trkpt lat="45.90708" lon="6.5059">
        <ele>2372</ele>
        <time>2014-02-12T09:41:14.000Z</time>
      </trkpt>
      <trkpt lat="45.90709" lon="6.50592">
        <ele>2372.6000976562</ele>
        <time>2014-02-12T09:41:15.000Z</time>
      </trkpt>
      <trkpt lat="45.9071" lon="6.50594">
        <ele>2373.1999511719</ele>
        <time>2014-02-12T09:41:16.000Z</time>
      </trkpt>
      <trkpt lat="45.90711" lon="6.50597">
        <ele>2374.1999511719</ele>
        <time>2014-02-12T09:41:17.000Z</time>
      </trkpt>
      <trkpt lat="45.90712" lon="6.50597">
        <ele>2374.3999023438</ele>
        <time>2014-02-12T09:41:18.000Z</time>
      </trkpt>
      <trkpt lat="45.90712" lon="6.50599">
        <ele>2375</ele>
        <time>2014-02-12T09:41:19.000Z</time>
      </trkpt>
      <trkpt lat="45.90713" lon="6.50601">
        <ele>2375.3999023438</ele>
        <time>2014-02-12T09:41:20.000Z</time>
      </trkpt>
      <trkpt lat="45.90713" lon="6.50602">
        <ele>2375.8000488281</ele>
        <time>2014-02-12T09:41:21.000Z</time>
      </trkpt>
      <trkpt lat="45.90714" lon="6.50605">
        <ele>2376.6000976562</ele>
        <time>2014-02-12T09:41:22.000Z</time>
      </trkpt>
      <trkpt lat="45.90714" lon="6.50607">
        <ele>2377</ele>
        <time>2014-02-12T09:41:23.000Z</time>
      </trkpt>
      <trkpt lat="45.90715" lon="6.50608">
        <ele>2377.3999023438</ele>
        <time>2014-02-12T09:41:24.000Z</time>
      </trkpt>
      <trkpt lat="45.90715" lon="6.50609">
        <ele>2378</ele>
        <time>2014-02-12T09:41:25.000Z</time>
      </trkpt>
      <trkpt lat="45.90716" lon="6.50612">
        <ele>2378.8000488281</ele>
        <time>2014-02-12T09:41:26.000Z</time>
      </trkpt>
      <trkpt lat="45.90717" lon="6.50613">
        <ele>2379</ele>
        <time>2014-02-12T09:41:27.000Z</time>
      </trkpt>
      <trkpt lat="45.90718" lon="6.50614">
        <ele>2379.6000976562</ele>
        <time>2014-02-12T09:41:28.000Z</time>
      </trkpt>
      <trkpt lat="45.90719" lon="6.50617">
        <ele>2380.6000976562</ele>
        <time>2014-02-12T09:41:29.000Z</time>
      </trkpt>
      <trkpt lat="45.9072" lon="6.50617">
        <ele>2380.8000488281</ele>
        <time>2014-02-12T09:41:30.000Z</time>
      </trkpt>
      <trkpt lat="45.90721" lon="6.50618">
        <ele>2381.3999023438</ele>
        <time>2014-02-12T09:41:31.000Z</time>
      </trkpt>
      <trkpt lat="45.90722" lon="6.5062">
        <ele>2382.1999511719</ele>
        <time>2014-02-12T09:41:32.000Z</time>
      </trkpt>
      <trkpt lat="45.90723" lon="6.50621">
        <ele>2382.3999023438</ele>
        <time>2014-02-12T09:41:33.000Z</time>
      </trkpt>
      <trkpt lat="45.90723" lon="6.50622">
        <ele>2382.8000488281</ele>
        <time>2014-02-12T09:41:34.000Z</time>
      </trkpt>
      <trkpt lat="45.90724" lon="6.50624">
        <ele>2383.8000488281</ele>
        <time>2014-02-12T09:41:35.000Z</time>
      </trkpt>
      <trkpt lat="45.90725" lon="6.50625">
        <ele>2384</ele>
        <time>2014-02-12T09:41:36.000Z</time>
      </trkpt>
      <trkpt lat="45.90725" lon="6.50626">
        <ele>2384.8000488281</ele>
        <time>2014-02-12T09:41:37.000Z</time>
      </trkpt>
      <trkpt lat="45.90726" lon="6.50629">
        <ele>2385.8000488281</ele>
        <time>2014-02-12T09:41:38.000Z</time>
      </trkpt>
      <trkpt lat="45.90726" lon="6.50629">
        <ele>2386</ele>
        <time>2014-02-12T09:41:39.000Z</time>
      </trkpt>
      <trkpt lat="45.90727" lon="6.5063">
        <ele>2386.6000976562</ele>
        <time>2014-02-12T09:41:40.000Z</time>
      </trkpt>
      <trkpt lat="45.90728" lon="6.50632">
        <ele>2387</ele>
        <time>2014-02-12T09:41:41.000Z</time>
      </trkpt>
      <trkpt lat="45.90728" lon="6.50633">
        <ele>2387.3999023438</ele>
        <time>2014-02-12T09:41:42.000Z</time>
      </trkpt>
      <trkpt lat="45.90728" lon="6.50633">
        <ele>2387.3999023438</ele>
        <time>2014-02-12T09:41:43.000Z</time>
      </trkpt>
      <trkpt lat="45.90728" lon="6.50633">
        <ele>2387.3999023438</ele>
        <time>2014-02-12T09:41:44.000Z</time>
      </trkpt>
      <trkpt lat="45.90728" lon="6.50633">
        <ele>2387.3999023438</ele>
        <time>2014-02-12T09:41:45.000Z</time>
      </trkpt>
      <trkpt lat="45.90728" lon="6.50633">
        <ele>2387.3999023438</ele>
        <time>2014-02-12T09:41:46.000Z</time>
      </trkpt>
      <trkpt lat="45.90728" lon="6.50633">
        <ele>2387.3999023438</ele>
        <time>2014-02-12T09:41:47.000Z</time>
      </trkpt>
      <trkpt lat="45.90728" lon="6.50633">
        <ele>2387.3999023438</ele>
        <time>2014-02-12T09:41:48.000Z</time>
      </trkpt>
      <trkpt lat="45.90728" lon="6.50633">
        <ele>2387.3999023438</ele>
        <time>2014-02-12T09:41:49.000Z</time>
      </trkpt>
      <trkpt lat="45.90728" lon="6.50633">
        <ele>2387.3999023438</ele>
        <time>2014-02-12T09:41:50.000Z</time>
      </trkpt>
      <trkpt lat="45.90728" lon="6.50633">
        <ele>2387.3999023438</ele>
        <time>2014-02-12T09:41:51.000Z</time>
      </trkpt>
      <trkpt lat="45.90728" lon="6.50633">
        <ele>2387.3999023438</ele>
        <time>2014-02-12T09:41:52.000Z</time>
      </trkpt>
      <trkpt lat="45.90728" lon="6.50633">
        <ele>2387.3999023438</ele>
        <time>2014-02-12T09:41:53.000Z</time>
      </trkpt>
      <trkpt lat="45.90728" lon="6.50633">
        <ele>2387.3999023438</ele>
        <time>2014-02-12T09:41:54.000Z</time>
      </trkpt>
      <trkpt lat="45.90728" lon="6.50633">
        <ele>2387.3999023438</ele>
        <time>2014-02-12T09:41:55.000Z</time>
      </trkpt>
      <trkpt lat="45.90728" lon="6.50633">
        <ele>2387.3999023438</ele>
        <time>2014-02-12T09:41:56.000Z</time>
      </trkpt>
      <trkpt lat="45.90728" lon="6.50633">
        <ele>2387.3999023438</ele>
        <time>2014-02-12T09:41:57.000Z</time>
      </trkpt>
      <trkpt lat="45.90728" lon="6.50634">
        <ele>2387.8000488281</ele>
        <time>2014-02-12T09:41:58.000Z</time>
      </trkpt>
      <trkpt lat="45.90728" lon="6.50635">
        <ele>2388.1999511719</ele>
        <time>2014-02-12T09:41:59.000Z</time>
      </trkpt>
      <trkpt lat="45.90729" lon="6.50636">
        <ele>2388.6000976562</ele>
        <time>2014-02-12T09:42:00.000Z</time>
      </trkpt>
      <trkpt lat="45.90729" lon="6.50638">
        <ele>2389.1999511719</ele>
        <time>2014-02-12T09:42:01.000Z</time>
      </trkpt>
      <trkpt lat="45.9073" lon="6.50639">
        <ele>2389.8000488281</ele>
        <time>2014-02-12T09:42:02.000Z</time>
      </trkpt>
      <trkpt lat="45.9073" lon="6.5064">
        <ele>2390.1999511719</ele>
        <time>2014-02-12T09:42:03.000Z</time>
      </trkpt>
      <trkpt lat="45.90731" lon="6.50641">
        <ele>2391</ele>
        <time>2014-02-12T09:42:04.000Z</time>
      </trkpt>
      <trkpt lat="45.90732" lon="6.50642">
        <ele>2391.3999023438</ele>
        <time>2014-02-12T09:42:05.000Z</time>
      </trkpt>
      <trkpt lat="45.90733" lon="6.50642">
        <ele>2392</ele>
        <time>2014-02-12T09:42:06.000Z</time>
      </trkpt>
      <trkpt lat="45.90734" lon="6.50643">
        <ele>2392.3999023438</ele>
        <time>2014-02-12T09:42:07.000Z</time>
      </trkpt>
      <trkpt lat="45.90734" lon="6.50643">
        <ele>2393</ele>
        <time>2014-02-12T09:42:08.000Z</time>
      </trkpt>
      <trkpt lat="45.90735" lon="6.50644">
        <ele>2393.3999023438</ele>
        <time>2014-02-12T09:42:09.000Z</time>
      </trkpt>
      <trkpt lat="45.90736" lon="6.50644">
        <ele>2393.8000488281</ele>
        <time>2014-02-12T09:42:10.000Z</time>
      </trkpt>
      <trkpt lat="45.90736" lon="6.50644">
        <ele>2393.8000488281</ele>
        <time>2014-02-12T09:42:11.000Z</time>
      </trkpt>
      <trkpt lat="45.90736" lon="6.50644">
        <ele>2393.8000488281</ele>
        <time>2014-02-12T09:42:12.000Z</time>
      </trkpt>
      <trkpt lat="45.90736" lon="6.50644">
        <ele>2393.8000488281</ele>
        <time>2014-02-12T09:42:13.000Z</time>
      </trkpt>
      <trkpt lat="45.90736" lon="6.50644">
        <ele>2393.8000488281</ele>
        <time>2014-02-12T09:42:14.000Z</time>
      </trkpt>
      <trkpt lat="45.90736" lon="6.50644">
        <ele>2393.8000488281</ele>
        <time>2014-02-12T09:42:15.000Z</time>
      </trkpt>
      <trkpt lat="45.90736" lon="6.50644">
        <ele>2393.8000488281</ele>
        <time>2014-02-12T09:42:16.000Z</time>
      </trkpt>
      <trkpt lat="45.90736" lon="6.50644">
        <ele>2393.8000488281</ele>
        <time>2014-02-12T09:42:17.000Z</time>
      </trkpt>
      <trkpt lat="45.90736" lon="6.50644">
        <ele>2393.8000488281</ele>
        <time>2014-02-12T09:42:18.000Z</time>
      </trkpt>
      <trkpt lat="45.90736" lon="6.50644">
        <ele>2393.8000488281</ele>
        <time>2014-02-12T09:42:19.000Z</time>
      </trkpt>
      <trkpt lat="45.90736" lon="6.50644">
        <ele>2393.8000488281</ele>
        <time>2014-02-12T09:42:20.000Z</time>
      </trkpt>
      <trkpt lat="45.90736" lon="6.50644">
        <ele>2393.8000488281</ele>
        <time>2014-02-12T09:42:21.000Z</time>
      </trkpt>
      <trkpt lat="45.90736" lon="6.50644">
        <ele>2393.8000488281</ele>
        <time>2014-02-12T09:42:22.000Z</time>
      </trkpt>
      <trkpt lat="45.90736" lon="6.50644">
        <ele>2393.8000488281</ele>
        <time>2014-02-12T09:42:23.000Z</time>
      </trkpt>
      <trkpt lat="45.90736" lon="6.50644">
        <ele>2393.8000488281</ele>
        <time>2014-02-12T09:42:24.000Z</time>
      </trkpt>
      <trkpt lat="45.90736" lon="6.50644">
        <ele>2393.8000488281</ele>
        <time>2014-02-12T09:42:25.000Z</time>
      </trkpt>
      <trkpt lat="45.90736" lon="6.50644">
        <ele>2393.8000488281</ele>
        <time>2014-02-12T09:42:26.000Z</time>
      </trkpt>
      <trkpt lat="45.90736" lon="6.50644">
        <ele>2393.8000488281</ele>
        <time>2014-02-12T09:42:27.000Z</time>
      </trkpt>
      <trkpt lat="45.90736" lon="6.50645">
        <ele>2394.1999511719</ele>
        <time>2014-02-12T09:42:28.000Z</time>
      </trkpt>
      <trkpt lat="45.90737" lon="6.50646">
        <ele>2394.8000488281</ele>
        <time>2014-02-12T09:42:29.000Z</time>
      </trkpt>
      <trkpt lat="45.90738" lon="6.50648">
        <ele>2395.8000488281</ele>
        <time>2014-02-12T09:42:30.000Z</time>
      </trkpt>
      <trkpt lat="45.90739" lon="6.50651">
        <ele>2397</ele>
        <time>2014-02-12T09:42:31.000Z</time>
      </trkpt>
      <trkpt lat="45.9074" lon="6.50652">
        <ele>2397.6000976562</ele>
        <time>2014-02-12T09:42:32.000Z</time>
      </trkpt>
      <trkpt lat="45.90741" lon="6.50653">
        <ele>2398.1999511719</ele>
        <time>2014-02-12T09:42:33.000Z</time>
      </trkpt>
      <trkpt lat="45.90742" lon="6.50656">
        <ele>2399.1999511719</ele>
        <time>2014-02-12T09:42:34.000Z</time>
      </trkpt>
      <trkpt lat="45.90742" lon="6.50656">
        <ele>2399.3999023438</ele>
        <time>2014-02-12T09:42:35.000Z</time>
      </trkpt>
      <trkpt lat="45.90743" lon="6.50658">
        <ele>2400.1999511719</ele>
        <time>2014-02-12T09:42:36.000Z</time>
      </trkpt>
      <trkpt lat="45.90744" lon="6.5066">
        <ele>2401</ele>
        <time>2014-02-12T09:42:37.000Z</time>
      </trkpt>
      <trkpt lat="45.90745" lon="6.5066">
        <ele>2401.1999511719</ele>
        <time>2014-02-12T09:42:38.000Z</time>
      </trkpt>
      <trkpt lat="45.90745" lon="6.50663">
        <ele>2402</ele>
        <time>2014-02-12T09:42:39.000Z</time>
      </trkpt>
      <trkpt lat="45.90746" lon="6.50665">
        <ele>2402.8000488281</ele>
        <time>2014-02-12T09:42:40.000Z</time>
      </trkpt>
      <trkpt lat="45.90746" lon="6.50666">
        <ele>2403.1999511719</ele>
        <time>2014-02-12T09:42:41.000Z</time>
      </trkpt>
      <trkpt lat="45.90747" lon="6.50667">
        <ele>2403.3999023438</ele>
        <time>2014-02-12T09:42:42.000Z</time>
      </trkpt>
      <trkpt lat="45.90748" lon="6.50669">
        <ele>2404.3999023438</ele>
        <time>2014-02-12T09:42:43.000Z</time>
      </trkpt>
      <trkpt lat="45.90748" lon="6.50669">
        <ele>2404.8000488281</ele>
        <time>2014-02-12T09:42:44.000Z</time>
      </trkpt>
      <trkpt lat="45.90749" lon="6.50671">
        <ele>2405.1999511719</ele>
        <time>2014-02-12T09:42:45.000Z</time>
      </trkpt>
      <trkpt lat="45.9075" lon="6.50673">
        <ele>2406</ele>
        <time>2014-02-12T09:42:46.000Z</time>
      </trkpt>
      <trkpt lat="45.9075" lon="6.50673">
        <ele>2406.1999511719</ele>
        <time>2014-02-12T09:42:47.000Z</time>
      </trkpt>
      <trkpt lat="45.9075" lon="6.50674">
        <ele>2406.6000976562</ele>
        <time>2014-02-12T09:42:48.000Z</time>
      </trkpt>
      <trkpt lat="45.90751" lon="6.50676">
        <ele>2407</ele>
        <time>2014-02-12T09:42:49.000Z</time>
      </trkpt>
      <trkpt lat="45.90751" lon="6.50676">
        <ele>2407</ele>
        <time>2014-02-12T09:42:50.000Z</time>
      </trkpt>
      <trkpt lat="45.90751" lon="6.50677">
        <ele>2407.1999511719</ele>
        <time>2014-02-12T09:42:51.000Z</time>
      </trkpt>
      <trkpt lat="45.90751" lon="6.50679">
        <ele>2407.6000976562</ele>
        <time>2014-02-12T09:42:52.000Z</time>
      </trkpt>
      <trkpt lat="45.90751" lon="6.5068">
        <ele>2408</ele>
        <time>2014-02-12T09:42:53.000Z</time>
      </trkpt>
      <trkpt lat="45.90751" lon="6.5068">
        <ele>2408.1999511719</ele>
        <time>2014-02-12T09:42:54.000Z</time>
      </trkpt>
      <trkpt lat="45.9075" lon="6.50682">
        <ele>2408.6000976562</ele>
        <time>2014-02-12T09:42:55.000Z</time>
      </trkpt>
      <trkpt lat="45.9075" lon="6.50683">
        <ele>2408.8000488281</ele>
        <time>2014-02-12T09:42:56.000Z</time>
      </trkpt>
      <trkpt lat="45.90749" lon="6.50685">
        <ele>2409.1999511719</ele>
        <time>2014-02-12T09:42:57.000Z</time>
      </trkpt>
      <trkpt lat="45.9075" lon="6.50685">
        <ele>2409.1999511719</ele>
        <time>2014-02-12T09:42:58.000Z</time>
      </trkpt>
      <trkpt lat="45.9075" lon="6.50685">
        <ele>2409.6000976562</ele>
        <time>2014-02-12T09:42:59.000Z</time>
      </trkpt>
      <trkpt lat="45.9075" lon="6.50686">
        <ele>2409.8000488281</ele>
        <time>2014-02-12T09:43:00.000Z</time>
      </trkpt>
      <trkpt lat="45.9075" lon="6.50687">
        <ele>2410</ele>
        <time>2014-02-12T09:43:01.000Z</time>
      </trkpt>
      <trkpt lat="45.9075" lon="6.50688">
        <ele>2410.1999511719</ele>
        <time>2014-02-12T09:43:02.000Z</time>
      </trkpt>
      <trkpt lat="45.9075" lon="6.50688">
        <ele>2410.6000976562</ele>
        <time>2014-02-12T09:43:03.000Z</time>
      </trkpt>
      <trkpt lat="45.9075" lon="6.50689">
        <ele>2410.8000488281</ele>
        <time>2014-02-12T09:43:04.000Z</time>
      </trkpt>
      <trkpt lat="45.9075" lon="6.50689">
        <ele>2410.8000488281</ele>
        <time>2014-02-12T09:43:05.000Z</time>
      </trkpt>
      <trkpt lat="45.9075" lon="6.50689">
        <ele>2410.8000488281</ele>
        <time>2014-02-12T09:43:06.000Z</time>
      </trkpt>
      <trkpt lat="45.9075" lon="6.50689">
        <ele>2410.8000488281</ele>
        <time>2014-02-12T09:43:07.000Z</time>
      </trkpt>
      <trkpt lat="45.9075" lon="6.50689">
        <ele>2410.8000488281</ele>
        <time>2014-02-12T09:43:08.000Z</time>
      </trkpt>
      <trkpt lat="45.9075" lon="6.50689">
        <ele>2410.8000488281</ele>
        <time>2014-02-12T09:43:09.000Z</time>
      </trkpt>
      <trkpt lat="45.9075" lon="6.50689">
        <ele>2410.8000488281</ele>
        <time>2014-02-12T09:43:10.000Z</time>
      </trkpt>
      <trkpt lat="45.9075" lon="6.50689">
        <ele>2410.8000488281</ele>
        <time>2014-02-12T09:43:11.000Z</time>
      </trkpt>
      <trkpt lat="45.9075" lon="6.50689">
        <ele>2410.8000488281</ele>
        <time>2014-02-12T09:43:12.000Z</time>
      </trkpt>
      <trkpt lat="45.9075" lon="6.50689">
        <ele>2410.8000488281</ele>
        <time>2014-02-12T09:43:13.000Z</time>
      </trkpt>
      <trkpt lat="45.9075" lon="6.50689">
        <ele>2410.8000488281</ele>
        <time>2014-02-12T09:43:14.000Z</time>
      </trkpt>
      <trkpt lat="45.9075" lon="6.50689">
        <ele>2410.8000488281</ele>
        <time>2014-02-12T09:43:15.000Z</time>
      </trkpt>
      <trkpt lat="45.9075" lon="6.50689">
        <ele>2410.8000488281</ele>
        <time>2014-02-12T09:43:16.000Z</time>
      </trkpt>
      <trkpt lat="45.9075" lon="6.50689">
        <ele>2410.8000488281</ele>
        <time>2014-02-12T09:43:17.000Z</time>
      </trkpt>
      <trkpt lat="45.9075" lon="6.50689">
        <ele>2410.8000488281</ele>
        <time>2014-02-12T09:43:18.000Z</time>
      </trkpt>
      <trkpt lat="45.9075" lon="6.50689">
        <ele>2410.8000488281</ele>
        <time>2014-02-12T09:43:19.000Z</time>
      </trkpt>
      <trkpt lat="45.9075" lon="6.50689">
        <ele>2410.8000488281</ele>
        <time>2014-02-12T09:43:20.000Z</time>
      </trkpt>
      <trkpt lat="45.9075" lon="6.50689">
        <ele>2410.8000488281</ele>
        <time>2014-02-12T09:43:21.000Z</time>
      </trkpt>
      <trkpt lat="45.9075" lon="6.50689">
        <ele>2410.8000488281</ele>
        <time>2014-02-12T09:43:22.000Z</time>
      </trkpt>
      <trkpt lat="45.9075" lon="6.5069">
        <ele>2411.1999511719</ele>
        <time>2014-02-12T09:43:23.000Z</time>
      </trkpt>
      <trkpt lat="45.90751" lon="6.5069">
        <ele>2411.3999023438</ele>
        <time>2014-02-12T09:43:24.000Z</time>
      </trkpt>
      <trkpt lat="45.90752" lon="6.5069">
        <ele>2411.8000488281</ele>
        <time>2014-02-12T09:43:25.000Z</time>
      </trkpt>
      <trkpt lat="45.90753" lon="6.5069">
        <ele>2412</ele>
        <time>2014-02-12T09:43:26.000Z</time>
      </trkpt>
      <trkpt lat="45.90753" lon="6.5069">
        <ele>2412.1999511719</ele>
        <time>2014-02-12T09:43:27.000Z</time>
      </trkpt>
      <trkpt lat="45.90754" lon="6.5069">
        <ele>2412.3999023438</ele>
        <time>2014-02-12T09:43:28.000Z</time>
      </trkpt>
      <trkpt lat="45.90755" lon="6.5069">
        <ele>2412.6000976562</ele>
        <time>2014-02-12T09:43:29.000Z</time>
      </trkpt>
      <trkpt lat="45.90755" lon="6.5069">
        <ele>2412.8000488281</ele>
        <time>2014-02-12T09:43:30.000Z</time>
      </trkpt>
      <trkpt lat="45.90755" lon="6.5069">
        <ele>2412.8000488281</ele>
        <time>2014-02-12T09:43:31.000Z</time>
      </trkpt>
      <trkpt lat="45.90755" lon="6.5069">
        <ele>2412.8000488281</ele>
        <time>2014-02-12T09:43:32.000Z</time>
      </trkpt>
      <trkpt lat="45.90755" lon="6.5069">
        <ele>2412.8000488281</ele>
        <time>2014-02-12T09:43:33.000Z</time>
      </trkpt>
      <trkpt lat="45.90756" lon="6.50689">
        <ele>2413</ele>
        <time>2014-02-12T09:43:34.000Z</time>
      </trkpt>
      <trkpt lat="45.90756" lon="6.50689">
        <ele>2413</ele>
        <time>2014-02-12T09:43:35.000Z</time>
      </trkpt>
      <trkpt lat="45.90757" lon="6.50689">
        <ele>2413.1999511719</ele>
        <time>2014-02-12T09:43:36.000Z</time>
      </trkpt>
      <trkpt lat="45.90757" lon="6.50689">
        <ele>2413.1999511719</ele>
        <time>2014-02-12T09:43:37.000Z</time>
      </trkpt>
      <trkpt lat="45.90758" lon="6.50688">
        <ele>2413.3999023438</ele>
        <time>2014-02-12T09:43:38.000Z</time>
      </trkpt>
      <trkpt lat="45.90759" lon="6.50688">
        <ele>2413.6000976562</ele>
        <time>2014-02-12T09:43:39.000Z</time>
      </trkpt>
      <trkpt lat="45.90759" lon="6.50688">
        <ele>2413.6000976562</ele>
        <time>2014-02-12T09:43:40.000Z</time>
      </trkpt>
      <trkpt lat="45.90759" lon="6.50688">
        <ele>2413.6000976562</ele>
        <time>2014-02-12T09:43:41.000Z</time>
      </trkpt>
      <trkpt lat="45.90759" lon="6.50688">
        <ele>2413.6000976562</ele>
        <time>2014-02-12T09:43:42.000Z</time>
      </trkpt>
      <trkpt lat="45.90759" lon="6.50688">
        <ele>2413.6000976562</ele>
        <time>2014-02-12T09:43:43.000Z</time>
      </trkpt>
      <trkpt lat="45.90759" lon="6.50688">
        <ele>2413.6000976562</ele>
        <time>2014-02-12T09:43:44.000Z</time>
      </trkpt>
      <trkpt lat="45.90759" lon="6.50688">
        <ele>2413.6000976562</ele>
        <time>2014-02-12T09:43:45.000Z</time>
      </trkpt>
      <trkpt lat="45.90759" lon="6.50688">
        <ele>2413.6000976562</ele>
        <time>2014-02-12T09:43:46.000Z</time>
      </trkpt>
      <trkpt lat="45.90759" lon="6.50688">
        <ele>2413.6000976562</ele>
        <time>2014-02-12T09:43:47.000Z</time>
      </trkpt>
      <trkpt lat="45.90759" lon="6.50688">
        <ele>2413.6000976562</ele>
        <time>2014-02-12T09:43:48.000Z</time>
      </trkpt>
      <trkpt lat="45.90759" lon="6.50689">
        <ele>2414</ele>
        <time>2014-02-12T09:43:49.000Z</time>
      </trkpt>
      <trkpt lat="45.90759" lon="6.50691">
        <ele>2414.8000488281</ele>
        <time>2014-02-12T09:43:50.000Z</time>
      </trkpt>
      <trkpt lat="45.9076" lon="6.50692">
        <ele>2415.1999511719</ele>
        <time>2014-02-12T09:43:51.000Z</time>
      </trkpt>
      <trkpt lat="45.9076" lon="6.50694">
        <ele>2416</ele>
        <time>2014-02-12T09:43:52.000Z</time>
      </trkpt>
      <trkpt lat="45.9076" lon="6.50696">
        <ele>2416.3999023438</ele>
        <time>2014-02-12T09:43:53.000Z</time>
      </trkpt>
      <trkpt lat="45.90761" lon="6.50696">
        <ele>2416.8000488281</ele>
        <time>2014-02-12T09:43:54.000Z</time>
      </trkpt>
      <trkpt lat="45.90761" lon="6.50697">
        <ele>2417.1999511719</ele>
        <time>2014-02-12T09:43:55.000Z</time>
      </trkpt>
      <trkpt lat="45.90761" lon="6.50698">
        <ele>2417.8000488281</ele>
        <time>2014-02-12T09:43:56.000Z</time>
      </trkpt>
      <trkpt lat="45.90761" lon="6.507">
        <ele>2418.1999511719</ele>
        <time>2014-02-12T09:43:57.000Z</time>
      </trkpt>
      <trkpt lat="45.90761" lon="6.50702">
        <ele>2418.8000488281</ele>
        <time>2014-02-12T09:43:58.000Z</time>
      </trkpt>
      <trkpt lat="45.90761" lon="6.50703">
        <ele>2419.3999023438</ele>
        <time>2014-02-12T09:43:59.000Z</time>
      </trkpt>
      <trkpt lat="45.90762" lon="6.50703">
        <ele>2419.3999023438</ele>
        <time>2014-02-12T09:44:00.000Z</time>
      </trkpt>
      <trkpt lat="45.90762" lon="6.50704">
        <ele>2419.8000488281</ele>
        <time>2014-02-12T09:44:01.000Z</time>
      </trkpt>
      <trkpt lat="45.90761" lon="6.50707">
        <ele>2420.6000976562</ele>
        <time>2014-02-12T09:44:02.000Z</time>
      </trkpt>
      <trkpt lat="45.90761" lon="6.50709">
        <ele>2421.1999511719</ele>
        <time>2014-02-12T09:44:03.000Z</time>
      </trkpt>
      <trkpt lat="45.90762" lon="6.50709">
        <ele>2421.3999023438</ele>
        <time>2014-02-12T09:44:04.000Z</time>
      </trkpt>
      <trkpt lat="45.90763" lon="6.50711">
        <ele>2422.3999023438</ele>
        <time>2014-02-12T09:44:05.000Z</time>
      </trkpt>
      <trkpt lat="45.90763" lon="6.50712">
        <ele>2422.6000976562</ele>
        <time>2014-02-12T09:44:06.000Z</time>
      </trkpt>
      <trkpt lat="45.90763" lon="6.50713">
        <ele>2423</ele>
        <time>2014-02-12T09:44:07.000Z</time>
      </trkpt>
      <trkpt lat="45.90763" lon="6.50715">
        <ele>2423.6000976562</ele>
        <time>2014-02-12T09:44:08.000Z</time>
      </trkpt>
      <trkpt lat="45.90763" lon="6.50715">
        <ele>2423.8000488281</ele>
        <time>2014-02-12T09:44:09.000Z</time>
      </trkpt>
      <trkpt lat="45.90764" lon="6.50716">
        <ele>2424.3999023438</ele>
        <time>2014-02-12T09:44:10.000Z</time>
      </trkpt>
      <trkpt lat="45.90763" lon="6.50718">
        <ele>2425</ele>
        <time>2014-02-12T09:44:11.000Z</time>
      </trkpt>
      <trkpt lat="45.90764" lon="6.50718">
        <ele>2425</ele>
        <time>2014-02-12T09:44:12.000Z</time>
      </trkpt>
      <trkpt lat="45.90764" lon="6.50719">
        <ele>2425.3999023438</ele>
        <time>2014-02-12T09:44:13.000Z</time>
      </trkpt>
      <trkpt lat="45.90764" lon="6.50721">
        <ele>2426</ele>
        <time>2014-02-12T09:44:14.000Z</time>
      </trkpt>
      <trkpt lat="45.90764" lon="6.50723">
        <ele>2426.6000976562</ele>
        <time>2014-02-12T09:44:15.000Z</time>
      </trkpt>
      <trkpt lat="45.90764" lon="6.50725">
        <ele>2427.1999511719</ele>
        <time>2014-02-12T09:44:16.000Z</time>
      </trkpt>
      <trkpt lat="45.90764" lon="6.50726">
        <ele>2427.6000976562</ele>
        <time>2014-02-12T09:44:17.000Z</time>
      </trkpt>
      <trkpt lat="45.90764" lon="6.50727">
        <ele>2428</ele>
        <time>2014-02-12T09:44:18.000Z</time>
      </trkpt>
      <trkpt lat="45.90764" lon="6.50728">
        <ele>2428.1999511719</ele>
        <time>2014-02-12T09:44:19.000Z</time>
      </trkpt>
      <trkpt lat="45.90764" lon="6.50728">
        <ele>2428.3999023438</ele>
        <time>2014-02-12T09:44:20.000Z</time>
      </trkpt>
      <trkpt lat="45.90764" lon="6.50731">
        <ele>2429</ele>
        <time>2014-02-12T09:44:21.000Z</time>
      </trkpt>
      <trkpt lat="45.90764" lon="6.50731">
        <ele>2429</ele>
        <time>2014-02-12T09:44:22.000Z</time>
      </trkpt>
      <trkpt lat="45.90764" lon="6.50731">
        <ele>2429.1999511719</ele>
        <time>2014-02-12T09:44:23.000Z</time>
      </trkpt>
      <trkpt lat="45.90763" lon="6.50733">
        <ele>2429.8000488281</ele>
        <time>2014-02-12T09:44:24.000Z</time>
      </trkpt>
      <trkpt lat="45.90763" lon="6.50735">
        <ele>2429.8000488281</ele>
        <time>2014-02-12T09:44:25.000Z</time>
      </trkpt>
      <trkpt lat="45.90763" lon="6.50736">
        <ele>2430</ele>
        <time>2014-02-12T09:44:26.000Z</time>
      </trkpt>
      <trkpt lat="45.90764" lon="6.50737">
        <ele>2430.1999511719</ele>
        <time>2014-02-12T09:44:27.000Z</time>
      </trkpt>
      <trkpt lat="45.90764" lon="6.50737">
        <ele>2430.6000976562</ele>
        <time>2014-02-12T09:44:28.000Z</time>
      </trkpt>
      <trkpt lat="45.90765" lon="6.50738">
        <ele>2430.8000488281</ele>
        <time>2014-02-12T09:44:29.000Z</time>
      </trkpt>
      <trkpt lat="45.90765" lon="6.50738">
        <ele>2431</ele>
        <time>2014-02-12T09:44:30.000Z</time>
      </trkpt>
      <trkpt lat="45.90765" lon="6.50738">
        <ele>2431</ele>
        <time>2014-02-12T09:44:31.000Z</time>
      </trkpt>
      <trkpt lat="45.90765" lon="6.50738">
        <ele>2431</ele>
        <time>2014-02-12T09:44:32.000Z</time>
      </trkpt>
      <trkpt lat="45.90765" lon="6.50738">
        <ele>2431</ele>
        <time>2014-02-12T09:44:33.000Z</time>
      </trkpt>
      <trkpt lat="45.90765" lon="6.50738">
        <ele>2431</ele>
        <time>2014-02-12T09:44:34.000Z</time>
      </trkpt>
      <trkpt lat="45.90765" lon="6.50738">
        <ele>2431</ele>
        <time>2014-02-12T09:44:35.000Z</time>
      </trkpt>
      <trkpt lat="45.90765" lon="6.50738">
        <ele>2431</ele>
        <time>2014-02-12T09:44:36.000Z</time>
      </trkpt>
      <trkpt lat="45.90765" lon="6.50738">
        <ele>2431</ele>
        <time>2014-02-12T09:44:37.000Z</time>
      </trkpt>
      <trkpt lat="45.90765" lon="6.50738">
        <ele>2431</ele>
        <time>2014-02-12T09:44:38.000Z</time>
      </trkpt>
      <trkpt lat="45.90765" lon="6.50738">
        <ele>2431</ele>
        <time>2014-02-12T09:44:39.000Z</time>
      </trkpt>
      <trkpt lat="45.90765" lon="6.50738">
        <ele>2431</ele>
        <time>2014-02-12T09:44:40.000Z</time>
      </trkpt>
      <trkpt lat="45.90765" lon="6.50738">
        <ele>2431</ele>
        <time>2014-02-12T09:44:41.000Z</time>
      </trkpt>
      <trkpt lat="45.90765" lon="6.50738">
        <ele>2431</ele>
        <time>2014-02-12T09:44:42.000Z</time>
      </trkpt>
      <trkpt lat="45.90765" lon="6.50738">
        <ele>2431</ele>
        <time>2014-02-12T09:44:43.000Z</time>
      </trkpt>
      <trkpt lat="45.90765" lon="6.50738">
        <ele>2431</ele>
        <time>2014-02-12T09:44:44.000Z</time>
      </trkpt>
      <trkpt lat="45.90765" lon="6.50738">
        <ele>2431</ele>
        <time>2014-02-12T09:44:45.000Z</time>
      </trkpt>
      <trkpt lat="45.90765" lon="6.50738">
        <ele>2431</ele>
        <time>2014-02-12T09:44:46.000Z</time>
      </trkpt>
      <trkpt lat="45.90765" lon="6.50738">
        <ele>2431</ele>
        <time>2014-02-12T09:44:47.000Z</time>
      </trkpt>
      <trkpt lat="45.90765" lon="6.50738">
        <ele>2431</ele>
        <time>2014-02-12T09:44:48.000Z</time>
      </trkpt>
      <trkpt lat="45.90766" lon="6.50737">
        <ele>2431.3999023438</ele>
        <time>2014-02-12T09:44:49.000Z</time>
      </trkpt>
      <trkpt lat="45.90766" lon="6.50737">
        <ele>2431.3999023438</ele>
        <time>2014-02-12T09:44:50.000Z</time>
      </trkpt>
      <trkpt lat="45.90766" lon="6.50737">
        <ele>2431.3999023438</ele>
        <time>2014-02-12T09:44:51.000Z</time>
      </trkpt>
      <trkpt lat="45.90766" lon="6.50737">
        <ele>2431.3999023438</ele>
        <time>2014-02-12T09:44:52.000Z</time>
      </trkpt>
      <trkpt lat="45.90766" lon="6.50737">
        <ele>2431.3999023438</ele>
        <time>2014-02-12T09:44:53.000Z</time>
      </trkpt>
      <trkpt lat="45.90766" lon="6.50737">
        <ele>2431.3999023438</ele>
        <time>2014-02-12T09:44:54.000Z</time>
      </trkpt>
      <trkpt lat="45.90766" lon="6.50737">
        <ele>2431.3999023438</ele>
        <time>2014-02-12T09:44:55.000Z</time>
      </trkpt>
      <trkpt lat="45.90766" lon="6.50737">
        <ele>2431.3999023438</ele>
        <time>2014-02-12T09:44:56.000Z</time>
      </trkpt>
      <trkpt lat="45.90766" lon="6.50737">
        <ele>2431.3999023438</ele>
        <time>2014-02-12T09:44:57.000Z</time>
      </trkpt>
      <trkpt lat="45.90766" lon="6.50737">
        <ele>2431.3999023438</ele>
        <time>2014-02-12T09:44:58.000Z</time>
      </trkpt>
      <trkpt lat="45.90766" lon="6.50737">
        <ele>2431.3999023438</ele>
        <time>2014-02-12T09:44:59.000Z</time>
      </trkpt>
      <trkpt lat="45.90766" lon="6.50737">
        <ele>2431.3999023438</ele>
        <time>2014-02-12T09:45:00.000Z</time>
      </trkpt>
      <trkpt lat="45.90766" lon="6.50737">
        <ele>2431.3999023438</ele>
        <time>2014-02-12T09:45:01.000Z</time>
      </trkpt>
      <trkpt lat="45.90766" lon="6.50737">
        <ele>2431.3999023438</ele>
        <time>2014-02-12T09:45:02.000Z</time>
      </trkpt>
      <trkpt lat="45.90766" lon="6.50738">
        <ele>2431.3999023438</ele>
        <time>2014-02-12T09:45:03.000Z</time>
      </trkpt>
      <trkpt lat="45.90767" lon="6.50738">
        <ele>2431.6000976562</ele>
        <time>2014-02-12T09:45:04.000Z</time>
      </trkpt>
      <trkpt lat="45.90767" lon="6.50739">
        <ele>2431.8000488281</ele>
        <time>2014-02-12T09:45:05.000Z</time>
      </trkpt>
      <trkpt lat="45.90768" lon="6.5074">
        <ele>2432.1999511719</ele>
        <time>2014-02-12T09:45:06.000Z</time>
      </trkpt>
      <trkpt lat="45.90769" lon="6.50742">
        <ele>2432.8000488281</ele>
        <time>2014-02-12T09:45:07.000Z</time>
      </trkpt>
      <trkpt lat="45.90769" lon="6.50743">
        <ele>2432.8000488281</ele>
        <time>2014-02-12T09:45:08.000Z</time>
      </trkpt>
      <trkpt lat="45.90769" lon="6.50745">
        <ele>2433.1999511719</ele>
        <time>2014-02-12T09:45:09.000Z</time>
      </trkpt>
      <trkpt lat="45.9077" lon="6.50746">
        <ele>2433.6000976562</ele>
        <time>2014-02-12T09:45:10.000Z</time>
      </trkpt>
      <trkpt lat="45.9077" lon="6.50746">
        <ele>2433.8000488281</ele>
        <time>2014-02-12T09:45:11.000Z</time>
      </trkpt>
      <trkpt lat="45.90771" lon="6.50748">
        <ele>2434.1999511719</ele>
        <time>2014-02-12T09:45:12.000Z</time>
      </trkpt>
      <trkpt lat="45.90771" lon="6.5075">
        <ele>2434.6000976562</ele>
        <time>2014-02-12T09:45:13.000Z</time>
      </trkpt>
      <trkpt lat="45.90772" lon="6.5075">
        <ele>2434.8000488281</ele>
        <time>2014-02-12T09:45:14.000Z</time>
      </trkpt>
      <trkpt lat="45.90772" lon="6.50751">
        <ele>2435.1999511719</ele>
        <time>2014-02-12T09:45:15.000Z</time>
      </trkpt>
      <trkpt lat="45.90773" lon="6.50753">
        <ele>2435.6000976562</ele>
        <time>2014-02-12T09:45:16.000Z</time>
      </trkpt>
      <trkpt lat="45.90774" lon="6.50755">
        <ele>2436</ele>
        <time>2014-02-12T09:45:17.000Z</time>
      </trkpt>
      <trkpt lat="45.90774" lon="6.50755">
        <ele>2436.1999511719</ele>
        <time>2014-02-12T09:45:18.000Z</time>
      </trkpt>
      <trkpt lat="45.90774" lon="6.50756">
        <ele>2436.3999023438</ele>
        <time>2014-02-12T09:45:19.000Z</time>
      </trkpt>
      <trkpt lat="45.90775" lon="6.50756">
        <ele>2436.6000976562</ele>
        <time>2014-02-12T09:45:20.000Z</time>
      </trkpt>
      <trkpt lat="45.90775" lon="6.50757">
        <ele>2436.8000488281</ele>
        <time>2014-02-12T09:45:21.000Z</time>
      </trkpt>
      <trkpt lat="45.90775" lon="6.50758">
        <ele>2437</ele>
        <time>2014-02-12T09:45:22.000Z</time>
      </trkpt>
      <trkpt lat="45.90775" lon="6.5076">
        <ele>2437.1999511719</ele>
        <time>2014-02-12T09:45:23.000Z</time>
      </trkpt>
      <trkpt lat="45.90775" lon="6.5076">
        <ele>2437.1999511719</ele>
        <time>2014-02-12T09:45:24.000Z</time>
      </trkpt>
      <trkpt lat="45.90775" lon="6.50762">
        <ele>2437.3999023438</ele>
        <time>2014-02-12T09:45:25.000Z</time>
      </trkpt>
      <trkpt lat="45.90776" lon="6.50764">
        <ele>2437.8000488281</ele>
        <time>2014-02-12T09:45:26.000Z</time>
      </trkpt>
      <trkpt lat="45.90776" lon="6.50764">
        <ele>2437.8000488281</ele>
        <time>2014-02-12T09:45:27.000Z</time>
      </trkpt>
      <trkpt lat="45.90776" lon="6.50765">
        <ele>2438</ele>
        <time>2014-02-12T09:45:28.000Z</time>
      </trkpt>
      <trkpt lat="45.90776" lon="6.50766">
        <ele>2438.1999511719</ele>
        <time>2014-02-12T09:45:29.000Z</time>
      </trkpt>
      <trkpt lat="45.90777" lon="6.50766">
        <ele>2438.3999023438</ele>
        <time>2014-02-12T09:45:30.000Z</time>
      </trkpt>
      <trkpt lat="45.90777" lon="6.50767">
        <ele>2438.6000976562</ele>
        <time>2014-02-12T09:45:31.000Z</time>
      </trkpt>
      <trkpt lat="45.90777" lon="6.50768">
        <ele>2438.8000488281</ele>
        <time>2014-02-12T09:45:32.000Z</time>
      </trkpt>
      <trkpt lat="45.90777" lon="6.50769">
        <ele>2439</ele>
        <time>2014-02-12T09:45:33.000Z</time>
      </trkpt>
      <trkpt lat="45.90778" lon="6.5077">
        <ele>2439.1999511719</ele>
        <time>2014-02-12T09:45:34.000Z</time>
      </trkpt>
      <trkpt lat="45.90778" lon="6.50771">
        <ele>2439.3999023438</ele>
        <time>2014-02-12T09:45:35.000Z</time>
      </trkpt>
      <trkpt lat="45.90778" lon="6.50773">
        <ele>2439.8000488281</ele>
        <time>2014-02-12T09:45:36.000Z</time>
      </trkpt>
      <trkpt lat="45.90778" lon="6.50773">
        <ele>2439.8000488281</ele>
        <time>2014-02-12T09:45:37.000Z</time>
      </trkpt>
      <trkpt lat="45.90778" lon="6.50775">
        <ele>2439.8000488281</ele>
        <time>2014-02-12T09:45:38.000Z</time>
      </trkpt>
      <trkpt lat="45.90778" lon="6.50778">
        <ele>2440.3999023438</ele>
        <time>2014-02-12T09:45:39.000Z</time>
      </trkpt>
      <trkpt lat="45.90778" lon="6.50778">
        <ele>2440.3999023438</ele>
        <time>2014-02-12T09:45:40.000Z</time>
      </trkpt>
      <trkpt lat="45.90779" lon="6.5078">
        <ele>2440.8000488281</ele>
        <time>2014-02-12T09:45:41.000Z</time>
      </trkpt>
      <trkpt lat="45.90779" lon="6.50782">
        <ele>2441.1999511719</ele>
        <time>2014-02-12T09:45:42.000Z</time>
      </trkpt>
      <trkpt lat="45.90779" lon="6.50782">
        <ele>2441.1999511719</ele>
        <time>2014-02-12T09:45:43.000Z</time>
      </trkpt>
      <trkpt lat="45.90779" lon="6.50783">
        <ele>2441.3999023438</ele>
        <time>2014-02-12T09:45:44.000Z</time>
      </trkpt>
      <trkpt lat="45.9078" lon="6.50785">
        <ele>2441.8000488281</ele>
        <time>2014-02-12T09:45:45.000Z</time>
      </trkpt>
      <trkpt lat="45.9078" lon="6.50785">
        <ele>2441.8000488281</ele>
        <time>2014-02-12T09:45:46.000Z</time>
      </trkpt>
      <trkpt lat="45.9078" lon="6.50786">
        <ele>2442</ele>
        <time>2014-02-12T09:45:47.000Z</time>
      </trkpt>
      <trkpt lat="45.90781" lon="6.50788">
        <ele>2442.3999023438</ele>
        <time>2014-02-12T09:45:48.000Z</time>
      </trkpt>
      <trkpt lat="45.90781" lon="6.50788">
        <ele>2442.6000976562</ele>
        <time>2014-02-12T09:45:49.000Z</time>
      </trkpt>
      <trkpt lat="45.90781" lon="6.50789">
        <ele>2442.8000488281</ele>
        <time>2014-02-12T09:45:50.000Z</time>
      </trkpt>
      <trkpt lat="45.90782" lon="6.50791">
        <ele>2443.1999511719</ele>
        <time>2014-02-12T09:45:51.000Z</time>
      </trkpt>
      <trkpt lat="45.90782" lon="6.50792">
        <ele>2443.1999511719</ele>
        <time>2014-02-12T09:45:52.000Z</time>
      </trkpt>
      <trkpt lat="45.90782" lon="6.50793">
        <ele>2443.6000976562</ele>
        <time>2014-02-12T09:45:53.000Z</time>
      </trkpt>
      <trkpt lat="45.90783" lon="6.50793">
        <ele>2444</ele>
        <time>2014-02-12T09:45:54.000Z</time>
      </trkpt>
      <trkpt lat="45.90783" lon="6.50795">
        <ele>2444.3999023438</ele>
        <time>2014-02-12T09:45:55.000Z</time>
      </trkpt>
      <trkpt lat="45.90783" lon="6.50796">
        <ele>2444.6000976562</ele>
        <time>2014-02-12T09:45:56.000Z</time>
      </trkpt>
      <trkpt lat="45.90782" lon="6.50797">
        <ele>2445</ele>
        <time>2014-02-12T09:45:57.000Z</time>
      </trkpt>
      <trkpt lat="45.90782" lon="6.50798">
        <ele>2445.3999023438</ele>
        <time>2014-02-12T09:45:58.000Z</time>
      </trkpt>
      <trkpt lat="45.90783" lon="6.50799">
        <ele>2445.8000488281</ele>
        <time>2014-02-12T09:45:59.000Z</time>
      </trkpt>
      <trkpt lat="45.90783" lon="6.50801">
        <ele>2446.3999023438</ele>
        <time>2014-02-12T09:46:00.000Z</time>
      </trkpt>
      <trkpt lat="45.90783" lon="6.50801">
        <ele>2446.6000976562</ele>
        <time>2014-02-12T09:46:01.000Z</time>
      </trkpt>
      <trkpt lat="45.90783" lon="6.50802">
        <ele>2446.8000488281</ele>
        <time>2014-02-12T09:46:02.000Z</time>
      </trkpt>
      <trkpt lat="45.90783" lon="6.50803">
        <ele>2447.1999511719</ele>
        <time>2014-02-12T09:46:03.000Z</time>
      </trkpt>
      <trkpt lat="45.90783" lon="6.50804">
        <ele>2447.6000976562</ele>
        <time>2014-02-12T09:46:04.000Z</time>
      </trkpt>
      <trkpt lat="45.90783" lon="6.50805">
        <ele>2448</ele>
        <time>2014-02-12T09:46:05.000Z</time>
      </trkpt>
      <trkpt lat="45.90784" lon="6.50807">
        <ele>2448.8000488281</ele>
        <time>2014-02-12T09:46:06.000Z</time>
      </trkpt>
      <trkpt lat="45.90784" lon="6.50809">
        <ele>2449.1999511719</ele>
        <time>2014-02-12T09:46:07.000Z</time>
      </trkpt>
      <trkpt lat="45.90784" lon="6.50809">
        <ele>2449.1999511719</ele>
        <time>2014-02-12T09:46:08.000Z</time>
      </trkpt>
      <trkpt lat="45.90784" lon="6.50811">
        <ele>2450</ele>
        <time>2014-02-12T09:46:09.000Z</time>
      </trkpt>
      <trkpt lat="45.90784" lon="6.50811">
        <ele>2450.1999511719</ele>
        <time>2014-02-12T09:46:10.000Z</time>
      </trkpt>
      <trkpt lat="45.90785" lon="6.50813">
        <ele>2450.6000976562</ele>
        <time>2014-02-12T09:46:11.000Z</time>
      </trkpt>
      <trkpt lat="45.90785" lon="6.50815">
        <ele>2451.3999023438</ele>
        <time>2014-02-12T09:46:12.000Z</time>
      </trkpt>
      <trkpt lat="45.90785" lon="6.50815">
        <ele>2451.3999023438</ele>
        <time>2014-02-12T09:46:13.000Z</time>
      </trkpt>
      <trkpt lat="45.90785" lon="6.50816">
        <ele>2451.8000488281</ele>
        <time>2014-02-12T09:46:14.000Z</time>
      </trkpt>
      <trkpt lat="45.90785" lon="6.50817">
        <ele>2452.1999511719</ele>
        <time>2014-02-12T09:46:15.000Z</time>
      </trkpt>
      <trkpt lat="45.90786" lon="6.50818">
        <ele>2452.1999511719</ele>
        <time>2014-02-12T09:46:16.000Z</time>
      </trkpt>
      <trkpt lat="45.90786" lon="6.50819">
        <ele>2452.1999511719</ele>
        <time>2014-02-12T09:46:17.000Z</time>
      </trkpt>
      <trkpt lat="45.90786" lon="6.50819">
        <ele>2452.3999023438</ele>
        <time>2014-02-12T09:46:18.000Z</time>
      </trkpt>
      <trkpt lat="45.90786" lon="6.50819">
        <ele>2452.3999023438</ele>
        <time>2014-02-12T09:46:19.000Z</time>
      </trkpt>
      <trkpt lat="45.90786" lon="6.50819">
        <ele>2452.3999023438</ele>
        <time>2014-02-12T09:46:20.000Z</time>
      </trkpt>
      <trkpt lat="45.90786" lon="6.50819">
        <ele>2452.3999023438</ele>
        <time>2014-02-12T09:46:21.000Z</time>
      </trkpt>
      <trkpt lat="45.90786" lon="6.50819">
        <ele>2452.3999023438</ele>
        <time>2014-02-12T09:46:22.000Z</time>
      </trkpt>
      <trkpt lat="45.90787" lon="6.5082">
        <ele>2452.3999023438</ele>
        <time>2014-02-12T09:46:23.000Z</time>
      </trkpt>
      <trkpt lat="45.90787" lon="6.5082">
        <ele>2452.3999023438</ele>
        <time>2014-02-12T09:46:24.000Z</time>
      </trkpt>
      <trkpt lat="45.90788" lon="6.50821">
        <ele>2452.3999023438</ele>
        <time>2014-02-12T09:46:25.000Z</time>
      </trkpt>
      <trkpt lat="45.90788" lon="6.50822">
        <ele>2452.6000976562</ele>
        <time>2014-02-12T09:46:26.000Z</time>
      </trkpt>
      <trkpt lat="45.90789" lon="6.50822">
        <ele>2452.6000976562</ele>
        <time>2014-02-12T09:46:27.000Z</time>
      </trkpt>
      <trkpt lat="45.90789" lon="6.50823">
        <ele>2452.6000976562</ele>
        <time>2014-02-12T09:46:28.000Z</time>
      </trkpt>
      <trkpt lat="45.90789" lon="6.50824">
        <ele>2452.6000976562</ele>
        <time>2014-02-12T09:46:29.000Z</time>
      </trkpt>
      <trkpt lat="45.90789" lon="6.50825">
        <ele>2452.8000488281</ele>
        <time>2014-02-12T09:46:30.000Z</time>
      </trkpt>
      <trkpt lat="45.9079" lon="6.50826">
        <ele>2452.8000488281</ele>
        <time>2014-02-12T09:46:31.000Z</time>
      </trkpt>
      <trkpt lat="45.9079" lon="6.50827">
        <ele>2452.8000488281</ele>
        <time>2014-02-12T09:46:32.000Z</time>
      </trkpt>
      <trkpt lat="45.90791" lon="6.50828">
        <ele>2452.8000488281</ele>
        <time>2014-02-12T09:46:33.000Z</time>
      </trkpt>
      <trkpt lat="45.90792" lon="6.5083">
        <ele>2453</ele>
        <time>2014-02-12T09:46:34.000Z</time>
      </trkpt>
      <trkpt lat="45.90792" lon="6.5083">
        <ele>2453</ele>
        <time>2014-02-12T09:46:35.000Z</time>
      </trkpt>
      <trkpt lat="45.90793" lon="6.50831">
        <ele>2453.1999511719</ele>
        <time>2014-02-12T09:46:36.000Z</time>
      </trkpt>
      <trkpt lat="45.90793" lon="6.50833">
        <ele>2453.1999511719</ele>
        <time>2014-02-12T09:46:37.000Z</time>
      </trkpt>
      <trkpt lat="45.90794" lon="6.50834">
        <ele>2453.1999511719</ele>
        <time>2014-02-12T09:46:38.000Z</time>
      </trkpt>
      <trkpt lat="45.90794" lon="6.50835">
        <ele>2453.1999511719</ele>
        <time>2014-02-12T09:46:39.000Z</time>
      </trkpt>
      <trkpt lat="45.90795" lon="6.50836">
        <ele>2453.3999023438</ele>
        <time>2014-02-12T09:46:40.000Z</time>
      </trkpt>
      <trkpt lat="45.90795" lon="6.50837">
        <ele>2453.3999023438</ele>
        <time>2014-02-12T09:46:41.000Z</time>
      </trkpt>
      <trkpt lat="45.90795" lon="6.50838">
        <ele>2453.3999023438</ele>
        <time>2014-02-12T09:46:42.000Z</time>
      </trkpt>
      <trkpt lat="45.90796" lon="6.50838">
        <ele>2453.6000976562</ele>
        <time>2014-02-12T09:46:43.000Z</time>
      </trkpt>
      <trkpt lat="45.90796" lon="6.50839">
        <ele>2453.6000976562</ele>
        <time>2014-02-12T09:46:44.000Z</time>
      </trkpt>
      <trkpt lat="45.90797" lon="6.5084">
        <ele>2453.6000976562</ele>
        <time>2014-02-12T09:46:45.000Z</time>
      </trkpt>
      <trkpt lat="45.90797" lon="6.50841">
        <ele>2453.6000976562</ele>
        <time>2014-02-12T09:46:46.000Z</time>
      </trkpt>
      <trkpt lat="45.90797" lon="6.50842">
        <ele>2453.8000488281</ele>
        <time>2014-02-12T09:46:47.000Z</time>
      </trkpt>
      <trkpt lat="45.90798" lon="6.50842">
        <ele>2453.8000488281</ele>
        <time>2014-02-12T09:46:48.000Z</time>
      </trkpt>
      <trkpt lat="45.90798" lon="6.50843">
        <ele>2453.8000488281</ele>
        <time>2014-02-12T09:46:49.000Z</time>
      </trkpt>
      <trkpt lat="45.90799" lon="6.50844">
        <ele>2454</ele>
        <time>2014-02-12T09:46:50.000Z</time>
      </trkpt>
      <trkpt lat="45.90799" lon="6.50844">
        <ele>2454</ele>
        <time>2014-02-12T09:46:51.000Z</time>
      </trkpt>
      <trkpt lat="45.90799" lon="6.50845">
        <ele>2454</ele>
        <time>2014-02-12T09:46:52.000Z</time>
      </trkpt>
      <trkpt lat="45.90799" lon="6.50845">
        <ele>2454</ele>
        <time>2014-02-12T09:46:53.000Z</time>
      </trkpt>
      <trkpt lat="45.90799" lon="6.50846">
        <ele>2454</ele>
        <time>2014-02-12T09:46:54.000Z</time>
      </trkpt>
      <trkpt lat="45.90799" lon="6.50847">
        <ele>2454</ele>
        <time>2014-02-12T09:46:55.000Z</time>
      </trkpt>
      <trkpt lat="45.90798" lon="6.50848">
        <ele>2453.8000488281</ele>
        <time>2014-02-12T09:46:56.000Z</time>
      </trkpt>
      <trkpt lat="45.90798" lon="6.50848">
        <ele>2453.8000488281</ele>
        <time>2014-02-12T09:46:57.000Z</time>
      </trkpt>
      <trkpt lat="45.90798" lon="6.50849">
        <ele>2453.8000488281</ele>
        <time>2014-02-12T09:46:58.000Z</time>
      </trkpt>
      <trkpt lat="45.90797" lon="6.50851">
        <ele>2453.6000976562</ele>
        <time>2014-02-12T09:46:59.000Z</time>
      </trkpt>
      <trkpt lat="45.90796" lon="6.50851">
        <ele>2453.6000976562</ele>
        <time>2014-02-12T09:47:00.000Z</time>
      </trkpt>
      <trkpt lat="45.90796" lon="6.50851">
        <ele>2453.6000976562</ele>
        <time>2014-02-12T09:47:01.000Z</time>
      </trkpt>
      <trkpt lat="45.90796" lon="6.50851">
        <ele>2453.6000976562</ele>
        <time>2014-02-12T09:47:02.000Z</time>
      </trkpt>
      <trkpt lat="45.90796" lon="6.50851">
        <ele>2453.6000976562</ele>
        <time>2014-02-12T09:47:03.000Z</time>
      </trkpt>
      <trkpt lat="45.90796" lon="6.50851">
        <ele>2453.6000976562</ele>
        <time>2014-02-12T09:47:04.000Z</time>
      </trkpt>
      <trkpt lat="45.90796" lon="6.50851">
        <ele>2453.6000976562</ele>
        <time>2014-02-12T09:47:05.000Z</time>
      </trkpt>
      <trkpt lat="45.90796" lon="6.50851">
        <ele>2453.6000976562</ele>
        <time>2014-02-12T09:47:06.000Z</time>
      </trkpt>
      <trkpt lat="45.90796" lon="6.50851">
        <ele>2453.6000976562</ele>
        <time>2014-02-12T09:47:07.000Z</time>
      </trkpt>
      <trkpt lat="45.90796" lon="6.50851">
        <ele>2453.6000976562</ele>
        <time>2014-02-12T09:47:08.000Z</time>
      </trkpt>
      <trkpt lat="45.90796" lon="6.50851">
        <ele>2453.6000976562</ele>
        <time>2014-02-12T09:47:09.000Z</time>
      </trkpt>
      <trkpt lat="45.90796" lon="6.50851">
        <ele>2453.6000976562</ele>
        <time>2014-02-12T09:47:10.000Z</time>
      </trkpt>
      <trkpt lat="45.90796" lon="6.50851">
        <ele>2453.6000976562</ele>
        <time>2014-02-12T09:47:11.000Z</time>
      </trkpt>
      <trkpt lat="45.90796" lon="6.50851">
        <ele>2453.6000976562</ele>
        <time>2014-02-12T09:47:12.000Z</time>
      </trkpt>
      <trkpt lat="45.90796" lon="6.50851">
        <ele>2453.6000976562</ele>
        <time>2014-02-12T09:47:13.000Z</time>
      </trkpt>
      <trkpt lat="45.90796" lon="6.50851">
        <ele>2453.6000976562</ele>
        <time>2014-02-12T09:47:14.000Z</time>
      </trkpt>
      <trkpt lat="45.90796" lon="6.50851">
        <ele>2453.6000976562</ele>
        <time>2014-02-12T09:47:15.000Z</time>
      </trkpt>
      <trkpt lat="45.90796" lon="6.50851">
        <ele>2453.6000976562</ele>
        <time>2014-02-12T09:47:16.000Z</time>
      </trkpt>
      <trkpt lat="45.90796" lon="6.50851">
        <ele>2453.6000976562</ele>
        <time>2014-02-12T09:47:17.000Z</time>
      </trkpt>
      <trkpt lat="45.90796" lon="6.50851">
        <ele>2453.6000976562</ele>
        <time>2014-02-12T09:47:18.000Z</time>
      </trkpt>
      <trkpt lat="45.90796" lon="6.50851">
        <ele>2453.6000976562</ele>
        <time>2014-02-12T09:47:19.000Z</time>
      </trkpt>
      <trkpt lat="45.90796" lon="6.50851">
        <ele>2453.6000976562</ele>
        <time>2014-02-12T09:47:20.000Z</time>
      </trkpt>
      <trkpt lat="45.90796" lon="6.50851">
        <ele>2453.6000976562</ele>
        <time>2014-02-12T09:47:21.000Z</time>
      </trkpt>
      <trkpt lat="45.90796" lon="6.50851">
        <ele>2453.6000976562</ele>
        <time>2014-02-12T09:47:22.000Z</time>
      </trkpt>
      <trkpt lat="45.90797" lon="6.50851">
        <ele>2453.6000976562</ele>
        <time>2014-02-12T09:47:23.000Z</time>
      </trkpt>
      <trkpt lat="45.90798" lon="6.50852">
        <ele>2453.8000488281</ele>
        <time>2014-02-12T09:47:24.000Z</time>
      </trkpt>
      <trkpt lat="45.90799" lon="6.50854">
        <ele>2454</ele>
        <time>2014-02-12T09:47:25.000Z</time>
      </trkpt>
      <trkpt lat="45.90799" lon="6.50855">
        <ele>2454</ele>
        <time>2014-02-12T09:47:26.000Z</time>
      </trkpt>
      <trkpt lat="45.90799" lon="6.50856">
        <ele>2454</ele>
        <time>2014-02-12T09:47:27.000Z</time>
      </trkpt>
      <trkpt lat="45.908" lon="6.50857">
        <ele>2454</ele>
        <time>2014-02-12T09:47:28.000Z</time>
      </trkpt>
      <trkpt lat="45.908" lon="6.50858">
        <ele>2454.1999511719</ele>
        <time>2014-02-12T09:47:29.000Z</time>
      </trkpt>
      <trkpt lat="45.90801" lon="6.50859">
        <ele>2454.1999511719</ele>
        <time>2014-02-12T09:47:30.000Z</time>
      </trkpt>
      <trkpt lat="45.90802" lon="6.50859">
        <ele>2454.3999023438</ele>
        <time>2014-02-12T09:47:31.000Z</time>
      </trkpt>
      <trkpt lat="45.90802" lon="6.5086">
        <ele>2454.3999023438</ele>
        <time>2014-02-12T09:47:32.000Z</time>
      </trkpt>
      <trkpt lat="45.90803" lon="6.50861">
        <ele>2454.3999023438</ele>
        <time>2014-02-12T09:47:33.000Z</time>
      </trkpt>
      <trkpt lat="45.90804" lon="6.50862">
        <ele>2454.6000976562</ele>
        <time>2014-02-12T09:47:34.000Z</time>
      </trkpt>
      <trkpt lat="45.90804" lon="6.50863">
        <ele>2454.6000976562</ele>
        <time>2014-02-12T09:47:35.000Z</time>
      </trkpt>
      <trkpt lat="45.90804" lon="6.50863">
        <ele>2454.6000976562</ele>
        <time>2014-02-12T09:47:36.000Z</time>
      </trkpt>
      <trkpt lat="45.90805" lon="6.50864">
        <ele>2454.8000488281</ele>
        <time>2014-02-12T09:47:37.000Z</time>
      </trkpt>
      <trkpt lat="45.90805" lon="6.50864">
        <ele>2454.8000488281</ele>
        <time>2014-02-12T09:47:38.000Z</time>
      </trkpt>
      <trkpt lat="45.90805" lon="6.50864">
        <ele>2454.8000488281</ele>
        <time>2014-02-12T09:47:39.000Z</time>
      </trkpt>
      <trkpt lat="45.90805" lon="6.50864">
        <ele>2454.8000488281</ele>
        <time>2014-02-12T09:47:40.000Z</time>
      </trkpt>
      <trkpt lat="45.90805" lon="6.50864">
        <ele>2454.8000488281</ele>
        <time>2014-02-12T09:47:41.000Z</time>
      </trkpt>
      <trkpt lat="45.90805" lon="6.50864">
        <ele>2454.8000488281</ele>
        <time>2014-02-12T09:47:42.000Z</time>
      </trkpt>
      <trkpt lat="45.90805" lon="6.50864">
        <ele>2454.8000488281</ele>
        <time>2014-02-12T09:47:43.000Z</time>
      </trkpt>
      <trkpt lat="45.90805" lon="6.50864">
        <ele>2454.8000488281</ele>
        <time>2014-02-12T09:47:44.000Z</time>
      </trkpt>
      <trkpt lat="45.90805" lon="6.50864">
        <ele>2454.8000488281</ele>
        <time>2014-02-12T09:47:45.000Z</time>
      </trkpt>
      <trkpt lat="45.90805" lon="6.50864">
        <ele>2454.8000488281</ele>
        <time>2014-02-12T09:47:46.000Z</time>
      </trkpt>
      <trkpt lat="45.90805" lon="6.50864">
        <ele>2454.8000488281</ele>
        <time>2014-02-12T09:47:47.000Z</time>
      </trkpt>
      <trkpt lat="45.90805" lon="6.50864">
        <ele>2454.8000488281</ele>
        <time>2014-02-12T09:47:48.000Z</time>
      </trkpt>
      <trkpt lat="45.90805" lon="6.50864">
        <ele>2454.8000488281</ele>
        <time>2014-02-12T09:47:49.000Z</time>
      </trkpt>
      <trkpt lat="45.90805" lon="6.50864">
        <ele>2454.8000488281</ele>
        <time>2014-02-12T09:47:50.000Z</time>
      </trkpt>
      <trkpt lat="45.90805" lon="6.50864">
        <ele>2454.8000488281</ele>
        <time>2014-02-12T09:47:51.000Z</time>
      </trkpt>
      <trkpt lat="45.90805" lon="6.50864">
        <ele>2454.8000488281</ele>
        <time>2014-02-12T09:47:52.000Z</time>
      </trkpt>
      <trkpt lat="45.90805" lon="6.50864">
        <ele>2454.8000488281</ele>
        <time>2014-02-12T09:47:53.000Z</time>
      </trkpt>
      <trkpt lat="45.90805" lon="6.50864">
        <ele>2454.8000488281</ele>
        <time>2014-02-12T09:47:54.000Z</time>
      </trkpt>
      <trkpt lat="45.90805" lon="6.50864">
        <ele>2454.8000488281</ele>
        <time>2014-02-12T09:47:55.000Z</time>
      </trkpt>
      <trkpt lat="45.90805" lon="6.50864">
        <ele>2454.8000488281</ele>
        <time>2014-02-12T09:47:56.000Z</time>
      </trkpt>
      <trkpt lat="45.90805" lon="6.50864">
        <ele>2454.8000488281</ele>
        <time>2014-02-12T09:47:57.000Z</time>
      </trkpt>
      <trkpt lat="45.90805" lon="6.50864">
        <ele>2454.8000488281</ele>
        <time>2014-02-12T09:47:58.000Z</time>
      </trkpt>
      <trkpt lat="45.90805" lon="6.50864">
        <ele>2454.8000488281</ele>
        <time>2014-02-12T09:47:59.000Z</time>
      </trkpt>
      <trkpt lat="45.90805" lon="6.50864">
        <ele>2454.8000488281</ele>
        <time>2014-02-12T09:48:00.000Z</time>
      </trkpt>
      <trkpt lat="45.90805" lon="6.50864">
        <ele>2454.8000488281</ele>
        <time>2014-02-12T09:48:01.000Z</time>
      </trkpt>
      <trkpt lat="45.90806" lon="6.50864">
        <ele>2454.8000488281</ele>
        <time>2014-02-12T09:48:02.000Z</time>
      </trkpt>
      <trkpt lat="45.90807" lon="6.50863">
        <ele>2455</ele>
        <time>2014-02-12T09:48:03.000Z</time>
      </trkpt>
      <trkpt lat="45.90808" lon="6.50862">
        <ele>2455.3999023438</ele>
        <time>2014-02-12T09:48:04.000Z</time>
      </trkpt>
      <trkpt lat="45.90808" lon="6.50862">
        <ele>2455.6000976562</ele>
        <time>2014-02-12T09:48:05.000Z</time>
      </trkpt>
      <trkpt lat="45.90809" lon="6.50861">
        <ele>2456</ele>
        <time>2014-02-12T09:48:06.000Z</time>
      </trkpt>
      <trkpt lat="45.9081" lon="6.5086">
        <ele>2456.6000976562</ele>
        <time>2014-02-12T09:48:07.000Z</time>
      </trkpt>
      <trkpt lat="45.90811" lon="6.50859">
        <ele>2457</ele>
        <time>2014-02-12T09:48:08.000Z</time>
      </trkpt>
      <trkpt lat="45.90811" lon="6.50859">
        <ele>2457.1999511719</ele>
        <time>2014-02-12T09:48:09.000Z</time>
      </trkpt>
      <trkpt lat="45.90812" lon="6.50859">
        <ele>2457.3999023438</ele>
        <time>2014-02-12T09:48:10.000Z</time>
      </trkpt>
      <trkpt lat="45.90812" lon="6.50859">
        <ele>2457.3999023438</ele>
        <time>2014-02-12T09:48:11.000Z</time>
      </trkpt>
      <trkpt lat="45.90812" lon="6.50859">
        <ele>2457.3999023438</ele>
        <time>2014-02-12T09:48:12.000Z</time>
      </trkpt>
      <trkpt lat="45.90812" lon="6.50859">
        <ele>2457.3999023438</ele>
        <time>2014-02-12T09:48:13.000Z</time>
      </trkpt>
      <trkpt lat="45.90812" lon="6.50858">
        <ele>2457.6000976562</ele>
        <time>2014-02-12T09:48:14.000Z</time>
      </trkpt>
      <trkpt lat="45.90813" lon="6.50857">
        <ele>2458</ele>
        <time>2014-02-12T09:48:15.000Z</time>
      </trkpt>
      <trkpt lat="45.90815" lon="6.50855">
        <ele>2458.8000488281</ele>
        <time>2014-02-12T09:48:16.000Z</time>
      </trkpt>
      <trkpt lat="45.90816" lon="6.50855">
        <ele>2459.3999023438</ele>
        <time>2014-02-12T09:48:17.000Z</time>
      </trkpt>
      <trkpt lat="45.90817" lon="6.50855">
        <ele>2459.8000488281</ele>
        <time>2014-02-12T09:48:18.000Z</time>
      </trkpt>
      <trkpt lat="45.90818" lon="6.50853">
        <ele>2460.6000976562</ele>
        <time>2014-02-12T09:48:19.000Z</time>
      </trkpt>
      <trkpt lat="45.90819" lon="6.50853">
        <ele>2460.8000488281</ele>
        <time>2014-02-12T09:48:20.000Z</time>
      </trkpt>
      <trkpt lat="45.90819" lon="6.50852">
        <ele>2461</ele>
        <time>2014-02-12T09:48:21.000Z</time>
      </trkpt>
      <trkpt lat="45.9082" lon="6.50852">
        <ele>2461.1999511719</ele>
        <time>2014-02-12T09:48:22.000Z</time>
      </trkpt>
      <trkpt lat="45.9082" lon="6.50851">
        <ele>2461.3999023438</ele>
        <time>2014-02-12T09:48:23.000Z</time>
      </trkpt>
      <trkpt lat="45.9082" lon="6.50851">
        <ele>2461.6000976562</ele>
        <time>2014-02-12T09:48:24.000Z</time>
      </trkpt>
      <trkpt lat="45.90821" lon="6.5085">
        <ele>2462</ele>
        <time>2014-02-12T09:48:25.000Z</time>
      </trkpt>
      <trkpt lat="45.90821" lon="6.5085">
        <ele>2462</ele>
        <time>2014-02-12T09:48:26.000Z</time>
      </trkpt>
      <trkpt lat="45.90821" lon="6.5085">
        <ele>2462</ele>
        <time>2014-02-12T09:48:27.000Z</time>
      </trkpt>
      <trkpt lat="45.90821" lon="6.5085">
        <ele>2462</ele>
        <time>2014-02-12T09:48:28.000Z</time>
      </trkpt>
      <trkpt lat="45.90821" lon="6.5085">
        <ele>2462</ele>
        <time>2014-02-12T09:48:29.000Z</time>
      </trkpt>
      <trkpt lat="45.90821" lon="6.5085">
        <ele>2462</ele>
        <time>2014-02-12T09:48:30.000Z</time>
      </trkpt>
      <trkpt lat="45.90821" lon="6.5085">
        <ele>2462</ele>
        <time>2014-02-12T09:48:31.000Z</time>
      </trkpt>
      <trkpt lat="45.90821" lon="6.50851">
        <ele>2462</ele>
        <time>2014-02-12T09:48:32.000Z</time>
      </trkpt>
      <trkpt lat="45.90822" lon="6.50851">
        <ele>2462.6000976562</ele>
        <time>2014-02-12T09:48:33.000Z</time>
      </trkpt>
      <trkpt lat="45.90823" lon="6.50853">
        <ele>2463</ele>
        <time>2014-02-12T09:48:34.000Z</time>
      </trkpt>
      <trkpt lat="45.90824" lon="6.50853">
        <ele>2463.3999023438</ele>
        <time>2014-02-12T09:48:35.000Z</time>
      </trkpt>
      <trkpt lat="45.90825" lon="6.50854">
        <ele>2463.8000488281</ele>
        <time>2014-02-12T09:48:36.000Z</time>
      </trkpt>
      <trkpt lat="45.90826" lon="6.50857">
        <ele>2464.3999023438</ele>
        <time>2014-02-12T09:48:37.000Z</time>
      </trkpt>
      <trkpt lat="45.90826" lon="6.50857">
        <ele>2464.6000976562</ele>
        <time>2014-02-12T09:48:38.000Z</time>
      </trkpt>
      <trkpt lat="45.90827" lon="6.50858">
        <ele>2465</ele>
        <time>2014-02-12T09:48:39.000Z</time>
      </trkpt>
      <trkpt lat="45.90828" lon="6.5086">
        <ele>2465.1999511719</ele>
        <time>2014-02-12T09:48:40.000Z</time>
      </trkpt>
      <trkpt lat="45.90828" lon="6.5086">
        <ele>2465.3999023438</ele>
        <time>2014-02-12T09:48:41.000Z</time>
      </trkpt>
      <trkpt lat="45.90829" lon="6.50861">
        <ele>2465.8000488281</ele>
        <time>2014-02-12T09:48:42.000Z</time>
      </trkpt>
      <trkpt lat="45.90829" lon="6.50862">
        <ele>2466</ele>
        <time>2014-02-12T09:48:43.000Z</time>
      </trkpt>
      <trkpt lat="45.90829" lon="6.50862">
        <ele>2466</ele>
        <time>2014-02-12T09:48:44.000Z</time>
      </trkpt>
      <trkpt lat="45.90829" lon="6.50862">
        <ele>2466</ele>
        <time>2014-02-12T09:48:45.000Z</time>
      </trkpt>
      <trkpt lat="45.90829" lon="6.50862">
        <ele>2466</ele>
        <time>2014-02-12T09:48:46.000Z</time>
      </trkpt>
      <trkpt lat="45.90829" lon="6.50862">
        <ele>2466</ele>
        <time>2014-02-12T09:48:47.000Z</time>
      </trkpt>
      <trkpt lat="45.90829" lon="6.50862">
        <ele>2466</ele>
        <time>2014-02-12T09:48:48.000Z</time>
      </trkpt>
      <trkpt lat="45.90829" lon="6.50862">
        <ele>2466</ele>
        <time>2014-02-12T09:48:49.000Z</time>
      </trkpt>
      <trkpt lat="45.90829" lon="6.50862">
        <ele>2466</ele>
        <time>2014-02-12T09:48:50.000Z</time>
      </trkpt>
      <trkpt lat="45.90829" lon="6.50862">
        <ele>2466</ele>
        <time>2014-02-12T09:48:51.000Z</time>
      </trkpt>
      <trkpt lat="45.90829" lon="6.50862">
        <ele>2466</ele>
        <time>2014-02-12T09:48:52.000Z</time>
      </trkpt>
      <trkpt lat="45.90829" lon="6.50862">
        <ele>2466</ele>
        <time>2014-02-12T09:48:53.000Z</time>
      </trkpt>
      <trkpt lat="45.90829" lon="6.50862">
        <ele>2466</ele>
        <time>2014-02-12T09:48:54.000Z</time>
      </trkpt>
      <trkpt lat="45.90829" lon="6.50862">
        <ele>2466</ele>
        <time>2014-02-12T09:48:55.000Z</time>
      </trkpt>
      <trkpt lat="45.90829" lon="6.50862">
        <ele>2466</ele>
        <time>2014-02-12T09:48:56.000Z</time>
      </trkpt>
      <trkpt lat="45.90829" lon="6.50862">
        <ele>2466</ele>
        <time>2014-02-12T09:48:57.000Z</time>
      </trkpt>
      <trkpt lat="45.90829" lon="6.50862">
        <ele>2466</ele>
        <time>2014-02-12T09:48:58.000Z</time>
      </trkpt>
      <trkpt lat="45.90829" lon="6.50862">
        <ele>2466</ele>
        <time>2014-02-12T09:48:59.000Z</time>
      </trkpt>
      <trkpt lat="45.90829" lon="6.50862">
        <ele>2466</ele>
        <time>2014-02-12T09:49:00.000Z</time>
      </trkpt>
      <trkpt lat="45.90829" lon="6.50862">
        <ele>2466</ele>
        <time>2014-02-12T09:49:01.000Z</time>
      </trkpt>
      <trkpt lat="45.90829" lon="6.50862">
        <ele>2466</ele>
        <time>2014-02-12T09:49:02.000Z</time>
      </trkpt>
      <trkpt lat="45.90829" lon="6.50862">
        <ele>2466</ele>
        <time>2014-02-12T09:49:03.000Z</time>
      </trkpt>
      <trkpt lat="45.90829" lon="6.50862">
        <ele>2466</ele>
        <time>2014-02-12T09:49:04.000Z</time>
      </trkpt>
      <trkpt lat="45.90829" lon="6.50862">
        <ele>2466</ele>
        <time>2014-02-12T09:49:05.000Z</time>
      </trkpt>
      <trkpt lat="45.90829" lon="6.50862">
        <ele>2466</ele>
        <time>2014-02-12T09:49:06.000Z</time>
      </trkpt>
      <trkpt lat="45.90829" lon="6.50862">
        <ele>2466</ele>
        <time>2014-02-12T09:49:07.000Z</time>
      </trkpt>
      <trkpt lat="45.90829" lon="6.50862">
        <ele>2466</ele>
        <time>2014-02-12T09:49:08.000Z</time>
      </trkpt>
      <trkpt lat="45.90829" lon="6.50862">
        <ele>2466</ele>
        <time>2014-02-12T09:49:09.000Z</time>
      </trkpt>
      <trkpt lat="45.90829" lon="6.50862">
        <ele>2466</ele>
        <time>2014-02-12T09:49:12.000Z</time>
      </trkpt>
      <trkpt lat="45.90829" lon="6.50862">
        <ele>2466</ele>
        <time>2014-02-12T09:49:13.000Z</time>
      </trkpt>
      <trkpt lat="45.90829" lon="6.50862">
        <ele>2466</ele>
        <time>2014-02-12T09:49:14.000Z</time>
      </trkpt>
      <trkpt lat="45.90829" lon="6.50862">
        <ele>2466</ele>
        <time>2014-02-12T09:49:16.000Z</time>
      </trkpt>
      <trkpt lat="45.90829" lon="6.50862">
        <ele>2466</ele>
        <time>2014-02-12T09:49:17.000Z</time>
      </trkpt>
      <trkpt lat="45.90829" lon="6.50862">
        <ele>2466</ele>
        <time>2014-02-12T09:49:18.000Z</time>
      </trkpt>
      <trkpt lat="45.90829" lon="6.50862">
        <ele>2466</ele>
        <time>2014-02-12T09:49:19.000Z</time>
      </trkpt>
      <trkpt lat="45.90829" lon="6.50862">
        <ele>2466</ele>
        <time>2014-02-12T09:49:20.000Z</time>
      </trkpt>
      <trkpt lat="45.90829" lon="6.50862">
        <ele>2466</ele>
        <time>2014-02-12T09:49:21.000Z</time>
      </trkpt>
      <trkpt lat="45.90829" lon="6.50862">
        <ele>2466</ele>
        <time>2014-02-12T09:49:22.000Z</time>
      </trkpt>
      <trkpt lat="45.9083" lon="6.50862">
        <ele>2466.1999511719</ele>
        <time>2014-02-12T09:49:23.000Z</time>
      </trkpt>
      <trkpt lat="45.9083" lon="6.50862">
        <ele>2466.1999511719</ele>
        <time>2014-02-12T09:49:24.000Z</time>
      </trkpt>
      <trkpt lat="45.9083" lon="6.50862">
        <ele>2466.1999511719</ele>
        <time>2014-02-12T09:49:25.000Z</time>
      </trkpt>
      <trkpt lat="45.9083" lon="6.50862">
        <ele>2466.1999511719</ele>
        <time>2014-02-12T09:49:26.000Z</time>
      </trkpt>
      <trkpt lat="45.9083" lon="6.50862">
        <ele>2466.1999511719</ele>
        <time>2014-02-12T09:49:27.000Z</time>
      </trkpt>
      <trkpt lat="45.9083" lon="6.50862">
        <ele>2466.1999511719</ele>
        <time>2014-02-12T09:49:28.000Z</time>
      </trkpt>
      <trkpt lat="45.9083" lon="6.50862">
        <ele>2466.1999511719</ele>
        <time>2014-02-12T09:49:29.000Z</time>
      </trkpt>
      <trkpt lat="45.9083" lon="6.50862">
        <ele>2466.1999511719</ele>
        <time>2014-02-12T09:49:30.000Z</time>
      </trkpt>
      <trkpt lat="45.9083" lon="6.50862">
        <ele>2466.1999511719</ele>
        <time>2014-02-12T09:49:31.000Z</time>
      </trkpt>
      <trkpt lat="45.9083" lon="6.50862">
        <ele>2466.1999511719</ele>
        <time>2014-02-12T09:49:32.000Z</time>
      </trkpt>
      <trkpt lat="45.9083" lon="6.50862">
        <ele>2466.1999511719</ele>
        <time>2014-02-12T09:49:34.000Z</time>
      </trkpt>
      <trkpt lat="45.9083" lon="6.50862">
        <ele>2466.1999511719</ele>
        <time>2014-02-12T09:49:35.000Z</time>
      </trkpt>
      <trkpt lat="45.9083" lon="6.50862">
        <ele>2466.1999511719</ele>
        <time>2014-02-12T09:49:38.000Z</time>
      </trkpt>
      <trkpt lat="45.9083" lon="6.50862">
        <ele>2466.1999511719</ele>
        <time>2014-02-12T09:49:39.000Z</time>
      </trkpt>
      <trkpt lat="45.9083" lon="6.50862">
        <ele>2466.1999511719</ele>
        <time>2014-02-12T09:49:42.000Z</time>
      </trkpt>
      <trkpt lat="45.9083" lon="6.50862">
        <ele>2466.1999511719</ele>
        <time>2014-02-12T09:49:43.000Z</time>
      </trkpt>
      <trkpt lat="45.9083" lon="6.50862">
        <ele>2466.1999511719</ele>
        <time>2014-02-12T09:49:46.000Z</time>
      </trkpt>
      <trkpt lat="45.9083" lon="6.50862">
        <ele>2466.1999511719</ele>
        <time>2014-02-12T09:49:47.000Z</time>
      </trkpt>
      <trkpt lat="45.9083" lon="6.50862">
        <ele>2466.1999511719</ele>
        <time>2014-02-12T09:49:48.000Z</time>
      </trkpt>
      <trkpt lat="45.9083" lon="6.50862">
        <ele>2466.1999511719</ele>
        <time>2014-02-12T09:49:49.000Z</time>
      </trkpt>
      <trkpt lat="45.9083" lon="6.50862">
        <ele>2466.1999511719</ele>
        <time>2014-02-12T09:49:50.000Z</time>
      </trkpt>
      <trkpt lat="45.9083" lon="6.50862">
        <ele>2466.1999511719</ele>
        <time>2014-02-12T09:49:51.000Z</time>
      </trkpt>
      <trkpt lat="45.9083" lon="6.50862">
        <ele>2466.1999511719</ele>
        <time>2014-02-12T09:49:52.000Z</time>
      </trkpt>
      <trkpt lat="45.9083" lon="6.50862">
        <ele>2466.1999511719</ele>
        <time>2014-02-12T09:49:53.000Z</time>
      </trkpt>
      <trkpt lat="45.9083" lon="6.50862">
        <ele>2466.1999511719</ele>
        <time>2014-02-12T09:49:54.000Z</time>
      </trkpt>
      <trkpt lat="45.9083" lon="6.50862">
        <ele>2466.1999511719</ele>
        <time>2014-02-12T09:49:55.000Z</time>
      </trkpt>
      <trkpt lat="45.9083" lon="6.50862">
        <ele>2466.1999511719</ele>
        <time>2014-02-12T09:49:56.000Z</time>
      </trkpt>
      <trkpt lat="45.9083" lon="6.50862">
        <ele>2466.1999511719</ele>
        <time>2014-02-12T09:49:59.000Z</time>
      </trkpt>
      <trkpt lat="45.9083" lon="6.50862">
        <ele>2466.1999511719</ele>
        <time>2014-02-12T09:50:01.000Z</time>
      </trkpt>
      <trkpt lat="45.9083" lon="6.50862">
        <ele>2466.1999511719</ele>
        <time>2014-02-12T09:50:02.000Z</time>
      </trkpt>
      <trkpt lat="45.9083" lon="6.50863">
        <ele>2466.6000976562</ele>
        <time>2014-02-12T09:50:03.000Z</time>
      </trkpt>
      <trkpt lat="45.9083" lon="6.50863">
        <ele>2466.6000976562</ele>
        <time>2014-02-12T09:50:04.000Z</time>
      </trkpt>
      <trkpt lat="45.9083" lon="6.50863">
        <ele>2466.6000976562</ele>
        <time>2014-02-12T09:50:05.000Z</time>
      </trkpt>
      <trkpt lat="45.9083" lon="6.50863">
        <ele>2466.6000976562</ele>
        <time>2014-02-12T09:50:06.000Z</time>
      </trkpt>
      <trkpt lat="45.9083" lon="6.50863">
        <ele>2466.6000976562</ele>
        <time>2014-02-12T09:50:07.000Z</time>
      </trkpt>
      <trkpt lat="45.9083" lon="6.50863">
        <ele>2466.6000976562</ele>
        <time>2014-02-12T09:50:08.000Z</time>
      </trkpt>
      <trkpt lat="45.9083" lon="6.50863">
        <ele>2466.6000976562</ele>
        <time>2014-02-12T09:50:09.000Z</time>
      </trkpt>
      <trkpt lat="45.9083" lon="6.50863">
        <ele>2466.6000976562</ele>
        <time>2014-02-12T09:50:10.000Z</time>
      </trkpt>
      <trkpt lat="45.9083" lon="6.50863">
        <ele>2466.6000976562</ele>
        <time>2014-02-12T09:50:11.000Z</time>
      </trkpt>
      <trkpt lat="45.9083" lon="6.50863">
        <ele>2466.6000976562</ele>
        <time>2014-02-12T09:50:12.000Z</time>
      </trkpt>
      <trkpt lat="45.9083" lon="6.50863">
        <ele>2466.6000976562</ele>
        <time>2014-02-12T09:50:13.000Z</time>
      </trkpt>
      <trkpt lat="45.9083" lon="6.50863">
        <ele>2466.6000976562</ele>
        <time>2014-02-12T09:50:14.000Z</time>
      </trkpt>
      <trkpt lat="45.9083" lon="6.50863">
        <ele>2466.6000976562</ele>
        <time>2014-02-12T09:50:15.000Z</time>
      </trkpt>
      <trkpt lat="45.9083" lon="6.50863">
        <ele>2466.6000976562</ele>
        <time>2014-02-12T09:50:16.000Z</time>
      </trkpt>
      <trkpt lat="45.9083" lon="6.50863">
        <ele>2466.6000976562</ele>
        <time>2014-02-12T09:50:18.000Z</time>
      </trkpt>
      <trkpt lat="45.9083" lon="6.50863">
        <ele>2466.6000976562</ele>
        <time>2014-02-12T09:50:19.000Z</time>
      </trkpt>
      <trkpt lat="45.9083" lon="6.50863">
        <ele>2466.6000976562</ele>
        <time>2014-02-12T09:50:20.000Z</time>
      </trkpt>
      <trkpt lat="45.9083" lon="6.50863">
        <ele>2466.6000976562</ele>
        <time>2014-02-12T09:50:21.000Z</time>
      </trkpt>
      <trkpt lat="45.9083" lon="6.50863">
        <ele>2466.6000976562</ele>
        <time>2014-02-12T09:50:22.000Z</time>
      </trkpt>
      <trkpt lat="45.9083" lon="6.50863">
        <ele>2466.6000976562</ele>
        <time>2014-02-12T09:50:24.000Z</time>
      </trkpt>
      <trkpt lat="45.9083" lon="6.50863">
        <ele>2466.6000976562</ele>
        <time>2014-02-12T09:50:27.000Z</time>
      </trkpt>
      <trkpt lat="45.9083" lon="6.50863">
        <ele>2466.6000976562</ele>
        <time>2014-02-12T09:50:28.000Z</time>
      </trkpt>
      <trkpt lat="45.9083" lon="6.50863">
        <ele>2466.6000976562</ele>
        <time>2014-02-12T09:50:32.000Z</time>
      </trkpt>
      <trkpt lat="45.9083" lon="6.50863">
        <ele>2466.6000976562</ele>
        <time>2014-02-12T09:50:37.000Z</time>
      </trkpt>
      <trkpt lat="45.9083" lon="6.50863">
        <ele>2466.6000976562</ele>
        <time>2014-02-12T09:50:38.000Z</time>
      </trkpt>
      <trkpt lat="45.9083" lon="6.50863">
        <ele>2466.6000976562</ele>
        <time>2014-02-12T09:50:40.000Z</time>
      </trkpt>
      <trkpt lat="45.90831" lon="6.50863">
        <ele>2467</ele>
        <time>2014-02-12T09:50:44.000Z</time>
      </trkpt>
      <trkpt lat="45.90831" lon="6.50863">
        <ele>2467</ele>
        <time>2014-02-12T09:50:45.000Z</time>
      </trkpt>
      <trkpt lat="45.90831" lon="6.50863">
        <ele>2467</ele>
        <time>2014-02-12T09:50:47.000Z</time>
      </trkpt>
      <trkpt lat="45.90831" lon="6.50863">
        <ele>2467</ele>
        <time>2014-02-12T09:50:49.000Z</time>
      </trkpt>
      <trkpt lat="45.90831" lon="6.50863">
        <ele>2467</ele>
        <time>2014-02-12T09:50:53.000Z</time>
      </trkpt>
      <trkpt lat="45.90831" lon="6.50863">
        <ele>2467</ele>
        <time>2014-02-12T09:50:54.000Z</time>
      </trkpt>
      <trkpt lat="45.90831" lon="6.50863">
        <ele>2467</ele>
        <time>2014-02-12T09:50:55.000Z</time>
      </trkpt>
      <trkpt lat="45.90831" lon="6.50863">
        <ele>2467</ele>
        <time>2014-02-12T09:50:56.000Z</time>
      </trkpt>
      <trkpt lat="45.90831" lon="6.50863">
        <ele>2467</ele>
        <time>2014-02-12T09:50:57.000Z</time>
      </trkpt>
      <trkpt lat="45.90831" lon="6.50863">
        <ele>2467</ele>
        <time>2014-02-12T09:50:58.000Z</time>
      </trkpt>
      <trkpt lat="45.90831" lon="6.50863">
        <ele>2467</ele>
        <time>2014-02-12T09:51:00.000Z</time>
      </trkpt>
      <trkpt lat="45.90831" lon="6.50863">
        <ele>2467</ele>
        <time>2014-02-12T09:51:01.000Z</time>
      </trkpt>
      <trkpt lat="45.90831" lon="6.50863">
        <ele>2467</ele>
        <time>2014-02-12T09:51:02.000Z</time>
      </trkpt>
      <trkpt lat="45.90831" lon="6.50863">
        <ele>2467</ele>
        <time>2014-02-12T09:51:04.000Z</time>
      </trkpt>
      <trkpt lat="45.90831" lon="6.50863">
        <ele>2467</ele>
        <time>2014-02-12T09:51:05.000Z</time>
      </trkpt>
      <trkpt lat="45.90831" lon="6.50863">
        <ele>2467</ele>
        <time>2014-02-12T09:51:06.000Z</time>
      </trkpt>
      <trkpt lat="45.90831" lon="6.50863">
        <ele>2467</ele>
        <time>2014-02-12T09:51:07.000Z</time>
      </trkpt>
      <trkpt lat="45.90831" lon="6.50863">
        <ele>2467</ele>
        <time>2014-02-12T09:51:09.000Z</time>
      </trkpt>
      <trkpt lat="45.90831" lon="6.50863">
        <ele>2467</ele>
        <time>2014-02-12T09:51:10.000Z</time>
      </trkpt>
      <trkpt lat="45.90831" lon="6.50863">
        <ele>2467</ele>
        <time>2014-02-12T09:51:11.000Z</time>
      </trkpt>
      <trkpt lat="45.90831" lon="6.50863">
        <ele>2467</ele>
        <time>2014-02-12T09:51:12.000Z</time>
      </trkpt>
      <trkpt lat="45.90831" lon="6.50863">
        <ele>2467</ele>
        <time>2014-02-12T09:51:13.000Z</time>
      </trkpt>
      <trkpt lat="45.90831" lon="6.50863">
        <ele>2467</ele>
        <time>2014-02-12T09:51:14.000Z</time>
      </trkpt>
      <trkpt lat="45.90831" lon="6.50863">
        <ele>2467</ele>
        <time>2014-02-12T09:51:16.000Z</time>
      </trkpt>
      <trkpt lat="45.90831" lon="6.50863">
        <ele>2467</ele>
        <time>2014-02-12T09:51:17.000Z</time>
      </trkpt>
      <trkpt lat="45.90831" lon="6.50863">
        <ele>2467</ele>
        <time>2014-02-12T09:51:19.000Z</time>
      </trkpt>
      <trkpt lat="45.90831" lon="6.50863">
        <ele>2467</ele>
        <time>2014-02-12T09:51:20.000Z</time>
      </trkpt>
      <trkpt lat="45.90831" lon="6.50863">
        <ele>2467</ele>
        <time>2014-02-12T09:51:21.000Z</time>
      </trkpt>
      <trkpt lat="45.90832" lon="6.50864">
        <ele>2467.1999511719</ele>
        <time>2014-02-12T09:51:23.000Z</time>
      </trkpt>
      <trkpt lat="45.90832" lon="6.50864">
        <ele>2467.1999511719</ele>
        <time>2014-02-12T09:51:24.000Z</time>
      </trkpt>
      <trkpt lat="45.90832" lon="6.50864">
        <ele>2467.1999511719</ele>
        <time>2014-02-12T09:51:25.000Z</time>
      </trkpt>
      <trkpt lat="45.90832" lon="6.50864">
        <ele>2467.1999511719</ele>
        <time>2014-02-12T09:51:26.000Z</time>
      </trkpt>
      <trkpt lat="45.90832" lon="6.50864">
        <ele>2467.1999511719</ele>
        <time>2014-02-12T09:51:27.000Z</time>
      </trkpt>
      <trkpt lat="45.90832" lon="6.50864">
        <ele>2467.1999511719</ele>
        <time>2014-02-12T09:51:28.000Z</time>
      </trkpt>
      <trkpt lat="45.90832" lon="6.50864">
        <ele>2467.1999511719</ele>
        <time>2014-02-12T09:51:29.000Z</time>
      </trkpt>
      <trkpt lat="45.90832" lon="6.50864">
        <ele>2467.1999511719</ele>
        <time>2014-02-12T09:51:30.000Z</time>
      </trkpt>
      <trkpt lat="45.90832" lon="6.50864">
        <ele>2467.1999511719</ele>
        <time>2014-02-12T09:51:31.000Z</time>
      </trkpt>
      <trkpt lat="45.90832" lon="6.50864">
        <ele>2467.1999511719</ele>
        <time>2014-02-12T09:51:32.000Z</time>
      </trkpt>
      <trkpt lat="45.90832" lon="6.50864">
        <ele>2467.1999511719</ele>
        <time>2014-02-12T09:51:33.000Z</time>
      </trkpt>
      <trkpt lat="45.90832" lon="6.50864">
        <ele>2467.1999511719</ele>
        <time>2014-02-12T09:51:34.000Z</time>
      </trkpt>
      <trkpt lat="45.90833" lon="6.50865">
        <ele>2468</ele>
        <time>2014-02-12T09:51:35.000Z</time>
      </trkpt>
      <trkpt lat="45.90833" lon="6.50865">
        <ele>2468</ele>
        <time>2014-02-12T09:51:36.000Z</time>
      </trkpt>
      <trkpt lat="45.90833" lon="6.50865">
        <ele>2468</ele>
        <time>2014-02-12T09:51:37.000Z</time>
      </trkpt>
      <trkpt lat="45.90833" lon="6.50865">
        <ele>2468</ele>
        <time>2014-02-12T09:51:38.000Z</time>
      </trkpt>
      <trkpt lat="45.90833" lon="6.50865">
        <ele>2468</ele>
        <time>2014-02-12T09:51:39.000Z</time>
      </trkpt>
      <trkpt lat="45.90833" lon="6.50865">
        <ele>2468</ele>
        <time>2014-02-12T09:51:40.000Z</time>
      </trkpt>
      <trkpt lat="45.90833" lon="6.50865">
        <ele>2468</ele>
        <time>2014-02-12T09:51:41.000Z</time>
      </trkpt>
      <trkpt lat="45.90833" lon="6.50865">
        <ele>2468</ele>
        <time>2014-02-12T09:51:42.000Z</time>
      </trkpt>
      <trkpt lat="45.90833" lon="6.50865">
        <ele>2468</ele>
        <time>2014-02-12T09:51:43.000Z</time>
      </trkpt>
      <trkpt lat="45.90833" lon="6.50865">
        <ele>2468</ele>
        <time>2014-02-12T09:51:44.000Z</time>
      </trkpt>
      <trkpt lat="45.90833" lon="6.50865">
        <ele>2468</ele>
        <time>2014-02-12T09:51:45.000Z</time>
      </trkpt>
      <trkpt lat="45.90833" lon="6.50865">
        <ele>2468</ele>
        <time>2014-02-12T09:51:46.000Z</time>
      </trkpt>
      <trkpt lat="45.90833" lon="6.50865">
        <ele>2468</ele>
        <time>2014-02-12T09:51:47.000Z</time>
      </trkpt>
      <trkpt lat="45.90833" lon="6.50865">
        <ele>2468</ele>
        <time>2014-02-12T09:51:48.000Z</time>
      </trkpt>
      <trkpt lat="45.90833" lon="6.50865">
        <ele>2468</ele>
        <time>2014-02-12T09:51:49.000Z</time>
      </trkpt>
      <trkpt lat="45.90833" lon="6.50865">
        <ele>2468</ele>
        <time>2014-02-12T09:51:50.000Z</time>
      </trkpt>
      <trkpt lat="45.90833" lon="6.50865">
        <ele>2468</ele>
        <time>2014-02-12T09:51:55.000Z</time>
      </trkpt>
      <trkpt lat="45.90833" lon="6.50865">
        <ele>2468</ele>
        <time>2014-02-12T09:51:56.000Z</time>
      </trkpt>
      <trkpt lat="45.90833" lon="6.50865">
        <ele>2468</ele>
        <time>2014-02-12T09:51:57.000Z</time>
      </trkpt>
      <trkpt lat="45.90833" lon="6.50865">
        <ele>2468</ele>
        <time>2014-02-12T09:52:00.000Z</time>
      </trkpt>
      <trkpt lat="45.90833" lon="6.50865">
        <ele>2468</ele>
        <time>2014-02-12T09:52:01.000Z</time>
      </trkpt>
      <trkpt lat="45.90833" lon="6.50865">
        <ele>2468</ele>
        <time>2014-02-12T09:52:02.000Z</time>
      </trkpt>
      <trkpt lat="45.90833" lon="6.50865">
        <ele>2468</ele>
        <time>2014-02-12T09:52:03.000Z</time>
      </trkpt>
      <trkpt lat="45.90833" lon="6.50865">
        <ele>2468</ele>
        <time>2014-02-12T09:52:04.000Z</time>
      </trkpt>
      <trkpt lat="45.90833" lon="6.50865">
        <ele>2468</ele>
        <time>2014-02-12T09:52:05.000Z</time>
      </trkpt>
      <trkpt lat="45.90833" lon="6.50865">
        <ele>2468</ele>
        <time>2014-02-12T09:52:06.000Z</time>
      </trkpt>
      <trkpt lat="45.90833" lon="6.50865">
        <ele>2468</ele>
        <time>2014-02-12T09:52:07.000Z</time>
      </trkpt>
      <trkpt lat="45.90833" lon="6.50865">
        <ele>2468</ele>
        <time>2014-02-12T09:52:08.000Z</time>
      </trkpt>
      <trkpt lat="45.90836" lon="6.50864">
        <ele>2469.1999511719</ele>
        <time>2014-02-12T09:52:10.000Z</time>
      </trkpt>
      <trkpt lat="45.90836" lon="6.50863">
        <ele>2469.3999023438</ele>
        <time>2014-02-12T09:52:11.000Z</time>
      </trkpt>
      <trkpt lat="45.90838" lon="6.50864">
        <ele>2470.1999511719</ele>
        <time>2014-02-12T09:52:12.000Z</time>
      </trkpt>
      <trkpt lat="45.90839" lon="6.50863">
        <ele>2470.8000488281</ele>
        <time>2014-02-12T09:52:13.000Z</time>
      </trkpt>
      <trkpt lat="45.9084" lon="6.50862">
        <ele>2471.3999023438</ele>
        <time>2014-02-12T09:52:14.000Z</time>
      </trkpt>
      <trkpt lat="45.90842" lon="6.50862">
        <ele>2472</ele>
        <time>2014-02-12T09:52:15.000Z</time>
      </trkpt>
      <trkpt lat="45.90842" lon="6.50861">
        <ele>2472.3999023438</ele>
        <time>2014-02-12T09:52:16.000Z</time>
      </trkpt>
      <trkpt lat="45.90844" lon="6.50859">
        <ele>2473.1999511719</ele>
        <time>2014-02-12T09:52:17.000Z</time>
      </trkpt>
      <trkpt lat="45.90844" lon="6.50859">
        <ele>2473.3999023438</ele>
        <time>2014-02-12T09:52:18.000Z</time>
      </trkpt>
      <trkpt lat="45.90845" lon="6.50858">
        <ele>2473.6000976562</ele>
        <time>2014-02-12T09:52:19.000Z</time>
      </trkpt>
      <trkpt lat="45.90846" lon="6.50856">
        <ele>2474</ele>
        <time>2014-02-12T09:52:20.000Z</time>
      </trkpt>
      <trkpt lat="45.90845" lon="6.50856">
        <ele>2474</ele>
        <time>2014-02-12T09:52:21.000Z</time>
      </trkpt>
      <trkpt lat="45.90846" lon="6.50856">
        <ele>2474.1999511719</ele>
        <time>2014-02-12T09:52:22.000Z</time>
      </trkpt>
      <trkpt lat="45.90847" lon="6.50855">
        <ele>2474.1999511719</ele>
        <time>2014-02-12T09:52:23.000Z</time>
      </trkpt>
      <trkpt lat="45.90847" lon="6.50854">
        <ele>2474</ele>
        <time>2014-02-12T09:52:24.000Z</time>
      </trkpt>
      <trkpt lat="45.90847" lon="6.50854">
        <ele>2474</ele>
        <time>2014-02-12T09:52:25.000Z</time>
      </trkpt>
      <trkpt lat="45.90848" lon="6.50853">
        <ele>2474</ele>
        <time>2014-02-12T09:52:26.000Z</time>
      </trkpt>
      <trkpt lat="45.90848" lon="6.50853">
        <ele>2474</ele>
        <time>2014-02-12T09:52:27.000Z</time>
      </trkpt>
      <trkpt lat="45.90848" lon="6.50852">
        <ele>2474</ele>
        <time>2014-02-12T09:52:28.000Z</time>
      </trkpt>
      <trkpt lat="45.90849" lon="6.50852">
        <ele>2474.1999511719</ele>
        <time>2014-02-12T09:52:29.000Z</time>
      </trkpt>
      <trkpt lat="45.90849" lon="6.50852">
        <ele>2474.1999511719</ele>
        <time>2014-02-12T09:52:30.000Z</time>
      </trkpt>
      <trkpt lat="45.90849" lon="6.50852">
        <ele>2474.1999511719</ele>
        <time>2014-02-12T09:52:31.000Z</time>
      </trkpt>
      <trkpt lat="45.90849" lon="6.50852">
        <ele>2474.1999511719</ele>
        <time>2014-02-12T09:52:32.000Z</time>
      </trkpt>
      <trkpt lat="45.90849" lon="6.50852">
        <ele>2474.1999511719</ele>
        <time>2014-02-12T09:52:33.000Z</time>
      </trkpt>
      <trkpt lat="45.90849" lon="6.50852">
        <ele>2474.1999511719</ele>
        <time>2014-02-12T09:52:34.000Z</time>
      </trkpt>
      <trkpt lat="45.90849" lon="6.50853">
        <ele>2474.3999023438</ele>
        <time>2014-02-12T09:52:35.000Z</time>
      </trkpt>
      <trkpt lat="45.90849" lon="6.50856">
        <ele>2475</ele>
        <time>2014-02-12T09:52:36.000Z</time>
      </trkpt>
      <trkpt lat="45.90849" lon="6.50855">
        <ele>2475</ele>
        <time>2014-02-12T09:52:37.000Z</time>
      </trkpt>
      <trkpt lat="45.90849" lon="6.50858">
        <ele>2475.6000976562</ele>
        <time>2014-02-12T09:52:38.000Z</time>
      </trkpt>
      <trkpt lat="45.9085" lon="6.50859">
        <ele>2475.8000488281</ele>
        <time>2014-02-12T09:52:39.000Z</time>
      </trkpt>
      <trkpt lat="45.90849" lon="6.50858">
        <ele>2475.6000976562</ele>
        <time>2014-02-12T09:52:40.000Z</time>
      </trkpt>
      <trkpt lat="45.90849" lon="6.50861">
        <ele>2475.8000488281</ele>
        <time>2014-02-12T09:52:41.000Z</time>
      </trkpt>
      <trkpt lat="45.90849" lon="6.50861">
        <ele>2475.8000488281</ele>
        <time>2014-02-12T09:52:42.000Z</time>
      </trkpt>
      <trkpt lat="45.9085" lon="6.50862">
        <ele>2476</ele>
        <time>2014-02-12T09:52:43.000Z</time>
      </trkpt>
      <trkpt lat="45.9085" lon="6.50864">
        <ele>2476</ele>
        <time>2014-02-12T09:52:44.000Z</time>
      </trkpt>
      <trkpt lat="45.9085" lon="6.50864">
        <ele>2476.1999511719</ele>
        <time>2014-02-12T09:52:45.000Z</time>
      </trkpt>
      <trkpt lat="45.9085" lon="6.50865">
        <ele>2476.3999023438</ele>
        <time>2014-02-12T09:52:46.000Z</time>
      </trkpt>
      <trkpt lat="45.9085" lon="6.50866">
        <ele>2476.3999023438</ele>
        <time>2014-02-12T09:52:47.000Z</time>
      </trkpt>
      <trkpt lat="45.9085" lon="6.50867">
        <ele>2476.3999023438</ele>
        <time>2014-02-12T09:52:48.000Z</time>
      </trkpt>
      <trkpt lat="45.90851" lon="6.50868">
        <ele>2476.6000976562</ele>
        <time>2014-02-12T09:52:49.000Z</time>
      </trkpt>
      <trkpt lat="45.90851" lon="6.50868">
        <ele>2476.6000976562</ele>
        <time>2014-02-12T09:52:50.000Z</time>
      </trkpt>
      <trkpt lat="45.90851" lon="6.50868">
        <ele>2476.6000976562</ele>
        <time>2014-02-12T09:52:51.000Z</time>
      </trkpt>
      <trkpt lat="45.90851" lon="6.50868">
        <ele>2476.6000976562</ele>
        <time>2014-02-12T09:52:52.000Z</time>
      </trkpt>
      <trkpt lat="45.90851" lon="6.50868">
        <ele>2476.6000976562</ele>
        <time>2014-02-12T09:52:53.000Z</time>
      </trkpt>
      <trkpt lat="45.90851" lon="6.50868">
        <ele>2476.6000976562</ele>
        <time>2014-02-12T09:52:54.000Z</time>
      </trkpt>
      <trkpt lat="45.90851" lon="6.50868">
        <ele>2476.6000976562</ele>
        <time>2014-02-12T09:52:55.000Z</time>
      </trkpt>
      <trkpt lat="45.90851" lon="6.50868">
        <ele>2476.6000976562</ele>
        <time>2014-02-12T09:52:57.000Z</time>
      </trkpt>
      <trkpt lat="45.90851" lon="6.50868">
        <ele>2476.6000976562</ele>
        <time>2014-02-12T09:52:58.000Z</time>
      </trkpt>
      <trkpt lat="45.90851" lon="6.50868">
        <ele>2476.6000976562</ele>
        <time>2014-02-12T09:52:59.000Z</time>
      </trkpt>
      <trkpt lat="45.90851" lon="6.50868">
        <ele>2476.6000976562</ele>
        <time>2014-02-12T09:53:02.000Z</time>
      </trkpt>
      <trkpt lat="45.90851" lon="6.50868">
        <ele>2476.6000976562</ele>
        <time>2014-02-12T09:53:03.000Z</time>
      </trkpt>
      <trkpt lat="45.90851" lon="6.50868">
        <ele>2476.6000976562</ele>
        <time>2014-02-12T09:53:04.000Z</time>
      </trkpt>
      <trkpt lat="45.90851" lon="6.50868">
        <ele>2476.6000976562</ele>
        <time>2014-02-12T09:53:06.000Z</time>
      </trkpt>
      <trkpt lat="45.90851" lon="6.50868">
        <ele>2476.6000976562</ele>
        <time>2014-02-12T09:53:07.000Z</time>
      </trkpt>
      <trkpt lat="45.90851" lon="6.50868">
        <ele>2476.6000976562</ele>
        <time>2014-02-12T09:53:08.000Z</time>
      </trkpt>
      <trkpt lat="45.90851" lon="6.50868">
        <ele>2476.6000976562</ele>
        <time>2014-02-12T09:53:13.000Z</time>
      </trkpt>
      <trkpt lat="45.90851" lon="6.50868">
        <ele>2476.6000976562</ele>
        <time>2014-02-12T09:53:16.000Z</time>
      </trkpt>
      <trkpt lat="45.90851" lon="6.50868">
        <ele>2476.6000976562</ele>
        <time>2014-02-12T09:53:17.000Z</time>
      </trkpt>
      <trkpt lat="45.90851" lon="6.50868">
        <ele>2476.6000976562</ele>
        <time>2014-02-12T09:53:18.000Z</time>
      </trkpt>
      <trkpt lat="45.90851" lon="6.50868">
        <ele>2476.6000976562</ele>
        <time>2014-02-12T09:53:19.000Z</time>
      </trkpt>
      <trkpt lat="45.90851" lon="6.50868">
        <ele>2476.6000976562</ele>
        <time>2014-02-12T09:53:20.000Z</time>
      </trkpt>
      <trkpt lat="45.90851" lon="6.50868">
        <ele>2476.6000976562</ele>
        <time>2014-02-12T09:53:21.000Z</time>
      </trkpt>
      <trkpt lat="45.90851" lon="6.50868">
        <ele>2476.6000976562</ele>
        <time>2014-02-12T09:53:22.000Z</time>
      </trkpt>
      <trkpt lat="45.90851" lon="6.50868">
        <ele>2476.6000976562</ele>
        <time>2014-02-12T09:53:23.000Z</time>
      </trkpt>
      <trkpt lat="45.90851" lon="6.50868">
        <ele>2476.6000976562</ele>
        <time>2014-02-12T09:53:24.000Z</time>
      </trkpt>
      <trkpt lat="45.90851" lon="6.50868">
        <ele>2476.6000976562</ele>
        <time>2014-02-12T09:53:25.000Z</time>
      </trkpt>
      <trkpt lat="45.90851" lon="6.50868">
        <ele>2476.6000976562</ele>
        <time>2014-02-12T09:53:26.000Z</time>
      </trkpt>
      <trkpt lat="45.90851" lon="6.50867">
        <ele>2476.6000976562</ele>
        <time>2014-02-12T09:53:27.000Z</time>
      </trkpt>
      <trkpt lat="45.90851" lon="6.50867">
        <ele>2476.8000488281</ele>
        <time>2014-02-12T09:53:28.000Z</time>
      </trkpt>
      <trkpt lat="45.90851" lon="6.50866">
        <ele>2477</ele>
        <time>2014-02-12T09:53:29.000Z</time>
      </trkpt>
      <trkpt lat="45.90852" lon="6.50865">
        <ele>2477</ele>
        <time>2014-02-12T09:53:30.000Z</time>
      </trkpt>
      <trkpt lat="45.90852" lon="6.50864">
        <ele>2477.1999511719</ele>
        <time>2014-02-12T09:53:31.000Z</time>
      </trkpt>
      <trkpt lat="45.90853" lon="6.50861">
        <ele>2477.1999511719</ele>
        <time>2014-02-12T09:53:32.000Z</time>
      </trkpt>
      <trkpt lat="45.90853" lon="6.50862">
        <ele>2477.3999023438</ele>
        <time>2014-02-12T09:53:33.000Z</time>
      </trkpt>
      <trkpt lat="45.90853" lon="6.50861">
        <ele>2477.1999511719</ele>
        <time>2014-02-12T09:53:34.000Z</time>
      </trkpt>
      <trkpt lat="45.90854" lon="6.5086">
        <ele>2477</ele>
        <time>2014-02-12T09:53:35.000Z</time>
      </trkpt>
      <trkpt lat="45.90854" lon="6.50859">
        <ele>2477</ele>
        <time>2014-02-12T09:53:36.000Z</time>
      </trkpt>
      <trkpt lat="45.90854" lon="6.50859">
        <ele>2476.8000488281</ele>
        <time>2014-02-12T09:53:37.000Z</time>
      </trkpt>
      <trkpt lat="45.90854" lon="6.50858">
        <ele>2476.8000488281</ele>
        <time>2014-02-12T09:53:38.000Z</time>
      </trkpt>
      <trkpt lat="45.90855" lon="6.50857">
        <ele>2476.8000488281</ele>
        <time>2014-02-12T09:53:39.000Z</time>
      </trkpt>
      <trkpt lat="45.90855" lon="6.50857">
        <ele>2476.6000976562</ele>
        <time>2014-02-12T09:53:40.000Z</time>
      </trkpt>
      <trkpt lat="45.90856" lon="6.50855">
        <ele>2476.3999023438</ele>
        <time>2014-02-12T09:53:41.000Z</time>
      </trkpt>
      <trkpt lat="45.90856" lon="6.50855">
        <ele>2476.3999023438</ele>
        <time>2014-02-12T09:53:42.000Z</time>
      </trkpt>
      <trkpt lat="45.90857" lon="6.50853">
        <ele>2476.1999511719</ele>
        <time>2014-02-12T09:53:43.000Z</time>
      </trkpt>
      <trkpt lat="45.90857" lon="6.50851">
        <ele>2476</ele>
        <time>2014-02-12T09:53:44.000Z</time>
      </trkpt>
      <trkpt lat="45.90857" lon="6.50852">
        <ele>2476</ele>
        <time>2014-02-12T09:53:45.000Z</time>
      </trkpt>
      <trkpt lat="45.90858" lon="6.50851">
        <ele>2476</ele>
        <time>2014-02-12T09:53:46.000Z</time>
      </trkpt>
      <trkpt lat="45.90858" lon="6.50849">
        <ele>2475.3999023438</ele>
        <time>2014-02-12T09:53:47.000Z</time>
      </trkpt>
      <trkpt lat="45.90858" lon="6.50849">
        <ele>2475.6000976562</ele>
        <time>2014-02-12T09:53:48.000Z</time>
      </trkpt>
      <trkpt lat="45.90859" lon="6.50848">
        <ele>2475.3999023438</ele>
        <time>2014-02-12T09:53:49.000Z</time>
      </trkpt>
      <trkpt lat="45.90859" lon="6.50846">
        <ele>2475.1999511719</ele>
        <time>2014-02-12T09:53:50.000Z</time>
      </trkpt>
      <trkpt lat="45.90859" lon="6.50847">
        <ele>2475.3999023438</ele>
        <time>2014-02-12T09:53:51.000Z</time>
      </trkpt>
      <trkpt lat="45.9086" lon="6.50846">
        <ele>2475.3999023438</ele>
        <time>2014-02-12T09:53:52.000Z</time>
      </trkpt>
      <trkpt lat="45.90861" lon="6.50845">
        <ele>2475.3999023438</ele>
        <time>2014-02-12T09:53:53.000Z</time>
      </trkpt>
      <trkpt lat="45.90861" lon="6.50845">
        <ele>2475.3999023438</ele>
        <time>2014-02-12T09:53:54.000Z</time>
      </trkpt>
      <trkpt lat="45.90862" lon="6.50844">
        <ele>2475.3999023438</ele>
        <time>2014-02-12T09:53:55.000Z</time>
      </trkpt>
      <trkpt lat="45.90863" lon="6.50842">
        <ele>2475.1999511719</ele>
        <time>2014-02-12T09:53:56.000Z</time>
      </trkpt>
      <trkpt lat="45.90863" lon="6.50843">
        <ele>2475.3999023438</ele>
        <time>2014-02-12T09:53:57.000Z</time>
      </trkpt>
      <trkpt lat="45.90864" lon="6.50842">
        <ele>2475.1999511719</ele>
        <time>2014-02-12T09:53:58.000Z</time>
      </trkpt>
      <trkpt lat="45.90865" lon="6.5084">
        <ele>2475.1999511719</ele>
        <time>2014-02-12T09:53:59.000Z</time>
      </trkpt>
      <trkpt lat="45.90865" lon="6.5084">
        <ele>2475.1999511719</ele>
        <time>2014-02-12T09:54:00.000Z</time>
      </trkpt>
      <trkpt lat="45.90865" lon="6.5084">
        <ele>2475.1999511719</ele>
        <time>2014-02-12T09:54:01.000Z</time>
      </trkpt>
      <trkpt lat="45.90866" lon="6.50839">
        <ele>2475.1999511719</ele>
        <time>2014-02-12T09:54:02.000Z</time>
      </trkpt>
      <trkpt lat="45.90867" lon="6.50837">
        <ele>2475</ele>
        <time>2014-02-12T09:54:03.000Z</time>
      </trkpt>
      <trkpt lat="45.90867" lon="6.50837">
        <ele>2475</ele>
        <time>2014-02-12T09:54:04.000Z</time>
      </trkpt>
      <trkpt lat="45.90867" lon="6.50836">
        <ele>2474.8000488281</ele>
        <time>2014-02-12T09:54:05.000Z</time>
      </trkpt>
      <trkpt lat="45.90868" lon="6.50834">
        <ele>2474.6000976562</ele>
        <time>2014-02-12T09:54:06.000Z</time>
      </trkpt>
      <trkpt lat="45.90868" lon="6.50835">
        <ele>2474.6000976562</ele>
        <time>2014-02-12T09:54:07.000Z</time>
      </trkpt>
      <trkpt lat="45.90869" lon="6.50833">
        <ele>2474.6000976562</ele>
        <time>2014-02-12T09:54:08.000Z</time>
      </trkpt>
      <trkpt lat="45.90869" lon="6.50833">
        <ele>2474.6000976562</ele>
        <time>2014-02-12T09:54:09.000Z</time>
      </trkpt>
      <trkpt lat="45.9087" lon="6.50832">
        <ele>2474.6000976562</ele>
        <time>2014-02-12T09:54:10.000Z</time>
      </trkpt>
      <trkpt lat="45.9087" lon="6.50832">
        <ele>2474.3999023438</ele>
        <time>2014-02-12T09:54:11.000Z</time>
      </trkpt>
      <trkpt lat="45.9087" lon="6.50832">
        <ele>2474.3999023438</ele>
        <time>2014-02-12T09:54:12.000Z</time>
      </trkpt>
      <trkpt lat="45.90871" lon="6.5083">
        <ele>2474.1999511719</ele>
        <time>2014-02-12T09:54:13.000Z</time>
      </trkpt>
      <trkpt lat="45.9087" lon="6.5083">
        <ele>2474.1999511719</ele>
        <time>2014-02-12T09:54:14.000Z</time>
      </trkpt>
      <trkpt lat="45.90871" lon="6.50829">
        <ele>2474</ele>
        <time>2014-02-12T09:54:15.000Z</time>
      </trkpt>
      <trkpt lat="45.90871" lon="6.50829">
        <ele>2474</ele>
        <time>2014-02-12T09:54:16.000Z</time>
      </trkpt>
      <trkpt lat="45.90872" lon="6.50827">
        <ele>2473.8000488281</ele>
        <time>2014-02-12T09:54:17.000Z</time>
      </trkpt>
      <trkpt lat="45.90872" lon="6.50827">
        <ele>2473.8000488281</ele>
        <time>2014-02-12T09:54:18.000Z</time>
      </trkpt>
      <trkpt lat="45.90872" lon="6.50825">
        <ele>2473.6000976562</ele>
        <time>2014-02-12T09:54:19.000Z</time>
      </trkpt>
      <trkpt lat="45.90873" lon="6.50826">
        <ele>2473.6000976562</ele>
        <time>2014-02-12T09:54:20.000Z</time>
      </trkpt>
      <trkpt lat="45.90873" lon="6.50825">
        <ele>2473.6000976562</ele>
        <time>2014-02-12T09:54:21.000Z</time>
      </trkpt>
      <trkpt lat="45.90873" lon="6.50824">
        <ele>2473.3999023438</ele>
        <time>2014-02-12T09:54:22.000Z</time>
      </trkpt>
      <trkpt lat="45.90873" lon="6.50824">
        <ele>2473.6000976562</ele>
        <time>2014-02-12T09:54:23.000Z</time>
      </trkpt>
      <trkpt lat="45.90874" lon="6.50822">
        <ele>2473.3999023438</ele>
        <time>2014-02-12T09:54:24.000Z</time>
      </trkpt>
      <trkpt lat="45.90874" lon="6.50823">
        <ele>2473.3999023438</ele>
        <time>2014-02-12T09:54:25.000Z</time>
      </trkpt>
      <trkpt lat="45.90875" lon="6.50821">
        <ele>2473</ele>
        <time>2014-02-12T09:54:26.000Z</time>
      </trkpt>
      <trkpt lat="45.90875" lon="6.50821">
        <ele>2473</ele>
        <time>2014-02-12T09:54:27.000Z</time>
      </trkpt>
      <trkpt lat="45.90875" lon="6.5082">
        <ele>2473</ele>
        <time>2014-02-12T09:54:28.000Z</time>
      </trkpt>
      <trkpt lat="45.90875" lon="6.5082">
        <ele>2473</ele>
        <time>2014-02-12T09:54:29.000Z</time>
      </trkpt>
      <trkpt lat="45.90875" lon="6.50819">
        <ele>2472.8000488281</ele>
        <time>2014-02-12T09:54:30.000Z</time>
      </trkpt>
      <trkpt lat="45.90876" lon="6.50818">
        <ele>2472.6000976562</ele>
        <time>2014-02-12T09:54:31.000Z</time>
      </trkpt>
      <trkpt lat="45.90876" lon="6.50818">
        <ele>2472.6000976562</ele>
        <time>2014-02-12T09:54:32.000Z</time>
      </trkpt>
      <trkpt lat="45.90877" lon="6.50817">
        <ele>2472.6000976562</ele>
        <time>2014-02-12T09:54:33.000Z</time>
      </trkpt>
      <trkpt lat="45.90876" lon="6.50817">
        <ele>2472.6000976562</ele>
        <time>2014-02-12T09:54:34.000Z</time>
      </trkpt>
      <trkpt lat="45.90877" lon="6.50816">
        <ele>2472.6000976562</ele>
        <time>2014-02-12T09:54:35.000Z</time>
      </trkpt>
      <trkpt lat="45.90877" lon="6.50816">
        <ele>2472.6000976562</ele>
        <time>2014-02-12T09:54:36.000Z</time>
      </trkpt>
      <trkpt lat="45.90877" lon="6.50816">
        <ele>2472.6000976562</ele>
        <time>2014-02-12T09:54:37.000Z</time>
      </trkpt>
      <trkpt lat="45.90877" lon="6.50816">
        <ele>2472.6000976562</ele>
        <time>2014-02-12T09:54:38.000Z</time>
      </trkpt>
      <trkpt lat="45.90877" lon="6.50816">
        <ele>2472.6000976562</ele>
        <time>2014-02-12T09:54:39.000Z</time>
      </trkpt>
      <trkpt lat="45.90878" lon="6.50814">
        <ele>2472.6000976562</ele>
        <time>2014-02-12T09:54:40.000Z</time>
      </trkpt>
      <trkpt lat="45.90877" lon="6.50814">
        <ele>2472.3999023438</ele>
        <time>2014-02-12T09:54:41.000Z</time>
      </trkpt>
      <trkpt lat="45.90878" lon="6.50812">
        <ele>2472.3999023438</ele>
        <time>2014-02-12T09:54:42.000Z</time>
      </trkpt>
      <trkpt lat="45.90878" lon="6.50812">
        <ele>2472.3999023438</ele>
        <time>2014-02-12T09:54:43.000Z</time>
      </trkpt>
      <trkpt lat="45.90878" lon="6.50811">
        <ele>2472.3999023438</ele>
        <time>2014-02-12T09:54:44.000Z</time>
      </trkpt>
      <trkpt lat="45.90878" lon="6.50811">
        <ele>2472.3999023438</ele>
        <time>2014-02-12T09:54:45.000Z</time>
      </trkpt>
      <trkpt lat="45.90879" lon="6.5081">
        <ele>2472.3999023438</ele>
        <time>2014-02-12T09:54:46.000Z</time>
      </trkpt>
      <trkpt lat="45.90879" lon="6.5081">
        <ele>2472.3999023438</ele>
        <time>2014-02-12T09:54:47.000Z</time>
      </trkpt>
      <trkpt lat="45.90879" lon="6.50809">
        <ele>2472.1999511719</ele>
        <time>2014-02-12T09:54:48.000Z</time>
      </trkpt>
      <trkpt lat="45.90879" lon="6.50808">
        <ele>2472.1999511719</ele>
        <time>2014-02-12T09:54:49.000Z</time>
      </trkpt>
      <trkpt lat="45.90879" lon="6.50808">
        <ele>2472.1999511719</ele>
        <time>2014-02-12T09:54:50.000Z</time>
      </trkpt>
      <trkpt lat="45.90879" lon="6.50807">
        <ele>2472.1999511719</ele>
        <time>2014-02-12T09:54:51.000Z</time>
      </trkpt>
      <trkpt lat="45.90879" lon="6.50807">
        <ele>2472.1999511719</ele>
        <time>2014-02-12T09:54:52.000Z</time>
      </trkpt>
      <trkpt lat="45.9088" lon="6.50806">
        <ele>2472.1999511719</ele>
        <time>2014-02-12T09:54:53.000Z</time>
      </trkpt>
      <trkpt lat="45.9088" lon="6.50806">
        <ele>2472.1999511719</ele>
        <time>2014-02-12T09:54:54.000Z</time>
      </trkpt>
      <trkpt lat="45.9088" lon="6.50805">
        <ele>2472.1999511719</ele>
        <time>2014-02-12T09:54:55.000Z</time>
      </trkpt>
      <trkpt lat="45.90881" lon="6.50804">
        <ele>2472.3999023438</ele>
        <time>2014-02-12T09:54:56.000Z</time>
      </trkpt>
      <trkpt lat="45.90882" lon="6.50802">
        <ele>2472.3999023438</ele>
        <time>2014-02-12T09:54:57.000Z</time>
      </trkpt>
      <trkpt lat="45.90882" lon="6.50802">
        <ele>2472.3999023438</ele>
        <time>2014-02-12T09:54:58.000Z</time>
      </trkpt>
      <trkpt lat="45.90882" lon="6.50802">
        <ele>2472.6000976562</ele>
        <time>2014-02-12T09:54:59.000Z</time>
      </trkpt>
      <trkpt lat="45.90883" lon="6.50801">
        <ele>2472.6000976562</ele>
        <time>2014-02-12T09:55:00.000Z</time>
      </trkpt>
      <trkpt lat="45.90883" lon="6.508">
        <ele>2472.8000488281</ele>
        <time>2014-02-12T09:55:01.000Z</time>
      </trkpt>
      <trkpt lat="45.90883" lon="6.50799">
        <ele>2472.8000488281</ele>
        <time>2014-02-12T09:55:02.000Z</time>
      </trkpt>
      <trkpt lat="45.90883" lon="6.50799">
        <ele>2472.8000488281</ele>
        <time>2014-02-12T09:55:03.000Z</time>
      </trkpt>
      <trkpt lat="45.90884" lon="6.50797">
        <ele>2472.8000488281</ele>
        <time>2014-02-12T09:55:04.000Z</time>
      </trkpt>
      <trkpt lat="45.90884" lon="6.50797">
        <ele>2472.8000488281</ele>
        <time>2014-02-12T09:55:05.000Z</time>
      </trkpt>
      <trkpt lat="45.90884" lon="6.50796">
        <ele>2472.8000488281</ele>
        <time>2014-02-12T09:55:06.000Z</time>
      </trkpt>
      <trkpt lat="45.90884" lon="6.50795">
        <ele>2472.8000488281</ele>
        <time>2014-02-12T09:55:07.000Z</time>
      </trkpt>
      <trkpt lat="45.90885" lon="6.50794">
        <ele>2473.1999511719</ele>
        <time>2014-02-12T09:55:08.000Z</time>
      </trkpt>
      <trkpt lat="45.90886" lon="6.50793">
        <ele>2473.1999511719</ele>
        <time>2014-02-12T09:55:09.000Z</time>
      </trkpt>
      <trkpt lat="45.90886" lon="6.50793">
        <ele>2473.1999511719</ele>
        <time>2014-02-12T09:55:10.000Z</time>
      </trkpt>
      <trkpt lat="45.90886" lon="6.50792">
        <ele>2473.1999511719</ele>
        <time>2014-02-12T09:55:11.000Z</time>
      </trkpt>
      <trkpt lat="45.90887" lon="6.50791">
        <ele>2473.3999023438</ele>
        <time>2014-02-12T09:55:12.000Z</time>
      </trkpt>
      <trkpt lat="45.90887" lon="6.5079">
        <ele>2473.3999023438</ele>
        <time>2014-02-12T09:55:13.000Z</time>
      </trkpt>
      <trkpt lat="45.90888" lon="6.50789">
        <ele>2473.6000976562</ele>
        <time>2014-02-12T09:55:14.000Z</time>
      </trkpt>
      <trkpt lat="45.90888" lon="6.50789">
        <ele>2473.6000976562</ele>
        <time>2014-02-12T09:55:15.000Z</time>
      </trkpt>
      <trkpt lat="45.90889" lon="6.50788">
        <ele>2473.8000488281</ele>
        <time>2014-02-12T09:55:16.000Z</time>
      </trkpt>
      <trkpt lat="45.90889" lon="6.50788">
        <ele>2473.8000488281</ele>
        <time>2014-02-12T09:55:17.000Z</time>
      </trkpt>
      <trkpt lat="45.90889" lon="6.50787">
        <ele>2474</ele>
        <time>2014-02-12T09:55:18.000Z</time>
      </trkpt>
      <trkpt lat="45.9089" lon="6.50786">
        <ele>2474</ele>
        <time>2014-02-12T09:55:19.000Z</time>
      </trkpt>
      <trkpt lat="45.9089" lon="6.50786">
        <ele>2474</ele>
        <time>2014-02-12T09:55:20.000Z</time>
      </trkpt>
      <trkpt lat="45.9089" lon="6.50785">
        <ele>2474</ele>
        <time>2014-02-12T09:55:21.000Z</time>
      </trkpt>
      <trkpt lat="45.90891" lon="6.50785">
        <ele>2473.8000488281</ele>
        <time>2014-02-12T09:55:22.000Z</time>
      </trkpt>
      <trkpt lat="45.90891" lon="6.50784">
        <ele>2473.6000976562</ele>
        <time>2014-02-12T09:55:23.000Z</time>
      </trkpt>
      <trkpt lat="45.90891" lon="6.50784">
        <ele>2473.6000976562</ele>
        <time>2014-02-12T09:55:24.000Z</time>
      </trkpt>
      <trkpt lat="45.90891" lon="6.50784">
        <ele>2473.6000976562</ele>
        <time>2014-02-12T09:55:25.000Z</time>
      </trkpt>
      <trkpt lat="45.90891" lon="6.50784">
        <ele>2473.6000976562</ele>
        <time>2014-02-12T09:55:26.000Z</time>
      </trkpt>
      <trkpt lat="45.90892" lon="6.50783">
        <ele>2473</ele>
        <time>2014-02-12T09:55:27.000Z</time>
      </trkpt>
      <trkpt lat="45.90892" lon="6.50783">
        <ele>2473</ele>
        <time>2014-02-12T09:55:28.000Z</time>
      </trkpt>
      <trkpt lat="45.90894" lon="6.50781">
        <ele>2472.1999511719</ele>
        <time>2014-02-12T09:55:29.000Z</time>
      </trkpt>
      <trkpt lat="45.90893" lon="6.50781">
        <ele>2472.3999023438</ele>
        <time>2014-02-12T09:55:30.000Z</time>
      </trkpt>
      <trkpt lat="45.90895" lon="6.5078">
        <ele>2471.8000488281</ele>
        <time>2014-02-12T09:55:31.000Z</time>
      </trkpt>
      <trkpt lat="45.90894" lon="6.5078">
        <ele>2472</ele>
        <time>2014-02-12T09:55:32.000Z</time>
      </trkpt>
      <trkpt lat="45.90894" lon="6.5078">
        <ele>2472</ele>
        <time>2014-02-12T09:55:33.000Z</time>
      </trkpt>
      <trkpt lat="45.90895" lon="6.50779">
        <ele>2471.6000976562</ele>
        <time>2014-02-12T09:55:34.000Z</time>
      </trkpt>
      <trkpt lat="45.90895" lon="6.50779">
        <ele>2471.6000976562</ele>
        <time>2014-02-12T09:55:35.000Z</time>
      </trkpt>
      <trkpt lat="45.90895" lon="6.50779">
        <ele>2471.3999023438</ele>
        <time>2014-02-12T09:55:36.000Z</time>
      </trkpt>
      <trkpt lat="45.90896" lon="6.50778">
        <ele>2471.1999511719</ele>
        <time>2014-02-12T09:55:37.000Z</time>
      </trkpt>
      <trkpt lat="45.90896" lon="6.50778">
        <ele>2471.1999511719</ele>
        <time>2014-02-12T09:55:38.000Z</time>
      </trkpt>
      <trkpt lat="45.90896" lon="6.50778">
        <ele>2471.1999511719</ele>
        <time>2014-02-12T09:55:39.000Z</time>
      </trkpt>
      <trkpt lat="45.90896" lon="6.50777">
        <ele>2471.1999511719</ele>
        <time>2014-02-12T09:55:40.000Z</time>
      </trkpt>
      <trkpt lat="45.90896" lon="6.50777">
        <ele>2471.1999511719</ele>
        <time>2014-02-12T09:55:41.000Z</time>
      </trkpt>
      <trkpt lat="45.90896" lon="6.50777">
        <ele>2471.1999511719</ele>
        <time>2014-02-12T09:55:42.000Z</time>
      </trkpt>
      <trkpt lat="45.90896" lon="6.50777">
        <ele>2471.1999511719</ele>
        <time>2014-02-12T09:55:43.000Z</time>
      </trkpt>
      <trkpt lat="45.90896" lon="6.50776">
        <ele>2471</ele>
        <time>2014-02-12T09:55:44.000Z</time>
      </trkpt>
      <trkpt lat="45.90896" lon="6.50776">
        <ele>2471</ele>
        <time>2014-02-12T09:55:45.000Z</time>
      </trkpt>
      <trkpt lat="45.90896" lon="6.50776">
        <ele>2471</ele>
        <time>2014-02-12T09:55:46.000Z</time>
      </trkpt>
      <trkpt lat="45.90896" lon="6.50776">
        <ele>2471</ele>
        <time>2014-02-12T09:55:47.000Z</time>
      </trkpt>
      <trkpt lat="45.90896" lon="6.50776">
        <ele>2471</ele>
        <time>2014-02-12T09:55:48.000Z</time>
      </trkpt>
      <trkpt lat="45.90896" lon="6.50776">
        <ele>2471</ele>
        <time>2014-02-12T09:55:49.000Z</time>
      </trkpt>
      <trkpt lat="45.90896" lon="6.50776">
        <ele>2471</ele>
        <time>2014-02-12T09:55:50.000Z</time>
      </trkpt>
      <trkpt lat="45.90896" lon="6.50776">
        <ele>2471</ele>
        <time>2014-02-12T09:55:51.000Z</time>
      </trkpt>
      <trkpt lat="45.90896" lon="6.50776">
        <ele>2471</ele>
        <time>2014-02-12T09:55:52.000Z</time>
      </trkpt>
      <trkpt lat="45.90896" lon="6.50776">
        <ele>2471</ele>
        <time>2014-02-12T09:55:53.000Z</time>
      </trkpt>
      <trkpt lat="45.90896" lon="6.50776">
        <ele>2471</ele>
        <time>2014-02-12T09:55:54.000Z</time>
      </trkpt>
      <trkpt lat="45.90896" lon="6.50776">
        <ele>2471</ele>
        <time>2014-02-12T09:55:57.000Z</time>
      </trkpt>
      <trkpt lat="45.90896" lon="6.50776">
        <ele>2471</ele>
        <time>2014-02-12T09:55:58.000Z</time>
      </trkpt>
      <trkpt lat="45.90896" lon="6.50776">
        <ele>2471</ele>
        <time>2014-02-12T09:56:02.000Z</time>
      </trkpt>
      <trkpt lat="45.90896" lon="6.50776">
        <ele>2471</ele>
        <time>2014-02-12T09:56:03.000Z</time>
      </trkpt>
      <trkpt lat="45.90896" lon="6.50776">
        <ele>2471</ele>
        <time>2014-02-12T09:56:04.000Z</time>
      </trkpt>
      <trkpt lat="45.90896" lon="6.50776">
        <ele>2471</ele>
        <time>2014-02-12T09:56:05.000Z</time>
      </trkpt>
      <trkpt lat="45.90896" lon="6.50776">
        <ele>2471</ele>
        <time>2014-02-12T09:56:06.000Z</time>
      </trkpt>
      <trkpt lat="45.90896" lon="6.50776">
        <ele>2471</ele>
        <time>2014-02-12T09:56:07.000Z</time>
      </trkpt>
      <trkpt lat="45.90896" lon="6.50776">
        <ele>2471</ele>
        <time>2014-02-12T09:56:08.000Z</time>
      </trkpt>
      <trkpt lat="45.90896" lon="6.50776">
        <ele>2471</ele>
        <time>2014-02-12T09:56:09.000Z</time>
      </trkpt>
      <trkpt lat="45.90896" lon="6.50776">
        <ele>2471</ele>
        <time>2014-02-12T09:56:10.000Z</time>
      </trkpt>
      <trkpt lat="45.90896" lon="6.50776">
        <ele>2471</ele>
        <time>2014-02-12T09:56:11.000Z</time>
      </trkpt>
      <trkpt lat="45.90896" lon="6.50776">
        <ele>2471</ele>
        <time>2014-02-12T09:56:15.000Z</time>
      </trkpt>
      <trkpt lat="45.90896" lon="6.50776">
        <ele>2471</ele>
        <time>2014-02-12T09:56:16.000Z</time>
      </trkpt>
      <trkpt lat="45.90896" lon="6.50776">
        <ele>2471</ele>
        <time>2014-02-12T09:56:17.000Z</time>
      </trkpt>
      <trkpt lat="45.90896" lon="6.50777">
        <ele>2471.1999511719</ele>
        <time>2014-02-12T09:56:18.000Z</time>
      </trkpt>
      <trkpt lat="45.90896" lon="6.50777">
        <ele>2471.1999511719</ele>
        <time>2014-02-12T09:56:19.000Z</time>
      </trkpt>
      <trkpt lat="45.90896" lon="6.50778">
        <ele>2471</ele>
        <time>2014-02-12T09:56:20.000Z</time>
      </trkpt>
      <trkpt lat="45.90897" lon="6.5078">
        <ele>2471</ele>
        <time>2014-02-12T09:56:21.000Z</time>
      </trkpt>
      <trkpt lat="45.90897" lon="6.50781">
        <ele>2471</ele>
        <time>2014-02-12T09:56:23.000Z</time>
      </trkpt>
      <trkpt lat="45.90896" lon="6.50782">
        <ele>2471.1999511719</ele>
        <time>2014-02-12T09:56:24.000Z</time>
      </trkpt>
      <trkpt lat="45.90896" lon="6.50782">
        <ele>2471.1999511719</ele>
        <time>2014-02-12T09:56:25.000Z</time>
      </trkpt>
      <trkpt lat="45.90896" lon="6.50783">
        <ele>2471.3999023438</ele>
        <time>2014-02-12T09:56:26.000Z</time>
      </trkpt>
      <trkpt lat="45.90896" lon="6.50782">
        <ele>2471.6000976562</ele>
        <time>2014-02-12T09:56:27.000Z</time>
      </trkpt>
      <trkpt lat="45.90896" lon="6.50782">
        <ele>2471.6000976562</ele>
        <time>2014-02-12T09:56:28.000Z</time>
      </trkpt>
      <trkpt lat="45.90896" lon="6.50782">
        <ele>2471.6000976562</ele>
        <time>2014-02-12T09:56:29.000Z</time>
      </trkpt>
      <trkpt lat="45.90896" lon="6.50782">
        <ele>2471.6000976562</ele>
        <time>2014-02-12T09:56:30.000Z</time>
      </trkpt>
      <trkpt lat="45.90896" lon="6.50782">
        <ele>2471.6000976562</ele>
        <time>2014-02-12T09:56:31.000Z</time>
      </trkpt>
      <trkpt lat="45.90896" lon="6.50782">
        <ele>2471.6000976562</ele>
        <time>2014-02-12T09:56:32.000Z</time>
      </trkpt>
      <trkpt lat="45.90896" lon="6.50782">
        <ele>2471.6000976562</ele>
        <time>2014-02-12T09:56:33.000Z</time>
      </trkpt>
      <trkpt lat="45.90896" lon="6.50782">
        <ele>2471.6000976562</ele>
        <time>2014-02-12T09:56:34.000Z</time>
      </trkpt>
      <trkpt lat="45.90896" lon="6.50782">
        <ele>2471.6000976562</ele>
        <time>2014-02-12T09:56:35.000Z</time>
      </trkpt>
      <trkpt lat="45.90896" lon="6.50782">
        <ele>2471.6000976562</ele>
        <time>2014-02-12T09:56:36.000Z</time>
      </trkpt>
      <trkpt lat="45.90896" lon="6.50782">
        <ele>2471.6000976562</ele>
        <time>2014-02-12T09:56:37.000Z</time>
      </trkpt>
      <trkpt lat="45.90896" lon="6.50782">
        <ele>2471.6000976562</ele>
        <time>2014-02-12T09:56:38.000Z</time>
      </trkpt>
      <trkpt lat="45.90896" lon="6.50782">
        <ele>2471.6000976562</ele>
        <time>2014-02-12T09:56:39.000Z</time>
      </trkpt>
      <trkpt lat="45.90896" lon="6.50782">
        <ele>2471.6000976562</ele>
        <time>2014-02-12T09:56:40.000Z</time>
      </trkpt>
      <trkpt lat="45.90896" lon="6.50782">
        <ele>2471.6000976562</ele>
        <time>2014-02-12T09:56:41.000Z</time>
      </trkpt>
      <trkpt lat="45.90896" lon="6.50782">
        <ele>2471.6000976562</ele>
        <time>2014-02-12T09:56:42.000Z</time>
      </trkpt>
      <trkpt lat="45.90896" lon="6.50782">
        <ele>2471.6000976562</ele>
        <time>2014-02-12T09:56:43.000Z</time>
      </trkpt>
      <trkpt lat="45.90896" lon="6.50782">
        <ele>2471.6000976562</ele>
        <time>2014-02-12T09:56:44.000Z</time>
      </trkpt>
      <trkpt lat="45.90896" lon="6.50782">
        <ele>2471.3999023438</ele>
        <time>2014-02-12T09:56:45.000Z</time>
      </trkpt>
      <trkpt lat="45.90896" lon="6.50782">
        <ele>2471.3999023438</ele>
        <time>2014-02-12T09:56:46.000Z</time>
      </trkpt>
      <trkpt lat="45.90896" lon="6.50782">
        <ele>2471.3999023438</ele>
        <time>2014-02-12T09:56:47.000Z</time>
      </trkpt>
      <trkpt lat="45.90896" lon="6.50782">
        <ele>2471.3999023438</ele>
        <time>2014-02-12T09:56:48.000Z</time>
      </trkpt>
      <trkpt lat="45.90896" lon="6.50782">
        <ele>2471.3999023438</ele>
        <time>2014-02-12T09:56:54.000Z</time>
      </trkpt>
      <trkpt lat="45.90896" lon="6.50783">
        <ele>2471.6000976562</ele>
        <time>2014-02-12T09:56:57.000Z</time>
      </trkpt>
      <trkpt lat="45.90896" lon="6.50783">
        <ele>2471.6000976562</ele>
        <time>2014-02-12T09:56:59.000Z</time>
      </trkpt>
      <trkpt lat="45.90896" lon="6.50783">
        <ele>2471.6000976562</ele>
        <time>2014-02-12T09:57:00.000Z</time>
      </trkpt>
      <trkpt lat="45.90896" lon="6.50783">
        <ele>2471.6000976562</ele>
        <time>2014-02-12T09:57:01.000Z</time>
      </trkpt>
      <trkpt lat="45.90896" lon="6.50783">
        <ele>2471.6000976562</ele>
        <time>2014-02-12T09:57:02.000Z</time>
      </trkpt>
      <trkpt lat="45.90896" lon="6.50783">
        <ele>2471.6000976562</ele>
        <time>2014-02-12T09:57:03.000Z</time>
      </trkpt>
      <trkpt lat="45.90896" lon="6.50783">
        <ele>2471.6000976562</ele>
        <time>2014-02-12T09:57:04.000Z</time>
      </trkpt>
      <trkpt lat="45.90896" lon="6.50783">
        <ele>2471.6000976562</ele>
        <time>2014-02-12T09:57:05.000Z</time>
      </trkpt>
      <trkpt lat="45.90896" lon="6.50783">
        <ele>2471.6000976562</ele>
        <time>2014-02-12T09:57:06.000Z</time>
      </trkpt>
      <trkpt lat="45.90896" lon="6.50783">
        <ele>2471.6000976562</ele>
        <time>2014-02-12T09:57:07.000Z</time>
      </trkpt>
      <trkpt lat="45.90896" lon="6.50783">
        <ele>2471.6000976562</ele>
        <time>2014-02-12T09:57:08.000Z</time>
      </trkpt>
      <trkpt lat="45.90896" lon="6.50783">
        <ele>2471.6000976562</ele>
        <time>2014-02-12T09:57:09.000Z</time>
      </trkpt>
      <trkpt lat="45.90896" lon="6.50783">
        <ele>2471.6000976562</ele>
        <time>2014-02-12T09:57:10.000Z</time>
      </trkpt>
      <trkpt lat="45.90896" lon="6.50783">
        <ele>2471.6000976562</ele>
        <time>2014-02-12T09:57:11.000Z</time>
      </trkpt>
      <trkpt lat="45.90896" lon="6.50783">
        <ele>2471.6000976562</ele>
        <time>2014-02-12T09:57:12.000Z</time>
      </trkpt>
      <trkpt lat="45.90896" lon="6.50783">
        <ele>2471.6000976562</ele>
        <time>2014-02-12T09:57:13.000Z</time>
      </trkpt>
      <trkpt lat="45.90896" lon="6.50783">
        <ele>2471.6000976562</ele>
        <time>2014-02-12T09:57:14.000Z</time>
      </trkpt>
      <trkpt lat="45.90896" lon="6.50783">
        <ele>2471.6000976562</ele>
        <time>2014-02-12T09:57:15.000Z</time>
      </trkpt>
      <trkpt lat="45.90896" lon="6.50783">
        <ele>2471.6000976562</ele>
        <time>2014-02-12T09:57:16.000Z</time>
      </trkpt>
      <trkpt lat="45.90896" lon="6.50783">
        <ele>2471.6000976562</ele>
        <time>2014-02-12T09:57:17.000Z</time>
      </trkpt>
      <trkpt lat="45.90896" lon="6.50783">
        <ele>2471.6000976562</ele>
        <time>2014-02-12T09:57:18.000Z</time>
      </trkpt>
      <trkpt lat="45.90896" lon="6.50783">
        <ele>2471.6000976562</ele>
        <time>2014-02-12T09:57:20.000Z</time>
      </trkpt>
      <trkpt lat="45.90896" lon="6.50783">
        <ele>2471.6000976562</ele>
        <time>2014-02-12T09:57:21.000Z</time>
      </trkpt>
      <trkpt lat="45.90896" lon="6.50783">
        <ele>2471.6000976562</ele>
        <time>2014-02-12T09:57:22.000Z</time>
      </trkpt>
      <trkpt lat="45.90896" lon="6.50783">
        <ele>2471.6000976562</ele>
        <time>2014-02-12T09:57:25.000Z</time>
      </trkpt>
      <trkpt lat="45.90896" lon="6.50783">
        <ele>2471.6000976562</ele>
        <time>2014-02-12T09:57:26.000Z</time>
      </trkpt>
      <trkpt lat="45.90896" lon="6.50783">
        <ele>2471.6000976562</ele>
        <time>2014-02-12T09:57:27.000Z</time>
      </trkpt>
      <trkpt lat="45.90896" lon="6.50783">
        <ele>2471.6000976562</ele>
        <time>2014-02-12T09:57:28.000Z</time>
      </trkpt>
      <trkpt lat="45.90896" lon="6.50783">
        <ele>2471.6000976562</ele>
        <time>2014-02-12T09:57:29.000Z</time>
      </trkpt>
      <trkpt lat="45.90896" lon="6.50783">
        <ele>2471.6000976562</ele>
        <time>2014-02-12T09:57:31.000Z</time>
      </trkpt>
      <trkpt lat="45.90896" lon="6.50783">
        <ele>2471.6000976562</ele>
        <time>2014-02-12T09:57:32.000Z</time>
      </trkpt>
      <trkpt lat="45.90896" lon="6.50783">
        <ele>2471.6000976562</ele>
        <time>2014-02-12T09:57:33.000Z</time>
      </trkpt>
      <trkpt lat="45.90896" lon="6.50783">
        <ele>2471.6000976562</ele>
        <time>2014-02-12T09:57:34.000Z</time>
      </trkpt>
      <trkpt lat="45.90896" lon="6.50783">
        <ele>2471.6000976562</ele>
        <time>2014-02-12T09:57:35.000Z</time>
      </trkpt>
      <trkpt lat="45.90896" lon="6.50783">
        <ele>2471.6000976562</ele>
        <time>2014-02-12T09:57:36.000Z</time>
      </trkpt>
      <trkpt lat="45.90896" lon="6.50783">
        <ele>2471.6000976562</ele>
        <time>2014-02-12T09:57:37.000Z</time>
      </trkpt>
      <trkpt lat="45.90896" lon="6.50783">
        <ele>2471.6000976562</ele>
        <time>2014-02-12T09:57:38.000Z</time>
      </trkpt>
      <trkpt lat="45.90896" lon="6.50782">
        <ele>2471.3999023438</ele>
        <time>2014-02-12T09:57:40.000Z</time>
      </trkpt>
      <trkpt lat="45.90896" lon="6.50782">
        <ele>2471.3999023438</ele>
        <time>2014-02-12T09:57:41.000Z</time>
      </trkpt>
      <trkpt lat="45.90896" lon="6.50781">
        <ele>2471.1999511719</ele>
        <time>2014-02-12T09:57:42.000Z</time>
      </trkpt>
      <trkpt lat="45.90896" lon="6.50781">
        <ele>2471.1999511719</ele>
        <time>2014-02-12T09:57:43.000Z</time>
      </trkpt>
      <trkpt lat="45.90896" lon="6.50781">
        <ele>2471</ele>
        <time>2014-02-12T09:57:44.000Z</time>
      </trkpt>
      <trkpt lat="45.90896" lon="6.50781">
        <ele>2471</ele>
        <time>2014-02-12T09:57:45.000Z</time>
      </trkpt>
      <trkpt lat="45.90896" lon="6.50781">
        <ele>2471</ele>
        <time>2014-02-12T09:57:46.000Z</time>
      </trkpt>
      <trkpt lat="45.90896" lon="6.50781">
        <ele>2471</ele>
        <time>2014-02-12T09:57:47.000Z</time>
      </trkpt>
      <trkpt lat="45.90896" lon="6.50781">
        <ele>2471</ele>
        <time>2014-02-12T09:57:48.000Z</time>
      </trkpt>
      <trkpt lat="45.90896" lon="6.50781">
        <ele>2471</ele>
        <time>2014-02-12T09:57:49.000Z</time>
      </trkpt>
      <trkpt lat="45.90896" lon="6.50781">
        <ele>2471</ele>
        <time>2014-02-12T09:57:50.000Z</time>
      </trkpt>
      <trkpt lat="45.90896" lon="6.50781">
        <ele>2471</ele>
        <time>2014-02-12T09:57:52.000Z</time>
      </trkpt>
      <trkpt lat="45.90896" lon="6.50781">
        <ele>2471</ele>
        <time>2014-02-12T09:57:53.000Z</time>
      </trkpt>
      <trkpt lat="45.90896" lon="6.50781">
        <ele>2471</ele>
        <time>2014-02-12T09:57:54.000Z</time>
      </trkpt>
      <trkpt lat="45.90896" lon="6.50781">
        <ele>2471</ele>
        <time>2014-02-12T09:57:56.000Z</time>
      </trkpt>
      <trkpt lat="45.90896" lon="6.50781">
        <ele>2471</ele>
        <time>2014-02-12T09:57:57.000Z</time>
      </trkpt>
      <trkpt lat="45.90897" lon="6.5078">
        <ele>2471</ele>
        <time>2014-02-12T09:57:59.000Z</time>
      </trkpt>
      <trkpt lat="45.90897" lon="6.5078">
        <ele>2471</ele>
        <time>2014-02-12T09:58:00.000Z</time>
      </trkpt>
      <trkpt lat="45.90897" lon="6.5078">
        <ele>2471</ele>
        <time>2014-02-12T09:58:01.000Z</time>
      </trkpt>
      <trkpt lat="45.90897" lon="6.5078">
        <ele>2471</ele>
        <time>2014-02-12T09:58:02.000Z</time>
      </trkpt>
      <trkpt lat="45.90897" lon="6.5078">
        <ele>2471</ele>
        <time>2014-02-12T09:58:03.000Z</time>
      </trkpt>
      <trkpt lat="45.90897" lon="6.5078">
        <ele>2471</ele>
        <time>2014-02-12T09:58:04.000Z</time>
      </trkpt>
      <trkpt lat="45.90897" lon="6.5078">
        <ele>2471</ele>
        <time>2014-02-12T09:58:05.000Z</time>
      </trkpt>
      <trkpt lat="45.90897" lon="6.5078">
        <ele>2471</ele>
        <time>2014-02-12T09:58:06.000Z</time>
      </trkpt>
      <trkpt lat="45.90897" lon="6.5078">
        <ele>2471</ele>
        <time>2014-02-12T09:58:07.000Z</time>
      </trkpt>
      <trkpt lat="45.90897" lon="6.5078">
        <ele>2471</ele>
        <time>2014-02-12T09:58:08.000Z</time>
      </trkpt>
      <trkpt lat="45.90897" lon="6.5078">
        <ele>2471</ele>
        <time>2014-02-12T09:58:09.000Z</time>
      </trkpt>
      <trkpt lat="45.90897" lon="6.5078">
        <ele>2471</ele>
        <time>2014-02-12T09:58:10.000Z</time>
      </trkpt>
      <trkpt lat="45.90897" lon="6.5078">
        <ele>2471</ele>
        <time>2014-02-12T09:58:11.000Z</time>
      </trkpt>
      <trkpt lat="45.90897" lon="6.5078">
        <ele>2471</ele>
        <time>2014-02-12T09:58:12.000Z</time>
      </trkpt>
      <trkpt lat="45.90897" lon="6.5078">
        <ele>2471</ele>
        <time>2014-02-12T09:58:13.000Z</time>
      </trkpt>
      <trkpt lat="45.90897" lon="6.5078">
        <ele>2471</ele>
        <time>2014-02-12T09:58:14.000Z</time>
      </trkpt>
      <trkpt lat="45.90897" lon="6.5078">
        <ele>2471</ele>
        <time>2014-02-12T09:58:15.000Z</time>
      </trkpt>
      <trkpt lat="45.90897" lon="6.5078">
        <ele>2471</ele>
        <time>2014-02-12T09:58:16.000Z</time>
      </trkpt>
      <trkpt lat="45.90897" lon="6.5078">
        <ele>2471</ele>
        <time>2014-02-12T09:58:18.000Z</time>
      </trkpt>
      <trkpt lat="45.90897" lon="6.5078">
        <ele>2471</ele>
        <time>2014-02-12T09:58:19.000Z</time>
      </trkpt>
      <trkpt lat="45.90897" lon="6.5078">
        <ele>2471</ele>
        <time>2014-02-12T09:58:20.000Z</time>
      </trkpt>
      <trkpt lat="45.90897" lon="6.5078">
        <ele>2471</ele>
        <time>2014-02-12T09:58:21.000Z</time>
      </trkpt>
      <trkpt lat="45.90897" lon="6.5078">
        <ele>2471</ele>
        <time>2014-02-12T09:58:22.000Z</time>
      </trkpt>
      <trkpt lat="45.90897" lon="6.5078">
        <ele>2471</ele>
        <time>2014-02-12T09:58:24.000Z</time>
      </trkpt>
      <trkpt lat="45.90897" lon="6.5078">
        <ele>2471</ele>
        <time>2014-02-12T09:58:25.000Z</time>
      </trkpt>
      <trkpt lat="45.90897" lon="6.5078">
        <ele>2471</ele>
        <time>2014-02-12T09:58:26.000Z</time>
      </trkpt>
      <trkpt lat="45.90897" lon="6.5078">
        <ele>2471</ele>
        <time>2014-02-12T09:58:27.000Z</time>
      </trkpt>
      <trkpt lat="45.90897" lon="6.5078">
        <ele>2471</ele>
        <time>2014-02-12T09:58:28.000Z</time>
      </trkpt>
      <trkpt lat="45.90897" lon="6.5078">
        <ele>2471</ele>
        <time>2014-02-12T09:58:29.000Z</time>
      </trkpt>
      <trkpt lat="45.90897" lon="6.5078">
        <ele>2471</ele>
        <time>2014-02-12T09:58:30.000Z</time>
      </trkpt>
      <trkpt lat="45.90897" lon="6.5078">
        <ele>2471</ele>
        <time>2014-02-12T09:58:32.000Z</time>
      </trkpt>
      <trkpt lat="45.90897" lon="6.5078">
        <ele>2471</ele>
        <time>2014-02-12T09:58:33.000Z</time>
      </trkpt>
      <trkpt lat="45.90897" lon="6.5078">
        <ele>2471</ele>
        <time>2014-02-12T09:58:34.000Z</time>
      </trkpt>
      <trkpt lat="45.90897" lon="6.5078">
        <ele>2471</ele>
        <time>2014-02-12T09:58:35.000Z</time>
      </trkpt>
      <trkpt lat="45.90897" lon="6.5078">
        <ele>2471</ele>
        <time>2014-02-12T09:58:36.000Z</time>
      </trkpt>
      <trkpt lat="45.90897" lon="6.5078">
        <ele>2470.8000488281</ele>
        <time>2014-02-12T09:58:39.000Z</time>
      </trkpt>
      <trkpt lat="45.90897" lon="6.5078">
        <ele>2470.8000488281</ele>
        <time>2014-02-12T09:58:40.000Z</time>
      </trkpt>
      <trkpt lat="45.90897" lon="6.5078">
        <ele>2470.8000488281</ele>
        <time>2014-02-12T09:58:41.000Z</time>
      </trkpt>
      <trkpt lat="45.90897" lon="6.5078">
        <ele>2470.8000488281</ele>
        <time>2014-02-12T09:58:42.000Z</time>
      </trkpt>
      <trkpt lat="45.90897" lon="6.5078">
        <ele>2470.8000488281</ele>
        <time>2014-02-12T09:58:43.000Z</time>
      </trkpt>
      <trkpt lat="45.90897" lon="6.5078">
        <ele>2470.8000488281</ele>
        <time>2014-02-12T09:58:44.000Z</time>
      </trkpt>
      <trkpt lat="45.90897" lon="6.5078">
        <ele>2470.8000488281</ele>
        <time>2014-02-12T09:58:45.000Z</time>
      </trkpt>
      <trkpt lat="45.90897" lon="6.5078">
        <ele>2470.8000488281</ele>
        <time>2014-02-12T09:58:46.000Z</time>
      </trkpt>
      <trkpt lat="45.90897" lon="6.5078">
        <ele>2470.8000488281</ele>
        <time>2014-02-12T09:58:47.000Z</time>
      </trkpt>
      <trkpt lat="45.90897" lon="6.5078">
        <ele>2470.8000488281</ele>
        <time>2014-02-12T09:58:48.000Z</time>
      </trkpt>
      <trkpt lat="45.90897" lon="6.5078">
        <ele>2470.8000488281</ele>
        <time>2014-02-12T09:58:49.000Z</time>
      </trkpt>
      <trkpt lat="45.90897" lon="6.5078">
        <ele>2470.8000488281</ele>
        <time>2014-02-12T09:58:50.000Z</time>
      </trkpt>
      <trkpt lat="45.90897" lon="6.5078">
        <ele>2470.8000488281</ele>
        <time>2014-02-12T09:58:51.000Z</time>
      </trkpt>
      <trkpt lat="45.90897" lon="6.5078">
        <ele>2470.8000488281</ele>
        <time>2014-02-12T09:58:52.000Z</time>
      </trkpt>
      <trkpt lat="45.90897" lon="6.5078">
        <ele>2470.8000488281</ele>
        <time>2014-02-12T09:58:54.000Z</time>
      </trkpt>
      <trkpt lat="45.90897" lon="6.5078">
        <ele>2470.8000488281</ele>
        <time>2014-02-12T09:58:55.000Z</time>
      </trkpt>
      <trkpt lat="45.90897" lon="6.5078">
        <ele>2470.8000488281</ele>
        <time>2014-02-12T09:58:56.000Z</time>
      </trkpt>
      <trkpt lat="45.90897" lon="6.5078">
        <ele>2470.8000488281</ele>
        <time>2014-02-12T09:58:57.000Z</time>
      </trkpt>
      <trkpt lat="45.90897" lon="6.5078">
        <ele>2470.8000488281</ele>
        <time>2014-02-12T09:58:58.000Z</time>
      </trkpt>
      <trkpt lat="45.90897" lon="6.5078">
        <ele>2470.8000488281</ele>
        <time>2014-02-12T09:58:59.000Z</time>
      </trkpt>
      <trkpt lat="45.90897" lon="6.5078">
        <ele>2470.8000488281</ele>
        <time>2014-02-12T09:59:00.000Z</time>
      </trkpt>
      <trkpt lat="45.90897" lon="6.5078">
        <ele>2470.8000488281</ele>
        <time>2014-02-12T09:59:01.000Z</time>
      </trkpt>
      <trkpt lat="45.90897" lon="6.5078">
        <ele>2470.8000488281</ele>
        <time>2014-02-12T09:59:02.000Z</time>
      </trkpt>
      <trkpt lat="45.90897" lon="6.5078">
        <ele>2470.8000488281</ele>
        <time>2014-02-12T09:59:03.000Z</time>
      </trkpt>
      <trkpt lat="45.90897" lon="6.5078">
        <ele>2470.8000488281</ele>
        <time>2014-02-12T09:59:04.000Z</time>
      </trkpt>
      <trkpt lat="45.90897" lon="6.5078">
        <ele>2470.8000488281</ele>
        <time>2014-02-12T09:59:05.000Z</time>
      </trkpt>
      <trkpt lat="45.90897" lon="6.5078">
        <ele>2470.8000488281</ele>
        <time>2014-02-12T09:59:06.000Z</time>
      </trkpt>
      <trkpt lat="45.90897" lon="6.5078">
        <ele>2470.8000488281</ele>
        <time>2014-02-12T09:59:07.000Z</time>
      </trkpt>
      <trkpt lat="45.90897" lon="6.5078">
        <ele>2470.8000488281</ele>
        <time>2014-02-12T09:59:08.000Z</time>
      </trkpt>
      <trkpt lat="45.90897" lon="6.5078">
        <ele>2470.8000488281</ele>
        <time>2014-02-12T09:59:09.000Z</time>
      </trkpt>
      <trkpt lat="45.90897" lon="6.5078">
        <ele>2470.8000488281</ele>
        <time>2014-02-12T09:59:10.000Z</time>
      </trkpt>
      <trkpt lat="45.90897" lon="6.5078">
        <ele>2470.8000488281</ele>
        <time>2014-02-12T09:59:11.000Z</time>
      </trkpt>
      <trkpt lat="45.90897" lon="6.5078">
        <ele>2470.8000488281</ele>
        <time>2014-02-12T09:59:12.000Z</time>
      </trkpt>
      <trkpt lat="45.90897" lon="6.5078">
        <ele>2470.8000488281</ele>
        <time>2014-02-12T09:59:13.000Z</time>
      </trkpt>
      <trkpt lat="45.90897" lon="6.5078">
        <ele>2470.8000488281</ele>
        <time>2014-02-12T09:59:14.000Z</time>
      </trkpt>
      <trkpt lat="45.90897" lon="6.5078">
        <ele>2470.6000976562</ele>
        <time>2014-02-12T09:59:15.000Z</time>
      </trkpt>
      <trkpt lat="45.90897" lon="6.50779">
        <ele>2471</ele>
        <time>2014-02-12T09:59:16.000Z</time>
      </trkpt>
      <trkpt lat="45.90896" lon="6.50779">
        <ele>2471.1999511719</ele>
        <time>2014-02-12T09:59:17.000Z</time>
      </trkpt>
      <trkpt lat="45.90896" lon="6.50779">
        <ele>2471.1999511719</ele>
        <time>2014-02-12T09:59:18.000Z</time>
      </trkpt>
      <trkpt lat="45.90896" lon="6.50779">
        <ele>2471.1999511719</ele>
        <time>2014-02-12T09:59:19.000Z</time>
      </trkpt>
      <trkpt lat="45.90895" lon="6.50779">
        <ele>2471.3999023438</ele>
        <time>2014-02-12T09:59:20.000Z</time>
      </trkpt>
      <trkpt lat="45.90895" lon="6.50779">
        <ele>2471.6000976562</ele>
        <time>2014-02-12T09:59:21.000Z</time>
      </trkpt>
      <trkpt lat="45.90895" lon="6.50778">
        <ele>2471.6000976562</ele>
        <time>2014-02-12T09:59:22.000Z</time>
      </trkpt>
      <trkpt lat="45.90895" lon="6.50778">
        <ele>2471.6000976562</ele>
        <time>2014-02-12T09:59:23.000Z</time>
      </trkpt>
      <trkpt lat="45.90895" lon="6.50778">
        <ele>2471.6000976562</ele>
        <time>2014-02-12T09:59:24.000Z</time>
      </trkpt>
      <trkpt lat="45.90895" lon="6.50778">
        <ele>2471.6000976562</ele>
        <time>2014-02-12T09:59:25.000Z</time>
      </trkpt>
      <trkpt lat="45.90895" lon="6.50778">
        <ele>2471.6000976562</ele>
        <time>2014-02-12T09:59:26.000Z</time>
      </trkpt>
      <trkpt lat="45.90895" lon="6.50778">
        <ele>2471.6000976562</ele>
        <time>2014-02-12T09:59:27.000Z</time>
      </trkpt>
      <trkpt lat="45.90895" lon="6.50778">
        <ele>2471.6000976562</ele>
        <time>2014-02-12T09:59:28.000Z</time>
      </trkpt>
      <trkpt lat="45.90895" lon="6.50778">
        <ele>2471.6000976562</ele>
        <time>2014-02-12T09:59:29.000Z</time>
      </trkpt>
      <trkpt lat="45.90895" lon="6.50778">
        <ele>2471.6000976562</ele>
        <time>2014-02-12T09:59:30.000Z</time>
      </trkpt>
      <trkpt lat="45.90895" lon="6.50778">
        <ele>2471.6000976562</ele>
        <time>2014-02-12T09:59:31.000Z</time>
      </trkpt>
      <trkpt lat="45.90895" lon="6.50778">
        <ele>2471.6000976562</ele>
        <time>2014-02-12T09:59:32.000Z</time>
      </trkpt>
      <trkpt lat="45.90895" lon="6.50778">
        <ele>2471.6000976562</ele>
        <time>2014-02-12T09:59:33.000Z</time>
      </trkpt>
      <trkpt lat="45.90895" lon="6.50778">
        <ele>2471.6000976562</ele>
        <time>2014-02-12T09:59:34.000Z</time>
      </trkpt>
      <trkpt lat="45.90895" lon="6.50778">
        <ele>2471.6000976562</ele>
        <time>2014-02-12T09:59:35.000Z</time>
      </trkpt>
      <trkpt lat="45.90895" lon="6.50779">
        <ele>2471.8000488281</ele>
        <time>2014-02-12T09:59:36.000Z</time>
      </trkpt>
      <trkpt lat="45.90895" lon="6.50779">
        <ele>2471.8000488281</ele>
        <time>2014-02-12T09:59:37.000Z</time>
      </trkpt>
      <trkpt lat="45.90895" lon="6.50779">
        <ele>2471.8000488281</ele>
        <time>2014-02-12T09:59:38.000Z</time>
      </trkpt>
      <trkpt lat="45.90895" lon="6.50779">
        <ele>2471.8000488281</ele>
        <time>2014-02-12T09:59:43.000Z</time>
      </trkpt>
      <trkpt lat="45.90895" lon="6.50779">
        <ele>2471.8000488281</ele>
        <time>2014-02-12T09:59:44.000Z</time>
      </trkpt>
      <trkpt lat="45.90895" lon="6.50779">
        <ele>2471.8000488281</ele>
        <time>2014-02-12T09:59:45.000Z</time>
      </trkpt>
      <trkpt lat="45.90895" lon="6.50779">
        <ele>2471.8000488281</ele>
        <time>2014-02-12T09:59:46.000Z</time>
      </trkpt>
      <trkpt lat="45.90895" lon="6.50779">
        <ele>2471.8000488281</ele>
        <time>2014-02-12T09:59:47.000Z</time>
      </trkpt>
      <trkpt lat="45.90895" lon="6.50779">
        <ele>2471.8000488281</ele>
        <time>2014-02-12T09:59:48.000Z</time>
      </trkpt>
      <trkpt lat="45.90895" lon="6.50779">
        <ele>2471.8000488281</ele>
        <time>2014-02-12T09:59:49.000Z</time>
      </trkpt>
      <trkpt lat="45.90895" lon="6.50779">
        <ele>2471.8000488281</ele>
        <time>2014-02-12T09:59:50.000Z</time>
      </trkpt>
      <trkpt lat="45.90895" lon="6.50779">
        <ele>2471.8000488281</ele>
        <time>2014-02-12T09:59:51.000Z</time>
      </trkpt>
      <trkpt lat="45.90895" lon="6.50779">
        <ele>2471.8000488281</ele>
        <time>2014-02-12T09:59:52.000Z</time>
      </trkpt>
      <trkpt lat="45.90895" lon="6.50779">
        <ele>2471.8000488281</ele>
        <time>2014-02-12T09:59:54.000Z</time>
      </trkpt>
      <trkpt lat="45.90895" lon="6.50779">
        <ele>2471.8000488281</ele>
        <time>2014-02-12T09:59:55.000Z</time>
      </trkpt>
      <trkpt lat="45.90895" lon="6.50779">
        <ele>2471.8000488281</ele>
        <time>2014-02-12T09:59:56.000Z</time>
      </trkpt>
      <trkpt lat="45.90895" lon="6.50779">
        <ele>2471.8000488281</ele>
        <time>2014-02-12T09:59:57.000Z</time>
      </trkpt>
      <trkpt lat="45.90895" lon="6.50779">
        <ele>2471.8000488281</ele>
        <time>2014-02-12T09:59:58.000Z</time>
      </trkpt>
      <trkpt lat="45.90895" lon="6.50779">
        <ele>2471.8000488281</ele>
        <time>2014-02-12T09:59:59.000Z</time>
      </trkpt>
      <trkpt lat="45.90895" lon="6.50779">
        <ele>2471.8000488281</ele>
        <time>2014-02-12T10:00:00.000Z</time>
      </trkpt>
      <trkpt lat="45.90895" lon="6.50779">
        <ele>2471.8000488281</ele>
        <time>2014-02-12T10:00:01.000Z</time>
      </trkpt>
      <trkpt lat="45.90895" lon="6.50779">
        <ele>2471.8000488281</ele>
        <time>2014-02-12T10:00:02.000Z</time>
      </trkpt>
      <trkpt lat="45.90895" lon="6.50779">
        <ele>2471.8000488281</ele>
        <time>2014-02-12T10:00:03.000Z</time>
      </trkpt>
      <trkpt lat="45.90895" lon="6.50779">
        <ele>2471.8000488281</ele>
        <time>2014-02-12T10:00:04.000Z</time>
      </trkpt>
      <trkpt lat="45.90895" lon="6.50779">
        <ele>2471.8000488281</ele>
        <time>2014-02-12T10:00:05.000Z</time>
      </trkpt>
      <trkpt lat="45.90895" lon="6.50779">
        <ele>2471.8000488281</ele>
        <time>2014-02-12T10:00:06.000Z</time>
      </trkpt>
      <trkpt lat="45.90895" lon="6.50779">
        <ele>2471.8000488281</ele>
        <time>2014-02-12T10:00:07.000Z</time>
      </trkpt>
      <trkpt lat="45.90895" lon="6.50779">
        <ele>2471.8000488281</ele>
        <time>2014-02-12T10:00:09.000Z</time>
      </trkpt>
      <trkpt lat="45.90895" lon="6.50779">
        <ele>2471.8000488281</ele>
        <time>2014-02-12T10:00:10.000Z</time>
      </trkpt>
      <trkpt lat="45.90895" lon="6.50779">
        <ele>2471.8000488281</ele>
        <time>2014-02-12T10:00:12.000Z</time>
      </trkpt>
      <trkpt lat="45.90895" lon="6.50779">
        <ele>2471.8000488281</ele>
        <time>2014-02-12T10:00:13.000Z</time>
      </trkpt>
      <trkpt lat="45.90895" lon="6.50779">
        <ele>2471.8000488281</ele>
        <time>2014-02-12T10:00:14.000Z</time>
      </trkpt>
      <trkpt lat="45.90895" lon="6.50779">
        <ele>2471.8000488281</ele>
        <time>2014-02-12T10:00:15.000Z</time>
      </trkpt>
      <trkpt lat="45.90895" lon="6.50779">
        <ele>2471.8000488281</ele>
        <time>2014-02-12T10:00:16.000Z</time>
      </trkpt>
      <trkpt lat="45.90895" lon="6.50779">
        <ele>2471.8000488281</ele>
        <time>2014-02-12T10:00:17.000Z</time>
      </trkpt>
      <trkpt lat="45.90895" lon="6.50779">
        <ele>2471.8000488281</ele>
        <time>2014-02-12T10:00:18.000Z</time>
      </trkpt>
      <trkpt lat="45.90895" lon="6.50779">
        <ele>2471.8000488281</ele>
        <time>2014-02-12T10:00:19.000Z</time>
      </trkpt>
      <trkpt lat="45.90895" lon="6.50779">
        <ele>2471.8000488281</ele>
        <time>2014-02-12T10:00:20.000Z</time>
      </trkpt>
      <trkpt lat="45.90895" lon="6.50779">
        <ele>2471.8000488281</ele>
        <time>2014-02-12T10:00:21.000Z</time>
      </trkpt>
      <trkpt lat="45.90895" lon="6.50779">
        <ele>2471.8000488281</ele>
        <time>2014-02-12T10:00:22.000Z</time>
      </trkpt>
      <trkpt lat="45.90895" lon="6.50779">
        <ele>2471.8000488281</ele>
        <time>2014-02-12T10:00:23.000Z</time>
      </trkpt>
      <trkpt lat="45.90895" lon="6.50779">
        <ele>2471.8000488281</ele>
        <time>2014-02-12T10:00:24.000Z</time>
      </trkpt>
      <trkpt lat="45.90895" lon="6.50779">
        <ele>2471.8000488281</ele>
        <time>2014-02-12T10:00:25.000Z</time>
      </trkpt>
      <trkpt lat="45.90895" lon="6.50779">
        <ele>2471.8000488281</ele>
        <time>2014-02-12T10:00:26.000Z</time>
      </trkpt>
      <trkpt lat="45.90895" lon="6.50779">
        <ele>2471.8000488281</ele>
        <time>2014-02-12T10:00:27.000Z</time>
      </trkpt>
      <trkpt lat="45.90895" lon="6.50779">
        <ele>2471.8000488281</ele>
        <time>2014-02-12T10:00:28.000Z</time>
      </trkpt>
      <trkpt lat="45.90895" lon="6.50779">
        <ele>2471.8000488281</ele>
        <time>2014-02-12T10:00:29.000Z</time>
      </trkpt>
      <trkpt lat="45.90895" lon="6.50779">
        <ele>2471.8000488281</ele>
        <time>2014-02-12T10:00:31.000Z</time>
      </trkpt>
      <trkpt lat="45.90895" lon="6.50779">
        <ele>2471.8000488281</ele>
        <time>2014-02-12T10:00:32.000Z</time>
      </trkpt>
      <trkpt lat="45.90895" lon="6.50779">
        <ele>2471.8000488281</ele>
        <time>2014-02-12T10:00:33.000Z</time>
      </trkpt>
      <trkpt lat="45.90895" lon="6.50779">
        <ele>2471.8000488281</ele>
        <time>2014-02-12T10:00:34.000Z</time>
      </trkpt>
      <trkpt lat="45.90895" lon="6.50779">
        <ele>2471.8000488281</ele>
        <time>2014-02-12T10:00:36.000Z</time>
      </trkpt>
      <trkpt lat="45.90895" lon="6.50779">
        <ele>2471.8000488281</ele>
        <time>2014-02-12T10:00:37.000Z</time>
      </trkpt>
      <trkpt lat="45.90895" lon="6.50779">
        <ele>2471.8000488281</ele>
        <time>2014-02-12T10:00:39.000Z</time>
      </trkpt>
      <trkpt lat="45.90895" lon="6.50779">
        <ele>2471.8000488281</ele>
        <time>2014-02-12T10:00:42.000Z</time>
      </trkpt>
      <trkpt lat="45.90895" lon="6.50779">
        <ele>2471.8000488281</ele>
        <time>2014-02-12T10:00:43.000Z</time>
      </trkpt>
      <trkpt lat="45.90895" lon="6.50779">
        <ele>2471.8000488281</ele>
        <time>2014-02-12T10:00:46.000Z</time>
      </trkpt>
      <trkpt lat="45.90895" lon="6.50779">
        <ele>2471.8000488281</ele>
        <time>2014-02-12T10:00:48.000Z</time>
      </trkpt>
      <trkpt lat="45.90895" lon="6.50779">
        <ele>2471.8000488281</ele>
        <time>2014-02-12T10:00:50.000Z</time>
      </trkpt>
      <trkpt lat="45.90895" lon="6.50779">
        <ele>2471.8000488281</ele>
        <time>2014-02-12T10:00:51.000Z</time>
      </trkpt>
      <trkpt lat="45.90895" lon="6.50779">
        <ele>2471.8000488281</ele>
        <time>2014-02-12T10:00:52.000Z</time>
      </trkpt>
      <trkpt lat="45.90895" lon="6.50778">
        <ele>2471.6000976562</ele>
        <time>2014-02-12T10:00:56.000Z</time>
      </trkpt>
      <trkpt lat="45.90895" lon="6.50778">
        <ele>2471.6000976562</ele>
        <time>2014-02-12T10:00:57.000Z</time>
      </trkpt>
      <trkpt lat="45.90895" lon="6.50778">
        <ele>2471.6000976562</ele>
        <time>2014-02-12T10:00:58.000Z</time>
      </trkpt>
      <trkpt lat="45.90895" lon="6.50778">
        <ele>2471.6000976562</ele>
        <time>2014-02-12T10:01:01.000Z</time>
      </trkpt>
      <trkpt lat="45.90895" lon="6.50778">
        <ele>2471.6000976562</ele>
        <time>2014-02-12T10:01:02.000Z</time>
      </trkpt>
      <trkpt lat="45.90895" lon="6.50778">
        <ele>2471.6000976562</ele>
        <time>2014-02-12T10:01:03.000Z</time>
      </trkpt>
      <trkpt lat="45.90895" lon="6.50778">
        <ele>2471.6000976562</ele>
        <time>2014-02-12T10:01:04.000Z</time>
      </trkpt>
      <trkpt lat="45.90895" lon="6.50778">
        <ele>2471.6000976562</ele>
        <time>2014-02-12T10:01:05.000Z</time>
      </trkpt>
      <trkpt lat="45.90895" lon="6.50778">
        <ele>2471.6000976562</ele>
        <time>2014-02-12T10:01:08.000Z</time>
      </trkpt>
      <trkpt lat="45.90895" lon="6.50778">
        <ele>2471.6000976562</ele>
        <time>2014-02-12T10:01:10.000Z</time>
      </trkpt>
      <trkpt lat="45.90895" lon="6.50778">
        <ele>2471.6000976562</ele>
        <time>2014-02-12T10:01:11.000Z</time>
      </trkpt>
      <trkpt lat="45.90895" lon="6.50778">
        <ele>2471.6000976562</ele>
        <time>2014-02-12T10:01:12.000Z</time>
      </trkpt>
      <trkpt lat="45.90895" lon="6.50778">
        <ele>2471.6000976562</ele>
        <time>2014-02-12T10:01:13.000Z</time>
      </trkpt>
      <trkpt lat="45.90895" lon="6.50778">
        <ele>2471.6000976562</ele>
        <time>2014-02-12T10:01:14.000Z</time>
      </trkpt>
      <trkpt lat="45.90895" lon="6.50778">
        <ele>2471.6000976562</ele>
        <time>2014-02-12T10:01:15.000Z</time>
      </trkpt>
      <trkpt lat="45.90895" lon="6.50778">
        <ele>2471.6000976562</ele>
        <time>2014-02-12T10:01:16.000Z</time>
      </trkpt>
      <trkpt lat="45.90895" lon="6.50778">
        <ele>2471.6000976562</ele>
        <time>2014-02-12T10:01:17.000Z</time>
      </trkpt>
      <trkpt lat="45.90895" lon="6.50778">
        <ele>2471.6000976562</ele>
        <time>2014-02-12T10:01:18.000Z</time>
      </trkpt>
      <trkpt lat="45.90895" lon="6.50778">
        <ele>2471.6000976562</ele>
        <time>2014-02-12T10:01:19.000Z</time>
      </trkpt>
      <trkpt lat="45.90895" lon="6.50778">
        <ele>2471.6000976562</ele>
        <time>2014-02-12T10:01:20.000Z</time>
      </trkpt>
      <trkpt lat="45.90895" lon="6.50778">
        <ele>2471.6000976562</ele>
        <time>2014-02-12T10:01:21.000Z</time>
      </trkpt>
      <trkpt lat="45.90895" lon="6.50778">
        <ele>2471.6000976562</ele>
        <time>2014-02-12T10:01:22.000Z</time>
      </trkpt>
      <trkpt lat="45.90895" lon="6.50778">
        <ele>2471.6000976562</ele>
        <time>2014-02-12T10:01:23.000Z</time>
      </trkpt>
      <trkpt lat="45.90895" lon="6.50778">
        <ele>2471.6000976562</ele>
        <time>2014-02-12T10:01:24.000Z</time>
      </trkpt>
      <trkpt lat="45.90895" lon="6.50778">
        <ele>2471.6000976562</ele>
        <time>2014-02-12T10:01:25.000Z</time>
      </trkpt>
      <trkpt lat="45.90895" lon="6.50778">
        <ele>2471.6000976562</ele>
        <time>2014-02-12T10:01:26.000Z</time>
      </trkpt>
      <trkpt lat="45.90895" lon="6.50778">
        <ele>2471.6000976562</ele>
        <time>2014-02-12T10:01:27.000Z</time>
      </trkpt>
      <trkpt lat="45.90895" lon="6.50778">
        <ele>2471.6000976562</ele>
        <time>2014-02-12T10:01:29.000Z</time>
      </trkpt>
      <trkpt lat="45.90895" lon="6.50778">
        <ele>2471.6000976562</ele>
        <time>2014-02-12T10:01:30.000Z</time>
      </trkpt>
      <trkpt lat="45.90895" lon="6.50778">
        <ele>2471.6000976562</ele>
        <time>2014-02-12T10:01:31.000Z</time>
      </trkpt>
      <trkpt lat="45.90895" lon="6.50778">
        <ele>2471.6000976562</ele>
        <time>2014-02-12T10:01:32.000Z</time>
      </trkpt>
      <trkpt lat="45.90895" lon="6.50778">
        <ele>2471.6000976562</ele>
        <time>2014-02-12T10:01:33.000Z</time>
      </trkpt>
      <trkpt lat="45.90895" lon="6.50778">
        <ele>2471.6000976562</ele>
        <time>2014-02-12T10:01:34.000Z</time>
      </trkpt>
      <trkpt lat="45.90895" lon="6.50778">
        <ele>2471.6000976562</ele>
        <time>2014-02-12T10:01:35.000Z</time>
      </trkpt>
      <trkpt lat="45.90895" lon="6.50778">
        <ele>2471.6000976562</ele>
        <time>2014-02-12T10:01:36.000Z</time>
      </trkpt>
      <trkpt lat="45.90895" lon="6.50778">
        <ele>2471.6000976562</ele>
        <time>2014-02-12T10:01:38.000Z</time>
      </trkpt>
      <trkpt lat="45.90895" lon="6.50778">
        <ele>2471.6000976562</ele>
        <time>2014-02-12T10:01:39.000Z</time>
      </trkpt>
      <trkpt lat="45.90895" lon="6.50778">
        <ele>2471.6000976562</ele>
        <time>2014-02-12T10:01:40.000Z</time>
      </trkpt>
      <trkpt lat="45.90895" lon="6.50778">
        <ele>2471.6000976562</ele>
        <time>2014-02-12T10:01:41.000Z</time>
      </trkpt>
      <trkpt lat="45.90895" lon="6.50778">
        <ele>2471.6000976562</ele>
        <time>2014-02-12T10:01:42.000Z</time>
      </trkpt>
      <trkpt lat="45.90895" lon="6.50778">
        <ele>2471.6000976562</ele>
        <time>2014-02-12T10:01:43.000Z</time>
      </trkpt>
      <trkpt lat="45.90895" lon="6.50778">
        <ele>2471.6000976562</ele>
        <time>2014-02-12T10:01:44.000Z</time>
      </trkpt>
      <trkpt lat="45.90895" lon="6.50778">
        <ele>2471.6000976562</ele>
        <time>2014-02-12T10:01:46.000Z</time>
      </trkpt>
      <trkpt lat="45.90895" lon="6.50778">
        <ele>2471.6000976562</ele>
        <time>2014-02-12T10:01:47.000Z</time>
      </trkpt>
      <trkpt lat="45.90895" lon="6.50778">
        <ele>2471.6000976562</ele>
        <time>2014-02-12T10:01:48.000Z</time>
      </trkpt>
      <trkpt lat="45.90895" lon="6.50778">
        <ele>2471.6000976562</ele>
        <time>2014-02-12T10:01:49.000Z</time>
      </trkpt>
      <trkpt lat="45.90895" lon="6.50778">
        <ele>2471.6000976562</ele>
        <time>2014-02-12T10:01:52.000Z</time>
      </trkpt>
      <trkpt lat="45.90895" lon="6.50778">
        <ele>2471.6000976562</ele>
        <time>2014-02-12T10:01:55.000Z</time>
      </trkpt>
      <trkpt lat="45.90895" lon="6.50778">
        <ele>2471.6000976562</ele>
        <time>2014-02-12T10:01:56.000Z</time>
      </trkpt>
      <trkpt lat="45.90895" lon="6.50778">
        <ele>2471.6000976562</ele>
        <time>2014-02-12T10:01:57.000Z</time>
      </trkpt>
      <trkpt lat="45.90895" lon="6.50778">
        <ele>2471.6000976562</ele>
        <time>2014-02-12T10:01:58.000Z</time>
      </trkpt>
      <trkpt lat="45.90895" lon="6.50778">
        <ele>2471.6000976562</ele>
        <time>2014-02-12T10:01:59.000Z</time>
      </trkpt>
      <trkpt lat="45.90895" lon="6.50778">
        <ele>2471.6000976562</ele>
        <time>2014-02-12T10:02:00.000Z</time>
      </trkpt>
      <trkpt lat="45.90895" lon="6.50778">
        <ele>2471.6000976562</ele>
        <time>2014-02-12T10:02:02.000Z</time>
      </trkpt>
      <trkpt lat="45.90895" lon="6.50778">
        <ele>2471.6000976562</ele>
        <time>2014-02-12T10:02:06.000Z</time>
      </trkpt>
      <trkpt lat="45.90895" lon="6.50778">
        <ele>2471.6000976562</ele>
        <time>2014-02-12T10:02:07.000Z</time>
      </trkpt>
      <trkpt lat="45.90895" lon="6.50778">
        <ele>2471.6000976562</ele>
        <time>2014-02-12T10:02:12.000Z</time>
      </trkpt>
      <trkpt lat="45.90895" lon="6.50778">
        <ele>2471.6000976562</ele>
        <time>2014-02-12T10:02:13.000Z</time>
      </trkpt>
      <trkpt lat="45.90895" lon="6.50778">
        <ele>2471.6000976562</ele>
        <time>2014-02-12T10:02:17.000Z</time>
      </trkpt>
      <trkpt lat="45.90895" lon="6.50778">
        <ele>2471.6000976562</ele>
        <time>2014-02-12T10:02:18.000Z</time>
      </trkpt>
      <trkpt lat="45.90895" lon="6.50778">
        <ele>2471.6000976562</ele>
        <time>2014-02-12T10:02:19.000Z</time>
      </trkpt>
      <trkpt lat="45.90895" lon="6.50778">
        <ele>2471.6000976562</ele>
        <time>2014-02-12T10:02:20.000Z</time>
      </trkpt>
      <trkpt lat="45.90895" lon="6.50778">
        <ele>2471.6000976562</ele>
        <time>2014-02-12T10:02:21.000Z</time>
      </trkpt>
      <trkpt lat="45.90895" lon="6.50778">
        <ele>2471.6000976562</ele>
        <time>2014-02-12T10:02:22.000Z</time>
      </trkpt>
      <trkpt lat="45.90895" lon="6.50778">
        <ele>2471.6000976562</ele>
        <time>2014-02-12T10:02:23.000Z</time>
      </trkpt>
      <trkpt lat="45.90895" lon="6.50778">
        <ele>2471.6000976562</ele>
        <time>2014-02-12T10:02:24.000Z</time>
      </trkpt>
      <trkpt lat="45.90895" lon="6.50778">
        <ele>2471.6000976562</ele>
        <time>2014-02-12T10:02:25.000Z</time>
      </trkpt>
      <trkpt lat="45.90895" lon="6.50778">
        <ele>2471.6000976562</ele>
        <time>2014-02-12T10:02:26.000Z</time>
      </trkpt>
      <trkpt lat="45.90895" lon="6.50778">
        <ele>2471.6000976562</ele>
        <time>2014-02-12T10:02:27.000Z</time>
      </trkpt>
      <trkpt lat="45.90895" lon="6.50778">
        <ele>2471.6000976562</ele>
        <time>2014-02-12T10:02:30.000Z</time>
      </trkpt>
      <trkpt lat="45.90895" lon="6.50778">
        <ele>2471.6000976562</ele>
        <time>2014-02-12T10:02:31.000Z</time>
      </trkpt>
      <trkpt lat="45.90895" lon="6.50778">
        <ele>2471.6000976562</ele>
        <time>2014-02-12T10:02:32.000Z</time>
      </trkpt>
      <trkpt lat="45.90895" lon="6.50778">
        <ele>2471.6000976562</ele>
        <time>2014-02-12T10:02:33.000Z</time>
      </trkpt>
      <trkpt lat="45.90895" lon="6.50778">
        <ele>2471.6000976562</ele>
        <time>2014-02-12T10:02:34.000Z</time>
      </trkpt>
      <trkpt lat="45.90895" lon="6.50778">
        <ele>2471.6000976562</ele>
        <time>2014-02-12T10:02:35.000Z</time>
      </trkpt>
      <trkpt lat="45.90895" lon="6.50778">
        <ele>2471.6000976562</ele>
        <time>2014-02-12T10:02:37.000Z</time>
      </trkpt>
      <trkpt lat="45.90895" lon="6.50778">
        <ele>2471.6000976562</ele>
        <time>2014-02-12T10:02:38.000Z</time>
      </trkpt>
      <trkpt lat="45.90895" lon="6.50778">
        <ele>2471.6000976562</ele>
        <time>2014-02-12T10:02:39.000Z</time>
      </trkpt>
      <trkpt lat="45.90895" lon="6.50778">
        <ele>2471.6000976562</ele>
        <time>2014-02-12T10:02:40.000Z</time>
      </trkpt>
      <trkpt lat="45.90895" lon="6.50778">
        <ele>2471.6000976562</ele>
        <time>2014-02-12T10:02:46.000Z</time>
      </trkpt>
      <trkpt lat="45.90895" lon="6.50778">
        <ele>2471.6000976562</ele>
        <time>2014-02-12T10:02:48.000Z</time>
      </trkpt>
      <trkpt lat="45.90895" lon="6.50778">
        <ele>2471.6000976562</ele>
        <time>2014-02-12T10:02:49.000Z</time>
      </trkpt>
      <trkpt lat="45.90895" lon="6.50778">
        <ele>2471.6000976562</ele>
        <time>2014-02-12T10:02:50.000Z</time>
      </trkpt>
      <trkpt lat="45.90895" lon="6.50778">
        <ele>2471.6000976562</ele>
        <time>2014-02-12T10:02:51.000Z</time>
      </trkpt>
      <trkpt lat="45.90895" lon="6.50778">
        <ele>2471.6000976562</ele>
        <time>2014-02-12T10:02:52.000Z</time>
      </trkpt>
      <trkpt lat="45.90895" lon="6.50778">
        <ele>2471.6000976562</ele>
        <time>2014-02-12T10:02:53.000Z</time>
      </trkpt>
      <trkpt lat="45.90895" lon="6.50778">
        <ele>2471.6000976562</ele>
        <time>2014-02-12T10:02:54.000Z</time>
      </trkpt>
      <trkpt lat="45.90895" lon="6.50778">
        <ele>2471.6000976562</ele>
        <time>2014-02-12T10:02:55.000Z</time>
      </trkpt>
      <trkpt lat="45.90895" lon="6.50778">
        <ele>2471.6000976562</ele>
        <time>2014-02-12T10:02:56.000Z</time>
      </trkpt>
      <trkpt lat="45.90895" lon="6.50778">
        <ele>2471.6000976562</ele>
        <time>2014-02-12T10:02:57.000Z</time>
      </trkpt>
      <trkpt lat="45.90895" lon="6.50778">
        <ele>2471.6000976562</ele>
        <time>2014-02-12T10:02:58.000Z</time>
      </trkpt>
      <trkpt lat="45.90895" lon="6.50778">
        <ele>2471.6000976562</ele>
        <time>2014-02-12T10:02:59.000Z</time>
      </trkpt>
      <trkpt lat="45.90895" lon="6.50778">
        <ele>2471.6000976562</ele>
        <time>2014-02-12T10:03:00.000Z</time>
      </trkpt>
      <trkpt lat="45.90895" lon="6.50778">
        <ele>2471.6000976562</ele>
        <time>2014-02-12T10:03:01.000Z</time>
      </trkpt>
      <trkpt lat="45.90895" lon="6.50778">
        <ele>2471.6000976562</ele>
        <time>2014-02-12T10:03:02.000Z</time>
      </trkpt>
      <trkpt lat="45.90895" lon="6.50778">
        <ele>2471.6000976562</ele>
        <time>2014-02-12T10:03:04.000Z</time>
      </trkpt>
      <trkpt lat="45.90895" lon="6.50778">
        <ele>2471.3999023438</ele>
        <time>2014-02-12T10:03:06.000Z</time>
      </trkpt>
      <trkpt lat="45.90896" lon="6.50778">
        <ele>2471.3999023438</ele>
        <time>2014-02-12T10:03:09.000Z</time>
      </trkpt>
      <trkpt lat="45.90896" lon="6.50778">
        <ele>2471.3999023438</ele>
        <time>2014-02-12T10:03:10.000Z</time>
      </trkpt>
      <trkpt lat="45.90896" lon="6.50778">
        <ele>2471.3999023438</ele>
        <time>2014-02-12T10:03:12.000Z</time>
      </trkpt>
      <trkpt lat="45.90896" lon="6.50778">
        <ele>2471.3999023438</ele>
        <time>2014-02-12T10:03:13.000Z</time>
      </trkpt>
      <trkpt lat="45.90896" lon="6.50778">
        <ele>2471.3999023438</ele>
        <time>2014-02-12T10:03:14.000Z</time>
      </trkpt>
      <trkpt lat="45.90896" lon="6.50778">
        <ele>2471.3999023438</ele>
        <time>2014-02-12T10:03:15.000Z</time>
      </trkpt>
      <trkpt lat="45.90896" lon="6.50778">
        <ele>2471.3999023438</ele>
        <time>2014-02-12T10:03:16.000Z</time>
      </trkpt>
      <trkpt lat="45.90896" lon="6.50778">
        <ele>2471.3999023438</ele>
        <time>2014-02-12T10:03:17.000Z</time>
      </trkpt>
      <trkpt lat="45.90896" lon="6.50778">
        <ele>2471.3999023438</ele>
        <time>2014-02-12T10:03:18.000Z</time>
      </trkpt>
      <trkpt lat="45.90896" lon="6.50778">
        <ele>2471.3999023438</ele>
        <time>2014-02-12T10:03:19.000Z</time>
      </trkpt>
      <trkpt lat="45.90896" lon="6.50778">
        <ele>2471.3999023438</ele>
        <time>2014-02-12T10:03:20.000Z</time>
      </trkpt>
      <trkpt lat="45.90896" lon="6.50778">
        <ele>2471.3999023438</ele>
        <time>2014-02-12T10:03:21.000Z</time>
      </trkpt>
      <trkpt lat="45.90896" lon="6.50778">
        <ele>2471.3999023438</ele>
        <time>2014-02-12T10:03:22.000Z</time>
      </trkpt>
      <trkpt lat="45.90896" lon="6.50778">
        <ele>2471.3999023438</ele>
        <time>2014-02-12T10:03:23.000Z</time>
      </trkpt>
      <trkpt lat="45.90896" lon="6.50778">
        <ele>2471.3999023438</ele>
        <time>2014-02-12T10:03:25.000Z</time>
      </trkpt>
      <trkpt lat="45.90896" lon="6.50778">
        <ele>2471.3999023438</ele>
        <time>2014-02-12T10:03:26.000Z</time>
      </trkpt>
      <trkpt lat="45.90896" lon="6.50778">
        <ele>2471.3999023438</ele>
        <time>2014-02-12T10:03:27.000Z</time>
      </trkpt>
      <trkpt lat="45.90896" lon="6.50778">
        <ele>2471.3999023438</ele>
        <time>2014-02-12T10:03:28.000Z</time>
      </trkpt>
      <trkpt lat="45.90896" lon="6.50778">
        <ele>2471.3999023438</ele>
        <time>2014-02-12T10:03:29.000Z</time>
      </trkpt>
      <trkpt lat="45.90896" lon="6.50778">
        <ele>2471.3999023438</ele>
        <time>2014-02-12T10:03:30.000Z</time>
      </trkpt>
      <trkpt lat="45.90896" lon="6.50778">
        <ele>2471.3999023438</ele>
        <time>2014-02-12T10:03:31.000Z</time>
      </trkpt>
      <trkpt lat="45.90896" lon="6.50778">
        <ele>2471.3999023438</ele>
        <time>2014-02-12T10:03:32.000Z</time>
      </trkpt>
      <trkpt lat="45.90896" lon="6.50778">
        <ele>2471.3999023438</ele>
        <time>2014-02-12T10:03:33.000Z</time>
      </trkpt>
      <trkpt lat="45.90896" lon="6.50778">
        <ele>2471.3999023438</ele>
        <time>2014-02-12T10:03:34.000Z</time>
      </trkpt>
      <trkpt lat="45.90896" lon="6.50778">
        <ele>2471.3999023438</ele>
        <time>2014-02-12T10:03:35.000Z</time>
      </trkpt>
      <trkpt lat="45.90896" lon="6.50778">
        <ele>2471.3999023438</ele>
        <time>2014-02-12T10:03:36.000Z</time>
      </trkpt>
      <trkpt lat="45.90896" lon="6.50778">
        <ele>2471.3999023438</ele>
        <time>2014-02-12T10:03:37.000Z</time>
      </trkpt>
      <trkpt lat="45.90896" lon="6.50778">
        <ele>2471.3999023438</ele>
        <time>2014-02-12T10:03:41.000Z</time>
      </trkpt>
      <trkpt lat="45.90896" lon="6.50778">
        <ele>2471.3999023438</ele>
        <time>2014-02-12T10:03:42.000Z</time>
      </trkpt>
      <trkpt lat="45.90896" lon="6.50778">
        <ele>2471.3999023438</ele>
        <time>2014-02-12T10:03:45.000Z</time>
      </trkpt>
      <trkpt lat="45.90896" lon="6.50778">
        <ele>2471.3999023438</ele>
        <time>2014-02-12T10:03:46.000Z</time>
      </trkpt>
      <trkpt lat="45.90896" lon="6.50778">
        <ele>2471.1999511719</ele>
        <time>2014-02-12T10:03:47.000Z</time>
      </trkpt>
      <trkpt lat="45.90896" lon="6.50778">
        <ele>2471.1999511719</ele>
        <time>2014-02-12T10:03:48.000Z</time>
      </trkpt>
      <trkpt lat="45.90896" lon="6.50778">
        <ele>2471.1999511719</ele>
        <time>2014-02-12T10:03:49.000Z</time>
      </trkpt>
      <trkpt lat="45.90896" lon="6.50778">
        <ele>2471.1999511719</ele>
        <time>2014-02-12T10:03:50.000Z</time>
      </trkpt>
      <trkpt lat="45.90896" lon="6.50778">
        <ele>2471.1999511719</ele>
        <time>2014-02-12T10:03:51.000Z</time>
      </trkpt>
      <trkpt lat="45.90896" lon="6.50778">
        <ele>2471.1999511719</ele>
        <time>2014-02-12T10:03:52.000Z</time>
      </trkpt>
      <trkpt lat="45.90896" lon="6.50778">
        <ele>2471.1999511719</ele>
        <time>2014-02-12T10:03:53.000Z</time>
      </trkpt>
      <trkpt lat="45.90896" lon="6.50778">
        <ele>2471.1999511719</ele>
        <time>2014-02-12T10:03:54.000Z</time>
      </trkpt>
      <trkpt lat="45.90896" lon="6.50778">
        <ele>2471.1999511719</ele>
        <time>2014-02-12T10:03:55.000Z</time>
      </trkpt>
      <trkpt lat="45.90896" lon="6.50778">
        <ele>2471.1999511719</ele>
        <time>2014-02-12T10:03:57.000Z</time>
      </trkpt>
      <trkpt lat="45.90896" lon="6.50778">
        <ele>2471.1999511719</ele>
        <time>2014-02-12T10:03:58.000Z</time>
      </trkpt>
      <trkpt lat="45.90896" lon="6.50778">
        <ele>2471.1999511719</ele>
        <time>2014-02-12T10:03:59.000Z</time>
      </trkpt>
      <trkpt lat="45.90896" lon="6.50778">
        <ele>2471.1999511719</ele>
        <time>2014-02-12T10:04:00.000Z</time>
      </trkpt>
      <trkpt lat="45.90896" lon="6.50778">
        <ele>2471.1999511719</ele>
        <time>2014-02-12T10:04:01.000Z</time>
      </trkpt>
      <trkpt lat="45.90896" lon="6.50778">
        <ele>2471.1999511719</ele>
        <time>2014-02-12T10:04:02.000Z</time>
      </trkpt>
      <trkpt lat="45.90896" lon="6.50778">
        <ele>2471.1999511719</ele>
        <time>2014-02-12T10:04:03.000Z</time>
      </trkpt>
      <trkpt lat="45.90896" lon="6.50778">
        <ele>2471.1999511719</ele>
        <time>2014-02-12T10:04:04.000Z</time>
      </trkpt>
      <trkpt lat="45.90896" lon="6.50778">
        <ele>2471.1999511719</ele>
        <time>2014-02-12T10:04:05.000Z</time>
      </trkpt>
      <trkpt lat="45.90896" lon="6.50778">
        <ele>2471.1999511719</ele>
        <time>2014-02-12T10:04:06.000Z</time>
      </trkpt>
      <trkpt lat="45.90896" lon="6.50778">
        <ele>2471.1999511719</ele>
        <time>2014-02-12T10:04:07.000Z</time>
      </trkpt>
      <trkpt lat="45.90896" lon="6.50778">
        <ele>2471.1999511719</ele>
        <time>2014-02-12T10:04:08.000Z</time>
      </trkpt>
      <trkpt lat="45.90896" lon="6.50778">
        <ele>2471.1999511719</ele>
        <time>2014-02-12T10:04:09.000Z</time>
      </trkpt>
      <trkpt lat="45.90896" lon="6.50778">
        <ele>2471.1999511719</ele>
        <time>2014-02-12T10:04:10.000Z</time>
      </trkpt>
      <trkpt lat="45.90896" lon="6.50778">
        <ele>2471.1999511719</ele>
        <time>2014-02-12T10:04:11.000Z</time>
      </trkpt>
      <trkpt lat="45.90896" lon="6.50778">
        <ele>2471.1999511719</ele>
        <time>2014-02-12T10:04:12.000Z</time>
      </trkpt>
      <trkpt lat="45.90896" lon="6.50778">
        <ele>2471.1999511719</ele>
        <time>2014-02-12T10:04:15.000Z</time>
      </trkpt>
      <trkpt lat="45.90896" lon="6.50778">
        <ele>2471.1999511719</ele>
        <time>2014-02-12T10:04:17.000Z</time>
      </trkpt>
      <trkpt lat="45.90896" lon="6.50778">
        <ele>2471.1999511719</ele>
        <time>2014-02-12T10:04:18.000Z</time>
      </trkpt>
      <trkpt lat="45.90896" lon="6.50778">
        <ele>2471.1999511719</ele>
        <time>2014-02-12T10:04:19.000Z</time>
      </trkpt>
      <trkpt lat="45.90896" lon="6.50778">
        <ele>2471.1999511719</ele>
        <time>2014-02-12T10:04:20.000Z</time>
      </trkpt>
      <trkpt lat="45.90896" lon="6.50778">
        <ele>2471.1999511719</ele>
        <time>2014-02-12T10:04:21.000Z</time>
      </trkpt>
      <trkpt lat="45.90896" lon="6.50778">
        <ele>2471.1999511719</ele>
        <time>2014-02-12T10:04:22.000Z</time>
      </trkpt>
      <trkpt lat="45.90896" lon="6.50778">
        <ele>2471.1999511719</ele>
        <time>2014-02-12T10:04:23.000Z</time>
      </trkpt>
      <trkpt lat="45.90896" lon="6.50778">
        <ele>2471.1999511719</ele>
        <time>2014-02-12T10:04:24.000Z</time>
      </trkpt>
      <trkpt lat="45.90896" lon="6.50778">
        <ele>2471.1999511719</ele>
        <time>2014-02-12T10:04:26.000Z</time>
      </trkpt>
      <trkpt lat="45.90896" lon="6.50778">
        <ele>2471.3999023438</ele>
        <time>2014-02-12T10:04:27.000Z</time>
      </trkpt>
      <trkpt lat="45.90896" lon="6.50778">
        <ele>2471.3999023438</ele>
        <time>2014-02-12T10:04:28.000Z</time>
      </trkpt>
      <trkpt lat="45.90896" lon="6.50778">
        <ele>2471.3999023438</ele>
        <time>2014-02-12T10:04:29.000Z</time>
      </trkpt>
      <trkpt lat="45.90896" lon="6.50778">
        <ele>2471.3999023438</ele>
        <time>2014-02-12T10:04:30.000Z</time>
      </trkpt>
      <trkpt lat="45.90896" lon="6.50778">
        <ele>2471.3999023438</ele>
        <time>2014-02-12T10:04:31.000Z</time>
      </trkpt>
      <trkpt lat="45.90896" lon="6.50778">
        <ele>2471.3999023438</ele>
        <time>2014-02-12T10:04:32.000Z</time>
      </trkpt>
      <trkpt lat="45.90896" lon="6.50778">
        <ele>2471.3999023438</ele>
        <time>2014-02-12T10:04:33.000Z</time>
      </trkpt>
      <trkpt lat="45.90896" lon="6.50778">
        <ele>2471.3999023438</ele>
        <time>2014-02-12T10:04:34.000Z</time>
      </trkpt>
      <trkpt lat="45.90896" lon="6.50778">
        <ele>2471.3999023438</ele>
        <time>2014-02-12T10:04:35.000Z</time>
      </trkpt>
      <trkpt lat="45.90896" lon="6.50778">
        <ele>2471.3999023438</ele>
        <time>2014-02-12T10:04:36.000Z</time>
      </trkpt>
      <trkpt lat="45.90896" lon="6.50778">
        <ele>2471.3999023438</ele>
        <time>2014-02-12T10:04:37.000Z</time>
      </trkpt>
      <trkpt lat="45.90896" lon="6.50778">
        <ele>2471.3999023438</ele>
        <time>2014-02-12T10:04:38.000Z</time>
      </trkpt>
      <trkpt lat="45.90896" lon="6.50778">
        <ele>2471.3999023438</ele>
        <time>2014-02-12T10:04:39.000Z</time>
      </trkpt>
      <trkpt lat="45.90896" lon="6.50778">
        <ele>2471.3999023438</ele>
        <time>2014-02-12T10:04:41.000Z</time>
      </trkpt>
      <trkpt lat="45.90896" lon="6.50778">
        <ele>2471.3999023438</ele>
        <time>2014-02-12T10:04:42.000Z</time>
      </trkpt>
      <trkpt lat="45.90896" lon="6.50778">
        <ele>2471.3999023438</ele>
        <time>2014-02-12T10:04:43.000Z</time>
      </trkpt>
      <trkpt lat="45.90896" lon="6.50778">
        <ele>2471.3999023438</ele>
        <time>2014-02-12T10:04:44.000Z</time>
      </trkpt>
      <trkpt lat="45.90896" lon="6.50778">
        <ele>2471.3999023438</ele>
        <time>2014-02-12T10:04:45.000Z</time>
      </trkpt>
      <trkpt lat="45.90896" lon="6.50778">
        <ele>2471.3999023438</ele>
        <time>2014-02-12T10:04:46.000Z</time>
      </trkpt>
      <trkpt lat="45.90896" lon="6.50778">
        <ele>2471.3999023438</ele>
        <time>2014-02-12T10:04:47.000Z</time>
      </trkpt>
      <trkpt lat="45.90896" lon="6.50778">
        <ele>2471.3999023438</ele>
        <time>2014-02-12T10:04:48.000Z</time>
      </trkpt>
      <trkpt lat="45.90896" lon="6.50778">
        <ele>2471.3999023438</ele>
        <time>2014-02-12T10:04:49.000Z</time>
      </trkpt>
      <trkpt lat="45.90896" lon="6.50778">
        <ele>2471.3999023438</ele>
        <time>2014-02-12T10:04:50.000Z</time>
      </trkpt>
      <trkpt lat="45.90896" lon="6.50778">
        <ele>2471.3999023438</ele>
        <time>2014-02-12T10:04:51.000Z</time>
      </trkpt>
      <trkpt lat="45.90896" lon="6.50778">
        <ele>2471.3999023438</ele>
        <time>2014-02-12T10:04:52.000Z</time>
      </trkpt>
      <trkpt lat="45.90896" lon="6.50778">
        <ele>2471.3999023438</ele>
        <time>2014-02-12T10:04:53.000Z</time>
      </trkpt>
      <trkpt lat="45.90896" lon="6.50778">
        <ele>2471.3999023438</ele>
        <time>2014-02-12T10:04:56.000Z</time>
      </trkpt>
      <trkpt lat="45.90896" lon="6.50778">
        <ele>2471.3999023438</ele>
        <time>2014-02-12T10:04:57.000Z</time>
      </trkpt>
      <trkpt lat="45.90896" lon="6.50778">
        <ele>2471.3999023438</ele>
        <time>2014-02-12T10:04:58.000Z</time>
      </trkpt>
      <trkpt lat="45.90896" lon="6.50778">
        <ele>2471.3999023438</ele>
        <time>2014-02-12T10:04:59.000Z</time>
      </trkpt>
      <trkpt lat="45.90896" lon="6.50778">
        <ele>2471.3999023438</ele>
        <time>2014-02-12T10:05:00.000Z</time>
      </trkpt>
      <trkpt lat="45.90896" lon="6.50778">
        <ele>2471.3999023438</ele>
        <time>2014-02-12T10:05:01.000Z</time>
      </trkpt>
      <trkpt lat="45.90896" lon="6.50778">
        <ele>2471.3999023438</ele>
        <time>2014-02-12T10:05:02.000Z</time>
      </trkpt>
      <trkpt lat="45.90896" lon="6.50778">
        <ele>2471.3999023438</ele>
        <time>2014-02-12T10:05:03.000Z</time>
      </trkpt>
      <trkpt lat="45.90896" lon="6.50778">
        <ele>2471.3999023438</ele>
        <time>2014-02-12T10:05:04.000Z</time>
      </trkpt>
      <trkpt lat="45.90896" lon="6.50778">
        <ele>2471.3999023438</ele>
        <time>2014-02-12T10:05:05.000Z</time>
      </trkpt>
      <trkpt lat="45.90896" lon="6.50778">
        <ele>2471.3999023438</ele>
        <time>2014-02-12T10:05:06.000Z</time>
      </trkpt>
      <trkpt lat="45.90896" lon="6.50777">
        <ele>2471.1999511719</ele>
        <time>2014-02-12T10:05:07.000Z</time>
      </trkpt>
      <trkpt lat="45.90896" lon="6.50777">
        <ele>2471.1999511719</ele>
        <time>2014-02-12T10:05:08.000Z</time>
      </trkpt>
      <trkpt lat="45.90896" lon="6.50777">
        <ele>2471.1999511719</ele>
        <time>2014-02-12T10:05:09.000Z</time>
      </trkpt>
      <trkpt lat="45.90896" lon="6.50777">
        <ele>2471.1999511719</ele>
        <time>2014-02-12T10:05:10.000Z</time>
      </trkpt>
      <trkpt lat="45.90896" lon="6.50777">
        <ele>2471.1999511719</ele>
        <time>2014-02-12T10:05:11.000Z</time>
      </trkpt>
      <trkpt lat="45.90896" lon="6.50777">
        <ele>2471.1999511719</ele>
        <time>2014-02-12T10:05:12.000Z</time>
      </trkpt>
      <trkpt lat="45.90896" lon="6.50777">
        <ele>2471.1999511719</ele>
        <time>2014-02-12T10:05:13.000Z</time>
      </trkpt>
      <trkpt lat="45.90896" lon="6.50777">
        <ele>2471.1999511719</ele>
        <time>2014-02-12T10:05:14.000Z</time>
      </trkpt>
      <trkpt lat="45.90896" lon="6.50777">
        <ele>2471.1999511719</ele>
        <time>2014-02-12T10:05:15.000Z</time>
      </trkpt>
      <trkpt lat="45.90896" lon="6.50777">
        <ele>2471.1999511719</ele>
        <time>2014-02-12T10:05:16.000Z</time>
      </trkpt>
      <trkpt lat="45.90896" lon="6.50777">
        <ele>2471.1999511719</ele>
        <time>2014-02-12T10:05:17.000Z</time>
      </trkpt>
      <trkpt lat="45.90896" lon="6.50777">
        <ele>2471.1999511719</ele>
        <time>2014-02-12T10:05:18.000Z</time>
      </trkpt>
      <trkpt lat="45.90896" lon="6.50777">
        <ele>2471.1999511719</ele>
        <time>2014-02-12T10:05:19.000Z</time>
      </trkpt>
      <trkpt lat="45.90896" lon="6.50777">
        <ele>2471.1999511719</ele>
        <time>2014-02-12T10:05:20.000Z</time>
      </trkpt>
      <trkpt lat="45.90896" lon="6.50777">
        <ele>2471.1999511719</ele>
        <time>2014-02-12T10:05:21.000Z</time>
      </trkpt>
      <trkpt lat="45.90896" lon="6.50777">
        <ele>2471.1999511719</ele>
        <time>2014-02-12T10:05:22.000Z</time>
      </trkpt>
      <trkpt lat="45.90896" lon="6.50777">
        <ele>2471.1999511719</ele>
        <time>2014-02-12T10:05:23.000Z</time>
      </trkpt>
      <trkpt lat="45.90896" lon="6.50777">
        <ele>2471.1999511719</ele>
        <time>2014-02-12T10:05:24.000Z</time>
      </trkpt>
      <trkpt lat="45.90896" lon="6.50777">
        <ele>2471.1999511719</ele>
        <time>2014-02-12T10:05:25.000Z</time>
      </trkpt>
      <trkpt lat="45.90896" lon="6.50777">
        <ele>2471.1999511719</ele>
        <time>2014-02-12T10:05:26.000Z</time>
      </trkpt>
      <trkpt lat="45.90896" lon="6.50777">
        <ele>2471.1999511719</ele>
        <time>2014-02-12T10:05:27.000Z</time>
      </trkpt>
      <trkpt lat="45.90896" lon="6.50777">
        <ele>2471.1999511719</ele>
        <time>2014-02-12T10:05:28.000Z</time>
      </trkpt>
      <trkpt lat="45.90896" lon="6.50777">
        <ele>2471.1999511719</ele>
        <time>2014-02-12T10:05:29.000Z</time>
      </trkpt>
      <trkpt lat="45.90896" lon="6.50777">
        <ele>2471.1999511719</ele>
        <time>2014-02-12T10:05:30.000Z</time>
      </trkpt>
      <trkpt lat="45.90896" lon="6.50777">
        <ele>2471.1999511719</ele>
        <time>2014-02-12T10:05:31.000Z</time>
      </trkpt>
      <trkpt lat="45.90896" lon="6.50777">
        <ele>2471.1999511719</ele>
        <time>2014-02-12T10:05:32.000Z</time>
      </trkpt>
      <trkpt lat="45.90895" lon="6.50776">
        <ele>2471.3999023438</ele>
        <time>2014-02-12T10:05:33.000Z</time>
      </trkpt>
      <trkpt lat="45.90893" lon="6.50778">
        <ele>2472.1999511719</ele>
        <time>2014-02-12T10:05:34.000Z</time>
      </trkpt>
      <trkpt lat="45.90891" lon="6.50781">
        <ele>2473.1999511719</ele>
        <time>2014-02-12T10:05:35.000Z</time>
      </trkpt>
      <trkpt lat="45.90889" lon="6.50784">
        <ele>2473.6000976562</ele>
        <time>2014-02-12T10:05:36.000Z</time>
      </trkpt>
      <trkpt lat="45.90887" lon="6.50784">
        <ele>2473</ele>
        <time>2014-02-12T10:05:37.000Z</time>
      </trkpt>
      <trkpt lat="45.90885" lon="6.50784">
        <ele>2472.3999023438</ele>
        <time>2014-02-12T10:05:38.000Z</time>
      </trkpt>
      <trkpt lat="45.90882" lon="6.50786">
        <ele>2471.3999023438</ele>
        <time>2014-02-12T10:05:39.000Z</time>
      </trkpt>
      <trkpt lat="45.90879" lon="6.50785">
        <ele>2470.3999023438</ele>
        <time>2014-02-12T10:05:40.000Z</time>
      </trkpt>
      <trkpt lat="45.90877" lon="6.50782">
        <ele>2469.6000976562</ele>
        <time>2014-02-12T10:05:41.000Z</time>
      </trkpt>
      <trkpt lat="45.90874" lon="6.50779">
        <ele>2468.6000976562</ele>
        <time>2014-02-12T10:05:42.000Z</time>
      </trkpt>
      <trkpt lat="45.9087" lon="6.50779">
        <ele>2467.6000976562</ele>
        <time>2014-02-12T10:05:43.000Z</time>
      </trkpt>
      <trkpt lat="45.90868" lon="6.50779">
        <ele>2466.6000976562</ele>
        <time>2014-02-12T10:05:44.000Z</time>
      </trkpt>
      <trkpt lat="45.90866" lon="6.50776">
        <ele>2466</ele>
        <time>2014-02-12T10:05:45.000Z</time>
      </trkpt>
      <trkpt lat="45.90865" lon="6.50771">
        <ele>2465.3999023438</ele>
        <time>2014-02-12T10:05:46.000Z</time>
      </trkpt>
      <trkpt lat="45.90865" lon="6.50765">
        <ele>2465.1999511719</ele>
        <time>2014-02-12T10:05:47.000Z</time>
      </trkpt>
      <trkpt lat="45.90865" lon="6.5076">
        <ele>2464.8000488281</ele>
        <time>2014-02-12T10:05:48.000Z</time>
      </trkpt>
      <trkpt lat="45.90864" lon="6.50756">
        <ele>2464.1999511719</ele>
        <time>2014-02-12T10:05:49.000Z</time>
      </trkpt>
      <trkpt lat="45.90863" lon="6.50754">
        <ele>2463.8000488281</ele>
        <time>2014-02-12T10:05:50.000Z</time>
      </trkpt>
      <trkpt lat="45.90861" lon="6.50754">
        <ele>2463.1999511719</ele>
        <time>2014-02-12T10:05:51.000Z</time>
      </trkpt>
      <trkpt lat="45.90859" lon="6.50753">
        <ele>2462.3999023438</ele>
        <time>2014-02-12T10:05:52.000Z</time>
      </trkpt>
      <trkpt lat="45.90857" lon="6.50751">
        <ele>2461.8000488281</ele>
        <time>2014-02-12T10:05:53.000Z</time>
      </trkpt>
      <trkpt lat="45.90855" lon="6.50748">
        <ele>2460.8000488281</ele>
        <time>2014-02-12T10:05:54.000Z</time>
      </trkpt>
      <trkpt lat="45.90852" lon="6.50747">
        <ele>2460</ele>
        <time>2014-02-12T10:05:55.000Z</time>
      </trkpt>
      <trkpt lat="45.9085" lon="6.50747">
        <ele>2459.1999511719</ele>
        <time>2014-02-12T10:05:56.000Z</time>
      </trkpt>
      <trkpt lat="45.90846" lon="6.50749">
        <ele>2458.1999511719</ele>
        <time>2014-02-12T10:05:57.000Z</time>
      </trkpt>
      <trkpt lat="45.90844" lon="6.5075">
        <ele>2457.3999023438</ele>
        <time>2014-02-12T10:05:58.000Z</time>
      </trkpt>
      <trkpt lat="45.90841" lon="6.50752">
        <ele>2456.6000976562</ele>
        <time>2014-02-12T10:05:59.000Z</time>
      </trkpt>
      <trkpt lat="45.90838" lon="6.50755">
        <ele>2456</ele>
        <time>2014-02-12T10:06:00.000Z</time>
      </trkpt>
      <trkpt lat="45.90834" lon="6.50759">
        <ele>2455</ele>
        <time>2014-02-12T10:06:01.000Z</time>
      </trkpt>
      <trkpt lat="45.9083" lon="6.50761">
        <ele>2454</ele>
        <time>2014-02-12T10:06:02.000Z</time>
      </trkpt>
      <trkpt lat="45.90827" lon="6.50761">
        <ele>2453.3999023438</ele>
        <time>2014-02-12T10:06:03.000Z</time>
      </trkpt>
      <trkpt lat="45.90823" lon="6.50762">
        <ele>2452.3999023438</ele>
        <time>2014-02-12T10:06:04.000Z</time>
      </trkpt>
      <trkpt lat="45.90819" lon="6.50763">
        <ele>2451.6000976562</ele>
        <time>2014-02-12T10:06:05.000Z</time>
      </trkpt>
      <trkpt lat="45.90815" lon="6.50764">
        <ele>2450.8000488281</ele>
        <time>2014-02-12T10:06:06.000Z</time>
      </trkpt>
      <trkpt lat="45.90813" lon="6.50762">
        <ele>2449.8000488281</ele>
        <time>2014-02-12T10:06:07.000Z</time>
      </trkpt>
      <trkpt lat="45.90809" lon="6.50763">
        <ele>2449.1999511719</ele>
        <time>2014-02-12T10:06:08.000Z</time>
      </trkpt>
      <trkpt lat="45.90807" lon="6.50762">
        <ele>2448.3999023438</ele>
        <time>2014-02-12T10:06:09.000Z</time>
      </trkpt>
      <trkpt lat="45.90806" lon="6.50757">
        <ele>2447.3999023438</ele>
        <time>2014-02-12T10:06:10.000Z</time>
      </trkpt>
      <trkpt lat="45.90806" lon="6.50752">
        <ele>2446.8000488281</ele>
        <time>2014-02-12T10:06:11.000Z</time>
      </trkpt>
      <trkpt lat="45.90806" lon="6.50746">
        <ele>2446.1999511719</ele>
        <time>2014-02-12T10:06:12.000Z</time>
      </trkpt>
      <trkpt lat="45.90807" lon="6.50741">
        <ele>2445.8000488281</ele>
        <time>2014-02-12T10:06:13.000Z</time>
      </trkpt>
      <trkpt lat="45.90806" lon="6.50736">
        <ele>2445</ele>
        <time>2014-02-12T10:06:14.000Z</time>
      </trkpt>
      <trkpt lat="45.90805" lon="6.50732">
        <ele>2443.8000488281</ele>
        <time>2014-02-12T10:06:15.000Z</time>
      </trkpt>
      <trkpt lat="45.90803" lon="6.50729">
        <ele>2442</ele>
        <time>2014-02-12T10:06:16.000Z</time>
      </trkpt>
      <trkpt lat="45.90799" lon="6.50724">
        <ele>2439.3999023438</ele>
        <time>2014-02-12T10:06:17.000Z</time>
      </trkpt>
      <trkpt lat="45.90796" lon="6.50719">
        <ele>2437</ele>
        <time>2014-02-12T10:06:18.000Z</time>
      </trkpt>
      <trkpt lat="45.90793" lon="6.50716">
        <ele>2435.1999511719</ele>
        <time>2014-02-12T10:06:19.000Z</time>
      </trkpt>
      <trkpt lat="45.9079" lon="6.50715">
        <ele>2433.1999511719</ele>
        <time>2014-02-12T10:06:20.000Z</time>
      </trkpt>
      <trkpt lat="45.90785" lon="6.50715">
        <ele>2431.3999023438</ele>
        <time>2014-02-12T10:06:21.000Z</time>
      </trkpt>
      <trkpt lat="45.90783" lon="6.50717">
        <ele>2431</ele>
        <time>2014-02-12T10:06:22.000Z</time>
      </trkpt>
      <trkpt lat="45.90781" lon="6.50718">
        <ele>2430.8000488281</ele>
        <time>2014-02-12T10:06:23.000Z</time>
      </trkpt>
      <trkpt lat="45.90779" lon="6.50718">
        <ele>2430.6000976562</ele>
        <time>2014-02-12T10:06:24.000Z</time>
      </trkpt>
      <trkpt lat="45.90778" lon="6.50719">
        <ele>2430.1999511719</ele>
        <time>2014-02-12T10:06:25.000Z</time>
      </trkpt>
      <trkpt lat="45.90777" lon="6.50719">
        <ele>2430</ele>
        <time>2014-02-12T10:06:26.000Z</time>
      </trkpt>
      <trkpt lat="45.90777" lon="6.50719">
        <ele>2430</ele>
        <time>2014-02-12T10:06:27.000Z</time>
      </trkpt>
      <trkpt lat="45.90777" lon="6.50719">
        <ele>2430</ele>
        <time>2014-02-12T10:06:28.000Z</time>
      </trkpt>
      <trkpt lat="45.90777" lon="6.50719">
        <ele>2430</ele>
        <time>2014-02-12T10:06:29.000Z</time>
      </trkpt>
      <trkpt lat="45.90776" lon="6.50719">
        <ele>2429.8000488281</ele>
        <time>2014-02-12T10:06:30.000Z</time>
      </trkpt>
      <trkpt lat="45.90776" lon="6.50719">
        <ele>2429.8000488281</ele>
        <time>2014-02-12T10:06:31.000Z</time>
      </trkpt>
      <trkpt lat="45.90776" lon="6.5072">
        <ele>2429.6000976562</ele>
        <time>2014-02-12T10:06:32.000Z</time>
      </trkpt>
      <trkpt lat="45.90775" lon="6.5072">
        <ele>2429.6000976562</ele>
        <time>2014-02-12T10:06:33.000Z</time>
      </trkpt>
      <trkpt lat="45.90774" lon="6.50721">
        <ele>2429.3999023438</ele>
        <time>2014-02-12T10:06:34.000Z</time>
      </trkpt>
      <trkpt lat="45.90773" lon="6.50721">
        <ele>2429.1999511719</ele>
        <time>2014-02-12T10:06:35.000Z</time>
      </trkpt>
      <trkpt lat="45.90774" lon="6.5072">
        <ele>2429.1999511719</ele>
        <time>2014-02-12T10:06:36.000Z</time>
      </trkpt>
      <trkpt lat="45.90774" lon="6.5072">
        <ele>2429.1999511719</ele>
        <time>2014-02-12T10:06:37.000Z</time>
      </trkpt>
      <trkpt lat="45.90774" lon="6.5072">
        <ele>2429.3999023438</ele>
        <time>2014-02-12T10:06:38.000Z</time>
      </trkpt>
      <trkpt lat="45.90774" lon="6.5072">
        <ele>2429.3999023438</ele>
        <time>2014-02-12T10:06:39.000Z</time>
      </trkpt>
      <trkpt lat="45.90773" lon="6.50721">
        <ele>2429.3999023438</ele>
        <time>2014-02-12T10:06:41.000Z</time>
      </trkpt>
      <trkpt lat="45.90773" lon="6.50722">
        <ele>2429.1999511719</ele>
        <time>2014-02-12T10:06:42.000Z</time>
      </trkpt>
      <trkpt lat="45.90772" lon="6.50722">
        <ele>2429</ele>
        <time>2014-02-12T10:06:45.000Z</time>
      </trkpt>
      <trkpt lat="45.90771" lon="6.50722">
        <ele>2428.8000488281</ele>
        <time>2014-02-12T10:06:46.000Z</time>
      </trkpt>
      <trkpt lat="45.90771" lon="6.50723">
        <ele>2428.8000488281</ele>
        <time>2014-02-12T10:06:47.000Z</time>
      </trkpt>
      <trkpt lat="45.9077" lon="6.50722">
        <ele>2428.6000976562</ele>
        <time>2014-02-12T10:06:48.000Z</time>
      </trkpt>
      <trkpt lat="45.9077" lon="6.50722">
        <ele>2428.3999023438</ele>
        <time>2014-02-12T10:06:49.000Z</time>
      </trkpt>
      <trkpt lat="45.9077" lon="6.50722">
        <ele>2428.1999511719</ele>
        <time>2014-02-12T10:06:50.000Z</time>
      </trkpt>
      <trkpt lat="45.9077" lon="6.50722">
        <ele>2428.1999511719</ele>
        <time>2014-02-12T10:06:51.000Z</time>
      </trkpt>
      <trkpt lat="45.9077" lon="6.50722">
        <ele>2428.1999511719</ele>
        <time>2014-02-12T10:06:54.000Z</time>
      </trkpt>
      <trkpt lat="45.9077" lon="6.50722">
        <ele>2428.1999511719</ele>
        <time>2014-02-12T10:06:55.000Z</time>
      </trkpt>
      <trkpt lat="45.9077" lon="6.50722">
        <ele>2428.1999511719</ele>
        <time>2014-02-12T10:06:56.000Z</time>
      </trkpt>
      <trkpt lat="45.9077" lon="6.50722">
        <ele>2428.1999511719</ele>
        <time>2014-02-12T10:06:57.000Z</time>
      </trkpt>
      <trkpt lat="45.9077" lon="6.50722">
        <ele>2428.1999511719</ele>
        <time>2014-02-12T10:06:58.000Z</time>
      </trkpt>
      <trkpt lat="45.9077" lon="6.50722">
        <ele>2428.1999511719</ele>
        <time>2014-02-12T10:06:59.000Z</time>
      </trkpt>
      <trkpt lat="45.9077" lon="6.50722">
        <ele>2428.1999511719</ele>
        <time>2014-02-12T10:07:00.000Z</time>
      </trkpt>
      <trkpt lat="45.9077" lon="6.50722">
        <ele>2428.1999511719</ele>
        <time>2014-02-12T10:07:02.000Z</time>
      </trkpt>
      <trkpt lat="45.9077" lon="6.50722">
        <ele>2428.1999511719</ele>
        <time>2014-02-12T10:07:03.000Z</time>
      </trkpt>
      <trkpt lat="45.9077" lon="6.50722">
        <ele>2428.1999511719</ele>
        <time>2014-02-12T10:07:04.000Z</time>
      </trkpt>
      <trkpt lat="45.9077" lon="6.50722">
        <ele>2428.1999511719</ele>
        <time>2014-02-12T10:07:05.000Z</time>
      </trkpt>
      <trkpt lat="45.9077" lon="6.50722">
        <ele>2428.1999511719</ele>
        <time>2014-02-12T10:07:06.000Z</time>
      </trkpt>
      <trkpt lat="45.9077" lon="6.50722">
        <ele>2428.1999511719</ele>
        <time>2014-02-12T10:07:07.000Z</time>
      </trkpt>
      <trkpt lat="45.9077" lon="6.50722">
        <ele>2428.1999511719</ele>
        <time>2014-02-12T10:07:08.000Z</time>
      </trkpt>
      <trkpt lat="45.9077" lon="6.50722">
        <ele>2428.1999511719</ele>
        <time>2014-02-12T10:07:09.000Z</time>
      </trkpt>
      <trkpt lat="45.9077" lon="6.50722">
        <ele>2428.1999511719</ele>
        <time>2014-02-12T10:07:10.000Z</time>
      </trkpt>
      <trkpt lat="45.9077" lon="6.50722">
        <ele>2428.1999511719</ele>
        <time>2014-02-12T10:07:11.000Z</time>
      </trkpt>
      <trkpt lat="45.9077" lon="6.50722">
        <ele>2428.1999511719</ele>
        <time>2014-02-12T10:07:12.000Z</time>
      </trkpt>
      <trkpt lat="45.9077" lon="6.50722">
        <ele>2428.1999511719</ele>
        <time>2014-02-12T10:07:13.000Z</time>
      </trkpt>
      <trkpt lat="45.9077" lon="6.50722">
        <ele>2428.1999511719</ele>
        <time>2014-02-12T10:07:14.000Z</time>
      </trkpt>
      <trkpt lat="45.9077" lon="6.50722">
        <ele>2428.1999511719</ele>
        <time>2014-02-12T10:07:16.000Z</time>
      </trkpt>
      <trkpt lat="45.9077" lon="6.50722">
        <ele>2428.1999511719</ele>
        <time>2014-02-12T10:07:17.000Z</time>
      </trkpt>
      <trkpt lat="45.9077" lon="6.50722">
        <ele>2428.1999511719</ele>
        <time>2014-02-12T10:07:18.000Z</time>
      </trkpt>
      <trkpt lat="45.9077" lon="6.50722">
        <ele>2428.1999511719</ele>
        <time>2014-02-12T10:07:19.000Z</time>
      </trkpt>
      <trkpt lat="45.9077" lon="6.50722">
        <ele>2428.1999511719</ele>
        <time>2014-02-12T10:07:20.000Z</time>
      </trkpt>
      <trkpt lat="45.9077" lon="6.50722">
        <ele>2428.1999511719</ele>
        <time>2014-02-12T10:07:21.000Z</time>
      </trkpt>
      <trkpt lat="45.9077" lon="6.50722">
        <ele>2428.1999511719</ele>
        <time>2014-02-12T10:07:22.000Z</time>
      </trkpt>
      <trkpt lat="45.9077" lon="6.50722">
        <ele>2428.1999511719</ele>
        <time>2014-02-12T10:07:23.000Z</time>
      </trkpt>
      <trkpt lat="45.9077" lon="6.50722">
        <ele>2428.1999511719</ele>
        <time>2014-02-12T10:07:24.000Z</time>
      </trkpt>
      <trkpt lat="45.9077" lon="6.50722">
        <ele>2428.1999511719</ele>
        <time>2014-02-12T10:07:25.000Z</time>
      </trkpt>
      <trkpt lat="45.9077" lon="6.50722">
        <ele>2428.1999511719</ele>
        <time>2014-02-12T10:07:26.000Z</time>
      </trkpt>
      <trkpt lat="45.9077" lon="6.50722">
        <ele>2428.1999511719</ele>
        <time>2014-02-12T10:07:28.000Z</time>
      </trkpt>
      <trkpt lat="45.9077" lon="6.50722">
        <ele>2428.1999511719</ele>
        <time>2014-02-12T10:07:29.000Z</time>
      </trkpt>
      <trkpt lat="45.90771" lon="6.50721">
        <ele>2428.1999511719</ele>
        <time>2014-02-12T10:07:30.000Z</time>
      </trkpt>
      <trkpt lat="45.90771" lon="6.50721">
        <ele>2428.1999511719</ele>
        <time>2014-02-12T10:07:31.000Z</time>
      </trkpt>
      <trkpt lat="45.90771" lon="6.50721">
        <ele>2428.1999511719</ele>
        <time>2014-02-12T10:07:32.000Z</time>
      </trkpt>
      <trkpt lat="45.90771" lon="6.50721">
        <ele>2428.1999511719</ele>
        <time>2014-02-12T10:07:33.000Z</time>
      </trkpt>
      <trkpt lat="45.90771" lon="6.50721">
        <ele>2428.1999511719</ele>
        <time>2014-02-12T10:07:34.000Z</time>
      </trkpt>
      <trkpt lat="45.90771" lon="6.50721">
        <ele>2428.1999511719</ele>
        <time>2014-02-12T10:07:40.000Z</time>
      </trkpt>
      <trkpt lat="45.90771" lon="6.50721">
        <ele>2428.1999511719</ele>
        <time>2014-02-12T10:07:41.000Z</time>
      </trkpt>
      <trkpt lat="45.90771" lon="6.50721">
        <ele>2428.1999511719</ele>
        <time>2014-02-12T10:07:42.000Z</time>
      </trkpt>
      <trkpt lat="45.90771" lon="6.50721">
        <ele>2428.1999511719</ele>
        <time>2014-02-12T10:07:43.000Z</time>
      </trkpt>
      <trkpt lat="45.90771" lon="6.50721">
        <ele>2428.1999511719</ele>
        <time>2014-02-12T10:07:45.000Z</time>
      </trkpt>
      <trkpt lat="45.90771" lon="6.50721">
        <ele>2428.1999511719</ele>
        <time>2014-02-12T10:07:46.000Z</time>
      </trkpt>
      <trkpt lat="45.90771" lon="6.50721">
        <ele>2428.1999511719</ele>
        <time>2014-02-12T10:07:48.000Z</time>
      </trkpt>
      <trkpt lat="45.90771" lon="6.50721">
        <ele>2428.1999511719</ele>
        <time>2014-02-12T10:07:49.000Z</time>
      </trkpt>
      <trkpt lat="45.90771" lon="6.50721">
        <ele>2428.1999511719</ele>
        <time>2014-02-12T10:07:50.000Z</time>
      </trkpt>
      <trkpt lat="45.90771" lon="6.50721">
        <ele>2428.1999511719</ele>
        <time>2014-02-12T10:07:51.000Z</time>
      </trkpt>
      <trkpt lat="45.90771" lon="6.50721">
        <ele>2428.1999511719</ele>
        <time>2014-02-12T10:07:52.000Z</time>
      </trkpt>
      <trkpt lat="45.90771" lon="6.50721">
        <ele>2428.1999511719</ele>
        <time>2014-02-12T10:07:55.000Z</time>
      </trkpt>
      <trkpt lat="45.90771" lon="6.50721">
        <ele>2428.1999511719</ele>
        <time>2014-02-12T10:07:56.000Z</time>
      </trkpt>
      <trkpt lat="45.90771" lon="6.50721">
        <ele>2428.1999511719</ele>
        <time>2014-02-12T10:07:57.000Z</time>
      </trkpt>
      <trkpt lat="45.90771" lon="6.50721">
        <ele>2428.1999511719</ele>
        <time>2014-02-12T10:07:58.000Z</time>
      </trkpt>
      <trkpt lat="45.90771" lon="6.50721">
        <ele>2428.1999511719</ele>
        <time>2014-02-12T10:07:59.000Z</time>
      </trkpt>
      <trkpt lat="45.90771" lon="6.50721">
        <ele>2428.1999511719</ele>
        <time>2014-02-12T10:08:00.000Z</time>
      </trkpt>
      <trkpt lat="45.90771" lon="6.50721">
        <ele>2428.1999511719</ele>
        <time>2014-02-12T10:08:01.000Z</time>
      </trkpt>
      <trkpt lat="45.90771" lon="6.50721">
        <ele>2428.1999511719</ele>
        <time>2014-02-12T10:08:06.000Z</time>
      </trkpt>
      <trkpt lat="45.90771" lon="6.50721">
        <ele>2428.1999511719</ele>
        <time>2014-02-12T10:08:07.000Z</time>
      </trkpt>
      <trkpt lat="45.90771" lon="6.50721">
        <ele>2428.1999511719</ele>
        <time>2014-02-12T10:08:08.000Z</time>
      </trkpt>
      <trkpt lat="45.9077" lon="6.5072">
        <ele>2428</ele>
        <time>2014-02-12T10:08:11.000Z</time>
      </trkpt>
      <trkpt lat="45.9077" lon="6.5072">
        <ele>2428</ele>
        <time>2014-02-12T10:08:12.000Z</time>
      </trkpt>
      <trkpt lat="45.9077" lon="6.5072">
        <ele>2428</ele>
        <time>2014-02-12T10:08:13.000Z</time>
      </trkpt>
      <trkpt lat="45.9077" lon="6.5072">
        <ele>2428</ele>
        <time>2014-02-12T10:08:14.000Z</time>
      </trkpt>
      <trkpt lat="45.9077" lon="6.5072">
        <ele>2428</ele>
        <time>2014-02-12T10:08:15.000Z</time>
      </trkpt>
      <trkpt lat="45.9077" lon="6.5072">
        <ele>2428</ele>
        <time>2014-02-12T10:08:16.000Z</time>
      </trkpt>
      <trkpt lat="45.9077" lon="6.5072">
        <ele>2428</ele>
        <time>2014-02-12T10:08:18.000Z</time>
      </trkpt>
      <trkpt lat="45.9077" lon="6.5072">
        <ele>2428</ele>
        <time>2014-02-12T10:08:19.000Z</time>
      </trkpt>
      <trkpt lat="45.9077" lon="6.5072">
        <ele>2428</ele>
        <time>2014-02-12T10:08:20.000Z</time>
      </trkpt>
      <trkpt lat="45.9077" lon="6.5072">
        <ele>2428</ele>
        <time>2014-02-12T10:08:21.000Z</time>
      </trkpt>
      <trkpt lat="45.9077" lon="6.5072">
        <ele>2428</ele>
        <time>2014-02-12T10:08:22.000Z</time>
      </trkpt>
      <trkpt lat="45.9077" lon="6.5072">
        <ele>2428</ele>
        <time>2014-02-12T10:08:23.000Z</time>
      </trkpt>
      <trkpt lat="45.9077" lon="6.5072">
        <ele>2428</ele>
        <time>2014-02-12T10:08:24.000Z</time>
      </trkpt>
      <trkpt lat="45.9077" lon="6.5072">
        <ele>2428</ele>
        <time>2014-02-12T10:08:25.000Z</time>
      </trkpt>
      <trkpt lat="45.9077" lon="6.5072">
        <ele>2428</ele>
        <time>2014-02-12T10:08:28.000Z</time>
      </trkpt>
      <trkpt lat="45.9077" lon="6.5072">
        <ele>2428</ele>
        <time>2014-02-12T10:08:29.000Z</time>
      </trkpt>
      <trkpt lat="45.9077" lon="6.5072">
        <ele>2428</ele>
        <time>2014-02-12T10:08:30.000Z</time>
      </trkpt>
      <trkpt lat="45.9077" lon="6.5072">
        <ele>2428</ele>
        <time>2014-02-12T10:08:31.000Z</time>
      </trkpt>
      <trkpt lat="45.9077" lon="6.5072">
        <ele>2428</ele>
        <time>2014-02-12T10:08:32.000Z</time>
      </trkpt>
      <trkpt lat="45.9077" lon="6.5072">
        <ele>2428</ele>
        <time>2014-02-12T10:08:33.000Z</time>
      </trkpt>
      <trkpt lat="45.9077" lon="6.5072">
        <ele>2428</ele>
        <time>2014-02-12T10:08:35.000Z</time>
      </trkpt>
      <trkpt lat="45.9077" lon="6.5072">
        <ele>2428</ele>
        <time>2014-02-12T10:08:36.000Z</time>
      </trkpt>
      <trkpt lat="45.9077" lon="6.5072">
        <ele>2428</ele>
        <time>2014-02-12T10:08:37.000Z</time>
      </trkpt>
      <trkpt lat="45.9077" lon="6.5072">
        <ele>2428</ele>
        <time>2014-02-12T10:08:38.000Z</time>
      </trkpt>
      <trkpt lat="45.9077" lon="6.5072">
        <ele>2428</ele>
        <time>2014-02-12T10:08:39.000Z</time>
      </trkpt>
      <trkpt lat="45.9077" lon="6.5072">
        <ele>2428</ele>
        <time>2014-02-12T10:08:40.000Z</time>
      </trkpt>
      <trkpt lat="45.9077" lon="6.5072">
        <ele>2428</ele>
        <time>2014-02-12T10:08:41.000Z</time>
      </trkpt>
      <trkpt lat="45.9077" lon="6.5072">
        <ele>2428</ele>
        <time>2014-02-12T10:08:44.000Z</time>
      </trkpt>
      <trkpt lat="45.9077" lon="6.5072">
        <ele>2428</ele>
        <time>2014-02-12T10:08:47.000Z</time>
      </trkpt>
      <trkpt lat="45.9077" lon="6.5072">
        <ele>2428</ele>
        <time>2014-02-12T10:08:48.000Z</time>
      </trkpt>
      <trkpt lat="45.9077" lon="6.5072">
        <ele>2427.8000488281</ele>
        <time>2014-02-12T10:08:50.000Z</time>
      </trkpt>
      <trkpt lat="45.9077" lon="6.5072">
        <ele>2427.8000488281</ele>
        <time>2014-02-12T10:08:51.000Z</time>
      </trkpt>
      <trkpt lat="45.9077" lon="6.5072">
        <ele>2427.8000488281</ele>
        <time>2014-02-12T10:08:53.000Z</time>
      </trkpt>
      <trkpt lat="45.9077" lon="6.5072">
        <ele>2427.8000488281</ele>
        <time>2014-02-12T10:08:54.000Z</time>
      </trkpt>
      <trkpt lat="45.9077" lon="6.5072">
        <ele>2427.8000488281</ele>
        <time>2014-02-12T10:08:55.000Z</time>
      </trkpt>
      <trkpt lat="45.9077" lon="6.5072">
        <ele>2427.8000488281</ele>
        <time>2014-02-12T10:08:56.000Z</time>
      </trkpt>
      <trkpt lat="45.9077" lon="6.5072">
        <ele>2427.8000488281</ele>
        <time>2014-02-12T10:08:57.000Z</time>
      </trkpt>
      <trkpt lat="45.9077" lon="6.5072">
        <ele>2427.8000488281</ele>
        <time>2014-02-12T10:08:58.000Z</time>
      </trkpt>
      <trkpt lat="45.9077" lon="6.5072">
        <ele>2427.8000488281</ele>
        <time>2014-02-12T10:08:59.000Z</time>
      </trkpt>
      <trkpt lat="45.9077" lon="6.5072">
        <ele>2427.8000488281</ele>
        <time>2014-02-12T10:09:00.000Z</time>
      </trkpt>
      <trkpt lat="45.9077" lon="6.5072">
        <ele>2427.8000488281</ele>
        <time>2014-02-12T10:09:01.000Z</time>
      </trkpt>
      <trkpt lat="45.9077" lon="6.5072">
        <ele>2427.8000488281</ele>
        <time>2014-02-12T10:09:02.000Z</time>
      </trkpt>
      <trkpt lat="45.9077" lon="6.5072">
        <ele>2427.8000488281</ele>
        <time>2014-02-12T10:09:03.000Z</time>
      </trkpt>
      <trkpt lat="45.9077" lon="6.5072">
        <ele>2427.8000488281</ele>
        <time>2014-02-12T10:09:04.000Z</time>
      </trkpt>
      <trkpt lat="45.9077" lon="6.5072">
        <ele>2427.8000488281</ele>
        <time>2014-02-12T10:09:05.000Z</time>
      </trkpt>
      <trkpt lat="45.9077" lon="6.5072">
        <ele>2427.8000488281</ele>
        <time>2014-02-12T10:09:06.000Z</time>
      </trkpt>
      <trkpt lat="45.9077" lon="6.5072">
        <ele>2427.8000488281</ele>
        <time>2014-02-12T10:09:07.000Z</time>
      </trkpt>
      <trkpt lat="45.90771" lon="6.5072">
        <ele>2428</ele>
        <time>2014-02-12T10:09:10.000Z</time>
      </trkpt>
      <trkpt lat="45.90771" lon="6.5072">
        <ele>2428.1999511719</ele>
        <time>2014-02-12T10:09:11.000Z</time>
      </trkpt>
      <trkpt lat="45.90772" lon="6.50719">
        <ele>2428.1999511719</ele>
        <time>2014-02-12T10:09:12.000Z</time>
      </trkpt>
      <trkpt lat="45.90773" lon="6.50719">
        <ele>2428.6000976562</ele>
        <time>2014-02-12T10:09:15.000Z</time>
      </trkpt>
      <trkpt lat="45.90774" lon="6.50719">
        <ele>2428.8000488281</ele>
        <time>2014-02-12T10:09:16.000Z</time>
      </trkpt>
      <trkpt lat="45.90774" lon="6.50717">
        <ele>2428.1999511719</ele>
        <time>2014-02-12T10:09:17.000Z</time>
      </trkpt>
      <trkpt lat="45.90774" lon="6.50716">
        <ele>2428</ele>
        <time>2014-02-12T10:09:18.000Z</time>
      </trkpt>
      <trkpt lat="45.90774" lon="6.50716">
        <ele>2428.1999511719</ele>
        <time>2014-02-12T10:09:19.000Z</time>
      </trkpt>
      <trkpt lat="45.90774" lon="6.50716">
        <ele>2428.1999511719</ele>
        <time>2014-02-12T10:09:20.000Z</time>
      </trkpt>
      <trkpt lat="45.90774" lon="6.50716">
        <ele>2428.1999511719</ele>
        <time>2014-02-12T10:09:21.000Z</time>
      </trkpt>
      <trkpt lat="45.90774" lon="6.50716">
        <ele>2428.1999511719</ele>
        <time>2014-02-12T10:09:22.000Z</time>
      </trkpt>
      <trkpt lat="45.90774" lon="6.50716">
        <ele>2428.1999511719</ele>
        <time>2014-02-12T10:09:23.000Z</time>
      </trkpt>
      <trkpt lat="45.90774" lon="6.50716">
        <ele>2428.1999511719</ele>
        <time>2014-02-12T10:09:24.000Z</time>
      </trkpt>
      <trkpt lat="45.90774" lon="6.50716">
        <ele>2428.1999511719</ele>
        <time>2014-02-12T10:09:25.000Z</time>
      </trkpt>
      <trkpt lat="45.90774" lon="6.50716">
        <ele>2428.1999511719</ele>
        <time>2014-02-12T10:09:26.000Z</time>
      </trkpt>
      <trkpt lat="45.90774" lon="6.50716">
        <ele>2428.1999511719</ele>
        <time>2014-02-12T10:09:27.000Z</time>
      </trkpt>
      <trkpt lat="45.90774" lon="6.50716">
        <ele>2428.1999511719</ele>
        <time>2014-02-12T10:09:28.000Z</time>
      </trkpt>
      <trkpt lat="45.90774" lon="6.50716">
        <ele>2428.1999511719</ele>
        <time>2014-02-12T10:09:29.000Z</time>
      </trkpt>
      <trkpt lat="45.90774" lon="6.50716">
        <ele>2428.1999511719</ele>
        <time>2014-02-12T10:09:30.000Z</time>
      </trkpt>
      <trkpt lat="45.90774" lon="6.50716">
        <ele>2428.1999511719</ele>
        <time>2014-02-12T10:09:31.000Z</time>
      </trkpt>
      <trkpt lat="45.90774" lon="6.50716">
        <ele>2428.1999511719</ele>
        <time>2014-02-12T10:09:32.000Z</time>
      </trkpt>
      <trkpt lat="45.90774" lon="6.50716">
        <ele>2428.1999511719</ele>
        <time>2014-02-12T10:09:33.000Z</time>
      </trkpt>
      <trkpt lat="45.90774" lon="6.50716">
        <ele>2428.1999511719</ele>
        <time>2014-02-12T10:09:34.000Z</time>
      </trkpt>
      <trkpt lat="45.90774" lon="6.50716">
        <ele>2428.1999511719</ele>
        <time>2014-02-12T10:09:35.000Z</time>
      </trkpt>
      <trkpt lat="45.90774" lon="6.50716">
        <ele>2428.1999511719</ele>
        <time>2014-02-12T10:09:36.000Z</time>
      </trkpt>
      <trkpt lat="45.90774" lon="6.50716">
        <ele>2428.1999511719</ele>
        <time>2014-02-12T10:09:37.000Z</time>
      </trkpt>
      <trkpt lat="45.90774" lon="6.50716">
        <ele>2428.1999511719</ele>
        <time>2014-02-12T10:09:38.000Z</time>
      </trkpt>
      <trkpt lat="45.90774" lon="6.50716">
        <ele>2428.1999511719</ele>
        <time>2014-02-12T10:09:39.000Z</time>
      </trkpt>
      <trkpt lat="45.90774" lon="6.50716">
        <ele>2428.1999511719</ele>
        <time>2014-02-12T10:09:40.000Z</time>
      </trkpt>
      <trkpt lat="45.90774" lon="6.50716">
        <ele>2428.1999511719</ele>
        <time>2014-02-12T10:09:41.000Z</time>
      </trkpt>
      <trkpt lat="45.90774" lon="6.50716">
        <ele>2428.1999511719</ele>
        <time>2014-02-12T10:09:42.000Z</time>
      </trkpt>
      <trkpt lat="45.90774" lon="6.50716">
        <ele>2428.1999511719</ele>
        <time>2014-02-12T10:09:43.000Z</time>
      </trkpt>
      <trkpt lat="45.90774" lon="6.50716">
        <ele>2428.1999511719</ele>
        <time>2014-02-12T10:09:44.000Z</time>
      </trkpt>
      <trkpt lat="45.90774" lon="6.50716">
        <ele>2428.1999511719</ele>
        <time>2014-02-12T10:09:45.000Z</time>
      </trkpt>
      <trkpt lat="45.90774" lon="6.50716">
        <ele>2428.1999511719</ele>
        <time>2014-02-12T10:09:46.000Z</time>
      </trkpt>
      <trkpt lat="45.90774" lon="6.50716">
        <ele>2428.1999511719</ele>
        <time>2014-02-12T10:09:47.000Z</time>
      </trkpt>
      <trkpt lat="45.90774" lon="6.50716">
        <ele>2428.1999511719</ele>
        <time>2014-02-12T10:09:48.000Z</time>
      </trkpt>
      <trkpt lat="45.90774" lon="6.50716">
        <ele>2428.1999511719</ele>
        <time>2014-02-12T10:09:49.000Z</time>
      </trkpt>
      <trkpt lat="45.90774" lon="6.50716">
        <ele>2428.1999511719</ele>
        <time>2014-02-12T10:09:50.000Z</time>
      </trkpt>
      <trkpt lat="45.90774" lon="6.50716">
        <ele>2428.1999511719</ele>
        <time>2014-02-12T10:09:51.000Z</time>
      </trkpt>
      <trkpt lat="45.90774" lon="6.50716">
        <ele>2428.1999511719</ele>
        <time>2014-02-12T10:09:53.000Z</time>
      </trkpt>
      <trkpt lat="45.90774" lon="6.50716">
        <ele>2428.1999511719</ele>
        <time>2014-02-12T10:09:54.000Z</time>
      </trkpt>
      <trkpt lat="45.90774" lon="6.50716">
        <ele>2428.1999511719</ele>
        <time>2014-02-12T10:09:55.000Z</time>
      </trkpt>
      <trkpt lat="45.90774" lon="6.50716">
        <ele>2428.1999511719</ele>
        <time>2014-02-12T10:09:56.000Z</time>
      </trkpt>
      <trkpt lat="45.90774" lon="6.50716">
        <ele>2428.1999511719</ele>
        <time>2014-02-12T10:09:58.000Z</time>
      </trkpt>
      <trkpt lat="45.90774" lon="6.50717">
        <ele>2428.1999511719</ele>
        <time>2014-02-12T10:09:59.000Z</time>
      </trkpt>
      <trkpt lat="45.90774" lon="6.50717">
        <ele>2428.1999511719</ele>
        <time>2014-02-12T10:10:01.000Z</time>
      </trkpt>
      <trkpt lat="45.90774" lon="6.50717">
        <ele>2428.1999511719</ele>
        <time>2014-02-12T10:10:02.000Z</time>
      </trkpt>
      <trkpt lat="45.90774" lon="6.50717">
        <ele>2428.1999511719</ele>
        <time>2014-02-12T10:10:03.000Z</time>
      </trkpt>
      <trkpt lat="45.90774" lon="6.50717">
        <ele>2428.1999511719</ele>
        <time>2014-02-12T10:10:04.000Z</time>
      </trkpt>
      <trkpt lat="45.90774" lon="6.50717">
        <ele>2428.1999511719</ele>
        <time>2014-02-12T10:10:06.000Z</time>
      </trkpt>
      <trkpt lat="45.90774" lon="6.50717">
        <ele>2428.1999511719</ele>
        <time>2014-02-12T10:10:07.000Z</time>
      </trkpt>
      <trkpt lat="45.90774" lon="6.50717">
        <ele>2428.1999511719</ele>
        <time>2014-02-12T10:10:08.000Z</time>
      </trkpt>
      <trkpt lat="45.90774" lon="6.50717">
        <ele>2428.1999511719</ele>
        <time>2014-02-12T10:10:09.000Z</time>
      </trkpt>
      <trkpt lat="45.90774" lon="6.50717">
        <ele>2428.1999511719</ele>
        <time>2014-02-12T10:10:10.000Z</time>
      </trkpt>
      <trkpt lat="45.90774" lon="6.50717">
        <ele>2428.1999511719</ele>
        <time>2014-02-12T10:10:11.000Z</time>
      </trkpt>
      <trkpt lat="45.90774" lon="6.50717">
        <ele>2428.1999511719</ele>
        <time>2014-02-12T10:10:12.000Z</time>
      </trkpt>
      <trkpt lat="45.90774" lon="6.50717">
        <ele>2428.1999511719</ele>
        <time>2014-02-12T10:10:13.000Z</time>
      </trkpt>
      <trkpt lat="45.90774" lon="6.50717">
        <ele>2428.1999511719</ele>
        <time>2014-02-12T10:10:14.000Z</time>
      </trkpt>
      <trkpt lat="45.90774" lon="6.50717">
        <ele>2428.1999511719</ele>
        <time>2014-02-12T10:10:15.000Z</time>
      </trkpt>
      <trkpt lat="45.90774" lon="6.50717">
        <ele>2428.1999511719</ele>
        <time>2014-02-12T10:10:16.000Z</time>
      </trkpt>
      <trkpt lat="45.90774" lon="6.50717">
        <ele>2428.1999511719</ele>
        <time>2014-02-12T10:10:18.000Z</time>
      </trkpt>
      <trkpt lat="45.90774" lon="6.50717">
        <ele>2428.1999511719</ele>
        <time>2014-02-12T10:10:19.000Z</time>
      </trkpt>
      <trkpt lat="45.90774" lon="6.50717">
        <ele>2428.1999511719</ele>
        <time>2014-02-12T10:10:20.000Z</time>
      </trkpt>
      <trkpt lat="45.90774" lon="6.50717">
        <ele>2428.1999511719</ele>
        <time>2014-02-12T10:10:21.000Z</time>
      </trkpt>
      <trkpt lat="45.90774" lon="6.50718">
        <ele>2428.6000976562</ele>
        <time>2014-02-12T10:10:22.000Z</time>
      </trkpt>
      <trkpt lat="45.90774" lon="6.50723">
        <ele>2430</ele>
        <time>2014-02-12T10:10:26.000Z</time>
      </trkpt>
      <trkpt lat="45.90774" lon="6.50723">
        <ele>2430.3999023438</ele>
        <time>2014-02-12T10:10:27.000Z</time>
      </trkpt>
      <trkpt lat="45.90774" lon="6.50725">
        <ele>2430.8000488281</ele>
        <time>2014-02-12T10:10:28.000Z</time>
      </trkpt>
      <trkpt lat="45.90774" lon="6.50726">
        <ele>2431.1999511719</ele>
        <time>2014-02-12T10:10:29.000Z</time>
      </trkpt>
      <trkpt lat="45.90773" lon="6.50728">
        <ele>2431.6000976562</ele>
        <time>2014-02-12T10:10:30.000Z</time>
      </trkpt>
      <trkpt lat="45.90773" lon="6.50729">
        <ele>2431.8000488281</ele>
        <time>2014-02-12T10:10:31.000Z</time>
      </trkpt>
      <trkpt lat="45.90773" lon="6.50729">
        <ele>2431.8000488281</ele>
        <time>2014-02-12T10:10:32.000Z</time>
      </trkpt>
      <trkpt lat="45.90772" lon="6.5073">
        <ele>2431.8000488281</ele>
        <time>2014-02-12T10:10:33.000Z</time>
      </trkpt>
      <trkpt lat="45.90772" lon="6.5073">
        <ele>2431.8000488281</ele>
        <time>2014-02-12T10:10:34.000Z</time>
      </trkpt>
      <trkpt lat="45.90772" lon="6.5073">
        <ele>2431.8000488281</ele>
        <time>2014-02-12T10:10:35.000Z</time>
      </trkpt>
      <trkpt lat="45.90772" lon="6.50731">
        <ele>2431.8000488281</ele>
        <time>2014-02-12T10:10:36.000Z</time>
      </trkpt>
      <trkpt lat="45.90772" lon="6.50731">
        <ele>2431.8000488281</ele>
        <time>2014-02-12T10:10:37.000Z</time>
      </trkpt>
      <trkpt lat="45.90772" lon="6.50731">
        <ele>2431.8000488281</ele>
        <time>2014-02-12T10:10:38.000Z</time>
      </trkpt>
      <trkpt lat="45.90772" lon="6.50731">
        <ele>2431.8000488281</ele>
        <time>2014-02-12T10:10:39.000Z</time>
      </trkpt>
      <trkpt lat="45.90772" lon="6.50731">
        <ele>2431.8000488281</ele>
        <time>2014-02-12T10:10:40.000Z</time>
      </trkpt>
      <trkpt lat="45.90772" lon="6.50731">
        <ele>2431.8000488281</ele>
        <time>2014-02-12T10:10:41.000Z</time>
      </trkpt>
      <trkpt lat="45.90772" lon="6.50731">
        <ele>2431.8000488281</ele>
        <time>2014-02-12T10:10:42.000Z</time>
      </trkpt>
      <trkpt lat="45.90772" lon="6.50731">
        <ele>2431.8000488281</ele>
        <time>2014-02-12T10:10:43.000Z</time>
      </trkpt>
      <trkpt lat="45.90772" lon="6.50731">
        <ele>2431.8000488281</ele>
        <time>2014-02-12T10:10:44.000Z</time>
      </trkpt>
      <trkpt lat="45.90772" lon="6.50731">
        <ele>2431.8000488281</ele>
        <time>2014-02-12T10:10:45.000Z</time>
      </trkpt>
      <trkpt lat="45.90772" lon="6.50732">
        <ele>2432</ele>
        <time>2014-02-12T10:10:46.000Z</time>
      </trkpt>
      <trkpt lat="45.90772" lon="6.50732">
        <ele>2432</ele>
        <time>2014-02-12T10:10:47.000Z</time>
      </trkpt>
      <trkpt lat="45.90772" lon="6.50732">
        <ele>2432</ele>
        <time>2014-02-12T10:10:48.000Z</time>
      </trkpt>
      <trkpt lat="45.90771" lon="6.50732">
        <ele>2432</ele>
        <time>2014-02-12T10:10:49.000Z</time>
      </trkpt>
      <trkpt lat="45.90771" lon="6.50733">
        <ele>2432.1999511719</ele>
        <time>2014-02-12T10:10:50.000Z</time>
      </trkpt>
      <trkpt lat="45.90771" lon="6.50733">
        <ele>2432.3999023438</ele>
        <time>2014-02-12T10:10:51.000Z</time>
      </trkpt>
      <trkpt lat="45.90771" lon="6.50735">
        <ele>2432.6000976562</ele>
        <time>2014-02-12T10:10:52.000Z</time>
      </trkpt>
      <trkpt lat="45.90771" lon="6.50736">
        <ele>2432.6000976562</ele>
        <time>2014-02-12T10:10:53.000Z</time>
      </trkpt>
      <trkpt lat="45.90771" lon="6.50736">
        <ele>2432.8000488281</ele>
        <time>2014-02-12T10:10:54.000Z</time>
      </trkpt>
      <trkpt lat="45.90771" lon="6.50737">
        <ele>2432.8000488281</ele>
        <time>2014-02-12T10:10:55.000Z</time>
      </trkpt>
      <trkpt lat="45.90771" lon="6.50737">
        <ele>2432.8000488281</ele>
        <time>2014-02-12T10:10:56.000Z</time>
      </trkpt>
      <trkpt lat="45.90771" lon="6.50737">
        <ele>2432.8000488281</ele>
        <time>2014-02-12T10:10:57.000Z</time>
      </trkpt>
      <trkpt lat="45.90771" lon="6.50737">
        <ele>2432.8000488281</ele>
        <time>2014-02-12T10:10:58.000Z</time>
      </trkpt>
      <trkpt lat="45.90771" lon="6.50737">
        <ele>2432.8000488281</ele>
        <time>2014-02-12T10:10:59.000Z</time>
      </trkpt>
      <trkpt lat="45.90771" lon="6.50737">
        <ele>2432.8000488281</ele>
        <time>2014-02-12T10:11:00.000Z</time>
      </trkpt>
      <trkpt lat="45.90771" lon="6.50737">
        <ele>2432.8000488281</ele>
        <time>2014-02-12T10:11:01.000Z</time>
      </trkpt>
      <trkpt lat="45.90772" lon="6.50738">
        <ele>2433.1999511719</ele>
        <time>2014-02-12T10:11:02.000Z</time>
      </trkpt>
      <trkpt lat="45.90772" lon="6.50738">
        <ele>2433.6000976562</ele>
        <time>2014-02-12T10:11:03.000Z</time>
      </trkpt>
      <trkpt lat="45.90774" lon="6.50738">
        <ele>2434</ele>
        <time>2014-02-12T10:11:04.000Z</time>
      </trkpt>
      <trkpt lat="45.90775" lon="6.50739">
        <ele>2434.6000976562</ele>
        <time>2014-02-12T10:11:05.000Z</time>
      </trkpt>
      <trkpt lat="45.90777" lon="6.50739">
        <ele>2435</ele>
        <time>2014-02-12T10:11:06.000Z</time>
      </trkpt>
      <trkpt lat="45.90778" lon="6.50739">
        <ele>2435.6000976562</ele>
        <time>2014-02-12T10:11:07.000Z</time>
      </trkpt>
      <trkpt lat="45.90779" lon="6.50739">
        <ele>2436</ele>
        <time>2014-02-12T10:11:08.000Z</time>
      </trkpt>
      <trkpt lat="45.90781" lon="6.50739">
        <ele>2436.6000976562</ele>
        <time>2014-02-12T10:11:09.000Z</time>
      </trkpt>
      <trkpt lat="45.90782" lon="6.50739">
        <ele>2436.8000488281</ele>
        <time>2014-02-12T10:11:10.000Z</time>
      </trkpt>
      <trkpt lat="45.90782" lon="6.50739">
        <ele>2437.1999511719</ele>
        <time>2014-02-12T10:11:11.000Z</time>
      </trkpt>
      <trkpt lat="45.90783" lon="6.50739">
        <ele>2437.3999023438</ele>
        <time>2014-02-12T10:11:12.000Z</time>
      </trkpt>
      <trkpt lat="45.90785" lon="6.50738">
        <ele>2438</ele>
        <time>2014-02-12T10:11:13.000Z</time>
      </trkpt>
      <trkpt lat="45.90786" lon="6.50738">
        <ele>2438.1999511719</ele>
        <time>2014-02-12T10:11:14.000Z</time>
      </trkpt>
      <trkpt lat="45.90787" lon="6.50737">
        <ele>2438.6000976562</ele>
        <time>2014-02-12T10:11:15.000Z</time>
      </trkpt>
      <trkpt lat="45.90788" lon="6.50737">
        <ele>2438.8000488281</ele>
        <time>2014-02-12T10:11:16.000Z</time>
      </trkpt>
      <trkpt lat="45.90789" lon="6.50737">
        <ele>2439</ele>
        <time>2014-02-12T10:11:17.000Z</time>
      </trkpt>
      <trkpt lat="45.90789" lon="6.50737">
        <ele>2439</ele>
        <time>2014-02-12T10:11:18.000Z</time>
      </trkpt>
      <trkpt lat="45.9079" lon="6.50737">
        <ele>2439.3999023438</ele>
        <time>2014-02-12T10:11:19.000Z</time>
      </trkpt>
      <trkpt lat="45.9079" lon="6.50736">
        <ele>2439.6000976562</ele>
        <time>2014-02-12T10:11:20.000Z</time>
      </trkpt>
      <trkpt lat="45.9079" lon="6.50736">
        <ele>2439.6000976562</ele>
        <time>2014-02-12T10:11:21.000Z</time>
      </trkpt>
      <trkpt lat="45.90791" lon="6.50736">
        <ele>2439.8000488281</ele>
        <time>2014-02-12T10:11:22.000Z</time>
      </trkpt>
      <trkpt lat="45.90792" lon="6.50736">
        <ele>2440.1999511719</ele>
        <time>2014-02-12T10:11:23.000Z</time>
      </trkpt>
      <trkpt lat="45.90792" lon="6.50737">
        <ele>2440.1999511719</ele>
        <time>2014-02-12T10:11:24.000Z</time>
      </trkpt>
      <trkpt lat="45.90793" lon="6.50737">
        <ele>2440.3999023438</ele>
        <time>2014-02-12T10:11:25.000Z</time>
      </trkpt>
      <trkpt lat="45.90793" lon="6.50737">
        <ele>2440.3999023438</ele>
        <time>2014-02-12T10:11:26.000Z</time>
      </trkpt>
      <trkpt lat="45.90793" lon="6.50738">
        <ele>2440.6000976562</ele>
        <time>2014-02-12T10:11:27.000Z</time>
      </trkpt>
      <trkpt lat="45.90793" lon="6.5074">
        <ele>2440.8000488281</ele>
        <time>2014-02-12T10:11:28.000Z</time>
      </trkpt>
      <trkpt lat="45.90793" lon="6.50741">
        <ele>2441</ele>
        <time>2014-02-12T10:11:29.000Z</time>
      </trkpt>
      <trkpt lat="45.90792" lon="6.50742">
        <ele>2441</ele>
        <time>2014-02-12T10:11:30.000Z</time>
      </trkpt>
      <trkpt lat="45.90792" lon="6.50742">
        <ele>2441</ele>
        <time>2014-02-12T10:11:31.000Z</time>
      </trkpt>
      <trkpt lat="45.90792" lon="6.50742">
        <ele>2441</ele>
        <time>2014-02-12T10:11:32.000Z</time>
      </trkpt>
      <trkpt lat="45.90792" lon="6.50742">
        <ele>2441</ele>
        <time>2014-02-12T10:11:33.000Z</time>
      </trkpt>
      <trkpt lat="45.90792" lon="6.50742">
        <ele>2441</ele>
        <time>2014-02-12T10:11:34.000Z</time>
      </trkpt>
      <trkpt lat="45.90792" lon="6.50742">
        <ele>2441</ele>
        <time>2014-02-12T10:11:35.000Z</time>
      </trkpt>
      <trkpt lat="45.90792" lon="6.50742">
        <ele>2441</ele>
        <time>2014-02-12T10:11:36.000Z</time>
      </trkpt>
      <trkpt lat="45.90792" lon="6.50742">
        <ele>2441</ele>
        <time>2014-02-12T10:11:37.000Z</time>
      </trkpt>
      <trkpt lat="45.90792" lon="6.50742">
        <ele>2441</ele>
        <time>2014-02-12T10:11:38.000Z</time>
      </trkpt>
      <trkpt lat="45.90792" lon="6.50742">
        <ele>2441</ele>
        <time>2014-02-12T10:11:39.000Z</time>
      </trkpt>
      <trkpt lat="45.90792" lon="6.50742">
        <ele>2441</ele>
        <time>2014-02-12T10:11:40.000Z</time>
      </trkpt>
      <trkpt lat="45.90792" lon="6.50742">
        <ele>2441</ele>
        <time>2014-02-12T10:11:41.000Z</time>
      </trkpt>
      <trkpt lat="45.90792" lon="6.50742">
        <ele>2441</ele>
        <time>2014-02-12T10:11:42.000Z</time>
      </trkpt>
      <trkpt lat="45.90792" lon="6.50743">
        <ele>2441</ele>
        <time>2014-02-12T10:11:43.000Z</time>
      </trkpt>
      <trkpt lat="45.90792" lon="6.50744">
        <ele>2441</ele>
        <time>2014-02-12T10:11:44.000Z</time>
      </trkpt>
      <trkpt lat="45.90792" lon="6.50746">
        <ele>2441.1999511719</ele>
        <time>2014-02-12T10:11:45.000Z</time>
      </trkpt>
      <trkpt lat="45.90791" lon="6.50749">
        <ele>2441.3999023438</ele>
        <time>2014-02-12T10:11:46.000Z</time>
      </trkpt>
      <trkpt lat="45.90791" lon="6.5075">
        <ele>2441.3999023438</ele>
        <time>2014-02-12T10:11:47.000Z</time>
      </trkpt>
      <trkpt lat="45.90791" lon="6.50751">
        <ele>2441.3999023438</ele>
        <time>2014-02-12T10:11:48.000Z</time>
      </trkpt>
      <trkpt lat="45.90791" lon="6.50753">
        <ele>2441.6000976562</ele>
        <time>2014-02-12T10:11:49.000Z</time>
      </trkpt>
      <trkpt lat="45.9079" lon="6.50755">
        <ele>2441.8000488281</ele>
        <time>2014-02-12T10:11:50.000Z</time>
      </trkpt>
      <trkpt lat="45.9079" lon="6.50756">
        <ele>2441.8000488281</ele>
        <time>2014-02-12T10:11:51.000Z</time>
      </trkpt>
      <trkpt lat="45.9079" lon="6.50758">
        <ele>2442</ele>
        <time>2014-02-12T10:11:52.000Z</time>
      </trkpt>
      <trkpt lat="45.90789" lon="6.50759">
        <ele>2442</ele>
        <time>2014-02-12T10:11:53.000Z</time>
      </trkpt>
      <trkpt lat="45.90789" lon="6.5076">
        <ele>2442</ele>
        <time>2014-02-12T10:11:54.000Z</time>
      </trkpt>
      <trkpt lat="45.90788" lon="6.50762">
        <ele>2442</ele>
        <time>2014-02-12T10:11:55.000Z</time>
      </trkpt>
      <trkpt lat="45.90788" lon="6.50764">
        <ele>2442.1999511719</ele>
        <time>2014-02-12T10:11:56.000Z</time>
      </trkpt>
      <trkpt lat="45.90788" lon="6.50766">
        <ele>2442.1999511719</ele>
        <time>2014-02-12T10:11:57.000Z</time>
      </trkpt>
      <trkpt lat="45.90787" lon="6.50768">
        <ele>2442.3999023438</ele>
        <time>2014-02-12T10:11:58.000Z</time>
      </trkpt>
      <trkpt lat="45.90787" lon="6.5077">
        <ele>2442.3999023438</ele>
        <time>2014-02-12T10:11:59.000Z</time>
      </trkpt>
      <trkpt lat="45.90787" lon="6.50771">
        <ele>2442.6000976562</ele>
        <time>2014-02-12T10:12:00.000Z</time>
      </trkpt>
      <trkpt lat="45.90787" lon="6.50772">
        <ele>2442.8000488281</ele>
        <time>2014-02-12T10:12:01.000Z</time>
      </trkpt>
      <trkpt lat="45.90787" lon="6.50774">
        <ele>2442.8000488281</ele>
        <time>2014-02-12T10:12:02.000Z</time>
      </trkpt>
      <trkpt lat="45.90787" lon="6.50775">
        <ele>2443</ele>
        <time>2014-02-12T10:12:03.000Z</time>
      </trkpt>
      <trkpt lat="45.90787" lon="6.50775">
        <ele>2443</ele>
        <time>2014-02-12T10:12:04.000Z</time>
      </trkpt>
      <trkpt lat="45.90787" lon="6.50776">
        <ele>2443.1999511719</ele>
        <time>2014-02-12T10:12:05.000Z</time>
      </trkpt>
      <trkpt lat="45.90787" lon="6.50777">
        <ele>2443.1999511719</ele>
        <time>2014-02-12T10:12:06.000Z</time>
      </trkpt>
      <trkpt lat="45.90787" lon="6.50778">
        <ele>2443.3999023438</ele>
        <time>2014-02-12T10:12:07.000Z</time>
      </trkpt>
      <trkpt lat="45.90787" lon="6.50779">
        <ele>2443.6000976562</ele>
        <time>2014-02-12T10:12:08.000Z</time>
      </trkpt>
      <trkpt lat="45.90787" lon="6.50781">
        <ele>2443.6000976562</ele>
        <time>2014-02-12T10:12:09.000Z</time>
      </trkpt>
      <trkpt lat="45.90787" lon="6.50782">
        <ele>2443.8000488281</ele>
        <time>2014-02-12T10:12:10.000Z</time>
      </trkpt>
      <trkpt lat="45.90786" lon="6.50783">
        <ele>2443.8000488281</ele>
        <time>2014-02-12T10:12:11.000Z</time>
      </trkpt>
      <trkpt lat="45.90787" lon="6.50785">
        <ele>2444.1999511719</ele>
        <time>2014-02-12T10:12:12.000Z</time>
      </trkpt>
      <trkpt lat="45.90787" lon="6.50786">
        <ele>2444.3999023438</ele>
        <time>2014-02-12T10:12:13.000Z</time>
      </trkpt>
      <trkpt lat="45.90787" lon="6.50787">
        <ele>2444.6000976562</ele>
        <time>2014-02-12T10:12:14.000Z</time>
      </trkpt>
      <trkpt lat="45.90787" lon="6.50788">
        <ele>2444.8000488281</ele>
        <time>2014-02-12T10:12:15.000Z</time>
      </trkpt>
      <trkpt lat="45.90788" lon="6.50789">
        <ele>2445</ele>
        <time>2014-02-12T10:12:16.000Z</time>
      </trkpt>
      <trkpt lat="45.90789" lon="6.5079">
        <ele>2445.3999023438</ele>
        <time>2014-02-12T10:12:17.000Z</time>
      </trkpt>
      <trkpt lat="45.90789" lon="6.50792">
        <ele>2445.8000488281</ele>
        <time>2014-02-12T10:12:18.000Z</time>
      </trkpt>
      <trkpt lat="45.90789" lon="6.50793">
        <ele>2446</ele>
        <time>2014-02-12T10:12:19.000Z</time>
      </trkpt>
      <trkpt lat="45.9079" lon="6.50794">
        <ele>2446.3999023438</ele>
        <time>2014-02-12T10:12:20.000Z</time>
      </trkpt>
      <trkpt lat="45.9079" lon="6.50796">
        <ele>2446.6000976562</ele>
        <time>2014-02-12T10:12:21.000Z</time>
      </trkpt>
      <trkpt lat="45.9079" lon="6.50797">
        <ele>2446.8000488281</ele>
        <time>2014-02-12T10:12:22.000Z</time>
      </trkpt>
      <trkpt lat="45.9079" lon="6.50798">
        <ele>2447</ele>
        <time>2014-02-12T10:12:23.000Z</time>
      </trkpt>
      <trkpt lat="45.9079" lon="6.508">
        <ele>2447.1999511719</ele>
        <time>2014-02-12T10:12:24.000Z</time>
      </trkpt>
      <trkpt lat="45.9079" lon="6.508">
        <ele>2447.3999023438</ele>
        <time>2014-02-12T10:12:25.000Z</time>
      </trkpt>
      <trkpt lat="45.90791" lon="6.50801">
        <ele>2447.3999023438</ele>
        <time>2014-02-12T10:12:26.000Z</time>
      </trkpt>
      <trkpt lat="45.9079" lon="6.50802">
        <ele>2447.8000488281</ele>
        <time>2014-02-12T10:12:27.000Z</time>
      </trkpt>
      <trkpt lat="45.90791" lon="6.50803">
        <ele>2448.1999511719</ele>
        <time>2014-02-12T10:12:28.000Z</time>
      </trkpt>
      <trkpt lat="45.90791" lon="6.50804">
        <ele>2448.6000976562</ele>
        <time>2014-02-12T10:12:29.000Z</time>
      </trkpt>
      <trkpt lat="45.90792" lon="6.50806">
        <ele>2449.1999511719</ele>
        <time>2014-02-12T10:12:30.000Z</time>
      </trkpt>
      <trkpt lat="45.90792" lon="6.50807">
        <ele>2449.6000976562</ele>
        <time>2014-02-12T10:12:31.000Z</time>
      </trkpt>
      <trkpt lat="45.90792" lon="6.50808">
        <ele>2450.1999511719</ele>
        <time>2014-02-12T10:12:32.000Z</time>
      </trkpt>
      <trkpt lat="45.90792" lon="6.50809">
        <ele>2450.3999023438</ele>
        <time>2014-02-12T10:12:33.000Z</time>
      </trkpt>
      <trkpt lat="45.90792" lon="6.5081">
        <ele>2450.8000488281</ele>
        <time>2014-02-12T10:12:34.000Z</time>
      </trkpt>
      <trkpt lat="45.90792" lon="6.50811">
        <ele>2451</ele>
        <time>2014-02-12T10:12:35.000Z</time>
      </trkpt>
      <trkpt lat="45.90792" lon="6.50812">
        <ele>2451.3999023438</ele>
        <time>2014-02-12T10:12:36.000Z</time>
      </trkpt>
      <trkpt lat="45.90792" lon="6.50813">
        <ele>2451.8000488281</ele>
        <time>2014-02-12T10:12:37.000Z</time>
      </trkpt>
      <trkpt lat="45.90792" lon="6.50814">
        <ele>2452.1999511719</ele>
        <time>2014-02-12T10:12:38.000Z</time>
      </trkpt>
      <trkpt lat="45.90792" lon="6.50815">
        <ele>2452.3999023438</ele>
        <time>2014-02-12T10:12:39.000Z</time>
      </trkpt>
      <trkpt lat="45.90793" lon="6.50816">
        <ele>2452.8000488281</ele>
        <time>2014-02-12T10:12:40.000Z</time>
      </trkpt>
      <trkpt lat="45.90793" lon="6.50817">
        <ele>2453.1999511719</ele>
        <time>2014-02-12T10:12:41.000Z</time>
      </trkpt>
      <trkpt lat="45.90794" lon="6.50818">
        <ele>2453.1999511719</ele>
        <time>2014-02-12T10:12:42.000Z</time>
      </trkpt>
      <trkpt lat="45.90795" lon="6.50819">
        <ele>2453.3999023438</ele>
        <time>2014-02-12T10:12:43.000Z</time>
      </trkpt>
      <trkpt lat="45.90795" lon="6.5082">
        <ele>2453.3999023438</ele>
        <time>2014-02-12T10:12:44.000Z</time>
      </trkpt>
      <trkpt lat="45.90795" lon="6.50821">
        <ele>2453.3999023438</ele>
        <time>2014-02-12T10:12:45.000Z</time>
      </trkpt>
      <trkpt lat="45.90795" lon="6.50822">
        <ele>2453.3999023438</ele>
        <time>2014-02-12T10:12:46.000Z</time>
      </trkpt>
      <trkpt lat="45.90795" lon="6.50823">
        <ele>2453.3999023438</ele>
        <time>2014-02-12T10:12:47.000Z</time>
      </trkpt>
      <trkpt lat="45.90796" lon="6.50824">
        <ele>2453.6000976562</ele>
        <time>2014-02-12T10:12:48.000Z</time>
      </trkpt>
      <trkpt lat="45.90796" lon="6.50825">
        <ele>2453.6000976562</ele>
        <time>2014-02-12T10:12:49.000Z</time>
      </trkpt>
      <trkpt lat="45.90797" lon="6.50826">
        <ele>2453.6000976562</ele>
        <time>2014-02-12T10:12:50.000Z</time>
      </trkpt>
      <trkpt lat="45.90798" lon="6.50827">
        <ele>2453.8000488281</ele>
        <time>2014-02-12T10:12:51.000Z</time>
      </trkpt>
      <trkpt lat="45.90798" lon="6.50828">
        <ele>2453.8000488281</ele>
        <time>2014-02-12T10:12:52.000Z</time>
      </trkpt>
      <trkpt lat="45.90798" lon="6.50829">
        <ele>2453.8000488281</ele>
        <time>2014-02-12T10:12:53.000Z</time>
      </trkpt>
      <trkpt lat="45.90799" lon="6.5083">
        <ele>2454</ele>
        <time>2014-02-12T10:12:54.000Z</time>
      </trkpt>
      <trkpt lat="45.90799" lon="6.50831">
        <ele>2454</ele>
        <time>2014-02-12T10:12:55.000Z</time>
      </trkpt>
      <trkpt lat="45.908" lon="6.50832">
        <ele>2454</ele>
        <time>2014-02-12T10:12:56.000Z</time>
      </trkpt>
      <trkpt lat="45.90801" lon="6.50834">
        <ele>2454.1999511719</ele>
        <time>2014-02-12T10:12:57.000Z</time>
      </trkpt>
      <trkpt lat="45.90801" lon="6.50835">
        <ele>2454.1999511719</ele>
        <time>2014-02-12T10:12:58.000Z</time>
      </trkpt>
      <trkpt lat="45.90802" lon="6.50836">
        <ele>2454.3999023438</ele>
        <time>2014-02-12T10:12:59.000Z</time>
      </trkpt>
      <trkpt lat="45.90802" lon="6.50836">
        <ele>2454.3999023438</ele>
        <time>2014-02-12T10:13:00.000Z</time>
      </trkpt>
      <trkpt lat="45.90803" lon="6.50838">
        <ele>2454.3999023438</ele>
        <time>2014-02-12T10:13:01.000Z</time>
      </trkpt>
      <trkpt lat="45.90803" lon="6.50838">
        <ele>2454.6000976562</ele>
        <time>2014-02-12T10:13:02.000Z</time>
      </trkpt>
      <trkpt lat="45.90804" lon="6.50839">
        <ele>2454.6000976562</ele>
        <time>2014-02-12T10:13:03.000Z</time>
      </trkpt>
      <trkpt lat="45.90805" lon="6.5084">
        <ele>2454.6000976562</ele>
        <time>2014-02-12T10:13:04.000Z</time>
      </trkpt>
      <trkpt lat="45.90805" lon="6.50841">
        <ele>2454.8000488281</ele>
        <time>2014-02-12T10:13:05.000Z</time>
      </trkpt>
      <trkpt lat="45.90806" lon="6.50842">
        <ele>2454.8000488281</ele>
        <time>2014-02-12T10:13:06.000Z</time>
      </trkpt>
      <trkpt lat="45.90806" lon="6.50843">
        <ele>2455</ele>
        <time>2014-02-12T10:13:07.000Z</time>
      </trkpt>
      <trkpt lat="45.90807" lon="6.50844">
        <ele>2455</ele>
        <time>2014-02-12T10:13:08.000Z</time>
      </trkpt>
      <trkpt lat="45.90807" lon="6.50846">
        <ele>2455.1999511719</ele>
        <time>2014-02-12T10:13:09.000Z</time>
      </trkpt>
      <trkpt lat="45.90808" lon="6.50847">
        <ele>2455.3999023438</ele>
        <time>2014-02-12T10:13:10.000Z</time>
      </trkpt>
      <trkpt lat="45.90808" lon="6.50848">
        <ele>2455.8000488281</ele>
        <time>2014-02-12T10:13:11.000Z</time>
      </trkpt>
      <trkpt lat="45.90809" lon="6.50848">
        <ele>2456</ele>
        <time>2014-02-12T10:13:12.000Z</time>
      </trkpt>
      <trkpt lat="45.90809" lon="6.50849">
        <ele>2456.1999511719</ele>
        <time>2014-02-12T10:13:13.000Z</time>
      </trkpt>
      <trkpt lat="45.9081" lon="6.50849">
        <ele>2456.3999023438</ele>
        <time>2014-02-12T10:13:14.000Z</time>
      </trkpt>
      <trkpt lat="45.9081" lon="6.5085">
        <ele>2456.6000976562</ele>
        <time>2014-02-12T10:13:15.000Z</time>
      </trkpt>
      <trkpt lat="45.90811" lon="6.50851">
        <ele>2456.8000488281</ele>
        <time>2014-02-12T10:13:16.000Z</time>
      </trkpt>
      <trkpt lat="45.90811" lon="6.50851">
        <ele>2456.8000488281</ele>
        <time>2014-02-12T10:13:17.000Z</time>
      </trkpt>
      <trkpt lat="45.90811" lon="6.50852">
        <ele>2457</ele>
        <time>2014-02-12T10:13:18.000Z</time>
      </trkpt>
      <trkpt lat="45.90811" lon="6.50852">
        <ele>2457.1999511719</ele>
        <time>2014-02-12T10:13:19.000Z</time>
      </trkpt>
      <trkpt lat="45.90811" lon="6.50853">
        <ele>2457.1999511719</ele>
        <time>2014-02-12T10:13:20.000Z</time>
      </trkpt>
      <trkpt lat="45.90811" lon="6.50854">
        <ele>2457</ele>
        <time>2014-02-12T10:13:21.000Z</time>
      </trkpt>
      <trkpt lat="45.90811" lon="6.50855">
        <ele>2457</ele>
        <time>2014-02-12T10:13:22.000Z</time>
      </trkpt>
      <trkpt lat="45.9081" lon="6.50856">
        <ele>2456.3999023438</ele>
        <time>2014-02-12T10:13:23.000Z</time>
      </trkpt>
      <trkpt lat="45.90809" lon="6.50857">
        <ele>2456</ele>
        <time>2014-02-12T10:13:24.000Z</time>
      </trkpt>
      <trkpt lat="45.90808" lon="6.50858">
        <ele>2455.6000976562</ele>
        <time>2014-02-12T10:13:25.000Z</time>
      </trkpt>
      <trkpt lat="45.90807" lon="6.50858">
        <ele>2455</ele>
        <time>2014-02-12T10:13:26.000Z</time>
      </trkpt>
      <trkpt lat="45.90806" lon="6.50859">
        <ele>2455</ele>
        <time>2014-02-12T10:13:27.000Z</time>
      </trkpt>
      <trkpt lat="45.90805" lon="6.50859">
        <ele>2454.8000488281</ele>
        <time>2014-02-12T10:13:28.000Z</time>
      </trkpt>
      <trkpt lat="45.90805" lon="6.50859">
        <ele>2454.6000976562</ele>
        <time>2014-02-12T10:13:29.000Z</time>
      </trkpt>
      <trkpt lat="45.90804" lon="6.5086">
        <ele>2454.6000976562</ele>
        <time>2014-02-12T10:13:30.000Z</time>
      </trkpt>
      <trkpt lat="45.90803" lon="6.5086">
        <ele>2454.3999023438</ele>
        <time>2014-02-12T10:13:31.000Z</time>
      </trkpt>
      <trkpt lat="45.90802" lon="6.5086">
        <ele>2454.3999023438</ele>
        <time>2014-02-12T10:13:32.000Z</time>
      </trkpt>
      <trkpt lat="45.90802" lon="6.5086">
        <ele>2454.3999023438</ele>
        <time>2014-02-12T10:13:33.000Z</time>
      </trkpt>
      <trkpt lat="45.90801" lon="6.50861">
        <ele>2454.1999511719</ele>
        <time>2014-02-12T10:13:34.000Z</time>
      </trkpt>
      <trkpt lat="45.90801" lon="6.50861">
        <ele>2454.1999511719</ele>
        <time>2014-02-12T10:13:35.000Z</time>
      </trkpt>
      <trkpt lat="45.90801" lon="6.50861">
        <ele>2454.1999511719</ele>
        <time>2014-02-12T10:13:36.000Z</time>
      </trkpt>
      <trkpt lat="45.90801" lon="6.50861">
        <ele>2454.1999511719</ele>
        <time>2014-02-12T10:13:37.000Z</time>
      </trkpt>
      <trkpt lat="45.90802" lon="6.50862">
        <ele>2454.3999023438</ele>
        <time>2014-02-12T10:13:38.000Z</time>
      </trkpt>
      <trkpt lat="45.90803" lon="6.50863">
        <ele>2454.3999023438</ele>
        <time>2014-02-12T10:13:39.000Z</time>
      </trkpt>
      <trkpt lat="45.90804" lon="6.50863">
        <ele>2454.6000976562</ele>
        <time>2014-02-12T10:13:40.000Z</time>
      </trkpt>
      <trkpt lat="45.90805" lon="6.50864">
        <ele>2454.8000488281</ele>
        <time>2014-02-12T10:13:41.000Z</time>
      </trkpt>
      <trkpt lat="45.90806" lon="6.50865">
        <ele>2454.8000488281</ele>
        <time>2014-02-12T10:13:42.000Z</time>
      </trkpt>
      <trkpt lat="45.90806" lon="6.50865">
        <ele>2455</ele>
        <time>2014-02-12T10:13:43.000Z</time>
      </trkpt>
      <trkpt lat="45.90807" lon="6.50866">
        <ele>2455</ele>
        <time>2014-02-12T10:13:44.000Z</time>
      </trkpt>
      <trkpt lat="45.90808" lon="6.50867">
        <ele>2455.6000976562</ele>
        <time>2014-02-12T10:13:45.000Z</time>
      </trkpt>
      <trkpt lat="45.90809" lon="6.50867">
        <ele>2456.1999511719</ele>
        <time>2014-02-12T10:13:46.000Z</time>
      </trkpt>
      <trkpt lat="45.9081" lon="6.50868">
        <ele>2456.6000976562</ele>
        <time>2014-02-12T10:13:47.000Z</time>
      </trkpt>
      <trkpt lat="45.90811" lon="6.50868">
        <ele>2457.1999511719</ele>
        <time>2014-02-12T10:13:48.000Z</time>
      </trkpt>
      <trkpt lat="45.90812" lon="6.50869">
        <ele>2457.3999023438</ele>
        <time>2014-02-12T10:13:49.000Z</time>
      </trkpt>
      <trkpt lat="45.90812" lon="6.5087">
        <ele>2457.6000976562</ele>
        <time>2014-02-12T10:13:50.000Z</time>
      </trkpt>
      <trkpt lat="45.90813" lon="6.5087">
        <ele>2458</ele>
        <time>2014-02-12T10:13:51.000Z</time>
      </trkpt>
      <trkpt lat="45.90814" lon="6.5087">
        <ele>2458.3999023438</ele>
        <time>2014-02-12T10:13:52.000Z</time>
      </trkpt>
      <trkpt lat="45.90815" lon="6.50871">
        <ele>2458.8000488281</ele>
        <time>2014-02-12T10:13:53.000Z</time>
      </trkpt>
      <trkpt lat="45.90815" lon="6.50871">
        <ele>2459</ele>
        <time>2014-02-12T10:13:54.000Z</time>
      </trkpt>
      <trkpt lat="45.90815" lon="6.50871">
        <ele>2459</ele>
        <time>2014-02-12T10:13:55.000Z</time>
      </trkpt>
      <trkpt lat="45.90816" lon="6.50872">
        <ele>2459.3999023438</ele>
        <time>2014-02-12T10:13:56.000Z</time>
      </trkpt>
      <trkpt lat="45.90817" lon="6.50872">
        <ele>2459.8000488281</ele>
        <time>2014-02-12T10:13:57.000Z</time>
      </trkpt>
      <trkpt lat="45.90817" lon="6.50872">
        <ele>2460.1999511719</ele>
        <time>2014-02-12T10:13:58.000Z</time>
      </trkpt>
      <trkpt lat="45.90818" lon="6.50872">
        <ele>2460.6000976562</ele>
        <time>2014-02-12T10:13:59.000Z</time>
      </trkpt>
      <trkpt lat="45.9082" lon="6.50871">
        <ele>2461.1999511719</ele>
        <time>2014-02-12T10:14:00.000Z</time>
      </trkpt>
      <trkpt lat="45.9082" lon="6.50871">
        <ele>2461.3999023438</ele>
        <time>2014-02-12T10:14:01.000Z</time>
      </trkpt>
      <trkpt lat="45.9082" lon="6.50871">
        <ele>2461.3999023438</ele>
        <time>2014-02-12T10:14:02.000Z</time>
      </trkpt>
      <trkpt lat="45.90821" lon="6.50871">
        <ele>2462</ele>
        <time>2014-02-12T10:14:03.000Z</time>
      </trkpt>
      <trkpt lat="45.90822" lon="6.5087">
        <ele>2462.3999023438</ele>
        <time>2014-02-12T10:14:04.000Z</time>
      </trkpt>
      <trkpt lat="45.90823" lon="6.5087">
        <ele>2462.8000488281</ele>
        <time>2014-02-12T10:14:05.000Z</time>
      </trkpt>
      <trkpt lat="45.90824" lon="6.5087">
        <ele>2463.3999023438</ele>
        <time>2014-02-12T10:14:06.000Z</time>
      </trkpt>
      <trkpt lat="45.90825" lon="6.50869">
        <ele>2463.8000488281</ele>
        <time>2014-02-12T10:14:07.000Z</time>
      </trkpt>
      <trkpt lat="45.90825" lon="6.50869">
        <ele>2463.8000488281</ele>
        <time>2014-02-12T10:14:08.000Z</time>
      </trkpt>
      <trkpt lat="45.90826" lon="6.50869">
        <ele>2464.1999511719</ele>
        <time>2014-02-12T10:14:09.000Z</time>
      </trkpt>
      <trkpt lat="45.90826" lon="6.50869">
        <ele>2464.6000976562</ele>
        <time>2014-02-12T10:14:10.000Z</time>
      </trkpt>
      <trkpt lat="45.90828" lon="6.50868">
        <ele>2465.1999511719</ele>
        <time>2014-02-12T10:14:11.000Z</time>
      </trkpt>
      <trkpt lat="45.90828" lon="6.50867">
        <ele>2465.3999023438</ele>
        <time>2014-02-12T10:14:12.000Z</time>
      </trkpt>
      <trkpt lat="45.90828" lon="6.50866">
        <ele>2465.6000976562</ele>
        <time>2014-02-12T10:14:13.000Z</time>
      </trkpt>
      <trkpt lat="45.9083" lon="6.50865">
        <ele>2466.1999511719</ele>
        <time>2014-02-12T10:14:14.000Z</time>
      </trkpt>
      <trkpt lat="45.9083" lon="6.50865">
        <ele>2466.6000976562</ele>
        <time>2014-02-12T10:14:15.000Z</time>
      </trkpt>
      <trkpt lat="45.90831" lon="6.50863">
        <ele>2467</ele>
        <time>2014-02-12T10:14:16.000Z</time>
      </trkpt>
      <trkpt lat="45.90832" lon="6.50862">
        <ele>2467.3999023438</ele>
        <time>2014-02-12T10:14:17.000Z</time>
      </trkpt>
      <trkpt lat="45.90832" lon="6.50861">
        <ele>2467.6000976562</ele>
        <time>2014-02-12T10:14:18.000Z</time>
      </trkpt>
      <trkpt lat="45.90833" lon="6.50861">
        <ele>2467.6000976562</ele>
        <time>2014-02-12T10:14:19.000Z</time>
      </trkpt>
      <trkpt lat="45.90833" lon="6.5086">
        <ele>2467.8000488281</ele>
        <time>2014-02-12T10:14:20.000Z</time>
      </trkpt>
      <trkpt lat="45.90833" lon="6.50859">
        <ele>2467.8000488281</ele>
        <time>2014-02-12T10:14:21.000Z</time>
      </trkpt>
      <trkpt lat="45.90833" lon="6.50858">
        <ele>2468</ele>
        <time>2014-02-12T10:14:22.000Z</time>
      </trkpt>
      <trkpt lat="45.90834" lon="6.50857">
        <ele>2468</ele>
        <time>2014-02-12T10:14:23.000Z</time>
      </trkpt>
      <trkpt lat="45.90834" lon="6.50855">
        <ele>2468.3999023438</ele>
        <time>2014-02-12T10:14:24.000Z</time>
      </trkpt>
      <trkpt lat="45.90835" lon="6.50854">
        <ele>2468.8000488281</ele>
        <time>2014-02-12T10:14:25.000Z</time>
      </trkpt>
      <trkpt lat="45.90835" lon="6.50853">
        <ele>2469</ele>
        <time>2014-02-12T10:14:26.000Z</time>
      </trkpt>
      <trkpt lat="45.90836" lon="6.50852">
        <ele>2469.1999511719</ele>
        <time>2014-02-12T10:14:27.000Z</time>
      </trkpt>
      <trkpt lat="45.90836" lon="6.50852">
        <ele>2469.3999023438</ele>
        <time>2014-02-12T10:14:28.000Z</time>
      </trkpt>
      <trkpt lat="45.90836" lon="6.50852">
        <ele>2469.3999023438</ele>
        <time>2014-02-12T10:14:29.000Z</time>
      </trkpt>
      <trkpt lat="45.90837" lon="6.50851">
        <ele>2469.8000488281</ele>
        <time>2014-02-12T10:14:30.000Z</time>
      </trkpt>
      <trkpt lat="45.90837" lon="6.5085">
        <ele>2470</ele>
        <time>2014-02-12T10:14:31.000Z</time>
      </trkpt>
      <trkpt lat="45.90837" lon="6.5085">
        <ele>2470</ele>
        <time>2014-02-12T10:14:32.000Z</time>
      </trkpt>
      <trkpt lat="45.90838" lon="6.50849">
        <ele>2470.1999511719</ele>
        <time>2014-02-12T10:14:33.000Z</time>
      </trkpt>
      <trkpt lat="45.90838" lon="6.50849">
        <ele>2470</ele>
        <time>2014-02-12T10:14:34.000Z</time>
      </trkpt>
      <trkpt lat="45.90838" lon="6.5085">
        <ele>2470.1999511719</ele>
        <time>2014-02-12T10:14:35.000Z</time>
      </trkpt>
      <trkpt lat="45.90838" lon="6.5085">
        <ele>2470.1999511719</ele>
        <time>2014-02-12T10:14:36.000Z</time>
      </trkpt>
      <trkpt lat="45.90838" lon="6.50851">
        <ele>2470.1999511719</ele>
        <time>2014-02-12T10:14:37.000Z</time>
      </trkpt>
      <trkpt lat="45.90838" lon="6.50852">
        <ele>2470.1999511719</ele>
        <time>2014-02-12T10:14:38.000Z</time>
      </trkpt>
      <trkpt lat="45.90838" lon="6.50855">
        <ele>2470.1999511719</ele>
        <time>2014-02-12T10:14:39.000Z</time>
      </trkpt>
      <trkpt lat="45.90838" lon="6.50856">
        <ele>2470.1999511719</ele>
        <time>2014-02-12T10:14:40.000Z</time>
      </trkpt>
      <trkpt lat="45.90838" lon="6.50857">
        <ele>2470.1999511719</ele>
        <time>2014-02-12T10:14:41.000Z</time>
      </trkpt>
      <trkpt lat="45.90838" lon="6.50859">
        <ele>2470.3999023438</ele>
        <time>2014-02-12T10:14:42.000Z</time>
      </trkpt>
      <trkpt lat="45.90838" lon="6.50859">
        <ele>2470.3999023438</ele>
        <time>2014-02-12T10:14:43.000Z</time>
      </trkpt>
      <trkpt lat="45.90838" lon="6.50861">
        <ele>2470.6000976562</ele>
        <time>2014-02-12T10:14:44.000Z</time>
      </trkpt>
      <trkpt lat="45.90839" lon="6.50862">
        <ele>2470.8000488281</ele>
        <time>2014-02-12T10:14:45.000Z</time>
      </trkpt>
      <trkpt lat="45.90839" lon="6.50863">
        <ele>2470.8000488281</ele>
        <time>2014-02-12T10:14:46.000Z</time>
      </trkpt>
      <trkpt lat="45.90839" lon="6.50864">
        <ele>2471</ele>
        <time>2014-02-12T10:14:47.000Z</time>
      </trkpt>
      <trkpt lat="45.9084" lon="6.50866">
        <ele>2471.1999511719</ele>
        <time>2014-02-12T10:14:48.000Z</time>
      </trkpt>
      <trkpt lat="45.9084" lon="6.50866">
        <ele>2471.3999023438</ele>
        <time>2014-02-12T10:14:49.000Z</time>
      </trkpt>
      <trkpt lat="45.9084" lon="6.50867">
        <ele>2471.1999511719</ele>
        <time>2014-02-12T10:14:50.000Z</time>
      </trkpt>
      <trkpt lat="45.9084" lon="6.50868">
        <ele>2471.1999511719</ele>
        <time>2014-02-12T10:14:51.000Z</time>
      </trkpt>
      <trkpt lat="45.9084" lon="6.50868">
        <ele>2471.1999511719</ele>
        <time>2014-02-12T10:14:52.000Z</time>
      </trkpt>
      <trkpt lat="45.9084" lon="6.50868">
        <ele>2471.1999511719</ele>
        <time>2014-02-12T10:14:53.000Z</time>
      </trkpt>
      <trkpt lat="45.9084" lon="6.50868">
        <ele>2471.1999511719</ele>
        <time>2014-02-12T10:14:54.000Z</time>
      </trkpt>
      <trkpt lat="45.9084" lon="6.50868">
        <ele>2471.3999023438</ele>
        <time>2014-02-12T10:14:55.000Z</time>
      </trkpt>
      <trkpt lat="45.9084" lon="6.50867">
        <ele>2471.6000976562</ele>
        <time>2014-02-12T10:14:56.000Z</time>
      </trkpt>
      <trkpt lat="45.90841" lon="6.50865">
        <ele>2472</ele>
        <time>2014-02-12T10:14:57.000Z</time>
      </trkpt>
      <trkpt lat="45.90841" lon="6.50865">
        <ele>2472</ele>
        <time>2014-02-12T10:14:58.000Z</time>
      </trkpt>
      <trkpt lat="45.90842" lon="6.50863">
        <ele>2472.1999511719</ele>
        <time>2014-02-12T10:14:59.000Z</time>
      </trkpt>
      <trkpt lat="45.90842" lon="6.50863">
        <ele>2472.3999023438</ele>
        <time>2014-02-12T10:15:00.000Z</time>
      </trkpt>
      <trkpt lat="45.90843" lon="6.50862">
        <ele>2472.6000976562</ele>
        <time>2014-02-12T10:15:01.000Z</time>
      </trkpt>
      <trkpt lat="45.90843" lon="6.5086">
        <ele>2473</ele>
        <time>2014-02-12T10:15:02.000Z</time>
      </trkpt>
      <trkpt lat="45.90844" lon="6.5086">
        <ele>2473.1999511719</ele>
        <time>2014-02-12T10:15:03.000Z</time>
      </trkpt>
      <trkpt lat="45.90844" lon="6.50858">
        <ele>2473.3999023438</ele>
        <time>2014-02-12T10:15:04.000Z</time>
      </trkpt>
      <trkpt lat="45.90845" lon="6.50857">
        <ele>2473.8000488281</ele>
        <time>2014-02-12T10:15:05.000Z</time>
      </trkpt>
      <trkpt lat="45.90845" lon="6.50856">
        <ele>2474</ele>
        <time>2014-02-12T10:15:06.000Z</time>
      </trkpt>
      <trkpt lat="45.90846" lon="6.50855">
        <ele>2474</ele>
        <time>2014-02-12T10:15:07.000Z</time>
      </trkpt>
      <trkpt lat="45.90846" lon="6.50855">
        <ele>2474</ele>
        <time>2014-02-12T10:15:08.000Z</time>
      </trkpt>
      <trkpt lat="45.90846" lon="6.50854">
        <ele>2473.8000488281</ele>
        <time>2014-02-12T10:15:09.000Z</time>
      </trkpt>
      <trkpt lat="45.90847" lon="6.50853">
        <ele>2473.6000976562</ele>
        <time>2014-02-12T10:15:10.000Z</time>
      </trkpt>
      <trkpt lat="45.90847" lon="6.50853">
        <ele>2473.8000488281</ele>
        <time>2014-02-12T10:15:11.000Z</time>
      </trkpt>
      <trkpt lat="45.90848" lon="6.50852">
        <ele>2473.8000488281</ele>
        <time>2014-02-12T10:15:12.000Z</time>
      </trkpt>
      <trkpt lat="45.90848" lon="6.50852">
        <ele>2473.6000976562</ele>
        <time>2014-02-12T10:15:13.000Z</time>
      </trkpt>
      <trkpt lat="45.90848" lon="6.50852">
        <ele>2473.6000976562</ele>
        <time>2014-02-12T10:15:14.000Z</time>
      </trkpt>
      <trkpt lat="45.90848" lon="6.50852">
        <ele>2473.8000488281</ele>
        <time>2014-02-12T10:15:15.000Z</time>
      </trkpt>
      <trkpt lat="45.90848" lon="6.50852">
        <ele>2473.8000488281</ele>
        <time>2014-02-12T10:15:16.000Z</time>
      </trkpt>
      <trkpt lat="45.90848" lon="6.50852">
        <ele>2473.8000488281</ele>
        <time>2014-02-12T10:15:17.000Z</time>
      </trkpt>
      <trkpt lat="45.90848" lon="6.50852">
        <ele>2473.8000488281</ele>
        <time>2014-02-12T10:15:18.000Z</time>
      </trkpt>
      <trkpt lat="45.90848" lon="6.50853">
        <ele>2474</ele>
        <time>2014-02-12T10:15:19.000Z</time>
      </trkpt>
      <trkpt lat="45.90848" lon="6.50855">
        <ele>2474.6000976562</ele>
        <time>2014-02-12T10:15:20.000Z</time>
      </trkpt>
      <trkpt lat="45.90849" lon="6.50856">
        <ele>2474.8000488281</ele>
        <time>2014-02-12T10:15:21.000Z</time>
      </trkpt>
      <trkpt lat="45.90849" lon="6.50857">
        <ele>2475.1999511719</ele>
        <time>2014-02-12T10:15:22.000Z</time>
      </trkpt>
      <trkpt lat="45.90849" lon="6.50858">
        <ele>2475.6000976562</ele>
        <time>2014-02-12T10:15:23.000Z</time>
      </trkpt>
      <trkpt lat="45.90849" lon="6.50859">
        <ele>2475.8000488281</ele>
        <time>2014-02-12T10:15:24.000Z</time>
      </trkpt>
      <trkpt lat="45.90849" lon="6.50861">
        <ele>2475.8000488281</ele>
        <time>2014-02-12T10:15:25.000Z</time>
      </trkpt>
      <trkpt lat="45.90849" lon="6.50861">
        <ele>2475.8000488281</ele>
        <time>2014-02-12T10:15:26.000Z</time>
      </trkpt>
      <trkpt lat="45.90849" lon="6.50862">
        <ele>2475.8000488281</ele>
        <time>2014-02-12T10:15:27.000Z</time>
      </trkpt>
      <trkpt lat="45.90849" lon="6.50864">
        <ele>2476</ele>
        <time>2014-02-12T10:15:28.000Z</time>
      </trkpt>
      <trkpt lat="45.9085" lon="6.50865">
        <ele>2476</ele>
        <time>2014-02-12T10:15:29.000Z</time>
      </trkpt>
      <trkpt lat="45.9085" lon="6.50866">
        <ele>2476.1999511719</ele>
        <time>2014-02-12T10:15:30.000Z</time>
      </trkpt>
      <trkpt lat="45.9085" lon="6.50867">
        <ele>2476.1999511719</ele>
        <time>2014-02-12T10:15:31.000Z</time>
      </trkpt>
      <trkpt lat="45.9085" lon="6.50867">
        <ele>2476.1999511719</ele>
        <time>2014-02-12T10:15:32.000Z</time>
      </trkpt>
      <trkpt lat="45.9085" lon="6.50867">
        <ele>2476.1999511719</ele>
        <time>2014-02-12T10:15:33.000Z</time>
      </trkpt>
      <trkpt lat="45.9085" lon="6.50867">
        <ele>2476.1999511719</ele>
        <time>2014-02-12T10:15:34.000Z</time>
      </trkpt>
      <trkpt lat="45.9085" lon="6.50867">
        <ele>2476.3999023438</ele>
        <time>2014-02-12T10:15:35.000Z</time>
      </trkpt>
      <trkpt lat="45.90851" lon="6.50867">
        <ele>2476.3999023438</ele>
        <time>2014-02-12T10:15:36.000Z</time>
      </trkpt>
      <trkpt lat="45.90851" lon="6.50866">
        <ele>2476.8000488281</ele>
        <time>2014-02-12T10:15:37.000Z</time>
      </trkpt>
      <trkpt lat="45.90852" lon="6.50865">
        <ele>2477.1999511719</ele>
        <time>2014-02-12T10:15:38.000Z</time>
      </trkpt>
      <trkpt lat="45.90852" lon="6.50864">
        <ele>2477.3999023438</ele>
        <time>2014-02-12T10:15:39.000Z</time>
      </trkpt>
      <trkpt lat="45.90853" lon="6.50863">
        <ele>2477.6000976562</ele>
        <time>2014-02-12T10:15:40.000Z</time>
      </trkpt>
      <trkpt lat="45.90853" lon="6.50862">
        <ele>2477.6000976562</ele>
        <time>2014-02-12T10:15:41.000Z</time>
      </trkpt>
      <trkpt lat="45.90854" lon="6.50862">
        <ele>2477.6000976562</ele>
        <time>2014-02-12T10:15:42.000Z</time>
      </trkpt>
      <trkpt lat="45.90855" lon="6.5086">
        <ele>2477.3999023438</ele>
        <time>2014-02-12T10:15:43.000Z</time>
      </trkpt>
      <trkpt lat="45.90855" lon="6.5086">
        <ele>2477.3999023438</ele>
        <time>2014-02-12T10:15:44.000Z</time>
      </trkpt>
      <trkpt lat="45.90855" lon="6.50859">
        <ele>2477.3999023438</ele>
        <time>2014-02-12T10:15:45.000Z</time>
      </trkpt>
      <trkpt lat="45.90856" lon="6.50858">
        <ele>2477.1999511719</ele>
        <time>2014-02-12T10:15:46.000Z</time>
      </trkpt>
      <trkpt lat="45.90856" lon="6.50857">
        <ele>2477.1999511719</ele>
        <time>2014-02-12T10:15:47.000Z</time>
      </trkpt>
      <trkpt lat="45.90857" lon="6.50856">
        <ele>2477</ele>
        <time>2014-02-12T10:15:48.000Z</time>
      </trkpt>
      <trkpt lat="45.90858" lon="6.50855">
        <ele>2477</ele>
        <time>2014-02-12T10:15:49.000Z</time>
      </trkpt>
      <trkpt lat="45.90858" lon="6.50855">
        <ele>2476.8000488281</ele>
        <time>2014-02-12T10:15:50.000Z</time>
      </trkpt>
      <trkpt lat="45.90859" lon="6.50853">
        <ele>2476.8000488281</ele>
        <time>2014-02-12T10:15:51.000Z</time>
      </trkpt>
      <trkpt lat="45.90859" lon="6.50853">
        <ele>2476.8000488281</ele>
        <time>2014-02-12T10:15:52.000Z</time>
      </trkpt>
      <trkpt lat="45.9086" lon="6.50852">
        <ele>2476.6000976562</ele>
        <time>2014-02-12T10:15:53.000Z</time>
      </trkpt>
      <trkpt lat="45.90861" lon="6.50851">
        <ele>2476.6000976562</ele>
        <time>2014-02-12T10:15:54.000Z</time>
      </trkpt>
      <trkpt lat="45.90861" lon="6.5085">
        <ele>2476.6000976562</ele>
        <time>2014-02-12T10:15:55.000Z</time>
      </trkpt>
      <trkpt lat="45.90861" lon="6.50849">
        <ele>2476.3999023438</ele>
        <time>2014-02-12T10:15:56.000Z</time>
      </trkpt>
      <trkpt lat="45.90862" lon="6.50849">
        <ele>2476.3999023438</ele>
        <time>2014-02-12T10:15:57.000Z</time>
      </trkpt>
      <trkpt lat="45.90862" lon="6.50848">
        <ele>2476.3999023438</ele>
        <time>2014-02-12T10:15:58.000Z</time>
      </trkpt>
      <trkpt lat="45.90864" lon="6.50846">
        <ele>2476.3999023438</ele>
        <time>2014-02-12T10:15:59.000Z</time>
      </trkpt>
      <trkpt lat="45.90864" lon="6.50846">
        <ele>2476.3999023438</ele>
        <time>2014-02-12T10:16:00.000Z</time>
      </trkpt>
      <trkpt lat="45.90865" lon="6.50845">
        <ele>2476.1999511719</ele>
        <time>2014-02-12T10:16:01.000Z</time>
      </trkpt>
      <trkpt lat="45.90865" lon="6.50844">
        <ele>2476.1999511719</ele>
        <time>2014-02-12T10:16:02.000Z</time>
      </trkpt>
      <trkpt lat="45.90866" lon="6.50844">
        <ele>2476.1999511719</ele>
        <time>2014-02-12T10:16:03.000Z</time>
      </trkpt>
      <trkpt lat="45.90866" lon="6.50843">
        <ele>2476</ele>
        <time>2014-02-12T10:16:04.000Z</time>
      </trkpt>
      <trkpt lat="45.90866" lon="6.50842">
        <ele>2476</ele>
        <time>2014-02-12T10:16:05.000Z</time>
      </trkpt>
      <trkpt lat="45.90866" lon="6.50841">
        <ele>2475.8000488281</ele>
        <time>2014-02-12T10:16:06.000Z</time>
      </trkpt>
      <trkpt lat="45.90867" lon="6.5084">
        <ele>2475.8000488281</ele>
        <time>2014-02-12T10:16:07.000Z</time>
      </trkpt>
      <trkpt lat="45.90867" lon="6.5084">
        <ele>2475.8000488281</ele>
        <time>2014-02-12T10:16:08.000Z</time>
      </trkpt>
      <trkpt lat="45.90868" lon="6.50839">
        <ele>2475.6000976562</ele>
        <time>2014-02-12T10:16:09.000Z</time>
      </trkpt>
      <trkpt lat="45.90868" lon="6.50838">
        <ele>2475.6000976562</ele>
        <time>2014-02-12T10:16:10.000Z</time>
      </trkpt>
      <trkpt lat="45.90869" lon="6.50837">
        <ele>2475.6000976562</ele>
        <time>2014-02-12T10:16:11.000Z</time>
      </trkpt>
      <trkpt lat="45.90869" lon="6.50837">
        <ele>2475.6000976562</ele>
        <time>2014-02-12T10:16:12.000Z</time>
      </trkpt>
      <trkpt lat="45.9087" lon="6.50837">
        <ele>2475.6000976562</ele>
        <time>2014-02-12T10:16:13.000Z</time>
      </trkpt>
      <trkpt lat="45.9087" lon="6.50836">
        <ele>2475.3999023438</ele>
        <time>2014-02-12T10:16:14.000Z</time>
      </trkpt>
      <trkpt lat="45.90871" lon="6.50835">
        <ele>2475.3999023438</ele>
        <time>2014-02-12T10:16:15.000Z</time>
      </trkpt>
      <trkpt lat="45.90871" lon="6.50834">
        <ele>2475.6000976562</ele>
        <time>2014-02-12T10:16:16.000Z</time>
      </trkpt>
      <trkpt lat="45.90872" lon="6.50834">
        <ele>2475.3999023438</ele>
        <time>2014-02-12T10:16:17.000Z</time>
      </trkpt>
      <trkpt lat="45.90872" lon="6.50833">
        <ele>2475.1999511719</ele>
        <time>2014-02-12T10:16:18.000Z</time>
      </trkpt>
      <trkpt lat="45.90872" lon="6.50832">
        <ele>2475.1999511719</ele>
        <time>2014-02-12T10:16:19.000Z</time>
      </trkpt>
      <trkpt lat="45.90872" lon="6.50831">
        <ele>2474.8000488281</ele>
        <time>2014-02-12T10:16:20.000Z</time>
      </trkpt>
      <trkpt lat="45.90873" lon="6.50829">
        <ele>2474.6000976562</ele>
        <time>2014-02-12T10:16:21.000Z</time>
      </trkpt>
      <trkpt lat="45.90873" lon="6.50829">
        <ele>2474.3999023438</ele>
        <time>2014-02-12T10:16:22.000Z</time>
      </trkpt>
      <trkpt lat="45.90873" lon="6.50828">
        <ele>2474.3999023438</ele>
        <time>2014-02-12T10:16:23.000Z</time>
      </trkpt>
      <trkpt lat="45.90873" lon="6.50828">
        <ele>2474.1999511719</ele>
        <time>2014-02-12T10:16:24.000Z</time>
      </trkpt>
      <trkpt lat="45.90873" lon="6.50827">
        <ele>2474.1999511719</ele>
        <time>2014-02-12T10:16:25.000Z</time>
      </trkpt>
      <trkpt lat="45.90874" lon="6.50826">
        <ele>2474</ele>
        <time>2014-02-12T10:16:26.000Z</time>
      </trkpt>
      <trkpt lat="45.90874" lon="6.50825">
        <ele>2474</ele>
        <time>2014-02-12T10:16:27.000Z</time>
      </trkpt>
      <trkpt lat="45.90874" lon="6.50824">
        <ele>2473.6000976562</ele>
        <time>2014-02-12T10:16:28.000Z</time>
      </trkpt>
      <trkpt lat="45.90874" lon="6.50823">
        <ele>2473.6000976562</ele>
        <time>2014-02-12T10:16:29.000Z</time>
      </trkpt>
      <trkpt lat="45.90875" lon="6.50822">
        <ele>2473.1999511719</ele>
        <time>2014-02-12T10:16:30.000Z</time>
      </trkpt>
      <trkpt lat="45.90875" lon="6.50821">
        <ele>2473.1999511719</ele>
        <time>2014-02-12T10:16:31.000Z</time>
      </trkpt>
      <trkpt lat="45.90875" lon="6.50821">
        <ele>2473.1999511719</ele>
        <time>2014-02-12T10:16:32.000Z</time>
      </trkpt>
      <trkpt lat="45.90875" lon="6.5082">
        <ele>2473</ele>
        <time>2014-02-12T10:16:33.000Z</time>
      </trkpt>
      <trkpt lat="45.90875" lon="6.50819">
        <ele>2472.8000488281</ele>
        <time>2014-02-12T10:16:34.000Z</time>
      </trkpt>
      <trkpt lat="45.90876" lon="6.50818">
        <ele>2472.6000976562</ele>
        <time>2014-02-12T10:16:35.000Z</time>
      </trkpt>
      <trkpt lat="45.90876" lon="6.50818">
        <ele>2472.6000976562</ele>
        <time>2014-02-12T10:16:36.000Z</time>
      </trkpt>
      <trkpt lat="45.90876" lon="6.50817">
        <ele>2472.3999023438</ele>
        <time>2014-02-12T10:16:37.000Z</time>
      </trkpt>
      <trkpt lat="45.90876" lon="6.50816">
        <ele>2472.3999023438</ele>
        <time>2014-02-12T10:16:38.000Z</time>
      </trkpt>
      <trkpt lat="45.90877" lon="6.50815">
        <ele>2472.3999023438</ele>
        <time>2014-02-12T10:16:39.000Z</time>
      </trkpt>
      <trkpt lat="45.90877" lon="6.50815">
        <ele>2472.3999023438</ele>
        <time>2014-02-12T10:16:40.000Z</time>
      </trkpt>
      <trkpt lat="45.90877" lon="6.50814">
        <ele>2472.1999511719</ele>
        <time>2014-02-12T10:16:41.000Z</time>
      </trkpt>
      <trkpt lat="45.90877" lon="6.50813">
        <ele>2472.1999511719</ele>
        <time>2014-02-12T10:16:42.000Z</time>
      </trkpt>
      <trkpt lat="45.90877" lon="6.50812">
        <ele>2472.1999511719</ele>
        <time>2014-02-12T10:16:43.000Z</time>
      </trkpt>
      <trkpt lat="45.90877" lon="6.50811">
        <ele>2472</ele>
        <time>2014-02-12T10:16:44.000Z</time>
      </trkpt>
      <trkpt lat="45.90877" lon="6.50811">
        <ele>2472</ele>
        <time>2014-02-12T10:16:45.000Z</time>
      </trkpt>
      <trkpt lat="45.90878" lon="6.5081">
        <ele>2472</ele>
        <time>2014-02-12T10:16:46.000Z</time>
      </trkpt>
      <trkpt lat="45.90878" lon="6.50809">
        <ele>2471.8000488281</ele>
        <time>2014-02-12T10:16:47.000Z</time>
      </trkpt>
      <trkpt lat="45.90878" lon="6.50808">
        <ele>2471.8000488281</ele>
        <time>2014-02-12T10:16:48.000Z</time>
      </trkpt>
      <trkpt lat="45.90878" lon="6.50807">
        <ele>2471.8000488281</ele>
        <time>2014-02-12T10:16:49.000Z</time>
      </trkpt>
      <trkpt lat="45.90878" lon="6.50806">
        <ele>2471.6000976562</ele>
        <time>2014-02-12T10:16:50.000Z</time>
      </trkpt>
      <trkpt lat="45.90878" lon="6.50806">
        <ele>2471.6000976562</ele>
        <time>2014-02-12T10:16:51.000Z</time>
      </trkpt>
      <trkpt lat="45.90878" lon="6.50805">
        <ele>2471.6000976562</ele>
        <time>2014-02-12T10:16:52.000Z</time>
      </trkpt>
      <trkpt lat="45.90879" lon="6.50804">
        <ele>2471.6000976562</ele>
        <time>2014-02-12T10:16:53.000Z</time>
      </trkpt>
      <trkpt lat="45.90879" lon="6.50804">
        <ele>2471.6000976562</ele>
        <time>2014-02-12T10:16:54.000Z</time>
      </trkpt>
      <trkpt lat="45.9088" lon="6.50803">
        <ele>2471.8000488281</ele>
        <time>2014-02-12T10:16:55.000Z</time>
      </trkpt>
      <trkpt lat="45.9088" lon="6.50802">
        <ele>2472</ele>
        <time>2014-02-12T10:16:56.000Z</time>
      </trkpt>
      <trkpt lat="45.9088" lon="6.50802">
        <ele>2472</ele>
        <time>2014-02-12T10:16:57.000Z</time>
      </trkpt>
      <trkpt lat="45.9088" lon="6.50801">
        <ele>2472</ele>
        <time>2014-02-12T10:16:58.000Z</time>
      </trkpt>
      <trkpt lat="45.9088" lon="6.50801">
        <ele>2472</ele>
        <time>2014-02-12T10:16:59.000Z</time>
      </trkpt>
      <trkpt lat="45.90881" lon="6.50801">
        <ele>2472</ele>
        <time>2014-02-12T10:17:00.000Z</time>
      </trkpt>
      <trkpt lat="45.90881" lon="6.508">
        <ele>2472.1999511719</ele>
        <time>2014-02-12T10:17:01.000Z</time>
      </trkpt>
      <trkpt lat="45.90882" lon="6.50799">
        <ele>2472.1999511719</ele>
        <time>2014-02-12T10:17:02.000Z</time>
      </trkpt>
      <trkpt lat="45.90882" lon="6.50798">
        <ele>2472.3999023438</ele>
        <time>2014-02-12T10:17:03.000Z</time>
      </trkpt>
      <trkpt lat="45.90883" lon="6.50797">
        <ele>2472.3999023438</ele>
        <time>2014-02-12T10:17:04.000Z</time>
      </trkpt>
      <trkpt lat="45.90883" lon="6.50797">
        <ele>2472.3999023438</ele>
        <time>2014-02-12T10:17:05.000Z</time>
      </trkpt>
      <trkpt lat="45.90883" lon="6.50797">
        <ele>2472.3999023438</ele>
        <time>2014-02-12T10:17:06.000Z</time>
      </trkpt>
      <trkpt lat="45.90883" lon="6.50796">
        <ele>2472.3999023438</ele>
        <time>2014-02-12T10:17:07.000Z</time>
      </trkpt>
      <trkpt lat="45.90883" lon="6.50795">
        <ele>2472.3999023438</ele>
        <time>2014-02-12T10:17:08.000Z</time>
      </trkpt>
      <trkpt lat="45.90884" lon="6.50794">
        <ele>2472.6000976562</ele>
        <time>2014-02-12T10:17:09.000Z</time>
      </trkpt>
      <trkpt lat="45.90884" lon="6.50793">
        <ele>2472.6000976562</ele>
        <time>2014-02-12T10:17:10.000Z</time>
      </trkpt>
      <trkpt lat="45.90885" lon="6.50792">
        <ele>2472.8000488281</ele>
        <time>2014-02-12T10:17:11.000Z</time>
      </trkpt>
      <trkpt lat="45.90885" lon="6.50791">
        <ele>2472.8000488281</ele>
        <time>2014-02-12T10:17:12.000Z</time>
      </trkpt>
      <trkpt lat="45.90885" lon="6.50791">
        <ele>2472.8000488281</ele>
        <time>2014-02-12T10:17:13.000Z</time>
      </trkpt>
      <trkpt lat="45.90886" lon="6.50791">
        <ele>2473</ele>
        <time>2014-02-12T10:17:14.000Z</time>
      </trkpt>
      <trkpt lat="45.90886" lon="6.50791">
        <ele>2473</ele>
        <time>2014-02-12T10:17:15.000Z</time>
      </trkpt>
      <trkpt lat="45.90886" lon="6.5079">
        <ele>2473</ele>
        <time>2014-02-12T10:17:16.000Z</time>
      </trkpt>
      <trkpt lat="45.90886" lon="6.50789">
        <ele>2473</ele>
        <time>2014-02-12T10:17:17.000Z</time>
      </trkpt>
      <trkpt lat="45.90887" lon="6.50788">
        <ele>2473.3999023438</ele>
        <time>2014-02-12T10:17:18.000Z</time>
      </trkpt>
      <trkpt lat="45.90887" lon="6.50788">
        <ele>2473.3999023438</ele>
        <time>2014-02-12T10:17:19.000Z</time>
      </trkpt>
      <trkpt lat="45.90887" lon="6.50788">
        <ele>2473.3999023438</ele>
        <time>2014-02-12T10:17:20.000Z</time>
      </trkpt>
      <trkpt lat="45.90888" lon="6.50787">
        <ele>2473.6000976562</ele>
        <time>2014-02-12T10:17:21.000Z</time>
      </trkpt>
      <trkpt lat="45.90888" lon="6.50787">
        <ele>2473.6000976562</ele>
        <time>2014-02-12T10:17:22.000Z</time>
      </trkpt>
      <trkpt lat="45.90889" lon="6.50786">
        <ele>2473.6000976562</ele>
        <time>2014-02-12T10:17:23.000Z</time>
      </trkpt>
      <trkpt lat="45.90889" lon="6.50785">
        <ele>2473.8000488281</ele>
        <time>2014-02-12T10:17:24.000Z</time>
      </trkpt>
      <trkpt lat="45.9089" lon="6.50784">
        <ele>2474</ele>
        <time>2014-02-12T10:17:25.000Z</time>
      </trkpt>
      <trkpt lat="45.9089" lon="6.50783">
        <ele>2474</ele>
        <time>2014-02-12T10:17:26.000Z</time>
      </trkpt>
      <trkpt lat="45.9089" lon="6.50783">
        <ele>2474</ele>
        <time>2014-02-12T10:17:27.000Z</time>
      </trkpt>
      <trkpt lat="45.90891" lon="6.50783">
        <ele>2473.6000976562</ele>
        <time>2014-02-12T10:17:28.000Z</time>
      </trkpt>
      <trkpt lat="45.90892" lon="6.50782">
        <ele>2473.3999023438</ele>
        <time>2014-02-12T10:17:29.000Z</time>
      </trkpt>
      <trkpt lat="45.90893" lon="6.50781">
        <ele>2472.8000488281</ele>
        <time>2014-02-12T10:17:30.000Z</time>
      </trkpt>
      <trkpt lat="45.90893" lon="6.50781">
        <ele>2472.6000976562</ele>
        <time>2014-02-12T10:17:31.000Z</time>
      </trkpt>
      <trkpt lat="45.90894" lon="6.50779">
        <ele>2472</ele>
        <time>2014-02-12T10:17:32.000Z</time>
      </trkpt>
      <trkpt lat="45.90895" lon="6.50779">
        <ele>2471.8000488281</ele>
        <time>2014-02-12T10:17:33.000Z</time>
      </trkpt>
      <trkpt lat="45.90896" lon="6.50778">
        <ele>2471.1999511719</ele>
        <time>2014-02-12T10:17:34.000Z</time>
      </trkpt>
      <trkpt lat="45.90896" lon="6.50778">
        <ele>2471.1999511719</ele>
        <time>2014-02-12T10:17:35.000Z</time>
      </trkpt>
      <trkpt lat="45.90896" lon="6.50777">
        <ele>2471</ele>
        <time>2014-02-12T10:17:36.000Z</time>
      </trkpt>
      <trkpt lat="45.90897" lon="6.50777">
        <ele>2470.8000488281</ele>
        <time>2014-02-12T10:17:37.000Z</time>
      </trkpt>
      <trkpt lat="45.90897" lon="6.50777">
        <ele>2470.8000488281</ele>
        <time>2014-02-12T10:17:38.000Z</time>
      </trkpt>
      <trkpt lat="45.90897" lon="6.50777">
        <ele>2470.6000976562</ele>
        <time>2014-02-12T10:17:39.000Z</time>
      </trkpt>
      <trkpt lat="45.90897" lon="6.50777">
        <ele>2470.6000976562</ele>
        <time>2014-02-12T10:17:40.000Z</time>
      </trkpt>
      <trkpt lat="45.90897" lon="6.50777">
        <ele>2470.6000976562</ele>
        <time>2014-02-12T10:17:41.000Z</time>
      </trkpt>
      <trkpt lat="45.90897" lon="6.50777">
        <ele>2470.6000976562</ele>
        <time>2014-02-12T10:17:42.000Z</time>
      </trkpt>
      <trkpt lat="45.90897" lon="6.50777">
        <ele>2470.6000976562</ele>
        <time>2014-02-12T10:17:43.000Z</time>
      </trkpt>
      <trkpt lat="45.90897" lon="6.50777">
        <ele>2470.6000976562</ele>
        <time>2014-02-12T10:17:44.000Z</time>
      </trkpt>
      <trkpt lat="45.90897" lon="6.50777">
        <ele>2470.6000976562</ele>
        <time>2014-02-12T10:17:45.000Z</time>
      </trkpt>
      <trkpt lat="45.90897" lon="6.50778">
        <ele>2470.6000976562</ele>
        <time>2014-02-12T10:17:46.000Z</time>
      </trkpt>
      <trkpt lat="45.90897" lon="6.50778">
        <ele>2470.6000976562</ele>
        <time>2014-02-12T10:17:47.000Z</time>
      </trkpt>
      <trkpt lat="45.90897" lon="6.50779">
        <ele>2470.6000976562</ele>
        <time>2014-02-12T10:17:48.000Z</time>
      </trkpt>
      <trkpt lat="45.90897" lon="6.50779">
        <ele>2470.6000976562</ele>
        <time>2014-02-12T10:17:49.000Z</time>
      </trkpt>
      <trkpt lat="45.90897" lon="6.50779">
        <ele>2470.6000976562</ele>
        <time>2014-02-12T10:17:50.000Z</time>
      </trkpt>
      <trkpt lat="45.90897" lon="6.50779">
        <ele>2470.6000976562</ele>
        <time>2014-02-12T10:17:51.000Z</time>
      </trkpt>
      <trkpt lat="45.90897" lon="6.50779">
        <ele>2470.6000976562</ele>
        <time>2014-02-12T10:17:52.000Z</time>
      </trkpt>
      <trkpt lat="45.90897" lon="6.50779">
        <ele>2470.6000976562</ele>
        <time>2014-02-12T10:17:53.000Z</time>
      </trkpt>
      <trkpt lat="45.90897" lon="6.50779">
        <ele>2470.6000976562</ele>
        <time>2014-02-12T10:17:54.000Z</time>
      </trkpt>
      <trkpt lat="45.90897" lon="6.50779">
        <ele>2470.6000976562</ele>
        <time>2014-02-12T10:17:55.000Z</time>
      </trkpt>
      <trkpt lat="45.90897" lon="6.50779">
        <ele>2470.6000976562</ele>
        <time>2014-02-12T10:17:56.000Z</time>
      </trkpt>
      <trkpt lat="45.90897" lon="6.50779">
        <ele>2470.6000976562</ele>
        <time>2014-02-12T10:17:57.000Z</time>
      </trkpt>
      <trkpt lat="45.90897" lon="6.50779">
        <ele>2470.6000976562</ele>
        <time>2014-02-12T10:17:58.000Z</time>
      </trkpt>
      <trkpt lat="45.90897" lon="6.50779">
        <ele>2470.6000976562</ele>
        <time>2014-02-12T10:17:59.000Z</time>
      </trkpt>
      <trkpt lat="45.90897" lon="6.50779">
        <ele>2470.6000976562</ele>
        <time>2014-02-12T10:18:00.000Z</time>
      </trkpt>
      <trkpt lat="45.90897" lon="6.50779">
        <ele>2470.6000976562</ele>
        <time>2014-02-12T10:18:01.000Z</time>
      </trkpt>
      <trkpt lat="45.90897" lon="6.50779">
        <ele>2470.6000976562</ele>
        <time>2014-02-12T10:18:02.000Z</time>
      </trkpt>
      <trkpt lat="45.90897" lon="6.50779">
        <ele>2470.6000976562</ele>
        <time>2014-02-12T10:18:03.000Z</time>
      </trkpt>
      <trkpt lat="45.90897" lon="6.50779">
        <ele>2470.6000976562</ele>
        <time>2014-02-12T10:18:04.000Z</time>
      </trkpt>
      <trkpt lat="45.90897" lon="6.50779">
        <ele>2470.6000976562</ele>
        <time>2014-02-12T10:18:06.000Z</time>
      </trkpt>
      <trkpt lat="45.90897" lon="6.50779">
        <ele>2470.6000976562</ele>
        <time>2014-02-12T10:18:07.000Z</time>
      </trkpt>
      <trkpt lat="45.90897" lon="6.5078">
        <ele>2470.6000976562</ele>
        <time>2014-02-12T10:18:08.000Z</time>
      </trkpt>
      <trkpt lat="45.90897" lon="6.50782">
        <ele>2470.8000488281</ele>
        <time>2014-02-12T10:18:09.000Z</time>
      </trkpt>
      <trkpt lat="45.90897" lon="6.50782">
        <ele>2470.8000488281</ele>
        <time>2014-02-12T10:18:10.000Z</time>
      </trkpt>
      <trkpt lat="45.90897" lon="6.50784">
        <ele>2470.8000488281</ele>
        <time>2014-02-12T10:18:11.000Z</time>
      </trkpt>
      <trkpt lat="45.90897" lon="6.50786">
        <ele>2471</ele>
        <time>2014-02-12T10:18:12.000Z</time>
      </trkpt>
      <trkpt lat="45.90897" lon="6.50786">
        <ele>2471</ele>
        <time>2014-02-12T10:18:13.000Z</time>
      </trkpt>
      <trkpt lat="45.90897" lon="6.50789">
        <ele>2471.1999511719</ele>
        <time>2014-02-12T10:18:14.000Z</time>
      </trkpt>
      <trkpt lat="45.90897" lon="6.5079">
        <ele>2471.1999511719</ele>
        <time>2014-02-12T10:18:15.000Z</time>
      </trkpt>
      <trkpt lat="45.90897" lon="6.50791">
        <ele>2471.3999023438</ele>
        <time>2014-02-12T10:18:16.000Z</time>
      </trkpt>
      <trkpt lat="45.90897" lon="6.50793">
        <ele>2471.6000976562</ele>
        <time>2014-02-12T10:18:17.000Z</time>
      </trkpt>
      <trkpt lat="45.90897" lon="6.50794">
        <ele>2471.6000976562</ele>
        <time>2014-02-12T10:18:18.000Z</time>
      </trkpt>
      <trkpt lat="45.90897" lon="6.50796">
        <ele>2471.8000488281</ele>
        <time>2014-02-12T10:18:19.000Z</time>
      </trkpt>
      <trkpt lat="45.90897" lon="6.50797">
        <ele>2471.6000976562</ele>
        <time>2014-02-12T10:18:20.000Z</time>
      </trkpt>
      <trkpt lat="45.90898" lon="6.50798">
        <ele>2471.6000976562</ele>
        <time>2014-02-12T10:18:21.000Z</time>
      </trkpt>
      <trkpt lat="45.90898" lon="6.508">
        <ele>2471.6000976562</ele>
        <time>2014-02-12T10:18:22.000Z</time>
      </trkpt>
      <trkpt lat="45.90898" lon="6.50802">
        <ele>2471.6000976562</ele>
        <time>2014-02-12T10:18:23.000Z</time>
      </trkpt>
      <trkpt lat="45.90898" lon="6.50802">
        <ele>2471.6000976562</ele>
        <time>2014-02-12T10:18:24.000Z</time>
      </trkpt>
      <trkpt lat="45.90898" lon="6.50803">
        <ele>2471.6000976562</ele>
        <time>2014-02-12T10:18:25.000Z</time>
      </trkpt>
      <trkpt lat="45.90898" lon="6.50804">
        <ele>2471.6000976562</ele>
        <time>2014-02-12T10:18:26.000Z</time>
      </trkpt>
      <trkpt lat="45.90898" lon="6.50804">
        <ele>2471.6000976562</ele>
        <time>2014-02-12T10:18:27.000Z</time>
      </trkpt>
      <trkpt lat="45.90899" lon="6.50805">
        <ele>2471.6000976562</ele>
        <time>2014-02-12T10:18:28.000Z</time>
      </trkpt>
      <trkpt lat="45.90899" lon="6.50805">
        <ele>2471.3999023438</ele>
        <time>2014-02-12T10:18:29.000Z</time>
      </trkpt>
      <trkpt lat="45.90899" lon="6.50805">
        <ele>2471.3999023438</ele>
        <time>2014-02-12T10:18:30.000Z</time>
      </trkpt>
      <trkpt lat="45.90899" lon="6.50806">
        <ele>2471.1999511719</ele>
        <time>2014-02-12T10:18:31.000Z</time>
      </trkpt>
      <trkpt lat="45.909" lon="6.50807">
        <ele>2471.1999511719</ele>
        <time>2014-02-12T10:18:32.000Z</time>
      </trkpt>
      <trkpt lat="45.909" lon="6.50807">
        <ele>2471.1999511719</ele>
        <time>2014-02-12T10:18:33.000Z</time>
      </trkpt>
      <trkpt lat="45.909" lon="6.50809">
        <ele>2471</ele>
        <time>2014-02-12T10:18:34.000Z</time>
      </trkpt>
      <trkpt lat="45.909" lon="6.50809">
        <ele>2471</ele>
        <time>2014-02-12T10:18:35.000Z</time>
      </trkpt>
      <trkpt lat="45.90901" lon="6.5081">
        <ele>2471</ele>
        <time>2014-02-12T10:18:36.000Z</time>
      </trkpt>
      <trkpt lat="45.90901" lon="6.5081">
        <ele>2471</ele>
        <time>2014-02-12T10:18:37.000Z</time>
      </trkpt>
      <trkpt lat="45.90901" lon="6.5081">
        <ele>2471</ele>
        <time>2014-02-12T10:18:38.000Z</time>
      </trkpt>
      <trkpt lat="45.90901" lon="6.50811">
        <ele>2470.8000488281</ele>
        <time>2014-02-12T10:18:39.000Z</time>
      </trkpt>
      <trkpt lat="45.90901" lon="6.50812">
        <ele>2470.8000488281</ele>
        <time>2014-02-12T10:18:40.000Z</time>
      </trkpt>
      <trkpt lat="45.90901" lon="6.50812">
        <ele>2470.8000488281</ele>
        <time>2014-02-12T10:18:41.000Z</time>
      </trkpt>
      <trkpt lat="45.90901" lon="6.50812">
        <ele>2470.8000488281</ele>
        <time>2014-02-12T10:18:42.000Z</time>
      </trkpt>
      <trkpt lat="45.90901" lon="6.50812">
        <ele>2470.8000488281</ele>
        <time>2014-02-12T10:18:43.000Z</time>
      </trkpt>
      <trkpt lat="45.90901" lon="6.50812">
        <ele>2470.8000488281</ele>
        <time>2014-02-12T10:18:44.000Z</time>
      </trkpt>
      <trkpt lat="45.90901" lon="6.50812">
        <ele>2470.8000488281</ele>
        <time>2014-02-12T10:18:45.000Z</time>
      </trkpt>
      <trkpt lat="45.90901" lon="6.50812">
        <ele>2470.8000488281</ele>
        <time>2014-02-12T10:18:46.000Z</time>
      </trkpt>
      <trkpt lat="45.90902" lon="6.50813">
        <ele>2470.8000488281</ele>
        <time>2014-02-12T10:18:47.000Z</time>
      </trkpt>
      <trkpt lat="45.90902" lon="6.50813">
        <ele>2470.8000488281</ele>
        <time>2014-02-12T10:18:48.000Z</time>
      </trkpt>
      <trkpt lat="45.90902" lon="6.50813">
        <ele>2470.8000488281</ele>
        <time>2014-02-12T10:18:49.000Z</time>
      </trkpt>
      <trkpt lat="45.90902" lon="6.50813">
        <ele>2470.8000488281</ele>
        <time>2014-02-12T10:18:50.000Z</time>
      </trkpt>
      <trkpt lat="45.90902" lon="6.50814">
        <ele>2470.8000488281</ele>
        <time>2014-02-12T10:18:51.000Z</time>
      </trkpt>
      <trkpt lat="45.90902" lon="6.50814">
        <ele>2470.8000488281</ele>
        <time>2014-02-12T10:18:52.000Z</time>
      </trkpt>
      <trkpt lat="45.90902" lon="6.50815">
        <ele>2470.6000976562</ele>
        <time>2014-02-12T10:18:53.000Z</time>
      </trkpt>
      <trkpt lat="45.90902" lon="6.50816">
        <ele>2470.6000976562</ele>
        <time>2014-02-12T10:18:54.000Z</time>
      </trkpt>
      <trkpt lat="45.90902" lon="6.50817">
        <ele>2470.6000976562</ele>
        <time>2014-02-12T10:18:55.000Z</time>
      </trkpt>
      <trkpt lat="45.90903" lon="6.50818">
        <ele>2470.6000976562</ele>
        <time>2014-02-12T10:18:56.000Z</time>
      </trkpt>
      <trkpt lat="45.90903" lon="6.50819">
        <ele>2470.6000976562</ele>
        <time>2014-02-12T10:18:57.000Z</time>
      </trkpt>
      <trkpt lat="45.90903" lon="6.50821">
        <ele>2470.6000976562</ele>
        <time>2014-02-12T10:18:58.000Z</time>
      </trkpt>
      <trkpt lat="45.90903" lon="6.50822">
        <ele>2470.8000488281</ele>
        <time>2014-02-12T10:18:59.000Z</time>
      </trkpt>
      <trkpt lat="45.90903" lon="6.50823">
        <ele>2470.8000488281</ele>
        <time>2014-02-12T10:19:00.000Z</time>
      </trkpt>
      <trkpt lat="45.90903" lon="6.50824">
        <ele>2471</ele>
        <time>2014-02-12T10:19:01.000Z</time>
      </trkpt>
      <trkpt lat="45.90903" lon="6.50826">
        <ele>2471.1999511719</ele>
        <time>2014-02-12T10:19:02.000Z</time>
      </trkpt>
      <trkpt lat="45.90903" lon="6.50827">
        <ele>2471.3999023438</ele>
        <time>2014-02-12T10:19:03.000Z</time>
      </trkpt>
      <trkpt lat="45.90903" lon="6.50828">
        <ele>2471.1999511719</ele>
        <time>2014-02-12T10:19:04.000Z</time>
      </trkpt>
      <trkpt lat="45.90904" lon="6.50829">
        <ele>2471.1999511719</ele>
        <time>2014-02-12T10:19:05.000Z</time>
      </trkpt>
      <trkpt lat="45.90904" lon="6.5083">
        <ele>2471</ele>
        <time>2014-02-12T10:19:06.000Z</time>
      </trkpt>
      <trkpt lat="45.90905" lon="6.50831">
        <ele>2471</ele>
        <time>2014-02-12T10:19:07.000Z</time>
      </trkpt>
      <trkpt lat="45.90905" lon="6.50832">
        <ele>2471</ele>
        <time>2014-02-12T10:19:08.000Z</time>
      </trkpt>
      <trkpt lat="45.90905" lon="6.50833">
        <ele>2471</ele>
        <time>2014-02-12T10:19:09.000Z</time>
      </trkpt>
      <trkpt lat="45.90905" lon="6.50834">
        <ele>2471.3999023438</ele>
        <time>2014-02-12T10:19:10.000Z</time>
      </trkpt>
      <trkpt lat="45.90905" lon="6.50835">
        <ele>2472</ele>
        <time>2014-02-12T10:19:11.000Z</time>
      </trkpt>
      <trkpt lat="45.90905" lon="6.50836">
        <ele>2472.3999023438</ele>
        <time>2014-02-12T10:19:12.000Z</time>
      </trkpt>
      <trkpt lat="45.90905" lon="6.50837">
        <ele>2472.6000976562</ele>
        <time>2014-02-12T10:19:13.000Z</time>
      </trkpt>
      <trkpt lat="45.90904" lon="6.50837">
        <ele>2472.8000488281</ele>
        <time>2014-02-12T10:19:14.000Z</time>
      </trkpt>
      <trkpt lat="45.90904" lon="6.50837">
        <ele>2472.8000488281</ele>
        <time>2014-02-12T10:19:15.000Z</time>
      </trkpt>
      <trkpt lat="45.90904" lon="6.50837">
        <ele>2472.8000488281</ele>
        <time>2014-02-12T10:19:17.000Z</time>
      </trkpt>
      <trkpt lat="45.90904" lon="6.50837">
        <ele>2472.8000488281</ele>
        <time>2014-02-12T10:19:18.000Z</time>
      </trkpt>
      <trkpt lat="45.90904" lon="6.50837">
        <ele>2472.8000488281</ele>
        <time>2014-02-12T10:19:19.000Z</time>
      </trkpt>
      <trkpt lat="45.90904" lon="6.50837">
        <ele>2472.8000488281</ele>
        <time>2014-02-12T10:19:20.000Z</time>
      </trkpt>
      <trkpt lat="45.90904" lon="6.50837">
        <ele>2472.8000488281</ele>
        <time>2014-02-12T10:19:21.000Z</time>
      </trkpt>
      <trkpt lat="45.90904" lon="6.50837">
        <ele>2472.8000488281</ele>
        <time>2014-02-12T10:19:22.000Z</time>
      </trkpt>
      <trkpt lat="45.90904" lon="6.50837">
        <ele>2472.8000488281</ele>
        <time>2014-02-12T10:19:24.000Z</time>
      </trkpt>
      <trkpt lat="45.90904" lon="6.50837">
        <ele>2472.8000488281</ele>
        <time>2014-02-12T10:19:26.000Z</time>
      </trkpt>
      <trkpt lat="45.90904" lon="6.50837">
        <ele>2472.8000488281</ele>
        <time>2014-02-12T10:19:27.000Z</time>
      </trkpt>
      <trkpt lat="45.90904" lon="6.50837">
        <ele>2472.8000488281</ele>
        <time>2014-02-12T10:19:28.000Z</time>
      </trkpt>
      <trkpt lat="45.90904" lon="6.50837">
        <ele>2472.8000488281</ele>
        <time>2014-02-12T10:19:29.000Z</time>
      </trkpt>
      <trkpt lat="45.90904" lon="6.50837">
        <ele>2472.8000488281</ele>
        <time>2014-02-12T10:19:30.000Z</time>
      </trkpt>
      <trkpt lat="45.90904" lon="6.50837">
        <ele>2472.8000488281</ele>
        <time>2014-02-12T10:19:31.000Z</time>
      </trkpt>
      <trkpt lat="45.90904" lon="6.50837">
        <ele>2472.8000488281</ele>
        <time>2014-02-12T10:19:32.000Z</time>
      </trkpt>
      <trkpt lat="45.90904" lon="6.50837">
        <ele>2472.8000488281</ele>
        <time>2014-02-12T10:19:33.000Z</time>
      </trkpt>
      <trkpt lat="45.90904" lon="6.50837">
        <ele>2472.8000488281</ele>
        <time>2014-02-12T10:19:34.000Z</time>
      </trkpt>
      <trkpt lat="45.90904" lon="6.50837">
        <ele>2472.8000488281</ele>
        <time>2014-02-12T10:19:35.000Z</time>
      </trkpt>
      <trkpt lat="45.90904" lon="6.50837">
        <ele>2472.8000488281</ele>
        <time>2014-02-12T10:19:36.000Z</time>
      </trkpt>
      <trkpt lat="45.90904" lon="6.50837">
        <ele>2472.8000488281</ele>
        <time>2014-02-12T10:19:37.000Z</time>
      </trkpt>
      <trkpt lat="45.90904" lon="6.50837">
        <ele>2472.8000488281</ele>
        <time>2014-02-12T10:19:38.000Z</time>
      </trkpt>
      <trkpt lat="45.90904" lon="6.50837">
        <ele>2472.8000488281</ele>
        <time>2014-02-12T10:19:39.000Z</time>
      </trkpt>
      <trkpt lat="45.90904" lon="6.50837">
        <ele>2472.8000488281</ele>
        <time>2014-02-12T10:19:40.000Z</time>
      </trkpt>
      <trkpt lat="45.90904" lon="6.50837">
        <ele>2472.8000488281</ele>
        <time>2014-02-12T10:19:41.000Z</time>
      </trkpt>
      <trkpt lat="45.90904" lon="6.50837">
        <ele>2472.8000488281</ele>
        <time>2014-02-12T10:19:42.000Z</time>
      </trkpt>
      <trkpt lat="45.90904" lon="6.50837">
        <ele>2472.8000488281</ele>
        <time>2014-02-12T10:19:44.000Z</time>
      </trkpt>
      <trkpt lat="45.90904" lon="6.50837">
        <ele>2472.8000488281</ele>
        <time>2014-02-12T10:19:45.000Z</time>
      </trkpt>
      <trkpt lat="45.90904" lon="6.50837">
        <ele>2472.8000488281</ele>
        <time>2014-02-12T10:19:46.000Z</time>
      </trkpt>
      <trkpt lat="45.90904" lon="6.50837">
        <ele>2472.8000488281</ele>
        <time>2014-02-12T10:19:47.000Z</time>
      </trkpt>
      <trkpt lat="45.90904" lon="6.50837">
        <ele>2472.8000488281</ele>
        <time>2014-02-12T10:19:48.000Z</time>
      </trkpt>
      <trkpt lat="45.90904" lon="6.50837">
        <ele>2472.8000488281</ele>
        <time>2014-02-12T10:19:50.000Z</time>
      </trkpt>
      <trkpt lat="45.90904" lon="6.50837">
        <ele>2472.8000488281</ele>
        <time>2014-02-12T10:19:51.000Z</time>
      </trkpt>
      <trkpt lat="45.90904" lon="6.50837">
        <ele>2472.8000488281</ele>
        <time>2014-02-12T10:19:52.000Z</time>
      </trkpt>
      <trkpt lat="45.90904" lon="6.50837">
        <ele>2472.8000488281</ele>
        <time>2014-02-12T10:19:53.000Z</time>
      </trkpt>
      <trkpt lat="45.90904" lon="6.50837">
        <ele>2472.8000488281</ele>
        <time>2014-02-12T10:19:54.000Z</time>
      </trkpt>
      <trkpt lat="45.90904" lon="6.50838">
        <ele>2473</ele>
        <time>2014-02-12T10:20:00.000Z</time>
      </trkpt>
      <trkpt lat="45.90904" lon="6.50838">
        <ele>2473</ele>
        <time>2014-02-12T10:20:04.000Z</time>
      </trkpt>
      <trkpt lat="45.90904" lon="6.50838">
        <ele>2473</ele>
        <time>2014-02-12T10:20:10.000Z</time>
      </trkpt>
      <trkpt lat="45.90904" lon="6.50838">
        <ele>2473</ele>
        <time>2014-02-12T10:20:11.000Z</time>
      </trkpt>
      <trkpt lat="45.90904" lon="6.50838">
        <ele>2473</ele>
        <time>2014-02-12T10:20:12.000Z</time>
      </trkpt>
      <trkpt lat="45.90904" lon="6.50838">
        <ele>2473</ele>
        <time>2014-02-12T10:20:13.000Z</time>
      </trkpt>
      <trkpt lat="45.90904" lon="6.50838">
        <ele>2473</ele>
        <time>2014-02-12T10:20:14.000Z</time>
      </trkpt>
      <trkpt lat="45.90904" lon="6.50838">
        <ele>2473</ele>
        <time>2014-02-12T10:20:15.000Z</time>
      </trkpt>
      <trkpt lat="45.90904" lon="6.50838">
        <ele>2473</ele>
        <time>2014-02-12T10:20:16.000Z</time>
      </trkpt>
      <trkpt lat="45.90904" lon="6.50838">
        <ele>2473</ele>
        <time>2014-02-12T10:20:18.000Z</time>
      </trkpt>
      <trkpt lat="45.90904" lon="6.50838">
        <ele>2473</ele>
        <time>2014-02-12T10:20:19.000Z</time>
      </trkpt>
      <trkpt lat="45.90904" lon="6.50838">
        <ele>2473</ele>
        <time>2014-02-12T10:20:22.000Z</time>
      </trkpt>
      <trkpt lat="45.90904" lon="6.50838">
        <ele>2473</ele>
        <time>2014-02-12T10:20:25.000Z</time>
      </trkpt>
      <trkpt lat="45.90904" lon="6.50838">
        <ele>2473</ele>
        <time>2014-02-12T10:20:26.000Z</time>
      </trkpt>
      <trkpt lat="45.90904" lon="6.50838">
        <ele>2473</ele>
        <time>2014-02-12T10:20:27.000Z</time>
      </trkpt>
      <trkpt lat="45.90904" lon="6.50838">
        <ele>2473</ele>
        <time>2014-02-12T10:20:28.000Z</time>
      </trkpt>
      <trkpt lat="45.90904" lon="6.50838">
        <ele>2473</ele>
        <time>2014-02-12T10:20:29.000Z</time>
      </trkpt>
      <trkpt lat="45.90904" lon="6.50838">
        <ele>2473</ele>
        <time>2014-02-12T10:20:30.000Z</time>
      </trkpt>
      <trkpt lat="45.90904" lon="6.50838">
        <ele>2473</ele>
        <time>2014-02-12T10:20:31.000Z</time>
      </trkpt>
      <trkpt lat="45.90904" lon="6.50838">
        <ele>2473</ele>
        <time>2014-02-12T10:20:32.000Z</time>
      </trkpt>
      <trkpt lat="45.90904" lon="6.50838">
        <ele>2473</ele>
        <time>2014-02-12T10:20:33.000Z</time>
      </trkpt>
      <trkpt lat="45.90904" lon="6.50838">
        <ele>2473</ele>
        <time>2014-02-12T10:20:34.000Z</time>
      </trkpt>
      <trkpt lat="45.90904" lon="6.50838">
        <ele>2473</ele>
        <time>2014-02-12T10:20:35.000Z</time>
      </trkpt>
      <trkpt lat="45.90904" lon="6.50838">
        <ele>2473</ele>
        <time>2014-02-12T10:20:36.000Z</time>
      </trkpt>
      <trkpt lat="45.90904" lon="6.50838">
        <ele>2473</ele>
        <time>2014-02-12T10:20:37.000Z</time>
      </trkpt>
      <trkpt lat="45.90904" lon="6.50838">
        <ele>2473</ele>
        <time>2014-02-12T10:20:38.000Z</time>
      </trkpt>
      <trkpt lat="45.90904" lon="6.50838">
        <ele>2473</ele>
        <time>2014-02-12T10:20:39.000Z</time>
      </trkpt>
      <trkpt lat="45.90904" lon="6.50838">
        <ele>2473</ele>
        <time>2014-02-12T10:20:40.000Z</time>
      </trkpt>
      <trkpt lat="45.90904" lon="6.50838">
        <ele>2473</ele>
        <time>2014-02-12T10:20:41.000Z</time>
      </trkpt>
      <trkpt lat="45.90904" lon="6.50838">
        <ele>2473</ele>
        <time>2014-02-12T10:20:42.000Z</time>
      </trkpt>
      <trkpt lat="45.90904" lon="6.50838">
        <ele>2473</ele>
        <time>2014-02-12T10:20:43.000Z</time>
      </trkpt>
      <trkpt lat="45.90904" lon="6.50838">
        <ele>2473</ele>
        <time>2014-02-12T10:20:44.000Z</time>
      </trkpt>
      <trkpt lat="45.90904" lon="6.50838">
        <ele>2473</ele>
        <time>2014-02-12T10:20:45.000Z</time>
      </trkpt>
      <trkpt lat="45.90904" lon="6.50838">
        <ele>2473</ele>
        <time>2014-02-12T10:20:46.000Z</time>
      </trkpt>
      <trkpt lat="45.90904" lon="6.50838">
        <ele>2473</ele>
        <time>2014-02-12T10:20:47.000Z</time>
      </trkpt>
      <trkpt lat="45.90904" lon="6.50838">
        <ele>2473</ele>
        <time>2014-02-12T10:20:49.000Z</time>
      </trkpt>
      <trkpt lat="45.90904" lon="6.50838">
        <ele>2473</ele>
        <time>2014-02-12T10:20:50.000Z</time>
      </trkpt>
      <trkpt lat="45.90904" lon="6.50838">
        <ele>2473</ele>
        <time>2014-02-12T10:20:51.000Z</time>
      </trkpt>
      <trkpt lat="45.90904" lon="6.50838">
        <ele>2473</ele>
        <time>2014-02-12T10:20:52.000Z</time>
      </trkpt>
      <trkpt lat="45.90904" lon="6.50838">
        <ele>2473</ele>
        <time>2014-02-12T10:20:53.000Z</time>
      </trkpt>
      <trkpt lat="45.90904" lon="6.50838">
        <ele>2473</ele>
        <time>2014-02-12T10:20:54.000Z</time>
      </trkpt>
      <trkpt lat="45.90904" lon="6.50838">
        <ele>2473</ele>
        <time>2014-02-12T10:20:55.000Z</time>
      </trkpt>
      <trkpt lat="45.90904" lon="6.50838">
        <ele>2473</ele>
        <time>2014-02-12T10:20:56.000Z</time>
      </trkpt>
      <trkpt lat="45.90904" lon="6.50838">
        <ele>2473</ele>
        <time>2014-02-12T10:20:57.000Z</time>
      </trkpt>
      <trkpt lat="45.90904" lon="6.50838">
        <ele>2473</ele>
        <time>2014-02-12T10:20:58.000Z</time>
      </trkpt>
      <trkpt lat="45.90904" lon="6.50838">
        <ele>2473</ele>
        <time>2014-02-12T10:21:00.000Z</time>
      </trkpt>
      <trkpt lat="45.90904" lon="6.50838">
        <ele>2473</ele>
        <time>2014-02-12T10:21:01.000Z</time>
      </trkpt>
      <trkpt lat="45.90904" lon="6.50838">
        <ele>2473</ele>
        <time>2014-02-12T10:21:02.000Z</time>
      </trkpt>
      <trkpt lat="45.90904" lon="6.50838">
        <ele>2473</ele>
        <time>2014-02-12T10:21:03.000Z</time>
      </trkpt>
      <trkpt lat="45.90904" lon="6.50838">
        <ele>2473</ele>
        <time>2014-02-12T10:21:05.000Z</time>
      </trkpt>
      <trkpt lat="45.90904" lon="6.50838">
        <ele>2473</ele>
        <time>2014-02-12T10:21:06.000Z</time>
      </trkpt>
      <trkpt lat="45.90904" lon="6.50838">
        <ele>2473</ele>
        <time>2014-02-12T10:21:07.000Z</time>
      </trkpt>
      <trkpt lat="45.90904" lon="6.50838">
        <ele>2473</ele>
        <time>2014-02-12T10:21:08.000Z</time>
      </trkpt>
      <trkpt lat="45.90904" lon="6.50838">
        <ele>2473</ele>
        <time>2014-02-12T10:21:09.000Z</time>
      </trkpt>
      <trkpt lat="45.90904" lon="6.50838">
        <ele>2473</ele>
        <time>2014-02-12T10:21:10.000Z</time>
      </trkpt>
      <trkpt lat="45.90904" lon="6.50838">
        <ele>2473</ele>
        <time>2014-02-12T10:21:11.000Z</time>
      </trkpt>
      <trkpt lat="45.90904" lon="6.50838">
        <ele>2473</ele>
        <time>2014-02-12T10:21:13.000Z</time>
      </trkpt>
      <trkpt lat="45.90904" lon="6.50838">
        <ele>2473</ele>
        <time>2014-02-12T10:21:14.000Z</time>
      </trkpt>
      <trkpt lat="45.90904" lon="6.50838">
        <ele>2473</ele>
        <time>2014-02-12T10:21:15.000Z</time>
      </trkpt>
      <trkpt lat="45.90904" lon="6.50838">
        <ele>2473</ele>
        <time>2014-02-12T10:21:16.000Z</time>
      </trkpt>
      <trkpt lat="45.90904" lon="6.50838">
        <ele>2473</ele>
        <time>2014-02-12T10:21:17.000Z</time>
      </trkpt>
      <trkpt lat="45.90904" lon="6.50838">
        <ele>2473</ele>
        <time>2014-02-12T10:21:18.000Z</time>
      </trkpt>
      <trkpt lat="45.90904" lon="6.50838">
        <ele>2473</ele>
        <time>2014-02-12T10:21:19.000Z</time>
      </trkpt>
      <trkpt lat="45.90904" lon="6.50838">
        <ele>2473</ele>
        <time>2014-02-12T10:21:20.000Z</time>
      </trkpt>
      <trkpt lat="45.90904" lon="6.50838">
        <ele>2473</ele>
        <time>2014-02-12T10:21:21.000Z</time>
      </trkpt>
      <trkpt lat="45.90904" lon="6.50838">
        <ele>2473</ele>
        <time>2014-02-12T10:21:22.000Z</time>
      </trkpt>
      <trkpt lat="45.90904" lon="6.50838">
        <ele>2473</ele>
        <time>2014-02-12T10:21:24.000Z</time>
      </trkpt>
      <trkpt lat="45.90904" lon="6.50838">
        <ele>2473</ele>
        <time>2014-02-12T10:21:25.000Z</time>
      </trkpt>
      <trkpt lat="45.90904" lon="6.50838">
        <ele>2473</ele>
        <time>2014-02-12T10:21:26.000Z</time>
      </trkpt>
      <trkpt lat="45.90904" lon="6.50838">
        <ele>2473</ele>
        <time>2014-02-12T10:21:27.000Z</time>
      </trkpt>
      <trkpt lat="45.90904" lon="6.50838">
        <ele>2473</ele>
        <time>2014-02-12T10:21:28.000Z</time>
      </trkpt>
      <trkpt lat="45.90904" lon="6.50838">
        <ele>2473</ele>
        <time>2014-02-12T10:21:29.000Z</time>
      </trkpt>
      <trkpt lat="45.90904" lon="6.50838">
        <ele>2473</ele>
        <time>2014-02-12T10:21:30.000Z</time>
      </trkpt>
      <trkpt lat="45.90904" lon="6.50838">
        <ele>2473</ele>
        <time>2014-02-12T10:21:31.000Z</time>
      </trkpt>
      <trkpt lat="45.90904" lon="6.50838">
        <ele>2473</ele>
        <time>2014-02-12T10:21:32.000Z</time>
      </trkpt>
      <trkpt lat="45.90904" lon="6.50838">
        <ele>2473</ele>
        <time>2014-02-12T10:21:33.000Z</time>
      </trkpt>
      <trkpt lat="45.90904" lon="6.50838">
        <ele>2473</ele>
        <time>2014-02-12T10:21:34.000Z</time>
      </trkpt>
      <trkpt lat="45.90904" lon="6.50838">
        <ele>2473</ele>
        <time>2014-02-12T10:21:37.000Z</time>
      </trkpt>
      <trkpt lat="45.90904" lon="6.50838">
        <ele>2473</ele>
        <time>2014-02-12T10:21:38.000Z</time>
      </trkpt>
      <trkpt lat="45.90904" lon="6.50838">
        <ele>2473</ele>
        <time>2014-02-12T10:21:39.000Z</time>
      </trkpt>
      <trkpt lat="45.90904" lon="6.50838">
        <ele>2473</ele>
        <time>2014-02-12T10:21:40.000Z</time>
      </trkpt>
      <trkpt lat="45.90904" lon="6.50838">
        <ele>2473</ele>
        <time>2014-02-12T10:21:41.000Z</time>
      </trkpt>
      <trkpt lat="45.90904" lon="6.50838">
        <ele>2473</ele>
        <time>2014-02-12T10:21:42.000Z</time>
      </trkpt>
      <trkpt lat="45.90904" lon="6.50838">
        <ele>2473</ele>
        <time>2014-02-12T10:21:43.000Z</time>
      </trkpt>
      <trkpt lat="45.90904" lon="6.50838">
        <ele>2473</ele>
        <time>2014-02-12T10:21:44.000Z</time>
      </trkpt>
      <trkpt lat="45.90904" lon="6.50838">
        <ele>2473</ele>
        <time>2014-02-12T10:21:46.000Z</time>
      </trkpt>
      <trkpt lat="45.90904" lon="6.50838">
        <ele>2473</ele>
        <time>2014-02-12T10:21:47.000Z</time>
      </trkpt>
      <trkpt lat="45.90904" lon="6.50838">
        <ele>2473</ele>
        <time>2014-02-12T10:21:48.000Z</time>
      </trkpt>
      <trkpt lat="45.90904" lon="6.50838">
        <ele>2473</ele>
        <time>2014-02-12T10:21:49.000Z</time>
      </trkpt>
      <trkpt lat="45.90904" lon="6.50838">
        <ele>2473</ele>
        <time>2014-02-12T10:21:50.000Z</time>
      </trkpt>
      <trkpt lat="45.90904" lon="6.50838">
        <ele>2473</ele>
        <time>2014-02-12T10:21:52.000Z</time>
      </trkpt>
      <trkpt lat="45.90904" lon="6.50838">
        <ele>2473</ele>
        <time>2014-02-12T10:21:53.000Z</time>
      </trkpt>
      <trkpt lat="45.90904" lon="6.50838">
        <ele>2473</ele>
        <time>2014-02-12T10:21:54.000Z</time>
      </trkpt>
      <trkpt lat="45.90904" lon="6.50838">
        <ele>2473</ele>
        <time>2014-02-12T10:21:55.000Z</time>
      </trkpt>
      <trkpt lat="45.90904" lon="6.50838">
        <ele>2473</ele>
        <time>2014-02-12T10:21:56.000Z</time>
      </trkpt>
      <trkpt lat="45.90904" lon="6.50838">
        <ele>2473</ele>
        <time>2014-02-12T10:21:57.000Z</time>
      </trkpt>
      <trkpt lat="45.90904" lon="6.50838">
        <ele>2473</ele>
        <time>2014-02-12T10:21:58.000Z</time>
      </trkpt>
      <trkpt lat="45.90904" lon="6.50838">
        <ele>2473</ele>
        <time>2014-02-12T10:21:59.000Z</time>
      </trkpt>
      <trkpt lat="45.90904" lon="6.50838">
        <ele>2473</ele>
        <time>2014-02-12T10:22:00.000Z</time>
      </trkpt>
      <trkpt lat="45.90904" lon="6.50838">
        <ele>2473</ele>
        <time>2014-02-12T10:22:01.000Z</time>
      </trkpt>
      <trkpt lat="45.90904" lon="6.50838">
        <ele>2473</ele>
        <time>2014-02-12T10:22:02.000Z</time>
      </trkpt>
      <trkpt lat="45.90904" lon="6.50838">
        <ele>2473</ele>
        <time>2014-02-12T10:22:03.000Z</time>
      </trkpt>
      <trkpt lat="45.90904" lon="6.50838">
        <ele>2473</ele>
        <time>2014-02-12T10:22:04.000Z</time>
      </trkpt>
      <trkpt lat="45.90904" lon="6.50838">
        <ele>2473</ele>
        <time>2014-02-12T10:22:05.000Z</time>
      </trkpt>
      <trkpt lat="45.90904" lon="6.50838">
        <ele>2473</ele>
        <time>2014-02-12T10:22:08.000Z</time>
      </trkpt>
      <trkpt lat="45.90904" lon="6.50838">
        <ele>2473</ele>
        <time>2014-02-12T10:22:10.000Z</time>
      </trkpt>
      <trkpt lat="45.90904" lon="6.50838">
        <ele>2473</ele>
        <time>2014-02-12T10:22:11.000Z</time>
      </trkpt>
      <trkpt lat="45.90904" lon="6.50838">
        <ele>2473</ele>
        <time>2014-02-12T10:22:12.000Z</time>
      </trkpt>
      <trkpt lat="45.90904" lon="6.50838">
        <ele>2473</ele>
        <time>2014-02-12T10:22:14.000Z</time>
      </trkpt>
      <trkpt lat="45.90904" lon="6.50838">
        <ele>2473</ele>
        <time>2014-02-12T10:22:15.000Z</time>
      </trkpt>
      <trkpt lat="45.90904" lon="6.50838">
        <ele>2473</ele>
        <time>2014-02-12T10:22:16.000Z</time>
      </trkpt>
      <trkpt lat="45.90904" lon="6.50838">
        <ele>2473</ele>
        <time>2014-02-12T10:22:17.000Z</time>
      </trkpt>
      <trkpt lat="45.90904" lon="6.50838">
        <ele>2473</ele>
        <time>2014-02-12T10:22:18.000Z</time>
      </trkpt>
      <trkpt lat="45.90904" lon="6.50838">
        <ele>2473</ele>
        <time>2014-02-12T10:22:19.000Z</time>
      </trkpt>
      <trkpt lat="45.90904" lon="6.50838">
        <ele>2473</ele>
        <time>2014-02-12T10:22:20.000Z</time>
      </trkpt>
      <trkpt lat="45.90904" lon="6.50838">
        <ele>2473</ele>
        <time>2014-02-12T10:22:21.000Z</time>
      </trkpt>
      <trkpt lat="45.90904" lon="6.50838">
        <ele>2473</ele>
        <time>2014-02-12T10:22:22.000Z</time>
      </trkpt>
      <trkpt lat="45.90904" lon="6.50838">
        <ele>2473</ele>
        <time>2014-02-12T10:22:23.000Z</time>
      </trkpt>
      <trkpt lat="45.90904" lon="6.50838">
        <ele>2473</ele>
        <time>2014-02-12T10:22:24.000Z</time>
      </trkpt>
      <trkpt lat="45.90904" lon="6.50838">
        <ele>2473</ele>
        <time>2014-02-12T10:22:25.000Z</time>
      </trkpt>
      <trkpt lat="45.90904" lon="6.50838">
        <ele>2473</ele>
        <time>2014-02-12T10:22:26.000Z</time>
      </trkpt>
      <trkpt lat="45.90904" lon="6.50838">
        <ele>2473</ele>
        <time>2014-02-12T10:22:27.000Z</time>
      </trkpt>
      <trkpt lat="45.90904" lon="6.50838">
        <ele>2473</ele>
        <time>2014-02-12T10:22:28.000Z</time>
      </trkpt>
      <trkpt lat="45.90904" lon="6.50838">
        <ele>2473</ele>
        <time>2014-02-12T10:22:29.000Z</time>
      </trkpt>
      <trkpt lat="45.90904" lon="6.50838">
        <ele>2473</ele>
        <time>2014-02-12T10:22:30.000Z</time>
      </trkpt>
      <trkpt lat="45.90904" lon="6.50838">
        <ele>2473</ele>
        <time>2014-02-12T10:22:31.000Z</time>
      </trkpt>
      <trkpt lat="45.90904" lon="6.50838">
        <ele>2473</ele>
        <time>2014-02-12T10:22:32.000Z</time>
      </trkpt>
      <trkpt lat="45.90904" lon="6.50838">
        <ele>2473</ele>
        <time>2014-02-12T10:22:33.000Z</time>
      </trkpt>
      <trkpt lat="45.90904" lon="6.50838">
        <ele>2473</ele>
        <time>2014-02-12T10:22:34.000Z</time>
      </trkpt>
      <trkpt lat="45.90904" lon="6.50838">
        <ele>2473</ele>
        <time>2014-02-12T10:22:35.000Z</time>
      </trkpt>
      <trkpt lat="45.90904" lon="6.50838">
        <ele>2473</ele>
        <time>2014-02-12T10:22:36.000Z</time>
      </trkpt>
      <trkpt lat="45.90904" lon="6.50838">
        <ele>2473</ele>
        <time>2014-02-12T10:22:37.000Z</time>
      </trkpt>
      <trkpt lat="45.90904" lon="6.50838">
        <ele>2473</ele>
        <time>2014-02-12T10:22:38.000Z</time>
      </trkpt>
      <trkpt lat="45.90904" lon="6.50838">
        <ele>2473</ele>
        <time>2014-02-12T10:22:39.000Z</time>
      </trkpt>
      <trkpt lat="45.90904" lon="6.50838">
        <ele>2473</ele>
        <time>2014-02-12T10:22:40.000Z</time>
      </trkpt>
      <trkpt lat="45.90904" lon="6.50838">
        <ele>2473</ele>
        <time>2014-02-12T10:22:41.000Z</time>
      </trkpt>
      <trkpt lat="45.90904" lon="6.50838">
        <ele>2473</ele>
        <time>2014-02-12T10:22:42.000Z</time>
      </trkpt>
      <trkpt lat="45.90904" lon="6.50838">
        <ele>2473</ele>
        <time>2014-02-12T10:22:44.000Z</time>
      </trkpt>
      <trkpt lat="45.90904" lon="6.50838">
        <ele>2473</ele>
        <time>2014-02-12T10:22:45.000Z</time>
      </trkpt>
      <trkpt lat="45.90904" lon="6.50838">
        <ele>2473</ele>
        <time>2014-02-12T10:22:46.000Z</time>
      </trkpt>
      <trkpt lat="45.90904" lon="6.50838">
        <ele>2473</ele>
        <time>2014-02-12T10:22:47.000Z</time>
      </trkpt>
      <trkpt lat="45.90904" lon="6.50838">
        <ele>2473</ele>
        <time>2014-02-12T10:22:48.000Z</time>
      </trkpt>
      <trkpt lat="45.90904" lon="6.50838">
        <ele>2473</ele>
        <time>2014-02-12T10:22:52.000Z</time>
      </trkpt>
      <trkpt lat="45.90904" lon="6.50838">
        <ele>2473</ele>
        <time>2014-02-12T10:22:53.000Z</time>
      </trkpt>
      <trkpt lat="45.90904" lon="6.50838">
        <ele>2473</ele>
        <time>2014-02-12T10:22:54.000Z</time>
      </trkpt>
      <trkpt lat="45.90904" lon="6.50838">
        <ele>2473</ele>
        <time>2014-02-12T10:22:55.000Z</time>
      </trkpt>
      <trkpt lat="45.90904" lon="6.50838">
        <ele>2473</ele>
        <time>2014-02-12T10:22:56.000Z</time>
      </trkpt>
      <trkpt lat="45.90904" lon="6.50838">
        <ele>2473</ele>
        <time>2014-02-12T10:22:57.000Z</time>
      </trkpt>
      <trkpt lat="45.90904" lon="6.50838">
        <ele>2473</ele>
        <time>2014-02-12T10:22:58.000Z</time>
      </trkpt>
      <trkpt lat="45.90904" lon="6.50838">
        <ele>2473</ele>
        <time>2014-02-12T10:22:59.000Z</time>
      </trkpt>
      <trkpt lat="45.90904" lon="6.50838">
        <ele>2473</ele>
        <time>2014-02-12T10:23:00.000Z</time>
      </trkpt>
      <trkpt lat="45.90904" lon="6.50838">
        <ele>2473</ele>
        <time>2014-02-12T10:23:01.000Z</time>
      </trkpt>
      <trkpt lat="45.90904" lon="6.50838">
        <ele>2473</ele>
        <time>2014-02-12T10:23:02.000Z</time>
      </trkpt>
      <trkpt lat="45.90904" lon="6.50838">
        <ele>2473</ele>
        <time>2014-02-12T10:23:03.000Z</time>
      </trkpt>
      <trkpt lat="45.90904" lon="6.50838">
        <ele>2473</ele>
        <time>2014-02-12T10:23:04.000Z</time>
      </trkpt>
      <trkpt lat="45.90904" lon="6.50838">
        <ele>2473</ele>
        <time>2014-02-12T10:23:05.000Z</time>
      </trkpt>
      <trkpt lat="45.90904" lon="6.50838">
        <ele>2473</ele>
        <time>2014-02-12T10:23:06.000Z</time>
      </trkpt>
      <trkpt lat="45.90904" lon="6.50838">
        <ele>2473</ele>
        <time>2014-02-12T10:23:07.000Z</time>
      </trkpt>
      <trkpt lat="45.90904" lon="6.50838">
        <ele>2473</ele>
        <time>2014-02-12T10:23:08.000Z</time>
      </trkpt>
      <trkpt lat="45.90904" lon="6.50838">
        <ele>2473</ele>
        <time>2014-02-12T10:23:09.000Z</time>
      </trkpt>
      <trkpt lat="45.90904" lon="6.50838">
        <ele>2473</ele>
        <time>2014-02-12T10:23:10.000Z</time>
      </trkpt>
      <trkpt lat="45.90904" lon="6.50838">
        <ele>2473</ele>
        <time>2014-02-12T10:23:11.000Z</time>
      </trkpt>
      <trkpt lat="45.90904" lon="6.50838">
        <ele>2473</ele>
        <time>2014-02-12T10:23:12.000Z</time>
      </trkpt>
      <trkpt lat="45.90904" lon="6.50838">
        <ele>2473</ele>
        <time>2014-02-12T10:23:13.000Z</time>
      </trkpt>
      <trkpt lat="45.90904" lon="6.50838">
        <ele>2473</ele>
        <time>2014-02-12T10:23:14.000Z</time>
      </trkpt>
      <trkpt lat="45.90904" lon="6.50838">
        <ele>2473</ele>
        <time>2014-02-12T10:23:15.000Z</time>
      </trkpt>
      <trkpt lat="45.90904" lon="6.50838">
        <ele>2473</ele>
        <time>2014-02-12T10:23:16.000Z</time>
      </trkpt>
      <trkpt lat="45.90904" lon="6.50838">
        <ele>2473</ele>
        <time>2014-02-12T10:23:17.000Z</time>
      </trkpt>
      <trkpt lat="45.90904" lon="6.50838">
        <ele>2473</ele>
        <time>2014-02-12T10:23:18.000Z</time>
      </trkpt>
      <trkpt lat="45.90904" lon="6.50838">
        <ele>2473</ele>
        <time>2014-02-12T10:23:19.000Z</time>
      </trkpt>
      <trkpt lat="45.90904" lon="6.50838">
        <ele>2473</ele>
        <time>2014-02-12T10:23:20.000Z</time>
      </trkpt>
      <trkpt lat="45.90904" lon="6.50838">
        <ele>2473</ele>
        <time>2014-02-12T10:23:21.000Z</time>
      </trkpt>
      <trkpt lat="45.90904" lon="6.50838">
        <ele>2473</ele>
        <time>2014-02-12T10:23:22.000Z</time>
      </trkpt>
      <trkpt lat="45.90904" lon="6.50838">
        <ele>2473</ele>
        <time>2014-02-12T10:23:23.000Z</time>
      </trkpt>
      <trkpt lat="45.90904" lon="6.50838">
        <ele>2473</ele>
        <time>2014-02-12T10:23:24.000Z</time>
      </trkpt>
      <trkpt lat="45.90904" lon="6.50838">
        <ele>2473</ele>
        <time>2014-02-12T10:23:25.000Z</time>
      </trkpt>
      <trkpt lat="45.90904" lon="6.50838">
        <ele>2473</ele>
        <time>2014-02-12T10:23:26.000Z</time>
      </trkpt>
      <trkpt lat="45.90904" lon="6.50838">
        <ele>2473</ele>
        <time>2014-02-12T10:23:27.000Z</time>
      </trkpt>
      <trkpt lat="45.90904" lon="6.50838">
        <ele>2473</ele>
        <time>2014-02-12T10:23:28.000Z</time>
      </trkpt>
      <trkpt lat="45.90904" lon="6.50838">
        <ele>2473</ele>
        <time>2014-02-12T10:23:29.000Z</time>
      </trkpt>
      <trkpt lat="45.90904" lon="6.50838">
        <ele>2473</ele>
        <time>2014-02-12T10:23:30.000Z</time>
      </trkpt>
      <trkpt lat="45.90904" lon="6.50838">
        <ele>2473</ele>
        <time>2014-02-12T10:23:31.000Z</time>
      </trkpt>
      <trkpt lat="45.90904" lon="6.50838">
        <ele>2473</ele>
        <time>2014-02-12T10:23:32.000Z</time>
      </trkpt>
      <trkpt lat="45.90904" lon="6.50838">
        <ele>2473</ele>
        <time>2014-02-12T10:23:33.000Z</time>
      </trkpt>
      <trkpt lat="45.90904" lon="6.50838">
        <ele>2473</ele>
        <time>2014-02-12T10:23:34.000Z</time>
      </trkpt>
      <trkpt lat="45.90904" lon="6.50838">
        <ele>2473</ele>
        <time>2014-02-12T10:23:35.000Z</time>
      </trkpt>
      <trkpt lat="45.90904" lon="6.50838">
        <ele>2473</ele>
        <time>2014-02-12T10:23:36.000Z</time>
      </trkpt>
      <trkpt lat="45.90904" lon="6.50838">
        <ele>2473</ele>
        <time>2014-02-12T10:23:37.000Z</time>
      </trkpt>
      <trkpt lat="45.90904" lon="6.50838">
        <ele>2473</ele>
        <time>2014-02-12T10:23:38.000Z</time>
      </trkpt>
      <trkpt lat="45.90904" lon="6.50838">
        <ele>2473</ele>
        <time>2014-02-12T10:23:39.000Z</time>
      </trkpt>
      <trkpt lat="45.90904" lon="6.50838">
        <ele>2473</ele>
        <time>2014-02-12T10:23:40.000Z</time>
      </trkpt>
      <trkpt lat="45.90904" lon="6.50838">
        <ele>2473</ele>
        <time>2014-02-12T10:23:41.000Z</time>
      </trkpt>
      <trkpt lat="45.90904" lon="6.50838">
        <ele>2473</ele>
        <time>2014-02-12T10:23:42.000Z</time>
      </trkpt>
      <trkpt lat="45.90904" lon="6.50838">
        <ele>2473</ele>
        <time>2014-02-12T10:23:43.000Z</time>
      </trkpt>
      <trkpt lat="45.90904" lon="6.50838">
        <ele>2473</ele>
        <time>2014-02-12T10:23:44.000Z</time>
      </trkpt>
      <trkpt lat="45.90904" lon="6.50838">
        <ele>2473</ele>
        <time>2014-02-12T10:23:45.000Z</time>
      </trkpt>
      <trkpt lat="45.90904" lon="6.50838">
        <ele>2473</ele>
        <time>2014-02-12T10:23:46.000Z</time>
      </trkpt>
      <trkpt lat="45.90904" lon="6.50838">
        <ele>2473</ele>
        <time>2014-02-12T10:23:47.000Z</time>
      </trkpt>
      <trkpt lat="45.90904" lon="6.50838">
        <ele>2473</ele>
        <time>2014-02-12T10:23:48.000Z</time>
      </trkpt>
      <trkpt lat="45.90904" lon="6.50838">
        <ele>2473</ele>
        <time>2014-02-12T10:23:49.000Z</time>
      </trkpt>
      <trkpt lat="45.90904" lon="6.50838">
        <ele>2473</ele>
        <time>2014-02-12T10:23:50.000Z</time>
      </trkpt>
      <trkpt lat="45.90904" lon="6.50838">
        <ele>2473</ele>
        <time>2014-02-12T10:23:51.000Z</time>
      </trkpt>
      <trkpt lat="45.90904" lon="6.50838">
        <ele>2473</ele>
        <time>2014-02-12T10:23:52.000Z</time>
      </trkpt>
      <trkpt lat="45.90904" lon="6.50838">
        <ele>2473</ele>
        <time>2014-02-12T10:23:53.000Z</time>
      </trkpt>
      <trkpt lat="45.90904" lon="6.50838">
        <ele>2473</ele>
        <time>2014-02-12T10:23:54.000Z</time>
      </trkpt>
      <trkpt lat="45.90904" lon="6.50838">
        <ele>2473</ele>
        <time>2014-02-12T10:23:56.000Z</time>
      </trkpt>
      <trkpt lat="45.90904" lon="6.50838">
        <ele>2473</ele>
        <time>2014-02-12T10:23:57.000Z</time>
      </trkpt>
      <trkpt lat="45.90904" lon="6.50838">
        <ele>2473</ele>
        <time>2014-02-12T10:23:59.000Z</time>
      </trkpt>
      <trkpt lat="45.90904" lon="6.50838">
        <ele>2473</ele>
        <time>2014-02-12T10:24:00.000Z</time>
      </trkpt>
      <trkpt lat="45.90904" lon="6.50838">
        <ele>2473</ele>
        <time>2014-02-12T10:24:01.000Z</time>
      </trkpt>
      <trkpt lat="45.90904" lon="6.50838">
        <ele>2473</ele>
        <time>2014-02-12T10:24:02.000Z</time>
      </trkpt>
      <trkpt lat="45.90904" lon="6.50838">
        <ele>2473</ele>
        <time>2014-02-12T10:24:03.000Z</time>
      </trkpt>
      <trkpt lat="45.90904" lon="6.50838">
        <ele>2473</ele>
        <time>2014-02-12T10:24:04.000Z</time>
      </trkpt>
      <trkpt lat="45.90904" lon="6.50838">
        <ele>2473</ele>
        <time>2014-02-12T10:24:05.000Z</time>
      </trkpt>
      <trkpt lat="45.90904" lon="6.50838">
        <ele>2473</ele>
        <time>2014-02-12T10:24:06.000Z</time>
      </trkpt>
      <trkpt lat="45.90904" lon="6.50838">
        <ele>2473</ele>
        <time>2014-02-12T10:24:07.000Z</time>
      </trkpt>
      <trkpt lat="45.90904" lon="6.50838">
        <ele>2473</ele>
        <time>2014-02-12T10:24:08.000Z</time>
      </trkpt>
      <trkpt lat="45.90904" lon="6.50838">
        <ele>2473</ele>
        <time>2014-02-12T10:24:09.000Z</time>
      </trkpt>
      <trkpt lat="45.90904" lon="6.50838">
        <ele>2473</ele>
        <time>2014-02-12T10:24:10.000Z</time>
      </trkpt>
      <trkpt lat="45.90904" lon="6.50838">
        <ele>2473</ele>
        <time>2014-02-12T10:24:11.000Z</time>
      </trkpt>
      <trkpt lat="45.90904" lon="6.50838">
        <ele>2473</ele>
        <time>2014-02-12T10:24:12.000Z</time>
      </trkpt>
      <trkpt lat="45.90904" lon="6.50838">
        <ele>2473</ele>
        <time>2014-02-12T10:24:13.000Z</time>
      </trkpt>
      <trkpt lat="45.90904" lon="6.50838">
        <ele>2473</ele>
        <time>2014-02-12T10:24:14.000Z</time>
      </trkpt>
      <trkpt lat="45.90904" lon="6.50838">
        <ele>2473</ele>
        <time>2014-02-12T10:24:17.000Z</time>
      </trkpt>
      <trkpt lat="45.90904" lon="6.50838">
        <ele>2473</ele>
        <time>2014-02-12T10:24:18.000Z</time>
      </trkpt>
      <trkpt lat="45.90904" lon="6.50838">
        <ele>2473</ele>
        <time>2014-02-12T10:24:21.000Z</time>
      </trkpt>
      <trkpt lat="45.90904" lon="6.50838">
        <ele>2473</ele>
        <time>2014-02-12T10:24:22.000Z</time>
      </trkpt>
      <trkpt lat="45.90904" lon="6.50838">
        <ele>2473</ele>
        <time>2014-02-12T10:24:23.000Z</time>
      </trkpt>
      <trkpt lat="45.90904" lon="6.50838">
        <ele>2473</ele>
        <time>2014-02-12T10:24:24.000Z</time>
      </trkpt>
      <trkpt lat="45.90904" lon="6.50838">
        <ele>2473</ele>
        <time>2014-02-12T10:24:25.000Z</time>
      </trkpt>
      <trkpt lat="45.90904" lon="6.50838">
        <ele>2473</ele>
        <time>2014-02-12T10:24:26.000Z</time>
      </trkpt>
      <trkpt lat="45.90904" lon="6.50838">
        <ele>2473</ele>
        <time>2014-02-12T10:24:27.000Z</time>
      </trkpt>
      <trkpt lat="45.90904" lon="6.50838">
        <ele>2473</ele>
        <time>2014-02-12T10:24:28.000Z</time>
      </trkpt>
      <trkpt lat="45.90904" lon="6.50838">
        <ele>2473</ele>
        <time>2014-02-12T10:24:29.000Z</time>
      </trkpt>
      <trkpt lat="45.90904" lon="6.50838">
        <ele>2473</ele>
        <time>2014-02-12T10:24:30.000Z</time>
      </trkpt>
      <trkpt lat="45.90904" lon="6.50838">
        <ele>2473</ele>
        <time>2014-02-12T10:24:31.000Z</time>
      </trkpt>
      <trkpt lat="45.90904" lon="6.50838">
        <ele>2473</ele>
        <time>2014-02-12T10:24:32.000Z</time>
      </trkpt>
      <trkpt lat="45.90904" lon="6.50838">
        <ele>2473</ele>
        <time>2014-02-12T10:24:34.000Z</time>
      </trkpt>
      <trkpt lat="45.90904" lon="6.50838">
        <ele>2473</ele>
        <time>2014-02-12T10:24:35.000Z</time>
      </trkpt>
      <trkpt lat="45.90904" lon="6.50838">
        <ele>2473</ele>
        <time>2014-02-12T10:24:36.000Z</time>
      </trkpt>
      <trkpt lat="45.90904" lon="6.50838">
        <ele>2473</ele>
        <time>2014-02-12T10:24:37.000Z</time>
      </trkpt>
      <trkpt lat="45.90904" lon="6.50838">
        <ele>2473</ele>
        <time>2014-02-12T10:24:38.000Z</time>
      </trkpt>
      <trkpt lat="45.90904" lon="6.50838">
        <ele>2473</ele>
        <time>2014-02-12T10:24:39.000Z</time>
      </trkpt>
      <trkpt lat="45.90904" lon="6.50838">
        <ele>2473</ele>
        <time>2014-02-12T10:24:40.000Z</time>
      </trkpt>
      <trkpt lat="45.90904" lon="6.50838">
        <ele>2473</ele>
        <time>2014-02-12T10:24:41.000Z</time>
      </trkpt>
      <trkpt lat="45.90904" lon="6.50838">
        <ele>2473</ele>
        <time>2014-02-12T10:24:42.000Z</time>
      </trkpt>
      <trkpt lat="45.90904" lon="6.50838">
        <ele>2473</ele>
        <time>2014-02-12T10:24:43.000Z</time>
      </trkpt>
      <trkpt lat="45.90904" lon="6.50838">
        <ele>2473</ele>
        <time>2014-02-12T10:24:45.000Z</time>
      </trkpt>
      <trkpt lat="45.90904" lon="6.50838">
        <ele>2473</ele>
        <time>2014-02-12T10:24:46.000Z</time>
      </trkpt>
      <trkpt lat="45.90904" lon="6.50838">
        <ele>2473</ele>
        <time>2014-02-12T10:24:47.000Z</time>
      </trkpt>
      <trkpt lat="45.90904" lon="6.50838">
        <ele>2473</ele>
        <time>2014-02-12T10:24:48.000Z</time>
      </trkpt>
      <trkpt lat="45.90904" lon="6.50838">
        <ele>2473</ele>
        <time>2014-02-12T10:24:49.000Z</time>
      </trkpt>
      <trkpt lat="45.90904" lon="6.50838">
        <ele>2473</ele>
        <time>2014-02-12T10:24:50.000Z</time>
      </trkpt>
      <trkpt lat="45.90904" lon="6.50838">
        <ele>2473</ele>
        <time>2014-02-12T10:24:51.000Z</time>
      </trkpt>
      <trkpt lat="45.90904" lon="6.50838">
        <ele>2473</ele>
        <time>2014-02-12T10:24:52.000Z</time>
      </trkpt>
      <trkpt lat="45.90904" lon="6.50838">
        <ele>2473</ele>
        <time>2014-02-12T10:24:53.000Z</time>
      </trkpt>
      <trkpt lat="45.90904" lon="6.50838">
        <ele>2473</ele>
        <time>2014-02-12T10:24:54.000Z</time>
      </trkpt>
      <trkpt lat="45.90904" lon="6.50838">
        <ele>2473</ele>
        <time>2014-02-12T10:24:56.000Z</time>
      </trkpt>
      <trkpt lat="45.90904" lon="6.50838">
        <ele>2473</ele>
        <time>2014-02-12T10:24:57.000Z</time>
      </trkpt>
      <trkpt lat="45.90904" lon="6.50838">
        <ele>2473</ele>
        <time>2014-02-12T10:24:58.000Z</time>
      </trkpt>
      <trkpt lat="45.90904" lon="6.50838">
        <ele>2473</ele>
        <time>2014-02-12T10:24:59.000Z</time>
      </trkpt>
      <trkpt lat="45.90904" lon="6.50838">
        <ele>2473</ele>
        <time>2014-02-12T10:25:00.000Z</time>
      </trkpt>
      <trkpt lat="45.90904" lon="6.50838">
        <ele>2473</ele>
        <time>2014-02-12T10:25:01.000Z</time>
      </trkpt>
      <trkpt lat="45.90904" lon="6.50838">
        <ele>2473</ele>
        <time>2014-02-12T10:25:02.000Z</time>
      </trkpt>
      <trkpt lat="45.90904" lon="6.50838">
        <ele>2473</ele>
        <time>2014-02-12T10:25:03.000Z</time>
      </trkpt>
      <trkpt lat="45.90904" lon="6.50838">
        <ele>2473</ele>
        <time>2014-02-12T10:25:04.000Z</time>
      </trkpt>
      <trkpt lat="45.90904" lon="6.50838">
        <ele>2473</ele>
        <time>2014-02-12T10:25:05.000Z</time>
      </trkpt>
      <trkpt lat="45.90904" lon="6.50838">
        <ele>2473</ele>
        <time>2014-02-12T10:25:06.000Z</time>
      </trkpt>
      <trkpt lat="45.90904" lon="6.50838">
        <ele>2473</ele>
        <time>2014-02-12T10:25:07.000Z</time>
      </trkpt>
      <trkpt lat="45.90904" lon="6.50838">
        <ele>2473</ele>
        <time>2014-02-12T10:25:08.000Z</time>
      </trkpt>
      <trkpt lat="45.90904" lon="6.50838">
        <ele>2473</ele>
        <time>2014-02-12T10:25:09.000Z</time>
      </trkpt>
      <trkpt lat="45.90904" lon="6.50838">
        <ele>2473</ele>
        <time>2014-02-12T10:25:10.000Z</time>
      </trkpt>
      <trkpt lat="45.90904" lon="6.50838">
        <ele>2473</ele>
        <time>2014-02-12T10:25:11.000Z</time>
      </trkpt>
      <trkpt lat="45.90904" lon="6.50838">
        <ele>2473</ele>
        <time>2014-02-12T10:25:12.000Z</time>
      </trkpt>
      <trkpt lat="45.90904" lon="6.50838">
        <ele>2473</ele>
        <time>2014-02-12T10:25:13.000Z</time>
      </trkpt>
      <trkpt lat="45.90904" lon="6.50838">
        <ele>2473</ele>
        <time>2014-02-12T10:25:14.000Z</time>
      </trkpt>
      <trkpt lat="45.90904" lon="6.50838">
        <ele>2473</ele>
        <time>2014-02-12T10:25:15.000Z</time>
      </trkpt>
      <trkpt lat="45.90904" lon="6.50838">
        <ele>2473</ele>
        <time>2014-02-12T10:25:16.000Z</time>
      </trkpt>
      <trkpt lat="45.90904" lon="6.50838">
        <ele>2473</ele>
        <time>2014-02-12T10:25:17.000Z</time>
      </trkpt>
      <trkpt lat="45.90904" lon="6.50838">
        <ele>2473</ele>
        <time>2014-02-12T10:25:18.000Z</time>
      </trkpt>
      <trkpt lat="45.90904" lon="6.50838">
        <ele>2473</ele>
        <time>2014-02-12T10:25:19.000Z</time>
      </trkpt>
      <trkpt lat="45.90904" lon="6.50838">
        <ele>2473</ele>
        <time>2014-02-12T10:25:21.000Z</time>
      </trkpt>
      <trkpt lat="45.90904" lon="6.50838">
        <ele>2473</ele>
        <time>2014-02-12T10:25:22.000Z</time>
      </trkpt>
      <trkpt lat="45.90904" lon="6.50838">
        <ele>2473</ele>
        <time>2014-02-12T10:25:23.000Z</time>
      </trkpt>
      <trkpt lat="45.90904" lon="6.50838">
        <ele>2473</ele>
        <time>2014-02-12T10:25:24.000Z</time>
      </trkpt>
      <trkpt lat="45.90904" lon="6.50838">
        <ele>2473</ele>
        <time>2014-02-12T10:25:25.000Z</time>
      </trkpt>
      <trkpt lat="45.90904" lon="6.50838">
        <ele>2473</ele>
        <time>2014-02-12T10:25:26.000Z</time>
      </trkpt>
      <trkpt lat="45.90904" lon="6.50838">
        <ele>2473</ele>
        <time>2014-02-12T10:25:27.000Z</time>
      </trkpt>
      <trkpt lat="45.90904" lon="6.50838">
        <ele>2473</ele>
        <time>2014-02-12T10:25:28.000Z</time>
      </trkpt>
      <trkpt lat="45.90904" lon="6.50838">
        <ele>2473</ele>
        <time>2014-02-12T10:25:29.000Z</time>
      </trkpt>
      <trkpt lat="45.90904" lon="6.50838">
        <ele>2473</ele>
        <time>2014-02-12T10:25:30.000Z</time>
      </trkpt>
      <trkpt lat="45.90904" lon="6.50838">
        <ele>2473</ele>
        <time>2014-02-12T10:25:31.000Z</time>
      </trkpt>
      <trkpt lat="45.90904" lon="6.50838">
        <ele>2473</ele>
        <time>2014-02-12T10:25:32.000Z</time>
      </trkpt>
      <trkpt lat="45.90904" lon="6.50838">
        <ele>2473</ele>
        <time>2014-02-12T10:25:33.000Z</time>
      </trkpt>
      <trkpt lat="45.90904" lon="6.50838">
        <ele>2473</ele>
        <time>2014-02-12T10:25:34.000Z</time>
      </trkpt>
      <trkpt lat="45.90904" lon="6.50838">
        <ele>2473</ele>
        <time>2014-02-12T10:25:35.000Z</time>
      </trkpt>
      <trkpt lat="45.90904" lon="6.50838">
        <ele>2473</ele>
        <time>2014-02-12T10:25:36.000Z</time>
      </trkpt>
      <trkpt lat="45.90904" lon="6.50838">
        <ele>2473</ele>
        <time>2014-02-12T10:25:37.000Z</time>
      </trkpt>
      <trkpt lat="45.90906" lon="6.5084">
        <ele>2472.8000488281</ele>
        <time>2014-02-12T10:25:38.000Z</time>
      </trkpt>
      <trkpt lat="45.90907" lon="6.50842">
        <ele>2472.6000976562</ele>
        <time>2014-02-12T10:25:39.000Z</time>
      </trkpt>
      <trkpt lat="45.90909" lon="6.50845">
        <ele>2472.1999511719</ele>
        <time>2014-02-12T10:25:40.000Z</time>
      </trkpt>
      <trkpt lat="45.90911" lon="6.50847">
        <ele>2471.6000976562</ele>
        <time>2014-02-12T10:25:41.000Z</time>
      </trkpt>
      <trkpt lat="45.90913" lon="6.5085">
        <ele>2470.8000488281</ele>
        <time>2014-02-12T10:25:42.000Z</time>
      </trkpt>
      <trkpt lat="45.90916" lon="6.50852">
        <ele>2469.8000488281</ele>
        <time>2014-02-12T10:25:43.000Z</time>
      </trkpt>
      <trkpt lat="45.90917" lon="6.50851">
        <ele>2468.8000488281</ele>
        <time>2014-02-12T10:25:44.000Z</time>
      </trkpt>
      <trkpt lat="45.90917" lon="6.50847">
        <ele>2467.8000488281</ele>
        <time>2014-02-12T10:25:45.000Z</time>
      </trkpt>
      <trkpt lat="45.90917" lon="6.50843">
        <ele>2466.8000488281</ele>
        <time>2014-02-12T10:25:46.000Z</time>
      </trkpt>
      <trkpt lat="45.90917" lon="6.50839">
        <ele>2466.6000976562</ele>
        <time>2014-02-12T10:25:47.000Z</time>
      </trkpt>
      <trkpt lat="45.90917" lon="6.50834">
        <ele>2466.1999511719</ele>
        <time>2014-02-12T10:25:48.000Z</time>
      </trkpt>
      <trkpt lat="45.90917" lon="6.50832">
        <ele>2465.8000488281</ele>
        <time>2014-02-12T10:25:49.000Z</time>
      </trkpt>
      <trkpt lat="45.90918" lon="6.5083">
        <ele>2465.1999511719</ele>
        <time>2014-02-12T10:25:50.000Z</time>
      </trkpt>
      <trkpt lat="45.90919" lon="6.50827">
        <ele>2464.1999511719</ele>
        <time>2014-02-12T10:25:51.000Z</time>
      </trkpt>
      <trkpt lat="45.90921" lon="6.50824">
        <ele>2463</ele>
        <time>2014-02-12T10:25:52.000Z</time>
      </trkpt>
      <trkpt lat="45.90924" lon="6.50821">
        <ele>2461.3999023438</ele>
        <time>2014-02-12T10:25:53.000Z</time>
      </trkpt>
      <trkpt lat="45.90927" lon="6.50819">
        <ele>2459.8000488281</ele>
        <time>2014-02-12T10:25:54.000Z</time>
      </trkpt>
      <trkpt lat="45.90931" lon="6.50819">
        <ele>2458.1999511719</ele>
        <time>2014-02-12T10:25:55.000Z</time>
      </trkpt>
      <trkpt lat="45.90934" lon="6.50821">
        <ele>2457</ele>
        <time>2014-02-12T10:25:56.000Z</time>
      </trkpt>
      <trkpt lat="45.90937" lon="6.50824">
        <ele>2455.8000488281</ele>
        <time>2014-02-12T10:25:57.000Z</time>
      </trkpt>
      <trkpt lat="45.90942" lon="6.50828">
        <ele>2454</ele>
        <time>2014-02-12T10:25:58.000Z</time>
      </trkpt>
      <trkpt lat="45.90946" lon="6.5083">
        <ele>2452.6000976562</ele>
        <time>2014-02-12T10:25:59.000Z</time>
      </trkpt>
      <trkpt lat="45.90949" lon="6.50829">
        <ele>2451.3999023438</ele>
        <time>2014-02-12T10:26:00.000Z</time>
      </trkpt>
      <trkpt lat="45.90951" lon="6.50828">
        <ele>2450.1999511719</ele>
        <time>2014-02-12T10:26:01.000Z</time>
      </trkpt>
      <trkpt lat="45.90954" lon="6.50828">
        <ele>2448.8000488281</ele>
        <time>2014-02-12T10:26:02.000Z</time>
      </trkpt>
      <trkpt lat="45.90958" lon="6.50827">
        <ele>2447.1999511719</ele>
        <time>2014-02-12T10:26:03.000Z</time>
      </trkpt>
      <trkpt lat="45.90962" lon="6.50824">
        <ele>2444.8000488281</ele>
        <time>2014-02-12T10:26:04.000Z</time>
      </trkpt>
      <trkpt lat="45.90966" lon="6.50822">
        <ele>2442.8000488281</ele>
        <time>2014-02-12T10:26:05.000Z</time>
      </trkpt>
      <trkpt lat="45.90971" lon="6.50818">
        <ele>2440.3999023438</ele>
        <time>2014-02-12T10:26:06.000Z</time>
      </trkpt>
      <trkpt lat="45.90974" lon="6.50814">
        <ele>2437.8000488281</ele>
        <time>2014-02-12T10:26:07.000Z</time>
      </trkpt>
      <trkpt lat="45.90978" lon="6.50811">
        <ele>2435</ele>
        <time>2014-02-12T10:26:08.000Z</time>
      </trkpt>
      <trkpt lat="45.90981" lon="6.50808">
        <ele>2431.8000488281</ele>
        <time>2014-02-12T10:26:09.000Z</time>
      </trkpt>
      <trkpt lat="45.90984" lon="6.50807">
        <ele>2430</ele>
        <time>2014-02-12T10:26:10.000Z</time>
      </trkpt>
      <trkpt lat="45.90986" lon="6.50808">
        <ele>2428.3999023438</ele>
        <time>2014-02-12T10:26:11.000Z</time>
      </trkpt>
      <trkpt lat="45.90989" lon="6.5081">
        <ele>2426.6000976562</ele>
        <time>2014-02-12T10:26:12.000Z</time>
      </trkpt>
      <trkpt lat="45.90992" lon="6.50812">
        <ele>2425</ele>
        <time>2014-02-12T10:26:13.000Z</time>
      </trkpt>
      <trkpt lat="45.90995" lon="6.50816">
        <ele>2423.3999023438</ele>
        <time>2014-02-12T10:26:14.000Z</time>
      </trkpt>
      <trkpt lat="45.91001" lon="6.50822">
        <ele>2420.3999023438</ele>
        <time>2014-02-12T10:26:15.000Z</time>
      </trkpt>
      <trkpt lat="45.91004" lon="6.50829">
        <ele>2418.8000488281</ele>
        <time>2014-02-12T10:26:16.000Z</time>
      </trkpt>
      <trkpt lat="45.91008" lon="6.50832">
        <ele>2416.1999511719</ele>
        <time>2014-02-12T10:26:17.000Z</time>
      </trkpt>
      <trkpt lat="45.91012" lon="6.50832">
        <ele>2413.6000976562</ele>
        <time>2014-02-12T10:26:18.000Z</time>
      </trkpt>
      <trkpt lat="45.91012" lon="6.50831">
        <ele>2413</ele>
        <time>2014-02-12T10:26:19.000Z</time>
      </trkpt>
      <trkpt lat="45.91013" lon="6.50831">
        <ele>2412.3999023438</ele>
        <time>2014-02-12T10:26:20.000Z</time>
      </trkpt>
      <trkpt lat="45.91014" lon="6.50831">
        <ele>2411.8000488281</ele>
        <time>2014-02-12T10:26:21.000Z</time>
      </trkpt>
      <trkpt lat="45.91014" lon="6.50831">
        <ele>2411.8000488281</ele>
        <time>2014-02-12T10:26:22.000Z</time>
      </trkpt>
      <trkpt lat="45.91014" lon="6.50831">
        <ele>2411.8000488281</ele>
        <time>2014-02-12T10:26:23.000Z</time>
      </trkpt>
      <trkpt lat="45.91014" lon="6.50831">
        <ele>2411.8000488281</ele>
        <time>2014-02-12T10:26:24.000Z</time>
      </trkpt>
      <trkpt lat="45.91014" lon="6.50831">
        <ele>2411.8000488281</ele>
        <time>2014-02-12T10:26:25.000Z</time>
      </trkpt>
      <trkpt lat="45.91014" lon="6.50831">
        <ele>2411.8000488281</ele>
        <time>2014-02-12T10:26:26.000Z</time>
      </trkpt>
      <trkpt lat="45.91014" lon="6.50831">
        <ele>2411.8000488281</ele>
        <time>2014-02-12T10:26:27.000Z</time>
      </trkpt>
      <trkpt lat="45.91014" lon="6.50831">
        <ele>2411.8000488281</ele>
        <time>2014-02-12T10:26:28.000Z</time>
      </trkpt>
      <trkpt lat="45.91014" lon="6.50831">
        <ele>2411.8000488281</ele>
        <time>2014-02-12T10:26:29.000Z</time>
      </trkpt>
      <trkpt lat="45.91015" lon="6.5083">
        <ele>2411</ele>
        <time>2014-02-12T10:26:30.000Z</time>
      </trkpt>
      <trkpt lat="45.91017" lon="6.50832">
        <ele>2409.6000976562</ele>
        <time>2014-02-12T10:26:31.000Z</time>
      </trkpt>
      <trkpt lat="45.9102" lon="6.50836">
        <ele>2408.3999023438</ele>
        <time>2014-02-12T10:26:32.000Z</time>
      </trkpt>
      <trkpt lat="45.91021" lon="6.50839">
        <ele>2407.8000488281</ele>
        <time>2014-02-12T10:26:33.000Z</time>
      </trkpt>
      <trkpt lat="45.91022" lon="6.5084">
        <ele>2407.6000976562</ele>
        <time>2014-02-12T10:26:34.000Z</time>
      </trkpt>
      <trkpt lat="45.91022" lon="6.5084">
        <ele>2407.6000976562</ele>
        <time>2014-02-12T10:26:35.000Z</time>
      </trkpt>
      <trkpt lat="45.91022" lon="6.5084">
        <ele>2407.6000976562</ele>
        <time>2014-02-12T10:26:36.000Z</time>
      </trkpt>
      <trkpt lat="45.91022" lon="6.5084">
        <ele>2407.6000976562</ele>
        <time>2014-02-12T10:26:37.000Z</time>
      </trkpt>
      <trkpt lat="45.91022" lon="6.50841">
        <ele>2407.6000976562</ele>
        <time>2014-02-12T10:26:38.000Z</time>
      </trkpt>
      <trkpt lat="45.91022" lon="6.50844">
        <ele>2407.3999023438</ele>
        <time>2014-02-12T10:26:39.000Z</time>
      </trkpt>
      <trkpt lat="45.91023" lon="6.50845">
        <ele>2406.8000488281</ele>
        <time>2014-02-12T10:26:40.000Z</time>
      </trkpt>
      <trkpt lat="45.91024" lon="6.50846">
        <ele>2406.8000488281</ele>
        <time>2014-02-12T10:26:41.000Z</time>
      </trkpt>
      <trkpt lat="45.91025" lon="6.50848">
        <ele>2406.1999511719</ele>
        <time>2014-02-12T10:26:42.000Z</time>
      </trkpt>
      <trkpt lat="45.91026" lon="6.50851">
        <ele>2405.8000488281</ele>
        <time>2014-02-12T10:26:43.000Z</time>
      </trkpt>
      <trkpt lat="45.91027" lon="6.50854">
        <ele>2405.1999511719</ele>
        <time>2014-02-12T10:26:44.000Z</time>
      </trkpt>
      <trkpt lat="45.91029" lon="6.50858">
        <ele>2404.3999023438</ele>
        <time>2014-02-12T10:26:45.000Z</time>
      </trkpt>
      <trkpt lat="45.91031" lon="6.50862">
        <ele>2403.6000976562</ele>
        <time>2014-02-12T10:26:46.000Z</time>
      </trkpt>
      <trkpt lat="45.91033" lon="6.50866">
        <ele>2402.6000976562</ele>
        <time>2014-02-12T10:26:47.000Z</time>
      </trkpt>
      <trkpt lat="45.91035" lon="6.50871">
        <ele>2401.6000976562</ele>
        <time>2014-02-12T10:26:48.000Z</time>
      </trkpt>
      <trkpt lat="45.91038" lon="6.50876">
        <ele>2399.8000488281</ele>
        <time>2014-02-12T10:26:49.000Z</time>
      </trkpt>
      <trkpt lat="45.91042" lon="6.50882">
        <ele>2397.6000976562</ele>
        <time>2014-02-12T10:26:50.000Z</time>
      </trkpt>
      <trkpt lat="45.91046" lon="6.5089">
        <ele>2395.3999023438</ele>
        <time>2014-02-12T10:26:51.000Z</time>
      </trkpt>
      <trkpt lat="45.9105" lon="6.50897">
        <ele>2393.6000976562</ele>
        <time>2014-02-12T10:26:52.000Z</time>
      </trkpt>
      <trkpt lat="45.91054" lon="6.50906">
        <ele>2392.6000976562</ele>
        <time>2014-02-12T10:26:53.000Z</time>
      </trkpt>
      <trkpt lat="45.91058" lon="6.50914">
        <ele>2391.8000488281</ele>
        <time>2014-02-12T10:26:54.000Z</time>
      </trkpt>
      <trkpt lat="45.9106" lon="6.5092">
        <ele>2390.8000488281</ele>
        <time>2014-02-12T10:26:55.000Z</time>
      </trkpt>
      <trkpt lat="45.91062" lon="6.50924">
        <ele>2390</ele>
        <time>2014-02-12T10:26:56.000Z</time>
      </trkpt>
      <trkpt lat="45.91065" lon="6.50928">
        <ele>2388.8000488281</ele>
        <time>2014-02-12T10:26:57.000Z</time>
      </trkpt>
      <trkpt lat="45.91066" lon="6.5093">
        <ele>2388</ele>
        <time>2014-02-12T10:26:58.000Z</time>
      </trkpt>
      <trkpt lat="45.91068" lon="6.50932">
        <ele>2386.6000976562</ele>
        <time>2014-02-12T10:26:59.000Z</time>
      </trkpt>
      <trkpt lat="45.91069" lon="6.50931">
        <ele>2385.8000488281</ele>
        <time>2014-02-12T10:27:00.000Z</time>
      </trkpt>
      <trkpt lat="45.91069" lon="6.5093">
        <ele>2385</ele>
        <time>2014-02-12T10:27:01.000Z</time>
      </trkpt>
      <trkpt lat="45.91071" lon="6.50931">
        <ele>2384</ele>
        <time>2014-02-12T10:27:02.000Z</time>
      </trkpt>
      <trkpt lat="45.91073" lon="6.50932">
        <ele>2382.8000488281</ele>
        <time>2014-02-12T10:27:03.000Z</time>
      </trkpt>
      <trkpt lat="45.91075" lon="6.50934">
        <ele>2381</ele>
        <time>2014-02-12T10:27:04.000Z</time>
      </trkpt>
      <trkpt lat="45.91076" lon="6.50932">
        <ele>2379</ele>
        <time>2014-02-12T10:27:05.000Z</time>
      </trkpt>
      <trkpt lat="45.91077" lon="6.50931">
        <ele>2377.8000488281</ele>
        <time>2014-02-12T10:27:06.000Z</time>
      </trkpt>
      <trkpt lat="45.9108" lon="6.50932">
        <ele>2376</ele>
        <time>2014-02-12T10:27:07.000Z</time>
      </trkpt>
      <trkpt lat="45.91083" lon="6.50933">
        <ele>2373.6000976562</ele>
        <time>2014-02-12T10:27:08.000Z</time>
      </trkpt>
      <trkpt lat="45.91085" lon="6.50931">
        <ele>2370.8000488281</ele>
        <time>2014-02-12T10:27:09.000Z</time>
      </trkpt>
      <trkpt lat="45.91087" lon="6.50929">
        <ele>2368.3999023438</ele>
        <time>2014-02-12T10:27:10.000Z</time>
      </trkpt>
      <trkpt lat="45.9109" lon="6.50929">
        <ele>2366.3999023438</ele>
        <time>2014-02-12T10:27:11.000Z</time>
      </trkpt>
      <trkpt lat="45.91093" lon="6.50925">
        <ele>2363.6000976562</ele>
        <time>2014-02-12T10:27:12.000Z</time>
      </trkpt>
      <trkpt lat="45.91096" lon="6.50921">
        <ele>2361</ele>
        <time>2014-02-12T10:27:13.000Z</time>
      </trkpt>
      <trkpt lat="45.91098" lon="6.50918">
        <ele>2358.8000488281</ele>
        <time>2014-02-12T10:27:14.000Z</time>
      </trkpt>
      <trkpt lat="45.91101" lon="6.50917">
        <ele>2356.8000488281</ele>
        <time>2014-02-12T10:27:15.000Z</time>
      </trkpt>
      <trkpt lat="45.91105" lon="6.50914">
        <ele>2353.3999023438</ele>
        <time>2014-02-12T10:27:16.000Z</time>
      </trkpt>
      <trkpt lat="45.91108" lon="6.50912">
        <ele>2350.1999511719</ele>
        <time>2014-02-12T10:27:17.000Z</time>
      </trkpt>
      <trkpt lat="45.91112" lon="6.5091">
        <ele>2347.3999023438</ele>
        <time>2014-02-12T10:27:18.000Z</time>
      </trkpt>
      <trkpt lat="45.91115" lon="6.50908">
        <ele>2344.3999023438</ele>
        <time>2014-02-12T10:27:19.000Z</time>
      </trkpt>
      <trkpt lat="45.91118" lon="6.50904">
        <ele>2342</ele>
        <time>2014-02-12T10:27:20.000Z</time>
      </trkpt>
      <trkpt lat="45.9112" lon="6.50902">
        <ele>2339.8000488281</ele>
        <time>2014-02-12T10:27:21.000Z</time>
      </trkpt>
      <trkpt lat="45.91123" lon="6.50899">
        <ele>2337.1999511719</ele>
        <time>2014-02-12T10:27:22.000Z</time>
      </trkpt>
      <trkpt lat="45.91126" lon="6.50894">
        <ele>2334.3999023438</ele>
        <time>2014-02-12T10:27:23.000Z</time>
      </trkpt>
      <trkpt lat="45.91127" lon="6.50889">
        <ele>2333</ele>
        <time>2014-02-12T10:27:24.000Z</time>
      </trkpt>
      <trkpt lat="45.91128" lon="6.50885">
        <ele>2332</ele>
        <time>2014-02-12T10:27:25.000Z</time>
      </trkpt>
      <trkpt lat="45.91131" lon="6.50884">
        <ele>2329.3999023438</ele>
        <time>2014-02-12T10:27:26.000Z</time>
      </trkpt>
      <trkpt lat="45.91133" lon="6.50882">
        <ele>2327.3999023438</ele>
        <time>2014-02-12T10:27:27.000Z</time>
      </trkpt>
      <trkpt lat="45.91136" lon="6.5088">
        <ele>2324.8000488281</ele>
        <time>2014-02-12T10:27:28.000Z</time>
      </trkpt>
      <trkpt lat="45.91139" lon="6.50878">
        <ele>2322</ele>
        <time>2014-02-12T10:27:29.000Z</time>
      </trkpt>
      <trkpt lat="45.91143" lon="6.50875">
        <ele>2319.1999511719</ele>
        <time>2014-02-12T10:27:30.000Z</time>
      </trkpt>
      <trkpt lat="45.91146" lon="6.50869">
        <ele>2316.6000976562</ele>
        <time>2014-02-12T10:27:31.000Z</time>
      </trkpt>
      <trkpt lat="45.91148" lon="6.50866">
        <ele>2314.8000488281</ele>
        <time>2014-02-12T10:27:32.000Z</time>
      </trkpt>
      <trkpt lat="45.91151" lon="6.50865">
        <ele>2313</ele>
        <time>2014-02-12T10:27:33.000Z</time>
      </trkpt>
      <trkpt lat="45.91154" lon="6.50863">
        <ele>2310.8000488281</ele>
        <time>2014-02-12T10:27:34.000Z</time>
      </trkpt>
      <trkpt lat="45.91157" lon="6.5086">
        <ele>2308.8000488281</ele>
        <time>2014-02-12T10:27:35.000Z</time>
      </trkpt>
      <trkpt lat="45.91159" lon="6.50859">
        <ele>2307.1999511719</ele>
        <time>2014-02-12T10:27:36.000Z</time>
      </trkpt>
      <trkpt lat="45.91163" lon="6.50861">
        <ele>2305</ele>
        <time>2014-02-12T10:27:37.000Z</time>
      </trkpt>
      <trkpt lat="45.91165" lon="6.50865">
        <ele>2304.6000976562</ele>
        <time>2014-02-12T10:27:38.000Z</time>
      </trkpt>
      <trkpt lat="45.91165" lon="6.50867">
        <ele>2304.6000976562</ele>
        <time>2014-02-12T10:27:39.000Z</time>
      </trkpt>
      <trkpt lat="45.91165" lon="6.50867">
        <ele>2304.6000976562</ele>
        <time>2014-02-12T10:27:40.000Z</time>
      </trkpt>
      <trkpt lat="45.91165" lon="6.50867">
        <ele>2304.6000976562</ele>
        <time>2014-02-12T10:27:41.000Z</time>
      </trkpt>
      <trkpt lat="45.91165" lon="6.50867">
        <ele>2304.6000976562</ele>
        <time>2014-02-12T10:27:42.000Z</time>
      </trkpt>
      <trkpt lat="45.91165" lon="6.50867">
        <ele>2304.6000976562</ele>
        <time>2014-02-12T10:27:43.000Z</time>
      </trkpt>
      <trkpt lat="45.91165" lon="6.50867">
        <ele>2304.6000976562</ele>
        <time>2014-02-12T10:27:44.000Z</time>
      </trkpt>
      <trkpt lat="45.91165" lon="6.50867">
        <ele>2304.6000976562</ele>
        <time>2014-02-12T10:27:45.000Z</time>
      </trkpt>
      <trkpt lat="45.91165" lon="6.50867">
        <ele>2304.6000976562</ele>
        <time>2014-02-12T10:27:46.000Z</time>
      </trkpt>
      <trkpt lat="45.91165" lon="6.50867">
        <ele>2304.6000976562</ele>
        <time>2014-02-12T10:27:47.000Z</time>
      </trkpt>
      <trkpt lat="45.91165" lon="6.50867">
        <ele>2304.6000976562</ele>
        <time>2014-02-12T10:27:48.000Z</time>
      </trkpt>
      <trkpt lat="45.91165" lon="6.50867">
        <ele>2304.6000976562</ele>
        <time>2014-02-12T10:27:49.000Z</time>
      </trkpt>
      <trkpt lat="45.91166" lon="6.50868">
        <ele>2304.1999511719</ele>
        <time>2014-02-12T10:27:50.000Z</time>
      </trkpt>
      <trkpt lat="45.91169" lon="6.50872">
        <ele>2302.6000976562</ele>
        <time>2014-02-12T10:27:51.000Z</time>
      </trkpt>
      <trkpt lat="45.91174" lon="6.50878">
        <ele>2300.6000976562</ele>
        <time>2014-02-12T10:27:52.000Z</time>
      </trkpt>
      <trkpt lat="45.91178" lon="6.50884">
        <ele>2298.3999023438</ele>
        <time>2014-02-12T10:27:53.000Z</time>
      </trkpt>
      <trkpt lat="45.91182" lon="6.5089">
        <ele>2297</ele>
        <time>2014-02-12T10:27:54.000Z</time>
      </trkpt>
      <trkpt lat="45.91184" lon="6.50895">
        <ele>2296</ele>
        <time>2014-02-12T10:27:55.000Z</time>
      </trkpt>
      <trkpt lat="45.91186" lon="6.50899">
        <ele>2295.3999023438</ele>
        <time>2014-02-12T10:27:56.000Z</time>
      </trkpt>
      <trkpt lat="45.91187" lon="6.50902">
        <ele>2294.8000488281</ele>
        <time>2014-02-12T10:27:57.000Z</time>
      </trkpt>
      <trkpt lat="45.91189" lon="6.50903">
        <ele>2294.1999511719</ele>
        <time>2014-02-12T10:27:58.000Z</time>
      </trkpt>
      <trkpt lat="45.9119" lon="6.50901">
        <ele>2292.8000488281</ele>
        <time>2014-02-12T10:27:59.000Z</time>
      </trkpt>
      <trkpt lat="45.91192" lon="6.50902">
        <ele>2292</ele>
        <time>2014-02-12T10:28:00.000Z</time>
      </trkpt>
      <trkpt lat="45.91194" lon="6.509">
        <ele>2290.3999023438</ele>
        <time>2014-02-12T10:28:01.000Z</time>
      </trkpt>
      <trkpt lat="45.91197" lon="6.50898">
        <ele>2288.1999511719</ele>
        <time>2014-02-12T10:28:02.000Z</time>
      </trkpt>
      <trkpt lat="45.91201" lon="6.50895">
        <ele>2285.3999023438</ele>
        <time>2014-02-12T10:28:03.000Z</time>
      </trkpt>
      <trkpt lat="45.91206" lon="6.50895">
        <ele>2282.1999511719</ele>
        <time>2014-02-12T10:28:04.000Z</time>
      </trkpt>
      <trkpt lat="45.91211" lon="6.50895">
        <ele>2279.1999511719</ele>
        <time>2014-02-12T10:28:05.000Z</time>
      </trkpt>
      <trkpt lat="45.91217" lon="6.50892">
        <ele>2274.8000488281</ele>
        <time>2014-02-12T10:28:06.000Z</time>
      </trkpt>
      <trkpt lat="45.91223" lon="6.5089">
        <ele>2271</ele>
        <time>2014-02-12T10:28:07.000Z</time>
      </trkpt>
      <trkpt lat="45.91229" lon="6.5089">
        <ele>2268.1999511719</ele>
        <time>2014-02-12T10:28:08.000Z</time>
      </trkpt>
      <trkpt lat="45.91236" lon="6.50888">
        <ele>2265.3999023438</ele>
        <time>2014-02-12T10:28:09.000Z</time>
      </trkpt>
      <trkpt lat="45.91243" lon="6.50885">
        <ele>2262</ele>
        <time>2014-02-12T10:28:10.000Z</time>
      </trkpt>
      <trkpt lat="45.91249" lon="6.50879">
        <ele>2258.3999023438</ele>
        <time>2014-02-12T10:28:11.000Z</time>
      </trkpt>
      <trkpt lat="45.91256" lon="6.50869">
        <ele>2254.1999511719</ele>
        <time>2014-02-12T10:28:12.000Z</time>
      </trkpt>
      <trkpt lat="45.91259" lon="6.50858">
        <ele>2251.3999023438</ele>
        <time>2014-02-12T10:28:13.000Z</time>
      </trkpt>
      <trkpt lat="45.91263" lon="6.5085">
        <ele>2248.6000976562</ele>
        <time>2014-02-12T10:28:14.000Z</time>
      </trkpt>
      <trkpt lat="45.91267" lon="6.50844">
        <ele>2245.8000488281</ele>
        <time>2014-02-12T10:28:15.000Z</time>
      </trkpt>
      <trkpt lat="45.9127" lon="6.50838">
        <ele>2243.3999023438</ele>
        <time>2014-02-12T10:28:16.000Z</time>
      </trkpt>
      <trkpt lat="45.91272" lon="6.50833">
        <ele>2242.1999511719</ele>
        <time>2014-02-12T10:28:17.000Z</time>
      </trkpt>
      <trkpt lat="45.91272" lon="6.50831">
        <ele>2241.6000976562</ele>
        <time>2014-02-12T10:28:18.000Z</time>
      </trkpt>
      <trkpt lat="45.91272" lon="6.50828">
        <ele>2241.1999511719</ele>
        <time>2014-02-12T10:28:19.000Z</time>
      </trkpt>
      <trkpt lat="45.91272" lon="6.50825">
        <ele>2241</ele>
        <time>2014-02-12T10:28:20.000Z</time>
      </trkpt>
      <trkpt lat="45.91271" lon="6.50823">
        <ele>2240.8000488281</ele>
        <time>2014-02-12T10:28:21.000Z</time>
      </trkpt>
      <trkpt lat="45.91271" lon="6.5082">
        <ele>2240.6000976562</ele>
        <time>2014-02-12T10:28:22.000Z</time>
      </trkpt>
      <trkpt lat="45.9127" lon="6.50817">
        <ele>2240.3999023438</ele>
        <time>2014-02-12T10:28:23.000Z</time>
      </trkpt>
      <trkpt lat="45.91269" lon="6.50815">
        <ele>2240.8000488281</ele>
        <time>2014-02-12T10:28:24.000Z</time>
      </trkpt>
      <trkpt lat="45.91267" lon="6.50812">
        <ele>2241.6000976562</ele>
        <time>2014-02-12T10:28:25.000Z</time>
      </trkpt>
      <trkpt lat="45.91266" lon="6.5081">
        <ele>2242.1999511719</ele>
        <time>2014-02-12T10:28:26.000Z</time>
      </trkpt>
      <trkpt lat="45.91264" lon="6.50808">
        <ele>2243</ele>
        <time>2014-02-12T10:28:27.000Z</time>
      </trkpt>
      <trkpt lat="45.91262" lon="6.50806">
        <ele>2243.6000976562</ele>
        <time>2014-02-12T10:28:28.000Z</time>
      </trkpt>
      <trkpt lat="45.91261" lon="6.50805">
        <ele>2244</ele>
        <time>2014-02-12T10:28:29.000Z</time>
      </trkpt>
      <trkpt lat="45.9126" lon="6.50803">
        <ele>2244.3999023438</ele>
        <time>2014-02-12T10:28:30.000Z</time>
      </trkpt>
      <trkpt lat="45.91259" lon="6.50801">
        <ele>2244.8000488281</ele>
        <time>2014-02-12T10:28:31.000Z</time>
      </trkpt>
      <trkpt lat="45.91258" lon="6.508">
        <ele>2245.1999511719</ele>
        <time>2014-02-12T10:28:32.000Z</time>
      </trkpt>
      <trkpt lat="45.91257" lon="6.50798">
        <ele>2245.6000976562</ele>
        <time>2014-02-12T10:28:33.000Z</time>
      </trkpt>
      <trkpt lat="45.91256" lon="6.50797">
        <ele>2246.1999511719</ele>
        <time>2014-02-12T10:28:34.000Z</time>
      </trkpt>
      <trkpt lat="45.91254" lon="6.50795">
        <ele>2247</ele>
        <time>2014-02-12T10:28:35.000Z</time>
      </trkpt>
      <trkpt lat="45.91253" lon="6.50794">
        <ele>2247.3999023438</ele>
        <time>2014-02-12T10:28:36.000Z</time>
      </trkpt>
      <trkpt lat="45.91252" lon="6.50792">
        <ele>2248</ele>
        <time>2014-02-12T10:28:37.000Z</time>
      </trkpt>
      <trkpt lat="45.9125" lon="6.50789">
        <ele>2248.8000488281</ele>
        <time>2014-02-12T10:28:39.000Z</time>
      </trkpt>
      <trkpt lat="45.91248" lon="6.50787">
        <ele>2249.3999023438</ele>
        <time>2014-02-12T10:28:40.000Z</time>
      </trkpt>
      <trkpt lat="45.91247" lon="6.50786">
        <ele>2250</ele>
        <time>2014-02-12T10:28:41.000Z</time>
      </trkpt>
      <trkpt lat="45.91246" lon="6.50785">
        <ele>2250.3999023438</ele>
        <time>2014-02-12T10:28:42.000Z</time>
      </trkpt>
      <trkpt lat="45.91245" lon="6.50783">
        <ele>2250.6000976562</ele>
        <time>2014-02-12T10:28:43.000Z</time>
      </trkpt>
      <trkpt lat="45.91245" lon="6.50783">
        <ele>2250.8000488281</ele>
        <time>2014-02-12T10:28:44.000Z</time>
      </trkpt>
      <trkpt lat="45.91244" lon="6.50782">
        <ele>2251</ele>
        <time>2014-02-12T10:28:45.000Z</time>
      </trkpt>
      <trkpt lat="45.91244" lon="6.50782">
        <ele>2251.1999511719</ele>
        <time>2014-02-12T10:28:46.000Z</time>
      </trkpt>
      <trkpt lat="45.91247" lon="6.50793">
        <ele>2249.8000488281</ele>
        <time>2014-02-12T10:28:49.000Z</time>
      </trkpt>
      <trkpt lat="45.91247" lon="6.50793">
        <ele>2249.8000488281</ele>
        <time>2014-02-12T10:28:50.000Z</time>
      </trkpt>
      <trkpt lat="45.91247" lon="6.50793">
        <ele>2249.8000488281</ele>
        <time>2014-02-12T10:28:51.000Z</time>
      </trkpt>
      <trkpt lat="45.91247" lon="6.50793">
        <ele>2249.8000488281</ele>
        <time>2014-02-12T10:28:52.000Z</time>
      </trkpt>
      <trkpt lat="45.91247" lon="6.50793">
        <ele>2249.8000488281</ele>
        <time>2014-02-12T10:28:53.000Z</time>
      </trkpt>
      <trkpt lat="45.91247" lon="6.50793">
        <ele>2249.8000488281</ele>
        <time>2014-02-12T10:28:54.000Z</time>
      </trkpt>
      <trkpt lat="45.91247" lon="6.50793">
        <ele>2249.8000488281</ele>
        <time>2014-02-12T10:28:55.000Z</time>
      </trkpt>
      <trkpt lat="45.91247" lon="6.50793">
        <ele>2249.8000488281</ele>
        <time>2014-02-12T10:28:56.000Z</time>
      </trkpt>
      <trkpt lat="45.91247" lon="6.50793">
        <ele>2249.8000488281</ele>
        <time>2014-02-12T10:28:57.000Z</time>
      </trkpt>
      <trkpt lat="45.91247" lon="6.50793">
        <ele>2249.8000488281</ele>
        <time>2014-02-12T10:28:58.000Z</time>
      </trkpt>
      <trkpt lat="45.91247" lon="6.50793">
        <ele>2249.8000488281</ele>
        <time>2014-02-12T10:28:59.000Z</time>
      </trkpt>
      <trkpt lat="45.91247" lon="6.50793">
        <ele>2249.8000488281</ele>
        <time>2014-02-12T10:29:00.000Z</time>
      </trkpt>
      <trkpt lat="45.91247" lon="6.50793">
        <ele>2249.8000488281</ele>
        <time>2014-02-12T10:29:02.000Z</time>
      </trkpt>
      <trkpt lat="45.91247" lon="6.50793">
        <ele>2249.8000488281</ele>
        <time>2014-02-12T10:29:03.000Z</time>
      </trkpt>
      <trkpt lat="45.91247" lon="6.50793">
        <ele>2249.8000488281</ele>
        <time>2014-02-12T10:29:04.000Z</time>
      </trkpt>
      <trkpt lat="45.91247" lon="6.50793">
        <ele>2249.8000488281</ele>
        <time>2014-02-12T10:29:05.000Z</time>
      </trkpt>
      <trkpt lat="45.91247" lon="6.50793">
        <ele>2249.8000488281</ele>
        <time>2014-02-12T10:29:06.000Z</time>
      </trkpt>
      <trkpt lat="45.91247" lon="6.50793">
        <ele>2249.8000488281</ele>
        <time>2014-02-12T10:29:07.000Z</time>
      </trkpt>
      <trkpt lat="45.91247" lon="6.50793">
        <ele>2249.8000488281</ele>
        <time>2014-02-12T10:29:08.000Z</time>
      </trkpt>
      <trkpt lat="45.91247" lon="6.50793">
        <ele>2249.8000488281</ele>
        <time>2014-02-12T10:29:09.000Z</time>
      </trkpt>
      <trkpt lat="45.91247" lon="6.50793">
        <ele>2249.8000488281</ele>
        <time>2014-02-12T10:29:10.000Z</time>
      </trkpt>
      <trkpt lat="45.91247" lon="6.50793">
        <ele>2249.8000488281</ele>
        <time>2014-02-12T10:29:11.000Z</time>
      </trkpt>
      <trkpt lat="45.91247" lon="6.50793">
        <ele>2249.8000488281</ele>
        <time>2014-02-12T10:29:12.000Z</time>
      </trkpt>
      <trkpt lat="45.91247" lon="6.50793">
        <ele>2249.8000488281</ele>
        <time>2014-02-12T10:29:13.000Z</time>
      </trkpt>
      <trkpt lat="45.91247" lon="6.50793">
        <ele>2249.8000488281</ele>
        <time>2014-02-12T10:29:14.000Z</time>
      </trkpt>
      <trkpt lat="45.91247" lon="6.50793">
        <ele>2249.8000488281</ele>
        <time>2014-02-12T10:29:15.000Z</time>
      </trkpt>
      <trkpt lat="45.91247" lon="6.50793">
        <ele>2249.8000488281</ele>
        <time>2014-02-12T10:29:17.000Z</time>
      </trkpt>
      <trkpt lat="45.91247" lon="6.50793">
        <ele>2249.8000488281</ele>
        <time>2014-02-12T10:29:18.000Z</time>
      </trkpt>
      <trkpt lat="45.91247" lon="6.50793">
        <ele>2249.8000488281</ele>
        <time>2014-02-12T10:29:19.000Z</time>
      </trkpt>
      <trkpt lat="45.91247" lon="6.50793">
        <ele>2249.8000488281</ele>
        <time>2014-02-12T10:29:20.000Z</time>
      </trkpt>
      <trkpt lat="45.91247" lon="6.50793">
        <ele>2249.8000488281</ele>
        <time>2014-02-12T10:29:21.000Z</time>
      </trkpt>
      <trkpt lat="45.91247" lon="6.50793">
        <ele>2249.8000488281</ele>
        <time>2014-02-12T10:29:22.000Z</time>
      </trkpt>
      <trkpt lat="45.91247" lon="6.50793">
        <ele>2249.8000488281</ele>
        <time>2014-02-12T10:29:25.000Z</time>
      </trkpt>
      <trkpt lat="45.91247" lon="6.50793">
        <ele>2249.8000488281</ele>
        <time>2014-02-12T10:29:26.000Z</time>
      </trkpt>
      <trkpt lat="45.91251" lon="6.50801">
        <ele>2248.6000976562</ele>
        <time>2014-02-12T10:29:27.000Z</time>
      </trkpt>
      <trkpt lat="45.91251" lon="6.50801">
        <ele>2248.6000976562</ele>
        <time>2014-02-12T10:29:28.000Z</time>
      </trkpt>
      <trkpt lat="45.91251" lon="6.50801">
        <ele>2248.6000976562</ele>
        <time>2014-02-12T10:29:30.000Z</time>
      </trkpt>
      <trkpt lat="45.91251" lon="6.50801">
        <ele>2248.6000976562</ele>
        <time>2014-02-12T10:29:31.000Z</time>
      </trkpt>
      <trkpt lat="45.91251" lon="6.50801">
        <ele>2248.6000976562</ele>
        <time>2014-02-12T10:29:32.000Z</time>
      </trkpt>
      <trkpt lat="45.91251" lon="6.50801">
        <ele>2248.6000976562</ele>
        <time>2014-02-12T10:29:33.000Z</time>
      </trkpt>
      <trkpt lat="45.91251" lon="6.50801">
        <ele>2248.6000976562</ele>
        <time>2014-02-12T10:29:34.000Z</time>
      </trkpt>
      <trkpt lat="45.91251" lon="6.50801">
        <ele>2248.6000976562</ele>
        <time>2014-02-12T10:29:35.000Z</time>
      </trkpt>
      <trkpt lat="45.91251" lon="6.50801">
        <ele>2248.6000976562</ele>
        <time>2014-02-12T10:29:40.000Z</time>
      </trkpt>
      <trkpt lat="45.91251" lon="6.50801">
        <ele>2248.6000976562</ele>
        <time>2014-02-12T10:29:41.000Z</time>
      </trkpt>
      <trkpt lat="45.91251" lon="6.50801">
        <ele>2248.6000976562</ele>
        <time>2014-02-12T10:29:42.000Z</time>
      </trkpt>
      <trkpt lat="45.91251" lon="6.50801">
        <ele>2248.6000976562</ele>
        <time>2014-02-12T10:29:43.000Z</time>
      </trkpt>
      <trkpt lat="45.91251" lon="6.50801">
        <ele>2248.6000976562</ele>
        <time>2014-02-12T10:29:44.000Z</time>
      </trkpt>
      <trkpt lat="45.91251" lon="6.50801">
        <ele>2248.6000976562</ele>
        <time>2014-02-12T10:29:45.000Z</time>
      </trkpt>
      <trkpt lat="45.91251" lon="6.50801">
        <ele>2248.6000976562</ele>
        <time>2014-02-12T10:29:46.000Z</time>
      </trkpt>
      <trkpt lat="45.91251" lon="6.50801">
        <ele>2248.6000976562</ele>
        <time>2014-02-12T10:29:47.000Z</time>
      </trkpt>
      <trkpt lat="45.91251" lon="6.50801">
        <ele>2248.6000976562</ele>
        <time>2014-02-12T10:29:48.000Z</time>
      </trkpt>
      <trkpt lat="45.91251" lon="6.50801">
        <ele>2248.6000976562</ele>
        <time>2014-02-12T10:29:49.000Z</time>
      </trkpt>
      <trkpt lat="45.91251" lon="6.50801">
        <ele>2248.1999511719</ele>
        <time>2014-02-12T10:29:52.000Z</time>
      </trkpt>
      <trkpt lat="45.91256" lon="6.508">
        <ele>2246.1999511719</ele>
        <time>2014-02-12T10:29:53.000Z</time>
      </trkpt>
      <trkpt lat="45.9126" lon="6.50801">
        <ele>2244.3999023438</ele>
        <time>2014-02-12T10:29:54.000Z</time>
      </trkpt>
      <trkpt lat="45.91264" lon="6.50797">
        <ele>2242.3999023438</ele>
        <time>2014-02-12T10:29:55.000Z</time>
      </trkpt>
      <trkpt lat="45.91268" lon="6.50795">
        <ele>2240.6000976562</ele>
        <time>2014-02-12T10:29:56.000Z</time>
      </trkpt>
      <trkpt lat="45.91271" lon="6.50794">
        <ele>2239.3999023438</ele>
        <time>2014-02-12T10:29:57.000Z</time>
      </trkpt>
      <trkpt lat="45.91275" lon="6.5079">
        <ele>2237.6000976562</ele>
        <time>2014-02-12T10:29:58.000Z</time>
      </trkpt>
      <trkpt lat="45.91278" lon="6.5079">
        <ele>2236.3999023438</ele>
        <time>2014-02-12T10:29:59.000Z</time>
      </trkpt>
      <trkpt lat="45.91282" lon="6.50786">
        <ele>2233.6000976562</ele>
        <time>2014-02-12T10:30:00.000Z</time>
      </trkpt>
      <trkpt lat="45.91287" lon="6.50783">
        <ele>2231</ele>
        <time>2014-02-12T10:30:01.000Z</time>
      </trkpt>
      <trkpt lat="45.91292" lon="6.50779">
        <ele>2227.3999023438</ele>
        <time>2014-02-12T10:30:02.000Z</time>
      </trkpt>
      <trkpt lat="45.91297" lon="6.50774">
        <ele>2224.3999023438</ele>
        <time>2014-02-12T10:30:03.000Z</time>
      </trkpt>
      <trkpt lat="45.91302" lon="6.50771">
        <ele>2221.3999023438</ele>
        <time>2014-02-12T10:30:04.000Z</time>
      </trkpt>
      <trkpt lat="45.91308" lon="6.50764">
        <ele>2217.6000976562</ele>
        <time>2014-02-12T10:30:05.000Z</time>
      </trkpt>
      <trkpt lat="45.91314" lon="6.50758">
        <ele>2217.1999511719</ele>
        <time>2014-02-12T10:30:06.000Z</time>
      </trkpt>
      <trkpt lat="45.91319" lon="6.50754">
        <ele>2216.6000976562</ele>
        <time>2014-02-12T10:30:07.000Z</time>
      </trkpt>
      <trkpt lat="45.91324" lon="6.50748">
        <ele>2215.8000488281</ele>
        <time>2014-02-12T10:30:08.000Z</time>
      </trkpt>
      <trkpt lat="45.91329" lon="6.50741">
        <ele>2214</ele>
        <time>2014-02-12T10:30:09.000Z</time>
      </trkpt>
      <trkpt lat="45.91336" lon="6.50734">
        <ele>2212</ele>
        <time>2014-02-12T10:30:10.000Z</time>
      </trkpt>
      <trkpt lat="45.91343" lon="6.50727">
        <ele>2210.8000488281</ele>
        <time>2014-02-12T10:30:11.000Z</time>
      </trkpt>
      <trkpt lat="45.91348" lon="6.50718">
        <ele>2209.3999023438</ele>
        <time>2014-02-12T10:30:12.000Z</time>
      </trkpt>
      <trkpt lat="45.91355" lon="6.50711">
        <ele>2208.1999511719</ele>
        <time>2014-02-12T10:30:13.000Z</time>
      </trkpt>
      <trkpt lat="45.91361" lon="6.50703">
        <ele>2206.6000976562</ele>
        <time>2014-02-12T10:30:14.000Z</time>
      </trkpt>
      <trkpt lat="45.91364" lon="6.50691">
        <ele>2203</ele>
        <time>2014-02-12T10:30:15.000Z</time>
      </trkpt>
      <trkpt lat="45.91368" lon="6.50679">
        <ele>2199.1999511719</ele>
        <time>2014-02-12T10:30:16.000Z</time>
      </trkpt>
      <trkpt lat="45.91369" lon="6.50666">
        <ele>2195.6000976562</ele>
        <time>2014-02-12T10:30:17.000Z</time>
      </trkpt>
      <trkpt lat="45.91371" lon="6.50653">
        <ele>2191.8000488281</ele>
        <time>2014-02-12T10:30:18.000Z</time>
      </trkpt>
      <trkpt lat="45.91373" lon="6.50639">
        <ele>2189</ele>
        <time>2014-02-12T10:30:19.000Z</time>
      </trkpt>
      <trkpt lat="45.91372" lon="6.50625">
        <ele>2186.8000488281</ele>
        <time>2014-02-12T10:30:20.000Z</time>
      </trkpt>
      <trkpt lat="45.91373" lon="6.50611">
        <ele>2184.6000976562</ele>
        <time>2014-02-12T10:30:21.000Z</time>
      </trkpt>
      <trkpt lat="45.91375" lon="6.50597">
        <ele>2182.3999023438</ele>
        <time>2014-02-12T10:30:22.000Z</time>
      </trkpt>
      <trkpt lat="45.91376" lon="6.50583">
        <ele>2180.1999511719</ele>
        <time>2014-02-12T10:30:23.000Z</time>
      </trkpt>
      <trkpt lat="45.91376" lon="6.50569">
        <ele>2178.1999511719</ele>
        <time>2014-02-12T10:30:24.000Z</time>
      </trkpt>
      <trkpt lat="45.91375" lon="6.50558">
        <ele>2175.8000488281</ele>
        <time>2014-02-12T10:30:25.000Z</time>
      </trkpt>
      <trkpt lat="45.91375" lon="6.50547">
        <ele>2173</ele>
        <time>2014-02-12T10:30:26.000Z</time>
      </trkpt>
      <trkpt lat="45.91375" lon="6.50536">
        <ele>2169.3999023438</ele>
        <time>2014-02-12T10:30:27.000Z</time>
      </trkpt>
      <trkpt lat="45.91376" lon="6.50526">
        <ele>2166.1999511719</ele>
        <time>2014-02-12T10:30:28.000Z</time>
      </trkpt>
      <trkpt lat="45.91377" lon="6.50515">
        <ele>2162.8000488281</ele>
        <time>2014-02-12T10:30:29.000Z</time>
      </trkpt>
      <trkpt lat="45.9138" lon="6.50508">
        <ele>2159.8000488281</ele>
        <time>2014-02-12T10:30:30.000Z</time>
      </trkpt>
      <trkpt lat="45.91384" lon="6.50501">
        <ele>2157</ele>
        <time>2014-02-12T10:30:31.000Z</time>
      </trkpt>
      <trkpt lat="45.91386" lon="6.50493">
        <ele>2153.8000488281</ele>
        <time>2014-02-12T10:30:32.000Z</time>
      </trkpt>
      <trkpt lat="45.91389" lon="6.50485">
        <ele>2150.6000976562</ele>
        <time>2014-02-12T10:30:33.000Z</time>
      </trkpt>
      <trkpt lat="45.91392" lon="6.50478">
        <ele>2147</ele>
        <time>2014-02-12T10:30:34.000Z</time>
      </trkpt>
      <trkpt lat="45.91392" lon="6.5047">
        <ele>2144</ele>
        <time>2014-02-12T10:30:35.000Z</time>
      </trkpt>
      <trkpt lat="45.91389" lon="6.50464">
        <ele>2142.3999023438</ele>
        <time>2014-02-12T10:30:36.000Z</time>
      </trkpt>
      <trkpt lat="45.91386" lon="6.5046">
        <ele>2141.8000488281</ele>
        <time>2014-02-12T10:30:37.000Z</time>
      </trkpt>
      <trkpt lat="45.91383" lon="6.50458">
        <ele>2142</ele>
        <time>2014-02-12T10:30:38.000Z</time>
      </trkpt>
      <trkpt lat="45.91383" lon="6.50458">
        <ele>2142</ele>
        <time>2014-02-12T10:30:39.000Z</time>
      </trkpt>
      <trkpt lat="45.91382" lon="6.50457">
        <ele>2142</ele>
        <time>2014-02-12T10:30:40.000Z</time>
      </trkpt>
      <trkpt lat="45.91381" lon="6.50457">
        <ele>2142.1999511719</ele>
        <time>2014-02-12T10:30:41.000Z</time>
      </trkpt>
      <trkpt lat="45.91381" lon="6.50457">
        <ele>2142.1999511719</ele>
        <time>2014-02-12T10:30:42.000Z</time>
      </trkpt>
      <trkpt lat="45.91381" lon="6.50457">
        <ele>2142.1999511719</ele>
        <time>2014-02-12T10:30:43.000Z</time>
      </trkpt>
      <trkpt lat="45.91381" lon="6.50457">
        <ele>2142.1999511719</ele>
        <time>2014-02-12T10:30:44.000Z</time>
      </trkpt>
      <trkpt lat="45.91381" lon="6.50457">
        <ele>2142.1999511719</ele>
        <time>2014-02-12T10:30:45.000Z</time>
      </trkpt>
      <trkpt lat="45.91381" lon="6.50457">
        <ele>2142.1999511719</ele>
        <time>2014-02-12T10:30:46.000Z</time>
      </trkpt>
      <trkpt lat="45.91381" lon="6.50457">
        <ele>2142.1999511719</ele>
        <time>2014-02-12T10:30:47.000Z</time>
      </trkpt>
      <trkpt lat="45.91381" lon="6.50457">
        <ele>2142.1999511719</ele>
        <time>2014-02-12T10:30:48.000Z</time>
      </trkpt>
      <trkpt lat="45.91381" lon="6.50457">
        <ele>2142.1999511719</ele>
        <time>2014-02-12T10:30:50.000Z</time>
      </trkpt>
      <trkpt lat="45.91381" lon="6.50457">
        <ele>2142.1999511719</ele>
        <time>2014-02-12T10:30:51.000Z</time>
      </trkpt>
      <trkpt lat="45.91381" lon="6.50457">
        <ele>2142.1999511719</ele>
        <time>2014-02-12T10:30:52.000Z</time>
      </trkpt>
      <trkpt lat="45.91381" lon="6.50457">
        <ele>2142.1999511719</ele>
        <time>2014-02-12T10:30:53.000Z</time>
      </trkpt>
      <trkpt lat="45.91381" lon="6.50457">
        <ele>2142.1999511719</ele>
        <time>2014-02-12T10:30:54.000Z</time>
      </trkpt>
      <trkpt lat="45.91381" lon="6.50457">
        <ele>2142.1999511719</ele>
        <time>2014-02-12T10:30:55.000Z</time>
      </trkpt>
      <trkpt lat="45.91381" lon="6.50457">
        <ele>2142.1999511719</ele>
        <time>2014-02-12T10:30:56.000Z</time>
      </trkpt>
      <trkpt lat="45.91381" lon="6.50457">
        <ele>2142.1999511719</ele>
        <time>2014-02-12T10:30:57.000Z</time>
      </trkpt>
      <trkpt lat="45.91381" lon="6.50456">
        <ele>2141.8000488281</ele>
        <time>2014-02-12T10:30:58.000Z</time>
      </trkpt>
      <trkpt lat="45.91382" lon="6.50451">
        <ele>2139.6000976562</ele>
        <time>2014-02-12T10:30:59.000Z</time>
      </trkpt>
      <trkpt lat="45.91384" lon="6.50448">
        <ele>2137.8000488281</ele>
        <time>2014-02-12T10:31:00.000Z</time>
      </trkpt>
      <trkpt lat="45.91387" lon="6.50446">
        <ele>2136</ele>
        <time>2014-02-12T10:31:01.000Z</time>
      </trkpt>
      <trkpt lat="45.91388" lon="6.50443">
        <ele>2134.1999511719</ele>
        <time>2014-02-12T10:31:02.000Z</time>
      </trkpt>
      <trkpt lat="45.9139" lon="6.50439">
        <ele>2132.1999511719</ele>
        <time>2014-02-12T10:31:03.000Z</time>
      </trkpt>
      <trkpt lat="45.91392" lon="6.50437">
        <ele>2130.1999511719</ele>
        <time>2014-02-12T10:31:04.000Z</time>
      </trkpt>
      <trkpt lat="45.91393" lon="6.50431">
        <ele>2127.8000488281</ele>
        <time>2014-02-12T10:31:05.000Z</time>
      </trkpt>
      <trkpt lat="45.91395" lon="6.50427">
        <ele>2125.1999511719</ele>
        <time>2014-02-12T10:31:06.000Z</time>
      </trkpt>
      <trkpt lat="45.91394" lon="6.50422">
        <ele>2123.6000976562</ele>
        <time>2014-02-12T10:31:07.000Z</time>
      </trkpt>
      <trkpt lat="45.91393" lon="6.50419">
        <ele>2122.6000976562</ele>
        <time>2014-02-12T10:31:08.000Z</time>
      </trkpt>
      <trkpt lat="45.91394" lon="6.50415">
        <ele>2120.8000488281</ele>
        <time>2014-02-12T10:31:09.000Z</time>
      </trkpt>
      <trkpt lat="45.91393" lon="6.50412">
        <ele>2119.8000488281</ele>
        <time>2014-02-12T10:31:10.000Z</time>
      </trkpt>
      <trkpt lat="45.91393" lon="6.50412">
        <ele>2119.8000488281</ele>
        <time>2014-02-12T10:31:11.000Z</time>
      </trkpt>
      <trkpt lat="45.91393" lon="6.50412">
        <ele>2119.8000488281</ele>
        <time>2014-02-12T10:31:12.000Z</time>
      </trkpt>
      <trkpt lat="45.91393" lon="6.5041">
        <ele>2119.1999511719</ele>
        <time>2014-02-12T10:31:13.000Z</time>
      </trkpt>
      <trkpt lat="45.91393" lon="6.50402">
        <ele>2115.8000488281</ele>
        <time>2014-02-12T10:31:14.000Z</time>
      </trkpt>
      <trkpt lat="45.91391" lon="6.50394">
        <ele>2114.1999511719</ele>
        <time>2014-02-12T10:31:15.000Z</time>
      </trkpt>
      <trkpt lat="45.91392" lon="6.50386">
        <ele>2112.1999511719</ele>
        <time>2014-02-12T10:31:16.000Z</time>
      </trkpt>
      <trkpt lat="45.91395" lon="6.50381">
        <ele>2109.8000488281</ele>
        <time>2014-02-12T10:31:17.000Z</time>
      </trkpt>
      <trkpt lat="45.91397" lon="6.50372">
        <ele>2107</ele>
        <time>2014-02-12T10:31:18.000Z</time>
      </trkpt>
      <trkpt lat="45.91397" lon="6.50363">
        <ele>2104.6000976562</ele>
        <time>2014-02-12T10:31:19.000Z</time>
      </trkpt>
      <trkpt lat="45.91399" lon="6.50358">
        <ele>2102.8000488281</ele>
        <time>2014-02-12T10:31:20.000Z</time>
      </trkpt>
      <trkpt lat="45.91403" lon="6.50356">
        <ele>2101.1999511719</ele>
        <time>2014-02-12T10:31:21.000Z</time>
      </trkpt>
      <trkpt lat="45.91406" lon="6.50357">
        <ele>2100.1999511719</ele>
        <time>2014-02-12T10:31:22.000Z</time>
      </trkpt>
      <trkpt lat="45.91409" lon="6.50358">
        <ele>2099.1999511719</ele>
        <time>2014-02-12T10:31:23.000Z</time>
      </trkpt>
      <trkpt lat="45.91413" lon="6.50354">
        <ele>2097.1999511719</ele>
        <time>2014-02-12T10:31:24.000Z</time>
      </trkpt>
      <trkpt lat="45.91416" lon="6.50352">
        <ele>2095.3999023438</ele>
        <time>2014-02-12T10:31:25.000Z</time>
      </trkpt>
      <trkpt lat="45.9142" lon="6.50349">
        <ele>2093.3999023438</ele>
        <time>2014-02-12T10:31:26.000Z</time>
      </trkpt>
      <trkpt lat="45.91424" lon="6.50346">
        <ele>2091.1999511719</ele>
        <time>2014-02-12T10:31:27.000Z</time>
      </trkpt>
      <trkpt lat="45.91427" lon="6.50341">
        <ele>2088.6000976562</ele>
        <time>2014-02-12T10:31:28.000Z</time>
      </trkpt>
      <trkpt lat="45.9143" lon="6.50336">
        <ele>2085.8000488281</ele>
        <time>2014-02-12T10:31:29.000Z</time>
      </trkpt>
      <trkpt lat="45.91433" lon="6.50328">
        <ele>2082.6000976562</ele>
        <time>2014-02-12T10:31:30.000Z</time>
      </trkpt>
      <trkpt lat="45.91435" lon="6.50319">
        <ele>2079.1999511719</ele>
        <time>2014-02-12T10:31:31.000Z</time>
      </trkpt>
      <trkpt lat="45.91438" lon="6.50309">
        <ele>2076.8000488281</ele>
        <time>2014-02-12T10:31:32.000Z</time>
      </trkpt>
      <trkpt lat="45.91439" lon="6.50302">
        <ele>2075.3999023438</ele>
        <time>2014-02-12T10:31:33.000Z</time>
      </trkpt>
      <trkpt lat="45.91441" lon="6.50294">
        <ele>2073.6000976562</ele>
        <time>2014-02-12T10:31:34.000Z</time>
      </trkpt>
      <trkpt lat="45.91443" lon="6.50287">
        <ele>2072</ele>
        <time>2014-02-12T10:31:35.000Z</time>
      </trkpt>
      <trkpt lat="45.91447" lon="6.50281">
        <ele>2069.3999023438</ele>
        <time>2014-02-12T10:31:36.000Z</time>
      </trkpt>
      <trkpt lat="45.91449" lon="6.50274">
        <ele>2067</ele>
        <time>2014-02-12T10:31:37.000Z</time>
      </trkpt>
      <trkpt lat="45.91453" lon="6.50266">
        <ele>2063.8000488281</ele>
        <time>2014-02-12T10:31:38.000Z</time>
      </trkpt>
      <trkpt lat="45.91454" lon="6.50257">
        <ele>2061.3999023438</ele>
        <time>2014-02-12T10:31:39.000Z</time>
      </trkpt>
      <trkpt lat="45.91457" lon="6.5025">
        <ele>2058.8000488281</ele>
        <time>2014-02-12T10:31:40.000Z</time>
      </trkpt>
      <trkpt lat="45.9146" lon="6.50242">
        <ele>2055.8000488281</ele>
        <time>2014-02-12T10:31:41.000Z</time>
      </trkpt>
      <trkpt lat="45.91464" lon="6.50233">
        <ele>2052.1999511719</ele>
        <time>2014-02-12T10:31:42.000Z</time>
      </trkpt>
      <trkpt lat="45.91469" lon="6.50224">
        <ele>2047.8000488281</ele>
        <time>2014-02-12T10:31:43.000Z</time>
      </trkpt>
      <trkpt lat="45.91473" lon="6.50213">
        <ele>2042.4000244141</ele>
        <time>2014-02-12T10:31:44.000Z</time>
      </trkpt>
      <trkpt lat="45.91477" lon="6.50202">
        <ele>2039.1999511719</ele>
        <time>2014-02-12T10:31:45.000Z</time>
      </trkpt>
      <trkpt lat="45.91479" lon="6.5019">
        <ele>2036</ele>
        <time>2014-02-12T10:31:46.000Z</time>
      </trkpt>
      <trkpt lat="45.91478" lon="6.50179">
        <ele>2032.8000488281</ele>
        <time>2014-02-12T10:31:47.000Z</time>
      </trkpt>
      <trkpt lat="45.91477" lon="6.50171">
        <ele>2030.8000488281</ele>
        <time>2014-02-12T10:31:48.000Z</time>
      </trkpt>
      <trkpt lat="45.91479" lon="6.50167">
        <ele>2029.5999755859</ele>
        <time>2014-02-12T10:31:49.000Z</time>
      </trkpt>
      <trkpt lat="45.91479" lon="6.50165">
        <ele>2029</ele>
        <time>2014-02-12T10:31:50.000Z</time>
      </trkpt>
      <trkpt lat="45.9148" lon="6.50162">
        <ele>2028.1999511719</ele>
        <time>2014-02-12T10:31:51.000Z</time>
      </trkpt>
      <trkpt lat="45.9148" lon="6.50161">
        <ele>2027.8000488281</ele>
        <time>2014-02-12T10:31:52.000Z</time>
      </trkpt>
      <trkpt lat="45.91481" lon="6.50161">
        <ele>2027.8000488281</ele>
        <time>2014-02-12T10:31:53.000Z</time>
      </trkpt>
      <trkpt lat="45.9148" lon="6.50159">
        <ele>2027.4000244141</ele>
        <time>2014-02-12T10:31:54.000Z</time>
      </trkpt>
      <trkpt lat="45.9148" lon="6.50158">
        <ele>2027</ele>
        <time>2014-02-12T10:31:55.000Z</time>
      </trkpt>
      <trkpt lat="45.9148" lon="6.50157">
        <ele>2026.5999755859</ele>
        <time>2014-02-12T10:31:56.000Z</time>
      </trkpt>
      <trkpt lat="45.9148" lon="6.50156">
        <ele>2026.5999755859</ele>
        <time>2014-02-12T10:31:57.000Z</time>
      </trkpt>
      <trkpt lat="45.9148" lon="6.50155">
        <ele>2026.4000244141</ele>
        <time>2014-02-12T10:31:58.000Z</time>
      </trkpt>
      <trkpt lat="45.9148" lon="6.50155">
        <ele>2026.4000244141</ele>
        <time>2014-02-12T10:31:59.000Z</time>
      </trkpt>
      <trkpt lat="45.9148" lon="6.50155">
        <ele>2026.4000244141</ele>
        <time>2014-02-12T10:32:02.000Z</time>
      </trkpt>
      <trkpt lat="45.9148" lon="6.50155">
        <ele>2026.4000244141</ele>
        <time>2014-02-12T10:32:04.000Z</time>
      </trkpt>
      <trkpt lat="45.9148" lon="6.50155">
        <ele>2026.4000244141</ele>
        <time>2014-02-12T10:32:05.000Z</time>
      </trkpt>
      <trkpt lat="45.9148" lon="6.50155">
        <ele>2026.4000244141</ele>
        <time>2014-02-12T10:32:06.000Z</time>
      </trkpt>
      <trkpt lat="45.9148" lon="6.50155">
        <ele>2026.4000244141</ele>
        <time>2014-02-12T10:32:07.000Z</time>
      </trkpt>
      <trkpt lat="45.9148" lon="6.50155">
        <ele>2026.4000244141</ele>
        <time>2014-02-12T10:32:08.000Z</time>
      </trkpt>
      <trkpt lat="45.9148" lon="6.50155">
        <ele>2026.4000244141</ele>
        <time>2014-02-12T10:32:09.000Z</time>
      </trkpt>
      <trkpt lat="45.9148" lon="6.50155">
        <ele>2026.4000244141</ele>
        <time>2014-02-12T10:32:10.000Z</time>
      </trkpt>
      <trkpt lat="45.9148" lon="6.50155">
        <ele>2026.4000244141</ele>
        <time>2014-02-12T10:32:11.000Z</time>
      </trkpt>
      <trkpt lat="45.9148" lon="6.50155">
        <ele>2026.4000244141</ele>
        <time>2014-02-12T10:32:12.000Z</time>
      </trkpt>
      <trkpt lat="45.9148" lon="6.50155">
        <ele>2026.4000244141</ele>
        <time>2014-02-12T10:32:13.000Z</time>
      </trkpt>
      <trkpt lat="45.9148" lon="6.50155">
        <ele>2026.4000244141</ele>
        <time>2014-02-12T10:32:14.000Z</time>
      </trkpt>
      <trkpt lat="45.9148" lon="6.50155">
        <ele>2026.4000244141</ele>
        <time>2014-02-12T10:32:15.000Z</time>
      </trkpt>
      <trkpt lat="45.9148" lon="6.50155">
        <ele>2026.4000244141</ele>
        <time>2014-02-12T10:32:16.000Z</time>
      </trkpt>
      <trkpt lat="45.9148" lon="6.50155">
        <ele>2026.4000244141</ele>
        <time>2014-02-12T10:32:17.000Z</time>
      </trkpt>
      <trkpt lat="45.9148" lon="6.50155">
        <ele>2026.4000244141</ele>
        <time>2014-02-12T10:32:18.000Z</time>
      </trkpt>
      <trkpt lat="45.9148" lon="6.50155">
        <ele>2026.4000244141</ele>
        <time>2014-02-12T10:32:19.000Z</time>
      </trkpt>
      <trkpt lat="45.9148" lon="6.50155">
        <ele>2026.4000244141</ele>
        <time>2014-02-12T10:32:20.000Z</time>
      </trkpt>
      <trkpt lat="45.9148" lon="6.50155">
        <ele>2026.4000244141</ele>
        <time>2014-02-12T10:32:21.000Z</time>
      </trkpt>
      <trkpt lat="45.9148" lon="6.50155">
        <ele>2026.4000244141</ele>
        <time>2014-02-12T10:32:22.000Z</time>
      </trkpt>
      <trkpt lat="45.9148" lon="6.50155">
        <ele>2026.4000244141</ele>
        <time>2014-02-12T10:32:23.000Z</time>
      </trkpt>
      <trkpt lat="45.9148" lon="6.50155">
        <ele>2026.4000244141</ele>
        <time>2014-02-12T10:32:24.000Z</time>
      </trkpt>
      <trkpt lat="45.9148" lon="6.50155">
        <ele>2026.4000244141</ele>
        <time>2014-02-12T10:32:25.000Z</time>
      </trkpt>
      <trkpt lat="45.9148" lon="6.50155">
        <ele>2026.4000244141</ele>
        <time>2014-02-12T10:32:26.000Z</time>
      </trkpt>
      <trkpt lat="45.9148" lon="6.50155">
        <ele>2026.4000244141</ele>
        <time>2014-02-12T10:32:27.000Z</time>
      </trkpt>
      <trkpt lat="45.9148" lon="6.50154">
        <ele>2026.1999511719</ele>
        <time>2014-02-12T10:32:28.000Z</time>
      </trkpt>
      <trkpt lat="45.91478" lon="6.50157">
        <ele>2026.8000488281</ele>
        <time>2014-02-12T10:32:29.000Z</time>
      </trkpt>
      <trkpt lat="45.91477" lon="6.50158">
        <ele>2027</ele>
        <time>2014-02-12T10:32:30.000Z</time>
      </trkpt>
      <trkpt lat="45.91477" lon="6.5016">
        <ele>2027.8000488281</ele>
        <time>2014-02-12T10:32:31.000Z</time>
      </trkpt>
      <trkpt lat="45.91478" lon="6.50161">
        <ele>2028</ele>
        <time>2014-02-12T10:32:32.000Z</time>
      </trkpt>
      <trkpt lat="45.91478" lon="6.5016">
        <ele>2027.8000488281</ele>
        <time>2014-02-12T10:32:33.000Z</time>
      </trkpt>
      <trkpt lat="45.91476" lon="6.50158">
        <ele>2027</ele>
        <time>2014-02-12T10:32:34.000Z</time>
      </trkpt>
      <trkpt lat="45.91475" lon="6.50155">
        <ele>2026.4000244141</ele>
        <time>2014-02-12T10:32:35.000Z</time>
      </trkpt>
      <trkpt lat="45.91474" lon="6.50152">
        <ele>2025.5999755859</ele>
        <time>2014-02-12T10:32:36.000Z</time>
      </trkpt>
      <trkpt lat="45.91473" lon="6.5015">
        <ele>2025.4000244141</ele>
        <time>2014-02-12T10:32:37.000Z</time>
      </trkpt>
      <trkpt lat="45.91472" lon="6.50147">
        <ele>2025.4000244141</ele>
        <time>2014-02-12T10:32:38.000Z</time>
      </trkpt>
      <trkpt lat="45.91471" lon="6.50145">
        <ele>2025.5999755859</ele>
        <time>2014-02-12T10:32:39.000Z</time>
      </trkpt>
      <trkpt lat="45.9147" lon="6.50142">
        <ele>2025.4000244141</ele>
        <time>2014-02-12T10:32:40.000Z</time>
      </trkpt>
      <trkpt lat="45.91469" lon="6.50138">
        <ele>2025.4000244141</ele>
        <time>2014-02-12T10:32:41.000Z</time>
      </trkpt>
      <trkpt lat="45.91469" lon="6.50136">
        <ele>2025.1999511719</ele>
        <time>2014-02-12T10:32:42.000Z</time>
      </trkpt>
      <trkpt lat="45.91468" lon="6.50133">
        <ele>2025</ele>
        <time>2014-02-12T10:32:43.000Z</time>
      </trkpt>
      <trkpt lat="45.9147" lon="6.5013">
        <ele>2024.1999511719</ele>
        <time>2014-02-12T10:32:44.000Z</time>
      </trkpt>
      <trkpt lat="45.9147" lon="6.50129">
        <ele>2023.5999755859</ele>
        <time>2014-02-12T10:32:45.000Z</time>
      </trkpt>
      <trkpt lat="45.91472" lon="6.50122">
        <ele>2022.1999511719</ele>
        <time>2014-02-12T10:32:46.000Z</time>
      </trkpt>
      <trkpt lat="45.91472" lon="6.50117">
        <ele>2021.4000244141</ele>
        <time>2014-02-12T10:32:47.000Z</time>
      </trkpt>
      <trkpt lat="45.91473" lon="6.50114">
        <ele>2020.4000244141</ele>
        <time>2014-02-12T10:32:48.000Z</time>
      </trkpt>
      <trkpt lat="45.91476" lon="6.50109">
        <ele>2019.5999755859</ele>
        <time>2014-02-12T10:32:49.000Z</time>
      </trkpt>
      <trkpt lat="45.91477" lon="6.50103">
        <ele>2018.8000488281</ele>
        <time>2014-02-12T10:32:50.000Z</time>
      </trkpt>
      <trkpt lat="45.91479" lon="6.50098">
        <ele>2018.1999511719</ele>
        <time>2014-02-12T10:32:51.000Z</time>
      </trkpt>
      <trkpt lat="45.91483" lon="6.50093">
        <ele>2017.5999755859</ele>
        <time>2014-02-12T10:32:52.000Z</time>
      </trkpt>
      <trkpt lat="45.91485" lon="6.50085">
        <ele>2016.5999755859</ele>
        <time>2014-02-12T10:32:53.000Z</time>
      </trkpt>
      <trkpt lat="45.91488" lon="6.50077">
        <ele>2014.4000244141</ele>
        <time>2014-02-12T10:32:54.000Z</time>
      </trkpt>
      <trkpt lat="45.91491" lon="6.50066">
        <ele>2009</ele>
        <time>2014-02-12T10:32:55.000Z</time>
      </trkpt>
      <trkpt lat="45.91492" lon="6.50056">
        <ele>2007</ele>
        <time>2014-02-12T10:32:56.000Z</time>
      </trkpt>
      <trkpt lat="45.91491" lon="6.50046">
        <ele>2005.8000488281</ele>
        <time>2014-02-12T10:32:57.000Z</time>
      </trkpt>
      <trkpt lat="45.91489" lon="6.50036">
        <ele>2004.8000488281</ele>
        <time>2014-02-12T10:32:58.000Z</time>
      </trkpt>
      <trkpt lat="45.91487" lon="6.50028">
        <ele>2004</ele>
        <time>2014-02-12T10:32:59.000Z</time>
      </trkpt>
      <trkpt lat="45.91486" lon="6.50019">
        <ele>2003.1999511719</ele>
        <time>2014-02-12T10:33:00.000Z</time>
      </trkpt>
      <trkpt lat="45.91485" lon="6.50011">
        <ele>2002</ele>
        <time>2014-02-12T10:33:01.000Z</time>
      </trkpt>
      <trkpt lat="45.91487" lon="6.50002">
        <ele>2000.1999511719</ele>
        <time>2014-02-12T10:33:02.000Z</time>
      </trkpt>
      <trkpt lat="45.91488" lon="6.49993">
        <ele>1997.5999755859</ele>
        <time>2014-02-12T10:33:03.000Z</time>
      </trkpt>
      <trkpt lat="45.91491" lon="6.49982">
        <ele>1993.5999755859</ele>
        <time>2014-02-12T10:33:04.000Z</time>
      </trkpt>
      <trkpt lat="45.91493" lon="6.4997">
        <ele>1994.5999755859</ele>
        <time>2014-02-12T10:33:05.000Z</time>
      </trkpt>
      <trkpt lat="45.91495" lon="6.49959">
        <ele>1995.5999755859</ele>
        <time>2014-02-12T10:33:06.000Z</time>
      </trkpt>
      <trkpt lat="45.91496" lon="6.49948">
        <ele>1997</ele>
        <time>2014-02-12T10:33:07.000Z</time>
      </trkpt>
      <trkpt lat="45.91497" lon="6.49939">
        <ele>1998.1999511719</ele>
        <time>2014-02-12T10:33:08.000Z</time>
      </trkpt>
      <trkpt lat="45.91498" lon="6.49929">
        <ele>1999.4000244141</ele>
        <time>2014-02-12T10:33:09.000Z</time>
      </trkpt>
      <trkpt lat="45.91499" lon="6.4992">
        <ele>2000</ele>
        <time>2014-02-12T10:33:10.000Z</time>
      </trkpt>
      <trkpt lat="45.91499" lon="6.49912">
        <ele>1999.8000488281</ele>
        <time>2014-02-12T10:33:11.000Z</time>
      </trkpt>
      <trkpt lat="45.91503" lon="6.49905">
        <ele>1998</ele>
        <time>2014-02-12T10:33:12.000Z</time>
      </trkpt>
      <trkpt lat="45.91508" lon="6.49897">
        <ele>1997</ele>
        <time>2014-02-12T10:33:13.000Z</time>
      </trkpt>
      <trkpt lat="45.91512" lon="6.49889">
        <ele>1999</ele>
        <time>2014-02-12T10:33:14.000Z</time>
      </trkpt>
      <trkpt lat="45.91517" lon="6.4988">
        <ele>2001.1999511719</ele>
        <time>2014-02-12T10:33:15.000Z</time>
      </trkpt>
      <trkpt lat="45.91519" lon="6.49872">
        <ele>2004</ele>
        <time>2014-02-12T10:33:16.000Z</time>
      </trkpt>
      <trkpt lat="45.91521" lon="6.49864">
        <ele>2007.1999511719</ele>
        <time>2014-02-12T10:33:17.000Z</time>
      </trkpt>
      <trkpt lat="45.91521" lon="6.49858">
        <ele>2007.5999755859</ele>
        <time>2014-02-12T10:33:18.000Z</time>
      </trkpt>
      <trkpt lat="45.9152" lon="6.49853">
        <ele>2008.4000244141</ele>
        <time>2014-02-12T10:33:19.000Z</time>
      </trkpt>
      <trkpt lat="45.9152" lon="6.49851">
        <ele>2009.1999511719</ele>
        <time>2014-02-12T10:33:20.000Z</time>
      </trkpt>
      <trkpt lat="45.91519" lon="6.49849">
        <ele>2010.4000244141</ele>
        <time>2014-02-12T10:33:21.000Z</time>
      </trkpt>
      <trkpt lat="45.91518" lon="6.49847">
        <ele>2011.4000244141</ele>
        <time>2014-02-12T10:33:22.000Z</time>
      </trkpt>
      <trkpt lat="45.91517" lon="6.49845">
        <ele>2012.1999511719</ele>
        <time>2014-02-12T10:33:23.000Z</time>
      </trkpt>
      <trkpt lat="45.91516" lon="6.49843">
        <ele>2013</ele>
        <time>2014-02-12T10:33:24.000Z</time>
      </trkpt>
      <trkpt lat="45.91516" lon="6.49842">
        <ele>2013.4000244141</ele>
        <time>2014-02-12T10:33:25.000Z</time>
      </trkpt>
      <trkpt lat="45.91515" lon="6.49841">
        <ele>2014</ele>
        <time>2014-02-12T10:33:26.000Z</time>
      </trkpt>
      <trkpt lat="45.91515" lon="6.49842">
        <ele>2014.1999511719</ele>
        <time>2014-02-12T10:33:27.000Z</time>
      </trkpt>
      <trkpt lat="45.91515" lon="6.49842">
        <ele>2014.1999511719</ele>
        <time>2014-02-12T10:33:28.000Z</time>
      </trkpt>
      <trkpt lat="45.91515" lon="6.49842">
        <ele>2014.1999511719</ele>
        <time>2014-02-12T10:33:29.000Z</time>
      </trkpt>
      <trkpt lat="45.91515" lon="6.49842">
        <ele>2014.1999511719</ele>
        <time>2014-02-12T10:33:30.000Z</time>
      </trkpt>
      <trkpt lat="45.91515" lon="6.49842">
        <ele>2014.1999511719</ele>
        <time>2014-02-12T10:33:33.000Z</time>
      </trkpt>
      <trkpt lat="45.91515" lon="6.49842">
        <ele>2014.1999511719</ele>
        <time>2014-02-12T10:33:34.000Z</time>
      </trkpt>
      <trkpt lat="45.91515" lon="6.49842">
        <ele>2014.1999511719</ele>
        <time>2014-02-12T10:33:35.000Z</time>
      </trkpt>
      <trkpt lat="45.91515" lon="6.49842">
        <ele>2014.1999511719</ele>
        <time>2014-02-12T10:33:36.000Z</time>
      </trkpt>
      <trkpt lat="45.91515" lon="6.49842">
        <ele>2014.1999511719</ele>
        <time>2014-02-12T10:33:37.000Z</time>
      </trkpt>
      <trkpt lat="45.91515" lon="6.49842">
        <ele>2014.1999511719</ele>
        <time>2014-02-12T10:33:38.000Z</time>
      </trkpt>
      <trkpt lat="45.91515" lon="6.49842">
        <ele>2014.1999511719</ele>
        <time>2014-02-12T10:33:41.000Z</time>
      </trkpt>
      <trkpt lat="45.91515" lon="6.49842">
        <ele>2014.1999511719</ele>
        <time>2014-02-12T10:33:42.000Z</time>
      </trkpt>
      <trkpt lat="45.91515" lon="6.49842">
        <ele>2014.1999511719</ele>
        <time>2014-02-12T10:33:46.000Z</time>
      </trkpt>
      <trkpt lat="45.91515" lon="6.49842">
        <ele>2014.1999511719</ele>
        <time>2014-02-12T10:33:50.000Z</time>
      </trkpt>
      <trkpt lat="45.91515" lon="6.49842">
        <ele>2014.1999511719</ele>
        <time>2014-02-12T10:33:51.000Z</time>
      </trkpt>
      <trkpt lat="45.91515" lon="6.49842">
        <ele>2014.1999511719</ele>
        <time>2014-02-12T10:33:52.000Z</time>
      </trkpt>
      <trkpt lat="45.91515" lon="6.49842">
        <ele>2014.1999511719</ele>
        <time>2014-02-12T10:33:53.000Z</time>
      </trkpt>
      <trkpt lat="45.91515" lon="6.49842">
        <ele>2014.1999511719</ele>
        <time>2014-02-12T10:33:55.000Z</time>
      </trkpt>
      <trkpt lat="45.91515" lon="6.49842">
        <ele>2014.1999511719</ele>
        <time>2014-02-12T10:33:56.000Z</time>
      </trkpt>
      <trkpt lat="45.91515" lon="6.49842">
        <ele>2014.1999511719</ele>
        <time>2014-02-12T10:33:57.000Z</time>
      </trkpt>
      <trkpt lat="45.91515" lon="6.49842">
        <ele>2014.1999511719</ele>
        <time>2014-02-12T10:33:58.000Z</time>
      </trkpt>
      <trkpt lat="45.91515" lon="6.49842">
        <ele>2014.1999511719</ele>
        <time>2014-02-12T10:33:59.000Z</time>
      </trkpt>
      <trkpt lat="45.91515" lon="6.49842">
        <ele>2014.1999511719</ele>
        <time>2014-02-12T10:34:02.000Z</time>
      </trkpt>
      <trkpt lat="45.91515" lon="6.49842">
        <ele>2014.1999511719</ele>
        <time>2014-02-12T10:34:03.000Z</time>
      </trkpt>
      <trkpt lat="45.91515" lon="6.49842">
        <ele>2014.1999511719</ele>
        <time>2014-02-12T10:34:04.000Z</time>
      </trkpt>
      <trkpt lat="45.91515" lon="6.49843">
        <ele>2014.4000244141</ele>
        <time>2014-02-12T10:34:05.000Z</time>
      </trkpt>
      <trkpt lat="45.91516" lon="6.49848">
        <ele>2013.1999511719</ele>
        <time>2014-02-12T10:34:06.000Z</time>
      </trkpt>
      <trkpt lat="45.91518" lon="6.4985">
        <ele>2010.8000488281</ele>
        <time>2014-02-12T10:34:07.000Z</time>
      </trkpt>
      <trkpt lat="45.91522" lon="6.49853">
        <ele>2006.5999755859</ele>
        <time>2014-02-12T10:34:08.000Z</time>
      </trkpt>
      <trkpt lat="45.91528" lon="6.49853">
        <ele>2000.5999755859</ele>
        <time>2014-02-12T10:34:09.000Z</time>
      </trkpt>
      <trkpt lat="45.91533" lon="6.49855">
        <ele>1995.5999755859</ele>
        <time>2014-02-12T10:34:10.000Z</time>
      </trkpt>
      <trkpt lat="45.91538" lon="6.49855">
        <ele>1990</ele>
        <time>2014-02-12T10:34:11.000Z</time>
      </trkpt>
      <trkpt lat="45.91546" lon="6.49858">
        <ele>1981.4000244141</ele>
        <time>2014-02-12T10:34:12.000Z</time>
      </trkpt>
      <trkpt lat="45.91552" lon="6.49858">
        <ele>1975</ele>
        <time>2014-02-12T10:34:13.000Z</time>
      </trkpt>
      <trkpt lat="45.91556" lon="6.49854">
        <ele>1970.5999755859</ele>
        <time>2014-02-12T10:34:14.000Z</time>
      </trkpt>
      <trkpt lat="45.91561" lon="6.49849">
        <ele>1966.5999755859</ele>
        <time>2014-02-12T10:34:15.000Z</time>
      </trkpt>
      <trkpt lat="45.91566" lon="6.49844">
        <ele>1962.8000488281</ele>
        <time>2014-02-12T10:34:16.000Z</time>
      </trkpt>
      <trkpt lat="45.9157" lon="6.49839">
        <ele>1959.5999755859</ele>
        <time>2014-02-12T10:34:17.000Z</time>
      </trkpt>
      <trkpt lat="45.91575" lon="6.49833">
        <ele>1956</ele>
        <time>2014-02-12T10:34:18.000Z</time>
      </trkpt>
      <trkpt lat="45.91575" lon="6.49826">
        <ele>1954.1999511719</ele>
        <time>2014-02-12T10:34:19.000Z</time>
      </trkpt>
      <trkpt lat="45.91577" lon="6.49826">
        <ele>1952.1999511719</ele>
        <time>2014-02-12T10:34:20.000Z</time>
      </trkpt>
      <trkpt lat="45.9158" lon="6.49825">
        <ele>1949.5999755859</ele>
        <time>2014-02-12T10:34:21.000Z</time>
      </trkpt>
      <trkpt lat="45.91582" lon="6.4982">
        <ele>1946</ele>
        <time>2014-02-12T10:34:22.000Z</time>
      </trkpt>
      <trkpt lat="45.91586" lon="6.49815">
        <ele>1941.5999755859</ele>
        <time>2014-02-12T10:34:23.000Z</time>
      </trkpt>
      <trkpt lat="45.91591" lon="6.49814">
        <ele>1936.1999511719</ele>
        <time>2014-02-12T10:34:24.000Z</time>
      </trkpt>
      <trkpt lat="45.91594" lon="6.49812">
        <ele>1932.1999511719</ele>
        <time>2014-02-12T10:34:25.000Z</time>
      </trkpt>
      <trkpt lat="45.91598" lon="6.49807">
        <ele>1927.4000244141</ele>
        <time>2014-02-12T10:34:26.000Z</time>
      </trkpt>
      <trkpt lat="45.91604" lon="6.49803">
        <ele>1921.5999755859</ele>
        <time>2014-02-12T10:34:27.000Z</time>
      </trkpt>
      <trkpt lat="45.91606" lon="6.49795">
        <ele>1918.5999755859</ele>
        <time>2014-02-12T10:34:28.000Z</time>
      </trkpt>
      <trkpt lat="45.91606" lon="6.49786">
        <ele>1916.5999755859</ele>
        <time>2014-02-12T10:34:29.000Z</time>
      </trkpt>
      <trkpt lat="45.91606" lon="6.49775">
        <ele>1915.4000244141</ele>
        <time>2014-02-12T10:34:30.000Z</time>
      </trkpt>
      <trkpt lat="45.91606" lon="6.49767">
        <ele>1915.1999511719</ele>
        <time>2014-02-12T10:34:31.000Z</time>
      </trkpt>
      <trkpt lat="45.91605" lon="6.49761">
        <ele>1915.4000244141</ele>
        <time>2014-02-12T10:34:32.000Z</time>
      </trkpt>
      <trkpt lat="45.91605" lon="6.49751">
        <ele>1914.1999511719</ele>
        <time>2014-02-12T10:34:33.000Z</time>
      </trkpt>
      <trkpt lat="45.91604" lon="6.49738">
        <ele>1913.5999755859</ele>
        <time>2014-02-12T10:34:34.000Z</time>
      </trkpt>
      <trkpt lat="45.91602" lon="6.49723">
        <ele>1919.4000244141</ele>
        <time>2014-02-12T10:34:35.000Z</time>
      </trkpt>
      <trkpt lat="45.91606" lon="6.49713">
        <ele>1920.8000488281</ele>
        <time>2014-02-12T10:34:36.000Z</time>
      </trkpt>
      <trkpt lat="45.91607" lon="6.49704">
        <ele>1923.1999511719</ele>
        <time>2014-02-12T10:34:37.000Z</time>
      </trkpt>
      <trkpt lat="45.91606" lon="6.49696">
        <ele>1927.5999755859</ele>
        <time>2014-02-12T10:34:38.000Z</time>
      </trkpt>
      <trkpt lat="45.91603" lon="6.49691">
        <ele>1931.4000244141</ele>
        <time>2014-02-12T10:34:39.000Z</time>
      </trkpt>
      <trkpt lat="45.91601" lon="6.49686">
        <ele>1935.1999511719</ele>
        <time>2014-02-12T10:34:40.000Z</time>
      </trkpt>
      <trkpt lat="45.91599" lon="6.49684">
        <ele>1938.1999511719</ele>
        <time>2014-02-12T10:34:41.000Z</time>
      </trkpt>
      <trkpt lat="45.91597" lon="6.49681">
        <ele>1941.1999511719</ele>
        <time>2014-02-12T10:34:42.000Z</time>
      </trkpt>
      <trkpt lat="45.91596" lon="6.49679">
        <ele>1943</ele>
        <time>2014-02-12T10:34:43.000Z</time>
      </trkpt>
      <trkpt lat="45.91596" lon="6.49677">
        <ele>1942.8000488281</ele>
        <time>2014-02-12T10:34:44.000Z</time>
      </trkpt>
      <trkpt lat="45.91597" lon="6.49677">
        <ele>1941.5999755859</ele>
        <time>2014-02-12T10:34:45.000Z</time>
      </trkpt>
      <trkpt lat="45.91597" lon="6.49677">
        <ele>1941.5999755859</ele>
        <time>2014-02-12T10:34:46.000Z</time>
      </trkpt>
      <trkpt lat="45.91597" lon="6.49676">
        <ele>1941.4000244141</ele>
        <time>2014-02-12T10:34:47.000Z</time>
      </trkpt>
      <trkpt lat="45.91598" lon="6.49676">
        <ele>1940.5999755859</ele>
        <time>2014-02-12T10:34:48.000Z</time>
      </trkpt>
      <trkpt lat="45.91598" lon="6.49676">
        <ele>1940.5999755859</ele>
        <time>2014-02-12T10:34:49.000Z</time>
      </trkpt>
      <trkpt lat="45.91598" lon="6.49676">
        <ele>1940.5999755859</ele>
        <time>2014-02-12T10:34:50.000Z</time>
      </trkpt>
      <trkpt lat="45.91598" lon="6.49676">
        <ele>1940.5999755859</ele>
        <time>2014-02-12T10:34:51.000Z</time>
      </trkpt>
      <trkpt lat="45.91598" lon="6.49676">
        <ele>1940.5999755859</ele>
        <time>2014-02-12T10:34:52.000Z</time>
      </trkpt>
      <trkpt lat="45.91598" lon="6.49676">
        <ele>1940.5999755859</ele>
        <time>2014-02-12T10:34:53.000Z</time>
      </trkpt>
      <trkpt lat="45.91598" lon="6.49676">
        <ele>1940.5999755859</ele>
        <time>2014-02-12T10:34:54.000Z</time>
      </trkpt>
      <trkpt lat="45.91598" lon="6.49676">
        <ele>1940.5999755859</ele>
        <time>2014-02-12T10:34:55.000Z</time>
      </trkpt>
      <trkpt lat="45.91598" lon="6.49676">
        <ele>1940.5999755859</ele>
        <time>2014-02-12T10:34:56.000Z</time>
      </trkpt>
      <trkpt lat="45.91598" lon="6.49676">
        <ele>1940.5999755859</ele>
        <time>2014-02-12T10:34:57.000Z</time>
      </trkpt>
      <trkpt lat="45.91598" lon="6.49676">
        <ele>1940.5999755859</ele>
        <time>2014-02-12T10:34:58.000Z</time>
      </trkpt>
      <trkpt lat="45.91598" lon="6.49676">
        <ele>1940.5999755859</ele>
        <time>2014-02-12T10:34:59.000Z</time>
      </trkpt>
      <trkpt lat="45.91598" lon="6.49676">
        <ele>1940.5999755859</ele>
        <time>2014-02-12T10:35:00.000Z</time>
      </trkpt>
      <trkpt lat="45.91598" lon="6.49676">
        <ele>1940.5999755859</ele>
        <time>2014-02-12T10:35:03.000Z</time>
      </trkpt>
      <trkpt lat="45.91598" lon="6.49676">
        <ele>1940.5999755859</ele>
        <time>2014-02-12T10:35:05.000Z</time>
      </trkpt>
      <trkpt lat="45.91598" lon="6.49676">
        <ele>1940.5999755859</ele>
        <time>2014-02-12T10:35:06.000Z</time>
      </trkpt>
      <trkpt lat="45.91598" lon="6.49676">
        <ele>1940.5999755859</ele>
        <time>2014-02-12T10:35:07.000Z</time>
      </trkpt>
      <trkpt lat="45.91598" lon="6.49676">
        <ele>1940.5999755859</ele>
        <time>2014-02-12T10:35:08.000Z</time>
      </trkpt>
      <trkpt lat="45.91598" lon="6.49676">
        <ele>1940.5999755859</ele>
        <time>2014-02-12T10:35:09.000Z</time>
      </trkpt>
      <trkpt lat="45.91598" lon="6.49676">
        <ele>1940.5999755859</ele>
        <time>2014-02-12T10:35:11.000Z</time>
      </trkpt>
      <trkpt lat="45.91598" lon="6.49676">
        <ele>1940.5999755859</ele>
        <time>2014-02-12T10:35:12.000Z</time>
      </trkpt>
      <trkpt lat="45.91598" lon="6.49676">
        <ele>1940.5999755859</ele>
        <time>2014-02-12T10:35:13.000Z</time>
      </trkpt>
      <trkpt lat="45.91598" lon="6.49676">
        <ele>1940.5999755859</ele>
        <time>2014-02-12T10:35:14.000Z</time>
      </trkpt>
      <trkpt lat="45.91598" lon="6.49676">
        <ele>1940.5999755859</ele>
        <time>2014-02-12T10:35:15.000Z</time>
      </trkpt>
      <trkpt lat="45.91598" lon="6.49676">
        <ele>1940.5999755859</ele>
        <time>2014-02-12T10:35:16.000Z</time>
      </trkpt>
      <trkpt lat="45.91598" lon="6.49676">
        <ele>1940.5999755859</ele>
        <time>2014-02-12T10:35:17.000Z</time>
      </trkpt>
      <trkpt lat="45.91598" lon="6.49676">
        <ele>1940.5999755859</ele>
        <time>2014-02-12T10:35:18.000Z</time>
      </trkpt>
      <trkpt lat="45.91598" lon="6.49676">
        <ele>1940.5999755859</ele>
        <time>2014-02-12T10:35:19.000Z</time>
      </trkpt>
      <trkpt lat="45.91598" lon="6.49676">
        <ele>1940.5999755859</ele>
        <time>2014-02-12T10:35:20.000Z</time>
      </trkpt>
      <trkpt lat="45.91598" lon="6.49676">
        <ele>1940.5999755859</ele>
        <time>2014-02-12T10:35:21.000Z</time>
      </trkpt>
      <trkpt lat="45.91598" lon="6.49676">
        <ele>1940.5999755859</ele>
        <time>2014-02-12T10:35:22.000Z</time>
      </trkpt>
      <trkpt lat="45.91598" lon="6.49676">
        <ele>1940.5999755859</ele>
        <time>2014-02-12T10:35:23.000Z</time>
      </trkpt>
      <trkpt lat="45.91598" lon="6.49676">
        <ele>1940.5999755859</ele>
        <time>2014-02-12T10:35:24.000Z</time>
      </trkpt>
      <trkpt lat="45.91598" lon="6.49676">
        <ele>1940.5999755859</ele>
        <time>2014-02-12T10:35:25.000Z</time>
      </trkpt>
      <trkpt lat="45.91598" lon="6.49676">
        <ele>1940.5999755859</ele>
        <time>2014-02-12T10:35:26.000Z</time>
      </trkpt>
      <trkpt lat="45.91598" lon="6.49676">
        <ele>1940.5999755859</ele>
        <time>2014-02-12T10:35:27.000Z</time>
      </trkpt>
      <trkpt lat="45.91601" lon="6.49679">
        <ele>1936</ele>
        <time>2014-02-12T10:35:28.000Z</time>
      </trkpt>
      <trkpt lat="45.91601" lon="6.49679">
        <ele>1936</ele>
        <time>2014-02-12T10:35:29.000Z</time>
      </trkpt>
      <trkpt lat="45.91601" lon="6.49679">
        <ele>1936</ele>
        <time>2014-02-12T10:35:30.000Z</time>
      </trkpt>
      <trkpt lat="45.91601" lon="6.49679">
        <ele>1936</ele>
        <time>2014-02-12T10:35:31.000Z</time>
      </trkpt>
      <trkpt lat="45.91601" lon="6.49679">
        <ele>1936</ele>
        <time>2014-02-12T10:35:32.000Z</time>
      </trkpt>
      <trkpt lat="45.91601" lon="6.49679">
        <ele>1936</ele>
        <time>2014-02-12T10:35:33.000Z</time>
      </trkpt>
      <trkpt lat="45.91601" lon="6.49679">
        <ele>1936</ele>
        <time>2014-02-12T10:35:35.000Z</time>
      </trkpt>
      <trkpt lat="45.91601" lon="6.49679">
        <ele>1936</ele>
        <time>2014-02-12T10:35:36.000Z</time>
      </trkpt>
      <trkpt lat="45.91601" lon="6.49679">
        <ele>1936</ele>
        <time>2014-02-12T10:35:37.000Z</time>
      </trkpt>
      <trkpt lat="45.91601" lon="6.49679">
        <ele>1936</ele>
        <time>2014-02-12T10:35:38.000Z</time>
      </trkpt>
      <trkpt lat="45.91601" lon="6.49679">
        <ele>1936</ele>
        <time>2014-02-12T10:35:39.000Z</time>
      </trkpt>
      <trkpt lat="45.91601" lon="6.49679">
        <ele>1936</ele>
        <time>2014-02-12T10:35:40.000Z</time>
      </trkpt>
      <trkpt lat="45.91601" lon="6.49679">
        <ele>1936</ele>
        <time>2014-02-12T10:35:41.000Z</time>
      </trkpt>
      <trkpt lat="45.91601" lon="6.49679">
        <ele>1936</ele>
        <time>2014-02-12T10:35:42.000Z</time>
      </trkpt>
      <trkpt lat="45.91601" lon="6.49679">
        <ele>1936</ele>
        <time>2014-02-12T10:35:43.000Z</time>
      </trkpt>
      <trkpt lat="45.91601" lon="6.49679">
        <ele>1936</ele>
        <time>2014-02-12T10:35:44.000Z</time>
      </trkpt>
      <trkpt lat="45.91601" lon="6.49679">
        <ele>1936</ele>
        <time>2014-02-12T10:35:45.000Z</time>
      </trkpt>
      <trkpt lat="45.91601" lon="6.49679">
        <ele>1936</ele>
        <time>2014-02-12T10:35:48.000Z</time>
      </trkpt>
      <trkpt lat="45.91601" lon="6.49679">
        <ele>1936</ele>
        <time>2014-02-12T10:35:49.000Z</time>
      </trkpt>
      <trkpt lat="45.91601" lon="6.49679">
        <ele>1936</ele>
        <time>2014-02-12T10:35:52.000Z</time>
      </trkpt>
      <trkpt lat="45.91601" lon="6.49679">
        <ele>1936</ele>
        <time>2014-02-12T10:35:53.000Z</time>
      </trkpt>
      <trkpt lat="45.91601" lon="6.49679">
        <ele>1936</ele>
        <time>2014-02-12T10:35:54.000Z</time>
      </trkpt>
      <trkpt lat="45.91601" lon="6.49679">
        <ele>1936</ele>
        <time>2014-02-12T10:35:55.000Z</time>
      </trkpt>
      <trkpt lat="45.91601" lon="6.49679">
        <ele>1936</ele>
        <time>2014-02-12T10:35:56.000Z</time>
      </trkpt>
      <trkpt lat="45.91601" lon="6.49679">
        <ele>1936</ele>
        <time>2014-02-12T10:36:00.000Z</time>
      </trkpt>
      <trkpt lat="45.91601" lon="6.49679">
        <ele>1936</ele>
        <time>2014-02-12T10:36:01.000Z</time>
      </trkpt>
      <trkpt lat="45.91602" lon="6.49678">
        <ele>1934.1999511719</ele>
        <time>2014-02-12T10:36:02.000Z</time>
      </trkpt>
      <trkpt lat="45.91605" lon="6.49679">
        <ele>1930.4000244141</ele>
        <time>2014-02-12T10:36:03.000Z</time>
      </trkpt>
      <trkpt lat="45.91611" lon="6.49686">
        <ele>1921.5999755859</ele>
        <time>2014-02-12T10:36:04.000Z</time>
      </trkpt>
      <trkpt lat="45.91616" lon="6.49684">
        <ele>1915.1999511719</ele>
        <time>2014-02-12T10:36:05.000Z</time>
      </trkpt>
      <trkpt lat="45.91619" lon="6.49677">
        <ele>1911.5999755859</ele>
        <time>2014-02-12T10:36:06.000Z</time>
      </trkpt>
      <trkpt lat="45.91622" lon="6.49674">
        <ele>1908.4000244141</ele>
        <time>2014-02-12T10:36:07.000Z</time>
      </trkpt>
      <trkpt lat="45.91628" lon="6.49677">
        <ele>1900.5999755859</ele>
        <time>2014-02-12T10:36:08.000Z</time>
      </trkpt>
      <trkpt lat="45.91634" lon="6.49674">
        <ele>1892.1999511719</ele>
        <time>2014-02-12T10:36:09.000Z</time>
      </trkpt>
      <trkpt lat="45.91639" lon="6.49669">
        <ele>1886.8000488281</ele>
        <time>2014-02-12T10:36:10.000Z</time>
      </trkpt>
      <trkpt lat="45.91645" lon="6.49668">
        <ele>1881.8000488281</ele>
        <time>2014-02-12T10:36:11.000Z</time>
      </trkpt>
      <trkpt lat="45.91645" lon="6.4967">
        <ele>1882.1999511719</ele>
        <time>2014-02-12T10:36:12.000Z</time>
      </trkpt>
      <trkpt lat="45.91649" lon="6.4967">
        <ele>1879</ele>
        <time>2014-02-12T10:36:13.000Z</time>
      </trkpt>
      <trkpt lat="45.91656" lon="6.49668">
        <ele>1875.1999511719</ele>
        <time>2014-02-12T10:36:14.000Z</time>
      </trkpt>
      <trkpt lat="45.91662" lon="6.49665">
        <ele>1869.1999511719</ele>
        <time>2014-02-12T10:36:15.000Z</time>
      </trkpt>
      <trkpt lat="45.91664" lon="6.49668">
        <ele>1867.1999511719</ele>
        <time>2014-02-12T10:36:16.000Z</time>
      </trkpt>
      <trkpt lat="45.91667" lon="6.49665">
        <ele>1863.4000244141</ele>
        <time>2014-02-12T10:36:17.000Z</time>
      </trkpt>
      <trkpt lat="45.9167" lon="6.4966">
        <ele>1857.1999511719</ele>
        <time>2014-02-12T10:36:18.000Z</time>
      </trkpt>
      <trkpt lat="45.91683" lon="6.49666">
        <ele>1845.5999755859</ele>
        <time>2014-02-12T10:36:19.000Z</time>
      </trkpt>
      <trkpt lat="45.91681" lon="6.49666">
        <ele>1847</ele>
        <time>2014-02-12T10:36:20.000Z</time>
      </trkpt>
      <trkpt lat="45.91679" lon="6.49666">
        <ele>1850.4000244141</ele>
        <time>2014-02-12T10:36:21.000Z</time>
      </trkpt>
      <trkpt lat="45.91681" lon="6.49666">
        <ele>1847.1999511719</ele>
        <time>2014-02-12T10:36:22.000Z</time>
      </trkpt>
      <trkpt lat="45.91693" lon="6.49671">
        <ele>1835.5999755859</ele>
        <time>2014-02-12T10:36:23.000Z</time>
      </trkpt>
      <trkpt lat="45.91702" lon="6.49673">
        <ele>1826.8000488281</ele>
        <time>2014-02-12T10:36:24.000Z</time>
      </trkpt>
      <trkpt lat="45.91705" lon="6.49675">
        <ele>1823.8000488281</ele>
        <time>2014-02-12T10:36:25.000Z</time>
      </trkpt>
      <trkpt lat="45.9171" lon="6.49671">
        <ele>1817</ele>
        <time>2014-02-12T10:36:26.000Z</time>
      </trkpt>
      <trkpt lat="45.91713" lon="6.49668">
        <ele>1812.4000244141</ele>
        <time>2014-02-12T10:36:27.000Z</time>
      </trkpt>
      <trkpt lat="45.91714" lon="6.49669">
        <ele>1811.5999755859</ele>
        <time>2014-02-12T10:36:28.000Z</time>
      </trkpt>
      <trkpt lat="45.91718" lon="6.49667">
        <ele>1806.4000244141</ele>
        <time>2014-02-12T10:36:29.000Z</time>
      </trkpt>
      <trkpt lat="45.9172" lon="6.49661">
        <ele>1801.1999511719</ele>
        <time>2014-02-12T10:36:30.000Z</time>
      </trkpt>
      <trkpt lat="45.9172" lon="6.49655">
        <ele>1799</ele>
        <time>2014-02-12T10:36:31.000Z</time>
      </trkpt>
      <trkpt lat="45.91723" lon="6.49655">
        <ele>1796.4000244141</ele>
        <time>2014-02-12T10:36:32.000Z</time>
      </trkpt>
      <trkpt lat="45.91726" lon="6.49655">
        <ele>1794.1999511719</ele>
        <time>2014-02-12T10:36:33.000Z</time>
      </trkpt>
      <trkpt lat="45.91726" lon="6.49657">
        <ele>1794.8000488281</ele>
        <time>2014-02-12T10:36:34.000Z</time>
      </trkpt>
      <trkpt lat="45.91725" lon="6.49658">
        <ele>1795.8000488281</ele>
        <time>2014-02-12T10:36:35.000Z</time>
      </trkpt>
      <trkpt lat="45.91725" lon="6.49659">
        <ele>1795.8000488281</ele>
        <time>2014-02-12T10:36:36.000Z</time>
      </trkpt>
      <trkpt lat="45.91728" lon="6.49659">
        <ele>1794.8000488281</ele>
        <time>2014-02-12T10:36:37.000Z</time>
      </trkpt>
      <trkpt lat="45.91728" lon="6.49659">
        <ele>1794.8000488281</ele>
        <time>2014-02-12T10:36:38.000Z</time>
      </trkpt>
      <trkpt lat="45.91728" lon="6.49659">
        <ele>1794.8000488281</ele>
        <time>2014-02-12T10:36:39.000Z</time>
      </trkpt>
      <trkpt lat="45.91728" lon="6.49659">
        <ele>1794.8000488281</ele>
        <time>2014-02-12T10:36:40.000Z</time>
      </trkpt>
      <trkpt lat="45.91728" lon="6.49659">
        <ele>1794.8000488281</ele>
        <time>2014-02-12T10:36:41.000Z</time>
      </trkpt>
      <trkpt lat="45.91728" lon="6.49659">
        <ele>1794.8000488281</ele>
        <time>2014-02-12T10:36:42.000Z</time>
      </trkpt>
      <trkpt lat="45.91728" lon="6.49659">
        <ele>1794.8000488281</ele>
        <time>2014-02-12T10:36:43.000Z</time>
      </trkpt>
      <trkpt lat="45.91728" lon="6.49659">
        <ele>1794.8000488281</ele>
        <time>2014-02-12T10:36:44.000Z</time>
      </trkpt>
      <trkpt lat="45.91728" lon="6.49659">
        <ele>1794.8000488281</ele>
        <time>2014-02-12T10:36:45.000Z</time>
      </trkpt>
      <trkpt lat="45.91728" lon="6.49659">
        <ele>1794.8000488281</ele>
        <time>2014-02-12T10:36:46.000Z</time>
      </trkpt>
      <trkpt lat="45.91728" lon="6.49659">
        <ele>1794.8000488281</ele>
        <time>2014-02-12T10:36:51.000Z</time>
      </trkpt>
      <trkpt lat="45.91728" lon="6.49659">
        <ele>1794.8000488281</ele>
        <time>2014-02-12T10:36:55.000Z</time>
      </trkpt>
      <trkpt lat="45.91728" lon="6.49659">
        <ele>1794.8000488281</ele>
        <time>2014-02-12T10:36:56.000Z</time>
      </trkpt>
      <trkpt lat="45.91728" lon="6.49659">
        <ele>1794.8000488281</ele>
        <time>2014-02-12T10:36:57.000Z</time>
      </trkpt>
      <trkpt lat="45.91728" lon="6.49659">
        <ele>1794.8000488281</ele>
        <time>2014-02-12T10:36:58.000Z</time>
      </trkpt>
      <trkpt lat="45.91728" lon="6.49659">
        <ele>1794.8000488281</ele>
        <time>2014-02-12T10:36:59.000Z</time>
      </trkpt>
      <trkpt lat="45.91728" lon="6.49659">
        <ele>1794.8000488281</ele>
        <time>2014-02-12T10:37:00.000Z</time>
      </trkpt>
      <trkpt lat="45.91729" lon="6.49656">
        <ele>1792.8000488281</ele>
        <time>2014-02-12T10:37:03.000Z</time>
      </trkpt>
      <trkpt lat="45.91732" lon="6.4965">
        <ele>1789.5999755859</ele>
        <time>2014-02-12T10:37:04.000Z</time>
      </trkpt>
      <trkpt lat="45.91735" lon="6.49648">
        <ele>1787.4000244141</ele>
        <time>2014-02-12T10:37:05.000Z</time>
      </trkpt>
      <trkpt lat="45.91739" lon="6.49644">
        <ele>1784.5999755859</ele>
        <time>2014-02-12T10:37:06.000Z</time>
      </trkpt>
      <trkpt lat="45.91742" lon="6.49641">
        <ele>1781.5999755859</ele>
        <time>2014-02-12T10:37:07.000Z</time>
      </trkpt>
      <trkpt lat="45.91748" lon="6.4964">
        <ele>1778.8000488281</ele>
        <time>2014-02-12T10:37:08.000Z</time>
      </trkpt>
      <trkpt lat="45.91752" lon="6.49634">
        <ele>1774.8000488281</ele>
        <time>2014-02-12T10:37:09.000Z</time>
      </trkpt>
      <trkpt lat="45.91757" lon="6.49633">
        <ele>1772</ele>
        <time>2014-02-12T10:37:10.000Z</time>
      </trkpt>
      <trkpt lat="45.91761" lon="6.49632">
        <ele>1769.8000488281</ele>
        <time>2014-02-12T10:37:11.000Z</time>
      </trkpt>
      <trkpt lat="45.91763" lon="6.49624">
        <ele>1765.5999755859</ele>
        <time>2014-02-12T10:37:12.000Z</time>
      </trkpt>
      <trkpt lat="45.91761" lon="6.49615">
        <ele>1762.8000488281</ele>
        <time>2014-02-12T10:37:13.000Z</time>
      </trkpt>
      <trkpt lat="45.91759" lon="6.49612">
        <ele>1762.5999755859</ele>
        <time>2014-02-12T10:37:14.000Z</time>
      </trkpt>
      <trkpt lat="45.91759" lon="6.49609">
        <ele>1761.1999511719</ele>
        <time>2014-02-12T10:37:15.000Z</time>
      </trkpt>
      <trkpt lat="45.9176" lon="6.49607">
        <ele>1760.4000244141</ele>
        <time>2014-02-12T10:37:16.000Z</time>
      </trkpt>
      <trkpt lat="45.91763" lon="6.49601">
        <ele>1757.1999511719</ele>
        <time>2014-02-12T10:37:17.000Z</time>
      </trkpt>
      <trkpt lat="45.91764" lon="6.49597">
        <ele>1755.5999755859</ele>
        <time>2014-02-12T10:37:18.000Z</time>
      </trkpt>
      <trkpt lat="45.91764" lon="6.4959">
        <ele>1753.4000244141</ele>
        <time>2014-02-12T10:37:19.000Z</time>
      </trkpt>
      <trkpt lat="45.91767" lon="6.49584">
        <ele>1750.8000488281</ele>
        <time>2014-02-12T10:37:20.000Z</time>
      </trkpt>
      <trkpt lat="45.9177" lon="6.49578">
        <ele>1748</ele>
        <time>2014-02-12T10:37:21.000Z</time>
      </trkpt>
      <trkpt lat="45.91773" lon="6.49572">
        <ele>1745.4000244141</ele>
        <time>2014-02-12T10:37:22.000Z</time>
      </trkpt>
      <trkpt lat="45.91776" lon="6.49567">
        <ele>1742.8000488281</ele>
        <time>2014-02-12T10:37:23.000Z</time>
      </trkpt>
      <trkpt lat="45.91781" lon="6.49562">
        <ele>1742.8000488281</ele>
        <time>2014-02-12T10:37:24.000Z</time>
      </trkpt>
      <trkpt lat="45.91786" lon="6.49555">
        <ele>1743.8000488281</ele>
        <time>2014-02-12T10:37:25.000Z</time>
      </trkpt>
      <trkpt lat="45.91789" lon="6.49547">
        <ele>1745</ele>
        <time>2014-02-12T10:37:26.000Z</time>
      </trkpt>
      <trkpt lat="45.91791" lon="6.49538">
        <ele>1741</ele>
        <time>2014-02-12T10:37:27.000Z</time>
      </trkpt>
      <trkpt lat="45.91793" lon="6.49529">
        <ele>1736.8000488281</ele>
        <time>2014-02-12T10:37:28.000Z</time>
      </trkpt>
      <trkpt lat="45.91794" lon="6.4952">
        <ele>1734</ele>
        <time>2014-02-12T10:37:29.000Z</time>
      </trkpt>
      <trkpt lat="45.91795" lon="6.49512">
        <ele>1730.8000488281</ele>
        <time>2014-02-12T10:37:30.000Z</time>
      </trkpt>
      <trkpt lat="45.91795" lon="6.49502">
        <ele>1728.4000244141</ele>
        <time>2014-02-12T10:37:31.000Z</time>
      </trkpt>
      <trkpt lat="45.91798" lon="6.49495">
        <ele>1724.5999755859</ele>
        <time>2014-02-12T10:37:32.000Z</time>
      </trkpt>
      <trkpt lat="45.91801" lon="6.49487">
        <ele>1719.4000244141</ele>
        <time>2014-02-12T10:37:33.000Z</time>
      </trkpt>
      <trkpt lat="45.91802" lon="6.49479">
        <ele>1716.5999755859</ele>
        <time>2014-02-12T10:37:34.000Z</time>
      </trkpt>
      <trkpt lat="45.91806" lon="6.49472">
        <ele>1711.8000488281</ele>
        <time>2014-02-12T10:37:35.000Z</time>
      </trkpt>
      <trkpt lat="45.91809" lon="6.49462">
        <ele>1708.5999755859</ele>
        <time>2014-02-12T10:37:36.000Z</time>
      </trkpt>
      <trkpt lat="45.9181" lon="6.49448">
        <ele>1705.5999755859</ele>
        <time>2014-02-12T10:37:37.000Z</time>
      </trkpt>
      <trkpt lat="45.91813" lon="6.49435">
        <ele>1702</ele>
        <time>2014-02-12T10:37:38.000Z</time>
      </trkpt>
      <trkpt lat="45.91817" lon="6.49426">
        <ele>1699</ele>
        <time>2014-02-12T10:37:39.000Z</time>
      </trkpt>
      <trkpt lat="45.91819" lon="6.49415">
        <ele>1696.1999511719</ele>
        <time>2014-02-12T10:37:40.000Z</time>
      </trkpt>
      <trkpt lat="45.91824" lon="6.49407">
        <ele>1692.1999511719</ele>
        <time>2014-02-12T10:37:41.000Z</time>
      </trkpt>
      <trkpt lat="45.91828" lon="6.49398">
        <ele>1688.1999511719</ele>
        <time>2014-02-12T10:37:42.000Z</time>
      </trkpt>
      <trkpt lat="45.91831" lon="6.49388">
        <ele>1685.4000244141</ele>
        <time>2014-02-12T10:37:43.000Z</time>
      </trkpt>
      <trkpt lat="45.91834" lon="6.49377">
        <ele>1682.8000488281</ele>
        <time>2014-02-12T10:37:44.000Z</time>
      </trkpt>
      <trkpt lat="45.91837" lon="6.49366">
        <ele>1680</ele>
        <time>2014-02-12T10:37:45.000Z</time>
      </trkpt>
      <trkpt lat="45.91838" lon="6.49359">
        <ele>1678.1999511719</ele>
        <time>2014-02-12T10:37:46.000Z</time>
      </trkpt>
      <trkpt lat="45.91839" lon="6.49351">
        <ele>1676.5999755859</ele>
        <time>2014-02-12T10:37:47.000Z</time>
      </trkpt>
      <trkpt lat="45.91838" lon="6.49344">
        <ele>1675.5999755859</ele>
        <time>2014-02-12T10:37:48.000Z</time>
      </trkpt>
      <trkpt lat="45.91837" lon="6.49338">
        <ele>1674.1999511719</ele>
        <time>2014-02-12T10:37:49.000Z</time>
      </trkpt>
      <trkpt lat="45.91836" lon="6.49331">
        <ele>1672.8000488281</ele>
        <time>2014-02-12T10:37:50.000Z</time>
      </trkpt>
      <trkpt lat="45.91834" lon="6.49324">
        <ele>1671.5999755859</ele>
        <time>2014-02-12T10:37:51.000Z</time>
      </trkpt>
      <trkpt lat="45.91833" lon="6.49319">
        <ele>1670.8000488281</ele>
        <time>2014-02-12T10:37:52.000Z</time>
      </trkpt>
      <trkpt lat="45.91832" lon="6.49315">
        <ele>1670.1999511719</ele>
        <time>2014-02-12T10:37:53.000Z</time>
      </trkpt>
      <trkpt lat="45.91832" lon="6.49313">
        <ele>1669.8000488281</ele>
        <time>2014-02-12T10:37:54.000Z</time>
      </trkpt>
      <trkpt lat="45.91832" lon="6.49311">
        <ele>1669.5999755859</ele>
        <time>2014-02-12T10:37:55.000Z</time>
      </trkpt>
      <trkpt lat="45.91831" lon="6.4931">
        <ele>1669.4000244141</ele>
        <time>2014-02-12T10:37:56.000Z</time>
      </trkpt>
      <trkpt lat="45.91831" lon="6.4931">
        <ele>1669.5999755859</ele>
        <time>2014-02-12T10:37:57.000Z</time>
      </trkpt>
      <trkpt lat="45.91831" lon="6.49309">
        <ele>1669.4000244141</ele>
        <time>2014-02-12T10:37:58.000Z</time>
      </trkpt>
      <trkpt lat="45.91831" lon="6.49308">
        <ele>1669</ele>
        <time>2014-02-12T10:37:59.000Z</time>
      </trkpt>
      <trkpt lat="45.91831" lon="6.49308">
        <ele>1669</ele>
        <time>2014-02-12T10:38:00.000Z</time>
      </trkpt>
      <trkpt lat="45.91831" lon="6.49308">
        <ele>1669</ele>
        <time>2014-02-12T10:38:01.000Z</time>
      </trkpt>
      <trkpt lat="45.91831" lon="6.49308">
        <ele>1669</ele>
        <time>2014-02-12T10:38:03.000Z</time>
      </trkpt>
      <trkpt lat="45.91831" lon="6.49308">
        <ele>1669</ele>
        <time>2014-02-12T10:38:04.000Z</time>
      </trkpt>
      <trkpt lat="45.91831" lon="6.49308">
        <ele>1669</ele>
        <time>2014-02-12T10:38:05.000Z</time>
      </trkpt>
      <trkpt lat="45.91831" lon="6.49308">
        <ele>1669</ele>
        <time>2014-02-12T10:38:06.000Z</time>
      </trkpt>
      <trkpt lat="45.91836" lon="6.49319">
        <ele>1668.5999755859</ele>
        <time>2014-02-12T10:38:09.000Z</time>
      </trkpt>
      <trkpt lat="45.91836" lon="6.49319">
        <ele>1668.5999755859</ele>
        <time>2014-02-12T10:38:10.000Z</time>
      </trkpt>
      <trkpt lat="45.91836" lon="6.49319">
        <ele>1668.5999755859</ele>
        <time>2014-02-12T10:38:11.000Z</time>
      </trkpt>
      <trkpt lat="45.91836" lon="6.49319">
        <ele>1668.5999755859</ele>
        <time>2014-02-12T10:38:12.000Z</time>
      </trkpt>
      <trkpt lat="45.91836" lon="6.49319">
        <ele>1668.5999755859</ele>
        <time>2014-02-12T10:38:13.000Z</time>
      </trkpt>
      <trkpt lat="45.91836" lon="6.49319">
        <ele>1668.5999755859</ele>
        <time>2014-02-12T10:38:14.000Z</time>
      </trkpt>
      <trkpt lat="45.91836" lon="6.49319">
        <ele>1668.5999755859</ele>
        <time>2014-02-12T10:38:15.000Z</time>
      </trkpt>
      <trkpt lat="45.91836" lon="6.49319">
        <ele>1668.5999755859</ele>
        <time>2014-02-12T10:38:16.000Z</time>
      </trkpt>
      <trkpt lat="45.91836" lon="6.49319">
        <ele>1668.5999755859</ele>
        <time>2014-02-12T10:38:17.000Z</time>
      </trkpt>
      <trkpt lat="45.91836" lon="6.49319">
        <ele>1668.5999755859</ele>
        <time>2014-02-12T10:38:18.000Z</time>
      </trkpt>
      <trkpt lat="45.91836" lon="6.49319">
        <ele>1668.5999755859</ele>
        <time>2014-02-12T10:38:19.000Z</time>
      </trkpt>
      <trkpt lat="45.91836" lon="6.49319">
        <ele>1668.5999755859</ele>
        <time>2014-02-12T10:38:20.000Z</time>
      </trkpt>
      <trkpt lat="45.91836" lon="6.49319">
        <ele>1668.5999755859</ele>
        <time>2014-02-12T10:38:22.000Z</time>
      </trkpt>
      <trkpt lat="45.91836" lon="6.49319">
        <ele>1668.5999755859</ele>
        <time>2014-02-12T10:38:23.000Z</time>
      </trkpt>
      <trkpt lat="45.91836" lon="6.49319">
        <ele>1668.5999755859</ele>
        <time>2014-02-12T10:38:24.000Z</time>
      </trkpt>
      <trkpt lat="45.91836" lon="6.49319">
        <ele>1668.5999755859</ele>
        <time>2014-02-12T10:38:25.000Z</time>
      </trkpt>
      <trkpt lat="45.91836" lon="6.49319">
        <ele>1668.5999755859</ele>
        <time>2014-02-12T10:38:26.000Z</time>
      </trkpt>
      <trkpt lat="45.91836" lon="6.49319">
        <ele>1668.5999755859</ele>
        <time>2014-02-12T10:38:28.000Z</time>
      </trkpt>
      <trkpt lat="45.91836" lon="6.49319">
        <ele>1668.5999755859</ele>
        <time>2014-02-12T10:38:29.000Z</time>
      </trkpt>
      <trkpt lat="45.91836" lon="6.49319">
        <ele>1668.5999755859</ele>
        <time>2014-02-12T10:38:30.000Z</time>
      </trkpt>
      <trkpt lat="45.91836" lon="6.49319">
        <ele>1668.5999755859</ele>
        <time>2014-02-12T10:38:31.000Z</time>
      </trkpt>
      <trkpt lat="45.91836" lon="6.49319">
        <ele>1668.5999755859</ele>
        <time>2014-02-12T10:38:32.000Z</time>
      </trkpt>
      <trkpt lat="45.91836" lon="6.49319">
        <ele>1668.5999755859</ele>
        <time>2014-02-12T10:38:33.000Z</time>
      </trkpt>
      <trkpt lat="45.91836" lon="6.49319">
        <ele>1668.5999755859</ele>
        <time>2014-02-12T10:38:34.000Z</time>
      </trkpt>
      <trkpt lat="45.91836" lon="6.49319">
        <ele>1668.5999755859</ele>
        <time>2014-02-12T10:38:35.000Z</time>
      </trkpt>
      <trkpt lat="45.91838" lon="6.49321">
        <ele>1668.1999511719</ele>
        <time>2014-02-12T10:38:36.000Z</time>
      </trkpt>
      <trkpt lat="45.91841" lon="6.49325">
        <ele>1667.4000244141</ele>
        <time>2014-02-12T10:38:37.000Z</time>
      </trkpt>
      <trkpt lat="45.9184" lon="6.49323">
        <ele>1666.8000488281</ele>
        <time>2014-02-12T10:38:38.000Z</time>
      </trkpt>
      <trkpt lat="45.9184" lon="6.49317">
        <ele>1665</ele>
        <time>2014-02-12T10:38:39.000Z</time>
      </trkpt>
      <trkpt lat="45.91842" lon="6.49311">
        <ele>1662</ele>
        <time>2014-02-12T10:38:40.000Z</time>
      </trkpt>
      <trkpt lat="45.91844" lon="6.4931">
        <ele>1660.4000244141</ele>
        <time>2014-02-12T10:38:41.000Z</time>
      </trkpt>
      <trkpt lat="45.91848" lon="6.49303">
        <ele>1656.1999511719</ele>
        <time>2014-02-12T10:38:42.000Z</time>
      </trkpt>
      <trkpt lat="45.9185" lon="6.49294">
        <ele>1652.4000244141</ele>
        <time>2014-02-12T10:38:43.000Z</time>
      </trkpt>
      <trkpt lat="45.9185" lon="6.49285">
        <ele>1650.1999511719</ele>
        <time>2014-02-12T10:38:44.000Z</time>
      </trkpt>
      <trkpt lat="45.91849" lon="6.49279">
        <ele>1649</ele>
        <time>2014-02-12T10:38:45.000Z</time>
      </trkpt>
      <trkpt lat="45.91849" lon="6.49272">
        <ele>1647.8000488281</ele>
        <time>2014-02-12T10:38:46.000Z</time>
      </trkpt>
      <trkpt lat="45.9185" lon="6.49266">
        <ele>1646.4000244141</ele>
        <time>2014-02-12T10:38:47.000Z</time>
      </trkpt>
      <trkpt lat="45.9185" lon="6.49262">
        <ele>1645.5999755859</ele>
        <time>2014-02-12T10:38:48.000Z</time>
      </trkpt>
      <trkpt lat="45.91849" lon="6.49256">
        <ele>1645</ele>
        <time>2014-02-12T10:38:49.000Z</time>
      </trkpt>
      <trkpt lat="45.91849" lon="6.49251">
        <ele>1644.4000244141</ele>
        <time>2014-02-12T10:38:50.000Z</time>
      </trkpt>
      <trkpt lat="45.9185" lon="6.49247">
        <ele>1643.1999511719</ele>
        <time>2014-02-12T10:38:51.000Z</time>
      </trkpt>
      <trkpt lat="45.91849" lon="6.49248">
        <ele>1643.4000244141</ele>
        <time>2014-02-12T10:38:52.000Z</time>
      </trkpt>
      <trkpt lat="45.91852" lon="6.49252">
        <ele>1642.4000244141</ele>
        <time>2014-02-12T10:38:53.000Z</time>
      </trkpt>
      <trkpt lat="45.91852" lon="6.49252">
        <ele>1642.4000244141</ele>
        <time>2014-02-12T10:38:54.000Z</time>
      </trkpt>
      <trkpt lat="45.91852" lon="6.49252">
        <ele>1642.4000244141</ele>
        <time>2014-02-12T10:38:55.000Z</time>
      </trkpt>
      <trkpt lat="45.91852" lon="6.49252">
        <ele>1642.4000244141</ele>
        <time>2014-02-12T10:38:56.000Z</time>
      </trkpt>
      <trkpt lat="45.91852" lon="6.49252">
        <ele>1642.4000244141</ele>
        <time>2014-02-12T10:38:57.000Z</time>
      </trkpt>
      <trkpt lat="45.91852" lon="6.49252">
        <ele>1642.4000244141</ele>
        <time>2014-02-12T10:38:58.000Z</time>
      </trkpt>
      <trkpt lat="45.91852" lon="6.49252">
        <ele>1642.4000244141</ele>
        <time>2014-02-12T10:38:59.000Z</time>
      </trkpt>
      <trkpt lat="45.91852" lon="6.49252">
        <ele>1642.4000244141</ele>
        <time>2014-02-12T10:39:00.000Z</time>
      </trkpt>
      <trkpt lat="45.91852" lon="6.49252">
        <ele>1642.4000244141</ele>
        <time>2014-02-12T10:39:01.000Z</time>
      </trkpt>
      <trkpt lat="45.91852" lon="6.49252">
        <ele>1642.4000244141</ele>
        <time>2014-02-12T10:39:02.000Z</time>
      </trkpt>
      <trkpt lat="45.91852" lon="6.49252">
        <ele>1642.4000244141</ele>
        <time>2014-02-12T10:39:03.000Z</time>
      </trkpt>
      <trkpt lat="45.91853" lon="6.49251">
        <ele>1642</ele>
        <time>2014-02-12T10:39:04.000Z</time>
      </trkpt>
      <trkpt lat="45.91856" lon="6.49253">
        <ele>1640.4000244141</ele>
        <time>2014-02-12T10:39:05.000Z</time>
      </trkpt>
      <trkpt lat="45.9186" lon="6.4926">
        <ele>1639</ele>
        <time>2014-02-12T10:39:06.000Z</time>
      </trkpt>
      <trkpt lat="45.91865" lon="6.49266">
        <ele>1636.8000488281</ele>
        <time>2014-02-12T10:39:07.000Z</time>
      </trkpt>
      <trkpt lat="45.9187" lon="6.49263">
        <ele>1633.5999755859</ele>
        <time>2014-02-12T10:39:08.000Z</time>
      </trkpt>
      <trkpt lat="45.91877" lon="6.49268">
        <ele>1630.1999511719</ele>
        <time>2014-02-12T10:39:09.000Z</time>
      </trkpt>
      <trkpt lat="45.91884" lon="6.49268">
        <ele>1626</ele>
        <time>2014-02-12T10:39:10.000Z</time>
      </trkpt>
      <trkpt lat="45.9189" lon="6.49269">
        <ele>1622.4000244141</ele>
        <time>2014-02-12T10:39:11.000Z</time>
      </trkpt>
      <trkpt lat="45.91896" lon="6.49269">
        <ele>1620</ele>
        <time>2014-02-12T10:39:12.000Z</time>
      </trkpt>
      <trkpt lat="45.91903" lon="6.49267">
        <ele>1617.8000488281</ele>
        <time>2014-02-12T10:39:13.000Z</time>
      </trkpt>
      <trkpt lat="45.9191" lon="6.49268">
        <ele>1615.4000244141</ele>
        <time>2014-02-12T10:39:14.000Z</time>
      </trkpt>
      <trkpt lat="45.91918" lon="6.49262">
        <ele>1611.8000488281</ele>
        <time>2014-02-12T10:39:15.000Z</time>
      </trkpt>
      <trkpt lat="45.91924" lon="6.49253">
        <ele>1607.1999511719</ele>
        <time>2014-02-12T10:39:16.000Z</time>
      </trkpt>
      <trkpt lat="45.91927" lon="6.49248">
        <ele>1604.5999755859</ele>
        <time>2014-02-12T10:39:17.000Z</time>
      </trkpt>
      <trkpt lat="45.91931" lon="6.49243">
        <ele>1601.4000244141</ele>
        <time>2014-02-12T10:39:18.000Z</time>
      </trkpt>
      <trkpt lat="45.91934" lon="6.49237">
        <ele>1598.8000488281</ele>
        <time>2014-02-12T10:39:19.000Z</time>
      </trkpt>
      <trkpt lat="45.91936" lon="6.49229">
        <ele>1596.4000244141</ele>
        <time>2014-02-12T10:39:20.000Z</time>
      </trkpt>
      <trkpt lat="45.91937" lon="6.49221">
        <ele>1595</ele>
        <time>2014-02-12T10:39:21.000Z</time>
      </trkpt>
      <trkpt lat="45.91942" lon="6.49215">
        <ele>1592.4000244141</ele>
        <time>2014-02-12T10:39:22.000Z</time>
      </trkpt>
      <trkpt lat="45.91944" lon="6.49206">
        <ele>1590.5999755859</ele>
        <time>2014-02-12T10:39:23.000Z</time>
      </trkpt>
      <trkpt lat="45.91948" lon="6.49197">
        <ele>1586.1999511719</ele>
        <time>2014-02-12T10:39:24.000Z</time>
      </trkpt>
      <trkpt lat="45.9195" lon="6.49189">
        <ele>1582.4000244141</ele>
        <time>2014-02-12T10:39:25.000Z</time>
      </trkpt>
      <trkpt lat="45.91954" lon="6.4918">
        <ele>1577.4000244141</ele>
        <time>2014-02-12T10:39:26.000Z</time>
      </trkpt>
      <trkpt lat="45.91959" lon="6.49178">
        <ele>1574</ele>
        <time>2014-02-12T10:39:27.000Z</time>
      </trkpt>
      <trkpt lat="45.91965" lon="6.49174">
        <ele>1569.4000244141</ele>
        <time>2014-02-12T10:39:28.000Z</time>
      </trkpt>
      <trkpt lat="45.91968" lon="6.49171">
        <ele>1566.1999511719</ele>
        <time>2014-02-12T10:39:29.000Z</time>
      </trkpt>
      <trkpt lat="45.91973" lon="6.49167">
        <ele>1562.4000244141</ele>
        <time>2014-02-12T10:39:30.000Z</time>
      </trkpt>
      <trkpt lat="45.9198" lon="6.49162">
        <ele>1557.5999755859</ele>
        <time>2014-02-12T10:39:31.000Z</time>
      </trkpt>
      <trkpt lat="45.91983" lon="6.49154">
        <ele>1554.1999511719</ele>
        <time>2014-02-12T10:39:32.000Z</time>
      </trkpt>
      <trkpt lat="45.91987" lon="6.49147">
        <ele>1551</ele>
        <time>2014-02-12T10:39:33.000Z</time>
      </trkpt>
      <trkpt lat="45.91989" lon="6.49142">
        <ele>1549.1999511719</ele>
        <time>2014-02-12T10:39:34.000Z</time>
      </trkpt>
      <trkpt lat="45.9199" lon="6.49138">
        <ele>1548.4000244141</ele>
        <time>2014-02-12T10:39:35.000Z</time>
      </trkpt>
      <trkpt lat="45.91995" lon="6.4914">
        <ele>1546.5999755859</ele>
        <time>2014-02-12T10:39:36.000Z</time>
      </trkpt>
      <trkpt lat="45.91997" lon="6.49138">
        <ele>1545.5999755859</ele>
        <time>2014-02-12T10:39:37.000Z</time>
      </trkpt>
      <trkpt lat="45.91998" lon="6.49136">
        <ele>1544.8000488281</ele>
        <time>2014-02-12T10:39:38.000Z</time>
      </trkpt>
      <trkpt lat="45.91998" lon="6.49133">
        <ele>1544.4000244141</ele>
        <time>2014-02-12T10:39:39.000Z</time>
      </trkpt>
      <trkpt lat="45.91997" lon="6.49131">
        <ele>1544.4000244141</ele>
        <time>2014-02-12T10:39:40.000Z</time>
      </trkpt>
      <trkpt lat="45.91997" lon="6.49128">
        <ele>1544</ele>
        <time>2014-02-12T10:39:41.000Z</time>
      </trkpt>
      <trkpt lat="45.92001" lon="6.49132">
        <ele>1543.1999511719</ele>
        <time>2014-02-12T10:39:42.000Z</time>
      </trkpt>
      <trkpt lat="45.92004" lon="6.49136">
        <ele>1542.1999511719</ele>
        <time>2014-02-12T10:39:43.000Z</time>
      </trkpt>
      <trkpt lat="45.92003" lon="6.49138">
        <ele>1543</ele>
        <time>2014-02-12T10:39:44.000Z</time>
      </trkpt>
      <trkpt lat="45.92003" lon="6.49141">
        <ele>1543.5999755859</ele>
        <time>2014-02-12T10:39:45.000Z</time>
      </trkpt>
      <trkpt lat="45.92003" lon="6.49141">
        <ele>1543.5999755859</ele>
        <time>2014-02-12T10:39:46.000Z</time>
      </trkpt>
      <trkpt lat="45.92003" lon="6.49141">
        <ele>1543.5999755859</ele>
        <time>2014-02-12T10:39:47.000Z</time>
      </trkpt>
      <trkpt lat="45.92003" lon="6.49141">
        <ele>1543.5999755859</ele>
        <time>2014-02-12T10:39:48.000Z</time>
      </trkpt>
      <trkpt lat="45.92003" lon="6.49141">
        <ele>1543.5999755859</ele>
        <time>2014-02-12T10:39:49.000Z</time>
      </trkpt>
      <trkpt lat="45.92003" lon="6.49141">
        <ele>1543.5999755859</ele>
        <time>2014-02-12T10:39:54.000Z</time>
      </trkpt>
      <trkpt lat="45.92003" lon="6.49141">
        <ele>1543.5999755859</ele>
        <time>2014-02-12T10:39:55.000Z</time>
      </trkpt>
      <trkpt lat="45.92003" lon="6.49141">
        <ele>1543.5999755859</ele>
        <time>2014-02-12T10:39:56.000Z</time>
      </trkpt>
      <trkpt lat="45.92003" lon="6.49141">
        <ele>1543.5999755859</ele>
        <time>2014-02-12T10:39:57.000Z</time>
      </trkpt>
      <trkpt lat="45.92003" lon="6.49141">
        <ele>1543.5999755859</ele>
        <time>2014-02-12T10:39:58.000Z</time>
      </trkpt>
      <trkpt lat="45.92003" lon="6.49141">
        <ele>1543.5999755859</ele>
        <time>2014-02-12T10:39:59.000Z</time>
      </trkpt>
      <trkpt lat="45.92003" lon="6.49141">
        <ele>1543.5999755859</ele>
        <time>2014-02-12T10:40:00.000Z</time>
      </trkpt>
      <trkpt lat="45.92003" lon="6.49141">
        <ele>1543.5999755859</ele>
        <time>2014-02-12T10:40:01.000Z</time>
      </trkpt>
      <trkpt lat="45.92003" lon="6.49141">
        <ele>1543.5999755859</ele>
        <time>2014-02-12T10:40:02.000Z</time>
      </trkpt>
      <trkpt lat="45.92003" lon="6.49141">
        <ele>1543.5999755859</ele>
        <time>2014-02-12T10:40:03.000Z</time>
      </trkpt>
      <trkpt lat="45.92003" lon="6.49141">
        <ele>1543.5999755859</ele>
        <time>2014-02-12T10:40:04.000Z</time>
      </trkpt>
      <trkpt lat="45.92003" lon="6.49141">
        <ele>1543.5999755859</ele>
        <time>2014-02-12T10:40:05.000Z</time>
      </trkpt>
      <trkpt lat="45.92003" lon="6.49141">
        <ele>1543.5999755859</ele>
        <time>2014-02-12T10:40:06.000Z</time>
      </trkpt>
      <trkpt lat="45.92003" lon="6.49141">
        <ele>1543.5999755859</ele>
        <time>2014-02-12T10:40:07.000Z</time>
      </trkpt>
      <trkpt lat="45.92003" lon="6.49141">
        <ele>1543.5999755859</ele>
        <time>2014-02-12T10:40:08.000Z</time>
      </trkpt>
      <trkpt lat="45.92004" lon="6.49139">
        <ele>1542.8000488281</ele>
        <time>2014-02-12T10:40:09.000Z</time>
      </trkpt>
      <trkpt lat="45.92004" lon="6.49136">
        <ele>1542.4000244141</ele>
        <time>2014-02-12T10:40:10.000Z</time>
      </trkpt>
      <trkpt lat="45.92005" lon="6.49141">
        <ele>1542.5999755859</ele>
        <time>2014-02-12T10:40:11.000Z</time>
      </trkpt>
      <trkpt lat="45.92008" lon="6.49145">
        <ele>1542</ele>
        <time>2014-02-12T10:40:12.000Z</time>
      </trkpt>
      <trkpt lat="45.92006" lon="6.49143">
        <ele>1542.4000244141</ele>
        <time>2014-02-12T10:40:13.000Z</time>
      </trkpt>
      <trkpt lat="45.92007" lon="6.49141">
        <ele>1541.8000488281</ele>
        <time>2014-02-12T10:40:14.000Z</time>
      </trkpt>
      <trkpt lat="45.92007" lon="6.49137">
        <ele>1541.1999511719</ele>
        <time>2014-02-12T10:40:15.000Z</time>
      </trkpt>
      <trkpt lat="45.92007" lon="6.49135">
        <ele>1540.8000488281</ele>
        <time>2014-02-12T10:40:16.000Z</time>
      </trkpt>
      <trkpt lat="45.9201" lon="6.49132">
        <ele>1539.4000244141</ele>
        <time>2014-02-12T10:40:17.000Z</time>
      </trkpt>
      <trkpt lat="45.92011" lon="6.4913">
        <ele>1538.4000244141</ele>
        <time>2014-02-12T10:40:18.000Z</time>
      </trkpt>
      <trkpt lat="45.92015" lon="6.49126">
        <ele>1536.1999511719</ele>
        <time>2014-02-12T10:40:19.000Z</time>
      </trkpt>
      <trkpt lat="45.92016" lon="6.49118">
        <ele>1534.8000488281</ele>
        <time>2014-02-12T10:40:20.000Z</time>
      </trkpt>
      <trkpt lat="45.92019" lon="6.49115">
        <ele>1532.8000488281</ele>
        <time>2014-02-12T10:40:21.000Z</time>
      </trkpt>
      <trkpt lat="45.92021" lon="6.49113">
        <ele>1531.8000488281</ele>
        <time>2014-02-12T10:40:22.000Z</time>
      </trkpt>
      <trkpt lat="45.92023" lon="6.49113">
        <ele>1530.5999755859</ele>
        <time>2014-02-12T10:40:23.000Z</time>
      </trkpt>
      <trkpt lat="45.92024" lon="6.49113">
        <ele>1529.8000488281</ele>
        <time>2014-02-12T10:40:24.000Z</time>
      </trkpt>
      <trkpt lat="45.92024" lon="6.49113">
        <ele>1529.5999755859</ele>
        <time>2014-02-12T10:40:25.000Z</time>
      </trkpt>
      <trkpt lat="45.92025" lon="6.49114">
        <ele>1529.8000488281</ele>
        <time>2014-02-12T10:40:26.000Z</time>
      </trkpt>
      <trkpt lat="45.92025" lon="6.49114">
        <ele>1529.5999755859</ele>
        <time>2014-02-12T10:40:27.000Z</time>
      </trkpt>
      <trkpt lat="45.92028" lon="6.49115">
        <ele>1528.1999511719</ele>
        <time>2014-02-12T10:40:28.000Z</time>
      </trkpt>
      <trkpt lat="45.92028" lon="6.49112">
        <ele>1527</ele>
        <time>2014-02-12T10:40:29.000Z</time>
      </trkpt>
      <trkpt lat="45.92028" lon="6.4911">
        <ele>1526.8000488281</ele>
        <time>2014-02-12T10:40:30.000Z</time>
      </trkpt>
      <trkpt lat="45.92028" lon="6.49109">
        <ele>1526.5999755859</ele>
        <time>2014-02-12T10:40:31.000Z</time>
      </trkpt>
      <trkpt lat="45.92028" lon="6.49109">
        <ele>1526.5999755859</ele>
        <time>2014-02-12T10:40:32.000Z</time>
      </trkpt>
      <trkpt lat="45.92026" lon="6.49109">
        <ele>1527.4000244141</ele>
        <time>2014-02-12T10:40:33.000Z</time>
      </trkpt>
      <trkpt lat="45.92025" lon="6.4911">
        <ele>1528</ele>
        <time>2014-02-12T10:40:34.000Z</time>
      </trkpt>
      <trkpt lat="45.92024" lon="6.4911">
        <ele>1528.8000488281</ele>
        <time>2014-02-12T10:40:35.000Z</time>
      </trkpt>
      <trkpt lat="45.92024" lon="6.49111">
        <ele>1529.4000244141</ele>
        <time>2014-02-12T10:40:36.000Z</time>
      </trkpt>
      <trkpt lat="45.92027" lon="6.49111">
        <ele>1527.8000488281</ele>
        <time>2014-02-12T10:40:37.000Z</time>
      </trkpt>
      <trkpt lat="45.92028" lon="6.49109">
        <ele>1526.1999511719</ele>
        <time>2014-02-12T10:40:38.000Z</time>
      </trkpt>
      <trkpt lat="45.92032" lon="6.4911">
        <ele>1524.1999511719</ele>
        <time>2014-02-12T10:40:39.000Z</time>
      </trkpt>
      <trkpt lat="45.92031" lon="6.49111">
        <ele>1525.1999511719</ele>
        <time>2014-02-12T10:40:40.000Z</time>
      </trkpt>
      <trkpt lat="45.92031" lon="6.49112">
        <ele>1525.4000244141</ele>
        <time>2014-02-12T10:40:41.000Z</time>
      </trkpt>
      <trkpt lat="45.92031" lon="6.49113">
        <ele>1525.5999755859</ele>
        <time>2014-02-12T10:40:42.000Z</time>
      </trkpt>
      <trkpt lat="45.92031" lon="6.49113">
        <ele>1525.5999755859</ele>
        <time>2014-02-12T10:40:43.000Z</time>
      </trkpt>
      <trkpt lat="45.92031" lon="6.49114">
        <ele>1526</ele>
        <time>2014-02-12T10:40:44.000Z</time>
      </trkpt>
      <trkpt lat="45.92032" lon="6.49117">
        <ele>1526.1999511719</ele>
        <time>2014-02-12T10:40:45.000Z</time>
      </trkpt>
      <trkpt lat="45.92032" lon="6.49118">
        <ele>1526.5999755859</ele>
        <time>2014-02-12T10:40:46.000Z</time>
      </trkpt>
      <trkpt lat="45.92032" lon="6.49119">
        <ele>1527.1999511719</ele>
        <time>2014-02-12T10:40:47.000Z</time>
      </trkpt>
      <trkpt lat="45.92031" lon="6.4912">
        <ele>1527.8000488281</ele>
        <time>2014-02-12T10:40:48.000Z</time>
      </trkpt>
      <trkpt lat="45.92031" lon="6.4912">
        <ele>1528.4000244141</ele>
        <time>2014-02-12T10:40:49.000Z</time>
      </trkpt>
      <trkpt lat="45.9203" lon="6.49121">
        <ele>1529</ele>
        <time>2014-02-12T10:40:50.000Z</time>
      </trkpt>
      <trkpt lat="45.92029" lon="6.49122">
        <ele>1529.8000488281</ele>
        <time>2014-02-12T10:40:51.000Z</time>
      </trkpt>
      <trkpt lat="45.92028" lon="6.49122">
        <ele>1530.1999511719</ele>
        <time>2014-02-12T10:40:52.000Z</time>
      </trkpt>
      <trkpt lat="45.92027" lon="6.49123">
        <ele>1530.8000488281</ele>
        <time>2014-02-12T10:40:53.000Z</time>
      </trkpt>
      <trkpt lat="45.92026" lon="6.49123">
        <ele>1531</ele>
        <time>2014-02-12T10:40:54.000Z</time>
      </trkpt>
      <trkpt lat="45.92026" lon="6.49124">
        <ele>1531.4000244141</ele>
        <time>2014-02-12T10:40:55.000Z</time>
      </trkpt>
      <trkpt lat="45.92025" lon="6.49124">
        <ele>1531.8000488281</ele>
        <time>2014-02-12T10:40:56.000Z</time>
      </trkpt>
      <trkpt lat="45.92024" lon="6.49125">
        <ele>1532.1999511719</ele>
        <time>2014-02-12T10:40:57.000Z</time>
      </trkpt>
      <trkpt lat="45.92023" lon="6.49125">
        <ele>1532.5999755859</ele>
        <time>2014-02-12T10:40:58.000Z</time>
      </trkpt>
      <trkpt lat="45.92023" lon="6.49125">
        <ele>1532.8000488281</ele>
        <time>2014-02-12T10:40:59.000Z</time>
      </trkpt>
      <trkpt lat="45.92022" lon="6.49126">
        <ele>1533.1999511719</ele>
        <time>2014-02-12T10:41:00.000Z</time>
      </trkpt>
      <trkpt lat="45.92022" lon="6.49126">
        <ele>1533.1999511719</ele>
        <time>2014-02-12T10:41:01.000Z</time>
      </trkpt>
      <trkpt lat="45.92022" lon="6.49126">
        <ele>1533.4000244141</ele>
        <time>2014-02-12T10:41:02.000Z</time>
      </trkpt>
      <trkpt lat="45.92021" lon="6.49126">
        <ele>1533.5999755859</ele>
        <time>2014-02-12T10:41:03.000Z</time>
      </trkpt>
      <trkpt lat="45.92021" lon="6.49127">
        <ele>1533.8000488281</ele>
        <time>2014-02-12T10:41:04.000Z</time>
      </trkpt>
      <trkpt lat="45.92021" lon="6.49127">
        <ele>1534</ele>
        <time>2014-02-12T10:41:05.000Z</time>
      </trkpt>
      <trkpt lat="45.9202" lon="6.49127">
        <ele>1534.1999511719</ele>
        <time>2014-02-12T10:41:06.000Z</time>
      </trkpt>
      <trkpt lat="45.9202" lon="6.49127">
        <ele>1534.5999755859</ele>
        <time>2014-02-12T10:41:07.000Z</time>
      </trkpt>
      <trkpt lat="45.92019" lon="6.49128">
        <ele>1534.8000488281</ele>
        <time>2014-02-12T10:41:08.000Z</time>
      </trkpt>
      <trkpt lat="45.92019" lon="6.49128">
        <ele>1535</ele>
        <time>2014-02-12T10:41:09.000Z</time>
      </trkpt>
      <trkpt lat="45.92018" lon="6.49129">
        <ele>1535.4000244141</ele>
        <time>2014-02-12T10:41:11.000Z</time>
      </trkpt>
      <trkpt lat="45.92017" lon="6.49129">
        <ele>1535.5999755859</ele>
        <time>2014-02-12T10:41:12.000Z</time>
      </trkpt>
      <trkpt lat="45.92017" lon="6.49129">
        <ele>1536</ele>
        <time>2014-02-12T10:41:13.000Z</time>
      </trkpt>
      <trkpt lat="45.92016" lon="6.49129">
        <ele>1536</ele>
        <time>2014-02-12T10:41:14.000Z</time>
      </trkpt>
      <trkpt lat="45.92016" lon="6.49129">
        <ele>1536.1999511719</ele>
        <time>2014-02-12T10:41:15.000Z</time>
      </trkpt>
      <trkpt lat="45.92016" lon="6.49129">
        <ele>1536.1999511719</ele>
        <time>2014-02-12T10:41:16.000Z</time>
      </trkpt>
      <trkpt lat="45.92016" lon="6.49129">
        <ele>1536.4000244141</ele>
        <time>2014-02-12T10:41:17.000Z</time>
      </trkpt>
      <trkpt lat="45.92015" lon="6.49129">
        <ele>1536.5999755859</ele>
        <time>2014-02-12T10:41:18.000Z</time>
      </trkpt>
      <trkpt lat="45.92013" lon="6.49131">
        <ele>1537.8000488281</ele>
        <time>2014-02-12T10:41:23.000Z</time>
      </trkpt>
      <trkpt lat="45.92012" lon="6.49132">
        <ele>1538.4000244141</ele>
        <time>2014-02-12T10:41:24.000Z</time>
      </trkpt>
      <trkpt lat="45.92009" lon="6.49134">
        <ele>1539.8000488281</ele>
        <time>2014-02-12T10:41:30.000Z</time>
      </trkpt>
      <trkpt lat="45.92009" lon="6.49134">
        <ele>1539.8000488281</ele>
        <time>2014-02-12T10:41:31.000Z</time>
      </trkpt>
      <trkpt lat="45.92009" lon="6.49134">
        <ele>1539.8000488281</ele>
        <time>2014-02-12T10:41:32.000Z</time>
      </trkpt>
      <trkpt lat="45.92009" lon="6.49134">
        <ele>1539.8000488281</ele>
        <time>2014-02-12T10:41:33.000Z</time>
      </trkpt>
      <trkpt lat="45.92009" lon="6.49134">
        <ele>1539.8000488281</ele>
        <time>2014-02-12T10:41:34.000Z</time>
      </trkpt>
      <trkpt lat="45.92008" lon="6.49134">
        <ele>1540.1999511719</ele>
        <time>2014-02-12T10:41:38.000Z</time>
      </trkpt>
      <trkpt lat="45.92008" lon="6.49134">
        <ele>1540.1999511719</ele>
        <time>2014-02-12T10:41:39.000Z</time>
      </trkpt>
      <trkpt lat="45.92008" lon="6.49134">
        <ele>1540.1999511719</ele>
        <time>2014-02-12T10:41:40.000Z</time>
      </trkpt>
      <trkpt lat="45.92008" lon="6.49134">
        <ele>1540.1999511719</ele>
        <time>2014-02-12T10:41:41.000Z</time>
      </trkpt>
      <trkpt lat="45.92008" lon="6.49134">
        <ele>1540.1999511719</ele>
        <time>2014-02-12T10:41:43.000Z</time>
      </trkpt>
      <trkpt lat="45.92008" lon="6.49134">
        <ele>1540.1999511719</ele>
        <time>2014-02-12T10:41:44.000Z</time>
      </trkpt>
      <trkpt lat="45.92008" lon="6.49134">
        <ele>1540.1999511719</ele>
        <time>2014-02-12T10:41:45.000Z</time>
      </trkpt>
      <trkpt lat="45.92008" lon="6.49134">
        <ele>1540.1999511719</ele>
        <time>2014-02-12T10:41:46.000Z</time>
      </trkpt>
      <trkpt lat="45.92008" lon="6.49134">
        <ele>1540.1999511719</ele>
        <time>2014-02-12T10:41:48.000Z</time>
      </trkpt>
      <trkpt lat="45.92008" lon="6.49134">
        <ele>1540.1999511719</ele>
        <time>2014-02-12T10:41:51.000Z</time>
      </trkpt>
      <trkpt lat="45.92008" lon="6.49134">
        <ele>1540.1999511719</ele>
        <time>2014-02-12T10:41:56.000Z</time>
      </trkpt>
      <trkpt lat="45.92008" lon="6.49134">
        <ele>1540.1999511719</ele>
        <time>2014-02-12T10:41:58.000Z</time>
      </trkpt>
      <trkpt lat="45.92008" lon="6.49134">
        <ele>1540.1999511719</ele>
        <time>2014-02-12T10:42:02.000Z</time>
      </trkpt>
      <trkpt lat="45.92008" lon="6.49134">
        <ele>1540.1999511719</ele>
        <time>2014-02-12T10:42:03.000Z</time>
      </trkpt>
      <trkpt lat="45.92008" lon="6.49134">
        <ele>1540.1999511719</ele>
        <time>2014-02-12T10:42:04.000Z</time>
      </trkpt>
      <trkpt lat="45.92008" lon="6.49134">
        <ele>1540.1999511719</ele>
        <time>2014-02-12T10:42:10.000Z</time>
      </trkpt>
      <trkpt lat="45.92008" lon="6.49134">
        <ele>1540.1999511719</ele>
        <time>2014-02-12T10:42:11.000Z</time>
      </trkpt>
      <trkpt lat="45.92008" lon="6.49134">
        <ele>1540.1999511719</ele>
        <time>2014-02-12T10:42:12.000Z</time>
      </trkpt>
      <trkpt lat="45.92008" lon="6.49134">
        <ele>1540.1999511719</ele>
        <time>2014-02-12T10:42:13.000Z</time>
      </trkpt>
      <trkpt lat="45.92008" lon="6.49134">
        <ele>1540.1999511719</ele>
        <time>2014-02-12T10:42:15.000Z</time>
      </trkpt>
      <trkpt lat="45.92008" lon="6.49134">
        <ele>1540.1999511719</ele>
        <time>2014-02-12T10:42:16.000Z</time>
      </trkpt>
      <trkpt lat="45.92008" lon="6.49134">
        <ele>1540.1999511719</ele>
        <time>2014-02-12T10:42:17.000Z</time>
      </trkpt>
      <trkpt lat="45.92008" lon="6.49134">
        <ele>1540.1999511719</ele>
        <time>2014-02-12T10:42:18.000Z</time>
      </trkpt>
      <trkpt lat="45.92008" lon="6.49134">
        <ele>1540.1999511719</ele>
        <time>2014-02-12T10:42:19.000Z</time>
      </trkpt>
      <trkpt lat="45.92008" lon="6.49134">
        <ele>1540.1999511719</ele>
        <time>2014-02-12T10:42:20.000Z</time>
      </trkpt>
      <trkpt lat="45.92008" lon="6.49134">
        <ele>1540.1999511719</ele>
        <time>2014-02-12T10:42:21.000Z</time>
      </trkpt>
      <trkpt lat="45.92008" lon="6.49134">
        <ele>1540.1999511719</ele>
        <time>2014-02-12T10:42:23.000Z</time>
      </trkpt>
      <trkpt lat="45.92008" lon="6.49134">
        <ele>1540.1999511719</ele>
        <time>2014-02-12T10:42:24.000Z</time>
      </trkpt>
      <trkpt lat="45.92008" lon="6.49134">
        <ele>1540.1999511719</ele>
        <time>2014-02-12T10:42:26.000Z</time>
      </trkpt>
      <trkpt lat="45.92008" lon="6.49134">
        <ele>1540.1999511719</ele>
        <time>2014-02-12T10:42:27.000Z</time>
      </trkpt>
      <trkpt lat="45.92008" lon="6.49134">
        <ele>1540.1999511719</ele>
        <time>2014-02-12T10:42:28.000Z</time>
      </trkpt>
      <trkpt lat="45.92008" lon="6.49134">
        <ele>1540.1999511719</ele>
        <time>2014-02-12T10:42:31.000Z</time>
      </trkpt>
      <trkpt lat="45.92008" lon="6.49134">
        <ele>1540.1999511719</ele>
        <time>2014-02-12T10:42:32.000Z</time>
      </trkpt>
      <trkpt lat="45.92008" lon="6.49134">
        <ele>1540.1999511719</ele>
        <time>2014-02-12T10:42:33.000Z</time>
      </trkpt>
      <trkpt lat="45.92008" lon="6.49134">
        <ele>1540.1999511719</ele>
        <time>2014-02-12T10:42:34.000Z</time>
      </trkpt>
      <trkpt lat="45.92008" lon="6.49134">
        <ele>1540.1999511719</ele>
        <time>2014-02-12T10:42:35.000Z</time>
      </trkpt>
      <trkpt lat="45.92008" lon="6.49134">
        <ele>1540.1999511719</ele>
        <time>2014-02-12T10:42:37.000Z</time>
      </trkpt>
      <trkpt lat="45.92008" lon="6.49134">
        <ele>1540.1999511719</ele>
        <time>2014-02-12T10:42:38.000Z</time>
      </trkpt>
      <trkpt lat="45.92008" lon="6.49134">
        <ele>1540.1999511719</ele>
        <time>2014-02-12T10:42:39.000Z</time>
      </trkpt>
      <trkpt lat="45.92008" lon="6.49134">
        <ele>1540.1999511719</ele>
        <time>2014-02-12T10:42:42.000Z</time>
      </trkpt>
      <trkpt lat="45.92008" lon="6.49134">
        <ele>1540.1999511719</ele>
        <time>2014-02-12T10:42:43.000Z</time>
      </trkpt>
      <trkpt lat="45.92008" lon="6.49134">
        <ele>1540.1999511719</ele>
        <time>2014-02-12T10:42:46.000Z</time>
      </trkpt>
      <trkpt lat="45.92008" lon="6.49134">
        <ele>1540.1999511719</ele>
        <time>2014-02-12T10:42:48.000Z</time>
      </trkpt>
      <trkpt lat="45.92008" lon="6.49134">
        <ele>1540.1999511719</ele>
        <time>2014-02-12T10:42:51.000Z</time>
      </trkpt>
      <trkpt lat="45.92008" lon="6.49134">
        <ele>1540.1999511719</ele>
        <time>2014-02-12T10:42:52.000Z</time>
      </trkpt>
      <trkpt lat="45.92008" lon="6.49134">
        <ele>1540.1999511719</ele>
        <time>2014-02-12T10:42:53.000Z</time>
      </trkpt>
      <trkpt lat="45.92008" lon="6.49134">
        <ele>1540.1999511719</ele>
        <time>2014-02-12T10:42:54.000Z</time>
      </trkpt>
      <trkpt lat="45.92008" lon="6.49134">
        <ele>1540.1999511719</ele>
        <time>2014-02-12T10:42:58.000Z</time>
      </trkpt>
      <trkpt lat="45.92008" lon="6.49134">
        <ele>1540.1999511719</ele>
        <time>2014-02-12T10:42:59.000Z</time>
      </trkpt>
      <trkpt lat="45.92008" lon="6.49134">
        <ele>1540.4000244141</ele>
        <time>2014-02-12T10:43:01.000Z</time>
      </trkpt>
      <trkpt lat="45.92008" lon="6.49134">
        <ele>1540.4000244141</ele>
        <time>2014-02-12T10:43:02.000Z</time>
      </trkpt>
      <trkpt lat="45.92008" lon="6.49134">
        <ele>1540.4000244141</ele>
        <time>2014-02-12T10:43:03.000Z</time>
      </trkpt>
      <trkpt lat="45.92008" lon="6.49134">
        <ele>1540.4000244141</ele>
        <time>2014-02-12T10:43:05.000Z</time>
      </trkpt>
      <trkpt lat="45.92008" lon="6.49134">
        <ele>1540.4000244141</ele>
        <time>2014-02-12T10:43:06.000Z</time>
      </trkpt>
      <trkpt lat="45.92008" lon="6.49134">
        <ele>1540.4000244141</ele>
        <time>2014-02-12T10:43:07.000Z</time>
      </trkpt>
      <trkpt lat="45.92008" lon="6.49134">
        <ele>1540.4000244141</ele>
        <time>2014-02-12T10:43:09.000Z</time>
      </trkpt>
      <trkpt lat="45.92008" lon="6.49134">
        <ele>1540.4000244141</ele>
        <time>2014-02-12T10:43:10.000Z</time>
      </trkpt>
      <trkpt lat="45.92008" lon="6.49134">
        <ele>1540.4000244141</ele>
        <time>2014-02-12T10:43:14.000Z</time>
      </trkpt>
      <trkpt lat="45.92008" lon="6.49134">
        <ele>1540.4000244141</ele>
        <time>2014-02-12T10:43:15.000Z</time>
      </trkpt>
      <trkpt lat="45.92008" lon="6.49134">
        <ele>1540.4000244141</ele>
        <time>2014-02-12T10:43:21.000Z</time>
      </trkpt>
      <trkpt lat="45.92008" lon="6.49134">
        <ele>1540.4000244141</ele>
        <time>2014-02-12T10:43:22.000Z</time>
      </trkpt>
      <trkpt lat="45.92008" lon="6.49134">
        <ele>1540.4000244141</ele>
        <time>2014-02-12T10:43:23.000Z</time>
      </trkpt>
      <trkpt lat="45.92008" lon="6.49134">
        <ele>1540.4000244141</ele>
        <time>2014-02-12T10:43:24.000Z</time>
      </trkpt>
      <trkpt lat="45.92008" lon="6.49134">
        <ele>1540.4000244141</ele>
        <time>2014-02-12T10:43:28.000Z</time>
      </trkpt>
      <trkpt lat="45.92008" lon="6.49134">
        <ele>1540.4000244141</ele>
        <time>2014-02-12T10:43:31.000Z</time>
      </trkpt>
      <trkpt lat="45.92008" lon="6.49134">
        <ele>1540.4000244141</ele>
        <time>2014-02-12T10:43:32.000Z</time>
      </trkpt>
      <trkpt lat="45.92008" lon="6.49134">
        <ele>1540.4000244141</ele>
        <time>2014-02-12T10:43:33.000Z</time>
      </trkpt>
      <trkpt lat="45.92008" lon="6.49134">
        <ele>1540.4000244141</ele>
        <time>2014-02-12T10:43:34.000Z</time>
      </trkpt>
      <trkpt lat="45.92008" lon="6.49134">
        <ele>1540.4000244141</ele>
        <time>2014-02-12T10:43:36.000Z</time>
      </trkpt>
      <trkpt lat="45.92008" lon="6.49134">
        <ele>1540.4000244141</ele>
        <time>2014-02-12T10:43:37.000Z</time>
      </trkpt>
      <trkpt lat="45.92008" lon="6.49134">
        <ele>1540.4000244141</ele>
        <time>2014-02-12T10:43:38.000Z</time>
      </trkpt>
      <trkpt lat="45.92008" lon="6.49134">
        <ele>1540.4000244141</ele>
        <time>2014-02-12T10:43:39.000Z</time>
      </trkpt>
      <trkpt lat="45.92008" lon="6.49134">
        <ele>1540.4000244141</ele>
        <time>2014-02-12T10:43:40.000Z</time>
      </trkpt>
      <trkpt lat="45.92008" lon="6.49134">
        <ele>1540.4000244141</ele>
        <time>2014-02-12T10:43:41.000Z</time>
      </trkpt>
      <trkpt lat="45.92008" lon="6.49134">
        <ele>1540.4000244141</ele>
        <time>2014-02-12T10:43:42.000Z</time>
      </trkpt>
      <trkpt lat="45.92008" lon="6.49134">
        <ele>1540.4000244141</ele>
        <time>2014-02-12T10:43:43.000Z</time>
      </trkpt>
      <trkpt lat="45.92008" lon="6.49134">
        <ele>1540.4000244141</ele>
        <time>2014-02-12T10:43:44.000Z</time>
      </trkpt>
      <trkpt lat="45.92008" lon="6.49134">
        <ele>1540.4000244141</ele>
        <time>2014-02-12T10:43:45.000Z</time>
      </trkpt>
      <trkpt lat="45.92008" lon="6.49134">
        <ele>1540.4000244141</ele>
        <time>2014-02-12T10:43:46.000Z</time>
      </trkpt>
      <trkpt lat="45.92008" lon="6.49134">
        <ele>1540.4000244141</ele>
        <time>2014-02-12T10:43:47.000Z</time>
      </trkpt>
      <trkpt lat="45.92008" lon="6.49134">
        <ele>1540.4000244141</ele>
        <time>2014-02-12T10:43:48.000Z</time>
      </trkpt>
      <trkpt lat="45.92008" lon="6.49134">
        <ele>1540.4000244141</ele>
        <time>2014-02-12T10:43:49.000Z</time>
      </trkpt>
      <trkpt lat="45.92008" lon="6.49134">
        <ele>1540.4000244141</ele>
        <time>2014-02-12T10:43:51.000Z</time>
      </trkpt>
      <trkpt lat="45.92008" lon="6.49134">
        <ele>1540.4000244141</ele>
        <time>2014-02-12T10:43:52.000Z</time>
      </trkpt>
      <trkpt lat="45.92008" lon="6.49134">
        <ele>1540.4000244141</ele>
        <time>2014-02-12T10:43:53.000Z</time>
      </trkpt>
      <trkpt lat="45.92008" lon="6.49134">
        <ele>1540.4000244141</ele>
        <time>2014-02-12T10:43:54.000Z</time>
      </trkpt>
      <trkpt lat="45.92008" lon="6.49134">
        <ele>1540.4000244141</ele>
        <time>2014-02-12T10:43:55.000Z</time>
      </trkpt>
      <trkpt lat="45.92008" lon="6.49134">
        <ele>1540.4000244141</ele>
        <time>2014-02-12T10:43:56.000Z</time>
      </trkpt>
      <trkpt lat="45.92008" lon="6.49134">
        <ele>1540.4000244141</ele>
        <time>2014-02-12T10:43:57.000Z</time>
      </trkpt>
      <trkpt lat="45.92008" lon="6.49134">
        <ele>1540.4000244141</ele>
        <time>2014-02-12T10:44:02.000Z</time>
      </trkpt>
      <trkpt lat="45.92008" lon="6.49134">
        <ele>1540.4000244141</ele>
        <time>2014-02-12T10:44:03.000Z</time>
      </trkpt>
      <trkpt lat="45.92008" lon="6.49134">
        <ele>1540.4000244141</ele>
        <time>2014-02-12T10:44:04.000Z</time>
      </trkpt>
      <trkpt lat="45.92008" lon="6.49134">
        <ele>1540.4000244141</ele>
        <time>2014-02-12T10:44:05.000Z</time>
      </trkpt>
      <trkpt lat="45.92008" lon="6.49134">
        <ele>1540.4000244141</ele>
        <time>2014-02-12T10:44:07.000Z</time>
      </trkpt>
      <trkpt lat="45.92008" lon="6.49134">
        <ele>1540.4000244141</ele>
        <time>2014-02-12T10:44:08.000Z</time>
      </trkpt>
      <trkpt lat="45.92008" lon="6.49134">
        <ele>1540.4000244141</ele>
        <time>2014-02-12T10:44:10.000Z</time>
      </trkpt>
      <trkpt lat="45.92008" lon="6.49134">
        <ele>1540.4000244141</ele>
        <time>2014-02-12T10:44:12.000Z</time>
      </trkpt>
      <trkpt lat="45.92008" lon="6.49134">
        <ele>1540.4000244141</ele>
        <time>2014-02-12T10:44:13.000Z</time>
      </trkpt>
      <trkpt lat="45.92008" lon="6.49134">
        <ele>1540.4000244141</ele>
        <time>2014-02-12T10:44:14.000Z</time>
      </trkpt>
      <trkpt lat="45.92008" lon="6.49134">
        <ele>1540.4000244141</ele>
        <time>2014-02-12T10:44:15.000Z</time>
      </trkpt>
      <trkpt lat="45.92008" lon="6.49134">
        <ele>1540.4000244141</ele>
        <time>2014-02-12T10:44:16.000Z</time>
      </trkpt>
      <trkpt lat="45.92008" lon="6.49134">
        <ele>1540.4000244141</ele>
        <time>2014-02-12T10:44:17.000Z</time>
      </trkpt>
      <trkpt lat="45.92008" lon="6.49134">
        <ele>1540.4000244141</ele>
        <time>2014-02-12T10:44:18.000Z</time>
      </trkpt>
      <trkpt lat="45.92008" lon="6.49134">
        <ele>1540.4000244141</ele>
        <time>2014-02-12T10:44:19.000Z</time>
      </trkpt>
      <trkpt lat="45.92007" lon="6.49135">
        <ele>1541</ele>
        <time>2014-02-12T10:44:20.000Z</time>
      </trkpt>
      <trkpt lat="45.92007" lon="6.49135">
        <ele>1541</ele>
        <time>2014-02-12T10:44:21.000Z</time>
      </trkpt>
      <trkpt lat="45.92007" lon="6.49135">
        <ele>1541</ele>
        <time>2014-02-12T10:44:22.000Z</time>
      </trkpt>
      <trkpt lat="45.92007" lon="6.49135">
        <ele>1541</ele>
        <time>2014-02-12T10:44:23.000Z</time>
      </trkpt>
      <trkpt lat="45.92007" lon="6.49135">
        <ele>1541</ele>
        <time>2014-02-12T10:44:24.000Z</time>
      </trkpt>
      <trkpt lat="45.92007" lon="6.49135">
        <ele>1541</ele>
        <time>2014-02-12T10:44:25.000Z</time>
      </trkpt>
      <trkpt lat="45.92007" lon="6.49135">
        <ele>1541</ele>
        <time>2014-02-12T10:44:27.000Z</time>
      </trkpt>
      <trkpt lat="45.92007" lon="6.49136">
        <ele>1540.8000488281</ele>
        <time>2014-02-12T10:44:30.000Z</time>
      </trkpt>
      <trkpt lat="45.92007" lon="6.49136">
        <ele>1540.8000488281</ele>
        <time>2014-02-12T10:44:31.000Z</time>
      </trkpt>
      <trkpt lat="45.92007" lon="6.49136">
        <ele>1540.8000488281</ele>
        <time>2014-02-12T10:44:32.000Z</time>
      </trkpt>
      <trkpt lat="45.92007" lon="6.49136">
        <ele>1540.8000488281</ele>
        <time>2014-02-12T10:44:33.000Z</time>
      </trkpt>
      <trkpt lat="45.92007" lon="6.49136">
        <ele>1540.8000488281</ele>
        <time>2014-02-12T10:44:34.000Z</time>
      </trkpt>
      <trkpt lat="45.92007" lon="6.49136">
        <ele>1540.8000488281</ele>
        <time>2014-02-12T10:44:35.000Z</time>
      </trkpt>
      <trkpt lat="45.92007" lon="6.49136">
        <ele>1540.8000488281</ele>
        <time>2014-02-12T10:44:36.000Z</time>
      </trkpt>
      <trkpt lat="45.92007" lon="6.49136">
        <ele>1540.8000488281</ele>
        <time>2014-02-12T10:44:37.000Z</time>
      </trkpt>
      <trkpt lat="45.92008" lon="6.49136">
        <ele>1540.5999755859</ele>
        <time>2014-02-12T10:44:38.000Z</time>
      </trkpt>
      <trkpt lat="45.92009" lon="6.49136">
        <ele>1540.1999511719</ele>
        <time>2014-02-12T10:44:39.000Z</time>
      </trkpt>
      <trkpt lat="45.92009" lon="6.49136">
        <ele>1540</ele>
        <time>2014-02-12T10:44:40.000Z</time>
      </trkpt>
      <trkpt lat="45.92009" lon="6.49136">
        <ele>1540</ele>
        <time>2014-02-12T10:44:41.000Z</time>
      </trkpt>
      <trkpt lat="45.92009" lon="6.49136">
        <ele>1540</ele>
        <time>2014-02-12T10:44:42.000Z</time>
      </trkpt>
      <trkpt lat="45.9201" lon="6.49136">
        <ele>1539.8000488281</ele>
        <time>2014-02-12T10:44:43.000Z</time>
      </trkpt>
      <trkpt lat="45.9201" lon="6.49136">
        <ele>1539.8000488281</ele>
        <time>2014-02-12T10:44:44.000Z</time>
      </trkpt>
      <trkpt lat="45.92012" lon="6.49137">
        <ele>1539</ele>
        <time>2014-02-12T10:44:46.000Z</time>
      </trkpt>
      <trkpt lat="45.92015" lon="6.49139">
        <ele>1538</ele>
        <time>2014-02-12T10:44:48.000Z</time>
      </trkpt>
      <trkpt lat="45.92017" lon="6.49139">
        <ele>1537.4000244141</ele>
        <time>2014-02-12T10:44:49.000Z</time>
      </trkpt>
      <trkpt lat="45.92018" lon="6.4914">
        <ele>1537</ele>
        <time>2014-02-12T10:44:50.000Z</time>
      </trkpt>
      <trkpt lat="45.9202" lon="6.49142">
        <ele>1536.1999511719</ele>
        <time>2014-02-12T10:44:51.000Z</time>
      </trkpt>
      <trkpt lat="45.92023" lon="6.49145">
        <ele>1535.4000244141</ele>
        <time>2014-02-12T10:44:52.000Z</time>
      </trkpt>
      <trkpt lat="45.92027" lon="6.49148">
        <ele>1534.1999511719</ele>
        <time>2014-02-12T10:44:53.000Z</time>
      </trkpt>
      <trkpt lat="45.92031" lon="6.49151">
        <ele>1533.4000244141</ele>
        <time>2014-02-12T10:44:54.000Z</time>
      </trkpt>
      <trkpt lat="45.92035" lon="6.49155">
        <ele>1532.4000244141</ele>
        <time>2014-02-12T10:44:55.000Z</time>
      </trkpt>
      <trkpt lat="45.92038" lon="6.49158">
        <ele>1531.4000244141</ele>
        <time>2014-02-12T10:44:56.000Z</time>
      </trkpt>
      <trkpt lat="45.92042" lon="6.4916">
        <ele>1530.5999755859</ele>
        <time>2014-02-12T10:44:57.000Z</time>
      </trkpt>
      <trkpt lat="45.92045" lon="6.49162">
        <ele>1529.8000488281</ele>
        <time>2014-02-12T10:44:58.000Z</time>
      </trkpt>
      <trkpt lat="45.92047" lon="6.49163">
        <ele>1528.8000488281</ele>
        <time>2014-02-12T10:44:59.000Z</time>
      </trkpt>
      <trkpt lat="45.9205" lon="6.49164">
        <ele>1528</ele>
        <time>2014-02-12T10:45:00.000Z</time>
      </trkpt>
      <trkpt lat="45.92053" lon="6.49166">
        <ele>1527</ele>
        <time>2014-02-12T10:45:01.000Z</time>
      </trkpt>
      <trkpt lat="45.92056" lon="6.49167">
        <ele>1526</ele>
        <time>2014-02-12T10:45:02.000Z</time>
      </trkpt>
      <trkpt lat="45.92059" lon="6.49168">
        <ele>1524.8000488281</ele>
        <time>2014-02-12T10:45:03.000Z</time>
      </trkpt>
      <trkpt lat="45.92062" lon="6.49167">
        <ele>1523.8000488281</ele>
        <time>2014-02-12T10:45:04.000Z</time>
      </trkpt>
      <trkpt lat="45.92064" lon="6.49167">
        <ele>1522.8000488281</ele>
        <time>2014-02-12T10:45:05.000Z</time>
      </trkpt>
      <trkpt lat="45.92068" lon="6.49165">
        <ele>1521.1999511719</ele>
        <time>2014-02-12T10:45:06.000Z</time>
      </trkpt>
      <trkpt lat="45.92071" lon="6.49161">
        <ele>1519.5999755859</ele>
        <time>2014-02-12T10:45:07.000Z</time>
      </trkpt>
      <trkpt lat="45.92074" lon="6.49157">
        <ele>1517.4000244141</ele>
        <time>2014-02-12T10:45:08.000Z</time>
      </trkpt>
      <trkpt lat="45.92077" lon="6.49152">
        <ele>1515</ele>
        <time>2014-02-12T10:45:09.000Z</time>
      </trkpt>
      <trkpt lat="45.92081" lon="6.49148">
        <ele>1512.5999755859</ele>
        <time>2014-02-12T10:45:10.000Z</time>
      </trkpt>
      <trkpt lat="45.92083" lon="6.49144">
        <ele>1510.4000244141</ele>
        <time>2014-02-12T10:45:11.000Z</time>
      </trkpt>
      <trkpt lat="45.92086" lon="6.49141">
        <ele>1508.1999511719</ele>
        <time>2014-02-12T10:45:12.000Z</time>
      </trkpt>
      <trkpt lat="45.92088" lon="6.49131">
        <ele>1504.8000488281</ele>
        <time>2014-02-12T10:45:13.000Z</time>
      </trkpt>
      <trkpt lat="45.9209" lon="6.49127">
        <ele>1502.8000488281</ele>
        <time>2014-02-12T10:45:14.000Z</time>
      </trkpt>
      <trkpt lat="45.92094" lon="6.49126">
        <ele>1500.8000488281</ele>
        <time>2014-02-12T10:45:15.000Z</time>
      </trkpt>
      <trkpt lat="45.92099" lon="6.49122">
        <ele>1498</ele>
        <time>2014-02-12T10:45:16.000Z</time>
      </trkpt>
      <trkpt lat="45.92101" lon="6.49117">
        <ele>1495.4000244141</ele>
        <time>2014-02-12T10:45:17.000Z</time>
      </trkpt>
      <trkpt lat="45.92101" lon="6.49111">
        <ele>1493.4000244141</ele>
        <time>2014-02-12T10:45:18.000Z</time>
      </trkpt>
      <trkpt lat="45.92104" lon="6.49105">
        <ele>1491.5999755859</ele>
        <time>2014-02-12T10:45:19.000Z</time>
      </trkpt>
      <trkpt lat="45.92107" lon="6.49098">
        <ele>1489.8000488281</ele>
        <time>2014-02-12T10:45:20.000Z</time>
      </trkpt>
      <trkpt lat="45.9211" lon="6.4909">
        <ele>1487.5999755859</ele>
        <time>2014-02-12T10:45:21.000Z</time>
      </trkpt>
      <trkpt lat="45.92113" lon="6.49079">
        <ele>1485</ele>
        <time>2014-02-12T10:45:22.000Z</time>
      </trkpt>
      <trkpt lat="45.92115" lon="6.49068">
        <ele>1482.4000244141</ele>
        <time>2014-02-12T10:45:23.000Z</time>
      </trkpt>
      <trkpt lat="45.92118" lon="6.49058">
        <ele>1480.4000244141</ele>
        <time>2014-02-12T10:45:24.000Z</time>
      </trkpt>
      <trkpt lat="45.9212" lon="6.49051">
        <ele>1479</ele>
        <time>2014-02-12T10:45:25.000Z</time>
      </trkpt>
      <trkpt lat="45.9212" lon="6.49047">
        <ele>1478.1999511719</ele>
        <time>2014-02-12T10:45:26.000Z</time>
      </trkpt>
      <trkpt lat="45.9212" lon="6.49042">
        <ele>1477.5999755859</ele>
        <time>2014-02-12T10:45:27.000Z</time>
      </trkpt>
      <trkpt lat="45.9212" lon="6.49045">
        <ele>1478</ele>
        <time>2014-02-12T10:45:28.000Z</time>
      </trkpt>
      <trkpt lat="45.9212" lon="6.49045">
        <ele>1478</ele>
        <time>2014-02-12T10:45:29.000Z</time>
      </trkpt>
      <trkpt lat="45.9212" lon="6.49045">
        <ele>1478.1999511719</ele>
        <time>2014-02-12T10:45:30.000Z</time>
      </trkpt>
      <trkpt lat="45.92119" lon="6.49045">
        <ele>1478.1999511719</ele>
        <time>2014-02-12T10:45:31.000Z</time>
      </trkpt>
      <trkpt lat="45.92119" lon="6.49045">
        <ele>1478.1999511719</ele>
        <time>2014-02-12T10:45:32.000Z</time>
      </trkpt>
      <trkpt lat="45.92118" lon="6.49046">
        <ele>1478.8000488281</ele>
        <time>2014-02-12T10:45:33.000Z</time>
      </trkpt>
      <trkpt lat="45.92117" lon="6.49046">
        <ele>1479</ele>
        <time>2014-02-12T10:45:34.000Z</time>
      </trkpt>
      <trkpt lat="45.92117" lon="6.49045">
        <ele>1478.8000488281</ele>
        <time>2014-02-12T10:45:35.000Z</time>
      </trkpt>
      <trkpt lat="45.92117" lon="6.49045">
        <ele>1478.8000488281</ele>
        <time>2014-02-12T10:45:36.000Z</time>
      </trkpt>
      <trkpt lat="45.92117" lon="6.49045">
        <ele>1478.8000488281</ele>
        <time>2014-02-12T10:45:37.000Z</time>
      </trkpt>
      <trkpt lat="45.92117" lon="6.49045">
        <ele>1478.8000488281</ele>
        <time>2014-02-12T10:45:38.000Z</time>
      </trkpt>
      <trkpt lat="45.92117" lon="6.49045">
        <ele>1478.8000488281</ele>
        <time>2014-02-12T10:45:39.000Z</time>
      </trkpt>
      <trkpt lat="45.92117" lon="6.49045">
        <ele>1478.8000488281</ele>
        <time>2014-02-12T10:45:42.000Z</time>
      </trkpt>
      <trkpt lat="45.92117" lon="6.49045">
        <ele>1478.8000488281</ele>
        <time>2014-02-12T10:45:43.000Z</time>
      </trkpt>
      <trkpt lat="45.92117" lon="6.49045">
        <ele>1478.8000488281</ele>
        <time>2014-02-12T10:45:45.000Z</time>
      </trkpt>
      <trkpt lat="45.92117" lon="6.49045">
        <ele>1478.8000488281</ele>
        <time>2014-02-12T10:45:46.000Z</time>
      </trkpt>
      <trkpt lat="45.92117" lon="6.49045">
        <ele>1478.8000488281</ele>
        <time>2014-02-12T10:45:49.000Z</time>
      </trkpt>
      <trkpt lat="45.92117" lon="6.49045">
        <ele>1478.8000488281</ele>
        <time>2014-02-12T10:45:51.000Z</time>
      </trkpt>
      <trkpt lat="45.92117" lon="6.49045">
        <ele>1478.8000488281</ele>
        <time>2014-02-12T10:45:52.000Z</time>
      </trkpt>
      <trkpt lat="45.92117" lon="6.49045">
        <ele>1478.8000488281</ele>
        <time>2014-02-12T10:45:53.000Z</time>
      </trkpt>
      <trkpt lat="45.92117" lon="6.49045">
        <ele>1478.8000488281</ele>
        <time>2014-02-12T10:45:55.000Z</time>
      </trkpt>
      <trkpt lat="45.92117" lon="6.49045">
        <ele>1478.8000488281</ele>
        <time>2014-02-12T10:45:56.000Z</time>
      </trkpt>
      <trkpt lat="45.92117" lon="6.49045">
        <ele>1478.8000488281</ele>
        <time>2014-02-12T10:45:57.000Z</time>
      </trkpt>
      <trkpt lat="45.92117" lon="6.49045">
        <ele>1478.8000488281</ele>
        <time>2014-02-12T10:45:58.000Z</time>
      </trkpt>
      <trkpt lat="45.92117" lon="6.49045">
        <ele>1478.8000488281</ele>
        <time>2014-02-12T10:45:59.000Z</time>
      </trkpt>
      <trkpt lat="45.92117" lon="6.49045">
        <ele>1478.8000488281</ele>
        <time>2014-02-12T10:46:00.000Z</time>
      </trkpt>
      <trkpt lat="45.92117" lon="6.49045">
        <ele>1478.8000488281</ele>
        <time>2014-02-12T10:46:01.000Z</time>
      </trkpt>
      <trkpt lat="45.92117" lon="6.49045">
        <ele>1478.8000488281</ele>
        <time>2014-02-12T10:46:02.000Z</time>
      </trkpt>
      <trkpt lat="45.92117" lon="6.49045">
        <ele>1478.8000488281</ele>
        <time>2014-02-12T10:46:03.000Z</time>
      </trkpt>
      <trkpt lat="45.92117" lon="6.49045">
        <ele>1478.8000488281</ele>
        <time>2014-02-12T10:46:04.000Z</time>
      </trkpt>
      <trkpt lat="45.92117" lon="6.49045">
        <ele>1478.8000488281</ele>
        <time>2014-02-12T10:46:05.000Z</time>
      </trkpt>
      <trkpt lat="45.92117" lon="6.49045">
        <ele>1478.8000488281</ele>
        <time>2014-02-12T10:46:06.000Z</time>
      </trkpt>
      <trkpt lat="45.92117" lon="6.49045">
        <ele>1478.8000488281</ele>
        <time>2014-02-12T10:46:07.000Z</time>
      </trkpt>
      <trkpt lat="45.92117" lon="6.49045">
        <ele>1478.8000488281</ele>
        <time>2014-02-12T10:46:08.000Z</time>
      </trkpt>
      <trkpt lat="45.92117" lon="6.49045">
        <ele>1478.8000488281</ele>
        <time>2014-02-12T10:46:09.000Z</time>
      </trkpt>
      <trkpt lat="45.92117" lon="6.49045">
        <ele>1478.8000488281</ele>
        <time>2014-02-12T10:46:10.000Z</time>
      </trkpt>
      <trkpt lat="45.92117" lon="6.49045">
        <ele>1478.8000488281</ele>
        <time>2014-02-12T10:46:11.000Z</time>
      </trkpt>
      <trkpt lat="45.92117" lon="6.49045">
        <ele>1478.8000488281</ele>
        <time>2014-02-12T10:46:12.000Z</time>
      </trkpt>
      <trkpt lat="45.92117" lon="6.49045">
        <ele>1478.8000488281</ele>
        <time>2014-02-12T10:46:13.000Z</time>
      </trkpt>
      <trkpt lat="45.92117" lon="6.49045">
        <ele>1478.5999755859</ele>
        <time>2014-02-12T10:46:14.000Z</time>
      </trkpt>
      <trkpt lat="45.92117" lon="6.49045">
        <ele>1478.5999755859</ele>
        <time>2014-02-12T10:46:15.000Z</time>
      </trkpt>
      <trkpt lat="45.92117" lon="6.49045">
        <ele>1478.5999755859</ele>
        <time>2014-02-12T10:46:16.000Z</time>
      </trkpt>
      <trkpt lat="45.92117" lon="6.49045">
        <ele>1478.5999755859</ele>
        <time>2014-02-12T10:46:17.000Z</time>
      </trkpt>
      <trkpt lat="45.92117" lon="6.49045">
        <ele>1478.5999755859</ele>
        <time>2014-02-12T10:46:18.000Z</time>
      </trkpt>
      <trkpt lat="45.92117" lon="6.49045">
        <ele>1478.5999755859</ele>
        <time>2014-02-12T10:46:19.000Z</time>
      </trkpt>
      <trkpt lat="45.92117" lon="6.49045">
        <ele>1478.5999755859</ele>
        <time>2014-02-12T10:46:20.000Z</time>
      </trkpt>
      <trkpt lat="45.92117" lon="6.49045">
        <ele>1478.5999755859</ele>
        <time>2014-02-12T10:46:21.000Z</time>
      </trkpt>
      <trkpt lat="45.92117" lon="6.49045">
        <ele>1478.5999755859</ele>
        <time>2014-02-12T10:46:22.000Z</time>
      </trkpt>
      <trkpt lat="45.92117" lon="6.49045">
        <ele>1478.5999755859</ele>
        <time>2014-02-12T10:46:24.000Z</time>
      </trkpt>
      <trkpt lat="45.92117" lon="6.49045">
        <ele>1478.5999755859</ele>
        <time>2014-02-12T10:46:25.000Z</time>
      </trkpt>
      <trkpt lat="45.92117" lon="6.49045">
        <ele>1478.5999755859</ele>
        <time>2014-02-12T10:46:26.000Z</time>
      </trkpt>
      <trkpt lat="45.92117" lon="6.49045">
        <ele>1478.5999755859</ele>
        <time>2014-02-12T10:46:27.000Z</time>
      </trkpt>
      <trkpt lat="45.92117" lon="6.49045">
        <ele>1478.5999755859</ele>
        <time>2014-02-12T10:46:28.000Z</time>
      </trkpt>
      <trkpt lat="45.92117" lon="6.49045">
        <ele>1478.5999755859</ele>
        <time>2014-02-12T10:46:29.000Z</time>
      </trkpt>
      <trkpt lat="45.92117" lon="6.49045">
        <ele>1478.5999755859</ele>
        <time>2014-02-12T10:46:30.000Z</time>
      </trkpt>
      <trkpt lat="45.92117" lon="6.49045">
        <ele>1478.5999755859</ele>
        <time>2014-02-12T10:46:31.000Z</time>
      </trkpt>
      <trkpt lat="45.92117" lon="6.49045">
        <ele>1478.5999755859</ele>
        <time>2014-02-12T10:46:32.000Z</time>
      </trkpt>
      <trkpt lat="45.92117" lon="6.49045">
        <ele>1478.5999755859</ele>
        <time>2014-02-12T10:46:33.000Z</time>
      </trkpt>
      <trkpt lat="45.92117" lon="6.49045">
        <ele>1478.5999755859</ele>
        <time>2014-02-12T10:46:34.000Z</time>
      </trkpt>
      <trkpt lat="45.92117" lon="6.49045">
        <ele>1478.5999755859</ele>
        <time>2014-02-12T10:46:35.000Z</time>
      </trkpt>
      <trkpt lat="45.92117" lon="6.49045">
        <ele>1478.5999755859</ele>
        <time>2014-02-12T10:46:36.000Z</time>
      </trkpt>
      <trkpt lat="45.92117" lon="6.49045">
        <ele>1478.5999755859</ele>
        <time>2014-02-12T10:46:37.000Z</time>
      </trkpt>
      <trkpt lat="45.92117" lon="6.49045">
        <ele>1478.5999755859</ele>
        <time>2014-02-12T10:46:38.000Z</time>
      </trkpt>
      <trkpt lat="45.92117" lon="6.49045">
        <ele>1478.5999755859</ele>
        <time>2014-02-12T10:46:39.000Z</time>
      </trkpt>
      <trkpt lat="45.92117" lon="6.49045">
        <ele>1478.5999755859</ele>
        <time>2014-02-12T10:46:40.000Z</time>
      </trkpt>
      <trkpt lat="45.92117" lon="6.49045">
        <ele>1478.5999755859</ele>
        <time>2014-02-12T10:46:41.000Z</time>
      </trkpt>
      <trkpt lat="45.92117" lon="6.49045">
        <ele>1478.5999755859</ele>
        <time>2014-02-12T10:46:42.000Z</time>
      </trkpt>
      <trkpt lat="45.92117" lon="6.49045">
        <ele>1478.5999755859</ele>
        <time>2014-02-12T10:46:43.000Z</time>
      </trkpt>
      <trkpt lat="45.92117" lon="6.49045">
        <ele>1478.5999755859</ele>
        <time>2014-02-12T10:46:44.000Z</time>
      </trkpt>
      <trkpt lat="45.92117" lon="6.49045">
        <ele>1478.5999755859</ele>
        <time>2014-02-12T10:46:45.000Z</time>
      </trkpt>
      <trkpt lat="45.92117" lon="6.49045">
        <ele>1478.5999755859</ele>
        <time>2014-02-12T10:46:46.000Z</time>
      </trkpt>
      <trkpt lat="45.92117" lon="6.49045">
        <ele>1478.5999755859</ele>
        <time>2014-02-12T10:46:47.000Z</time>
      </trkpt>
      <trkpt lat="45.92117" lon="6.49045">
        <ele>1478.5999755859</ele>
        <time>2014-02-12T10:46:48.000Z</time>
      </trkpt>
      <trkpt lat="45.92117" lon="6.49045">
        <ele>1478.5999755859</ele>
        <time>2014-02-12T10:46:49.000Z</time>
      </trkpt>
      <trkpt lat="45.92117" lon="6.49045">
        <ele>1478.5999755859</ele>
        <time>2014-02-12T10:46:50.000Z</time>
      </trkpt>
      <trkpt lat="45.92117" lon="6.49045">
        <ele>1478.5999755859</ele>
        <time>2014-02-12T10:46:51.000Z</time>
      </trkpt>
      <trkpt lat="45.92117" lon="6.49045">
        <ele>1478.5999755859</ele>
        <time>2014-02-12T10:46:52.000Z</time>
      </trkpt>
      <trkpt lat="45.92117" lon="6.49045">
        <ele>1478.5999755859</ele>
        <time>2014-02-12T10:46:53.000Z</time>
      </trkpt>
      <trkpt lat="45.92117" lon="6.49043">
        <ele>1478.4000244141</ele>
        <time>2014-02-12T10:46:54.000Z</time>
      </trkpt>
      <trkpt lat="45.92117" lon="6.49043">
        <ele>1478.4000244141</ele>
        <time>2014-02-12T10:46:55.000Z</time>
      </trkpt>
      <trkpt lat="45.92117" lon="6.49043">
        <ele>1478.4000244141</ele>
        <time>2014-02-12T10:46:56.000Z</time>
      </trkpt>
      <trkpt lat="45.92117" lon="6.49043">
        <ele>1478.4000244141</ele>
        <time>2014-02-12T10:46:57.000Z</time>
      </trkpt>
      <trkpt lat="45.92117" lon="6.49043">
        <ele>1478.4000244141</ele>
        <time>2014-02-12T10:46:58.000Z</time>
      </trkpt>
      <trkpt lat="45.92117" lon="6.49043">
        <ele>1478.4000244141</ele>
        <time>2014-02-12T10:46:59.000Z</time>
      </trkpt>
      <trkpt lat="45.92117" lon="6.49043">
        <ele>1478.4000244141</ele>
        <time>2014-02-12T10:47:00.000Z</time>
      </trkpt>
      <trkpt lat="45.92117" lon="6.49043">
        <ele>1478.4000244141</ele>
        <time>2014-02-12T10:47:01.000Z</time>
      </trkpt>
      <trkpt lat="45.92117" lon="6.49043">
        <ele>1478.4000244141</ele>
        <time>2014-02-12T10:47:02.000Z</time>
      </trkpt>
      <trkpt lat="45.92117" lon="6.49043">
        <ele>1478.4000244141</ele>
        <time>2014-02-12T10:47:03.000Z</time>
      </trkpt>
      <trkpt lat="45.92117" lon="6.49043">
        <ele>1478.4000244141</ele>
        <time>2014-02-12T10:47:04.000Z</time>
      </trkpt>
      <trkpt lat="45.92117" lon="6.49043">
        <ele>1478.4000244141</ele>
        <time>2014-02-12T10:47:06.000Z</time>
      </trkpt>
      <trkpt lat="45.92117" lon="6.49043">
        <ele>1478.4000244141</ele>
        <time>2014-02-12T10:47:07.000Z</time>
      </trkpt>
      <trkpt lat="45.92117" lon="6.49043">
        <ele>1478.4000244141</ele>
        <time>2014-02-12T10:47:08.000Z</time>
      </trkpt>
      <trkpt lat="45.92117" lon="6.49043">
        <ele>1478.4000244141</ele>
        <time>2014-02-12T10:47:09.000Z</time>
      </trkpt>
      <trkpt lat="45.92117" lon="6.49043">
        <ele>1478.4000244141</ele>
        <time>2014-02-12T10:47:10.000Z</time>
      </trkpt>
      <trkpt lat="45.92117" lon="6.49043">
        <ele>1478.4000244141</ele>
        <time>2014-02-12T10:47:11.000Z</time>
      </trkpt>
      <trkpt lat="45.92117" lon="6.49043">
        <ele>1478.4000244141</ele>
        <time>2014-02-12T10:47:12.000Z</time>
      </trkpt>
      <trkpt lat="45.92117" lon="6.49043">
        <ele>1478.4000244141</ele>
        <time>2014-02-12T10:47:13.000Z</time>
      </trkpt>
      <trkpt lat="45.92117" lon="6.49043">
        <ele>1478.4000244141</ele>
        <time>2014-02-12T10:47:14.000Z</time>
      </trkpt>
      <trkpt lat="45.92117" lon="6.49043">
        <ele>1478.4000244141</ele>
        <time>2014-02-12T10:47:16.000Z</time>
      </trkpt>
      <trkpt lat="45.92117" lon="6.49043">
        <ele>1478.4000244141</ele>
        <time>2014-02-12T10:47:17.000Z</time>
      </trkpt>
      <trkpt lat="45.92117" lon="6.49043">
        <ele>1478.4000244141</ele>
        <time>2014-02-12T10:47:21.000Z</time>
      </trkpt>
      <trkpt lat="45.92117" lon="6.49043">
        <ele>1478.4000244141</ele>
        <time>2014-02-12T10:47:22.000Z</time>
      </trkpt>
      <trkpt lat="45.92117" lon="6.49043">
        <ele>1478.4000244141</ele>
        <time>2014-02-12T10:47:23.000Z</time>
      </trkpt>
      <trkpt lat="45.92117" lon="6.49043">
        <ele>1478.4000244141</ele>
        <time>2014-02-12T10:47:24.000Z</time>
      </trkpt>
      <trkpt lat="45.92117" lon="6.49043">
        <ele>1478.4000244141</ele>
        <time>2014-02-12T10:47:25.000Z</time>
      </trkpt>
      <trkpt lat="45.92117" lon="6.49043">
        <ele>1478.4000244141</ele>
        <time>2014-02-12T10:47:26.000Z</time>
      </trkpt>
      <trkpt lat="45.92117" lon="6.49043">
        <ele>1478.4000244141</ele>
        <time>2014-02-12T10:47:28.000Z</time>
      </trkpt>
      <trkpt lat="45.92117" lon="6.49043">
        <ele>1478.4000244141</ele>
        <time>2014-02-12T10:47:29.000Z</time>
      </trkpt>
      <trkpt lat="45.92117" lon="6.49043">
        <ele>1478.4000244141</ele>
        <time>2014-02-12T10:47:30.000Z</time>
      </trkpt>
      <trkpt lat="45.92117" lon="6.49043">
        <ele>1478.4000244141</ele>
        <time>2014-02-12T10:47:31.000Z</time>
      </trkpt>
      <trkpt lat="45.92117" lon="6.49043">
        <ele>1478.4000244141</ele>
        <time>2014-02-12T10:47:32.000Z</time>
      </trkpt>
      <trkpt lat="45.92117" lon="6.49043">
        <ele>1478.4000244141</ele>
        <time>2014-02-12T10:47:33.000Z</time>
      </trkpt>
      <trkpt lat="45.92117" lon="6.49043">
        <ele>1478.4000244141</ele>
        <time>2014-02-12T10:47:34.000Z</time>
      </trkpt>
      <trkpt lat="45.92117" lon="6.49041">
        <ele>1478.1999511719</ele>
        <time>2014-02-12T10:47:35.000Z</time>
      </trkpt>
      <trkpt lat="45.92117" lon="6.49041">
        <ele>1478.1999511719</ele>
        <time>2014-02-12T10:47:36.000Z</time>
      </trkpt>
      <trkpt lat="45.92117" lon="6.49041">
        <ele>1478.1999511719</ele>
        <time>2014-02-12T10:47:37.000Z</time>
      </trkpt>
      <trkpt lat="45.92117" lon="6.49041">
        <ele>1478.1999511719</ele>
        <time>2014-02-12T10:47:39.000Z</time>
      </trkpt>
      <trkpt lat="45.92117" lon="6.49041">
        <ele>1478.1999511719</ele>
        <time>2014-02-12T10:47:40.000Z</time>
      </trkpt>
      <trkpt lat="45.92117" lon="6.49041">
        <ele>1478.1999511719</ele>
        <time>2014-02-12T10:47:41.000Z</time>
      </trkpt>
      <trkpt lat="45.92117" lon="6.49041">
        <ele>1478.1999511719</ele>
        <time>2014-02-12T10:47:42.000Z</time>
      </trkpt>
      <trkpt lat="45.92117" lon="6.49041">
        <ele>1478.1999511719</ele>
        <time>2014-02-12T10:47:43.000Z</time>
      </trkpt>
      <trkpt lat="45.92117" lon="6.49041">
        <ele>1478.1999511719</ele>
        <time>2014-02-12T10:47:45.000Z</time>
      </trkpt>
      <trkpt lat="45.92117" lon="6.49041">
        <ele>1478.1999511719</ele>
        <time>2014-02-12T10:47:46.000Z</time>
      </trkpt>
      <trkpt lat="45.92117" lon="6.49041">
        <ele>1478.1999511719</ele>
        <time>2014-02-12T10:47:47.000Z</time>
      </trkpt>
      <trkpt lat="45.92117" lon="6.49041">
        <ele>1478.1999511719</ele>
        <time>2014-02-12T10:47:48.000Z</time>
      </trkpt>
      <trkpt lat="45.92117" lon="6.49041">
        <ele>1478.1999511719</ele>
        <time>2014-02-12T10:47:49.000Z</time>
      </trkpt>
      <trkpt lat="45.92117" lon="6.49041">
        <ele>1478.1999511719</ele>
        <time>2014-02-12T10:47:50.000Z</time>
      </trkpt>
      <trkpt lat="45.92117" lon="6.49041">
        <ele>1478.1999511719</ele>
        <time>2014-02-12T10:47:52.000Z</time>
      </trkpt>
      <trkpt lat="45.92117" lon="6.49041">
        <ele>1478.1999511719</ele>
        <time>2014-02-12T10:47:53.000Z</time>
      </trkpt>
      <trkpt lat="45.92117" lon="6.49041">
        <ele>1478.1999511719</ele>
        <time>2014-02-12T10:47:54.000Z</time>
      </trkpt>
      <trkpt lat="45.92117" lon="6.49041">
        <ele>1478.1999511719</ele>
        <time>2014-02-12T10:47:55.000Z</time>
      </trkpt>
      <trkpt lat="45.92117" lon="6.49041">
        <ele>1478.1999511719</ele>
        <time>2014-02-12T10:47:56.000Z</time>
      </trkpt>
      <trkpt lat="45.92117" lon="6.49041">
        <ele>1478.1999511719</ele>
        <time>2014-02-12T10:47:57.000Z</time>
      </trkpt>
      <trkpt lat="45.92117" lon="6.49041">
        <ele>1478.1999511719</ele>
        <time>2014-02-12T10:47:58.000Z</time>
      </trkpt>
      <trkpt lat="45.92117" lon="6.49041">
        <ele>1478.1999511719</ele>
        <time>2014-02-12T10:48:00.000Z</time>
      </trkpt>
      <trkpt lat="45.92117" lon="6.49041">
        <ele>1478.1999511719</ele>
        <time>2014-02-12T10:48:01.000Z</time>
      </trkpt>
      <trkpt lat="45.92117" lon="6.49041">
        <ele>1478.1999511719</ele>
        <time>2014-02-12T10:48:02.000Z</time>
      </trkpt>
      <trkpt lat="45.92117" lon="6.49041">
        <ele>1478.1999511719</ele>
        <time>2014-02-12T10:48:03.000Z</time>
      </trkpt>
      <trkpt lat="45.92117" lon="6.49041">
        <ele>1478.1999511719</ele>
        <time>2014-02-12T10:48:04.000Z</time>
      </trkpt>
      <trkpt lat="45.92117" lon="6.49041">
        <ele>1478.1999511719</ele>
        <time>2014-02-12T10:48:05.000Z</time>
      </trkpt>
      <trkpt lat="45.92117" lon="6.49041">
        <ele>1478.1999511719</ele>
        <time>2014-02-12T10:48:06.000Z</time>
      </trkpt>
      <trkpt lat="45.92117" lon="6.49041">
        <ele>1478.1999511719</ele>
        <time>2014-02-12T10:48:07.000Z</time>
      </trkpt>
      <trkpt lat="45.92117" lon="6.49041">
        <ele>1478.1999511719</ele>
        <time>2014-02-12T10:48:08.000Z</time>
      </trkpt>
      <trkpt lat="45.92117" lon="6.49041">
        <ele>1478.1999511719</ele>
        <time>2014-02-12T10:48:09.000Z</time>
      </trkpt>
      <trkpt lat="45.92117" lon="6.49041">
        <ele>1478.1999511719</ele>
        <time>2014-02-12T10:48:10.000Z</time>
      </trkpt>
      <trkpt lat="45.92117" lon="6.49041">
        <ele>1478.1999511719</ele>
        <time>2014-02-12T10:48:11.000Z</time>
      </trkpt>
      <trkpt lat="45.92117" lon="6.49041">
        <ele>1478.1999511719</ele>
        <time>2014-02-12T10:48:12.000Z</time>
      </trkpt>
      <trkpt lat="45.92117" lon="6.4904">
        <ele>1478</ele>
        <time>2014-02-12T10:48:14.000Z</time>
      </trkpt>
      <trkpt lat="45.92117" lon="6.4904">
        <ele>1478</ele>
        <time>2014-02-12T10:48:17.000Z</time>
      </trkpt>
      <trkpt lat="45.92117" lon="6.4904">
        <ele>1478</ele>
        <time>2014-02-12T10:48:18.000Z</time>
      </trkpt>
      <trkpt lat="45.92117" lon="6.4904">
        <ele>1478</ele>
        <time>2014-02-12T10:48:19.000Z</time>
      </trkpt>
      <trkpt lat="45.92117" lon="6.4904">
        <ele>1478</ele>
        <time>2014-02-12T10:48:20.000Z</time>
      </trkpt>
      <trkpt lat="45.92117" lon="6.4904">
        <ele>1478</ele>
        <time>2014-02-12T10:48:21.000Z</time>
      </trkpt>
      <trkpt lat="45.92117" lon="6.4904">
        <ele>1478</ele>
        <time>2014-02-12T10:48:22.000Z</time>
      </trkpt>
      <trkpt lat="45.92117" lon="6.4904">
        <ele>1478</ele>
        <time>2014-02-12T10:48:23.000Z</time>
      </trkpt>
      <trkpt lat="45.92117" lon="6.4904">
        <ele>1478</ele>
        <time>2014-02-12T10:48:24.000Z</time>
      </trkpt>
      <trkpt lat="45.92117" lon="6.4904">
        <ele>1478</ele>
        <time>2014-02-12T10:48:25.000Z</time>
      </trkpt>
      <trkpt lat="45.92117" lon="6.4904">
        <ele>1478</ele>
        <time>2014-02-12T10:48:29.000Z</time>
      </trkpt>
      <trkpt lat="45.92117" lon="6.4904">
        <ele>1478</ele>
        <time>2014-02-12T10:48:30.000Z</time>
      </trkpt>
      <trkpt lat="45.92117" lon="6.4904">
        <ele>1478</ele>
        <time>2014-02-12T10:48:33.000Z</time>
      </trkpt>
      <trkpt lat="45.92117" lon="6.4904">
        <ele>1478</ele>
        <time>2014-02-12T10:48:34.000Z</time>
      </trkpt>
      <trkpt lat="45.92117" lon="6.4904">
        <ele>1478</ele>
        <time>2014-02-12T10:48:39.000Z</time>
      </trkpt>
      <trkpt lat="45.92117" lon="6.4904">
        <ele>1478</ele>
        <time>2014-02-12T10:48:40.000Z</time>
      </trkpt>
      <trkpt lat="45.92117" lon="6.4904">
        <ele>1478</ele>
        <time>2014-02-12T10:48:41.000Z</time>
      </trkpt>
      <trkpt lat="45.92117" lon="6.4904">
        <ele>1478</ele>
        <time>2014-02-12T10:48:42.000Z</time>
      </trkpt>
      <trkpt lat="45.92117" lon="6.4904">
        <ele>1478</ele>
        <time>2014-02-12T10:48:43.000Z</time>
      </trkpt>
      <trkpt lat="45.92117" lon="6.4904">
        <ele>1478</ele>
        <time>2014-02-12T10:48:44.000Z</time>
      </trkpt>
      <trkpt lat="45.92117" lon="6.4904">
        <ele>1478</ele>
        <time>2014-02-12T10:48:45.000Z</time>
      </trkpt>
      <trkpt lat="45.92117" lon="6.4904">
        <ele>1478</ele>
        <time>2014-02-12T10:48:46.000Z</time>
      </trkpt>
      <trkpt lat="45.92117" lon="6.4904">
        <ele>1478</ele>
        <time>2014-02-12T10:48:47.000Z</time>
      </trkpt>
      <trkpt lat="45.92117" lon="6.4904">
        <ele>1478</ele>
        <time>2014-02-12T10:48:48.000Z</time>
      </trkpt>
      <trkpt lat="45.92117" lon="6.4904">
        <ele>1478</ele>
        <time>2014-02-12T10:48:51.000Z</time>
      </trkpt>
      <trkpt lat="45.92117" lon="6.4904">
        <ele>1478</ele>
        <time>2014-02-12T10:48:53.000Z</time>
      </trkpt>
      <trkpt lat="45.92117" lon="6.4904">
        <ele>1478</ele>
        <time>2014-02-12T10:48:55.000Z</time>
      </trkpt>
      <trkpt lat="45.92117" lon="6.4904">
        <ele>1478</ele>
        <time>2014-02-12T10:48:56.000Z</time>
      </trkpt>
      <trkpt lat="45.92117" lon="6.4904">
        <ele>1478</ele>
        <time>2014-02-12T10:48:57.000Z</time>
      </trkpt>
      <trkpt lat="45.92117" lon="6.4904">
        <ele>1478</ele>
        <time>2014-02-12T10:48:58.000Z</time>
      </trkpt>
      <trkpt lat="45.92117" lon="6.4904">
        <ele>1478</ele>
        <time>2014-02-12T10:48:59.000Z</time>
      </trkpt>
      <trkpt lat="45.92117" lon="6.4904">
        <ele>1478</ele>
        <time>2014-02-12T10:49:00.000Z</time>
      </trkpt>
      <trkpt lat="45.92117" lon="6.4904">
        <ele>1478</ele>
        <time>2014-02-12T10:49:01.000Z</time>
      </trkpt>
      <trkpt lat="45.92117" lon="6.4904">
        <ele>1478</ele>
        <time>2014-02-12T10:49:02.000Z</time>
      </trkpt>
      <trkpt lat="45.92117" lon="6.4904">
        <ele>1478</ele>
        <time>2014-02-12T10:49:04.000Z</time>
      </trkpt>
      <trkpt lat="45.92117" lon="6.4904">
        <ele>1478</ele>
        <time>2014-02-12T10:49:08.000Z</time>
      </trkpt>
      <trkpt lat="45.92117" lon="6.4904">
        <ele>1478</ele>
        <time>2014-02-12T10:49:09.000Z</time>
      </trkpt>
      <trkpt lat="45.92117" lon="6.4904">
        <ele>1478</ele>
        <time>2014-02-12T10:49:10.000Z</time>
      </trkpt>
      <trkpt lat="45.92117" lon="6.4904">
        <ele>1478</ele>
        <time>2014-02-12T10:49:11.000Z</time>
      </trkpt>
      <trkpt lat="45.92117" lon="6.4904">
        <ele>1478</ele>
        <time>2014-02-12T10:49:13.000Z</time>
      </trkpt>
      <trkpt lat="45.92117" lon="6.4904">
        <ele>1478</ele>
        <time>2014-02-12T10:49:18.000Z</time>
      </trkpt>
      <trkpt lat="45.92117" lon="6.4904">
        <ele>1478</ele>
        <time>2014-02-12T10:49:24.000Z</time>
      </trkpt>
      <trkpt lat="45.92117" lon="6.4904">
        <ele>1478</ele>
        <time>2014-02-12T10:49:25.000Z</time>
      </trkpt>
      <trkpt lat="45.92117" lon="6.4904">
        <ele>1478</ele>
        <time>2014-02-12T10:49:26.000Z</time>
      </trkpt>
      <trkpt lat="45.92117" lon="6.4904">
        <ele>1478</ele>
        <time>2014-02-12T10:49:27.000Z</time>
      </trkpt>
      <trkpt lat="45.92117" lon="6.49039">
        <ele>1477.8000488281</ele>
        <time>2014-02-12T10:49:28.000Z</time>
      </trkpt>
      <trkpt lat="45.92117" lon="6.49039">
        <ele>1477.8000488281</ele>
        <time>2014-02-12T10:49:29.000Z</time>
      </trkpt>
      <trkpt lat="45.92117" lon="6.49039">
        <ele>1477.8000488281</ele>
        <time>2014-02-12T10:49:30.000Z</time>
      </trkpt>
      <trkpt lat="45.92117" lon="6.49039">
        <ele>1477.8000488281</ele>
        <time>2014-02-12T10:49:31.000Z</time>
      </trkpt>
      <trkpt lat="45.92117" lon="6.49039">
        <ele>1477.8000488281</ele>
        <time>2014-02-12T10:49:32.000Z</time>
      </trkpt>
      <trkpt lat="45.92117" lon="6.49039">
        <ele>1477.8000488281</ele>
        <time>2014-02-12T10:49:33.000Z</time>
      </trkpt>
      <trkpt lat="45.92117" lon="6.49039">
        <ele>1477.8000488281</ele>
        <time>2014-02-12T10:49:35.000Z</time>
      </trkpt>
      <trkpt lat="45.92117" lon="6.49039">
        <ele>1477.8000488281</ele>
        <time>2014-02-12T10:49:37.000Z</time>
      </trkpt>
      <trkpt lat="45.92117" lon="6.49039">
        <ele>1477.8000488281</ele>
        <time>2014-02-12T10:49:39.000Z</time>
      </trkpt>
      <trkpt lat="45.92117" lon="6.49039">
        <ele>1477.8000488281</ele>
        <time>2014-02-12T10:49:40.000Z</time>
      </trkpt>
      <trkpt lat="45.92117" lon="6.49039">
        <ele>1477.8000488281</ele>
        <time>2014-02-12T10:49:41.000Z</time>
      </trkpt>
      <trkpt lat="45.92117" lon="6.49039">
        <ele>1477.8000488281</ele>
        <time>2014-02-12T10:49:42.000Z</time>
      </trkpt>
      <trkpt lat="45.92117" lon="6.49039">
        <ele>1477.8000488281</ele>
        <time>2014-02-12T10:49:43.000Z</time>
      </trkpt>
      <trkpt lat="45.92117" lon="6.49039">
        <ele>1477.8000488281</ele>
        <time>2014-02-12T10:49:45.000Z</time>
      </trkpt>
      <trkpt lat="45.92117" lon="6.49039">
        <ele>1477.8000488281</ele>
        <time>2014-02-12T10:49:46.000Z</time>
      </trkpt>
      <trkpt lat="45.92117" lon="6.49039">
        <ele>1477.8000488281</ele>
        <time>2014-02-12T10:49:48.000Z</time>
      </trkpt>
      <trkpt lat="45.92117" lon="6.49039">
        <ele>1477.8000488281</ele>
        <time>2014-02-12T10:49:50.000Z</time>
      </trkpt>
      <trkpt lat="45.92117" lon="6.49039">
        <ele>1477.8000488281</ele>
        <time>2014-02-12T10:49:52.000Z</time>
      </trkpt>
      <trkpt lat="45.92117" lon="6.49039">
        <ele>1477.8000488281</ele>
        <time>2014-02-12T10:49:53.000Z</time>
      </trkpt>
      <trkpt lat="45.92117" lon="6.49039">
        <ele>1477.8000488281</ele>
        <time>2014-02-12T10:49:54.000Z</time>
      </trkpt>
      <trkpt lat="45.92117" lon="6.49039">
        <ele>1477.8000488281</ele>
        <time>2014-02-12T10:49:55.000Z</time>
      </trkpt>
      <trkpt lat="45.92117" lon="6.49039">
        <ele>1477.8000488281</ele>
        <time>2014-02-12T10:49:57.000Z</time>
      </trkpt>
      <trkpt lat="45.92117" lon="6.49039">
        <ele>1477.8000488281</ele>
        <time>2014-02-12T10:49:58.000Z</time>
      </trkpt>
      <trkpt lat="45.92117" lon="6.49039">
        <ele>1477.8000488281</ele>
        <time>2014-02-12T10:49:59.000Z</time>
      </trkpt>
      <trkpt lat="45.92117" lon="6.49039">
        <ele>1477.8000488281</ele>
        <time>2014-02-12T10:50:00.000Z</time>
      </trkpt>
      <trkpt lat="45.92117" lon="6.49039">
        <ele>1477.8000488281</ele>
        <time>2014-02-12T10:50:01.000Z</time>
      </trkpt>
      <trkpt lat="45.92117" lon="6.49039">
        <ele>1477.8000488281</ele>
        <time>2014-02-12T10:50:02.000Z</time>
      </trkpt>
      <trkpt lat="45.92117" lon="6.49039">
        <ele>1477.8000488281</ele>
        <time>2014-02-12T10:50:03.000Z</time>
      </trkpt>
      <trkpt lat="45.92117" lon="6.49039">
        <ele>1477.8000488281</ele>
        <time>2014-02-12T10:50:04.000Z</time>
      </trkpt>
      <trkpt lat="45.92117" lon="6.49039">
        <ele>1477.8000488281</ele>
        <time>2014-02-12T10:50:05.000Z</time>
      </trkpt>
      <trkpt lat="45.92117" lon="6.49039">
        <ele>1477.8000488281</ele>
        <time>2014-02-12T10:50:06.000Z</time>
      </trkpt>
      <trkpt lat="45.92117" lon="6.49039">
        <ele>1477.8000488281</ele>
        <time>2014-02-12T10:50:07.000Z</time>
      </trkpt>
      <trkpt lat="45.92117" lon="6.49038">
        <ele>1477.8000488281</ele>
        <time>2014-02-12T10:50:08.000Z</time>
      </trkpt>
      <trkpt lat="45.92117" lon="6.49038">
        <ele>1477.8000488281</ele>
        <time>2014-02-12T10:50:09.000Z</time>
      </trkpt>
      <trkpt lat="45.92117" lon="6.49038">
        <ele>1477.8000488281</ele>
        <time>2014-02-12T10:50:14.000Z</time>
      </trkpt>
      <trkpt lat="45.92117" lon="6.49038">
        <ele>1477.8000488281</ele>
        <time>2014-02-12T10:50:17.000Z</time>
      </trkpt>
      <trkpt lat="45.92117" lon="6.49038">
        <ele>1477.8000488281</ele>
        <time>2014-02-12T10:50:18.000Z</time>
      </trkpt>
      <trkpt lat="45.92117" lon="6.49038">
        <ele>1477.8000488281</ele>
        <time>2014-02-12T10:50:19.000Z</time>
      </trkpt>
      <trkpt lat="45.92117" lon="6.49038">
        <ele>1477.8000488281</ele>
        <time>2014-02-12T10:50:21.000Z</time>
      </trkpt>
      <trkpt lat="45.92117" lon="6.49038">
        <ele>1477.8000488281</ele>
        <time>2014-02-12T10:50:23.000Z</time>
      </trkpt>
      <trkpt lat="45.92117" lon="6.49038">
        <ele>1477.8000488281</ele>
        <time>2014-02-12T10:50:26.000Z</time>
      </trkpt>
      <trkpt lat="45.92117" lon="6.49038">
        <ele>1477.8000488281</ele>
        <time>2014-02-12T10:50:27.000Z</time>
      </trkpt>
      <trkpt lat="45.92117" lon="6.49038">
        <ele>1477.8000488281</ele>
        <time>2014-02-12T10:50:28.000Z</time>
      </trkpt>
      <trkpt lat="45.92117" lon="6.49038">
        <ele>1477.8000488281</ele>
        <time>2014-02-12T10:50:29.000Z</time>
      </trkpt>
      <trkpt lat="45.92117" lon="6.49038">
        <ele>1477.8000488281</ele>
        <time>2014-02-12T10:50:32.000Z</time>
      </trkpt>
      <trkpt lat="45.92117" lon="6.49038">
        <ele>1477.8000488281</ele>
        <time>2014-02-12T10:50:33.000Z</time>
      </trkpt>
      <trkpt lat="45.92117" lon="6.49038">
        <ele>1477.8000488281</ele>
        <time>2014-02-12T10:50:34.000Z</time>
      </trkpt>
      <trkpt lat="45.92117" lon="6.49038">
        <ele>1477.8000488281</ele>
        <time>2014-02-12T10:50:35.000Z</time>
      </trkpt>
      <trkpt lat="45.92117" lon="6.49038">
        <ele>1477.8000488281</ele>
        <time>2014-02-12T10:50:36.000Z</time>
      </trkpt>
      <trkpt lat="45.92117" lon="6.49038">
        <ele>1477.8000488281</ele>
        <time>2014-02-12T10:50:37.000Z</time>
      </trkpt>
      <trkpt lat="45.92117" lon="6.49038">
        <ele>1477.8000488281</ele>
        <time>2014-02-12T10:50:38.000Z</time>
      </trkpt>
      <trkpt lat="45.92117" lon="6.49038">
        <ele>1477.8000488281</ele>
        <time>2014-02-12T10:50:39.000Z</time>
      </trkpt>
      <trkpt lat="45.92117" lon="6.49038">
        <ele>1477.8000488281</ele>
        <time>2014-02-12T10:50:40.000Z</time>
      </trkpt>
      <trkpt lat="45.92117" lon="6.49038">
        <ele>1477.8000488281</ele>
        <time>2014-02-12T10:50:41.000Z</time>
      </trkpt>
      <trkpt lat="45.92117" lon="6.49038">
        <ele>1477.8000488281</ele>
        <time>2014-02-12T10:50:42.000Z</time>
      </trkpt>
      <trkpt lat="45.92117" lon="6.49038">
        <ele>1477.8000488281</ele>
        <time>2014-02-12T10:50:43.000Z</time>
      </trkpt>
      <trkpt lat="45.92117" lon="6.49038">
        <ele>1477.8000488281</ele>
        <time>2014-02-12T10:50:47.000Z</time>
      </trkpt>
      <trkpt lat="45.92117" lon="6.49038">
        <ele>1477.8000488281</ele>
        <time>2014-02-12T10:50:48.000Z</time>
      </trkpt>
      <trkpt lat="45.92117" lon="6.49038">
        <ele>1477.8000488281</ele>
        <time>2014-02-12T10:50:51.000Z</time>
      </trkpt>
      <trkpt lat="45.92117" lon="6.49038">
        <ele>1477.8000488281</ele>
        <time>2014-02-12T10:50:52.000Z</time>
      </trkpt>
      <trkpt lat="45.92117" lon="6.49038">
        <ele>1477.8000488281</ele>
        <time>2014-02-12T10:50:53.000Z</time>
      </trkpt>
      <trkpt lat="45.92117" lon="6.49038">
        <ele>1477.8000488281</ele>
        <time>2014-02-12T10:50:54.000Z</time>
      </trkpt>
      <trkpt lat="45.92117" lon="6.49038">
        <ele>1477.8000488281</ele>
        <time>2014-02-12T10:50:55.000Z</time>
      </trkpt>
      <trkpt lat="45.92117" lon="6.49038">
        <ele>1477.8000488281</ele>
        <time>2014-02-12T10:50:56.000Z</time>
      </trkpt>
      <trkpt lat="45.92117" lon="6.49038">
        <ele>1477.8000488281</ele>
        <time>2014-02-12T10:50:57.000Z</time>
      </trkpt>
      <trkpt lat="45.92117" lon="6.49038">
        <ele>1477.8000488281</ele>
        <time>2014-02-12T10:50:59.000Z</time>
      </trkpt>
      <trkpt lat="45.92117" lon="6.49038">
        <ele>1477.8000488281</ele>
        <time>2014-02-12T10:51:02.000Z</time>
      </trkpt>
      <trkpt lat="45.92117" lon="6.49038">
        <ele>1477.8000488281</ele>
        <time>2014-02-12T10:51:06.000Z</time>
      </trkpt>
      <trkpt lat="45.92117" lon="6.49038">
        <ele>1477.8000488281</ele>
        <time>2014-02-12T10:51:07.000Z</time>
      </trkpt>
      <trkpt lat="45.92117" lon="6.49038">
        <ele>1477.8000488281</ele>
        <time>2014-02-12T10:51:08.000Z</time>
      </trkpt>
      <trkpt lat="45.92117" lon="6.49038">
        <ele>1477.8000488281</ele>
        <time>2014-02-12T10:51:09.000Z</time>
      </trkpt>
      <trkpt lat="45.92117" lon="6.49038">
        <ele>1477.8000488281</ele>
        <time>2014-02-12T10:51:11.000Z</time>
      </trkpt>
      <trkpt lat="45.92117" lon="6.49038">
        <ele>1477.8000488281</ele>
        <time>2014-02-12T10:51:12.000Z</time>
      </trkpt>
      <trkpt lat="45.92117" lon="6.49038">
        <ele>1477.8000488281</ele>
        <time>2014-02-12T10:51:17.000Z</time>
      </trkpt>
      <trkpt lat="45.92117" lon="6.49038">
        <ele>1477.8000488281</ele>
        <time>2014-02-12T10:51:18.000Z</time>
      </trkpt>
      <trkpt lat="45.92117" lon="6.49038">
        <ele>1477.8000488281</ele>
        <time>2014-02-12T10:51:19.000Z</time>
      </trkpt>
      <trkpt lat="45.92117" lon="6.49038">
        <ele>1477.8000488281</ele>
        <time>2014-02-12T10:51:20.000Z</time>
      </trkpt>
      <trkpt lat="45.92117" lon="6.49038">
        <ele>1477.8000488281</ele>
        <time>2014-02-12T10:51:21.000Z</time>
      </trkpt>
      <trkpt lat="45.92117" lon="6.49038">
        <ele>1477.8000488281</ele>
        <time>2014-02-12T10:51:24.000Z</time>
      </trkpt>
      <trkpt lat="45.92117" lon="6.49038">
        <ele>1477.8000488281</ele>
        <time>2014-02-12T10:51:25.000Z</time>
      </trkpt>
      <trkpt lat="45.92117" lon="6.49038">
        <ele>1477.8000488281</ele>
        <time>2014-02-12T10:51:26.000Z</time>
      </trkpt>
      <trkpt lat="45.92117" lon="6.49038">
        <ele>1477.8000488281</ele>
        <time>2014-02-12T10:51:27.000Z</time>
      </trkpt>
      <trkpt lat="45.92116" lon="6.49037">
        <ele>1477.8000488281</ele>
        <time>2014-02-12T10:51:28.000Z</time>
      </trkpt>
      <trkpt lat="45.92116" lon="6.49037">
        <ele>1477.8000488281</ele>
        <time>2014-02-12T10:51:33.000Z</time>
      </trkpt>
      <trkpt lat="45.92116" lon="6.49037">
        <ele>1477.8000488281</ele>
        <time>2014-02-12T10:51:34.000Z</time>
      </trkpt>
      <trkpt lat="45.92116" lon="6.49037">
        <ele>1477.8000488281</ele>
        <time>2014-02-12T10:51:35.000Z</time>
      </trkpt>
      <trkpt lat="45.92116" lon="6.49037">
        <ele>1477.8000488281</ele>
        <time>2014-02-12T10:51:36.000Z</time>
      </trkpt>
      <trkpt lat="45.92116" lon="6.49037">
        <ele>1477.8000488281</ele>
        <time>2014-02-12T10:51:37.000Z</time>
      </trkpt>
      <trkpt lat="45.92116" lon="6.49037">
        <ele>1477.8000488281</ele>
        <time>2014-02-12T10:51:38.000Z</time>
      </trkpt>
      <trkpt lat="45.92116" lon="6.49037">
        <ele>1477.8000488281</ele>
        <time>2014-02-12T10:51:41.000Z</time>
      </trkpt>
      <trkpt lat="45.92116" lon="6.49037">
        <ele>1477.8000488281</ele>
        <time>2014-02-12T10:51:47.000Z</time>
      </trkpt>
      <trkpt lat="45.92116" lon="6.49037">
        <ele>1477.8000488281</ele>
        <time>2014-02-12T10:51:48.000Z</time>
      </trkpt>
      <trkpt lat="45.92116" lon="6.49037">
        <ele>1477.8000488281</ele>
        <time>2014-02-12T10:51:49.000Z</time>
      </trkpt>
      <trkpt lat="45.92116" lon="6.49037">
        <ele>1477.8000488281</ele>
        <time>2014-02-12T10:51:50.000Z</time>
      </trkpt>
      <trkpt lat="45.92116" lon="6.49037">
        <ele>1477.8000488281</ele>
        <time>2014-02-12T10:51:53.000Z</time>
      </trkpt>
      <trkpt lat="45.92116" lon="6.49037">
        <ele>1477.8000488281</ele>
        <time>2014-02-12T10:51:54.000Z</time>
      </trkpt>
      <trkpt lat="45.92116" lon="6.49037">
        <ele>1477.8000488281</ele>
        <time>2014-02-12T10:51:55.000Z</time>
      </trkpt>
      <trkpt lat="45.92116" lon="6.49037">
        <ele>1477.8000488281</ele>
        <time>2014-02-12T10:51:56.000Z</time>
      </trkpt>
      <trkpt lat="45.92116" lon="6.49037">
        <ele>1477.8000488281</ele>
        <time>2014-02-12T10:51:57.000Z</time>
      </trkpt>
      <trkpt lat="45.92116" lon="6.49037">
        <ele>1477.8000488281</ele>
        <time>2014-02-12T10:51:58.000Z</time>
      </trkpt>
      <trkpt lat="45.92116" lon="6.49037">
        <ele>1477.8000488281</ele>
        <time>2014-02-12T10:51:59.000Z</time>
      </trkpt>
      <trkpt lat="45.92116" lon="6.49037">
        <ele>1477.8000488281</ele>
        <time>2014-02-12T10:52:01.000Z</time>
      </trkpt>
      <trkpt lat="45.92116" lon="6.49037">
        <ele>1477.8000488281</ele>
        <time>2014-02-12T10:52:02.000Z</time>
      </trkpt>
      <trkpt lat="45.92116" lon="6.49037">
        <ele>1477.8000488281</ele>
        <time>2014-02-12T10:52:04.000Z</time>
      </trkpt>
      <trkpt lat="45.92116" lon="6.49037">
        <ele>1477.8000488281</ele>
        <time>2014-02-12T10:52:05.000Z</time>
      </trkpt>
      <trkpt lat="45.92116" lon="6.49037">
        <ele>1477.8000488281</ele>
        <time>2014-02-12T10:52:06.000Z</time>
      </trkpt>
      <trkpt lat="45.92116" lon="6.49037">
        <ele>1477.8000488281</ele>
        <time>2014-02-12T10:52:07.000Z</time>
      </trkpt>
      <trkpt lat="45.92117" lon="6.49037">
        <ele>1477.8000488281</ele>
        <time>2014-02-12T10:52:08.000Z</time>
      </trkpt>
      <trkpt lat="45.92117" lon="6.49037">
        <ele>1477.8000488281</ele>
        <time>2014-02-12T10:52:09.000Z</time>
      </trkpt>
      <trkpt lat="45.92117" lon="6.49037">
        <ele>1477.8000488281</ele>
        <time>2014-02-12T10:52:10.000Z</time>
      </trkpt>
      <trkpt lat="45.92117" lon="6.49037">
        <ele>1477.8000488281</ele>
        <time>2014-02-12T10:52:11.000Z</time>
      </trkpt>
      <trkpt lat="45.92117" lon="6.49037">
        <ele>1477.8000488281</ele>
        <time>2014-02-12T10:52:12.000Z</time>
      </trkpt>
      <trkpt lat="45.92117" lon="6.49037">
        <ele>1477.8000488281</ele>
        <time>2014-02-12T10:52:13.000Z</time>
      </trkpt>
      <trkpt lat="45.92117" lon="6.49037">
        <ele>1477.8000488281</ele>
        <time>2014-02-12T10:52:15.000Z</time>
      </trkpt>
      <trkpt lat="45.92117" lon="6.49037">
        <ele>1477.8000488281</ele>
        <time>2014-02-12T10:52:16.000Z</time>
      </trkpt>
      <trkpt lat="45.92117" lon="6.49037">
        <ele>1477.8000488281</ele>
        <time>2014-02-12T10:52:17.000Z</time>
      </trkpt>
      <trkpt lat="45.92117" lon="6.49037">
        <ele>1477.8000488281</ele>
        <time>2014-02-12T10:52:18.000Z</time>
      </trkpt>
      <trkpt lat="45.92117" lon="6.49037">
        <ele>1477.8000488281</ele>
        <time>2014-02-12T10:52:19.000Z</time>
      </trkpt>
      <trkpt lat="45.92117" lon="6.49037">
        <ele>1477.8000488281</ele>
        <time>2014-02-12T10:52:20.000Z</time>
      </trkpt>
      <trkpt lat="45.92117" lon="6.49037">
        <ele>1477.8000488281</ele>
        <time>2014-02-12T10:52:21.000Z</time>
      </trkpt>
      <trkpt lat="45.92117" lon="6.49037">
        <ele>1477.8000488281</ele>
        <time>2014-02-12T10:52:22.000Z</time>
      </trkpt>
      <trkpt lat="45.92117" lon="6.49037">
        <ele>1477.8000488281</ele>
        <time>2014-02-12T10:52:25.000Z</time>
      </trkpt>
      <trkpt lat="45.92117" lon="6.49037">
        <ele>1477.8000488281</ele>
        <time>2014-02-12T10:52:26.000Z</time>
      </trkpt>
      <trkpt lat="45.92117" lon="6.49037">
        <ele>1477.8000488281</ele>
        <time>2014-02-12T10:52:29.000Z</time>
      </trkpt>
      <trkpt lat="45.92117" lon="6.49037">
        <ele>1477.8000488281</ele>
        <time>2014-02-12T10:52:30.000Z</time>
      </trkpt>
      <trkpt lat="45.92117" lon="6.49037">
        <ele>1477.8000488281</ele>
        <time>2014-02-12T10:52:31.000Z</time>
      </trkpt>
      <trkpt lat="45.92117" lon="6.49037">
        <ele>1477.8000488281</ele>
        <time>2014-02-12T10:52:32.000Z</time>
      </trkpt>
      <trkpt lat="45.92117" lon="6.49037">
        <ele>1477.8000488281</ele>
        <time>2014-02-12T10:52:33.000Z</time>
      </trkpt>
      <trkpt lat="45.92117" lon="6.49037">
        <ele>1477.8000488281</ele>
        <time>2014-02-12T10:52:34.000Z</time>
      </trkpt>
      <trkpt lat="45.92117" lon="6.49037">
        <ele>1477.8000488281</ele>
        <time>2014-02-12T10:52:37.000Z</time>
      </trkpt>
      <trkpt lat="45.92117" lon="6.49037">
        <ele>1477.8000488281</ele>
        <time>2014-02-12T10:52:38.000Z</time>
      </trkpt>
      <trkpt lat="45.92117" lon="6.49037">
        <ele>1477.8000488281</ele>
        <time>2014-02-12T10:52:39.000Z</time>
      </trkpt>
      <trkpt lat="45.92117" lon="6.49037">
        <ele>1477.8000488281</ele>
        <time>2014-02-12T10:52:40.000Z</time>
      </trkpt>
      <trkpt lat="45.92117" lon="6.49037">
        <ele>1477.8000488281</ele>
        <time>2014-02-12T10:52:41.000Z</time>
      </trkpt>
      <trkpt lat="45.92117" lon="6.49037">
        <ele>1477.8000488281</ele>
        <time>2014-02-12T10:52:42.000Z</time>
      </trkpt>
      <trkpt lat="45.92117" lon="6.49037">
        <ele>1477.8000488281</ele>
        <time>2014-02-12T10:52:43.000Z</time>
      </trkpt>
      <trkpt lat="45.92117" lon="6.49037">
        <ele>1477.8000488281</ele>
        <time>2014-02-12T10:52:45.000Z</time>
      </trkpt>
      <trkpt lat="45.92117" lon="6.49037">
        <ele>1477.8000488281</ele>
        <time>2014-02-12T10:52:46.000Z</time>
      </trkpt>
      <trkpt lat="45.92117" lon="6.49037">
        <ele>1477.8000488281</ele>
        <time>2014-02-12T10:52:47.000Z</time>
      </trkpt>
      <trkpt lat="45.92117" lon="6.49037">
        <ele>1477.5999755859</ele>
        <time>2014-02-12T10:52:49.000Z</time>
      </trkpt>
      <trkpt lat="45.92117" lon="6.49037">
        <ele>1477.5999755859</ele>
        <time>2014-02-12T10:52:50.000Z</time>
      </trkpt>
      <trkpt lat="45.92117" lon="6.49037">
        <ele>1477.5999755859</ele>
        <time>2014-02-12T10:52:51.000Z</time>
      </trkpt>
      <trkpt lat="45.92117" lon="6.49037">
        <ele>1477.5999755859</ele>
        <time>2014-02-12T10:52:52.000Z</time>
      </trkpt>
      <trkpt lat="45.92117" lon="6.49037">
        <ele>1477.4000244141</ele>
        <time>2014-02-12T10:52:54.000Z</time>
      </trkpt>
      <trkpt lat="45.92117" lon="6.49037">
        <ele>1477.5999755859</ele>
        <time>2014-02-12T10:52:55.000Z</time>
      </trkpt>
      <trkpt lat="45.92117" lon="6.49038">
        <ele>1477.5999755859</ele>
        <time>2014-02-12T10:52:56.000Z</time>
      </trkpt>
      <trkpt lat="45.92118" lon="6.49039">
        <ele>1477.5999755859</ele>
        <time>2014-02-12T10:52:57.000Z</time>
      </trkpt>
      <trkpt lat="45.92118" lon="6.49039">
        <ele>1477.5999755859</ele>
        <time>2014-02-12T10:52:58.000Z</time>
      </trkpt>
      <trkpt lat="45.92118" lon="6.49039">
        <ele>1477.5999755859</ele>
        <time>2014-02-12T10:53:02.000Z</time>
      </trkpt>
      <trkpt lat="45.92118" lon="6.49039">
        <ele>1477.5999755859</ele>
        <time>2014-02-12T10:53:03.000Z</time>
      </trkpt>
      <trkpt lat="45.92118" lon="6.49039">
        <ele>1477.5999755859</ele>
        <time>2014-02-12T10:53:04.000Z</time>
      </trkpt>
      <trkpt lat="45.92118" lon="6.49039">
        <ele>1477.5999755859</ele>
        <time>2014-02-12T10:53:05.000Z</time>
      </trkpt>
      <trkpt lat="45.92118" lon="6.49039">
        <ele>1477.5999755859</ele>
        <time>2014-02-12T10:53:06.000Z</time>
      </trkpt>
      <trkpt lat="45.92118" lon="6.49039">
        <ele>1477.5999755859</ele>
        <time>2014-02-12T10:53:07.000Z</time>
      </trkpt>
      <trkpt lat="45.92118" lon="6.49039">
        <ele>1477.5999755859</ele>
        <time>2014-02-12T10:53:08.000Z</time>
      </trkpt>
      <trkpt lat="45.92118" lon="6.49039">
        <ele>1477.5999755859</ele>
        <time>2014-02-12T10:53:09.000Z</time>
      </trkpt>
      <trkpt lat="45.92118" lon="6.49039">
        <ele>1477.5999755859</ele>
        <time>2014-02-12T10:53:10.000Z</time>
      </trkpt>
      <trkpt lat="45.92118" lon="6.49039">
        <ele>1477.5999755859</ele>
        <time>2014-02-12T10:53:16.000Z</time>
      </trkpt>
      <trkpt lat="45.92118" lon="6.4904">
        <ele>1477.8000488281</ele>
        <time>2014-02-12T10:53:17.000Z</time>
      </trkpt>
      <trkpt lat="45.92118" lon="6.4904">
        <ele>1477.8000488281</ele>
        <time>2014-02-12T10:53:18.000Z</time>
      </trkpt>
      <trkpt lat="45.92118" lon="6.4904">
        <ele>1477.8000488281</ele>
        <time>2014-02-12T10:53:19.000Z</time>
      </trkpt>
      <trkpt lat="45.92118" lon="6.4904">
        <ele>1477.8000488281</ele>
        <time>2014-02-12T10:53:20.000Z</time>
      </trkpt>
      <trkpt lat="45.92118" lon="6.4904">
        <ele>1477.8000488281</ele>
        <time>2014-02-12T10:53:21.000Z</time>
      </trkpt>
      <trkpt lat="45.92118" lon="6.4904">
        <ele>1477.8000488281</ele>
        <time>2014-02-12T10:53:22.000Z</time>
      </trkpt>
      <trkpt lat="45.92118" lon="6.4904">
        <ele>1477.8000488281</ele>
        <time>2014-02-12T10:53:23.000Z</time>
      </trkpt>
      <trkpt lat="45.92118" lon="6.4904">
        <ele>1477.8000488281</ele>
        <time>2014-02-12T10:53:24.000Z</time>
      </trkpt>
      <trkpt lat="45.92118" lon="6.4904">
        <ele>1477.8000488281</ele>
        <time>2014-02-12T10:53:25.000Z</time>
      </trkpt>
      <trkpt lat="45.92118" lon="6.4904">
        <ele>1477.8000488281</ele>
        <time>2014-02-12T10:53:26.000Z</time>
      </trkpt>
      <trkpt lat="45.92118" lon="6.4904">
        <ele>1477.8000488281</ele>
        <time>2014-02-12T10:53:28.000Z</time>
      </trkpt>
      <trkpt lat="45.92118" lon="6.4904">
        <ele>1477.8000488281</ele>
        <time>2014-02-12T10:53:29.000Z</time>
      </trkpt>
      <trkpt lat="45.92118" lon="6.4904">
        <ele>1477.8000488281</ele>
        <time>2014-02-12T10:53:30.000Z</time>
      </trkpt>
      <trkpt lat="45.92118" lon="6.4904">
        <ele>1477.8000488281</ele>
        <time>2014-02-12T10:53:31.000Z</time>
      </trkpt>
      <trkpt lat="45.92118" lon="6.4904">
        <ele>1477.8000488281</ele>
        <time>2014-02-12T10:53:32.000Z</time>
      </trkpt>
      <trkpt lat="45.92118" lon="6.4904">
        <ele>1477.8000488281</ele>
        <time>2014-02-12T10:53:34.000Z</time>
      </trkpt>
      <trkpt lat="45.92118" lon="6.4904">
        <ele>1477.8000488281</ele>
        <time>2014-02-12T10:53:35.000Z</time>
      </trkpt>
      <trkpt lat="45.92118" lon="6.4904">
        <ele>1477.8000488281</ele>
        <time>2014-02-12T10:53:37.000Z</time>
      </trkpt>
      <trkpt lat="45.92118" lon="6.4904">
        <ele>1477.8000488281</ele>
        <time>2014-02-12T10:53:40.000Z</time>
      </trkpt>
      <trkpt lat="45.92118" lon="6.4904">
        <ele>1477.8000488281</ele>
        <time>2014-02-12T10:53:41.000Z</time>
      </trkpt>
      <trkpt lat="45.92118" lon="6.4904">
        <ele>1477.8000488281</ele>
        <time>2014-02-12T10:53:42.000Z</time>
      </trkpt>
      <trkpt lat="45.92118" lon="6.4904">
        <ele>1477.8000488281</ele>
        <time>2014-02-12T10:53:44.000Z</time>
      </trkpt>
      <trkpt lat="45.92118" lon="6.4904">
        <ele>1477.8000488281</ele>
        <time>2014-02-12T10:53:45.000Z</time>
      </trkpt>
      <trkpt lat="45.92118" lon="6.4904">
        <ele>1477.8000488281</ele>
        <time>2014-02-12T10:53:46.000Z</time>
      </trkpt>
      <trkpt lat="45.92119" lon="6.49047">
        <ele>1478.5999755859</ele>
        <time>2014-02-12T10:53:50.000Z</time>
      </trkpt>
      <trkpt lat="45.92119" lon="6.49047">
        <ele>1478.5999755859</ele>
        <time>2014-02-12T10:53:51.000Z</time>
      </trkpt>
      <trkpt lat="45.92119" lon="6.49047">
        <ele>1478.5999755859</ele>
        <time>2014-02-12T10:53:52.000Z</time>
      </trkpt>
      <trkpt lat="45.92119" lon="6.49047">
        <ele>1478.5999755859</ele>
        <time>2014-02-12T10:53:53.000Z</time>
      </trkpt>
      <trkpt lat="45.92119" lon="6.49047">
        <ele>1478.5999755859</ele>
        <time>2014-02-12T10:53:54.000Z</time>
      </trkpt>
      <trkpt lat="45.92119" lon="6.49047">
        <ele>1478.5999755859</ele>
        <time>2014-02-12T10:53:55.000Z</time>
      </trkpt>
      <trkpt lat="45.92119" lon="6.49047">
        <ele>1478.5999755859</ele>
        <time>2014-02-12T10:53:56.000Z</time>
      </trkpt>
      <trkpt lat="45.92119" lon="6.49047">
        <ele>1478.5999755859</ele>
        <time>2014-02-12T10:53:57.000Z</time>
      </trkpt>
      <trkpt lat="45.92119" lon="6.49047">
        <ele>1478.5999755859</ele>
        <time>2014-02-12T10:53:58.000Z</time>
      </trkpt>
      <trkpt lat="45.92119" lon="6.49047">
        <ele>1478.5999755859</ele>
        <time>2014-02-12T10:53:59.000Z</time>
      </trkpt>
      <trkpt lat="45.92119" lon="6.49047">
        <ele>1478.5999755859</ele>
        <time>2014-02-12T10:54:00.000Z</time>
      </trkpt>
      <trkpt lat="45.92119" lon="6.49047">
        <ele>1478.5999755859</ele>
        <time>2014-02-12T10:54:01.000Z</time>
      </trkpt>
      <trkpt lat="45.92119" lon="6.49047">
        <ele>1478.5999755859</ele>
        <time>2014-02-12T10:54:02.000Z</time>
      </trkpt>
      <trkpt lat="45.92119" lon="6.49047">
        <ele>1478.5999755859</ele>
        <time>2014-02-12T10:54:03.000Z</time>
      </trkpt>
      <trkpt lat="45.92119" lon="6.49047">
        <ele>1478.5999755859</ele>
        <time>2014-02-12T10:54:04.000Z</time>
      </trkpt>
      <trkpt lat="45.92119" lon="6.49047">
        <ele>1478.5999755859</ele>
        <time>2014-02-12T10:54:05.000Z</time>
      </trkpt>
      <trkpt lat="45.92119" lon="6.49047">
        <ele>1478.5999755859</ele>
        <time>2014-02-12T10:54:06.000Z</time>
      </trkpt>
      <trkpt lat="45.92119" lon="6.49047">
        <ele>1478.5999755859</ele>
        <time>2014-02-12T10:54:07.000Z</time>
      </trkpt>
      <trkpt lat="45.92119" lon="6.49047">
        <ele>1478.5999755859</ele>
        <time>2014-02-12T10:54:08.000Z</time>
      </trkpt>
      <trkpt lat="45.92119" lon="6.49047">
        <ele>1478.5999755859</ele>
        <time>2014-02-12T10:54:09.000Z</time>
      </trkpt>
      <trkpt lat="45.92119" lon="6.49047">
        <ele>1478.5999755859</ele>
        <time>2014-02-12T10:54:10.000Z</time>
      </trkpt>
      <trkpt lat="45.92119" lon="6.49047">
        <ele>1478.5999755859</ele>
        <time>2014-02-12T10:54:11.000Z</time>
      </trkpt>
      <trkpt lat="45.92119" lon="6.49047">
        <ele>1478.5999755859</ele>
        <time>2014-02-12T10:54:12.000Z</time>
      </trkpt>
      <trkpt lat="45.92119" lon="6.49047">
        <ele>1478.5999755859</ele>
        <time>2014-02-12T10:54:13.000Z</time>
      </trkpt>
      <trkpt lat="45.92119" lon="6.49047">
        <ele>1478.5999755859</ele>
        <time>2014-02-12T10:54:14.000Z</time>
      </trkpt>
      <trkpt lat="45.92119" lon="6.49047">
        <ele>1478.5999755859</ele>
        <time>2014-02-12T10:54:15.000Z</time>
      </trkpt>
      <trkpt lat="45.92119" lon="6.49047">
        <ele>1478.5999755859</ele>
        <time>2014-02-12T10:54:16.000Z</time>
      </trkpt>
      <trkpt lat="45.92119" lon="6.49048">
        <ele>1478.5999755859</ele>
        <time>2014-02-12T10:54:17.000Z</time>
      </trkpt>
      <trkpt lat="45.9212" lon="6.49051">
        <ele>1478.8000488281</ele>
        <time>2014-02-12T10:54:19.000Z</time>
      </trkpt>
      <trkpt lat="45.9212" lon="6.49051">
        <ele>1478.8000488281</ele>
        <time>2014-02-12T10:54:20.000Z</time>
      </trkpt>
      <trkpt lat="45.92121" lon="6.49055">
        <ele>1479</ele>
        <time>2014-02-12T10:54:21.000Z</time>
      </trkpt>
      <trkpt lat="45.92122" lon="6.49057">
        <ele>1479.1999511719</ele>
        <time>2014-02-12T10:54:22.000Z</time>
      </trkpt>
      <trkpt lat="45.92123" lon="6.49059">
        <ele>1479.1999511719</ele>
        <time>2014-02-12T10:54:23.000Z</time>
      </trkpt>
      <trkpt lat="45.92123" lon="6.49061">
        <ele>1479.4000244141</ele>
        <time>2014-02-12T10:54:24.000Z</time>
      </trkpt>
      <trkpt lat="45.92124" lon="6.49062">
        <ele>1479.4000244141</ele>
        <time>2014-02-12T10:54:25.000Z</time>
      </trkpt>
      <trkpt lat="45.92125" lon="6.49064">
        <ele>1479.1999511719</ele>
        <time>2014-02-12T10:54:26.000Z</time>
      </trkpt>
      <trkpt lat="45.92126" lon="6.49065">
        <ele>1479.1999511719</ele>
        <time>2014-02-12T10:54:27.000Z</time>
      </trkpt>
      <trkpt lat="45.92126" lon="6.49065">
        <ele>1479.1999511719</ele>
        <time>2014-02-12T10:54:28.000Z</time>
      </trkpt>
      <trkpt lat="45.92126" lon="6.49065">
        <ele>1479.1999511719</ele>
        <time>2014-02-12T10:54:29.000Z</time>
      </trkpt>
      <trkpt lat="45.92126" lon="6.49065">
        <ele>1479.4000244141</ele>
        <time>2014-02-12T10:54:30.000Z</time>
      </trkpt>
      <trkpt lat="45.92126" lon="6.49065">
        <ele>1479.4000244141</ele>
        <time>2014-02-12T10:54:31.000Z</time>
      </trkpt>
      <trkpt lat="45.92125" lon="6.49065">
        <ele>1479.4000244141</ele>
        <time>2014-02-12T10:54:32.000Z</time>
      </trkpt>
      <trkpt lat="45.92125" lon="6.49065">
        <ele>1479.4000244141</ele>
        <time>2014-02-12T10:54:34.000Z</time>
      </trkpt>
      <trkpt lat="45.92125" lon="6.49065">
        <ele>1479.5999755859</ele>
        <time>2014-02-12T10:54:35.000Z</time>
      </trkpt>
      <trkpt lat="45.92124" lon="6.49065">
        <ele>1479.5999755859</ele>
        <time>2014-02-12T10:54:36.000Z</time>
      </trkpt>
      <trkpt lat="45.92123" lon="6.49065">
        <ele>1479.8000488281</ele>
        <time>2014-02-12T10:54:38.000Z</time>
      </trkpt>
      <trkpt lat="45.92123" lon="6.49065">
        <ele>1480</ele>
        <time>2014-02-12T10:54:39.000Z</time>
      </trkpt>
      <trkpt lat="45.92122" lon="6.49064">
        <ele>1480</ele>
        <time>2014-02-12T10:54:40.000Z</time>
      </trkpt>
      <trkpt lat="45.92122" lon="6.49064">
        <ele>1480.1999511719</ele>
        <time>2014-02-12T10:54:41.000Z</time>
      </trkpt>
      <trkpt lat="45.92121" lon="6.49064">
        <ele>1480.4000244141</ele>
        <time>2014-02-12T10:54:43.000Z</time>
      </trkpt>
      <trkpt lat="45.92121" lon="6.49064">
        <ele>1480.4000244141</ele>
        <time>2014-02-12T10:54:46.000Z</time>
      </trkpt>
      <trkpt lat="45.9212" lon="6.49064">
        <ele>1480.4000244141</ele>
        <time>2014-02-12T10:54:47.000Z</time>
      </trkpt>
      <trkpt lat="45.9212" lon="6.49064">
        <ele>1480.5999755859</ele>
        <time>2014-02-12T10:54:48.000Z</time>
      </trkpt>
      <trkpt lat="45.9212" lon="6.49064">
        <ele>1480.5999755859</ele>
        <time>2014-02-12T10:54:49.000Z</time>
      </trkpt>
      <trkpt lat="45.92119" lon="6.49064">
        <ele>1480.8000488281</ele>
        <time>2014-02-12T10:54:51.000Z</time>
      </trkpt>
      <trkpt lat="45.92119" lon="6.49064">
        <ele>1480.8000488281</ele>
        <time>2014-02-12T10:54:52.000Z</time>
      </trkpt>
      <trkpt lat="45.92118" lon="6.49064">
        <ele>1481</ele>
        <time>2014-02-12T10:54:57.000Z</time>
      </trkpt>
      <trkpt lat="45.92118" lon="6.49064">
        <ele>1481</ele>
        <time>2014-02-12T10:54:58.000Z</time>
      </trkpt>
      <trkpt lat="45.92117" lon="6.49062">
        <ele>1481</ele>
        <time>2014-02-12T10:55:01.000Z</time>
      </trkpt>
      <trkpt lat="45.92117" lon="6.49061">
        <ele>1480.8000488281</ele>
        <time>2014-02-12T10:55:02.000Z</time>
      </trkpt>
      <trkpt lat="45.92118" lon="6.4906">
        <ele>1480.5999755859</ele>
        <time>2014-02-12T10:55:03.000Z</time>
      </trkpt>
      <trkpt lat="45.92121" lon="6.4906">
        <ele>1479.8000488281</ele>
        <time>2014-02-12T10:55:06.000Z</time>
      </trkpt>
      <trkpt lat="45.92121" lon="6.4906">
        <ele>1479.8000488281</ele>
        <time>2014-02-12T10:55:07.000Z</time>
      </trkpt>
      <trkpt lat="45.92121" lon="6.4906">
        <ele>1479.8000488281</ele>
        <time>2014-02-12T10:55:09.000Z</time>
      </trkpt>
      <trkpt lat="45.92121" lon="6.4906">
        <ele>1479.8000488281</ele>
        <time>2014-02-12T10:55:10.000Z</time>
      </trkpt>
      <trkpt lat="45.92121" lon="6.4906">
        <ele>1479.8000488281</ele>
        <time>2014-02-12T10:55:11.000Z</time>
      </trkpt>
      <trkpt lat="45.92121" lon="6.4906">
        <ele>1479.8000488281</ele>
        <time>2014-02-12T10:55:12.000Z</time>
      </trkpt>
      <trkpt lat="45.92121" lon="6.4906">
        <ele>1479.8000488281</ele>
        <time>2014-02-12T10:55:13.000Z</time>
      </trkpt>
      <trkpt lat="45.92121" lon="6.4906">
        <ele>1479.8000488281</ele>
        <time>2014-02-12T10:55:14.000Z</time>
      </trkpt>
      <trkpt lat="45.92121" lon="6.4906">
        <ele>1479.8000488281</ele>
        <time>2014-02-12T10:55:15.000Z</time>
      </trkpt>
      <trkpt lat="45.92121" lon="6.4906">
        <ele>1479.8000488281</ele>
        <time>2014-02-12T10:55:16.000Z</time>
      </trkpt>
      <trkpt lat="45.92121" lon="6.4906">
        <ele>1479.8000488281</ele>
        <time>2014-02-12T10:55:17.000Z</time>
      </trkpt>
      <trkpt lat="45.92121" lon="6.4906">
        <ele>1479.8000488281</ele>
        <time>2014-02-12T10:55:18.000Z</time>
      </trkpt>
      <trkpt lat="45.92121" lon="6.4906">
        <ele>1479.8000488281</ele>
        <time>2014-02-12T10:55:19.000Z</time>
      </trkpt>
      <trkpt lat="45.92121" lon="6.4906">
        <ele>1479.8000488281</ele>
        <time>2014-02-12T10:55:20.000Z</time>
      </trkpt>
      <trkpt lat="45.92121" lon="6.4906">
        <ele>1479.8000488281</ele>
        <time>2014-02-12T10:55:21.000Z</time>
      </trkpt>
      <trkpt lat="45.92121" lon="6.4906">
        <ele>1479.8000488281</ele>
        <time>2014-02-12T10:55:22.000Z</time>
      </trkpt>
      <trkpt lat="45.92121" lon="6.4906">
        <ele>1479.8000488281</ele>
        <time>2014-02-12T10:55:23.000Z</time>
      </trkpt>
      <trkpt lat="45.92121" lon="6.4906">
        <ele>1479.8000488281</ele>
        <time>2014-02-12T10:55:24.000Z</time>
      </trkpt>
      <trkpt lat="45.92121" lon="6.4906">
        <ele>1479.8000488281</ele>
        <time>2014-02-12T10:55:25.000Z</time>
      </trkpt>
      <trkpt lat="45.92121" lon="6.4906">
        <ele>1479.8000488281</ele>
        <time>2014-02-12T10:55:26.000Z</time>
      </trkpt>
      <trkpt lat="45.92121" lon="6.4906">
        <ele>1479.8000488281</ele>
        <time>2014-02-12T10:55:28.000Z</time>
      </trkpt>
      <trkpt lat="45.92121" lon="6.4906">
        <ele>1479.8000488281</ele>
        <time>2014-02-12T10:55:29.000Z</time>
      </trkpt>
      <trkpt lat="45.92121" lon="6.4906">
        <ele>1479.8000488281</ele>
        <time>2014-02-12T10:55:30.000Z</time>
      </trkpt>
      <trkpt lat="45.92121" lon="6.4906">
        <ele>1479.8000488281</ele>
        <time>2014-02-12T10:55:31.000Z</time>
      </trkpt>
      <trkpt lat="45.92121" lon="6.4906">
        <ele>1479.8000488281</ele>
        <time>2014-02-12T10:55:32.000Z</time>
      </trkpt>
      <trkpt lat="45.92121" lon="6.4906">
        <ele>1479.8000488281</ele>
        <time>2014-02-12T10:55:33.000Z</time>
      </trkpt>
      <trkpt lat="45.92121" lon="6.4906">
        <ele>1479.8000488281</ele>
        <time>2014-02-12T10:55:34.000Z</time>
      </trkpt>
      <trkpt lat="45.92121" lon="6.4906">
        <ele>1479.8000488281</ele>
        <time>2014-02-12T10:55:35.000Z</time>
      </trkpt>
      <trkpt lat="45.92121" lon="6.4906">
        <ele>1479.8000488281</ele>
        <time>2014-02-12T10:55:36.000Z</time>
      </trkpt>
      <trkpt lat="45.92121" lon="6.4906">
        <ele>1479.8000488281</ele>
        <time>2014-02-12T10:55:37.000Z</time>
      </trkpt>
      <trkpt lat="45.92121" lon="6.4906">
        <ele>1479.8000488281</ele>
        <time>2014-02-12T10:55:38.000Z</time>
      </trkpt>
      <trkpt lat="45.92121" lon="6.4906">
        <ele>1479.8000488281</ele>
        <time>2014-02-12T10:55:39.000Z</time>
      </trkpt>
      <trkpt lat="45.92121" lon="6.4906">
        <ele>1479.8000488281</ele>
        <time>2014-02-12T10:55:40.000Z</time>
      </trkpt>
      <trkpt lat="45.92121" lon="6.4906">
        <ele>1479.8000488281</ele>
        <time>2014-02-12T10:55:41.000Z</time>
      </trkpt>
      <trkpt lat="45.92121" lon="6.4906">
        <ele>1479.8000488281</ele>
        <time>2014-02-12T10:55:42.000Z</time>
      </trkpt>
      <trkpt lat="45.92121" lon="6.4906">
        <ele>1479.8000488281</ele>
        <time>2014-02-12T10:55:43.000Z</time>
      </trkpt>
      <trkpt lat="45.92121" lon="6.4906">
        <ele>1479.8000488281</ele>
        <time>2014-02-12T10:55:44.000Z</time>
      </trkpt>
      <trkpt lat="45.92121" lon="6.4906">
        <ele>1479.8000488281</ele>
        <time>2014-02-12T10:55:45.000Z</time>
      </trkpt>
      <trkpt lat="45.92123" lon="6.49062">
        <ele>1479.8000488281</ele>
        <time>2014-02-12T10:55:46.000Z</time>
      </trkpt>
      <trkpt lat="45.92123" lon="6.49062">
        <ele>1479.8000488281</ele>
        <time>2014-02-12T10:55:47.000Z</time>
      </trkpt>
      <trkpt lat="45.92123" lon="6.49062">
        <ele>1479.8000488281</ele>
        <time>2014-02-12T10:55:48.000Z</time>
      </trkpt>
      <trkpt lat="45.92123" lon="6.49062">
        <ele>1479.8000488281</ele>
        <time>2014-02-12T10:55:49.000Z</time>
      </trkpt>
      <trkpt lat="45.92123" lon="6.49062">
        <ele>1479.8000488281</ele>
        <time>2014-02-12T10:55:50.000Z</time>
      </trkpt>
      <trkpt lat="45.92123" lon="6.49062">
        <ele>1479.8000488281</ele>
        <time>2014-02-12T10:55:52.000Z</time>
      </trkpt>
      <trkpt lat="45.92123" lon="6.49062">
        <ele>1479.8000488281</ele>
        <time>2014-02-12T10:55:54.000Z</time>
      </trkpt>
      <trkpt lat="45.92123" lon="6.49062">
        <ele>1479.8000488281</ele>
        <time>2014-02-12T10:55:55.000Z</time>
      </trkpt>
      <trkpt lat="45.92123" lon="6.49062">
        <ele>1479.8000488281</ele>
        <time>2014-02-12T10:55:56.000Z</time>
      </trkpt>
      <trkpt lat="45.92123" lon="6.49062">
        <ele>1479.8000488281</ele>
        <time>2014-02-12T10:55:57.000Z</time>
      </trkpt>
      <trkpt lat="45.92123" lon="6.49062">
        <ele>1479.8000488281</ele>
        <time>2014-02-12T10:55:58.000Z</time>
      </trkpt>
      <trkpt lat="45.92123" lon="6.49062">
        <ele>1479.8000488281</ele>
        <time>2014-02-12T10:55:59.000Z</time>
      </trkpt>
      <trkpt lat="45.92123" lon="6.49062">
        <ele>1479.8000488281</ele>
        <time>2014-02-12T10:56:00.000Z</time>
      </trkpt>
      <trkpt lat="45.92123" lon="6.49062">
        <ele>1479.8000488281</ele>
        <time>2014-02-12T10:56:01.000Z</time>
      </trkpt>
      <trkpt lat="45.92123" lon="6.49062">
        <ele>1479.8000488281</ele>
        <time>2014-02-12T10:56:02.000Z</time>
      </trkpt>
      <trkpt lat="45.92123" lon="6.49062">
        <ele>1479.8000488281</ele>
        <time>2014-02-12T10:56:03.000Z</time>
      </trkpt>
      <trkpt lat="45.92123" lon="6.49062">
        <ele>1479.8000488281</ele>
        <time>2014-02-12T10:56:04.000Z</time>
      </trkpt>
      <trkpt lat="45.92123" lon="6.49062">
        <ele>1479.8000488281</ele>
        <time>2014-02-12T10:56:05.000Z</time>
      </trkpt>
      <trkpt lat="45.92123" lon="6.49062">
        <ele>1479.8000488281</ele>
        <time>2014-02-12T10:56:06.000Z</time>
      </trkpt>
      <trkpt lat="45.92123" lon="6.49062">
        <ele>1479.8000488281</ele>
        <time>2014-02-12T10:56:07.000Z</time>
      </trkpt>
      <trkpt lat="45.92123" lon="6.49062">
        <ele>1479.8000488281</ele>
        <time>2014-02-12T10:56:08.000Z</time>
      </trkpt>
      <trkpt lat="45.92123" lon="6.49062">
        <ele>1479.8000488281</ele>
        <time>2014-02-12T10:56:09.000Z</time>
      </trkpt>
      <trkpt lat="45.92123" lon="6.49062">
        <ele>1479.8000488281</ele>
        <time>2014-02-12T10:56:10.000Z</time>
      </trkpt>
      <trkpt lat="45.92123" lon="6.49062">
        <ele>1479.8000488281</ele>
        <time>2014-02-12T10:56:11.000Z</time>
      </trkpt>
      <trkpt lat="45.92123" lon="6.49062">
        <ele>1479.8000488281</ele>
        <time>2014-02-12T10:56:12.000Z</time>
      </trkpt>
      <trkpt lat="45.92123" lon="6.49062">
        <ele>1479.8000488281</ele>
        <time>2014-02-12T10:56:13.000Z</time>
      </trkpt>
      <trkpt lat="45.92123" lon="6.49062">
        <ele>1479.8000488281</ele>
        <time>2014-02-12T10:56:14.000Z</time>
      </trkpt>
      <trkpt lat="45.92123" lon="6.49062">
        <ele>1479.8000488281</ele>
        <time>2014-02-12T10:56:16.000Z</time>
      </trkpt>
      <trkpt lat="45.92123" lon="6.49062">
        <ele>1479.8000488281</ele>
        <time>2014-02-12T10:56:17.000Z</time>
      </trkpt>
      <trkpt lat="45.92123" lon="6.49062">
        <ele>1479.8000488281</ele>
        <time>2014-02-12T10:56:20.000Z</time>
      </trkpt>
      <trkpt lat="45.92123" lon="6.49062">
        <ele>1479.8000488281</ele>
        <time>2014-02-12T10:56:21.000Z</time>
      </trkpt>
      <trkpt lat="45.92123" lon="6.49062">
        <ele>1479.8000488281</ele>
        <time>2014-02-12T10:56:22.000Z</time>
      </trkpt>
      <trkpt lat="45.92123" lon="6.49062">
        <ele>1479.8000488281</ele>
        <time>2014-02-12T10:56:23.000Z</time>
      </trkpt>
      <trkpt lat="45.92123" lon="6.49063">
        <ele>1479.5999755859</ele>
        <time>2014-02-12T10:56:24.000Z</time>
      </trkpt>
      <trkpt lat="45.92123" lon="6.49063">
        <ele>1479.5999755859</ele>
        <time>2014-02-12T10:56:27.000Z</time>
      </trkpt>
      <trkpt lat="45.92123" lon="6.49063">
        <ele>1479.5999755859</ele>
        <time>2014-02-12T10:56:28.000Z</time>
      </trkpt>
      <trkpt lat="45.92123" lon="6.49063">
        <ele>1479.5999755859</ele>
        <time>2014-02-12T10:56:29.000Z</time>
      </trkpt>
      <trkpt lat="45.92123" lon="6.49063">
        <ele>1479.5999755859</ele>
        <time>2014-02-12T10:56:30.000Z</time>
      </trkpt>
      <trkpt lat="45.92123" lon="6.49063">
        <ele>1479.5999755859</ele>
        <time>2014-02-12T10:56:31.000Z</time>
      </trkpt>
      <trkpt lat="45.92123" lon="6.49063">
        <ele>1479.5999755859</ele>
        <time>2014-02-12T10:56:32.000Z</time>
      </trkpt>
      <trkpt lat="45.92123" lon="6.49063">
        <ele>1479.5999755859</ele>
        <time>2014-02-12T10:56:33.000Z</time>
      </trkpt>
      <trkpt lat="45.92123" lon="6.49063">
        <ele>1479.5999755859</ele>
        <time>2014-02-12T10:56:34.000Z</time>
      </trkpt>
      <trkpt lat="45.92123" lon="6.49063">
        <ele>1479.5999755859</ele>
        <time>2014-02-12T10:56:35.000Z</time>
      </trkpt>
      <trkpt lat="45.92123" lon="6.49063">
        <ele>1479.5999755859</ele>
        <time>2014-02-12T10:56:36.000Z</time>
      </trkpt>
      <trkpt lat="45.92123" lon="6.49063">
        <ele>1479.5999755859</ele>
        <time>2014-02-12T10:56:37.000Z</time>
      </trkpt>
      <trkpt lat="45.92123" lon="6.49063">
        <ele>1479.5999755859</ele>
        <time>2014-02-12T10:56:38.000Z</time>
      </trkpt>
      <trkpt lat="45.92123" lon="6.49063">
        <ele>1479.5999755859</ele>
        <time>2014-02-12T10:56:39.000Z</time>
      </trkpt>
      <trkpt lat="45.92123" lon="6.49063">
        <ele>1479.5999755859</ele>
        <time>2014-02-12T10:56:40.000Z</time>
      </trkpt>
      <trkpt lat="45.92123" lon="6.49063">
        <ele>1479.5999755859</ele>
        <time>2014-02-12T10:56:41.000Z</time>
      </trkpt>
      <trkpt lat="45.92123" lon="6.49063">
        <ele>1479.5999755859</ele>
        <time>2014-02-12T10:56:45.000Z</time>
      </trkpt>
      <trkpt lat="45.92123" lon="6.49063">
        <ele>1479.5999755859</ele>
        <time>2014-02-12T10:56:46.000Z</time>
      </trkpt>
      <trkpt lat="45.92123" lon="6.49063">
        <ele>1479.5999755859</ele>
        <time>2014-02-12T10:56:47.000Z</time>
      </trkpt>
      <trkpt lat="45.92123" lon="6.49063">
        <ele>1479.5999755859</ele>
        <time>2014-02-12T10:56:50.000Z</time>
      </trkpt>
      <trkpt lat="45.92123" lon="6.49063">
        <ele>1479.5999755859</ele>
        <time>2014-02-12T10:56:52.000Z</time>
      </trkpt>
      <trkpt lat="45.92123" lon="6.49063">
        <ele>1479.5999755859</ele>
        <time>2014-02-12T10:56:54.000Z</time>
      </trkpt>
      <trkpt lat="45.92123" lon="6.49063">
        <ele>1479.5999755859</ele>
        <time>2014-02-12T10:56:55.000Z</time>
      </trkpt>
      <trkpt lat="45.92123" lon="6.49063">
        <ele>1479.5999755859</ele>
        <time>2014-02-12T10:56:56.000Z</time>
      </trkpt>
      <trkpt lat="45.92123" lon="6.49063">
        <ele>1479.5999755859</ele>
        <time>2014-02-12T10:56:57.000Z</time>
      </trkpt>
      <trkpt lat="45.92123" lon="6.49063">
        <ele>1479.5999755859</ele>
        <time>2014-02-12T10:56:58.000Z</time>
      </trkpt>
      <trkpt lat="45.92123" lon="6.49063">
        <ele>1479.5999755859</ele>
        <time>2014-02-12T10:56:59.000Z</time>
      </trkpt>
      <trkpt lat="45.92123" lon="6.49063">
        <ele>1479.5999755859</ele>
        <time>2014-02-12T10:57:02.000Z</time>
      </trkpt>
      <trkpt lat="45.92123" lon="6.49063">
        <ele>1479.5999755859</ele>
        <time>2014-02-12T10:57:03.000Z</time>
      </trkpt>
      <trkpt lat="45.92124" lon="6.49064">
        <ele>1479.5999755859</ele>
        <time>2014-02-12T10:57:04.000Z</time>
      </trkpt>
      <trkpt lat="45.92124" lon="6.49064">
        <ele>1479.5999755859</ele>
        <time>2014-02-12T10:57:05.000Z</time>
      </trkpt>
      <trkpt lat="45.92124" lon="6.49064">
        <ele>1479.5999755859</ele>
        <time>2014-02-12T10:57:06.000Z</time>
      </trkpt>
      <trkpt lat="45.92124" lon="6.49064">
        <ele>1479.5999755859</ele>
        <time>2014-02-12T10:57:07.000Z</time>
      </trkpt>
      <trkpt lat="45.92124" lon="6.49064">
        <ele>1479.5999755859</ele>
        <time>2014-02-12T10:57:08.000Z</time>
      </trkpt>
      <trkpt lat="45.92124" lon="6.49064">
        <ele>1479.5999755859</ele>
        <time>2014-02-12T10:57:10.000Z</time>
      </trkpt>
      <trkpt lat="45.92124" lon="6.49064">
        <ele>1479.5999755859</ele>
        <time>2014-02-12T10:57:11.000Z</time>
      </trkpt>
      <trkpt lat="45.92124" lon="6.49064">
        <ele>1479.5999755859</ele>
        <time>2014-02-12T10:57:12.000Z</time>
      </trkpt>
      <trkpt lat="45.92124" lon="6.49064">
        <ele>1479.5999755859</ele>
        <time>2014-02-12T10:57:13.000Z</time>
      </trkpt>
      <trkpt lat="45.92124" lon="6.49064">
        <ele>1479.5999755859</ele>
        <time>2014-02-12T10:57:14.000Z</time>
      </trkpt>
      <trkpt lat="45.92124" lon="6.49064">
        <ele>1479.5999755859</ele>
        <time>2014-02-12T10:57:16.000Z</time>
      </trkpt>
      <trkpt lat="45.92124" lon="6.49064">
        <ele>1479.5999755859</ele>
        <time>2014-02-12T10:57:17.000Z</time>
      </trkpt>
      <trkpt lat="45.92124" lon="6.49064">
        <ele>1479.5999755859</ele>
        <time>2014-02-12T10:57:18.000Z</time>
      </trkpt>
      <trkpt lat="45.92124" lon="6.49064">
        <ele>1479.5999755859</ele>
        <time>2014-02-12T10:57:20.000Z</time>
      </trkpt>
      <trkpt lat="45.92124" lon="6.49064">
        <ele>1479.5999755859</ele>
        <time>2014-02-12T10:57:21.000Z</time>
      </trkpt>
      <trkpt lat="45.92124" lon="6.49064">
        <ele>1479.5999755859</ele>
        <time>2014-02-12T10:57:22.000Z</time>
      </trkpt>
      <trkpt lat="45.92124" lon="6.49064">
        <ele>1479.5999755859</ele>
        <time>2014-02-12T10:57:23.000Z</time>
      </trkpt>
      <trkpt lat="45.92124" lon="6.49064">
        <ele>1479.5999755859</ele>
        <time>2014-02-12T10:57:24.000Z</time>
      </trkpt>
      <trkpt lat="45.92124" lon="6.49064">
        <ele>1479.5999755859</ele>
        <time>2014-02-12T10:57:25.000Z</time>
      </trkpt>
      <trkpt lat="45.92124" lon="6.49064">
        <ele>1479.5999755859</ele>
        <time>2014-02-12T10:57:26.000Z</time>
      </trkpt>
      <trkpt lat="45.92124" lon="6.49064">
        <ele>1479.5999755859</ele>
        <time>2014-02-12T10:57:27.000Z</time>
      </trkpt>
      <trkpt lat="45.92124" lon="6.49064">
        <ele>1479.5999755859</ele>
        <time>2014-02-12T10:57:28.000Z</time>
      </trkpt>
      <trkpt lat="45.92124" lon="6.49064">
        <ele>1479.8000488281</ele>
        <time>2014-02-12T10:57:29.000Z</time>
      </trkpt>
      <trkpt lat="45.92124" lon="6.49064">
        <ele>1479.8000488281</ele>
        <time>2014-02-12T10:57:30.000Z</time>
      </trkpt>
      <trkpt lat="45.92124" lon="6.49064">
        <ele>1479.8000488281</ele>
        <time>2014-02-12T10:57:31.000Z</time>
      </trkpt>
      <trkpt lat="45.92124" lon="6.49064">
        <ele>1479.8000488281</ele>
        <time>2014-02-12T10:57:32.000Z</time>
      </trkpt>
      <trkpt lat="45.92124" lon="6.49064">
        <ele>1479.8000488281</ele>
        <time>2014-02-12T10:57:33.000Z</time>
      </trkpt>
      <trkpt lat="45.92124" lon="6.49064">
        <ele>1479.8000488281</ele>
        <time>2014-02-12T10:57:34.000Z</time>
      </trkpt>
      <trkpt lat="45.92124" lon="6.49064">
        <ele>1479.8000488281</ele>
        <time>2014-02-12T10:57:35.000Z</time>
      </trkpt>
      <trkpt lat="45.92124" lon="6.49064">
        <ele>1479.8000488281</ele>
        <time>2014-02-12T10:57:36.000Z</time>
      </trkpt>
      <trkpt lat="45.92124" lon="6.49064">
        <ele>1479.8000488281</ele>
        <time>2014-02-12T10:57:37.000Z</time>
      </trkpt>
      <trkpt lat="45.92124" lon="6.49064">
        <ele>1479.8000488281</ele>
        <time>2014-02-12T10:57:38.000Z</time>
      </trkpt>
      <trkpt lat="45.92124" lon="6.49064">
        <ele>1479.8000488281</ele>
        <time>2014-02-12T10:57:39.000Z</time>
      </trkpt>
      <trkpt lat="45.92124" lon="6.49064">
        <ele>1479.8000488281</ele>
        <time>2014-02-12T10:57:41.000Z</time>
      </trkpt>
      <trkpt lat="45.92124" lon="6.49064">
        <ele>1479.8000488281</ele>
        <time>2014-02-12T10:57:42.000Z</time>
      </trkpt>
      <trkpt lat="45.92124" lon="6.49064">
        <ele>1479.8000488281</ele>
        <time>2014-02-12T10:57:45.000Z</time>
      </trkpt>
      <trkpt lat="45.92124" lon="6.49064">
        <ele>1479.8000488281</ele>
        <time>2014-02-12T10:57:46.000Z</time>
      </trkpt>
      <trkpt lat="45.92124" lon="6.49064">
        <ele>1479.8000488281</ele>
        <time>2014-02-12T10:57:48.000Z</time>
      </trkpt>
      <trkpt lat="45.92124" lon="6.49064">
        <ele>1479.8000488281</ele>
        <time>2014-02-12T10:57:50.000Z</time>
      </trkpt>
      <trkpt lat="45.92123" lon="6.49067">
        <ele>1480.1999511719</ele>
        <time>2014-02-12T10:57:52.000Z</time>
      </trkpt>
      <trkpt lat="45.92123" lon="6.49068">
        <ele>1480.5999755859</ele>
        <time>2014-02-12T10:57:53.000Z</time>
      </trkpt>
      <trkpt lat="45.92122" lon="6.49069">
        <ele>1480.8000488281</ele>
        <time>2014-02-12T10:57:54.000Z</time>
      </trkpt>
      <trkpt lat="45.92122" lon="6.4907">
        <ele>1481</ele>
        <time>2014-02-12T10:57:55.000Z</time>
      </trkpt>
      <trkpt lat="45.92122" lon="6.49072">
        <ele>1481.1999511719</ele>
        <time>2014-02-12T10:57:56.000Z</time>
      </trkpt>
      <trkpt lat="45.92123" lon="6.49073">
        <ele>1481.4000244141</ele>
        <time>2014-02-12T10:57:57.000Z</time>
      </trkpt>
      <trkpt lat="45.92123" lon="6.49074">
        <ele>1481.4000244141</ele>
        <time>2014-02-12T10:57:58.000Z</time>
      </trkpt>
      <trkpt lat="45.92123" lon="6.49076">
        <ele>1481.8000488281</ele>
        <time>2014-02-12T10:57:59.000Z</time>
      </trkpt>
      <trkpt lat="45.92123" lon="6.49076">
        <ele>1482</ele>
        <time>2014-02-12T10:58:00.000Z</time>
      </trkpt>
      <trkpt lat="45.92123" lon="6.49076">
        <ele>1482</ele>
        <time>2014-02-12T10:58:01.000Z</time>
      </trkpt>
      <trkpt lat="45.92123" lon="6.49077">
        <ele>1482.1999511719</ele>
        <time>2014-02-12T10:58:02.000Z</time>
      </trkpt>
      <trkpt lat="45.92123" lon="6.49078">
        <ele>1482.4000244141</ele>
        <time>2014-02-12T10:58:03.000Z</time>
      </trkpt>
      <trkpt lat="45.92123" lon="6.49078">
        <ele>1482.4000244141</ele>
        <time>2014-02-12T10:58:04.000Z</time>
      </trkpt>
      <trkpt lat="45.92123" lon="6.49079">
        <ele>1482.4000244141</ele>
        <time>2014-02-12T10:58:05.000Z</time>
      </trkpt>
      <trkpt lat="45.92123" lon="6.4908">
        <ele>1482.5999755859</ele>
        <time>2014-02-12T10:58:06.000Z</time>
      </trkpt>
      <trkpt lat="45.92123" lon="6.49081">
        <ele>1483</ele>
        <time>2014-02-12T10:58:07.000Z</time>
      </trkpt>
      <trkpt lat="45.92123" lon="6.49083">
        <ele>1483</ele>
        <time>2014-02-12T10:58:08.000Z</time>
      </trkpt>
      <trkpt lat="45.92123" lon="6.49083">
        <ele>1483</ele>
        <time>2014-02-12T10:58:09.000Z</time>
      </trkpt>
      <trkpt lat="45.92123" lon="6.49084">
        <ele>1483.1999511719</ele>
        <time>2014-02-12T10:58:10.000Z</time>
      </trkpt>
      <trkpt lat="45.92124" lon="6.49086">
        <ele>1483.4000244141</ele>
        <time>2014-02-12T10:58:11.000Z</time>
      </trkpt>
      <trkpt lat="45.92124" lon="6.49087">
        <ele>1483.5999755859</ele>
        <time>2014-02-12T10:58:12.000Z</time>
      </trkpt>
      <trkpt lat="45.92124" lon="6.49088">
        <ele>1483.8000488281</ele>
        <time>2014-02-12T10:58:13.000Z</time>
      </trkpt>
      <trkpt lat="45.92125" lon="6.4909">
        <ele>1483.8000488281</ele>
        <time>2014-02-12T10:58:14.000Z</time>
      </trkpt>
      <trkpt lat="45.92126" lon="6.49091">
        <ele>1483.8000488281</ele>
        <time>2014-02-12T10:58:15.000Z</time>
      </trkpt>
      <trkpt lat="45.92127" lon="6.49092">
        <ele>1483.8000488281</ele>
        <time>2014-02-12T10:58:16.000Z</time>
      </trkpt>
      <trkpt lat="45.92128" lon="6.49093">
        <ele>1483.8000488281</ele>
        <time>2014-02-12T10:58:17.000Z</time>
      </trkpt>
      <trkpt lat="45.92129" lon="6.49094">
        <ele>1483.8000488281</ele>
        <time>2014-02-12T10:58:18.000Z</time>
      </trkpt>
      <trkpt lat="45.92129" lon="6.49094">
        <ele>1483.8000488281</ele>
        <time>2014-02-12T10:58:19.000Z</time>
      </trkpt>
      <trkpt lat="45.92129" lon="6.49094">
        <ele>1483.8000488281</ele>
        <time>2014-02-12T10:58:20.000Z</time>
      </trkpt>
      <trkpt lat="45.92129" lon="6.49094">
        <ele>1483.8000488281</ele>
        <time>2014-02-12T10:58:21.000Z</time>
      </trkpt>
      <trkpt lat="45.9213" lon="6.49096">
        <ele>1483.8000488281</ele>
        <time>2014-02-12T10:58:22.000Z</time>
      </trkpt>
      <trkpt lat="45.92131" lon="6.49096">
        <ele>1483.8000488281</ele>
        <time>2014-02-12T10:58:23.000Z</time>
      </trkpt>
      <trkpt lat="45.92131" lon="6.49097">
        <ele>1483.8000488281</ele>
        <time>2014-02-12T10:58:24.000Z</time>
      </trkpt>
      <trkpt lat="45.92132" lon="6.49099">
        <ele>1483.8000488281</ele>
        <time>2014-02-12T10:58:25.000Z</time>
      </trkpt>
      <trkpt lat="45.92133" lon="6.491">
        <ele>1483.8000488281</ele>
        <time>2014-02-12T10:58:26.000Z</time>
      </trkpt>
      <trkpt lat="45.92135" lon="6.49102">
        <ele>1483.5999755859</ele>
        <time>2014-02-12T10:58:27.000Z</time>
      </trkpt>
      <trkpt lat="45.92136" lon="6.49102">
        <ele>1483.5999755859</ele>
        <time>2014-02-12T10:58:28.000Z</time>
      </trkpt>
      <trkpt lat="45.92136" lon="6.49103">
        <ele>1483.5999755859</ele>
        <time>2014-02-12T10:58:29.000Z</time>
      </trkpt>
      <trkpt lat="45.92137" lon="6.49104">
        <ele>1483.5999755859</ele>
        <time>2014-02-12T10:58:30.000Z</time>
      </trkpt>
      <trkpt lat="45.92138" lon="6.49105">
        <ele>1483.4000244141</ele>
        <time>2014-02-12T10:58:32.000Z</time>
      </trkpt>
      <trkpt lat="45.92138" lon="6.49105">
        <ele>1483.4000244141</ele>
        <time>2014-02-12T10:58:33.000Z</time>
      </trkpt>
      <trkpt lat="45.92138" lon="6.49105">
        <ele>1483.4000244141</ele>
        <time>2014-02-12T10:58:34.000Z</time>
      </trkpt>
      <trkpt lat="45.92139" lon="6.49106">
        <ele>1483.4000244141</ele>
        <time>2014-02-12T10:58:35.000Z</time>
      </trkpt>
      <trkpt lat="45.92139" lon="6.49106">
        <ele>1483.4000244141</ele>
        <time>2014-02-12T10:58:36.000Z</time>
      </trkpt>
      <trkpt lat="45.92139" lon="6.49106">
        <ele>1483.4000244141</ele>
        <time>2014-02-12T10:58:37.000Z</time>
      </trkpt>
      <trkpt lat="45.92139" lon="6.49106">
        <ele>1483.4000244141</ele>
        <time>2014-02-12T10:58:38.000Z</time>
      </trkpt>
      <trkpt lat="45.9214" lon="6.49108">
        <ele>1483.5999755859</ele>
        <time>2014-02-12T10:58:39.000Z</time>
      </trkpt>
      <trkpt lat="45.92142" lon="6.4911">
        <ele>1483.8000488281</ele>
        <time>2014-02-12T10:58:40.000Z</time>
      </trkpt>
      <trkpt lat="45.92143" lon="6.49111">
        <ele>1483.8000488281</ele>
        <time>2014-02-12T10:58:41.000Z</time>
      </trkpt>
      <trkpt lat="45.92144" lon="6.49112">
        <ele>1484</ele>
        <time>2014-02-12T10:58:42.000Z</time>
      </trkpt>
      <trkpt lat="45.92144" lon="6.49113">
        <ele>1484.1999511719</ele>
        <time>2014-02-12T10:58:43.000Z</time>
      </trkpt>
      <trkpt lat="45.92145" lon="6.49114">
        <ele>1484.4000244141</ele>
        <time>2014-02-12T10:58:44.000Z</time>
      </trkpt>
      <trkpt lat="45.92146" lon="6.49114">
        <ele>1484.4000244141</ele>
        <time>2014-02-12T10:58:45.000Z</time>
      </trkpt>
      <trkpt lat="45.92146" lon="6.49115">
        <ele>1484.5999755859</ele>
        <time>2014-02-12T10:58:46.000Z</time>
      </trkpt>
      <trkpt lat="45.92146" lon="6.49115">
        <ele>1484.5999755859</ele>
        <time>2014-02-12T10:58:47.000Z</time>
      </trkpt>
      <trkpt lat="45.92146" lon="6.49115">
        <ele>1484.5999755859</ele>
        <time>2014-02-12T10:58:48.000Z</time>
      </trkpt>
      <trkpt lat="45.92146" lon="6.49115">
        <ele>1484.5999755859</ele>
        <time>2014-02-12T10:58:49.000Z</time>
      </trkpt>
      <trkpt lat="45.92146" lon="6.49115">
        <ele>1484.5999755859</ele>
        <time>2014-02-12T10:58:50.000Z</time>
      </trkpt>
      <trkpt lat="45.92146" lon="6.49115">
        <ele>1484.5999755859</ele>
        <time>2014-02-12T10:58:51.000Z</time>
      </trkpt>
      <trkpt lat="45.92146" lon="6.49115">
        <ele>1484.5999755859</ele>
        <time>2014-02-12T10:58:52.000Z</time>
      </trkpt>
      <trkpt lat="45.92146" lon="6.49115">
        <ele>1484.5999755859</ele>
        <time>2014-02-12T10:58:53.000Z</time>
      </trkpt>
      <trkpt lat="45.92146" lon="6.49115">
        <ele>1484.5999755859</ele>
        <time>2014-02-12T10:58:54.000Z</time>
      </trkpt>
      <trkpt lat="45.92146" lon="6.49115">
        <ele>1484.5999755859</ele>
        <time>2014-02-12T10:58:55.000Z</time>
      </trkpt>
      <trkpt lat="45.92147" lon="6.49116">
        <ele>1484.8000488281</ele>
        <time>2014-02-12T10:58:56.000Z</time>
      </trkpt>
      <trkpt lat="45.92147" lon="6.49116">
        <ele>1484.8000488281</ele>
        <time>2014-02-12T10:58:57.000Z</time>
      </trkpt>
      <trkpt lat="45.92147" lon="6.49116">
        <ele>1484.8000488281</ele>
        <time>2014-02-12T10:58:58.000Z</time>
      </trkpt>
      <trkpt lat="45.92148" lon="6.49118">
        <ele>1485</ele>
        <time>2014-02-12T10:58:59.000Z</time>
      </trkpt>
      <trkpt lat="45.9215" lon="6.49119">
        <ele>1485.1999511719</ele>
        <time>2014-02-12T10:59:00.000Z</time>
      </trkpt>
      <trkpt lat="45.92151" lon="6.4912">
        <ele>1485.4000244141</ele>
        <time>2014-02-12T10:59:01.000Z</time>
      </trkpt>
      <trkpt lat="45.92151" lon="6.4912">
        <ele>1485.4000244141</ele>
        <time>2014-02-12T10:59:02.000Z</time>
      </trkpt>
      <trkpt lat="45.92151" lon="6.49121">
        <ele>1485.5999755859</ele>
        <time>2014-02-12T10:59:03.000Z</time>
      </trkpt>
      <trkpt lat="45.92151" lon="6.49121">
        <ele>1485.5999755859</ele>
        <time>2014-02-12T10:59:04.000Z</time>
      </trkpt>
      <trkpt lat="45.92151" lon="6.49121">
        <ele>1485.5999755859</ele>
        <time>2014-02-12T10:59:05.000Z</time>
      </trkpt>
      <trkpt lat="45.92151" lon="6.49121">
        <ele>1485.5999755859</ele>
        <time>2014-02-12T10:59:07.000Z</time>
      </trkpt>
      <trkpt lat="45.92152" lon="6.49122">
        <ele>1485.5999755859</ele>
        <time>2014-02-12T10:59:08.000Z</time>
      </trkpt>
      <trkpt lat="45.92152" lon="6.49122">
        <ele>1485.5999755859</ele>
        <time>2014-02-12T10:59:09.000Z</time>
      </trkpt>
      <trkpt lat="45.92152" lon="6.49123">
        <ele>1485.8000488281</ele>
        <time>2014-02-12T10:59:10.000Z</time>
      </trkpt>
      <trkpt lat="45.92152" lon="6.49123">
        <ele>1485.8000488281</ele>
        <time>2014-02-12T10:59:11.000Z</time>
      </trkpt>
      <trkpt lat="45.92153" lon="6.49124">
        <ele>1486</ele>
        <time>2014-02-12T10:59:12.000Z</time>
      </trkpt>
      <trkpt lat="45.92153" lon="6.49124">
        <ele>1486</ele>
        <time>2014-02-12T10:59:13.000Z</time>
      </trkpt>
      <trkpt lat="45.92153" lon="6.49124">
        <ele>1486</ele>
        <time>2014-02-12T10:59:14.000Z</time>
      </trkpt>
      <trkpt lat="45.92155" lon="6.49125">
        <ele>1486.1999511719</ele>
        <time>2014-02-12T10:59:15.000Z</time>
      </trkpt>
      <trkpt lat="45.92155" lon="6.49125">
        <ele>1486.1999511719</ele>
        <time>2014-02-12T10:59:16.000Z</time>
      </trkpt>
      <trkpt lat="45.92156" lon="6.49126">
        <ele>1486.4000244141</ele>
        <time>2014-02-12T10:59:17.000Z</time>
      </trkpt>
      <trkpt lat="45.92157" lon="6.49128">
        <ele>1486.5999755859</ele>
        <time>2014-02-12T10:59:18.000Z</time>
      </trkpt>
      <trkpt lat="45.92157" lon="6.49128">
        <ele>1486.5999755859</ele>
        <time>2014-02-12T10:59:19.000Z</time>
      </trkpt>
      <trkpt lat="45.92159" lon="6.49129">
        <ele>1486.8000488281</ele>
        <time>2014-02-12T10:59:20.000Z</time>
      </trkpt>
      <trkpt lat="45.9216" lon="6.4913">
        <ele>1486.8000488281</ele>
        <time>2014-02-12T10:59:21.000Z</time>
      </trkpt>
      <trkpt lat="45.92161" lon="6.49131">
        <ele>1487</ele>
        <time>2014-02-12T10:59:22.000Z</time>
      </trkpt>
      <trkpt lat="45.92163" lon="6.49132">
        <ele>1487.1999511719</ele>
        <time>2014-02-12T10:59:23.000Z</time>
      </trkpt>
      <trkpt lat="45.92164" lon="6.49133">
        <ele>1487.4000244141</ele>
        <time>2014-02-12T10:59:24.000Z</time>
      </trkpt>
      <trkpt lat="45.92165" lon="6.49134">
        <ele>1487.4000244141</ele>
        <time>2014-02-12T10:59:25.000Z</time>
      </trkpt>
      <trkpt lat="45.92165" lon="6.49134">
        <ele>1487.4000244141</ele>
        <time>2014-02-12T10:59:26.000Z</time>
      </trkpt>
      <trkpt lat="45.92167" lon="6.49134">
        <ele>1487.5999755859</ele>
        <time>2014-02-12T10:59:27.000Z</time>
      </trkpt>
      <trkpt lat="45.92168" lon="6.49135">
        <ele>1487.5999755859</ele>
        <time>2014-02-12T10:59:28.000Z</time>
      </trkpt>
      <trkpt lat="45.92169" lon="6.49135">
        <ele>1487.5999755859</ele>
        <time>2014-02-12T10:59:29.000Z</time>
      </trkpt>
      <trkpt lat="45.92171" lon="6.49135">
        <ele>1487.5999755859</ele>
        <time>2014-02-12T10:59:30.000Z</time>
      </trkpt>
      <trkpt lat="45.92172" lon="6.49136">
        <ele>1487.8000488281</ele>
        <time>2014-02-12T10:59:31.000Z</time>
      </trkpt>
      <trkpt lat="45.92173" lon="6.49137">
        <ele>1487.8000488281</ele>
        <time>2014-02-12T10:59:32.000Z</time>
      </trkpt>
      <trkpt lat="45.92175" lon="6.49138">
        <ele>1488</ele>
        <time>2014-02-12T10:59:33.000Z</time>
      </trkpt>
      <trkpt lat="45.92176" lon="6.49139">
        <ele>1488.1999511719</ele>
        <time>2014-02-12T10:59:34.000Z</time>
      </trkpt>
      <trkpt lat="45.92177" lon="6.4914">
        <ele>1488.1999511719</ele>
        <time>2014-02-12T10:59:35.000Z</time>
      </trkpt>
      <trkpt lat="45.92177" lon="6.4914">
        <ele>1488.4000244141</ele>
        <time>2014-02-12T10:59:36.000Z</time>
      </trkpt>
      <trkpt lat="45.92178" lon="6.49141">
        <ele>1488.4000244141</ele>
        <time>2014-02-12T10:59:37.000Z</time>
      </trkpt>
      <trkpt lat="45.92179" lon="6.49142">
        <ele>1488.8000488281</ele>
        <time>2014-02-12T10:59:38.000Z</time>
      </trkpt>
      <trkpt lat="45.9218" lon="6.49145">
        <ele>1489</ele>
        <time>2014-02-12T10:59:39.000Z</time>
      </trkpt>
      <trkpt lat="45.92181" lon="6.49145">
        <ele>1489</ele>
        <time>2014-02-12T10:59:40.000Z</time>
      </trkpt>
      <trkpt lat="45.92181" lon="6.49146">
        <ele>1489.4000244141</ele>
        <time>2014-02-12T10:59:41.000Z</time>
      </trkpt>
      <trkpt lat="45.92181" lon="6.49148">
        <ele>1489.8000488281</ele>
        <time>2014-02-12T10:59:42.000Z</time>
      </trkpt>
      <trkpt lat="45.92182" lon="6.49151">
        <ele>1490.1999511719</ele>
        <time>2014-02-12T10:59:43.000Z</time>
      </trkpt>
      <trkpt lat="45.92183" lon="6.49153">
        <ele>1490.8000488281</ele>
        <time>2014-02-12T10:59:44.000Z</time>
      </trkpt>
      <trkpt lat="45.92183" lon="6.49156">
        <ele>1491.4000244141</ele>
        <time>2014-02-12T10:59:45.000Z</time>
      </trkpt>
      <trkpt lat="45.92184" lon="6.49158">
        <ele>1491.8000488281</ele>
        <time>2014-02-12T10:59:46.000Z</time>
      </trkpt>
      <trkpt lat="45.92185" lon="6.49161">
        <ele>1492.4000244141</ele>
        <time>2014-02-12T10:59:47.000Z</time>
      </trkpt>
      <trkpt lat="45.92186" lon="6.49163">
        <ele>1492.8000488281</ele>
        <time>2014-02-12T10:59:48.000Z</time>
      </trkpt>
      <trkpt lat="45.92186" lon="6.49165">
        <ele>1493.4000244141</ele>
        <time>2014-02-12T10:59:49.000Z</time>
      </trkpt>
      <trkpt lat="45.92187" lon="6.49168">
        <ele>1494</ele>
        <time>2014-02-12T10:59:50.000Z</time>
      </trkpt>
      <trkpt lat="45.92187" lon="6.49171">
        <ele>1494.8000488281</ele>
        <time>2014-02-12T10:59:51.000Z</time>
      </trkpt>
      <trkpt lat="45.92188" lon="6.49175">
        <ele>1495.5999755859</ele>
        <time>2014-02-12T10:59:52.000Z</time>
      </trkpt>
      <trkpt lat="45.92189" lon="6.49179">
        <ele>1496.4000244141</ele>
        <time>2014-02-12T10:59:53.000Z</time>
      </trkpt>
      <trkpt lat="45.92189" lon="6.49183">
        <ele>1497.4000244141</ele>
        <time>2014-02-12T10:59:54.000Z</time>
      </trkpt>
      <trkpt lat="45.92189" lon="6.49187">
        <ele>1498.4000244141</ele>
        <time>2014-02-12T10:59:55.000Z</time>
      </trkpt>
      <trkpt lat="45.92189" lon="6.49191">
        <ele>1499.1999511719</ele>
        <time>2014-02-12T10:59:56.000Z</time>
      </trkpt>
      <trkpt lat="45.92189" lon="6.49195">
        <ele>1500.1999511719</ele>
        <time>2014-02-12T10:59:57.000Z</time>
      </trkpt>
      <trkpt lat="45.92189" lon="6.492">
        <ele>1501.1999511719</ele>
        <time>2014-02-12T10:59:58.000Z</time>
      </trkpt>
      <trkpt lat="45.92188" lon="6.49204">
        <ele>1502.1999511719</ele>
        <time>2014-02-12T10:59:59.000Z</time>
      </trkpt>
      <trkpt lat="45.92188" lon="6.49208">
        <ele>1503</ele>
        <time>2014-02-12T11:00:00.000Z</time>
      </trkpt>
      <trkpt lat="45.92188" lon="6.49211">
        <ele>1503.8000488281</ele>
        <time>2014-02-12T11:00:01.000Z</time>
      </trkpt>
      <trkpt lat="45.92189" lon="6.49215">
        <ele>1504.5999755859</ele>
        <time>2014-02-12T11:00:02.000Z</time>
      </trkpt>
      <trkpt lat="45.92189" lon="6.49219">
        <ele>1505.5999755859</ele>
        <time>2014-02-12T11:00:03.000Z</time>
      </trkpt>
      <trkpt lat="45.9219" lon="6.49223">
        <ele>1506.4000244141</ele>
        <time>2014-02-12T11:00:04.000Z</time>
      </trkpt>
      <trkpt lat="45.9219" lon="6.49227">
        <ele>1507.4000244141</ele>
        <time>2014-02-12T11:00:05.000Z</time>
      </trkpt>
      <trkpt lat="45.92191" lon="6.49232">
        <ele>1508.4000244141</ele>
        <time>2014-02-12T11:00:06.000Z</time>
      </trkpt>
      <trkpt lat="45.92192" lon="6.49236">
        <ele>1509.4000244141</ele>
        <time>2014-02-12T11:00:07.000Z</time>
      </trkpt>
      <trkpt lat="45.92192" lon="6.49241">
        <ele>1510.4000244141</ele>
        <time>2014-02-12T11:00:08.000Z</time>
      </trkpt>
      <trkpt lat="45.92192" lon="6.49246">
        <ele>1511.1999511719</ele>
        <time>2014-02-12T11:00:09.000Z</time>
      </trkpt>
      <trkpt lat="45.92193" lon="6.49251">
        <ele>1512.1999511719</ele>
        <time>2014-02-12T11:00:10.000Z</time>
      </trkpt>
      <trkpt lat="45.92194" lon="6.49256">
        <ele>1513</ele>
        <time>2014-02-12T11:00:11.000Z</time>
      </trkpt>
      <trkpt lat="45.92194" lon="6.4926">
        <ele>1514</ele>
        <time>2014-02-12T11:00:12.000Z</time>
      </trkpt>
      <trkpt lat="45.92195" lon="6.49264">
        <ele>1514.5999755859</ele>
        <time>2014-02-12T11:00:13.000Z</time>
      </trkpt>
      <trkpt lat="45.92196" lon="6.49269">
        <ele>1515.4000244141</ele>
        <time>2014-02-12T11:00:14.000Z</time>
      </trkpt>
      <trkpt lat="45.92197" lon="6.49273">
        <ele>1516.4000244141</ele>
        <time>2014-02-12T11:00:15.000Z</time>
      </trkpt>
      <trkpt lat="45.92197" lon="6.49279">
        <ele>1517.4000244141</ele>
        <time>2014-02-12T11:00:16.000Z</time>
      </trkpt>
      <trkpt lat="45.92198" lon="6.49284">
        <ele>1518.1999511719</ele>
        <time>2014-02-12T11:00:17.000Z</time>
      </trkpt>
      <trkpt lat="45.92198" lon="6.49289">
        <ele>1519.4000244141</ele>
        <time>2014-02-12T11:00:18.000Z</time>
      </trkpt>
      <trkpt lat="45.92199" lon="6.49294">
        <ele>1520.5999755859</ele>
        <time>2014-02-12T11:00:19.000Z</time>
      </trkpt>
      <trkpt lat="45.922" lon="6.493">
        <ele>1521.8000488281</ele>
        <time>2014-02-12T11:00:20.000Z</time>
      </trkpt>
      <trkpt lat="45.922" lon="6.49305">
        <ele>1523.1999511719</ele>
        <time>2014-02-12T11:00:21.000Z</time>
      </trkpt>
      <trkpt lat="45.92201" lon="6.4931">
        <ele>1524.5999755859</ele>
        <time>2014-02-12T11:00:22.000Z</time>
      </trkpt>
      <trkpt lat="45.92202" lon="6.49316">
        <ele>1525.8000488281</ele>
        <time>2014-02-12T11:00:23.000Z</time>
      </trkpt>
      <trkpt lat="45.92202" lon="6.49321">
        <ele>1527.1999511719</ele>
        <time>2014-02-12T11:00:24.000Z</time>
      </trkpt>
      <trkpt lat="45.92203" lon="6.49326">
        <ele>1528.1999511719</ele>
        <time>2014-02-12T11:00:25.000Z</time>
      </trkpt>
      <trkpt lat="45.92203" lon="6.49331">
        <ele>1529.1999511719</ele>
        <time>2014-02-12T11:00:26.000Z</time>
      </trkpt>
      <trkpt lat="45.92203" lon="6.49336">
        <ele>1530.4000244141</ele>
        <time>2014-02-12T11:00:27.000Z</time>
      </trkpt>
      <trkpt lat="45.92204" lon="6.49341">
        <ele>1531.5999755859</ele>
        <time>2014-02-12T11:00:28.000Z</time>
      </trkpt>
      <trkpt lat="45.92204" lon="6.49347">
        <ele>1532.8000488281</ele>
        <time>2014-02-12T11:00:29.000Z</time>
      </trkpt>
      <trkpt lat="45.92204" lon="6.49352">
        <ele>1534.1999511719</ele>
        <time>2014-02-12T11:00:30.000Z</time>
      </trkpt>
      <trkpt lat="45.92203" lon="6.49358">
        <ele>1535.4000244141</ele>
        <time>2014-02-12T11:00:31.000Z</time>
      </trkpt>
      <trkpt lat="45.92203" lon="6.49363">
        <ele>1536.5999755859</ele>
        <time>2014-02-12T11:00:32.000Z</time>
      </trkpt>
      <trkpt lat="45.92202" lon="6.49369">
        <ele>1538</ele>
        <time>2014-02-12T11:00:33.000Z</time>
      </trkpt>
      <trkpt lat="45.92202" lon="6.49374">
        <ele>1539.1999511719</ele>
        <time>2014-02-12T11:00:34.000Z</time>
      </trkpt>
      <trkpt lat="45.92202" lon="6.4938">
        <ele>1540.5999755859</ele>
        <time>2014-02-12T11:00:35.000Z</time>
      </trkpt>
      <trkpt lat="45.92202" lon="6.49385">
        <ele>1542.1999511719</ele>
        <time>2014-02-12T11:00:36.000Z</time>
      </trkpt>
      <trkpt lat="45.92202" lon="6.49391">
        <ele>1543.4000244141</ele>
        <time>2014-02-12T11:00:37.000Z</time>
      </trkpt>
      <trkpt lat="45.92203" lon="6.49396">
        <ele>1545</ele>
        <time>2014-02-12T11:00:38.000Z</time>
      </trkpt>
      <trkpt lat="45.92203" lon="6.49402">
        <ele>1546.4000244141</ele>
        <time>2014-02-12T11:00:39.000Z</time>
      </trkpt>
      <trkpt lat="45.92203" lon="6.49408">
        <ele>1548.1999511719</ele>
        <time>2014-02-12T11:00:40.000Z</time>
      </trkpt>
      <trkpt lat="45.92203" lon="6.49414">
        <ele>1549.8000488281</ele>
        <time>2014-02-12T11:00:41.000Z</time>
      </trkpt>
      <trkpt lat="45.92203" lon="6.4942">
        <ele>1551.4000244141</ele>
        <time>2014-02-12T11:00:42.000Z</time>
      </trkpt>
      <trkpt lat="45.92203" lon="6.49426">
        <ele>1553.1999511719</ele>
        <time>2014-02-12T11:00:43.000Z</time>
      </trkpt>
      <trkpt lat="45.92203" lon="6.49433">
        <ele>1555</ele>
        <time>2014-02-12T11:00:44.000Z</time>
      </trkpt>
      <trkpt lat="45.92204" lon="6.49439">
        <ele>1556.8000488281</ele>
        <time>2014-02-12T11:00:45.000Z</time>
      </trkpt>
      <trkpt lat="45.92204" lon="6.49446">
        <ele>1558.5999755859</ele>
        <time>2014-02-12T11:00:46.000Z</time>
      </trkpt>
      <trkpt lat="45.92205" lon="6.49452">
        <ele>1560.1999511719</ele>
        <time>2014-02-12T11:00:47.000Z</time>
      </trkpt>
      <trkpt lat="45.92205" lon="6.49459">
        <ele>1562</ele>
        <time>2014-02-12T11:00:48.000Z</time>
      </trkpt>
      <trkpt lat="45.92205" lon="6.49465">
        <ele>1563.5999755859</ele>
        <time>2014-02-12T11:00:49.000Z</time>
      </trkpt>
      <trkpt lat="45.92206" lon="6.49471">
        <ele>1565.5999755859</ele>
        <time>2014-02-12T11:00:50.000Z</time>
      </trkpt>
      <trkpt lat="45.92206" lon="6.49478">
        <ele>1567.4000244141</ele>
        <time>2014-02-12T11:00:51.000Z</time>
      </trkpt>
      <trkpt lat="45.92207" lon="6.49485">
        <ele>1569.4000244141</ele>
        <time>2014-02-12T11:00:52.000Z</time>
      </trkpt>
      <trkpt lat="45.92207" lon="6.49491">
        <ele>1572</ele>
        <time>2014-02-12T11:00:53.000Z</time>
      </trkpt>
      <trkpt lat="45.92208" lon="6.49498">
        <ele>1574.8000488281</ele>
        <time>2014-02-12T11:00:54.000Z</time>
      </trkpt>
      <trkpt lat="45.92208" lon="6.49505">
        <ele>1577.5999755859</ele>
        <time>2014-02-12T11:00:55.000Z</time>
      </trkpt>
      <trkpt lat="45.92208" lon="6.49512">
        <ele>1580.5999755859</ele>
        <time>2014-02-12T11:00:56.000Z</time>
      </trkpt>
      <trkpt lat="45.92208" lon="6.49518">
        <ele>1583.1999511719</ele>
        <time>2014-02-12T11:00:57.000Z</time>
      </trkpt>
      <trkpt lat="45.92208" lon="6.49524">
        <ele>1585.8000488281</ele>
        <time>2014-02-12T11:00:58.000Z</time>
      </trkpt>
      <trkpt lat="45.92209" lon="6.49531">
        <ele>1588.4000244141</ele>
        <time>2014-02-12T11:00:59.000Z</time>
      </trkpt>
      <trkpt lat="45.92209" lon="6.49536">
        <ele>1590.8000488281</ele>
        <time>2014-02-12T11:01:00.000Z</time>
      </trkpt>
      <trkpt lat="45.9221" lon="6.49542">
        <ele>1593</ele>
        <time>2014-02-12T11:01:01.000Z</time>
      </trkpt>
      <trkpt lat="45.9221" lon="6.49548">
        <ele>1595.4000244141</ele>
        <time>2014-02-12T11:01:02.000Z</time>
      </trkpt>
      <trkpt lat="45.9221" lon="6.49553">
        <ele>1597.5999755859</ele>
        <time>2014-02-12T11:01:03.000Z</time>
      </trkpt>
      <trkpt lat="45.9221" lon="6.49565">
        <ele>1602.8000488281</ele>
        <time>2014-02-12T11:01:05.000Z</time>
      </trkpt>
      <trkpt lat="45.9221" lon="6.49571">
        <ele>1605.8000488281</ele>
        <time>2014-02-12T11:01:06.000Z</time>
      </trkpt>
      <trkpt lat="45.92211" lon="6.49576">
        <ele>1608.1999511719</ele>
        <time>2014-02-12T11:01:07.000Z</time>
      </trkpt>
      <trkpt lat="45.92212" lon="6.49582">
        <ele>1610.5999755859</ele>
        <time>2014-02-12T11:01:08.000Z</time>
      </trkpt>
      <trkpt lat="45.92213" lon="6.49586">
        <ele>1612.4000244141</ele>
        <time>2014-02-12T11:01:09.000Z</time>
      </trkpt>
      <trkpt lat="45.92214" lon="6.49591">
        <ele>1614.5999755859</ele>
        <time>2014-02-12T11:01:10.000Z</time>
      </trkpt>
      <trkpt lat="45.92216" lon="6.49597">
        <ele>1617</ele>
        <time>2014-02-12T11:01:11.000Z</time>
      </trkpt>
      <trkpt lat="45.92217" lon="6.49601">
        <ele>1618.8000488281</ele>
        <time>2014-02-12T11:01:12.000Z</time>
      </trkpt>
      <trkpt lat="45.92219" lon="6.49606">
        <ele>1620.5999755859</ele>
        <time>2014-02-12T11:01:13.000Z</time>
      </trkpt>
      <trkpt lat="45.92222" lon="6.4961">
        <ele>1622.4000244141</ele>
        <time>2014-02-12T11:01:14.000Z</time>
      </trkpt>
      <trkpt lat="45.92226" lon="6.49613">
        <ele>1623.4000244141</ele>
        <time>2014-02-12T11:01:15.000Z</time>
      </trkpt>
      <trkpt lat="45.92229" lon="6.49617">
        <ele>1625.4000244141</ele>
        <time>2014-02-12T11:01:16.000Z</time>
      </trkpt>
      <trkpt lat="45.92231" lon="6.49621">
        <ele>1628</ele>
        <time>2014-02-12T11:01:17.000Z</time>
      </trkpt>
      <trkpt lat="45.92233" lon="6.49626">
        <ele>1630.1999511719</ele>
        <time>2014-02-12T11:01:18.000Z</time>
      </trkpt>
      <trkpt lat="45.92235" lon="6.4963">
        <ele>1632.8000488281</ele>
        <time>2014-02-12T11:01:19.000Z</time>
      </trkpt>
      <trkpt lat="45.9224" lon="6.49654">
        <ele>1645.1999511719</ele>
        <time>2014-02-12T11:01:23.000Z</time>
      </trkpt>
      <trkpt lat="45.9224" lon="6.49661">
        <ele>1650.4000244141</ele>
        <time>2014-02-12T11:01:24.000Z</time>
      </trkpt>
      <trkpt lat="45.9224" lon="6.49668">
        <ele>1654.8000488281</ele>
        <time>2014-02-12T11:01:25.000Z</time>
      </trkpt>
      <trkpt lat="45.9224" lon="6.49675">
        <ele>1657.5999755859</ele>
        <time>2014-02-12T11:01:26.000Z</time>
      </trkpt>
      <trkpt lat="45.9224" lon="6.49689">
        <ele>1663.4000244141</ele>
        <time>2014-02-12T11:01:28.000Z</time>
      </trkpt>
      <trkpt lat="45.9224" lon="6.49697">
        <ele>1666.5999755859</ele>
        <time>2014-02-12T11:01:29.000Z</time>
      </trkpt>
      <trkpt lat="45.9224" lon="6.49704">
        <ele>1669.8000488281</ele>
        <time>2014-02-12T11:01:30.000Z</time>
      </trkpt>
      <trkpt lat="45.92238" lon="6.49713">
        <ele>1672.8000488281</ele>
        <time>2014-02-12T11:01:31.000Z</time>
      </trkpt>
      <trkpt lat="45.92236" lon="6.49722">
        <ele>1676</ele>
        <time>2014-02-12T11:01:32.000Z</time>
      </trkpt>
      <trkpt lat="45.92234" lon="6.49732">
        <ele>1679.1999511719</ele>
        <time>2014-02-12T11:01:33.000Z</time>
      </trkpt>
      <trkpt lat="45.92231" lon="6.49749">
        <ele>1688.1999511719</ele>
        <time>2014-02-12T11:01:35.000Z</time>
      </trkpt>
      <trkpt lat="45.92232" lon="6.49756">
        <ele>1692.4000244141</ele>
        <time>2014-02-12T11:01:36.000Z</time>
      </trkpt>
      <trkpt lat="45.92232" lon="6.49763">
        <ele>1696.5999755859</ele>
        <time>2014-02-12T11:01:37.000Z</time>
      </trkpt>
      <trkpt lat="45.92233" lon="6.49769">
        <ele>1700.5999755859</ele>
        <time>2014-02-12T11:01:38.000Z</time>
      </trkpt>
      <trkpt lat="45.92234" lon="6.49775">
        <ele>1704.4000244141</ele>
        <time>2014-02-12T11:01:39.000Z</time>
      </trkpt>
      <trkpt lat="45.92235" lon="6.49781">
        <ele>1708.1999511719</ele>
        <time>2014-02-12T11:01:40.000Z</time>
      </trkpt>
      <trkpt lat="45.92236" lon="6.49787">
        <ele>1712</ele>
        <time>2014-02-12T11:01:41.000Z</time>
      </trkpt>
      <trkpt lat="45.92237" lon="6.498">
        <ele>1719.8000488281</ele>
        <time>2014-02-12T11:01:43.000Z</time>
      </trkpt>
      <trkpt lat="45.92237" lon="6.49806">
        <ele>1723.8000488281</ele>
        <time>2014-02-12T11:01:44.000Z</time>
      </trkpt>
      <trkpt lat="45.92238" lon="6.49813">
        <ele>1727.8000488281</ele>
        <time>2014-02-12T11:01:45.000Z</time>
      </trkpt>
      <trkpt lat="45.92237" lon="6.49819">
        <ele>1731</ele>
        <time>2014-02-12T11:01:46.000Z</time>
      </trkpt>
      <trkpt lat="45.92236" lon="6.49824">
        <ele>1733.5999755859</ele>
        <time>2014-02-12T11:01:47.000Z</time>
      </trkpt>
      <trkpt lat="45.92236" lon="6.49828">
        <ele>1736.4000244141</ele>
        <time>2014-02-12T11:01:48.000Z</time>
      </trkpt>
      <trkpt lat="45.92236" lon="6.49833">
        <ele>1739.5999755859</ele>
        <time>2014-02-12T11:01:49.000Z</time>
      </trkpt>
      <trkpt lat="45.92236" lon="6.49839">
        <ele>1743.4000244141</ele>
        <time>2014-02-12T11:01:50.000Z</time>
      </trkpt>
      <trkpt lat="45.92237" lon="6.49844">
        <ele>1747.4000244141</ele>
        <time>2014-02-12T11:01:51.000Z</time>
      </trkpt>
      <trkpt lat="45.92237" lon="6.49855">
        <ele>1755.1999511719</ele>
        <time>2014-02-12T11:01:53.000Z</time>
      </trkpt>
      <trkpt lat="45.92245" lon="6.4988">
        <ele>1774.1999511719</ele>
        <time>2014-02-12T11:01:59.000Z</time>
      </trkpt>
      <trkpt lat="45.92246" lon="6.49883">
        <ele>1776.5999755859</ele>
        <time>2014-02-12T11:02:00.000Z</time>
      </trkpt>
      <trkpt lat="45.92247" lon="6.49887">
        <ele>1779.5999755859</ele>
        <time>2014-02-12T11:02:01.000Z</time>
      </trkpt>
      <trkpt lat="45.92247" lon="6.49892">
        <ele>1782.8000488281</ele>
        <time>2014-02-12T11:02:02.000Z</time>
      </trkpt>
      <trkpt lat="45.92249" lon="6.49896">
        <ele>1786.1999511719</ele>
        <time>2014-02-12T11:02:03.000Z</time>
      </trkpt>
      <trkpt lat="45.92249" lon="6.49914">
        <ele>1793.8000488281</ele>
        <time>2014-02-12T11:02:06.000Z</time>
      </trkpt>
      <trkpt lat="45.92249" lon="6.49921">
        <ele>1796</ele>
        <time>2014-02-12T11:02:07.000Z</time>
      </trkpt>
      <trkpt lat="45.92248" lon="6.49928">
        <ele>1799.4000244141</ele>
        <time>2014-02-12T11:02:08.000Z</time>
      </trkpt>
      <trkpt lat="45.92252" lon="6.49946">
        <ele>1812.1999511719</ele>
        <time>2014-02-12T11:02:11.000Z</time>
      </trkpt>
      <trkpt lat="45.92253" lon="6.49953">
        <ele>1816.5999755859</ele>
        <time>2014-02-12T11:02:12.000Z</time>
      </trkpt>
      <trkpt lat="45.92254" lon="6.49959">
        <ele>1821</ele>
        <time>2014-02-12T11:02:13.000Z</time>
      </trkpt>
      <trkpt lat="45.92255" lon="6.49965">
        <ele>1825.4000244141</ele>
        <time>2014-02-12T11:02:14.000Z</time>
      </trkpt>
      <trkpt lat="45.92263" lon="6.50001">
        <ele>1838.4000244141</ele>
        <time>2014-02-12T11:02:20.000Z</time>
      </trkpt>
      <trkpt lat="45.92266" lon="6.50005">
        <ele>1838.1999511719</ele>
        <time>2014-02-12T11:02:21.000Z</time>
      </trkpt>
      <trkpt lat="45.92268" lon="6.50008">
        <ele>1838</ele>
        <time>2014-02-12T11:02:22.000Z</time>
      </trkpt>
      <trkpt lat="45.92271" lon="6.50012">
        <ele>1838</ele>
        <time>2014-02-12T11:02:23.000Z</time>
      </trkpt>
      <trkpt lat="45.92274" lon="6.50015">
        <ele>1837.8000488281</ele>
        <time>2014-02-12T11:02:24.000Z</time>
      </trkpt>
      <trkpt lat="45.92276" lon="6.50018">
        <ele>1837.5999755859</ele>
        <time>2014-02-12T11:02:25.000Z</time>
      </trkpt>
      <trkpt lat="45.92288" lon="6.50023">
        <ele>1836.5999755859</ele>
        <time>2014-02-12T11:02:28.000Z</time>
      </trkpt>
      <trkpt lat="45.92294" lon="6.50021">
        <ele>1835.8000488281</ele>
        <time>2014-02-12T11:02:29.000Z</time>
      </trkpt>
      <trkpt lat="45.923" lon="6.5002">
        <ele>1835.1999511719</ele>
        <time>2014-02-12T11:02:30.000Z</time>
      </trkpt>
      <trkpt lat="45.92305" lon="6.50019">
        <ele>1834.5999755859</ele>
        <time>2014-02-12T11:02:31.000Z</time>
      </trkpt>
      <trkpt lat="45.92309" lon="6.50018">
        <ele>1831.1999511719</ele>
        <time>2014-02-12T11:02:32.000Z</time>
      </trkpt>
      <trkpt lat="45.92318" lon="6.50014">
        <ele>1819</ele>
        <time>2014-02-12T11:02:34.000Z</time>
      </trkpt>
      <trkpt lat="45.92322" lon="6.50012">
        <ele>1813.8000488281</ele>
        <time>2014-02-12T11:02:35.000Z</time>
      </trkpt>
      <trkpt lat="45.92325" lon="6.5001">
        <ele>1808.1999511719</ele>
        <time>2014-02-12T11:02:36.000Z</time>
      </trkpt>
      <trkpt lat="45.92328" lon="6.50006">
        <ele>1803.8000488281</ele>
        <time>2014-02-12T11:02:37.000Z</time>
      </trkpt>
      <trkpt lat="45.92334" lon="6.49994">
        <ele>1812.8000488281</ele>
        <time>2014-02-12T11:02:38.000Z</time>
      </trkpt>
      <trkpt lat="45.92345" lon="6.49974">
        <ele>1817.4000244141</ele>
        <time>2014-02-12T11:02:40.000Z</time>
      </trkpt>
      <trkpt lat="45.92345" lon="6.49974">
        <ele>1817.4000244141</ele>
        <time>2014-02-12T11:02:47.000Z</time>
      </trkpt>
      <trkpt lat="45.92345" lon="6.49974">
        <ele>1817.4000244141</ele>
        <time>2014-02-12T11:02:48.000Z</time>
      </trkpt>
      <trkpt lat="45.92345" lon="6.49974">
        <ele>1817.4000244141</ele>
        <time>2014-02-12T11:02:49.000Z</time>
      </trkpt>
      <trkpt lat="45.92345" lon="6.49974">
        <ele>1817.4000244141</ele>
        <time>2014-02-12T11:02:50.000Z</time>
      </trkpt>
      <trkpt lat="45.92345" lon="6.49974">
        <ele>1817.4000244141</ele>
        <time>2014-02-12T11:02:51.000Z</time>
      </trkpt>
      <trkpt lat="45.92345" lon="6.49974">
        <ele>1817.4000244141</ele>
        <time>2014-02-12T11:02:52.000Z</time>
      </trkpt>
      <trkpt lat="45.92345" lon="6.49974">
        <ele>1817.4000244141</ele>
        <time>2014-02-12T11:02:53.000Z</time>
      </trkpt>
      <trkpt lat="45.92345" lon="6.49974">
        <ele>1817.4000244141</ele>
        <time>2014-02-12T11:02:54.000Z</time>
      </trkpt>
      <trkpt lat="45.92345" lon="6.49974">
        <ele>1817.4000244141</ele>
        <time>2014-02-12T11:02:55.000Z</time>
      </trkpt>
      <trkpt lat="45.92345" lon="6.49974">
        <ele>1817.4000244141</ele>
        <time>2014-02-12T11:02:56.000Z</time>
      </trkpt>
      <trkpt lat="45.92345" lon="6.49974">
        <ele>1817.4000244141</ele>
        <time>2014-02-12T11:02:57.000Z</time>
      </trkpt>
      <trkpt lat="45.92345" lon="6.49974">
        <ele>1817.4000244141</ele>
        <time>2014-02-12T11:02:58.000Z</time>
      </trkpt>
      <trkpt lat="45.92345" lon="6.49974">
        <ele>1817.4000244141</ele>
        <time>2014-02-12T11:02:59.000Z</time>
      </trkpt>
      <trkpt lat="45.92345" lon="6.49974">
        <ele>1817.4000244141</ele>
        <time>2014-02-12T11:03:00.000Z</time>
      </trkpt>
      <trkpt lat="45.92345" lon="6.49974">
        <ele>1817.4000244141</ele>
        <time>2014-02-12T11:03:01.000Z</time>
      </trkpt>
      <trkpt lat="45.92345" lon="6.49974">
        <ele>1817.4000244141</ele>
        <time>2014-02-12T11:03:05.000Z</time>
      </trkpt>
      <trkpt lat="45.92345" lon="6.49974">
        <ele>1817.4000244141</ele>
        <time>2014-02-12T11:03:06.000Z</time>
      </trkpt>
      <trkpt lat="45.92345" lon="6.49974">
        <ele>1817.4000244141</ele>
        <time>2014-02-12T11:03:07.000Z</time>
      </trkpt>
      <trkpt lat="45.92345" lon="6.49974">
        <ele>1817.4000244141</ele>
        <time>2014-02-12T11:03:08.000Z</time>
      </trkpt>
      <trkpt lat="45.92345" lon="6.49974">
        <ele>1817.4000244141</ele>
        <time>2014-02-12T11:03:09.000Z</time>
      </trkpt>
      <trkpt lat="45.92345" lon="6.49974">
        <ele>1817.4000244141</ele>
        <time>2014-02-12T11:03:13.000Z</time>
      </trkpt>
      <trkpt lat="45.92345" lon="6.49974">
        <ele>1817.4000244141</ele>
        <time>2014-02-12T11:03:14.000Z</time>
      </trkpt>
      <trkpt lat="45.92345" lon="6.49974">
        <ele>1817.4000244141</ele>
        <time>2014-02-12T11:03:15.000Z</time>
      </trkpt>
      <trkpt lat="45.92345" lon="6.49974">
        <ele>1817.4000244141</ele>
        <time>2014-02-12T11:03:17.000Z</time>
      </trkpt>
      <trkpt lat="45.92348" lon="6.49965">
        <ele>1813.5999755859</ele>
        <time>2014-02-12T11:03:21.000Z</time>
      </trkpt>
      <trkpt lat="45.92348" lon="6.49965">
        <ele>1813.5999755859</ele>
        <time>2014-02-12T11:03:22.000Z</time>
      </trkpt>
      <trkpt lat="45.92348" lon="6.49965">
        <ele>1813.5999755859</ele>
        <time>2014-02-12T11:03:23.000Z</time>
      </trkpt>
      <trkpt lat="45.92348" lon="6.49965">
        <ele>1813.5999755859</ele>
        <time>2014-02-12T11:03:24.000Z</time>
      </trkpt>
      <trkpt lat="45.92348" lon="6.49965">
        <ele>1813.5999755859</ele>
        <time>2014-02-12T11:03:25.000Z</time>
      </trkpt>
      <trkpt lat="45.92348" lon="6.49965">
        <ele>1813.5999755859</ele>
        <time>2014-02-12T11:03:26.000Z</time>
      </trkpt>
      <trkpt lat="45.92348" lon="6.49965">
        <ele>1813.5999755859</ele>
        <time>2014-02-12T11:03:28.000Z</time>
      </trkpt>
      <trkpt lat="45.92348" lon="6.49965">
        <ele>1813.5999755859</ele>
        <time>2014-02-12T11:03:29.000Z</time>
      </trkpt>
      <trkpt lat="45.92348" lon="6.49965">
        <ele>1813.5999755859</ele>
        <time>2014-02-12T11:03:30.000Z</time>
      </trkpt>
      <trkpt lat="45.92348" lon="6.49965">
        <ele>1813.5999755859</ele>
        <time>2014-02-12T11:03:31.000Z</time>
      </trkpt>
      <trkpt lat="45.92348" lon="6.49965">
        <ele>1813.5999755859</ele>
        <time>2014-02-12T11:03:33.000Z</time>
      </trkpt>
      <trkpt lat="45.92348" lon="6.49965">
        <ele>1813.5999755859</ele>
        <time>2014-02-12T11:03:34.000Z</time>
      </trkpt>
      <trkpt lat="45.92348" lon="6.49965">
        <ele>1813.5999755859</ele>
        <time>2014-02-12T11:03:35.000Z</time>
      </trkpt>
      <trkpt lat="45.92348" lon="6.49965">
        <ele>1813.5999755859</ele>
        <time>2014-02-12T11:03:36.000Z</time>
      </trkpt>
      <trkpt lat="45.92348" lon="6.49965">
        <ele>1813.5999755859</ele>
        <time>2014-02-12T11:03:37.000Z</time>
      </trkpt>
      <trkpt lat="45.92348" lon="6.49965">
        <ele>1813.5999755859</ele>
        <time>2014-02-12T11:03:38.000Z</time>
      </trkpt>
      <trkpt lat="45.92348" lon="6.49965">
        <ele>1813.5999755859</ele>
        <time>2014-02-12T11:03:51.000Z</time>
      </trkpt>
      <trkpt lat="45.92348" lon="6.49965">
        <ele>1813.5999755859</ele>
        <time>2014-02-12T11:03:52.000Z</time>
      </trkpt>
      <trkpt lat="45.92348" lon="6.49965">
        <ele>1813.5999755859</ele>
        <time>2014-02-12T11:03:53.000Z</time>
      </trkpt>
      <trkpt lat="45.92348" lon="6.49965">
        <ele>1813.5999755859</ele>
        <time>2014-02-12T11:03:54.000Z</time>
      </trkpt>
      <trkpt lat="45.92348" lon="6.49965">
        <ele>1813.5999755859</ele>
        <time>2014-02-12T11:03:55.000Z</time>
      </trkpt>
      <trkpt lat="45.92348" lon="6.49965">
        <ele>1813.5999755859</ele>
        <time>2014-02-12T11:03:56.000Z</time>
      </trkpt>
      <trkpt lat="45.92348" lon="6.49965">
        <ele>1813.5999755859</ele>
        <time>2014-02-12T11:03:57.000Z</time>
      </trkpt>
      <trkpt lat="45.92347" lon="6.4996">
        <ele>1812</ele>
        <time>2014-02-12T11:03:59.000Z</time>
      </trkpt>
      <trkpt lat="45.92347" lon="6.4996">
        <ele>1812</ele>
        <time>2014-02-12T11:04:00.000Z</time>
      </trkpt>
      <trkpt lat="45.92347" lon="6.4996">
        <ele>1812</ele>
        <time>2014-02-12T11:04:01.000Z</time>
      </trkpt>
      <trkpt lat="45.92347" lon="6.4996">
        <ele>1812</ele>
        <time>2014-02-12T11:04:02.000Z</time>
      </trkpt>
      <trkpt lat="45.92347" lon="6.4996">
        <ele>1812</ele>
        <time>2014-02-12T11:04:03.000Z</time>
      </trkpt>
      <trkpt lat="45.92347" lon="6.4996">
        <ele>1812</ele>
        <time>2014-02-12T11:04:05.000Z</time>
      </trkpt>
      <trkpt lat="45.92347" lon="6.4996">
        <ele>1812</ele>
        <time>2014-02-12T11:04:06.000Z</time>
      </trkpt>
      <trkpt lat="45.92347" lon="6.4996">
        <ele>1812</ele>
        <time>2014-02-12T11:04:07.000Z</time>
      </trkpt>
      <trkpt lat="45.92347" lon="6.4996">
        <ele>1812</ele>
        <time>2014-02-12T11:04:08.000Z</time>
      </trkpt>
      <trkpt lat="45.92347" lon="6.4996">
        <ele>1812</ele>
        <time>2014-02-12T11:04:09.000Z</time>
      </trkpt>
      <trkpt lat="45.92348" lon="6.4996">
        <ele>1812</ele>
        <time>2014-02-12T11:04:10.000Z</time>
      </trkpt>
      <trkpt lat="45.92348" lon="6.49953">
        <ele>1809.4000244141</ele>
        <time>2014-02-12T11:04:11.000Z</time>
      </trkpt>
      <trkpt lat="45.92349" lon="6.49947">
        <ele>1807.4000244141</ele>
        <time>2014-02-12T11:04:13.000Z</time>
      </trkpt>
      <trkpt lat="45.92349" lon="6.49941">
        <ele>1805</ele>
        <time>2014-02-12T11:04:14.000Z</time>
      </trkpt>
      <trkpt lat="45.92349" lon="6.49941">
        <ele>1805</ele>
        <time>2014-02-12T11:04:15.000Z</time>
      </trkpt>
      <trkpt lat="45.92349" lon="6.49936">
        <ele>1803.4000244141</ele>
        <time>2014-02-12T11:04:16.000Z</time>
      </trkpt>
      <trkpt lat="45.9235" lon="6.4993">
        <ele>1801.8000488281</ele>
        <time>2014-02-12T11:04:17.000Z</time>
      </trkpt>
      <trkpt lat="45.9235" lon="6.4993">
        <ele>1801.8000488281</ele>
        <time>2014-02-12T11:04:18.000Z</time>
      </trkpt>
      <trkpt lat="45.9235" lon="6.4993">
        <ele>1801.8000488281</ele>
        <time>2014-02-12T11:04:19.000Z</time>
      </trkpt>
      <trkpt lat="45.9235" lon="6.4993">
        <ele>1801.8000488281</ele>
        <time>2014-02-12T11:04:20.000Z</time>
      </trkpt>
      <trkpt lat="45.9235" lon="6.49925">
        <ele>1800</ele>
        <time>2014-02-12T11:04:21.000Z</time>
      </trkpt>
      <trkpt lat="45.9235" lon="6.49921">
        <ele>1798.5999755859</ele>
        <time>2014-02-12T11:04:22.000Z</time>
      </trkpt>
      <trkpt lat="45.9235" lon="6.49916">
        <ele>1797.4000244141</ele>
        <time>2014-02-12T11:04:23.000Z</time>
      </trkpt>
      <trkpt lat="45.92351" lon="6.49912">
        <ele>1795.5999755859</ele>
        <time>2014-02-12T11:04:24.000Z</time>
      </trkpt>
      <trkpt lat="45.92352" lon="6.49908">
        <ele>1794.1999511719</ele>
        <time>2014-02-12T11:04:25.000Z</time>
      </trkpt>
      <trkpt lat="45.92352" lon="6.49906">
        <ele>1793.1999511719</ele>
        <time>2014-02-12T11:04:26.000Z</time>
      </trkpt>
      <trkpt lat="45.92353" lon="6.49903">
        <ele>1792.1999511719</ele>
        <time>2014-02-12T11:04:27.000Z</time>
      </trkpt>
      <trkpt lat="45.92353" lon="6.49899">
        <ele>1790.5999755859</ele>
        <time>2014-02-12T11:04:28.000Z</time>
      </trkpt>
      <trkpt lat="45.92354" lon="6.49896">
        <ele>1788.4000244141</ele>
        <time>2014-02-12T11:04:29.000Z</time>
      </trkpt>
      <trkpt lat="45.92354" lon="6.49894">
        <ele>1787.4000244141</ele>
        <time>2014-02-12T11:04:30.000Z</time>
      </trkpt>
      <trkpt lat="45.92355" lon="6.49895">
        <ele>1788</ele>
        <time>2014-02-12T11:04:31.000Z</time>
      </trkpt>
      <trkpt lat="45.92355" lon="6.49896">
        <ele>1788.1999511719</ele>
        <time>2014-02-12T11:04:32.000Z</time>
      </trkpt>
      <trkpt lat="45.92355" lon="6.49894">
        <ele>1787</ele>
        <time>2014-02-12T11:04:33.000Z</time>
      </trkpt>
      <trkpt lat="45.92355" lon="6.49895">
        <ele>1788</ele>
        <time>2014-02-12T11:04:34.000Z</time>
      </trkpt>
      <trkpt lat="45.92355" lon="6.49893">
        <ele>1786.4000244141</ele>
        <time>2014-02-12T11:04:35.000Z</time>
      </trkpt>
      <trkpt lat="45.92354" lon="6.49891">
        <ele>1785.4000244141</ele>
        <time>2014-02-12T11:04:36.000Z</time>
      </trkpt>
      <trkpt lat="45.92354" lon="6.49892">
        <ele>1786</ele>
        <time>2014-02-12T11:04:37.000Z</time>
      </trkpt>
      <trkpt lat="45.92354" lon="6.49889">
        <ele>1784.4000244141</ele>
        <time>2014-02-12T11:04:38.000Z</time>
      </trkpt>
      <trkpt lat="45.92354" lon="6.49887">
        <ele>1783.4000244141</ele>
        <time>2014-02-12T11:04:39.000Z</time>
      </trkpt>
      <trkpt lat="45.92355" lon="6.49886">
        <ele>1782.4000244141</ele>
        <time>2014-02-12T11:04:40.000Z</time>
      </trkpt>
      <trkpt lat="45.92355" lon="6.49884">
        <ele>1781.1999511719</ele>
        <time>2014-02-12T11:04:41.000Z</time>
      </trkpt>
      <trkpt lat="45.92355" lon="6.49882">
        <ele>1780.1999511719</ele>
        <time>2014-02-12T11:04:42.000Z</time>
      </trkpt>
      <trkpt lat="45.92355" lon="6.49881">
        <ele>1779.4000244141</ele>
        <time>2014-02-12T11:04:43.000Z</time>
      </trkpt>
      <trkpt lat="45.92355" lon="6.49879">
        <ele>1778</ele>
        <time>2014-02-12T11:04:44.000Z</time>
      </trkpt>
      <trkpt lat="45.92355" lon="6.49877">
        <ele>1777.1999511719</ele>
        <time>2014-02-12T11:04:45.000Z</time>
      </trkpt>
      <trkpt lat="45.92356" lon="6.49876">
        <ele>1776.4000244141</ele>
        <time>2014-02-12T11:04:46.000Z</time>
      </trkpt>
      <trkpt lat="45.92356" lon="6.49878">
        <ele>1777.4000244141</ele>
        <time>2014-02-12T11:04:47.000Z</time>
      </trkpt>
      <trkpt lat="45.92356" lon="6.49877">
        <ele>1776.5999755859</ele>
        <time>2014-02-12T11:04:48.000Z</time>
      </trkpt>
      <trkpt lat="45.92356" lon="6.49876">
        <ele>1776</ele>
        <time>2014-02-12T11:04:49.000Z</time>
      </trkpt>
      <trkpt lat="45.92357" lon="6.49878">
        <ele>1777.1999511719</ele>
        <time>2014-02-12T11:04:50.000Z</time>
      </trkpt>
      <trkpt lat="45.92356" lon="6.49879">
        <ele>1777.5999755859</ele>
        <time>2014-02-12T11:04:51.000Z</time>
      </trkpt>
      <trkpt lat="45.92356" lon="6.49877">
        <ele>1777</ele>
        <time>2014-02-12T11:04:52.000Z</time>
      </trkpt>
      <trkpt lat="45.92356" lon="6.49876">
        <ele>1776.4000244141</ele>
        <time>2014-02-12T11:04:53.000Z</time>
      </trkpt>
      <trkpt lat="45.92355" lon="6.49877">
        <ele>1777</ele>
        <time>2014-02-12T11:04:54.000Z</time>
      </trkpt>
      <trkpt lat="45.92354" lon="6.49875">
        <ele>1776.1999511719</ele>
        <time>2014-02-12T11:04:55.000Z</time>
      </trkpt>
      <trkpt lat="45.92354" lon="6.49874">
        <ele>1775.8000488281</ele>
        <time>2014-02-12T11:04:56.000Z</time>
      </trkpt>
      <trkpt lat="45.92353" lon="6.49874">
        <ele>1776.1999511719</ele>
        <time>2014-02-12T11:04:57.000Z</time>
      </trkpt>
      <trkpt lat="45.92352" lon="6.49873">
        <ele>1775.4000244141</ele>
        <time>2014-02-12T11:04:58.000Z</time>
      </trkpt>
      <trkpt lat="45.92352" lon="6.49872">
        <ele>1775</ele>
        <time>2014-02-12T11:04:59.000Z</time>
      </trkpt>
      <trkpt lat="45.92351" lon="6.49872">
        <ele>1775.4000244141</ele>
        <time>2014-02-12T11:05:00.000Z</time>
      </trkpt>
      <trkpt lat="45.92351" lon="6.49871">
        <ele>1774.8000488281</ele>
        <time>2014-02-12T11:05:01.000Z</time>
      </trkpt>
      <trkpt lat="45.92351" lon="6.49869">
        <ele>1773.8000488281</ele>
        <time>2014-02-12T11:05:02.000Z</time>
      </trkpt>
      <trkpt lat="45.9235" lon="6.49867">
        <ele>1772.8000488281</ele>
        <time>2014-02-12T11:05:03.000Z</time>
      </trkpt>
      <trkpt lat="45.9235" lon="6.49868">
        <ele>1773</ele>
        <time>2014-02-12T11:05:04.000Z</time>
      </trkpt>
      <trkpt lat="45.92351" lon="6.49867">
        <ele>1772.1999511719</ele>
        <time>2014-02-12T11:05:05.000Z</time>
      </trkpt>
      <trkpt lat="45.92351" lon="6.49866">
        <ele>1771.4000244141</ele>
        <time>2014-02-12T11:05:06.000Z</time>
      </trkpt>
      <trkpt lat="45.92353" lon="6.49867">
        <ele>1772</ele>
        <time>2014-02-12T11:05:07.000Z</time>
      </trkpt>
      <trkpt lat="45.92354" lon="6.49866">
        <ele>1770.8000488281</ele>
        <time>2014-02-12T11:05:08.000Z</time>
      </trkpt>
      <trkpt lat="45.92354" lon="6.49864">
        <ele>1769.5999755859</ele>
        <time>2014-02-12T11:05:09.000Z</time>
      </trkpt>
      <trkpt lat="45.92354" lon="6.49863">
        <ele>1769.4000244141</ele>
        <time>2014-02-12T11:05:10.000Z</time>
      </trkpt>
      <trkpt lat="45.92354" lon="6.49861">
        <ele>1768.5999755859</ele>
        <time>2014-02-12T11:05:11.000Z</time>
      </trkpt>
      <trkpt lat="45.92354" lon="6.49859">
        <ele>1768.1999511719</ele>
        <time>2014-02-12T11:05:12.000Z</time>
      </trkpt>
      <trkpt lat="45.92354" lon="6.49858">
        <ele>1767.8000488281</ele>
        <time>2014-02-12T11:05:13.000Z</time>
      </trkpt>
      <trkpt lat="45.92354" lon="6.49856">
        <ele>1767.4000244141</ele>
        <time>2014-02-12T11:05:14.000Z</time>
      </trkpt>
      <trkpt lat="45.92355" lon="6.49855">
        <ele>1767</ele>
        <time>2014-02-12T11:05:15.000Z</time>
      </trkpt>
      <trkpt lat="45.92356" lon="6.49855">
        <ele>1766.8000488281</ele>
        <time>2014-02-12T11:05:16.000Z</time>
      </trkpt>
      <trkpt lat="45.92357" lon="6.49854">
        <ele>1766.4000244141</ele>
        <time>2014-02-12T11:05:17.000Z</time>
      </trkpt>
      <trkpt lat="45.92358" lon="6.49852">
        <ele>1766.1999511719</ele>
        <time>2014-02-12T11:05:18.000Z</time>
      </trkpt>
      <trkpt lat="45.92358" lon="6.49851">
        <ele>1765.5999755859</ele>
        <time>2014-02-12T11:05:19.000Z</time>
      </trkpt>
      <trkpt lat="45.92358" lon="6.49849">
        <ele>1765.1999511719</ele>
        <time>2014-02-12T11:05:20.000Z</time>
      </trkpt>
      <trkpt lat="45.92358" lon="6.49849">
        <ele>1765</ele>
        <time>2014-02-12T11:05:21.000Z</time>
      </trkpt>
      <trkpt lat="45.92358" lon="6.49847">
        <ele>1764.4000244141</ele>
        <time>2014-02-12T11:05:22.000Z</time>
      </trkpt>
      <trkpt lat="45.92358" lon="6.49845">
        <ele>1764</ele>
        <time>2014-02-12T11:05:23.000Z</time>
      </trkpt>
      <trkpt lat="45.92359" lon="6.49845">
        <ele>1763.8000488281</ele>
        <time>2014-02-12T11:05:24.000Z</time>
      </trkpt>
      <trkpt lat="45.92358" lon="6.49842">
        <ele>1763</ele>
        <time>2014-02-12T11:05:25.000Z</time>
      </trkpt>
      <trkpt lat="45.92358" lon="6.4984">
        <ele>1762.4000244141</ele>
        <time>2014-02-12T11:05:26.000Z</time>
      </trkpt>
      <trkpt lat="45.92359" lon="6.49839">
        <ele>1762</ele>
        <time>2014-02-12T11:05:27.000Z</time>
      </trkpt>
      <trkpt lat="45.92359" lon="6.49836">
        <ele>1761.1999511719</ele>
        <time>2014-02-12T11:05:28.000Z</time>
      </trkpt>
      <trkpt lat="45.92359" lon="6.49834">
        <ele>1760.5999755859</ele>
        <time>2014-02-12T11:05:29.000Z</time>
      </trkpt>
      <trkpt lat="45.92359" lon="6.49833">
        <ele>1760.4000244141</ele>
        <time>2014-02-12T11:05:30.000Z</time>
      </trkpt>
      <trkpt lat="45.92359" lon="6.49832">
        <ele>1759.8000488281</ele>
        <time>2014-02-12T11:05:31.000Z</time>
      </trkpt>
      <trkpt lat="45.92359" lon="6.4983">
        <ele>1759.4000244141</ele>
        <time>2014-02-12T11:05:32.000Z</time>
      </trkpt>
      <trkpt lat="45.92359" lon="6.49829">
        <ele>1759</ele>
        <time>2014-02-12T11:05:33.000Z</time>
      </trkpt>
      <trkpt lat="45.92359" lon="6.49827">
        <ele>1758.4000244141</ele>
        <time>2014-02-12T11:05:34.000Z</time>
      </trkpt>
      <trkpt lat="45.92359" lon="6.49826">
        <ele>1758</ele>
        <time>2014-02-12T11:05:35.000Z</time>
      </trkpt>
      <trkpt lat="45.9236" lon="6.49824">
        <ele>1757.5999755859</ele>
        <time>2014-02-12T11:05:36.000Z</time>
      </trkpt>
      <trkpt lat="45.9236" lon="6.49823">
        <ele>1757.1999511719</ele>
        <time>2014-02-12T11:05:37.000Z</time>
      </trkpt>
      <trkpt lat="45.9236" lon="6.49822">
        <ele>1757</ele>
        <time>2014-02-12T11:05:38.000Z</time>
      </trkpt>
      <trkpt lat="45.9236" lon="6.49821">
        <ele>1756.8000488281</ele>
        <time>2014-02-12T11:05:39.000Z</time>
      </trkpt>
      <trkpt lat="45.9236" lon="6.49821">
        <ele>1756.5999755859</ele>
        <time>2014-02-12T11:05:40.000Z</time>
      </trkpt>
      <trkpt lat="45.9236" lon="6.4982">
        <ele>1756.4000244141</ele>
        <time>2014-02-12T11:05:41.000Z</time>
      </trkpt>
      <trkpt lat="45.9236" lon="6.49819">
        <ele>1756</ele>
        <time>2014-02-12T11:05:42.000Z</time>
      </trkpt>
      <trkpt lat="45.9236" lon="6.49817">
        <ele>1755.5999755859</ele>
        <time>2014-02-12T11:05:43.000Z</time>
      </trkpt>
      <trkpt lat="45.92361" lon="6.49816">
        <ele>1754.8000488281</ele>
        <time>2014-02-12T11:05:44.000Z</time>
      </trkpt>
      <trkpt lat="45.92361" lon="6.49814">
        <ele>1753.5999755859</ele>
        <time>2014-02-12T11:05:45.000Z</time>
      </trkpt>
      <trkpt lat="45.92361" lon="6.49812">
        <ele>1752.5999755859</ele>
        <time>2014-02-12T11:05:46.000Z</time>
      </trkpt>
      <trkpt lat="45.92361" lon="6.4981">
        <ele>1751.5999755859</ele>
        <time>2014-02-12T11:05:47.000Z</time>
      </trkpt>
      <trkpt lat="45.92362" lon="6.49809">
        <ele>1750.5999755859</ele>
        <time>2014-02-12T11:05:48.000Z</time>
      </trkpt>
      <trkpt lat="45.92362" lon="6.49807">
        <ele>1749.8000488281</ele>
        <time>2014-02-12T11:05:49.000Z</time>
      </trkpt>
      <trkpt lat="45.92362" lon="6.49806">
        <ele>1749.1999511719</ele>
        <time>2014-02-12T11:05:50.000Z</time>
      </trkpt>
      <trkpt lat="45.92362" lon="6.49805">
        <ele>1748.5999755859</ele>
        <time>2014-02-12T11:05:51.000Z</time>
      </trkpt>
      <trkpt lat="45.92362" lon="6.49805">
        <ele>1748.1999511719</ele>
        <time>2014-02-12T11:05:52.000Z</time>
      </trkpt>
      <trkpt lat="45.92362" lon="6.49803">
        <ele>1747.5999755859</ele>
        <time>2014-02-12T11:05:53.000Z</time>
      </trkpt>
      <trkpt lat="45.92362" lon="6.49803">
        <ele>1747</ele>
        <time>2014-02-12T11:05:54.000Z</time>
      </trkpt>
      <trkpt lat="45.92363" lon="6.49802">
        <ele>1746.5999755859</ele>
        <time>2014-02-12T11:05:55.000Z</time>
      </trkpt>
      <trkpt lat="45.92363" lon="6.49801">
        <ele>1746.1999511719</ele>
        <time>2014-02-12T11:05:56.000Z</time>
      </trkpt>
      <trkpt lat="45.92363" lon="6.498">
        <ele>1745.4000244141</ele>
        <time>2014-02-12T11:05:57.000Z</time>
      </trkpt>
      <trkpt lat="45.92364" lon="6.498">
        <ele>1745.4000244141</ele>
        <time>2014-02-12T11:05:58.000Z</time>
      </trkpt>
      <trkpt lat="45.92364" lon="6.49798">
        <ele>1744.5999755859</ele>
        <time>2014-02-12T11:05:59.000Z</time>
      </trkpt>
      <trkpt lat="45.92364" lon="6.49797">
        <ele>1744</ele>
        <time>2014-02-12T11:06:00.000Z</time>
      </trkpt>
      <trkpt lat="45.92364" lon="6.49797">
        <ele>1743.8000488281</ele>
        <time>2014-02-12T11:06:01.000Z</time>
      </trkpt>
      <trkpt lat="45.92363" lon="6.49796">
        <ele>1743</ele>
        <time>2014-02-12T11:06:02.000Z</time>
      </trkpt>
      <trkpt lat="45.92363" lon="6.49795">
        <ele>1742.4000244141</ele>
        <time>2014-02-12T11:06:03.000Z</time>
      </trkpt>
      <trkpt lat="45.92364" lon="6.49795">
        <ele>1742.5999755859</ele>
        <time>2014-02-12T11:06:04.000Z</time>
      </trkpt>
      <trkpt lat="45.92364" lon="6.49794">
        <ele>1742</ele>
        <time>2014-02-12T11:06:05.000Z</time>
      </trkpt>
      <trkpt lat="45.92364" lon="6.49794">
        <ele>1741.5999755859</ele>
        <time>2014-02-12T11:06:06.000Z</time>
      </trkpt>
      <trkpt lat="45.92365" lon="6.49793">
        <ele>1741.4000244141</ele>
        <time>2014-02-12T11:06:07.000Z</time>
      </trkpt>
      <trkpt lat="45.92365" lon="6.49792">
        <ele>1740.8000488281</ele>
        <time>2014-02-12T11:06:08.000Z</time>
      </trkpt>
      <trkpt lat="45.92365" lon="6.49792">
        <ele>1740.8000488281</ele>
        <time>2014-02-12T11:06:09.000Z</time>
      </trkpt>
      <trkpt lat="45.92366" lon="6.49793">
        <ele>1741.4000244141</ele>
        <time>2014-02-12T11:06:10.000Z</time>
      </trkpt>
      <trkpt lat="45.92366" lon="6.49793">
        <ele>1741.5999755859</ele>
        <time>2014-02-12T11:06:11.000Z</time>
      </trkpt>
      <trkpt lat="45.92367" lon="6.49794">
        <ele>1741.5999755859</ele>
        <time>2014-02-12T11:06:12.000Z</time>
      </trkpt>
      <trkpt lat="45.92367" lon="6.49795">
        <ele>1742.4000244141</ele>
        <time>2014-02-12T11:06:13.000Z</time>
      </trkpt>
      <trkpt lat="45.92367" lon="6.49796">
        <ele>1743.1999511719</ele>
        <time>2014-02-12T11:06:14.000Z</time>
      </trkpt>
      <trkpt lat="45.92368" lon="6.49796">
        <ele>1743.1999511719</ele>
        <time>2014-02-12T11:06:15.000Z</time>
      </trkpt>
      <trkpt lat="45.92368" lon="6.49796">
        <ele>1743.4000244141</ele>
        <time>2014-02-12T11:06:16.000Z</time>
      </trkpt>
      <trkpt lat="45.92368" lon="6.49797">
        <ele>1743.5999755859</ele>
        <time>2014-02-12T11:06:17.000Z</time>
      </trkpt>
      <trkpt lat="45.92369" lon="6.49797">
        <ele>1744</ele>
        <time>2014-02-12T11:06:18.000Z</time>
      </trkpt>
      <trkpt lat="45.92368" lon="6.49797">
        <ele>1744</ele>
        <time>2014-02-12T11:06:19.000Z</time>
      </trkpt>
      <trkpt lat="45.92368" lon="6.49797">
        <ele>1743.8000488281</ele>
        <time>2014-02-12T11:06:20.000Z</time>
      </trkpt>
      <trkpt lat="45.92368" lon="6.49798">
        <ele>1744</ele>
        <time>2014-02-12T11:06:21.000Z</time>
      </trkpt>
      <trkpt lat="45.92368" lon="6.49797">
        <ele>1744</ele>
        <time>2014-02-12T11:06:22.000Z</time>
      </trkpt>
      <trkpt lat="45.92368" lon="6.49797">
        <ele>1744</ele>
        <time>2014-02-12T11:06:23.000Z</time>
      </trkpt>
      <trkpt lat="45.92369" lon="6.49798">
        <ele>1744.1999511719</ele>
        <time>2014-02-12T11:06:24.000Z</time>
      </trkpt>
      <trkpt lat="45.92369" lon="6.49798">
        <ele>1744</ele>
        <time>2014-02-12T11:06:25.000Z</time>
      </trkpt>
      <trkpt lat="45.9237" lon="6.49798">
        <ele>1744.1999511719</ele>
        <time>2014-02-12T11:06:26.000Z</time>
      </trkpt>
      <trkpt lat="45.9237" lon="6.49798">
        <ele>1744.4000244141</ele>
        <time>2014-02-12T11:06:27.000Z</time>
      </trkpt>
      <trkpt lat="45.9237" lon="6.49798">
        <ele>1744.4000244141</ele>
        <time>2014-02-12T11:06:28.000Z</time>
      </trkpt>
      <trkpt lat="45.92371" lon="6.49799">
        <ele>1744.8000488281</ele>
        <time>2014-02-12T11:06:29.000Z</time>
      </trkpt>
      <trkpt lat="45.92371" lon="6.498">
        <ele>1745.4000244141</ele>
        <time>2014-02-12T11:06:30.000Z</time>
      </trkpt>
      <trkpt lat="45.92371" lon="6.498">
        <ele>1745.5999755859</ele>
        <time>2014-02-12T11:06:31.000Z</time>
      </trkpt>
      <trkpt lat="45.92371" lon="6.49802">
        <ele>1746.4000244141</ele>
        <time>2014-02-12T11:06:32.000Z</time>
      </trkpt>
      <trkpt lat="45.92371" lon="6.49801">
        <ele>1746.1999511719</ele>
        <time>2014-02-12T11:06:33.000Z</time>
      </trkpt>
      <trkpt lat="45.92371" lon="6.49802">
        <ele>1746.4000244141</ele>
        <time>2014-02-12T11:06:34.000Z</time>
      </trkpt>
      <trkpt lat="45.92372" lon="6.49802">
        <ele>1746.5999755859</ele>
        <time>2014-02-12T11:06:35.000Z</time>
      </trkpt>
      <trkpt lat="45.92372" lon="6.49802">
        <ele>1746.8000488281</ele>
        <time>2014-02-12T11:06:36.000Z</time>
      </trkpt>
      <trkpt lat="45.92372" lon="6.49802">
        <ele>1746.8000488281</ele>
        <time>2014-02-12T11:06:37.000Z</time>
      </trkpt>
      <trkpt lat="45.92373" lon="6.49803">
        <ele>1747.1999511719</ele>
        <time>2014-02-12T11:06:38.000Z</time>
      </trkpt>
      <trkpt lat="45.92373" lon="6.49804">
        <ele>1748</ele>
        <time>2014-02-12T11:06:39.000Z</time>
      </trkpt>
      <trkpt lat="45.92374" lon="6.49804">
        <ele>1748</ele>
        <time>2014-02-12T11:06:40.000Z</time>
      </trkpt>
      <trkpt lat="45.92374" lon="6.49806">
        <ele>1748.8000488281</ele>
        <time>2014-02-12T11:06:41.000Z</time>
      </trkpt>
      <trkpt lat="45.92375" lon="6.49807">
        <ele>1749.5999755859</ele>
        <time>2014-02-12T11:06:42.000Z</time>
      </trkpt>
      <trkpt lat="45.92375" lon="6.49808">
        <ele>1749.8000488281</ele>
        <time>2014-02-12T11:06:43.000Z</time>
      </trkpt>
      <trkpt lat="45.92376" lon="6.49808">
        <ele>1750.1999511719</ele>
        <time>2014-02-12T11:06:44.000Z</time>
      </trkpt>
      <trkpt lat="45.92376" lon="6.49808">
        <ele>1750</ele>
        <time>2014-02-12T11:06:45.000Z</time>
      </trkpt>
      <trkpt lat="45.92376" lon="6.49808">
        <ele>1750.1999511719</ele>
        <time>2014-02-12T11:06:46.000Z</time>
      </trkpt>
      <trkpt lat="45.92377" lon="6.49808">
        <ele>1750.1999511719</ele>
        <time>2014-02-12T11:06:47.000Z</time>
      </trkpt>
      <trkpt lat="45.92377" lon="6.49808">
        <ele>1750</ele>
        <time>2014-02-12T11:06:48.000Z</time>
      </trkpt>
      <trkpt lat="45.92377" lon="6.49807">
        <ele>1749.4000244141</ele>
        <time>2014-02-12T11:06:49.000Z</time>
      </trkpt>
      <trkpt lat="45.92378" lon="6.49807">
        <ele>1749.1999511719</ele>
        <time>2014-02-12T11:06:50.000Z</time>
      </trkpt>
      <trkpt lat="45.92378" lon="6.49806">
        <ele>1748.5999755859</ele>
        <time>2014-02-12T11:06:51.000Z</time>
      </trkpt>
      <trkpt lat="45.92378" lon="6.49806">
        <ele>1748.5999755859</ele>
        <time>2014-02-12T11:06:52.000Z</time>
      </trkpt>
      <trkpt lat="45.92378" lon="6.49806">
        <ele>1748.5999755859</ele>
        <time>2014-02-12T11:06:53.000Z</time>
      </trkpt>
      <trkpt lat="45.92378" lon="6.49805">
        <ele>1748.1999511719</ele>
        <time>2014-02-12T11:06:54.000Z</time>
      </trkpt>
      <trkpt lat="45.92379" lon="6.49805">
        <ele>1748.4000244141</ele>
        <time>2014-02-12T11:06:55.000Z</time>
      </trkpt>
      <trkpt lat="45.9238" lon="6.49805">
        <ele>1748.4000244141</ele>
        <time>2014-02-12T11:06:56.000Z</time>
      </trkpt>
      <trkpt lat="45.9238" lon="6.49804">
        <ele>1748.1999511719</ele>
        <time>2014-02-12T11:06:57.000Z</time>
      </trkpt>
      <trkpt lat="45.92381" lon="6.49804">
        <ele>1748.5999755859</ele>
        <time>2014-02-12T11:06:58.000Z</time>
      </trkpt>
      <trkpt lat="45.92382" lon="6.49804">
        <ele>1748.8000488281</ele>
        <time>2014-02-12T11:06:59.000Z</time>
      </trkpt>
      <trkpt lat="45.92382" lon="6.49804">
        <ele>1748.5999755859</ele>
        <time>2014-02-12T11:07:00.000Z</time>
      </trkpt>
      <trkpt lat="45.92383" lon="6.49804">
        <ele>1749</ele>
        <time>2014-02-12T11:07:01.000Z</time>
      </trkpt>
      <trkpt lat="45.92383" lon="6.49803">
        <ele>1748.5999755859</ele>
        <time>2014-02-12T11:07:02.000Z</time>
      </trkpt>
      <trkpt lat="45.92383" lon="6.49803">
        <ele>1748.4000244141</ele>
        <time>2014-02-12T11:07:03.000Z</time>
      </trkpt>
      <trkpt lat="45.92383" lon="6.49802">
        <ele>1748.4000244141</ele>
        <time>2014-02-12T11:07:04.000Z</time>
      </trkpt>
      <trkpt lat="45.92383" lon="6.49802">
        <ele>1748.1999511719</ele>
        <time>2014-02-12T11:07:05.000Z</time>
      </trkpt>
      <trkpt lat="45.92383" lon="6.49801">
        <ele>1748</ele>
        <time>2014-02-12T11:07:06.000Z</time>
      </trkpt>
      <trkpt lat="45.92383" lon="6.49801">
        <ele>1748.1999511719</ele>
        <time>2014-02-12T11:07:07.000Z</time>
      </trkpt>
      <trkpt lat="45.92384" lon="6.498">
        <ele>1748</ele>
        <time>2014-02-12T11:07:08.000Z</time>
      </trkpt>
      <trkpt lat="45.92384" lon="6.498">
        <ele>1747.8000488281</ele>
        <time>2014-02-12T11:07:09.000Z</time>
      </trkpt>
      <trkpt lat="45.92385" lon="6.498">
        <ele>1748</ele>
        <time>2014-02-12T11:07:10.000Z</time>
      </trkpt>
      <trkpt lat="45.92385" lon="6.498">
        <ele>1748.4000244141</ele>
        <time>2014-02-12T11:07:11.000Z</time>
      </trkpt>
      <trkpt lat="45.92384" lon="6.498">
        <ele>1748</ele>
        <time>2014-02-12T11:07:12.000Z</time>
      </trkpt>
      <trkpt lat="45.92384" lon="6.498">
        <ele>1747.8000488281</ele>
        <time>2014-02-12T11:07:13.000Z</time>
      </trkpt>
      <trkpt lat="45.92383" lon="6.49801">
        <ele>1748</ele>
        <time>2014-02-12T11:07:14.000Z</time>
      </trkpt>
      <trkpt lat="45.92383" lon="6.498">
        <ele>1747.8000488281</ele>
        <time>2014-02-12T11:07:15.000Z</time>
      </trkpt>
      <trkpt lat="45.92383" lon="6.49801">
        <ele>1748.1999511719</ele>
        <time>2014-02-12T11:07:16.000Z</time>
      </trkpt>
      <trkpt lat="45.92383" lon="6.49801">
        <ele>1748.1999511719</ele>
        <time>2014-02-12T11:07:17.000Z</time>
      </trkpt>
      <trkpt lat="45.92383" lon="6.49801">
        <ele>1747.8000488281</ele>
        <time>2014-02-12T11:07:18.000Z</time>
      </trkpt>
      <trkpt lat="45.92383" lon="6.49801">
        <ele>1748</ele>
        <time>2014-02-12T11:07:19.000Z</time>
      </trkpt>
      <trkpt lat="45.92383" lon="6.49799">
        <ele>1747.4000244141</ele>
        <time>2014-02-12T11:07:20.000Z</time>
      </trkpt>
      <trkpt lat="45.92383" lon="6.49799">
        <ele>1747.4000244141</ele>
        <time>2014-02-12T11:07:21.000Z</time>
      </trkpt>
      <trkpt lat="45.92383" lon="6.49799">
        <ele>1747.4000244141</ele>
        <time>2014-02-12T11:07:22.000Z</time>
      </trkpt>
      <trkpt lat="45.92383" lon="6.49797">
        <ele>1746.8000488281</ele>
        <time>2014-02-12T11:07:23.000Z</time>
      </trkpt>
      <trkpt lat="45.92382" lon="6.49797">
        <ele>1746.4000244141</ele>
        <time>2014-02-12T11:07:24.000Z</time>
      </trkpt>
      <trkpt lat="45.92382" lon="6.49797">
        <ele>1746.4000244141</ele>
        <time>2014-02-12T11:07:25.000Z</time>
      </trkpt>
      <trkpt lat="45.92382" lon="6.49795">
        <ele>1745.8000488281</ele>
        <time>2014-02-12T11:07:26.000Z</time>
      </trkpt>
      <trkpt lat="45.92382" lon="6.49793">
        <ele>1745.1999511719</ele>
        <time>2014-02-12T11:07:27.000Z</time>
      </trkpt>
      <trkpt lat="45.92382" lon="6.49793">
        <ele>1745.1999511719</ele>
        <time>2014-02-12T11:07:28.000Z</time>
      </trkpt>
      <trkpt lat="45.92382" lon="6.49793">
        <ele>1745.1999511719</ele>
        <time>2014-02-12T11:07:29.000Z</time>
      </trkpt>
      <trkpt lat="45.92382" lon="6.49793">
        <ele>1745.4000244141</ele>
        <time>2014-02-12T11:07:30.000Z</time>
      </trkpt>
      <trkpt lat="45.92383" lon="6.49794">
        <ele>1745.5999755859</ele>
        <time>2014-02-12T11:07:31.000Z</time>
      </trkpt>
      <trkpt lat="45.92383" lon="6.49793">
        <ele>1745.4000244141</ele>
        <time>2014-02-12T11:07:32.000Z</time>
      </trkpt>
      <trkpt lat="45.92382" lon="6.49793">
        <ele>1745.4000244141</ele>
        <time>2014-02-12T11:07:33.000Z</time>
      </trkpt>
      <trkpt lat="45.92382" lon="6.49794">
        <ele>1745.4000244141</ele>
        <time>2014-02-12T11:07:34.000Z</time>
      </trkpt>
      <trkpt lat="45.92382" lon="6.49793">
        <ele>1745.4000244141</ele>
        <time>2014-02-12T11:07:35.000Z</time>
      </trkpt>
      <trkpt lat="45.92382" lon="6.49792">
        <ele>1745</ele>
        <time>2014-02-12T11:07:36.000Z</time>
      </trkpt>
      <trkpt lat="45.92382" lon="6.49793">
        <ele>1745.1999511719</ele>
        <time>2014-02-12T11:07:37.000Z</time>
      </trkpt>
      <trkpt lat="45.92381" lon="6.49793">
        <ele>1745</ele>
        <time>2014-02-12T11:07:38.000Z</time>
      </trkpt>
      <trkpt lat="45.92381" lon="6.49793">
        <ele>1745</ele>
        <time>2014-02-12T11:07:39.000Z</time>
      </trkpt>
      <trkpt lat="45.92381" lon="6.49793">
        <ele>1745</ele>
        <time>2014-02-12T11:07:40.000Z</time>
      </trkpt>
      <trkpt lat="45.92381" lon="6.49793">
        <ele>1745</ele>
        <time>2014-02-12T11:07:41.000Z</time>
      </trkpt>
      <trkpt lat="45.9238" lon="6.49792">
        <ele>1744.5999755859</ele>
        <time>2014-02-12T11:07:42.000Z</time>
      </trkpt>
      <trkpt lat="45.9238" lon="6.49793">
        <ele>1744.5999755859</ele>
        <time>2014-02-12T11:07:43.000Z</time>
      </trkpt>
      <trkpt lat="45.9238" lon="6.49793">
        <ele>1744.5999755859</ele>
        <time>2014-02-12T11:07:44.000Z</time>
      </trkpt>
      <trkpt lat="45.9238" lon="6.49793">
        <ele>1744.5999755859</ele>
        <time>2014-02-12T11:07:45.000Z</time>
      </trkpt>
      <trkpt lat="45.9238" lon="6.49792">
        <ele>1744.4000244141</ele>
        <time>2014-02-12T11:07:46.000Z</time>
      </trkpt>
      <trkpt lat="45.9238" lon="6.49792">
        <ele>1744.4000244141</ele>
        <time>2014-02-12T11:07:47.000Z</time>
      </trkpt>
      <trkpt lat="45.9238" lon="6.49792">
        <ele>1744.4000244141</ele>
        <time>2014-02-12T11:07:48.000Z</time>
      </trkpt>
      <trkpt lat="45.9238" lon="6.49792">
        <ele>1744.4000244141</ele>
        <time>2014-02-12T11:07:49.000Z</time>
      </trkpt>
      <trkpt lat="45.92378" lon="6.49792">
        <ele>1743.8000488281</ele>
        <time>2014-02-12T11:07:50.000Z</time>
      </trkpt>
      <trkpt lat="45.92377" lon="6.49791">
        <ele>1743</ele>
        <time>2014-02-12T11:07:51.000Z</time>
      </trkpt>
      <trkpt lat="45.92375" lon="6.49789">
        <ele>1742.1999511719</ele>
        <time>2014-02-12T11:07:52.000Z</time>
      </trkpt>
      <trkpt lat="45.92373" lon="6.49788">
        <ele>1741.4000244141</ele>
        <time>2014-02-12T11:07:53.000Z</time>
      </trkpt>
      <trkpt lat="45.92371" lon="6.49787">
        <ele>1740.4000244141</ele>
        <time>2014-02-12T11:07:54.000Z</time>
      </trkpt>
      <trkpt lat="45.92369" lon="6.49786">
        <ele>1739.5999755859</ele>
        <time>2014-02-12T11:07:55.000Z</time>
      </trkpt>
      <trkpt lat="45.92368" lon="6.49784">
        <ele>1738.5999755859</ele>
        <time>2014-02-12T11:07:56.000Z</time>
      </trkpt>
      <trkpt lat="45.92367" lon="6.49782">
        <ele>1737.8000488281</ele>
        <time>2014-02-12T11:07:57.000Z</time>
      </trkpt>
      <trkpt lat="45.92365" lon="6.4978">
        <ele>1736.8000488281</ele>
        <time>2014-02-12T11:07:58.000Z</time>
      </trkpt>
      <trkpt lat="45.92364" lon="6.49778">
        <ele>1735.8000488281</ele>
        <time>2014-02-12T11:07:59.000Z</time>
      </trkpt>
      <trkpt lat="45.92363" lon="6.49777">
        <ele>1735.1999511719</ele>
        <time>2014-02-12T11:08:00.000Z</time>
      </trkpt>
      <trkpt lat="45.92362" lon="6.49776">
        <ele>1734.5999755859</ele>
        <time>2014-02-12T11:08:01.000Z</time>
      </trkpt>
      <trkpt lat="45.92361" lon="6.49775">
        <ele>1733.8000488281</ele>
        <time>2014-02-12T11:08:02.000Z</time>
      </trkpt>
      <trkpt lat="45.9236" lon="6.49773">
        <ele>1733</ele>
        <time>2014-02-12T11:08:03.000Z</time>
      </trkpt>
      <trkpt lat="45.92358" lon="6.49771">
        <ele>1732</ele>
        <time>2014-02-12T11:08:04.000Z</time>
      </trkpt>
      <trkpt lat="45.92357" lon="6.4977">
        <ele>1731.4000244141</ele>
        <time>2014-02-12T11:08:05.000Z</time>
      </trkpt>
      <trkpt lat="45.92357" lon="6.49768">
        <ele>1730.8000488281</ele>
        <time>2014-02-12T11:08:06.000Z</time>
      </trkpt>
      <trkpt lat="45.92356" lon="6.49767">
        <ele>1730</ele>
        <time>2014-02-12T11:08:07.000Z</time>
      </trkpt>
      <trkpt lat="45.92355" lon="6.49765">
        <ele>1729.1999511719</ele>
        <time>2014-02-12T11:08:08.000Z</time>
      </trkpt>
      <trkpt lat="45.92353" lon="6.49764">
        <ele>1728.5999755859</ele>
        <time>2014-02-12T11:08:09.000Z</time>
      </trkpt>
      <trkpt lat="45.92352" lon="6.49763">
        <ele>1727.8000488281</ele>
        <time>2014-02-12T11:08:10.000Z</time>
      </trkpt>
      <trkpt lat="45.92351" lon="6.49762">
        <ele>1727.1999511719</ele>
        <time>2014-02-12T11:08:11.000Z</time>
      </trkpt>
      <trkpt lat="45.9235" lon="6.4976">
        <ele>1726.4000244141</ele>
        <time>2014-02-12T11:08:12.000Z</time>
      </trkpt>
      <trkpt lat="45.92348" lon="6.49761">
        <ele>1726</ele>
        <time>2014-02-12T11:08:13.000Z</time>
      </trkpt>
      <trkpt lat="45.92347" lon="6.4976">
        <ele>1725.8000488281</ele>
        <time>2014-02-12T11:08:14.000Z</time>
      </trkpt>
      <trkpt lat="45.92346" lon="6.4976">
        <ele>1725.1999511719</ele>
        <time>2014-02-12T11:08:15.000Z</time>
      </trkpt>
      <trkpt lat="45.92345" lon="6.49759">
        <ele>1724.8000488281</ele>
        <time>2014-02-12T11:08:16.000Z</time>
      </trkpt>
      <trkpt lat="45.92344" lon="6.49758">
        <ele>1724.1999511719</ele>
        <time>2014-02-12T11:08:17.000Z</time>
      </trkpt>
      <trkpt lat="45.92343" lon="6.49757">
        <ele>1723.5999755859</ele>
        <time>2014-02-12T11:08:18.000Z</time>
      </trkpt>
      <trkpt lat="45.92342" lon="6.49756">
        <ele>1723</ele>
        <time>2014-02-12T11:08:19.000Z</time>
      </trkpt>
      <trkpt lat="45.92341" lon="6.49754">
        <ele>1722.4000244141</ele>
        <time>2014-02-12T11:08:20.000Z</time>
      </trkpt>
      <trkpt lat="45.9234" lon="6.49753">
        <ele>1721.4000244141</ele>
        <time>2014-02-12T11:08:21.000Z</time>
      </trkpt>
      <trkpt lat="45.92339" lon="6.49752">
        <ele>1721.1999511719</ele>
        <time>2014-02-12T11:08:22.000Z</time>
      </trkpt>
      <trkpt lat="45.92338" lon="6.49752">
        <ele>1721</ele>
        <time>2014-02-12T11:08:23.000Z</time>
      </trkpt>
      <trkpt lat="45.92337" lon="6.49752">
        <ele>1720.8000488281</ele>
        <time>2014-02-12T11:08:24.000Z</time>
      </trkpt>
      <trkpt lat="45.92337" lon="6.4975">
        <ele>1719.8000488281</ele>
        <time>2014-02-12T11:08:25.000Z</time>
      </trkpt>
      <trkpt lat="45.92336" lon="6.4975">
        <ele>1719.4000244141</ele>
        <time>2014-02-12T11:08:26.000Z</time>
      </trkpt>
      <trkpt lat="45.92335" lon="6.49749">
        <ele>1719</ele>
        <time>2014-02-12T11:08:27.000Z</time>
      </trkpt>
      <trkpt lat="45.92334" lon="6.49748">
        <ele>1718.5999755859</ele>
        <time>2014-02-12T11:08:28.000Z</time>
      </trkpt>
      <trkpt lat="45.92332" lon="6.49747">
        <ele>1717.5999755859</ele>
        <time>2014-02-12T11:08:29.000Z</time>
      </trkpt>
      <trkpt lat="45.92331" lon="6.49745">
        <ele>1716.8000488281</ele>
        <time>2014-02-12T11:08:30.000Z</time>
      </trkpt>
      <trkpt lat="45.92329" lon="6.49745">
        <ele>1716.4000244141</ele>
        <time>2014-02-12T11:08:31.000Z</time>
      </trkpt>
      <trkpt lat="45.92328" lon="6.49746">
        <ele>1716.1999511719</ele>
        <time>2014-02-12T11:08:32.000Z</time>
      </trkpt>
      <trkpt lat="45.92327" lon="6.49746">
        <ele>1716</ele>
        <time>2014-02-12T11:08:33.000Z</time>
      </trkpt>
      <trkpt lat="45.92327" lon="6.49745">
        <ele>1715.8000488281</ele>
        <time>2014-02-12T11:08:34.000Z</time>
      </trkpt>
      <trkpt lat="45.92326" lon="6.49745">
        <ele>1715.5999755859</ele>
        <time>2014-02-12T11:08:35.000Z</time>
      </trkpt>
      <trkpt lat="45.92325" lon="6.49746">
        <ele>1715.5999755859</ele>
        <time>2014-02-12T11:08:36.000Z</time>
      </trkpt>
      <trkpt lat="45.92324" lon="6.49745">
        <ele>1715</ele>
        <time>2014-02-12T11:08:37.000Z</time>
      </trkpt>
      <trkpt lat="45.92309" lon="6.49712">
        <ele>1692.4000244141</ele>
        <time>2014-02-12T11:08:38.000Z</time>
      </trkpt>
      <trkpt lat="45.92297" lon="6.49686">
        <ele>1673.1999511719</ele>
        <time>2014-02-12T11:08:39.000Z</time>
      </trkpt>
      <trkpt lat="45.92288" lon="6.49664">
        <ele>1657.8000488281</ele>
        <time>2014-02-12T11:08:40.000Z</time>
      </trkpt>
      <trkpt lat="45.92285" lon="6.4966">
        <ele>1654.1999511719</ele>
        <time>2014-02-12T11:08:41.000Z</time>
      </trkpt>
      <trkpt lat="45.92279" lon="6.49644">
        <ele>1644</ele>
        <time>2014-02-12T11:08:42.000Z</time>
      </trkpt>
      <trkpt lat="45.92275" lon="6.49631">
        <ele>1637.5999755859</ele>
        <time>2014-02-12T11:08:43.000Z</time>
      </trkpt>
      <trkpt lat="45.92272" lon="6.49621">
        <ele>1632</ele>
        <time>2014-02-12T11:08:44.000Z</time>
      </trkpt>
      <trkpt lat="45.9227" lon="6.49618">
        <ele>1631</ele>
        <time>2014-02-12T11:08:45.000Z</time>
      </trkpt>
      <trkpt lat="45.92268" lon="6.4961">
        <ele>1626.4000244141</ele>
        <time>2014-02-12T11:08:46.000Z</time>
      </trkpt>
      <trkpt lat="45.92265" lon="6.49584">
        <ele>1612.4000244141</ele>
        <time>2014-02-12T11:08:47.000Z</time>
      </trkpt>
      <trkpt lat="45.92264" lon="6.49566">
        <ele>1603</ele>
        <time>2014-02-12T11:08:48.000Z</time>
      </trkpt>
      <trkpt lat="45.92262" lon="6.49554">
        <ele>1597.8000488281</ele>
        <time>2014-02-12T11:08:49.000Z</time>
      </trkpt>
      <trkpt lat="45.9226" lon="6.49539">
        <ele>1591.8000488281</ele>
        <time>2014-02-12T11:08:50.000Z</time>
      </trkpt>
      <trkpt lat="45.92259" lon="6.49529">
        <ele>1587.1999511719</ele>
        <time>2014-02-12T11:08:51.000Z</time>
      </trkpt>
      <trkpt lat="45.92257" lon="6.49522">
        <ele>1584.1999511719</ele>
        <time>2014-02-12T11:08:52.000Z</time>
      </trkpt>
      <trkpt lat="45.92257" lon="6.49518">
        <ele>1582.5999755859</ele>
        <time>2014-02-12T11:08:53.000Z</time>
      </trkpt>
      <trkpt lat="45.92256" lon="6.49515">
        <ele>1581.1999511719</ele>
        <time>2014-02-12T11:08:54.000Z</time>
      </trkpt>
      <trkpt lat="45.92256" lon="6.49512">
        <ele>1580.1999511719</ele>
        <time>2014-02-12T11:08:55.000Z</time>
      </trkpt>
      <trkpt lat="45.92255" lon="6.4951">
        <ele>1579.4000244141</ele>
        <time>2014-02-12T11:08:56.000Z</time>
      </trkpt>
      <trkpt lat="45.92255" lon="6.49509">
        <ele>1578.8000488281</ele>
        <time>2014-02-12T11:08:57.000Z</time>
      </trkpt>
      <trkpt lat="45.92255" lon="6.49507">
        <ele>1578.1999511719</ele>
        <time>2014-02-12T11:08:58.000Z</time>
      </trkpt>
      <trkpt lat="45.92255" lon="6.49503">
        <ele>1576.8000488281</ele>
        <time>2014-02-12T11:08:59.000Z</time>
      </trkpt>
      <trkpt lat="45.92255" lon="6.495">
        <ele>1575.5999755859</ele>
        <time>2014-02-12T11:09:00.000Z</time>
      </trkpt>
      <trkpt lat="45.92255" lon="6.49498">
        <ele>1575.1999511719</ele>
        <time>2014-02-12T11:09:01.000Z</time>
      </trkpt>
      <trkpt lat="45.92255" lon="6.49497">
        <ele>1574.5999755859</ele>
        <time>2014-02-12T11:09:02.000Z</time>
      </trkpt>
      <trkpt lat="45.92256" lon="6.49496">
        <ele>1574.4000244141</ele>
        <time>2014-02-12T11:09:03.000Z</time>
      </trkpt>
      <trkpt lat="45.92256" lon="6.49495">
        <ele>1574</ele>
        <time>2014-02-12T11:09:04.000Z</time>
      </trkpt>
      <trkpt lat="45.92256" lon="6.49495">
        <ele>1574</ele>
        <time>2014-02-12T11:09:05.000Z</time>
      </trkpt>
      <trkpt lat="45.92256" lon="6.49494">
        <ele>1573.5999755859</ele>
        <time>2014-02-12T11:09:06.000Z</time>
      </trkpt>
      <trkpt lat="45.92256" lon="6.49493">
        <ele>1573.4000244141</ele>
        <time>2014-02-12T11:09:07.000Z</time>
      </trkpt>
      <trkpt lat="45.92256" lon="6.49493">
        <ele>1573.4000244141</ele>
        <time>2014-02-12T11:09:08.000Z</time>
      </trkpt>
      <trkpt lat="45.92257" lon="6.49493">
        <ele>1573.4000244141</ele>
        <time>2014-02-12T11:09:09.000Z</time>
      </trkpt>
      <trkpt lat="45.92258" lon="6.49493">
        <ele>1573.4000244141</ele>
        <time>2014-02-12T11:09:10.000Z</time>
      </trkpt>
      <trkpt lat="45.92258" lon="6.49493">
        <ele>1573.5999755859</ele>
        <time>2014-02-12T11:09:11.000Z</time>
      </trkpt>
      <trkpt lat="45.92259" lon="6.49493">
        <ele>1573.8000488281</ele>
        <time>2014-02-12T11:09:12.000Z</time>
      </trkpt>
      <trkpt lat="45.9226" lon="6.49493">
        <ele>1573.8000488281</ele>
        <time>2014-02-12T11:09:13.000Z</time>
      </trkpt>
      <trkpt lat="45.9226" lon="6.49493">
        <ele>1573.8000488281</ele>
        <time>2014-02-12T11:09:14.000Z</time>
      </trkpt>
      <trkpt lat="45.9226" lon="6.49493">
        <ele>1573.8000488281</ele>
        <time>2014-02-12T11:09:15.000Z</time>
      </trkpt>
      <trkpt lat="45.9226" lon="6.49493">
        <ele>1573.8000488281</ele>
        <time>2014-02-12T11:09:16.000Z</time>
      </trkpt>
      <trkpt lat="45.9226" lon="6.49493">
        <ele>1573.8000488281</ele>
        <time>2014-02-12T11:09:17.000Z</time>
      </trkpt>
      <trkpt lat="45.9226" lon="6.49493">
        <ele>1573.8000488281</ele>
        <time>2014-02-12T11:09:18.000Z</time>
      </trkpt>
      <trkpt lat="45.92259" lon="6.49492">
        <ele>1573.1999511719</ele>
        <time>2014-02-12T11:09:19.000Z</time>
      </trkpt>
      <trkpt lat="45.92257" lon="6.49491">
        <ele>1572.8000488281</ele>
        <time>2014-02-12T11:09:20.000Z</time>
      </trkpt>
      <trkpt lat="45.92256" lon="6.49491">
        <ele>1572.5999755859</ele>
        <time>2014-02-12T11:09:21.000Z</time>
      </trkpt>
      <trkpt lat="45.92255" lon="6.4949">
        <ele>1572.1999511719</ele>
        <time>2014-02-12T11:09:22.000Z</time>
      </trkpt>
      <trkpt lat="45.92254" lon="6.49491">
        <ele>1572.1999511719</ele>
        <time>2014-02-12T11:09:23.000Z</time>
      </trkpt>
      <trkpt lat="45.92253" lon="6.4949">
        <ele>1572</ele>
        <time>2014-02-12T11:09:24.000Z</time>
      </trkpt>
      <trkpt lat="45.92252" lon="6.4949">
        <ele>1572</ele>
        <time>2014-02-12T11:09:25.000Z</time>
      </trkpt>
      <trkpt lat="45.92251" lon="6.49491">
        <ele>1572</ele>
        <time>2014-02-12T11:09:26.000Z</time>
      </trkpt>
      <trkpt lat="45.92251" lon="6.49491">
        <ele>1571.8000488281</ele>
        <time>2014-02-12T11:09:27.000Z</time>
      </trkpt>
      <trkpt lat="45.9225" lon="6.49491">
        <ele>1572</ele>
        <time>2014-02-12T11:09:28.000Z</time>
      </trkpt>
      <trkpt lat="45.9225" lon="6.49491">
        <ele>1572</ele>
        <time>2014-02-12T11:09:29.000Z</time>
      </trkpt>
      <trkpt lat="45.9225" lon="6.49492">
        <ele>1572.1999511719</ele>
        <time>2014-02-12T11:09:30.000Z</time>
      </trkpt>
      <trkpt lat="45.92249" lon="6.49493">
        <ele>1572.4000244141</ele>
        <time>2014-02-12T11:09:31.000Z</time>
      </trkpt>
      <trkpt lat="45.92248" lon="6.49493">
        <ele>1572.5999755859</ele>
        <time>2014-02-12T11:09:32.000Z</time>
      </trkpt>
      <trkpt lat="45.92248" lon="6.49494">
        <ele>1572.5999755859</ele>
        <time>2014-02-12T11:09:33.000Z</time>
      </trkpt>
      <trkpt lat="45.92247" lon="6.49495">
        <ele>1572.8000488281</ele>
        <time>2014-02-12T11:09:34.000Z</time>
      </trkpt>
      <trkpt lat="45.92247" lon="6.49495">
        <ele>1573</ele>
        <time>2014-02-12T11:09:35.000Z</time>
      </trkpt>
      <trkpt lat="45.92246" lon="6.49496">
        <ele>1573.1999511719</ele>
        <time>2014-02-12T11:09:36.000Z</time>
      </trkpt>
      <trkpt lat="45.92245" lon="6.49496">
        <ele>1573.1999511719</ele>
        <time>2014-02-12T11:09:37.000Z</time>
      </trkpt>
      <trkpt lat="45.92244" lon="6.49497">
        <ele>1573.4000244141</ele>
        <time>2014-02-12T11:09:38.000Z</time>
      </trkpt>
      <trkpt lat="45.92243" lon="6.49498">
        <ele>1573.5999755859</ele>
        <time>2014-02-12T11:09:40.000Z</time>
      </trkpt>
      <trkpt lat="45.92242" lon="6.49498">
        <ele>1573.4000244141</ele>
        <time>2014-02-12T11:09:41.000Z</time>
      </trkpt>
      <trkpt lat="45.92242" lon="6.49498">
        <ele>1573.5999755859</ele>
        <time>2014-02-12T11:09:42.000Z</time>
      </trkpt>
      <trkpt lat="45.92241" lon="6.49499">
        <ele>1573.5999755859</ele>
        <time>2014-02-12T11:09:43.000Z</time>
      </trkpt>
      <trkpt lat="45.9224" lon="6.49499">
        <ele>1573.8000488281</ele>
        <time>2014-02-12T11:09:44.000Z</time>
      </trkpt>
      <trkpt lat="45.9224" lon="6.49501">
        <ele>1574.4000244141</ele>
        <time>2014-02-12T11:09:45.000Z</time>
      </trkpt>
      <trkpt lat="45.9224" lon="6.49502">
        <ele>1575</ele>
        <time>2014-02-12T11:09:46.000Z</time>
      </trkpt>
      <trkpt lat="45.92239" lon="6.49503">
        <ele>1575</ele>
        <time>2014-02-12T11:09:47.000Z</time>
      </trkpt>
      <trkpt lat="45.92239" lon="6.49503">
        <ele>1575.1999511719</ele>
        <time>2014-02-12T11:09:48.000Z</time>
      </trkpt>
      <trkpt lat="45.92239" lon="6.49503">
        <ele>1575.1999511719</ele>
        <time>2014-02-12T11:09:49.000Z</time>
      </trkpt>
      <trkpt lat="45.92238" lon="6.49503">
        <ele>1575.1999511719</ele>
        <time>2014-02-12T11:09:50.000Z</time>
      </trkpt>
      <trkpt lat="45.92238" lon="6.49504">
        <ele>1575.4000244141</ele>
        <time>2014-02-12T11:09:51.000Z</time>
      </trkpt>
      <trkpt lat="45.92238" lon="6.49504">
        <ele>1575.4000244141</ele>
        <time>2014-02-12T11:09:52.000Z</time>
      </trkpt>
      <trkpt lat="45.92238" lon="6.49505">
        <ele>1575.8000488281</ele>
        <time>2014-02-12T11:09:53.000Z</time>
      </trkpt>
      <trkpt lat="45.92238" lon="6.49506">
        <ele>1576.1999511719</ele>
        <time>2014-02-12T11:09:54.000Z</time>
      </trkpt>
      <trkpt lat="45.92238" lon="6.49507">
        <ele>1576.8000488281</ele>
        <time>2014-02-12T11:09:55.000Z</time>
      </trkpt>
      <trkpt lat="45.92238" lon="6.49508">
        <ele>1577</ele>
        <time>2014-02-12T11:09:56.000Z</time>
      </trkpt>
      <trkpt lat="45.92239" lon="6.49508">
        <ele>1577.4000244141</ele>
        <time>2014-02-12T11:09:57.000Z</time>
      </trkpt>
      <trkpt lat="45.92239" lon="6.49509">
        <ele>1577.5999755859</ele>
        <time>2014-02-12T11:09:58.000Z</time>
      </trkpt>
      <trkpt lat="45.9224" lon="6.49509">
        <ele>1578</ele>
        <time>2014-02-12T11:09:59.000Z</time>
      </trkpt>
      <trkpt lat="45.9224" lon="6.4951">
        <ele>1578</ele>
        <time>2014-02-12T11:10:00.000Z</time>
      </trkpt>
      <trkpt lat="45.92241" lon="6.4951">
        <ele>1578.4000244141</ele>
        <time>2014-02-12T11:10:01.000Z</time>
      </trkpt>
      <trkpt lat="45.92242" lon="6.49511">
        <ele>1578.5999755859</ele>
        <time>2014-02-12T11:10:02.000Z</time>
      </trkpt>
      <trkpt lat="45.92243" lon="6.49511">
        <ele>1578.8000488281</ele>
        <time>2014-02-12T11:10:03.000Z</time>
      </trkpt>
      <trkpt lat="45.92243" lon="6.49511">
        <ele>1579</ele>
        <time>2014-02-12T11:10:04.000Z</time>
      </trkpt>
      <trkpt lat="45.92243" lon="6.49512">
        <ele>1579.1999511719</ele>
        <time>2014-02-12T11:10:05.000Z</time>
      </trkpt>
      <trkpt lat="45.92244" lon="6.49512">
        <ele>1579.4000244141</ele>
        <time>2014-02-12T11:10:06.000Z</time>
      </trkpt>
      <trkpt lat="45.92245" lon="6.49514">
        <ele>1580</ele>
        <time>2014-02-12T11:10:07.000Z</time>
      </trkpt>
      <trkpt lat="45.92246" lon="6.49514">
        <ele>1580.1999511719</ele>
        <time>2014-02-12T11:10:08.000Z</time>
      </trkpt>
      <trkpt lat="45.92246" lon="6.49515">
        <ele>1580.4000244141</ele>
        <time>2014-02-12T11:10:09.000Z</time>
      </trkpt>
      <trkpt lat="45.92247" lon="6.49515">
        <ele>1580.5999755859</ele>
        <time>2014-02-12T11:10:10.000Z</time>
      </trkpt>
      <trkpt lat="45.92248" lon="6.49515">
        <ele>1581</ele>
        <time>2014-02-12T11:10:11.000Z</time>
      </trkpt>
      <trkpt lat="45.92249" lon="6.49516">
        <ele>1581.1999511719</ele>
        <time>2014-02-12T11:10:12.000Z</time>
      </trkpt>
      <trkpt lat="45.92249" lon="6.49517">
        <ele>1581.5999755859</ele>
        <time>2014-02-12T11:10:13.000Z</time>
      </trkpt>
      <trkpt lat="45.9225" lon="6.49517">
        <ele>1581.8000488281</ele>
        <time>2014-02-12T11:10:14.000Z</time>
      </trkpt>
      <trkpt lat="45.92251" lon="6.49518">
        <ele>1582.1999511719</ele>
        <time>2014-02-12T11:10:15.000Z</time>
      </trkpt>
      <trkpt lat="45.92252" lon="6.49518">
        <ele>1582.4000244141</ele>
        <time>2014-02-12T11:10:16.000Z</time>
      </trkpt>
      <trkpt lat="45.92253" lon="6.49519">
        <ele>1582.5999755859</ele>
        <time>2014-02-12T11:10:17.000Z</time>
      </trkpt>
      <trkpt lat="45.92253" lon="6.49519">
        <ele>1582.8000488281</ele>
        <time>2014-02-12T11:10:18.000Z</time>
      </trkpt>
      <trkpt lat="45.92254" lon="6.49519">
        <ele>1583</ele>
        <time>2014-02-12T11:10:19.000Z</time>
      </trkpt>
      <trkpt lat="45.92255" lon="6.4952">
        <ele>1583.4000244141</ele>
        <time>2014-02-12T11:10:20.000Z</time>
      </trkpt>
      <trkpt lat="45.92256" lon="6.49521">
        <ele>1583.5999755859</ele>
        <time>2014-02-12T11:10:21.000Z</time>
      </trkpt>
      <trkpt lat="45.92257" lon="6.49521">
        <ele>1584</ele>
        <time>2014-02-12T11:10:22.000Z</time>
      </trkpt>
      <trkpt lat="45.92258" lon="6.49522">
        <ele>1584.4000244141</ele>
        <time>2014-02-12T11:10:23.000Z</time>
      </trkpt>
      <trkpt lat="45.92259" lon="6.49522">
        <ele>1584.1999511719</ele>
        <time>2014-02-12T11:10:24.000Z</time>
      </trkpt>
      <trkpt lat="45.92259" lon="6.49522">
        <ele>1584.4000244141</ele>
        <time>2014-02-12T11:10:25.000Z</time>
      </trkpt>
      <trkpt lat="45.9226" lon="6.49523">
        <ele>1584.8000488281</ele>
        <time>2014-02-12T11:10:26.000Z</time>
      </trkpt>
      <trkpt lat="45.92261" lon="6.49523">
        <ele>1585</ele>
        <time>2014-02-12T11:10:27.000Z</time>
      </trkpt>
      <trkpt lat="45.92262" lon="6.49524">
        <ele>1585.5999755859</ele>
        <time>2014-02-12T11:10:28.000Z</time>
      </trkpt>
      <trkpt lat="45.92262" lon="6.49525">
        <ele>1585.5999755859</ele>
        <time>2014-02-12T11:10:29.000Z</time>
      </trkpt>
      <trkpt lat="45.92264" lon="6.49526">
        <ele>1586.1999511719</ele>
        <time>2014-02-12T11:10:30.000Z</time>
      </trkpt>
      <trkpt lat="45.92264" lon="6.49526">
        <ele>1586.1999511719</ele>
        <time>2014-02-12T11:10:31.000Z</time>
      </trkpt>
      <trkpt lat="45.92265" lon="6.49526">
        <ele>1586.4000244141</ele>
        <time>2014-02-12T11:10:32.000Z</time>
      </trkpt>
      <trkpt lat="45.92267" lon="6.49527">
        <ele>1586.8000488281</ele>
        <time>2014-02-12T11:10:33.000Z</time>
      </trkpt>
      <trkpt lat="45.92268" lon="6.49527">
        <ele>1587</ele>
        <time>2014-02-12T11:10:34.000Z</time>
      </trkpt>
      <trkpt lat="45.92269" lon="6.49528">
        <ele>1587.4000244141</ele>
        <time>2014-02-12T11:10:35.000Z</time>
      </trkpt>
      <trkpt lat="45.9227" lon="6.49528">
        <ele>1587.4000244141</ele>
        <time>2014-02-12T11:10:36.000Z</time>
      </trkpt>
      <trkpt lat="45.9227" lon="6.49527">
        <ele>1587.4000244141</ele>
        <time>2014-02-12T11:10:37.000Z</time>
      </trkpt>
      <trkpt lat="45.92271" lon="6.49527">
        <ele>1587.4000244141</ele>
        <time>2014-02-12T11:10:38.000Z</time>
      </trkpt>
      <trkpt lat="45.92272" lon="6.49527">
        <ele>1587.5999755859</ele>
        <time>2014-02-12T11:10:39.000Z</time>
      </trkpt>
      <trkpt lat="45.92272" lon="6.49527">
        <ele>1587.5999755859</ele>
        <time>2014-02-12T11:10:40.000Z</time>
      </trkpt>
      <trkpt lat="45.92273" lon="6.49528">
        <ele>1588</ele>
        <time>2014-02-12T11:10:41.000Z</time>
      </trkpt>
      <trkpt lat="45.92273" lon="6.49529">
        <ele>1588.1999511719</ele>
        <time>2014-02-12T11:10:42.000Z</time>
      </trkpt>
      <trkpt lat="45.92274" lon="6.49529">
        <ele>1588.4000244141</ele>
        <time>2014-02-12T11:10:43.000Z</time>
      </trkpt>
      <trkpt lat="45.92275" lon="6.49529">
        <ele>1588.8000488281</ele>
        <time>2014-02-12T11:10:44.000Z</time>
      </trkpt>
      <trkpt lat="45.92275" lon="6.4953">
        <ele>1589</ele>
        <time>2014-02-12T11:10:45.000Z</time>
      </trkpt>
      <trkpt lat="45.92276" lon="6.4953">
        <ele>1589.1999511719</ele>
        <time>2014-02-12T11:10:46.000Z</time>
      </trkpt>
      <trkpt lat="45.92276" lon="6.49531">
        <ele>1589.4000244141</ele>
        <time>2014-02-12T11:10:47.000Z</time>
      </trkpt>
      <trkpt lat="45.92277" lon="6.49532">
        <ele>1589.5999755859</ele>
        <time>2014-02-12T11:10:48.000Z</time>
      </trkpt>
      <trkpt lat="45.92277" lon="6.49532">
        <ele>1590</ele>
        <time>2014-02-12T11:10:49.000Z</time>
      </trkpt>
      <trkpt lat="45.92277" lon="6.49533">
        <ele>1590.1999511719</ele>
        <time>2014-02-12T11:10:50.000Z</time>
      </trkpt>
      <trkpt lat="45.92277" lon="6.49533">
        <ele>1590.4000244141</ele>
        <time>2014-02-12T11:10:51.000Z</time>
      </trkpt>
      <trkpt lat="45.92278" lon="6.49534">
        <ele>1590.5999755859</ele>
        <time>2014-02-12T11:10:52.000Z</time>
      </trkpt>
      <trkpt lat="45.92278" lon="6.49535">
        <ele>1591</ele>
        <time>2014-02-12T11:10:53.000Z</time>
      </trkpt>
      <trkpt lat="45.92279" lon="6.49535">
        <ele>1591.1999511719</ele>
        <time>2014-02-12T11:10:54.000Z</time>
      </trkpt>
      <trkpt lat="45.9228" lon="6.49537">
        <ele>1592</ele>
        <time>2014-02-12T11:10:55.000Z</time>
      </trkpt>
      <trkpt lat="45.9228" lon="6.49537">
        <ele>1592</ele>
        <time>2014-02-12T11:10:56.000Z</time>
      </trkpt>
      <trkpt lat="45.92281" lon="6.49538">
        <ele>1592.5999755859</ele>
        <time>2014-02-12T11:10:57.000Z</time>
      </trkpt>
      <trkpt lat="45.92282" lon="6.49539">
        <ele>1592.8000488281</ele>
        <time>2014-02-12T11:10:58.000Z</time>
      </trkpt>
      <trkpt lat="45.92283" lon="6.49539">
        <ele>1593.1999511719</ele>
        <time>2014-02-12T11:10:59.000Z</time>
      </trkpt>
      <trkpt lat="45.92284" lon="6.49539">
        <ele>1593.4000244141</ele>
        <time>2014-02-12T11:11:00.000Z</time>
      </trkpt>
      <trkpt lat="45.92284" lon="6.4954">
        <ele>1593.5999755859</ele>
        <time>2014-02-12T11:11:01.000Z</time>
      </trkpt>
      <trkpt lat="45.92285" lon="6.4954">
        <ele>1593.8000488281</ele>
        <time>2014-02-12T11:11:02.000Z</time>
      </trkpt>
      <trkpt lat="45.92286" lon="6.49541">
        <ele>1594.1999511719</ele>
        <time>2014-02-12T11:11:03.000Z</time>
      </trkpt>
      <trkpt lat="45.92287" lon="6.49541">
        <ele>1594.4000244141</ele>
        <time>2014-02-12T11:11:04.000Z</time>
      </trkpt>
      <trkpt lat="45.92287" lon="6.49542">
        <ele>1594.8000488281</ele>
        <time>2014-02-12T11:11:05.000Z</time>
      </trkpt>
      <trkpt lat="45.92288" lon="6.49543">
        <ele>1595.1999511719</ele>
        <time>2014-02-12T11:11:06.000Z</time>
      </trkpt>
      <trkpt lat="45.92289" lon="6.49543">
        <ele>1595.4000244141</ele>
        <time>2014-02-12T11:11:07.000Z</time>
      </trkpt>
      <trkpt lat="45.92289" lon="6.49544">
        <ele>1595.5999755859</ele>
        <time>2014-02-12T11:11:08.000Z</time>
      </trkpt>
      <trkpt lat="45.9229" lon="6.49545">
        <ele>1596</ele>
        <time>2014-02-12T11:11:09.000Z</time>
      </trkpt>
      <trkpt lat="45.92291" lon="6.49545">
        <ele>1596.4000244141</ele>
        <time>2014-02-12T11:11:10.000Z</time>
      </trkpt>
      <trkpt lat="45.92292" lon="6.49547">
        <ele>1597</ele>
        <time>2014-02-12T11:11:11.000Z</time>
      </trkpt>
      <trkpt lat="45.92292" lon="6.49547">
        <ele>1597.1999511719</ele>
        <time>2014-02-12T11:11:12.000Z</time>
      </trkpt>
      <trkpt lat="45.92292" lon="6.49548">
        <ele>1597.5999755859</ele>
        <time>2014-02-12T11:11:13.000Z</time>
      </trkpt>
      <trkpt lat="45.92292" lon="6.49549">
        <ele>1597.8000488281</ele>
        <time>2014-02-12T11:11:14.000Z</time>
      </trkpt>
      <trkpt lat="45.92292" lon="6.49549">
        <ele>1598</ele>
        <time>2014-02-12T11:11:15.000Z</time>
      </trkpt>
      <trkpt lat="45.92292" lon="6.49549">
        <ele>1598</ele>
        <time>2014-02-12T11:11:16.000Z</time>
      </trkpt>
      <trkpt lat="45.92292" lon="6.49549">
        <ele>1598</ele>
        <time>2014-02-12T11:11:17.000Z</time>
      </trkpt>
      <trkpt lat="45.92291" lon="6.4955">
        <ele>1598</ele>
        <time>2014-02-12T11:11:18.000Z</time>
      </trkpt>
      <trkpt lat="45.9229" lon="6.4955">
        <ele>1598</ele>
        <time>2014-02-12T11:11:19.000Z</time>
      </trkpt>
      <trkpt lat="45.9229" lon="6.49551">
        <ele>1598.1999511719</ele>
        <time>2014-02-12T11:11:20.000Z</time>
      </trkpt>
      <trkpt lat="45.92289" lon="6.49552">
        <ele>1598.5999755859</ele>
        <time>2014-02-12T11:11:21.000Z</time>
      </trkpt>
      <trkpt lat="45.92289" lon="6.49552">
        <ele>1598.8000488281</ele>
        <time>2014-02-12T11:11:22.000Z</time>
      </trkpt>
      <trkpt lat="45.92288" lon="6.49553">
        <ele>1599</ele>
        <time>2014-02-12T11:11:23.000Z</time>
      </trkpt>
      <trkpt lat="45.92287" lon="6.49553">
        <ele>1599.1999511719</ele>
        <time>2014-02-12T11:11:24.000Z</time>
      </trkpt>
      <trkpt lat="45.92286" lon="6.49553">
        <ele>1599.1999511719</ele>
        <time>2014-02-12T11:11:25.000Z</time>
      </trkpt>
      <trkpt lat="45.92285" lon="6.49554">
        <ele>1599.1999511719</ele>
        <time>2014-02-12T11:11:26.000Z</time>
      </trkpt>
      <trkpt lat="45.92284" lon="6.49555">
        <ele>1599.5999755859</ele>
        <time>2014-02-12T11:11:27.000Z</time>
      </trkpt>
      <trkpt lat="45.92283" lon="6.49555">
        <ele>1599.5999755859</ele>
        <time>2014-02-12T11:11:28.000Z</time>
      </trkpt>
      <trkpt lat="45.92282" lon="6.49555">
        <ele>1599.4000244141</ele>
        <time>2014-02-12T11:11:29.000Z</time>
      </trkpt>
      <trkpt lat="45.92282" lon="6.49555">
        <ele>1599.5999755859</ele>
        <time>2014-02-12T11:11:30.000Z</time>
      </trkpt>
      <trkpt lat="45.92281" lon="6.49555">
        <ele>1599.5999755859</ele>
        <time>2014-02-12T11:11:31.000Z</time>
      </trkpt>
      <trkpt lat="45.9228" lon="6.49556">
        <ele>1599.8000488281</ele>
        <time>2014-02-12T11:11:32.000Z</time>
      </trkpt>
      <trkpt lat="45.9228" lon="6.49556">
        <ele>1600</ele>
        <time>2014-02-12T11:11:33.000Z</time>
      </trkpt>
      <trkpt lat="45.92279" lon="6.49557">
        <ele>1600.4000244141</ele>
        <time>2014-02-12T11:11:34.000Z</time>
      </trkpt>
      <trkpt lat="45.92278" lon="6.49558">
        <ele>1600.5999755859</ele>
        <time>2014-02-12T11:11:35.000Z</time>
      </trkpt>
      <trkpt lat="45.92277" lon="6.49559">
        <ele>1601.1999511719</ele>
        <time>2014-02-12T11:11:36.000Z</time>
      </trkpt>
      <trkpt lat="45.92277" lon="6.4956">
        <ele>1601.1999511719</ele>
        <time>2014-02-12T11:11:37.000Z</time>
      </trkpt>
      <trkpt lat="45.92275" lon="6.49561">
        <ele>1601.5999755859</ele>
        <time>2014-02-12T11:11:38.000Z</time>
      </trkpt>
      <trkpt lat="45.92275" lon="6.49561">
        <ele>1601.5999755859</ele>
        <time>2014-02-12T11:11:39.000Z</time>
      </trkpt>
      <trkpt lat="45.92274" lon="6.49561">
        <ele>1601.8000488281</ele>
        <time>2014-02-12T11:11:40.000Z</time>
      </trkpt>
      <trkpt lat="45.92273" lon="6.49562">
        <ele>1602</ele>
        <time>2014-02-12T11:11:41.000Z</time>
      </trkpt>
      <trkpt lat="45.92272" lon="6.49563">
        <ele>1602.4000244141</ele>
        <time>2014-02-12T11:11:42.000Z</time>
      </trkpt>
      <trkpt lat="45.92271" lon="6.49563">
        <ele>1602.5999755859</ele>
        <time>2014-02-12T11:11:43.000Z</time>
      </trkpt>
      <trkpt lat="45.9227" lon="6.49564">
        <ele>1602.8000488281</ele>
        <time>2014-02-12T11:11:44.000Z</time>
      </trkpt>
      <trkpt lat="45.9227" lon="6.49565">
        <ele>1603</ele>
        <time>2014-02-12T11:11:45.000Z</time>
      </trkpt>
      <trkpt lat="45.9227" lon="6.49565">
        <ele>1603.1999511719</ele>
        <time>2014-02-12T11:11:46.000Z</time>
      </trkpt>
      <trkpt lat="45.92269" lon="6.49566">
        <ele>1603.5999755859</ele>
        <time>2014-02-12T11:11:47.000Z</time>
      </trkpt>
      <trkpt lat="45.92269" lon="6.49566">
        <ele>1603.5999755859</ele>
        <time>2014-02-12T11:11:48.000Z</time>
      </trkpt>
      <trkpt lat="45.92268" lon="6.49567">
        <ele>1603.8000488281</ele>
        <time>2014-02-12T11:11:49.000Z</time>
      </trkpt>
      <trkpt lat="45.92267" lon="6.49568">
        <ele>1604</ele>
        <time>2014-02-12T11:11:50.000Z</time>
      </trkpt>
      <trkpt lat="45.92266" lon="6.49568">
        <ele>1604</ele>
        <time>2014-02-12T11:11:51.000Z</time>
      </trkpt>
      <trkpt lat="45.92265" lon="6.49568">
        <ele>1604.4000244141</ele>
        <time>2014-02-12T11:11:52.000Z</time>
      </trkpt>
      <trkpt lat="45.92265" lon="6.49569">
        <ele>1604.5999755859</ele>
        <time>2014-02-12T11:11:53.000Z</time>
      </trkpt>
      <trkpt lat="45.92264" lon="6.49569">
        <ele>1604.8000488281</ele>
        <time>2014-02-12T11:11:54.000Z</time>
      </trkpt>
      <trkpt lat="45.92263" lon="6.4957">
        <ele>1605</ele>
        <time>2014-02-12T11:11:55.000Z</time>
      </trkpt>
      <trkpt lat="45.92262" lon="6.49571">
        <ele>1605.4000244141</ele>
        <time>2014-02-12T11:11:56.000Z</time>
      </trkpt>
      <trkpt lat="45.92261" lon="6.49571">
        <ele>1605.4000244141</ele>
        <time>2014-02-12T11:11:57.000Z</time>
      </trkpt>
      <trkpt lat="45.92261" lon="6.49572">
        <ele>1605.8000488281</ele>
        <time>2014-02-12T11:11:58.000Z</time>
      </trkpt>
      <trkpt lat="45.9226" lon="6.49572">
        <ele>1606</ele>
        <time>2014-02-12T11:11:59.000Z</time>
      </trkpt>
      <trkpt lat="45.9226" lon="6.49573">
        <ele>1606.1999511719</ele>
        <time>2014-02-12T11:12:00.000Z</time>
      </trkpt>
      <trkpt lat="45.92259" lon="6.49573">
        <ele>1606.5999755859</ele>
        <time>2014-02-12T11:12:01.000Z</time>
      </trkpt>
      <trkpt lat="45.92258" lon="6.49574">
        <ele>1606.8000488281</ele>
        <time>2014-02-12T11:12:02.000Z</time>
      </trkpt>
      <trkpt lat="45.92257" lon="6.49574">
        <ele>1607</ele>
        <time>2014-02-12T11:12:03.000Z</time>
      </trkpt>
      <trkpt lat="45.92256" lon="6.49575">
        <ele>1607.1999511719</ele>
        <time>2014-02-12T11:12:04.000Z</time>
      </trkpt>
      <trkpt lat="45.92256" lon="6.49576">
        <ele>1607.5999755859</ele>
        <time>2014-02-12T11:12:05.000Z</time>
      </trkpt>
      <trkpt lat="45.92255" lon="6.49577">
        <ele>1608</ele>
        <time>2014-02-12T11:12:06.000Z</time>
      </trkpt>
      <trkpt lat="45.92255" lon="6.49577">
        <ele>1608.4000244141</ele>
        <time>2014-02-12T11:12:07.000Z</time>
      </trkpt>
      <trkpt lat="45.92254" lon="6.49578">
        <ele>1608.8000488281</ele>
        <time>2014-02-12T11:12:08.000Z</time>
      </trkpt>
      <trkpt lat="45.92253" lon="6.49578">
        <ele>1609</ele>
        <time>2014-02-12T11:12:09.000Z</time>
      </trkpt>
      <trkpt lat="45.92252" lon="6.49579">
        <ele>1609</ele>
        <time>2014-02-12T11:12:10.000Z</time>
      </trkpt>
      <trkpt lat="45.92251" lon="6.4958">
        <ele>1609.5999755859</ele>
        <time>2014-02-12T11:12:11.000Z</time>
      </trkpt>
      <trkpt lat="45.9225" lon="6.4958">
        <ele>1609.4000244141</ele>
        <time>2014-02-12T11:12:12.000Z</time>
      </trkpt>
      <trkpt lat="45.92249" lon="6.49581">
        <ele>1609.8000488281</ele>
        <time>2014-02-12T11:12:13.000Z</time>
      </trkpt>
      <trkpt lat="45.92248" lon="6.49582">
        <ele>1610.4000244141</ele>
        <time>2014-02-12T11:12:14.000Z</time>
      </trkpt>
      <trkpt lat="45.92248" lon="6.49582">
        <ele>1610.8000488281</ele>
        <time>2014-02-12T11:12:15.000Z</time>
      </trkpt>
      <trkpt lat="45.92247" lon="6.49583">
        <ele>1611.1999511719</ele>
        <time>2014-02-12T11:12:16.000Z</time>
      </trkpt>
      <trkpt lat="45.92247" lon="6.49584">
        <ele>1611.5999755859</ele>
        <time>2014-02-12T11:12:17.000Z</time>
      </trkpt>
      <trkpt lat="45.92247" lon="6.49584">
        <ele>1611.8000488281</ele>
        <time>2014-02-12T11:12:18.000Z</time>
      </trkpt>
      <trkpt lat="45.92247" lon="6.49584">
        <ele>1611.8000488281</ele>
        <time>2014-02-12T11:12:19.000Z</time>
      </trkpt>
      <trkpt lat="45.92247" lon="6.49584">
        <ele>1611.8000488281</ele>
        <time>2014-02-12T11:12:20.000Z</time>
      </trkpt>
      <trkpt lat="45.92247" lon="6.49585">
        <ele>1612</ele>
        <time>2014-02-12T11:12:21.000Z</time>
      </trkpt>
      <trkpt lat="45.92247" lon="6.49585">
        <ele>1612</ele>
        <time>2014-02-12T11:12:22.000Z</time>
      </trkpt>
      <trkpt lat="45.92248" lon="6.49585">
        <ele>1612.4000244141</ele>
        <time>2014-02-12T11:12:23.000Z</time>
      </trkpt>
      <trkpt lat="45.92248" lon="6.49585">
        <ele>1612.4000244141</ele>
        <time>2014-02-12T11:12:24.000Z</time>
      </trkpt>
      <trkpt lat="45.92249" lon="6.49586">
        <ele>1612.8000488281</ele>
        <time>2014-02-12T11:12:25.000Z</time>
      </trkpt>
      <trkpt lat="45.92249" lon="6.49587">
        <ele>1613</ele>
        <time>2014-02-12T11:12:26.000Z</time>
      </trkpt>
      <trkpt lat="45.92249" lon="6.49587">
        <ele>1613</ele>
        <time>2014-02-12T11:12:27.000Z</time>
      </trkpt>
      <trkpt lat="45.92251" lon="6.49588">
        <ele>1613.8000488281</ele>
        <time>2014-02-12T11:12:28.000Z</time>
      </trkpt>
      <trkpt lat="45.92251" lon="6.49588">
        <ele>1614</ele>
        <time>2014-02-12T11:12:29.000Z</time>
      </trkpt>
      <trkpt lat="45.92252" lon="6.49589">
        <ele>1614.4000244141</ele>
        <time>2014-02-12T11:12:30.000Z</time>
      </trkpt>
      <trkpt lat="45.92253" lon="6.49589">
        <ele>1614.5999755859</ele>
        <time>2014-02-12T11:12:31.000Z</time>
      </trkpt>
      <trkpt lat="45.92254" lon="6.4959">
        <ele>1615</ele>
        <time>2014-02-12T11:12:32.000Z</time>
      </trkpt>
      <trkpt lat="45.92255" lon="6.4959">
        <ele>1615.1999511719</ele>
        <time>2014-02-12T11:12:33.000Z</time>
      </trkpt>
      <trkpt lat="45.92255" lon="6.49591">
        <ele>1615.8000488281</ele>
        <time>2014-02-12T11:12:34.000Z</time>
      </trkpt>
      <trkpt lat="45.92256" lon="6.49592">
        <ele>1616.1999511719</ele>
        <time>2014-02-12T11:12:35.000Z</time>
      </trkpt>
      <trkpt lat="45.92256" lon="6.49592">
        <ele>1616.1999511719</ele>
        <time>2014-02-12T11:12:36.000Z</time>
      </trkpt>
      <trkpt lat="45.92256" lon="6.49593">
        <ele>1616.5999755859</ele>
        <time>2014-02-12T11:12:37.000Z</time>
      </trkpt>
      <trkpt lat="45.92257" lon="6.49593">
        <ele>1616.8000488281</ele>
        <time>2014-02-12T11:12:38.000Z</time>
      </trkpt>
      <trkpt lat="45.92257" lon="6.49594">
        <ele>1617.4000244141</ele>
        <time>2014-02-12T11:12:39.000Z</time>
      </trkpt>
      <trkpt lat="45.92258" lon="6.49596">
        <ele>1618.4000244141</ele>
        <time>2014-02-12T11:12:40.000Z</time>
      </trkpt>
      <trkpt lat="45.92258" lon="6.49596">
        <ele>1618.5999755859</ele>
        <time>2014-02-12T11:12:41.000Z</time>
      </trkpt>
      <trkpt lat="45.92259" lon="6.49597">
        <ele>1619.4000244141</ele>
        <time>2014-02-12T11:12:42.000Z</time>
      </trkpt>
      <trkpt lat="45.9226" lon="6.49598">
        <ele>1619.5999755859</ele>
        <time>2014-02-12T11:12:43.000Z</time>
      </trkpt>
      <trkpt lat="45.9226" lon="6.49598">
        <ele>1620</ele>
        <time>2014-02-12T11:12:44.000Z</time>
      </trkpt>
      <trkpt lat="45.9226" lon="6.49599">
        <ele>1620.1999511719</ele>
        <time>2014-02-12T11:12:45.000Z</time>
      </trkpt>
      <trkpt lat="45.92261" lon="6.496">
        <ele>1620.5999755859</ele>
        <time>2014-02-12T11:12:46.000Z</time>
      </trkpt>
      <trkpt lat="45.92261" lon="6.496">
        <ele>1621</ele>
        <time>2014-02-12T11:12:47.000Z</time>
      </trkpt>
      <trkpt lat="45.92261" lon="6.49601">
        <ele>1621.1999511719</ele>
        <time>2014-02-12T11:12:48.000Z</time>
      </trkpt>
      <trkpt lat="45.92261" lon="6.49601">
        <ele>1621.1999511719</ele>
        <time>2014-02-12T11:12:49.000Z</time>
      </trkpt>
      <trkpt lat="45.9226" lon="6.49601">
        <ele>1621.4000244141</ele>
        <time>2014-02-12T11:12:50.000Z</time>
      </trkpt>
      <trkpt lat="45.9226" lon="6.49602">
        <ele>1621.5999755859</ele>
        <time>2014-02-12T11:12:51.000Z</time>
      </trkpt>
      <trkpt lat="45.92259" lon="6.49602">
        <ele>1621.8000488281</ele>
        <time>2014-02-12T11:12:52.000Z</time>
      </trkpt>
      <trkpt lat="45.92259" lon="6.49603">
        <ele>1622</ele>
        <time>2014-02-12T11:12:53.000Z</time>
      </trkpt>
      <trkpt lat="45.92258" lon="6.49603">
        <ele>1622.1999511719</ele>
        <time>2014-02-12T11:12:54.000Z</time>
      </trkpt>
      <trkpt lat="45.92257" lon="6.49604">
        <ele>1622.4000244141</ele>
        <time>2014-02-12T11:12:55.000Z</time>
      </trkpt>
      <trkpt lat="45.92257" lon="6.49604">
        <ele>1622.5999755859</ele>
        <time>2014-02-12T11:12:56.000Z</time>
      </trkpt>
      <trkpt lat="45.92256" lon="6.49604">
        <ele>1622.5999755859</ele>
        <time>2014-02-12T11:12:57.000Z</time>
      </trkpt>
      <trkpt lat="45.92256" lon="6.49605">
        <ele>1622.8000488281</ele>
        <time>2014-02-12T11:12:58.000Z</time>
      </trkpt>
      <trkpt lat="45.92256" lon="6.49605">
        <ele>1622.8000488281</ele>
        <time>2014-02-12T11:12:59.000Z</time>
      </trkpt>
      <trkpt lat="45.92255" lon="6.49605">
        <ele>1623</ele>
        <time>2014-02-12T11:13:00.000Z</time>
      </trkpt>
      <trkpt lat="45.92255" lon="6.49606">
        <ele>1623</ele>
        <time>2014-02-12T11:13:01.000Z</time>
      </trkpt>
      <trkpt lat="45.92254" lon="6.49606">
        <ele>1623</ele>
        <time>2014-02-12T11:13:02.000Z</time>
      </trkpt>
      <trkpt lat="45.92254" lon="6.49606">
        <ele>1623.1999511719</ele>
        <time>2014-02-12T11:13:03.000Z</time>
      </trkpt>
      <trkpt lat="45.92253" lon="6.49607">
        <ele>1623.4000244141</ele>
        <time>2014-02-12T11:13:04.000Z</time>
      </trkpt>
      <trkpt lat="45.92253" lon="6.49607">
        <ele>1623.5999755859</ele>
        <time>2014-02-12T11:13:05.000Z</time>
      </trkpt>
      <trkpt lat="45.92252" lon="6.49607">
        <ele>1623.5999755859</ele>
        <time>2014-02-12T11:13:06.000Z</time>
      </trkpt>
      <trkpt lat="45.92251" lon="6.49608">
        <ele>1623.8000488281</ele>
        <time>2014-02-12T11:13:07.000Z</time>
      </trkpt>
      <trkpt lat="45.92251" lon="6.49608">
        <ele>1623.8000488281</ele>
        <time>2014-02-12T11:13:08.000Z</time>
      </trkpt>
      <trkpt lat="45.9225" lon="6.49609">
        <ele>1624</ele>
        <time>2014-02-12T11:13:09.000Z</time>
      </trkpt>
      <trkpt lat="45.92249" lon="6.49609">
        <ele>1624.1999511719</ele>
        <time>2014-02-12T11:13:10.000Z</time>
      </trkpt>
      <trkpt lat="45.92249" lon="6.4961">
        <ele>1624.4000244141</ele>
        <time>2014-02-12T11:13:11.000Z</time>
      </trkpt>
      <trkpt lat="45.92248" lon="6.4961">
        <ele>1624.4000244141</ele>
        <time>2014-02-12T11:13:12.000Z</time>
      </trkpt>
      <trkpt lat="45.92247" lon="6.4961">
        <ele>1624.5999755859</ele>
        <time>2014-02-12T11:13:13.000Z</time>
      </trkpt>
      <trkpt lat="45.92246" lon="6.49611">
        <ele>1624.8000488281</ele>
        <time>2014-02-12T11:13:14.000Z</time>
      </trkpt>
      <trkpt lat="45.92246" lon="6.49612">
        <ele>1624.8000488281</ele>
        <time>2014-02-12T11:13:15.000Z</time>
      </trkpt>
      <trkpt lat="45.92245" lon="6.49612">
        <ele>1625</ele>
        <time>2014-02-12T11:13:16.000Z</time>
      </trkpt>
      <trkpt lat="45.92245" lon="6.49613">
        <ele>1625.1999511719</ele>
        <time>2014-02-12T11:13:17.000Z</time>
      </trkpt>
      <trkpt lat="45.92244" lon="6.49613">
        <ele>1625.4000244141</ele>
        <time>2014-02-12T11:13:18.000Z</time>
      </trkpt>
      <trkpt lat="45.92244" lon="6.49613">
        <ele>1625.4000244141</ele>
        <time>2014-02-12T11:13:19.000Z</time>
      </trkpt>
      <trkpt lat="45.92244" lon="6.49613">
        <ele>1625.4000244141</ele>
        <time>2014-02-12T11:13:20.000Z</time>
      </trkpt>
      <trkpt lat="45.92244" lon="6.49613">
        <ele>1625.1999511719</ele>
        <time>2014-02-12T11:13:21.000Z</time>
      </trkpt>
      <trkpt lat="45.92244" lon="6.49613">
        <ele>1625.1999511719</ele>
        <time>2014-02-12T11:13:22.000Z</time>
      </trkpt>
      <trkpt lat="45.92244" lon="6.49614">
        <ele>1625.8000488281</ele>
        <time>2014-02-12T11:13:23.000Z</time>
      </trkpt>
      <trkpt lat="45.92245" lon="6.49615">
        <ele>1626.1999511719</ele>
        <time>2014-02-12T11:13:24.000Z</time>
      </trkpt>
      <trkpt lat="45.92247" lon="6.49616">
        <ele>1627</ele>
        <time>2014-02-12T11:13:25.000Z</time>
      </trkpt>
      <trkpt lat="45.92247" lon="6.49617">
        <ele>1627.4000244141</ele>
        <time>2014-02-12T11:13:26.000Z</time>
      </trkpt>
      <trkpt lat="45.92248" lon="6.49617">
        <ele>1627.5999755859</ele>
        <time>2014-02-12T11:13:27.000Z</time>
      </trkpt>
      <trkpt lat="45.92249" lon="6.49618">
        <ele>1628.1999511719</ele>
        <time>2014-02-12T11:13:28.000Z</time>
      </trkpt>
      <trkpt lat="45.9225" lon="6.49618">
        <ele>1628.4000244141</ele>
        <time>2014-02-12T11:13:29.000Z</time>
      </trkpt>
      <trkpt lat="45.92251" lon="6.49618">
        <ele>1628.8000488281</ele>
        <time>2014-02-12T11:13:30.000Z</time>
      </trkpt>
      <trkpt lat="45.92252" lon="6.4962">
        <ele>1629.4000244141</ele>
        <time>2014-02-12T11:13:31.000Z</time>
      </trkpt>
      <trkpt lat="45.92252" lon="6.4962">
        <ele>1629.5999755859</ele>
        <time>2014-02-12T11:13:32.000Z</time>
      </trkpt>
      <trkpt lat="45.92252" lon="6.4962">
        <ele>1630</ele>
        <time>2014-02-12T11:13:33.000Z</time>
      </trkpt>
      <trkpt lat="45.92252" lon="6.4962">
        <ele>1630</ele>
        <time>2014-02-12T11:13:34.000Z</time>
      </trkpt>
      <trkpt lat="45.92253" lon="6.49621">
        <ele>1630.4000244141</ele>
        <time>2014-02-12T11:13:35.000Z</time>
      </trkpt>
      <trkpt lat="45.92254" lon="6.49621">
        <ele>1630.5999755859</ele>
        <time>2014-02-12T11:13:36.000Z</time>
      </trkpt>
      <trkpt lat="45.92256" lon="6.49622">
        <ele>1631.1999511719</ele>
        <time>2014-02-12T11:13:37.000Z</time>
      </trkpt>
      <trkpt lat="45.92256" lon="6.49623">
        <ele>1631.4000244141</ele>
        <time>2014-02-12T11:13:38.000Z</time>
      </trkpt>
      <trkpt lat="45.92257" lon="6.49623">
        <ele>1631.5999755859</ele>
        <time>2014-02-12T11:13:39.000Z</time>
      </trkpt>
      <trkpt lat="45.92257" lon="6.49624">
        <ele>1632</ele>
        <time>2014-02-12T11:13:40.000Z</time>
      </trkpt>
      <trkpt lat="45.92258" lon="6.49624">
        <ele>1632.4000244141</ele>
        <time>2014-02-12T11:13:41.000Z</time>
      </trkpt>
      <trkpt lat="45.92259" lon="6.49625">
        <ele>1632.5999755859</ele>
        <time>2014-02-12T11:13:42.000Z</time>
      </trkpt>
      <trkpt lat="45.92259" lon="6.49625">
        <ele>1632.8000488281</ele>
        <time>2014-02-12T11:13:43.000Z</time>
      </trkpt>
      <trkpt lat="45.92259" lon="6.49626">
        <ele>1633.4000244141</ele>
        <time>2014-02-12T11:13:44.000Z</time>
      </trkpt>
      <trkpt lat="45.9226" lon="6.49627">
        <ele>1633.8000488281</ele>
        <time>2014-02-12T11:13:45.000Z</time>
      </trkpt>
      <trkpt lat="45.92262" lon="6.49628">
        <ele>1634.4000244141</ele>
        <time>2014-02-12T11:13:46.000Z</time>
      </trkpt>
      <trkpt lat="45.92262" lon="6.49628">
        <ele>1634.5999755859</ele>
        <time>2014-02-12T11:13:47.000Z</time>
      </trkpt>
      <trkpt lat="45.92262" lon="6.49629">
        <ele>1635</ele>
        <time>2014-02-12T11:13:48.000Z</time>
      </trkpt>
      <trkpt lat="45.92263" lon="6.49629">
        <ele>1635.4000244141</ele>
        <time>2014-02-12T11:13:49.000Z</time>
      </trkpt>
      <trkpt lat="45.92263" lon="6.4963">
        <ele>1635.5999755859</ele>
        <time>2014-02-12T11:13:50.000Z</time>
      </trkpt>
      <trkpt lat="45.92264" lon="6.4963">
        <ele>1635.8000488281</ele>
        <time>2014-02-12T11:13:51.000Z</time>
      </trkpt>
      <trkpt lat="45.92264" lon="6.4963">
        <ele>1636</ele>
        <time>2014-02-12T11:13:52.000Z</time>
      </trkpt>
      <trkpt lat="45.92265" lon="6.49631">
        <ele>1636.1999511719</ele>
        <time>2014-02-12T11:13:53.000Z</time>
      </trkpt>
      <trkpt lat="45.92265" lon="6.49631">
        <ele>1636.4000244141</ele>
        <time>2014-02-12T11:13:54.000Z</time>
      </trkpt>
      <trkpt lat="45.92265" lon="6.49632">
        <ele>1636.8000488281</ele>
        <time>2014-02-12T11:13:55.000Z</time>
      </trkpt>
      <trkpt lat="45.92265" lon="6.49632">
        <ele>1637</ele>
        <time>2014-02-12T11:13:56.000Z</time>
      </trkpt>
      <trkpt lat="45.92265" lon="6.49632">
        <ele>1637</ele>
        <time>2014-02-12T11:13:57.000Z</time>
      </trkpt>
      <trkpt lat="45.92265" lon="6.49632">
        <ele>1637</ele>
        <time>2014-02-12T11:13:58.000Z</time>
      </trkpt>
      <trkpt lat="45.92265" lon="6.49632">
        <ele>1637</ele>
        <time>2014-02-12T11:13:59.000Z</time>
      </trkpt>
      <trkpt lat="45.92265" lon="6.49632">
        <ele>1637</ele>
        <time>2014-02-12T11:14:00.000Z</time>
      </trkpt>
      <trkpt lat="45.92265" lon="6.49632">
        <ele>1637</ele>
        <time>2014-02-12T11:14:01.000Z</time>
      </trkpt>
      <trkpt lat="45.92265" lon="6.49632">
        <ele>1637</ele>
        <time>2014-02-12T11:14:02.000Z</time>
      </trkpt>
      <trkpt lat="45.92265" lon="6.49632">
        <ele>1637</ele>
        <time>2014-02-12T11:14:03.000Z</time>
      </trkpt>
      <trkpt lat="45.92264" lon="6.49633">
        <ele>1637.1999511719</ele>
        <time>2014-02-12T11:14:04.000Z</time>
      </trkpt>
      <trkpt lat="45.92263" lon="6.49634">
        <ele>1637.4000244141</ele>
        <time>2014-02-12T11:14:05.000Z</time>
      </trkpt>
      <trkpt lat="45.92263" lon="6.49635">
        <ele>1637.8000488281</ele>
        <time>2014-02-12T11:14:06.000Z</time>
      </trkpt>
      <trkpt lat="45.92262" lon="6.49635">
        <ele>1638</ele>
        <time>2014-02-12T11:14:07.000Z</time>
      </trkpt>
      <trkpt lat="45.92261" lon="6.49636">
        <ele>1638.1999511719</ele>
        <time>2014-02-12T11:14:08.000Z</time>
      </trkpt>
      <trkpt lat="45.92261" lon="6.49636">
        <ele>1638.4000244141</ele>
        <time>2014-02-12T11:14:09.000Z</time>
      </trkpt>
      <trkpt lat="45.9226" lon="6.49637">
        <ele>1638.5999755859</ele>
        <time>2014-02-12T11:14:10.000Z</time>
      </trkpt>
      <trkpt lat="45.9226" lon="6.49637">
        <ele>1638.8000488281</ele>
        <time>2014-02-12T11:14:11.000Z</time>
      </trkpt>
      <trkpt lat="45.92259" lon="6.49638">
        <ele>1639</ele>
        <time>2014-02-12T11:14:12.000Z</time>
      </trkpt>
      <trkpt lat="45.92259" lon="6.49638">
        <ele>1639.1999511719</ele>
        <time>2014-02-12T11:14:13.000Z</time>
      </trkpt>
      <trkpt lat="45.92258" lon="6.49639">
        <ele>1639.5999755859</ele>
        <time>2014-02-12T11:14:14.000Z</time>
      </trkpt>
      <trkpt lat="45.92258" lon="6.4964">
        <ele>1640</ele>
        <time>2014-02-12T11:14:15.000Z</time>
      </trkpt>
      <trkpt lat="45.92257" lon="6.49641">
        <ele>1640.1999511719</ele>
        <time>2014-02-12T11:14:16.000Z</time>
      </trkpt>
      <trkpt lat="45.92256" lon="6.4964">
        <ele>1640</ele>
        <time>2014-02-12T11:14:17.000Z</time>
      </trkpt>
      <trkpt lat="45.92255" lon="6.4964">
        <ele>1639.8000488281</ele>
        <time>2014-02-12T11:14:18.000Z</time>
      </trkpt>
      <trkpt lat="45.92254" lon="6.4964">
        <ele>1639.5999755859</ele>
        <time>2014-02-12T11:14:19.000Z</time>
      </trkpt>
      <trkpt lat="45.92253" lon="6.4964">
        <ele>1639.5999755859</ele>
        <time>2014-02-12T11:14:20.000Z</time>
      </trkpt>
      <trkpt lat="45.92252" lon="6.49641">
        <ele>1639.5999755859</ele>
        <time>2014-02-12T11:14:21.000Z</time>
      </trkpt>
      <trkpt lat="45.92251" lon="6.49641">
        <ele>1639.4000244141</ele>
        <time>2014-02-12T11:14:22.000Z</time>
      </trkpt>
      <trkpt lat="45.92251" lon="6.49641">
        <ele>1639.4000244141</ele>
        <time>2014-02-12T11:14:23.000Z</time>
      </trkpt>
      <trkpt lat="45.9225" lon="6.4964">
        <ele>1639.1999511719</ele>
        <time>2014-02-12T11:14:24.000Z</time>
      </trkpt>
      <trkpt lat="45.92249" lon="6.4964">
        <ele>1639.1999511719</ele>
        <time>2014-02-12T11:14:25.000Z</time>
      </trkpt>
      <trkpt lat="45.92248" lon="6.4964">
        <ele>1639</ele>
        <time>2014-02-12T11:14:26.000Z</time>
      </trkpt>
      <trkpt lat="45.92247" lon="6.4964">
        <ele>1639</ele>
        <time>2014-02-12T11:14:27.000Z</time>
      </trkpt>
      <trkpt lat="45.92246" lon="6.49641">
        <ele>1639</ele>
        <time>2014-02-12T11:14:28.000Z</time>
      </trkpt>
      <trkpt lat="45.92245" lon="6.49641">
        <ele>1639.1999511719</ele>
        <time>2014-02-12T11:14:29.000Z</time>
      </trkpt>
      <trkpt lat="45.92245" lon="6.49642">
        <ele>1639.1999511719</ele>
        <time>2014-02-12T11:14:30.000Z</time>
      </trkpt>
      <trkpt lat="45.92244" lon="6.49642">
        <ele>1639.5999755859</ele>
        <time>2014-02-12T11:14:31.000Z</time>
      </trkpt>
      <trkpt lat="45.92244" lon="6.49643">
        <ele>1639.8000488281</ele>
        <time>2014-02-12T11:14:32.000Z</time>
      </trkpt>
      <trkpt lat="45.92243" lon="6.49644">
        <ele>1640.1999511719</ele>
        <time>2014-02-12T11:14:33.000Z</time>
      </trkpt>
      <trkpt lat="45.92242" lon="6.49645">
        <ele>1640.5999755859</ele>
        <time>2014-02-12T11:14:34.000Z</time>
      </trkpt>
      <trkpt lat="45.92241" lon="6.49646">
        <ele>1641</ele>
        <time>2014-02-12T11:14:35.000Z</time>
      </trkpt>
      <trkpt lat="45.92241" lon="6.49646">
        <ele>1641.1999511719</ele>
        <time>2014-02-12T11:14:36.000Z</time>
      </trkpt>
      <trkpt lat="45.9224" lon="6.49647">
        <ele>1641.1999511719</ele>
        <time>2014-02-12T11:14:37.000Z</time>
      </trkpt>
      <trkpt lat="45.9224" lon="6.49647">
        <ele>1641.4000244141</ele>
        <time>2014-02-12T11:14:38.000Z</time>
      </trkpt>
      <trkpt lat="45.92239" lon="6.49647">
        <ele>1641.4000244141</ele>
        <time>2014-02-12T11:14:39.000Z</time>
      </trkpt>
      <trkpt lat="45.92238" lon="6.49648">
        <ele>1641.4000244141</ele>
        <time>2014-02-12T11:14:40.000Z</time>
      </trkpt>
      <trkpt lat="45.92238" lon="6.49648">
        <ele>1641.4000244141</ele>
        <time>2014-02-12T11:14:41.000Z</time>
      </trkpt>
      <trkpt lat="45.92237" lon="6.49648">
        <ele>1641.4000244141</ele>
        <time>2014-02-12T11:14:42.000Z</time>
      </trkpt>
      <trkpt lat="45.92236" lon="6.49648">
        <ele>1641.4000244141</ele>
        <time>2014-02-12T11:14:43.000Z</time>
      </trkpt>
      <trkpt lat="45.92236" lon="6.49648">
        <ele>1641.4000244141</ele>
        <time>2014-02-12T11:14:44.000Z</time>
      </trkpt>
      <trkpt lat="45.92235" lon="6.49648">
        <ele>1641.4000244141</ele>
        <time>2014-02-12T11:14:45.000Z</time>
      </trkpt>
      <trkpt lat="45.92235" lon="6.49648">
        <ele>1641.1999511719</ele>
        <time>2014-02-12T11:14:46.000Z</time>
      </trkpt>
      <trkpt lat="45.92234" lon="6.49648">
        <ele>1641.1999511719</ele>
        <time>2014-02-12T11:14:47.000Z</time>
      </trkpt>
      <trkpt lat="45.92233" lon="6.49648">
        <ele>1641</ele>
        <time>2014-02-12T11:14:48.000Z</time>
      </trkpt>
      <trkpt lat="45.92232" lon="6.49648">
        <ele>1641</ele>
        <time>2014-02-12T11:14:49.000Z</time>
      </trkpt>
      <trkpt lat="45.92232" lon="6.49648">
        <ele>1641</ele>
        <time>2014-02-12T11:14:50.000Z</time>
      </trkpt>
      <trkpt lat="45.92231" lon="6.49648">
        <ele>1640.8000488281</ele>
        <time>2014-02-12T11:14:51.000Z</time>
      </trkpt>
      <trkpt lat="45.9223" lon="6.49649">
        <ele>1641</ele>
        <time>2014-02-12T11:14:52.000Z</time>
      </trkpt>
      <trkpt lat="45.92229" lon="6.49649">
        <ele>1641</ele>
        <time>2014-02-12T11:14:53.000Z</time>
      </trkpt>
      <trkpt lat="45.92228" lon="6.49649">
        <ele>1641.1999511719</ele>
        <time>2014-02-12T11:14:54.000Z</time>
      </trkpt>
      <trkpt lat="45.92227" lon="6.4965">
        <ele>1641.1999511719</ele>
        <time>2014-02-12T11:14:55.000Z</time>
      </trkpt>
      <trkpt lat="45.92227" lon="6.4965">
        <ele>1641</ele>
        <time>2014-02-12T11:14:56.000Z</time>
      </trkpt>
      <trkpt lat="45.92226" lon="6.4965">
        <ele>1641</ele>
        <time>2014-02-12T11:14:57.000Z</time>
      </trkpt>
      <trkpt lat="45.92225" lon="6.4965">
        <ele>1641</ele>
        <time>2014-02-12T11:14:58.000Z</time>
      </trkpt>
      <trkpt lat="45.92224" lon="6.49649">
        <ele>1640.5999755859</ele>
        <time>2014-02-12T11:14:59.000Z</time>
      </trkpt>
      <trkpt lat="45.92224" lon="6.49649">
        <ele>1640.4000244141</ele>
        <time>2014-02-12T11:15:00.000Z</time>
      </trkpt>
      <trkpt lat="45.92223" lon="6.49649">
        <ele>1640.4000244141</ele>
        <time>2014-02-12T11:15:01.000Z</time>
      </trkpt>
      <trkpt lat="45.92223" lon="6.49649">
        <ele>1640.8000488281</ele>
        <time>2014-02-12T11:15:02.000Z</time>
      </trkpt>
      <trkpt lat="45.92222" lon="6.49649">
        <ele>1641</ele>
        <time>2014-02-12T11:15:03.000Z</time>
      </trkpt>
      <trkpt lat="45.92221" lon="6.4965">
        <ele>1641.1999511719</ele>
        <time>2014-02-12T11:15:04.000Z</time>
      </trkpt>
      <trkpt lat="45.9222" lon="6.4965">
        <ele>1641.4000244141</ele>
        <time>2014-02-12T11:15:05.000Z</time>
      </trkpt>
      <trkpt lat="45.9222" lon="6.4965">
        <ele>1641.4000244141</ele>
        <time>2014-02-12T11:15:06.000Z</time>
      </trkpt>
      <trkpt lat="45.92219" lon="6.4965">
        <ele>1641.4000244141</ele>
        <time>2014-02-12T11:15:07.000Z</time>
      </trkpt>
      <trkpt lat="45.92218" lon="6.49649">
        <ele>1641.1999511719</ele>
        <time>2014-02-12T11:15:08.000Z</time>
      </trkpt>
      <trkpt lat="45.92217" lon="6.49649">
        <ele>1641</ele>
        <time>2014-02-12T11:15:09.000Z</time>
      </trkpt>
      <trkpt lat="45.92216" lon="6.49648">
        <ele>1641</ele>
        <time>2014-02-12T11:15:10.000Z</time>
      </trkpt>
      <trkpt lat="45.92215" lon="6.49648">
        <ele>1641</ele>
        <time>2014-02-12T11:15:11.000Z</time>
      </trkpt>
      <trkpt lat="45.92215" lon="6.49648">
        <ele>1640.8000488281</ele>
        <time>2014-02-12T11:15:12.000Z</time>
      </trkpt>
      <trkpt lat="45.92214" lon="6.49647">
        <ele>1640.8000488281</ele>
        <time>2014-02-12T11:15:13.000Z</time>
      </trkpt>
      <trkpt lat="45.92214" lon="6.49647">
        <ele>1640.5999755859</ele>
        <time>2014-02-12T11:15:14.000Z</time>
      </trkpt>
      <trkpt lat="45.92213" lon="6.49647">
        <ele>1640.5999755859</ele>
        <time>2014-02-12T11:15:15.000Z</time>
      </trkpt>
      <trkpt lat="45.92212" lon="6.49646">
        <ele>1640.5999755859</ele>
        <time>2014-02-12T11:15:16.000Z</time>
      </trkpt>
      <trkpt lat="45.92211" lon="6.49647">
        <ele>1640.8000488281</ele>
        <time>2014-02-12T11:15:17.000Z</time>
      </trkpt>
      <trkpt lat="45.92211" lon="6.49647">
        <ele>1640.8000488281</ele>
        <time>2014-02-12T11:15:18.000Z</time>
      </trkpt>
      <trkpt lat="45.92209" lon="6.49645">
        <ele>1640.5999755859</ele>
        <time>2014-02-12T11:15:19.000Z</time>
      </trkpt>
      <trkpt lat="45.92208" lon="6.49645">
        <ele>1640.5999755859</ele>
        <time>2014-02-12T11:15:20.000Z</time>
      </trkpt>
      <trkpt lat="45.92208" lon="6.49645">
        <ele>1640.4000244141</ele>
        <time>2014-02-12T11:15:21.000Z</time>
      </trkpt>
      <trkpt lat="45.92206" lon="6.49645">
        <ele>1640.5999755859</ele>
        <time>2014-02-12T11:15:22.000Z</time>
      </trkpt>
      <trkpt lat="45.92206" lon="6.49645">
        <ele>1640.5999755859</ele>
        <time>2014-02-12T11:15:23.000Z</time>
      </trkpt>
      <trkpt lat="45.92206" lon="6.49645">
        <ele>1640.5999755859</ele>
        <time>2014-02-12T11:15:24.000Z</time>
      </trkpt>
      <trkpt lat="45.92205" lon="6.49645">
        <ele>1640.8000488281</ele>
        <time>2014-02-12T11:15:25.000Z</time>
      </trkpt>
      <trkpt lat="45.92204" lon="6.49646">
        <ele>1641</ele>
        <time>2014-02-12T11:15:26.000Z</time>
      </trkpt>
      <trkpt lat="45.92204" lon="6.49646">
        <ele>1641</ele>
        <time>2014-02-12T11:15:27.000Z</time>
      </trkpt>
      <trkpt lat="45.92204" lon="6.49646">
        <ele>1641</ele>
        <time>2014-02-12T11:15:28.000Z</time>
      </trkpt>
      <trkpt lat="45.92204" lon="6.49646">
        <ele>1641</ele>
        <time>2014-02-12T11:15:29.000Z</time>
      </trkpt>
      <trkpt lat="45.92204" lon="6.49647">
        <ele>1641.5999755859</ele>
        <time>2014-02-12T11:15:30.000Z</time>
      </trkpt>
      <trkpt lat="45.92204" lon="6.49647">
        <ele>1641.5999755859</ele>
        <time>2014-02-12T11:15:31.000Z</time>
      </trkpt>
      <trkpt lat="45.92204" lon="6.4965">
        <ele>1642.5999755859</ele>
        <time>2014-02-12T11:15:33.000Z</time>
      </trkpt>
      <trkpt lat="45.92205" lon="6.49653">
        <ele>1644</ele>
        <time>2014-02-12T11:15:35.000Z</time>
      </trkpt>
      <trkpt lat="45.92205" lon="6.49655">
        <ele>1644.8000488281</ele>
        <time>2014-02-12T11:15:36.000Z</time>
      </trkpt>
      <trkpt lat="45.92206" lon="6.49657">
        <ele>1645.4000244141</ele>
        <time>2014-02-12T11:15:37.000Z</time>
      </trkpt>
      <trkpt lat="45.92206" lon="6.49658">
        <ele>1646</ele>
        <time>2014-02-12T11:15:38.000Z</time>
      </trkpt>
      <trkpt lat="45.92206" lon="6.49659">
        <ele>1646.4000244141</ele>
        <time>2014-02-12T11:15:39.000Z</time>
      </trkpt>
      <trkpt lat="45.92205" lon="6.4966">
        <ele>1647</ele>
        <time>2014-02-12T11:15:40.000Z</time>
      </trkpt>
      <trkpt lat="45.92206" lon="6.49663">
        <ele>1647.8000488281</ele>
        <time>2014-02-12T11:15:41.000Z</time>
      </trkpt>
      <trkpt lat="45.92206" lon="6.49664">
        <ele>1648.4000244141</ele>
        <time>2014-02-12T11:15:42.000Z</time>
      </trkpt>
      <trkpt lat="45.92207" lon="6.49665">
        <ele>1648.8000488281</ele>
        <time>2014-02-12T11:15:43.000Z</time>
      </trkpt>
      <trkpt lat="45.92207" lon="6.49665">
        <ele>1648.8000488281</ele>
        <time>2014-02-12T11:15:44.000Z</time>
      </trkpt>
      <trkpt lat="45.92207" lon="6.49666">
        <ele>1649</ele>
        <time>2014-02-12T11:15:45.000Z</time>
      </trkpt>
      <trkpt lat="45.92207" lon="6.49665">
        <ele>1648.8000488281</ele>
        <time>2014-02-12T11:15:46.000Z</time>
      </trkpt>
      <trkpt lat="45.92207" lon="6.49665">
        <ele>1648.8000488281</ele>
        <time>2014-02-12T11:15:47.000Z</time>
      </trkpt>
      <trkpt lat="45.92207" lon="6.49665">
        <ele>1648.8000488281</ele>
        <time>2014-02-12T11:15:48.000Z</time>
      </trkpt>
      <trkpt lat="45.92207" lon="6.49665">
        <ele>1648.8000488281</ele>
        <time>2014-02-12T11:15:49.000Z</time>
      </trkpt>
      <trkpt lat="45.92207" lon="6.49665">
        <ele>1648.8000488281</ele>
        <time>2014-02-12T11:15:50.000Z</time>
      </trkpt>
      <trkpt lat="45.92207" lon="6.49665">
        <ele>1648.8000488281</ele>
        <time>2014-02-12T11:15:51.000Z</time>
      </trkpt>
      <trkpt lat="45.92207" lon="6.49665">
        <ele>1648.8000488281</ele>
        <time>2014-02-12T11:15:52.000Z</time>
      </trkpt>
      <trkpt lat="45.92207" lon="6.49665">
        <ele>1648.8000488281</ele>
        <time>2014-02-12T11:15:53.000Z</time>
      </trkpt>
      <trkpt lat="45.92207" lon="6.49665">
        <ele>1648.8000488281</ele>
        <time>2014-02-12T11:15:54.000Z</time>
      </trkpt>
      <trkpt lat="45.92207" lon="6.49665">
        <ele>1648.8000488281</ele>
        <time>2014-02-12T11:15:55.000Z</time>
      </trkpt>
      <trkpt lat="45.92207" lon="6.49665">
        <ele>1648.8000488281</ele>
        <time>2014-02-12T11:15:56.000Z</time>
      </trkpt>
      <trkpt lat="45.92207" lon="6.49665">
        <ele>1648.8000488281</ele>
        <time>2014-02-12T11:15:57.000Z</time>
      </trkpt>
      <trkpt lat="45.92206" lon="6.49665">
        <ele>1648.8000488281</ele>
        <time>2014-02-12T11:15:58.000Z</time>
      </trkpt>
      <trkpt lat="45.92205" lon="6.49665">
        <ele>1648.5999755859</ele>
        <time>2014-02-12T11:15:59.000Z</time>
      </trkpt>
      <trkpt lat="45.92205" lon="6.49664">
        <ele>1648.5999755859</ele>
        <time>2014-02-12T11:16:00.000Z</time>
      </trkpt>
      <trkpt lat="45.92204" lon="6.49664">
        <ele>1648.4000244141</ele>
        <time>2014-02-12T11:16:01.000Z</time>
      </trkpt>
      <trkpt lat="45.92203" lon="6.49663">
        <ele>1648.1999511719</ele>
        <time>2014-02-12T11:16:02.000Z</time>
      </trkpt>
      <trkpt lat="45.92202" lon="6.49662">
        <ele>1648</ele>
        <time>2014-02-12T11:16:03.000Z</time>
      </trkpt>
      <trkpt lat="45.922" lon="6.49662">
        <ele>1648</ele>
        <time>2014-02-12T11:16:04.000Z</time>
      </trkpt>
      <trkpt lat="45.922" lon="6.49662">
        <ele>1648</ele>
        <time>2014-02-12T11:16:05.000Z</time>
      </trkpt>
      <trkpt lat="45.92198" lon="6.49661">
        <ele>1647.8000488281</ele>
        <time>2014-02-12T11:16:06.000Z</time>
      </trkpt>
      <trkpt lat="45.92198" lon="6.49661">
        <ele>1647.8000488281</ele>
        <time>2014-02-12T11:16:07.000Z</time>
      </trkpt>
      <trkpt lat="45.92197" lon="6.49661">
        <ele>1647.5999755859</ele>
        <time>2014-02-12T11:16:08.000Z</time>
      </trkpt>
      <trkpt lat="45.92196" lon="6.4966">
        <ele>1647.5999755859</ele>
        <time>2014-02-12T11:16:09.000Z</time>
      </trkpt>
      <trkpt lat="45.92195" lon="6.4966">
        <ele>1647.5999755859</ele>
        <time>2014-02-12T11:16:10.000Z</time>
      </trkpt>
      <trkpt lat="45.92194" lon="6.4966">
        <ele>1647.8000488281</ele>
        <time>2014-02-12T11:16:11.000Z</time>
      </trkpt>
      <trkpt lat="45.92193" lon="6.4966">
        <ele>1647.5999755859</ele>
        <time>2014-02-12T11:16:12.000Z</time>
      </trkpt>
      <trkpt lat="45.92192" lon="6.4966">
        <ele>1647.8000488281</ele>
        <time>2014-02-12T11:16:13.000Z</time>
      </trkpt>
      <trkpt lat="45.92191" lon="6.4966">
        <ele>1648</ele>
        <time>2014-02-12T11:16:14.000Z</time>
      </trkpt>
      <trkpt lat="45.9219" lon="6.4966">
        <ele>1648</ele>
        <time>2014-02-12T11:16:15.000Z</time>
      </trkpt>
      <trkpt lat="45.92189" lon="6.49659">
        <ele>1647.8000488281</ele>
        <time>2014-02-12T11:16:16.000Z</time>
      </trkpt>
      <trkpt lat="45.92188" lon="6.4966">
        <ele>1648.1999511719</ele>
        <time>2014-02-12T11:16:17.000Z</time>
      </trkpt>
      <trkpt lat="45.92188" lon="6.49661">
        <ele>1648.4000244141</ele>
        <time>2014-02-12T11:16:18.000Z</time>
      </trkpt>
      <trkpt lat="45.92186" lon="6.49661">
        <ele>1648.5999755859</ele>
        <time>2014-02-12T11:16:19.000Z</time>
      </trkpt>
      <trkpt lat="45.92186" lon="6.49661">
        <ele>1648.8000488281</ele>
        <time>2014-02-12T11:16:20.000Z</time>
      </trkpt>
      <trkpt lat="45.92186" lon="6.4966">
        <ele>1648.5999755859</ele>
        <time>2014-02-12T11:16:21.000Z</time>
      </trkpt>
      <trkpt lat="45.92185" lon="6.4966">
        <ele>1648.4000244141</ele>
        <time>2014-02-12T11:16:22.000Z</time>
      </trkpt>
      <trkpt lat="45.92184" lon="6.4966">
        <ele>1648.4000244141</ele>
        <time>2014-02-12T11:16:23.000Z</time>
      </trkpt>
      <trkpt lat="45.92184" lon="6.4966">
        <ele>1648.4000244141</ele>
        <time>2014-02-12T11:16:24.000Z</time>
      </trkpt>
      <trkpt lat="45.92183" lon="6.49659">
        <ele>1648.1999511719</ele>
        <time>2014-02-12T11:16:25.000Z</time>
      </trkpt>
      <trkpt lat="45.92182" lon="6.49659">
        <ele>1648.1999511719</ele>
        <time>2014-02-12T11:16:26.000Z</time>
      </trkpt>
      <trkpt lat="45.92182" lon="6.49659">
        <ele>1648.1999511719</ele>
        <time>2014-02-12T11:16:27.000Z</time>
      </trkpt>
      <trkpt lat="45.92181" lon="6.49658">
        <ele>1648.1999511719</ele>
        <time>2014-02-12T11:16:28.000Z</time>
      </trkpt>
      <trkpt lat="45.9218" lon="6.49658">
        <ele>1648</ele>
        <time>2014-02-12T11:16:29.000Z</time>
      </trkpt>
      <trkpt lat="45.9218" lon="6.49658">
        <ele>1648</ele>
        <time>2014-02-12T11:16:30.000Z</time>
      </trkpt>
      <trkpt lat="45.9218" lon="6.49658">
        <ele>1648</ele>
        <time>2014-02-12T11:16:31.000Z</time>
      </trkpt>
      <trkpt lat="45.92179" lon="6.49658">
        <ele>1648</ele>
        <time>2014-02-12T11:16:32.000Z</time>
      </trkpt>
      <trkpt lat="45.92179" lon="6.49658">
        <ele>1648.1999511719</ele>
        <time>2014-02-12T11:16:33.000Z</time>
      </trkpt>
      <trkpt lat="45.92179" lon="6.49658">
        <ele>1648.1999511719</ele>
        <time>2014-02-12T11:16:34.000Z</time>
      </trkpt>
      <trkpt lat="45.92179" lon="6.49658">
        <ele>1648.1999511719</ele>
        <time>2014-02-12T11:16:35.000Z</time>
      </trkpt>
      <trkpt lat="45.92179" lon="6.49658">
        <ele>1648.1999511719</ele>
        <time>2014-02-12T11:16:36.000Z</time>
      </trkpt>
      <trkpt lat="45.92179" lon="6.49658">
        <ele>1648</ele>
        <time>2014-02-12T11:16:37.000Z</time>
      </trkpt>
      <trkpt lat="45.92179" lon="6.49658">
        <ele>1648.1999511719</ele>
        <time>2014-02-12T11:16:38.000Z</time>
      </trkpt>
      <trkpt lat="45.92179" lon="6.49659">
        <ele>1648.4000244141</ele>
        <time>2014-02-12T11:16:39.000Z</time>
      </trkpt>
      <trkpt lat="45.92179" lon="6.49659">
        <ele>1648.4000244141</ele>
        <time>2014-02-12T11:16:40.000Z</time>
      </trkpt>
      <trkpt lat="45.9218" lon="6.49661">
        <ele>1649.4000244141</ele>
        <time>2014-02-12T11:16:41.000Z</time>
      </trkpt>
      <trkpt lat="45.9218" lon="6.49663">
        <ele>1650</ele>
        <time>2014-02-12T11:16:42.000Z</time>
      </trkpt>
      <trkpt lat="45.9218" lon="6.49665">
        <ele>1651</ele>
        <time>2014-02-12T11:16:43.000Z</time>
      </trkpt>
      <trkpt lat="45.92181" lon="6.49667">
        <ele>1651.8000488281</ele>
        <time>2014-02-12T11:16:44.000Z</time>
      </trkpt>
      <trkpt lat="45.92181" lon="6.49668">
        <ele>1652</ele>
        <time>2014-02-12T11:16:45.000Z</time>
      </trkpt>
      <trkpt lat="45.92181" lon="6.49669">
        <ele>1652.4000244141</ele>
        <time>2014-02-12T11:16:46.000Z</time>
      </trkpt>
      <trkpt lat="45.92181" lon="6.49671">
        <ele>1653.1999511719</ele>
        <time>2014-02-12T11:16:47.000Z</time>
      </trkpt>
      <trkpt lat="45.92181" lon="6.49671">
        <ele>1653.4000244141</ele>
        <time>2014-02-12T11:16:48.000Z</time>
      </trkpt>
      <trkpt lat="45.92181" lon="6.49673">
        <ele>1654.1999511719</ele>
        <time>2014-02-12T11:16:49.000Z</time>
      </trkpt>
      <trkpt lat="45.92181" lon="6.49674">
        <ele>1654.8000488281</ele>
        <time>2014-02-12T11:16:50.000Z</time>
      </trkpt>
      <trkpt lat="45.92181" lon="6.49675">
        <ele>1655.1999511719</ele>
        <time>2014-02-12T11:16:51.000Z</time>
      </trkpt>
      <trkpt lat="45.92181" lon="6.49676">
        <ele>1655.4000244141</ele>
        <time>2014-02-12T11:16:52.000Z</time>
      </trkpt>
      <trkpt lat="45.92181" lon="6.49676">
        <ele>1655.5999755859</ele>
        <time>2014-02-12T11:16:53.000Z</time>
      </trkpt>
      <trkpt lat="45.92181" lon="6.49677">
        <ele>1656</ele>
        <time>2014-02-12T11:16:54.000Z</time>
      </trkpt>
      <trkpt lat="45.92181" lon="6.49678">
        <ele>1656.4000244141</ele>
        <time>2014-02-12T11:16:55.000Z</time>
      </trkpt>
      <trkpt lat="45.92181" lon="6.49678">
        <ele>1656.4000244141</ele>
        <time>2014-02-12T11:16:56.000Z</time>
      </trkpt>
      <trkpt lat="45.92181" lon="6.49678">
        <ele>1656.4000244141</ele>
        <time>2014-02-12T11:16:57.000Z</time>
      </trkpt>
      <trkpt lat="45.92181" lon="6.49679">
        <ele>1656.8000488281</ele>
        <time>2014-02-12T11:16:58.000Z</time>
      </trkpt>
      <trkpt lat="45.92181" lon="6.4968">
        <ele>1657.4000244141</ele>
        <time>2014-02-12T11:16:59.000Z</time>
      </trkpt>
      <trkpt lat="45.92181" lon="6.4968">
        <ele>1657.4000244141</ele>
        <time>2014-02-12T11:17:00.000Z</time>
      </trkpt>
      <trkpt lat="45.92181" lon="6.4968">
        <ele>1657.4000244141</ele>
        <time>2014-02-12T11:17:01.000Z</time>
      </trkpt>
      <trkpt lat="45.92181" lon="6.4968">
        <ele>1657.4000244141</ele>
        <time>2014-02-12T11:17:02.000Z</time>
      </trkpt>
      <trkpt lat="45.92181" lon="6.4968">
        <ele>1657.4000244141</ele>
        <time>2014-02-12T11:17:03.000Z</time>
      </trkpt>
      <trkpt lat="45.9218" lon="6.49681">
        <ele>1657.5999755859</ele>
        <time>2014-02-12T11:17:04.000Z</time>
      </trkpt>
      <trkpt lat="45.92179" lon="6.49681">
        <ele>1657.8000488281</ele>
        <time>2014-02-12T11:17:05.000Z</time>
      </trkpt>
      <trkpt lat="45.92178" lon="6.49681">
        <ele>1657.8000488281</ele>
        <time>2014-02-12T11:17:06.000Z</time>
      </trkpt>
      <trkpt lat="45.92176" lon="6.49681">
        <ele>1657.8000488281</ele>
        <time>2014-02-12T11:17:07.000Z</time>
      </trkpt>
      <trkpt lat="45.92175" lon="6.4968">
        <ele>1657.5999755859</ele>
        <time>2014-02-12T11:17:08.000Z</time>
      </trkpt>
      <trkpt lat="45.92174" lon="6.4968">
        <ele>1657.8000488281</ele>
        <time>2014-02-12T11:17:09.000Z</time>
      </trkpt>
      <trkpt lat="45.92173" lon="6.4968">
        <ele>1657.8000488281</ele>
        <time>2014-02-12T11:17:10.000Z</time>
      </trkpt>
      <trkpt lat="45.92172" lon="6.49679">
        <ele>1657.8000488281</ele>
        <time>2014-02-12T11:17:11.000Z</time>
      </trkpt>
      <trkpt lat="45.92172" lon="6.4968">
        <ele>1657.8000488281</ele>
        <time>2014-02-12T11:17:12.000Z</time>
      </trkpt>
      <trkpt lat="45.92171" lon="6.4968">
        <ele>1658</ele>
        <time>2014-02-12T11:17:13.000Z</time>
      </trkpt>
      <trkpt lat="45.92169" lon="6.49679">
        <ele>1657.8000488281</ele>
        <time>2014-02-12T11:17:14.000Z</time>
      </trkpt>
      <trkpt lat="45.92169" lon="6.4968">
        <ele>1658</ele>
        <time>2014-02-12T11:17:15.000Z</time>
      </trkpt>
      <trkpt lat="45.92168" lon="6.4968">
        <ele>1658.1999511719</ele>
        <time>2014-02-12T11:17:16.000Z</time>
      </trkpt>
      <trkpt lat="45.92167" lon="6.4968">
        <ele>1658</ele>
        <time>2014-02-12T11:17:17.000Z</time>
      </trkpt>
      <trkpt lat="45.92167" lon="6.4968">
        <ele>1658.1999511719</ele>
        <time>2014-02-12T11:17:18.000Z</time>
      </trkpt>
      <trkpt lat="45.92165" lon="6.4968">
        <ele>1658.4000244141</ele>
        <time>2014-02-12T11:17:19.000Z</time>
      </trkpt>
      <trkpt lat="45.92165" lon="6.4968">
        <ele>1658.1999511719</ele>
        <time>2014-02-12T11:17:20.000Z</time>
      </trkpt>
      <trkpt lat="45.92165" lon="6.4968">
        <ele>1658.1999511719</ele>
        <time>2014-02-12T11:17:21.000Z</time>
      </trkpt>
      <trkpt lat="45.92163" lon="6.49679">
        <ele>1658</ele>
        <time>2014-02-12T11:17:22.000Z</time>
      </trkpt>
      <trkpt lat="45.92163" lon="6.49679">
        <ele>1658.1999511719</ele>
        <time>2014-02-12T11:17:23.000Z</time>
      </trkpt>
      <trkpt lat="45.92162" lon="6.49679">
        <ele>1658</ele>
        <time>2014-02-12T11:17:24.000Z</time>
      </trkpt>
      <trkpt lat="45.92161" lon="6.49679">
        <ele>1658.1999511719</ele>
        <time>2014-02-12T11:17:25.000Z</time>
      </trkpt>
      <trkpt lat="45.92161" lon="6.4968">
        <ele>1658.4000244141</ele>
        <time>2014-02-12T11:17:26.000Z</time>
      </trkpt>
      <trkpt lat="45.9216" lon="6.4968">
        <ele>1658.5999755859</ele>
        <time>2014-02-12T11:17:27.000Z</time>
      </trkpt>
      <trkpt lat="45.92159" lon="6.49681">
        <ele>1658.8000488281</ele>
        <time>2014-02-12T11:17:28.000Z</time>
      </trkpt>
      <trkpt lat="45.92158" lon="6.49681">
        <ele>1658.8000488281</ele>
        <time>2014-02-12T11:17:29.000Z</time>
      </trkpt>
      <trkpt lat="45.92157" lon="6.49681">
        <ele>1658.8000488281</ele>
        <time>2014-02-12T11:17:30.000Z</time>
      </trkpt>
      <trkpt lat="45.92157" lon="6.49681">
        <ele>1658.8000488281</ele>
        <time>2014-02-12T11:17:31.000Z</time>
      </trkpt>
      <trkpt lat="45.92156" lon="6.49681">
        <ele>1658.8000488281</ele>
        <time>2014-02-12T11:17:32.000Z</time>
      </trkpt>
      <trkpt lat="45.92155" lon="6.49681">
        <ele>1658.8000488281</ele>
        <time>2014-02-12T11:17:33.000Z</time>
      </trkpt>
      <trkpt lat="45.92154" lon="6.49681">
        <ele>1659</ele>
        <time>2014-02-12T11:17:34.000Z</time>
      </trkpt>
      <trkpt lat="45.92153" lon="6.49681">
        <ele>1659</ele>
        <time>2014-02-12T11:17:35.000Z</time>
      </trkpt>
      <trkpt lat="45.92153" lon="6.49681">
        <ele>1659.1999511719</ele>
        <time>2014-02-12T11:17:36.000Z</time>
      </trkpt>
      <trkpt lat="45.92152" lon="6.49682">
        <ele>1659.4000244141</ele>
        <time>2014-02-12T11:17:37.000Z</time>
      </trkpt>
      <trkpt lat="45.92151" lon="6.49682">
        <ele>1659.4000244141</ele>
        <time>2014-02-12T11:17:38.000Z</time>
      </trkpt>
      <trkpt lat="45.92151" lon="6.49682">
        <ele>1659.4000244141</ele>
        <time>2014-02-12T11:17:39.000Z</time>
      </trkpt>
      <trkpt lat="45.9215" lon="6.49682">
        <ele>1659.8000488281</ele>
        <time>2014-02-12T11:17:40.000Z</time>
      </trkpt>
      <trkpt lat="45.9215" lon="6.49683">
        <ele>1659.8000488281</ele>
        <time>2014-02-12T11:17:41.000Z</time>
      </trkpt>
      <trkpt lat="45.92148" lon="6.49684">
        <ele>1660.1999511719</ele>
        <time>2014-02-12T11:17:42.000Z</time>
      </trkpt>
      <trkpt lat="45.92148" lon="6.49684">
        <ele>1660.4000244141</ele>
        <time>2014-02-12T11:17:43.000Z</time>
      </trkpt>
      <trkpt lat="45.92148" lon="6.49684">
        <ele>1660.4000244141</ele>
        <time>2014-02-12T11:17:44.000Z</time>
      </trkpt>
      <trkpt lat="45.92147" lon="6.49685">
        <ele>1660.8000488281</ele>
        <time>2014-02-12T11:17:45.000Z</time>
      </trkpt>
      <trkpt lat="45.92146" lon="6.49685">
        <ele>1660.8000488281</ele>
        <time>2014-02-12T11:17:46.000Z</time>
      </trkpt>
      <trkpt lat="45.92146" lon="6.49688">
        <ele>1661.8000488281</ele>
        <time>2014-02-12T11:17:47.000Z</time>
      </trkpt>
      <trkpt lat="45.92146" lon="6.49689">
        <ele>1662.4000244141</ele>
        <time>2014-02-12T11:17:48.000Z</time>
      </trkpt>
      <trkpt lat="45.92146" lon="6.49691">
        <ele>1663</ele>
        <time>2014-02-12T11:17:49.000Z</time>
      </trkpt>
      <trkpt lat="45.92146" lon="6.49692">
        <ele>1663.4000244141</ele>
        <time>2014-02-12T11:17:50.000Z</time>
      </trkpt>
      <trkpt lat="45.92146" lon="6.49692">
        <ele>1663.4000244141</ele>
        <time>2014-02-12T11:17:51.000Z</time>
      </trkpt>
      <trkpt lat="45.92146" lon="6.49692">
        <ele>1663.4000244141</ele>
        <time>2014-02-12T11:17:52.000Z</time>
      </trkpt>
      <trkpt lat="45.92147" lon="6.49694">
        <ele>1664.1999511719</ele>
        <time>2014-02-12T11:17:53.000Z</time>
      </trkpt>
      <trkpt lat="45.92147" lon="6.49694">
        <ele>1664.1999511719</ele>
        <time>2014-02-12T11:17:54.000Z</time>
      </trkpt>
      <trkpt lat="45.92147" lon="6.49696">
        <ele>1665</ele>
        <time>2014-02-12T11:17:55.000Z</time>
      </trkpt>
      <trkpt lat="45.92147" lon="6.49696">
        <ele>1665</ele>
        <time>2014-02-12T11:17:56.000Z</time>
      </trkpt>
      <trkpt lat="45.92147" lon="6.49698">
        <ele>1665.4000244141</ele>
        <time>2014-02-12T11:17:57.000Z</time>
      </trkpt>
      <trkpt lat="45.92147" lon="6.49699">
        <ele>1665.8000488281</ele>
        <time>2014-02-12T11:17:58.000Z</time>
      </trkpt>
      <trkpt lat="45.92148" lon="6.49699">
        <ele>1666</ele>
        <time>2014-02-12T11:17:59.000Z</time>
      </trkpt>
      <trkpt lat="45.92148" lon="6.497">
        <ele>1666.1999511719</ele>
        <time>2014-02-12T11:18:00.000Z</time>
      </trkpt>
      <trkpt lat="45.92149" lon="6.49701">
        <ele>1666.4000244141</ele>
        <time>2014-02-12T11:18:01.000Z</time>
      </trkpt>
      <trkpt lat="45.92149" lon="6.49701">
        <ele>1666.8000488281</ele>
        <time>2014-02-12T11:18:02.000Z</time>
      </trkpt>
      <trkpt lat="45.9215" lon="6.49702">
        <ele>1666.8000488281</ele>
        <time>2014-02-12T11:18:03.000Z</time>
      </trkpt>
      <trkpt lat="45.9215" lon="6.49702">
        <ele>1667</ele>
        <time>2014-02-12T11:18:04.000Z</time>
      </trkpt>
      <trkpt lat="45.92151" lon="6.49703">
        <ele>1667.4000244141</ele>
        <time>2014-02-12T11:18:05.000Z</time>
      </trkpt>
      <trkpt lat="45.92151" lon="6.49704">
        <ele>1667.8000488281</ele>
        <time>2014-02-12T11:18:06.000Z</time>
      </trkpt>
      <trkpt lat="45.92152" lon="6.49705">
        <ele>1668</ele>
        <time>2014-02-12T11:18:07.000Z</time>
      </trkpt>
      <trkpt lat="45.92153" lon="6.49705">
        <ele>1668</ele>
        <time>2014-02-12T11:18:08.000Z</time>
      </trkpt>
      <trkpt lat="45.92154" lon="6.49707">
        <ele>1668.5999755859</ele>
        <time>2014-02-12T11:18:09.000Z</time>
      </trkpt>
      <trkpt lat="45.92154" lon="6.49708">
        <ele>1669</ele>
        <time>2014-02-12T11:18:10.000Z</time>
      </trkpt>
      <trkpt lat="45.92154" lon="6.49709">
        <ele>1669.1999511719</ele>
        <time>2014-02-12T11:18:11.000Z</time>
      </trkpt>
      <trkpt lat="45.92155" lon="6.4971">
        <ele>1669.5999755859</ele>
        <time>2014-02-12T11:18:12.000Z</time>
      </trkpt>
      <trkpt lat="45.92156" lon="6.4971">
        <ele>1669.8000488281</ele>
        <time>2014-02-12T11:18:13.000Z</time>
      </trkpt>
      <trkpt lat="45.92157" lon="6.49712">
        <ele>1670.4000244141</ele>
        <time>2014-02-12T11:18:14.000Z</time>
      </trkpt>
      <trkpt lat="45.92158" lon="6.49713">
        <ele>1671</ele>
        <time>2014-02-12T11:18:15.000Z</time>
      </trkpt>
      <trkpt lat="45.92157" lon="6.49715">
        <ele>1671.4000244141</ele>
        <time>2014-02-12T11:18:16.000Z</time>
      </trkpt>
      <trkpt lat="45.92157" lon="6.49716">
        <ele>1671.8000488281</ele>
        <time>2014-02-12T11:18:17.000Z</time>
      </trkpt>
      <trkpt lat="45.92157" lon="6.49716">
        <ele>1671.8000488281</ele>
        <time>2014-02-12T11:18:18.000Z</time>
      </trkpt>
      <trkpt lat="45.92157" lon="6.49716">
        <ele>1671.8000488281</ele>
        <time>2014-02-12T11:18:19.000Z</time>
      </trkpt>
      <trkpt lat="45.92157" lon="6.49716">
        <ele>1671.8000488281</ele>
        <time>2014-02-12T11:18:20.000Z</time>
      </trkpt>
      <trkpt lat="45.92157" lon="6.49716">
        <ele>1671.8000488281</ele>
        <time>2014-02-12T11:18:21.000Z</time>
      </trkpt>
      <trkpt lat="45.92157" lon="6.49715">
        <ele>1671.5999755859</ele>
        <time>2014-02-12T11:18:22.000Z</time>
      </trkpt>
      <trkpt lat="45.92155" lon="6.49714">
        <ele>1671.1999511719</ele>
        <time>2014-02-12T11:18:23.000Z</time>
      </trkpt>
      <trkpt lat="45.92155" lon="6.49714">
        <ele>1671.1999511719</ele>
        <time>2014-02-12T11:18:24.000Z</time>
      </trkpt>
      <trkpt lat="45.92154" lon="6.49714">
        <ele>1671.1999511719</ele>
        <time>2014-02-12T11:18:25.000Z</time>
      </trkpt>
      <trkpt lat="45.92152" lon="6.49713">
        <ele>1671</ele>
        <time>2014-02-12T11:18:26.000Z</time>
      </trkpt>
      <trkpt lat="45.92151" lon="6.49713">
        <ele>1671</ele>
        <time>2014-02-12T11:18:27.000Z</time>
      </trkpt>
      <trkpt lat="45.9215" lon="6.49713">
        <ele>1671</ele>
        <time>2014-02-12T11:18:28.000Z</time>
      </trkpt>
      <trkpt lat="45.9215" lon="6.49712">
        <ele>1670.8000488281</ele>
        <time>2014-02-12T11:18:29.000Z</time>
      </trkpt>
      <trkpt lat="45.92149" lon="6.49712">
        <ele>1670.8000488281</ele>
        <time>2014-02-12T11:18:30.000Z</time>
      </trkpt>
      <trkpt lat="45.92148" lon="6.49712">
        <ele>1671</ele>
        <time>2014-02-12T11:18:31.000Z</time>
      </trkpt>
      <trkpt lat="45.92147" lon="6.49713">
        <ele>1671.4000244141</ele>
        <time>2014-02-12T11:18:32.000Z</time>
      </trkpt>
      <trkpt lat="45.92147" lon="6.49716">
        <ele>1672.1999511719</ele>
        <time>2014-02-12T11:18:33.000Z</time>
      </trkpt>
      <trkpt lat="45.92147" lon="6.49717">
        <ele>1672.8000488281</ele>
        <time>2014-02-12T11:18:34.000Z</time>
      </trkpt>
      <trkpt lat="45.92147" lon="6.49719">
        <ele>1673.4000244141</ele>
        <time>2014-02-12T11:18:35.000Z</time>
      </trkpt>
      <trkpt lat="45.92147" lon="6.49721">
        <ele>1674.1999511719</ele>
        <time>2014-02-12T11:18:36.000Z</time>
      </trkpt>
      <trkpt lat="45.92149" lon="6.49723">
        <ele>1675</ele>
        <time>2014-02-12T11:18:37.000Z</time>
      </trkpt>
      <trkpt lat="45.92149" lon="6.49724">
        <ele>1675.1999511719</ele>
        <time>2014-02-12T11:18:38.000Z</time>
      </trkpt>
      <trkpt lat="45.9215" lon="6.49724">
        <ele>1675.4000244141</ele>
        <time>2014-02-12T11:18:39.000Z</time>
      </trkpt>
      <trkpt lat="45.92151" lon="6.49725">
        <ele>1675.4000244141</ele>
        <time>2014-02-12T11:18:40.000Z</time>
      </trkpt>
      <trkpt lat="45.92152" lon="6.49726">
        <ele>1675.8000488281</ele>
        <time>2014-02-12T11:18:41.000Z</time>
      </trkpt>
      <trkpt lat="45.92152" lon="6.49727">
        <ele>1676.1999511719</ele>
        <time>2014-02-12T11:18:42.000Z</time>
      </trkpt>
      <trkpt lat="45.92153" lon="6.49729">
        <ele>1677</ele>
        <time>2014-02-12T11:18:43.000Z</time>
      </trkpt>
      <trkpt lat="45.92153" lon="6.49731">
        <ele>1677.5999755859</ele>
        <time>2014-02-12T11:18:44.000Z</time>
      </trkpt>
      <trkpt lat="45.92153" lon="6.49733">
        <ele>1678.1999511719</ele>
        <time>2014-02-12T11:18:45.000Z</time>
      </trkpt>
      <trkpt lat="45.92153" lon="6.49734">
        <ele>1678.8000488281</ele>
        <time>2014-02-12T11:18:46.000Z</time>
      </trkpt>
      <trkpt lat="45.92154" lon="6.49735">
        <ele>1679.1999511719</ele>
        <time>2014-02-12T11:18:47.000Z</time>
      </trkpt>
      <trkpt lat="45.92155" lon="6.49735">
        <ele>1679.5999755859</ele>
        <time>2014-02-12T11:18:48.000Z</time>
      </trkpt>
      <trkpt lat="45.92155" lon="6.49736">
        <ele>1679.8000488281</ele>
        <time>2014-02-12T11:18:49.000Z</time>
      </trkpt>
      <trkpt lat="45.92156" lon="6.49736">
        <ele>1680.1999511719</ele>
        <time>2014-02-12T11:18:50.000Z</time>
      </trkpt>
      <trkpt lat="45.92157" lon="6.49736">
        <ele>1680.1999511719</ele>
        <time>2014-02-12T11:18:51.000Z</time>
      </trkpt>
      <trkpt lat="45.92157" lon="6.49737">
        <ele>1680.5999755859</ele>
        <time>2014-02-12T11:18:52.000Z</time>
      </trkpt>
      <trkpt lat="45.92158" lon="6.49738">
        <ele>1681.4000244141</ele>
        <time>2014-02-12T11:18:53.000Z</time>
      </trkpt>
      <trkpt lat="45.92159" lon="6.4974">
        <ele>1682.5999755859</ele>
        <time>2014-02-12T11:18:54.000Z</time>
      </trkpt>
      <trkpt lat="45.92159" lon="6.49742">
        <ele>1683.5999755859</ele>
        <time>2014-02-12T11:18:55.000Z</time>
      </trkpt>
      <trkpt lat="45.92159" lon="6.49743">
        <ele>1684.1999511719</ele>
        <time>2014-02-12T11:18:56.000Z</time>
      </trkpt>
      <trkpt lat="45.92159" lon="6.49745">
        <ele>1685</ele>
        <time>2014-02-12T11:18:57.000Z</time>
      </trkpt>
      <trkpt lat="45.92159" lon="6.49746">
        <ele>1685.8000488281</ele>
        <time>2014-02-12T11:18:58.000Z</time>
      </trkpt>
      <trkpt lat="45.92159" lon="6.49747">
        <ele>1686.4000244141</ele>
        <time>2014-02-12T11:18:59.000Z</time>
      </trkpt>
      <trkpt lat="45.92159" lon="6.49748">
        <ele>1687</ele>
        <time>2014-02-12T11:19:00.000Z</time>
      </trkpt>
      <trkpt lat="45.92159" lon="6.4975">
        <ele>1688</ele>
        <time>2014-02-12T11:19:01.000Z</time>
      </trkpt>
      <trkpt lat="45.92159" lon="6.49751">
        <ele>1688.4000244141</ele>
        <time>2014-02-12T11:19:02.000Z</time>
      </trkpt>
      <trkpt lat="45.92159" lon="6.49752">
        <ele>1689</ele>
        <time>2014-02-12T11:19:03.000Z</time>
      </trkpt>
      <trkpt lat="45.9216" lon="6.49753">
        <ele>1689.5999755859</ele>
        <time>2014-02-12T11:19:04.000Z</time>
      </trkpt>
      <trkpt lat="45.9216" lon="6.49754">
        <ele>1690.1999511719</ele>
        <time>2014-02-12T11:19:05.000Z</time>
      </trkpt>
      <trkpt lat="45.9216" lon="6.49755">
        <ele>1690.8000488281</ele>
        <time>2014-02-12T11:19:06.000Z</time>
      </trkpt>
      <trkpt lat="45.9216" lon="6.49757">
        <ele>1691.4000244141</ele>
        <time>2014-02-12T11:19:07.000Z</time>
      </trkpt>
      <trkpt lat="45.92161" lon="6.49758">
        <ele>1691.5999755859</ele>
        <time>2014-02-12T11:19:08.000Z</time>
      </trkpt>
      <trkpt lat="45.92161" lon="6.49758">
        <ele>1692</ele>
        <time>2014-02-12T11:19:09.000Z</time>
      </trkpt>
      <trkpt lat="45.92161" lon="6.49758">
        <ele>1692</ele>
        <time>2014-02-12T11:19:10.000Z</time>
      </trkpt>
      <trkpt lat="45.92161" lon="6.49758">
        <ele>1692</ele>
        <time>2014-02-12T11:19:11.000Z</time>
      </trkpt>
      <trkpt lat="45.92161" lon="6.49758">
        <ele>1692</ele>
        <time>2014-02-12T11:19:12.000Z</time>
      </trkpt>
      <trkpt lat="45.92161" lon="6.49758">
        <ele>1691.8000488281</ele>
        <time>2014-02-12T11:19:13.000Z</time>
      </trkpt>
      <trkpt lat="45.9216" lon="6.49758">
        <ele>1691.5999755859</ele>
        <time>2014-02-12T11:19:14.000Z</time>
      </trkpt>
      <trkpt lat="45.92159" lon="6.49757">
        <ele>1691.1999511719</ele>
        <time>2014-02-12T11:19:15.000Z</time>
      </trkpt>
      <trkpt lat="45.92158" lon="6.49757">
        <ele>1691</ele>
        <time>2014-02-12T11:19:16.000Z</time>
      </trkpt>
      <trkpt lat="45.92157" lon="6.49757">
        <ele>1690.5999755859</ele>
        <time>2014-02-12T11:19:17.000Z</time>
      </trkpt>
      <trkpt lat="45.92156" lon="6.49756">
        <ele>1690.1999511719</ele>
        <time>2014-02-12T11:19:18.000Z</time>
      </trkpt>
      <trkpt lat="45.92155" lon="6.49756">
        <ele>1690.1999511719</ele>
        <time>2014-02-12T11:19:19.000Z</time>
      </trkpt>
      <trkpt lat="45.92155" lon="6.49756">
        <ele>1690</ele>
        <time>2014-02-12T11:19:20.000Z</time>
      </trkpt>
      <trkpt lat="45.92154" lon="6.49755">
        <ele>1689.8000488281</ele>
        <time>2014-02-12T11:19:21.000Z</time>
      </trkpt>
      <trkpt lat="45.92154" lon="6.49755">
        <ele>1689.5999755859</ele>
        <time>2014-02-12T11:19:22.000Z</time>
      </trkpt>
      <trkpt lat="45.92153" lon="6.49755">
        <ele>1689.5999755859</ele>
        <time>2014-02-12T11:19:23.000Z</time>
      </trkpt>
      <trkpt lat="45.92152" lon="6.49756">
        <ele>1689.4000244141</ele>
        <time>2014-02-12T11:19:24.000Z</time>
      </trkpt>
      <trkpt lat="45.92151" lon="6.49756">
        <ele>1689.4000244141</ele>
        <time>2014-02-12T11:19:25.000Z</time>
      </trkpt>
      <trkpt lat="45.9215" lon="6.49756">
        <ele>1689.1999511719</ele>
        <time>2014-02-12T11:19:26.000Z</time>
      </trkpt>
      <trkpt lat="45.92149" lon="6.49756">
        <ele>1689</ele>
        <time>2014-02-12T11:19:27.000Z</time>
      </trkpt>
      <trkpt lat="45.92149" lon="6.49756">
        <ele>1689</ele>
        <time>2014-02-12T11:19:28.000Z</time>
      </trkpt>
      <trkpt lat="45.92148" lon="6.49755">
        <ele>1688.8000488281</ele>
        <time>2014-02-12T11:19:29.000Z</time>
      </trkpt>
      <trkpt lat="45.92147" lon="6.49755">
        <ele>1688.4000244141</ele>
        <time>2014-02-12T11:19:30.000Z</time>
      </trkpt>
      <trkpt lat="45.92146" lon="6.49755">
        <ele>1688.1999511719</ele>
        <time>2014-02-12T11:19:31.000Z</time>
      </trkpt>
      <trkpt lat="45.92146" lon="6.49755">
        <ele>1688.1999511719</ele>
        <time>2014-02-12T11:19:32.000Z</time>
      </trkpt>
      <trkpt lat="45.92145" lon="6.49755">
        <ele>1688</ele>
        <time>2014-02-12T11:19:33.000Z</time>
      </trkpt>
      <trkpt lat="45.92144" lon="6.49755">
        <ele>1688</ele>
        <time>2014-02-12T11:19:34.000Z</time>
      </trkpt>
      <trkpt lat="45.92143" lon="6.49755">
        <ele>1687.8000488281</ele>
        <time>2014-02-12T11:19:35.000Z</time>
      </trkpt>
      <trkpt lat="45.92143" lon="6.49755">
        <ele>1687.8000488281</ele>
        <time>2014-02-12T11:19:36.000Z</time>
      </trkpt>
      <trkpt lat="45.92142" lon="6.49756">
        <ele>1687.8000488281</ele>
        <time>2014-02-12T11:19:37.000Z</time>
      </trkpt>
      <trkpt lat="45.92141" lon="6.49756">
        <ele>1687.8000488281</ele>
        <time>2014-02-12T11:19:38.000Z</time>
      </trkpt>
      <trkpt lat="45.92141" lon="6.49756">
        <ele>1687.8000488281</ele>
        <time>2014-02-12T11:19:39.000Z</time>
      </trkpt>
      <trkpt lat="45.9214" lon="6.49756">
        <ele>1688</ele>
        <time>2014-02-12T11:19:40.000Z</time>
      </trkpt>
      <trkpt lat="45.92139" lon="6.49756">
        <ele>1688.1999511719</ele>
        <time>2014-02-12T11:19:41.000Z</time>
      </trkpt>
      <trkpt lat="45.92137" lon="6.49756">
        <ele>1688.4000244141</ele>
        <time>2014-02-12T11:19:42.000Z</time>
      </trkpt>
      <trkpt lat="45.92137" lon="6.49756">
        <ele>1688.4000244141</ele>
        <time>2014-02-12T11:19:43.000Z</time>
      </trkpt>
      <trkpt lat="45.92136" lon="6.49756">
        <ele>1688.4000244141</ele>
        <time>2014-02-12T11:19:44.000Z</time>
      </trkpt>
      <trkpt lat="45.92136" lon="6.49756">
        <ele>1688.5999755859</ele>
        <time>2014-02-12T11:19:45.000Z</time>
      </trkpt>
      <trkpt lat="45.92135" lon="6.49756">
        <ele>1688.8000488281</ele>
        <time>2014-02-12T11:19:46.000Z</time>
      </trkpt>
      <trkpt lat="45.92134" lon="6.49756">
        <ele>1688.8000488281</ele>
        <time>2014-02-12T11:19:47.000Z</time>
      </trkpt>
      <trkpt lat="45.92134" lon="6.49757">
        <ele>1689.1999511719</ele>
        <time>2014-02-12T11:19:48.000Z</time>
      </trkpt>
      <trkpt lat="45.92133" lon="6.49757">
        <ele>1689.4000244141</ele>
        <time>2014-02-12T11:19:49.000Z</time>
      </trkpt>
      <trkpt lat="45.92133" lon="6.49757">
        <ele>1689.5999755859</ele>
        <time>2014-02-12T11:19:50.000Z</time>
      </trkpt>
      <trkpt lat="45.92132" lon="6.49757">
        <ele>1689.8000488281</ele>
        <time>2014-02-12T11:19:51.000Z</time>
      </trkpt>
      <trkpt lat="45.9213" lon="6.49758">
        <ele>1690.1999511719</ele>
        <time>2014-02-12T11:19:52.000Z</time>
      </trkpt>
      <trkpt lat="45.92129" lon="6.49758">
        <ele>1690.4000244141</ele>
        <time>2014-02-12T11:19:53.000Z</time>
      </trkpt>
      <trkpt lat="45.92129" lon="6.49758">
        <ele>1690.4000244141</ele>
        <time>2014-02-12T11:19:54.000Z</time>
      </trkpt>
      <trkpt lat="45.92128" lon="6.49758">
        <ele>1690.5999755859</ele>
        <time>2014-02-12T11:19:55.000Z</time>
      </trkpt>
      <trkpt lat="45.92128" lon="6.49758">
        <ele>1690.5999755859</ele>
        <time>2014-02-12T11:19:56.000Z</time>
      </trkpt>
      <trkpt lat="45.92127" lon="6.49757">
        <ele>1690.5999755859</ele>
        <time>2014-02-12T11:19:57.000Z</time>
      </trkpt>
      <trkpt lat="45.92126" lon="6.49757">
        <ele>1690.8000488281</ele>
        <time>2014-02-12T11:19:58.000Z</time>
      </trkpt>
      <trkpt lat="45.92126" lon="6.49758">
        <ele>1691</ele>
        <time>2014-02-12T11:19:59.000Z</time>
      </trkpt>
      <trkpt lat="45.92125" lon="6.49757">
        <ele>1691</ele>
        <time>2014-02-12T11:20:00.000Z</time>
      </trkpt>
      <trkpt lat="45.92124" lon="6.49757">
        <ele>1691.1999511719</ele>
        <time>2014-02-12T11:20:01.000Z</time>
      </trkpt>
      <trkpt lat="45.92123" lon="6.49757">
        <ele>1691.4000244141</ele>
        <time>2014-02-12T11:20:02.000Z</time>
      </trkpt>
      <trkpt lat="45.92122" lon="6.49757">
        <ele>1691.5999755859</ele>
        <time>2014-02-12T11:20:03.000Z</time>
      </trkpt>
      <trkpt lat="45.92121" lon="6.49757">
        <ele>1691.5999755859</ele>
        <time>2014-02-12T11:20:04.000Z</time>
      </trkpt>
      <trkpt lat="45.9212" lon="6.49757">
        <ele>1691.5999755859</ele>
        <time>2014-02-12T11:20:05.000Z</time>
      </trkpt>
      <trkpt lat="45.92119" lon="6.49756">
        <ele>1691.5999755859</ele>
        <time>2014-02-12T11:20:06.000Z</time>
      </trkpt>
      <trkpt lat="45.92118" lon="6.49756">
        <ele>1691.5999755859</ele>
        <time>2014-02-12T11:20:07.000Z</time>
      </trkpt>
      <trkpt lat="45.92118" lon="6.49755">
        <ele>1691.4000244141</ele>
        <time>2014-02-12T11:20:08.000Z</time>
      </trkpt>
      <trkpt lat="45.92116" lon="6.49755">
        <ele>1691.5999755859</ele>
        <time>2014-02-12T11:20:09.000Z</time>
      </trkpt>
      <trkpt lat="45.92116" lon="6.49755">
        <ele>1691.5999755859</ele>
        <time>2014-02-12T11:20:10.000Z</time>
      </trkpt>
      <trkpt lat="45.92115" lon="6.49755">
        <ele>1691.8000488281</ele>
        <time>2014-02-12T11:20:11.000Z</time>
      </trkpt>
      <trkpt lat="45.92115" lon="6.49755">
        <ele>1691.8000488281</ele>
        <time>2014-02-12T11:20:12.000Z</time>
      </trkpt>
      <trkpt lat="45.92114" lon="6.49755">
        <ele>1692</ele>
        <time>2014-02-12T11:20:13.000Z</time>
      </trkpt>
      <trkpt lat="45.92113" lon="6.49754">
        <ele>1692</ele>
        <time>2014-02-12T11:20:14.000Z</time>
      </trkpt>
      <trkpt lat="45.92113" lon="6.49754">
        <ele>1691.8000488281</ele>
        <time>2014-02-12T11:20:15.000Z</time>
      </trkpt>
      <trkpt lat="45.92113" lon="6.49754">
        <ele>1691.8000488281</ele>
        <time>2014-02-12T11:20:16.000Z</time>
      </trkpt>
      <trkpt lat="45.92112" lon="6.49753">
        <ele>1691.5999755859</ele>
        <time>2014-02-12T11:20:17.000Z</time>
      </trkpt>
      <trkpt lat="45.92111" lon="6.49753">
        <ele>1691.8000488281</ele>
        <time>2014-02-12T11:20:18.000Z</time>
      </trkpt>
      <trkpt lat="45.9211" lon="6.49752">
        <ele>1691.8000488281</ele>
        <time>2014-02-12T11:20:19.000Z</time>
      </trkpt>
      <trkpt lat="45.9211" lon="6.49753">
        <ele>1692</ele>
        <time>2014-02-12T11:20:20.000Z</time>
      </trkpt>
      <trkpt lat="45.92108" lon="6.49752">
        <ele>1692</ele>
        <time>2014-02-12T11:20:21.000Z</time>
      </trkpt>
      <trkpt lat="45.92108" lon="6.49753">
        <ele>1692.1999511719</ele>
        <time>2014-02-12T11:20:22.000Z</time>
      </trkpt>
      <trkpt lat="45.92108" lon="6.49753">
        <ele>1692.4000244141</ele>
        <time>2014-02-12T11:20:23.000Z</time>
      </trkpt>
      <trkpt lat="45.92107" lon="6.49753">
        <ele>1692.5999755859</ele>
        <time>2014-02-12T11:20:24.000Z</time>
      </trkpt>
      <trkpt lat="45.92106" lon="6.49753">
        <ele>1692.8000488281</ele>
        <time>2014-02-12T11:20:25.000Z</time>
      </trkpt>
      <trkpt lat="45.92106" lon="6.49753">
        <ele>1692.8000488281</ele>
        <time>2014-02-12T11:20:26.000Z</time>
      </trkpt>
      <trkpt lat="45.92106" lon="6.49753">
        <ele>1692.8000488281</ele>
        <time>2014-02-12T11:20:27.000Z</time>
      </trkpt>
      <trkpt lat="45.92106" lon="6.49753">
        <ele>1692.8000488281</ele>
        <time>2014-02-12T11:20:28.000Z</time>
      </trkpt>
      <trkpt lat="45.92107" lon="6.49756">
        <ele>1693.5999755859</ele>
        <time>2014-02-12T11:20:29.000Z</time>
      </trkpt>
      <trkpt lat="45.92108" lon="6.49759">
        <ele>1694.5999755859</ele>
        <time>2014-02-12T11:20:30.000Z</time>
      </trkpt>
      <trkpt lat="45.92108" lon="6.49762">
        <ele>1695.8000488281</ele>
        <time>2014-02-12T11:20:31.000Z</time>
      </trkpt>
      <trkpt lat="45.92108" lon="6.49763">
        <ele>1696.1999511719</ele>
        <time>2014-02-12T11:20:32.000Z</time>
      </trkpt>
      <trkpt lat="45.92109" lon="6.49765">
        <ele>1696.8000488281</ele>
        <time>2014-02-12T11:20:33.000Z</time>
      </trkpt>
      <trkpt lat="45.92109" lon="6.49766">
        <ele>1697.1999511719</ele>
        <time>2014-02-12T11:20:34.000Z</time>
      </trkpt>
      <trkpt lat="45.92109" lon="6.49767">
        <ele>1697.4000244141</ele>
        <time>2014-02-12T11:20:35.000Z</time>
      </trkpt>
      <trkpt lat="45.9211" lon="6.49769">
        <ele>1698.1999511719</ele>
        <time>2014-02-12T11:20:36.000Z</time>
      </trkpt>
      <trkpt lat="45.92109" lon="6.4977">
        <ele>1698.5999755859</ele>
        <time>2014-02-12T11:20:37.000Z</time>
      </trkpt>
      <trkpt lat="45.92109" lon="6.49771">
        <ele>1699.1999511719</ele>
        <time>2014-02-12T11:20:38.000Z</time>
      </trkpt>
      <trkpt lat="45.92109" lon="6.49773">
        <ele>1699.8000488281</ele>
        <time>2014-02-12T11:20:39.000Z</time>
      </trkpt>
      <trkpt lat="45.92109" lon="6.49773">
        <ele>1700</ele>
        <time>2014-02-12T11:20:40.000Z</time>
      </trkpt>
      <trkpt lat="45.92109" lon="6.49773">
        <ele>1700</ele>
        <time>2014-02-12T11:20:41.000Z</time>
      </trkpt>
      <trkpt lat="45.92109" lon="6.49774">
        <ele>1700.4000244141</ele>
        <time>2014-02-12T11:20:42.000Z</time>
      </trkpt>
      <trkpt lat="45.92109" lon="6.49776">
        <ele>1701.1999511719</ele>
        <time>2014-02-12T11:20:43.000Z</time>
      </trkpt>
      <trkpt lat="45.92109" lon="6.49776">
        <ele>1701.1999511719</ele>
        <time>2014-02-12T11:20:44.000Z</time>
      </trkpt>
      <trkpt lat="45.92109" lon="6.49777">
        <ele>1701.5999755859</ele>
        <time>2014-02-12T11:20:45.000Z</time>
      </trkpt>
      <trkpt lat="45.92109" lon="6.49777">
        <ele>1701.5999755859</ele>
        <time>2014-02-12T11:20:46.000Z</time>
      </trkpt>
      <trkpt lat="45.92109" lon="6.49779">
        <ele>1702.1999511719</ele>
        <time>2014-02-12T11:20:47.000Z</time>
      </trkpt>
      <trkpt lat="45.92109" lon="6.4978">
        <ele>1702.5999755859</ele>
        <time>2014-02-12T11:20:48.000Z</time>
      </trkpt>
      <trkpt lat="45.92109" lon="6.4978">
        <ele>1702.5999755859</ele>
        <time>2014-02-12T11:20:49.000Z</time>
      </trkpt>
      <trkpt lat="45.92108" lon="6.49781">
        <ele>1703</ele>
        <time>2014-02-12T11:20:50.000Z</time>
      </trkpt>
      <trkpt lat="45.92108" lon="6.49782">
        <ele>1703.4000244141</ele>
        <time>2014-02-12T11:20:51.000Z</time>
      </trkpt>
      <trkpt lat="45.92107" lon="6.49783">
        <ele>1704.1999511719</ele>
        <time>2014-02-12T11:20:52.000Z</time>
      </trkpt>
      <trkpt lat="45.92107" lon="6.49785">
        <ele>1704.5999755859</ele>
        <time>2014-02-12T11:20:53.000Z</time>
      </trkpt>
      <trkpt lat="45.92107" lon="6.49785">
        <ele>1704.5999755859</ele>
        <time>2014-02-12T11:20:54.000Z</time>
      </trkpt>
      <trkpt lat="45.92107" lon="6.49785">
        <ele>1704.5999755859</ele>
        <time>2014-02-12T11:20:55.000Z</time>
      </trkpt>
      <trkpt lat="45.92107" lon="6.49785">
        <ele>1704.5999755859</ele>
        <time>2014-02-12T11:20:56.000Z</time>
      </trkpt>
      <trkpt lat="45.92106" lon="6.49784">
        <ele>1704.5999755859</ele>
        <time>2014-02-12T11:20:57.000Z</time>
      </trkpt>
      <trkpt lat="45.92106" lon="6.49784">
        <ele>1704.4000244141</ele>
        <time>2014-02-12T11:20:58.000Z</time>
      </trkpt>
      <trkpt lat="45.92104" lon="6.49782">
        <ele>1704.1999511719</ele>
        <time>2014-02-12T11:20:59.000Z</time>
      </trkpt>
      <trkpt lat="45.92104" lon="6.49782">
        <ele>1704.1999511719</ele>
        <time>2014-02-12T11:21:00.000Z</time>
      </trkpt>
      <trkpt lat="45.92103" lon="6.49781">
        <ele>1704</ele>
        <time>2014-02-12T11:21:01.000Z</time>
      </trkpt>
      <trkpt lat="45.92102" lon="6.4978">
        <ele>1703.8000488281</ele>
        <time>2014-02-12T11:21:02.000Z</time>
      </trkpt>
      <trkpt lat="45.92102" lon="6.4978">
        <ele>1703.5999755859</ele>
        <time>2014-02-12T11:21:03.000Z</time>
      </trkpt>
      <trkpt lat="45.92101" lon="6.49779">
        <ele>1703.4000244141</ele>
        <time>2014-02-12T11:21:04.000Z</time>
      </trkpt>
      <trkpt lat="45.92101" lon="6.49778">
        <ele>1703.4000244141</ele>
        <time>2014-02-12T11:21:05.000Z</time>
      </trkpt>
      <trkpt lat="45.921" lon="6.49778">
        <ele>1703.1999511719</ele>
        <time>2014-02-12T11:21:06.000Z</time>
      </trkpt>
      <trkpt lat="45.92099" lon="6.49777">
        <ele>1703.1999511719</ele>
        <time>2014-02-12T11:21:07.000Z</time>
      </trkpt>
      <trkpt lat="45.92099" lon="6.49777">
        <ele>1703.1999511719</ele>
        <time>2014-02-12T11:21:08.000Z</time>
      </trkpt>
      <trkpt lat="45.92098" lon="6.49775">
        <ele>1702.8000488281</ele>
        <time>2014-02-12T11:21:09.000Z</time>
      </trkpt>
      <trkpt lat="45.92097" lon="6.49775">
        <ele>1702.5999755859</ele>
        <time>2014-02-12T11:21:10.000Z</time>
      </trkpt>
      <trkpt lat="45.92096" lon="6.49775">
        <ele>1702.8000488281</ele>
        <time>2014-02-12T11:21:11.000Z</time>
      </trkpt>
      <trkpt lat="45.92095" lon="6.49775">
        <ele>1703</ele>
        <time>2014-02-12T11:21:12.000Z</time>
      </trkpt>
      <trkpt lat="45.92095" lon="6.49775">
        <ele>1703</ele>
        <time>2014-02-12T11:21:13.000Z</time>
      </trkpt>
      <trkpt lat="45.92094" lon="6.49775">
        <ele>1703</ele>
        <time>2014-02-12T11:21:14.000Z</time>
      </trkpt>
      <trkpt lat="45.92092" lon="6.49774">
        <ele>1703</ele>
        <time>2014-02-12T11:21:15.000Z</time>
      </trkpt>
      <trkpt lat="45.92092" lon="6.49774">
        <ele>1703</ele>
        <time>2014-02-12T11:21:16.000Z</time>
      </trkpt>
      <trkpt lat="45.92091" lon="6.49774">
        <ele>1703.1999511719</ele>
        <time>2014-02-12T11:21:17.000Z</time>
      </trkpt>
      <trkpt lat="45.9209" lon="6.49774">
        <ele>1703.1999511719</ele>
        <time>2014-02-12T11:21:18.000Z</time>
      </trkpt>
      <trkpt lat="45.9209" lon="6.49774">
        <ele>1703.1999511719</ele>
        <time>2014-02-12T11:21:19.000Z</time>
      </trkpt>
      <trkpt lat="45.92088" lon="6.49773">
        <ele>1703.1999511719</ele>
        <time>2014-02-12T11:21:20.000Z</time>
      </trkpt>
      <trkpt lat="45.92088" lon="6.49773">
        <ele>1703</ele>
        <time>2014-02-12T11:21:21.000Z</time>
      </trkpt>
      <trkpt lat="45.92088" lon="6.49772">
        <ele>1702.8000488281</ele>
        <time>2014-02-12T11:21:22.000Z</time>
      </trkpt>
      <trkpt lat="45.92087" lon="6.49771">
        <ele>1702.5999755859</ele>
        <time>2014-02-12T11:21:23.000Z</time>
      </trkpt>
      <trkpt lat="45.92087" lon="6.49771">
        <ele>1702.8000488281</ele>
        <time>2014-02-12T11:21:24.000Z</time>
      </trkpt>
      <trkpt lat="45.92086" lon="6.49771">
        <ele>1702.5999755859</ele>
        <time>2014-02-12T11:21:25.000Z</time>
      </trkpt>
      <trkpt lat="45.92085" lon="6.4977">
        <ele>1702.5999755859</ele>
        <time>2014-02-12T11:21:26.000Z</time>
      </trkpt>
      <trkpt lat="45.92084" lon="6.4977">
        <ele>1702.4000244141</ele>
        <time>2014-02-12T11:21:27.000Z</time>
      </trkpt>
      <trkpt lat="45.92084" lon="6.49769">
        <ele>1702.4000244141</ele>
        <time>2014-02-12T11:21:28.000Z</time>
      </trkpt>
      <trkpt lat="45.92082" lon="6.49769">
        <ele>1702.4000244141</ele>
        <time>2014-02-12T11:21:29.000Z</time>
      </trkpt>
      <trkpt lat="45.92082" lon="6.49769">
        <ele>1702.4000244141</ele>
        <time>2014-02-12T11:21:30.000Z</time>
      </trkpt>
      <trkpt lat="45.92081" lon="6.49769">
        <ele>1702.5999755859</ele>
        <time>2014-02-12T11:21:31.000Z</time>
      </trkpt>
      <trkpt lat="45.9208" lon="6.4977">
        <ele>1702.8000488281</ele>
        <time>2014-02-12T11:21:32.000Z</time>
      </trkpt>
      <trkpt lat="45.92079" lon="6.4977">
        <ele>1703</ele>
        <time>2014-02-12T11:21:33.000Z</time>
      </trkpt>
      <trkpt lat="45.92079" lon="6.49771">
        <ele>1703.1999511719</ele>
        <time>2014-02-12T11:21:34.000Z</time>
      </trkpt>
      <trkpt lat="45.92078" lon="6.49771">
        <ele>1703.4000244141</ele>
        <time>2014-02-12T11:21:35.000Z</time>
      </trkpt>
      <trkpt lat="45.92077" lon="6.49771">
        <ele>1703.4000244141</ele>
        <time>2014-02-12T11:21:36.000Z</time>
      </trkpt>
      <trkpt lat="45.92077" lon="6.4977">
        <ele>1703.4000244141</ele>
        <time>2014-02-12T11:21:37.000Z</time>
      </trkpt>
      <trkpt lat="45.92076" lon="6.4977">
        <ele>1703.4000244141</ele>
        <time>2014-02-12T11:21:38.000Z</time>
      </trkpt>
      <trkpt lat="45.92075" lon="6.49769">
        <ele>1703.1999511719</ele>
        <time>2014-02-12T11:21:39.000Z</time>
      </trkpt>
      <trkpt lat="45.92074" lon="6.49768">
        <ele>1703</ele>
        <time>2014-02-12T11:21:40.000Z</time>
      </trkpt>
      <trkpt lat="45.92073" lon="6.49768">
        <ele>1703</ele>
        <time>2014-02-12T11:21:41.000Z</time>
      </trkpt>
      <trkpt lat="45.92073" lon="6.49767">
        <ele>1702.8000488281</ele>
        <time>2014-02-12T11:21:42.000Z</time>
      </trkpt>
      <trkpt lat="45.92072" lon="6.49767">
        <ele>1702.8000488281</ele>
        <time>2014-02-12T11:21:43.000Z</time>
      </trkpt>
      <trkpt lat="45.92071" lon="6.49767">
        <ele>1702.8000488281</ele>
        <time>2014-02-12T11:21:44.000Z</time>
      </trkpt>
      <trkpt lat="45.9207" lon="6.49767">
        <ele>1703</ele>
        <time>2014-02-12T11:21:45.000Z</time>
      </trkpt>
      <trkpt lat="45.92069" lon="6.49766">
        <ele>1703</ele>
        <time>2014-02-12T11:21:46.000Z</time>
      </trkpt>
      <trkpt lat="45.92068" lon="6.49766">
        <ele>1703</ele>
        <time>2014-02-12T11:21:47.000Z</time>
      </trkpt>
      <trkpt lat="45.92067" lon="6.49766">
        <ele>1703</ele>
        <time>2014-02-12T11:21:48.000Z</time>
      </trkpt>
      <trkpt lat="45.92066" lon="6.49766">
        <ele>1703.1999511719</ele>
        <time>2014-02-12T11:21:49.000Z</time>
      </trkpt>
      <trkpt lat="45.92065" lon="6.49766">
        <ele>1703.1999511719</ele>
        <time>2014-02-12T11:21:50.000Z</time>
      </trkpt>
      <trkpt lat="45.92064" lon="6.49766">
        <ele>1703.4000244141</ele>
        <time>2014-02-12T11:21:51.000Z</time>
      </trkpt>
      <trkpt lat="45.92063" lon="6.49766">
        <ele>1703.5999755859</ele>
        <time>2014-02-12T11:21:52.000Z</time>
      </trkpt>
      <trkpt lat="45.92063" lon="6.49766">
        <ele>1703.8000488281</ele>
        <time>2014-02-12T11:21:53.000Z</time>
      </trkpt>
      <trkpt lat="45.92062" lon="6.49766">
        <ele>1703.8000488281</ele>
        <time>2014-02-12T11:21:54.000Z</time>
      </trkpt>
      <trkpt lat="45.92061" lon="6.49766">
        <ele>1703.8000488281</ele>
        <time>2014-02-12T11:21:55.000Z</time>
      </trkpt>
      <trkpt lat="45.9206" lon="6.49766">
        <ele>1703.8000488281</ele>
        <time>2014-02-12T11:21:56.000Z</time>
      </trkpt>
      <trkpt lat="45.92059" lon="6.49766">
        <ele>1704</ele>
        <time>2014-02-12T11:21:57.000Z</time>
      </trkpt>
      <trkpt lat="45.92058" lon="6.49767">
        <ele>1704.1999511719</ele>
        <time>2014-02-12T11:21:58.000Z</time>
      </trkpt>
      <trkpt lat="45.92057" lon="6.49767">
        <ele>1704.4000244141</ele>
        <time>2014-02-12T11:21:59.000Z</time>
      </trkpt>
      <trkpt lat="45.92056" lon="6.49767">
        <ele>1704.5999755859</ele>
        <time>2014-02-12T11:22:00.000Z</time>
      </trkpt>
      <trkpt lat="45.92055" lon="6.49766">
        <ele>1704.8000488281</ele>
        <time>2014-02-12T11:22:01.000Z</time>
      </trkpt>
      <trkpt lat="45.92055" lon="6.49767">
        <ele>1705.1999511719</ele>
        <time>2014-02-12T11:22:02.000Z</time>
      </trkpt>
      <trkpt lat="45.92054" lon="6.49767">
        <ele>1705.4000244141</ele>
        <time>2014-02-12T11:22:03.000Z</time>
      </trkpt>
      <trkpt lat="45.92053" lon="6.49767">
        <ele>1705.8000488281</ele>
        <time>2014-02-12T11:22:04.000Z</time>
      </trkpt>
      <trkpt lat="45.92053" lon="6.49768">
        <ele>1706.1999511719</ele>
        <time>2014-02-12T11:22:05.000Z</time>
      </trkpt>
      <trkpt lat="45.92052" lon="6.49768">
        <ele>1706.1999511719</ele>
        <time>2014-02-12T11:22:06.000Z</time>
      </trkpt>
      <trkpt lat="45.92052" lon="6.49768">
        <ele>1706.5999755859</ele>
        <time>2014-02-12T11:22:07.000Z</time>
      </trkpt>
      <trkpt lat="45.92051" lon="6.49768">
        <ele>1706.8000488281</ele>
        <time>2014-02-12T11:22:08.000Z</time>
      </trkpt>
      <trkpt lat="45.92051" lon="6.49768">
        <ele>1707</ele>
        <time>2014-02-12T11:22:09.000Z</time>
      </trkpt>
      <trkpt lat="45.9205" lon="6.49768">
        <ele>1707.1999511719</ele>
        <time>2014-02-12T11:22:10.000Z</time>
      </trkpt>
      <trkpt lat="45.92049" lon="6.49768">
        <ele>1707.1999511719</ele>
        <time>2014-02-12T11:22:11.000Z</time>
      </trkpt>
      <trkpt lat="45.92048" lon="6.49767">
        <ele>1707.4000244141</ele>
        <time>2014-02-12T11:22:12.000Z</time>
      </trkpt>
      <trkpt lat="45.92047" lon="6.49767">
        <ele>1707.5999755859</ele>
        <time>2014-02-12T11:22:13.000Z</time>
      </trkpt>
      <trkpt lat="45.92047" lon="6.49766">
        <ele>1707.8000488281</ele>
        <time>2014-02-12T11:22:14.000Z</time>
      </trkpt>
      <trkpt lat="45.92046" lon="6.49769">
        <ele>1708.8000488281</ele>
        <time>2014-02-12T11:22:15.000Z</time>
      </trkpt>
      <trkpt lat="45.92046" lon="6.49771">
        <ele>1709.4000244141</ele>
        <time>2014-02-12T11:22:16.000Z</time>
      </trkpt>
      <trkpt lat="45.92046" lon="6.49774">
        <ele>1710.1999511719</ele>
        <time>2014-02-12T11:22:17.000Z</time>
      </trkpt>
      <trkpt lat="45.92046" lon="6.49775">
        <ele>1710.5999755859</ele>
        <time>2014-02-12T11:22:18.000Z</time>
      </trkpt>
      <trkpt lat="45.92046" lon="6.49776">
        <ele>1711.1999511719</ele>
        <time>2014-02-12T11:22:19.000Z</time>
      </trkpt>
      <trkpt lat="45.92046" lon="6.49777">
        <ele>1711.4000244141</ele>
        <time>2014-02-12T11:22:20.000Z</time>
      </trkpt>
      <trkpt lat="45.92046" lon="6.49777">
        <ele>1711.4000244141</ele>
        <time>2014-02-12T11:22:21.000Z</time>
      </trkpt>
      <trkpt lat="45.92046" lon="6.49778">
        <ele>1711.5999755859</ele>
        <time>2014-02-12T11:22:22.000Z</time>
      </trkpt>
      <trkpt lat="45.92046" lon="6.49778">
        <ele>1711.5999755859</ele>
        <time>2014-02-12T11:22:23.000Z</time>
      </trkpt>
      <trkpt lat="45.92046" lon="6.49779">
        <ele>1712</ele>
        <time>2014-02-12T11:22:24.000Z</time>
      </trkpt>
      <trkpt lat="45.92046" lon="6.49781">
        <ele>1712.5999755859</ele>
        <time>2014-02-12T11:22:25.000Z</time>
      </trkpt>
      <trkpt lat="45.92045" lon="6.49783">
        <ele>1713.4000244141</ele>
        <time>2014-02-12T11:22:26.000Z</time>
      </trkpt>
      <trkpt lat="45.92045" lon="6.49785">
        <ele>1713.8000488281</ele>
        <time>2014-02-12T11:22:27.000Z</time>
      </trkpt>
      <trkpt lat="45.92045" lon="6.49787">
        <ele>1714.5999755859</ele>
        <time>2014-02-12T11:22:28.000Z</time>
      </trkpt>
      <trkpt lat="45.92045" lon="6.4979">
        <ele>1715.4000244141</ele>
        <time>2014-02-12T11:22:29.000Z</time>
      </trkpt>
      <trkpt lat="45.92045" lon="6.4979">
        <ele>1715.5999755859</ele>
        <time>2014-02-12T11:22:30.000Z</time>
      </trkpt>
      <trkpt lat="45.92045" lon="6.49791">
        <ele>1716.1999511719</ele>
        <time>2014-02-12T11:22:31.000Z</time>
      </trkpt>
      <trkpt lat="45.92045" lon="6.49793">
        <ele>1716.5999755859</ele>
        <time>2014-02-12T11:22:32.000Z</time>
      </trkpt>
      <trkpt lat="45.92044" lon="6.49795">
        <ele>1717.1999511719</ele>
        <time>2014-02-12T11:22:33.000Z</time>
      </trkpt>
      <trkpt lat="45.92044" lon="6.49795">
        <ele>1717.5999755859</ele>
        <time>2014-02-12T11:22:34.000Z</time>
      </trkpt>
      <trkpt lat="45.92044" lon="6.49795">
        <ele>1717.5999755859</ele>
        <time>2014-02-12T11:22:35.000Z</time>
      </trkpt>
      <trkpt lat="45.92044" lon="6.49795">
        <ele>1717.5999755859</ele>
        <time>2014-02-12T11:22:36.000Z</time>
      </trkpt>
      <trkpt lat="45.92044" lon="6.49798">
        <ele>1718.4000244141</ele>
        <time>2014-02-12T11:22:37.000Z</time>
      </trkpt>
      <trkpt lat="45.92043" lon="6.498">
        <ele>1719.1999511719</ele>
        <time>2014-02-12T11:22:38.000Z</time>
      </trkpt>
      <trkpt lat="45.92043" lon="6.498">
        <ele>1719.1999511719</ele>
        <time>2014-02-12T11:22:39.000Z</time>
      </trkpt>
      <trkpt lat="45.92043" lon="6.49801">
        <ele>1719.5999755859</ele>
        <time>2014-02-12T11:22:40.000Z</time>
      </trkpt>
      <trkpt lat="45.92043" lon="6.49801">
        <ele>1719.5999755859</ele>
        <time>2014-02-12T11:22:41.000Z</time>
      </trkpt>
      <trkpt lat="45.92044" lon="6.49802">
        <ele>1719.8000488281</ele>
        <time>2014-02-12T11:22:42.000Z</time>
      </trkpt>
      <trkpt lat="45.92044" lon="6.49803">
        <ele>1720</ele>
        <time>2014-02-12T11:22:43.000Z</time>
      </trkpt>
      <trkpt lat="45.92044" lon="6.49803">
        <ele>1720.1999511719</ele>
        <time>2014-02-12T11:22:44.000Z</time>
      </trkpt>
      <trkpt lat="45.92044" lon="6.49804">
        <ele>1720.5999755859</ele>
        <time>2014-02-12T11:22:45.000Z</time>
      </trkpt>
      <trkpt lat="45.92044" lon="6.49805">
        <ele>1720.8000488281</ele>
        <time>2014-02-12T11:22:46.000Z</time>
      </trkpt>
      <trkpt lat="45.92045" lon="6.49807">
        <ele>1721</ele>
        <time>2014-02-12T11:22:47.000Z</time>
      </trkpt>
      <trkpt lat="45.92045" lon="6.49808">
        <ele>1721.5999755859</ele>
        <time>2014-02-12T11:22:48.000Z</time>
      </trkpt>
      <trkpt lat="45.92045" lon="6.4981">
        <ele>1721.8000488281</ele>
        <time>2014-02-12T11:22:49.000Z</time>
      </trkpt>
      <trkpt lat="45.92046" lon="6.49812">
        <ele>1722.4000244141</ele>
        <time>2014-02-12T11:22:50.000Z</time>
      </trkpt>
      <trkpt lat="45.92046" lon="6.49813">
        <ele>1722.5999755859</ele>
        <time>2014-02-12T11:22:51.000Z</time>
      </trkpt>
      <trkpt lat="45.92047" lon="6.49814">
        <ele>1722.8000488281</ele>
        <time>2014-02-12T11:22:52.000Z</time>
      </trkpt>
      <trkpt lat="45.92047" lon="6.49815">
        <ele>1723</ele>
        <time>2014-02-12T11:22:53.000Z</time>
      </trkpt>
      <trkpt lat="45.92048" lon="6.49816">
        <ele>1723.1999511719</ele>
        <time>2014-02-12T11:22:54.000Z</time>
      </trkpt>
      <trkpt lat="45.92048" lon="6.49816">
        <ele>1723.1999511719</ele>
        <time>2014-02-12T11:22:55.000Z</time>
      </trkpt>
      <trkpt lat="45.92048" lon="6.49817">
        <ele>1723.4000244141</ele>
        <time>2014-02-12T11:22:56.000Z</time>
      </trkpt>
      <trkpt lat="45.92048" lon="6.49818">
        <ele>1723.8000488281</ele>
        <time>2014-02-12T11:22:57.000Z</time>
      </trkpt>
      <trkpt lat="45.92049" lon="6.49819">
        <ele>1724.1999511719</ele>
        <time>2014-02-12T11:22:58.000Z</time>
      </trkpt>
      <trkpt lat="45.92049" lon="6.4982">
        <ele>1724.5999755859</ele>
        <time>2014-02-12T11:22:59.000Z</time>
      </trkpt>
      <trkpt lat="45.92049" lon="6.49821">
        <ele>1724.8000488281</ele>
        <time>2014-02-12T11:23:00.000Z</time>
      </trkpt>
      <trkpt lat="45.92049" lon="6.49821">
        <ele>1724.8000488281</ele>
        <time>2014-02-12T11:23:01.000Z</time>
      </trkpt>
      <trkpt lat="45.92049" lon="6.49821">
        <ele>1724.8000488281</ele>
        <time>2014-02-12T11:23:02.000Z</time>
      </trkpt>
      <trkpt lat="45.9205" lon="6.49823">
        <ele>1725.4000244141</ele>
        <time>2014-02-12T11:23:03.000Z</time>
      </trkpt>
      <trkpt lat="45.9205" lon="6.49824">
        <ele>1726</ele>
        <time>2014-02-12T11:23:04.000Z</time>
      </trkpt>
      <trkpt lat="45.92051" lon="6.49825">
        <ele>1726.4000244141</ele>
        <time>2014-02-12T11:23:05.000Z</time>
      </trkpt>
      <trkpt lat="45.92051" lon="6.49827">
        <ele>1726.8000488281</ele>
        <time>2014-02-12T11:23:06.000Z</time>
      </trkpt>
      <trkpt lat="45.92052" lon="6.49827">
        <ele>1727.1999511719</ele>
        <time>2014-02-12T11:23:07.000Z</time>
      </trkpt>
      <trkpt lat="45.92053" lon="6.4983">
        <ele>1728</ele>
        <time>2014-02-12T11:23:08.000Z</time>
      </trkpt>
      <trkpt lat="45.92052" lon="6.49831">
        <ele>1728.4000244141</ele>
        <time>2014-02-12T11:23:09.000Z</time>
      </trkpt>
      <trkpt lat="45.92052" lon="6.49831">
        <ele>1728.4000244141</ele>
        <time>2014-02-12T11:23:10.000Z</time>
      </trkpt>
      <trkpt lat="45.92053" lon="6.49833">
        <ele>1729.4000244141</ele>
        <time>2014-02-12T11:23:11.000Z</time>
      </trkpt>
      <trkpt lat="45.92052" lon="6.49834">
        <ele>1730</ele>
        <time>2014-02-12T11:23:12.000Z</time>
      </trkpt>
      <trkpt lat="45.92052" lon="6.49835">
        <ele>1730.8000488281</ele>
        <time>2014-02-12T11:23:13.000Z</time>
      </trkpt>
      <trkpt lat="45.92052" lon="6.49837">
        <ele>1731.4000244141</ele>
        <time>2014-02-12T11:23:14.000Z</time>
      </trkpt>
      <trkpt lat="45.92052" lon="6.49838">
        <ele>1732.1999511719</ele>
        <time>2014-02-12T11:23:15.000Z</time>
      </trkpt>
      <trkpt lat="45.92053" lon="6.49841">
        <ele>1733.1999511719</ele>
        <time>2014-02-12T11:23:16.000Z</time>
      </trkpt>
      <trkpt lat="45.92052" lon="6.49842">
        <ele>1733.8000488281</ele>
        <time>2014-02-12T11:23:17.000Z</time>
      </trkpt>
      <trkpt lat="45.92052" lon="6.49842">
        <ele>1733.8000488281</ele>
        <time>2014-02-12T11:23:18.000Z</time>
      </trkpt>
      <trkpt lat="45.92053" lon="6.49843">
        <ele>1734.1999511719</ele>
        <time>2014-02-12T11:23:19.000Z</time>
      </trkpt>
      <trkpt lat="45.92053" lon="6.49844">
        <ele>1734.5999755859</ele>
        <time>2014-02-12T11:23:20.000Z</time>
      </trkpt>
      <trkpt lat="45.92053" lon="6.49844">
        <ele>1734.5999755859</ele>
        <time>2014-02-12T11:23:21.000Z</time>
      </trkpt>
      <trkpt lat="45.92053" lon="6.49846">
        <ele>1735.5999755859</ele>
        <time>2014-02-12T11:23:22.000Z</time>
      </trkpt>
      <trkpt lat="45.92053" lon="6.49846">
        <ele>1735.5999755859</ele>
        <time>2014-02-12T11:23:23.000Z</time>
      </trkpt>
      <trkpt lat="45.92053" lon="6.49846">
        <ele>1735.5999755859</ele>
        <time>2014-02-12T11:23:24.000Z</time>
      </trkpt>
      <trkpt lat="45.92053" lon="6.49847">
        <ele>1736.1999511719</ele>
        <time>2014-02-12T11:23:25.000Z</time>
      </trkpt>
      <trkpt lat="45.92053" lon="6.49847">
        <ele>1736.1999511719</ele>
        <time>2014-02-12T11:23:26.000Z</time>
      </trkpt>
      <trkpt lat="45.92053" lon="6.49847">
        <ele>1736.1999511719</ele>
        <time>2014-02-12T11:23:27.000Z</time>
      </trkpt>
      <trkpt lat="45.92053" lon="6.49847">
        <ele>1736.1999511719</ele>
        <time>2014-02-12T11:23:28.000Z</time>
      </trkpt>
      <trkpt lat="45.92052" lon="6.49846">
        <ele>1736.1999511719</ele>
        <time>2014-02-12T11:23:29.000Z</time>
      </trkpt>
      <trkpt lat="45.92051" lon="6.49846">
        <ele>1736.1999511719</ele>
        <time>2014-02-12T11:23:30.000Z</time>
      </trkpt>
      <trkpt lat="45.9205" lon="6.49844">
        <ele>1736</ele>
        <time>2014-02-12T11:23:31.000Z</time>
      </trkpt>
      <trkpt lat="45.9205" lon="6.49844">
        <ele>1735.8000488281</ele>
        <time>2014-02-12T11:23:32.000Z</time>
      </trkpt>
      <trkpt lat="45.92049" lon="6.49843">
        <ele>1735.8000488281</ele>
        <time>2014-02-12T11:23:33.000Z</time>
      </trkpt>
      <trkpt lat="45.92047" lon="6.49841">
        <ele>1735.5999755859</ele>
        <time>2014-02-12T11:23:34.000Z</time>
      </trkpt>
      <trkpt lat="45.92046" lon="6.49841">
        <ele>1735.4000244141</ele>
        <time>2014-02-12T11:23:35.000Z</time>
      </trkpt>
      <trkpt lat="45.92045" lon="6.4984">
        <ele>1735.5999755859</ele>
        <time>2014-02-12T11:23:36.000Z</time>
      </trkpt>
      <trkpt lat="45.92044" lon="6.49839">
        <ele>1735.8000488281</ele>
        <time>2014-02-12T11:23:37.000Z</time>
      </trkpt>
      <trkpt lat="45.92043" lon="6.49839">
        <ele>1735.8000488281</ele>
        <time>2014-02-12T11:23:38.000Z</time>
      </trkpt>
      <trkpt lat="45.92042" lon="6.49838">
        <ele>1735.8000488281</ele>
        <time>2014-02-12T11:23:39.000Z</time>
      </trkpt>
      <trkpt lat="45.92042" lon="6.49838">
        <ele>1735.8000488281</ele>
        <time>2014-02-12T11:23:40.000Z</time>
      </trkpt>
      <trkpt lat="45.9204" lon="6.49836">
        <ele>1735.5999755859</ele>
        <time>2014-02-12T11:23:41.000Z</time>
      </trkpt>
      <trkpt lat="45.92039" lon="6.49835">
        <ele>1735.5999755859</ele>
        <time>2014-02-12T11:23:42.000Z</time>
      </trkpt>
      <trkpt lat="45.92039" lon="6.49835">
        <ele>1735.5999755859</ele>
        <time>2014-02-12T11:23:43.000Z</time>
      </trkpt>
      <trkpt lat="45.92038" lon="6.49835">
        <ele>1735.8000488281</ele>
        <time>2014-02-12T11:23:44.000Z</time>
      </trkpt>
      <trkpt lat="45.92037" lon="6.49835">
        <ele>1736.1999511719</ele>
        <time>2014-02-12T11:23:45.000Z</time>
      </trkpt>
      <trkpt lat="45.92037" lon="6.49835">
        <ele>1736.4000244141</ele>
        <time>2014-02-12T11:23:46.000Z</time>
      </trkpt>
      <trkpt lat="45.92036" lon="6.49835">
        <ele>1736.8000488281</ele>
        <time>2014-02-12T11:23:47.000Z</time>
      </trkpt>
      <trkpt lat="45.92034" lon="6.49835">
        <ele>1737.4000244141</ele>
        <time>2014-02-12T11:23:48.000Z</time>
      </trkpt>
      <trkpt lat="45.92034" lon="6.49835">
        <ele>1737.5999755859</ele>
        <time>2014-02-12T11:23:49.000Z</time>
      </trkpt>
      <trkpt lat="45.92033" lon="6.49835">
        <ele>1737.8000488281</ele>
        <time>2014-02-12T11:23:50.000Z</time>
      </trkpt>
      <trkpt lat="45.92033" lon="6.49835">
        <ele>1738</ele>
        <time>2014-02-12T11:23:51.000Z</time>
      </trkpt>
      <trkpt lat="45.92032" lon="6.49835">
        <ele>1737.8000488281</ele>
        <time>2014-02-12T11:23:52.000Z</time>
      </trkpt>
      <trkpt lat="45.92032" lon="6.49834">
        <ele>1738</ele>
        <time>2014-02-12T11:23:53.000Z</time>
      </trkpt>
      <trkpt lat="45.92031" lon="6.49834">
        <ele>1738.1999511719</ele>
        <time>2014-02-12T11:23:54.000Z</time>
      </trkpt>
      <trkpt lat="45.9203" lon="6.49834">
        <ele>1738.4000244141</ele>
        <time>2014-02-12T11:23:55.000Z</time>
      </trkpt>
      <trkpt lat="45.9203" lon="6.49834">
        <ele>1738.5999755859</ele>
        <time>2014-02-12T11:23:56.000Z</time>
      </trkpt>
      <trkpt lat="45.92029" lon="6.49834">
        <ele>1738.8000488281</ele>
        <time>2014-02-12T11:23:57.000Z</time>
      </trkpt>
      <trkpt lat="45.92028" lon="6.49833">
        <ele>1739</ele>
        <time>2014-02-12T11:23:58.000Z</time>
      </trkpt>
      <trkpt lat="45.92027" lon="6.49834">
        <ele>1739.1999511719</ele>
        <time>2014-02-12T11:23:59.000Z</time>
      </trkpt>
      <trkpt lat="45.92026" lon="6.49834">
        <ele>1739.5999755859</ele>
        <time>2014-02-12T11:24:00.000Z</time>
      </trkpt>
      <trkpt lat="45.92026" lon="6.49834">
        <ele>1739.8000488281</ele>
        <time>2014-02-12T11:24:01.000Z</time>
      </trkpt>
      <trkpt lat="45.92025" lon="6.49834">
        <ele>1740</ele>
        <time>2014-02-12T11:24:02.000Z</time>
      </trkpt>
      <trkpt lat="45.92023" lon="6.49833">
        <ele>1740.4000244141</ele>
        <time>2014-02-12T11:24:03.000Z</time>
      </trkpt>
      <trkpt lat="45.92024" lon="6.49833">
        <ele>1740.4000244141</ele>
        <time>2014-02-12T11:24:04.000Z</time>
      </trkpt>
      <trkpt lat="45.92023" lon="6.49833">
        <ele>1740.4000244141</ele>
        <time>2014-02-12T11:24:05.000Z</time>
      </trkpt>
      <trkpt lat="45.92022" lon="6.49832">
        <ele>1740.4000244141</ele>
        <time>2014-02-12T11:24:06.000Z</time>
      </trkpt>
      <trkpt lat="45.92022" lon="6.49831">
        <ele>1740</ele>
        <time>2014-02-12T11:24:07.000Z</time>
      </trkpt>
      <trkpt lat="45.92022" lon="6.49831">
        <ele>1740</ele>
        <time>2014-02-12T11:24:08.000Z</time>
      </trkpt>
      <trkpt lat="45.92022" lon="6.49831">
        <ele>1740</ele>
        <time>2014-02-12T11:24:09.000Z</time>
      </trkpt>
      <trkpt lat="45.92022" lon="6.49834">
        <ele>1741</ele>
        <time>2014-02-12T11:24:10.000Z</time>
      </trkpt>
      <trkpt lat="45.92023" lon="6.49834">
        <ele>1741.1999511719</ele>
        <time>2014-02-12T11:24:11.000Z</time>
      </trkpt>
      <trkpt lat="45.92023" lon="6.49836">
        <ele>1742</ele>
        <time>2014-02-12T11:24:12.000Z</time>
      </trkpt>
      <trkpt lat="45.92023" lon="6.49838">
        <ele>1742.8000488281</ele>
        <time>2014-02-12T11:24:13.000Z</time>
      </trkpt>
      <trkpt lat="45.92024" lon="6.49841">
        <ele>1743.8000488281</ele>
        <time>2014-02-12T11:24:14.000Z</time>
      </trkpt>
      <trkpt lat="45.92024" lon="6.49842">
        <ele>1744.4000244141</ele>
        <time>2014-02-12T11:24:15.000Z</time>
      </trkpt>
      <trkpt lat="45.92024" lon="6.49844">
        <ele>1745.1999511719</ele>
        <time>2014-02-12T11:24:16.000Z</time>
      </trkpt>
      <trkpt lat="45.92025" lon="6.49846">
        <ele>1746</ele>
        <time>2014-02-12T11:24:17.000Z</time>
      </trkpt>
      <trkpt lat="45.92024" lon="6.49846">
        <ele>1746.4000244141</ele>
        <time>2014-02-12T11:24:18.000Z</time>
      </trkpt>
      <trkpt lat="45.92025" lon="6.49848">
        <ele>1747</ele>
        <time>2014-02-12T11:24:19.000Z</time>
      </trkpt>
      <trkpt lat="45.92025" lon="6.49849">
        <ele>1747.5999755859</ele>
        <time>2014-02-12T11:24:20.000Z</time>
      </trkpt>
      <trkpt lat="45.92025" lon="6.49851">
        <ele>1748.4000244141</ele>
        <time>2014-02-12T11:24:21.000Z</time>
      </trkpt>
      <trkpt lat="45.92025" lon="6.49853">
        <ele>1749.4000244141</ele>
        <time>2014-02-12T11:24:22.000Z</time>
      </trkpt>
      <trkpt lat="45.92025" lon="6.49855">
        <ele>1750.4000244141</ele>
        <time>2014-02-12T11:24:23.000Z</time>
      </trkpt>
      <trkpt lat="45.92025" lon="6.49856">
        <ele>1750.5999755859</ele>
        <time>2014-02-12T11:24:24.000Z</time>
      </trkpt>
      <trkpt lat="45.92025" lon="6.49857">
        <ele>1751.1999511719</ele>
        <time>2014-02-12T11:24:25.000Z</time>
      </trkpt>
      <trkpt lat="45.92025" lon="6.49858">
        <ele>1751.5999755859</ele>
        <time>2014-02-12T11:24:26.000Z</time>
      </trkpt>
      <trkpt lat="45.92025" lon="6.49858">
        <ele>1751.8000488281</ele>
        <time>2014-02-12T11:24:27.000Z</time>
      </trkpt>
      <trkpt lat="45.92025" lon="6.4986">
        <ele>1752.5999755859</ele>
        <time>2014-02-12T11:24:28.000Z</time>
      </trkpt>
      <trkpt lat="45.92025" lon="6.49861">
        <ele>1753</ele>
        <time>2014-02-12T11:24:29.000Z</time>
      </trkpt>
      <trkpt lat="45.92026" lon="6.49862">
        <ele>1753.1999511719</ele>
        <time>2014-02-12T11:24:30.000Z</time>
      </trkpt>
      <trkpt lat="45.92026" lon="6.49863">
        <ele>1753.8000488281</ele>
        <time>2014-02-12T11:24:31.000Z</time>
      </trkpt>
      <trkpt lat="45.92026" lon="6.49864">
        <ele>1754.1999511719</ele>
        <time>2014-02-12T11:24:32.000Z</time>
      </trkpt>
      <trkpt lat="45.92026" lon="6.49865">
        <ele>1754.8000488281</ele>
        <time>2014-02-12T11:24:33.000Z</time>
      </trkpt>
      <trkpt lat="45.92026" lon="6.49867">
        <ele>1755.5999755859</ele>
        <time>2014-02-12T11:24:34.000Z</time>
      </trkpt>
      <trkpt lat="45.92026" lon="6.49869">
        <ele>1756.4000244141</ele>
        <time>2014-02-12T11:24:35.000Z</time>
      </trkpt>
      <trkpt lat="45.92026" lon="6.4987">
        <ele>1756.8000488281</ele>
        <time>2014-02-12T11:24:36.000Z</time>
      </trkpt>
      <trkpt lat="45.92026" lon="6.49871">
        <ele>1757.1999511719</ele>
        <time>2014-02-12T11:24:37.000Z</time>
      </trkpt>
      <trkpt lat="45.92026" lon="6.49872">
        <ele>1757.5999755859</ele>
        <time>2014-02-12T11:24:38.000Z</time>
      </trkpt>
      <trkpt lat="45.92027" lon="6.49873">
        <ele>1757.8000488281</ele>
        <time>2014-02-12T11:24:39.000Z</time>
      </trkpt>
      <trkpt lat="45.92027" lon="6.49874">
        <ele>1758</ele>
        <time>2014-02-12T11:24:40.000Z</time>
      </trkpt>
      <trkpt lat="45.92026" lon="6.49875">
        <ele>1758.4000244141</ele>
        <time>2014-02-12T11:24:41.000Z</time>
      </trkpt>
      <trkpt lat="45.92026" lon="6.49876">
        <ele>1758.8000488281</ele>
        <time>2014-02-12T11:24:42.000Z</time>
      </trkpt>
      <trkpt lat="45.92027" lon="6.49879">
        <ele>1759.4000244141</ele>
        <time>2014-02-12T11:24:43.000Z</time>
      </trkpt>
      <trkpt lat="45.92026" lon="6.49881">
        <ele>1760</ele>
        <time>2014-02-12T11:24:44.000Z</time>
      </trkpt>
      <trkpt lat="45.92026" lon="6.49882">
        <ele>1760.8000488281</ele>
        <time>2014-02-12T11:24:45.000Z</time>
      </trkpt>
      <trkpt lat="45.92025" lon="6.49884">
        <ele>1761.4000244141</ele>
        <time>2014-02-12T11:24:46.000Z</time>
      </trkpt>
      <trkpt lat="45.92025" lon="6.49885">
        <ele>1761.5999755859</ele>
        <time>2014-02-12T11:24:47.000Z</time>
      </trkpt>
      <trkpt lat="45.92025" lon="6.49885">
        <ele>1761.5999755859</ele>
        <time>2014-02-12T11:24:48.000Z</time>
      </trkpt>
      <trkpt lat="45.92026" lon="6.49886">
        <ele>1761.8000488281</ele>
        <time>2014-02-12T11:24:49.000Z</time>
      </trkpt>
      <trkpt lat="45.92026" lon="6.49886">
        <ele>1761.8000488281</ele>
        <time>2014-02-12T11:24:50.000Z</time>
      </trkpt>
      <trkpt lat="45.92026" lon="6.49887">
        <ele>1762</ele>
        <time>2014-02-12T11:24:51.000Z</time>
      </trkpt>
      <trkpt lat="45.92026" lon="6.49888">
        <ele>1762.4000244141</ele>
        <time>2014-02-12T11:24:52.000Z</time>
      </trkpt>
      <trkpt lat="45.92026" lon="6.49888">
        <ele>1762.4000244141</ele>
        <time>2014-02-12T11:24:53.000Z</time>
      </trkpt>
      <trkpt lat="45.92027" lon="6.4989">
        <ele>1762.8000488281</ele>
        <time>2014-02-12T11:24:54.000Z</time>
      </trkpt>
      <trkpt lat="45.92027" lon="6.4989">
        <ele>1762.8000488281</ele>
        <time>2014-02-12T11:24:55.000Z</time>
      </trkpt>
      <trkpt lat="45.92027" lon="6.49891">
        <ele>1763</ele>
        <time>2014-02-12T11:24:56.000Z</time>
      </trkpt>
      <trkpt lat="45.92027" lon="6.49892">
        <ele>1763.4000244141</ele>
        <time>2014-02-12T11:24:57.000Z</time>
      </trkpt>
      <trkpt lat="45.92027" lon="6.49892">
        <ele>1763.4000244141</ele>
        <time>2014-02-12T11:24:58.000Z</time>
      </trkpt>
      <trkpt lat="45.92028" lon="6.49894">
        <ele>1763.5999755859</ele>
        <time>2014-02-12T11:24:59.000Z</time>
      </trkpt>
      <trkpt lat="45.92028" lon="6.49895">
        <ele>1764</ele>
        <time>2014-02-12T11:25:00.000Z</time>
      </trkpt>
      <trkpt lat="45.92028" lon="6.49896">
        <ele>1764.1999511719</ele>
        <time>2014-02-12T11:25:01.000Z</time>
      </trkpt>
      <trkpt lat="45.92028" lon="6.49897">
        <ele>1764.8000488281</ele>
        <time>2014-02-12T11:25:02.000Z</time>
      </trkpt>
      <trkpt lat="45.92028" lon="6.49899">
        <ele>1765.1999511719</ele>
        <time>2014-02-12T11:25:03.000Z</time>
      </trkpt>
      <trkpt lat="45.92028" lon="6.49901">
        <ele>1765.8000488281</ele>
        <time>2014-02-12T11:25:04.000Z</time>
      </trkpt>
      <trkpt lat="45.92029" lon="6.49902">
        <ele>1766.4000244141</ele>
        <time>2014-02-12T11:25:05.000Z</time>
      </trkpt>
      <trkpt lat="45.92029" lon="6.49902">
        <ele>1766.4000244141</ele>
        <time>2014-02-12T11:25:06.000Z</time>
      </trkpt>
      <trkpt lat="45.92029" lon="6.49904">
        <ele>1766.8000488281</ele>
        <time>2014-02-12T11:25:07.000Z</time>
      </trkpt>
      <trkpt lat="45.92029" lon="6.49904">
        <ele>1766.8000488281</ele>
        <time>2014-02-12T11:25:08.000Z</time>
      </trkpt>
      <trkpt lat="45.9203" lon="6.49905">
        <ele>1767.1999511719</ele>
        <time>2014-02-12T11:25:09.000Z</time>
      </trkpt>
      <trkpt lat="45.92029" lon="6.49906">
        <ele>1767.4000244141</ele>
        <time>2014-02-12T11:25:10.000Z</time>
      </trkpt>
      <trkpt lat="45.92029" lon="6.49906">
        <ele>1767.4000244141</ele>
        <time>2014-02-12T11:25:11.000Z</time>
      </trkpt>
      <trkpt lat="45.92029" lon="6.49907">
        <ele>1768</ele>
        <time>2014-02-12T11:25:12.000Z</time>
      </trkpt>
      <trkpt lat="45.92029" lon="6.49907">
        <ele>1768</ele>
        <time>2014-02-12T11:25:13.000Z</time>
      </trkpt>
      <trkpt lat="45.92029" lon="6.4991">
        <ele>1769</ele>
        <time>2014-02-12T11:25:14.000Z</time>
      </trkpt>
      <trkpt lat="45.92029" lon="6.49911">
        <ele>1769.4000244141</ele>
        <time>2014-02-12T11:25:15.000Z</time>
      </trkpt>
      <trkpt lat="45.92029" lon="6.49911">
        <ele>1769.4000244141</ele>
        <time>2014-02-12T11:25:16.000Z</time>
      </trkpt>
      <trkpt lat="45.92029" lon="6.49912">
        <ele>1770</ele>
        <time>2014-02-12T11:25:17.000Z</time>
      </trkpt>
      <trkpt lat="45.92029" lon="6.49913">
        <ele>1770.1999511719</ele>
        <time>2014-02-12T11:25:18.000Z</time>
      </trkpt>
      <trkpt lat="45.9203" lon="6.49914">
        <ele>1770.1999511719</ele>
        <time>2014-02-12T11:25:19.000Z</time>
      </trkpt>
      <trkpt lat="45.9203" lon="6.49915">
        <ele>1770.5999755859</ele>
        <time>2014-02-12T11:25:20.000Z</time>
      </trkpt>
      <trkpt lat="45.92031" lon="6.49916">
        <ele>1771</ele>
        <time>2014-02-12T11:25:21.000Z</time>
      </trkpt>
      <trkpt lat="45.9203" lon="6.49917">
        <ele>1771.4000244141</ele>
        <time>2014-02-12T11:25:22.000Z</time>
      </trkpt>
      <trkpt lat="45.9203" lon="6.49917">
        <ele>1771.4000244141</ele>
        <time>2014-02-12T11:25:23.000Z</time>
      </trkpt>
      <trkpt lat="45.9203" lon="6.49917">
        <ele>1771.4000244141</ele>
        <time>2014-02-12T11:25:24.000Z</time>
      </trkpt>
      <trkpt lat="45.92029" lon="6.49917">
        <ele>1771.5999755859</ele>
        <time>2014-02-12T11:25:25.000Z</time>
      </trkpt>
      <trkpt lat="45.92029" lon="6.49916">
        <ele>1771.4000244141</ele>
        <time>2014-02-12T11:25:26.000Z</time>
      </trkpt>
      <trkpt lat="45.92029" lon="6.49916">
        <ele>1771.4000244141</ele>
        <time>2014-02-12T11:25:27.000Z</time>
      </trkpt>
      <trkpt lat="45.92028" lon="6.49915">
        <ele>1771.1999511719</ele>
        <time>2014-02-12T11:25:28.000Z</time>
      </trkpt>
      <trkpt lat="45.92028" lon="6.49915">
        <ele>1771.1999511719</ele>
        <time>2014-02-12T11:25:29.000Z</time>
      </trkpt>
      <trkpt lat="45.92026" lon="6.49914">
        <ele>1770.8000488281</ele>
        <time>2014-02-12T11:25:30.000Z</time>
      </trkpt>
      <trkpt lat="45.92027" lon="6.49913">
        <ele>1770.8000488281</ele>
        <time>2014-02-12T11:25:31.000Z</time>
      </trkpt>
      <trkpt lat="45.92026" lon="6.49912">
        <ele>1770.4000244141</ele>
        <time>2014-02-12T11:25:32.000Z</time>
      </trkpt>
      <trkpt lat="45.92024" lon="6.4991">
        <ele>1770</ele>
        <time>2014-02-12T11:25:33.000Z</time>
      </trkpt>
      <trkpt lat="45.92025" lon="6.4991">
        <ele>1770</ele>
        <time>2014-02-12T11:25:34.000Z</time>
      </trkpt>
      <trkpt lat="45.92024" lon="6.4991">
        <ele>1770</ele>
        <time>2014-02-12T11:25:35.000Z</time>
      </trkpt>
      <trkpt lat="45.92022" lon="6.49908">
        <ele>1769.5999755859</ele>
        <time>2014-02-12T11:25:36.000Z</time>
      </trkpt>
      <trkpt lat="45.92022" lon="6.49908">
        <ele>1769.5999755859</ele>
        <time>2014-02-12T11:25:37.000Z</time>
      </trkpt>
      <trkpt lat="45.92021" lon="6.49907">
        <ele>1769.4000244141</ele>
        <time>2014-02-12T11:25:38.000Z</time>
      </trkpt>
      <trkpt lat="45.9202" lon="6.49906">
        <ele>1769.4000244141</ele>
        <time>2014-02-12T11:25:39.000Z</time>
      </trkpt>
      <trkpt lat="45.92019" lon="6.49905">
        <ele>1769.1999511719</ele>
        <time>2014-02-12T11:25:40.000Z</time>
      </trkpt>
      <trkpt lat="45.92019" lon="6.49904">
        <ele>1768.8000488281</ele>
        <time>2014-02-12T11:25:41.000Z</time>
      </trkpt>
      <trkpt lat="45.92019" lon="6.49904">
        <ele>1768.5999755859</ele>
        <time>2014-02-12T11:25:42.000Z</time>
      </trkpt>
      <trkpt lat="45.92018" lon="6.49903">
        <ele>1768.5999755859</ele>
        <time>2014-02-12T11:25:43.000Z</time>
      </trkpt>
      <trkpt lat="45.92017" lon="6.49902">
        <ele>1768.5999755859</ele>
        <time>2014-02-12T11:25:44.000Z</time>
      </trkpt>
      <trkpt lat="45.92017" lon="6.49902">
        <ele>1768.5999755859</ele>
        <time>2014-02-12T11:25:45.000Z</time>
      </trkpt>
      <trkpt lat="45.92016" lon="6.49902">
        <ele>1768.5999755859</ele>
        <time>2014-02-12T11:25:46.000Z</time>
      </trkpt>
      <trkpt lat="45.92015" lon="6.49902">
        <ele>1768.8000488281</ele>
        <time>2014-02-12T11:25:47.000Z</time>
      </trkpt>
      <trkpt lat="45.92015" lon="6.49902">
        <ele>1768.8000488281</ele>
        <time>2014-02-12T11:25:48.000Z</time>
      </trkpt>
      <trkpt lat="45.92014" lon="6.49901">
        <ele>1768.5999755859</ele>
        <time>2014-02-12T11:25:49.000Z</time>
      </trkpt>
      <trkpt lat="45.92012" lon="6.499">
        <ele>1768.8000488281</ele>
        <time>2014-02-12T11:25:50.000Z</time>
      </trkpt>
      <trkpt lat="45.92012" lon="6.49901">
        <ele>1768.8000488281</ele>
        <time>2014-02-12T11:25:51.000Z</time>
      </trkpt>
      <trkpt lat="45.92012" lon="6.499">
        <ele>1768.8000488281</ele>
        <time>2014-02-12T11:25:52.000Z</time>
      </trkpt>
      <trkpt lat="45.92011" lon="6.499">
        <ele>1768.8000488281</ele>
        <time>2014-02-12T11:25:53.000Z</time>
      </trkpt>
      <trkpt lat="45.92011" lon="6.49899">
        <ele>1768.8000488281</ele>
        <time>2014-02-12T11:25:54.000Z</time>
      </trkpt>
      <trkpt lat="45.9201" lon="6.49899">
        <ele>1768.5999755859</ele>
        <time>2014-02-12T11:25:55.000Z</time>
      </trkpt>
      <trkpt lat="45.92009" lon="6.49899">
        <ele>1768.8000488281</ele>
        <time>2014-02-12T11:25:56.000Z</time>
      </trkpt>
      <trkpt lat="45.92009" lon="6.49898">
        <ele>1768.8000488281</ele>
        <time>2014-02-12T11:25:57.000Z</time>
      </trkpt>
      <trkpt lat="45.92008" lon="6.49898">
        <ele>1768.8000488281</ele>
        <time>2014-02-12T11:25:58.000Z</time>
      </trkpt>
      <trkpt lat="45.92008" lon="6.49897">
        <ele>1768.5999755859</ele>
        <time>2014-02-12T11:25:59.000Z</time>
      </trkpt>
      <trkpt lat="45.92007" lon="6.49896">
        <ele>1768.4000244141</ele>
        <time>2014-02-12T11:26:00.000Z</time>
      </trkpt>
      <trkpt lat="45.92007" lon="6.49895">
        <ele>1768.1999511719</ele>
        <time>2014-02-12T11:26:01.000Z</time>
      </trkpt>
      <trkpt lat="45.92006" lon="6.49895">
        <ele>1768</ele>
        <time>2014-02-12T11:26:02.000Z</time>
      </trkpt>
      <trkpt lat="45.92006" lon="6.49894">
        <ele>1767.8000488281</ele>
        <time>2014-02-12T11:26:03.000Z</time>
      </trkpt>
      <trkpt lat="45.92006" lon="6.49893">
        <ele>1767.5999755859</ele>
        <time>2014-02-12T11:26:04.000Z</time>
      </trkpt>
      <trkpt lat="45.92005" lon="6.49892">
        <ele>1767.8000488281</ele>
        <time>2014-02-12T11:26:05.000Z</time>
      </trkpt>
      <trkpt lat="45.92004" lon="6.49893">
        <ele>1768</ele>
        <time>2014-02-12T11:26:06.000Z</time>
      </trkpt>
      <trkpt lat="45.92004" lon="6.49895">
        <ele>1768.5999755859</ele>
        <time>2014-02-12T11:26:07.000Z</time>
      </trkpt>
      <trkpt lat="45.92004" lon="6.49896">
        <ele>1769</ele>
        <time>2014-02-12T11:26:08.000Z</time>
      </trkpt>
      <trkpt lat="45.92004" lon="6.49897">
        <ele>1769.1999511719</ele>
        <time>2014-02-12T11:26:09.000Z</time>
      </trkpt>
      <trkpt lat="45.92004" lon="6.49897">
        <ele>1769.1999511719</ele>
        <time>2014-02-12T11:26:10.000Z</time>
      </trkpt>
      <trkpt lat="45.92004" lon="6.49898">
        <ele>1769.5999755859</ele>
        <time>2014-02-12T11:26:11.000Z</time>
      </trkpt>
      <trkpt lat="45.92004" lon="6.49898">
        <ele>1769.5999755859</ele>
        <time>2014-02-12T11:26:12.000Z</time>
      </trkpt>
      <trkpt lat="45.92004" lon="6.49898">
        <ele>1769.5999755859</ele>
        <time>2014-02-12T11:26:13.000Z</time>
      </trkpt>
      <trkpt lat="45.92004" lon="6.499">
        <ele>1770</ele>
        <time>2014-02-12T11:26:14.000Z</time>
      </trkpt>
      <trkpt lat="45.92004" lon="6.49901">
        <ele>1770.5999755859</ele>
        <time>2014-02-12T11:26:15.000Z</time>
      </trkpt>
      <trkpt lat="45.92005" lon="6.49903">
        <ele>1771.1999511719</ele>
        <time>2014-02-12T11:26:16.000Z</time>
      </trkpt>
      <trkpt lat="45.92005" lon="6.49904">
        <ele>1771.5999755859</ele>
        <time>2014-02-12T11:26:17.000Z</time>
      </trkpt>
      <trkpt lat="45.92006" lon="6.49907">
        <ele>1772.5999755859</ele>
        <time>2014-02-12T11:26:18.000Z</time>
      </trkpt>
      <trkpt lat="45.92005" lon="6.49909">
        <ele>1773</ele>
        <time>2014-02-12T11:26:19.000Z</time>
      </trkpt>
      <trkpt lat="45.92005" lon="6.4991">
        <ele>1773.8000488281</ele>
        <time>2014-02-12T11:26:20.000Z</time>
      </trkpt>
      <trkpt lat="45.92005" lon="6.49911">
        <ele>1774.1999511719</ele>
        <time>2014-02-12T11:26:21.000Z</time>
      </trkpt>
      <trkpt lat="45.92005" lon="6.49913">
        <ele>1774.8000488281</ele>
        <time>2014-02-12T11:26:22.000Z</time>
      </trkpt>
      <trkpt lat="45.92005" lon="6.49914">
        <ele>1775.1999511719</ele>
        <time>2014-02-12T11:26:23.000Z</time>
      </trkpt>
      <trkpt lat="45.92005" lon="6.49915">
        <ele>1775.5999755859</ele>
        <time>2014-02-12T11:26:24.000Z</time>
      </trkpt>
      <trkpt lat="45.92005" lon="6.49916">
        <ele>1775.8000488281</ele>
        <time>2014-02-12T11:26:25.000Z</time>
      </trkpt>
      <trkpt lat="45.92006" lon="6.49917">
        <ele>1776.4000244141</ele>
        <time>2014-02-12T11:26:26.000Z</time>
      </trkpt>
      <trkpt lat="45.92006" lon="6.49918">
        <ele>1776.5999755859</ele>
        <time>2014-02-12T11:26:27.000Z</time>
      </trkpt>
      <trkpt lat="45.92005" lon="6.4992">
        <ele>1777.4000244141</ele>
        <time>2014-02-12T11:26:28.000Z</time>
      </trkpt>
      <trkpt lat="45.92004" lon="6.49921">
        <ele>1778</ele>
        <time>2014-02-12T11:26:29.000Z</time>
      </trkpt>
      <trkpt lat="45.92004" lon="6.49921">
        <ele>1778</ele>
        <time>2014-02-12T11:26:30.000Z</time>
      </trkpt>
      <trkpt lat="45.92004" lon="6.49921">
        <ele>1778</ele>
        <time>2014-02-12T11:26:31.000Z</time>
      </trkpt>
      <trkpt lat="45.92004" lon="6.49923">
        <ele>1778.4000244141</ele>
        <time>2014-02-12T11:26:32.000Z</time>
      </trkpt>
      <trkpt lat="45.92004" lon="6.49923">
        <ele>1778.4000244141</ele>
        <time>2014-02-12T11:26:33.000Z</time>
      </trkpt>
      <trkpt lat="45.92005" lon="6.49924">
        <ele>1779</ele>
        <time>2014-02-12T11:26:34.000Z</time>
      </trkpt>
      <trkpt lat="45.92005" lon="6.49925">
        <ele>1779.4000244141</ele>
        <time>2014-02-12T11:26:35.000Z</time>
      </trkpt>
      <trkpt lat="45.92005" lon="6.49925">
        <ele>1779.4000244141</ele>
        <time>2014-02-12T11:26:36.000Z</time>
      </trkpt>
      <trkpt lat="45.92005" lon="6.49928">
        <ele>1780.4000244141</ele>
        <time>2014-02-12T11:26:37.000Z</time>
      </trkpt>
      <trkpt lat="45.92005" lon="6.49928">
        <ele>1780.4000244141</ele>
        <time>2014-02-12T11:26:38.000Z</time>
      </trkpt>
      <trkpt lat="45.92005" lon="6.4993">
        <ele>1781.1999511719</ele>
        <time>2014-02-12T11:26:39.000Z</time>
      </trkpt>
      <trkpt lat="45.92004" lon="6.49932">
        <ele>1781.8000488281</ele>
        <time>2014-02-12T11:26:40.000Z</time>
      </trkpt>
      <trkpt lat="45.92004" lon="6.49932">
        <ele>1781.8000488281</ele>
        <time>2014-02-12T11:26:41.000Z</time>
      </trkpt>
      <trkpt lat="45.92004" lon="6.49933">
        <ele>1782.1999511719</ele>
        <time>2014-02-12T11:26:42.000Z</time>
      </trkpt>
      <trkpt lat="45.92004" lon="6.49935">
        <ele>1782.8000488281</ele>
        <time>2014-02-12T11:26:43.000Z</time>
      </trkpt>
      <trkpt lat="45.92004" lon="6.49935">
        <ele>1782.8000488281</ele>
        <time>2014-02-12T11:26:44.000Z</time>
      </trkpt>
      <trkpt lat="45.92004" lon="6.49937">
        <ele>1783.5999755859</ele>
        <time>2014-02-12T11:26:45.000Z</time>
      </trkpt>
      <trkpt lat="45.92004" lon="6.49939">
        <ele>1784</ele>
        <time>2014-02-12T11:26:46.000Z</time>
      </trkpt>
      <trkpt lat="45.92004" lon="6.4994">
        <ele>1784.1999511719</ele>
        <time>2014-02-12T11:26:47.000Z</time>
      </trkpt>
      <trkpt lat="45.92004" lon="6.49941">
        <ele>1784.5999755859</ele>
        <time>2014-02-12T11:26:48.000Z</time>
      </trkpt>
      <trkpt lat="45.92004" lon="6.49941">
        <ele>1784.5999755859</ele>
        <time>2014-02-12T11:26:49.000Z</time>
      </trkpt>
      <trkpt lat="45.92005" lon="6.49942">
        <ele>1785</ele>
        <time>2014-02-12T11:26:50.000Z</time>
      </trkpt>
      <trkpt lat="45.92005" lon="6.49944">
        <ele>1785.4000244141</ele>
        <time>2014-02-12T11:26:51.000Z</time>
      </trkpt>
      <trkpt lat="45.92005" lon="6.49944">
        <ele>1785.4000244141</ele>
        <time>2014-02-12T11:26:52.000Z</time>
      </trkpt>
      <trkpt lat="45.92005" lon="6.49945">
        <ele>1785.5999755859</ele>
        <time>2014-02-12T11:26:53.000Z</time>
      </trkpt>
      <trkpt lat="45.92005" lon="6.49945">
        <ele>1785.5999755859</ele>
        <time>2014-02-12T11:26:54.000Z</time>
      </trkpt>
      <trkpt lat="45.92005" lon="6.49945">
        <ele>1785.5999755859</ele>
        <time>2014-02-12T11:26:55.000Z</time>
      </trkpt>
      <trkpt lat="45.92005" lon="6.49945">
        <ele>1785.5999755859</ele>
        <time>2014-02-12T11:26:56.000Z</time>
      </trkpt>
      <trkpt lat="45.92005" lon="6.49945">
        <ele>1785.5999755859</ele>
        <time>2014-02-12T11:26:57.000Z</time>
      </trkpt>
      <trkpt lat="45.92004" lon="6.49944">
        <ele>1785.4000244141</ele>
        <time>2014-02-12T11:26:58.000Z</time>
      </trkpt>
      <trkpt lat="45.92003" lon="6.49943">
        <ele>1785.4000244141</ele>
        <time>2014-02-12T11:26:59.000Z</time>
      </trkpt>
      <trkpt lat="45.92002" lon="6.49942">
        <ele>1785.1999511719</ele>
        <time>2014-02-12T11:27:00.000Z</time>
      </trkpt>
      <trkpt lat="45.92001" lon="6.49941">
        <ele>1785.1999511719</ele>
        <time>2014-02-12T11:27:01.000Z</time>
      </trkpt>
      <trkpt lat="45.92" lon="6.4994">
        <ele>1785</ele>
        <time>2014-02-12T11:27:02.000Z</time>
      </trkpt>
      <trkpt lat="45.91999" lon="6.49939">
        <ele>1784.8000488281</ele>
        <time>2014-02-12T11:27:03.000Z</time>
      </trkpt>
      <trkpt lat="45.91998" lon="6.49939">
        <ele>1784.5999755859</ele>
        <time>2014-02-12T11:27:04.000Z</time>
      </trkpt>
      <trkpt lat="45.91997" lon="6.49937">
        <ele>1784.4000244141</ele>
        <time>2014-02-12T11:27:05.000Z</time>
      </trkpt>
      <trkpt lat="45.91996" lon="6.49937">
        <ele>1784.4000244141</ele>
        <time>2014-02-12T11:27:06.000Z</time>
      </trkpt>
      <trkpt lat="45.91995" lon="6.49936">
        <ele>1784.1999511719</ele>
        <time>2014-02-12T11:27:07.000Z</time>
      </trkpt>
      <trkpt lat="45.91995" lon="6.49935">
        <ele>1784</ele>
        <time>2014-02-12T11:27:08.000Z</time>
      </trkpt>
      <trkpt lat="45.91994" lon="6.49934">
        <ele>1783.8000488281</ele>
        <time>2014-02-12T11:27:09.000Z</time>
      </trkpt>
      <trkpt lat="45.91993" lon="6.49933">
        <ele>1783.5999755859</ele>
        <time>2014-02-12T11:27:10.000Z</time>
      </trkpt>
      <trkpt lat="45.91992" lon="6.49932">
        <ele>1783.4000244141</ele>
        <time>2014-02-12T11:27:11.000Z</time>
      </trkpt>
      <trkpt lat="45.91992" lon="6.49932">
        <ele>1783.1999511719</ele>
        <time>2014-02-12T11:27:12.000Z</time>
      </trkpt>
      <trkpt lat="45.91991" lon="6.4993">
        <ele>1783</ele>
        <time>2014-02-12T11:27:13.000Z</time>
      </trkpt>
      <trkpt lat="45.9199" lon="6.49929">
        <ele>1782.8000488281</ele>
        <time>2014-02-12T11:27:14.000Z</time>
      </trkpt>
      <trkpt lat="45.9199" lon="6.49928">
        <ele>1782.4000244141</ele>
        <time>2014-02-12T11:27:15.000Z</time>
      </trkpt>
      <trkpt lat="45.91989" lon="6.49927">
        <ele>1782.4000244141</ele>
        <time>2014-02-12T11:27:16.000Z</time>
      </trkpt>
      <trkpt lat="45.91989" lon="6.49927">
        <ele>1782.1999511719</ele>
        <time>2014-02-12T11:27:17.000Z</time>
      </trkpt>
      <trkpt lat="45.91988" lon="6.49926">
        <ele>1782</ele>
        <time>2014-02-12T11:27:18.000Z</time>
      </trkpt>
      <trkpt lat="45.91988" lon="6.49925">
        <ele>1781.8000488281</ele>
        <time>2014-02-12T11:27:19.000Z</time>
      </trkpt>
      <trkpt lat="45.91987" lon="6.49924">
        <ele>1781.8000488281</ele>
        <time>2014-02-12T11:27:20.000Z</time>
      </trkpt>
      <trkpt lat="45.91986" lon="6.49924">
        <ele>1781.5999755859</ele>
        <time>2014-02-12T11:27:21.000Z</time>
      </trkpt>
      <trkpt lat="45.91986" lon="6.49923">
        <ele>1781.4000244141</ele>
        <time>2014-02-12T11:27:22.000Z</time>
      </trkpt>
      <trkpt lat="45.91985" lon="6.49923">
        <ele>1781.4000244141</ele>
        <time>2014-02-12T11:27:23.000Z</time>
      </trkpt>
      <trkpt lat="45.91984" lon="6.49922">
        <ele>1781.4000244141</ele>
        <time>2014-02-12T11:27:24.000Z</time>
      </trkpt>
      <trkpt lat="45.91983" lon="6.49922">
        <ele>1781.4000244141</ele>
        <time>2014-02-12T11:27:25.000Z</time>
      </trkpt>
      <trkpt lat="45.91983" lon="6.49921">
        <ele>1781.1999511719</ele>
        <time>2014-02-12T11:27:26.000Z</time>
      </trkpt>
      <trkpt lat="45.91982" lon="6.4992">
        <ele>1781</ele>
        <time>2014-02-12T11:27:27.000Z</time>
      </trkpt>
      <trkpt lat="45.91981" lon="6.49919">
        <ele>1780.8000488281</ele>
        <time>2014-02-12T11:27:28.000Z</time>
      </trkpt>
      <trkpt lat="45.91981" lon="6.49918">
        <ele>1780.5999755859</ele>
        <time>2014-02-12T11:27:29.000Z</time>
      </trkpt>
      <trkpt lat="45.9198" lon="6.49917">
        <ele>1780.1999511719</ele>
        <time>2014-02-12T11:27:30.000Z</time>
      </trkpt>
      <trkpt lat="45.9198" lon="6.49916">
        <ele>1780</ele>
        <time>2014-02-12T11:27:31.000Z</time>
      </trkpt>
      <trkpt lat="45.91979" lon="6.49916">
        <ele>1780</ele>
        <time>2014-02-12T11:27:32.000Z</time>
      </trkpt>
      <trkpt lat="45.91978" lon="6.49915">
        <ele>1780</ele>
        <time>2014-02-12T11:27:33.000Z</time>
      </trkpt>
      <trkpt lat="45.91978" lon="6.49914">
        <ele>1779.8000488281</ele>
        <time>2014-02-12T11:27:34.000Z</time>
      </trkpt>
      <trkpt lat="45.91977" lon="6.49914">
        <ele>1779.8000488281</ele>
        <time>2014-02-12T11:27:35.000Z</time>
      </trkpt>
      <trkpt lat="45.91976" lon="6.49913">
        <ele>1779.8000488281</ele>
        <time>2014-02-12T11:27:36.000Z</time>
      </trkpt>
      <trkpt lat="45.91975" lon="6.49913">
        <ele>1779.8000488281</ele>
        <time>2014-02-12T11:27:37.000Z</time>
      </trkpt>
      <trkpt lat="45.91974" lon="6.49913">
        <ele>1779.8000488281</ele>
        <time>2014-02-12T11:27:38.000Z</time>
      </trkpt>
      <trkpt lat="45.91973" lon="6.49913">
        <ele>1780</ele>
        <time>2014-02-12T11:27:39.000Z</time>
      </trkpt>
      <trkpt lat="45.91972" lon="6.49912">
        <ele>1780.1999511719</ele>
        <time>2014-02-12T11:27:40.000Z</time>
      </trkpt>
      <trkpt lat="45.91972" lon="6.49911">
        <ele>1780.1999511719</ele>
        <time>2014-02-12T11:27:41.000Z</time>
      </trkpt>
      <trkpt lat="45.91971" lon="6.49911">
        <ele>1780.4000244141</ele>
        <time>2014-02-12T11:27:42.000Z</time>
      </trkpt>
      <trkpt lat="45.9197" lon="6.49911">
        <ele>1781</ele>
        <time>2014-02-12T11:27:43.000Z</time>
      </trkpt>
      <trkpt lat="45.9197" lon="6.49911">
        <ele>1780.8000488281</ele>
        <time>2014-02-12T11:27:44.000Z</time>
      </trkpt>
      <trkpt lat="45.91969" lon="6.4991">
        <ele>1781</ele>
        <time>2014-02-12T11:27:45.000Z</time>
      </trkpt>
      <trkpt lat="45.91968" lon="6.4991">
        <ele>1781.4000244141</ele>
        <time>2014-02-12T11:27:46.000Z</time>
      </trkpt>
      <trkpt lat="45.91967" lon="6.4991">
        <ele>1781.5999755859</ele>
        <time>2014-02-12T11:27:47.000Z</time>
      </trkpt>
      <trkpt lat="45.91966" lon="6.49909">
        <ele>1782</ele>
        <time>2014-02-12T11:27:48.000Z</time>
      </trkpt>
      <trkpt lat="45.91965" lon="6.49909">
        <ele>1782.1999511719</ele>
        <time>2014-02-12T11:27:49.000Z</time>
      </trkpt>
      <trkpt lat="45.91964" lon="6.49909">
        <ele>1782.5999755859</ele>
        <time>2014-02-12T11:27:50.000Z</time>
      </trkpt>
      <trkpt lat="45.91964" lon="6.49909">
        <ele>1782.5999755859</ele>
        <time>2014-02-12T11:27:51.000Z</time>
      </trkpt>
      <trkpt lat="45.91963" lon="6.49909">
        <ele>1782.8000488281</ele>
        <time>2014-02-12T11:27:52.000Z</time>
      </trkpt>
      <trkpt lat="45.91963" lon="6.49909">
        <ele>1783</ele>
        <time>2014-02-12T11:27:53.000Z</time>
      </trkpt>
      <trkpt lat="45.91962" lon="6.49908">
        <ele>1783.1999511719</ele>
        <time>2014-02-12T11:27:54.000Z</time>
      </trkpt>
      <trkpt lat="45.91962" lon="6.49908">
        <ele>1783.4000244141</ele>
        <time>2014-02-12T11:27:55.000Z</time>
      </trkpt>
      <trkpt lat="45.91961" lon="6.49908">
        <ele>1783.5999755859</ele>
        <time>2014-02-12T11:27:56.000Z</time>
      </trkpt>
      <trkpt lat="45.91961" lon="6.49908">
        <ele>1783.8000488281</ele>
        <time>2014-02-12T11:27:57.000Z</time>
      </trkpt>
      <trkpt lat="45.9196" lon="6.49908">
        <ele>1784</ele>
        <time>2014-02-12T11:27:58.000Z</time>
      </trkpt>
      <trkpt lat="45.9196" lon="6.49909">
        <ele>1784.1999511719</ele>
        <time>2014-02-12T11:27:59.000Z</time>
      </trkpt>
      <trkpt lat="45.9196" lon="6.49909">
        <ele>1784.1999511719</ele>
        <time>2014-02-12T11:28:00.000Z</time>
      </trkpt>
      <trkpt lat="45.9196" lon="6.49909">
        <ele>1784.1999511719</ele>
        <time>2014-02-12T11:28:01.000Z</time>
      </trkpt>
      <trkpt lat="45.9196" lon="6.49909">
        <ele>1784.1999511719</ele>
        <time>2014-02-12T11:28:02.000Z</time>
      </trkpt>
      <trkpt lat="45.9196" lon="6.49909">
        <ele>1784.1999511719</ele>
        <time>2014-02-12T11:28:03.000Z</time>
      </trkpt>
      <trkpt lat="45.9196" lon="6.49909">
        <ele>1784.1999511719</ele>
        <time>2014-02-12T11:28:04.000Z</time>
      </trkpt>
      <trkpt lat="45.9196" lon="6.4991">
        <ele>1784.4000244141</ele>
        <time>2014-02-12T11:28:05.000Z</time>
      </trkpt>
      <trkpt lat="45.91961" lon="6.49911">
        <ele>1784.5999755859</ele>
        <time>2014-02-12T11:28:06.000Z</time>
      </trkpt>
      <trkpt lat="45.91961" lon="6.49912">
        <ele>1785</ele>
        <time>2014-02-12T11:28:07.000Z</time>
      </trkpt>
      <trkpt lat="45.91961" lon="6.49914">
        <ele>1785.4000244141</ele>
        <time>2014-02-12T11:28:08.000Z</time>
      </trkpt>
      <trkpt lat="45.91961" lon="6.49915">
        <ele>1785.8000488281</ele>
        <time>2014-02-12T11:28:09.000Z</time>
      </trkpt>
      <trkpt lat="45.91961" lon="6.49917">
        <ele>1786.1999511719</ele>
        <time>2014-02-12T11:28:10.000Z</time>
      </trkpt>
      <trkpt lat="45.91961" lon="6.49918">
        <ele>1786.4000244141</ele>
        <time>2014-02-12T11:28:11.000Z</time>
      </trkpt>
      <trkpt lat="45.91961" lon="6.49919">
        <ele>1787</ele>
        <time>2014-02-12T11:28:12.000Z</time>
      </trkpt>
      <trkpt lat="45.91961" lon="6.49921">
        <ele>1787.4000244141</ele>
        <time>2014-02-12T11:28:13.000Z</time>
      </trkpt>
      <trkpt lat="45.91961" lon="6.49922">
        <ele>1787.8000488281</ele>
        <time>2014-02-12T11:28:14.000Z</time>
      </trkpt>
      <trkpt lat="45.9196" lon="6.49924">
        <ele>1789</ele>
        <time>2014-02-12T11:28:15.000Z</time>
      </trkpt>
      <trkpt lat="45.91959" lon="6.49927">
        <ele>1789.8000488281</ele>
        <time>2014-02-12T11:28:16.000Z</time>
      </trkpt>
      <trkpt lat="45.91959" lon="6.49928">
        <ele>1790.4000244141</ele>
        <time>2014-02-12T11:28:17.000Z</time>
      </trkpt>
      <trkpt lat="45.91959" lon="6.4993">
        <ele>1791</ele>
        <time>2014-02-12T11:28:18.000Z</time>
      </trkpt>
      <trkpt lat="45.91959" lon="6.49932">
        <ele>1791.4000244141</ele>
        <time>2014-02-12T11:28:19.000Z</time>
      </trkpt>
      <trkpt lat="45.9196" lon="6.49932">
        <ele>1791.4000244141</ele>
        <time>2014-02-12T11:28:20.000Z</time>
      </trkpt>
      <trkpt lat="45.9196" lon="6.49934">
        <ele>1791.8000488281</ele>
        <time>2014-02-12T11:28:21.000Z</time>
      </trkpt>
      <trkpt lat="45.9196" lon="6.49935">
        <ele>1792</ele>
        <time>2014-02-12T11:28:22.000Z</time>
      </trkpt>
      <trkpt lat="45.9196" lon="6.49935">
        <ele>1792</ele>
        <time>2014-02-12T11:28:23.000Z</time>
      </trkpt>
      <trkpt lat="45.9196" lon="6.49936">
        <ele>1792.1999511719</ele>
        <time>2014-02-12T11:28:24.000Z</time>
      </trkpt>
      <trkpt lat="45.9196" lon="6.49936">
        <ele>1792.4000244141</ele>
        <time>2014-02-12T11:28:25.000Z</time>
      </trkpt>
      <trkpt lat="45.91961" lon="6.49938">
        <ele>1792.5999755859</ele>
        <time>2014-02-12T11:28:26.000Z</time>
      </trkpt>
      <trkpt lat="45.91961" lon="6.49938">
        <ele>1792.5999755859</ele>
        <time>2014-02-12T11:28:27.000Z</time>
      </trkpt>
      <trkpt lat="45.91961" lon="6.49938">
        <ele>1792.5999755859</ele>
        <time>2014-02-12T11:28:28.000Z</time>
      </trkpt>
      <trkpt lat="45.91961" lon="6.49938">
        <ele>1792.5999755859</ele>
        <time>2014-02-12T11:28:29.000Z</time>
      </trkpt>
      <trkpt lat="45.91961" lon="6.49938">
        <ele>1792.5999755859</ele>
        <time>2014-02-12T11:28:30.000Z</time>
      </trkpt>
      <trkpt lat="45.91961" lon="6.49938">
        <ele>1792.5999755859</ele>
        <time>2014-02-12T11:28:31.000Z</time>
      </trkpt>
      <trkpt lat="45.91961" lon="6.49938">
        <ele>1792.5999755859</ele>
        <time>2014-02-12T11:28:32.000Z</time>
      </trkpt>
      <trkpt lat="45.91961" lon="6.49939">
        <ele>1793</ele>
        <time>2014-02-12T11:28:33.000Z</time>
      </trkpt>
      <trkpt lat="45.9196" lon="6.49939">
        <ele>1793.4000244141</ele>
        <time>2014-02-12T11:28:34.000Z</time>
      </trkpt>
      <trkpt lat="45.9196" lon="6.49939">
        <ele>1793.4000244141</ele>
        <time>2014-02-12T11:28:35.000Z</time>
      </trkpt>
      <trkpt lat="45.9196" lon="6.49939">
        <ele>1793.4000244141</ele>
        <time>2014-02-12T11:28:36.000Z</time>
      </trkpt>
      <trkpt lat="45.9196" lon="6.49939">
        <ele>1793.4000244141</ele>
        <time>2014-02-12T11:28:37.000Z</time>
      </trkpt>
      <trkpt lat="45.9196" lon="6.49939">
        <ele>1793.4000244141</ele>
        <time>2014-02-12T11:28:38.000Z</time>
      </trkpt>
      <trkpt lat="45.9196" lon="6.49939">
        <ele>1793.4000244141</ele>
        <time>2014-02-12T11:28:39.000Z</time>
      </trkpt>
      <trkpt lat="45.9196" lon="6.49939">
        <ele>1793.4000244141</ele>
        <time>2014-02-12T11:28:40.000Z</time>
      </trkpt>
      <trkpt lat="45.9196" lon="6.49939">
        <ele>1793.4000244141</ele>
        <time>2014-02-12T11:28:41.000Z</time>
      </trkpt>
      <trkpt lat="45.9196" lon="6.49939">
        <ele>1793.4000244141</ele>
        <time>2014-02-12T11:28:42.000Z</time>
      </trkpt>
      <trkpt lat="45.9196" lon="6.49939">
        <ele>1793.4000244141</ele>
        <time>2014-02-12T11:28:43.000Z</time>
      </trkpt>
      <trkpt lat="45.9196" lon="6.49939">
        <ele>1793.4000244141</ele>
        <time>2014-02-12T11:28:44.000Z</time>
      </trkpt>
      <trkpt lat="45.9196" lon="6.49939">
        <ele>1793.4000244141</ele>
        <time>2014-02-12T11:28:45.000Z</time>
      </trkpt>
      <trkpt lat="45.9196" lon="6.49939">
        <ele>1793.4000244141</ele>
        <time>2014-02-12T11:28:46.000Z</time>
      </trkpt>
      <trkpt lat="45.9196" lon="6.49939">
        <ele>1793.4000244141</ele>
        <time>2014-02-12T11:28:47.000Z</time>
      </trkpt>
      <trkpt lat="45.9196" lon="6.49939">
        <ele>1793.4000244141</ele>
        <time>2014-02-12T11:28:48.000Z</time>
      </trkpt>
      <trkpt lat="45.9196" lon="6.49939">
        <ele>1793.4000244141</ele>
        <time>2014-02-12T11:28:49.000Z</time>
      </trkpt>
      <trkpt lat="45.91959" lon="6.49939">
        <ele>1793.5999755859</ele>
        <time>2014-02-12T11:28:50.000Z</time>
      </trkpt>
      <trkpt lat="45.91958" lon="6.49941">
        <ele>1794.5999755859</ele>
        <time>2014-02-12T11:28:51.000Z</time>
      </trkpt>
      <trkpt lat="45.91957" lon="6.49941">
        <ele>1795.4000244141</ele>
        <time>2014-02-12T11:28:52.000Z</time>
      </trkpt>
      <trkpt lat="45.91955" lon="6.49942">
        <ele>1796</ele>
        <time>2014-02-12T11:28:53.000Z</time>
      </trkpt>
      <trkpt lat="45.91954" lon="6.49942">
        <ele>1796.5999755859</ele>
        <time>2014-02-12T11:28:54.000Z</time>
      </trkpt>
      <trkpt lat="45.91953" lon="6.49942">
        <ele>1797</ele>
        <time>2014-02-12T11:28:55.000Z</time>
      </trkpt>
      <trkpt lat="45.91952" lon="6.49942">
        <ele>1797.4000244141</ele>
        <time>2014-02-12T11:28:56.000Z</time>
      </trkpt>
      <trkpt lat="45.91951" lon="6.49942">
        <ele>1797.5999755859</ele>
        <time>2014-02-12T11:28:57.000Z</time>
      </trkpt>
      <trkpt lat="45.91951" lon="6.49942">
        <ele>1798</ele>
        <time>2014-02-12T11:28:58.000Z</time>
      </trkpt>
      <trkpt lat="45.9195" lon="6.49942">
        <ele>1798.1999511719</ele>
        <time>2014-02-12T11:28:59.000Z</time>
      </trkpt>
      <trkpt lat="45.91949" lon="6.49942">
        <ele>1798.5999755859</ele>
        <time>2014-02-12T11:29:00.000Z</time>
      </trkpt>
      <trkpt lat="45.91948" lon="6.49941">
        <ele>1798.8000488281</ele>
        <time>2014-02-12T11:29:01.000Z</time>
      </trkpt>
      <trkpt lat="45.91948" lon="6.49941">
        <ele>1799</ele>
        <time>2014-02-12T11:29:02.000Z</time>
      </trkpt>
      <trkpt lat="45.91947" lon="6.49941">
        <ele>1799.1999511719</ele>
        <time>2014-02-12T11:29:03.000Z</time>
      </trkpt>
      <trkpt lat="45.91946" lon="6.49941">
        <ele>1799.4000244141</ele>
        <time>2014-02-12T11:29:04.000Z</time>
      </trkpt>
      <trkpt lat="45.91946" lon="6.49941">
        <ele>1799.5999755859</ele>
        <time>2014-02-12T11:29:05.000Z</time>
      </trkpt>
      <trkpt lat="45.91945" lon="6.4994">
        <ele>1799.8000488281</ele>
        <time>2014-02-12T11:29:06.000Z</time>
      </trkpt>
      <trkpt lat="45.91944" lon="6.4994">
        <ele>1800.1999511719</ele>
        <time>2014-02-12T11:29:07.000Z</time>
      </trkpt>
      <trkpt lat="45.91943" lon="6.4994">
        <ele>1800.5999755859</ele>
        <time>2014-02-12T11:29:08.000Z</time>
      </trkpt>
      <trkpt lat="45.91943" lon="6.4994">
        <ele>1800.5999755859</ele>
        <time>2014-02-12T11:29:09.000Z</time>
      </trkpt>
      <trkpt lat="45.91943" lon="6.4994">
        <ele>1800.5999755859</ele>
        <time>2014-02-12T11:29:10.000Z</time>
      </trkpt>
      <trkpt lat="45.91943" lon="6.4994">
        <ele>1800.5999755859</ele>
        <time>2014-02-12T11:29:11.000Z</time>
      </trkpt>
      <trkpt lat="45.91943" lon="6.4994">
        <ele>1800.5999755859</ele>
        <time>2014-02-12T11:29:12.000Z</time>
      </trkpt>
      <trkpt lat="45.91943" lon="6.4994">
        <ele>1800.5999755859</ele>
        <time>2014-02-12T11:29:13.000Z</time>
      </trkpt>
      <trkpt lat="45.91943" lon="6.4994">
        <ele>1800.5999755859</ele>
        <time>2014-02-12T11:29:14.000Z</time>
      </trkpt>
      <trkpt lat="45.91943" lon="6.4994">
        <ele>1800.5999755859</ele>
        <time>2014-02-12T11:29:15.000Z</time>
      </trkpt>
      <trkpt lat="45.91943" lon="6.4994">
        <ele>1800.5999755859</ele>
        <time>2014-02-12T11:29:16.000Z</time>
      </trkpt>
      <trkpt lat="45.91943" lon="6.4994">
        <ele>1800.5999755859</ele>
        <time>2014-02-12T11:29:17.000Z</time>
      </trkpt>
      <trkpt lat="45.91943" lon="6.4994">
        <ele>1800.5999755859</ele>
        <time>2014-02-12T11:29:18.000Z</time>
      </trkpt>
      <trkpt lat="45.91943" lon="6.4994">
        <ele>1800.5999755859</ele>
        <time>2014-02-12T11:29:19.000Z</time>
      </trkpt>
      <trkpt lat="45.91943" lon="6.4994">
        <ele>1800.5999755859</ele>
        <time>2014-02-12T11:29:20.000Z</time>
      </trkpt>
      <trkpt lat="45.91943" lon="6.4994">
        <ele>1800.5999755859</ele>
        <time>2014-02-12T11:29:21.000Z</time>
      </trkpt>
      <trkpt lat="45.91943" lon="6.4994">
        <ele>1800.5999755859</ele>
        <time>2014-02-12T11:29:22.000Z</time>
      </trkpt>
      <trkpt lat="45.91943" lon="6.4994">
        <ele>1800.5999755859</ele>
        <time>2014-02-12T11:29:23.000Z</time>
      </trkpt>
      <trkpt lat="45.91943" lon="6.4994">
        <ele>1800.5999755859</ele>
        <time>2014-02-12T11:29:24.000Z</time>
      </trkpt>
      <trkpt lat="45.91943" lon="6.4994">
        <ele>1800.5999755859</ele>
        <time>2014-02-12T11:29:25.000Z</time>
      </trkpt>
      <trkpt lat="45.91943" lon="6.4994">
        <ele>1800.5999755859</ele>
        <time>2014-02-12T11:29:26.000Z</time>
      </trkpt>
      <trkpt lat="45.91943" lon="6.4994">
        <ele>1800.5999755859</ele>
        <time>2014-02-12T11:29:27.000Z</time>
      </trkpt>
      <trkpt lat="45.91943" lon="6.4994">
        <ele>1800.5999755859</ele>
        <time>2014-02-12T11:29:28.000Z</time>
      </trkpt>
      <trkpt lat="45.91943" lon="6.49941">
        <ele>1800.8000488281</ele>
        <time>2014-02-12T11:29:29.000Z</time>
      </trkpt>
      <trkpt lat="45.91943" lon="6.49943">
        <ele>1801.1999511719</ele>
        <time>2014-02-12T11:29:30.000Z</time>
      </trkpt>
      <trkpt lat="45.91944" lon="6.49945">
        <ele>1801.5999755859</ele>
        <time>2014-02-12T11:29:31.000Z</time>
      </trkpt>
      <trkpt lat="45.91944" lon="6.49947">
        <ele>1802.1999511719</ele>
        <time>2014-02-12T11:29:32.000Z</time>
      </trkpt>
      <trkpt lat="45.91944" lon="6.49947">
        <ele>1802.1999511719</ele>
        <time>2014-02-12T11:29:33.000Z</time>
      </trkpt>
      <trkpt lat="45.91944" lon="6.49947">
        <ele>1802.1999511719</ele>
        <time>2014-02-12T11:29:34.000Z</time>
      </trkpt>
      <trkpt lat="45.91944" lon="6.49947">
        <ele>1802.1999511719</ele>
        <time>2014-02-12T11:29:35.000Z</time>
      </trkpt>
      <trkpt lat="45.91944" lon="6.49947">
        <ele>1802.1999511719</ele>
        <time>2014-02-12T11:29:36.000Z</time>
      </trkpt>
      <trkpt lat="45.91944" lon="6.49947">
        <ele>1802.1999511719</ele>
        <time>2014-02-12T11:29:37.000Z</time>
      </trkpt>
      <trkpt lat="45.91944" lon="6.49947">
        <ele>1802.1999511719</ele>
        <time>2014-02-12T11:29:38.000Z</time>
      </trkpt>
      <trkpt lat="45.91944" lon="6.49947">
        <ele>1802.1999511719</ele>
        <time>2014-02-12T11:29:39.000Z</time>
      </trkpt>
      <trkpt lat="45.91944" lon="6.49947">
        <ele>1802.1999511719</ele>
        <time>2014-02-12T11:29:40.000Z</time>
      </trkpt>
      <trkpt lat="45.91944" lon="6.49947">
        <ele>1802.1999511719</ele>
        <time>2014-02-12T11:29:41.000Z</time>
      </trkpt>
      <trkpt lat="45.91944" lon="6.49947">
        <ele>1802.1999511719</ele>
        <time>2014-02-12T11:29:42.000Z</time>
      </trkpt>
      <trkpt lat="45.91944" lon="6.49947">
        <ele>1802.1999511719</ele>
        <time>2014-02-12T11:29:43.000Z</time>
      </trkpt>
      <trkpt lat="45.91944" lon="6.49947">
        <ele>1802.1999511719</ele>
        <time>2014-02-12T11:29:44.000Z</time>
      </trkpt>
      <trkpt lat="45.91944" lon="6.49947">
        <ele>1802.1999511719</ele>
        <time>2014-02-12T11:29:45.000Z</time>
      </trkpt>
      <trkpt lat="45.91944" lon="6.49947">
        <ele>1802.1999511719</ele>
        <time>2014-02-12T11:29:46.000Z</time>
      </trkpt>
      <trkpt lat="45.91944" lon="6.49947">
        <ele>1802.1999511719</ele>
        <time>2014-02-12T11:29:47.000Z</time>
      </trkpt>
      <trkpt lat="45.91944" lon="6.49947">
        <ele>1802.1999511719</ele>
        <time>2014-02-12T11:29:48.000Z</time>
      </trkpt>
      <trkpt lat="45.91944" lon="6.49947">
        <ele>1802.1999511719</ele>
        <time>2014-02-12T11:29:49.000Z</time>
      </trkpt>
      <trkpt lat="45.91944" lon="6.49947">
        <ele>1802.1999511719</ele>
        <time>2014-02-12T11:29:50.000Z</time>
      </trkpt>
      <trkpt lat="45.91944" lon="6.49947">
        <ele>1802.1999511719</ele>
        <time>2014-02-12T11:29:51.000Z</time>
      </trkpt>
      <trkpt lat="45.91944" lon="6.49947">
        <ele>1802.1999511719</ele>
        <time>2014-02-12T11:29:52.000Z</time>
      </trkpt>
      <trkpt lat="45.91944" lon="6.49947">
        <ele>1802.1999511719</ele>
        <time>2014-02-12T11:29:53.000Z</time>
      </trkpt>
      <trkpt lat="45.91944" lon="6.49947">
        <ele>1802.1999511719</ele>
        <time>2014-02-12T11:29:54.000Z</time>
      </trkpt>
      <trkpt lat="45.91944" lon="6.49947">
        <ele>1802.1999511719</ele>
        <time>2014-02-12T11:29:55.000Z</time>
      </trkpt>
      <trkpt lat="45.91944" lon="6.49947">
        <ele>1802.1999511719</ele>
        <time>2014-02-12T11:29:56.000Z</time>
      </trkpt>
      <trkpt lat="45.91944" lon="6.49947">
        <ele>1802.1999511719</ele>
        <time>2014-02-12T11:29:57.000Z</time>
      </trkpt>
      <trkpt lat="45.91944" lon="6.49947">
        <ele>1802.1999511719</ele>
        <time>2014-02-12T11:29:58.000Z</time>
      </trkpt>
      <trkpt lat="45.91944" lon="6.49947">
        <ele>1802.1999511719</ele>
        <time>2014-02-12T11:29:59.000Z</time>
      </trkpt>
      <trkpt lat="45.91944" lon="6.49947">
        <ele>1802.1999511719</ele>
        <time>2014-02-12T11:30:00.000Z</time>
      </trkpt>
      <trkpt lat="45.91943" lon="6.49947">
        <ele>1802.5999755859</ele>
        <time>2014-02-12T11:30:01.000Z</time>
      </trkpt>
      <trkpt lat="45.91943" lon="6.49949">
        <ele>1803.4000244141</ele>
        <time>2014-02-12T11:30:02.000Z</time>
      </trkpt>
      <trkpt lat="45.91941" lon="6.49951">
        <ele>1804.5999755859</ele>
        <time>2014-02-12T11:30:03.000Z</time>
      </trkpt>
      <trkpt lat="45.9194" lon="6.49952">
        <ele>1805.4000244141</ele>
        <time>2014-02-12T11:30:04.000Z</time>
      </trkpt>
      <trkpt lat="45.91939" lon="6.49953">
        <ele>1806.1999511719</ele>
        <time>2014-02-12T11:30:05.000Z</time>
      </trkpt>
      <trkpt lat="45.91937" lon="6.49954">
        <ele>1807.1999511719</ele>
        <time>2014-02-12T11:30:06.000Z</time>
      </trkpt>
      <trkpt lat="45.91936" lon="6.49955">
        <ele>1807.8000488281</ele>
        <time>2014-02-12T11:30:07.000Z</time>
      </trkpt>
      <trkpt lat="45.91934" lon="6.49957">
        <ele>1808.8000488281</ele>
        <time>2014-02-12T11:30:08.000Z</time>
      </trkpt>
      <trkpt lat="45.91934" lon="6.49957">
        <ele>1809.1999511719</ele>
        <time>2014-02-12T11:30:09.000Z</time>
      </trkpt>
      <trkpt lat="45.91933" lon="6.49958">
        <ele>1809.8000488281</ele>
        <time>2014-02-12T11:30:10.000Z</time>
      </trkpt>
      <trkpt lat="45.91932" lon="6.49958">
        <ele>1810.4000244141</ele>
        <time>2014-02-12T11:30:11.000Z</time>
      </trkpt>
      <trkpt lat="45.91931" lon="6.49958">
        <ele>1810.5999755859</ele>
        <time>2014-02-12T11:30:12.000Z</time>
      </trkpt>
      <trkpt lat="45.91931" lon="6.49958">
        <ele>1810.5999755859</ele>
        <time>2014-02-12T11:30:13.000Z</time>
      </trkpt>
      <trkpt lat="45.91931" lon="6.49958">
        <ele>1810.5999755859</ele>
        <time>2014-02-12T11:30:14.000Z</time>
      </trkpt>
      <trkpt lat="45.91931" lon="6.49958">
        <ele>1810.5999755859</ele>
        <time>2014-02-12T11:30:15.000Z</time>
      </trkpt>
      <trkpt lat="45.91931" lon="6.49958">
        <ele>1810.5999755859</ele>
        <time>2014-02-12T11:30:16.000Z</time>
      </trkpt>
      <trkpt lat="45.91931" lon="6.49958">
        <ele>1810.5999755859</ele>
        <time>2014-02-12T11:30:17.000Z</time>
      </trkpt>
      <trkpt lat="45.91931" lon="6.49958">
        <ele>1810.5999755859</ele>
        <time>2014-02-12T11:30:18.000Z</time>
      </trkpt>
      <trkpt lat="45.91931" lon="6.49958">
        <ele>1810.5999755859</ele>
        <time>2014-02-12T11:30:19.000Z</time>
      </trkpt>
      <trkpt lat="45.91931" lon="6.49958">
        <ele>1810.5999755859</ele>
        <time>2014-02-12T11:30:20.000Z</time>
      </trkpt>
      <trkpt lat="45.91931" lon="6.49958">
        <ele>1810.5999755859</ele>
        <time>2014-02-12T11:30:21.000Z</time>
      </trkpt>
      <trkpt lat="45.91931" lon="6.49958">
        <ele>1810.5999755859</ele>
        <time>2014-02-12T11:30:22.000Z</time>
      </trkpt>
      <trkpt lat="45.91931" lon="6.49958">
        <ele>1810.5999755859</ele>
        <time>2014-02-12T11:30:23.000Z</time>
      </trkpt>
      <trkpt lat="45.91931" lon="6.49958">
        <ele>1810.5999755859</ele>
        <time>2014-02-12T11:30:24.000Z</time>
      </trkpt>
      <trkpt lat="45.91931" lon="6.49958">
        <ele>1810.5999755859</ele>
        <time>2014-02-12T11:30:25.000Z</time>
      </trkpt>
      <trkpt lat="45.91931" lon="6.49958">
        <ele>1810.5999755859</ele>
        <time>2014-02-12T11:30:26.000Z</time>
      </trkpt>
      <trkpt lat="45.91931" lon="6.49958">
        <ele>1810.5999755859</ele>
        <time>2014-02-12T11:30:27.000Z</time>
      </trkpt>
      <trkpt lat="45.91931" lon="6.49958">
        <ele>1810.5999755859</ele>
        <time>2014-02-12T11:30:28.000Z</time>
      </trkpt>
      <trkpt lat="45.91931" lon="6.49958">
        <ele>1810.5999755859</ele>
        <time>2014-02-12T11:30:29.000Z</time>
      </trkpt>
      <trkpt lat="45.91931" lon="6.49958">
        <ele>1810.5999755859</ele>
        <time>2014-02-12T11:30:30.000Z</time>
      </trkpt>
      <trkpt lat="45.91931" lon="6.49958">
        <ele>1810.5999755859</ele>
        <time>2014-02-12T11:30:31.000Z</time>
      </trkpt>
      <trkpt lat="45.91931" lon="6.49958">
        <ele>1810.5999755859</ele>
        <time>2014-02-12T11:30:32.000Z</time>
      </trkpt>
      <trkpt lat="45.91931" lon="6.49958">
        <ele>1810.5999755859</ele>
        <time>2014-02-12T11:30:33.000Z</time>
      </trkpt>
      <trkpt lat="45.91931" lon="6.49958">
        <ele>1810.5999755859</ele>
        <time>2014-02-12T11:30:34.000Z</time>
      </trkpt>
      <trkpt lat="45.91931" lon="6.49958">
        <ele>1810.5999755859</ele>
        <time>2014-02-12T11:30:35.000Z</time>
      </trkpt>
      <trkpt lat="45.91931" lon="6.49958">
        <ele>1810.5999755859</ele>
        <time>2014-02-12T11:30:36.000Z</time>
      </trkpt>
      <trkpt lat="45.91931" lon="6.49958">
        <ele>1810.5999755859</ele>
        <time>2014-02-12T11:30:37.000Z</time>
      </trkpt>
      <trkpt lat="45.91931" lon="6.49958">
        <ele>1810.5999755859</ele>
        <time>2014-02-12T11:30:38.000Z</time>
      </trkpt>
      <trkpt lat="45.91931" lon="6.49958">
        <ele>1810.5999755859</ele>
        <time>2014-02-12T11:30:39.000Z</time>
      </trkpt>
      <trkpt lat="45.91931" lon="6.49958">
        <ele>1810.5999755859</ele>
        <time>2014-02-12T11:30:40.000Z</time>
      </trkpt>
      <trkpt lat="45.91931" lon="6.49958">
        <ele>1810.5999755859</ele>
        <time>2014-02-12T11:30:41.000Z</time>
      </trkpt>
      <trkpt lat="45.91931" lon="6.49958">
        <ele>1810.5999755859</ele>
        <time>2014-02-12T11:30:42.000Z</time>
      </trkpt>
      <trkpt lat="45.91931" lon="6.49958">
        <ele>1810.5999755859</ele>
        <time>2014-02-12T11:30:43.000Z</time>
      </trkpt>
      <trkpt lat="45.91931" lon="6.49958">
        <ele>1810.5999755859</ele>
        <time>2014-02-12T11:30:44.000Z</time>
      </trkpt>
      <trkpt lat="45.91931" lon="6.49958">
        <ele>1810.5999755859</ele>
        <time>2014-02-12T11:30:45.000Z</time>
      </trkpt>
      <trkpt lat="45.91931" lon="6.49958">
        <ele>1810.5999755859</ele>
        <time>2014-02-12T11:30:46.000Z</time>
      </trkpt>
      <trkpt lat="45.91931" lon="6.49958">
        <ele>1810.5999755859</ele>
        <time>2014-02-12T11:30:47.000Z</time>
      </trkpt>
      <trkpt lat="45.91931" lon="6.49958">
        <ele>1810.5999755859</ele>
        <time>2014-02-12T11:30:48.000Z</time>
      </trkpt>
      <trkpt lat="45.91931" lon="6.49958">
        <ele>1810.5999755859</ele>
        <time>2014-02-12T11:30:49.000Z</time>
      </trkpt>
      <trkpt lat="45.91931" lon="6.49958">
        <ele>1810.5999755859</ele>
        <time>2014-02-12T11:30:50.000Z</time>
      </trkpt>
      <trkpt lat="45.91931" lon="6.49958">
        <ele>1810.5999755859</ele>
        <time>2014-02-12T11:30:51.000Z</time>
      </trkpt>
      <trkpt lat="45.91929" lon="6.49953">
        <ele>1809.8000488281</ele>
        <time>2014-02-12T11:30:52.000Z</time>
      </trkpt>
      <trkpt lat="45.91929" lon="6.49953">
        <ele>1809.8000488281</ele>
        <time>2014-02-12T11:30:53.000Z</time>
      </trkpt>
      <trkpt lat="45.91929" lon="6.49953">
        <ele>1809.8000488281</ele>
        <time>2014-02-12T11:30:54.000Z</time>
      </trkpt>
      <trkpt lat="45.91929" lon="6.49953">
        <ele>1809.8000488281</ele>
        <time>2014-02-12T11:30:55.000Z</time>
      </trkpt>
      <trkpt lat="45.91929" lon="6.49953">
        <ele>1809.8000488281</ele>
        <time>2014-02-12T11:30:57.000Z</time>
      </trkpt>
      <trkpt lat="45.91929" lon="6.49953">
        <ele>1809.8000488281</ele>
        <time>2014-02-12T11:30:58.000Z</time>
      </trkpt>
      <trkpt lat="45.91929" lon="6.49953">
        <ele>1809.8000488281</ele>
        <time>2014-02-12T11:30:59.000Z</time>
      </trkpt>
      <trkpt lat="45.91929" lon="6.49953">
        <ele>1809.8000488281</ele>
        <time>2014-02-12T11:31:00.000Z</time>
      </trkpt>
      <trkpt lat="45.91929" lon="6.49953">
        <ele>1809.8000488281</ele>
        <time>2014-02-12T11:31:01.000Z</time>
      </trkpt>
      <trkpt lat="45.91929" lon="6.49953">
        <ele>1809.8000488281</ele>
        <time>2014-02-12T11:31:02.000Z</time>
      </trkpt>
      <trkpt lat="45.91929" lon="6.49953">
        <ele>1809.8000488281</ele>
        <time>2014-02-12T11:31:03.000Z</time>
      </trkpt>
      <trkpt lat="45.91929" lon="6.49953">
        <ele>1809.8000488281</ele>
        <time>2014-02-12T11:31:04.000Z</time>
      </trkpt>
      <trkpt lat="45.91929" lon="6.49953">
        <ele>1809.8000488281</ele>
        <time>2014-02-12T11:31:05.000Z</time>
      </trkpt>
      <trkpt lat="45.91929" lon="6.49953">
        <ele>1809.8000488281</ele>
        <time>2014-02-12T11:31:06.000Z</time>
      </trkpt>
      <trkpt lat="45.91929" lon="6.49953">
        <ele>1809.8000488281</ele>
        <time>2014-02-12T11:31:07.000Z</time>
      </trkpt>
      <trkpt lat="45.91929" lon="6.49953">
        <ele>1809.8000488281</ele>
        <time>2014-02-12T11:31:08.000Z</time>
      </trkpt>
      <trkpt lat="45.91929" lon="6.49953">
        <ele>1809.8000488281</ele>
        <time>2014-02-12T11:31:09.000Z</time>
      </trkpt>
      <trkpt lat="45.91929" lon="6.49953">
        <ele>1809.8000488281</ele>
        <time>2014-02-12T11:31:10.000Z</time>
      </trkpt>
      <trkpt lat="45.91929" lon="6.49953">
        <ele>1809.8000488281</ele>
        <time>2014-02-12T11:31:11.000Z</time>
      </trkpt>
      <trkpt lat="45.91928" lon="6.49953">
        <ele>1810.4000244141</ele>
        <time>2014-02-12T11:31:12.000Z</time>
      </trkpt>
      <trkpt lat="45.91926" lon="6.49953">
        <ele>1811.1999511719</ele>
        <time>2014-02-12T11:31:13.000Z</time>
      </trkpt>
      <trkpt lat="45.91924" lon="6.49954">
        <ele>1812</ele>
        <time>2014-02-12T11:31:14.000Z</time>
      </trkpt>
      <trkpt lat="45.91922" lon="6.49955">
        <ele>1813.1999511719</ele>
        <time>2014-02-12T11:31:15.000Z</time>
      </trkpt>
      <trkpt lat="45.9192" lon="6.49956">
        <ele>1814.4000244141</ele>
        <time>2014-02-12T11:31:16.000Z</time>
      </trkpt>
      <trkpt lat="45.91919" lon="6.49956">
        <ele>1814.8000488281</ele>
        <time>2014-02-12T11:31:17.000Z</time>
      </trkpt>
      <trkpt lat="45.91917" lon="6.49956">
        <ele>1815.5999755859</ele>
        <time>2014-02-12T11:31:18.000Z</time>
      </trkpt>
      <trkpt lat="45.91914" lon="6.49956">
        <ele>1816.4000244141</ele>
        <time>2014-02-12T11:31:19.000Z</time>
      </trkpt>
      <trkpt lat="45.91914" lon="6.49956">
        <ele>1817</ele>
        <time>2014-02-12T11:31:20.000Z</time>
      </trkpt>
      <trkpt lat="45.91912" lon="6.49956">
        <ele>1817.4000244141</ele>
        <time>2014-02-12T11:31:21.000Z</time>
      </trkpt>
      <trkpt lat="45.91911" lon="6.49955">
        <ele>1818</ele>
        <time>2014-02-12T11:31:22.000Z</time>
      </trkpt>
      <trkpt lat="45.91909" lon="6.49955">
        <ele>1818.5999755859</ele>
        <time>2014-02-12T11:31:23.000Z</time>
      </trkpt>
      <trkpt lat="45.91908" lon="6.49955">
        <ele>1818.8000488281</ele>
        <time>2014-02-12T11:31:24.000Z</time>
      </trkpt>
      <trkpt lat="45.91907" lon="6.49955">
        <ele>1819.1999511719</ele>
        <time>2014-02-12T11:31:25.000Z</time>
      </trkpt>
      <trkpt lat="45.91906" lon="6.49955">
        <ele>1819.5999755859</ele>
        <time>2014-02-12T11:31:26.000Z</time>
      </trkpt>
      <trkpt lat="45.91905" lon="6.49955">
        <ele>1820</ele>
        <time>2014-02-12T11:31:27.000Z</time>
      </trkpt>
      <trkpt lat="45.91904" lon="6.49954">
        <ele>1820.1999511719</ele>
        <time>2014-02-12T11:31:28.000Z</time>
      </trkpt>
      <trkpt lat="45.91903" lon="6.49954">
        <ele>1820.4000244141</ele>
        <time>2014-02-12T11:31:29.000Z</time>
      </trkpt>
      <trkpt lat="45.91902" lon="6.49953">
        <ele>1820.5999755859</ele>
        <time>2014-02-12T11:31:30.000Z</time>
      </trkpt>
      <trkpt lat="45.91901" lon="6.49953">
        <ele>1820.8000488281</ele>
        <time>2014-02-12T11:31:31.000Z</time>
      </trkpt>
      <trkpt lat="45.919" lon="6.49952">
        <ele>1821.1999511719</ele>
        <time>2014-02-12T11:31:32.000Z</time>
      </trkpt>
      <trkpt lat="45.91899" lon="6.49952">
        <ele>1821.4000244141</ele>
        <time>2014-02-12T11:31:33.000Z</time>
      </trkpt>
      <trkpt lat="45.91898" lon="6.49951">
        <ele>1821.8000488281</ele>
        <time>2014-02-12T11:31:34.000Z</time>
      </trkpt>
      <trkpt lat="45.91897" lon="6.49951">
        <ele>1822.1999511719</ele>
        <time>2014-02-12T11:31:35.000Z</time>
      </trkpt>
      <trkpt lat="45.91895" lon="6.4995">
        <ele>1822.5999755859</ele>
        <time>2014-02-12T11:31:36.000Z</time>
      </trkpt>
      <trkpt lat="45.91894" lon="6.4995">
        <ele>1822.8000488281</ele>
        <time>2014-02-12T11:31:37.000Z</time>
      </trkpt>
      <trkpt lat="45.91893" lon="6.49949">
        <ele>1823.1999511719</ele>
        <time>2014-02-12T11:31:38.000Z</time>
      </trkpt>
      <trkpt lat="45.91891" lon="6.49948">
        <ele>1823.5999755859</ele>
        <time>2014-02-12T11:31:39.000Z</time>
      </trkpt>
      <trkpt lat="45.91891" lon="6.49948">
        <ele>1823.8000488281</ele>
        <time>2014-02-12T11:31:40.000Z</time>
      </trkpt>
      <trkpt lat="45.91889" lon="6.49947">
        <ele>1824.1999511719</ele>
        <time>2014-02-12T11:31:41.000Z</time>
      </trkpt>
      <trkpt lat="45.91889" lon="6.49947">
        <ele>1824.4000244141</ele>
        <time>2014-02-12T11:31:42.000Z</time>
      </trkpt>
      <trkpt lat="45.91888" lon="6.49946">
        <ele>1824.5999755859</ele>
        <time>2014-02-12T11:31:43.000Z</time>
      </trkpt>
      <trkpt lat="45.91887" lon="6.49946">
        <ele>1824.8000488281</ele>
        <time>2014-02-12T11:31:44.000Z</time>
      </trkpt>
      <trkpt lat="45.91883" lon="6.49944">
        <ele>1826</ele>
        <time>2014-02-12T11:31:45.000Z</time>
      </trkpt>
      <trkpt lat="45.91879" lon="6.49943">
        <ele>1827.4000244141</ele>
        <time>2014-02-12T11:31:46.000Z</time>
      </trkpt>
      <trkpt lat="45.91878" lon="6.49942">
        <ele>1827.5999755859</ele>
        <time>2014-02-12T11:31:47.000Z</time>
      </trkpt>
      <trkpt lat="45.91877" lon="6.49941">
        <ele>1827.5999755859</ele>
        <time>2014-02-12T11:31:48.000Z</time>
      </trkpt>
      <trkpt lat="45.91876" lon="6.4994">
        <ele>1828</ele>
        <time>2014-02-12T11:31:49.000Z</time>
      </trkpt>
      <trkpt lat="45.91874" lon="6.49938">
        <ele>1828</ele>
        <time>2014-02-12T11:31:50.000Z</time>
      </trkpt>
      <trkpt lat="45.91874" lon="6.49937">
        <ele>1828</ele>
        <time>2014-02-12T11:31:51.000Z</time>
      </trkpt>
      <trkpt lat="45.91872" lon="6.49935">
        <ele>1828</ele>
        <time>2014-02-12T11:31:52.000Z</time>
      </trkpt>
      <trkpt lat="45.91872" lon="6.49935">
        <ele>1828</ele>
        <time>2014-02-12T11:31:53.000Z</time>
      </trkpt>
      <trkpt lat="45.91871" lon="6.49933">
        <ele>1828.1999511719</ele>
        <time>2014-02-12T11:31:54.000Z</time>
      </trkpt>
      <trkpt lat="45.91871" lon="6.49932">
        <ele>1828.1999511719</ele>
        <time>2014-02-12T11:31:55.000Z</time>
      </trkpt>
      <trkpt lat="45.9187" lon="6.49932">
        <ele>1828.1999511719</ele>
        <time>2014-02-12T11:31:56.000Z</time>
      </trkpt>
      <trkpt lat="45.91869" lon="6.49931">
        <ele>1828.1999511719</ele>
        <time>2014-02-12T11:31:57.000Z</time>
      </trkpt>
      <trkpt lat="45.91875" lon="6.49927">
        <ele>1824.5999755859</ele>
        <time>2014-02-12T11:31:58.000Z</time>
      </trkpt>
      <trkpt lat="45.91879" lon="6.49923">
        <ele>1821.5999755859</ele>
        <time>2014-02-12T11:31:59.000Z</time>
      </trkpt>
      <trkpt lat="45.91883" lon="6.49924">
        <ele>1820</ele>
        <time>2014-02-12T11:32:00.000Z</time>
      </trkpt>
      <trkpt lat="45.91885" lon="6.49924">
        <ele>1819.1999511719</ele>
        <time>2014-02-12T11:32:01.000Z</time>
      </trkpt>
      <trkpt lat="45.91886" lon="6.49925">
        <ele>1819</ele>
        <time>2014-02-12T11:32:02.000Z</time>
      </trkpt>
      <trkpt lat="45.91887" lon="6.49926">
        <ele>1819</ele>
        <time>2014-02-12T11:32:03.000Z</time>
      </trkpt>
      <trkpt lat="45.91888" lon="6.49928">
        <ele>1819.4000244141</ele>
        <time>2014-02-12T11:32:04.000Z</time>
      </trkpt>
      <trkpt lat="45.91888" lon="6.49929">
        <ele>1819.1999511719</ele>
        <time>2014-02-12T11:32:05.000Z</time>
      </trkpt>
      <trkpt lat="45.91889" lon="6.4993">
        <ele>1819.1999511719</ele>
        <time>2014-02-12T11:32:06.000Z</time>
      </trkpt>
      <trkpt lat="45.9189" lon="6.49931">
        <ele>1819.1999511719</ele>
        <time>2014-02-12T11:32:07.000Z</time>
      </trkpt>
      <trkpt lat="45.9189" lon="6.49932">
        <ele>1819.4000244141</ele>
        <time>2014-02-12T11:32:08.000Z</time>
      </trkpt>
      <trkpt lat="45.91889" lon="6.49934">
        <ele>1820.1999511719</ele>
        <time>2014-02-12T11:32:09.000Z</time>
      </trkpt>
      <trkpt lat="45.9189" lon="6.49934">
        <ele>1820</ele>
        <time>2014-02-12T11:32:10.000Z</time>
      </trkpt>
      <trkpt lat="45.91889" lon="6.49936">
        <ele>1821</ele>
        <time>2014-02-12T11:32:11.000Z</time>
      </trkpt>
      <trkpt lat="45.91889" lon="6.49937">
        <ele>1821.4000244141</ele>
        <time>2014-02-12T11:32:12.000Z</time>
      </trkpt>
      <trkpt lat="45.91888" lon="6.49938">
        <ele>1822</ele>
        <time>2014-02-12T11:32:13.000Z</time>
      </trkpt>
      <trkpt lat="45.91887" lon="6.49939">
        <ele>1822.5999755859</ele>
        <time>2014-02-12T11:32:14.000Z</time>
      </trkpt>
      <trkpt lat="45.91887" lon="6.4994">
        <ele>1823</ele>
        <time>2014-02-12T11:32:15.000Z</time>
      </trkpt>
      <trkpt lat="45.91887" lon="6.49941">
        <ele>1823.4000244141</ele>
        <time>2014-02-12T11:32:16.000Z</time>
      </trkpt>
      <trkpt lat="45.91886" lon="6.49942">
        <ele>1824</ele>
        <time>2014-02-12T11:32:17.000Z</time>
      </trkpt>
      <trkpt lat="45.91887" lon="6.49942">
        <ele>1823.8000488281</ele>
        <time>2014-02-12T11:32:18.000Z</time>
      </trkpt>
      <trkpt lat="45.91887" lon="6.49943">
        <ele>1824</ele>
        <time>2014-02-12T11:32:19.000Z</time>
      </trkpt>
      <trkpt lat="45.91887" lon="6.49945">
        <ele>1824.4000244141</ele>
        <time>2014-02-12T11:32:20.000Z</time>
      </trkpt>
      <trkpt lat="45.91887" lon="6.49946">
        <ele>1824.8000488281</ele>
        <time>2014-02-12T11:32:21.000Z</time>
      </trkpt>
      <trkpt lat="45.91887" lon="6.49947">
        <ele>1825.1999511719</ele>
        <time>2014-02-12T11:32:22.000Z</time>
      </trkpt>
      <trkpt lat="45.91887" lon="6.49948">
        <ele>1825.5999755859</ele>
        <time>2014-02-12T11:32:23.000Z</time>
      </trkpt>
      <trkpt lat="45.91886" lon="6.49949">
        <ele>1826</ele>
        <time>2014-02-12T11:32:24.000Z</time>
      </trkpt>
      <trkpt lat="45.91886" lon="6.4995">
        <ele>1826.4000244141</ele>
        <time>2014-02-12T11:32:25.000Z</time>
      </trkpt>
      <trkpt lat="45.91886" lon="6.49951">
        <ele>1826.5999755859</ele>
        <time>2014-02-12T11:32:26.000Z</time>
      </trkpt>
      <trkpt lat="45.91886" lon="6.49952">
        <ele>1827</ele>
        <time>2014-02-12T11:32:27.000Z</time>
      </trkpt>
      <trkpt lat="45.91886" lon="6.49954">
        <ele>1827.5999755859</ele>
        <time>2014-02-12T11:32:28.000Z</time>
      </trkpt>
      <trkpt lat="45.91885" lon="6.49955">
        <ele>1828</ele>
        <time>2014-02-12T11:32:29.000Z</time>
      </trkpt>
      <trkpt lat="45.91885" lon="6.49956">
        <ele>1828.5999755859</ele>
        <time>2014-02-12T11:32:30.000Z</time>
      </trkpt>
      <trkpt lat="45.91884" lon="6.49957">
        <ele>1829</ele>
        <time>2014-02-12T11:32:31.000Z</time>
      </trkpt>
      <trkpt lat="45.91884" lon="6.49959">
        <ele>1829.5999755859</ele>
        <time>2014-02-12T11:32:32.000Z</time>
      </trkpt>
      <trkpt lat="45.91883" lon="6.49961">
        <ele>1830.8000488281</ele>
        <time>2014-02-12T11:32:33.000Z</time>
      </trkpt>
      <trkpt lat="45.91883" lon="6.49962">
        <ele>1830.8000488281</ele>
        <time>2014-02-12T11:32:34.000Z</time>
      </trkpt>
      <trkpt lat="45.91883" lon="6.49963">
        <ele>1831.4000244141</ele>
        <time>2014-02-12T11:32:35.000Z</time>
      </trkpt>
      <trkpt lat="45.91883" lon="6.49964">
        <ele>1831.8000488281</ele>
        <time>2014-02-12T11:32:36.000Z</time>
      </trkpt>
      <trkpt lat="45.91883" lon="6.49965">
        <ele>1832.1999511719</ele>
        <time>2014-02-12T11:32:37.000Z</time>
      </trkpt>
      <trkpt lat="45.91882" lon="6.49967">
        <ele>1832.8000488281</ele>
        <time>2014-02-12T11:32:38.000Z</time>
      </trkpt>
      <trkpt lat="45.91882" lon="6.49968">
        <ele>1833.1999511719</ele>
        <time>2014-02-12T11:32:39.000Z</time>
      </trkpt>
      <trkpt lat="45.91882" lon="6.4997">
        <ele>1834</ele>
        <time>2014-02-12T11:32:40.000Z</time>
      </trkpt>
      <trkpt lat="45.91881" lon="6.49971">
        <ele>1834.4000244141</ele>
        <time>2014-02-12T11:32:41.000Z</time>
      </trkpt>
      <trkpt lat="45.91882" lon="6.49972">
        <ele>1834.4000244141</ele>
        <time>2014-02-12T11:32:42.000Z</time>
      </trkpt>
      <trkpt lat="45.91881" lon="6.49974">
        <ele>1835.4000244141</ele>
        <time>2014-02-12T11:32:43.000Z</time>
      </trkpt>
      <trkpt lat="45.91881" lon="6.49974">
        <ele>1835.4000244141</ele>
        <time>2014-02-12T11:32:44.000Z</time>
      </trkpt>
      <trkpt lat="45.91881" lon="6.49975">
        <ele>1835.8000488281</ele>
        <time>2014-02-12T11:32:45.000Z</time>
      </trkpt>
      <trkpt lat="45.9188" lon="6.49977">
        <ele>1836.4000244141</ele>
        <time>2014-02-12T11:32:46.000Z</time>
      </trkpt>
      <trkpt lat="45.9188" lon="6.49978">
        <ele>1837</ele>
        <time>2014-02-12T11:32:47.000Z</time>
      </trkpt>
      <trkpt lat="45.9188" lon="6.49979">
        <ele>1837.1999511719</ele>
        <time>2014-02-12T11:32:48.000Z</time>
      </trkpt>
      <trkpt lat="45.91879" lon="6.4998">
        <ele>1837.4000244141</ele>
        <time>2014-02-12T11:32:49.000Z</time>
      </trkpt>
      <trkpt lat="45.9188" lon="6.49981">
        <ele>1837.4000244141</ele>
        <time>2014-02-12T11:32:50.000Z</time>
      </trkpt>
      <trkpt lat="45.91881" lon="6.49981">
        <ele>1837.1999511719</ele>
        <time>2014-02-12T11:32:51.000Z</time>
      </trkpt>
      <trkpt lat="45.91881" lon="6.49981">
        <ele>1837.4000244141</ele>
        <time>2014-02-12T11:32:52.000Z</time>
      </trkpt>
      <trkpt lat="45.91881" lon="6.49981">
        <ele>1837</ele>
        <time>2014-02-12T11:32:53.000Z</time>
      </trkpt>
      <trkpt lat="45.91881" lon="6.49982">
        <ele>1837.1999511719</ele>
        <time>2014-02-12T11:32:54.000Z</time>
      </trkpt>
      <trkpt lat="45.91881" lon="6.49982">
        <ele>1837.4000244141</ele>
        <time>2014-02-12T11:32:55.000Z</time>
      </trkpt>
      <trkpt lat="45.9188" lon="6.49982">
        <ele>1837.5999755859</ele>
        <time>2014-02-12T11:32:56.000Z</time>
      </trkpt>
      <trkpt lat="45.9188" lon="6.49982">
        <ele>1838</ele>
        <time>2014-02-12T11:32:57.000Z</time>
      </trkpt>
      <trkpt lat="45.91879" lon="6.49983">
        <ele>1838.1999511719</ele>
        <time>2014-02-12T11:32:58.000Z</time>
      </trkpt>
      <trkpt lat="45.91878" lon="6.49983">
        <ele>1838.4000244141</ele>
        <time>2014-02-12T11:32:59.000Z</time>
      </trkpt>
      <trkpt lat="45.91878" lon="6.49983">
        <ele>1838.5999755859</ele>
        <time>2014-02-12T11:33:00.000Z</time>
      </trkpt>
      <trkpt lat="45.91877" lon="6.49982">
        <ele>1838.8000488281</ele>
        <time>2014-02-12T11:33:01.000Z</time>
      </trkpt>
      <trkpt lat="45.91877" lon="6.49981">
        <ele>1838.8000488281</ele>
        <time>2014-02-12T11:33:02.000Z</time>
      </trkpt>
      <trkpt lat="45.91876" lon="6.49981">
        <ele>1838.8000488281</ele>
        <time>2014-02-12T11:33:03.000Z</time>
      </trkpt>
      <trkpt lat="45.91875" lon="6.4998">
        <ele>1839</ele>
        <time>2014-02-12T11:33:04.000Z</time>
      </trkpt>
      <trkpt lat="45.91875" lon="6.4998">
        <ele>1839.1999511719</ele>
        <time>2014-02-12T11:33:05.000Z</time>
      </trkpt>
      <trkpt lat="45.91874" lon="6.49979">
        <ele>1839.1999511719</ele>
        <time>2014-02-12T11:33:06.000Z</time>
      </trkpt>
      <trkpt lat="45.91874" lon="6.49979">
        <ele>1839.4000244141</ele>
        <time>2014-02-12T11:33:07.000Z</time>
      </trkpt>
      <trkpt lat="45.91873" lon="6.49978">
        <ele>1839.4000244141</ele>
        <time>2014-02-12T11:33:08.000Z</time>
      </trkpt>
      <trkpt lat="45.91873" lon="6.49978">
        <ele>1839.5999755859</ele>
        <time>2014-02-12T11:33:09.000Z</time>
      </trkpt>
      <trkpt lat="45.91872" lon="6.49978">
        <ele>1839.8000488281</ele>
        <time>2014-02-12T11:33:10.000Z</time>
      </trkpt>
      <trkpt lat="45.91872" lon="6.49977">
        <ele>1839.8000488281</ele>
        <time>2014-02-12T11:33:11.000Z</time>
      </trkpt>
      <trkpt lat="45.91871" lon="6.49977">
        <ele>1840</ele>
        <time>2014-02-12T11:33:12.000Z</time>
      </trkpt>
      <trkpt lat="45.9187" lon="6.49976">
        <ele>1840</ele>
        <time>2014-02-12T11:33:13.000Z</time>
      </trkpt>
      <trkpt lat="45.91869" lon="6.49975">
        <ele>1840.1999511719</ele>
        <time>2014-02-12T11:33:14.000Z</time>
      </trkpt>
      <trkpt lat="45.91869" lon="6.49975">
        <ele>1840.1999511719</ele>
        <time>2014-02-12T11:33:15.000Z</time>
      </trkpt>
      <trkpt lat="45.91868" lon="6.49974">
        <ele>1840.5999755859</ele>
        <time>2014-02-12T11:33:16.000Z</time>
      </trkpt>
      <trkpt lat="45.91867" lon="6.49974">
        <ele>1840.5999755859</ele>
        <time>2014-02-12T11:33:17.000Z</time>
      </trkpt>
      <trkpt lat="45.91867" lon="6.49973">
        <ele>1840.8000488281</ele>
        <time>2014-02-12T11:33:18.000Z</time>
      </trkpt>
      <trkpt lat="45.91865" lon="6.49971">
        <ele>1840.8000488281</ele>
        <time>2014-02-12T11:33:19.000Z</time>
      </trkpt>
      <trkpt lat="45.91865" lon="6.49971">
        <ele>1840.8000488281</ele>
        <time>2014-02-12T11:33:20.000Z</time>
      </trkpt>
      <trkpt lat="45.91864" lon="6.49969">
        <ele>1840.8000488281</ele>
        <time>2014-02-12T11:33:21.000Z</time>
      </trkpt>
      <trkpt lat="45.91863" lon="6.49968">
        <ele>1840.8000488281</ele>
        <time>2014-02-12T11:33:22.000Z</time>
      </trkpt>
      <trkpt lat="45.91863" lon="6.49966">
        <ele>1840.5999755859</ele>
        <time>2014-02-12T11:33:23.000Z</time>
      </trkpt>
      <trkpt lat="45.91862" lon="6.49964">
        <ele>1840.4000244141</ele>
        <time>2014-02-12T11:33:24.000Z</time>
      </trkpt>
      <trkpt lat="45.91862" lon="6.49963">
        <ele>1840.1999511719</ele>
        <time>2014-02-12T11:33:25.000Z</time>
      </trkpt>
      <trkpt lat="45.91862" lon="6.49962">
        <ele>1840</ele>
        <time>2014-02-12T11:33:26.000Z</time>
      </trkpt>
      <trkpt lat="45.91861" lon="6.4996">
        <ele>1839.8000488281</ele>
        <time>2014-02-12T11:33:27.000Z</time>
      </trkpt>
      <trkpt lat="45.91861" lon="6.49959">
        <ele>1839.8000488281</ele>
        <time>2014-02-12T11:33:28.000Z</time>
      </trkpt>
      <trkpt lat="45.91861" lon="6.49958">
        <ele>1839.5999755859</ele>
        <time>2014-02-12T11:33:29.000Z</time>
      </trkpt>
      <trkpt lat="45.9186" lon="6.49955">
        <ele>1839.4000244141</ele>
        <time>2014-02-12T11:33:30.000Z</time>
      </trkpt>
      <trkpt lat="45.91859" lon="6.49953">
        <ele>1839</ele>
        <time>2014-02-12T11:33:31.000Z</time>
      </trkpt>
      <trkpt lat="45.91859" lon="6.49952">
        <ele>1838.8000488281</ele>
        <time>2014-02-12T11:33:32.000Z</time>
      </trkpt>
      <trkpt lat="45.91858" lon="6.4995">
        <ele>1838.8000488281</ele>
        <time>2014-02-12T11:33:33.000Z</time>
      </trkpt>
      <trkpt lat="45.91858" lon="6.49949">
        <ele>1838.4000244141</ele>
        <time>2014-02-12T11:33:34.000Z</time>
      </trkpt>
      <trkpt lat="45.91858" lon="6.49949">
        <ele>1838.1999511719</ele>
        <time>2014-02-12T11:33:35.000Z</time>
      </trkpt>
      <trkpt lat="45.91858" lon="6.49948">
        <ele>1838</ele>
        <time>2014-02-12T11:33:36.000Z</time>
      </trkpt>
      <trkpt lat="45.91858" lon="6.49948">
        <ele>1837.8000488281</ele>
        <time>2014-02-12T11:33:37.000Z</time>
      </trkpt>
      <trkpt lat="45.91859" lon="6.49947">
        <ele>1837.5999755859</ele>
        <time>2014-02-12T11:33:38.000Z</time>
      </trkpt>
      <trkpt lat="45.91858" lon="6.49946">
        <ele>1837.4000244141</ele>
        <time>2014-02-12T11:33:39.000Z</time>
      </trkpt>
      <trkpt lat="45.91858" lon="6.49945">
        <ele>1837.5999755859</ele>
        <time>2014-02-12T11:33:40.000Z</time>
      </trkpt>
      <trkpt lat="45.91857" lon="6.49944">
        <ele>1837.5999755859</ele>
        <time>2014-02-12T11:33:41.000Z</time>
      </trkpt>
      <trkpt lat="45.91856" lon="6.49944">
        <ele>1837.8000488281</ele>
        <time>2014-02-12T11:33:42.000Z</time>
      </trkpt>
      <trkpt lat="45.91856" lon="6.49943">
        <ele>1837.8000488281</ele>
        <time>2014-02-12T11:33:43.000Z</time>
      </trkpt>
      <trkpt lat="45.91855" lon="6.49942">
        <ele>1837.8000488281</ele>
        <time>2014-02-12T11:33:44.000Z</time>
      </trkpt>
      <trkpt lat="45.91855" lon="6.49941">
        <ele>1837.8000488281</ele>
        <time>2014-02-12T11:33:45.000Z</time>
      </trkpt>
      <trkpt lat="45.91854" lon="6.4994">
        <ele>1837.8000488281</ele>
        <time>2014-02-12T11:33:46.000Z</time>
      </trkpt>
      <trkpt lat="45.91853" lon="6.49939">
        <ele>1837.8000488281</ele>
        <time>2014-02-12T11:33:47.000Z</time>
      </trkpt>
      <trkpt lat="45.91853" lon="6.49939">
        <ele>1837.8000488281</ele>
        <time>2014-02-12T11:33:48.000Z</time>
      </trkpt>
      <trkpt lat="45.91852" lon="6.49937">
        <ele>1837.8000488281</ele>
        <time>2014-02-12T11:33:49.000Z</time>
      </trkpt>
      <trkpt lat="45.91851" lon="6.49935">
        <ele>1837.5999755859</ele>
        <time>2014-02-12T11:33:50.000Z</time>
      </trkpt>
      <trkpt lat="45.9185" lon="6.49934">
        <ele>1837.5999755859</ele>
        <time>2014-02-12T11:33:51.000Z</time>
      </trkpt>
      <trkpt lat="45.91849" lon="6.49932">
        <ele>1837.5999755859</ele>
        <time>2014-02-12T11:33:52.000Z</time>
      </trkpt>
      <trkpt lat="45.91849" lon="6.49933">
        <ele>1837.8000488281</ele>
        <time>2014-02-12T11:33:53.000Z</time>
      </trkpt>
      <trkpt lat="45.91849" lon="6.49933">
        <ele>1837.8000488281</ele>
        <time>2014-02-12T11:33:54.000Z</time>
      </trkpt>
      <trkpt lat="45.91849" lon="6.49933">
        <ele>1838.1999511719</ele>
        <time>2014-02-12T11:33:55.000Z</time>
      </trkpt>
      <trkpt lat="45.91849" lon="6.49934">
        <ele>1838.4000244141</ele>
        <time>2014-02-12T11:33:56.000Z</time>
      </trkpt>
      <trkpt lat="45.9185" lon="6.49936">
        <ele>1838.1999511719</ele>
        <time>2014-02-12T11:33:57.000Z</time>
      </trkpt>
      <trkpt lat="45.9185" lon="6.49936">
        <ele>1838.1999511719</ele>
        <time>2014-02-12T11:33:58.000Z</time>
      </trkpt>
      <trkpt lat="45.9185" lon="6.49936">
        <ele>1838.1999511719</ele>
        <time>2014-02-12T11:33:59.000Z</time>
      </trkpt>
      <trkpt lat="45.9185" lon="6.49938">
        <ele>1838.5999755859</ele>
        <time>2014-02-12T11:34:00.000Z</time>
      </trkpt>
      <trkpt lat="45.9185" lon="6.49941">
        <ele>1839.5999755859</ele>
        <time>2014-02-12T11:34:01.000Z</time>
      </trkpt>
      <trkpt lat="45.91851" lon="6.49941">
        <ele>1839.4000244141</ele>
        <time>2014-02-12T11:34:02.000Z</time>
      </trkpt>
      <trkpt lat="45.91851" lon="6.49943">
        <ele>1839.8000488281</ele>
        <time>2014-02-12T11:34:03.000Z</time>
      </trkpt>
      <trkpt lat="45.91851" lon="6.49945">
        <ele>1840.1999511719</ele>
        <time>2014-02-12T11:34:04.000Z</time>
      </trkpt>
      <trkpt lat="45.91852" lon="6.49946">
        <ele>1840.4000244141</ele>
        <time>2014-02-12T11:34:05.000Z</time>
      </trkpt>
      <trkpt lat="45.91852" lon="6.49949">
        <ele>1840.8000488281</ele>
        <time>2014-02-12T11:34:06.000Z</time>
      </trkpt>
      <trkpt lat="45.91852" lon="6.49949">
        <ele>1840.8000488281</ele>
        <time>2014-02-12T11:34:07.000Z</time>
      </trkpt>
      <trkpt lat="45.91852" lon="6.4995">
        <ele>1841</ele>
        <time>2014-02-12T11:34:08.000Z</time>
      </trkpt>
      <trkpt lat="45.91853" lon="6.49953">
        <ele>1841.5999755859</ele>
        <time>2014-02-12T11:34:09.000Z</time>
      </trkpt>
      <trkpt lat="45.91853" lon="6.49955">
        <ele>1842</ele>
        <time>2014-02-12T11:34:10.000Z</time>
      </trkpt>
      <trkpt lat="45.91853" lon="6.49955">
        <ele>1842</ele>
        <time>2014-02-12T11:34:11.000Z</time>
      </trkpt>
      <trkpt lat="45.91852" lon="6.49958">
        <ele>1842.8000488281</ele>
        <time>2014-02-12T11:34:12.000Z</time>
      </trkpt>
      <trkpt lat="45.91853" lon="6.49961">
        <ele>1843.1999511719</ele>
        <time>2014-02-12T11:34:13.000Z</time>
      </trkpt>
      <trkpt lat="45.91853" lon="6.49962">
        <ele>1843.5999755859</ele>
        <time>2014-02-12T11:34:14.000Z</time>
      </trkpt>
      <trkpt lat="45.91853" lon="6.49962">
        <ele>1843.5999755859</ele>
        <time>2014-02-12T11:34:15.000Z</time>
      </trkpt>
      <trkpt lat="45.91853" lon="6.49963">
        <ele>1843.8000488281</ele>
        <time>2014-02-12T11:34:16.000Z</time>
      </trkpt>
      <trkpt lat="45.91852" lon="6.49963">
        <ele>1844</ele>
        <time>2014-02-12T11:34:17.000Z</time>
      </trkpt>
      <trkpt lat="45.91852" lon="6.49963">
        <ele>1844.1999511719</ele>
        <time>2014-02-12T11:34:18.000Z</time>
      </trkpt>
      <trkpt lat="45.91852" lon="6.49963">
        <ele>1844.1999511719</ele>
        <time>2014-02-12T11:34:19.000Z</time>
      </trkpt>
      <trkpt lat="45.91852" lon="6.49964">
        <ele>1844.1999511719</ele>
        <time>2014-02-12T11:34:20.000Z</time>
      </trkpt>
      <trkpt lat="45.91853" lon="6.49965">
        <ele>1844.4000244141</ele>
        <time>2014-02-12T11:34:21.000Z</time>
      </trkpt>
      <trkpt lat="45.91852" lon="6.49968">
        <ele>1845.1999511719</ele>
        <time>2014-02-12T11:34:22.000Z</time>
      </trkpt>
      <trkpt lat="45.91852" lon="6.49968">
        <ele>1845.1999511719</ele>
        <time>2014-02-12T11:34:23.000Z</time>
      </trkpt>
      <trkpt lat="45.91852" lon="6.49969">
        <ele>1845.5999755859</ele>
        <time>2014-02-12T11:34:24.000Z</time>
      </trkpt>
      <trkpt lat="45.91852" lon="6.49972">
        <ele>1846.4000244141</ele>
        <time>2014-02-12T11:34:25.000Z</time>
      </trkpt>
      <trkpt lat="45.91852" lon="6.49972">
        <ele>1846.4000244141</ele>
        <time>2014-02-12T11:34:26.000Z</time>
      </trkpt>
      <trkpt lat="45.91851" lon="6.49972">
        <ele>1846.5999755859</ele>
        <time>2014-02-12T11:34:27.000Z</time>
      </trkpt>
      <trkpt lat="45.9185" lon="6.49974">
        <ele>1847.4000244141</ele>
        <time>2014-02-12T11:34:28.000Z</time>
      </trkpt>
      <trkpt lat="45.9185" lon="6.49974">
        <ele>1847.4000244141</ele>
        <time>2014-02-12T11:34:29.000Z</time>
      </trkpt>
      <trkpt lat="45.9185" lon="6.49975">
        <ele>1847.5999755859</ele>
        <time>2014-02-12T11:34:30.000Z</time>
      </trkpt>
      <trkpt lat="45.9185" lon="6.49978">
        <ele>1848.1999511719</ele>
        <time>2014-02-12T11:34:31.000Z</time>
      </trkpt>
      <trkpt lat="45.9185" lon="6.49978">
        <ele>1848.4000244141</ele>
        <time>2014-02-12T11:34:32.000Z</time>
      </trkpt>
      <trkpt lat="45.91849" lon="6.4998">
        <ele>1849.4000244141</ele>
        <time>2014-02-12T11:34:33.000Z</time>
      </trkpt>
      <trkpt lat="45.91848" lon="6.49982">
        <ele>1849.8000488281</ele>
        <time>2014-02-12T11:34:34.000Z</time>
      </trkpt>
      <trkpt lat="45.91848" lon="6.49981">
        <ele>1849.8000488281</ele>
        <time>2014-02-12T11:34:35.000Z</time>
      </trkpt>
      <trkpt lat="45.91848" lon="6.49982">
        <ele>1850.1999511719</ele>
        <time>2014-02-12T11:34:36.000Z</time>
      </trkpt>
      <trkpt lat="45.91847" lon="6.49983">
        <ele>1850.5999755859</ele>
        <time>2014-02-12T11:34:37.000Z</time>
      </trkpt>
      <trkpt lat="45.91847" lon="6.49984">
        <ele>1851</ele>
        <time>2014-02-12T11:34:38.000Z</time>
      </trkpt>
      <trkpt lat="45.91845" lon="6.49985">
        <ele>1852.4000244141</ele>
        <time>2014-02-12T11:34:39.000Z</time>
      </trkpt>
      <trkpt lat="45.91846" lon="6.49986">
        <ele>1852.5999755859</ele>
        <time>2014-02-12T11:34:40.000Z</time>
      </trkpt>
      <trkpt lat="45.91845" lon="6.49987">
        <ele>1853.5999755859</ele>
        <time>2014-02-12T11:34:41.000Z</time>
      </trkpt>
      <trkpt lat="45.91846" lon="6.49988">
        <ele>1853.5999755859</ele>
        <time>2014-02-12T11:34:42.000Z</time>
      </trkpt>
      <trkpt lat="45.91846" lon="6.49989">
        <ele>1854.1999511719</ele>
        <time>2014-02-12T11:34:43.000Z</time>
      </trkpt>
      <trkpt lat="45.91846" lon="6.4999">
        <ele>1854.8000488281</ele>
        <time>2014-02-12T11:34:44.000Z</time>
      </trkpt>
      <trkpt lat="45.91845" lon="6.4999">
        <ele>1855.1999511719</ele>
        <time>2014-02-12T11:34:45.000Z</time>
      </trkpt>
      <trkpt lat="45.91845" lon="6.49991">
        <ele>1855.5999755859</ele>
        <time>2014-02-12T11:34:46.000Z</time>
      </trkpt>
      <trkpt lat="45.91845" lon="6.49992">
        <ele>1856.5999755859</ele>
        <time>2014-02-12T11:34:47.000Z</time>
      </trkpt>
      <trkpt lat="45.91846" lon="6.49994">
        <ele>1857.1999511719</ele>
        <time>2014-02-12T11:34:48.000Z</time>
      </trkpt>
      <trkpt lat="45.91846" lon="6.49995">
        <ele>1858</ele>
        <time>2014-02-12T11:34:49.000Z</time>
      </trkpt>
      <trkpt lat="45.91847" lon="6.49997">
        <ele>1858.8000488281</ele>
        <time>2014-02-12T11:34:50.000Z</time>
      </trkpt>
      <trkpt lat="45.91848" lon="6.49999">
        <ele>1859.8000488281</ele>
        <time>2014-02-12T11:34:51.000Z</time>
      </trkpt>
      <trkpt lat="45.91848" lon="6.50001">
        <ele>1861</ele>
        <time>2014-02-12T11:34:52.000Z</time>
      </trkpt>
      <trkpt lat="45.91848" lon="6.50003">
        <ele>1861.8000488281</ele>
        <time>2014-02-12T11:34:53.000Z</time>
      </trkpt>
      <trkpt lat="45.91848" lon="6.50005">
        <ele>1862.5999755859</ele>
        <time>2014-02-12T11:34:54.000Z</time>
      </trkpt>
      <trkpt lat="45.91849" lon="6.50008">
        <ele>1864.1999511719</ele>
        <time>2014-02-12T11:34:55.000Z</time>
      </trkpt>
      <trkpt lat="45.9185" lon="6.5001">
        <ele>1865.1999511719</ele>
        <time>2014-02-12T11:34:56.000Z</time>
      </trkpt>
      <trkpt lat="45.9185" lon="6.5001">
        <ele>1865.4000244141</ele>
        <time>2014-02-12T11:34:57.000Z</time>
      </trkpt>
      <trkpt lat="45.9185" lon="6.50013">
        <ele>1867</ele>
        <time>2014-02-12T11:34:58.000Z</time>
      </trkpt>
      <trkpt lat="45.9185" lon="6.50013">
        <ele>1867</ele>
        <time>2014-02-12T11:34:59.000Z</time>
      </trkpt>
      <trkpt lat="45.9185" lon="6.50014">
        <ele>1867.4000244141</ele>
        <time>2014-02-12T11:35:00.000Z</time>
      </trkpt>
      <trkpt lat="45.9185" lon="6.50014">
        <ele>1867.4000244141</ele>
        <time>2014-02-12T11:35:01.000Z</time>
      </trkpt>
      <trkpt lat="45.9185" lon="6.50014">
        <ele>1867.4000244141</ele>
        <time>2014-02-12T11:35:02.000Z</time>
      </trkpt>
      <trkpt lat="45.9185" lon="6.50014">
        <ele>1867.4000244141</ele>
        <time>2014-02-12T11:35:03.000Z</time>
      </trkpt>
      <trkpt lat="45.9185" lon="6.50016">
        <ele>1868.5999755859</ele>
        <time>2014-02-12T11:35:04.000Z</time>
      </trkpt>
      <trkpt lat="45.9185" lon="6.50017">
        <ele>1869.1999511719</ele>
        <time>2014-02-12T11:35:05.000Z</time>
      </trkpt>
      <trkpt lat="45.91851" lon="6.50019">
        <ele>1870</ele>
        <time>2014-02-12T11:35:06.000Z</time>
      </trkpt>
      <trkpt lat="45.91851" lon="6.5002">
        <ele>1870.5999755859</ele>
        <time>2014-02-12T11:35:07.000Z</time>
      </trkpt>
      <trkpt lat="45.91851" lon="6.50021">
        <ele>1871.1999511719</ele>
        <time>2014-02-12T11:35:08.000Z</time>
      </trkpt>
      <trkpt lat="45.91851" lon="6.50021">
        <ele>1871.1999511719</ele>
        <time>2014-02-12T11:35:09.000Z</time>
      </trkpt>
      <trkpt lat="45.91851" lon="6.50022">
        <ele>1871.8000488281</ele>
        <time>2014-02-12T11:35:10.000Z</time>
      </trkpt>
      <trkpt lat="45.91851" lon="6.50023">
        <ele>1872.4000244141</ele>
        <time>2014-02-12T11:35:11.000Z</time>
      </trkpt>
      <trkpt lat="45.91851" lon="6.50024">
        <ele>1873</ele>
        <time>2014-02-12T11:35:12.000Z</time>
      </trkpt>
      <trkpt lat="45.91851" lon="6.50027">
        <ele>1874.8000488281</ele>
        <time>2014-02-12T11:35:13.000Z</time>
      </trkpt>
      <trkpt lat="45.91851" lon="6.50027">
        <ele>1874.5999755859</ele>
        <time>2014-02-12T11:35:14.000Z</time>
      </trkpt>
      <trkpt lat="45.91851" lon="6.50028">
        <ele>1875.1999511719</ele>
        <time>2014-02-12T11:35:15.000Z</time>
      </trkpt>
      <trkpt lat="45.91851" lon="6.50029">
        <ele>1875.4000244141</ele>
        <time>2014-02-12T11:35:16.000Z</time>
      </trkpt>
      <trkpt lat="45.91851" lon="6.5003">
        <ele>1875.8000488281</ele>
        <time>2014-02-12T11:35:17.000Z</time>
      </trkpt>
      <trkpt lat="45.9185" lon="6.50032">
        <ele>1876.4000244141</ele>
        <time>2014-02-12T11:35:18.000Z</time>
      </trkpt>
      <trkpt lat="45.9185" lon="6.50033">
        <ele>1876.8000488281</ele>
        <time>2014-02-12T11:35:19.000Z</time>
      </trkpt>
      <trkpt lat="45.9185" lon="6.50033">
        <ele>1876.8000488281</ele>
        <time>2014-02-12T11:35:20.000Z</time>
      </trkpt>
      <trkpt lat="45.9185" lon="6.50035">
        <ele>1877.1999511719</ele>
        <time>2014-02-12T11:35:21.000Z</time>
      </trkpt>
      <trkpt lat="45.9185" lon="6.50036">
        <ele>1877.4000244141</ele>
        <time>2014-02-12T11:35:22.000Z</time>
      </trkpt>
      <trkpt lat="45.9185" lon="6.50036">
        <ele>1877.4000244141</ele>
        <time>2014-02-12T11:35:23.000Z</time>
      </trkpt>
      <trkpt lat="45.9185" lon="6.50036">
        <ele>1877.4000244141</ele>
        <time>2014-02-12T11:35:24.000Z</time>
      </trkpt>
      <trkpt lat="45.9185" lon="6.50036">
        <ele>1877.4000244141</ele>
        <time>2014-02-12T11:35:25.000Z</time>
      </trkpt>
      <trkpt lat="45.91851" lon="6.50036">
        <ele>1877.8000488281</ele>
        <time>2014-02-12T11:35:26.000Z</time>
      </trkpt>
      <trkpt lat="45.91851" lon="6.50037">
        <ele>1877.8000488281</ele>
        <time>2014-02-12T11:35:27.000Z</time>
      </trkpt>
      <trkpt lat="45.91851" lon="6.50038">
        <ele>1878.1999511719</ele>
        <time>2014-02-12T11:35:28.000Z</time>
      </trkpt>
      <trkpt lat="45.91852" lon="6.50038">
        <ele>1878</ele>
        <time>2014-02-12T11:35:29.000Z</time>
      </trkpt>
      <trkpt lat="45.91852" lon="6.50038">
        <ele>1878</ele>
        <time>2014-02-12T11:35:30.000Z</time>
      </trkpt>
      <trkpt lat="45.91852" lon="6.50039">
        <ele>1878.4000244141</ele>
        <time>2014-02-12T11:35:31.000Z</time>
      </trkpt>
      <trkpt lat="45.91852" lon="6.50039">
        <ele>1878.4000244141</ele>
        <time>2014-02-12T11:35:32.000Z</time>
      </trkpt>
      <trkpt lat="45.91852" lon="6.50041">
        <ele>1879</ele>
        <time>2014-02-12T11:35:33.000Z</time>
      </trkpt>
      <trkpt lat="45.91851" lon="6.50042">
        <ele>1879.4000244141</ele>
        <time>2014-02-12T11:35:34.000Z</time>
      </trkpt>
      <trkpt lat="45.91851" lon="6.50042">
        <ele>1879.4000244141</ele>
        <time>2014-02-12T11:35:35.000Z</time>
      </trkpt>
      <trkpt lat="45.91851" lon="6.50043">
        <ele>1879.5999755859</ele>
        <time>2014-02-12T11:35:36.000Z</time>
      </trkpt>
      <trkpt lat="45.91851" lon="6.50044">
        <ele>1879.8000488281</ele>
        <time>2014-02-12T11:35:37.000Z</time>
      </trkpt>
      <trkpt lat="45.91851" lon="6.50045">
        <ele>1880</ele>
        <time>2014-02-12T11:35:38.000Z</time>
      </trkpt>
      <trkpt lat="45.91851" lon="6.50045">
        <ele>1880.1999511719</ele>
        <time>2014-02-12T11:35:39.000Z</time>
      </trkpt>
      <trkpt lat="45.91852" lon="6.50046">
        <ele>1880.5999755859</ele>
        <time>2014-02-12T11:35:40.000Z</time>
      </trkpt>
      <trkpt lat="45.91851" lon="6.50046">
        <ele>1880.5999755859</ele>
        <time>2014-02-12T11:35:41.000Z</time>
      </trkpt>
      <trkpt lat="45.91851" lon="6.50048">
        <ele>1881</ele>
        <time>2014-02-12T11:35:42.000Z</time>
      </trkpt>
      <trkpt lat="45.91851" lon="6.50049">
        <ele>1881.4000244141</ele>
        <time>2014-02-12T11:35:43.000Z</time>
      </trkpt>
      <trkpt lat="45.91851" lon="6.5005">
        <ele>1881.8000488281</ele>
        <time>2014-02-12T11:35:44.000Z</time>
      </trkpt>
      <trkpt lat="45.91851" lon="6.50052">
        <ele>1882.5999755859</ele>
        <time>2014-02-12T11:35:45.000Z</time>
      </trkpt>
      <trkpt lat="45.91851" lon="6.50052">
        <ele>1882.4000244141</ele>
        <time>2014-02-12T11:35:46.000Z</time>
      </trkpt>
      <trkpt lat="45.91851" lon="6.50053">
        <ele>1882.8000488281</ele>
        <time>2014-02-12T11:35:47.000Z</time>
      </trkpt>
      <trkpt lat="45.91851" lon="6.50053">
        <ele>1882.8000488281</ele>
        <time>2014-02-12T11:35:48.000Z</time>
      </trkpt>
      <trkpt lat="45.91851" lon="6.50055">
        <ele>1883.4000244141</ele>
        <time>2014-02-12T11:35:49.000Z</time>
      </trkpt>
      <trkpt lat="45.91851" lon="6.50055">
        <ele>1883.4000244141</ele>
        <time>2014-02-12T11:35:50.000Z</time>
      </trkpt>
      <trkpt lat="45.9185" lon="6.50058">
        <ele>1884.1999511719</ele>
        <time>2014-02-12T11:35:51.000Z</time>
      </trkpt>
      <trkpt lat="45.9185" lon="6.50058">
        <ele>1884.1999511719</ele>
        <time>2014-02-12T11:35:52.000Z</time>
      </trkpt>
      <trkpt lat="45.9185" lon="6.50059">
        <ele>1884.5999755859</ele>
        <time>2014-02-12T11:35:53.000Z</time>
      </trkpt>
      <trkpt lat="45.91849" lon="6.5006">
        <ele>1885</ele>
        <time>2014-02-12T11:35:54.000Z</time>
      </trkpt>
      <trkpt lat="45.91849" lon="6.50061">
        <ele>1885.1999511719</ele>
        <time>2014-02-12T11:35:55.000Z</time>
      </trkpt>
      <trkpt lat="45.91849" lon="6.50062">
        <ele>1885.5999755859</ele>
        <time>2014-02-12T11:35:56.000Z</time>
      </trkpt>
      <trkpt lat="45.91849" lon="6.50065">
        <ele>1886.4000244141</ele>
        <time>2014-02-12T11:35:57.000Z</time>
      </trkpt>
      <trkpt lat="45.91849" lon="6.50065">
        <ele>1886.4000244141</ele>
        <time>2014-02-12T11:35:58.000Z</time>
      </trkpt>
      <trkpt lat="45.91849" lon="6.50066">
        <ele>1886.8000488281</ele>
        <time>2014-02-12T11:35:59.000Z</time>
      </trkpt>
      <trkpt lat="45.9185" lon="6.50067">
        <ele>1887.4000244141</ele>
        <time>2014-02-12T11:36:00.000Z</time>
      </trkpt>
      <trkpt lat="45.91849" lon="6.50069">
        <ele>1889.1999511719</ele>
        <time>2014-02-12T11:36:01.000Z</time>
      </trkpt>
      <trkpt lat="45.91849" lon="6.5007">
        <ele>1890</ele>
        <time>2014-02-12T11:36:02.000Z</time>
      </trkpt>
      <trkpt lat="45.91849" lon="6.5007">
        <ele>1890</ele>
        <time>2014-02-12T11:36:03.000Z</time>
      </trkpt>
      <trkpt lat="45.91849" lon="6.5007">
        <ele>1890</ele>
        <time>2014-02-12T11:36:04.000Z</time>
      </trkpt>
      <trkpt lat="45.91849" lon="6.5007">
        <ele>1890</ele>
        <time>2014-02-12T11:36:05.000Z</time>
      </trkpt>
      <trkpt lat="45.91849" lon="6.5007">
        <ele>1890</ele>
        <time>2014-02-12T11:36:06.000Z</time>
      </trkpt>
      <trkpt lat="45.91849" lon="6.5007">
        <ele>1890</ele>
        <time>2014-02-12T11:36:07.000Z</time>
      </trkpt>
      <trkpt lat="45.91849" lon="6.5007">
        <ele>1890</ele>
        <time>2014-02-12T11:36:08.000Z</time>
      </trkpt>
      <trkpt lat="45.91849" lon="6.5007">
        <ele>1890</ele>
        <time>2014-02-12T11:36:09.000Z</time>
      </trkpt>
      <trkpt lat="45.91849" lon="6.5007">
        <ele>1890</ele>
        <time>2014-02-12T11:36:10.000Z</time>
      </trkpt>
      <trkpt lat="45.91849" lon="6.5007">
        <ele>1890</ele>
        <time>2014-02-12T11:36:11.000Z</time>
      </trkpt>
      <trkpt lat="45.91849" lon="6.5007">
        <ele>1890</ele>
        <time>2014-02-12T11:36:12.000Z</time>
      </trkpt>
      <trkpt lat="45.91849" lon="6.5007">
        <ele>1890</ele>
        <time>2014-02-12T11:36:14.000Z</time>
      </trkpt>
      <trkpt lat="45.91849" lon="6.5007">
        <ele>1890</ele>
        <time>2014-02-12T11:36:15.000Z</time>
      </trkpt>
      <trkpt lat="45.91849" lon="6.5007">
        <ele>1890</ele>
        <time>2014-02-12T11:36:16.000Z</time>
      </trkpt>
      <trkpt lat="45.91849" lon="6.5007">
        <ele>1890</ele>
        <time>2014-02-12T11:36:17.000Z</time>
      </trkpt>
      <trkpt lat="45.91849" lon="6.5007">
        <ele>1890</ele>
        <time>2014-02-12T11:36:18.000Z</time>
      </trkpt>
      <trkpt lat="45.91849" lon="6.5007">
        <ele>1890</ele>
        <time>2014-02-12T11:36:19.000Z</time>
      </trkpt>
      <trkpt lat="45.91849" lon="6.5007">
        <ele>1890</ele>
        <time>2014-02-12T11:36:20.000Z</time>
      </trkpt>
      <trkpt lat="45.91849" lon="6.5007">
        <ele>1890</ele>
        <time>2014-02-12T11:36:21.000Z</time>
      </trkpt>
      <trkpt lat="45.91849" lon="6.5007">
        <ele>1890</ele>
        <time>2014-02-12T11:36:22.000Z</time>
      </trkpt>
      <trkpt lat="45.91849" lon="6.5007">
        <ele>1890</ele>
        <time>2014-02-12T11:36:23.000Z</time>
      </trkpt>
      <trkpt lat="45.91849" lon="6.5007">
        <ele>1890</ele>
        <time>2014-02-12T11:36:24.000Z</time>
      </trkpt>
      <trkpt lat="45.91849" lon="6.5007">
        <ele>1890</ele>
        <time>2014-02-12T11:36:25.000Z</time>
      </trkpt>
      <trkpt lat="45.91849" lon="6.5007">
        <ele>1890</ele>
        <time>2014-02-12T11:36:26.000Z</time>
      </trkpt>
      <trkpt lat="45.91849" lon="6.5007">
        <ele>1890</ele>
        <time>2014-02-12T11:36:27.000Z</time>
      </trkpt>
      <trkpt lat="45.91849" lon="6.50072">
        <ele>1891</ele>
        <time>2014-02-12T11:36:29.000Z</time>
      </trkpt>
      <trkpt lat="45.91849" lon="6.50072">
        <ele>1891</ele>
        <time>2014-02-12T11:36:30.000Z</time>
      </trkpt>
      <trkpt lat="45.91849" lon="6.50072">
        <ele>1891</ele>
        <time>2014-02-12T11:36:31.000Z</time>
      </trkpt>
      <trkpt lat="45.91849" lon="6.50072">
        <ele>1891</ele>
        <time>2014-02-12T11:36:32.000Z</time>
      </trkpt>
      <trkpt lat="45.91849" lon="6.50072">
        <ele>1891</ele>
        <time>2014-02-12T11:36:33.000Z</time>
      </trkpt>
      <trkpt lat="45.91849" lon="6.50072">
        <ele>1891</ele>
        <time>2014-02-12T11:36:34.000Z</time>
      </trkpt>
      <trkpt lat="45.91849" lon="6.50072">
        <ele>1891</ele>
        <time>2014-02-12T11:36:35.000Z</time>
      </trkpt>
      <trkpt lat="45.91849" lon="6.50072">
        <ele>1891</ele>
        <time>2014-02-12T11:36:36.000Z</time>
      </trkpt>
      <trkpt lat="45.91849" lon="6.50072">
        <ele>1891</ele>
        <time>2014-02-12T11:36:37.000Z</time>
      </trkpt>
      <trkpt lat="45.91849" lon="6.50072">
        <ele>1891</ele>
        <time>2014-02-12T11:36:39.000Z</time>
      </trkpt>
      <trkpt lat="45.91849" lon="6.50072">
        <ele>1891</ele>
        <time>2014-02-12T11:36:40.000Z</time>
      </trkpt>
      <trkpt lat="45.91849" lon="6.50072">
        <ele>1891</ele>
        <time>2014-02-12T11:36:41.000Z</time>
      </trkpt>
      <trkpt lat="45.91849" lon="6.50072">
        <ele>1891</ele>
        <time>2014-02-12T11:36:42.000Z</time>
      </trkpt>
      <trkpt lat="45.91849" lon="6.50072">
        <ele>1891</ele>
        <time>2014-02-12T11:36:43.000Z</time>
      </trkpt>
      <trkpt lat="45.91849" lon="6.50072">
        <ele>1891</ele>
        <time>2014-02-12T11:36:44.000Z</time>
      </trkpt>
      <trkpt lat="45.91849" lon="6.50072">
        <ele>1891</ele>
        <time>2014-02-12T11:36:45.000Z</time>
      </trkpt>
      <trkpt lat="45.91849" lon="6.50072">
        <ele>1891</ele>
        <time>2014-02-12T11:36:46.000Z</time>
      </trkpt>
      <trkpt lat="45.91849" lon="6.50072">
        <ele>1891</ele>
        <time>2014-02-12T11:36:47.000Z</time>
      </trkpt>
      <trkpt lat="45.91849" lon="6.50072">
        <ele>1891</ele>
        <time>2014-02-12T11:36:48.000Z</time>
      </trkpt>
      <trkpt lat="45.91849" lon="6.50072">
        <ele>1891</ele>
        <time>2014-02-12T11:36:49.000Z</time>
      </trkpt>
      <trkpt lat="45.91849" lon="6.50072">
        <ele>1891</ele>
        <time>2014-02-12T11:36:50.000Z</time>
      </trkpt>
      <trkpt lat="45.91849" lon="6.50072">
        <ele>1891</ele>
        <time>2014-02-12T11:36:51.000Z</time>
      </trkpt>
      <trkpt lat="45.91849" lon="6.50072">
        <ele>1891</ele>
        <time>2014-02-12T11:36:52.000Z</time>
      </trkpt>
      <trkpt lat="45.91849" lon="6.50072">
        <ele>1891</ele>
        <time>2014-02-12T11:36:53.000Z</time>
      </trkpt>
      <trkpt lat="45.91849" lon="6.50072">
        <ele>1891</ele>
        <time>2014-02-12T11:36:54.000Z</time>
      </trkpt>
      <trkpt lat="45.91849" lon="6.50072">
        <ele>1891</ele>
        <time>2014-02-12T11:36:55.000Z</time>
      </trkpt>
      <trkpt lat="45.91849" lon="6.50072">
        <ele>1891</ele>
        <time>2014-02-12T11:36:56.000Z</time>
      </trkpt>
      <trkpt lat="45.91849" lon="6.50072">
        <ele>1891</ele>
        <time>2014-02-12T11:36:57.000Z</time>
      </trkpt>
      <trkpt lat="45.91849" lon="6.50072">
        <ele>1891</ele>
        <time>2014-02-12T11:36:58.000Z</time>
      </trkpt>
      <trkpt lat="45.91849" lon="6.50072">
        <ele>1891</ele>
        <time>2014-02-12T11:36:59.000Z</time>
      </trkpt>
      <trkpt lat="45.91849" lon="6.50072">
        <ele>1891</ele>
        <time>2014-02-12T11:37:00.000Z</time>
      </trkpt>
      <trkpt lat="45.91849" lon="6.50072">
        <ele>1891</ele>
        <time>2014-02-12T11:37:01.000Z</time>
      </trkpt>
      <trkpt lat="45.91849" lon="6.50072">
        <ele>1891</ele>
        <time>2014-02-12T11:37:02.000Z</time>
      </trkpt>
      <trkpt lat="45.91849" lon="6.50072">
        <ele>1891</ele>
        <time>2014-02-12T11:37:04.000Z</time>
      </trkpt>
      <trkpt lat="45.91849" lon="6.50072">
        <ele>1891</ele>
        <time>2014-02-12T11:37:05.000Z</time>
      </trkpt>
      <trkpt lat="45.91849" lon="6.50072">
        <ele>1891</ele>
        <time>2014-02-12T11:37:08.000Z</time>
      </trkpt>
      <trkpt lat="45.91849" lon="6.50072">
        <ele>1891</ele>
        <time>2014-02-12T11:37:09.000Z</time>
      </trkpt>
      <trkpt lat="45.91849" lon="6.50072">
        <ele>1891</ele>
        <time>2014-02-12T11:37:10.000Z</time>
      </trkpt>
      <trkpt lat="45.91849" lon="6.50072">
        <ele>1891</ele>
        <time>2014-02-12T11:37:11.000Z</time>
      </trkpt>
      <trkpt lat="45.91849" lon="6.50072">
        <ele>1891</ele>
        <time>2014-02-12T11:37:12.000Z</time>
      </trkpt>
      <trkpt lat="45.91849" lon="6.50072">
        <ele>1891</ele>
        <time>2014-02-12T11:37:13.000Z</time>
      </trkpt>
      <trkpt lat="45.91849" lon="6.50072">
        <ele>1891</ele>
        <time>2014-02-12T11:37:14.000Z</time>
      </trkpt>
      <trkpt lat="45.91849" lon="6.50072">
        <ele>1891</ele>
        <time>2014-02-12T11:37:15.000Z</time>
      </trkpt>
      <trkpt lat="45.91849" lon="6.50072">
        <ele>1891</ele>
        <time>2014-02-12T11:37:16.000Z</time>
      </trkpt>
      <trkpt lat="45.91849" lon="6.50072">
        <ele>1891</ele>
        <time>2014-02-12T11:37:17.000Z</time>
      </trkpt>
      <trkpt lat="45.91849" lon="6.50072">
        <ele>1891</ele>
        <time>2014-02-12T11:37:18.000Z</time>
      </trkpt>
      <trkpt lat="45.91849" lon="6.50072">
        <ele>1891</ele>
        <time>2014-02-12T11:37:19.000Z</time>
      </trkpt>
      <trkpt lat="45.91849" lon="6.50072">
        <ele>1891</ele>
        <time>2014-02-12T11:37:20.000Z</time>
      </trkpt>
      <trkpt lat="45.91849" lon="6.50072">
        <ele>1891</ele>
        <time>2014-02-12T11:37:21.000Z</time>
      </trkpt>
      <trkpt lat="45.91849" lon="6.50072">
        <ele>1891</ele>
        <time>2014-02-12T11:37:22.000Z</time>
      </trkpt>
      <trkpt lat="45.91849" lon="6.50072">
        <ele>1891</ele>
        <time>2014-02-12T11:37:23.000Z</time>
      </trkpt>
      <trkpt lat="45.91849" lon="6.50072">
        <ele>1891</ele>
        <time>2014-02-12T11:37:24.000Z</time>
      </trkpt>
      <trkpt lat="45.91849" lon="6.50072">
        <ele>1891</ele>
        <time>2014-02-12T11:37:29.000Z</time>
      </trkpt>
      <trkpt lat="45.91849" lon="6.50072">
        <ele>1891</ele>
        <time>2014-02-12T11:37:30.000Z</time>
      </trkpt>
      <trkpt lat="45.91849" lon="6.50072">
        <ele>1891</ele>
        <time>2014-02-12T11:37:31.000Z</time>
      </trkpt>
      <trkpt lat="45.91849" lon="6.50072">
        <ele>1891</ele>
        <time>2014-02-12T11:37:32.000Z</time>
      </trkpt>
      <trkpt lat="45.91849" lon="6.50072">
        <ele>1891</ele>
        <time>2014-02-12T11:37:34.000Z</time>
      </trkpt>
      <trkpt lat="45.91849" lon="6.50072">
        <ele>1891</ele>
        <time>2014-02-12T11:37:35.000Z</time>
      </trkpt>
      <trkpt lat="45.91849" lon="6.50072">
        <ele>1891</ele>
        <time>2014-02-12T11:37:37.000Z</time>
      </trkpt>
      <trkpt lat="45.91849" lon="6.50072">
        <ele>1891</ele>
        <time>2014-02-12T11:37:38.000Z</time>
      </trkpt>
      <trkpt lat="45.91849" lon="6.50072">
        <ele>1891</ele>
        <time>2014-02-12T11:37:44.000Z</time>
      </trkpt>
      <trkpt lat="45.91849" lon="6.50072">
        <ele>1891</ele>
        <time>2014-02-12T11:37:45.000Z</time>
      </trkpt>
      <trkpt lat="45.91849" lon="6.50072">
        <ele>1891</ele>
        <time>2014-02-12T11:37:46.000Z</time>
      </trkpt>
      <trkpt lat="45.91849" lon="6.50072">
        <ele>1891</ele>
        <time>2014-02-12T11:37:47.000Z</time>
      </trkpt>
      <trkpt lat="45.91849" lon="6.50072">
        <ele>1891</ele>
        <time>2014-02-12T11:37:48.000Z</time>
      </trkpt>
      <trkpt lat="45.91849" lon="6.50072">
        <ele>1891</ele>
        <time>2014-02-12T11:37:50.000Z</time>
      </trkpt>
      <trkpt lat="45.91849" lon="6.50072">
        <ele>1891</ele>
        <time>2014-02-12T11:37:51.000Z</time>
      </trkpt>
      <trkpt lat="45.91849" lon="6.50072">
        <ele>1891</ele>
        <time>2014-02-12T11:37:52.000Z</time>
      </trkpt>
      <trkpt lat="45.91849" lon="6.50072">
        <ele>1891</ele>
        <time>2014-02-12T11:37:53.000Z</time>
      </trkpt>
      <trkpt lat="45.91849" lon="6.50072">
        <ele>1891</ele>
        <time>2014-02-12T11:37:54.000Z</time>
      </trkpt>
      <trkpt lat="45.91849" lon="6.50072">
        <ele>1891</ele>
        <time>2014-02-12T11:37:55.000Z</time>
      </trkpt>
      <trkpt lat="45.91849" lon="6.50072">
        <ele>1891</ele>
        <time>2014-02-12T11:37:56.000Z</time>
      </trkpt>
      <trkpt lat="45.91849" lon="6.50072">
        <ele>1891</ele>
        <time>2014-02-12T11:37:57.000Z</time>
      </trkpt>
      <trkpt lat="45.91849" lon="6.50072">
        <ele>1891</ele>
        <time>2014-02-12T11:37:58.000Z</time>
      </trkpt>
      <trkpt lat="45.91849" lon="6.50072">
        <ele>1891</ele>
        <time>2014-02-12T11:37:59.000Z</time>
      </trkpt>
      <trkpt lat="45.91849" lon="6.50072">
        <ele>1891</ele>
        <time>2014-02-12T11:38:00.000Z</time>
      </trkpt>
      <trkpt lat="45.91849" lon="6.50072">
        <ele>1891</ele>
        <time>2014-02-12T11:38:01.000Z</time>
      </trkpt>
      <trkpt lat="45.91849" lon="6.50072">
        <ele>1891</ele>
        <time>2014-02-12T11:38:02.000Z</time>
      </trkpt>
      <trkpt lat="45.91849" lon="6.50072">
        <ele>1891</ele>
        <time>2014-02-12T11:38:04.000Z</time>
      </trkpt>
      <trkpt lat="45.91849" lon="6.50072">
        <ele>1891</ele>
        <time>2014-02-12T11:38:05.000Z</time>
      </trkpt>
      <trkpt lat="45.91848" lon="6.50074">
        <ele>1892.8000488281</ele>
        <time>2014-02-12T11:38:06.000Z</time>
      </trkpt>
      <trkpt lat="45.91848" lon="6.50076">
        <ele>1894.1999511719</ele>
        <time>2014-02-12T11:38:07.000Z</time>
      </trkpt>
      <trkpt lat="45.91849" lon="6.50077">
        <ele>1895.4000244141</ele>
        <time>2014-02-12T11:38:08.000Z</time>
      </trkpt>
      <trkpt lat="45.91849" lon="6.50079">
        <ele>1897</ele>
        <time>2014-02-12T11:38:09.000Z</time>
      </trkpt>
      <trkpt lat="45.91849" lon="6.5008">
        <ele>1898.1999511719</ele>
        <time>2014-02-12T11:38:10.000Z</time>
      </trkpt>
      <trkpt lat="45.91849" lon="6.50082">
        <ele>1899.5999755859</ele>
        <time>2014-02-12T11:38:11.000Z</time>
      </trkpt>
      <trkpt lat="45.91849" lon="6.50083">
        <ele>1900.5999755859</ele>
        <time>2014-02-12T11:38:12.000Z</time>
      </trkpt>
      <trkpt lat="45.91849" lon="6.50084">
        <ele>1901.4000244141</ele>
        <time>2014-02-12T11:38:13.000Z</time>
      </trkpt>
      <trkpt lat="45.91849" lon="6.50086">
        <ele>1902.4000244141</ele>
        <time>2014-02-12T11:38:14.000Z</time>
      </trkpt>
      <trkpt lat="45.91849" lon="6.50087">
        <ele>1903.1999511719</ele>
        <time>2014-02-12T11:38:15.000Z</time>
      </trkpt>
      <trkpt lat="45.91849" lon="6.50087">
        <ele>1903.8000488281</ele>
        <time>2014-02-12T11:38:16.000Z</time>
      </trkpt>
      <trkpt lat="45.91849" lon="6.50088">
        <ele>1904.5999755859</ele>
        <time>2014-02-12T11:38:17.000Z</time>
      </trkpt>
      <trkpt lat="45.91849" lon="6.50089">
        <ele>1905.4000244141</ele>
        <time>2014-02-12T11:38:18.000Z</time>
      </trkpt>
      <trkpt lat="45.91848" lon="6.5009">
        <ele>1906</ele>
        <time>2014-02-12T11:38:19.000Z</time>
      </trkpt>
      <trkpt lat="45.91848" lon="6.50091">
        <ele>1907</ele>
        <time>2014-02-12T11:38:20.000Z</time>
      </trkpt>
      <trkpt lat="45.91848" lon="6.50093">
        <ele>1908</ele>
        <time>2014-02-12T11:38:21.000Z</time>
      </trkpt>
      <trkpt lat="45.91849" lon="6.50094">
        <ele>1909.4000244141</ele>
        <time>2014-02-12T11:38:22.000Z</time>
      </trkpt>
      <trkpt lat="45.9185" lon="6.50095">
        <ele>1910.1999511719</ele>
        <time>2014-02-12T11:38:23.000Z</time>
      </trkpt>
      <trkpt lat="45.91851" lon="6.50096">
        <ele>1910.8000488281</ele>
        <time>2014-02-12T11:38:24.000Z</time>
      </trkpt>
      <trkpt lat="45.91851" lon="6.50096">
        <ele>1910.8000488281</ele>
        <time>2014-02-12T11:38:25.000Z</time>
      </trkpt>
      <trkpt lat="45.91851" lon="6.50096">
        <ele>1910.8000488281</ele>
        <time>2014-02-12T11:38:26.000Z</time>
      </trkpt>
      <trkpt lat="45.91851" lon="6.50096">
        <ele>1910.8000488281</ele>
        <time>2014-02-12T11:38:27.000Z</time>
      </trkpt>
      <trkpt lat="45.91851" lon="6.50096">
        <ele>1910.8000488281</ele>
        <time>2014-02-12T11:38:28.000Z</time>
      </trkpt>
      <trkpt lat="45.91851" lon="6.50098">
        <ele>1912</ele>
        <time>2014-02-12T11:38:29.000Z</time>
      </trkpt>
      <trkpt lat="45.91851" lon="6.50098">
        <ele>1912</ele>
        <time>2014-02-12T11:38:30.000Z</time>
      </trkpt>
      <trkpt lat="45.91851" lon="6.50099">
        <ele>1913.1999511719</ele>
        <time>2014-02-12T11:38:31.000Z</time>
      </trkpt>
      <trkpt lat="45.91852" lon="6.501">
        <ele>1913.8000488281</ele>
        <time>2014-02-12T11:38:32.000Z</time>
      </trkpt>
      <trkpt lat="45.91852" lon="6.501">
        <ele>1913.8000488281</ele>
        <time>2014-02-12T11:38:33.000Z</time>
      </trkpt>
      <trkpt lat="45.91852" lon="6.50102">
        <ele>1915.1999511719</ele>
        <time>2014-02-12T11:38:34.000Z</time>
      </trkpt>
      <trkpt lat="45.91852" lon="6.50102">
        <ele>1915.1999511719</ele>
        <time>2014-02-12T11:38:35.000Z</time>
      </trkpt>
      <trkpt lat="45.91853" lon="6.50103">
        <ele>1916.5999755859</ele>
        <time>2014-02-12T11:38:36.000Z</time>
      </trkpt>
      <trkpt lat="45.91854" lon="6.50105">
        <ele>1917.8000488281</ele>
        <time>2014-02-12T11:38:37.000Z</time>
      </trkpt>
      <trkpt lat="45.91854" lon="6.50105">
        <ele>1917.8000488281</ele>
        <time>2014-02-12T11:38:38.000Z</time>
      </trkpt>
      <trkpt lat="45.91854" lon="6.50107">
        <ele>1919</ele>
        <time>2014-02-12T11:38:39.000Z</time>
      </trkpt>
      <trkpt lat="45.91854" lon="6.50107">
        <ele>1919</ele>
        <time>2014-02-12T11:38:40.000Z</time>
      </trkpt>
      <trkpt lat="45.91854" lon="6.50108">
        <ele>1920.1999511719</ele>
        <time>2014-02-12T11:38:41.000Z</time>
      </trkpt>
      <trkpt lat="45.91854" lon="6.50108">
        <ele>1920.1999511719</ele>
        <time>2014-02-12T11:38:42.000Z</time>
      </trkpt>
      <trkpt lat="45.91854" lon="6.50108">
        <ele>1920.1999511719</ele>
        <time>2014-02-12T11:38:43.000Z</time>
      </trkpt>
      <trkpt lat="45.91855" lon="6.5011">
        <ele>1921.4000244141</ele>
        <time>2014-02-12T11:38:44.000Z</time>
      </trkpt>
      <trkpt lat="45.91855" lon="6.5011">
        <ele>1921.4000244141</ele>
        <time>2014-02-12T11:38:45.000Z</time>
      </trkpt>
      <trkpt lat="45.91855" lon="6.50111">
        <ele>1922.4000244141</ele>
        <time>2014-02-12T11:38:46.000Z</time>
      </trkpt>
      <trkpt lat="45.91855" lon="6.50111">
        <ele>1922.4000244141</ele>
        <time>2014-02-12T11:38:47.000Z</time>
      </trkpt>
      <trkpt lat="45.91856" lon="6.50112">
        <ele>1923.4000244141</ele>
        <time>2014-02-12T11:38:48.000Z</time>
      </trkpt>
      <trkpt lat="45.91856" lon="6.50113">
        <ele>1924.4000244141</ele>
        <time>2014-02-12T11:38:49.000Z</time>
      </trkpt>
      <trkpt lat="45.91856" lon="6.50114">
        <ele>1925.1999511719</ele>
        <time>2014-02-12T11:38:50.000Z</time>
      </trkpt>
      <trkpt lat="45.91856" lon="6.50115">
        <ele>1926</ele>
        <time>2014-02-12T11:38:51.000Z</time>
      </trkpt>
      <trkpt lat="45.91856" lon="6.50115">
        <ele>1926</ele>
        <time>2014-02-12T11:38:52.000Z</time>
      </trkpt>
      <trkpt lat="45.91856" lon="6.50116">
        <ele>1926.5999755859</ele>
        <time>2014-02-12T11:38:53.000Z</time>
      </trkpt>
      <trkpt lat="45.91857" lon="6.50117">
        <ele>1927.1999511719</ele>
        <time>2014-02-12T11:38:54.000Z</time>
      </trkpt>
      <trkpt lat="45.91857" lon="6.50118">
        <ele>1927.5999755859</ele>
        <time>2014-02-12T11:38:55.000Z</time>
      </trkpt>
      <trkpt lat="45.91857" lon="6.50118">
        <ele>1927.5999755859</ele>
        <time>2014-02-12T11:38:56.000Z</time>
      </trkpt>
      <trkpt lat="45.91857" lon="6.50118">
        <ele>1927.5999755859</ele>
        <time>2014-02-12T11:38:57.000Z</time>
      </trkpt>
      <trkpt lat="45.91857" lon="6.50119">
        <ele>1928</ele>
        <time>2014-02-12T11:38:58.000Z</time>
      </trkpt>
      <trkpt lat="45.91857" lon="6.5012">
        <ele>1928.5999755859</ele>
        <time>2014-02-12T11:38:59.000Z</time>
      </trkpt>
      <trkpt lat="45.91858" lon="6.50121">
        <ele>1929</ele>
        <time>2014-02-12T11:39:00.000Z</time>
      </trkpt>
      <trkpt lat="45.91858" lon="6.50122">
        <ele>1929.5999755859</ele>
        <time>2014-02-12T11:39:01.000Z</time>
      </trkpt>
      <trkpt lat="45.91858" lon="6.50123">
        <ele>1930</ele>
        <time>2014-02-12T11:39:02.000Z</time>
      </trkpt>
      <trkpt lat="45.91858" lon="6.50123">
        <ele>1930.1999511719</ele>
        <time>2014-02-12T11:39:03.000Z</time>
      </trkpt>
      <trkpt lat="45.91858" lon="6.50123">
        <ele>1930.1999511719</ele>
        <time>2014-02-12T11:39:04.000Z</time>
      </trkpt>
      <trkpt lat="45.91858" lon="6.50123">
        <ele>1930.1999511719</ele>
        <time>2014-02-12T11:39:05.000Z</time>
      </trkpt>
      <trkpt lat="45.91858" lon="6.50123">
        <ele>1930.1999511719</ele>
        <time>2014-02-12T11:39:06.000Z</time>
      </trkpt>
      <trkpt lat="45.91858" lon="6.50123">
        <ele>1930.1999511719</ele>
        <time>2014-02-12T11:39:07.000Z</time>
      </trkpt>
      <trkpt lat="45.91858" lon="6.50123">
        <ele>1930.1999511719</ele>
        <time>2014-02-12T11:39:08.000Z</time>
      </trkpt>
      <trkpt lat="45.91858" lon="6.50123">
        <ele>1930.1999511719</ele>
        <time>2014-02-12T11:39:09.000Z</time>
      </trkpt>
      <trkpt lat="45.91858" lon="6.50123">
        <ele>1930.1999511719</ele>
        <time>2014-02-12T11:39:10.000Z</time>
      </trkpt>
      <trkpt lat="45.91858" lon="6.50123">
        <ele>1930.1999511719</ele>
        <time>2014-02-12T11:39:11.000Z</time>
      </trkpt>
      <trkpt lat="45.91858" lon="6.50124">
        <ele>1930.4000244141</ele>
        <time>2014-02-12T11:39:12.000Z</time>
      </trkpt>
      <trkpt lat="45.91857" lon="6.50124">
        <ele>1930.4000244141</ele>
        <time>2014-02-12T11:39:13.000Z</time>
      </trkpt>
      <trkpt lat="45.91857" lon="6.50124">
        <ele>1930.4000244141</ele>
        <time>2014-02-12T11:39:14.000Z</time>
      </trkpt>
      <trkpt lat="45.91856" lon="6.50125">
        <ele>1930.4000244141</ele>
        <time>2014-02-12T11:39:15.000Z</time>
      </trkpt>
      <trkpt lat="45.91856" lon="6.50125">
        <ele>1930.4000244141</ele>
        <time>2014-02-12T11:39:16.000Z</time>
      </trkpt>
      <trkpt lat="45.91856" lon="6.50125">
        <ele>1930.1999511719</ele>
        <time>2014-02-12T11:39:17.000Z</time>
      </trkpt>
      <trkpt lat="45.91855" lon="6.50124">
        <ele>1930</ele>
        <time>2014-02-12T11:39:18.000Z</time>
      </trkpt>
      <trkpt lat="45.91854" lon="6.50124">
        <ele>1929.5999755859</ele>
        <time>2014-02-12T11:39:19.000Z</time>
      </trkpt>
      <trkpt lat="45.91854" lon="6.50124">
        <ele>1929.4000244141</ele>
        <time>2014-02-12T11:39:20.000Z</time>
      </trkpt>
      <trkpt lat="45.91853" lon="6.50124">
        <ele>1929.1999511719</ele>
        <time>2014-02-12T11:39:21.000Z</time>
      </trkpt>
      <trkpt lat="45.91852" lon="6.50124">
        <ele>1928.8000488281</ele>
        <time>2014-02-12T11:39:22.000Z</time>
      </trkpt>
      <trkpt lat="45.91852" lon="6.50123">
        <ele>1928.8000488281</ele>
        <time>2014-02-12T11:39:23.000Z</time>
      </trkpt>
      <trkpt lat="45.91852" lon="6.50124">
        <ele>1928.8000488281</ele>
        <time>2014-02-12T11:39:24.000Z</time>
      </trkpt>
      <trkpt lat="45.91851" lon="6.50124">
        <ele>1928.5999755859</ele>
        <time>2014-02-12T11:39:25.000Z</time>
      </trkpt>
      <trkpt lat="45.91851" lon="6.50124">
        <ele>1928.4000244141</ele>
        <time>2014-02-12T11:39:26.000Z</time>
      </trkpt>
      <trkpt lat="45.9185" lon="6.50124">
        <ele>1928.4000244141</ele>
        <time>2014-02-12T11:39:27.000Z</time>
      </trkpt>
      <trkpt lat="45.9185" lon="6.50125">
        <ele>1928.5999755859</ele>
        <time>2014-02-12T11:39:28.000Z</time>
      </trkpt>
      <trkpt lat="45.91849" lon="6.50125">
        <ele>1928.5999755859</ele>
        <time>2014-02-12T11:39:29.000Z</time>
      </trkpt>
      <trkpt lat="45.91849" lon="6.50126">
        <ele>1928.8000488281</ele>
        <time>2014-02-12T11:39:30.000Z</time>
      </trkpt>
      <trkpt lat="45.91848" lon="6.50126">
        <ele>1929</ele>
        <time>2014-02-12T11:39:31.000Z</time>
      </trkpt>
      <trkpt lat="45.91848" lon="6.50127">
        <ele>1929.1999511719</ele>
        <time>2014-02-12T11:39:32.000Z</time>
      </trkpt>
      <trkpt lat="45.91859" lon="6.50124">
        <ele>1930.8000488281</ele>
        <time>2014-02-12T11:39:33.000Z</time>
      </trkpt>
      <trkpt lat="45.91858" lon="6.50125">
        <ele>1931.1999511719</ele>
        <time>2014-02-12T11:39:34.000Z</time>
      </trkpt>
      <trkpt lat="45.91859" lon="6.50126">
        <ele>1931.4000244141</ele>
        <time>2014-02-12T11:39:35.000Z</time>
      </trkpt>
      <trkpt lat="45.91859" lon="6.50126">
        <ele>1931.4000244141</ele>
        <time>2014-02-12T11:39:36.000Z</time>
      </trkpt>
      <trkpt lat="45.91859" lon="6.50126">
        <ele>1931.4000244141</ele>
        <time>2014-02-12T11:39:37.000Z</time>
      </trkpt>
      <trkpt lat="45.91858" lon="6.50126">
        <ele>1931.1999511719</ele>
        <time>2014-02-12T11:39:38.000Z</time>
      </trkpt>
      <trkpt lat="45.91857" lon="6.50126">
        <ele>1931.4000244141</ele>
        <time>2014-02-12T11:39:39.000Z</time>
      </trkpt>
      <trkpt lat="45.91857" lon="6.50126">
        <ele>1931.4000244141</ele>
        <time>2014-02-12T11:39:40.000Z</time>
      </trkpt>
      <trkpt lat="45.91857" lon="6.50126">
        <ele>1931.1999511719</ele>
        <time>2014-02-12T11:39:41.000Z</time>
      </trkpt>
      <trkpt lat="45.91857" lon="6.50126">
        <ele>1931.1999511719</ele>
        <time>2014-02-12T11:39:42.000Z</time>
      </trkpt>
      <trkpt lat="45.91856" lon="6.50127">
        <ele>1931.4000244141</ele>
        <time>2014-02-12T11:39:43.000Z</time>
      </trkpt>
      <trkpt lat="45.91856" lon="6.50127">
        <ele>1931.4000244141</ele>
        <time>2014-02-12T11:39:44.000Z</time>
      </trkpt>
      <trkpt lat="45.91855" lon="6.50127">
        <ele>1931.1999511719</ele>
        <time>2014-02-12T11:39:45.000Z</time>
      </trkpt>
      <trkpt lat="45.91855" lon="6.50127">
        <ele>1931.1999511719</ele>
        <time>2014-02-12T11:39:46.000Z</time>
      </trkpt>
      <trkpt lat="45.91854" lon="6.50127">
        <ele>1930.8000488281</ele>
        <time>2014-02-12T11:39:47.000Z</time>
      </trkpt>
      <trkpt lat="45.91853" lon="6.50127">
        <ele>1930.5999755859</ele>
        <time>2014-02-12T11:39:48.000Z</time>
      </trkpt>
      <trkpt lat="45.91852" lon="6.50128">
        <ele>1930.8000488281</ele>
        <time>2014-02-12T11:39:49.000Z</time>
      </trkpt>
      <trkpt lat="45.91851" lon="6.50129">
        <ele>1930.8000488281</ele>
        <time>2014-02-12T11:39:50.000Z</time>
      </trkpt>
      <trkpt lat="45.91851" lon="6.50129">
        <ele>1930.8000488281</ele>
        <time>2014-02-12T11:39:51.000Z</time>
      </trkpt>
      <trkpt lat="45.9185" lon="6.50129">
        <ele>1930.8000488281</ele>
        <time>2014-02-12T11:39:52.000Z</time>
      </trkpt>
      <trkpt lat="45.9185" lon="6.50129">
        <ele>1930.8000488281</ele>
        <time>2014-02-12T11:39:53.000Z</time>
      </trkpt>
      <trkpt lat="45.91849" lon="6.50129">
        <ele>1930.5999755859</ele>
        <time>2014-02-12T11:39:54.000Z</time>
      </trkpt>
      <trkpt lat="45.91848" lon="6.50129">
        <ele>1930.1999511719</ele>
        <time>2014-02-12T11:39:55.000Z</time>
      </trkpt>
      <trkpt lat="45.91847" lon="6.50129">
        <ele>1930</ele>
        <time>2014-02-12T11:39:56.000Z</time>
      </trkpt>
      <trkpt lat="45.91847" lon="6.50129">
        <ele>1929.8000488281</ele>
        <time>2014-02-12T11:39:57.000Z</time>
      </trkpt>
      <trkpt lat="45.91846" lon="6.50129">
        <ele>1929.5999755859</ele>
        <time>2014-02-12T11:39:58.000Z</time>
      </trkpt>
      <trkpt lat="45.91846" lon="6.50128">
        <ele>1929.1999511719</ele>
        <time>2014-02-12T11:39:59.000Z</time>
      </trkpt>
      <trkpt lat="45.91845" lon="6.50127">
        <ele>1928.5999755859</ele>
        <time>2014-02-12T11:40:00.000Z</time>
      </trkpt>
      <trkpt lat="45.91844" lon="6.50127">
        <ele>1928.4000244141</ele>
        <time>2014-02-12T11:40:01.000Z</time>
      </trkpt>
      <trkpt lat="45.91843" lon="6.50127">
        <ele>1928.1999511719</ele>
        <time>2014-02-12T11:40:02.000Z</time>
      </trkpt>
      <trkpt lat="45.91843" lon="6.50127">
        <ele>1927.8000488281</ele>
        <time>2014-02-12T11:40:03.000Z</time>
      </trkpt>
      <trkpt lat="45.91842" lon="6.50127">
        <ele>1927.8000488281</ele>
        <time>2014-02-12T11:40:04.000Z</time>
      </trkpt>
      <trkpt lat="45.91842" lon="6.50127">
        <ele>1927.5999755859</ele>
        <time>2014-02-12T11:40:05.000Z</time>
      </trkpt>
      <trkpt lat="45.91842" lon="6.50127">
        <ele>1927.5999755859</ele>
        <time>2014-02-12T11:40:06.000Z</time>
      </trkpt>
      <trkpt lat="45.91841" lon="6.50127">
        <ele>1927.4000244141</ele>
        <time>2014-02-12T11:40:07.000Z</time>
      </trkpt>
      <trkpt lat="45.91841" lon="6.50127">
        <ele>1927.4000244141</ele>
        <time>2014-02-12T11:40:08.000Z</time>
      </trkpt>
      <trkpt lat="45.91841" lon="6.50127">
        <ele>1927.4000244141</ele>
        <time>2014-02-12T11:40:09.000Z</time>
      </trkpt>
      <trkpt lat="45.9184" lon="6.50127">
        <ele>1927.1999511719</ele>
        <time>2014-02-12T11:40:10.000Z</time>
      </trkpt>
      <trkpt lat="45.91839" lon="6.50127">
        <ele>1926.8000488281</ele>
        <time>2014-02-12T11:40:11.000Z</time>
      </trkpt>
      <trkpt lat="45.91838" lon="6.50126">
        <ele>1926.4000244141</ele>
        <time>2014-02-12T11:40:12.000Z</time>
      </trkpt>
      <trkpt lat="45.91837" lon="6.50126">
        <ele>1926</ele>
        <time>2014-02-12T11:40:13.000Z</time>
      </trkpt>
      <trkpt lat="45.91836" lon="6.50126">
        <ele>1925.5999755859</ele>
        <time>2014-02-12T11:40:14.000Z</time>
      </trkpt>
      <trkpt lat="45.91835" lon="6.50126">
        <ele>1925.1999511719</ele>
        <time>2014-02-12T11:40:15.000Z</time>
      </trkpt>
      <trkpt lat="45.91834" lon="6.50126">
        <ele>1925</ele>
        <time>2014-02-12T11:40:16.000Z</time>
      </trkpt>
      <trkpt lat="45.91833" lon="6.50126">
        <ele>1924.8000488281</ele>
        <time>2014-02-12T11:40:17.000Z</time>
      </trkpt>
      <trkpt lat="45.91832" lon="6.50126">
        <ele>1924.4000244141</ele>
        <time>2014-02-12T11:40:18.000Z</time>
      </trkpt>
      <trkpt lat="45.91831" lon="6.50126">
        <ele>1924</ele>
        <time>2014-02-12T11:40:19.000Z</time>
      </trkpt>
      <trkpt lat="45.91831" lon="6.50128">
        <ele>1925</ele>
        <time>2014-02-12T11:40:20.000Z</time>
      </trkpt>
      <trkpt lat="45.91831" lon="6.5013">
        <ele>1926</ele>
        <time>2014-02-12T11:40:21.000Z</time>
      </trkpt>
      <trkpt lat="45.91831" lon="6.5013">
        <ele>1926</ele>
        <time>2014-02-12T11:40:22.000Z</time>
      </trkpt>
      <trkpt lat="45.91831" lon="6.5013">
        <ele>1926</ele>
        <time>2014-02-12T11:40:23.000Z</time>
      </trkpt>
      <trkpt lat="45.91831" lon="6.5013">
        <ele>1926</ele>
        <time>2014-02-12T11:40:24.000Z</time>
      </trkpt>
      <trkpt lat="45.91833" lon="6.50133">
        <ele>1927.8000488281</ele>
        <time>2014-02-12T11:40:25.000Z</time>
      </trkpt>
      <trkpt lat="45.91833" lon="6.50133">
        <ele>1927.8000488281</ele>
        <time>2014-02-12T11:40:26.000Z</time>
      </trkpt>
      <trkpt lat="45.91834" lon="6.50135">
        <ele>1929.4000244141</ele>
        <time>2014-02-12T11:40:27.000Z</time>
      </trkpt>
      <trkpt lat="45.91836" lon="6.50138">
        <ele>1931.1999511719</ele>
        <time>2014-02-12T11:40:28.000Z</time>
      </trkpt>
      <trkpt lat="45.91836" lon="6.50138">
        <ele>1931.1999511719</ele>
        <time>2014-02-12T11:40:29.000Z</time>
      </trkpt>
      <trkpt lat="45.91836" lon="6.50141">
        <ele>1932.4000244141</ele>
        <time>2014-02-12T11:40:30.000Z</time>
      </trkpt>
      <trkpt lat="45.91836" lon="6.50141">
        <ele>1932.4000244141</ele>
        <time>2014-02-12T11:40:31.000Z</time>
      </trkpt>
      <trkpt lat="45.91836" lon="6.50143">
        <ele>1933.1999511719</ele>
        <time>2014-02-12T11:40:32.000Z</time>
      </trkpt>
      <trkpt lat="45.91836" lon="6.50143">
        <ele>1933.1999511719</ele>
        <time>2014-02-12T11:40:33.000Z</time>
      </trkpt>
      <trkpt lat="45.91837" lon="6.50144">
        <ele>1934.1999511719</ele>
        <time>2014-02-12T11:40:34.000Z</time>
      </trkpt>
      <trkpt lat="45.91837" lon="6.50146">
        <ele>1935</ele>
        <time>2014-02-12T11:40:35.000Z</time>
      </trkpt>
      <trkpt lat="45.91837" lon="6.50146">
        <ele>1935.1999511719</ele>
        <time>2014-02-12T11:40:36.000Z</time>
      </trkpt>
      <trkpt lat="45.91837" lon="6.50147">
        <ele>1935.8000488281</ele>
        <time>2014-02-12T11:40:37.000Z</time>
      </trkpt>
      <trkpt lat="45.91838" lon="6.50149">
        <ele>1936.5999755859</ele>
        <time>2014-02-12T11:40:38.000Z</time>
      </trkpt>
      <trkpt lat="45.91838" lon="6.5015">
        <ele>1937.4000244141</ele>
        <time>2014-02-12T11:40:39.000Z</time>
      </trkpt>
      <trkpt lat="45.91838" lon="6.5015">
        <ele>1937.4000244141</ele>
        <time>2014-02-12T11:40:40.000Z</time>
      </trkpt>
      <trkpt lat="45.91838" lon="6.50151">
        <ele>1938.1999511719</ele>
        <time>2014-02-12T11:40:41.000Z</time>
      </trkpt>
      <trkpt lat="45.91838" lon="6.50151">
        <ele>1938.1999511719</ele>
        <time>2014-02-12T11:40:42.000Z</time>
      </trkpt>
      <trkpt lat="45.91839" lon="6.50152">
        <ele>1939.4000244141</ele>
        <time>2014-02-12T11:40:43.000Z</time>
      </trkpt>
      <trkpt lat="45.9184" lon="6.50154">
        <ele>1940.5999755859</ele>
        <time>2014-02-12T11:40:44.000Z</time>
      </trkpt>
      <trkpt lat="45.9184" lon="6.50154">
        <ele>1940.5999755859</ele>
        <time>2014-02-12T11:40:45.000Z</time>
      </trkpt>
      <trkpt lat="45.91841" lon="6.50155">
        <ele>1942</ele>
        <time>2014-02-12T11:40:46.000Z</time>
      </trkpt>
      <trkpt lat="45.91841" lon="6.50157">
        <ele>1943.5999755859</ele>
        <time>2014-02-12T11:40:47.000Z</time>
      </trkpt>
      <trkpt lat="45.91842" lon="6.50158">
        <ele>1945</ele>
        <time>2014-02-12T11:40:48.000Z</time>
      </trkpt>
      <trkpt lat="45.91842" lon="6.50158">
        <ele>1945</ele>
        <time>2014-02-12T11:40:49.000Z</time>
      </trkpt>
      <trkpt lat="45.91842" lon="6.5016">
        <ele>1946.4000244141</ele>
        <time>2014-02-12T11:40:50.000Z</time>
      </trkpt>
      <trkpt lat="45.91842" lon="6.5016">
        <ele>1946.4000244141</ele>
        <time>2014-02-12T11:40:51.000Z</time>
      </trkpt>
      <trkpt lat="45.91842" lon="6.5016">
        <ele>1946.4000244141</ele>
        <time>2014-02-12T11:40:52.000Z</time>
      </trkpt>
      <trkpt lat="45.91843" lon="6.50161">
        <ele>1947.8000488281</ele>
        <time>2014-02-12T11:40:53.000Z</time>
      </trkpt>
      <trkpt lat="45.91843" lon="6.50161">
        <ele>1947.8000488281</ele>
        <time>2014-02-12T11:40:54.000Z</time>
      </trkpt>
      <trkpt lat="45.91844" lon="6.50162">
        <ele>1949.1999511719</ele>
        <time>2014-02-12T11:40:55.000Z</time>
      </trkpt>
      <trkpt lat="45.91844" lon="6.50164">
        <ele>1950.4000244141</ele>
        <time>2014-02-12T11:40:56.000Z</time>
      </trkpt>
      <trkpt lat="45.91845" lon="6.50165">
        <ele>1951.5999755859</ele>
        <time>2014-02-12T11:40:57.000Z</time>
      </trkpt>
      <trkpt lat="45.91845" lon="6.50166">
        <ele>1952.4000244141</ele>
        <time>2014-02-12T11:40:58.000Z</time>
      </trkpt>
      <trkpt lat="45.91845" lon="6.50167">
        <ele>1953.4000244141</ele>
        <time>2014-02-12T11:40:59.000Z</time>
      </trkpt>
      <trkpt lat="45.91846" lon="6.50168">
        <ele>1954.5999755859</ele>
        <time>2014-02-12T11:41:00.000Z</time>
      </trkpt>
      <trkpt lat="45.91846" lon="6.5017">
        <ele>1956</ele>
        <time>2014-02-12T11:41:01.000Z</time>
      </trkpt>
      <trkpt lat="45.91846" lon="6.5017">
        <ele>1956</ele>
        <time>2014-02-12T11:41:02.000Z</time>
      </trkpt>
      <trkpt lat="45.91846" lon="6.5017">
        <ele>1956</ele>
        <time>2014-02-12T11:41:03.000Z</time>
      </trkpt>
      <trkpt lat="45.91847" lon="6.5017">
        <ele>1956.5999755859</ele>
        <time>2014-02-12T11:41:04.000Z</time>
      </trkpt>
      <trkpt lat="45.91847" lon="6.50171">
        <ele>1957.1999511719</ele>
        <time>2014-02-12T11:41:05.000Z</time>
      </trkpt>
      <trkpt lat="45.91848" lon="6.50171">
        <ele>1958</ele>
        <time>2014-02-12T11:41:06.000Z</time>
      </trkpt>
      <trkpt lat="45.91849" lon="6.50172">
        <ele>1958.4000244141</ele>
        <time>2014-02-12T11:41:07.000Z</time>
      </trkpt>
      <trkpt lat="45.91849" lon="6.50172">
        <ele>1958.5999755859</ele>
        <time>2014-02-12T11:41:08.000Z</time>
      </trkpt>
      <trkpt lat="45.91849" lon="6.50172">
        <ele>1958.5999755859</ele>
        <time>2014-02-12T11:41:09.000Z</time>
      </trkpt>
      <trkpt lat="45.91849" lon="6.50172">
        <ele>1958.5999755859</ele>
        <time>2014-02-12T11:41:10.000Z</time>
      </trkpt>
      <trkpt lat="45.91849" lon="6.50172">
        <ele>1958.5999755859</ele>
        <time>2014-02-12T11:41:11.000Z</time>
      </trkpt>
      <trkpt lat="45.91849" lon="6.50172">
        <ele>1958.5999755859</ele>
        <time>2014-02-12T11:41:12.000Z</time>
      </trkpt>
      <trkpt lat="45.91849" lon="6.50172">
        <ele>1958.5999755859</ele>
        <time>2014-02-12T11:41:13.000Z</time>
      </trkpt>
      <trkpt lat="45.91849" lon="6.50172">
        <ele>1958.5999755859</ele>
        <time>2014-02-12T11:41:14.000Z</time>
      </trkpt>
      <trkpt lat="45.9185" lon="6.50172">
        <ele>1959.1999511719</ele>
        <time>2014-02-12T11:41:15.000Z</time>
      </trkpt>
      <trkpt lat="45.91851" lon="6.50172">
        <ele>1959.5999755859</ele>
        <time>2014-02-12T11:41:16.000Z</time>
      </trkpt>
      <trkpt lat="45.91851" lon="6.50172">
        <ele>1959.5999755859</ele>
        <time>2014-02-12T11:41:17.000Z</time>
      </trkpt>
      <trkpt lat="45.91851" lon="6.50172">
        <ele>1959.5999755859</ele>
        <time>2014-02-12T11:41:18.000Z</time>
      </trkpt>
      <trkpt lat="45.91851" lon="6.50173">
        <ele>1960</ele>
        <time>2014-02-12T11:41:19.000Z</time>
      </trkpt>
      <trkpt lat="45.91852" lon="6.50173">
        <ele>1960.1999511719</ele>
        <time>2014-02-12T11:41:20.000Z</time>
      </trkpt>
      <trkpt lat="45.91853" lon="6.50173">
        <ele>1960.8000488281</ele>
        <time>2014-02-12T11:41:21.000Z</time>
      </trkpt>
      <trkpt lat="45.91853" lon="6.50174">
        <ele>1961.1999511719</ele>
        <time>2014-02-12T11:41:22.000Z</time>
      </trkpt>
      <trkpt lat="45.91854" lon="6.50173">
        <ele>1961</ele>
        <time>2014-02-12T11:41:23.000Z</time>
      </trkpt>
      <trkpt lat="45.91853" lon="6.50173">
        <ele>1960.4000244141</ele>
        <time>2014-02-12T11:41:24.000Z</time>
      </trkpt>
      <trkpt lat="45.91853" lon="6.50172">
        <ele>1960.1999511719</ele>
        <time>2014-02-12T11:41:25.000Z</time>
      </trkpt>
      <trkpt lat="45.91853" lon="6.50173">
        <ele>1960.1999511719</ele>
        <time>2014-02-12T11:41:26.000Z</time>
      </trkpt>
      <trkpt lat="45.91853" lon="6.50173">
        <ele>1960.1999511719</ele>
        <time>2014-02-12T11:41:27.000Z</time>
      </trkpt>
      <trkpt lat="45.91853" lon="6.50173">
        <ele>1960.1999511719</ele>
        <time>2014-02-12T11:41:28.000Z</time>
      </trkpt>
      <trkpt lat="45.91853" lon="6.50172">
        <ele>1960</ele>
        <time>2014-02-12T11:41:29.000Z</time>
      </trkpt>
      <trkpt lat="45.91853" lon="6.50172">
        <ele>1960</ele>
        <time>2014-02-12T11:41:30.000Z</time>
      </trkpt>
      <trkpt lat="45.91852" lon="6.50173">
        <ele>1960</ele>
        <time>2014-02-12T11:41:31.000Z</time>
      </trkpt>
      <trkpt lat="45.91852" lon="6.50173">
        <ele>1960</ele>
        <time>2014-02-12T11:41:32.000Z</time>
      </trkpt>
      <trkpt lat="45.91852" lon="6.50173">
        <ele>1960.1999511719</ele>
        <time>2014-02-12T11:41:33.000Z</time>
      </trkpt>
      <trkpt lat="45.91851" lon="6.50173">
        <ele>1960.1999511719</ele>
        <time>2014-02-12T11:41:34.000Z</time>
      </trkpt>
      <trkpt lat="45.91851" lon="6.50173">
        <ele>1960.1999511719</ele>
        <time>2014-02-12T11:41:35.000Z</time>
      </trkpt>
      <trkpt lat="45.91851" lon="6.50174">
        <ele>1960.5999755859</ele>
        <time>2014-02-12T11:41:36.000Z</time>
      </trkpt>
      <trkpt lat="45.91851" lon="6.50174">
        <ele>1960.5999755859</ele>
        <time>2014-02-12T11:41:37.000Z</time>
      </trkpt>
      <trkpt lat="45.9185" lon="6.50174">
        <ele>1960.8000488281</ele>
        <time>2014-02-12T11:41:38.000Z</time>
      </trkpt>
      <trkpt lat="45.91849" lon="6.50175">
        <ele>1961</ele>
        <time>2014-02-12T11:41:39.000Z</time>
      </trkpt>
      <trkpt lat="45.91849" lon="6.50175">
        <ele>1961.5999755859</ele>
        <time>2014-02-12T11:41:40.000Z</time>
      </trkpt>
      <trkpt lat="45.91848" lon="6.50176">
        <ele>1962.1999511719</ele>
        <time>2014-02-12T11:41:41.000Z</time>
      </trkpt>
      <trkpt lat="45.91848" lon="6.50177">
        <ele>1963</ele>
        <time>2014-02-12T11:41:42.000Z</time>
      </trkpt>
      <trkpt lat="45.91847" lon="6.50178">
        <ele>1963.4000244141</ele>
        <time>2014-02-12T11:41:43.000Z</time>
      </trkpt>
      <trkpt lat="45.91847" lon="6.50179">
        <ele>1964</ele>
        <time>2014-02-12T11:41:44.000Z</time>
      </trkpt>
      <trkpt lat="45.91846" lon="6.50179">
        <ele>1964.4000244141</ele>
        <time>2014-02-12T11:41:45.000Z</time>
      </trkpt>
      <trkpt lat="45.91846" lon="6.5018">
        <ele>1964.8000488281</ele>
        <time>2014-02-12T11:41:46.000Z</time>
      </trkpt>
      <trkpt lat="45.91845" lon="6.50181">
        <ele>1965.1999511719</ele>
        <time>2014-02-12T11:41:47.000Z</time>
      </trkpt>
      <trkpt lat="45.91844" lon="6.50181">
        <ele>1965.1999511719</ele>
        <time>2014-02-12T11:41:48.000Z</time>
      </trkpt>
      <trkpt lat="45.91843" lon="6.50182">
        <ele>1965.5999755859</ele>
        <time>2014-02-12T11:41:49.000Z</time>
      </trkpt>
      <trkpt lat="45.91843" lon="6.50183">
        <ele>1966.1999511719</ele>
        <time>2014-02-12T11:41:50.000Z</time>
      </trkpt>
      <trkpt lat="45.91842" lon="6.50183">
        <ele>1966.5999755859</ele>
        <time>2014-02-12T11:41:51.000Z</time>
      </trkpt>
      <trkpt lat="45.91842" lon="6.50184">
        <ele>1966.8000488281</ele>
        <time>2014-02-12T11:41:52.000Z</time>
      </trkpt>
      <trkpt lat="45.91841" lon="6.50184">
        <ele>1967</ele>
        <time>2014-02-12T11:41:53.000Z</time>
      </trkpt>
      <trkpt lat="45.91841" lon="6.50184">
        <ele>1966.8000488281</ele>
        <time>2014-02-12T11:41:54.000Z</time>
      </trkpt>
      <trkpt lat="45.9184" lon="6.50185">
        <ele>1966.8000488281</ele>
        <time>2014-02-12T11:41:55.000Z</time>
      </trkpt>
      <trkpt lat="45.9184" lon="6.50185">
        <ele>1966.8000488281</ele>
        <time>2014-02-12T11:41:56.000Z</time>
      </trkpt>
      <trkpt lat="45.91839" lon="6.50186">
        <ele>1967</ele>
        <time>2014-02-12T11:41:57.000Z</time>
      </trkpt>
      <trkpt lat="45.91839" lon="6.50186">
        <ele>1967</ele>
        <time>2014-02-12T11:41:58.000Z</time>
      </trkpt>
      <trkpt lat="45.91838" lon="6.50186">
        <ele>1966.8000488281</ele>
        <time>2014-02-12T11:41:59.000Z</time>
      </trkpt>
      <trkpt lat="45.91838" lon="6.50186">
        <ele>1966.8000488281</ele>
        <time>2014-02-12T11:42:00.000Z</time>
      </trkpt>
      <trkpt lat="45.91838" lon="6.50186">
        <ele>1966.8000488281</ele>
        <time>2014-02-12T11:42:01.000Z</time>
      </trkpt>
      <trkpt lat="45.91838" lon="6.50186">
        <ele>1966.8000488281</ele>
        <time>2014-02-12T11:42:02.000Z</time>
      </trkpt>
      <trkpt lat="45.91838" lon="6.50186">
        <ele>1966.8000488281</ele>
        <time>2014-02-12T11:42:03.000Z</time>
      </trkpt>
      <trkpt lat="45.91837" lon="6.50186">
        <ele>1966.4000244141</ele>
        <time>2014-02-12T11:42:04.000Z</time>
      </trkpt>
      <trkpt lat="45.91837" lon="6.50186">
        <ele>1966.4000244141</ele>
        <time>2014-02-12T11:42:05.000Z</time>
      </trkpt>
      <trkpt lat="45.91837" lon="6.50186">
        <ele>1966.4000244141</ele>
        <time>2014-02-12T11:42:06.000Z</time>
      </trkpt>
      <trkpt lat="45.91837" lon="6.50186">
        <ele>1966</ele>
        <time>2014-02-12T11:42:07.000Z</time>
      </trkpt>
      <trkpt lat="45.91835" lon="6.50184">
        <ele>1964</ele>
        <time>2014-02-12T11:42:08.000Z</time>
      </trkpt>
      <trkpt lat="45.91833" lon="6.50183">
        <ele>1962.8000488281</ele>
        <time>2014-02-12T11:42:09.000Z</time>
      </trkpt>
      <trkpt lat="45.91832" lon="6.50182">
        <ele>1961.5999755859</ele>
        <time>2014-02-12T11:42:10.000Z</time>
      </trkpt>
      <trkpt lat="45.91831" lon="6.50181">
        <ele>1960.1999511719</ele>
        <time>2014-02-12T11:42:11.000Z</time>
      </trkpt>
      <trkpt lat="45.91831" lon="6.50181">
        <ele>1960.1999511719</ele>
        <time>2014-02-12T11:42:12.000Z</time>
      </trkpt>
      <trkpt lat="45.9183" lon="6.5018">
        <ele>1959.4000244141</ele>
        <time>2014-02-12T11:42:13.000Z</time>
      </trkpt>
      <trkpt lat="45.9183" lon="6.5018">
        <ele>1959.4000244141</ele>
        <time>2014-02-12T11:42:14.000Z</time>
      </trkpt>
      <trkpt lat="45.9183" lon="6.5018">
        <ele>1958.5999755859</ele>
        <time>2014-02-12T11:42:15.000Z</time>
      </trkpt>
      <trkpt lat="45.9183" lon="6.5018">
        <ele>1958.5999755859</ele>
        <time>2014-02-12T11:42:16.000Z</time>
      </trkpt>
      <trkpt lat="45.91829" lon="6.50179">
        <ele>1957.5999755859</ele>
        <time>2014-02-12T11:42:17.000Z</time>
      </trkpt>
      <trkpt lat="45.91829" lon="6.50179">
        <ele>1957.5999755859</ele>
        <time>2014-02-12T11:42:18.000Z</time>
      </trkpt>
      <trkpt lat="45.91828" lon="6.50179">
        <ele>1957.5999755859</ele>
        <time>2014-02-12T11:42:19.000Z</time>
      </trkpt>
      <trkpt lat="45.91828" lon="6.5018">
        <ele>1957.5999755859</ele>
        <time>2014-02-12T11:42:20.000Z</time>
      </trkpt>
      <trkpt lat="45.91828" lon="6.5018">
        <ele>1957.5999755859</ele>
        <time>2014-02-12T11:42:21.000Z</time>
      </trkpt>
      <trkpt lat="45.91827" lon="6.50179">
        <ele>1957</ele>
        <time>2014-02-12T11:42:22.000Z</time>
      </trkpt>
      <trkpt lat="45.91826" lon="6.50178">
        <ele>1955.8000488281</ele>
        <time>2014-02-12T11:42:23.000Z</time>
      </trkpt>
      <trkpt lat="45.91825" lon="6.50178">
        <ele>1955</ele>
        <time>2014-02-12T11:42:24.000Z</time>
      </trkpt>
      <trkpt lat="45.91825" lon="6.50178">
        <ele>1955</ele>
        <time>2014-02-12T11:42:25.000Z</time>
      </trkpt>
      <trkpt lat="45.91824" lon="6.50177">
        <ele>1954</ele>
        <time>2014-02-12T11:42:26.000Z</time>
      </trkpt>
      <trkpt lat="45.91824" lon="6.50177">
        <ele>1954</ele>
        <time>2014-02-12T11:42:27.000Z</time>
      </trkpt>
      <trkpt lat="45.91824" lon="6.50178">
        <ele>1954.1999511719</ele>
        <time>2014-02-12T11:42:28.000Z</time>
      </trkpt>
      <trkpt lat="45.91824" lon="6.50178">
        <ele>1954.1999511719</ele>
        <time>2014-02-12T11:42:29.000Z</time>
      </trkpt>
      <trkpt lat="45.91823" lon="6.50177">
        <ele>1953.8000488281</ele>
        <time>2014-02-12T11:42:30.000Z</time>
      </trkpt>
      <trkpt lat="45.91823" lon="6.50177">
        <ele>1953.8000488281</ele>
        <time>2014-02-12T11:42:31.000Z</time>
      </trkpt>
      <trkpt lat="45.91822" lon="6.50177">
        <ele>1953.5999755859</ele>
        <time>2014-02-12T11:42:33.000Z</time>
      </trkpt>
      <trkpt lat="45.91822" lon="6.50178">
        <ele>1953.4000244141</ele>
        <time>2014-02-12T11:42:34.000Z</time>
      </trkpt>
      <trkpt lat="45.91821" lon="6.50177">
        <ele>1952.5999755859</ele>
        <time>2014-02-12T11:42:35.000Z</time>
      </trkpt>
      <trkpt lat="45.9182" lon="6.50177">
        <ele>1952.1999511719</ele>
        <time>2014-02-12T11:42:36.000Z</time>
      </trkpt>
      <trkpt lat="45.91819" lon="6.50177">
        <ele>1951.5999755859</ele>
        <time>2014-02-12T11:42:37.000Z</time>
      </trkpt>
      <trkpt lat="45.91819" lon="6.50177">
        <ele>1951.5999755859</ele>
        <time>2014-02-12T11:42:38.000Z</time>
      </trkpt>
      <trkpt lat="45.91818" lon="6.50177">
        <ele>1951.1999511719</ele>
        <time>2014-02-12T11:42:39.000Z</time>
      </trkpt>
      <trkpt lat="45.91818" lon="6.50177">
        <ele>1951.1999511719</ele>
        <time>2014-02-12T11:42:40.000Z</time>
      </trkpt>
      <trkpt lat="45.91818" lon="6.50176">
        <ele>1950.5999755859</ele>
        <time>2014-02-12T11:42:41.000Z</time>
      </trkpt>
      <trkpt lat="45.91818" lon="6.50176">
        <ele>1950.5999755859</ele>
        <time>2014-02-12T11:42:42.000Z</time>
      </trkpt>
      <trkpt lat="45.91817" lon="6.50176">
        <ele>1949.8000488281</ele>
        <time>2014-02-12T11:42:43.000Z</time>
      </trkpt>
      <trkpt lat="45.91817" lon="6.50176">
        <ele>1949.8000488281</ele>
        <time>2014-02-12T11:42:44.000Z</time>
      </trkpt>
      <trkpt lat="45.91816" lon="6.50175">
        <ele>1949</ele>
        <time>2014-02-12T11:42:45.000Z</time>
      </trkpt>
      <trkpt lat="45.91815" lon="6.50175">
        <ele>1948.1999511719</ele>
        <time>2014-02-12T11:42:46.000Z</time>
      </trkpt>
      <trkpt lat="45.91815" lon="6.50174">
        <ele>1947.8000488281</ele>
        <time>2014-02-12T11:42:47.000Z</time>
      </trkpt>
      <trkpt lat="45.91814" lon="6.50174">
        <ele>1947.1999511719</ele>
        <time>2014-02-12T11:42:48.000Z</time>
      </trkpt>
      <trkpt lat="45.91813" lon="6.50174">
        <ele>1946.8000488281</ele>
        <time>2014-02-12T11:42:49.000Z</time>
      </trkpt>
      <trkpt lat="45.91813" lon="6.50173">
        <ele>1946.1999511719</ele>
        <time>2014-02-12T11:42:50.000Z</time>
      </trkpt>
      <trkpt lat="45.91812" lon="6.50173">
        <ele>1945.5999755859</ele>
        <time>2014-02-12T11:42:51.000Z</time>
      </trkpt>
      <trkpt lat="45.91812" lon="6.50172">
        <ele>1945</ele>
        <time>2014-02-12T11:42:52.000Z</time>
      </trkpt>
      <trkpt lat="45.91812" lon="6.50172">
        <ele>1945</ele>
        <time>2014-02-12T11:42:53.000Z</time>
      </trkpt>
      <trkpt lat="45.91811" lon="6.50172">
        <ele>1944.5999755859</ele>
        <time>2014-02-12T11:42:54.000Z</time>
      </trkpt>
      <trkpt lat="45.91811" lon="6.50172">
        <ele>1944.5999755859</ele>
        <time>2014-02-12T11:42:55.000Z</time>
      </trkpt>
      <trkpt lat="45.91811" lon="6.50172">
        <ele>1944.1999511719</ele>
        <time>2014-02-12T11:42:56.000Z</time>
      </trkpt>
      <trkpt lat="45.91811" lon="6.50172">
        <ele>1944.1999511719</ele>
        <time>2014-02-12T11:42:57.000Z</time>
      </trkpt>
      <trkpt lat="45.9181" lon="6.50171">
        <ele>1943.8000488281</ele>
        <time>2014-02-12T11:42:58.000Z</time>
      </trkpt>
      <trkpt lat="45.9181" lon="6.50171">
        <ele>1943.8000488281</ele>
        <time>2014-02-12T11:42:59.000Z</time>
      </trkpt>
      <trkpt lat="45.9181" lon="6.50171">
        <ele>1943.8000488281</ele>
        <time>2014-02-12T11:43:00.000Z</time>
      </trkpt>
      <trkpt lat="45.91809" lon="6.50171">
        <ele>1943.1999511719</ele>
        <time>2014-02-12T11:43:01.000Z</time>
      </trkpt>
      <trkpt lat="45.91809" lon="6.50171">
        <ele>1943.1999511719</ele>
        <time>2014-02-12T11:43:02.000Z</time>
      </trkpt>
      <trkpt lat="45.91809" lon="6.50171">
        <ele>1943.1999511719</ele>
        <time>2014-02-12T11:43:03.000Z</time>
      </trkpt>
      <trkpt lat="45.91809" lon="6.50171">
        <ele>1943.1999511719</ele>
        <time>2014-02-12T11:43:04.000Z</time>
      </trkpt>
      <trkpt lat="45.91809" lon="6.50171">
        <ele>1943.1999511719</ele>
        <time>2014-02-12T11:43:05.000Z</time>
      </trkpt>
      <trkpt lat="45.91809" lon="6.50171">
        <ele>1943.1999511719</ele>
        <time>2014-02-12T11:43:06.000Z</time>
      </trkpt>
      <trkpt lat="45.91809" lon="6.50171">
        <ele>1943.1999511719</ele>
        <time>2014-02-12T11:43:07.000Z</time>
      </trkpt>
      <trkpt lat="45.91809" lon="6.50171">
        <ele>1943.1999511719</ele>
        <time>2014-02-12T11:43:08.000Z</time>
      </trkpt>
      <trkpt lat="45.91809" lon="6.50172">
        <ele>1943.8000488281</ele>
        <time>2014-02-12T11:43:09.000Z</time>
      </trkpt>
      <trkpt lat="45.91809" lon="6.50173">
        <ele>1944</ele>
        <time>2014-02-12T11:43:10.000Z</time>
      </trkpt>
      <trkpt lat="45.91809" lon="6.50174">
        <ele>1944.5999755859</ele>
        <time>2014-02-12T11:43:11.000Z</time>
      </trkpt>
      <trkpt lat="45.91808" lon="6.50174">
        <ele>1944.5999755859</ele>
        <time>2014-02-12T11:43:12.000Z</time>
      </trkpt>
      <trkpt lat="45.91807" lon="6.50175">
        <ele>1944.5999755859</ele>
        <time>2014-02-12T11:43:13.000Z</time>
      </trkpt>
      <trkpt lat="45.91807" lon="6.50175">
        <ele>1944.8000488281</ele>
        <time>2014-02-12T11:43:14.000Z</time>
      </trkpt>
      <trkpt lat="45.91807" lon="6.50175">
        <ele>1944.8000488281</ele>
        <time>2014-02-12T11:43:15.000Z</time>
      </trkpt>
      <trkpt lat="45.91807" lon="6.50177">
        <ele>1945.8000488281</ele>
        <time>2014-02-12T11:43:16.000Z</time>
      </trkpt>
      <trkpt lat="45.91807" lon="6.50178">
        <ele>1946.8000488281</ele>
        <time>2014-02-12T11:43:17.000Z</time>
      </trkpt>
      <trkpt lat="45.91807" lon="6.5018">
        <ele>1947.8000488281</ele>
        <time>2014-02-12T11:43:18.000Z</time>
      </trkpt>
      <trkpt lat="45.91807" lon="6.50181">
        <ele>1948.5999755859</ele>
        <time>2014-02-12T11:43:19.000Z</time>
      </trkpt>
      <trkpt lat="45.91806" lon="6.50183">
        <ele>1949.4000244141</ele>
        <time>2014-02-12T11:43:20.000Z</time>
      </trkpt>
      <trkpt lat="45.91806" lon="6.50184">
        <ele>1950.4000244141</ele>
        <time>2014-02-12T11:43:21.000Z</time>
      </trkpt>
      <trkpt lat="45.91806" lon="6.50185">
        <ele>1951</ele>
        <time>2014-02-12T11:43:22.000Z</time>
      </trkpt>
      <trkpt lat="45.91805" lon="6.50185">
        <ele>1951.5999755859</ele>
        <time>2014-02-12T11:43:23.000Z</time>
      </trkpt>
      <trkpt lat="45.91805" lon="6.50186">
        <ele>1952.1999511719</ele>
        <time>2014-02-12T11:43:24.000Z</time>
      </trkpt>
      <trkpt lat="45.91805" lon="6.50187">
        <ele>1952.8000488281</ele>
        <time>2014-02-12T11:43:25.000Z</time>
      </trkpt>
      <trkpt lat="45.91804" lon="6.50188">
        <ele>1953.5999755859</ele>
        <time>2014-02-12T11:43:26.000Z</time>
      </trkpt>
      <trkpt lat="45.91804" lon="6.50189">
        <ele>1954.1999511719</ele>
        <time>2014-02-12T11:43:27.000Z</time>
      </trkpt>
      <trkpt lat="45.91804" lon="6.50191">
        <ele>1955</ele>
        <time>2014-02-12T11:43:28.000Z</time>
      </trkpt>
      <trkpt lat="45.91804" lon="6.50192">
        <ele>1956</ele>
        <time>2014-02-12T11:43:29.000Z</time>
      </trkpt>
      <trkpt lat="45.91804" lon="6.50192">
        <ele>1956</ele>
        <time>2014-02-12T11:43:30.000Z</time>
      </trkpt>
      <trkpt lat="45.91804" lon="6.50194">
        <ele>1957.1999511719</ele>
        <time>2014-02-12T11:43:31.000Z</time>
      </trkpt>
      <trkpt lat="45.91804" lon="6.50194">
        <ele>1957.1999511719</ele>
        <time>2014-02-12T11:43:32.000Z</time>
      </trkpt>
      <trkpt lat="45.91804" lon="6.50195">
        <ele>1958</ele>
        <time>2014-02-12T11:43:33.000Z</time>
      </trkpt>
      <trkpt lat="45.91804" lon="6.50195">
        <ele>1958</ele>
        <time>2014-02-12T11:43:34.000Z</time>
      </trkpt>
      <trkpt lat="45.91804" lon="6.50196">
        <ele>1958.1999511719</ele>
        <time>2014-02-12T11:43:35.000Z</time>
      </trkpt>
      <trkpt lat="45.91805" lon="6.50197">
        <ele>1958.8000488281</ele>
        <time>2014-02-12T11:43:36.000Z</time>
      </trkpt>
      <trkpt lat="45.91805" lon="6.50198">
        <ele>1959.8000488281</ele>
        <time>2014-02-12T11:43:37.000Z</time>
      </trkpt>
      <trkpt lat="45.91805" lon="6.502">
        <ele>1960.8000488281</ele>
        <time>2014-02-12T11:43:38.000Z</time>
      </trkpt>
      <trkpt lat="45.91805" lon="6.502">
        <ele>1960.8000488281</ele>
        <time>2014-02-12T11:43:39.000Z</time>
      </trkpt>
      <trkpt lat="45.91805" lon="6.50202">
        <ele>1962</ele>
        <time>2014-02-12T11:43:40.000Z</time>
      </trkpt>
      <trkpt lat="45.91805" lon="6.50202">
        <ele>1962</ele>
        <time>2014-02-12T11:43:41.000Z</time>
      </trkpt>
      <trkpt lat="45.91805" lon="6.50204">
        <ele>1962.8000488281</ele>
        <time>2014-02-12T11:43:42.000Z</time>
      </trkpt>
      <trkpt lat="45.91805" lon="6.50204">
        <ele>1962.8000488281</ele>
        <time>2014-02-12T11:43:43.000Z</time>
      </trkpt>
      <trkpt lat="45.91806" lon="6.50205">
        <ele>1963.5999755859</ele>
        <time>2014-02-12T11:43:44.000Z</time>
      </trkpt>
      <trkpt lat="45.91807" lon="6.50207">
        <ele>1964.4000244141</ele>
        <time>2014-02-12T11:43:45.000Z</time>
      </trkpt>
      <trkpt lat="45.91807" lon="6.50208">
        <ele>1965.1999511719</ele>
        <time>2014-02-12T11:43:46.000Z</time>
      </trkpt>
      <trkpt lat="45.91807" lon="6.50209">
        <ele>1966</ele>
        <time>2014-02-12T11:43:47.000Z</time>
      </trkpt>
      <trkpt lat="45.91808" lon="6.50211">
        <ele>1967.4000244141</ele>
        <time>2014-02-12T11:43:48.000Z</time>
      </trkpt>
      <trkpt lat="45.91808" lon="6.50212">
        <ele>1968.1999511719</ele>
        <time>2014-02-12T11:43:49.000Z</time>
      </trkpt>
      <trkpt lat="45.91808" lon="6.50212">
        <ele>1968.1999511719</ele>
        <time>2014-02-12T11:43:50.000Z</time>
      </trkpt>
      <trkpt lat="45.91809" lon="6.50213">
        <ele>1969.1999511719</ele>
        <time>2014-02-12T11:43:51.000Z</time>
      </trkpt>
      <trkpt lat="45.91809" lon="6.50213">
        <ele>1969.1999511719</ele>
        <time>2014-02-12T11:43:52.000Z</time>
      </trkpt>
      <trkpt lat="45.91809" lon="6.50215">
        <ele>1970.4000244141</ele>
        <time>2014-02-12T11:43:53.000Z</time>
      </trkpt>
      <trkpt lat="45.91809" lon="6.50215">
        <ele>1970.4000244141</ele>
        <time>2014-02-12T11:43:54.000Z</time>
      </trkpt>
      <trkpt lat="45.9181" lon="6.50216">
        <ele>1971.4000244141</ele>
        <time>2014-02-12T11:43:55.000Z</time>
      </trkpt>
      <trkpt lat="45.9181" lon="6.50217">
        <ele>1972.4000244141</ele>
        <time>2014-02-12T11:43:56.000Z</time>
      </trkpt>
      <trkpt lat="45.9181" lon="6.50219">
        <ele>1973.5999755859</ele>
        <time>2014-02-12T11:43:57.000Z</time>
      </trkpt>
      <trkpt lat="45.91811" lon="6.50221">
        <ele>1974.8000488281</ele>
        <time>2014-02-12T11:43:58.000Z</time>
      </trkpt>
      <trkpt lat="45.91811" lon="6.50221">
        <ele>1974.8000488281</ele>
        <time>2014-02-12T11:43:59.000Z</time>
      </trkpt>
      <trkpt lat="45.91811" lon="6.50221">
        <ele>1975.4000244141</ele>
        <time>2014-02-12T11:44:00.000Z</time>
      </trkpt>
      <trkpt lat="45.91811" lon="6.50221">
        <ele>1975.4000244141</ele>
        <time>2014-02-12T11:44:01.000Z</time>
      </trkpt>
      <trkpt lat="45.91811" lon="6.50221">
        <ele>1975.4000244141</ele>
        <time>2014-02-12T11:44:02.000Z</time>
      </trkpt>
      <trkpt lat="45.91811" lon="6.5022">
        <ele>1974.8000488281</ele>
        <time>2014-02-12T11:44:03.000Z</time>
      </trkpt>
      <trkpt lat="45.91811" lon="6.5022">
        <ele>1974.8000488281</ele>
        <time>2014-02-12T11:44:04.000Z</time>
      </trkpt>
      <trkpt lat="45.9181" lon="6.5022">
        <ele>1974.1999511719</ele>
        <time>2014-02-12T11:44:05.000Z</time>
      </trkpt>
      <trkpt lat="45.9181" lon="6.5022">
        <ele>1974.1999511719</ele>
        <time>2014-02-12T11:44:06.000Z</time>
      </trkpt>
      <trkpt lat="45.9181" lon="6.5022">
        <ele>1974.1999511719</ele>
        <time>2014-02-12T11:44:07.000Z</time>
      </trkpt>
      <trkpt lat="45.9181" lon="6.50219">
        <ele>1973.5999755859</ele>
        <time>2014-02-12T11:44:08.000Z</time>
      </trkpt>
      <trkpt lat="45.9181" lon="6.50219">
        <ele>1973.5999755859</ele>
        <time>2014-02-12T11:44:09.000Z</time>
      </trkpt>
      <trkpt lat="45.9181" lon="6.50218">
        <ele>1972.8000488281</ele>
        <time>2014-02-12T11:44:10.000Z</time>
      </trkpt>
      <trkpt lat="45.9181" lon="6.50217">
        <ele>1972.1999511719</ele>
        <time>2014-02-12T11:44:11.000Z</time>
      </trkpt>
      <trkpt lat="45.91809" lon="6.50217">
        <ele>1971.5999755859</ele>
        <time>2014-02-12T11:44:12.000Z</time>
      </trkpt>
      <trkpt lat="45.91808" lon="6.50216">
        <ele>1971</ele>
        <time>2014-02-12T11:44:13.000Z</time>
      </trkpt>
      <trkpt lat="45.91807" lon="6.50216">
        <ele>1970.5999755859</ele>
        <time>2014-02-12T11:44:14.000Z</time>
      </trkpt>
      <trkpt lat="45.91807" lon="6.50216">
        <ele>1970.4000244141</ele>
        <time>2014-02-12T11:44:15.000Z</time>
      </trkpt>
      <trkpt lat="45.91806" lon="6.50216">
        <ele>1970.4000244141</ele>
        <time>2014-02-12T11:44:16.000Z</time>
      </trkpt>
      <trkpt lat="45.91805" lon="6.50216">
        <ele>1970.4000244141</ele>
        <time>2014-02-12T11:44:17.000Z</time>
      </trkpt>
      <trkpt lat="45.91805" lon="6.50216">
        <ele>1970.4000244141</ele>
        <time>2014-02-12T11:44:18.000Z</time>
      </trkpt>
      <trkpt lat="45.91804" lon="6.50216">
        <ele>1970.8000488281</ele>
        <time>2014-02-12T11:44:19.000Z</time>
      </trkpt>
      <trkpt lat="45.91804" lon="6.50216">
        <ele>1970.8000488281</ele>
        <time>2014-02-12T11:44:20.000Z</time>
      </trkpt>
      <trkpt lat="45.91804" lon="6.50216">
        <ele>1971</ele>
        <time>2014-02-12T11:44:21.000Z</time>
      </trkpt>
      <trkpt lat="45.91804" lon="6.50216">
        <ele>1971</ele>
        <time>2014-02-12T11:44:22.000Z</time>
      </trkpt>
      <trkpt lat="45.91803" lon="6.50216">
        <ele>1971.4000244141</ele>
        <time>2014-02-12T11:44:23.000Z</time>
      </trkpt>
      <trkpt lat="45.91802" lon="6.50216">
        <ele>1971.5999755859</ele>
        <time>2014-02-12T11:44:24.000Z</time>
      </trkpt>
      <trkpt lat="45.91801" lon="6.50216">
        <ele>1971.5999755859</ele>
        <time>2014-02-12T11:44:25.000Z</time>
      </trkpt>
      <trkpt lat="45.91801" lon="6.50216">
        <ele>1971.5999755859</ele>
        <time>2014-02-12T11:44:26.000Z</time>
      </trkpt>
      <trkpt lat="45.918" lon="6.50215">
        <ele>1971.8000488281</ele>
        <time>2014-02-12T11:44:27.000Z</time>
      </trkpt>
      <trkpt lat="45.91799" lon="6.50215">
        <ele>1972</ele>
        <time>2014-02-12T11:44:28.000Z</time>
      </trkpt>
      <trkpt lat="45.91798" lon="6.50216">
        <ele>1972.4000244141</ele>
        <time>2014-02-12T11:44:29.000Z</time>
      </trkpt>
      <trkpt lat="45.91797" lon="6.50215">
        <ele>1972.5999755859</ele>
        <time>2014-02-12T11:44:30.000Z</time>
      </trkpt>
      <trkpt lat="45.91797" lon="6.50215">
        <ele>1972.5999755859</ele>
        <time>2014-02-12T11:44:31.000Z</time>
      </trkpt>
      <trkpt lat="45.91797" lon="6.50216">
        <ele>1972.8000488281</ele>
        <time>2014-02-12T11:44:32.000Z</time>
      </trkpt>
      <trkpt lat="45.91797" lon="6.50216">
        <ele>1972.8000488281</ele>
        <time>2014-02-12T11:44:33.000Z</time>
      </trkpt>
      <trkpt lat="45.91796" lon="6.50216">
        <ele>1973.4000244141</ele>
        <time>2014-02-12T11:44:34.000Z</time>
      </trkpt>
      <trkpt lat="45.91796" lon="6.50216">
        <ele>1973.4000244141</ele>
        <time>2014-02-12T11:44:35.000Z</time>
      </trkpt>
      <trkpt lat="45.91795" lon="6.50216">
        <ele>1973.5999755859</ele>
        <time>2014-02-12T11:44:36.000Z</time>
      </trkpt>
      <trkpt lat="45.91795" lon="6.50216">
        <ele>1973.5999755859</ele>
        <time>2014-02-12T11:44:37.000Z</time>
      </trkpt>
      <trkpt lat="45.91794" lon="6.50216">
        <ele>1973.8000488281</ele>
        <time>2014-02-12T11:44:38.000Z</time>
      </trkpt>
      <trkpt lat="45.91794" lon="6.50216">
        <ele>1973.8000488281</ele>
        <time>2014-02-12T11:44:39.000Z</time>
      </trkpt>
      <trkpt lat="45.91793" lon="6.50215">
        <ele>1973.8000488281</ele>
        <time>2014-02-12T11:44:40.000Z</time>
      </trkpt>
      <trkpt lat="45.91792" lon="6.50215">
        <ele>1974</ele>
        <time>2014-02-12T11:44:41.000Z</time>
      </trkpt>
      <trkpt lat="45.91792" lon="6.50215">
        <ele>1974</ele>
        <time>2014-02-12T11:44:42.000Z</time>
      </trkpt>
      <trkpt lat="45.91791" lon="6.50215">
        <ele>1974.1999511719</ele>
        <time>2014-02-12T11:44:43.000Z</time>
      </trkpt>
      <trkpt lat="45.91791" lon="6.50215">
        <ele>1974.1999511719</ele>
        <time>2014-02-12T11:44:44.000Z</time>
      </trkpt>
      <trkpt lat="45.9179" lon="6.50215">
        <ele>1974.4000244141</ele>
        <time>2014-02-12T11:44:45.000Z</time>
      </trkpt>
      <trkpt lat="45.9179" lon="6.50215">
        <ele>1974.4000244141</ele>
        <time>2014-02-12T11:44:46.000Z</time>
      </trkpt>
      <trkpt lat="45.91789" lon="6.50216">
        <ele>1975.1999511719</ele>
        <time>2014-02-12T11:44:47.000Z</time>
      </trkpt>
      <trkpt lat="45.91789" lon="6.50216">
        <ele>1975.1999511719</ele>
        <time>2014-02-12T11:44:48.000Z</time>
      </trkpt>
      <trkpt lat="45.91789" lon="6.50217">
        <ele>1975.1999511719</ele>
        <time>2014-02-12T11:44:49.000Z</time>
      </trkpt>
      <trkpt lat="45.91789" lon="6.50217">
        <ele>1975.1999511719</ele>
        <time>2014-02-12T11:44:50.000Z</time>
      </trkpt>
      <trkpt lat="45.91788" lon="6.50217">
        <ele>1975.4000244141</ele>
        <time>2014-02-12T11:44:51.000Z</time>
      </trkpt>
      <trkpt lat="45.91788" lon="6.50217">
        <ele>1975.4000244141</ele>
        <time>2014-02-12T11:44:52.000Z</time>
      </trkpt>
      <trkpt lat="45.91788" lon="6.50217">
        <ele>1975.4000244141</ele>
        <time>2014-02-12T11:44:53.000Z</time>
      </trkpt>
      <trkpt lat="45.91787" lon="6.50217">
        <ele>1975.4000244141</ele>
        <time>2014-02-12T11:44:54.000Z</time>
      </trkpt>
      <trkpt lat="45.91787" lon="6.50217">
        <ele>1975.4000244141</ele>
        <time>2014-02-12T11:44:55.000Z</time>
      </trkpt>
      <trkpt lat="45.91786" lon="6.50217">
        <ele>1975.4000244141</ele>
        <time>2014-02-12T11:44:56.000Z</time>
      </trkpt>
      <trkpt lat="45.91785" lon="6.50217">
        <ele>1975.4000244141</ele>
        <time>2014-02-12T11:44:57.000Z</time>
      </trkpt>
      <trkpt lat="45.91785" lon="6.50217">
        <ele>1975.1999511719</ele>
        <time>2014-02-12T11:44:58.000Z</time>
      </trkpt>
      <trkpt lat="45.91784" lon="6.50216">
        <ele>1975</ele>
        <time>2014-02-12T11:44:59.000Z</time>
      </trkpt>
      <trkpt lat="45.91784" lon="6.50216">
        <ele>1975</ele>
        <time>2014-02-12T11:45:00.000Z</time>
      </trkpt>
      <trkpt lat="45.91783" lon="6.50215">
        <ele>1974.8000488281</ele>
        <time>2014-02-12T11:45:01.000Z</time>
      </trkpt>
      <trkpt lat="45.91783" lon="6.50215">
        <ele>1974.5999755859</ele>
        <time>2014-02-12T11:45:02.000Z</time>
      </trkpt>
      <trkpt lat="45.91783" lon="6.50215">
        <ele>1974.5999755859</ele>
        <time>2014-02-12T11:45:03.000Z</time>
      </trkpt>
      <trkpt lat="45.91782" lon="6.50215">
        <ele>1974.5999755859</ele>
        <time>2014-02-12T11:45:04.000Z</time>
      </trkpt>
      <trkpt lat="45.91782" lon="6.50215">
        <ele>1974.5999755859</ele>
        <time>2014-02-12T11:45:05.000Z</time>
      </trkpt>
      <trkpt lat="45.91782" lon="6.50215">
        <ele>1974.5999755859</ele>
        <time>2014-02-12T11:45:06.000Z</time>
      </trkpt>
      <trkpt lat="45.91781" lon="6.50215">
        <ele>1974.5999755859</ele>
        <time>2014-02-12T11:45:07.000Z</time>
      </trkpt>
      <trkpt lat="45.91781" lon="6.50215">
        <ele>1974.5999755859</ele>
        <time>2014-02-12T11:45:08.000Z</time>
      </trkpt>
      <trkpt lat="45.91781" lon="6.50215">
        <ele>1974.5999755859</ele>
        <time>2014-02-12T11:45:09.000Z</time>
      </trkpt>
      <trkpt lat="45.91781" lon="6.50215">
        <ele>1974.5999755859</ele>
        <time>2014-02-12T11:45:10.000Z</time>
      </trkpt>
      <trkpt lat="45.91781" lon="6.50215">
        <ele>1974.5999755859</ele>
        <time>2014-02-12T11:45:11.000Z</time>
      </trkpt>
      <trkpt lat="45.9178" lon="6.50214">
        <ele>1974.4000244141</ele>
        <time>2014-02-12T11:45:12.000Z</time>
      </trkpt>
      <trkpt lat="45.9178" lon="6.50214">
        <ele>1974.4000244141</ele>
        <time>2014-02-12T11:45:13.000Z</time>
      </trkpt>
      <trkpt lat="45.91781" lon="6.50216">
        <ele>1975</ele>
        <time>2014-02-12T11:45:14.000Z</time>
      </trkpt>
      <trkpt lat="45.91781" lon="6.50218">
        <ele>1975.4000244141</ele>
        <time>2014-02-12T11:45:15.000Z</time>
      </trkpt>
      <trkpt lat="45.9178" lon="6.50219">
        <ele>1975.8000488281</ele>
        <time>2014-02-12T11:45:16.000Z</time>
      </trkpt>
      <trkpt lat="45.9178" lon="6.50221">
        <ele>1976.5999755859</ele>
        <time>2014-02-12T11:45:17.000Z</time>
      </trkpt>
      <trkpt lat="45.9178" lon="6.50222">
        <ele>1976.5999755859</ele>
        <time>2014-02-12T11:45:18.000Z</time>
      </trkpt>
      <trkpt lat="45.91781" lon="6.50223">
        <ele>1977.1999511719</ele>
        <time>2014-02-12T11:45:19.000Z</time>
      </trkpt>
      <trkpt lat="45.91781" lon="6.50223">
        <ele>1977.1999511719</ele>
        <time>2014-02-12T11:45:20.000Z</time>
      </trkpt>
      <trkpt lat="45.91781" lon="6.50225">
        <ele>1977.8000488281</ele>
        <time>2014-02-12T11:45:21.000Z</time>
      </trkpt>
      <trkpt lat="45.91781" lon="6.50225">
        <ele>1977.8000488281</ele>
        <time>2014-02-12T11:45:22.000Z</time>
      </trkpt>
      <trkpt lat="45.91781" lon="6.50227">
        <ele>1978.4000244141</ele>
        <time>2014-02-12T11:45:23.000Z</time>
      </trkpt>
      <trkpt lat="45.91781" lon="6.50228">
        <ele>1978.8000488281</ele>
        <time>2014-02-12T11:45:24.000Z</time>
      </trkpt>
      <trkpt lat="45.91781" lon="6.50229">
        <ele>1979</ele>
        <time>2014-02-12T11:45:25.000Z</time>
      </trkpt>
      <trkpt lat="45.91781" lon="6.50231">
        <ele>1979.4000244141</ele>
        <time>2014-02-12T11:45:26.000Z</time>
      </trkpt>
      <trkpt lat="45.91781" lon="6.50231">
        <ele>1979.4000244141</ele>
        <time>2014-02-12T11:45:27.000Z</time>
      </trkpt>
      <trkpt lat="45.91781" lon="6.50232">
        <ele>1980</ele>
        <time>2014-02-12T11:45:28.000Z</time>
      </trkpt>
      <trkpt lat="45.91781" lon="6.50232">
        <ele>1980</ele>
        <time>2014-02-12T11:45:29.000Z</time>
      </trkpt>
      <trkpt lat="45.91781" lon="6.50234">
        <ele>1980.8000488281</ele>
        <time>2014-02-12T11:45:30.000Z</time>
      </trkpt>
      <trkpt lat="45.91781" lon="6.50236">
        <ele>1981.5999755859</ele>
        <time>2014-02-12T11:45:31.000Z</time>
      </trkpt>
      <trkpt lat="45.91781" lon="6.50237">
        <ele>1982</ele>
        <time>2014-02-12T11:45:32.000Z</time>
      </trkpt>
      <trkpt lat="45.91781" lon="6.50238">
        <ele>1982.5999755859</ele>
        <time>2014-02-12T11:45:33.000Z</time>
      </trkpt>
      <trkpt lat="45.91781" lon="6.50239">
        <ele>1983</ele>
        <time>2014-02-12T11:45:34.000Z</time>
      </trkpt>
      <trkpt lat="45.91781" lon="6.5024">
        <ele>1983.4000244141</ele>
        <time>2014-02-12T11:45:35.000Z</time>
      </trkpt>
      <trkpt lat="45.91781" lon="6.5024">
        <ele>1983.4000244141</ele>
        <time>2014-02-12T11:45:36.000Z</time>
      </trkpt>
      <trkpt lat="45.91781" lon="6.50241">
        <ele>1984</ele>
        <time>2014-02-12T11:45:37.000Z</time>
      </trkpt>
      <trkpt lat="45.91781" lon="6.50243">
        <ele>1985</ele>
        <time>2014-02-12T11:45:38.000Z</time>
      </trkpt>
      <trkpt lat="45.91781" lon="6.50244">
        <ele>1985.5999755859</ele>
        <time>2014-02-12T11:45:39.000Z</time>
      </trkpt>
      <trkpt lat="45.91782" lon="6.50246">
        <ele>1986.5999755859</ele>
        <time>2014-02-12T11:45:40.000Z</time>
      </trkpt>
      <trkpt lat="45.91782" lon="6.50248">
        <ele>1987.1999511719</ele>
        <time>2014-02-12T11:45:41.000Z</time>
      </trkpt>
      <trkpt lat="45.91782" lon="6.50249">
        <ele>1987.8000488281</ele>
        <time>2014-02-12T11:45:42.000Z</time>
      </trkpt>
      <trkpt lat="45.91782" lon="6.5025">
        <ele>1988.1999511719</ele>
        <time>2014-02-12T11:45:43.000Z</time>
      </trkpt>
      <trkpt lat="45.91782" lon="6.50251">
        <ele>1988.5999755859</ele>
        <time>2014-02-12T11:45:44.000Z</time>
      </trkpt>
      <trkpt lat="45.91782" lon="6.50251">
        <ele>1989</ele>
        <time>2014-02-12T11:45:45.000Z</time>
      </trkpt>
      <trkpt lat="45.91782" lon="6.50252">
        <ele>1989.4000244141</ele>
        <time>2014-02-12T11:45:46.000Z</time>
      </trkpt>
      <trkpt lat="45.91782" lon="6.50253">
        <ele>1989.5999755859</ele>
        <time>2014-02-12T11:45:47.000Z</time>
      </trkpt>
      <trkpt lat="45.91782" lon="6.50253">
        <ele>1990</ele>
        <time>2014-02-12T11:45:48.000Z</time>
      </trkpt>
      <trkpt lat="45.91782" lon="6.50253">
        <ele>1990</ele>
        <time>2014-02-12T11:45:49.000Z</time>
      </trkpt>
      <trkpt lat="45.91782" lon="6.50253">
        <ele>1990</ele>
        <time>2014-02-12T11:45:50.000Z</time>
      </trkpt>
      <trkpt lat="45.91782" lon="6.50253">
        <ele>1990</ele>
        <time>2014-02-12T11:45:51.000Z</time>
      </trkpt>
      <trkpt lat="45.91782" lon="6.50254">
        <ele>1990.4000244141</ele>
        <time>2014-02-12T11:45:52.000Z</time>
      </trkpt>
      <trkpt lat="45.91782" lon="6.50254">
        <ele>1990.4000244141</ele>
        <time>2014-02-12T11:45:53.000Z</time>
      </trkpt>
      <trkpt lat="45.91783" lon="6.50255">
        <ele>1990.8000488281</ele>
        <time>2014-02-12T11:45:54.000Z</time>
      </trkpt>
      <trkpt lat="45.91783" lon="6.50255">
        <ele>1990.8000488281</ele>
        <time>2014-02-12T11:45:55.000Z</time>
      </trkpt>
      <trkpt lat="45.91783" lon="6.50255">
        <ele>1991</ele>
        <time>2014-02-12T11:45:56.000Z</time>
      </trkpt>
      <trkpt lat="45.91783" lon="6.50257">
        <ele>1991.8000488281</ele>
        <time>2014-02-12T11:45:57.000Z</time>
      </trkpt>
      <trkpt lat="45.91784" lon="6.50259">
        <ele>1992.5999755859</ele>
        <time>2014-02-12T11:45:58.000Z</time>
      </trkpt>
      <trkpt lat="45.91784" lon="6.5026">
        <ele>1993.1999511719</ele>
        <time>2014-02-12T11:45:59.000Z</time>
      </trkpt>
      <trkpt lat="45.91784" lon="6.5026">
        <ele>1993.1999511719</ele>
        <time>2014-02-12T11:46:00.000Z</time>
      </trkpt>
      <trkpt lat="45.91785" lon="6.50261">
        <ele>1994</ele>
        <time>2014-02-12T11:46:01.000Z</time>
      </trkpt>
      <trkpt lat="45.91785" lon="6.50261">
        <ele>1994</ele>
        <time>2014-02-12T11:46:02.000Z</time>
      </trkpt>
      <trkpt lat="45.91785" lon="6.50261">
        <ele>1994</ele>
        <time>2014-02-12T11:46:03.000Z</time>
      </trkpt>
      <trkpt lat="45.91785" lon="6.50263">
        <ele>1994.5999755859</ele>
        <time>2014-02-12T11:46:04.000Z</time>
      </trkpt>
      <trkpt lat="45.91785" lon="6.50263">
        <ele>1994.5999755859</ele>
        <time>2014-02-12T11:46:05.000Z</time>
      </trkpt>
      <trkpt lat="45.91786" lon="6.50264">
        <ele>1995.1999511719</ele>
        <time>2014-02-12T11:46:06.000Z</time>
      </trkpt>
      <trkpt lat="45.91786" lon="6.50264">
        <ele>1995.1999511719</ele>
        <time>2014-02-12T11:46:07.000Z</time>
      </trkpt>
      <trkpt lat="45.91787" lon="6.50266">
        <ele>1996.1999511719</ele>
        <time>2014-02-12T11:46:08.000Z</time>
      </trkpt>
      <trkpt lat="45.91787" lon="6.50267">
        <ele>1996.8000488281</ele>
        <time>2014-02-12T11:46:09.000Z</time>
      </trkpt>
      <trkpt lat="45.91788" lon="6.50268">
        <ele>1997.1999511719</ele>
        <time>2014-02-12T11:46:10.000Z</time>
      </trkpt>
      <trkpt lat="45.91788" lon="6.50268">
        <ele>1997.1999511719</ele>
        <time>2014-02-12T11:46:11.000Z</time>
      </trkpt>
      <trkpt lat="45.91788" lon="6.50268">
        <ele>1997.1999511719</ele>
        <time>2014-02-12T11:46:12.000Z</time>
      </trkpt>
      <trkpt lat="45.91789" lon="6.50269">
        <ele>1997.5999755859</ele>
        <time>2014-02-12T11:46:13.000Z</time>
      </trkpt>
      <trkpt lat="45.91789" lon="6.5027">
        <ele>1998</ele>
        <time>2014-02-12T11:46:14.000Z</time>
      </trkpt>
      <trkpt lat="45.9179" lon="6.5027">
        <ele>1998.4000244141</ele>
        <time>2014-02-12T11:46:15.000Z</time>
      </trkpt>
      <trkpt lat="45.9179" lon="6.50271">
        <ele>1998.8000488281</ele>
        <time>2014-02-12T11:46:16.000Z</time>
      </trkpt>
      <trkpt lat="45.91791" lon="6.50272">
        <ele>1999</ele>
        <time>2014-02-12T11:46:17.000Z</time>
      </trkpt>
      <trkpt lat="45.91791" lon="6.50272">
        <ele>1999</ele>
        <time>2014-02-12T11:46:18.000Z</time>
      </trkpt>
      <trkpt lat="45.91791" lon="6.50272">
        <ele>1999</ele>
        <time>2014-02-12T11:46:19.000Z</time>
      </trkpt>
      <trkpt lat="45.91791" lon="6.50272">
        <ele>1999</ele>
        <time>2014-02-12T11:46:20.000Z</time>
      </trkpt>
      <trkpt lat="45.91791" lon="6.50272">
        <ele>1999</ele>
        <time>2014-02-12T11:46:21.000Z</time>
      </trkpt>
      <trkpt lat="45.91791" lon="6.50271">
        <ele>1998.8000488281</ele>
        <time>2014-02-12T11:46:22.000Z</time>
      </trkpt>
      <trkpt lat="45.9179" lon="6.50271">
        <ele>1998.5999755859</ele>
        <time>2014-02-12T11:46:23.000Z</time>
      </trkpt>
      <trkpt lat="45.9179" lon="6.5027">
        <ele>1998.4000244141</ele>
        <time>2014-02-12T11:46:24.000Z</time>
      </trkpt>
      <trkpt lat="45.91789" lon="6.5027">
        <ele>1998.1999511719</ele>
        <time>2014-02-12T11:46:25.000Z</time>
      </trkpt>
      <trkpt lat="45.91789" lon="6.5027">
        <ele>1998</ele>
        <time>2014-02-12T11:46:26.000Z</time>
      </trkpt>
      <trkpt lat="45.91788" lon="6.5027">
        <ele>1998</ele>
        <time>2014-02-12T11:46:27.000Z</time>
      </trkpt>
      <trkpt lat="45.91787" lon="6.5027">
        <ele>1998.1999511719</ele>
        <time>2014-02-12T11:46:28.000Z</time>
      </trkpt>
      <trkpt lat="45.91787" lon="6.5027">
        <ele>1998.1999511719</ele>
        <time>2014-02-12T11:46:29.000Z</time>
      </trkpt>
      <trkpt lat="45.91787" lon="6.5027">
        <ele>1997.8000488281</ele>
        <time>2014-02-12T11:46:30.000Z</time>
      </trkpt>
      <trkpt lat="45.91786" lon="6.50269">
        <ele>1997.5999755859</ele>
        <time>2014-02-12T11:46:31.000Z</time>
      </trkpt>
      <trkpt lat="45.91785" lon="6.50269">
        <ele>1997.5999755859</ele>
        <time>2014-02-12T11:46:32.000Z</time>
      </trkpt>
      <trkpt lat="45.91785" lon="6.50269">
        <ele>1997.5999755859</ele>
        <time>2014-02-12T11:46:33.000Z</time>
      </trkpt>
      <trkpt lat="45.91784" lon="6.50269">
        <ele>1997.5999755859</ele>
        <time>2014-02-12T11:46:34.000Z</time>
      </trkpt>
      <trkpt lat="45.91784" lon="6.50269">
        <ele>1997.5999755859</ele>
        <time>2014-02-12T11:46:35.000Z</time>
      </trkpt>
      <trkpt lat="45.91783" lon="6.50269">
        <ele>1997.5999755859</ele>
        <time>2014-02-12T11:46:36.000Z</time>
      </trkpt>
      <trkpt lat="45.91782" lon="6.50269">
        <ele>1997.5999755859</ele>
        <time>2014-02-12T11:46:37.000Z</time>
      </trkpt>
      <trkpt lat="45.91781" lon="6.50269">
        <ele>1997.5999755859</ele>
        <time>2014-02-12T11:46:38.000Z</time>
      </trkpt>
      <trkpt lat="45.91781" lon="6.5027">
        <ele>1997.8000488281</ele>
        <time>2014-02-12T11:46:39.000Z</time>
      </trkpt>
      <trkpt lat="45.91781" lon="6.5027">
        <ele>1997.8000488281</ele>
        <time>2014-02-12T11:46:40.000Z</time>
      </trkpt>
      <trkpt lat="45.9178" lon="6.5027">
        <ele>1997.8000488281</ele>
        <time>2014-02-12T11:46:41.000Z</time>
      </trkpt>
      <trkpt lat="45.9178" lon="6.5027">
        <ele>1997.8000488281</ele>
        <time>2014-02-12T11:46:42.000Z</time>
      </trkpt>
      <trkpt lat="45.9178" lon="6.5027">
        <ele>1998</ele>
        <time>2014-02-12T11:46:43.000Z</time>
      </trkpt>
      <trkpt lat="45.91779" lon="6.5027">
        <ele>1998</ele>
        <time>2014-02-12T11:46:44.000Z</time>
      </trkpt>
      <trkpt lat="45.91779" lon="6.5027">
        <ele>1998</ele>
        <time>2014-02-12T11:46:45.000Z</time>
      </trkpt>
      <trkpt lat="45.91778" lon="6.5027">
        <ele>1998</ele>
        <time>2014-02-12T11:46:46.000Z</time>
      </trkpt>
      <trkpt lat="45.91777" lon="6.5027">
        <ele>1998</ele>
        <time>2014-02-12T11:46:47.000Z</time>
      </trkpt>
      <trkpt lat="45.91776" lon="6.50271">
        <ele>1998</ele>
        <time>2014-02-12T11:46:48.000Z</time>
      </trkpt>
      <trkpt lat="45.91776" lon="6.50271">
        <ele>1998.1999511719</ele>
        <time>2014-02-12T11:46:49.000Z</time>
      </trkpt>
      <trkpt lat="45.91775" lon="6.50271">
        <ele>1998</ele>
        <time>2014-02-12T11:46:50.000Z</time>
      </trkpt>
      <trkpt lat="45.91775" lon="6.50271">
        <ele>1998</ele>
        <time>2014-02-12T11:46:51.000Z</time>
      </trkpt>
      <trkpt lat="45.91774" lon="6.50271">
        <ele>1998.1999511719</ele>
        <time>2014-02-12T11:46:52.000Z</time>
      </trkpt>
      <trkpt lat="45.91774" lon="6.50271">
        <ele>1998.1999511719</ele>
        <time>2014-02-12T11:46:53.000Z</time>
      </trkpt>
      <trkpt lat="45.91773" lon="6.50271">
        <ele>1998.1999511719</ele>
        <time>2014-02-12T11:46:54.000Z</time>
      </trkpt>
      <trkpt lat="45.91773" lon="6.50271">
        <ele>1998.1999511719</ele>
        <time>2014-02-12T11:46:55.000Z</time>
      </trkpt>
      <trkpt lat="45.91772" lon="6.50271">
        <ele>1998.1999511719</ele>
        <time>2014-02-12T11:46:56.000Z</time>
      </trkpt>
      <trkpt lat="45.91772" lon="6.50271">
        <ele>1998.4000244141</ele>
        <time>2014-02-12T11:46:57.000Z</time>
      </trkpt>
      <trkpt lat="45.91771" lon="6.50271">
        <ele>1998.1999511719</ele>
        <time>2014-02-12T11:46:58.000Z</time>
      </trkpt>
      <trkpt lat="45.91771" lon="6.50271">
        <ele>1998.1999511719</ele>
        <time>2014-02-12T11:46:59.000Z</time>
      </trkpt>
      <trkpt lat="45.91771" lon="6.50271">
        <ele>1998.1999511719</ele>
        <time>2014-02-12T11:47:00.000Z</time>
      </trkpt>
      <trkpt lat="45.9177" lon="6.50271">
        <ele>1998</ele>
        <time>2014-02-12T11:47:01.000Z</time>
      </trkpt>
      <trkpt lat="45.9177" lon="6.50271">
        <ele>1998</ele>
        <time>2014-02-12T11:47:02.000Z</time>
      </trkpt>
      <trkpt lat="45.91769" lon="6.50271">
        <ele>1998</ele>
        <time>2014-02-12T11:47:03.000Z</time>
      </trkpt>
      <trkpt lat="45.91769" lon="6.50271">
        <ele>1998.1999511719</ele>
        <time>2014-02-12T11:47:04.000Z</time>
      </trkpt>
      <trkpt lat="45.91768" lon="6.50271">
        <ele>1998</ele>
        <time>2014-02-12T11:47:05.000Z</time>
      </trkpt>
      <trkpt lat="45.91768" lon="6.50271">
        <ele>1998.1999511719</ele>
        <time>2014-02-12T11:47:06.000Z</time>
      </trkpt>
      <trkpt lat="45.91768" lon="6.50272">
        <ele>1998.5999755859</ele>
        <time>2014-02-12T11:47:07.000Z</time>
      </trkpt>
      <trkpt lat="45.91768" lon="6.50272">
        <ele>1998.5999755859</ele>
        <time>2014-02-12T11:47:08.000Z</time>
      </trkpt>
      <trkpt lat="45.91767" lon="6.50273">
        <ele>1998.8000488281</ele>
        <time>2014-02-12T11:47:09.000Z</time>
      </trkpt>
      <trkpt lat="45.91767" lon="6.50273">
        <ele>1998.8000488281</ele>
        <time>2014-02-12T11:47:10.000Z</time>
      </trkpt>
      <trkpt lat="45.91767" lon="6.50272">
        <ele>1998.8000488281</ele>
        <time>2014-02-12T11:47:11.000Z</time>
      </trkpt>
      <trkpt lat="45.91767" lon="6.50272">
        <ele>1998.8000488281</ele>
        <time>2014-02-12T11:47:12.000Z</time>
      </trkpt>
      <trkpt lat="45.91767" lon="6.50272">
        <ele>1998.8000488281</ele>
        <time>2014-02-12T11:47:13.000Z</time>
      </trkpt>
      <trkpt lat="45.91767" lon="6.50272">
        <ele>1998.8000488281</ele>
        <time>2014-02-12T11:47:14.000Z</time>
      </trkpt>
      <trkpt lat="45.91767" lon="6.50272">
        <ele>1998.8000488281</ele>
        <time>2014-02-12T11:47:15.000Z</time>
      </trkpt>
      <trkpt lat="45.91767" lon="6.50273">
        <ele>1999.1999511719</ele>
        <time>2014-02-12T11:47:16.000Z</time>
      </trkpt>
      <trkpt lat="45.91767" lon="6.50273">
        <ele>1999.1999511719</ele>
        <time>2014-02-12T11:47:17.000Z</time>
      </trkpt>
      <trkpt lat="45.91767" lon="6.50274">
        <ele>1999.8000488281</ele>
        <time>2014-02-12T11:47:18.000Z</time>
      </trkpt>
      <trkpt lat="45.91767" lon="6.50276">
        <ele>2000.5999755859</ele>
        <time>2014-02-12T11:47:19.000Z</time>
      </trkpt>
      <trkpt lat="45.91767" lon="6.50277">
        <ele>2001</ele>
        <time>2014-02-12T11:47:20.000Z</time>
      </trkpt>
      <trkpt lat="45.91767" lon="6.50278">
        <ele>2001.5999755859</ele>
        <time>2014-02-12T11:47:21.000Z</time>
      </trkpt>
      <trkpt lat="45.91767" lon="6.50278">
        <ele>2001.5999755859</ele>
        <time>2014-02-12T11:47:22.000Z</time>
      </trkpt>
      <trkpt lat="45.91767" lon="6.5028">
        <ele>2002.1999511719</ele>
        <time>2014-02-12T11:47:23.000Z</time>
      </trkpt>
      <trkpt lat="45.91767" lon="6.50281">
        <ele>2002.8000488281</ele>
        <time>2014-02-12T11:47:24.000Z</time>
      </trkpt>
      <trkpt lat="45.91767" lon="6.50283">
        <ele>2003.8000488281</ele>
        <time>2014-02-12T11:47:25.000Z</time>
      </trkpt>
      <trkpt lat="45.91767" lon="6.50285">
        <ele>2004.5999755859</ele>
        <time>2014-02-12T11:47:26.000Z</time>
      </trkpt>
      <trkpt lat="45.91767" lon="6.50287">
        <ele>2005.4000244141</ele>
        <time>2014-02-12T11:47:27.000Z</time>
      </trkpt>
      <trkpt lat="45.91768" lon="6.50288">
        <ele>2006</ele>
        <time>2014-02-12T11:47:28.000Z</time>
      </trkpt>
      <trkpt lat="45.91768" lon="6.50289">
        <ele>2006.5999755859</ele>
        <time>2014-02-12T11:47:29.000Z</time>
      </trkpt>
      <trkpt lat="45.91768" lon="6.5029">
        <ele>2007</ele>
        <time>2014-02-12T11:47:30.000Z</time>
      </trkpt>
      <trkpt lat="45.91769" lon="6.50291">
        <ele>2007.1999511719</ele>
        <time>2014-02-12T11:47:31.000Z</time>
      </trkpt>
      <trkpt lat="45.91769" lon="6.50292">
        <ele>2008</ele>
        <time>2014-02-12T11:47:32.000Z</time>
      </trkpt>
      <trkpt lat="45.9177" lon="6.50294">
        <ele>2008.8000488281</ele>
        <time>2014-02-12T11:47:33.000Z</time>
      </trkpt>
      <trkpt lat="45.9177" lon="6.50296">
        <ele>2009.5999755859</ele>
        <time>2014-02-12T11:47:34.000Z</time>
      </trkpt>
      <trkpt lat="45.9177" lon="6.50297">
        <ele>2010</ele>
        <time>2014-02-12T11:47:35.000Z</time>
      </trkpt>
      <trkpt lat="45.91771" lon="6.50297">
        <ele>2010.1999511719</ele>
        <time>2014-02-12T11:47:36.000Z</time>
      </trkpt>
      <trkpt lat="45.91771" lon="6.50298">
        <ele>2010.8000488281</ele>
        <time>2014-02-12T11:47:37.000Z</time>
      </trkpt>
      <trkpt lat="45.91772" lon="6.50299">
        <ele>2011.4000244141</ele>
        <time>2014-02-12T11:47:38.000Z</time>
      </trkpt>
      <trkpt lat="45.91773" lon="6.50301">
        <ele>2012</ele>
        <time>2014-02-12T11:47:39.000Z</time>
      </trkpt>
      <trkpt lat="45.91773" lon="6.50302">
        <ele>2012.8000488281</ele>
        <time>2014-02-12T11:47:40.000Z</time>
      </trkpt>
      <trkpt lat="45.91773" lon="6.50303">
        <ele>2013.1999511719</ele>
        <time>2014-02-12T11:47:41.000Z</time>
      </trkpt>
      <trkpt lat="45.91774" lon="6.50304">
        <ele>2013.5999755859</ele>
        <time>2014-02-12T11:47:42.000Z</time>
      </trkpt>
      <trkpt lat="45.91774" lon="6.50304">
        <ele>2013.5999755859</ele>
        <time>2014-02-12T11:47:43.000Z</time>
      </trkpt>
      <trkpt lat="45.91775" lon="6.50305">
        <ele>2014</ele>
        <time>2014-02-12T11:47:44.000Z</time>
      </trkpt>
      <trkpt lat="45.91776" lon="6.50306">
        <ele>2014.4000244141</ele>
        <time>2014-02-12T11:47:45.000Z</time>
      </trkpt>
      <trkpt lat="45.91776" lon="6.50306">
        <ele>2014.8000488281</ele>
        <time>2014-02-12T11:47:46.000Z</time>
      </trkpt>
      <trkpt lat="45.91777" lon="6.50307">
        <ele>2015.1999511719</ele>
        <time>2014-02-12T11:47:47.000Z</time>
      </trkpt>
      <trkpt lat="45.91778" lon="6.50308">
        <ele>2015.4000244141</ele>
        <time>2014-02-12T11:47:48.000Z</time>
      </trkpt>
      <trkpt lat="45.91778" lon="6.50308">
        <ele>2015.8000488281</ele>
        <time>2014-02-12T11:47:49.000Z</time>
      </trkpt>
      <trkpt lat="45.91778" lon="6.50308">
        <ele>2015.8000488281</ele>
        <time>2014-02-12T11:47:50.000Z</time>
      </trkpt>
      <trkpt lat="45.91778" lon="6.50309">
        <ele>2016</ele>
        <time>2014-02-12T11:47:51.000Z</time>
      </trkpt>
      <trkpt lat="45.91778" lon="6.50309">
        <ele>2016.1999511719</ele>
        <time>2014-02-12T11:47:52.000Z</time>
      </trkpt>
      <trkpt lat="45.91778" lon="6.5031">
        <ele>2016.5999755859</ele>
        <time>2014-02-12T11:47:53.000Z</time>
      </trkpt>
      <trkpt lat="45.91778" lon="6.50311">
        <ele>2016.8000488281</ele>
        <time>2014-02-12T11:47:54.000Z</time>
      </trkpt>
      <trkpt lat="45.91778" lon="6.50312">
        <ele>2017.1999511719</ele>
        <time>2014-02-12T11:47:55.000Z</time>
      </trkpt>
      <trkpt lat="45.91778" lon="6.50312">
        <ele>2017.4000244141</ele>
        <time>2014-02-12T11:47:56.000Z</time>
      </trkpt>
      <trkpt lat="45.91778" lon="6.50312">
        <ele>2017.5999755859</ele>
        <time>2014-02-12T11:47:57.000Z</time>
      </trkpt>
      <trkpt lat="45.91779" lon="6.50313">
        <ele>2017.8000488281</ele>
        <time>2014-02-12T11:47:58.000Z</time>
      </trkpt>
      <trkpt lat="45.91779" lon="6.50314">
        <ele>2018.1999511719</ele>
        <time>2014-02-12T11:47:59.000Z</time>
      </trkpt>
      <trkpt lat="45.9178" lon="6.50314">
        <ele>2018.4000244141</ele>
        <time>2014-02-12T11:48:00.000Z</time>
      </trkpt>
      <trkpt lat="45.9178" lon="6.50315">
        <ele>2018.8000488281</ele>
        <time>2014-02-12T11:48:01.000Z</time>
      </trkpt>
      <trkpt lat="45.9178" lon="6.50315">
        <ele>2018.8000488281</ele>
        <time>2014-02-12T11:48:02.000Z</time>
      </trkpt>
      <trkpt lat="45.91781" lon="6.50315">
        <ele>2019.1999511719</ele>
        <time>2014-02-12T11:48:03.000Z</time>
      </trkpt>
      <trkpt lat="45.91781" lon="6.50316">
        <ele>2019.5999755859</ele>
        <time>2014-02-12T11:48:04.000Z</time>
      </trkpt>
      <trkpt lat="45.91782" lon="6.50317">
        <ele>2019.8000488281</ele>
        <time>2014-02-12T11:48:05.000Z</time>
      </trkpt>
      <trkpt lat="45.91782" lon="6.50317">
        <ele>2020.1999511719</ele>
        <time>2014-02-12T11:48:06.000Z</time>
      </trkpt>
      <trkpt lat="45.91783" lon="6.50318">
        <ele>2020.8000488281</ele>
        <time>2014-02-12T11:48:07.000Z</time>
      </trkpt>
      <trkpt lat="45.91783" lon="6.50318">
        <ele>2020.8000488281</ele>
        <time>2014-02-12T11:48:08.000Z</time>
      </trkpt>
      <trkpt lat="45.91783" lon="6.50318">
        <ele>2020.8000488281</ele>
        <time>2014-02-12T11:48:09.000Z</time>
      </trkpt>
      <trkpt lat="45.91784" lon="6.50319">
        <ele>2021.1999511719</ele>
        <time>2014-02-12T11:48:10.000Z</time>
      </trkpt>
      <trkpt lat="45.91784" lon="6.50319">
        <ele>2021.1999511719</ele>
        <time>2014-02-12T11:48:11.000Z</time>
      </trkpt>
      <trkpt lat="45.91785" lon="6.5032">
        <ele>2022</ele>
        <time>2014-02-12T11:48:12.000Z</time>
      </trkpt>
      <trkpt lat="45.91785" lon="6.5032">
        <ele>2022</ele>
        <time>2014-02-12T11:48:13.000Z</time>
      </trkpt>
      <trkpt lat="45.91785" lon="6.50321">
        <ele>2022.4000244141</ele>
        <time>2014-02-12T11:48:14.000Z</time>
      </trkpt>
      <trkpt lat="45.91785" lon="6.50321">
        <ele>2022.4000244141</ele>
        <time>2014-02-12T11:48:15.000Z</time>
      </trkpt>
      <trkpt lat="45.91785" lon="6.50321">
        <ele>2022.8000488281</ele>
        <time>2014-02-12T11:48:16.000Z</time>
      </trkpt>
      <trkpt lat="45.91786" lon="6.50322">
        <ele>2023.1999511719</ele>
        <time>2014-02-12T11:48:17.000Z</time>
      </trkpt>
      <trkpt lat="45.91787" lon="6.50322">
        <ele>2023.8000488281</ele>
        <time>2014-02-12T11:48:18.000Z</time>
      </trkpt>
      <trkpt lat="45.91787" lon="6.50323">
        <ele>2024.1999511719</ele>
        <time>2014-02-12T11:48:19.000Z</time>
      </trkpt>
      <trkpt lat="45.91788" lon="6.50324">
        <ele>2024.5999755859</ele>
        <time>2014-02-12T11:48:20.000Z</time>
      </trkpt>
      <trkpt lat="45.91788" lon="6.50324">
        <ele>2025</ele>
        <time>2014-02-12T11:48:21.000Z</time>
      </trkpt>
      <trkpt lat="45.91788" lon="6.50324">
        <ele>2025</ele>
        <time>2014-02-12T11:48:22.000Z</time>
      </trkpt>
      <trkpt lat="45.91788" lon="6.50324">
        <ele>2025</ele>
        <time>2014-02-12T11:48:23.000Z</time>
      </trkpt>
      <trkpt lat="45.91788" lon="6.50324">
        <ele>2025</ele>
        <time>2014-02-12T11:48:24.000Z</time>
      </trkpt>
      <trkpt lat="45.91788" lon="6.50324">
        <ele>2025</ele>
        <time>2014-02-12T11:48:25.000Z</time>
      </trkpt>
      <trkpt lat="45.91788" lon="6.50324">
        <ele>2025</ele>
        <time>2014-02-12T11:48:26.000Z</time>
      </trkpt>
      <trkpt lat="45.91788" lon="6.50324">
        <ele>2025</ele>
        <time>2014-02-12T11:48:27.000Z</time>
      </trkpt>
      <trkpt lat="45.91788" lon="6.50324">
        <ele>2025</ele>
        <time>2014-02-12T11:48:28.000Z</time>
      </trkpt>
      <trkpt lat="45.91787" lon="6.50324">
        <ele>2024.8000488281</ele>
        <time>2014-02-12T11:48:29.000Z</time>
      </trkpt>
      <trkpt lat="45.91787" lon="6.50324">
        <ele>2024.8000488281</ele>
        <time>2014-02-12T11:48:30.000Z</time>
      </trkpt>
      <trkpt lat="45.91786" lon="6.50324">
        <ele>2025</ele>
        <time>2014-02-12T11:48:31.000Z</time>
      </trkpt>
      <trkpt lat="45.91785" lon="6.50324">
        <ele>2024.8000488281</ele>
        <time>2014-02-12T11:48:32.000Z</time>
      </trkpt>
      <trkpt lat="45.91784" lon="6.50325">
        <ele>2025</ele>
        <time>2014-02-12T11:48:33.000Z</time>
      </trkpt>
      <trkpt lat="45.91784" lon="6.50325">
        <ele>2025</ele>
        <time>2014-02-12T11:48:34.000Z</time>
      </trkpt>
      <trkpt lat="45.91783" lon="6.50324">
        <ele>2024.8000488281</ele>
        <time>2014-02-12T11:48:35.000Z</time>
      </trkpt>
      <trkpt lat="45.91782" lon="6.50325">
        <ele>2025</ele>
        <time>2014-02-12T11:48:36.000Z</time>
      </trkpt>
      <trkpt lat="45.91781" lon="6.50325">
        <ele>2025</ele>
        <time>2014-02-12T11:48:37.000Z</time>
      </trkpt>
      <trkpt lat="45.9178" lon="6.50325">
        <ele>2025</ele>
        <time>2014-02-12T11:48:38.000Z</time>
      </trkpt>
      <trkpt lat="45.91779" lon="6.50325">
        <ele>2025</ele>
        <time>2014-02-12T11:48:39.000Z</time>
      </trkpt>
      <trkpt lat="45.91779" lon="6.50325">
        <ele>2025</ele>
        <time>2014-02-12T11:48:40.000Z</time>
      </trkpt>
      <trkpt lat="45.91778" lon="6.50325">
        <ele>2025</ele>
        <time>2014-02-12T11:48:41.000Z</time>
      </trkpt>
      <trkpt lat="45.91777" lon="6.50325">
        <ele>2025</ele>
        <time>2014-02-12T11:48:42.000Z</time>
      </trkpt>
      <trkpt lat="45.91776" lon="6.50325">
        <ele>2025.1999511719</ele>
        <time>2014-02-12T11:48:43.000Z</time>
      </trkpt>
      <trkpt lat="45.91775" lon="6.50325">
        <ele>2025</ele>
        <time>2014-02-12T11:48:44.000Z</time>
      </trkpt>
      <trkpt lat="45.91774" lon="6.50325">
        <ele>2024.8000488281</ele>
        <time>2014-02-12T11:48:45.000Z</time>
      </trkpt>
      <trkpt lat="45.91773" lon="6.50325">
        <ele>2024.8000488281</ele>
        <time>2014-02-12T11:48:46.000Z</time>
      </trkpt>
      <trkpt lat="45.91773" lon="6.50325">
        <ele>2024.5999755859</ele>
        <time>2014-02-12T11:48:47.000Z</time>
      </trkpt>
      <trkpt lat="45.91772" lon="6.50325">
        <ele>2024.5999755859</ele>
        <time>2014-02-12T11:48:48.000Z</time>
      </trkpt>
      <trkpt lat="45.91771" lon="6.50325">
        <ele>2024.5999755859</ele>
        <time>2014-02-12T11:48:49.000Z</time>
      </trkpt>
      <trkpt lat="45.91771" lon="6.50325">
        <ele>2024.5999755859</ele>
        <time>2014-02-12T11:48:50.000Z</time>
      </trkpt>
      <trkpt lat="45.9177" lon="6.50325">
        <ele>2024.4000244141</ele>
        <time>2014-02-12T11:48:51.000Z</time>
      </trkpt>
      <trkpt lat="45.91769" lon="6.50325">
        <ele>2024.4000244141</ele>
        <time>2014-02-12T11:48:52.000Z</time>
      </trkpt>
      <trkpt lat="45.91769" lon="6.50325">
        <ele>2024.4000244141</ele>
        <time>2014-02-12T11:48:53.000Z</time>
      </trkpt>
      <trkpt lat="45.91768" lon="6.50325">
        <ele>2024.5999755859</ele>
        <time>2014-02-12T11:48:54.000Z</time>
      </trkpt>
      <trkpt lat="45.91768" lon="6.50325">
        <ele>2024.5999755859</ele>
        <time>2014-02-12T11:48:55.000Z</time>
      </trkpt>
      <trkpt lat="45.91768" lon="6.50325">
        <ele>2024.5999755859</ele>
        <time>2014-02-12T11:48:56.000Z</time>
      </trkpt>
      <trkpt lat="45.91768" lon="6.50325">
        <ele>2024.5999755859</ele>
        <time>2014-02-12T11:48:57.000Z</time>
      </trkpt>
      <trkpt lat="45.91768" lon="6.50325">
        <ele>2024.5999755859</ele>
        <time>2014-02-12T11:48:58.000Z</time>
      </trkpt>
      <trkpt lat="45.91768" lon="6.50325">
        <ele>2024.5999755859</ele>
        <time>2014-02-12T11:48:59.000Z</time>
      </trkpt>
      <trkpt lat="45.91768" lon="6.50325">
        <ele>2024.5999755859</ele>
        <time>2014-02-12T11:49:00.000Z</time>
      </trkpt>
      <trkpt lat="45.91768" lon="6.50326">
        <ele>2025.4000244141</ele>
        <time>2014-02-12T11:49:01.000Z</time>
      </trkpt>
      <trkpt lat="45.91768" lon="6.50326">
        <ele>2025.4000244141</ele>
        <time>2014-02-12T11:49:02.000Z</time>
      </trkpt>
      <trkpt lat="45.91769" lon="6.50328">
        <ele>2026.4000244141</ele>
        <time>2014-02-12T11:49:03.000Z</time>
      </trkpt>
      <trkpt lat="45.91769" lon="6.50328">
        <ele>2026.4000244141</ele>
        <time>2014-02-12T11:49:04.000Z</time>
      </trkpt>
      <trkpt lat="45.9177" lon="6.5033">
        <ele>2027.5999755859</ele>
        <time>2014-02-12T11:49:05.000Z</time>
      </trkpt>
      <trkpt lat="45.91771" lon="6.50332">
        <ele>2028.8000488281</ele>
        <time>2014-02-12T11:49:06.000Z</time>
      </trkpt>
      <trkpt lat="45.91771" lon="6.50332">
        <ele>2029.1999511719</ele>
        <time>2014-02-12T11:49:07.000Z</time>
      </trkpt>
      <trkpt lat="45.91772" lon="6.50333">
        <ele>2029.8000488281</ele>
        <time>2014-02-12T11:49:08.000Z</time>
      </trkpt>
      <trkpt lat="45.91772" lon="6.50334">
        <ele>2030.5999755859</ele>
        <time>2014-02-12T11:49:09.000Z</time>
      </trkpt>
      <trkpt lat="45.91772" lon="6.50335">
        <ele>2031.1999511719</ele>
        <time>2014-02-12T11:49:10.000Z</time>
      </trkpt>
      <trkpt lat="45.91773" lon="6.50337">
        <ele>2032.1999511719</ele>
        <time>2014-02-12T11:49:11.000Z</time>
      </trkpt>
      <trkpt lat="45.91773" lon="6.50338">
        <ele>2033</ele>
        <time>2014-02-12T11:49:12.000Z</time>
      </trkpt>
      <trkpt lat="45.91774" lon="6.50339">
        <ele>2033.5999755859</ele>
        <time>2014-02-12T11:49:13.000Z</time>
      </trkpt>
      <trkpt lat="45.91774" lon="6.50339">
        <ele>2034.1999511719</ele>
        <time>2014-02-12T11:49:14.000Z</time>
      </trkpt>
      <trkpt lat="45.91774" lon="6.50339">
        <ele>2034.1999511719</ele>
        <time>2014-02-12T11:49:15.000Z</time>
      </trkpt>
      <trkpt lat="45.91775" lon="6.5034">
        <ele>2034.5999755859</ele>
        <time>2014-02-12T11:49:16.000Z</time>
      </trkpt>
      <trkpt lat="45.91775" lon="6.5034">
        <ele>2034.5999755859</ele>
        <time>2014-02-12T11:49:17.000Z</time>
      </trkpt>
      <trkpt lat="45.91775" lon="6.5034">
        <ele>2034.5999755859</ele>
        <time>2014-02-12T11:49:18.000Z</time>
      </trkpt>
      <trkpt lat="45.91776" lon="6.50341">
        <ele>2034.8000488281</ele>
        <time>2014-02-12T11:49:19.000Z</time>
      </trkpt>
      <trkpt lat="45.91776" lon="6.50341">
        <ele>2034.8000488281</ele>
        <time>2014-02-12T11:49:20.000Z</time>
      </trkpt>
      <trkpt lat="45.91776" lon="6.50341">
        <ele>2035.4000244141</ele>
        <time>2014-02-12T11:49:21.000Z</time>
      </trkpt>
      <trkpt lat="45.91777" lon="6.50342">
        <ele>2036.1999511719</ele>
        <time>2014-02-12T11:49:22.000Z</time>
      </trkpt>
      <trkpt lat="45.91778" lon="6.50343">
        <ele>2036.8000488281</ele>
        <time>2014-02-12T11:49:23.000Z</time>
      </trkpt>
      <trkpt lat="45.91778" lon="6.50344">
        <ele>2037.1999511719</ele>
        <time>2014-02-12T11:49:24.000Z</time>
      </trkpt>
      <trkpt lat="45.91779" lon="6.50345">
        <ele>2037.5999755859</ele>
        <time>2014-02-12T11:49:25.000Z</time>
      </trkpt>
      <trkpt lat="45.91779" lon="6.50345">
        <ele>2037.5999755859</ele>
        <time>2014-02-12T11:49:26.000Z</time>
      </trkpt>
      <trkpt lat="45.9178" lon="6.50346">
        <ele>2038.5999755859</ele>
        <time>2014-02-12T11:49:27.000Z</time>
      </trkpt>
      <trkpt lat="45.91782" lon="6.50347">
        <ele>2039.1999511719</ele>
        <time>2014-02-12T11:49:28.000Z</time>
      </trkpt>
      <trkpt lat="45.91783" lon="6.50348">
        <ele>2040</ele>
        <time>2014-02-12T11:49:29.000Z</time>
      </trkpt>
      <trkpt lat="45.91783" lon="6.50348">
        <ele>2040.1999511719</ele>
        <time>2014-02-12T11:49:30.000Z</time>
      </trkpt>
      <trkpt lat="45.91784" lon="6.50348">
        <ele>2040.4000244141</ele>
        <time>2014-02-12T11:49:31.000Z</time>
      </trkpt>
      <trkpt lat="45.91785" lon="6.50349">
        <ele>2040.5999755859</ele>
        <time>2014-02-12T11:49:32.000Z</time>
      </trkpt>
      <trkpt lat="45.91785" lon="6.50349">
        <ele>2040.5999755859</ele>
        <time>2014-02-12T11:49:33.000Z</time>
      </trkpt>
      <trkpt lat="45.91785" lon="6.50349">
        <ele>2041</ele>
        <time>2014-02-12T11:49:34.000Z</time>
      </trkpt>
      <trkpt lat="45.91786" lon="6.5035">
        <ele>2041.5999755859</ele>
        <time>2014-02-12T11:49:35.000Z</time>
      </trkpt>
      <trkpt lat="45.91786" lon="6.50351">
        <ele>2042.1999511719</ele>
        <time>2014-02-12T11:49:36.000Z</time>
      </trkpt>
      <trkpt lat="45.91787" lon="6.50351">
        <ele>2042.4000244141</ele>
        <time>2014-02-12T11:49:37.000Z</time>
      </trkpt>
      <trkpt lat="45.91788" lon="6.50352">
        <ele>2042.8000488281</ele>
        <time>2014-02-12T11:49:38.000Z</time>
      </trkpt>
      <trkpt lat="45.91789" lon="6.50352">
        <ele>2042.5999755859</ele>
        <time>2014-02-12T11:49:39.000Z</time>
      </trkpt>
      <trkpt lat="45.91789" lon="6.50352">
        <ele>2042.5999755859</ele>
        <time>2014-02-12T11:49:40.000Z</time>
      </trkpt>
      <trkpt lat="45.91789" lon="6.50352">
        <ele>2042.8000488281</ele>
        <time>2014-02-12T11:49:41.000Z</time>
      </trkpt>
      <trkpt lat="45.91789" lon="6.50352">
        <ele>2042.8000488281</ele>
        <time>2014-02-12T11:49:42.000Z</time>
      </trkpt>
      <trkpt lat="45.9179" lon="6.50352">
        <ele>2043.1999511719</ele>
        <time>2014-02-12T11:49:43.000Z</time>
      </trkpt>
      <trkpt lat="45.91791" lon="6.50353">
        <ele>2043.5999755859</ele>
        <time>2014-02-12T11:49:44.000Z</time>
      </trkpt>
      <trkpt lat="45.91791" lon="6.50354">
        <ele>2044.1999511719</ele>
        <time>2014-02-12T11:49:45.000Z</time>
      </trkpt>
      <trkpt lat="45.91792" lon="6.50354">
        <ele>2044.5999755859</ele>
        <time>2014-02-12T11:49:46.000Z</time>
      </trkpt>
      <trkpt lat="45.91792" lon="6.50355">
        <ele>2044.8000488281</ele>
        <time>2014-02-12T11:49:47.000Z</time>
      </trkpt>
      <trkpt lat="45.91793" lon="6.50355">
        <ele>2045.1999511719</ele>
        <time>2014-02-12T11:49:48.000Z</time>
      </trkpt>
      <trkpt lat="45.91793" lon="6.50355">
        <ele>2045.1999511719</ele>
        <time>2014-02-12T11:49:49.000Z</time>
      </trkpt>
      <trkpt lat="45.91793" lon="6.50355">
        <ele>2045.1999511719</ele>
        <time>2014-02-12T11:49:50.000Z</time>
      </trkpt>
      <trkpt lat="45.91793" lon="6.50355">
        <ele>2045.1999511719</ele>
        <time>2014-02-12T11:49:51.000Z</time>
      </trkpt>
      <trkpt lat="45.91793" lon="6.50355">
        <ele>2045.1999511719</ele>
        <time>2014-02-12T11:49:52.000Z</time>
      </trkpt>
      <trkpt lat="45.91793" lon="6.50355">
        <ele>2045.1999511719</ele>
        <time>2014-02-12T11:49:53.000Z</time>
      </trkpt>
      <trkpt lat="45.91792" lon="6.50355">
        <ele>2045.4000244141</ele>
        <time>2014-02-12T11:49:54.000Z</time>
      </trkpt>
      <trkpt lat="45.91791" lon="6.50355">
        <ele>2045.1999511719</ele>
        <time>2014-02-12T11:49:55.000Z</time>
      </trkpt>
      <trkpt lat="45.91791" lon="6.50355">
        <ele>2045</ele>
        <time>2014-02-12T11:49:56.000Z</time>
      </trkpt>
      <trkpt lat="45.91791" lon="6.50355">
        <ele>2045</ele>
        <time>2014-02-12T11:49:57.000Z</time>
      </trkpt>
      <trkpt lat="45.9179" lon="6.50355">
        <ele>2045.1999511719</ele>
        <time>2014-02-12T11:49:58.000Z</time>
      </trkpt>
      <trkpt lat="45.91789" lon="6.50356">
        <ele>2045.4000244141</ele>
        <time>2014-02-12T11:49:59.000Z</time>
      </trkpt>
      <trkpt lat="45.91789" lon="6.50356">
        <ele>2045.5999755859</ele>
        <time>2014-02-12T11:50:00.000Z</time>
      </trkpt>
      <trkpt lat="45.91788" lon="6.50356">
        <ele>2045.5999755859</ele>
        <time>2014-02-12T11:50:01.000Z</time>
      </trkpt>
      <trkpt lat="45.91788" lon="6.50356">
        <ele>2045.5999755859</ele>
        <time>2014-02-12T11:50:02.000Z</time>
      </trkpt>
      <trkpt lat="45.91787" lon="6.50357">
        <ele>2045.8000488281</ele>
        <time>2014-02-12T11:50:03.000Z</time>
      </trkpt>
      <trkpt lat="45.91786" lon="6.50357">
        <ele>2046.4000244141</ele>
        <time>2014-02-12T11:50:04.000Z</time>
      </trkpt>
      <trkpt lat="45.91786" lon="6.50358">
        <ele>2046.5999755859</ele>
        <time>2014-02-12T11:50:05.000Z</time>
      </trkpt>
      <trkpt lat="45.91785" lon="6.50358">
        <ele>2046.8000488281</ele>
        <time>2014-02-12T11:50:06.000Z</time>
      </trkpt>
      <trkpt lat="45.91785" lon="6.50359">
        <ele>2047</ele>
        <time>2014-02-12T11:50:07.000Z</time>
      </trkpt>
      <trkpt lat="45.91784" lon="6.50359">
        <ele>2047.4000244141</ele>
        <time>2014-02-12T11:50:08.000Z</time>
      </trkpt>
      <trkpt lat="45.91784" lon="6.5036">
        <ele>2047.8000488281</ele>
        <time>2014-02-12T11:50:09.000Z</time>
      </trkpt>
      <trkpt lat="45.91783" lon="6.5036">
        <ele>2048.1999511719</ele>
        <time>2014-02-12T11:50:10.000Z</time>
      </trkpt>
      <trkpt lat="45.91782" lon="6.50361">
        <ele>2048.1999511719</ele>
        <time>2014-02-12T11:50:11.000Z</time>
      </trkpt>
      <trkpt lat="45.91781" lon="6.50361">
        <ele>2048.1999511719</ele>
        <time>2014-02-12T11:50:12.000Z</time>
      </trkpt>
      <trkpt lat="45.91781" lon="6.50361">
        <ele>2048.1999511719</ele>
        <time>2014-02-12T11:50:13.000Z</time>
      </trkpt>
      <trkpt lat="45.9178" lon="6.50361">
        <ele>2048.1999511719</ele>
        <time>2014-02-12T11:50:14.000Z</time>
      </trkpt>
      <trkpt lat="45.91779" lon="6.50361">
        <ele>2048</ele>
        <time>2014-02-12T11:50:15.000Z</time>
      </trkpt>
      <trkpt lat="45.91778" lon="6.50361">
        <ele>2048.1999511719</ele>
        <time>2014-02-12T11:50:16.000Z</time>
      </trkpt>
      <trkpt lat="45.91778" lon="6.5036">
        <ele>2047.5999755859</ele>
        <time>2014-02-12T11:50:17.000Z</time>
      </trkpt>
      <trkpt lat="45.91777" lon="6.5036">
        <ele>2047.5999755859</ele>
        <time>2014-02-12T11:50:18.000Z</time>
      </trkpt>
      <trkpt lat="45.91776" lon="6.50361">
        <ele>2048</ele>
        <time>2014-02-12T11:50:19.000Z</time>
      </trkpt>
      <trkpt lat="45.91776" lon="6.50361">
        <ele>2048.3999023438</ele>
        <time>2014-02-12T11:50:20.000Z</time>
      </trkpt>
      <trkpt lat="45.91775" lon="6.50362">
        <ele>2048.8000488281</ele>
        <time>2014-02-12T11:50:21.000Z</time>
      </trkpt>
      <trkpt lat="45.91775" lon="6.50362">
        <ele>2049</ele>
        <time>2014-02-12T11:50:22.000Z</time>
      </trkpt>
      <trkpt lat="45.91774" lon="6.50362">
        <ele>2049</ele>
        <time>2014-02-12T11:50:23.000Z</time>
      </trkpt>
      <trkpt lat="45.91773" lon="6.50363">
        <ele>2049.1999511719</ele>
        <time>2014-02-12T11:50:24.000Z</time>
      </trkpt>
      <trkpt lat="45.91773" lon="6.50363">
        <ele>2049.1999511719</ele>
        <time>2014-02-12T11:50:25.000Z</time>
      </trkpt>
      <trkpt lat="45.91772" lon="6.50363">
        <ele>2049.3999023438</ele>
        <time>2014-02-12T11:50:26.000Z</time>
      </trkpt>
      <trkpt lat="45.91772" lon="6.50363">
        <ele>2049.3999023438</ele>
        <time>2014-02-12T11:50:27.000Z</time>
      </trkpt>
      <trkpt lat="45.91772" lon="6.50364">
        <ele>2049.8000488281</ele>
        <time>2014-02-12T11:50:28.000Z</time>
      </trkpt>
      <trkpt lat="45.91771" lon="6.50364">
        <ele>2050.1999511719</ele>
        <time>2014-02-12T11:50:29.000Z</time>
      </trkpt>
      <trkpt lat="45.91771" lon="6.50365">
        <ele>2050.1999511719</ele>
        <time>2014-02-12T11:50:30.000Z</time>
      </trkpt>
      <trkpt lat="45.91771" lon="6.50365">
        <ele>2050.1999511719</ele>
        <time>2014-02-12T11:50:31.000Z</time>
      </trkpt>
      <trkpt lat="45.9177" lon="6.50365">
        <ele>2050</ele>
        <time>2014-02-12T11:50:32.000Z</time>
      </trkpt>
      <trkpt lat="45.9177" lon="6.50365">
        <ele>2050</ele>
        <time>2014-02-12T11:50:33.000Z</time>
      </trkpt>
      <trkpt lat="45.91769" lon="6.50365">
        <ele>2049.6000976562</ele>
        <time>2014-02-12T11:50:34.000Z</time>
      </trkpt>
      <trkpt lat="45.91769" lon="6.50365">
        <ele>2049.6000976562</ele>
        <time>2014-02-12T11:50:35.000Z</time>
      </trkpt>
      <trkpt lat="45.91769" lon="6.50365">
        <ele>2049.6000976562</ele>
        <time>2014-02-12T11:50:36.000Z</time>
      </trkpt>
      <trkpt lat="45.91769" lon="6.50365">
        <ele>2049.6000976562</ele>
        <time>2014-02-12T11:50:37.000Z</time>
      </trkpt>
      <trkpt lat="45.91769" lon="6.50365">
        <ele>2049.6000976562</ele>
        <time>2014-02-12T11:50:38.000Z</time>
      </trkpt>
      <trkpt lat="45.91769" lon="6.50365">
        <ele>2049.6000976562</ele>
        <time>2014-02-12T11:50:39.000Z</time>
      </trkpt>
      <trkpt lat="45.91769" lon="6.50365">
        <ele>2049.6000976562</ele>
        <time>2014-02-12T11:50:40.000Z</time>
      </trkpt>
      <trkpt lat="45.91769" lon="6.50365">
        <ele>2049.6000976562</ele>
        <time>2014-02-12T11:50:42.000Z</time>
      </trkpt>
      <trkpt lat="45.91769" lon="6.50365">
        <ele>2049.6000976562</ele>
        <time>2014-02-12T11:50:43.000Z</time>
      </trkpt>
      <trkpt lat="45.91769" lon="6.50365">
        <ele>2049.6000976562</ele>
        <time>2014-02-12T11:50:44.000Z</time>
      </trkpt>
      <trkpt lat="45.91769" lon="6.50365">
        <ele>2049.6000976562</ele>
        <time>2014-02-12T11:50:46.000Z</time>
      </trkpt>
      <trkpt lat="45.91769" lon="6.50365">
        <ele>2049.6000976562</ele>
        <time>2014-02-12T11:50:47.000Z</time>
      </trkpt>
      <trkpt lat="45.91769" lon="6.50365">
        <ele>2049.6000976562</ele>
        <time>2014-02-12T11:50:48.000Z</time>
      </trkpt>
      <trkpt lat="45.91769" lon="6.50365">
        <ele>2049.6000976562</ele>
        <time>2014-02-12T11:50:49.000Z</time>
      </trkpt>
      <trkpt lat="45.91769" lon="6.50365">
        <ele>2049.6000976562</ele>
        <time>2014-02-12T11:50:50.000Z</time>
      </trkpt>
      <trkpt lat="45.9177" lon="6.50368">
        <ele>2050.8000488281</ele>
        <time>2014-02-12T11:50:51.000Z</time>
      </trkpt>
      <trkpt lat="45.9177" lon="6.50369">
        <ele>2051.6000976562</ele>
        <time>2014-02-12T11:50:52.000Z</time>
      </trkpt>
      <trkpt lat="45.91771" lon="6.50371">
        <ele>2052.6000976562</ele>
        <time>2014-02-12T11:50:53.000Z</time>
      </trkpt>
      <trkpt lat="45.91772" lon="6.50371">
        <ele>2052.6000976562</ele>
        <time>2014-02-12T11:50:54.000Z</time>
      </trkpt>
      <trkpt lat="45.91772" lon="6.50372">
        <ele>2053.1999511719</ele>
        <time>2014-02-12T11:50:55.000Z</time>
      </trkpt>
      <trkpt lat="45.91773" lon="6.50372">
        <ele>2053.6000976562</ele>
        <time>2014-02-12T11:50:56.000Z</time>
      </trkpt>
      <trkpt lat="45.91774" lon="6.50373">
        <ele>2054</ele>
        <time>2014-02-12T11:50:57.000Z</time>
      </trkpt>
      <trkpt lat="45.91775" lon="6.50374">
        <ele>2054.8000488281</ele>
        <time>2014-02-12T11:50:58.000Z</time>
      </trkpt>
      <trkpt lat="45.91776" lon="6.50375">
        <ele>2055.6000976562</ele>
        <time>2014-02-12T11:50:59.000Z</time>
      </trkpt>
      <trkpt lat="45.91777" lon="6.50376">
        <ele>2056.1999511719</ele>
        <time>2014-02-12T11:51:00.000Z</time>
      </trkpt>
      <trkpt lat="45.91777" lon="6.50377">
        <ele>2056.8000488281</ele>
        <time>2014-02-12T11:51:01.000Z</time>
      </trkpt>
      <trkpt lat="45.91778" lon="6.50378">
        <ele>2057.1999511719</ele>
        <time>2014-02-12T11:51:02.000Z</time>
      </trkpt>
      <trkpt lat="45.91779" lon="6.50379">
        <ele>2057.8000488281</ele>
        <time>2014-02-12T11:51:03.000Z</time>
      </trkpt>
      <trkpt lat="45.91779" lon="6.50379">
        <ele>2058.3999023438</ele>
        <time>2014-02-12T11:51:04.000Z</time>
      </trkpt>
      <trkpt lat="45.9178" lon="6.5038">
        <ele>2058.8000488281</ele>
        <time>2014-02-12T11:51:05.000Z</time>
      </trkpt>
      <trkpt lat="45.9178" lon="6.50381">
        <ele>2059.1999511719</ele>
        <time>2014-02-12T11:51:06.000Z</time>
      </trkpt>
      <trkpt lat="45.91781" lon="6.50381">
        <ele>2059.6000976562</ele>
        <time>2014-02-12T11:51:07.000Z</time>
      </trkpt>
      <trkpt lat="45.91782" lon="6.50382">
        <ele>2060.1999511719</ele>
        <time>2014-02-12T11:51:08.000Z</time>
      </trkpt>
      <trkpt lat="45.91783" lon="6.50383">
        <ele>2060.6000976562</ele>
        <time>2014-02-12T11:51:09.000Z</time>
      </trkpt>
      <trkpt lat="45.91783" lon="6.50383">
        <ele>2061</ele>
        <time>2014-02-12T11:51:10.000Z</time>
      </trkpt>
      <trkpt lat="45.91783" lon="6.50383">
        <ele>2061</ele>
        <time>2014-02-12T11:51:11.000Z</time>
      </trkpt>
      <trkpt lat="45.91784" lon="6.50384">
        <ele>2061.6000976562</ele>
        <time>2014-02-12T11:51:12.000Z</time>
      </trkpt>
      <trkpt lat="45.91785" lon="6.50384">
        <ele>2062</ele>
        <time>2014-02-12T11:51:13.000Z</time>
      </trkpt>
      <trkpt lat="45.91786" lon="6.50385">
        <ele>2062.6000976562</ele>
        <time>2014-02-12T11:51:14.000Z</time>
      </trkpt>
      <trkpt lat="45.91787" lon="6.50386">
        <ele>2063.1999511719</ele>
        <time>2014-02-12T11:51:15.000Z</time>
      </trkpt>
      <trkpt lat="45.91788" lon="6.50387">
        <ele>2063.8000488281</ele>
        <time>2014-02-12T11:51:16.000Z</time>
      </trkpt>
      <trkpt lat="45.91788" lon="6.50387">
        <ele>2064</ele>
        <time>2014-02-12T11:51:17.000Z</time>
      </trkpt>
      <trkpt lat="45.91789" lon="6.50388">
        <ele>2064.3999023438</ele>
        <time>2014-02-12T11:51:18.000Z</time>
      </trkpt>
      <trkpt lat="45.91789" lon="6.50388">
        <ele>2064.6000976562</ele>
        <time>2014-02-12T11:51:19.000Z</time>
      </trkpt>
      <trkpt lat="45.9179" lon="6.50388">
        <ele>2064.8000488281</ele>
        <time>2014-02-12T11:51:20.000Z</time>
      </trkpt>
      <trkpt lat="45.9179" lon="6.50388">
        <ele>2065</ele>
        <time>2014-02-12T11:51:21.000Z</time>
      </trkpt>
      <trkpt lat="45.91791" lon="6.50388">
        <ele>2065.1999511719</ele>
        <time>2014-02-12T11:51:22.000Z</time>
      </trkpt>
      <trkpt lat="45.91791" lon="6.50389">
        <ele>2065.6000976562</ele>
        <time>2014-02-12T11:51:23.000Z</time>
      </trkpt>
      <trkpt lat="45.91792" lon="6.50389">
        <ele>2065.8000488281</ele>
        <time>2014-02-12T11:51:24.000Z</time>
      </trkpt>
      <trkpt lat="45.91792" lon="6.50389">
        <ele>2066.1999511719</ele>
        <time>2014-02-12T11:51:25.000Z</time>
      </trkpt>
      <trkpt lat="45.91793" lon="6.5039">
        <ele>2066.6000976562</ele>
        <time>2014-02-12T11:51:26.000Z</time>
      </trkpt>
      <trkpt lat="45.91793" lon="6.5039">
        <ele>2066.6000976562</ele>
        <time>2014-02-12T11:51:27.000Z</time>
      </trkpt>
      <trkpt lat="45.91794" lon="6.50389">
        <ele>2066.6000976562</ele>
        <time>2014-02-12T11:51:28.000Z</time>
      </trkpt>
      <trkpt lat="45.91794" lon="6.50389">
        <ele>2066.6000976562</ele>
        <time>2014-02-12T11:51:29.000Z</time>
      </trkpt>
      <trkpt lat="45.91794" lon="6.5039">
        <ele>2066.8000488281</ele>
        <time>2014-02-12T11:51:30.000Z</time>
      </trkpt>
      <trkpt lat="45.91794" lon="6.5039">
        <ele>2066.8000488281</ele>
        <time>2014-02-12T11:51:32.000Z</time>
      </trkpt>
      <trkpt lat="45.91794" lon="6.5039">
        <ele>2066.8000488281</ele>
        <time>2014-02-12T11:51:33.000Z</time>
      </trkpt>
      <trkpt lat="45.91794" lon="6.5039">
        <ele>2066.8000488281</ele>
        <time>2014-02-12T11:51:34.000Z</time>
      </trkpt>
      <trkpt lat="45.91794" lon="6.5039">
        <ele>2066.8000488281</ele>
        <time>2014-02-12T11:51:35.000Z</time>
      </trkpt>
      <trkpt lat="45.91794" lon="6.5039">
        <ele>2066.8000488281</ele>
        <time>2014-02-12T11:51:36.000Z</time>
      </trkpt>
      <trkpt lat="45.91793" lon="6.5039">
        <ele>2066.6000976562</ele>
        <time>2014-02-12T11:51:37.000Z</time>
      </trkpt>
      <trkpt lat="45.91792" lon="6.5039">
        <ele>2066.1999511719</ele>
        <time>2014-02-12T11:51:38.000Z</time>
      </trkpt>
      <trkpt lat="45.91791" lon="6.5039">
        <ele>2066</ele>
        <time>2014-02-12T11:51:39.000Z</time>
      </trkpt>
      <trkpt lat="45.9179" lon="6.50391">
        <ele>2065.8000488281</ele>
        <time>2014-02-12T11:51:40.000Z</time>
      </trkpt>
      <trkpt lat="45.91789" lon="6.50391">
        <ele>2065.6000976562</ele>
        <time>2014-02-12T11:51:41.000Z</time>
      </trkpt>
      <trkpt lat="45.91788" lon="6.50391">
        <ele>2065.3999023438</ele>
        <time>2014-02-12T11:51:42.000Z</time>
      </trkpt>
      <trkpt lat="45.91787" lon="6.50391">
        <ele>2065.3999023438</ele>
        <time>2014-02-12T11:51:43.000Z</time>
      </trkpt>
      <trkpt lat="45.91787" lon="6.50392">
        <ele>2065.1999511719</ele>
        <time>2014-02-12T11:51:44.000Z</time>
      </trkpt>
      <trkpt lat="45.91786" lon="6.50392">
        <ele>2065.1999511719</ele>
        <time>2014-02-12T11:51:45.000Z</time>
      </trkpt>
      <trkpt lat="45.91785" lon="6.50393">
        <ele>2065.1999511719</ele>
        <time>2014-02-12T11:51:46.000Z</time>
      </trkpt>
      <trkpt lat="45.91785" lon="6.50393">
        <ele>2065</ele>
        <time>2014-02-12T11:51:47.000Z</time>
      </trkpt>
      <trkpt lat="45.91784" lon="6.50393">
        <ele>2065</ele>
        <time>2014-02-12T11:51:48.000Z</time>
      </trkpt>
      <trkpt lat="45.91783" lon="6.50394">
        <ele>2064.8000488281</ele>
        <time>2014-02-12T11:51:49.000Z</time>
      </trkpt>
      <trkpt lat="45.91783" lon="6.50393">
        <ele>2064.6000976562</ele>
        <time>2014-02-12T11:51:50.000Z</time>
      </trkpt>
      <trkpt lat="45.91782" lon="6.50393">
        <ele>2064.3999023438</ele>
        <time>2014-02-12T11:51:51.000Z</time>
      </trkpt>
      <trkpt lat="45.91781" lon="6.50394">
        <ele>2064.1999511719</ele>
        <time>2014-02-12T11:51:52.000Z</time>
      </trkpt>
      <trkpt lat="45.9178" lon="6.50394">
        <ele>2064.1999511719</ele>
        <time>2014-02-12T11:51:53.000Z</time>
      </trkpt>
      <trkpt lat="45.9178" lon="6.50395">
        <ele>2064.1999511719</ele>
        <time>2014-02-12T11:51:54.000Z</time>
      </trkpt>
      <trkpt lat="45.91779" lon="6.50395">
        <ele>2064.1999511719</ele>
        <time>2014-02-12T11:51:55.000Z</time>
      </trkpt>
      <trkpt lat="45.91779" lon="6.50396">
        <ele>2064.3999023438</ele>
        <time>2014-02-12T11:51:56.000Z</time>
      </trkpt>
      <trkpt lat="45.91779" lon="6.50396">
        <ele>2064.6000976562</ele>
        <time>2014-02-12T11:51:57.000Z</time>
      </trkpt>
      <trkpt lat="45.91779" lon="6.50397">
        <ele>2064.6000976562</ele>
        <time>2014-02-12T11:51:58.000Z</time>
      </trkpt>
      <trkpt lat="45.91778" lon="6.50397">
        <ele>2064.6000976562</ele>
        <time>2014-02-12T11:51:59.000Z</time>
      </trkpt>
      <trkpt lat="45.91777" lon="6.50398">
        <ele>2064.6000976562</ele>
        <time>2014-02-12T11:52:00.000Z</time>
      </trkpt>
      <trkpt lat="45.91777" lon="6.50398">
        <ele>2064.3999023438</ele>
        <time>2014-02-12T11:52:01.000Z</time>
      </trkpt>
      <trkpt lat="45.91776" lon="6.50399">
        <ele>2064.3999023438</ele>
        <time>2014-02-12T11:52:02.000Z</time>
      </trkpt>
      <trkpt lat="45.91775" lon="6.504">
        <ele>2064.3999023438</ele>
        <time>2014-02-12T11:52:03.000Z</time>
      </trkpt>
      <trkpt lat="45.91774" lon="6.504">
        <ele>2064.3999023438</ele>
        <time>2014-02-12T11:52:04.000Z</time>
      </trkpt>
      <trkpt lat="45.91774" lon="6.50402">
        <ele>2065</ele>
        <time>2014-02-12T11:52:05.000Z</time>
      </trkpt>
      <trkpt lat="45.91773" lon="6.50402">
        <ele>2065.3999023438</ele>
        <time>2014-02-12T11:52:06.000Z</time>
      </trkpt>
      <trkpt lat="45.91773" lon="6.50403">
        <ele>2065.6000976562</ele>
        <time>2014-02-12T11:52:07.000Z</time>
      </trkpt>
      <trkpt lat="45.91773" lon="6.50403">
        <ele>2065.3999023438</ele>
        <time>2014-02-12T11:52:08.000Z</time>
      </trkpt>
      <trkpt lat="45.91772" lon="6.50403">
        <ele>2065.1999511719</ele>
        <time>2014-02-12T11:52:09.000Z</time>
      </trkpt>
      <trkpt lat="45.91772" lon="6.50402">
        <ele>2065</ele>
        <time>2014-02-12T11:52:10.000Z</time>
      </trkpt>
      <trkpt lat="45.91771" lon="6.50402">
        <ele>2064.6000976562</ele>
        <time>2014-02-12T11:52:11.000Z</time>
      </trkpt>
      <trkpt lat="45.91771" lon="6.50403">
        <ele>2064.6000976562</ele>
        <time>2014-02-12T11:52:12.000Z</time>
      </trkpt>
      <trkpt lat="45.9177" lon="6.50402">
        <ele>2064.3999023438</ele>
        <time>2014-02-12T11:52:13.000Z</time>
      </trkpt>
      <trkpt lat="45.9177" lon="6.50402">
        <ele>2064.3999023438</ele>
        <time>2014-02-12T11:52:14.000Z</time>
      </trkpt>
      <trkpt lat="45.9177" lon="6.50403">
        <ele>2064.6000976562</ele>
        <time>2014-02-12T11:52:15.000Z</time>
      </trkpt>
      <trkpt lat="45.9177" lon="6.50403">
        <ele>2064.6000976562</ele>
        <time>2014-02-12T11:52:16.000Z</time>
      </trkpt>
      <trkpt lat="45.91769" lon="6.50403">
        <ele>2064.6000976562</ele>
        <time>2014-02-12T11:52:17.000Z</time>
      </trkpt>
      <trkpt lat="45.91768" lon="6.50403">
        <ele>2064.3999023438</ele>
        <time>2014-02-12T11:52:18.000Z</time>
      </trkpt>
      <trkpt lat="45.91768" lon="6.50403">
        <ele>2064.1999511719</ele>
        <time>2014-02-12T11:52:19.000Z</time>
      </trkpt>
      <trkpt lat="45.91768" lon="6.50403">
        <ele>2064.1999511719</ele>
        <time>2014-02-12T11:52:20.000Z</time>
      </trkpt>
      <trkpt lat="45.91768" lon="6.50403">
        <ele>2064.1999511719</ele>
        <time>2014-02-12T11:52:21.000Z</time>
      </trkpt>
      <trkpt lat="45.91768" lon="6.50403">
        <ele>2064.1999511719</ele>
        <time>2014-02-12T11:52:22.000Z</time>
      </trkpt>
      <trkpt lat="45.91768" lon="6.50403">
        <ele>2064.1999511719</ele>
        <time>2014-02-12T11:52:23.000Z</time>
      </trkpt>
      <trkpt lat="45.91768" lon="6.50403">
        <ele>2064.1999511719</ele>
        <time>2014-02-12T11:52:24.000Z</time>
      </trkpt>
      <trkpt lat="45.91768" lon="6.50403">
        <ele>2064.1999511719</ele>
        <time>2014-02-12T11:52:25.000Z</time>
      </trkpt>
      <trkpt lat="45.91769" lon="6.50404">
        <ele>2065.1999511719</ele>
        <time>2014-02-12T11:52:28.000Z</time>
      </trkpt>
      <trkpt lat="45.91769" lon="6.50404">
        <ele>2065.1999511719</ele>
        <time>2014-02-12T11:52:29.000Z</time>
      </trkpt>
      <trkpt lat="45.91769" lon="6.50404">
        <ele>2065.1999511719</ele>
        <time>2014-02-12T11:52:30.000Z</time>
      </trkpt>
      <trkpt lat="45.91769" lon="6.50404">
        <ele>2065.1999511719</ele>
        <time>2014-02-12T11:52:31.000Z</time>
      </trkpt>
      <trkpt lat="45.91769" lon="6.50404">
        <ele>2065.1999511719</ele>
        <time>2014-02-12T11:52:32.000Z</time>
      </trkpt>
      <trkpt lat="45.91769" lon="6.50404">
        <ele>2065.1999511719</ele>
        <time>2014-02-12T11:52:33.000Z</time>
      </trkpt>
      <trkpt lat="45.91769" lon="6.50404">
        <ele>2065.1999511719</ele>
        <time>2014-02-12T11:52:34.000Z</time>
      </trkpt>
      <trkpt lat="45.91769" lon="6.50404">
        <ele>2065.1999511719</ele>
        <time>2014-02-12T11:52:35.000Z</time>
      </trkpt>
      <trkpt lat="45.91769" lon="6.50405">
        <ele>2065.3999023438</ele>
        <time>2014-02-12T11:52:36.000Z</time>
      </trkpt>
      <trkpt lat="45.9177" lon="6.50406">
        <ele>2066.8000488281</ele>
        <time>2014-02-12T11:52:37.000Z</time>
      </trkpt>
      <trkpt lat="45.91771" lon="6.50408">
        <ele>2067.8000488281</ele>
        <time>2014-02-12T11:52:38.000Z</time>
      </trkpt>
      <trkpt lat="45.91772" lon="6.50409">
        <ele>2069</ele>
        <time>2014-02-12T11:52:39.000Z</time>
      </trkpt>
      <trkpt lat="45.91773" lon="6.50411">
        <ele>2070.1999511719</ele>
        <time>2014-02-12T11:52:40.000Z</time>
      </trkpt>
      <trkpt lat="45.91774" lon="6.50412">
        <ele>2071.3999023438</ele>
        <time>2014-02-12T11:52:41.000Z</time>
      </trkpt>
      <trkpt lat="45.91774" lon="6.50413">
        <ele>2072</ele>
        <time>2014-02-12T11:52:42.000Z</time>
      </trkpt>
      <trkpt lat="45.91774" lon="6.50413">
        <ele>2072</ele>
        <time>2014-02-12T11:52:43.000Z</time>
      </trkpt>
      <trkpt lat="45.91775" lon="6.50413">
        <ele>2072.3999023438</ele>
        <time>2014-02-12T11:52:44.000Z</time>
      </trkpt>
      <trkpt lat="45.91776" lon="6.50414">
        <ele>2073</ele>
        <time>2014-02-12T11:52:45.000Z</time>
      </trkpt>
      <trkpt lat="45.91777" lon="6.50415">
        <ele>2074</ele>
        <time>2014-02-12T11:52:46.000Z</time>
      </trkpt>
      <trkpt lat="45.91778" lon="6.50415">
        <ele>2074.6000976562</ele>
        <time>2014-02-12T11:52:47.000Z</time>
      </trkpt>
      <trkpt lat="45.91779" lon="6.50416">
        <ele>2075.1999511719</ele>
        <time>2014-02-12T11:52:48.000Z</time>
      </trkpt>
      <trkpt lat="45.9178" lon="6.50417">
        <ele>2076.3999023438</ele>
        <time>2014-02-12T11:52:49.000Z</time>
      </trkpt>
      <trkpt lat="45.91781" lon="6.50417">
        <ele>2076.8000488281</ele>
        <time>2014-02-12T11:52:50.000Z</time>
      </trkpt>
      <trkpt lat="45.91781" lon="6.50417">
        <ele>2076.8000488281</ele>
        <time>2014-02-12T11:52:51.000Z</time>
      </trkpt>
      <trkpt lat="45.91781" lon="6.50419">
        <ele>2077.8000488281</ele>
        <time>2014-02-12T11:52:52.000Z</time>
      </trkpt>
      <trkpt lat="45.91781" lon="6.50419">
        <ele>2077.8000488281</ele>
        <time>2014-02-12T11:52:53.000Z</time>
      </trkpt>
      <trkpt lat="45.91781" lon="6.50419">
        <ele>2077.8000488281</ele>
        <time>2014-02-12T11:52:54.000Z</time>
      </trkpt>
      <trkpt lat="45.91781" lon="6.50419">
        <ele>2077.8000488281</ele>
        <time>2014-02-12T11:52:55.000Z</time>
      </trkpt>
      <trkpt lat="45.91781" lon="6.50419">
        <ele>2077.8000488281</ele>
        <time>2014-02-12T11:52:56.000Z</time>
      </trkpt>
      <trkpt lat="45.91781" lon="6.50419">
        <ele>2077.8000488281</ele>
        <time>2014-02-12T11:52:57.000Z</time>
      </trkpt>
      <trkpt lat="45.91781" lon="6.50419">
        <ele>2077.8000488281</ele>
        <time>2014-02-12T11:52:58.000Z</time>
      </trkpt>
      <trkpt lat="45.91781" lon="6.50419">
        <ele>2077.8000488281</ele>
        <time>2014-02-12T11:52:59.000Z</time>
      </trkpt>
      <trkpt lat="45.91781" lon="6.50419">
        <ele>2077.8000488281</ele>
        <time>2014-02-12T11:53:00.000Z</time>
      </trkpt>
      <trkpt lat="45.91781" lon="6.50419">
        <ele>2077.8000488281</ele>
        <time>2014-02-12T11:53:01.000Z</time>
      </trkpt>
      <trkpt lat="45.91781" lon="6.50419">
        <ele>2077.8000488281</ele>
        <time>2014-02-12T11:53:02.000Z</time>
      </trkpt>
      <trkpt lat="45.91781" lon="6.50419">
        <ele>2077.8000488281</ele>
        <time>2014-02-12T11:53:03.000Z</time>
      </trkpt>
      <trkpt lat="45.91781" lon="6.50419">
        <ele>2077.8000488281</ele>
        <time>2014-02-12T11:53:08.000Z</time>
      </trkpt>
      <trkpt lat="45.91781" lon="6.50419">
        <ele>2077.8000488281</ele>
        <time>2014-02-12T11:53:09.000Z</time>
      </trkpt>
      <trkpt lat="45.91781" lon="6.50419">
        <ele>2077.8000488281</ele>
        <time>2014-02-12T11:53:10.000Z</time>
      </trkpt>
      <trkpt lat="45.91781" lon="6.50419">
        <ele>2077.8000488281</ele>
        <time>2014-02-12T11:53:11.000Z</time>
      </trkpt>
      <trkpt lat="45.91781" lon="6.50419">
        <ele>2077.8000488281</ele>
        <time>2014-02-12T11:53:12.000Z</time>
      </trkpt>
      <trkpt lat="45.91781" lon="6.50419">
        <ele>2077.8000488281</ele>
        <time>2014-02-12T11:53:13.000Z</time>
      </trkpt>
      <trkpt lat="45.91781" lon="6.50419">
        <ele>2077.8000488281</ele>
        <time>2014-02-12T11:53:14.000Z</time>
      </trkpt>
      <trkpt lat="45.91781" lon="6.50419">
        <ele>2077.8000488281</ele>
        <time>2014-02-12T11:53:15.000Z</time>
      </trkpt>
      <trkpt lat="45.91781" lon="6.50419">
        <ele>2077.8000488281</ele>
        <time>2014-02-12T11:53:16.000Z</time>
      </trkpt>
      <trkpt lat="45.91781" lon="6.50419">
        <ele>2077.8000488281</ele>
        <time>2014-02-12T11:53:17.000Z</time>
      </trkpt>
      <trkpt lat="45.91781" lon="6.50419">
        <ele>2077.8000488281</ele>
        <time>2014-02-12T11:53:18.000Z</time>
      </trkpt>
      <trkpt lat="45.91781" lon="6.50419">
        <ele>2077.8000488281</ele>
        <time>2014-02-12T11:53:19.000Z</time>
      </trkpt>
      <trkpt lat="45.91782" lon="6.50419">
        <ele>2078.3999023438</ele>
        <time>2014-02-12T11:53:20.000Z</time>
      </trkpt>
      <trkpt lat="45.91783" lon="6.5042">
        <ele>2079.1999511719</ele>
        <time>2014-02-12T11:53:21.000Z</time>
      </trkpt>
      <trkpt lat="45.91784" lon="6.50421">
        <ele>2079.8000488281</ele>
        <time>2014-02-12T11:53:22.000Z</time>
      </trkpt>
      <trkpt lat="45.91785" lon="6.50421">
        <ele>2080.3999023438</ele>
        <time>2014-02-12T11:53:23.000Z</time>
      </trkpt>
      <trkpt lat="45.91786" lon="6.50422">
        <ele>2081</ele>
        <time>2014-02-12T11:53:24.000Z</time>
      </trkpt>
      <trkpt lat="45.91786" lon="6.50422">
        <ele>2081.3999023438</ele>
        <time>2014-02-12T11:53:25.000Z</time>
      </trkpt>
      <trkpt lat="45.91787" lon="6.50422">
        <ele>2081.6000976562</ele>
        <time>2014-02-12T11:53:26.000Z</time>
      </trkpt>
      <trkpt lat="45.91788" lon="6.50422">
        <ele>2082.1999511719</ele>
        <time>2014-02-12T11:53:27.000Z</time>
      </trkpt>
      <trkpt lat="45.91789" lon="6.50423">
        <ele>2083</ele>
        <time>2014-02-12T11:53:28.000Z</time>
      </trkpt>
      <trkpt lat="45.91789" lon="6.50424">
        <ele>2083.6000976562</ele>
        <time>2014-02-12T11:53:29.000Z</time>
      </trkpt>
      <trkpt lat="45.9179" lon="6.50424">
        <ele>2084</ele>
        <time>2014-02-12T11:53:30.000Z</time>
      </trkpt>
      <trkpt lat="45.91791" lon="6.50425">
        <ele>2084.8000488281</ele>
        <time>2014-02-12T11:53:31.000Z</time>
      </trkpt>
      <trkpt lat="45.91792" lon="6.50426">
        <ele>2085.3999023438</ele>
        <time>2014-02-12T11:53:32.000Z</time>
      </trkpt>
      <trkpt lat="45.91792" lon="6.50426">
        <ele>2085.3999023438</ele>
        <time>2014-02-12T11:53:33.000Z</time>
      </trkpt>
      <trkpt lat="45.91792" lon="6.50426">
        <ele>2085.3999023438</ele>
        <time>2014-02-12T11:53:34.000Z</time>
      </trkpt>
      <trkpt lat="45.91792" lon="6.50426">
        <ele>2085.3999023438</ele>
        <time>2014-02-12T11:53:35.000Z</time>
      </trkpt>
      <trkpt lat="45.91792" lon="6.50426">
        <ele>2085.3999023438</ele>
        <time>2014-02-12T11:53:36.000Z</time>
      </trkpt>
      <trkpt lat="45.91792" lon="6.50426">
        <ele>2085.3999023438</ele>
        <time>2014-02-12T11:53:37.000Z</time>
      </trkpt>
      <trkpt lat="45.91792" lon="6.50426">
        <ele>2085.3999023438</ele>
        <time>2014-02-12T11:53:38.000Z</time>
      </trkpt>
      <trkpt lat="45.91792" lon="6.50426">
        <ele>2085.3999023438</ele>
        <time>2014-02-12T11:53:39.000Z</time>
      </trkpt>
      <trkpt lat="45.91792" lon="6.50426">
        <ele>2085.3999023438</ele>
        <time>2014-02-12T11:53:40.000Z</time>
      </trkpt>
      <trkpt lat="45.9179" lon="6.50426">
        <ele>2085.1999511719</ele>
        <time>2014-02-12T11:53:41.000Z</time>
      </trkpt>
      <trkpt lat="45.91789" lon="6.50427">
        <ele>2085.1999511719</ele>
        <time>2014-02-12T11:53:42.000Z</time>
      </trkpt>
      <trkpt lat="45.91788" lon="6.50428">
        <ele>2085.1999511719</ele>
        <time>2014-02-12T11:53:43.000Z</time>
      </trkpt>
      <trkpt lat="45.91787" lon="6.50428">
        <ele>2085.1999511719</ele>
        <time>2014-02-12T11:53:44.000Z</time>
      </trkpt>
      <trkpt lat="45.91786" lon="6.50429">
        <ele>2085.3999023438</ele>
        <time>2014-02-12T11:53:45.000Z</time>
      </trkpt>
      <trkpt lat="45.91785" lon="6.50429">
        <ele>2085.1999511719</ele>
        <time>2014-02-12T11:53:46.000Z</time>
      </trkpt>
      <trkpt lat="45.91784" lon="6.50429">
        <ele>2085</ele>
        <time>2014-02-12T11:53:47.000Z</time>
      </trkpt>
      <trkpt lat="45.91783" lon="6.5043">
        <ele>2085.1999511719</ele>
        <time>2014-02-12T11:53:48.000Z</time>
      </trkpt>
      <trkpt lat="45.91782" lon="6.50431">
        <ele>2085</ele>
        <time>2014-02-12T11:53:49.000Z</time>
      </trkpt>
      <trkpt lat="45.91781" lon="6.50431">
        <ele>2085.1999511719</ele>
        <time>2014-02-12T11:53:50.000Z</time>
      </trkpt>
      <trkpt lat="45.9178" lon="6.50432">
        <ele>2085.3999023438</ele>
        <time>2014-02-12T11:53:51.000Z</time>
      </trkpt>
      <trkpt lat="45.91779" lon="6.50433">
        <ele>2086</ele>
        <time>2014-02-12T11:53:52.000Z</time>
      </trkpt>
      <trkpt lat="45.91779" lon="6.50434">
        <ele>2086.3999023438</ele>
        <time>2014-02-12T11:53:53.000Z</time>
      </trkpt>
      <trkpt lat="45.91778" lon="6.50435">
        <ele>2086.6000976562</ele>
        <time>2014-02-12T11:53:54.000Z</time>
      </trkpt>
      <trkpt lat="45.91778" lon="6.50436">
        <ele>2087</ele>
        <time>2014-02-12T11:53:55.000Z</time>
      </trkpt>
      <trkpt lat="45.91777" lon="6.50436">
        <ele>2087</ele>
        <time>2014-02-12T11:53:56.000Z</time>
      </trkpt>
      <trkpt lat="45.91776" lon="6.50437">
        <ele>2086.8000488281</ele>
        <time>2014-02-12T11:53:57.000Z</time>
      </trkpt>
      <trkpt lat="45.91776" lon="6.50437">
        <ele>2086.8000488281</ele>
        <time>2014-02-12T11:53:58.000Z</time>
      </trkpt>
      <trkpt lat="45.91775" lon="6.50437">
        <ele>2086.6000976562</ele>
        <time>2014-02-12T11:53:59.000Z</time>
      </trkpt>
      <trkpt lat="45.91775" lon="6.50437">
        <ele>2086.6000976562</ele>
        <time>2014-02-12T11:54:00.000Z</time>
      </trkpt>
      <trkpt lat="45.91775" lon="6.50437">
        <ele>2086.6000976562</ele>
        <time>2014-02-12T11:54:01.000Z</time>
      </trkpt>
      <trkpt lat="45.91775" lon="6.50437">
        <ele>2086.6000976562</ele>
        <time>2014-02-12T11:54:02.000Z</time>
      </trkpt>
      <trkpt lat="45.91775" lon="6.50437">
        <ele>2086.6000976562</ele>
        <time>2014-02-12T11:54:03.000Z</time>
      </trkpt>
      <trkpt lat="45.91775" lon="6.50437">
        <ele>2086.6000976562</ele>
        <time>2014-02-12T11:54:04.000Z</time>
      </trkpt>
      <trkpt lat="45.91775" lon="6.50437">
        <ele>2086.6000976562</ele>
        <time>2014-02-12T11:54:05.000Z</time>
      </trkpt>
      <trkpt lat="45.91775" lon="6.50437">
        <ele>2086.6000976562</ele>
        <time>2014-02-12T11:54:06.000Z</time>
      </trkpt>
      <trkpt lat="45.91775" lon="6.50437">
        <ele>2086.6000976562</ele>
        <time>2014-02-12T11:54:10.000Z</time>
      </trkpt>
      <trkpt lat="45.91775" lon="6.50437">
        <ele>2086.6000976562</ele>
        <time>2014-02-12T11:54:11.000Z</time>
      </trkpt>
      <trkpt lat="45.91775" lon="6.50437">
        <ele>2086.6000976562</ele>
        <time>2014-02-12T11:54:12.000Z</time>
      </trkpt>
      <trkpt lat="45.91775" lon="6.50437">
        <ele>2086.6000976562</ele>
        <time>2014-02-12T11:54:13.000Z</time>
      </trkpt>
      <trkpt lat="45.91775" lon="6.50437">
        <ele>2086.6000976562</ele>
        <time>2014-02-12T11:54:14.000Z</time>
      </trkpt>
      <trkpt lat="45.91775" lon="6.50437">
        <ele>2086.6000976562</ele>
        <time>2014-02-12T11:54:15.000Z</time>
      </trkpt>
      <trkpt lat="45.91775" lon="6.50437">
        <ele>2086.6000976562</ele>
        <time>2014-02-12T11:54:16.000Z</time>
      </trkpt>
      <trkpt lat="45.91777" lon="6.50438">
        <ele>2088.1999511719</ele>
        <time>2014-02-12T11:54:17.000Z</time>
      </trkpt>
      <trkpt lat="45.91777" lon="6.50438">
        <ele>2088.1999511719</ele>
        <time>2014-02-12T11:54:18.000Z</time>
      </trkpt>
      <trkpt lat="45.91778" lon="6.5044">
        <ele>2089.3999023438</ele>
        <time>2014-02-12T11:54:19.000Z</time>
      </trkpt>
      <trkpt lat="45.91779" lon="6.50441">
        <ele>2090</ele>
        <time>2014-02-12T11:54:20.000Z</time>
      </trkpt>
      <trkpt lat="45.9178" lon="6.50441">
        <ele>2090.8000488281</ele>
        <time>2014-02-12T11:54:21.000Z</time>
      </trkpt>
      <trkpt lat="45.9178" lon="6.50442">
        <ele>2091.1999511719</ele>
        <time>2014-02-12T11:54:22.000Z</time>
      </trkpt>
      <trkpt lat="45.91781" lon="6.50442">
        <ele>2091.8000488281</ele>
        <time>2014-02-12T11:54:23.000Z</time>
      </trkpt>
      <trkpt lat="45.91782" lon="6.50443">
        <ele>2092.1999511719</ele>
        <time>2014-02-12T11:54:24.000Z</time>
      </trkpt>
      <trkpt lat="45.91782" lon="6.50443">
        <ele>2092.6000976562</ele>
        <time>2014-02-12T11:54:25.000Z</time>
      </trkpt>
      <trkpt lat="45.91782" lon="6.50443">
        <ele>2092.6000976562</ele>
        <time>2014-02-12T11:54:26.000Z</time>
      </trkpt>
      <trkpt lat="45.91782" lon="6.50443">
        <ele>2092.6000976562</ele>
        <time>2014-02-12T11:54:27.000Z</time>
      </trkpt>
      <trkpt lat="45.91782" lon="6.50443">
        <ele>2092.6000976562</ele>
        <time>2014-02-12T11:54:28.000Z</time>
      </trkpt>
      <trkpt lat="45.91783" lon="6.50443">
        <ele>2092.8000488281</ele>
        <time>2014-02-12T11:54:29.000Z</time>
      </trkpt>
      <trkpt lat="45.91783" lon="6.50443">
        <ele>2092.8000488281</ele>
        <time>2014-02-12T11:54:30.000Z</time>
      </trkpt>
      <trkpt lat="45.91784" lon="6.50443">
        <ele>2093.3999023438</ele>
        <time>2014-02-12T11:54:31.000Z</time>
      </trkpt>
      <trkpt lat="45.91785" lon="6.50443">
        <ele>2093.8000488281</ele>
        <time>2014-02-12T11:54:32.000Z</time>
      </trkpt>
      <trkpt lat="45.91785" lon="6.50443">
        <ele>2093.8000488281</ele>
        <time>2014-02-12T11:54:33.000Z</time>
      </trkpt>
      <trkpt lat="45.91785" lon="6.50443">
        <ele>2093.8000488281</ele>
        <time>2014-02-12T11:54:34.000Z</time>
      </trkpt>
      <trkpt lat="45.91785" lon="6.50443">
        <ele>2093.8000488281</ele>
        <time>2014-02-12T11:54:35.000Z</time>
      </trkpt>
      <trkpt lat="45.91785" lon="6.50443">
        <ele>2093.8000488281</ele>
        <time>2014-02-12T11:54:36.000Z</time>
      </trkpt>
      <trkpt lat="45.91785" lon="6.50443">
        <ele>2093.8000488281</ele>
        <time>2014-02-12T11:54:37.000Z</time>
      </trkpt>
      <trkpt lat="45.91785" lon="6.50443">
        <ele>2093.8000488281</ele>
        <time>2014-02-12T11:54:38.000Z</time>
      </trkpt>
      <trkpt lat="45.91785" lon="6.50443">
        <ele>2093.8000488281</ele>
        <time>2014-02-12T11:54:39.000Z</time>
      </trkpt>
      <trkpt lat="45.91785" lon="6.50443">
        <ele>2093.8000488281</ele>
        <time>2014-02-12T11:54:40.000Z</time>
      </trkpt>
      <trkpt lat="45.91785" lon="6.50443">
        <ele>2093.8000488281</ele>
        <time>2014-02-12T11:54:41.000Z</time>
      </trkpt>
      <trkpt lat="45.91785" lon="6.50443">
        <ele>2093.8000488281</ele>
        <time>2014-02-12T11:54:42.000Z</time>
      </trkpt>
      <trkpt lat="45.91785" lon="6.50443">
        <ele>2093.8000488281</ele>
        <time>2014-02-12T11:54:43.000Z</time>
      </trkpt>
      <trkpt lat="45.91785" lon="6.50443">
        <ele>2093.8000488281</ele>
        <time>2014-02-12T11:54:44.000Z</time>
      </trkpt>
      <trkpt lat="45.91785" lon="6.50443">
        <ele>2093.8000488281</ele>
        <time>2014-02-12T11:54:45.000Z</time>
      </trkpt>
      <trkpt lat="45.91785" lon="6.50443">
        <ele>2093.8000488281</ele>
        <time>2014-02-12T11:54:46.000Z</time>
      </trkpt>
      <trkpt lat="45.91785" lon="6.50443">
        <ele>2093.8000488281</ele>
        <time>2014-02-12T11:54:47.000Z</time>
      </trkpt>
      <trkpt lat="45.91785" lon="6.50443">
        <ele>2093.8000488281</ele>
        <time>2014-02-12T11:54:48.000Z</time>
      </trkpt>
      <trkpt lat="45.91785" lon="6.50443">
        <ele>2093.8000488281</ele>
        <time>2014-02-12T11:54:49.000Z</time>
      </trkpt>
      <trkpt lat="45.91785" lon="6.50443">
        <ele>2093.8000488281</ele>
        <time>2014-02-12T11:54:50.000Z</time>
      </trkpt>
      <trkpt lat="45.91785" lon="6.50443">
        <ele>2093.8000488281</ele>
        <time>2014-02-12T11:54:54.000Z</time>
      </trkpt>
      <trkpt lat="45.91785" lon="6.50443">
        <ele>2093.8000488281</ele>
        <time>2014-02-12T11:54:55.000Z</time>
      </trkpt>
      <trkpt lat="45.91785" lon="6.50443">
        <ele>2093.8000488281</ele>
        <time>2014-02-12T11:54:56.000Z</time>
      </trkpt>
      <trkpt lat="45.91785" lon="6.50443">
        <ele>2093.8000488281</ele>
        <time>2014-02-12T11:54:57.000Z</time>
      </trkpt>
      <trkpt lat="45.91785" lon="6.50443">
        <ele>2093.8000488281</ele>
        <time>2014-02-12T11:54:58.000Z</time>
      </trkpt>
      <trkpt lat="45.91785" lon="6.50443">
        <ele>2093.8000488281</ele>
        <time>2014-02-12T11:54:59.000Z</time>
      </trkpt>
      <trkpt lat="45.91785" lon="6.50443">
        <ele>2093.8000488281</ele>
        <time>2014-02-12T11:55:00.000Z</time>
      </trkpt>
      <trkpt lat="45.91785" lon="6.50443">
        <ele>2093.8000488281</ele>
        <time>2014-02-12T11:55:07.000Z</time>
      </trkpt>
      <trkpt lat="45.91785" lon="6.50443">
        <ele>2093.8000488281</ele>
        <time>2014-02-12T11:55:09.000Z</time>
      </trkpt>
      <trkpt lat="45.91786" lon="6.50443">
        <ele>2094</ele>
        <time>2014-02-12T11:55:11.000Z</time>
      </trkpt>
      <trkpt lat="45.91786" lon="6.50443">
        <ele>2094</ele>
        <time>2014-02-12T11:55:12.000Z</time>
      </trkpt>
      <trkpt lat="45.91786" lon="6.50443">
        <ele>2094</ele>
        <time>2014-02-12T11:55:13.000Z</time>
      </trkpt>
      <trkpt lat="45.91786" lon="6.50443">
        <ele>2094</ele>
        <time>2014-02-12T11:55:14.000Z</time>
      </trkpt>
      <trkpt lat="45.91786" lon="6.50443">
        <ele>2094</ele>
        <time>2014-02-12T11:55:15.000Z</time>
      </trkpt>
      <trkpt lat="45.91786" lon="6.50443">
        <ele>2094</ele>
        <time>2014-02-12T11:55:16.000Z</time>
      </trkpt>
      <trkpt lat="45.91786" lon="6.50443">
        <ele>2094</ele>
        <time>2014-02-12T11:55:18.000Z</time>
      </trkpt>
      <trkpt lat="45.91786" lon="6.50443">
        <ele>2094</ele>
        <time>2014-02-12T11:55:19.000Z</time>
      </trkpt>
      <trkpt lat="45.91786" lon="6.50443">
        <ele>2094</ele>
        <time>2014-02-12T11:55:20.000Z</time>
      </trkpt>
      <trkpt lat="45.91786" lon="6.50443">
        <ele>2094</ele>
        <time>2014-02-12T11:55:21.000Z</time>
      </trkpt>
      <trkpt lat="45.91785" lon="6.50443">
        <ele>2093.8000488281</ele>
        <time>2014-02-12T11:55:22.000Z</time>
      </trkpt>
      <trkpt lat="45.91785" lon="6.50444">
        <ele>2094</ele>
        <time>2014-02-12T11:55:23.000Z</time>
      </trkpt>
      <trkpt lat="45.91785" lon="6.50444">
        <ele>2094.1999511719</ele>
        <time>2014-02-12T11:55:24.000Z</time>
      </trkpt>
      <trkpt lat="45.91785" lon="6.50444">
        <ele>2094.3999023438</ele>
        <time>2014-02-12T11:55:25.000Z</time>
      </trkpt>
      <trkpt lat="45.91784" lon="6.50445">
        <ele>2094.3999023438</ele>
        <time>2014-02-12T11:55:26.000Z</time>
      </trkpt>
      <trkpt lat="45.91784" lon="6.50446">
        <ele>2094.8000488281</ele>
        <time>2014-02-12T11:55:27.000Z</time>
      </trkpt>
      <trkpt lat="45.91783" lon="6.50446">
        <ele>2095</ele>
        <time>2014-02-12T11:55:28.000Z</time>
      </trkpt>
      <trkpt lat="45.91783" lon="6.50447">
        <ele>2095.1999511719</ele>
        <time>2014-02-12T11:55:29.000Z</time>
      </trkpt>
      <trkpt lat="45.91782" lon="6.50448">
        <ele>2095.3999023438</ele>
        <time>2014-02-12T11:55:30.000Z</time>
      </trkpt>
      <trkpt lat="45.91782" lon="6.50448">
        <ele>2095.3999023438</ele>
        <time>2014-02-12T11:55:31.000Z</time>
      </trkpt>
      <trkpt lat="45.91782" lon="6.50448">
        <ele>2095.3999023438</ele>
        <time>2014-02-12T11:55:32.000Z</time>
      </trkpt>
      <trkpt lat="45.91782" lon="6.50449">
        <ele>2095.8000488281</ele>
        <time>2014-02-12T11:55:33.000Z</time>
      </trkpt>
      <trkpt lat="45.91782" lon="6.50449">
        <ele>2095.8000488281</ele>
        <time>2014-02-12T11:55:34.000Z</time>
      </trkpt>
      <trkpt lat="45.9178" lon="6.50449">
        <ele>2096</ele>
        <time>2014-02-12T11:55:35.000Z</time>
      </trkpt>
      <trkpt lat="45.9178" lon="6.5045">
        <ele>2096.1999511719</ele>
        <time>2014-02-12T11:55:36.000Z</time>
      </trkpt>
      <trkpt lat="45.9178" lon="6.50451">
        <ele>2096.6000976562</ele>
        <time>2014-02-12T11:55:37.000Z</time>
      </trkpt>
      <trkpt lat="45.91779" lon="6.50452">
        <ele>2097</ele>
        <time>2014-02-12T11:55:38.000Z</time>
      </trkpt>
      <trkpt lat="45.91778" lon="6.50452">
        <ele>2097</ele>
        <time>2014-02-12T11:55:39.000Z</time>
      </trkpt>
      <trkpt lat="45.91778" lon="6.50453">
        <ele>2097</ele>
        <time>2014-02-12T11:55:40.000Z</time>
      </trkpt>
      <trkpt lat="45.91777" lon="6.50453">
        <ele>2097.1999511719</ele>
        <time>2014-02-12T11:55:41.000Z</time>
      </trkpt>
      <trkpt lat="45.91777" lon="6.50453">
        <ele>2097.1999511719</ele>
        <time>2014-02-12T11:55:42.000Z</time>
      </trkpt>
      <trkpt lat="45.91776" lon="6.50455">
        <ele>2097.3999023438</ele>
        <time>2014-02-12T11:55:43.000Z</time>
      </trkpt>
      <trkpt lat="45.91776" lon="6.50456">
        <ele>2097.8000488281</ele>
        <time>2014-02-12T11:55:44.000Z</time>
      </trkpt>
      <trkpt lat="45.91776" lon="6.50457">
        <ele>2098.1999511719</ele>
        <time>2014-02-12T11:55:45.000Z</time>
      </trkpt>
      <trkpt lat="45.91776" lon="6.50458">
        <ele>2098.3999023438</ele>
        <time>2014-02-12T11:55:46.000Z</time>
      </trkpt>
      <trkpt lat="45.91776" lon="6.50458">
        <ele>2098.6000976562</ele>
        <time>2014-02-12T11:55:47.000Z</time>
      </trkpt>
      <trkpt lat="45.91775" lon="6.50459">
        <ele>2098.6000976562</ele>
        <time>2014-02-12T11:55:48.000Z</time>
      </trkpt>
      <trkpt lat="45.91775" lon="6.50459">
        <ele>2098.6000976562</ele>
        <time>2014-02-12T11:55:49.000Z</time>
      </trkpt>
      <trkpt lat="45.91774" lon="6.5046">
        <ele>2098.6000976562</ele>
        <time>2014-02-12T11:55:50.000Z</time>
      </trkpt>
      <trkpt lat="45.91773" lon="6.50461">
        <ele>2098.3999023438</ele>
        <time>2014-02-12T11:55:51.000Z</time>
      </trkpt>
      <trkpt lat="45.91773" lon="6.50461">
        <ele>2098.3999023438</ele>
        <time>2014-02-12T11:55:52.000Z</time>
      </trkpt>
      <trkpt lat="45.91772" lon="6.50461">
        <ele>2098.1999511719</ele>
        <time>2014-02-12T11:55:53.000Z</time>
      </trkpt>
      <trkpt lat="45.91771" lon="6.50461">
        <ele>2097.8000488281</ele>
        <time>2014-02-12T11:55:54.000Z</time>
      </trkpt>
      <trkpt lat="45.9177" lon="6.50462">
        <ele>2097.6000976562</ele>
        <time>2014-02-12T11:55:55.000Z</time>
      </trkpt>
      <trkpt lat="45.91769" lon="6.50463">
        <ele>2097.1999511719</ele>
        <time>2014-02-12T11:55:56.000Z</time>
      </trkpt>
      <trkpt lat="45.91768" lon="6.50463">
        <ele>2096.8000488281</ele>
        <time>2014-02-12T11:55:57.000Z</time>
      </trkpt>
      <trkpt lat="45.91767" lon="6.50463">
        <ele>2096.6000976562</ele>
        <time>2014-02-12T11:55:58.000Z</time>
      </trkpt>
      <trkpt lat="45.91766" lon="6.50464">
        <ele>2096.1999511719</ele>
        <time>2014-02-12T11:55:59.000Z</time>
      </trkpt>
      <trkpt lat="45.91765" lon="6.50464">
        <ele>2095.8000488281</ele>
        <time>2014-02-12T11:56:00.000Z</time>
      </trkpt>
      <trkpt lat="45.91764" lon="6.50464">
        <ele>2095.8000488281</ele>
        <time>2014-02-12T11:56:01.000Z</time>
      </trkpt>
      <trkpt lat="45.91764" lon="6.50464">
        <ele>2095.3999023438</ele>
        <time>2014-02-12T11:56:02.000Z</time>
      </trkpt>
      <trkpt lat="45.91763" lon="6.50464">
        <ele>2095</ele>
        <time>2014-02-12T11:56:03.000Z</time>
      </trkpt>
      <trkpt lat="45.91763" lon="6.50464">
        <ele>2094.8000488281</ele>
        <time>2014-02-12T11:56:04.000Z</time>
      </trkpt>
      <trkpt lat="45.91762" lon="6.50465">
        <ele>2094.3999023438</ele>
        <time>2014-02-12T11:56:05.000Z</time>
      </trkpt>
      <trkpt lat="45.91761" lon="6.50465">
        <ele>2094.1999511719</ele>
        <time>2014-02-12T11:56:06.000Z</time>
      </trkpt>
      <trkpt lat="45.9176" lon="6.50465">
        <ele>2094</ele>
        <time>2014-02-12T11:56:07.000Z</time>
      </trkpt>
      <trkpt lat="45.9176" lon="6.50465">
        <ele>2094.1999511719</ele>
        <time>2014-02-12T11:56:08.000Z</time>
      </trkpt>
      <trkpt lat="45.9176" lon="6.50465">
        <ele>2094.1999511719</ele>
        <time>2014-02-12T11:56:09.000Z</time>
      </trkpt>
      <trkpt lat="45.9176" lon="6.50465">
        <ele>2094</ele>
        <time>2014-02-12T11:56:10.000Z</time>
      </trkpt>
      <trkpt lat="45.91759" lon="6.50466">
        <ele>2093.8000488281</ele>
        <time>2014-02-12T11:56:11.000Z</time>
      </trkpt>
      <trkpt lat="45.91759" lon="6.50466">
        <ele>2093.8000488281</ele>
        <time>2014-02-12T11:56:12.000Z</time>
      </trkpt>
      <trkpt lat="45.91759" lon="6.50466">
        <ele>2093.8000488281</ele>
        <time>2014-02-12T11:56:13.000Z</time>
      </trkpt>
      <trkpt lat="45.91759" lon="6.50466">
        <ele>2093.8000488281</ele>
        <time>2014-02-12T11:56:14.000Z</time>
      </trkpt>
      <trkpt lat="45.91758" lon="6.50467">
        <ele>2093.6000976562</ele>
        <time>2014-02-12T11:56:15.000Z</time>
      </trkpt>
      <trkpt lat="45.91758" lon="6.50467">
        <ele>2093.6000976562</ele>
        <time>2014-02-12T11:56:16.000Z</time>
      </trkpt>
      <trkpt lat="45.91758" lon="6.50467">
        <ele>2093.6000976562</ele>
        <time>2014-02-12T11:56:17.000Z</time>
      </trkpt>
      <trkpt lat="45.91757" lon="6.50467">
        <ele>2093.3999023438</ele>
        <time>2014-02-12T11:56:18.000Z</time>
      </trkpt>
      <trkpt lat="45.91757" lon="6.50467">
        <ele>2093.3999023438</ele>
        <time>2014-02-12T11:56:19.000Z</time>
      </trkpt>
      <trkpt lat="45.91756" lon="6.50468">
        <ele>2093</ele>
        <time>2014-02-12T11:56:20.000Z</time>
      </trkpt>
      <trkpt lat="45.91755" lon="6.50468">
        <ele>2092.6000976562</ele>
        <time>2014-02-12T11:56:21.000Z</time>
      </trkpt>
      <trkpt lat="45.91754" lon="6.50468">
        <ele>2092.3999023438</ele>
        <time>2014-02-12T11:56:22.000Z</time>
      </trkpt>
      <trkpt lat="45.91753" lon="6.50468">
        <ele>2092</ele>
        <time>2014-02-12T11:56:23.000Z</time>
      </trkpt>
      <trkpt lat="45.91753" lon="6.50468">
        <ele>2092</ele>
        <time>2014-02-12T11:56:24.000Z</time>
      </trkpt>
      <trkpt lat="45.91753" lon="6.50469">
        <ele>2092</ele>
        <time>2014-02-12T11:56:25.000Z</time>
      </trkpt>
      <trkpt lat="45.91753" lon="6.50469">
        <ele>2092</ele>
        <time>2014-02-12T11:56:26.000Z</time>
      </trkpt>
      <trkpt lat="45.91751" lon="6.5047">
        <ele>2091.8000488281</ele>
        <time>2014-02-12T11:56:27.000Z</time>
      </trkpt>
      <trkpt lat="45.91751" lon="6.5047">
        <ele>2091.3999023438</ele>
        <time>2014-02-12T11:56:28.000Z</time>
      </trkpt>
      <trkpt lat="45.9175" lon="6.50471">
        <ele>2091.1999511719</ele>
        <time>2014-02-12T11:56:29.000Z</time>
      </trkpt>
      <trkpt lat="45.91749" lon="6.50471">
        <ele>2091</ele>
        <time>2014-02-12T11:56:30.000Z</time>
      </trkpt>
      <trkpt lat="45.91748" lon="6.50471">
        <ele>2090.6000976562</ele>
        <time>2014-02-12T11:56:31.000Z</time>
      </trkpt>
      <trkpt lat="45.91747" lon="6.50471">
        <ele>2090</ele>
        <time>2014-02-12T11:56:32.000Z</time>
      </trkpt>
      <trkpt lat="45.91747" lon="6.50471">
        <ele>2090</ele>
        <time>2014-02-12T11:56:33.000Z</time>
      </trkpt>
      <trkpt lat="45.91746" lon="6.50471">
        <ele>2089.8000488281</ele>
        <time>2014-02-12T11:56:34.000Z</time>
      </trkpt>
      <trkpt lat="45.91745" lon="6.50471">
        <ele>2089.1999511719</ele>
        <time>2014-02-12T11:56:35.000Z</time>
      </trkpt>
      <trkpt lat="45.91744" lon="6.5047">
        <ele>2088.1999511719</ele>
        <time>2014-02-12T11:56:36.000Z</time>
      </trkpt>
      <trkpt lat="45.91743" lon="6.5047">
        <ele>2087.8000488281</ele>
        <time>2014-02-12T11:56:37.000Z</time>
      </trkpt>
      <trkpt lat="45.91742" lon="6.50469">
        <ele>2086.8000488281</ele>
        <time>2014-02-12T11:56:38.000Z</time>
      </trkpt>
      <trkpt lat="45.91742" lon="6.50469">
        <ele>2086.8000488281</ele>
        <time>2014-02-12T11:56:39.000Z</time>
      </trkpt>
      <trkpt lat="45.91741" lon="6.50469">
        <ele>2086.6000976562</ele>
        <time>2014-02-12T11:56:40.000Z</time>
      </trkpt>
      <trkpt lat="45.91741" lon="6.5047">
        <ele>2086.6000976562</ele>
        <time>2014-02-12T11:56:41.000Z</time>
      </trkpt>
      <trkpt lat="45.91741" lon="6.5047">
        <ele>2086.3999023438</ele>
        <time>2014-02-12T11:56:42.000Z</time>
      </trkpt>
      <trkpt lat="45.9174" lon="6.5047">
        <ele>2085.8000488281</ele>
        <time>2014-02-12T11:56:43.000Z</time>
      </trkpt>
      <trkpt lat="45.91739" lon="6.5047">
        <ele>2085.6000976562</ele>
        <time>2014-02-12T11:56:44.000Z</time>
      </trkpt>
      <trkpt lat="45.91738" lon="6.50471">
        <ele>2085.6000976562</ele>
        <time>2014-02-12T11:56:45.000Z</time>
      </trkpt>
      <trkpt lat="45.91737" lon="6.50472">
        <ele>2085.6000976562</ele>
        <time>2014-02-12T11:56:46.000Z</time>
      </trkpt>
      <trkpt lat="45.91737" lon="6.50472">
        <ele>2085.8000488281</ele>
        <time>2014-02-12T11:56:47.000Z</time>
      </trkpt>
      <trkpt lat="45.91737" lon="6.50473">
        <ele>2086.1999511719</ele>
        <time>2014-02-12T11:56:48.000Z</time>
      </trkpt>
      <trkpt lat="45.91737" lon="6.50473">
        <ele>2086.1999511719</ele>
        <time>2014-02-12T11:56:49.000Z</time>
      </trkpt>
      <trkpt lat="45.91737" lon="6.50473">
        <ele>2086.1999511719</ele>
        <time>2014-02-12T11:56:50.000Z</time>
      </trkpt>
      <trkpt lat="45.91737" lon="6.50473">
        <ele>2086.1999511719</ele>
        <time>2014-02-12T11:56:51.000Z</time>
      </trkpt>
      <trkpt lat="45.91737" lon="6.50473">
        <ele>2086.1999511719</ele>
        <time>2014-02-12T11:56:52.000Z</time>
      </trkpt>
      <trkpt lat="45.91737" lon="6.50473">
        <ele>2086.1999511719</ele>
        <time>2014-02-12T11:56:53.000Z</time>
      </trkpt>
      <trkpt lat="45.91737" lon="6.50473">
        <ele>2086.1999511719</ele>
        <time>2014-02-12T11:56:54.000Z</time>
      </trkpt>
      <trkpt lat="45.91737" lon="6.50473">
        <ele>2086.1999511719</ele>
        <time>2014-02-12T11:56:57.000Z</time>
      </trkpt>
      <trkpt lat="45.91739" lon="6.50476">
        <ele>2088.3999023438</ele>
        <time>2014-02-12T11:56:59.000Z</time>
      </trkpt>
      <trkpt lat="45.91739" lon="6.50476">
        <ele>2088.8000488281</ele>
        <time>2014-02-12T11:57:00.000Z</time>
      </trkpt>
      <trkpt lat="45.9174" lon="6.50477">
        <ele>2089.1999511719</ele>
        <time>2014-02-12T11:57:01.000Z</time>
      </trkpt>
      <trkpt lat="45.9174" lon="6.50479">
        <ele>2090</ele>
        <time>2014-02-12T11:57:02.000Z</time>
      </trkpt>
      <trkpt lat="45.91741" lon="6.50481">
        <ele>2091.6000976562</ele>
        <time>2014-02-12T11:57:03.000Z</time>
      </trkpt>
      <trkpt lat="45.91741" lon="6.50482">
        <ele>2092</ele>
        <time>2014-02-12T11:57:04.000Z</time>
      </trkpt>
      <trkpt lat="45.91742" lon="6.50484">
        <ele>2093.1999511719</ele>
        <time>2014-02-12T11:57:05.000Z</time>
      </trkpt>
      <trkpt lat="45.91742" lon="6.50485">
        <ele>2093.6000976562</ele>
        <time>2014-02-12T11:57:06.000Z</time>
      </trkpt>
      <trkpt lat="45.91742" lon="6.50486">
        <ele>2094.1999511719</ele>
        <time>2014-02-12T11:57:07.000Z</time>
      </trkpt>
      <trkpt lat="45.91743" lon="6.50488">
        <ele>2095.6000976562</ele>
        <time>2014-02-12T11:57:08.000Z</time>
      </trkpt>
      <trkpt lat="45.91744" lon="6.50488">
        <ele>2096</ele>
        <time>2014-02-12T11:57:09.000Z</time>
      </trkpt>
      <trkpt lat="45.91744" lon="6.50488">
        <ele>2096</ele>
        <time>2014-02-12T11:57:10.000Z</time>
      </trkpt>
      <trkpt lat="45.91744" lon="6.50489">
        <ele>2096.8000488281</ele>
        <time>2014-02-12T11:57:11.000Z</time>
      </trkpt>
      <trkpt lat="45.91745" lon="6.5049">
        <ele>2097.1999511719</ele>
        <time>2014-02-12T11:57:12.000Z</time>
      </trkpt>
      <trkpt lat="45.91746" lon="6.50491">
        <ele>2098.3999023438</ele>
        <time>2014-02-12T11:57:13.000Z</time>
      </trkpt>
      <trkpt lat="45.91746" lon="6.50492">
        <ele>2098.6000976562</ele>
        <time>2014-02-12T11:57:14.000Z</time>
      </trkpt>
      <trkpt lat="45.91747" lon="6.50493">
        <ele>2099.8000488281</ele>
        <time>2014-02-12T11:57:15.000Z</time>
      </trkpt>
      <trkpt lat="45.91747" lon="6.50493">
        <ele>2100</ele>
        <time>2014-02-12T11:57:16.000Z</time>
      </trkpt>
      <trkpt lat="45.91748" lon="6.50494">
        <ele>2100.6000976562</ele>
        <time>2014-02-12T11:57:17.000Z</time>
      </trkpt>
      <trkpt lat="45.91749" lon="6.50496">
        <ele>2102</ele>
        <time>2014-02-12T11:57:18.000Z</time>
      </trkpt>
      <trkpt lat="45.91749" lon="6.50497">
        <ele>2102.3999023438</ele>
        <time>2014-02-12T11:57:19.000Z</time>
      </trkpt>
      <trkpt lat="45.91749" lon="6.50497">
        <ele>2102.8000488281</ele>
        <time>2014-02-12T11:57:20.000Z</time>
      </trkpt>
      <trkpt lat="45.9175" lon="6.50498">
        <ele>2103.3999023438</ele>
        <time>2014-02-12T11:57:21.000Z</time>
      </trkpt>
      <trkpt lat="45.9175" lon="6.50499">
        <ele>2103.8000488281</ele>
        <time>2014-02-12T11:57:22.000Z</time>
      </trkpt>
      <trkpt lat="45.91751" lon="6.50499">
        <ele>2104.1999511719</ele>
        <time>2014-02-12T11:57:23.000Z</time>
      </trkpt>
      <trkpt lat="45.91751" lon="6.50499">
        <ele>2104.6000976562</ele>
        <time>2014-02-12T11:57:24.000Z</time>
      </trkpt>
      <trkpt lat="45.91753" lon="6.505">
        <ele>2105.6000976562</ele>
        <time>2014-02-12T11:57:25.000Z</time>
      </trkpt>
      <trkpt lat="45.91753" lon="6.505">
        <ele>2106</ele>
        <time>2014-02-12T11:57:26.000Z</time>
      </trkpt>
      <trkpt lat="45.91754" lon="6.50501">
        <ele>2106.6000976562</ele>
        <time>2014-02-12T11:57:27.000Z</time>
      </trkpt>
      <trkpt lat="45.91754" lon="6.50501">
        <ele>2107</ele>
        <time>2014-02-12T11:57:28.000Z</time>
      </trkpt>
      <trkpt lat="45.91755" lon="6.50502">
        <ele>2107.3999023438</ele>
        <time>2014-02-12T11:57:29.000Z</time>
      </trkpt>
      <trkpt lat="45.91755" lon="6.50502">
        <ele>2107.6000976562</ele>
        <time>2014-02-12T11:57:30.000Z</time>
      </trkpt>
      <trkpt lat="45.91755" lon="6.50502">
        <ele>2107.6000976562</ele>
        <time>2014-02-12T11:57:31.000Z</time>
      </trkpt>
      <trkpt lat="45.91755" lon="6.50502">
        <ele>2107.6000976562</ele>
        <time>2014-02-12T11:57:32.000Z</time>
      </trkpt>
      <trkpt lat="45.91755" lon="6.50502">
        <ele>2107.6000976562</ele>
        <time>2014-02-12T11:57:33.000Z</time>
      </trkpt>
      <trkpt lat="45.91755" lon="6.50502">
        <ele>2107.6000976562</ele>
        <time>2014-02-12T11:57:34.000Z</time>
      </trkpt>
      <trkpt lat="45.91755" lon="6.50502">
        <ele>2107.6000976562</ele>
        <time>2014-02-12T11:57:35.000Z</time>
      </trkpt>
      <trkpt lat="45.91755" lon="6.50502">
        <ele>2107.3999023438</ele>
        <time>2014-02-12T11:57:36.000Z</time>
      </trkpt>
      <trkpt lat="45.91754" lon="6.50502">
        <ele>2107.1999511719</ele>
        <time>2014-02-12T11:57:37.000Z</time>
      </trkpt>
      <trkpt lat="45.91752" lon="6.50502">
        <ele>2106.3999023438</ele>
        <time>2014-02-12T11:57:38.000Z</time>
      </trkpt>
      <trkpt lat="45.91752" lon="6.50503">
        <ele>2106.3999023438</ele>
        <time>2014-02-12T11:57:39.000Z</time>
      </trkpt>
      <trkpt lat="45.91752" lon="6.50502">
        <ele>2106.1999511719</ele>
        <time>2014-02-12T11:57:40.000Z</time>
      </trkpt>
      <trkpt lat="45.91751" lon="6.50502">
        <ele>2105.8000488281</ele>
        <time>2014-02-12T11:57:41.000Z</time>
      </trkpt>
      <trkpt lat="45.91751" lon="6.50502">
        <ele>2105.8000488281</ele>
        <time>2014-02-12T11:57:42.000Z</time>
      </trkpt>
      <trkpt lat="45.9175" lon="6.50503">
        <ele>2105.6000976562</ele>
        <time>2014-02-12T11:57:43.000Z</time>
      </trkpt>
      <trkpt lat="45.91749" lon="6.50503">
        <ele>2105.1999511719</ele>
        <time>2014-02-12T11:57:44.000Z</time>
      </trkpt>
      <trkpt lat="45.91749" lon="6.50503">
        <ele>2105</ele>
        <time>2014-02-12T11:57:45.000Z</time>
      </trkpt>
      <trkpt lat="45.91748" lon="6.50503">
        <ele>2104.8000488281</ele>
        <time>2014-02-12T11:57:46.000Z</time>
      </trkpt>
      <trkpt lat="45.91748" lon="6.50503">
        <ele>2104.6000976562</ele>
        <time>2014-02-12T11:57:47.000Z</time>
      </trkpt>
      <trkpt lat="45.91746" lon="6.50504">
        <ele>2104</ele>
        <time>2014-02-12T11:57:48.000Z</time>
      </trkpt>
      <trkpt lat="45.91745" lon="6.50504">
        <ele>2104</ele>
        <time>2014-02-12T11:57:49.000Z</time>
      </trkpt>
      <trkpt lat="45.91744" lon="6.50505">
        <ele>2103.6000976562</ele>
        <time>2014-02-12T11:57:50.000Z</time>
      </trkpt>
      <trkpt lat="45.91743" lon="6.50505">
        <ele>2103.3999023438</ele>
        <time>2014-02-12T11:57:51.000Z</time>
      </trkpt>
      <trkpt lat="45.91743" lon="6.50506">
        <ele>2103.3999023438</ele>
        <time>2014-02-12T11:57:52.000Z</time>
      </trkpt>
      <trkpt lat="45.91742" lon="6.50508">
        <ele>2103.6000976562</ele>
        <time>2014-02-12T11:57:53.000Z</time>
      </trkpt>
      <trkpt lat="45.91741" lon="6.50509">
        <ele>2103.6000976562</ele>
        <time>2014-02-12T11:57:54.000Z</time>
      </trkpt>
      <trkpt lat="45.9174" lon="6.5051">
        <ele>2103.3999023438</ele>
        <time>2014-02-12T11:57:55.000Z</time>
      </trkpt>
      <trkpt lat="45.91739" lon="6.50511">
        <ele>2103.3999023438</ele>
        <time>2014-02-12T11:57:56.000Z</time>
      </trkpt>
      <trkpt lat="45.91739" lon="6.50511">
        <ele>2103.6000976562</ele>
        <time>2014-02-12T11:57:57.000Z</time>
      </trkpt>
      <trkpt lat="45.91739" lon="6.50511">
        <ele>2103.6000976562</ele>
        <time>2014-02-12T11:57:58.000Z</time>
      </trkpt>
      <trkpt lat="45.91739" lon="6.50511">
        <ele>2103.3999023438</ele>
        <time>2014-02-12T11:57:59.000Z</time>
      </trkpt>
      <trkpt lat="45.91739" lon="6.50511">
        <ele>2103.3999023438</ele>
        <time>2014-02-12T11:58:00.000Z</time>
      </trkpt>
      <trkpt lat="45.91739" lon="6.50512">
        <ele>2103.8000488281</ele>
        <time>2014-02-12T11:58:01.000Z</time>
      </trkpt>
      <trkpt lat="45.91738" lon="6.50512">
        <ele>2103.8000488281</ele>
        <time>2014-02-12T11:58:02.000Z</time>
      </trkpt>
      <trkpt lat="45.91738" lon="6.50513">
        <ele>2103.8000488281</ele>
        <time>2014-02-12T11:58:03.000Z</time>
      </trkpt>
      <trkpt lat="45.91738" lon="6.50513">
        <ele>2103.8000488281</ele>
        <time>2014-02-12T11:58:04.000Z</time>
      </trkpt>
      <trkpt lat="45.91737" lon="6.50513">
        <ele>2103.6000976562</ele>
        <time>2014-02-12T11:58:05.000Z</time>
      </trkpt>
      <trkpt lat="45.91737" lon="6.50513">
        <ele>2103.1999511719</ele>
        <time>2014-02-12T11:58:06.000Z</time>
      </trkpt>
      <trkpt lat="45.91737" lon="6.50513">
        <ele>2103.1999511719</ele>
        <time>2014-02-12T11:58:07.000Z</time>
      </trkpt>
      <trkpt lat="45.91737" lon="6.50513">
        <ele>2103.1999511719</ele>
        <time>2014-02-12T11:58:08.000Z</time>
      </trkpt>
      <trkpt lat="45.91737" lon="6.50513">
        <ele>2103.1999511719</ele>
        <time>2014-02-12T11:58:09.000Z</time>
      </trkpt>
      <trkpt lat="45.91737" lon="6.50514">
        <ele>2103.6000976562</ele>
        <time>2014-02-12T11:58:10.000Z</time>
      </trkpt>
      <trkpt lat="45.91737" lon="6.50514">
        <ele>2103.6000976562</ele>
        <time>2014-02-12T11:58:11.000Z</time>
      </trkpt>
      <trkpt lat="45.91737" lon="6.50515">
        <ele>2104.1999511719</ele>
        <time>2014-02-12T11:58:12.000Z</time>
      </trkpt>
      <trkpt lat="45.91738" lon="6.50516">
        <ele>2105.1999511719</ele>
        <time>2014-02-12T11:58:13.000Z</time>
      </trkpt>
      <trkpt lat="45.91738" lon="6.50517">
        <ele>2105.3999023438</ele>
        <time>2014-02-12T11:58:14.000Z</time>
      </trkpt>
      <trkpt lat="45.91739" lon="6.50517">
        <ele>2106</ele>
        <time>2014-02-12T11:58:15.000Z</time>
      </trkpt>
      <trkpt lat="45.9174" lon="6.50518">
        <ele>2106.8000488281</ele>
        <time>2014-02-12T11:58:16.000Z</time>
      </trkpt>
      <trkpt lat="45.9174" lon="6.50519">
        <ele>2107.1999511719</ele>
        <time>2014-02-12T11:58:17.000Z</time>
      </trkpt>
      <trkpt lat="45.91741" lon="6.5052">
        <ele>2108.1999511719</ele>
        <time>2014-02-12T11:58:18.000Z</time>
      </trkpt>
      <trkpt lat="45.91742" lon="6.5052">
        <ele>2108.3999023438</ele>
        <time>2014-02-12T11:58:19.000Z</time>
      </trkpt>
      <trkpt lat="45.91742" lon="6.5052">
        <ele>2109</ele>
        <time>2014-02-12T11:58:20.000Z</time>
      </trkpt>
      <trkpt lat="45.91743" lon="6.5052">
        <ele>2109.1999511719</ele>
        <time>2014-02-12T11:58:21.000Z</time>
      </trkpt>
      <trkpt lat="45.91743" lon="6.50521">
        <ele>2109.8000488281</ele>
        <time>2014-02-12T11:58:22.000Z</time>
      </trkpt>
      <trkpt lat="45.91743" lon="6.50521">
        <ele>2109.8000488281</ele>
        <time>2014-02-12T11:58:23.000Z</time>
      </trkpt>
      <trkpt lat="45.91744" lon="6.50521">
        <ele>2110.1999511719</ele>
        <time>2014-02-12T11:58:24.000Z</time>
      </trkpt>
      <trkpt lat="45.91745" lon="6.50522">
        <ele>2110.8000488281</ele>
        <time>2014-02-12T11:58:25.000Z</time>
      </trkpt>
      <trkpt lat="45.91746" lon="6.50523">
        <ele>2112</ele>
        <time>2014-02-12T11:58:26.000Z</time>
      </trkpt>
      <trkpt lat="45.91746" lon="6.50523">
        <ele>2112</ele>
        <time>2014-02-12T11:58:27.000Z</time>
      </trkpt>
      <trkpt lat="45.91746" lon="6.50524">
        <ele>2112.6000976562</ele>
        <time>2014-02-12T11:58:28.000Z</time>
      </trkpt>
      <trkpt lat="45.91748" lon="6.50524">
        <ele>2113.3999023438</ele>
        <time>2014-02-12T11:58:29.000Z</time>
      </trkpt>
      <trkpt lat="45.91748" lon="6.50525">
        <ele>2114</ele>
        <time>2014-02-12T11:58:30.000Z</time>
      </trkpt>
      <trkpt lat="45.9175" lon="6.50526">
        <ele>2115.1999511719</ele>
        <time>2014-02-12T11:58:31.000Z</time>
      </trkpt>
      <trkpt lat="45.9175" lon="6.50526">
        <ele>2115.6000976562</ele>
        <time>2014-02-12T11:58:32.000Z</time>
      </trkpt>
      <trkpt lat="45.91751" lon="6.50527">
        <ele>2116.1999511719</ele>
        <time>2014-02-12T11:58:33.000Z</time>
      </trkpt>
      <trkpt lat="45.91752" lon="6.50527">
        <ele>2117</ele>
        <time>2014-02-12T11:58:34.000Z</time>
      </trkpt>
      <trkpt lat="45.91753" lon="6.50528">
        <ele>2117.6000976562</ele>
        <time>2014-02-12T11:58:35.000Z</time>
      </trkpt>
      <trkpt lat="45.91754" lon="6.50528">
        <ele>2118.3999023438</ele>
        <time>2014-02-12T11:58:36.000Z</time>
      </trkpt>
      <trkpt lat="45.91754" lon="6.50528">
        <ele>2118.6000976562</ele>
        <time>2014-02-12T11:58:37.000Z</time>
      </trkpt>
      <trkpt lat="45.91755" lon="6.50528">
        <ele>2119</ele>
        <time>2014-02-12T11:58:38.000Z</time>
      </trkpt>
      <trkpt lat="45.91755" lon="6.50528">
        <ele>2119.1999511719</ele>
        <time>2014-02-12T11:58:39.000Z</time>
      </trkpt>
      <trkpt lat="45.91756" lon="6.50528">
        <ele>2119.6000976562</ele>
        <time>2014-02-12T11:58:40.000Z</time>
      </trkpt>
      <trkpt lat="45.91757" lon="6.50529">
        <ele>2120.1999511719</ele>
        <time>2014-02-12T11:58:41.000Z</time>
      </trkpt>
      <trkpt lat="45.91757" lon="6.5053">
        <ele>2120.6000976562</ele>
        <time>2014-02-12T11:58:42.000Z</time>
      </trkpt>
      <trkpt lat="45.91757" lon="6.5053">
        <ele>2120.8000488281</ele>
        <time>2014-02-12T11:58:43.000Z</time>
      </trkpt>
      <trkpt lat="45.91758" lon="6.5053">
        <ele>2121.1999511719</ele>
        <time>2014-02-12T11:58:44.000Z</time>
      </trkpt>
      <trkpt lat="45.91758" lon="6.5053">
        <ele>2121.1999511719</ele>
        <time>2014-02-12T11:58:45.000Z</time>
      </trkpt>
      <trkpt lat="45.91759" lon="6.50531">
        <ele>2121.8000488281</ele>
        <time>2014-02-12T11:58:46.000Z</time>
      </trkpt>
      <trkpt lat="45.91759" lon="6.50531">
        <ele>2122.1999511719</ele>
        <time>2014-02-12T11:58:47.000Z</time>
      </trkpt>
      <trkpt lat="45.9176" lon="6.50531">
        <ele>2122.6000976562</ele>
        <time>2014-02-12T11:58:48.000Z</time>
      </trkpt>
      <trkpt lat="45.9176" lon="6.50531">
        <ele>2123</ele>
        <time>2014-02-12T11:58:49.000Z</time>
      </trkpt>
      <trkpt lat="45.91761" lon="6.50532">
        <ele>2123.6000976562</ele>
        <time>2014-02-12T11:58:50.000Z</time>
      </trkpt>
      <trkpt lat="45.91762" lon="6.50532">
        <ele>2123.8000488281</ele>
        <time>2014-02-12T11:58:51.000Z</time>
      </trkpt>
      <trkpt lat="45.91763" lon="6.50533">
        <ele>2124.8000488281</ele>
        <time>2014-02-12T11:58:52.000Z</time>
      </trkpt>
      <trkpt lat="45.91763" lon="6.50534">
        <ele>2125.6000976562</ele>
        <time>2014-02-12T11:58:53.000Z</time>
      </trkpt>
      <trkpt lat="45.91764" lon="6.50534">
        <ele>2126.3999023438</ele>
        <time>2014-02-12T11:58:54.000Z</time>
      </trkpt>
      <trkpt lat="45.91765" lon="6.50535">
        <ele>2127</ele>
        <time>2014-02-12T11:58:55.000Z</time>
      </trkpt>
      <trkpt lat="45.91766" lon="6.50536">
        <ele>2127.8000488281</ele>
        <time>2014-02-12T11:58:56.000Z</time>
      </trkpt>
      <trkpt lat="45.91766" lon="6.50536">
        <ele>2127.8000488281</ele>
        <time>2014-02-12T11:58:57.000Z</time>
      </trkpt>
      <trkpt lat="45.91766" lon="6.50536">
        <ele>2128.1999511719</ele>
        <time>2014-02-12T11:58:58.000Z</time>
      </trkpt>
      <trkpt lat="45.91766" lon="6.50536">
        <ele>2128.1999511719</ele>
        <time>2014-02-12T11:58:59.000Z</time>
      </trkpt>
      <trkpt lat="45.91766" lon="6.50536">
        <ele>2128.1999511719</ele>
        <time>2014-02-12T11:59:00.000Z</time>
      </trkpt>
      <trkpt lat="45.91766" lon="6.50536">
        <ele>2128.1999511719</ele>
        <time>2014-02-12T11:59:01.000Z</time>
      </trkpt>
      <trkpt lat="45.91766" lon="6.50536">
        <ele>2128.1999511719</ele>
        <time>2014-02-12T11:59:02.000Z</time>
      </trkpt>
      <trkpt lat="45.91766" lon="6.50536">
        <ele>2128.1999511719</ele>
        <time>2014-02-12T11:59:03.000Z</time>
      </trkpt>
      <trkpt lat="45.91765" lon="6.50536">
        <ele>2127.6000976562</ele>
        <time>2014-02-12T11:59:04.000Z</time>
      </trkpt>
      <trkpt lat="45.91764" lon="6.50536">
        <ele>2127.1999511719</ele>
        <time>2014-02-12T11:59:05.000Z</time>
      </trkpt>
      <trkpt lat="45.91763" lon="6.50537">
        <ele>2126.8000488281</ele>
        <time>2014-02-12T11:59:06.000Z</time>
      </trkpt>
      <trkpt lat="45.91762" lon="6.50537">
        <ele>2126.3999023438</ele>
        <time>2014-02-12T11:59:07.000Z</time>
      </trkpt>
      <trkpt lat="45.91761" lon="6.50538">
        <ele>2125.8000488281</ele>
        <time>2014-02-12T11:59:08.000Z</time>
      </trkpt>
      <trkpt lat="45.9176" lon="6.50538">
        <ele>2125.8000488281</ele>
        <time>2014-02-12T11:59:09.000Z</time>
      </trkpt>
      <trkpt lat="45.9176" lon="6.50538">
        <ele>2125.8000488281</ele>
        <time>2014-02-12T11:59:10.000Z</time>
      </trkpt>
      <trkpt lat="45.91759" lon="6.50538">
        <ele>2125.1999511719</ele>
        <time>2014-02-12T11:59:11.000Z</time>
      </trkpt>
      <trkpt lat="45.91758" lon="6.50539">
        <ele>2124.8000488281</ele>
        <time>2014-02-12T11:59:12.000Z</time>
      </trkpt>
      <trkpt lat="45.91757" lon="6.50539">
        <ele>2124.6000976562</ele>
        <time>2014-02-12T11:59:13.000Z</time>
      </trkpt>
      <trkpt lat="45.91757" lon="6.50539">
        <ele>2124.3999023438</ele>
        <time>2014-02-12T11:59:14.000Z</time>
      </trkpt>
      <trkpt lat="45.91756" lon="6.5054">
        <ele>2124.1999511719</ele>
        <time>2014-02-12T11:59:15.000Z</time>
      </trkpt>
      <trkpt lat="45.91755" lon="6.5054">
        <ele>2124.1999511719</ele>
        <time>2014-02-12T11:59:16.000Z</time>
      </trkpt>
      <trkpt lat="45.91755" lon="6.50541">
        <ele>2124.1999511719</ele>
        <time>2014-02-12T11:59:17.000Z</time>
      </trkpt>
      <trkpt lat="45.91754" lon="6.50542">
        <ele>2123.8000488281</ele>
        <time>2014-02-12T11:59:18.000Z</time>
      </trkpt>
      <trkpt lat="45.91754" lon="6.50542">
        <ele>2123.8000488281</ele>
        <time>2014-02-12T11:59:19.000Z</time>
      </trkpt>
      <trkpt lat="45.91753" lon="6.50542">
        <ele>2123.8000488281</ele>
        <time>2014-02-12T11:59:20.000Z</time>
      </trkpt>
      <trkpt lat="45.91752" lon="6.50543">
        <ele>2123.3999023438</ele>
        <time>2014-02-12T11:59:21.000Z</time>
      </trkpt>
      <trkpt lat="45.91751" lon="6.50543">
        <ele>2123.1999511719</ele>
        <time>2014-02-12T11:59:22.000Z</time>
      </trkpt>
      <trkpt lat="45.9175" lon="6.50544">
        <ele>2123.1999511719</ele>
        <time>2014-02-12T11:59:23.000Z</time>
      </trkpt>
      <trkpt lat="45.9175" lon="6.50545">
        <ele>2123.1999511719</ele>
        <time>2014-02-12T11:59:24.000Z</time>
      </trkpt>
      <trkpt lat="45.91749" lon="6.50545">
        <ele>2123</ele>
        <time>2014-02-12T11:59:25.000Z</time>
      </trkpt>
      <trkpt lat="45.91749" lon="6.50546">
        <ele>2123</ele>
        <time>2014-02-12T11:59:26.000Z</time>
      </trkpt>
      <trkpt lat="45.91748" lon="6.50546">
        <ele>2122.8000488281</ele>
        <time>2014-02-12T11:59:27.000Z</time>
      </trkpt>
      <trkpt lat="45.91747" lon="6.50547">
        <ele>2123</ele>
        <time>2014-02-12T11:59:28.000Z</time>
      </trkpt>
      <trkpt lat="45.91747" lon="6.50548">
        <ele>2123</ele>
        <time>2014-02-12T11:59:29.000Z</time>
      </trkpt>
      <trkpt lat="45.91747" lon="6.50548">
        <ele>2122.8000488281</ele>
        <time>2014-02-12T11:59:30.000Z</time>
      </trkpt>
      <trkpt lat="45.91747" lon="6.50548">
        <ele>2122.8000488281</ele>
        <time>2014-02-12T11:59:31.000Z</time>
      </trkpt>
      <trkpt lat="45.91747" lon="6.50548">
        <ele>2122.8000488281</ele>
        <time>2014-02-12T11:59:32.000Z</time>
      </trkpt>
      <trkpt lat="45.91747" lon="6.50548">
        <ele>2122.8000488281</ele>
        <time>2014-02-12T11:59:33.000Z</time>
      </trkpt>
      <trkpt lat="45.91747" lon="6.50548">
        <ele>2122.8000488281</ele>
        <time>2014-02-12T11:59:34.000Z</time>
      </trkpt>
      <trkpt lat="45.91747" lon="6.50548">
        <ele>2122.8000488281</ele>
        <time>2014-02-12T11:59:35.000Z</time>
      </trkpt>
      <trkpt lat="45.91747" lon="6.50548">
        <ele>2122.8000488281</ele>
        <time>2014-02-12T11:59:36.000Z</time>
      </trkpt>
      <trkpt lat="45.91747" lon="6.50548">
        <ele>2122.8000488281</ele>
        <time>2014-02-12T11:59:37.000Z</time>
      </trkpt>
      <trkpt lat="45.91747" lon="6.50548">
        <ele>2122.8000488281</ele>
        <time>2014-02-12T11:59:38.000Z</time>
      </trkpt>
      <trkpt lat="45.91747" lon="6.50547">
        <ele>2122.8000488281</ele>
        <time>2014-02-12T11:59:39.000Z</time>
      </trkpt>
      <trkpt lat="45.91748" lon="6.50547">
        <ele>2123</ele>
        <time>2014-02-12T11:59:40.000Z</time>
      </trkpt>
      <trkpt lat="45.91748" lon="6.50547">
        <ele>2123.6000976562</ele>
        <time>2014-02-12T11:59:41.000Z</time>
      </trkpt>
      <trkpt lat="45.9175" lon="6.50549">
        <ele>2125</ele>
        <time>2014-02-12T11:59:43.000Z</time>
      </trkpt>
      <trkpt lat="45.91751" lon="6.50549">
        <ele>2125.6000976562</ele>
        <time>2014-02-12T11:59:44.000Z</time>
      </trkpt>
      <trkpt lat="45.91752" lon="6.5055">
        <ele>2126.6000976562</ele>
        <time>2014-02-12T11:59:45.000Z</time>
      </trkpt>
      <trkpt lat="45.91753" lon="6.50551">
        <ele>2127.1999511719</ele>
        <time>2014-02-12T11:59:46.000Z</time>
      </trkpt>
      <trkpt lat="45.91754" lon="6.50551">
        <ele>2128.1999511719</ele>
        <time>2014-02-12T11:59:47.000Z</time>
      </trkpt>
      <trkpt lat="45.91754" lon="6.50551">
        <ele>2128.1999511719</ele>
        <time>2014-02-12T11:59:48.000Z</time>
      </trkpt>
      <trkpt lat="45.91755" lon="6.50551">
        <ele>2128.6000976562</ele>
        <time>2014-02-12T11:59:49.000Z</time>
      </trkpt>
      <trkpt lat="45.91755" lon="6.50551">
        <ele>2128.6000976562</ele>
        <time>2014-02-12T11:59:50.000Z</time>
      </trkpt>
      <trkpt lat="45.91755" lon="6.50551">
        <ele>2128.6000976562</ele>
        <time>2014-02-12T11:59:51.000Z</time>
      </trkpt>
      <trkpt lat="45.91757" lon="6.50552">
        <ele>2129.8000488281</ele>
        <time>2014-02-12T11:59:52.000Z</time>
      </trkpt>
      <trkpt lat="45.91758" lon="6.50552">
        <ele>2130.3999023438</ele>
        <time>2014-02-12T11:59:54.000Z</time>
      </trkpt>
      <trkpt lat="45.91759" lon="6.50553">
        <ele>2131.1999511719</ele>
        <time>2014-02-12T11:59:55.000Z</time>
      </trkpt>
      <trkpt lat="45.91761" lon="6.50554">
        <ele>2132.6000976562</ele>
        <time>2014-02-12T11:59:56.000Z</time>
      </trkpt>
      <trkpt lat="45.91762" lon="6.50554">
        <ele>2133.6000976562</ele>
        <time>2014-02-12T11:59:57.000Z</time>
      </trkpt>
      <trkpt lat="45.91763" lon="6.50555">
        <ele>2134.1999511719</ele>
        <time>2014-02-12T11:59:58.000Z</time>
      </trkpt>
      <trkpt lat="45.91764" lon="6.50555">
        <ele>2135</ele>
        <time>2014-02-12T11:59:59.000Z</time>
      </trkpt>
      <trkpt lat="45.91765" lon="6.50556">
        <ele>2135.3999023438</ele>
        <time>2014-02-12T12:00:00.000Z</time>
      </trkpt>
      <trkpt lat="45.91766" lon="6.50557">
        <ele>2136.3999023438</ele>
        <time>2014-02-12T12:00:01.000Z</time>
      </trkpt>
      <trkpt lat="45.91767" lon="6.50557">
        <ele>2137</ele>
        <time>2014-02-12T12:00:02.000Z</time>
      </trkpt>
      <trkpt lat="45.91768" lon="6.50558">
        <ele>2137.8000488281</ele>
        <time>2014-02-12T12:00:03.000Z</time>
      </trkpt>
      <trkpt lat="45.91769" lon="6.50558">
        <ele>2138.6000976562</ele>
        <time>2014-02-12T12:00:04.000Z</time>
      </trkpt>
      <trkpt lat="45.9177" lon="6.50558">
        <ele>2139</ele>
        <time>2014-02-12T12:00:05.000Z</time>
      </trkpt>
      <trkpt lat="45.9177" lon="6.50558">
        <ele>2139</ele>
        <time>2014-02-12T12:00:06.000Z</time>
      </trkpt>
      <trkpt lat="45.9177" lon="6.50558">
        <ele>2139.6000976562</ele>
        <time>2014-02-12T12:00:07.000Z</time>
      </trkpt>
      <trkpt lat="45.91771" lon="6.50559">
        <ele>2140</ele>
        <time>2014-02-12T12:00:08.000Z</time>
      </trkpt>
      <trkpt lat="45.91772" lon="6.50559">
        <ele>2140.3999023438</ele>
        <time>2014-02-12T12:00:09.000Z</time>
      </trkpt>
      <trkpt lat="45.91772" lon="6.50559">
        <ele>2141</ele>
        <time>2014-02-12T12:00:10.000Z</time>
      </trkpt>
      <trkpt lat="45.91773" lon="6.5056">
        <ele>2141.3999023438</ele>
        <time>2014-02-12T12:00:11.000Z</time>
      </trkpt>
      <trkpt lat="45.91773" lon="6.50559">
        <ele>2141.3999023438</ele>
        <time>2014-02-12T12:00:12.000Z</time>
      </trkpt>
      <trkpt lat="45.91773" lon="6.50559">
        <ele>2141.3999023438</ele>
        <time>2014-02-12T12:00:13.000Z</time>
      </trkpt>
      <trkpt lat="45.91773" lon="6.50559">
        <ele>2141.3999023438</ele>
        <time>2014-02-12T12:00:14.000Z</time>
      </trkpt>
      <trkpt lat="45.91773" lon="6.50559">
        <ele>2141.3999023438</ele>
        <time>2014-02-12T12:00:15.000Z</time>
      </trkpt>
      <trkpt lat="45.91773" lon="6.50559">
        <ele>2141.3999023438</ele>
        <time>2014-02-12T12:00:16.000Z</time>
      </trkpt>
      <trkpt lat="45.91773" lon="6.50559">
        <ele>2141.3999023438</ele>
        <time>2014-02-12T12:00:17.000Z</time>
      </trkpt>
      <trkpt lat="45.91773" lon="6.50559">
        <ele>2141.3999023438</ele>
        <time>2014-02-12T12:00:18.000Z</time>
      </trkpt>
      <trkpt lat="45.91773" lon="6.50559">
        <ele>2141.3999023438</ele>
        <time>2014-02-12T12:00:19.000Z</time>
      </trkpt>
      <trkpt lat="45.91773" lon="6.50559">
        <ele>2141.3999023438</ele>
        <time>2014-02-12T12:00:20.000Z</time>
      </trkpt>
      <trkpt lat="45.91772" lon="6.5056">
        <ele>2141</ele>
        <time>2014-02-12T12:00:21.000Z</time>
      </trkpt>
      <trkpt lat="45.9177" lon="6.50561">
        <ele>2140.3999023438</ele>
        <time>2014-02-12T12:00:24.000Z</time>
      </trkpt>
      <trkpt lat="45.91769" lon="6.50562">
        <ele>2140.1999511719</ele>
        <time>2014-02-12T12:00:25.000Z</time>
      </trkpt>
      <trkpt lat="45.91768" lon="6.50563">
        <ele>2140</ele>
        <time>2014-02-12T12:00:26.000Z</time>
      </trkpt>
      <trkpt lat="45.91766" lon="6.50564">
        <ele>2139.6000976562</ele>
        <time>2014-02-12T12:00:27.000Z</time>
      </trkpt>
      <trkpt lat="45.91766" lon="6.50563">
        <ele>2139.1999511719</ele>
        <time>2014-02-12T12:00:28.000Z</time>
      </trkpt>
      <trkpt lat="45.91766" lon="6.50563">
        <ele>2139.1999511719</ele>
        <time>2014-02-12T12:00:29.000Z</time>
      </trkpt>
      <trkpt lat="45.91765" lon="6.50564">
        <ele>2139</ele>
        <time>2014-02-12T12:00:30.000Z</time>
      </trkpt>
      <trkpt lat="45.91764" lon="6.50564">
        <ele>2138.8000488281</ele>
        <time>2014-02-12T12:00:31.000Z</time>
      </trkpt>
      <trkpt lat="45.91764" lon="6.50564">
        <ele>2138.8000488281</ele>
        <time>2014-02-12T12:00:32.000Z</time>
      </trkpt>
      <trkpt lat="45.91763" lon="6.50565">
        <ele>2138.8000488281</ele>
        <time>2014-02-12T12:00:33.000Z</time>
      </trkpt>
      <trkpt lat="45.91763" lon="6.50565">
        <ele>2138.8000488281</ele>
        <time>2014-02-12T12:00:34.000Z</time>
      </trkpt>
      <trkpt lat="45.91762" lon="6.50566">
        <ele>2138.6000976562</ele>
        <time>2014-02-12T12:00:35.000Z</time>
      </trkpt>
      <trkpt lat="45.91761" lon="6.50566">
        <ele>2137.8000488281</ele>
        <time>2014-02-12T12:00:36.000Z</time>
      </trkpt>
      <trkpt lat="45.9176" lon="6.50565">
        <ele>2137.1999511719</ele>
        <time>2014-02-12T12:00:37.000Z</time>
      </trkpt>
      <trkpt lat="45.9176" lon="6.50565">
        <ele>2136.8000488281</ele>
        <time>2014-02-12T12:00:38.000Z</time>
      </trkpt>
      <trkpt lat="45.91759" lon="6.50566">
        <ele>2136.8000488281</ele>
        <time>2014-02-12T12:00:39.000Z</time>
      </trkpt>
      <trkpt lat="45.91759" lon="6.50566">
        <ele>2136.8000488281</ele>
        <time>2014-02-12T12:00:40.000Z</time>
      </trkpt>
      <trkpt lat="45.91759" lon="6.50566">
        <ele>2136.8000488281</ele>
        <time>2014-02-12T12:00:41.000Z</time>
      </trkpt>
      <trkpt lat="45.91759" lon="6.50566">
        <ele>2136.8000488281</ele>
        <time>2014-02-12T12:00:42.000Z</time>
      </trkpt>
      <trkpt lat="45.91759" lon="6.50566">
        <ele>2136.8000488281</ele>
        <time>2014-02-12T12:00:43.000Z</time>
      </trkpt>
      <trkpt lat="45.91759" lon="6.50566">
        <ele>2136.8000488281</ele>
        <time>2014-02-12T12:00:44.000Z</time>
      </trkpt>
      <trkpt lat="45.9176" lon="6.50566">
        <ele>2137.1999511719</ele>
        <time>2014-02-12T12:00:45.000Z</time>
      </trkpt>
      <trkpt lat="45.9176" lon="6.50566">
        <ele>2137.3999023438</ele>
        <time>2014-02-12T12:00:46.000Z</time>
      </trkpt>
      <trkpt lat="45.91761" lon="6.50566">
        <ele>2137.6000976562</ele>
        <time>2014-02-12T12:00:47.000Z</time>
      </trkpt>
      <trkpt lat="45.91761" lon="6.50566">
        <ele>2138.1999511719</ele>
        <time>2014-02-12T12:00:48.000Z</time>
      </trkpt>
      <trkpt lat="45.91761" lon="6.50566">
        <ele>2138.1999511719</ele>
        <time>2014-02-12T12:00:49.000Z</time>
      </trkpt>
      <trkpt lat="45.91762" lon="6.50566">
        <ele>2138.6000976562</ele>
        <time>2014-02-12T12:00:50.000Z</time>
      </trkpt>
      <trkpt lat="45.91763" lon="6.50567">
        <ele>2139.1999511719</ele>
        <time>2014-02-12T12:00:51.000Z</time>
      </trkpt>
      <trkpt lat="45.91765" lon="6.50568">
        <ele>2141</ele>
        <time>2014-02-12T12:00:52.000Z</time>
      </trkpt>
      <trkpt lat="45.91767" lon="6.50568">
        <ele>2141.8000488281</ele>
        <time>2014-02-12T12:00:53.000Z</time>
      </trkpt>
      <trkpt lat="45.91769" lon="6.50569">
        <ele>2143.1999511719</ele>
        <time>2014-02-12T12:00:54.000Z</time>
      </trkpt>
      <trkpt lat="45.91769" lon="6.50569">
        <ele>2143.1999511719</ele>
        <time>2014-02-12T12:00:55.000Z</time>
      </trkpt>
      <trkpt lat="45.91769" lon="6.50569">
        <ele>2143.3999023438</ele>
        <time>2014-02-12T12:00:56.000Z</time>
      </trkpt>
      <trkpt lat="45.9177" lon="6.50568">
        <ele>2143.8000488281</ele>
        <time>2014-02-12T12:00:57.000Z</time>
      </trkpt>
      <trkpt lat="45.91771" lon="6.50568">
        <ele>2144</ele>
        <time>2014-02-12T12:00:58.000Z</time>
      </trkpt>
      <trkpt lat="45.91772" lon="6.50568">
        <ele>2144.3999023438</ele>
        <time>2014-02-12T12:00:59.000Z</time>
      </trkpt>
      <trkpt lat="45.91773" lon="6.50567">
        <ele>2145</ele>
        <time>2014-02-12T12:01:00.000Z</time>
      </trkpt>
      <trkpt lat="45.91774" lon="6.50567">
        <ele>2145.1999511719</ele>
        <time>2014-02-12T12:01:01.000Z</time>
      </trkpt>
      <trkpt lat="45.91774" lon="6.50567">
        <ele>2145.1999511719</ele>
        <time>2014-02-12T12:01:02.000Z</time>
      </trkpt>
      <trkpt lat="45.91775" lon="6.50567">
        <ele>2145.8000488281</ele>
        <time>2014-02-12T12:01:03.000Z</time>
      </trkpt>
      <trkpt lat="45.91777" lon="6.50568">
        <ele>2147.1999511719</ele>
        <time>2014-02-12T12:01:04.000Z</time>
      </trkpt>
      <trkpt lat="45.91779" lon="6.50569">
        <ele>2148.1999511719</ele>
        <time>2014-02-12T12:01:05.000Z</time>
      </trkpt>
      <trkpt lat="45.9178" lon="6.50569">
        <ele>2148.8000488281</ele>
        <time>2014-02-12T12:01:06.000Z</time>
      </trkpt>
      <trkpt lat="45.91781" lon="6.50569">
        <ele>2149.3999023438</ele>
        <time>2014-02-12T12:01:07.000Z</time>
      </trkpt>
      <trkpt lat="45.91782" lon="6.50569">
        <ele>2150</ele>
        <time>2014-02-12T12:01:08.000Z</time>
      </trkpt>
      <trkpt lat="45.91783" lon="6.50569">
        <ele>2150.3999023438</ele>
        <time>2014-02-12T12:01:09.000Z</time>
      </trkpt>
      <trkpt lat="45.91784" lon="6.50569">
        <ele>2151.1999511719</ele>
        <time>2014-02-12T12:01:10.000Z</time>
      </trkpt>
      <trkpt lat="45.91785" lon="6.50569">
        <ele>2151.6000976562</ele>
        <time>2014-02-12T12:01:11.000Z</time>
      </trkpt>
      <trkpt lat="45.91786" lon="6.50569">
        <ele>2152.1999511719</ele>
        <time>2014-02-12T12:01:12.000Z</time>
      </trkpt>
      <trkpt lat="45.91786" lon="6.50569">
        <ele>2152.1999511719</ele>
        <time>2014-02-12T12:01:13.000Z</time>
      </trkpt>
      <trkpt lat="45.91786" lon="6.50569">
        <ele>2152.1999511719</ele>
        <time>2014-02-12T12:01:14.000Z</time>
      </trkpt>
      <trkpt lat="45.91786" lon="6.50569">
        <ele>2152.1999511719</ele>
        <time>2014-02-12T12:01:15.000Z</time>
      </trkpt>
      <trkpt lat="45.91786" lon="6.50569">
        <ele>2152.1999511719</ele>
        <time>2014-02-12T12:01:16.000Z</time>
      </trkpt>
      <trkpt lat="45.91786" lon="6.50569">
        <ele>2152.1999511719</ele>
        <time>2014-02-12T12:01:17.000Z</time>
      </trkpt>
      <trkpt lat="45.91786" lon="6.50569">
        <ele>2152.1999511719</ele>
        <time>2014-02-12T12:01:18.000Z</time>
      </trkpt>
      <trkpt lat="45.91786" lon="6.50569">
        <ele>2152.1999511719</ele>
        <time>2014-02-12T12:01:19.000Z</time>
      </trkpt>
      <trkpt lat="45.91786" lon="6.50569">
        <ele>2152.1999511719</ele>
        <time>2014-02-12T12:01:20.000Z</time>
      </trkpt>
      <trkpt lat="45.91786" lon="6.50569">
        <ele>2152.1999511719</ele>
        <time>2014-02-12T12:01:21.000Z</time>
      </trkpt>
      <trkpt lat="45.91784" lon="6.5057">
        <ele>2151.6000976562</ele>
        <time>2014-02-12T12:01:22.000Z</time>
      </trkpt>
      <trkpt lat="45.91783" lon="6.50571">
        <ele>2151.6000976562</ele>
        <time>2014-02-12T12:01:23.000Z</time>
      </trkpt>
      <trkpt lat="45.91782" lon="6.50572">
        <ele>2151.3999023438</ele>
        <time>2014-02-12T12:01:24.000Z</time>
      </trkpt>
      <trkpt lat="45.91782" lon="6.50573">
        <ele>2151.3999023438</ele>
        <time>2014-02-12T12:01:25.000Z</time>
      </trkpt>
      <trkpt lat="45.91781" lon="6.50573">
        <ele>2151.3999023438</ele>
        <time>2014-02-12T12:01:26.000Z</time>
      </trkpt>
      <trkpt lat="45.9178" lon="6.50574">
        <ele>2151</ele>
        <time>2014-02-12T12:01:27.000Z</time>
      </trkpt>
      <trkpt lat="45.91779" lon="6.50574">
        <ele>2150.8000488281</ele>
        <time>2014-02-12T12:01:28.000Z</time>
      </trkpt>
      <trkpt lat="45.91778" lon="6.50575">
        <ele>2150.3999023438</ele>
        <time>2014-02-12T12:01:29.000Z</time>
      </trkpt>
      <trkpt lat="45.91777" lon="6.50575">
        <ele>2150</ele>
        <time>2014-02-12T12:01:30.000Z</time>
      </trkpt>
      <trkpt lat="45.91776" lon="6.50576">
        <ele>2150</ele>
        <time>2014-02-12T12:01:31.000Z</time>
      </trkpt>
      <trkpt lat="45.91775" lon="6.50578">
        <ele>2150.1999511719</ele>
        <time>2014-02-12T12:01:32.000Z</time>
      </trkpt>
      <trkpt lat="45.91774" lon="6.50579">
        <ele>2150.1999511719</ele>
        <time>2014-02-12T12:01:33.000Z</time>
      </trkpt>
      <trkpt lat="45.91773" lon="6.50579">
        <ele>2150</ele>
        <time>2014-02-12T12:01:34.000Z</time>
      </trkpt>
      <trkpt lat="45.91772" lon="6.5058">
        <ele>2150.1999511719</ele>
        <time>2014-02-12T12:01:35.000Z</time>
      </trkpt>
      <trkpt lat="45.91772" lon="6.50581">
        <ele>2150</ele>
        <time>2014-02-12T12:01:36.000Z</time>
      </trkpt>
      <trkpt lat="45.91771" lon="6.50582">
        <ele>2150</ele>
        <time>2014-02-12T12:01:37.000Z</time>
      </trkpt>
      <trkpt lat="45.9177" lon="6.50582">
        <ele>2150</ele>
        <time>2014-02-12T12:01:38.000Z</time>
      </trkpt>
      <trkpt lat="45.9177" lon="6.50583">
        <ele>2150</ele>
        <time>2014-02-12T12:01:39.000Z</time>
      </trkpt>
      <trkpt lat="45.91769" lon="6.50584">
        <ele>2150</ele>
        <time>2014-02-12T12:01:40.000Z</time>
      </trkpt>
      <trkpt lat="45.91769" lon="6.50584">
        <ele>2150</ele>
        <time>2014-02-12T12:01:41.000Z</time>
      </trkpt>
      <trkpt lat="45.91768" lon="6.50585">
        <ele>2150</ele>
        <time>2014-02-12T12:01:42.000Z</time>
      </trkpt>
      <trkpt lat="45.91768" lon="6.50585">
        <ele>2150</ele>
        <time>2014-02-12T12:01:43.000Z</time>
      </trkpt>
      <trkpt lat="45.91767" lon="6.50586">
        <ele>2150</ele>
        <time>2014-02-12T12:01:44.000Z</time>
      </trkpt>
      <trkpt lat="45.91767" lon="6.50587">
        <ele>2150.1999511719</ele>
        <time>2014-02-12T12:01:45.000Z</time>
      </trkpt>
      <trkpt lat="45.91767" lon="6.50588">
        <ele>2150.6000976562</ele>
        <time>2014-02-12T12:01:46.000Z</time>
      </trkpt>
      <trkpt lat="45.91767" lon="6.50588">
        <ele>2151</ele>
        <time>2014-02-12T12:01:47.000Z</time>
      </trkpt>
      <trkpt lat="45.91767" lon="6.50588">
        <ele>2151</ele>
        <time>2014-02-12T12:01:48.000Z</time>
      </trkpt>
      <trkpt lat="45.91767" lon="6.50588">
        <ele>2151</ele>
        <time>2014-02-12T12:01:49.000Z</time>
      </trkpt>
      <trkpt lat="45.91767" lon="6.50588">
        <ele>2151</ele>
        <time>2014-02-12T12:01:50.000Z</time>
      </trkpt>
      <trkpt lat="45.91767" lon="6.50588">
        <ele>2151</ele>
        <time>2014-02-12T12:01:51.000Z</time>
      </trkpt>
      <trkpt lat="45.91767" lon="6.50588">
        <ele>2151</ele>
        <time>2014-02-12T12:01:52.000Z</time>
      </trkpt>
      <trkpt lat="45.91767" lon="6.50588">
        <ele>2151</ele>
        <time>2014-02-12T12:01:53.000Z</time>
      </trkpt>
      <trkpt lat="45.91768" lon="6.50588">
        <ele>2151.1999511719</ele>
        <time>2014-02-12T12:01:54.000Z</time>
      </trkpt>
      <trkpt lat="45.91769" lon="6.50588">
        <ele>2151.6000976562</ele>
        <time>2014-02-12T12:01:55.000Z</time>
      </trkpt>
      <trkpt lat="45.91769" lon="6.50588">
        <ele>2151.8000488281</ele>
        <time>2014-02-12T12:01:56.000Z</time>
      </trkpt>
      <trkpt lat="45.91769" lon="6.50588">
        <ele>2151.8000488281</ele>
        <time>2014-02-12T12:01:57.000Z</time>
      </trkpt>
      <trkpt lat="45.9177" lon="6.50588">
        <ele>2152.1999511719</ele>
        <time>2014-02-12T12:01:58.000Z</time>
      </trkpt>
      <trkpt lat="45.91771" lon="6.50588">
        <ele>2152.8000488281</ele>
        <time>2014-02-12T12:01:59.000Z</time>
      </trkpt>
      <trkpt lat="45.91772" lon="6.50588">
        <ele>2153.6000976562</ele>
        <time>2014-02-12T12:02:00.000Z</time>
      </trkpt>
      <trkpt lat="45.91773" lon="6.50588">
        <ele>2154.1999511719</ele>
        <time>2014-02-12T12:02:01.000Z</time>
      </trkpt>
      <trkpt lat="45.91774" lon="6.50588">
        <ele>2154.3999023438</ele>
        <time>2014-02-12T12:02:02.000Z</time>
      </trkpt>
      <trkpt lat="45.91775" lon="6.50588">
        <ele>2154.8000488281</ele>
        <time>2014-02-12T12:02:03.000Z</time>
      </trkpt>
      <trkpt lat="45.91775" lon="6.50589">
        <ele>2155.3999023438</ele>
        <time>2014-02-12T12:02:04.000Z</time>
      </trkpt>
      <trkpt lat="45.91776" lon="6.50589">
        <ele>2155.8000488281</ele>
        <time>2014-02-12T12:02:05.000Z</time>
      </trkpt>
      <trkpt lat="45.91777" lon="6.50589">
        <ele>2156.1999511719</ele>
        <time>2014-02-12T12:02:06.000Z</time>
      </trkpt>
      <trkpt lat="45.91777" lon="6.50589">
        <ele>2156.1999511719</ele>
        <time>2014-02-12T12:02:07.000Z</time>
      </trkpt>
      <trkpt lat="45.91777" lon="6.50589">
        <ele>2156.3999023438</ele>
        <time>2014-02-12T12:02:08.000Z</time>
      </trkpt>
      <trkpt lat="45.91777" lon="6.50589">
        <ele>2156.3999023438</ele>
        <time>2014-02-12T12:02:09.000Z</time>
      </trkpt>
      <trkpt lat="45.91777" lon="6.50589">
        <ele>2156.3999023438</ele>
        <time>2014-02-12T12:02:10.000Z</time>
      </trkpt>
      <trkpt lat="45.91778" lon="6.50589">
        <ele>2156.6000976562</ele>
        <time>2014-02-12T12:02:11.000Z</time>
      </trkpt>
      <trkpt lat="45.91778" lon="6.50589">
        <ele>2156.6000976562</ele>
        <time>2014-02-12T12:02:12.000Z</time>
      </trkpt>
      <trkpt lat="45.91778" lon="6.50589">
        <ele>2157</ele>
        <time>2014-02-12T12:02:13.000Z</time>
      </trkpt>
      <trkpt lat="45.91778" lon="6.50589">
        <ele>2157</ele>
        <time>2014-02-12T12:02:14.000Z</time>
      </trkpt>
      <trkpt lat="45.91779" lon="6.50589">
        <ele>2157.1999511719</ele>
        <time>2014-02-12T12:02:15.000Z</time>
      </trkpt>
      <trkpt lat="45.91779" lon="6.50589">
        <ele>2157.1999511719</ele>
        <time>2014-02-12T12:02:16.000Z</time>
      </trkpt>
      <trkpt lat="45.91779" lon="6.50589">
        <ele>2157.1999511719</ele>
        <time>2014-02-12T12:02:17.000Z</time>
      </trkpt>
      <trkpt lat="45.9178" lon="6.50589">
        <ele>2157.6000976562</ele>
        <time>2014-02-12T12:02:18.000Z</time>
      </trkpt>
      <trkpt lat="45.9178" lon="6.50589">
        <ele>2157.6000976562</ele>
        <time>2014-02-12T12:02:19.000Z</time>
      </trkpt>
      <trkpt lat="45.9178" lon="6.50589">
        <ele>2157.6000976562</ele>
        <time>2014-02-12T12:02:20.000Z</time>
      </trkpt>
      <trkpt lat="45.9178" lon="6.50589">
        <ele>2157.6000976562</ele>
        <time>2014-02-12T12:02:21.000Z</time>
      </trkpt>
      <trkpt lat="45.9178" lon="6.50589">
        <ele>2157.6000976562</ele>
        <time>2014-02-12T12:02:22.000Z</time>
      </trkpt>
      <trkpt lat="45.9178" lon="6.50589">
        <ele>2157.6000976562</ele>
        <time>2014-02-12T12:02:23.000Z</time>
      </trkpt>
      <trkpt lat="45.91781" lon="6.50589">
        <ele>2158.3999023438</ele>
        <time>2014-02-12T12:02:24.000Z</time>
      </trkpt>
      <trkpt lat="45.91781" lon="6.50589">
        <ele>2158.3999023438</ele>
        <time>2014-02-12T12:02:25.000Z</time>
      </trkpt>
      <trkpt lat="45.91781" lon="6.50589">
        <ele>2158.3999023438</ele>
        <time>2014-02-12T12:02:26.000Z</time>
      </trkpt>
      <trkpt lat="45.91781" lon="6.50589">
        <ele>2158.3999023438</ele>
        <time>2014-02-12T12:02:27.000Z</time>
      </trkpt>
      <trkpt lat="45.91781" lon="6.50589">
        <ele>2158.3999023438</ele>
        <time>2014-02-12T12:02:28.000Z</time>
      </trkpt>
      <trkpt lat="45.91781" lon="6.50589">
        <ele>2158.3999023438</ele>
        <time>2014-02-12T12:02:29.000Z</time>
      </trkpt>
      <trkpt lat="45.91781" lon="6.50589">
        <ele>2158.3999023438</ele>
        <time>2014-02-12T12:02:30.000Z</time>
      </trkpt>
      <trkpt lat="45.91781" lon="6.50589">
        <ele>2158.3999023438</ele>
        <time>2014-02-12T12:02:31.000Z</time>
      </trkpt>
      <trkpt lat="45.91781" lon="6.50589">
        <ele>2158.3999023438</ele>
        <time>2014-02-12T12:02:32.000Z</time>
      </trkpt>
      <trkpt lat="45.91781" lon="6.50589">
        <ele>2158.3999023438</ele>
        <time>2014-02-12T12:02:33.000Z</time>
      </trkpt>
      <trkpt lat="45.9178" lon="6.50591">
        <ele>2159</ele>
        <time>2014-02-12T12:02:35.000Z</time>
      </trkpt>
      <trkpt lat="45.9178" lon="6.50591">
        <ele>2159</ele>
        <time>2014-02-12T12:02:36.000Z</time>
      </trkpt>
      <trkpt lat="45.9178" lon="6.50592">
        <ele>2159.1999511719</ele>
        <time>2014-02-12T12:02:37.000Z</time>
      </trkpt>
      <trkpt lat="45.9178" lon="6.50593">
        <ele>2159.3999023438</ele>
        <time>2014-02-12T12:02:38.000Z</time>
      </trkpt>
      <trkpt lat="45.91779" lon="6.50593">
        <ele>2159.3999023438</ele>
        <time>2014-02-12T12:02:39.000Z</time>
      </trkpt>
      <trkpt lat="45.91779" lon="6.50594">
        <ele>2159.3999023438</ele>
        <time>2014-02-12T12:02:40.000Z</time>
      </trkpt>
      <trkpt lat="45.91778" lon="6.50595">
        <ele>2159.3999023438</ele>
        <time>2014-02-12T12:02:41.000Z</time>
      </trkpt>
      <trkpt lat="45.91778" lon="6.50595">
        <ele>2159.6000976562</ele>
        <time>2014-02-12T12:02:42.000Z</time>
      </trkpt>
      <trkpt lat="45.91778" lon="6.50596">
        <ele>2159.8000488281</ele>
        <time>2014-02-12T12:02:43.000Z</time>
      </trkpt>
      <trkpt lat="45.91777" lon="6.50597">
        <ele>2160</ele>
        <time>2014-02-12T12:02:44.000Z</time>
      </trkpt>
      <trkpt lat="45.91777" lon="6.50598">
        <ele>2160.1999511719</ele>
        <time>2014-02-12T12:02:45.000Z</time>
      </trkpt>
      <trkpt lat="45.91777" lon="6.50598">
        <ele>2160.3999023438</ele>
        <time>2014-02-12T12:02:46.000Z</time>
      </trkpt>
      <trkpt lat="45.91777" lon="6.50599">
        <ele>2160.6000976562</ele>
        <time>2014-02-12T12:02:47.000Z</time>
      </trkpt>
      <trkpt lat="45.91776" lon="6.506">
        <ele>2160.8000488281</ele>
        <time>2014-02-12T12:02:48.000Z</time>
      </trkpt>
      <trkpt lat="45.91776" lon="6.50601">
        <ele>2160.8000488281</ele>
        <time>2014-02-12T12:02:49.000Z</time>
      </trkpt>
      <trkpt lat="45.91775" lon="6.50601">
        <ele>2160.8000488281</ele>
        <time>2014-02-12T12:02:50.000Z</time>
      </trkpt>
      <trkpt lat="45.91774" lon="6.50602">
        <ele>2160.8000488281</ele>
        <time>2014-02-12T12:02:51.000Z</time>
      </trkpt>
      <trkpt lat="45.91774" lon="6.50603">
        <ele>2160.8000488281</ele>
        <time>2014-02-12T12:02:52.000Z</time>
      </trkpt>
      <trkpt lat="45.91773" lon="6.50604">
        <ele>2160.8000488281</ele>
        <time>2014-02-12T12:02:53.000Z</time>
      </trkpt>
      <trkpt lat="45.91773" lon="6.50604">
        <ele>2161</ele>
        <time>2014-02-12T12:02:54.000Z</time>
      </trkpt>
      <trkpt lat="45.91773" lon="6.50605">
        <ele>2161.1999511719</ele>
        <time>2014-02-12T12:02:55.000Z</time>
      </trkpt>
      <trkpt lat="45.91772" lon="6.50606">
        <ele>2161.3999023438</ele>
        <time>2014-02-12T12:02:56.000Z</time>
      </trkpt>
      <trkpt lat="45.91771" lon="6.50607">
        <ele>2161.3999023438</ele>
        <time>2014-02-12T12:02:57.000Z</time>
      </trkpt>
      <trkpt lat="45.91771" lon="6.50608">
        <ele>2161.3999023438</ele>
        <time>2014-02-12T12:02:58.000Z</time>
      </trkpt>
      <trkpt lat="45.9177" lon="6.50608">
        <ele>2161.3999023438</ele>
        <time>2014-02-12T12:02:59.000Z</time>
      </trkpt>
      <trkpt lat="45.9177" lon="6.50608">
        <ele>2161.3999023438</ele>
        <time>2014-02-12T12:03:00.000Z</time>
      </trkpt>
      <trkpt lat="45.9177" lon="6.50608">
        <ele>2161.1999511719</ele>
        <time>2014-02-12T12:03:01.000Z</time>
      </trkpt>
      <trkpt lat="45.91769" lon="6.50609">
        <ele>2161</ele>
        <time>2014-02-12T12:03:02.000Z</time>
      </trkpt>
      <trkpt lat="45.91769" lon="6.50609">
        <ele>2161</ele>
        <time>2014-02-12T12:03:03.000Z</time>
      </trkpt>
      <trkpt lat="45.91769" lon="6.50609">
        <ele>2161</ele>
        <time>2014-02-12T12:03:04.000Z</time>
      </trkpt>
      <trkpt lat="45.91769" lon="6.50609">
        <ele>2161</ele>
        <time>2014-02-12T12:03:05.000Z</time>
      </trkpt>
      <trkpt lat="45.91769" lon="6.50609">
        <ele>2161</ele>
        <time>2014-02-12T12:03:06.000Z</time>
      </trkpt>
      <trkpt lat="45.91769" lon="6.50609">
        <ele>2161</ele>
        <time>2014-02-12T12:03:07.000Z</time>
      </trkpt>
      <trkpt lat="45.91769" lon="6.50609">
        <ele>2161</ele>
        <time>2014-02-12T12:03:08.000Z</time>
      </trkpt>
      <trkpt lat="45.9177" lon="6.5061">
        <ele>2162</ele>
        <time>2014-02-12T12:03:09.000Z</time>
      </trkpt>
      <trkpt lat="45.9177" lon="6.5061">
        <ele>2162</ele>
        <time>2014-02-12T12:03:10.000Z</time>
      </trkpt>
      <trkpt lat="45.91771" lon="6.5061">
        <ele>2162.6000976562</ele>
        <time>2014-02-12T12:03:11.000Z</time>
      </trkpt>
      <trkpt lat="45.91772" lon="6.50611">
        <ele>2163.8000488281</ele>
        <time>2014-02-12T12:03:12.000Z</time>
      </trkpt>
      <trkpt lat="45.91772" lon="6.50611">
        <ele>2163.8000488281</ele>
        <time>2014-02-12T12:03:13.000Z</time>
      </trkpt>
      <trkpt lat="45.91774" lon="6.50611">
        <ele>2164.6000976562</ele>
        <time>2014-02-12T12:03:14.000Z</time>
      </trkpt>
      <trkpt lat="45.91775" lon="6.50612">
        <ele>2165.3999023438</ele>
        <time>2014-02-12T12:03:15.000Z</time>
      </trkpt>
      <trkpt lat="45.91776" lon="6.50612">
        <ele>2166</ele>
        <time>2014-02-12T12:03:16.000Z</time>
      </trkpt>
      <trkpt lat="45.91776" lon="6.50612">
        <ele>2166</ele>
        <time>2014-02-12T12:03:17.000Z</time>
      </trkpt>
      <trkpt lat="45.91776" lon="6.50612">
        <ele>2166</ele>
        <time>2014-02-12T12:03:18.000Z</time>
      </trkpt>
      <trkpt lat="45.91776" lon="6.50613">
        <ele>2166.3999023438</ele>
        <time>2014-02-12T12:03:19.000Z</time>
      </trkpt>
      <trkpt lat="45.91776" lon="6.50613">
        <ele>2166.3999023438</ele>
        <time>2014-02-12T12:03:20.000Z</time>
      </trkpt>
      <trkpt lat="45.91777" lon="6.50612">
        <ele>2166.8000488281</ele>
        <time>2014-02-12T12:03:21.000Z</time>
      </trkpt>
      <trkpt lat="45.91777" lon="6.50612">
        <ele>2166.8000488281</ele>
        <time>2014-02-12T12:03:22.000Z</time>
      </trkpt>
      <trkpt lat="45.91778" lon="6.50612">
        <ele>2167.1999511719</ele>
        <time>2014-02-12T12:03:23.000Z</time>
      </trkpt>
      <trkpt lat="45.91778" lon="6.50612">
        <ele>2167.1999511719</ele>
        <time>2014-02-12T12:03:24.000Z</time>
      </trkpt>
      <trkpt lat="45.91778" lon="6.50612">
        <ele>2167.1999511719</ele>
        <time>2014-02-12T12:03:25.000Z</time>
      </trkpt>
      <trkpt lat="45.91778" lon="6.50612">
        <ele>2167.1999511719</ele>
        <time>2014-02-12T12:03:26.000Z</time>
      </trkpt>
      <trkpt lat="45.91778" lon="6.50612">
        <ele>2167.1999511719</ele>
        <time>2014-02-12T12:03:27.000Z</time>
      </trkpt>
      <trkpt lat="45.91778" lon="6.50612">
        <ele>2167.1999511719</ele>
        <time>2014-02-12T12:03:28.000Z</time>
      </trkpt>
      <trkpt lat="45.91779" lon="6.50612">
        <ele>2167.3999023438</ele>
        <time>2014-02-12T12:03:29.000Z</time>
      </trkpt>
      <trkpt lat="45.91779" lon="6.50612">
        <ele>2167.3999023438</ele>
        <time>2014-02-12T12:03:30.000Z</time>
      </trkpt>
      <trkpt lat="45.91779" lon="6.50612">
        <ele>2167.3999023438</ele>
        <time>2014-02-12T12:03:31.000Z</time>
      </trkpt>
      <trkpt lat="45.91779" lon="6.50612">
        <ele>2167.3999023438</ele>
        <time>2014-02-12T12:03:32.000Z</time>
      </trkpt>
      <trkpt lat="45.91779" lon="6.50612">
        <ele>2167.3999023438</ele>
        <time>2014-02-12T12:03:33.000Z</time>
      </trkpt>
      <trkpt lat="45.9178" lon="6.50612">
        <ele>2168</ele>
        <time>2014-02-12T12:03:34.000Z</time>
      </trkpt>
      <trkpt lat="45.9178" lon="6.50612">
        <ele>2168</ele>
        <time>2014-02-12T12:03:35.000Z</time>
      </trkpt>
      <trkpt lat="45.91781" lon="6.50612">
        <ele>2168.8000488281</ele>
        <time>2014-02-12T12:03:36.000Z</time>
      </trkpt>
      <trkpt lat="45.91781" lon="6.50612">
        <ele>2168.8000488281</ele>
        <time>2014-02-12T12:03:37.000Z</time>
      </trkpt>
      <trkpt lat="45.91781" lon="6.50612">
        <ele>2168.8000488281</ele>
        <time>2014-02-12T12:03:38.000Z</time>
      </trkpt>
      <trkpt lat="45.91781" lon="6.50612">
        <ele>2168.8000488281</ele>
        <time>2014-02-12T12:03:39.000Z</time>
      </trkpt>
      <trkpt lat="45.91781" lon="6.50612">
        <ele>2168.8000488281</ele>
        <time>2014-02-12T12:03:40.000Z</time>
      </trkpt>
      <trkpt lat="45.91781" lon="6.50612">
        <ele>2168.8000488281</ele>
        <time>2014-02-12T12:03:41.000Z</time>
      </trkpt>
      <trkpt lat="45.91781" lon="6.50612">
        <ele>2168.8000488281</ele>
        <time>2014-02-12T12:03:42.000Z</time>
      </trkpt>
      <trkpt lat="45.91781" lon="6.50612">
        <ele>2168.8000488281</ele>
        <time>2014-02-12T12:03:43.000Z</time>
      </trkpt>
      <trkpt lat="45.91781" lon="6.50612">
        <ele>2168.8000488281</ele>
        <time>2014-02-12T12:03:44.000Z</time>
      </trkpt>
      <trkpt lat="45.91783" lon="6.50612">
        <ele>2169.3999023438</ele>
        <time>2014-02-12T12:03:45.000Z</time>
      </trkpt>
      <trkpt lat="45.91782" lon="6.50613">
        <ele>2169.3999023438</ele>
        <time>2014-02-12T12:03:46.000Z</time>
      </trkpt>
      <trkpt lat="45.91782" lon="6.50613">
        <ele>2169.6000976562</ele>
        <time>2014-02-12T12:03:47.000Z</time>
      </trkpt>
      <trkpt lat="45.91782" lon="6.50613">
        <ele>2169.6000976562</ele>
        <time>2014-02-12T12:03:48.000Z</time>
      </trkpt>
      <trkpt lat="45.91782" lon="6.50614">
        <ele>2169.8000488281</ele>
        <time>2014-02-12T12:03:49.000Z</time>
      </trkpt>
      <trkpt lat="45.91781" lon="6.50614">
        <ele>2169.8000488281</ele>
        <time>2014-02-12T12:03:50.000Z</time>
      </trkpt>
      <trkpt lat="45.91781" lon="6.50615">
        <ele>2169.8000488281</ele>
        <time>2014-02-12T12:03:51.000Z</time>
      </trkpt>
      <trkpt lat="45.91781" lon="6.50615">
        <ele>2170</ele>
        <time>2014-02-12T12:03:52.000Z</time>
      </trkpt>
      <trkpt lat="45.91781" lon="6.50616">
        <ele>2170.1999511719</ele>
        <time>2014-02-12T12:03:53.000Z</time>
      </trkpt>
      <trkpt lat="45.91781" lon="6.50617">
        <ele>2170.6000976562</ele>
        <time>2014-02-12T12:03:54.000Z</time>
      </trkpt>
      <trkpt lat="45.91781" lon="6.50617">
        <ele>2170.8000488281</ele>
        <time>2014-02-12T12:03:55.000Z</time>
      </trkpt>
      <trkpt lat="45.91781" lon="6.50617">
        <ele>2171</ele>
        <time>2014-02-12T12:03:56.000Z</time>
      </trkpt>
      <trkpt lat="45.91781" lon="6.50618">
        <ele>2171.1999511719</ele>
        <time>2014-02-12T12:03:57.000Z</time>
      </trkpt>
      <trkpt lat="45.91781" lon="6.50618">
        <ele>2171.1999511719</ele>
        <time>2014-02-12T12:03:58.000Z</time>
      </trkpt>
      <trkpt lat="45.9178" lon="6.50618">
        <ele>2171.1999511719</ele>
        <time>2014-02-12T12:03:59.000Z</time>
      </trkpt>
      <trkpt lat="45.9178" lon="6.50619">
        <ele>2171</ele>
        <time>2014-02-12T12:04:00.000Z</time>
      </trkpt>
      <trkpt lat="45.91779" lon="6.50619">
        <ele>2171</ele>
        <time>2014-02-12T12:04:01.000Z</time>
      </trkpt>
      <trkpt lat="45.91779" lon="6.5062">
        <ele>2171</ele>
        <time>2014-02-12T12:04:02.000Z</time>
      </trkpt>
      <trkpt lat="45.91778" lon="6.5062">
        <ele>2171</ele>
        <time>2014-02-12T12:04:03.000Z</time>
      </trkpt>
      <trkpt lat="45.91777" lon="6.50621">
        <ele>2170.8000488281</ele>
        <time>2014-02-12T12:04:04.000Z</time>
      </trkpt>
      <trkpt lat="45.91777" lon="6.50621">
        <ele>2171</ele>
        <time>2014-02-12T12:04:05.000Z</time>
      </trkpt>
      <trkpt lat="45.91777" lon="6.50622">
        <ele>2171.1999511719</ele>
        <time>2014-02-12T12:04:06.000Z</time>
      </trkpt>
      <trkpt lat="45.91776" lon="6.50623">
        <ele>2171.3999023438</ele>
        <time>2014-02-12T12:04:07.000Z</time>
      </trkpt>
      <trkpt lat="45.91776" lon="6.50623">
        <ele>2171.6000976562</ele>
        <time>2014-02-12T12:04:08.000Z</time>
      </trkpt>
      <trkpt lat="45.91776" lon="6.50624">
        <ele>2171.8000488281</ele>
        <time>2014-02-12T12:04:09.000Z</time>
      </trkpt>
      <trkpt lat="45.91775" lon="6.50624">
        <ele>2171.8000488281</ele>
        <time>2014-02-12T12:04:10.000Z</time>
      </trkpt>
      <trkpt lat="45.91775" lon="6.50624">
        <ele>2171.8000488281</ele>
        <time>2014-02-12T12:04:11.000Z</time>
      </trkpt>
      <trkpt lat="45.91775" lon="6.50624">
        <ele>2171.6000976562</ele>
        <time>2014-02-12T12:04:12.000Z</time>
      </trkpt>
      <trkpt lat="45.91774" lon="6.50625">
        <ele>2171.8000488281</ele>
        <time>2014-02-12T12:04:13.000Z</time>
      </trkpt>
      <trkpt lat="45.91774" lon="6.50626">
        <ele>2172</ele>
        <time>2014-02-12T12:04:14.000Z</time>
      </trkpt>
      <trkpt lat="45.91773" lon="6.50626">
        <ele>2172</ele>
        <time>2014-02-12T12:04:15.000Z</time>
      </trkpt>
      <trkpt lat="45.91773" lon="6.50626">
        <ele>2172</ele>
        <time>2014-02-12T12:04:16.000Z</time>
      </trkpt>
      <trkpt lat="45.91773" lon="6.50626">
        <ele>2172</ele>
        <time>2014-02-12T12:04:17.000Z</time>
      </trkpt>
      <trkpt lat="45.91772" lon="6.50627">
        <ele>2172</ele>
        <time>2014-02-12T12:04:18.000Z</time>
      </trkpt>
      <trkpt lat="45.91771" lon="6.50628">
        <ele>2172</ele>
        <time>2014-02-12T12:04:19.000Z</time>
      </trkpt>
      <trkpt lat="45.91771" lon="6.50628">
        <ele>2172.1999511719</ele>
        <time>2014-02-12T12:04:20.000Z</time>
      </trkpt>
      <trkpt lat="45.91771" lon="6.50628">
        <ele>2172.1999511719</ele>
        <time>2014-02-12T12:04:21.000Z</time>
      </trkpt>
      <trkpt lat="45.9177" lon="6.50629">
        <ele>2172.3999023438</ele>
        <time>2014-02-12T12:04:22.000Z</time>
      </trkpt>
      <trkpt lat="45.9177" lon="6.50629">
        <ele>2172.3999023438</ele>
        <time>2014-02-12T12:04:23.000Z</time>
      </trkpt>
      <trkpt lat="45.9177" lon="6.50629">
        <ele>2172.3999023438</ele>
        <time>2014-02-12T12:04:24.000Z</time>
      </trkpt>
      <trkpt lat="45.9177" lon="6.50629">
        <ele>2172.3999023438</ele>
        <time>2014-02-12T12:04:25.000Z</time>
      </trkpt>
      <trkpt lat="45.9177" lon="6.50629">
        <ele>2172.3999023438</ele>
        <time>2014-02-12T12:04:26.000Z</time>
      </trkpt>
      <trkpt lat="45.9177" lon="6.50629">
        <ele>2172.3999023438</ele>
        <time>2014-02-12T12:04:27.000Z</time>
      </trkpt>
      <trkpt lat="45.9177" lon="6.50629">
        <ele>2172.3999023438</ele>
        <time>2014-02-12T12:04:28.000Z</time>
      </trkpt>
      <trkpt lat="45.9177" lon="6.50629">
        <ele>2172.3999023438</ele>
        <time>2014-02-12T12:04:29.000Z</time>
      </trkpt>
      <trkpt lat="45.9177" lon="6.50629">
        <ele>2172.3999023438</ele>
        <time>2014-02-12T12:04:30.000Z</time>
      </trkpt>
      <trkpt lat="45.9177" lon="6.50629">
        <ele>2172.3999023438</ele>
        <time>2014-02-12T12:04:31.000Z</time>
      </trkpt>
      <trkpt lat="45.91771" lon="6.50629">
        <ele>2173</ele>
        <time>2014-02-12T12:04:32.000Z</time>
      </trkpt>
      <trkpt lat="45.91772" lon="6.5063">
        <ele>2173.8000488281</ele>
        <time>2014-02-12T12:04:33.000Z</time>
      </trkpt>
      <trkpt lat="45.91773" lon="6.50631">
        <ele>2174.3999023438</ele>
        <time>2014-02-12T12:04:34.000Z</time>
      </trkpt>
      <trkpt lat="45.91774" lon="6.50631">
        <ele>2175</ele>
        <time>2014-02-12T12:04:35.000Z</time>
      </trkpt>
      <trkpt lat="45.91774" lon="6.50631">
        <ele>2175</ele>
        <time>2014-02-12T12:04:36.000Z</time>
      </trkpt>
      <trkpt lat="45.91775" lon="6.50631">
        <ele>2175.8000488281</ele>
        <time>2014-02-12T12:04:37.000Z</time>
      </trkpt>
      <trkpt lat="45.91776" lon="6.50632">
        <ele>2176.3999023438</ele>
        <time>2014-02-12T12:04:38.000Z</time>
      </trkpt>
      <trkpt lat="45.91777" lon="6.50633">
        <ele>2177.1999511719</ele>
        <time>2014-02-12T12:04:39.000Z</time>
      </trkpt>
      <trkpt lat="45.91778" lon="6.50633">
        <ele>2177.8000488281</ele>
        <time>2014-02-12T12:04:40.000Z</time>
      </trkpt>
      <trkpt lat="45.91778" lon="6.50633">
        <ele>2177.8000488281</ele>
        <time>2014-02-12T12:04:41.000Z</time>
      </trkpt>
      <trkpt lat="45.91779" lon="6.50633">
        <ele>2178.3999023438</ele>
        <time>2014-02-12T12:04:42.000Z</time>
      </trkpt>
      <trkpt lat="45.91779" lon="6.50633">
        <ele>2178.3999023438</ele>
        <time>2014-02-12T12:04:43.000Z</time>
      </trkpt>
      <trkpt lat="45.91779" lon="6.50633">
        <ele>2178.3999023438</ele>
        <time>2014-02-12T12:04:44.000Z</time>
      </trkpt>
      <trkpt lat="45.9178" lon="6.50633">
        <ele>2179</ele>
        <time>2014-02-12T12:04:45.000Z</time>
      </trkpt>
      <trkpt lat="45.91782" lon="6.50634">
        <ele>2179.6000976562</ele>
        <time>2014-02-12T12:04:46.000Z</time>
      </trkpt>
      <trkpt lat="45.91783" lon="6.50634">
        <ele>2180</ele>
        <time>2014-02-12T12:04:47.000Z</time>
      </trkpt>
      <trkpt lat="45.91784" lon="6.50634">
        <ele>2180.8000488281</ele>
        <time>2014-02-12T12:04:48.000Z</time>
      </trkpt>
      <trkpt lat="45.91784" lon="6.50634">
        <ele>2180.8000488281</ele>
        <time>2014-02-12T12:04:49.000Z</time>
      </trkpt>
      <trkpt lat="45.91785" lon="6.50634">
        <ele>2181.1999511719</ele>
        <time>2014-02-12T12:04:50.000Z</time>
      </trkpt>
      <trkpt lat="45.91786" lon="6.50634">
        <ele>2181.6000976562</ele>
        <time>2014-02-12T12:04:51.000Z</time>
      </trkpt>
      <trkpt lat="45.91787" lon="6.50634">
        <ele>2182.1999511719</ele>
        <time>2014-02-12T12:04:52.000Z</time>
      </trkpt>
      <trkpt lat="45.91787" lon="6.50634">
        <ele>2182.1999511719</ele>
        <time>2014-02-12T12:04:54.000Z</time>
      </trkpt>
      <trkpt lat="45.91787" lon="6.50634">
        <ele>2182.1999511719</ele>
        <time>2014-02-12T12:04:55.000Z</time>
      </trkpt>
      <trkpt lat="45.91787" lon="6.50634">
        <ele>2182.1999511719</ele>
        <time>2014-02-12T12:04:56.000Z</time>
      </trkpt>
      <trkpt lat="45.91787" lon="6.50634">
        <ele>2182.1999511719</ele>
        <time>2014-02-12T12:04:57.000Z</time>
      </trkpt>
      <trkpt lat="45.91787" lon="6.50634">
        <ele>2182.1999511719</ele>
        <time>2014-02-12T12:04:58.000Z</time>
      </trkpt>
      <trkpt lat="45.91787" lon="6.50634">
        <ele>2182.1999511719</ele>
        <time>2014-02-12T12:04:59.000Z</time>
      </trkpt>
      <trkpt lat="45.91788" lon="6.50633">
        <ele>2182.1999511719</ele>
        <time>2014-02-12T12:05:00.000Z</time>
      </trkpt>
      <trkpt lat="45.91788" lon="6.50633">
        <ele>2182.1999511719</ele>
        <time>2014-02-12T12:05:01.000Z</time>
      </trkpt>
      <trkpt lat="45.91788" lon="6.50634">
        <ele>2182.1999511719</ele>
        <time>2014-02-12T12:05:03.000Z</time>
      </trkpt>
      <trkpt lat="45.91788" lon="6.50634">
        <ele>2182.1999511719</ele>
        <time>2014-02-12T12:05:04.000Z</time>
      </trkpt>
      <trkpt lat="45.91787" lon="6.50635">
        <ele>2182.3999023438</ele>
        <time>2014-02-12T12:05:05.000Z</time>
      </trkpt>
      <trkpt lat="45.91786" lon="6.50636">
        <ele>2182.8000488281</ele>
        <time>2014-02-12T12:05:06.000Z</time>
      </trkpt>
      <trkpt lat="45.91786" lon="6.50636">
        <ele>2182.8000488281</ele>
        <time>2014-02-12T12:05:07.000Z</time>
      </trkpt>
      <trkpt lat="45.91786" lon="6.50637">
        <ele>2183.1999511719</ele>
        <time>2014-02-12T12:05:08.000Z</time>
      </trkpt>
      <trkpt lat="45.91785" lon="6.50638">
        <ele>2183.3999023438</ele>
        <time>2014-02-12T12:05:09.000Z</time>
      </trkpt>
      <trkpt lat="45.91784" lon="6.50639">
        <ele>2183.3999023438</ele>
        <time>2014-02-12T12:05:10.000Z</time>
      </trkpt>
      <trkpt lat="45.91783" lon="6.5064">
        <ele>2183.6000976562</ele>
        <time>2014-02-12T12:05:11.000Z</time>
      </trkpt>
      <trkpt lat="45.91782" lon="6.50641">
        <ele>2183.8000488281</ele>
        <time>2014-02-12T12:05:12.000Z</time>
      </trkpt>
      <trkpt lat="45.91781" lon="6.50642">
        <ele>2184</ele>
        <time>2014-02-12T12:05:13.000Z</time>
      </trkpt>
      <trkpt lat="45.9178" lon="6.50643">
        <ele>2184.1999511719</ele>
        <time>2014-02-12T12:05:14.000Z</time>
      </trkpt>
      <trkpt lat="45.9178" lon="6.50644">
        <ele>2184.3999023438</ele>
        <time>2014-02-12T12:05:15.000Z</time>
      </trkpt>
      <trkpt lat="45.91778" lon="6.50645">
        <ele>2184.6000976562</ele>
        <time>2014-02-12T12:05:16.000Z</time>
      </trkpt>
      <trkpt lat="45.91778" lon="6.50645">
        <ele>2184.8000488281</ele>
        <time>2014-02-12T12:05:17.000Z</time>
      </trkpt>
      <trkpt lat="45.91777" lon="6.50646">
        <ele>2185</ele>
        <time>2014-02-12T12:05:18.000Z</time>
      </trkpt>
      <trkpt lat="45.91776" lon="6.50647">
        <ele>2185.1999511719</ele>
        <time>2014-02-12T12:05:19.000Z</time>
      </trkpt>
      <trkpt lat="45.91776" lon="6.50648">
        <ele>2185.3999023438</ele>
        <time>2014-02-12T12:05:20.000Z</time>
      </trkpt>
      <trkpt lat="45.91776" lon="6.50648">
        <ele>2185.6000976562</ele>
        <time>2014-02-12T12:05:21.000Z</time>
      </trkpt>
      <trkpt lat="45.91776" lon="6.50648">
        <ele>2185.6000976562</ele>
        <time>2014-02-12T12:05:22.000Z</time>
      </trkpt>
      <trkpt lat="45.91776" lon="6.50648">
        <ele>2185.6000976562</ele>
        <time>2014-02-12T12:05:23.000Z</time>
      </trkpt>
      <trkpt lat="45.91776" lon="6.50648">
        <ele>2185.6000976562</ele>
        <time>2014-02-12T12:05:24.000Z</time>
      </trkpt>
      <trkpt lat="45.91776" lon="6.50648">
        <ele>2185.6000976562</ele>
        <time>2014-02-12T12:05:25.000Z</time>
      </trkpt>
      <trkpt lat="45.91776" lon="6.50648">
        <ele>2185.6000976562</ele>
        <time>2014-02-12T12:05:26.000Z</time>
      </trkpt>
      <trkpt lat="45.91777" lon="6.50648">
        <ele>2185.6000976562</ele>
        <time>2014-02-12T12:05:27.000Z</time>
      </trkpt>
      <trkpt lat="45.91777" lon="6.50648">
        <ele>2185.6000976562</ele>
        <time>2014-02-12T12:05:28.000Z</time>
      </trkpt>
      <trkpt lat="45.91777" lon="6.50648">
        <ele>2186.1999511719</ele>
        <time>2014-02-12T12:05:29.000Z</time>
      </trkpt>
      <trkpt lat="45.91777" lon="6.50648">
        <ele>2186.1999511719</ele>
        <time>2014-02-12T12:05:30.000Z</time>
      </trkpt>
      <trkpt lat="45.91777" lon="6.50648">
        <ele>2186.1999511719</ele>
        <time>2014-02-12T12:05:31.000Z</time>
      </trkpt>
      <trkpt lat="45.91779" lon="6.50649">
        <ele>2187.3999023438</ele>
        <time>2014-02-12T12:05:32.000Z</time>
      </trkpt>
      <trkpt lat="45.9178" lon="6.5065">
        <ele>2188.1999511719</ele>
        <time>2014-02-12T12:05:33.000Z</time>
      </trkpt>
      <trkpt lat="45.91781" lon="6.5065">
        <ele>2188.8000488281</ele>
        <time>2014-02-12T12:05:34.000Z</time>
      </trkpt>
      <trkpt lat="45.91781" lon="6.5065">
        <ele>2188.8000488281</ele>
        <time>2014-02-12T12:05:35.000Z</time>
      </trkpt>
      <trkpt lat="45.91781" lon="6.5065">
        <ele>2188.8000488281</ele>
        <time>2014-02-12T12:05:36.000Z</time>
      </trkpt>
      <trkpt lat="45.91781" lon="6.5065">
        <ele>2188.8000488281</ele>
        <time>2014-02-12T12:05:37.000Z</time>
      </trkpt>
      <trkpt lat="45.91781" lon="6.5065">
        <ele>2188.8000488281</ele>
        <time>2014-02-12T12:05:38.000Z</time>
      </trkpt>
      <trkpt lat="45.91782" lon="6.50651">
        <ele>2189.8000488281</ele>
        <time>2014-02-12T12:05:39.000Z</time>
      </trkpt>
      <trkpt lat="45.91782" lon="6.50651">
        <ele>2189.8000488281</ele>
        <time>2014-02-12T12:05:40.000Z</time>
      </trkpt>
      <trkpt lat="45.91783" lon="6.50651">
        <ele>2190.3999023438</ele>
        <time>2014-02-12T12:05:41.000Z</time>
      </trkpt>
      <trkpt lat="45.91784" lon="6.50652">
        <ele>2191.3999023438</ele>
        <time>2014-02-12T12:05:42.000Z</time>
      </trkpt>
      <trkpt lat="45.91786" lon="6.50653">
        <ele>2192.3999023438</ele>
        <time>2014-02-12T12:05:43.000Z</time>
      </trkpt>
      <trkpt lat="45.91787" lon="6.50654">
        <ele>2193.3999023438</ele>
        <time>2014-02-12T12:05:44.000Z</time>
      </trkpt>
      <trkpt lat="45.91787" lon="6.50654">
        <ele>2193.3999023438</ele>
        <time>2014-02-12T12:05:45.000Z</time>
      </trkpt>
      <trkpt lat="45.91787" lon="6.50654">
        <ele>2193.3999023438</ele>
        <time>2014-02-12T12:05:46.000Z</time>
      </trkpt>
      <trkpt lat="45.91787" lon="6.50654">
        <ele>2193.3999023438</ele>
        <time>2014-02-12T12:05:47.000Z</time>
      </trkpt>
      <trkpt lat="45.91787" lon="6.50654">
        <ele>2193.3999023438</ele>
        <time>2014-02-12T12:05:48.000Z</time>
      </trkpt>
      <trkpt lat="45.91787" lon="6.50654">
        <ele>2193.3999023438</ele>
        <time>2014-02-12T12:05:49.000Z</time>
      </trkpt>
      <trkpt lat="45.91787" lon="6.50654">
        <ele>2193.3999023438</ele>
        <time>2014-02-12T12:05:50.000Z</time>
      </trkpt>
      <trkpt lat="45.91787" lon="6.50654">
        <ele>2193.3999023438</ele>
        <time>2014-02-12T12:05:51.000Z</time>
      </trkpt>
      <trkpt lat="45.91787" lon="6.50654">
        <ele>2193.3999023438</ele>
        <time>2014-02-12T12:05:52.000Z</time>
      </trkpt>
      <trkpt lat="45.91787" lon="6.50654">
        <ele>2193.3999023438</ele>
        <time>2014-02-12T12:05:53.000Z</time>
      </trkpt>
      <trkpt lat="45.91787" lon="6.50654">
        <ele>2193.3999023438</ele>
        <time>2014-02-12T12:05:54.000Z</time>
      </trkpt>
      <trkpt lat="45.91787" lon="6.50654">
        <ele>2193.3999023438</ele>
        <time>2014-02-12T12:05:55.000Z</time>
      </trkpt>
      <trkpt lat="45.91787" lon="6.50654">
        <ele>2193.3999023438</ele>
        <time>2014-02-12T12:05:56.000Z</time>
      </trkpt>
      <trkpt lat="45.91787" lon="6.50654">
        <ele>2193.6000976562</ele>
        <time>2014-02-12T12:05:57.000Z</time>
      </trkpt>
      <trkpt lat="45.91787" lon="6.50655">
        <ele>2193.8000488281</ele>
        <time>2014-02-12T12:05:58.000Z</time>
      </trkpt>
      <trkpt lat="45.91786" lon="6.50655">
        <ele>2194</ele>
        <time>2014-02-12T12:05:59.000Z</time>
      </trkpt>
      <trkpt lat="45.91786" lon="6.50655">
        <ele>2194</ele>
        <time>2014-02-12T12:06:00.000Z</time>
      </trkpt>
      <trkpt lat="45.91786" lon="6.50655">
        <ele>2194.1999511719</ele>
        <time>2014-02-12T12:06:01.000Z</time>
      </trkpt>
      <trkpt lat="45.91786" lon="6.50656">
        <ele>2194.6000976562</ele>
        <time>2014-02-12T12:06:02.000Z</time>
      </trkpt>
      <trkpt lat="45.91786" lon="6.50657">
        <ele>2194.8000488281</ele>
        <time>2014-02-12T12:06:03.000Z</time>
      </trkpt>
      <trkpt lat="45.91785" lon="6.50658">
        <ele>2195</ele>
        <time>2014-02-12T12:06:04.000Z</time>
      </trkpt>
      <trkpt lat="45.91785" lon="6.50658">
        <ele>2195.1999511719</ele>
        <time>2014-02-12T12:06:05.000Z</time>
      </trkpt>
      <trkpt lat="45.91784" lon="6.50658">
        <ele>2195.1999511719</ele>
        <time>2014-02-12T12:06:06.000Z</time>
      </trkpt>
      <trkpt lat="45.91784" lon="6.50659">
        <ele>2195.3999023438</ele>
        <time>2014-02-12T12:06:07.000Z</time>
      </trkpt>
      <trkpt lat="45.91783" lon="6.5066">
        <ele>2195.8000488281</ele>
        <time>2014-02-12T12:06:08.000Z</time>
      </trkpt>
      <trkpt lat="45.91783" lon="6.5066">
        <ele>2196</ele>
        <time>2014-02-12T12:06:09.000Z</time>
      </trkpt>
      <trkpt lat="45.91782" lon="6.50661">
        <ele>2196.1999511719</ele>
        <time>2014-02-12T12:06:10.000Z</time>
      </trkpt>
      <trkpt lat="45.91781" lon="6.50662">
        <ele>2196.3999023438</ele>
        <time>2014-02-12T12:06:11.000Z</time>
      </trkpt>
      <trkpt lat="45.91781" lon="6.50662">
        <ele>2196.3999023438</ele>
        <time>2014-02-12T12:06:12.000Z</time>
      </trkpt>
      <trkpt lat="45.9178" lon="6.50663">
        <ele>2196.6000976562</ele>
        <time>2014-02-12T12:06:13.000Z</time>
      </trkpt>
      <trkpt lat="45.9178" lon="6.50663">
        <ele>2196.8000488281</ele>
        <time>2014-02-12T12:06:14.000Z</time>
      </trkpt>
      <trkpt lat="45.9178" lon="6.50664">
        <ele>2197.1999511719</ele>
        <time>2014-02-12T12:06:15.000Z</time>
      </trkpt>
      <trkpt lat="45.91779" lon="6.50665">
        <ele>2197.3999023438</ele>
        <time>2014-02-12T12:06:16.000Z</time>
      </trkpt>
      <trkpt lat="45.91779" lon="6.50665">
        <ele>2197.6000976562</ele>
        <time>2014-02-12T12:06:17.000Z</time>
      </trkpt>
      <trkpt lat="45.9178" lon="6.50666">
        <ele>2198.8000488281</ele>
        <time>2014-02-12T12:06:19.000Z</time>
      </trkpt>
      <trkpt lat="45.9178" lon="6.50666">
        <ele>2198.8000488281</ele>
        <time>2014-02-12T12:06:20.000Z</time>
      </trkpt>
      <trkpt lat="45.91782" lon="6.50667">
        <ele>2200.1999511719</ele>
        <time>2014-02-12T12:06:21.000Z</time>
      </trkpt>
      <trkpt lat="45.91783" lon="6.50668">
        <ele>2201.1999511719</ele>
        <time>2014-02-12T12:06:22.000Z</time>
      </trkpt>
      <trkpt lat="45.91784" lon="6.50669">
        <ele>2201.8000488281</ele>
        <time>2014-02-12T12:06:23.000Z</time>
      </trkpt>
      <trkpt lat="45.91785" lon="6.50669">
        <ele>2202.3999023438</ele>
        <time>2014-02-12T12:06:24.000Z</time>
      </trkpt>
      <trkpt lat="45.91785" lon="6.50669">
        <ele>2202.3999023438</ele>
        <time>2014-02-12T12:06:25.000Z</time>
      </trkpt>
      <trkpt lat="45.91787" lon="6.5067">
        <ele>2203.8000488281</ele>
        <time>2014-02-12T12:06:26.000Z</time>
      </trkpt>
      <trkpt lat="45.91787" lon="6.5067">
        <ele>2203.8000488281</ele>
        <time>2014-02-12T12:06:27.000Z</time>
      </trkpt>
      <trkpt lat="45.91788" lon="6.5067">
        <ele>2204.3999023438</ele>
        <time>2014-02-12T12:06:28.000Z</time>
      </trkpt>
      <trkpt lat="45.91788" lon="6.5067">
        <ele>2204.3999023438</ele>
        <time>2014-02-12T12:06:29.000Z</time>
      </trkpt>
      <trkpt lat="45.91788" lon="6.5067">
        <ele>2204.3999023438</ele>
        <time>2014-02-12T12:06:30.000Z</time>
      </trkpt>
      <trkpt lat="45.91789" lon="6.50671">
        <ele>2205</ele>
        <time>2014-02-12T12:06:31.000Z</time>
      </trkpt>
      <trkpt lat="45.9179" lon="6.50671">
        <ele>2205.6000976562</ele>
        <time>2014-02-12T12:06:32.000Z</time>
      </trkpt>
      <trkpt lat="45.91791" lon="6.50671">
        <ele>2206</ele>
        <time>2014-02-12T12:06:33.000Z</time>
      </trkpt>
      <trkpt lat="45.91792" lon="6.50671">
        <ele>2206.3999023438</ele>
        <time>2014-02-12T12:06:34.000Z</time>
      </trkpt>
      <trkpt lat="45.91794" lon="6.50671">
        <ele>2207</ele>
        <time>2014-02-12T12:06:35.000Z</time>
      </trkpt>
      <trkpt lat="45.91794" lon="6.5067">
        <ele>2207.1999511719</ele>
        <time>2014-02-12T12:06:36.000Z</time>
      </trkpt>
      <trkpt lat="45.91794" lon="6.5067">
        <ele>2207.1999511719</ele>
        <time>2014-02-12T12:06:37.000Z</time>
      </trkpt>
      <trkpt lat="45.91795" lon="6.5067">
        <ele>2207.3999023438</ele>
        <time>2014-02-12T12:06:38.000Z</time>
      </trkpt>
      <trkpt lat="45.91796" lon="6.5067">
        <ele>2207.8000488281</ele>
        <time>2014-02-12T12:06:39.000Z</time>
      </trkpt>
      <trkpt lat="45.91797" lon="6.5067">
        <ele>2208</ele>
        <time>2014-02-12T12:06:40.000Z</time>
      </trkpt>
      <trkpt lat="45.91797" lon="6.5067">
        <ele>2208</ele>
        <time>2014-02-12T12:06:41.000Z</time>
      </trkpt>
      <trkpt lat="45.91797" lon="6.5067">
        <ele>2208</ele>
        <time>2014-02-12T12:06:42.000Z</time>
      </trkpt>
      <trkpt lat="45.91797" lon="6.5067">
        <ele>2208</ele>
        <time>2014-02-12T12:06:43.000Z</time>
      </trkpt>
      <trkpt lat="45.91797" lon="6.5067">
        <ele>2208</ele>
        <time>2014-02-12T12:06:44.000Z</time>
      </trkpt>
      <trkpt lat="45.91797" lon="6.5067">
        <ele>2208</ele>
        <time>2014-02-12T12:06:46.000Z</time>
      </trkpt>
      <trkpt lat="45.91797" lon="6.5067">
        <ele>2208</ele>
        <time>2014-02-12T12:06:49.000Z</time>
      </trkpt>
      <trkpt lat="45.91797" lon="6.5067">
        <ele>2208</ele>
        <time>2014-02-12T12:06:50.000Z</time>
      </trkpt>
      <trkpt lat="45.91797" lon="6.5067">
        <ele>2208</ele>
        <time>2014-02-12T12:06:51.000Z</time>
      </trkpt>
      <trkpt lat="45.91797" lon="6.5067">
        <ele>2208</ele>
        <time>2014-02-12T12:06:52.000Z</time>
      </trkpt>
      <trkpt lat="45.91797" lon="6.5067">
        <ele>2208</ele>
        <time>2014-02-12T12:06:53.000Z</time>
      </trkpt>
      <trkpt lat="45.91797" lon="6.5067">
        <ele>2208</ele>
        <time>2014-02-12T12:06:54.000Z</time>
      </trkpt>
      <trkpt lat="45.91797" lon="6.5067">
        <ele>2208</ele>
        <time>2014-02-12T12:06:55.000Z</time>
      </trkpt>
      <trkpt lat="45.91797" lon="6.5067">
        <ele>2208</ele>
        <time>2014-02-12T12:06:56.000Z</time>
      </trkpt>
      <trkpt lat="45.91797" lon="6.5067">
        <ele>2208</ele>
        <time>2014-02-12T12:06:57.000Z</time>
      </trkpt>
      <trkpt lat="45.91797" lon="6.5067">
        <ele>2208</ele>
        <time>2014-02-12T12:06:58.000Z</time>
      </trkpt>
      <trkpt lat="45.91797" lon="6.5067">
        <ele>2208</ele>
        <time>2014-02-12T12:06:59.000Z</time>
      </trkpt>
      <trkpt lat="45.91797" lon="6.5067">
        <ele>2208</ele>
        <time>2014-02-12T12:07:01.000Z</time>
      </trkpt>
      <trkpt lat="45.91797" lon="6.5067">
        <ele>2208</ele>
        <time>2014-02-12T12:07:02.000Z</time>
      </trkpt>
      <trkpt lat="45.91797" lon="6.5067">
        <ele>2208</ele>
        <time>2014-02-12T12:07:03.000Z</time>
      </trkpt>
      <trkpt lat="45.91797" lon="6.5067">
        <ele>2208</ele>
        <time>2014-02-12T12:07:04.000Z</time>
      </trkpt>
      <trkpt lat="45.91797" lon="6.5067">
        <ele>2208</ele>
        <time>2014-02-12T12:07:05.000Z</time>
      </trkpt>
      <trkpt lat="45.91797" lon="6.5067">
        <ele>2208</ele>
        <time>2014-02-12T12:07:07.000Z</time>
      </trkpt>
      <trkpt lat="45.91797" lon="6.5067">
        <ele>2208</ele>
        <time>2014-02-12T12:07:08.000Z</time>
      </trkpt>
      <trkpt lat="45.91797" lon="6.5067">
        <ele>2208</ele>
        <time>2014-02-12T12:07:09.000Z</time>
      </trkpt>
      <trkpt lat="45.91797" lon="6.5067">
        <ele>2208</ele>
        <time>2014-02-12T12:07:10.000Z</time>
      </trkpt>
      <trkpt lat="45.91797" lon="6.5067">
        <ele>2208</ele>
        <time>2014-02-12T12:07:11.000Z</time>
      </trkpt>
      <trkpt lat="45.91797" lon="6.5067">
        <ele>2208</ele>
        <time>2014-02-12T12:07:12.000Z</time>
      </trkpt>
      <trkpt lat="45.91797" lon="6.5067">
        <ele>2208</ele>
        <time>2014-02-12T12:07:13.000Z</time>
      </trkpt>
      <trkpt lat="45.91797" lon="6.5067">
        <ele>2208</ele>
        <time>2014-02-12T12:07:14.000Z</time>
      </trkpt>
      <trkpt lat="45.91797" lon="6.5067">
        <ele>2208</ele>
        <time>2014-02-12T12:07:15.000Z</time>
      </trkpt>
      <trkpt lat="45.91797" lon="6.5067">
        <ele>2208</ele>
        <time>2014-02-12T12:07:16.000Z</time>
      </trkpt>
      <trkpt lat="45.91797" lon="6.5067">
        <ele>2208</ele>
        <time>2014-02-12T12:07:17.000Z</time>
      </trkpt>
      <trkpt lat="45.91797" lon="6.5067">
        <ele>2208.1999511719</ele>
        <time>2014-02-12T12:07:18.000Z</time>
      </trkpt>
      <trkpt lat="45.91797" lon="6.5067">
        <ele>2208.1999511719</ele>
        <time>2014-02-12T12:07:19.000Z</time>
      </trkpt>
      <trkpt lat="45.91797" lon="6.5067">
        <ele>2208.1999511719</ele>
        <time>2014-02-12T12:07:20.000Z</time>
      </trkpt>
      <trkpt lat="45.91797" lon="6.5067">
        <ele>2208.1999511719</ele>
        <time>2014-02-12T12:07:21.000Z</time>
      </trkpt>
      <trkpt lat="45.91797" lon="6.5067">
        <ele>2208.1999511719</ele>
        <time>2014-02-12T12:07:22.000Z</time>
      </trkpt>
      <trkpt lat="45.91797" lon="6.5067">
        <ele>2208.1999511719</ele>
        <time>2014-02-12T12:07:23.000Z</time>
      </trkpt>
      <trkpt lat="45.91797" lon="6.5067">
        <ele>2208.1999511719</ele>
        <time>2014-02-12T12:07:24.000Z</time>
      </trkpt>
      <trkpt lat="45.91797" lon="6.5067">
        <ele>2208.1999511719</ele>
        <time>2014-02-12T12:07:25.000Z</time>
      </trkpt>
      <trkpt lat="45.91797" lon="6.5067">
        <ele>2208.1999511719</ele>
        <time>2014-02-12T12:07:27.000Z</time>
      </trkpt>
      <trkpt lat="45.91797" lon="6.5067">
        <ele>2208.1999511719</ele>
        <time>2014-02-12T12:07:28.000Z</time>
      </trkpt>
      <trkpt lat="45.91797" lon="6.5067">
        <ele>2208.1999511719</ele>
        <time>2014-02-12T12:07:29.000Z</time>
      </trkpt>
      <trkpt lat="45.91797" lon="6.5067">
        <ele>2208.1999511719</ele>
        <time>2014-02-12T12:07:30.000Z</time>
      </trkpt>
      <trkpt lat="45.91797" lon="6.5067">
        <ele>2208.1999511719</ele>
        <time>2014-02-12T12:07:31.000Z</time>
      </trkpt>
      <trkpt lat="45.91797" lon="6.5067">
        <ele>2208.1999511719</ele>
        <time>2014-02-12T12:07:32.000Z</time>
      </trkpt>
      <trkpt lat="45.91797" lon="6.5067">
        <ele>2208.1999511719</ele>
        <time>2014-02-12T12:07:34.000Z</time>
      </trkpt>
      <trkpt lat="45.91797" lon="6.5067">
        <ele>2208.1999511719</ele>
        <time>2014-02-12T12:07:37.000Z</time>
      </trkpt>
      <trkpt lat="45.91797" lon="6.5067">
        <ele>2208.1999511719</ele>
        <time>2014-02-12T12:07:40.000Z</time>
      </trkpt>
      <trkpt lat="45.91797" lon="6.5067">
        <ele>2208.1999511719</ele>
        <time>2014-02-12T12:07:41.000Z</time>
      </trkpt>
      <trkpt lat="45.91797" lon="6.5067">
        <ele>2208.1999511719</ele>
        <time>2014-02-12T12:07:42.000Z</time>
      </trkpt>
      <trkpt lat="45.91797" lon="6.5067">
        <ele>2208.1999511719</ele>
        <time>2014-02-12T12:07:43.000Z</time>
      </trkpt>
      <trkpt lat="45.91797" lon="6.5067">
        <ele>2208.1999511719</ele>
        <time>2014-02-12T12:07:44.000Z</time>
      </trkpt>
      <trkpt lat="45.91797" lon="6.5067">
        <ele>2208.1999511719</ele>
        <time>2014-02-12T12:07:45.000Z</time>
      </trkpt>
      <trkpt lat="45.91797" lon="6.5067">
        <ele>2208.1999511719</ele>
        <time>2014-02-12T12:07:46.000Z</time>
      </trkpt>
      <trkpt lat="45.91797" lon="6.5067">
        <ele>2208.1999511719</ele>
        <time>2014-02-12T12:07:47.000Z</time>
      </trkpt>
      <trkpt lat="45.91797" lon="6.5067">
        <ele>2208.1999511719</ele>
        <time>2014-02-12T12:07:49.000Z</time>
      </trkpt>
      <trkpt lat="45.91797" lon="6.5067">
        <ele>2208.1999511719</ele>
        <time>2014-02-12T12:07:50.000Z</time>
      </trkpt>
      <trkpt lat="45.91797" lon="6.5067">
        <ele>2208.1999511719</ele>
        <time>2014-02-12T12:07:51.000Z</time>
      </trkpt>
      <trkpt lat="45.91797" lon="6.5067">
        <ele>2208.1999511719</ele>
        <time>2014-02-12T12:07:52.000Z</time>
      </trkpt>
      <trkpt lat="45.91797" lon="6.5067">
        <ele>2208.1999511719</ele>
        <time>2014-02-12T12:07:53.000Z</time>
      </trkpt>
      <trkpt lat="45.91797" lon="6.5067">
        <ele>2208.1999511719</ele>
        <time>2014-02-12T12:07:54.000Z</time>
      </trkpt>
      <trkpt lat="45.91797" lon="6.5067">
        <ele>2208.1999511719</ele>
        <time>2014-02-12T12:07:55.000Z</time>
      </trkpt>
      <trkpt lat="45.91797" lon="6.5067">
        <ele>2208.1999511719</ele>
        <time>2014-02-12T12:07:56.000Z</time>
      </trkpt>
      <trkpt lat="45.91797" lon="6.5067">
        <ele>2208.1999511719</ele>
        <time>2014-02-12T12:07:57.000Z</time>
      </trkpt>
      <trkpt lat="45.91798" lon="6.5067">
        <ele>2208</ele>
        <time>2014-02-12T12:07:58.000Z</time>
      </trkpt>
      <trkpt lat="45.91798" lon="6.5067">
        <ele>2208</ele>
        <time>2014-02-12T12:07:59.000Z</time>
      </trkpt>
      <trkpt lat="45.91798" lon="6.5067">
        <ele>2208</ele>
        <time>2014-02-12T12:08:00.000Z</time>
      </trkpt>
      <trkpt lat="45.91798" lon="6.5067">
        <ele>2208</ele>
        <time>2014-02-12T12:08:01.000Z</time>
      </trkpt>
      <trkpt lat="45.91798" lon="6.5067">
        <ele>2208</ele>
        <time>2014-02-12T12:08:02.000Z</time>
      </trkpt>
      <trkpt lat="45.91798" lon="6.5067">
        <ele>2208</ele>
        <time>2014-02-12T12:08:03.000Z</time>
      </trkpt>
      <trkpt lat="45.91798" lon="6.5067">
        <ele>2208</ele>
        <time>2014-02-12T12:08:06.000Z</time>
      </trkpt>
      <trkpt lat="45.91798" lon="6.5067">
        <ele>2208</ele>
        <time>2014-02-12T12:08:07.000Z</time>
      </trkpt>
      <trkpt lat="45.91798" lon="6.5067">
        <ele>2208</ele>
        <time>2014-02-12T12:08:08.000Z</time>
      </trkpt>
      <trkpt lat="45.91798" lon="6.5067">
        <ele>2208</ele>
        <time>2014-02-12T12:08:09.000Z</time>
      </trkpt>
      <trkpt lat="45.91798" lon="6.5067">
        <ele>2208</ele>
        <time>2014-02-12T12:08:10.000Z</time>
      </trkpt>
      <trkpt lat="45.91798" lon="6.5067">
        <ele>2208</ele>
        <time>2014-02-12T12:08:11.000Z</time>
      </trkpt>
      <trkpt lat="45.91798" lon="6.5067">
        <ele>2208</ele>
        <time>2014-02-12T12:08:15.000Z</time>
      </trkpt>
      <trkpt lat="45.91798" lon="6.5067">
        <ele>2208</ele>
        <time>2014-02-12T12:08:16.000Z</time>
      </trkpt>
      <trkpt lat="45.91798" lon="6.5067">
        <ele>2208</ele>
        <time>2014-02-12T12:08:17.000Z</time>
      </trkpt>
      <trkpt lat="45.91798" lon="6.5067">
        <ele>2208</ele>
        <time>2014-02-12T12:08:18.000Z</time>
      </trkpt>
      <trkpt lat="45.91798" lon="6.5067">
        <ele>2208</ele>
        <time>2014-02-12T12:08:19.000Z</time>
      </trkpt>
      <trkpt lat="45.91798" lon="6.5067">
        <ele>2208</ele>
        <time>2014-02-12T12:08:20.000Z</time>
      </trkpt>
      <trkpt lat="45.91798" lon="6.5067">
        <ele>2208</ele>
        <time>2014-02-12T12:08:21.000Z</time>
      </trkpt>
      <trkpt lat="45.91798" lon="6.5067">
        <ele>2208</ele>
        <time>2014-02-12T12:08:22.000Z</time>
      </trkpt>
      <trkpt lat="45.91798" lon="6.5067">
        <ele>2208</ele>
        <time>2014-02-12T12:08:23.000Z</time>
      </trkpt>
      <trkpt lat="45.91798" lon="6.5067">
        <ele>2208</ele>
        <time>2014-02-12T12:08:24.000Z</time>
      </trkpt>
      <trkpt lat="45.91798" lon="6.5067">
        <ele>2208</ele>
        <time>2014-02-12T12:08:25.000Z</time>
      </trkpt>
      <trkpt lat="45.91798" lon="6.5067">
        <ele>2208</ele>
        <time>2014-02-12T12:08:26.000Z</time>
      </trkpt>
      <trkpt lat="45.91798" lon="6.5067">
        <ele>2208</ele>
        <time>2014-02-12T12:08:27.000Z</time>
      </trkpt>
      <trkpt lat="45.91798" lon="6.5067">
        <ele>2208</ele>
        <time>2014-02-12T12:08:28.000Z</time>
      </trkpt>
      <trkpt lat="45.91798" lon="6.5067">
        <ele>2208</ele>
        <time>2014-02-12T12:08:29.000Z</time>
      </trkpt>
      <trkpt lat="45.91798" lon="6.5067">
        <ele>2208</ele>
        <time>2014-02-12T12:08:30.000Z</time>
      </trkpt>
      <trkpt lat="45.91798" lon="6.5067">
        <ele>2208</ele>
        <time>2014-02-12T12:08:31.000Z</time>
      </trkpt>
      <trkpt lat="45.91798" lon="6.5067">
        <ele>2208</ele>
        <time>2014-02-12T12:08:32.000Z</time>
      </trkpt>
      <trkpt lat="45.91798" lon="6.5067">
        <ele>2208</ele>
        <time>2014-02-12T12:08:33.000Z</time>
      </trkpt>
      <trkpt lat="45.91798" lon="6.5067">
        <ele>2208</ele>
        <time>2014-02-12T12:08:34.000Z</time>
      </trkpt>
      <trkpt lat="45.91798" lon="6.5067">
        <ele>2208</ele>
        <time>2014-02-12T12:08:35.000Z</time>
      </trkpt>
      <trkpt lat="45.91798" lon="6.5067">
        <ele>2208</ele>
        <time>2014-02-12T12:08:36.000Z</time>
      </trkpt>
      <trkpt lat="45.91798" lon="6.5067">
        <ele>2208</ele>
        <time>2014-02-12T12:08:37.000Z</time>
      </trkpt>
      <trkpt lat="45.91798" lon="6.5067">
        <ele>2208</ele>
        <time>2014-02-12T12:08:38.000Z</time>
      </trkpt>
      <trkpt lat="45.91798" lon="6.5067">
        <ele>2208</ele>
        <time>2014-02-12T12:08:39.000Z</time>
      </trkpt>
      <trkpt lat="45.91798" lon="6.5067">
        <ele>2208</ele>
        <time>2014-02-12T12:08:40.000Z</time>
      </trkpt>
      <trkpt lat="45.91798" lon="6.5067">
        <ele>2208</ele>
        <time>2014-02-12T12:08:42.000Z</time>
      </trkpt>
      <trkpt lat="45.91798" lon="6.5067">
        <ele>2208</ele>
        <time>2014-02-12T12:08:43.000Z</time>
      </trkpt>
      <trkpt lat="45.91798" lon="6.5067">
        <ele>2208</ele>
        <time>2014-02-12T12:08:44.000Z</time>
      </trkpt>
      <trkpt lat="45.91798" lon="6.5067">
        <ele>2208</ele>
        <time>2014-02-12T12:08:45.000Z</time>
      </trkpt>
      <trkpt lat="45.91798" lon="6.5067">
        <ele>2208</ele>
        <time>2014-02-12T12:08:46.000Z</time>
      </trkpt>
      <trkpt lat="45.91798" lon="6.5067">
        <ele>2208</ele>
        <time>2014-02-12T12:08:47.000Z</time>
      </trkpt>
      <trkpt lat="45.91798" lon="6.5067">
        <ele>2208</ele>
        <time>2014-02-12T12:08:48.000Z</time>
      </trkpt>
      <trkpt lat="45.91798" lon="6.5067">
        <ele>2208</ele>
        <time>2014-02-12T12:08:49.000Z</time>
      </trkpt>
      <trkpt lat="45.91798" lon="6.5067">
        <ele>2208</ele>
        <time>2014-02-12T12:08:50.000Z</time>
      </trkpt>
      <trkpt lat="45.91798" lon="6.5067">
        <ele>2208</ele>
        <time>2014-02-12T12:08:51.000Z</time>
      </trkpt>
      <trkpt lat="45.91798" lon="6.5067">
        <ele>2208</ele>
        <time>2014-02-12T12:08:52.000Z</time>
      </trkpt>
      <trkpt lat="45.91798" lon="6.5067">
        <ele>2208</ele>
        <time>2014-02-12T12:08:53.000Z</time>
      </trkpt>
      <trkpt lat="45.91798" lon="6.5067">
        <ele>2208</ele>
        <time>2014-02-12T12:08:54.000Z</time>
      </trkpt>
      <trkpt lat="45.91798" lon="6.5067">
        <ele>2208</ele>
        <time>2014-02-12T12:08:55.000Z</time>
      </trkpt>
      <trkpt lat="45.91798" lon="6.5067">
        <ele>2208</ele>
        <time>2014-02-12T12:08:56.000Z</time>
      </trkpt>
      <trkpt lat="45.91798" lon="6.5067">
        <ele>2208</ele>
        <time>2014-02-12T12:08:57.000Z</time>
      </trkpt>
      <trkpt lat="45.91798" lon="6.5067">
        <ele>2208</ele>
        <time>2014-02-12T12:08:58.000Z</time>
      </trkpt>
      <trkpt lat="45.91798" lon="6.5067">
        <ele>2208</ele>
        <time>2014-02-12T12:08:59.000Z</time>
      </trkpt>
      <trkpt lat="45.91798" lon="6.5067">
        <ele>2208</ele>
        <time>2014-02-12T12:09:00.000Z</time>
      </trkpt>
      <trkpt lat="45.91798" lon="6.5067">
        <ele>2208</ele>
        <time>2014-02-12T12:09:01.000Z</time>
      </trkpt>
      <trkpt lat="45.91798" lon="6.5067">
        <ele>2208</ele>
        <time>2014-02-12T12:09:02.000Z</time>
      </trkpt>
      <trkpt lat="45.91798" lon="6.5067">
        <ele>2208</ele>
        <time>2014-02-12T12:09:03.000Z</time>
      </trkpt>
      <trkpt lat="45.91798" lon="6.5067">
        <ele>2208</ele>
        <time>2014-02-12T12:09:04.000Z</time>
      </trkpt>
      <trkpt lat="45.91798" lon="6.5067">
        <ele>2208</ele>
        <time>2014-02-12T12:09:05.000Z</time>
      </trkpt>
      <trkpt lat="45.91798" lon="6.5067">
        <ele>2208</ele>
        <time>2014-02-12T12:09:06.000Z</time>
      </trkpt>
      <trkpt lat="45.91798" lon="6.5067">
        <ele>2208</ele>
        <time>2014-02-12T12:09:07.000Z</time>
      </trkpt>
      <trkpt lat="45.91798" lon="6.5067">
        <ele>2208</ele>
        <time>2014-02-12T12:09:08.000Z</time>
      </trkpt>
      <trkpt lat="45.91798" lon="6.5067">
        <ele>2208</ele>
        <time>2014-02-12T12:09:09.000Z</time>
      </trkpt>
      <trkpt lat="45.91798" lon="6.5067">
        <ele>2208</ele>
        <time>2014-02-12T12:09:10.000Z</time>
      </trkpt>
      <trkpt lat="45.91798" lon="6.5067">
        <ele>2208</ele>
        <time>2014-02-12T12:09:11.000Z</time>
      </trkpt>
      <trkpt lat="45.91798" lon="6.5067">
        <ele>2208</ele>
        <time>2014-02-12T12:09:12.000Z</time>
      </trkpt>
      <trkpt lat="45.91798" lon="6.5067">
        <ele>2208</ele>
        <time>2014-02-12T12:09:13.000Z</time>
      </trkpt>
      <trkpt lat="45.91798" lon="6.5067">
        <ele>2208</ele>
        <time>2014-02-12T12:09:14.000Z</time>
      </trkpt>
      <trkpt lat="45.91798" lon="6.5067">
        <ele>2208</ele>
        <time>2014-02-12T12:09:15.000Z</time>
      </trkpt>
      <trkpt lat="45.91798" lon="6.5067">
        <ele>2208</ele>
        <time>2014-02-12T12:09:16.000Z</time>
      </trkpt>
      <trkpt lat="45.91798" lon="6.5067">
        <ele>2208</ele>
        <time>2014-02-12T12:09:17.000Z</time>
      </trkpt>
      <trkpt lat="45.91798" lon="6.50669">
        <ele>2207.8000488281</ele>
        <time>2014-02-12T12:09:18.000Z</time>
      </trkpt>
      <trkpt lat="45.91798" lon="6.50669">
        <ele>2207.8000488281</ele>
        <time>2014-02-12T12:09:19.000Z</time>
      </trkpt>
      <trkpt lat="45.91798" lon="6.50669">
        <ele>2207.8000488281</ele>
        <time>2014-02-12T12:09:21.000Z</time>
      </trkpt>
      <trkpt lat="45.91798" lon="6.50669">
        <ele>2207.8000488281</ele>
        <time>2014-02-12T12:09:22.000Z</time>
      </trkpt>
      <trkpt lat="45.91798" lon="6.50669">
        <ele>2207.8000488281</ele>
        <time>2014-02-12T12:09:23.000Z</time>
      </trkpt>
      <trkpt lat="45.91798" lon="6.50669">
        <ele>2207.8000488281</ele>
        <time>2014-02-12T12:09:24.000Z</time>
      </trkpt>
      <trkpt lat="45.91798" lon="6.50669">
        <ele>2207.8000488281</ele>
        <time>2014-02-12T12:09:25.000Z</time>
      </trkpt>
      <trkpt lat="45.91798" lon="6.50669">
        <ele>2207.8000488281</ele>
        <time>2014-02-12T12:09:26.000Z</time>
      </trkpt>
      <trkpt lat="45.91798" lon="6.50669">
        <ele>2207.8000488281</ele>
        <time>2014-02-12T12:09:27.000Z</time>
      </trkpt>
      <trkpt lat="45.91798" lon="6.50669">
        <ele>2207.8000488281</ele>
        <time>2014-02-12T12:09:29.000Z</time>
      </trkpt>
      <trkpt lat="45.91798" lon="6.50669">
        <ele>2207.8000488281</ele>
        <time>2014-02-12T12:09:30.000Z</time>
      </trkpt>
      <trkpt lat="45.91798" lon="6.50669">
        <ele>2207.8000488281</ele>
        <time>2014-02-12T12:09:31.000Z</time>
      </trkpt>
      <trkpt lat="45.91798" lon="6.50669">
        <ele>2207.8000488281</ele>
        <time>2014-02-12T12:09:32.000Z</time>
      </trkpt>
      <trkpt lat="45.91798" lon="6.50669">
        <ele>2207.8000488281</ele>
        <time>2014-02-12T12:09:33.000Z</time>
      </trkpt>
      <trkpt lat="45.91798" lon="6.50669">
        <ele>2207.8000488281</ele>
        <time>2014-02-12T12:09:34.000Z</time>
      </trkpt>
      <trkpt lat="45.91798" lon="6.50669">
        <ele>2207.8000488281</ele>
        <time>2014-02-12T12:09:35.000Z</time>
      </trkpt>
      <trkpt lat="45.91798" lon="6.50669">
        <ele>2207.8000488281</ele>
        <time>2014-02-12T12:09:36.000Z</time>
      </trkpt>
      <trkpt lat="45.91798" lon="6.50669">
        <ele>2207.8000488281</ele>
        <time>2014-02-12T12:09:37.000Z</time>
      </trkpt>
      <trkpt lat="45.91798" lon="6.50669">
        <ele>2207.8000488281</ele>
        <time>2014-02-12T12:09:38.000Z</time>
      </trkpt>
      <trkpt lat="45.91798" lon="6.50669">
        <ele>2207.8000488281</ele>
        <time>2014-02-12T12:09:39.000Z</time>
      </trkpt>
      <trkpt lat="45.91798" lon="6.50669">
        <ele>2207.8000488281</ele>
        <time>2014-02-12T12:09:40.000Z</time>
      </trkpt>
      <trkpt lat="45.91798" lon="6.50669">
        <ele>2207.8000488281</ele>
        <time>2014-02-12T12:09:41.000Z</time>
      </trkpt>
      <trkpt lat="45.91798" lon="6.50669">
        <ele>2207.8000488281</ele>
        <time>2014-02-12T12:09:42.000Z</time>
      </trkpt>
      <trkpt lat="45.91798" lon="6.50669">
        <ele>2207.8000488281</ele>
        <time>2014-02-12T12:09:43.000Z</time>
      </trkpt>
      <trkpt lat="45.91798" lon="6.50669">
        <ele>2207.8000488281</ele>
        <time>2014-02-12T12:09:44.000Z</time>
      </trkpt>
      <trkpt lat="45.91798" lon="6.50669">
        <ele>2207.8000488281</ele>
        <time>2014-02-12T12:09:45.000Z</time>
      </trkpt>
      <trkpt lat="45.91798" lon="6.50669">
        <ele>2207.8000488281</ele>
        <time>2014-02-12T12:09:48.000Z</time>
      </trkpt>
      <trkpt lat="45.91798" lon="6.50669">
        <ele>2207.8000488281</ele>
        <time>2014-02-12T12:09:49.000Z</time>
      </trkpt>
      <trkpt lat="45.91798" lon="6.50669">
        <ele>2207.8000488281</ele>
        <time>2014-02-12T12:09:50.000Z</time>
      </trkpt>
      <trkpt lat="45.91798" lon="6.50669">
        <ele>2207.8000488281</ele>
        <time>2014-02-12T12:09:51.000Z</time>
      </trkpt>
      <trkpt lat="45.91798" lon="6.50669">
        <ele>2207.8000488281</ele>
        <time>2014-02-12T12:09:52.000Z</time>
      </trkpt>
      <trkpt lat="45.91798" lon="6.50669">
        <ele>2207.8000488281</ele>
        <time>2014-02-12T12:09:53.000Z</time>
      </trkpt>
      <trkpt lat="45.91798" lon="6.50669">
        <ele>2207.8000488281</ele>
        <time>2014-02-12T12:09:54.000Z</time>
      </trkpt>
      <trkpt lat="45.91798" lon="6.50669">
        <ele>2207.8000488281</ele>
        <time>2014-02-12T12:09:55.000Z</time>
      </trkpt>
      <trkpt lat="45.91798" lon="6.50669">
        <ele>2207.8000488281</ele>
        <time>2014-02-12T12:09:57.000Z</time>
      </trkpt>
      <trkpt lat="45.91798" lon="6.50668">
        <ele>2207.1999511719</ele>
        <time>2014-02-12T12:09:58.000Z</time>
      </trkpt>
      <trkpt lat="45.91798" lon="6.50668">
        <ele>2207.1999511719</ele>
        <time>2014-02-12T12:10:00.000Z</time>
      </trkpt>
      <trkpt lat="45.91798" lon="6.50668">
        <ele>2207.1999511719</ele>
        <time>2014-02-12T12:10:01.000Z</time>
      </trkpt>
      <trkpt lat="45.91798" lon="6.50668">
        <ele>2207.1999511719</ele>
        <time>2014-02-12T12:10:02.000Z</time>
      </trkpt>
      <trkpt lat="45.91798" lon="6.50668">
        <ele>2207.1999511719</ele>
        <time>2014-02-12T12:10:03.000Z</time>
      </trkpt>
      <trkpt lat="45.91798" lon="6.50668">
        <ele>2207.1999511719</ele>
        <time>2014-02-12T12:10:04.000Z</time>
      </trkpt>
      <trkpt lat="45.91798" lon="6.50668">
        <ele>2207.1999511719</ele>
        <time>2014-02-12T12:10:05.000Z</time>
      </trkpt>
      <trkpt lat="45.91798" lon="6.50668">
        <ele>2207.1999511719</ele>
        <time>2014-02-12T12:10:06.000Z</time>
      </trkpt>
      <trkpt lat="45.91798" lon="6.50668">
        <ele>2207.1999511719</ele>
        <time>2014-02-12T12:10:07.000Z</time>
      </trkpt>
      <trkpt lat="45.91798" lon="6.50668">
        <ele>2207.1999511719</ele>
        <time>2014-02-12T12:10:08.000Z</time>
      </trkpt>
      <trkpt lat="45.91798" lon="6.50668">
        <ele>2207.1999511719</ele>
        <time>2014-02-12T12:10:09.000Z</time>
      </trkpt>
      <trkpt lat="45.91798" lon="6.50668">
        <ele>2207.1999511719</ele>
        <time>2014-02-12T12:10:10.000Z</time>
      </trkpt>
      <trkpt lat="45.91798" lon="6.50668">
        <ele>2207.1999511719</ele>
        <time>2014-02-12T12:10:11.000Z</time>
      </trkpt>
      <trkpt lat="45.91798" lon="6.50668">
        <ele>2207.1999511719</ele>
        <time>2014-02-12T12:10:12.000Z</time>
      </trkpt>
      <trkpt lat="45.91798" lon="6.50668">
        <ele>2207.1999511719</ele>
        <time>2014-02-12T12:10:13.000Z</time>
      </trkpt>
      <trkpt lat="45.91798" lon="6.50668">
        <ele>2207.1999511719</ele>
        <time>2014-02-12T12:10:14.000Z</time>
      </trkpt>
      <trkpt lat="45.91798" lon="6.50668">
        <ele>2207.1999511719</ele>
        <time>2014-02-12T12:10:16.000Z</time>
      </trkpt>
      <trkpt lat="45.91798" lon="6.50668">
        <ele>2207.1999511719</ele>
        <time>2014-02-12T12:10:17.000Z</time>
      </trkpt>
      <trkpt lat="45.91798" lon="6.50668">
        <ele>2207.1999511719</ele>
        <time>2014-02-12T12:10:18.000Z</time>
      </trkpt>
      <trkpt lat="45.91798" lon="6.50668">
        <ele>2207.1999511719</ele>
        <time>2014-02-12T12:10:20.000Z</time>
      </trkpt>
      <trkpt lat="45.91798" lon="6.50668">
        <ele>2207.1999511719</ele>
        <time>2014-02-12T12:10:21.000Z</time>
      </trkpt>
      <trkpt lat="45.91798" lon="6.50668">
        <ele>2207.1999511719</ele>
        <time>2014-02-12T12:10:22.000Z</time>
      </trkpt>
      <trkpt lat="45.91798" lon="6.50668">
        <ele>2207.1999511719</ele>
        <time>2014-02-12T12:10:23.000Z</time>
      </trkpt>
      <trkpt lat="45.91798" lon="6.50668">
        <ele>2207.1999511719</ele>
        <time>2014-02-12T12:10:24.000Z</time>
      </trkpt>
      <trkpt lat="45.91798" lon="6.50668">
        <ele>2207.1999511719</ele>
        <time>2014-02-12T12:10:25.000Z</time>
      </trkpt>
      <trkpt lat="45.91798" lon="6.50668">
        <ele>2207.1999511719</ele>
        <time>2014-02-12T12:10:26.000Z</time>
      </trkpt>
      <trkpt lat="45.91798" lon="6.50668">
        <ele>2207.1999511719</ele>
        <time>2014-02-12T12:10:27.000Z</time>
      </trkpt>
      <trkpt lat="45.91798" lon="6.50668">
        <ele>2207.1999511719</ele>
        <time>2014-02-12T12:10:28.000Z</time>
      </trkpt>
      <trkpt lat="45.91798" lon="6.50668">
        <ele>2207.1999511719</ele>
        <time>2014-02-12T12:10:29.000Z</time>
      </trkpt>
      <trkpt lat="45.91798" lon="6.50668">
        <ele>2207.1999511719</ele>
        <time>2014-02-12T12:10:30.000Z</time>
      </trkpt>
      <trkpt lat="45.91798" lon="6.50668">
        <ele>2207.1999511719</ele>
        <time>2014-02-12T12:10:31.000Z</time>
      </trkpt>
      <trkpt lat="45.91798" lon="6.50668">
        <ele>2207.1999511719</ele>
        <time>2014-02-12T12:10:32.000Z</time>
      </trkpt>
      <trkpt lat="45.91798" lon="6.50668">
        <ele>2207.1999511719</ele>
        <time>2014-02-12T12:10:34.000Z</time>
      </trkpt>
      <trkpt lat="45.91798" lon="6.50668">
        <ele>2207.1999511719</ele>
        <time>2014-02-12T12:10:35.000Z</time>
      </trkpt>
      <trkpt lat="45.91798" lon="6.50668">
        <ele>2207.1999511719</ele>
        <time>2014-02-12T12:10:36.000Z</time>
      </trkpt>
      <trkpt lat="45.91798" lon="6.50668">
        <ele>2207.1999511719</ele>
        <time>2014-02-12T12:10:37.000Z</time>
      </trkpt>
      <trkpt lat="45.91798" lon="6.50668">
        <ele>2207.3999023438</ele>
        <time>2014-02-12T12:10:38.000Z</time>
      </trkpt>
      <trkpt lat="45.91798" lon="6.50668">
        <ele>2207.3999023438</ele>
        <time>2014-02-12T12:10:39.000Z</time>
      </trkpt>
      <trkpt lat="45.91798" lon="6.50668">
        <ele>2207.3999023438</ele>
        <time>2014-02-12T12:10:41.000Z</time>
      </trkpt>
      <trkpt lat="45.91798" lon="6.50668">
        <ele>2207.3999023438</ele>
        <time>2014-02-12T12:10:42.000Z</time>
      </trkpt>
      <trkpt lat="45.91798" lon="6.50668">
        <ele>2207.3999023438</ele>
        <time>2014-02-12T12:10:44.000Z</time>
      </trkpt>
      <trkpt lat="45.91798" lon="6.50668">
        <ele>2207.3999023438</ele>
        <time>2014-02-12T12:10:45.000Z</time>
      </trkpt>
      <trkpt lat="45.91798" lon="6.50668">
        <ele>2207.3999023438</ele>
        <time>2014-02-12T12:10:46.000Z</time>
      </trkpt>
      <trkpt lat="45.91798" lon="6.50668">
        <ele>2207.3999023438</ele>
        <time>2014-02-12T12:10:47.000Z</time>
      </trkpt>
      <trkpt lat="45.91798" lon="6.50668">
        <ele>2207.3999023438</ele>
        <time>2014-02-12T12:10:48.000Z</time>
      </trkpt>
      <trkpt lat="45.91798" lon="6.50668">
        <ele>2207.3999023438</ele>
        <time>2014-02-12T12:10:49.000Z</time>
      </trkpt>
      <trkpt lat="45.91798" lon="6.50668">
        <ele>2207.3999023438</ele>
        <time>2014-02-12T12:10:50.000Z</time>
      </trkpt>
      <trkpt lat="45.91798" lon="6.50668">
        <ele>2207.3999023438</ele>
        <time>2014-02-12T12:10:51.000Z</time>
      </trkpt>
      <trkpt lat="45.91798" lon="6.50668">
        <ele>2207.3999023438</ele>
        <time>2014-02-12T12:10:52.000Z</time>
      </trkpt>
      <trkpt lat="45.91798" lon="6.50668">
        <ele>2207.3999023438</ele>
        <time>2014-02-12T12:10:53.000Z</time>
      </trkpt>
      <trkpt lat="45.91798" lon="6.50668">
        <ele>2207.3999023438</ele>
        <time>2014-02-12T12:10:54.000Z</time>
      </trkpt>
      <trkpt lat="45.91798" lon="6.50668">
        <ele>2207.3999023438</ele>
        <time>2014-02-12T12:10:55.000Z</time>
      </trkpt>
      <trkpt lat="45.91798" lon="6.50668">
        <ele>2207.3999023438</ele>
        <time>2014-02-12T12:10:56.000Z</time>
      </trkpt>
      <trkpt lat="45.91798" lon="6.50668">
        <ele>2207.3999023438</ele>
        <time>2014-02-12T12:10:57.000Z</time>
      </trkpt>
      <trkpt lat="45.91798" lon="6.50668">
        <ele>2207.3999023438</ele>
        <time>2014-02-12T12:10:58.000Z</time>
      </trkpt>
      <trkpt lat="45.91798" lon="6.50668">
        <ele>2207.3999023438</ele>
        <time>2014-02-12T12:10:59.000Z</time>
      </trkpt>
      <trkpt lat="45.91798" lon="6.50668">
        <ele>2207.3999023438</ele>
        <time>2014-02-12T12:11:00.000Z</time>
      </trkpt>
      <trkpt lat="45.91798" lon="6.50668">
        <ele>2207.3999023438</ele>
        <time>2014-02-12T12:11:01.000Z</time>
      </trkpt>
      <trkpt lat="45.91798" lon="6.50668">
        <ele>2207.3999023438</ele>
        <time>2014-02-12T12:11:02.000Z</time>
      </trkpt>
      <trkpt lat="45.91798" lon="6.50668">
        <ele>2207.3999023438</ele>
        <time>2014-02-12T12:11:03.000Z</time>
      </trkpt>
      <trkpt lat="45.91798" lon="6.50668">
        <ele>2207.3999023438</ele>
        <time>2014-02-12T12:11:04.000Z</time>
      </trkpt>
      <trkpt lat="45.91798" lon="6.50668">
        <ele>2207.3999023438</ele>
        <time>2014-02-12T12:11:05.000Z</time>
      </trkpt>
      <trkpt lat="45.91798" lon="6.50668">
        <ele>2207.3999023438</ele>
        <time>2014-02-12T12:11:06.000Z</time>
      </trkpt>
      <trkpt lat="45.91798" lon="6.50668">
        <ele>2207.3999023438</ele>
        <time>2014-02-12T12:11:07.000Z</time>
      </trkpt>
      <trkpt lat="45.91798" lon="6.50668">
        <ele>2207.3999023438</ele>
        <time>2014-02-12T12:11:08.000Z</time>
      </trkpt>
      <trkpt lat="45.91798" lon="6.50668">
        <ele>2207.3999023438</ele>
        <time>2014-02-12T12:11:09.000Z</time>
      </trkpt>
      <trkpt lat="45.91798" lon="6.50668">
        <ele>2207.3999023438</ele>
        <time>2014-02-12T12:11:10.000Z</time>
      </trkpt>
      <trkpt lat="45.91798" lon="6.50668">
        <ele>2207.3999023438</ele>
        <time>2014-02-12T12:11:11.000Z</time>
      </trkpt>
      <trkpt lat="45.91798" lon="6.50668">
        <ele>2207.3999023438</ele>
        <time>2014-02-12T12:11:13.000Z</time>
      </trkpt>
      <trkpt lat="45.91798" lon="6.50668">
        <ele>2207.3999023438</ele>
        <time>2014-02-12T12:11:14.000Z</time>
      </trkpt>
      <trkpt lat="45.91798" lon="6.50668">
        <ele>2207.3999023438</ele>
        <time>2014-02-12T12:11:15.000Z</time>
      </trkpt>
      <trkpt lat="45.91798" lon="6.50668">
        <ele>2207.3999023438</ele>
        <time>2014-02-12T12:11:16.000Z</time>
      </trkpt>
      <trkpt lat="45.91798" lon="6.50668">
        <ele>2207.3999023438</ele>
        <time>2014-02-12T12:11:17.000Z</time>
      </trkpt>
      <trkpt lat="45.91798" lon="6.50668">
        <ele>2207</ele>
        <time>2014-02-12T12:11:18.000Z</time>
      </trkpt>
      <trkpt lat="45.91798" lon="6.50668">
        <ele>2207</ele>
        <time>2014-02-12T12:11:19.000Z</time>
      </trkpt>
      <trkpt lat="45.91798" lon="6.50668">
        <ele>2207</ele>
        <time>2014-02-12T12:11:20.000Z</time>
      </trkpt>
      <trkpt lat="45.91798" lon="6.50668">
        <ele>2207</ele>
        <time>2014-02-12T12:11:21.000Z</time>
      </trkpt>
      <trkpt lat="45.91798" lon="6.50668">
        <ele>2207</ele>
        <time>2014-02-12T12:11:22.000Z</time>
      </trkpt>
      <trkpt lat="45.91798" lon="6.50668">
        <ele>2207</ele>
        <time>2014-02-12T12:11:23.000Z</time>
      </trkpt>
      <trkpt lat="45.91798" lon="6.50668">
        <ele>2207</ele>
        <time>2014-02-12T12:11:24.000Z</time>
      </trkpt>
      <trkpt lat="45.91798" lon="6.50668">
        <ele>2207</ele>
        <time>2014-02-12T12:11:25.000Z</time>
      </trkpt>
      <trkpt lat="45.91798" lon="6.50668">
        <ele>2207</ele>
        <time>2014-02-12T12:11:26.000Z</time>
      </trkpt>
      <trkpt lat="45.91798" lon="6.50668">
        <ele>2207</ele>
        <time>2014-02-12T12:11:27.000Z</time>
      </trkpt>
      <trkpt lat="45.91798" lon="6.50668">
        <ele>2207</ele>
        <time>2014-02-12T12:11:28.000Z</time>
      </trkpt>
      <trkpt lat="45.91798" lon="6.50668">
        <ele>2207</ele>
        <time>2014-02-12T12:11:29.000Z</time>
      </trkpt>
      <trkpt lat="45.91798" lon="6.50668">
        <ele>2207</ele>
        <time>2014-02-12T12:11:30.000Z</time>
      </trkpt>
      <trkpt lat="45.91798" lon="6.50668">
        <ele>2207</ele>
        <time>2014-02-12T12:11:31.000Z</time>
      </trkpt>
      <trkpt lat="45.91798" lon="6.50668">
        <ele>2207</ele>
        <time>2014-02-12T12:11:32.000Z</time>
      </trkpt>
      <trkpt lat="45.91798" lon="6.50668">
        <ele>2207</ele>
        <time>2014-02-12T12:11:33.000Z</time>
      </trkpt>
      <trkpt lat="45.91798" lon="6.50668">
        <ele>2207</ele>
        <time>2014-02-12T12:11:34.000Z</time>
      </trkpt>
      <trkpt lat="45.91798" lon="6.50668">
        <ele>2207</ele>
        <time>2014-02-12T12:11:35.000Z</time>
      </trkpt>
      <trkpt lat="45.91798" lon="6.50668">
        <ele>2207</ele>
        <time>2014-02-12T12:11:36.000Z</time>
      </trkpt>
      <trkpt lat="45.91798" lon="6.50668">
        <ele>2207</ele>
        <time>2014-02-12T12:11:37.000Z</time>
      </trkpt>
      <trkpt lat="45.91798" lon="6.50668">
        <ele>2207</ele>
        <time>2014-02-12T12:11:38.000Z</time>
      </trkpt>
      <trkpt lat="45.91798" lon="6.50668">
        <ele>2207</ele>
        <time>2014-02-12T12:11:39.000Z</time>
      </trkpt>
      <trkpt lat="45.91798" lon="6.50668">
        <ele>2207</ele>
        <time>2014-02-12T12:11:40.000Z</time>
      </trkpt>
      <trkpt lat="45.91798" lon="6.50668">
        <ele>2207</ele>
        <time>2014-02-12T12:11:41.000Z</time>
      </trkpt>
      <trkpt lat="45.91798" lon="6.50668">
        <ele>2207</ele>
        <time>2014-02-12T12:11:42.000Z</time>
      </trkpt>
      <trkpt lat="45.91798" lon="6.50668">
        <ele>2207</ele>
        <time>2014-02-12T12:11:43.000Z</time>
      </trkpt>
      <trkpt lat="45.91798" lon="6.50668">
        <ele>2207</ele>
        <time>2014-02-12T12:11:44.000Z</time>
      </trkpt>
      <trkpt lat="45.91798" lon="6.50668">
        <ele>2207</ele>
        <time>2014-02-12T12:11:45.000Z</time>
      </trkpt>
      <trkpt lat="45.91798" lon="6.50668">
        <ele>2207</ele>
        <time>2014-02-12T12:11:46.000Z</time>
      </trkpt>
      <trkpt lat="45.91798" lon="6.50668">
        <ele>2207</ele>
        <time>2014-02-12T12:11:47.000Z</time>
      </trkpt>
      <trkpt lat="45.91798" lon="6.50668">
        <ele>2207</ele>
        <time>2014-02-12T12:11:48.000Z</time>
      </trkpt>
      <trkpt lat="45.91798" lon="6.50668">
        <ele>2207</ele>
        <time>2014-02-12T12:11:49.000Z</time>
      </trkpt>
      <trkpt lat="45.91798" lon="6.50668">
        <ele>2207</ele>
        <time>2014-02-12T12:11:50.000Z</time>
      </trkpt>
      <trkpt lat="45.91798" lon="6.50668">
        <ele>2207</ele>
        <time>2014-02-12T12:11:51.000Z</time>
      </trkpt>
      <trkpt lat="45.91798" lon="6.50668">
        <ele>2207</ele>
        <time>2014-02-12T12:11:52.000Z</time>
      </trkpt>
      <trkpt lat="45.91798" lon="6.50668">
        <ele>2207</ele>
        <time>2014-02-12T12:11:53.000Z</time>
      </trkpt>
      <trkpt lat="45.91798" lon="6.50668">
        <ele>2207</ele>
        <time>2014-02-12T12:11:54.000Z</time>
      </trkpt>
      <trkpt lat="45.91798" lon="6.50668">
        <ele>2207</ele>
        <time>2014-02-12T12:11:56.000Z</time>
      </trkpt>
      <trkpt lat="45.91798" lon="6.50668">
        <ele>2207</ele>
        <time>2014-02-12T12:11:57.000Z</time>
      </trkpt>
      <trkpt lat="45.91798" lon="6.50668">
        <ele>2207</ele>
        <time>2014-02-12T12:11:58.000Z</time>
      </trkpt>
      <trkpt lat="45.91798" lon="6.50668">
        <ele>2207</ele>
        <time>2014-02-12T12:11:59.000Z</time>
      </trkpt>
      <trkpt lat="45.91798" lon="6.50668">
        <ele>2207</ele>
        <time>2014-02-12T12:12:00.000Z</time>
      </trkpt>
      <trkpt lat="45.91798" lon="6.50668">
        <ele>2207</ele>
        <time>2014-02-12T12:12:01.000Z</time>
      </trkpt>
      <trkpt lat="45.91798" lon="6.50668">
        <ele>2207</ele>
        <time>2014-02-12T12:12:02.000Z</time>
      </trkpt>
      <trkpt lat="45.91798" lon="6.50668">
        <ele>2207</ele>
        <time>2014-02-12T12:12:04.000Z</time>
      </trkpt>
      <trkpt lat="45.91798" lon="6.50668">
        <ele>2207</ele>
        <time>2014-02-12T12:12:05.000Z</time>
      </trkpt>
      <trkpt lat="45.91798" lon="6.50668">
        <ele>2207</ele>
        <time>2014-02-12T12:12:06.000Z</time>
      </trkpt>
      <trkpt lat="45.91798" lon="6.50668">
        <ele>2207</ele>
        <time>2014-02-12T12:12:07.000Z</time>
      </trkpt>
      <trkpt lat="45.91798" lon="6.50668">
        <ele>2207</ele>
        <time>2014-02-12T12:12:08.000Z</time>
      </trkpt>
      <trkpt lat="45.91798" lon="6.50668">
        <ele>2207</ele>
        <time>2014-02-12T12:12:09.000Z</time>
      </trkpt>
      <trkpt lat="45.91798" lon="6.50668">
        <ele>2207</ele>
        <time>2014-02-12T12:12:10.000Z</time>
      </trkpt>
      <trkpt lat="45.91798" lon="6.50668">
        <ele>2207</ele>
        <time>2014-02-12T12:12:11.000Z</time>
      </trkpt>
      <trkpt lat="45.91798" lon="6.50668">
        <ele>2207</ele>
        <time>2014-02-12T12:12:12.000Z</time>
      </trkpt>
      <trkpt lat="45.91798" lon="6.50668">
        <ele>2207</ele>
        <time>2014-02-12T12:12:13.000Z</time>
      </trkpt>
      <trkpt lat="45.91798" lon="6.50668">
        <ele>2207</ele>
        <time>2014-02-12T12:12:14.000Z</time>
      </trkpt>
      <trkpt lat="45.91798" lon="6.50668">
        <ele>2207</ele>
        <time>2014-02-12T12:12:15.000Z</time>
      </trkpt>
      <trkpt lat="45.91798" lon="6.50668">
        <ele>2207</ele>
        <time>2014-02-12T12:12:16.000Z</time>
      </trkpt>
      <trkpt lat="45.91798" lon="6.50668">
        <ele>2207</ele>
        <time>2014-02-12T12:12:17.000Z</time>
      </trkpt>
      <trkpt lat="45.91798" lon="6.50668">
        <ele>2207</ele>
        <time>2014-02-12T12:12:18.000Z</time>
      </trkpt>
      <trkpt lat="45.91798" lon="6.50668">
        <ele>2207</ele>
        <time>2014-02-12T12:12:19.000Z</time>
      </trkpt>
      <trkpt lat="45.91798" lon="6.50668">
        <ele>2207</ele>
        <time>2014-02-12T12:12:20.000Z</time>
      </trkpt>
      <trkpt lat="45.91798" lon="6.50668">
        <ele>2207</ele>
        <time>2014-02-12T12:12:21.000Z</time>
      </trkpt>
      <trkpt lat="45.91798" lon="6.50668">
        <ele>2207</ele>
        <time>2014-02-12T12:12:22.000Z</time>
      </trkpt>
      <trkpt lat="45.91798" lon="6.50668">
        <ele>2207</ele>
        <time>2014-02-12T12:12:23.000Z</time>
      </trkpt>
      <trkpt lat="45.91798" lon="6.50668">
        <ele>2207</ele>
        <time>2014-02-12T12:12:24.000Z</time>
      </trkpt>
      <trkpt lat="45.91798" lon="6.50668">
        <ele>2207</ele>
        <time>2014-02-12T12:12:25.000Z</time>
      </trkpt>
      <trkpt lat="45.91798" lon="6.50668">
        <ele>2207</ele>
        <time>2014-02-12T12:12:26.000Z</time>
      </trkpt>
      <trkpt lat="45.91798" lon="6.50668">
        <ele>2207</ele>
        <time>2014-02-12T12:12:27.000Z</time>
      </trkpt>
      <trkpt lat="45.91798" lon="6.50668">
        <ele>2207</ele>
        <time>2014-02-12T12:12:28.000Z</time>
      </trkpt>
      <trkpt lat="45.91798" lon="6.50668">
        <ele>2207</ele>
        <time>2014-02-12T12:12:29.000Z</time>
      </trkpt>
      <trkpt lat="45.91798" lon="6.50668">
        <ele>2207</ele>
        <time>2014-02-12T12:12:30.000Z</time>
      </trkpt>
      <trkpt lat="45.91798" lon="6.50668">
        <ele>2207</ele>
        <time>2014-02-12T12:12:31.000Z</time>
      </trkpt>
      <trkpt lat="45.91798" lon="6.50668">
        <ele>2207</ele>
        <time>2014-02-12T12:12:32.000Z</time>
      </trkpt>
      <trkpt lat="45.91798" lon="6.50668">
        <ele>2207</ele>
        <time>2014-02-12T12:12:33.000Z</time>
      </trkpt>
      <trkpt lat="45.91798" lon="6.50668">
        <ele>2207</ele>
        <time>2014-02-12T12:12:34.000Z</time>
      </trkpt>
      <trkpt lat="45.91798" lon="6.50668">
        <ele>2207</ele>
        <time>2014-02-12T12:12:37.000Z</time>
      </trkpt>
      <trkpt lat="45.91798" lon="6.50668">
        <ele>2207.1999511719</ele>
        <time>2014-02-12T12:12:38.000Z</time>
      </trkpt>
      <trkpt lat="45.91798" lon="6.50668">
        <ele>2207.1999511719</ele>
        <time>2014-02-12T12:12:39.000Z</time>
      </trkpt>
      <trkpt lat="45.91798" lon="6.50668">
        <ele>2207.1999511719</ele>
        <time>2014-02-12T12:12:40.000Z</time>
      </trkpt>
      <trkpt lat="45.91798" lon="6.50668">
        <ele>2207.1999511719</ele>
        <time>2014-02-12T12:12:41.000Z</time>
      </trkpt>
      <trkpt lat="45.91798" lon="6.50668">
        <ele>2207.1999511719</ele>
        <time>2014-02-12T12:12:43.000Z</time>
      </trkpt>
      <trkpt lat="45.91798" lon="6.50668">
        <ele>2207.1999511719</ele>
        <time>2014-02-12T12:12:44.000Z</time>
      </trkpt>
      <trkpt lat="45.91798" lon="6.50668">
        <ele>2207.1999511719</ele>
        <time>2014-02-12T12:12:45.000Z</time>
      </trkpt>
      <trkpt lat="45.91798" lon="6.50668">
        <ele>2207.1999511719</ele>
        <time>2014-02-12T12:12:46.000Z</time>
      </trkpt>
      <trkpt lat="45.91798" lon="6.50668">
        <ele>2207.1999511719</ele>
        <time>2014-02-12T12:12:47.000Z</time>
      </trkpt>
      <trkpt lat="45.91798" lon="6.50668">
        <ele>2207.1999511719</ele>
        <time>2014-02-12T12:12:50.000Z</time>
      </trkpt>
      <trkpt lat="45.91798" lon="6.50668">
        <ele>2207.1999511719</ele>
        <time>2014-02-12T12:12:51.000Z</time>
      </trkpt>
      <trkpt lat="45.91798" lon="6.50668">
        <ele>2207.1999511719</ele>
        <time>2014-02-12T12:12:52.000Z</time>
      </trkpt>
      <trkpt lat="45.91798" lon="6.50668">
        <ele>2207.1999511719</ele>
        <time>2014-02-12T12:12:53.000Z</time>
      </trkpt>
      <trkpt lat="45.91798" lon="6.50668">
        <ele>2207.1999511719</ele>
        <time>2014-02-12T12:12:54.000Z</time>
      </trkpt>
      <trkpt lat="45.91798" lon="6.50668">
        <ele>2207.1999511719</ele>
        <time>2014-02-12T12:12:55.000Z</time>
      </trkpt>
      <trkpt lat="45.91798" lon="6.50668">
        <ele>2207.1999511719</ele>
        <time>2014-02-12T12:12:56.000Z</time>
      </trkpt>
      <trkpt lat="45.91798" lon="6.50668">
        <ele>2207.1999511719</ele>
        <time>2014-02-12T12:12:57.000Z</time>
      </trkpt>
      <trkpt lat="45.91798" lon="6.50668">
        <ele>2207.1999511719</ele>
        <time>2014-02-12T12:12:59.000Z</time>
      </trkpt>
      <trkpt lat="45.91798" lon="6.50668">
        <ele>2207.1999511719</ele>
        <time>2014-02-12T12:13:00.000Z</time>
      </trkpt>
      <trkpt lat="45.91798" lon="6.50668">
        <ele>2207.1999511719</ele>
        <time>2014-02-12T12:13:01.000Z</time>
      </trkpt>
      <trkpt lat="45.91798" lon="6.50668">
        <ele>2207.1999511719</ele>
        <time>2014-02-12T12:13:02.000Z</time>
      </trkpt>
      <trkpt lat="45.91798" lon="6.50668">
        <ele>2207.1999511719</ele>
        <time>2014-02-12T12:13:03.000Z</time>
      </trkpt>
      <trkpt lat="45.91798" lon="6.50668">
        <ele>2207.1999511719</ele>
        <time>2014-02-12T12:13:04.000Z</time>
      </trkpt>
      <trkpt lat="45.91798" lon="6.50668">
        <ele>2207.1999511719</ele>
        <time>2014-02-12T12:13:06.000Z</time>
      </trkpt>
      <trkpt lat="45.91798" lon="6.50668">
        <ele>2207.1999511719</ele>
        <time>2014-02-12T12:13:07.000Z</time>
      </trkpt>
      <trkpt lat="45.91798" lon="6.50668">
        <ele>2207.1999511719</ele>
        <time>2014-02-12T12:13:08.000Z</time>
      </trkpt>
      <trkpt lat="45.91798" lon="6.50668">
        <ele>2207.1999511719</ele>
        <time>2014-02-12T12:13:09.000Z</time>
      </trkpt>
      <trkpt lat="45.91798" lon="6.50668">
        <ele>2207.1999511719</ele>
        <time>2014-02-12T12:13:10.000Z</time>
      </trkpt>
      <trkpt lat="45.91798" lon="6.50668">
        <ele>2207.1999511719</ele>
        <time>2014-02-12T12:13:11.000Z</time>
      </trkpt>
      <trkpt lat="45.91798" lon="6.50668">
        <ele>2207.1999511719</ele>
        <time>2014-02-12T12:13:12.000Z</time>
      </trkpt>
      <trkpt lat="45.91798" lon="6.50668">
        <ele>2207.1999511719</ele>
        <time>2014-02-12T12:13:13.000Z</time>
      </trkpt>
      <trkpt lat="45.91798" lon="6.50668">
        <ele>2207.1999511719</ele>
        <time>2014-02-12T12:13:14.000Z</time>
      </trkpt>
      <trkpt lat="45.91798" lon="6.50668">
        <ele>2207.1999511719</ele>
        <time>2014-02-12T12:13:15.000Z</time>
      </trkpt>
      <trkpt lat="45.91798" lon="6.50668">
        <ele>2207.1999511719</ele>
        <time>2014-02-12T12:13:16.000Z</time>
      </trkpt>
      <trkpt lat="45.91798" lon="6.50668">
        <ele>2207.1999511719</ele>
        <time>2014-02-12T12:13:17.000Z</time>
      </trkpt>
      <trkpt lat="45.91799" lon="6.50669">
        <ele>2207.6000976562</ele>
        <time>2014-02-12T12:13:18.000Z</time>
      </trkpt>
      <trkpt lat="45.91799" lon="6.50669">
        <ele>2207.6000976562</ele>
        <time>2014-02-12T12:13:19.000Z</time>
      </trkpt>
      <trkpt lat="45.91799" lon="6.50669">
        <ele>2207.6000976562</ele>
        <time>2014-02-12T12:13:20.000Z</time>
      </trkpt>
      <trkpt lat="45.91799" lon="6.50669">
        <ele>2207.6000976562</ele>
        <time>2014-02-12T12:13:21.000Z</time>
      </trkpt>
      <trkpt lat="45.91799" lon="6.50669">
        <ele>2207.6000976562</ele>
        <time>2014-02-12T12:13:22.000Z</time>
      </trkpt>
      <trkpt lat="45.91799" lon="6.50669">
        <ele>2207.6000976562</ele>
        <time>2014-02-12T12:13:24.000Z</time>
      </trkpt>
      <trkpt lat="45.91799" lon="6.50669">
        <ele>2207.6000976562</ele>
        <time>2014-02-12T12:13:25.000Z</time>
      </trkpt>
      <trkpt lat="45.91799" lon="6.50669">
        <ele>2207.6000976562</ele>
        <time>2014-02-12T12:13:26.000Z</time>
      </trkpt>
      <trkpt lat="45.91799" lon="6.50669">
        <ele>2207.6000976562</ele>
        <time>2014-02-12T12:13:28.000Z</time>
      </trkpt>
      <trkpt lat="45.91799" lon="6.50669">
        <ele>2207.6000976562</ele>
        <time>2014-02-12T12:13:29.000Z</time>
      </trkpt>
      <trkpt lat="45.91799" lon="6.50669">
        <ele>2207.6000976562</ele>
        <time>2014-02-12T12:13:30.000Z</time>
      </trkpt>
      <trkpt lat="45.91799" lon="6.50669">
        <ele>2207.6000976562</ele>
        <time>2014-02-12T12:13:31.000Z</time>
      </trkpt>
      <trkpt lat="45.91799" lon="6.50669">
        <ele>2207.6000976562</ele>
        <time>2014-02-12T12:13:32.000Z</time>
      </trkpt>
      <trkpt lat="45.91799" lon="6.50669">
        <ele>2207.6000976562</ele>
        <time>2014-02-12T12:13:33.000Z</time>
      </trkpt>
      <trkpt lat="45.91799" lon="6.50669">
        <ele>2207.6000976562</ele>
        <time>2014-02-12T12:13:34.000Z</time>
      </trkpt>
      <trkpt lat="45.91799" lon="6.50669">
        <ele>2207.6000976562</ele>
        <time>2014-02-12T12:13:35.000Z</time>
      </trkpt>
      <trkpt lat="45.91799" lon="6.50669">
        <ele>2207.6000976562</ele>
        <time>2014-02-12T12:13:36.000Z</time>
      </trkpt>
      <trkpt lat="45.91799" lon="6.50669">
        <ele>2207.6000976562</ele>
        <time>2014-02-12T12:13:37.000Z</time>
      </trkpt>
      <trkpt lat="45.91799" lon="6.50669">
        <ele>2207.6000976562</ele>
        <time>2014-02-12T12:13:38.000Z</time>
      </trkpt>
      <trkpt lat="45.91799" lon="6.50669">
        <ele>2207.6000976562</ele>
        <time>2014-02-12T12:13:39.000Z</time>
      </trkpt>
      <trkpt lat="45.91799" lon="6.50669">
        <ele>2207.6000976562</ele>
        <time>2014-02-12T12:13:40.000Z</time>
      </trkpt>
      <trkpt lat="45.91799" lon="6.50669">
        <ele>2207.6000976562</ele>
        <time>2014-02-12T12:13:41.000Z</time>
      </trkpt>
      <trkpt lat="45.91799" lon="6.50669">
        <ele>2207.6000976562</ele>
        <time>2014-02-12T12:13:43.000Z</time>
      </trkpt>
      <trkpt lat="45.91799" lon="6.50669">
        <ele>2207.6000976562</ele>
        <time>2014-02-12T12:13:44.000Z</time>
      </trkpt>
      <trkpt lat="45.91799" lon="6.50669">
        <ele>2207.6000976562</ele>
        <time>2014-02-12T12:13:45.000Z</time>
      </trkpt>
      <trkpt lat="45.91798" lon="6.50667">
        <ele>2206.1999511719</ele>
        <time>2014-02-12T12:13:47.000Z</time>
      </trkpt>
      <trkpt lat="45.91797" lon="6.50665">
        <ele>2204.6000976562</ele>
        <time>2014-02-12T12:13:48.000Z</time>
      </trkpt>
      <trkpt lat="45.91795" lon="6.50664">
        <ele>2203.1999511719</ele>
        <time>2014-02-12T12:13:49.000Z</time>
      </trkpt>
      <trkpt lat="45.91792" lon="6.50665">
        <ele>2202.3999023438</ele>
        <time>2014-02-12T12:13:50.000Z</time>
      </trkpt>
      <trkpt lat="45.91788" lon="6.50664">
        <ele>2200.6000976562</ele>
        <time>2014-02-12T12:13:51.000Z</time>
      </trkpt>
      <trkpt lat="45.91784" lon="6.50664">
        <ele>2198.6000976562</ele>
        <time>2014-02-12T12:13:52.000Z</time>
      </trkpt>
      <trkpt lat="45.91781" lon="6.50662">
        <ele>2196.8000488281</ele>
        <time>2014-02-12T12:13:53.000Z</time>
      </trkpt>
      <trkpt lat="45.91779" lon="6.50661">
        <ele>2194.8000488281</ele>
        <time>2014-02-12T12:13:54.000Z</time>
      </trkpt>
      <trkpt lat="45.91777" lon="6.5066">
        <ele>2193.8000488281</ele>
        <time>2014-02-12T12:13:55.000Z</time>
      </trkpt>
      <trkpt lat="45.91777" lon="6.50656">
        <ele>2190.6000976562</ele>
        <time>2014-02-12T12:13:56.000Z</time>
      </trkpt>
      <trkpt lat="45.91776" lon="6.50652">
        <ele>2187.8000488281</ele>
        <time>2014-02-12T12:13:57.000Z</time>
      </trkpt>
      <trkpt lat="45.91776" lon="6.50649">
        <ele>2185.8000488281</ele>
        <time>2014-02-12T12:13:58.000Z</time>
      </trkpt>
      <trkpt lat="45.91777" lon="6.50645">
        <ele>2184.1999511719</ele>
        <time>2014-02-12T12:13:59.000Z</time>
      </trkpt>
      <trkpt lat="45.91777" lon="6.50641">
        <ele>2182</ele>
        <time>2014-02-12T12:14:00.000Z</time>
      </trkpt>
      <trkpt lat="45.91777" lon="6.50635">
        <ele>2178.6000976562</ele>
        <time>2014-02-12T12:14:01.000Z</time>
      </trkpt>
      <trkpt lat="45.91779" lon="6.50631">
        <ele>2177.1999511719</ele>
        <time>2014-02-12T12:14:02.000Z</time>
      </trkpt>
      <trkpt lat="45.9178" lon="6.50626">
        <ele>2174.3999023438</ele>
        <time>2014-02-12T12:14:03.000Z</time>
      </trkpt>
      <trkpt lat="45.9178" lon="6.5062">
        <ele>2171.6000976562</ele>
        <time>2014-02-12T12:14:04.000Z</time>
      </trkpt>
      <trkpt lat="45.91781" lon="6.50613">
        <ele>2169.1999511719</ele>
        <time>2014-02-12T12:14:05.000Z</time>
      </trkpt>
      <trkpt lat="45.91782" lon="6.50608">
        <ele>2167.1999511719</ele>
        <time>2014-02-12T12:14:06.000Z</time>
      </trkpt>
      <trkpt lat="45.91782" lon="6.50602">
        <ele>2164.3999023438</ele>
        <time>2014-02-12T12:14:07.000Z</time>
      </trkpt>
      <trkpt lat="45.91782" lon="6.50595">
        <ele>2161.6000976562</ele>
        <time>2014-02-12T12:14:08.000Z</time>
      </trkpt>
      <trkpt lat="45.91782" lon="6.50589">
        <ele>2159.1999511719</ele>
        <time>2014-02-12T12:14:09.000Z</time>
      </trkpt>
      <trkpt lat="45.91782" lon="6.50582">
        <ele>2155.8000488281</ele>
        <time>2014-02-12T12:14:10.000Z</time>
      </trkpt>
      <trkpt lat="45.9178" lon="6.50575">
        <ele>2152</ele>
        <time>2014-02-12T12:14:11.000Z</time>
      </trkpt>
      <trkpt lat="45.91777" lon="6.50568">
        <ele>2147</ele>
        <time>2014-02-12T12:14:12.000Z</time>
      </trkpt>
      <trkpt lat="45.91772" lon="6.50562">
        <ele>2142</ele>
        <time>2014-02-12T12:14:13.000Z</time>
      </trkpt>
      <trkpt lat="45.91767" lon="6.50557">
        <ele>2137.1999511719</ele>
        <time>2014-02-12T12:14:14.000Z</time>
      </trkpt>
      <trkpt lat="45.91761" lon="6.50557">
        <ele>2134</ele>
        <time>2014-02-12T12:14:15.000Z</time>
      </trkpt>
      <trkpt lat="45.91758" lon="6.50549">
        <ele>2129.1999511719</ele>
        <time>2014-02-12T12:14:16.000Z</time>
      </trkpt>
      <trkpt lat="45.91754" lon="6.50543">
        <ele>2124.3999023438</ele>
        <time>2014-02-12T12:14:17.000Z</time>
      </trkpt>
      <trkpt lat="45.91751" lon="6.50535">
        <ele>2119.6000976562</ele>
        <time>2014-02-12T12:14:18.000Z</time>
      </trkpt>
      <trkpt lat="45.91748" lon="6.50527">
        <ele>2114.8000488281</ele>
        <time>2014-02-12T12:14:19.000Z</time>
      </trkpt>
      <trkpt lat="45.91745" lon="6.50519">
        <ele>2110.1999511719</ele>
        <time>2014-02-12T12:14:20.000Z</time>
      </trkpt>
      <trkpt lat="45.91742" lon="6.50518">
        <ele>2108</ele>
        <time>2014-02-12T12:14:21.000Z</time>
      </trkpt>
      <trkpt lat="45.91741" lon="6.50516">
        <ele>2106.6000976562</ele>
        <time>2014-02-12T12:14:22.000Z</time>
      </trkpt>
      <trkpt lat="45.91738" lon="6.50514">
        <ele>2104</ele>
        <time>2014-02-12T12:14:23.000Z</time>
      </trkpt>
      <trkpt lat="45.91733" lon="6.50512">
        <ele>2100.8000488281</ele>
        <time>2014-02-12T12:14:24.000Z</time>
      </trkpt>
      <trkpt lat="45.91732" lon="6.50509">
        <ele>2098.6000976562</ele>
        <time>2014-02-12T12:14:25.000Z</time>
      </trkpt>
      <trkpt lat="45.9173" lon="6.50505">
        <ele>2096.1999511719</ele>
        <time>2014-02-12T12:14:26.000Z</time>
      </trkpt>
      <trkpt lat="45.91727" lon="6.50501">
        <ele>2093</ele>
        <time>2014-02-12T12:14:27.000Z</time>
      </trkpt>
      <trkpt lat="45.91723" lon="6.50498">
        <ele>2090.1999511719</ele>
        <time>2014-02-12T12:14:28.000Z</time>
      </trkpt>
      <trkpt lat="45.91719" lon="6.50496">
        <ele>2089.6000976562</ele>
        <time>2014-02-12T12:14:29.000Z</time>
      </trkpt>
      <trkpt lat="45.91715" lon="6.50493">
        <ele>2088.3999023438</ele>
        <time>2014-02-12T12:14:30.000Z</time>
      </trkpt>
      <trkpt lat="45.91711" lon="6.50489">
        <ele>2087.1999511719</ele>
        <time>2014-02-12T12:14:31.000Z</time>
      </trkpt>
      <trkpt lat="45.9171" lon="6.50486">
        <ele>2085.8000488281</ele>
        <time>2014-02-12T12:14:32.000Z</time>
      </trkpt>
      <trkpt lat="45.91709" lon="6.50485">
        <ele>2085.1999511719</ele>
        <time>2014-02-12T12:14:33.000Z</time>
      </trkpt>
      <trkpt lat="45.9171" lon="6.50484">
        <ele>2085.1999511719</ele>
        <time>2014-02-12T12:14:34.000Z</time>
      </trkpt>
      <trkpt lat="45.91711" lon="6.50486">
        <ele>2085.6000976562</ele>
        <time>2014-02-12T12:14:35.000Z</time>
      </trkpt>
      <trkpt lat="45.91711" lon="6.50486">
        <ele>2085.6000976562</ele>
        <time>2014-02-12T12:14:36.000Z</time>
      </trkpt>
      <trkpt lat="45.91711" lon="6.50486">
        <ele>2085.6000976562</ele>
        <time>2014-02-12T12:14:37.000Z</time>
      </trkpt>
      <trkpt lat="45.91711" lon="6.50486">
        <ele>2085.6000976562</ele>
        <time>2014-02-12T12:14:38.000Z</time>
      </trkpt>
      <trkpt lat="45.91711" lon="6.50486">
        <ele>2085.6000976562</ele>
        <time>2014-02-12T12:14:39.000Z</time>
      </trkpt>
      <trkpt lat="45.91711" lon="6.50486">
        <ele>2085.6000976562</ele>
        <time>2014-02-12T12:14:40.000Z</time>
      </trkpt>
      <trkpt lat="45.91711" lon="6.50486">
        <ele>2085.6000976562</ele>
        <time>2014-02-12T12:14:41.000Z</time>
      </trkpt>
      <trkpt lat="45.91711" lon="6.50486">
        <ele>2085.6000976562</ele>
        <time>2014-02-12T12:14:42.000Z</time>
      </trkpt>
      <trkpt lat="45.91711" lon="6.50486">
        <ele>2085.6000976562</ele>
        <time>2014-02-12T12:14:44.000Z</time>
      </trkpt>
      <trkpt lat="45.91711" lon="6.50486">
        <ele>2085.6000976562</ele>
        <time>2014-02-12T12:14:45.000Z</time>
      </trkpt>
      <trkpt lat="45.91711" lon="6.50486">
        <ele>2085.6000976562</ele>
        <time>2014-02-12T12:14:46.000Z</time>
      </trkpt>
      <trkpt lat="45.91711" lon="6.50486">
        <ele>2085.6000976562</ele>
        <time>2014-02-12T12:14:47.000Z</time>
      </trkpt>
      <trkpt lat="45.91711" lon="6.50486">
        <ele>2085.6000976562</ele>
        <time>2014-02-12T12:14:48.000Z</time>
      </trkpt>
      <trkpt lat="45.91712" lon="6.50486">
        <ele>2085.6000976562</ele>
        <time>2014-02-12T12:14:49.000Z</time>
      </trkpt>
      <trkpt lat="45.91712" lon="6.50486">
        <ele>2085.6000976562</ele>
        <time>2014-02-12T12:14:50.000Z</time>
      </trkpt>
      <trkpt lat="45.91712" lon="6.50486">
        <ele>2085.6000976562</ele>
        <time>2014-02-12T12:14:51.000Z</time>
      </trkpt>
      <trkpt lat="45.91712" lon="6.50486">
        <ele>2085.6000976562</ele>
        <time>2014-02-12T12:14:52.000Z</time>
      </trkpt>
      <trkpt lat="45.91712" lon="6.50486">
        <ele>2085.6000976562</ele>
        <time>2014-02-12T12:14:53.000Z</time>
      </trkpt>
      <trkpt lat="45.91712" lon="6.50486">
        <ele>2085.6000976562</ele>
        <time>2014-02-12T12:14:54.000Z</time>
      </trkpt>
      <trkpt lat="45.91712" lon="6.50486">
        <ele>2085.6000976562</ele>
        <time>2014-02-12T12:14:55.000Z</time>
      </trkpt>
      <trkpt lat="45.91712" lon="6.50486">
        <ele>2085.6000976562</ele>
        <time>2014-02-12T12:14:56.000Z</time>
      </trkpt>
      <trkpt lat="45.91712" lon="6.50486">
        <ele>2085.6000976562</ele>
        <time>2014-02-12T12:14:57.000Z</time>
      </trkpt>
      <trkpt lat="45.91712" lon="6.50486">
        <ele>2085.6000976562</ele>
        <time>2014-02-12T12:14:58.000Z</time>
      </trkpt>
      <trkpt lat="45.91712" lon="6.50486">
        <ele>2085.6000976562</ele>
        <time>2014-02-12T12:14:59.000Z</time>
      </trkpt>
      <trkpt lat="45.91712" lon="6.50486">
        <ele>2085.6000976562</ele>
        <time>2014-02-12T12:15:00.000Z</time>
      </trkpt>
      <trkpt lat="45.91712" lon="6.50486">
        <ele>2085.6000976562</ele>
        <time>2014-02-12T12:15:01.000Z</time>
      </trkpt>
      <trkpt lat="45.91712" lon="6.50486">
        <ele>2085.6000976562</ele>
        <time>2014-02-12T12:15:02.000Z</time>
      </trkpt>
      <trkpt lat="45.91712" lon="6.50486">
        <ele>2085.6000976562</ele>
        <time>2014-02-12T12:15:03.000Z</time>
      </trkpt>
      <trkpt lat="45.91712" lon="6.50486">
        <ele>2085.6000976562</ele>
        <time>2014-02-12T12:15:04.000Z</time>
      </trkpt>
      <trkpt lat="45.91712" lon="6.50486">
        <ele>2085.6000976562</ele>
        <time>2014-02-12T12:15:05.000Z</time>
      </trkpt>
      <trkpt lat="45.91712" lon="6.50486">
        <ele>2085.6000976562</ele>
        <time>2014-02-12T12:15:06.000Z</time>
      </trkpt>
      <trkpt lat="45.91712" lon="6.50486">
        <ele>2085.6000976562</ele>
        <time>2014-02-12T12:15:07.000Z</time>
      </trkpt>
      <trkpt lat="45.91712" lon="6.50486">
        <ele>2085.6000976562</ele>
        <time>2014-02-12T12:15:08.000Z</time>
      </trkpt>
      <trkpt lat="45.91712" lon="6.50486">
        <ele>2085.6000976562</ele>
        <time>2014-02-12T12:15:09.000Z</time>
      </trkpt>
      <trkpt lat="45.91712" lon="6.50486">
        <ele>2085.6000976562</ele>
        <time>2014-02-12T12:15:10.000Z</time>
      </trkpt>
      <trkpt lat="45.91712" lon="6.50486">
        <ele>2085.6000976562</ele>
        <time>2014-02-12T12:15:12.000Z</time>
      </trkpt>
      <trkpt lat="45.91712" lon="6.50486">
        <ele>2085.6000976562</ele>
        <time>2014-02-12T12:15:13.000Z</time>
      </trkpt>
      <trkpt lat="45.91712" lon="6.50486">
        <ele>2085.6000976562</ele>
        <time>2014-02-12T12:15:14.000Z</time>
      </trkpt>
      <trkpt lat="45.91712" lon="6.50486">
        <ele>2085.6000976562</ele>
        <time>2014-02-12T12:15:15.000Z</time>
      </trkpt>
      <trkpt lat="45.91712" lon="6.50486">
        <ele>2085.6000976562</ele>
        <time>2014-02-12T12:15:16.000Z</time>
      </trkpt>
      <trkpt lat="45.91712" lon="6.50486">
        <ele>2085.6000976562</ele>
        <time>2014-02-12T12:15:17.000Z</time>
      </trkpt>
      <trkpt lat="45.91712" lon="6.50486">
        <ele>2085.6000976562</ele>
        <time>2014-02-12T12:15:18.000Z</time>
      </trkpt>
      <trkpt lat="45.91712" lon="6.50486">
        <ele>2085.6000976562</ele>
        <time>2014-02-12T12:15:19.000Z</time>
      </trkpt>
      <trkpt lat="45.91712" lon="6.50486">
        <ele>2085.6000976562</ele>
        <time>2014-02-12T12:15:20.000Z</time>
      </trkpt>
      <trkpt lat="45.91712" lon="6.50486">
        <ele>2085.6000976562</ele>
        <time>2014-02-12T12:15:21.000Z</time>
      </trkpt>
      <trkpt lat="45.91712" lon="6.50486">
        <ele>2085.6000976562</ele>
        <time>2014-02-12T12:15:22.000Z</time>
      </trkpt>
      <trkpt lat="45.91712" lon="6.50486">
        <ele>2085.6000976562</ele>
        <time>2014-02-12T12:15:23.000Z</time>
      </trkpt>
      <trkpt lat="45.91712" lon="6.50486">
        <ele>2085.6000976562</ele>
        <time>2014-02-12T12:15:24.000Z</time>
      </trkpt>
      <trkpt lat="45.91712" lon="6.50486">
        <ele>2085.6000976562</ele>
        <time>2014-02-12T12:15:25.000Z</time>
      </trkpt>
      <trkpt lat="45.91712" lon="6.50486">
        <ele>2085.6000976562</ele>
        <time>2014-02-12T12:15:26.000Z</time>
      </trkpt>
      <trkpt lat="45.91712" lon="6.50486">
        <ele>2085.6000976562</ele>
        <time>2014-02-12T12:15:27.000Z</time>
      </trkpt>
      <trkpt lat="45.91712" lon="6.50486">
        <ele>2085.6000976562</ele>
        <time>2014-02-12T12:15:28.000Z</time>
      </trkpt>
      <trkpt lat="45.91712" lon="6.50486">
        <ele>2085.6000976562</ele>
        <time>2014-02-12T12:15:29.000Z</time>
      </trkpt>
      <trkpt lat="45.91712" lon="6.50486">
        <ele>2085.6000976562</ele>
        <time>2014-02-12T12:15:30.000Z</time>
      </trkpt>
      <trkpt lat="45.91712" lon="6.50486">
        <ele>2085.6000976562</ele>
        <time>2014-02-12T12:15:31.000Z</time>
      </trkpt>
      <trkpt lat="45.91712" lon="6.50486">
        <ele>2085.6000976562</ele>
        <time>2014-02-12T12:15:32.000Z</time>
      </trkpt>
      <trkpt lat="45.91712" lon="6.50486">
        <ele>2085.6000976562</ele>
        <time>2014-02-12T12:15:33.000Z</time>
      </trkpt>
      <trkpt lat="45.91712" lon="6.50486">
        <ele>2085.6000976562</ele>
        <time>2014-02-12T12:15:34.000Z</time>
      </trkpt>
      <trkpt lat="45.91712" lon="6.50486">
        <ele>2085.6000976562</ele>
        <time>2014-02-12T12:15:35.000Z</time>
      </trkpt>
      <trkpt lat="45.91712" lon="6.50486">
        <ele>2085.6000976562</ele>
        <time>2014-02-12T12:15:36.000Z</time>
      </trkpt>
      <trkpt lat="45.91712" lon="6.50486">
        <ele>2085.6000976562</ele>
        <time>2014-02-12T12:15:37.000Z</time>
      </trkpt>
      <trkpt lat="45.91712" lon="6.50486">
        <ele>2085.6000976562</ele>
        <time>2014-02-12T12:15:39.000Z</time>
      </trkpt>
      <trkpt lat="45.91712" lon="6.50486">
        <ele>2085.6000976562</ele>
        <time>2014-02-12T12:15:40.000Z</time>
      </trkpt>
      <trkpt lat="45.91712" lon="6.50486">
        <ele>2085.6000976562</ele>
        <time>2014-02-12T12:15:41.000Z</time>
      </trkpt>
      <trkpt lat="45.91712" lon="6.50486">
        <ele>2085.6000976562</ele>
        <time>2014-02-12T12:15:42.000Z</time>
      </trkpt>
      <trkpt lat="45.91712" lon="6.50486">
        <ele>2085.6000976562</ele>
        <time>2014-02-12T12:15:43.000Z</time>
      </trkpt>
      <trkpt lat="45.91712" lon="6.50486">
        <ele>2085.6000976562</ele>
        <time>2014-02-12T12:15:44.000Z</time>
      </trkpt>
      <trkpt lat="45.91712" lon="6.50486">
        <ele>2085.6000976562</ele>
        <time>2014-02-12T12:15:45.000Z</time>
      </trkpt>
      <trkpt lat="45.91712" lon="6.50486">
        <ele>2085.6000976562</ele>
        <time>2014-02-12T12:15:46.000Z</time>
      </trkpt>
      <trkpt lat="45.91712" lon="6.50486">
        <ele>2085.6000976562</ele>
        <time>2014-02-12T12:15:47.000Z</time>
      </trkpt>
      <trkpt lat="45.91712" lon="6.50486">
        <ele>2085.6000976562</ele>
        <time>2014-02-12T12:15:48.000Z</time>
      </trkpt>
      <trkpt lat="45.91712" lon="6.50486">
        <ele>2085.6000976562</ele>
        <time>2014-02-12T12:15:49.000Z</time>
      </trkpt>
      <trkpt lat="45.91712" lon="6.50486">
        <ele>2085.6000976562</ele>
        <time>2014-02-12T12:15:50.000Z</time>
      </trkpt>
      <trkpt lat="45.91712" lon="6.50486">
        <ele>2085.6000976562</ele>
        <time>2014-02-12T12:15:52.000Z</time>
      </trkpt>
      <trkpt lat="45.91712" lon="6.50486">
        <ele>2085.6000976562</ele>
        <time>2014-02-12T12:15:53.000Z</time>
      </trkpt>
      <trkpt lat="45.91712" lon="6.50486">
        <ele>2085.6000976562</ele>
        <time>2014-02-12T12:15:55.000Z</time>
      </trkpt>
      <trkpt lat="45.91712" lon="6.50486">
        <ele>2085.6000976562</ele>
        <time>2014-02-12T12:15:56.000Z</time>
      </trkpt>
      <trkpt lat="45.91712" lon="6.50486">
        <ele>2085.6000976562</ele>
        <time>2014-02-12T12:15:57.000Z</time>
      </trkpt>
      <trkpt lat="45.91712" lon="6.50486">
        <ele>2085.6000976562</ele>
        <time>2014-02-12T12:15:58.000Z</time>
      </trkpt>
      <trkpt lat="45.91712" lon="6.50486">
        <ele>2085.6000976562</ele>
        <time>2014-02-12T12:15:59.000Z</time>
      </trkpt>
      <trkpt lat="45.91712" lon="6.50486">
        <ele>2085.6000976562</ele>
        <time>2014-02-12T12:16:00.000Z</time>
      </trkpt>
      <trkpt lat="45.91712" lon="6.50486">
        <ele>2085.6000976562</ele>
        <time>2014-02-12T12:16:01.000Z</time>
      </trkpt>
      <trkpt lat="45.91712" lon="6.50486">
        <ele>2085.6000976562</ele>
        <time>2014-02-12T12:16:02.000Z</time>
      </trkpt>
      <trkpt lat="45.91712" lon="6.50486">
        <ele>2085.6000976562</ele>
        <time>2014-02-12T12:16:03.000Z</time>
      </trkpt>
      <trkpt lat="45.91712" lon="6.50486">
        <ele>2085.6000976562</ele>
        <time>2014-02-12T12:16:04.000Z</time>
      </trkpt>
      <trkpt lat="45.91712" lon="6.50486">
        <ele>2085.6000976562</ele>
        <time>2014-02-12T12:16:05.000Z</time>
      </trkpt>
      <trkpt lat="45.91712" lon="6.50486">
        <ele>2085.6000976562</ele>
        <time>2014-02-12T12:16:07.000Z</time>
      </trkpt>
      <trkpt lat="45.91712" lon="6.50487">
        <ele>2086</ele>
        <time>2014-02-12T12:16:09.000Z</time>
      </trkpt>
      <trkpt lat="45.91712" lon="6.50487">
        <ele>2086</ele>
        <time>2014-02-12T12:16:10.000Z</time>
      </trkpt>
      <trkpt lat="45.91712" lon="6.50487">
        <ele>2086</ele>
        <time>2014-02-12T12:16:11.000Z</time>
      </trkpt>
      <trkpt lat="45.91712" lon="6.50487">
        <ele>2086</ele>
        <time>2014-02-12T12:16:12.000Z</time>
      </trkpt>
      <trkpt lat="45.91712" lon="6.50487">
        <ele>2086</ele>
        <time>2014-02-12T12:16:13.000Z</time>
      </trkpt>
      <trkpt lat="45.91712" lon="6.50487">
        <ele>2086</ele>
        <time>2014-02-12T12:16:14.000Z</time>
      </trkpt>
      <trkpt lat="45.91712" lon="6.50487">
        <ele>2086</ele>
        <time>2014-02-12T12:16:15.000Z</time>
      </trkpt>
      <trkpt lat="45.91712" lon="6.50487">
        <ele>2086</ele>
        <time>2014-02-12T12:16:18.000Z</time>
      </trkpt>
      <trkpt lat="45.91712" lon="6.50487">
        <ele>2086</ele>
        <time>2014-02-12T12:16:19.000Z</time>
      </trkpt>
      <trkpt lat="45.91712" lon="6.50487">
        <ele>2086</ele>
        <time>2014-02-12T12:16:20.000Z</time>
      </trkpt>
      <trkpt lat="45.91712" lon="6.50487">
        <ele>2086</ele>
        <time>2014-02-12T12:16:21.000Z</time>
      </trkpt>
      <trkpt lat="45.91712" lon="6.50487">
        <ele>2086</ele>
        <time>2014-02-12T12:16:22.000Z</time>
      </trkpt>
      <trkpt lat="45.91712" lon="6.50487">
        <ele>2086</ele>
        <time>2014-02-12T12:16:23.000Z</time>
      </trkpt>
      <trkpt lat="45.91712" lon="6.50487">
        <ele>2086</ele>
        <time>2014-02-12T12:16:25.000Z</time>
      </trkpt>
      <trkpt lat="45.91712" lon="6.50487">
        <ele>2086</ele>
        <time>2014-02-12T12:16:26.000Z</time>
      </trkpt>
      <trkpt lat="45.91712" lon="6.50487">
        <ele>2086</ele>
        <time>2014-02-12T12:16:29.000Z</time>
      </trkpt>
      <trkpt lat="45.91712" lon="6.50487">
        <ele>2086</ele>
        <time>2014-02-12T12:16:32.000Z</time>
      </trkpt>
      <trkpt lat="45.91712" lon="6.50487">
        <ele>2086</ele>
        <time>2014-02-12T12:16:33.000Z</time>
      </trkpt>
      <trkpt lat="45.91712" lon="6.50487">
        <ele>2086</ele>
        <time>2014-02-12T12:16:34.000Z</time>
      </trkpt>
      <trkpt lat="45.91712" lon="6.50487">
        <ele>2086</ele>
        <time>2014-02-12T12:16:35.000Z</time>
      </trkpt>
      <trkpt lat="45.91712" lon="6.50487">
        <ele>2086</ele>
        <time>2014-02-12T12:16:36.000Z</time>
      </trkpt>
      <trkpt lat="45.91712" lon="6.50487">
        <ele>2086</ele>
        <time>2014-02-12T12:16:37.000Z</time>
      </trkpt>
      <trkpt lat="45.91712" lon="6.50487">
        <ele>2086</ele>
        <time>2014-02-12T12:16:38.000Z</time>
      </trkpt>
      <trkpt lat="45.91712" lon="6.50487">
        <ele>2086</ele>
        <time>2014-02-12T12:16:39.000Z</time>
      </trkpt>
      <trkpt lat="45.91712" lon="6.50487">
        <ele>2086</ele>
        <time>2014-02-12T12:16:40.000Z</time>
      </trkpt>
      <trkpt lat="45.91712" lon="6.50487">
        <ele>2086</ele>
        <time>2014-02-12T12:16:41.000Z</time>
      </trkpt>
      <trkpt lat="45.91712" lon="6.50487">
        <ele>2086</ele>
        <time>2014-02-12T12:16:42.000Z</time>
      </trkpt>
      <trkpt lat="45.91712" lon="6.50487">
        <ele>2086</ele>
        <time>2014-02-12T12:16:43.000Z</time>
      </trkpt>
      <trkpt lat="45.91712" lon="6.50487">
        <ele>2086</ele>
        <time>2014-02-12T12:16:44.000Z</time>
      </trkpt>
      <trkpt lat="45.91712" lon="6.50487">
        <ele>2086</ele>
        <time>2014-02-12T12:16:46.000Z</time>
      </trkpt>
      <trkpt lat="45.91712" lon="6.50487">
        <ele>2086</ele>
        <time>2014-02-12T12:16:47.000Z</time>
      </trkpt>
      <trkpt lat="45.91712" lon="6.50488">
        <ele>2086.3999023438</ele>
        <time>2014-02-12T12:16:50.000Z</time>
      </trkpt>
      <trkpt lat="45.91712" lon="6.50488">
        <ele>2086.3999023438</ele>
        <time>2014-02-12T12:16:51.000Z</time>
      </trkpt>
      <trkpt lat="45.91712" lon="6.50488">
        <ele>2086.3999023438</ele>
        <time>2014-02-12T12:16:52.000Z</time>
      </trkpt>
      <trkpt lat="45.91712" lon="6.50488">
        <ele>2086.3999023438</ele>
        <time>2014-02-12T12:16:53.000Z</time>
      </trkpt>
      <trkpt lat="45.91712" lon="6.50488">
        <ele>2086.3999023438</ele>
        <time>2014-02-12T12:16:54.000Z</time>
      </trkpt>
      <trkpt lat="45.91712" lon="6.50488">
        <ele>2086.3999023438</ele>
        <time>2014-02-12T12:16:55.000Z</time>
      </trkpt>
      <trkpt lat="45.91712" lon="6.50488">
        <ele>2086.3999023438</ele>
        <time>2014-02-12T12:16:56.000Z</time>
      </trkpt>
      <trkpt lat="45.91712" lon="6.50488">
        <ele>2086.3999023438</ele>
        <time>2014-02-12T12:16:57.000Z</time>
      </trkpt>
      <trkpt lat="45.91712" lon="6.50488">
        <ele>2086.3999023438</ele>
        <time>2014-02-12T12:16:58.000Z</time>
      </trkpt>
      <trkpt lat="45.91712" lon="6.50488">
        <ele>2086.3999023438</ele>
        <time>2014-02-12T12:16:59.000Z</time>
      </trkpt>
      <trkpt lat="45.91712" lon="6.50488">
        <ele>2086.3999023438</ele>
        <time>2014-02-12T12:17:00.000Z</time>
      </trkpt>
      <trkpt lat="45.91712" lon="6.50488">
        <ele>2086.3999023438</ele>
        <time>2014-02-12T12:17:01.000Z</time>
      </trkpt>
      <trkpt lat="45.91712" lon="6.50488">
        <ele>2086.3999023438</ele>
        <time>2014-02-12T12:17:02.000Z</time>
      </trkpt>
      <trkpt lat="45.91712" lon="6.50488">
        <ele>2086.3999023438</ele>
        <time>2014-02-12T12:17:03.000Z</time>
      </trkpt>
      <trkpt lat="45.91712" lon="6.50488">
        <ele>2086.3999023438</ele>
        <time>2014-02-12T12:17:04.000Z</time>
      </trkpt>
      <trkpt lat="45.91712" lon="6.50488">
        <ele>2086.3999023438</ele>
        <time>2014-02-12T12:17:06.000Z</time>
      </trkpt>
      <trkpt lat="45.91712" lon="6.50488">
        <ele>2086.3999023438</ele>
        <time>2014-02-12T12:17:07.000Z</time>
      </trkpt>
      <trkpt lat="45.91712" lon="6.50488">
        <ele>2086.3999023438</ele>
        <time>2014-02-12T12:17:08.000Z</time>
      </trkpt>
      <trkpt lat="45.91712" lon="6.50488">
        <ele>2086.3999023438</ele>
        <time>2014-02-12T12:17:09.000Z</time>
      </trkpt>
      <trkpt lat="45.91712" lon="6.50488">
        <ele>2086.3999023438</ele>
        <time>2014-02-12T12:17:10.000Z</time>
      </trkpt>
      <trkpt lat="45.91712" lon="6.50488">
        <ele>2086.3999023438</ele>
        <time>2014-02-12T12:17:11.000Z</time>
      </trkpt>
      <trkpt lat="45.91712" lon="6.50488">
        <ele>2086.3999023438</ele>
        <time>2014-02-12T12:17:12.000Z</time>
      </trkpt>
      <trkpt lat="45.91712" lon="6.50488">
        <ele>2086.3999023438</ele>
        <time>2014-02-12T12:17:13.000Z</time>
      </trkpt>
      <trkpt lat="45.91712" lon="6.50488">
        <ele>2086.3999023438</ele>
        <time>2014-02-12T12:17:14.000Z</time>
      </trkpt>
      <trkpt lat="45.91712" lon="6.50488">
        <ele>2086.3999023438</ele>
        <time>2014-02-12T12:17:15.000Z</time>
      </trkpt>
      <trkpt lat="45.91712" lon="6.50488">
        <ele>2086.3999023438</ele>
        <time>2014-02-12T12:17:16.000Z</time>
      </trkpt>
      <trkpt lat="45.91712" lon="6.50488">
        <ele>2086.3999023438</ele>
        <time>2014-02-12T12:17:17.000Z</time>
      </trkpt>
      <trkpt lat="45.91712" lon="6.50488">
        <ele>2086.3999023438</ele>
        <time>2014-02-12T12:17:18.000Z</time>
      </trkpt>
      <trkpt lat="45.91712" lon="6.50488">
        <ele>2086.3999023438</ele>
        <time>2014-02-12T12:17:19.000Z</time>
      </trkpt>
      <trkpt lat="45.91712" lon="6.50488">
        <ele>2086.3999023438</ele>
        <time>2014-02-12T12:17:20.000Z</time>
      </trkpt>
      <trkpt lat="45.91712" lon="6.50488">
        <ele>2086.3999023438</ele>
        <time>2014-02-12T12:17:21.000Z</time>
      </trkpt>
      <trkpt lat="45.91712" lon="6.50488">
        <ele>2086.3999023438</ele>
        <time>2014-02-12T12:17:22.000Z</time>
      </trkpt>
      <trkpt lat="45.91712" lon="6.50488">
        <ele>2086.3999023438</ele>
        <time>2014-02-12T12:17:23.000Z</time>
      </trkpt>
      <trkpt lat="45.91712" lon="6.50488">
        <ele>2086.3999023438</ele>
        <time>2014-02-12T12:17:24.000Z</time>
      </trkpt>
      <trkpt lat="45.91712" lon="6.50488">
        <ele>2086.3999023438</ele>
        <time>2014-02-12T12:17:25.000Z</time>
      </trkpt>
      <trkpt lat="45.91712" lon="6.50488">
        <ele>2086.3999023438</ele>
        <time>2014-02-12T12:17:26.000Z</time>
      </trkpt>
      <trkpt lat="45.91712" lon="6.50488">
        <ele>2086.3999023438</ele>
        <time>2014-02-12T12:17:27.000Z</time>
      </trkpt>
      <trkpt lat="45.91712" lon="6.50488">
        <ele>2086.3999023438</ele>
        <time>2014-02-12T12:17:28.000Z</time>
      </trkpt>
      <trkpt lat="45.91712" lon="6.50488">
        <ele>2086.3999023438</ele>
        <time>2014-02-12T12:17:29.000Z</time>
      </trkpt>
      <trkpt lat="45.91712" lon="6.50488">
        <ele>2086.3999023438</ele>
        <time>2014-02-12T12:17:30.000Z</time>
      </trkpt>
      <trkpt lat="45.91712" lon="6.50488">
        <ele>2086.3999023438</ele>
        <time>2014-02-12T12:17:31.000Z</time>
      </trkpt>
      <trkpt lat="45.91712" lon="6.50488">
        <ele>2086.3999023438</ele>
        <time>2014-02-12T12:17:32.000Z</time>
      </trkpt>
      <trkpt lat="45.91712" lon="6.50488">
        <ele>2086.3999023438</ele>
        <time>2014-02-12T12:17:37.000Z</time>
      </trkpt>
      <trkpt lat="45.91712" lon="6.50488">
        <ele>2086.3999023438</ele>
        <time>2014-02-12T12:17:38.000Z</time>
      </trkpt>
      <trkpt lat="45.91712" lon="6.50488">
        <ele>2086.3999023438</ele>
        <time>2014-02-12T12:17:39.000Z</time>
      </trkpt>
      <trkpt lat="45.91712" lon="6.50488">
        <ele>2086.3999023438</ele>
        <time>2014-02-12T12:17:40.000Z</time>
      </trkpt>
      <trkpt lat="45.91712" lon="6.50488">
        <ele>2086.3999023438</ele>
        <time>2014-02-12T12:17:41.000Z</time>
      </trkpt>
      <trkpt lat="45.91712" lon="6.50488">
        <ele>2086.3999023438</ele>
        <time>2014-02-12T12:17:42.000Z</time>
      </trkpt>
      <trkpt lat="45.91712" lon="6.50488">
        <ele>2086.3999023438</ele>
        <time>2014-02-12T12:17:43.000Z</time>
      </trkpt>
      <trkpt lat="45.91712" lon="6.50488">
        <ele>2086.3999023438</ele>
        <time>2014-02-12T12:17:44.000Z</time>
      </trkpt>
      <trkpt lat="45.91712" lon="6.50488">
        <ele>2086.3999023438</ele>
        <time>2014-02-12T12:17:45.000Z</time>
      </trkpt>
      <trkpt lat="45.91712" lon="6.50488">
        <ele>2086.3999023438</ele>
        <time>2014-02-12T12:17:46.000Z</time>
      </trkpt>
      <trkpt lat="45.91712" lon="6.50488">
        <ele>2086.3999023438</ele>
        <time>2014-02-12T12:17:47.000Z</time>
      </trkpt>
      <trkpt lat="45.91712" lon="6.50488">
        <ele>2086.3999023438</ele>
        <time>2014-02-12T12:17:48.000Z</time>
      </trkpt>
      <trkpt lat="45.91712" lon="6.50488">
        <ele>2086.3999023438</ele>
        <time>2014-02-12T12:17:49.000Z</time>
      </trkpt>
      <trkpt lat="45.91712" lon="6.50488">
        <ele>2086.3999023438</ele>
        <time>2014-02-12T12:17:50.000Z</time>
      </trkpt>
      <trkpt lat="45.91712" lon="6.50488">
        <ele>2086.3999023438</ele>
        <time>2014-02-12T12:17:51.000Z</time>
      </trkpt>
      <trkpt lat="45.91712" lon="6.50488">
        <ele>2086.3999023438</ele>
        <time>2014-02-12T12:17:53.000Z</time>
      </trkpt>
      <trkpt lat="45.91712" lon="6.50488">
        <ele>2086.3999023438</ele>
        <time>2014-02-12T12:17:54.000Z</time>
      </trkpt>
      <trkpt lat="45.91712" lon="6.50488">
        <ele>2086.3999023438</ele>
        <time>2014-02-12T12:17:55.000Z</time>
      </trkpt>
      <trkpt lat="45.91712" lon="6.50488">
        <ele>2086.3999023438</ele>
        <time>2014-02-12T12:17:56.000Z</time>
      </trkpt>
      <trkpt lat="45.91712" lon="6.50488">
        <ele>2086.3999023438</ele>
        <time>2014-02-12T12:17:57.000Z</time>
      </trkpt>
      <trkpt lat="45.91712" lon="6.50488">
        <ele>2086.3999023438</ele>
        <time>2014-02-12T12:18:00.000Z</time>
      </trkpt>
      <trkpt lat="45.91712" lon="6.50488">
        <ele>2086.3999023438</ele>
        <time>2014-02-12T12:18:01.000Z</time>
      </trkpt>
      <trkpt lat="45.91712" lon="6.50488">
        <ele>2086.3999023438</ele>
        <time>2014-02-12T12:18:02.000Z</time>
      </trkpt>
      <trkpt lat="45.91712" lon="6.50488">
        <ele>2086.3999023438</ele>
        <time>2014-02-12T12:18:03.000Z</time>
      </trkpt>
      <trkpt lat="45.91712" lon="6.50488">
        <ele>2086.3999023438</ele>
        <time>2014-02-12T12:18:04.000Z</time>
      </trkpt>
      <trkpt lat="45.91712" lon="6.50488">
        <ele>2086.3999023438</ele>
        <time>2014-02-12T12:18:05.000Z</time>
      </trkpt>
      <trkpt lat="45.91712" lon="6.50488">
        <ele>2086.3999023438</ele>
        <time>2014-02-12T12:18:06.000Z</time>
      </trkpt>
      <trkpt lat="45.91712" lon="6.50488">
        <ele>2086.3999023438</ele>
        <time>2014-02-12T12:18:07.000Z</time>
      </trkpt>
      <trkpt lat="45.91712" lon="6.50488">
        <ele>2086.3999023438</ele>
        <time>2014-02-12T12:18:08.000Z</time>
      </trkpt>
      <trkpt lat="45.91712" lon="6.50487">
        <ele>2086</ele>
        <time>2014-02-12T12:18:09.000Z</time>
      </trkpt>
      <trkpt lat="45.91712" lon="6.50487">
        <ele>2086</ele>
        <time>2014-02-12T12:18:10.000Z</time>
      </trkpt>
      <trkpt lat="45.91712" lon="6.50487">
        <ele>2086</ele>
        <time>2014-02-12T12:18:11.000Z</time>
      </trkpt>
      <trkpt lat="45.91712" lon="6.50487">
        <ele>2086</ele>
        <time>2014-02-12T12:18:12.000Z</time>
      </trkpt>
      <trkpt lat="45.91712" lon="6.50487">
        <ele>2086</ele>
        <time>2014-02-12T12:18:13.000Z</time>
      </trkpt>
      <trkpt lat="45.91712" lon="6.50487">
        <ele>2086</ele>
        <time>2014-02-12T12:18:14.000Z</time>
      </trkpt>
      <trkpt lat="45.91712" lon="6.50487">
        <ele>2086</ele>
        <time>2014-02-12T12:18:15.000Z</time>
      </trkpt>
      <trkpt lat="45.91712" lon="6.50487">
        <ele>2086</ele>
        <time>2014-02-12T12:18:16.000Z</time>
      </trkpt>
      <trkpt lat="45.91712" lon="6.50487">
        <ele>2086</ele>
        <time>2014-02-12T12:18:17.000Z</time>
      </trkpt>
      <trkpt lat="45.91712" lon="6.50487">
        <ele>2086</ele>
        <time>2014-02-12T12:18:18.000Z</time>
      </trkpt>
      <trkpt lat="45.91712" lon="6.50487">
        <ele>2086</ele>
        <time>2014-02-12T12:18:19.000Z</time>
      </trkpt>
      <trkpt lat="45.91712" lon="6.50487">
        <ele>2086</ele>
        <time>2014-02-12T12:18:20.000Z</time>
      </trkpt>
      <trkpt lat="45.91712" lon="6.50487">
        <ele>2086</ele>
        <time>2014-02-12T12:18:21.000Z</time>
      </trkpt>
      <trkpt lat="45.91712" lon="6.50487">
        <ele>2086</ele>
        <time>2014-02-12T12:18:22.000Z</time>
      </trkpt>
      <trkpt lat="45.91712" lon="6.50487">
        <ele>2086</ele>
        <time>2014-02-12T12:18:25.000Z</time>
      </trkpt>
      <trkpt lat="45.91712" lon="6.50487">
        <ele>2086</ele>
        <time>2014-02-12T12:18:27.000Z</time>
      </trkpt>
      <trkpt lat="45.91712" lon="6.50487">
        <ele>2086</ele>
        <time>2014-02-12T12:18:28.000Z</time>
      </trkpt>
      <trkpt lat="45.91712" lon="6.50487">
        <ele>2086</ele>
        <time>2014-02-12T12:18:29.000Z</time>
      </trkpt>
      <trkpt lat="45.91712" lon="6.50487">
        <ele>2086</ele>
        <time>2014-02-12T12:18:30.000Z</time>
      </trkpt>
      <trkpt lat="45.91712" lon="6.50487">
        <ele>2086</ele>
        <time>2014-02-12T12:18:31.000Z</time>
      </trkpt>
      <trkpt lat="45.91712" lon="6.50487">
        <ele>2086</ele>
        <time>2014-02-12T12:18:32.000Z</time>
      </trkpt>
      <trkpt lat="45.91712" lon="6.50487">
        <ele>2086</ele>
        <time>2014-02-12T12:18:33.000Z</time>
      </trkpt>
      <trkpt lat="45.91712" lon="6.50487">
        <ele>2086</ele>
        <time>2014-02-12T12:18:34.000Z</time>
      </trkpt>
      <trkpt lat="45.91712" lon="6.50487">
        <ele>2086</ele>
        <time>2014-02-12T12:18:35.000Z</time>
      </trkpt>
      <trkpt lat="45.91712" lon="6.50487">
        <ele>2086</ele>
        <time>2014-02-12T12:18:36.000Z</time>
      </trkpt>
      <trkpt lat="45.91712" lon="6.50487">
        <ele>2086</ele>
        <time>2014-02-12T12:18:38.000Z</time>
      </trkpt>
      <trkpt lat="45.91712" lon="6.50487">
        <ele>2086</ele>
        <time>2014-02-12T12:18:39.000Z</time>
      </trkpt>
      <trkpt lat="45.91712" lon="6.50487">
        <ele>2086</ele>
        <time>2014-02-12T12:18:40.000Z</time>
      </trkpt>
      <trkpt lat="45.91712" lon="6.50487">
        <ele>2086</ele>
        <time>2014-02-12T12:18:42.000Z</time>
      </trkpt>
      <trkpt lat="45.91712" lon="6.50487">
        <ele>2086</ele>
        <time>2014-02-12T12:18:43.000Z</time>
      </trkpt>
      <trkpt lat="45.91712" lon="6.50487">
        <ele>2086</ele>
        <time>2014-02-12T12:18:45.000Z</time>
      </trkpt>
      <trkpt lat="45.91712" lon="6.50487">
        <ele>2086</ele>
        <time>2014-02-12T12:18:46.000Z</time>
      </trkpt>
      <trkpt lat="45.91712" lon="6.50487">
        <ele>2086</ele>
        <time>2014-02-12T12:18:47.000Z</time>
      </trkpt>
      <trkpt lat="45.91712" lon="6.50487">
        <ele>2086</ele>
        <time>2014-02-12T12:18:48.000Z</time>
      </trkpt>
      <trkpt lat="45.91713" lon="6.50486">
        <ele>2085.8000488281</ele>
        <time>2014-02-12T12:18:49.000Z</time>
      </trkpt>
      <trkpt lat="45.91713" lon="6.50486">
        <ele>2085.8000488281</ele>
        <time>2014-02-12T12:18:50.000Z</time>
      </trkpt>
      <trkpt lat="45.91713" lon="6.50486">
        <ele>2085.8000488281</ele>
        <time>2014-02-12T12:18:51.000Z</time>
      </trkpt>
      <trkpt lat="45.91713" lon="6.50486">
        <ele>2085.8000488281</ele>
        <time>2014-02-12T12:18:52.000Z</time>
      </trkpt>
      <trkpt lat="45.91713" lon="6.50486">
        <ele>2085.8000488281</ele>
        <time>2014-02-12T12:18:53.000Z</time>
      </trkpt>
      <trkpt lat="45.91713" lon="6.50486">
        <ele>2085.8000488281</ele>
        <time>2014-02-12T12:18:54.000Z</time>
      </trkpt>
      <trkpt lat="45.91713" lon="6.50486">
        <ele>2085.8000488281</ele>
        <time>2014-02-12T12:18:55.000Z</time>
      </trkpt>
      <trkpt lat="45.91713" lon="6.50486">
        <ele>2085.8000488281</ele>
        <time>2014-02-12T12:18:56.000Z</time>
      </trkpt>
      <trkpt lat="45.91713" lon="6.50486">
        <ele>2085.8000488281</ele>
        <time>2014-02-12T12:18:57.000Z</time>
      </trkpt>
      <trkpt lat="45.91713" lon="6.50486">
        <ele>2085.8000488281</ele>
        <time>2014-02-12T12:18:58.000Z</time>
      </trkpt>
      <trkpt lat="45.91713" lon="6.50486">
        <ele>2085.8000488281</ele>
        <time>2014-02-12T12:18:59.000Z</time>
      </trkpt>
      <trkpt lat="45.91713" lon="6.50486">
        <ele>2085.8000488281</ele>
        <time>2014-02-12T12:19:00.000Z</time>
      </trkpt>
      <trkpt lat="45.91713" lon="6.50486">
        <ele>2085.8000488281</ele>
        <time>2014-02-12T12:19:01.000Z</time>
      </trkpt>
      <trkpt lat="45.91713" lon="6.50486">
        <ele>2085.8000488281</ele>
        <time>2014-02-12T12:19:02.000Z</time>
      </trkpt>
      <trkpt lat="45.91713" lon="6.50486">
        <ele>2085.8000488281</ele>
        <time>2014-02-12T12:19:04.000Z</time>
      </trkpt>
      <trkpt lat="45.91713" lon="6.50486">
        <ele>2085.8000488281</ele>
        <time>2014-02-12T12:19:05.000Z</time>
      </trkpt>
      <trkpt lat="45.91713" lon="6.50486">
        <ele>2085.8000488281</ele>
        <time>2014-02-12T12:19:06.000Z</time>
      </trkpt>
      <trkpt lat="45.91713" lon="6.50486">
        <ele>2085.8000488281</ele>
        <time>2014-02-12T12:19:08.000Z</time>
      </trkpt>
      <trkpt lat="45.91713" lon="6.50486">
        <ele>2085.8000488281</ele>
        <time>2014-02-12T12:19:09.000Z</time>
      </trkpt>
      <trkpt lat="45.91713" lon="6.50486">
        <ele>2085.8000488281</ele>
        <time>2014-02-12T12:19:10.000Z</time>
      </trkpt>
      <trkpt lat="45.91713" lon="6.50486">
        <ele>2085.8000488281</ele>
        <time>2014-02-12T12:19:11.000Z</time>
      </trkpt>
      <trkpt lat="45.91713" lon="6.50486">
        <ele>2085.8000488281</ele>
        <time>2014-02-12T12:19:12.000Z</time>
      </trkpt>
      <trkpt lat="45.91713" lon="6.50486">
        <ele>2085.8000488281</ele>
        <time>2014-02-12T12:19:13.000Z</time>
      </trkpt>
      <trkpt lat="45.91713" lon="6.50486">
        <ele>2085.8000488281</ele>
        <time>2014-02-12T12:19:14.000Z</time>
      </trkpt>
      <trkpt lat="45.91713" lon="6.50486">
        <ele>2085.8000488281</ele>
        <time>2014-02-12T12:19:18.000Z</time>
      </trkpt>
      <trkpt lat="45.91713" lon="6.50486">
        <ele>2085.8000488281</ele>
        <time>2014-02-12T12:19:19.000Z</time>
      </trkpt>
      <trkpt lat="45.91713" lon="6.50486">
        <ele>2085.8000488281</ele>
        <time>2014-02-12T12:19:20.000Z</time>
      </trkpt>
      <trkpt lat="45.91713" lon="6.50486">
        <ele>2085.8000488281</ele>
        <time>2014-02-12T12:19:21.000Z</time>
      </trkpt>
      <trkpt lat="45.91713" lon="6.50486">
        <ele>2085.8000488281</ele>
        <time>2014-02-12T12:19:22.000Z</time>
      </trkpt>
      <trkpt lat="45.91713" lon="6.50486">
        <ele>2085.8000488281</ele>
        <time>2014-02-12T12:19:23.000Z</time>
      </trkpt>
      <trkpt lat="45.91713" lon="6.50486">
        <ele>2085.8000488281</ele>
        <time>2014-02-12T12:19:24.000Z</time>
      </trkpt>
      <trkpt lat="45.91713" lon="6.50486">
        <ele>2085.8000488281</ele>
        <time>2014-02-12T12:19:25.000Z</time>
      </trkpt>
      <trkpt lat="45.91713" lon="6.50486">
        <ele>2085.8000488281</ele>
        <time>2014-02-12T12:19:26.000Z</time>
      </trkpt>
      <trkpt lat="45.91713" lon="6.50486">
        <ele>2085.8000488281</ele>
        <time>2014-02-12T12:19:28.000Z</time>
      </trkpt>
      <trkpt lat="45.91713" lon="6.50486">
        <ele>2085.6000976562</ele>
        <time>2014-02-12T12:19:29.000Z</time>
      </trkpt>
      <trkpt lat="45.91713" lon="6.50486">
        <ele>2085.6000976562</ele>
        <time>2014-02-12T12:19:30.000Z</time>
      </trkpt>
      <trkpt lat="45.91713" lon="6.50486">
        <ele>2085.6000976562</ele>
        <time>2014-02-12T12:19:31.000Z</time>
      </trkpt>
      <trkpt lat="45.91713" lon="6.50486">
        <ele>2085.6000976562</ele>
        <time>2014-02-12T12:19:32.000Z</time>
      </trkpt>
      <trkpt lat="45.91713" lon="6.50486">
        <ele>2085.6000976562</ele>
        <time>2014-02-12T12:19:33.000Z</time>
      </trkpt>
      <trkpt lat="45.91713" lon="6.50486">
        <ele>2085.6000976562</ele>
        <time>2014-02-12T12:19:34.000Z</time>
      </trkpt>
      <trkpt lat="45.91713" lon="6.50486">
        <ele>2085.6000976562</ele>
        <time>2014-02-12T12:19:35.000Z</time>
      </trkpt>
      <trkpt lat="45.91713" lon="6.50486">
        <ele>2085.6000976562</ele>
        <time>2014-02-12T12:19:36.000Z</time>
      </trkpt>
      <trkpt lat="45.91713" lon="6.50486">
        <ele>2085.6000976562</ele>
        <time>2014-02-12T12:19:37.000Z</time>
      </trkpt>
      <trkpt lat="45.91713" lon="6.50486">
        <ele>2085.6000976562</ele>
        <time>2014-02-12T12:19:38.000Z</time>
      </trkpt>
      <trkpt lat="45.91713" lon="6.50486">
        <ele>2085.6000976562</ele>
        <time>2014-02-12T12:19:39.000Z</time>
      </trkpt>
      <trkpt lat="45.91713" lon="6.50486">
        <ele>2085.6000976562</ele>
        <time>2014-02-12T12:19:40.000Z</time>
      </trkpt>
      <trkpt lat="45.91713" lon="6.50486">
        <ele>2085.6000976562</ele>
        <time>2014-02-12T12:19:41.000Z</time>
      </trkpt>
      <trkpt lat="45.91713" lon="6.50486">
        <ele>2085.6000976562</ele>
        <time>2014-02-12T12:19:42.000Z</time>
      </trkpt>
      <trkpt lat="45.91713" lon="6.50486">
        <ele>2085.6000976562</ele>
        <time>2014-02-12T12:19:43.000Z</time>
      </trkpt>
      <trkpt lat="45.91713" lon="6.50486">
        <ele>2085.6000976562</ele>
        <time>2014-02-12T12:19:44.000Z</time>
      </trkpt>
      <trkpt lat="45.91713" lon="6.50486">
        <ele>2085.6000976562</ele>
        <time>2014-02-12T12:19:45.000Z</time>
      </trkpt>
      <trkpt lat="45.91713" lon="6.50486">
        <ele>2085.6000976562</ele>
        <time>2014-02-12T12:19:47.000Z</time>
      </trkpt>
      <trkpt lat="45.91713" lon="6.50486">
        <ele>2085.6000976562</ele>
        <time>2014-02-12T12:19:48.000Z</time>
      </trkpt>
      <trkpt lat="45.91713" lon="6.50486">
        <ele>2085.6000976562</ele>
        <time>2014-02-12T12:19:49.000Z</time>
      </trkpt>
      <trkpt lat="45.91713" lon="6.50486">
        <ele>2085.6000976562</ele>
        <time>2014-02-12T12:19:51.000Z</time>
      </trkpt>
      <trkpt lat="45.91713" lon="6.50486">
        <ele>2085.6000976562</ele>
        <time>2014-02-12T12:19:52.000Z</time>
      </trkpt>
      <trkpt lat="45.91713" lon="6.50486">
        <ele>2085.6000976562</ele>
        <time>2014-02-12T12:19:53.000Z</time>
      </trkpt>
      <trkpt lat="45.91713" lon="6.50486">
        <ele>2085.6000976562</ele>
        <time>2014-02-12T12:19:54.000Z</time>
      </trkpt>
      <trkpt lat="45.91713" lon="6.50486">
        <ele>2085.6000976562</ele>
        <time>2014-02-12T12:19:55.000Z</time>
      </trkpt>
      <trkpt lat="45.91713" lon="6.50486">
        <ele>2085.6000976562</ele>
        <time>2014-02-12T12:19:56.000Z</time>
      </trkpt>
      <trkpt lat="45.91713" lon="6.50486">
        <ele>2085.6000976562</ele>
        <time>2014-02-12T12:19:57.000Z</time>
      </trkpt>
      <trkpt lat="45.91713" lon="6.50486">
        <ele>2085.6000976562</ele>
        <time>2014-02-12T12:19:58.000Z</time>
      </trkpt>
      <trkpt lat="45.91713" lon="6.50486">
        <ele>2085.6000976562</ele>
        <time>2014-02-12T12:20:01.000Z</time>
      </trkpt>
      <trkpt lat="45.91713" lon="6.50486">
        <ele>2085.6000976562</ele>
        <time>2014-02-12T12:20:02.000Z</time>
      </trkpt>
      <trkpt lat="45.91713" lon="6.50486">
        <ele>2085.6000976562</ele>
        <time>2014-02-12T12:20:03.000Z</time>
      </trkpt>
      <trkpt lat="45.91713" lon="6.50486">
        <ele>2085.6000976562</ele>
        <time>2014-02-12T12:20:07.000Z</time>
      </trkpt>
      <trkpt lat="45.91713" lon="6.50486">
        <ele>2085.6000976562</ele>
        <time>2014-02-12T12:20:08.000Z</time>
      </trkpt>
      <trkpt lat="45.91712" lon="6.50487">
        <ele>2085.8000488281</ele>
        <time>2014-02-12T12:20:09.000Z</time>
      </trkpt>
      <trkpt lat="45.91712" lon="6.50487">
        <ele>2085.8000488281</ele>
        <time>2014-02-12T12:20:10.000Z</time>
      </trkpt>
      <trkpt lat="45.91712" lon="6.50487">
        <ele>2085.8000488281</ele>
        <time>2014-02-12T12:20:11.000Z</time>
      </trkpt>
      <trkpt lat="45.91712" lon="6.50487">
        <ele>2085.8000488281</ele>
        <time>2014-02-12T12:20:12.000Z</time>
      </trkpt>
      <trkpt lat="45.91712" lon="6.50487">
        <ele>2085.8000488281</ele>
        <time>2014-02-12T12:20:16.000Z</time>
      </trkpt>
      <trkpt lat="45.91712" lon="6.50487">
        <ele>2085.8000488281</ele>
        <time>2014-02-12T12:20:17.000Z</time>
      </trkpt>
      <trkpt lat="45.91712" lon="6.50487">
        <ele>2085.8000488281</ele>
        <time>2014-02-12T12:20:18.000Z</time>
      </trkpt>
      <trkpt lat="45.91712" lon="6.50487">
        <ele>2085.8000488281</ele>
        <time>2014-02-12T12:20:19.000Z</time>
      </trkpt>
      <trkpt lat="45.91712" lon="6.50487">
        <ele>2085.8000488281</ele>
        <time>2014-02-12T12:20:20.000Z</time>
      </trkpt>
      <trkpt lat="45.91712" lon="6.50487">
        <ele>2085.8000488281</ele>
        <time>2014-02-12T12:20:21.000Z</time>
      </trkpt>
      <trkpt lat="45.91712" lon="6.50487">
        <ele>2085.8000488281</ele>
        <time>2014-02-12T12:20:22.000Z</time>
      </trkpt>
      <trkpt lat="45.91712" lon="6.50487">
        <ele>2085.8000488281</ele>
        <time>2014-02-12T12:20:25.000Z</time>
      </trkpt>
      <trkpt lat="45.91712" lon="6.50487">
        <ele>2085.8000488281</ele>
        <time>2014-02-12T12:20:26.000Z</time>
      </trkpt>
      <trkpt lat="45.91712" lon="6.50487">
        <ele>2085.8000488281</ele>
        <time>2014-02-12T12:20:27.000Z</time>
      </trkpt>
      <trkpt lat="45.91712" lon="6.50487">
        <ele>2085.8000488281</ele>
        <time>2014-02-12T12:20:28.000Z</time>
      </trkpt>
      <trkpt lat="45.91712" lon="6.50487">
        <ele>2085.8000488281</ele>
        <time>2014-02-12T12:20:29.000Z</time>
      </trkpt>
      <trkpt lat="45.91712" lon="6.50487">
        <ele>2085.8000488281</ele>
        <time>2014-02-12T12:20:30.000Z</time>
      </trkpt>
      <trkpt lat="45.91712" lon="6.50487">
        <ele>2085.8000488281</ele>
        <time>2014-02-12T12:20:31.000Z</time>
      </trkpt>
      <trkpt lat="45.91712" lon="6.50487">
        <ele>2085.8000488281</ele>
        <time>2014-02-12T12:20:32.000Z</time>
      </trkpt>
      <trkpt lat="45.91712" lon="6.50487">
        <ele>2085.8000488281</ele>
        <time>2014-02-12T12:20:33.000Z</time>
      </trkpt>
      <trkpt lat="45.91712" lon="6.50487">
        <ele>2085.8000488281</ele>
        <time>2014-02-12T12:20:37.000Z</time>
      </trkpt>
      <trkpt lat="45.91712" lon="6.50487">
        <ele>2085.8000488281</ele>
        <time>2014-02-12T12:20:38.000Z</time>
      </trkpt>
      <trkpt lat="45.91712" lon="6.50487">
        <ele>2085.8000488281</ele>
        <time>2014-02-12T12:20:40.000Z</time>
      </trkpt>
      <trkpt lat="45.91712" lon="6.50487">
        <ele>2085.8000488281</ele>
        <time>2014-02-12T12:20:41.000Z</time>
      </trkpt>
      <trkpt lat="45.91712" lon="6.50487">
        <ele>2085.8000488281</ele>
        <time>2014-02-12T12:20:42.000Z</time>
      </trkpt>
      <trkpt lat="45.91712" lon="6.50487">
        <ele>2085.8000488281</ele>
        <time>2014-02-12T12:20:43.000Z</time>
      </trkpt>
      <trkpt lat="45.91712" lon="6.50487">
        <ele>2085.8000488281</ele>
        <time>2014-02-12T12:20:44.000Z</time>
      </trkpt>
      <trkpt lat="45.91712" lon="6.50487">
        <ele>2085.8000488281</ele>
        <time>2014-02-12T12:20:45.000Z</time>
      </trkpt>
      <trkpt lat="45.91712" lon="6.50487">
        <ele>2085.8000488281</ele>
        <time>2014-02-12T12:20:46.000Z</time>
      </trkpt>
      <trkpt lat="45.91712" lon="6.50487">
        <ele>2085.8000488281</ele>
        <time>2014-02-12T12:20:47.000Z</time>
      </trkpt>
      <trkpt lat="45.91712" lon="6.50487">
        <ele>2085.8000488281</ele>
        <time>2014-02-12T12:20:48.000Z</time>
      </trkpt>
      <trkpt lat="45.91713" lon="6.50487">
        <ele>2086.1999511719</ele>
        <time>2014-02-12T12:20:49.000Z</time>
      </trkpt>
      <trkpt lat="45.91713" lon="6.50487">
        <ele>2086.1999511719</ele>
        <time>2014-02-12T12:20:50.000Z</time>
      </trkpt>
      <trkpt lat="45.91713" lon="6.50487">
        <ele>2086.1999511719</ele>
        <time>2014-02-12T12:20:51.000Z</time>
      </trkpt>
      <trkpt lat="45.91713" lon="6.50487">
        <ele>2086.1999511719</ele>
        <time>2014-02-12T12:20:52.000Z</time>
      </trkpt>
      <trkpt lat="45.91713" lon="6.50487">
        <ele>2086.1999511719</ele>
        <time>2014-02-12T12:20:53.000Z</time>
      </trkpt>
      <trkpt lat="45.91713" lon="6.50487">
        <ele>2086.1999511719</ele>
        <time>2014-02-12T12:20:54.000Z</time>
      </trkpt>
      <trkpt lat="45.91713" lon="6.50487">
        <ele>2086.1999511719</ele>
        <time>2014-02-12T12:20:55.000Z</time>
      </trkpt>
      <trkpt lat="45.91713" lon="6.50487">
        <ele>2086.1999511719</ele>
        <time>2014-02-12T12:20:56.000Z</time>
      </trkpt>
      <trkpt lat="45.91713" lon="6.50487">
        <ele>2086.1999511719</ele>
        <time>2014-02-12T12:20:57.000Z</time>
      </trkpt>
      <trkpt lat="45.91713" lon="6.50487">
        <ele>2086.1999511719</ele>
        <time>2014-02-12T12:20:58.000Z</time>
      </trkpt>
      <trkpt lat="45.91713" lon="6.50487">
        <ele>2086.1999511719</ele>
        <time>2014-02-12T12:20:59.000Z</time>
      </trkpt>
      <trkpt lat="45.91713" lon="6.50487">
        <ele>2086.1999511719</ele>
        <time>2014-02-12T12:21:00.000Z</time>
      </trkpt>
      <trkpt lat="45.91713" lon="6.50487">
        <ele>2086.1999511719</ele>
        <time>2014-02-12T12:21:01.000Z</time>
      </trkpt>
      <trkpt lat="45.91713" lon="6.50487">
        <ele>2086.1999511719</ele>
        <time>2014-02-12T12:21:02.000Z</time>
      </trkpt>
      <trkpt lat="45.91713" lon="6.50487">
        <ele>2086.1999511719</ele>
        <time>2014-02-12T12:21:03.000Z</time>
      </trkpt>
      <trkpt lat="45.91713" lon="6.50487">
        <ele>2086.1999511719</ele>
        <time>2014-02-12T12:21:04.000Z</time>
      </trkpt>
      <trkpt lat="45.91713" lon="6.50487">
        <ele>2086.1999511719</ele>
        <time>2014-02-12T12:21:05.000Z</time>
      </trkpt>
      <trkpt lat="45.91713" lon="6.50487">
        <ele>2086.1999511719</ele>
        <time>2014-02-12T12:21:06.000Z</time>
      </trkpt>
      <trkpt lat="45.91713" lon="6.50487">
        <ele>2086.1999511719</ele>
        <time>2014-02-12T12:21:07.000Z</time>
      </trkpt>
      <trkpt lat="45.91713" lon="6.50487">
        <ele>2086.1999511719</ele>
        <time>2014-02-12T12:21:08.000Z</time>
      </trkpt>
      <trkpt lat="45.91713" lon="6.50487">
        <ele>2086.1999511719</ele>
        <time>2014-02-12T12:21:09.000Z</time>
      </trkpt>
      <trkpt lat="45.91713" lon="6.50487">
        <ele>2086.1999511719</ele>
        <time>2014-02-12T12:21:10.000Z</time>
      </trkpt>
      <trkpt lat="45.91713" lon="6.50487">
        <ele>2086.1999511719</ele>
        <time>2014-02-12T12:21:11.000Z</time>
      </trkpt>
      <trkpt lat="45.91713" lon="6.50487">
        <ele>2086.1999511719</ele>
        <time>2014-02-12T12:21:12.000Z</time>
      </trkpt>
      <trkpt lat="45.91713" lon="6.50487">
        <ele>2086.1999511719</ele>
        <time>2014-02-12T12:21:13.000Z</time>
      </trkpt>
      <trkpt lat="45.91713" lon="6.50487">
        <ele>2086.1999511719</ele>
        <time>2014-02-12T12:21:14.000Z</time>
      </trkpt>
      <trkpt lat="45.91713" lon="6.50487">
        <ele>2086.1999511719</ele>
        <time>2014-02-12T12:21:15.000Z</time>
      </trkpt>
      <trkpt lat="45.91713" lon="6.50487">
        <ele>2086.1999511719</ele>
        <time>2014-02-12T12:21:16.000Z</time>
      </trkpt>
      <trkpt lat="45.91713" lon="6.50487">
        <ele>2086.1999511719</ele>
        <time>2014-02-12T12:21:17.000Z</time>
      </trkpt>
      <trkpt lat="45.91713" lon="6.50487">
        <ele>2086.1999511719</ele>
        <time>2014-02-12T12:21:18.000Z</time>
      </trkpt>
      <trkpt lat="45.91713" lon="6.50487">
        <ele>2086.1999511719</ele>
        <time>2014-02-12T12:21:19.000Z</time>
      </trkpt>
      <trkpt lat="45.91713" lon="6.50487">
        <ele>2086.1999511719</ele>
        <time>2014-02-12T12:21:20.000Z</time>
      </trkpt>
      <trkpt lat="45.91713" lon="6.50487">
        <ele>2086.1999511719</ele>
        <time>2014-02-12T12:21:21.000Z</time>
      </trkpt>
      <trkpt lat="45.91713" lon="6.50487">
        <ele>2086.1999511719</ele>
        <time>2014-02-12T12:21:22.000Z</time>
      </trkpt>
      <trkpt lat="45.91713" lon="6.50487">
        <ele>2086.1999511719</ele>
        <time>2014-02-12T12:21:23.000Z</time>
      </trkpt>
      <trkpt lat="45.91713" lon="6.50487">
        <ele>2086.1999511719</ele>
        <time>2014-02-12T12:21:24.000Z</time>
      </trkpt>
      <trkpt lat="45.91713" lon="6.50487">
        <ele>2086.1999511719</ele>
        <time>2014-02-12T12:21:25.000Z</time>
      </trkpt>
      <trkpt lat="45.91713" lon="6.50487">
        <ele>2086.1999511719</ele>
        <time>2014-02-12T12:21:26.000Z</time>
      </trkpt>
      <trkpt lat="45.91713" lon="6.50487">
        <ele>2086.1999511719</ele>
        <time>2014-02-12T12:21:28.000Z</time>
      </trkpt>
      <trkpt lat="45.91713" lon="6.50487">
        <ele>2086.1999511719</ele>
        <time>2014-02-12T12:21:29.000Z</time>
      </trkpt>
      <trkpt lat="45.91713" lon="6.50487">
        <ele>2086.1999511719</ele>
        <time>2014-02-12T12:21:30.000Z</time>
      </trkpt>
      <trkpt lat="45.91713" lon="6.50487">
        <ele>2086.1999511719</ele>
        <time>2014-02-12T12:21:31.000Z</time>
      </trkpt>
      <trkpt lat="45.91713" lon="6.50487">
        <ele>2086.1999511719</ele>
        <time>2014-02-12T12:21:32.000Z</time>
      </trkpt>
      <trkpt lat="45.91713" lon="6.50487">
        <ele>2086.1999511719</ele>
        <time>2014-02-12T12:21:33.000Z</time>
      </trkpt>
      <trkpt lat="45.91713" lon="6.50487">
        <ele>2086.1999511719</ele>
        <time>2014-02-12T12:21:35.000Z</time>
      </trkpt>
      <trkpt lat="45.91713" lon="6.50487">
        <ele>2086.1999511719</ele>
        <time>2014-02-12T12:21:36.000Z</time>
      </trkpt>
      <trkpt lat="45.91713" lon="6.50487">
        <ele>2086.1999511719</ele>
        <time>2014-02-12T12:21:37.000Z</time>
      </trkpt>
      <trkpt lat="45.91713" lon="6.50487">
        <ele>2086.1999511719</ele>
        <time>2014-02-12T12:21:38.000Z</time>
      </trkpt>
      <trkpt lat="45.91713" lon="6.50487">
        <ele>2086.1999511719</ele>
        <time>2014-02-12T12:21:39.000Z</time>
      </trkpt>
      <trkpt lat="45.91713" lon="6.50487">
        <ele>2086.1999511719</ele>
        <time>2014-02-12T12:21:41.000Z</time>
      </trkpt>
      <trkpt lat="45.91713" lon="6.50487">
        <ele>2086.1999511719</ele>
        <time>2014-02-12T12:21:42.000Z</time>
      </trkpt>
      <trkpt lat="45.91713" lon="6.50487">
        <ele>2086.1999511719</ele>
        <time>2014-02-12T12:21:43.000Z</time>
      </trkpt>
      <trkpt lat="45.91713" lon="6.50487">
        <ele>2086.1999511719</ele>
        <time>2014-02-12T12:21:44.000Z</time>
      </trkpt>
      <trkpt lat="45.91713" lon="6.50487">
        <ele>2086.1999511719</ele>
        <time>2014-02-12T12:21:47.000Z</time>
      </trkpt>
      <trkpt lat="45.91713" lon="6.50487">
        <ele>2086.1999511719</ele>
        <time>2014-02-12T12:21:48.000Z</time>
      </trkpt>
      <trkpt lat="45.91713" lon="6.50487">
        <ele>2086.1999511719</ele>
        <time>2014-02-12T12:21:49.000Z</time>
      </trkpt>
      <trkpt lat="45.91713" lon="6.50487">
        <ele>2086.1999511719</ele>
        <time>2014-02-12T12:21:50.000Z</time>
      </trkpt>
      <trkpt lat="45.91713" lon="6.50487">
        <ele>2086.1999511719</ele>
        <time>2014-02-12T12:21:54.000Z</time>
      </trkpt>
      <trkpt lat="45.91713" lon="6.50487">
        <ele>2086.1999511719</ele>
        <time>2014-02-12T12:21:55.000Z</time>
      </trkpt>
      <trkpt lat="45.91713" lon="6.50487">
        <ele>2086.1999511719</ele>
        <time>2014-02-12T12:21:56.000Z</time>
      </trkpt>
      <trkpt lat="45.91713" lon="6.50487">
        <ele>2086.1999511719</ele>
        <time>2014-02-12T12:21:57.000Z</time>
      </trkpt>
      <trkpt lat="45.91713" lon="6.50487">
        <ele>2086.1999511719</ele>
        <time>2014-02-12T12:21:58.000Z</time>
      </trkpt>
      <trkpt lat="45.91713" lon="6.50487">
        <ele>2086.1999511719</ele>
        <time>2014-02-12T12:21:59.000Z</time>
      </trkpt>
      <trkpt lat="45.91713" lon="6.50487">
        <ele>2086.1999511719</ele>
        <time>2014-02-12T12:22:00.000Z</time>
      </trkpt>
      <trkpt lat="45.91713" lon="6.50487">
        <ele>2086.1999511719</ele>
        <time>2014-02-12T12:22:01.000Z</time>
      </trkpt>
      <trkpt lat="45.91713" lon="6.50487">
        <ele>2086.1999511719</ele>
        <time>2014-02-12T12:22:02.000Z</time>
      </trkpt>
      <trkpt lat="45.91713" lon="6.50487">
        <ele>2086.1999511719</ele>
        <time>2014-02-12T12:22:04.000Z</time>
      </trkpt>
      <trkpt lat="45.91713" lon="6.50487">
        <ele>2086.1999511719</ele>
        <time>2014-02-12T12:22:05.000Z</time>
      </trkpt>
      <trkpt lat="45.91713" lon="6.50487">
        <ele>2086.1999511719</ele>
        <time>2014-02-12T12:22:06.000Z</time>
      </trkpt>
      <trkpt lat="45.91713" lon="6.50487">
        <ele>2086.1999511719</ele>
        <time>2014-02-12T12:22:07.000Z</time>
      </trkpt>
      <trkpt lat="45.91713" lon="6.50487">
        <ele>2086.1999511719</ele>
        <time>2014-02-12T12:22:08.000Z</time>
      </trkpt>
      <trkpt lat="45.91713" lon="6.50488">
        <ele>2086.1999511719</ele>
        <time>2014-02-12T12:22:09.000Z</time>
      </trkpt>
      <trkpt lat="45.91713" lon="6.50488">
        <ele>2086.1999511719</ele>
        <time>2014-02-12T12:22:10.000Z</time>
      </trkpt>
      <trkpt lat="45.91713" lon="6.50488">
        <ele>2086.1999511719</ele>
        <time>2014-02-12T12:22:13.000Z</time>
      </trkpt>
      <trkpt lat="45.91713" lon="6.50488">
        <ele>2086.1999511719</ele>
        <time>2014-02-12T12:22:14.000Z</time>
      </trkpt>
      <trkpt lat="45.91713" lon="6.50488">
        <ele>2086.1999511719</ele>
        <time>2014-02-12T12:22:15.000Z</time>
      </trkpt>
      <trkpt lat="45.91713" lon="6.50488">
        <ele>2086.1999511719</ele>
        <time>2014-02-12T12:22:16.000Z</time>
      </trkpt>
      <trkpt lat="45.91713" lon="6.50488">
        <ele>2086.1999511719</ele>
        <time>2014-02-12T12:22:17.000Z</time>
      </trkpt>
      <trkpt lat="45.91713" lon="6.50488">
        <ele>2086.1999511719</ele>
        <time>2014-02-12T12:22:18.000Z</time>
      </trkpt>
      <trkpt lat="45.91713" lon="6.50488">
        <ele>2086.1999511719</ele>
        <time>2014-02-12T12:22:19.000Z</time>
      </trkpt>
      <trkpt lat="45.91713" lon="6.50488">
        <ele>2086.1999511719</ele>
        <time>2014-02-12T12:22:20.000Z</time>
      </trkpt>
      <trkpt lat="45.91713" lon="6.50488">
        <ele>2086.1999511719</ele>
        <time>2014-02-12T12:22:21.000Z</time>
      </trkpt>
      <trkpt lat="45.91713" lon="6.50488">
        <ele>2086.1999511719</ele>
        <time>2014-02-12T12:22:22.000Z</time>
      </trkpt>
      <trkpt lat="45.91713" lon="6.50488">
        <ele>2086.1999511719</ele>
        <time>2014-02-12T12:22:23.000Z</time>
      </trkpt>
      <trkpt lat="45.91713" lon="6.50488">
        <ele>2086.1999511719</ele>
        <time>2014-02-12T12:22:24.000Z</time>
      </trkpt>
      <trkpt lat="45.91713" lon="6.50488">
        <ele>2086.1999511719</ele>
        <time>2014-02-12T12:22:25.000Z</time>
      </trkpt>
      <trkpt lat="45.91713" lon="6.50488">
        <ele>2086.1999511719</ele>
        <time>2014-02-12T12:22:26.000Z</time>
      </trkpt>
      <trkpt lat="45.91713" lon="6.50488">
        <ele>2086.1999511719</ele>
        <time>2014-02-12T12:22:27.000Z</time>
      </trkpt>
      <trkpt lat="45.91713" lon="6.50488">
        <ele>2086.1999511719</ele>
        <time>2014-02-12T12:22:28.000Z</time>
      </trkpt>
      <trkpt lat="45.91713" lon="6.50488">
        <ele>2086.1999511719</ele>
        <time>2014-02-12T12:22:29.000Z</time>
      </trkpt>
      <trkpt lat="45.91713" lon="6.50488">
        <ele>2086.1999511719</ele>
        <time>2014-02-12T12:22:30.000Z</time>
      </trkpt>
      <trkpt lat="45.91713" lon="6.50488">
        <ele>2086.1999511719</ele>
        <time>2014-02-12T12:22:31.000Z</time>
      </trkpt>
      <trkpt lat="45.91713" lon="6.50488">
        <ele>2086.1999511719</ele>
        <time>2014-02-12T12:22:32.000Z</time>
      </trkpt>
      <trkpt lat="45.91713" lon="6.50488">
        <ele>2086.1999511719</ele>
        <time>2014-02-12T12:22:33.000Z</time>
      </trkpt>
      <trkpt lat="45.91713" lon="6.50488">
        <ele>2086.1999511719</ele>
        <time>2014-02-12T12:22:34.000Z</time>
      </trkpt>
      <trkpt lat="45.91713" lon="6.50488">
        <ele>2086.1999511719</ele>
        <time>2014-02-12T12:22:35.000Z</time>
      </trkpt>
      <trkpt lat="45.91713" lon="6.50488">
        <ele>2086.1999511719</ele>
        <time>2014-02-12T12:22:36.000Z</time>
      </trkpt>
      <trkpt lat="45.91713" lon="6.50488">
        <ele>2086.1999511719</ele>
        <time>2014-02-12T12:22:37.000Z</time>
      </trkpt>
      <trkpt lat="45.91713" lon="6.50488">
        <ele>2086.1999511719</ele>
        <time>2014-02-12T12:22:38.000Z</time>
      </trkpt>
      <trkpt lat="45.91713" lon="6.50488">
        <ele>2086.1999511719</ele>
        <time>2014-02-12T12:22:41.000Z</time>
      </trkpt>
      <trkpt lat="45.91713" lon="6.50488">
        <ele>2086.1999511719</ele>
        <time>2014-02-12T12:22:42.000Z</time>
      </trkpt>
      <trkpt lat="45.91713" lon="6.50488">
        <ele>2086.1999511719</ele>
        <time>2014-02-12T12:22:43.000Z</time>
      </trkpt>
      <trkpt lat="45.91713" lon="6.50488">
        <ele>2086.1999511719</ele>
        <time>2014-02-12T12:22:44.000Z</time>
      </trkpt>
      <trkpt lat="45.91713" lon="6.50488">
        <ele>2086.1999511719</ele>
        <time>2014-02-12T12:22:45.000Z</time>
      </trkpt>
      <trkpt lat="45.91713" lon="6.50488">
        <ele>2086.1999511719</ele>
        <time>2014-02-12T12:22:46.000Z</time>
      </trkpt>
      <trkpt lat="45.91713" lon="6.50488">
        <ele>2086.1999511719</ele>
        <time>2014-02-12T12:22:47.000Z</time>
      </trkpt>
      <trkpt lat="45.91713" lon="6.50488">
        <ele>2086.1999511719</ele>
        <time>2014-02-12T12:22:48.000Z</time>
      </trkpt>
      <trkpt lat="45.91713" lon="6.50487">
        <ele>2086.1999511719</ele>
        <time>2014-02-12T12:22:49.000Z</time>
      </trkpt>
      <trkpt lat="45.91713" lon="6.50487">
        <ele>2086.1999511719</ele>
        <time>2014-02-12T12:22:50.000Z</time>
      </trkpt>
      <trkpt lat="45.91713" lon="6.50487">
        <ele>2086.1999511719</ele>
        <time>2014-02-12T12:22:51.000Z</time>
      </trkpt>
      <trkpt lat="45.91713" lon="6.50487">
        <ele>2086.1999511719</ele>
        <time>2014-02-12T12:22:52.000Z</time>
      </trkpt>
      <trkpt lat="45.91713" lon="6.50487">
        <ele>2086.1999511719</ele>
        <time>2014-02-12T12:22:53.000Z</time>
      </trkpt>
      <trkpt lat="45.91713" lon="6.50487">
        <ele>2086.1999511719</ele>
        <time>2014-02-12T12:22:54.000Z</time>
      </trkpt>
      <trkpt lat="45.91713" lon="6.50487">
        <ele>2086.1999511719</ele>
        <time>2014-02-12T12:22:55.000Z</time>
      </trkpt>
      <trkpt lat="45.91713" lon="6.50487">
        <ele>2086.1999511719</ele>
        <time>2014-02-12T12:22:56.000Z</time>
      </trkpt>
      <trkpt lat="45.91713" lon="6.50487">
        <ele>2086.1999511719</ele>
        <time>2014-02-12T12:22:57.000Z</time>
      </trkpt>
      <trkpt lat="45.91713" lon="6.50487">
        <ele>2086.1999511719</ele>
        <time>2014-02-12T12:22:58.000Z</time>
      </trkpt>
      <trkpt lat="45.91713" lon="6.50487">
        <ele>2086.1999511719</ele>
        <time>2014-02-12T12:22:59.000Z</time>
      </trkpt>
      <trkpt lat="45.91713" lon="6.50487">
        <ele>2086.1999511719</ele>
        <time>2014-02-12T12:23:00.000Z</time>
      </trkpt>
      <trkpt lat="45.91713" lon="6.50487">
        <ele>2086.1999511719</ele>
        <time>2014-02-12T12:23:01.000Z</time>
      </trkpt>
      <trkpt lat="45.91713" lon="6.50487">
        <ele>2086.1999511719</ele>
        <time>2014-02-12T12:23:02.000Z</time>
      </trkpt>
      <trkpt lat="45.91713" lon="6.50487">
        <ele>2086.1999511719</ele>
        <time>2014-02-12T12:23:05.000Z</time>
      </trkpt>
      <trkpt lat="45.91713" lon="6.50487">
        <ele>2086.1999511719</ele>
        <time>2014-02-12T12:23:07.000Z</time>
      </trkpt>
      <trkpt lat="45.91713" lon="6.50487">
        <ele>2086.1999511719</ele>
        <time>2014-02-12T12:23:08.000Z</time>
      </trkpt>
      <trkpt lat="45.91713" lon="6.50487">
        <ele>2086.1999511719</ele>
        <time>2014-02-12T12:23:09.000Z</time>
      </trkpt>
      <trkpt lat="45.91713" lon="6.50487">
        <ele>2086.1999511719</ele>
        <time>2014-02-12T12:23:10.000Z</time>
      </trkpt>
      <trkpt lat="45.91713" lon="6.50487">
        <ele>2086.1999511719</ele>
        <time>2014-02-12T12:23:11.000Z</time>
      </trkpt>
      <trkpt lat="45.91713" lon="6.50487">
        <ele>2086.1999511719</ele>
        <time>2014-02-12T12:23:12.000Z</time>
      </trkpt>
      <trkpt lat="45.91713" lon="6.50487">
        <ele>2086.1999511719</ele>
        <time>2014-02-12T12:23:13.000Z</time>
      </trkpt>
      <trkpt lat="45.91713" lon="6.50487">
        <ele>2086.1999511719</ele>
        <time>2014-02-12T12:23:14.000Z</time>
      </trkpt>
      <trkpt lat="45.91713" lon="6.50487">
        <ele>2086.1999511719</ele>
        <time>2014-02-12T12:23:15.000Z</time>
      </trkpt>
      <trkpt lat="45.91713" lon="6.50487">
        <ele>2086.1999511719</ele>
        <time>2014-02-12T12:23:16.000Z</time>
      </trkpt>
      <trkpt lat="45.91713" lon="6.50487">
        <ele>2086.1999511719</ele>
        <time>2014-02-12T12:23:17.000Z</time>
      </trkpt>
      <trkpt lat="45.91713" lon="6.50487">
        <ele>2086.1999511719</ele>
        <time>2014-02-12T12:23:18.000Z</time>
      </trkpt>
      <trkpt lat="45.91713" lon="6.50487">
        <ele>2086.1999511719</ele>
        <time>2014-02-12T12:23:19.000Z</time>
      </trkpt>
      <trkpt lat="45.91713" lon="6.50487">
        <ele>2086.1999511719</ele>
        <time>2014-02-12T12:23:20.000Z</time>
      </trkpt>
      <trkpt lat="45.91713" lon="6.50487">
        <ele>2086.1999511719</ele>
        <time>2014-02-12T12:23:21.000Z</time>
      </trkpt>
      <trkpt lat="45.91713" lon="6.50487">
        <ele>2086.1999511719</ele>
        <time>2014-02-12T12:23:22.000Z</time>
      </trkpt>
      <trkpt lat="45.91713" lon="6.50487">
        <ele>2086.1999511719</ele>
        <time>2014-02-12T12:23:23.000Z</time>
      </trkpt>
      <trkpt lat="45.91713" lon="6.50487">
        <ele>2086.1999511719</ele>
        <time>2014-02-12T12:23:24.000Z</time>
      </trkpt>
      <trkpt lat="45.91713" lon="6.50487">
        <ele>2086.1999511719</ele>
        <time>2014-02-12T12:23:25.000Z</time>
      </trkpt>
      <trkpt lat="45.91713" lon="6.50487">
        <ele>2086.1999511719</ele>
        <time>2014-02-12T12:23:26.000Z</time>
      </trkpt>
      <trkpt lat="45.91713" lon="6.50487">
        <ele>2086.1999511719</ele>
        <time>2014-02-12T12:23:27.000Z</time>
      </trkpt>
      <trkpt lat="45.91713" lon="6.50487">
        <ele>2086.1999511719</ele>
        <time>2014-02-12T12:23:28.000Z</time>
      </trkpt>
      <trkpt lat="45.91712" lon="6.50489">
        <ele>2086.8000488281</ele>
        <time>2014-02-12T12:23:29.000Z</time>
      </trkpt>
      <trkpt lat="45.91712" lon="6.50488">
        <ele>2086.6000976562</ele>
        <time>2014-02-12T12:23:30.000Z</time>
      </trkpt>
      <trkpt lat="45.91711" lon="6.50489">
        <ele>2087</ele>
        <time>2014-02-12T12:23:31.000Z</time>
      </trkpt>
      <trkpt lat="45.9171" lon="6.5049">
        <ele>2087.6000976562</ele>
        <time>2014-02-12T12:23:32.000Z</time>
      </trkpt>
      <trkpt lat="45.9171" lon="6.5049">
        <ele>2087.3999023438</ele>
        <time>2014-02-12T12:23:33.000Z</time>
      </trkpt>
      <trkpt lat="45.91709" lon="6.5049">
        <ele>2087.6000976562</ele>
        <time>2014-02-12T12:23:34.000Z</time>
      </trkpt>
      <trkpt lat="45.91707" lon="6.50492">
        <ele>2088.3999023438</ele>
        <time>2014-02-12T12:23:35.000Z</time>
      </trkpt>
      <trkpt lat="45.91706" lon="6.50493">
        <ele>2089</ele>
        <time>2014-02-12T12:23:36.000Z</time>
      </trkpt>
      <trkpt lat="45.91706" lon="6.50493">
        <ele>2089</ele>
        <time>2014-02-12T12:23:37.000Z</time>
      </trkpt>
      <trkpt lat="45.91706" lon="6.50494">
        <ele>2089.1999511719</ele>
        <time>2014-02-12T12:23:38.000Z</time>
      </trkpt>
      <trkpt lat="45.91704" lon="6.50494">
        <ele>2089.3999023438</ele>
        <time>2014-02-12T12:23:39.000Z</time>
      </trkpt>
      <trkpt lat="45.91704" lon="6.50494">
        <ele>2089.3999023438</ele>
        <time>2014-02-12T12:23:40.000Z</time>
      </trkpt>
      <trkpt lat="45.91703" lon="6.50494">
        <ele>2089.6000976562</ele>
        <time>2014-02-12T12:23:41.000Z</time>
      </trkpt>
      <trkpt lat="45.91702" lon="6.50494">
        <ele>2089.6000976562</ele>
        <time>2014-02-12T12:23:42.000Z</time>
      </trkpt>
      <trkpt lat="45.91701" lon="6.50495">
        <ele>2089.8000488281</ele>
        <time>2014-02-12T12:23:43.000Z</time>
      </trkpt>
      <trkpt lat="45.91701" lon="6.50495">
        <ele>2089.8000488281</ele>
        <time>2014-02-12T12:23:44.000Z</time>
      </trkpt>
      <trkpt lat="45.917" lon="6.50496">
        <ele>2090.6000976562</ele>
        <time>2014-02-12T12:23:45.000Z</time>
      </trkpt>
      <trkpt lat="45.917" lon="6.50497">
        <ele>2090.6000976562</ele>
        <time>2014-02-12T12:23:46.000Z</time>
      </trkpt>
      <trkpt lat="45.91699" lon="6.50497">
        <ele>2091</ele>
        <time>2014-02-12T12:23:47.000Z</time>
      </trkpt>
      <trkpt lat="45.91699" lon="6.50498">
        <ele>2091.3999023438</ele>
        <time>2014-02-12T12:23:48.000Z</time>
      </trkpt>
      <trkpt lat="45.91698" lon="6.50498">
        <ele>2091.6000976562</ele>
        <time>2014-02-12T12:23:49.000Z</time>
      </trkpt>
      <trkpt lat="45.91696" lon="6.50499">
        <ele>2092</ele>
        <time>2014-02-12T12:23:50.000Z</time>
      </trkpt>
      <trkpt lat="45.91696" lon="6.505">
        <ele>2092</ele>
        <time>2014-02-12T12:23:51.000Z</time>
      </trkpt>
      <trkpt lat="45.91696" lon="6.505">
        <ele>2092.1999511719</ele>
        <time>2014-02-12T12:23:52.000Z</time>
      </trkpt>
      <trkpt lat="45.91695" lon="6.505">
        <ele>2092.3999023438</ele>
        <time>2014-02-12T12:23:53.000Z</time>
      </trkpt>
      <trkpt lat="45.91695" lon="6.50501">
        <ele>2092.6000976562</ele>
        <time>2014-02-12T12:23:54.000Z</time>
      </trkpt>
      <trkpt lat="45.91695" lon="6.50501">
        <ele>2092.8000488281</ele>
        <time>2014-02-12T12:23:55.000Z</time>
      </trkpt>
      <trkpt lat="45.91694" lon="6.50502">
        <ele>2093.1999511719</ele>
        <time>2014-02-12T12:23:56.000Z</time>
      </trkpt>
      <trkpt lat="45.91692" lon="6.50504">
        <ele>2094</ele>
        <time>2014-02-12T12:23:57.000Z</time>
      </trkpt>
      <trkpt lat="45.91693" lon="6.50504">
        <ele>2094</ele>
        <time>2014-02-12T12:23:58.000Z</time>
      </trkpt>
      <trkpt lat="45.91692" lon="6.50505">
        <ele>2094.6000976562</ele>
        <time>2014-02-12T12:23:59.000Z</time>
      </trkpt>
      <trkpt lat="45.91691" lon="6.50506">
        <ele>2095</ele>
        <time>2014-02-12T12:24:00.000Z</time>
      </trkpt>
      <trkpt lat="45.91691" lon="6.50506">
        <ele>2095</ele>
        <time>2014-02-12T12:24:01.000Z</time>
      </trkpt>
      <trkpt lat="45.91691" lon="6.50507">
        <ele>2095.3999023438</ele>
        <time>2014-02-12T12:24:02.000Z</time>
      </trkpt>
      <trkpt lat="45.9169" lon="6.50507">
        <ele>2095.6000976562</ele>
        <time>2014-02-12T12:24:03.000Z</time>
      </trkpt>
      <trkpt lat="45.9169" lon="6.50508">
        <ele>2096</ele>
        <time>2014-02-12T12:24:04.000Z</time>
      </trkpt>
      <trkpt lat="45.91689" lon="6.50509">
        <ele>2096.1999511719</ele>
        <time>2014-02-12T12:24:05.000Z</time>
      </trkpt>
      <trkpt lat="45.91688" lon="6.50509">
        <ele>2096.6000976562</ele>
        <time>2014-02-12T12:24:06.000Z</time>
      </trkpt>
      <trkpt lat="45.91688" lon="6.5051">
        <ele>2096.8000488281</ele>
        <time>2014-02-12T12:24:07.000Z</time>
      </trkpt>
      <trkpt lat="45.91686" lon="6.50511">
        <ele>2097.1999511719</ele>
        <time>2014-02-12T12:24:08.000Z</time>
      </trkpt>
      <trkpt lat="45.91686" lon="6.50511">
        <ele>2097.1999511719</ele>
        <time>2014-02-12T12:24:09.000Z</time>
      </trkpt>
      <trkpt lat="45.91685" lon="6.50512">
        <ele>2097.8000488281</ele>
        <time>2014-02-12T12:24:10.000Z</time>
      </trkpt>
      <trkpt lat="45.91685" lon="6.50512">
        <ele>2097.8000488281</ele>
        <time>2014-02-12T12:24:11.000Z</time>
      </trkpt>
      <trkpt lat="45.91684" lon="6.50513">
        <ele>2098.1999511719</ele>
        <time>2014-02-12T12:24:12.000Z</time>
      </trkpt>
      <trkpt lat="45.91683" lon="6.50513">
        <ele>2098.3999023438</ele>
        <time>2014-02-12T12:24:13.000Z</time>
      </trkpt>
      <trkpt lat="45.91683" lon="6.50514">
        <ele>2098.8000488281</ele>
        <time>2014-02-12T12:24:14.000Z</time>
      </trkpt>
      <trkpt lat="45.91682" lon="6.50516">
        <ele>2099.6000976562</ele>
        <time>2014-02-12T12:24:15.000Z</time>
      </trkpt>
      <trkpt lat="45.91682" lon="6.50516">
        <ele>2099.6000976562</ele>
        <time>2014-02-12T12:24:16.000Z</time>
      </trkpt>
      <trkpt lat="45.91681" lon="6.50518">
        <ele>2100.3999023438</ele>
        <time>2014-02-12T12:24:17.000Z</time>
      </trkpt>
      <trkpt lat="45.91681" lon="6.5052">
        <ele>2101.3999023438</ele>
        <time>2014-02-12T12:24:18.000Z</time>
      </trkpt>
      <trkpt lat="45.91681" lon="6.50522">
        <ele>2102.3999023438</ele>
        <time>2014-02-12T12:24:19.000Z</time>
      </trkpt>
      <trkpt lat="45.91681" lon="6.50522">
        <ele>2102.3999023438</ele>
        <time>2014-02-12T12:24:20.000Z</time>
      </trkpt>
      <trkpt lat="45.91681" lon="6.50522">
        <ele>2102.1999511719</ele>
        <time>2014-02-12T12:24:21.000Z</time>
      </trkpt>
      <trkpt lat="45.9168" lon="6.50523">
        <ele>2102.6000976562</ele>
        <time>2014-02-12T12:24:22.000Z</time>
      </trkpt>
      <trkpt lat="45.9168" lon="6.50524">
        <ele>2103.1999511719</ele>
        <time>2014-02-12T12:24:23.000Z</time>
      </trkpt>
      <trkpt lat="45.91679" lon="6.50524">
        <ele>2103.1999511719</ele>
        <time>2014-02-12T12:24:24.000Z</time>
      </trkpt>
      <trkpt lat="45.91678" lon="6.50524">
        <ele>2103.1999511719</ele>
        <time>2014-02-12T12:24:25.000Z</time>
      </trkpt>
      <trkpt lat="45.91677" lon="6.50524">
        <ele>2103.1999511719</ele>
        <time>2014-02-12T12:24:26.000Z</time>
      </trkpt>
      <trkpt lat="45.91676" lon="6.50524">
        <ele>2103.1999511719</ele>
        <time>2014-02-12T12:24:27.000Z</time>
      </trkpt>
      <trkpt lat="45.91675" lon="6.50524">
        <ele>2103.3999023438</ele>
        <time>2014-02-12T12:24:28.000Z</time>
      </trkpt>
      <trkpt lat="45.91675" lon="6.50525">
        <ele>2103.6000976562</ele>
        <time>2014-02-12T12:24:29.000Z</time>
      </trkpt>
      <trkpt lat="45.91674" lon="6.50526">
        <ele>2104</ele>
        <time>2014-02-12T12:24:30.000Z</time>
      </trkpt>
      <trkpt lat="45.91673" lon="6.50526">
        <ele>2104</ele>
        <time>2014-02-12T12:24:31.000Z</time>
      </trkpt>
      <trkpt lat="45.91673" lon="6.50526">
        <ele>2104.1999511719</ele>
        <time>2014-02-12T12:24:32.000Z</time>
      </trkpt>
      <trkpt lat="45.91672" lon="6.50526">
        <ele>2104.1999511719</ele>
        <time>2014-02-12T12:24:33.000Z</time>
      </trkpt>
      <trkpt lat="45.91672" lon="6.50527">
        <ele>2104.1999511719</ele>
        <time>2014-02-12T12:24:34.000Z</time>
      </trkpt>
      <trkpt lat="45.91671" lon="6.50527">
        <ele>2104.3999023438</ele>
        <time>2014-02-12T12:24:35.000Z</time>
      </trkpt>
      <trkpt lat="45.9167" lon="6.50526">
        <ele>2104.1999511719</ele>
        <time>2014-02-12T12:24:36.000Z</time>
      </trkpt>
      <trkpt lat="45.9167" lon="6.50526">
        <ele>2104.1999511719</ele>
        <time>2014-02-12T12:24:37.000Z</time>
      </trkpt>
      <trkpt lat="45.9167" lon="6.50527">
        <ele>2104.6000976562</ele>
        <time>2014-02-12T12:24:38.000Z</time>
      </trkpt>
      <trkpt lat="45.9167" lon="6.50528">
        <ele>2105</ele>
        <time>2014-02-12T12:24:39.000Z</time>
      </trkpt>
      <trkpt lat="45.9167" lon="6.5053">
        <ele>2105.6000976562</ele>
        <time>2014-02-12T12:24:40.000Z</time>
      </trkpt>
      <trkpt lat="45.9167" lon="6.50531">
        <ele>2106</ele>
        <time>2014-02-12T12:24:41.000Z</time>
      </trkpt>
      <trkpt lat="45.9167" lon="6.50531">
        <ele>2106</ele>
        <time>2014-02-12T12:24:42.000Z</time>
      </trkpt>
      <trkpt lat="45.91669" lon="6.50531">
        <ele>2106.1999511719</ele>
        <time>2014-02-12T12:24:43.000Z</time>
      </trkpt>
      <trkpt lat="45.91669" lon="6.50532">
        <ele>2106.6000976562</ele>
        <time>2014-02-12T12:24:44.000Z</time>
      </trkpt>
      <trkpt lat="45.91669" lon="6.50533">
        <ele>2107</ele>
        <time>2014-02-12T12:24:45.000Z</time>
      </trkpt>
      <trkpt lat="45.91669" lon="6.50533">
        <ele>2107</ele>
        <time>2014-02-12T12:24:46.000Z</time>
      </trkpt>
      <trkpt lat="45.91668" lon="6.50533">
        <ele>2107</ele>
        <time>2014-02-12T12:24:47.000Z</time>
      </trkpt>
      <trkpt lat="45.91668" lon="6.50534">
        <ele>2107.1999511719</ele>
        <time>2014-02-12T12:24:48.000Z</time>
      </trkpt>
      <trkpt lat="45.91667" lon="6.50534">
        <ele>2107.3999023438</ele>
        <time>2014-02-12T12:24:49.000Z</time>
      </trkpt>
      <trkpt lat="45.91667" lon="6.50534">
        <ele>2107.3999023438</ele>
        <time>2014-02-12T12:24:50.000Z</time>
      </trkpt>
      <trkpt lat="45.91667" lon="6.50535">
        <ele>2107.6000976562</ele>
        <time>2014-02-12T12:24:51.000Z</time>
      </trkpt>
      <trkpt lat="45.91666" lon="6.50535">
        <ele>2107.6000976562</ele>
        <time>2014-02-12T12:24:52.000Z</time>
      </trkpt>
      <trkpt lat="45.91666" lon="6.50535">
        <ele>2107.8000488281</ele>
        <time>2014-02-12T12:24:53.000Z</time>
      </trkpt>
      <trkpt lat="45.91666" lon="6.50535">
        <ele>2107.8000488281</ele>
        <time>2014-02-12T12:24:54.000Z</time>
      </trkpt>
      <trkpt lat="45.91665" lon="6.50535">
        <ele>2108</ele>
        <time>2014-02-12T12:24:55.000Z</time>
      </trkpt>
      <trkpt lat="45.91664" lon="6.50536">
        <ele>2108.1999511719</ele>
        <time>2014-02-12T12:24:56.000Z</time>
      </trkpt>
      <trkpt lat="45.91664" lon="6.50537">
        <ele>2108.6000976562</ele>
        <time>2014-02-12T12:24:57.000Z</time>
      </trkpt>
      <trkpt lat="45.91664" lon="6.50537">
        <ele>2108.6000976562</ele>
        <time>2014-02-12T12:24:58.000Z</time>
      </trkpt>
      <trkpt lat="45.91663" lon="6.50537">
        <ele>2108.6000976562</ele>
        <time>2014-02-12T12:24:59.000Z</time>
      </trkpt>
      <trkpt lat="45.91662" lon="6.50537">
        <ele>2108.8000488281</ele>
        <time>2014-02-12T12:25:00.000Z</time>
      </trkpt>
      <trkpt lat="45.91661" lon="6.50538">
        <ele>2109</ele>
        <time>2014-02-12T12:25:01.000Z</time>
      </trkpt>
      <trkpt lat="45.91661" lon="6.50538">
        <ele>2109.1999511719</ele>
        <time>2014-02-12T12:25:02.000Z</time>
      </trkpt>
      <trkpt lat="45.9166" lon="6.50539">
        <ele>2109.3999023438</ele>
        <time>2014-02-12T12:25:03.000Z</time>
      </trkpt>
      <trkpt lat="45.9166" lon="6.50539">
        <ele>2109.3999023438</ele>
        <time>2014-02-12T12:25:04.000Z</time>
      </trkpt>
      <trkpt lat="45.9166" lon="6.50539">
        <ele>2109.3999023438</ele>
        <time>2014-02-12T12:25:05.000Z</time>
      </trkpt>
      <trkpt lat="45.9166" lon="6.50539">
        <ele>2109.3999023438</ele>
        <time>2014-02-12T12:25:06.000Z</time>
      </trkpt>
      <trkpt lat="45.91659" lon="6.50539">
        <ele>2109.6000976562</ele>
        <time>2014-02-12T12:25:07.000Z</time>
      </trkpt>
      <trkpt lat="45.91659" lon="6.5054">
        <ele>2109.8000488281</ele>
        <time>2014-02-12T12:25:08.000Z</time>
      </trkpt>
      <trkpt lat="45.91658" lon="6.50539">
        <ele>2109.8000488281</ele>
        <time>2014-02-12T12:25:09.000Z</time>
      </trkpt>
      <trkpt lat="45.91658" lon="6.50539">
        <ele>2109.8000488281</ele>
        <time>2014-02-12T12:25:10.000Z</time>
      </trkpt>
      <trkpt lat="45.91657" lon="6.50541">
        <ele>2110.3999023438</ele>
        <time>2014-02-12T12:25:11.000Z</time>
      </trkpt>
      <trkpt lat="45.91657" lon="6.50542">
        <ele>2110.6000976562</ele>
        <time>2014-02-12T12:25:12.000Z</time>
      </trkpt>
      <trkpt lat="45.91656" lon="6.50542">
        <ele>2111</ele>
        <time>2014-02-12T12:25:13.000Z</time>
      </trkpt>
      <trkpt lat="45.91655" lon="6.50543">
        <ele>2111.1999511719</ele>
        <time>2014-02-12T12:25:14.000Z</time>
      </trkpt>
      <trkpt lat="45.91655" lon="6.50543">
        <ele>2111.3999023438</ele>
        <time>2014-02-12T12:25:15.000Z</time>
      </trkpt>
      <trkpt lat="45.91654" lon="6.50544">
        <ele>2111.3999023438</ele>
        <time>2014-02-12T12:25:16.000Z</time>
      </trkpt>
      <trkpt lat="45.91654" lon="6.50544">
        <ele>2111.6000976562</ele>
        <time>2014-02-12T12:25:17.000Z</time>
      </trkpt>
      <trkpt lat="45.91654" lon="6.50544">
        <ele>2111.6000976562</ele>
        <time>2014-02-12T12:25:18.000Z</time>
      </trkpt>
      <trkpt lat="45.91653" lon="6.50544">
        <ele>2111.6000976562</ele>
        <time>2014-02-12T12:25:19.000Z</time>
      </trkpt>
      <trkpt lat="45.91653" lon="6.50544">
        <ele>2111.6000976562</ele>
        <time>2014-02-12T12:25:20.000Z</time>
      </trkpt>
      <trkpt lat="45.91653" lon="6.50545">
        <ele>2112</ele>
        <time>2014-02-12T12:25:21.000Z</time>
      </trkpt>
      <trkpt lat="45.91652" lon="6.50545">
        <ele>2112.1999511719</ele>
        <time>2014-02-12T12:25:22.000Z</time>
      </trkpt>
      <trkpt lat="45.91651" lon="6.50546">
        <ele>2112.3999023438</ele>
        <time>2014-02-12T12:25:23.000Z</time>
      </trkpt>
      <trkpt lat="45.91651" lon="6.50546">
        <ele>2112.6000976562</ele>
        <time>2014-02-12T12:25:24.000Z</time>
      </trkpt>
      <trkpt lat="45.9165" lon="6.50547">
        <ele>2112.8000488281</ele>
        <time>2014-02-12T12:25:25.000Z</time>
      </trkpt>
      <trkpt lat="45.9165" lon="6.50547">
        <ele>2113</ele>
        <time>2014-02-12T12:25:26.000Z</time>
      </trkpt>
      <trkpt lat="45.91649" lon="6.50548">
        <ele>2113.1999511719</ele>
        <time>2014-02-12T12:25:27.000Z</time>
      </trkpt>
      <trkpt lat="45.91648" lon="6.50548">
        <ele>2113.3999023438</ele>
        <time>2014-02-12T12:25:28.000Z</time>
      </trkpt>
      <trkpt lat="45.91648" lon="6.50548">
        <ele>2113.1999511719</ele>
        <time>2014-02-12T12:25:29.000Z</time>
      </trkpt>
      <trkpt lat="45.91647" lon="6.50548">
        <ele>2113.3999023438</ele>
        <time>2014-02-12T12:25:30.000Z</time>
      </trkpt>
      <trkpt lat="45.91647" lon="6.50548">
        <ele>2113.6000976562</ele>
        <time>2014-02-12T12:25:31.000Z</time>
      </trkpt>
      <trkpt lat="45.91646" lon="6.50549">
        <ele>2113.6000976562</ele>
        <time>2014-02-12T12:25:32.000Z</time>
      </trkpt>
      <trkpt lat="45.91646" lon="6.50549">
        <ele>2113.8000488281</ele>
        <time>2014-02-12T12:25:33.000Z</time>
      </trkpt>
      <trkpt lat="45.91645" lon="6.5055">
        <ele>2114.1999511719</ele>
        <time>2014-02-12T12:25:34.000Z</time>
      </trkpt>
      <trkpt lat="45.91644" lon="6.50551">
        <ele>2114.3999023438</ele>
        <time>2014-02-12T12:25:35.000Z</time>
      </trkpt>
      <trkpt lat="45.91644" lon="6.50551">
        <ele>2114.6000976562</ele>
        <time>2014-02-12T12:25:36.000Z</time>
      </trkpt>
      <trkpt lat="45.91644" lon="6.50551">
        <ele>2114.6000976562</ele>
        <time>2014-02-12T12:25:37.000Z</time>
      </trkpt>
      <trkpt lat="45.91643" lon="6.50552">
        <ele>2114.8000488281</ele>
        <time>2014-02-12T12:25:38.000Z</time>
      </trkpt>
      <trkpt lat="45.91643" lon="6.50552">
        <ele>2115</ele>
        <time>2014-02-12T12:25:39.000Z</time>
      </trkpt>
      <trkpt lat="45.91643" lon="6.50552">
        <ele>2115</ele>
        <time>2014-02-12T12:25:40.000Z</time>
      </trkpt>
      <trkpt lat="45.91643" lon="6.50552">
        <ele>2115</ele>
        <time>2014-02-12T12:25:41.000Z</time>
      </trkpt>
      <trkpt lat="45.91642" lon="6.50553">
        <ele>2115.3999023438</ele>
        <time>2014-02-12T12:25:42.000Z</time>
      </trkpt>
      <trkpt lat="45.91641" lon="6.50553">
        <ele>2115.6000976562</ele>
        <time>2014-02-12T12:25:43.000Z</time>
      </trkpt>
      <trkpt lat="45.91641" lon="6.50554">
        <ele>2115.8000488281</ele>
        <time>2014-02-12T12:25:44.000Z</time>
      </trkpt>
      <trkpt lat="45.9164" lon="6.50554">
        <ele>2116.1999511719</ele>
        <time>2014-02-12T12:25:45.000Z</time>
      </trkpt>
      <trkpt lat="45.91639" lon="6.50555">
        <ele>2116.6000976562</ele>
        <time>2014-02-12T12:25:46.000Z</time>
      </trkpt>
      <trkpt lat="45.91639" lon="6.50556">
        <ele>2116.8000488281</ele>
        <time>2014-02-12T12:25:47.000Z</time>
      </trkpt>
      <trkpt lat="45.91639" lon="6.50556">
        <ele>2116.8000488281</ele>
        <time>2014-02-12T12:25:48.000Z</time>
      </trkpt>
      <trkpt lat="45.91638" lon="6.50558">
        <ele>2117.6000976562</ele>
        <time>2014-02-12T12:25:49.000Z</time>
      </trkpt>
      <trkpt lat="45.91638" lon="6.50558">
        <ele>2118</ele>
        <time>2014-02-12T12:25:50.000Z</time>
      </trkpt>
      <trkpt lat="45.91638" lon="6.50559">
        <ele>2118.3999023438</ele>
        <time>2014-02-12T12:25:51.000Z</time>
      </trkpt>
      <trkpt lat="45.91637" lon="6.5056">
        <ele>2118.3999023438</ele>
        <time>2014-02-12T12:25:52.000Z</time>
      </trkpt>
      <trkpt lat="45.91637" lon="6.5056">
        <ele>2118.3999023438</ele>
        <time>2014-02-12T12:25:53.000Z</time>
      </trkpt>
      <trkpt lat="45.91637" lon="6.5056">
        <ele>2118.6000976562</ele>
        <time>2014-02-12T12:25:54.000Z</time>
      </trkpt>
      <trkpt lat="45.91637" lon="6.50561">
        <ele>2119</ele>
        <time>2014-02-12T12:25:55.000Z</time>
      </trkpt>
      <trkpt lat="45.91636" lon="6.50562">
        <ele>2119.6000976562</ele>
        <time>2014-02-12T12:25:56.000Z</time>
      </trkpt>
      <trkpt lat="45.91635" lon="6.50563">
        <ele>2119.8000488281</ele>
        <time>2014-02-12T12:25:57.000Z</time>
      </trkpt>
      <trkpt lat="45.91635" lon="6.50564">
        <ele>2120</ele>
        <time>2014-02-12T12:25:58.000Z</time>
      </trkpt>
      <trkpt lat="45.91635" lon="6.50564">
        <ele>2120.1999511719</ele>
        <time>2014-02-12T12:25:59.000Z</time>
      </trkpt>
      <trkpt lat="45.91634" lon="6.50565">
        <ele>2120.3999023438</ele>
        <time>2014-02-12T12:26:00.000Z</time>
      </trkpt>
      <trkpt lat="45.91634" lon="6.50565">
        <ele>2120.3999023438</ele>
        <time>2014-02-12T12:26:01.000Z</time>
      </trkpt>
      <trkpt lat="45.91634" lon="6.50565">
        <ele>2120.3999023438</ele>
        <time>2014-02-12T12:26:02.000Z</time>
      </trkpt>
      <trkpt lat="45.91634" lon="6.50565">
        <ele>2120.3999023438</ele>
        <time>2014-02-12T12:26:03.000Z</time>
      </trkpt>
      <trkpt lat="45.91634" lon="6.50565">
        <ele>2120.3999023438</ele>
        <time>2014-02-12T12:26:04.000Z</time>
      </trkpt>
      <trkpt lat="45.91634" lon="6.50565">
        <ele>2120.6000976562</ele>
        <time>2014-02-12T12:26:05.000Z</time>
      </trkpt>
      <trkpt lat="45.91633" lon="6.50566">
        <ele>2120.8000488281</ele>
        <time>2014-02-12T12:26:06.000Z</time>
      </trkpt>
      <trkpt lat="45.91633" lon="6.50567">
        <ele>2121</ele>
        <time>2014-02-12T12:26:07.000Z</time>
      </trkpt>
      <trkpt lat="45.91633" lon="6.50567">
        <ele>2121</ele>
        <time>2014-02-12T12:26:08.000Z</time>
      </trkpt>
      <trkpt lat="45.91633" lon="6.50568">
        <ele>2121.1999511719</ele>
        <time>2014-02-12T12:26:09.000Z</time>
      </trkpt>
      <trkpt lat="45.91633" lon="6.50569">
        <ele>2121.8000488281</ele>
        <time>2014-02-12T12:26:10.000Z</time>
      </trkpt>
      <trkpt lat="45.91632" lon="6.5057">
        <ele>2122.1999511719</ele>
        <time>2014-02-12T12:26:11.000Z</time>
      </trkpt>
      <trkpt lat="45.91632" lon="6.5057">
        <ele>2122.1999511719</ele>
        <time>2014-02-12T12:26:12.000Z</time>
      </trkpt>
      <trkpt lat="45.91632" lon="6.5057">
        <ele>2122</ele>
        <time>2014-02-12T12:26:13.000Z</time>
      </trkpt>
      <trkpt lat="45.91632" lon="6.5057">
        <ele>2122</ele>
        <time>2014-02-12T12:26:14.000Z</time>
      </trkpt>
      <trkpt lat="45.91632" lon="6.5057">
        <ele>2122.1999511719</ele>
        <time>2014-02-12T12:26:15.000Z</time>
      </trkpt>
      <trkpt lat="45.91631" lon="6.50571">
        <ele>2122.3999023438</ele>
        <time>2014-02-12T12:26:16.000Z</time>
      </trkpt>
      <trkpt lat="45.91631" lon="6.50572">
        <ele>2122.6000976562</ele>
        <time>2014-02-12T12:26:17.000Z</time>
      </trkpt>
      <trkpt lat="45.91631" lon="6.50572">
        <ele>2122.8000488281</ele>
        <time>2014-02-12T12:26:18.000Z</time>
      </trkpt>
      <trkpt lat="45.91631" lon="6.50572">
        <ele>2122.8000488281</ele>
        <time>2014-02-12T12:26:19.000Z</time>
      </trkpt>
      <trkpt lat="45.9163" lon="6.50572">
        <ele>2122.6000976562</ele>
        <time>2014-02-12T12:26:20.000Z</time>
      </trkpt>
      <trkpt lat="45.9163" lon="6.50572">
        <ele>2122.6000976562</ele>
        <time>2014-02-12T12:26:21.000Z</time>
      </trkpt>
      <trkpt lat="45.9163" lon="6.50572">
        <ele>2122.6000976562</ele>
        <time>2014-02-12T12:26:22.000Z</time>
      </trkpt>
      <trkpt lat="45.9163" lon="6.50573">
        <ele>2123</ele>
        <time>2014-02-12T12:26:23.000Z</time>
      </trkpt>
      <trkpt lat="45.91629" lon="6.50574">
        <ele>2123.3999023438</ele>
        <time>2014-02-12T12:26:24.000Z</time>
      </trkpt>
      <trkpt lat="45.91629" lon="6.50575">
        <ele>2123.8000488281</ele>
        <time>2014-02-12T12:26:25.000Z</time>
      </trkpt>
      <trkpt lat="45.91629" lon="6.50575">
        <ele>2123.8000488281</ele>
        <time>2014-02-12T12:26:26.000Z</time>
      </trkpt>
      <trkpt lat="45.91628" lon="6.50576">
        <ele>2124</ele>
        <time>2014-02-12T12:26:27.000Z</time>
      </trkpt>
      <trkpt lat="45.91628" lon="6.50576">
        <ele>2124</ele>
        <time>2014-02-12T12:26:28.000Z</time>
      </trkpt>
      <trkpt lat="45.91627" lon="6.50575">
        <ele>2123.8000488281</ele>
        <time>2014-02-12T12:26:29.000Z</time>
      </trkpt>
      <trkpt lat="45.91626" lon="6.50576">
        <ele>2124</ele>
        <time>2014-02-12T12:26:30.000Z</time>
      </trkpt>
      <trkpt lat="45.91626" lon="6.50576">
        <ele>2124</ele>
        <time>2014-02-12T12:26:31.000Z</time>
      </trkpt>
      <trkpt lat="45.91625" lon="6.50577">
        <ele>2124.1999511719</ele>
        <time>2014-02-12T12:26:32.000Z</time>
      </trkpt>
      <trkpt lat="45.91625" lon="6.50577">
        <ele>2124.3999023438</ele>
        <time>2014-02-12T12:26:33.000Z</time>
      </trkpt>
      <trkpt lat="45.91624" lon="6.50578">
        <ele>2124.6000976562</ele>
        <time>2014-02-12T12:26:34.000Z</time>
      </trkpt>
      <trkpt lat="45.91623" lon="6.50578">
        <ele>2124.8000488281</ele>
        <time>2014-02-12T12:26:35.000Z</time>
      </trkpt>
      <trkpt lat="45.91623" lon="6.50579">
        <ele>2125</ele>
        <time>2014-02-12T12:26:36.000Z</time>
      </trkpt>
      <trkpt lat="45.91622" lon="6.50579">
        <ele>2125</ele>
        <time>2014-02-12T12:26:37.000Z</time>
      </trkpt>
      <trkpt lat="45.91621" lon="6.5058">
        <ele>2125.1999511719</ele>
        <time>2014-02-12T12:26:38.000Z</time>
      </trkpt>
      <trkpt lat="45.91621" lon="6.5058">
        <ele>2125.1999511719</ele>
        <time>2014-02-12T12:26:39.000Z</time>
      </trkpt>
      <trkpt lat="45.91621" lon="6.50581">
        <ele>2125.6000976562</ele>
        <time>2014-02-12T12:26:40.000Z</time>
      </trkpt>
      <trkpt lat="45.91621" lon="6.50582">
        <ele>2125.8000488281</ele>
        <time>2014-02-12T12:26:41.000Z</time>
      </trkpt>
      <trkpt lat="45.91621" lon="6.50582">
        <ele>2125.8000488281</ele>
        <time>2014-02-12T12:26:42.000Z</time>
      </trkpt>
      <trkpt lat="45.91621" lon="6.50582">
        <ele>2125.8000488281</ele>
        <time>2014-02-12T12:26:43.000Z</time>
      </trkpt>
      <trkpt lat="45.91619" lon="6.50582">
        <ele>2126.1999511719</ele>
        <time>2014-02-12T12:26:44.000Z</time>
      </trkpt>
      <trkpt lat="45.91619" lon="6.50582">
        <ele>2126.1999511719</ele>
        <time>2014-02-12T12:26:45.000Z</time>
      </trkpt>
      <trkpt lat="45.91619" lon="6.50583">
        <ele>2126.3999023438</ele>
        <time>2014-02-12T12:26:46.000Z</time>
      </trkpt>
      <trkpt lat="45.91618" lon="6.50583">
        <ele>2126.6000976562</ele>
        <time>2014-02-12T12:26:47.000Z</time>
      </trkpt>
      <trkpt lat="45.91617" lon="6.50584">
        <ele>2126.8000488281</ele>
        <time>2014-02-12T12:26:48.000Z</time>
      </trkpt>
      <trkpt lat="45.91617" lon="6.50584">
        <ele>2126.8000488281</ele>
        <time>2014-02-12T12:26:49.000Z</time>
      </trkpt>
      <trkpt lat="45.91617" lon="6.50584">
        <ele>2126.8000488281</ele>
        <time>2014-02-12T12:26:50.000Z</time>
      </trkpt>
      <trkpt lat="45.91616" lon="6.50585">
        <ele>2127.1999511719</ele>
        <time>2014-02-12T12:26:51.000Z</time>
      </trkpt>
      <trkpt lat="45.91616" lon="6.50586">
        <ele>2127.3999023438</ele>
        <time>2014-02-12T12:26:52.000Z</time>
      </trkpt>
      <trkpt lat="45.91615" lon="6.50587">
        <ele>2127.8000488281</ele>
        <time>2014-02-12T12:26:53.000Z</time>
      </trkpt>
      <trkpt lat="45.91615" lon="6.50588">
        <ele>2128</ele>
        <time>2014-02-12T12:26:54.000Z</time>
      </trkpt>
      <trkpt lat="45.91614" lon="6.50589">
        <ele>2128.6000976562</ele>
        <time>2014-02-12T12:26:55.000Z</time>
      </trkpt>
      <trkpt lat="45.91613" lon="6.50591">
        <ele>2129</ele>
        <time>2014-02-12T12:26:56.000Z</time>
      </trkpt>
      <trkpt lat="45.91613" lon="6.50592">
        <ele>2129.3999023438</ele>
        <time>2014-02-12T12:26:57.000Z</time>
      </trkpt>
      <trkpt lat="45.91613" lon="6.50592">
        <ele>2129.3999023438</ele>
        <time>2014-02-12T12:26:58.000Z</time>
      </trkpt>
      <trkpt lat="45.91613" lon="6.50592">
        <ele>2129.3999023438</ele>
        <time>2014-02-12T12:26:59.000Z</time>
      </trkpt>
      <trkpt lat="45.91613" lon="6.50592">
        <ele>2129.3999023438</ele>
        <time>2014-02-12T12:27:00.000Z</time>
      </trkpt>
      <trkpt lat="45.91613" lon="6.50592">
        <ele>2129.3999023438</ele>
        <time>2014-02-12T12:27:01.000Z</time>
      </trkpt>
      <trkpt lat="45.91613" lon="6.50592">
        <ele>2129.3999023438</ele>
        <time>2014-02-12T12:27:02.000Z</time>
      </trkpt>
      <trkpt lat="45.91613" lon="6.50592">
        <ele>2129.3999023438</ele>
        <time>2014-02-12T12:27:03.000Z</time>
      </trkpt>
      <trkpt lat="45.91613" lon="6.50592">
        <ele>2129.3999023438</ele>
        <time>2014-02-12T12:27:04.000Z</time>
      </trkpt>
      <trkpt lat="45.91612" lon="6.50593">
        <ele>2129.6000976562</ele>
        <time>2014-02-12T12:27:05.000Z</time>
      </trkpt>
      <trkpt lat="45.91612" lon="6.50593">
        <ele>2129.6000976562</ele>
        <time>2014-02-12T12:27:06.000Z</time>
      </trkpt>
      <trkpt lat="45.91612" lon="6.50593">
        <ele>2129.6000976562</ele>
        <time>2014-02-12T12:27:07.000Z</time>
      </trkpt>
      <trkpt lat="45.91612" lon="6.50593">
        <ele>2129.6000976562</ele>
        <time>2014-02-12T12:27:08.000Z</time>
      </trkpt>
      <trkpt lat="45.91612" lon="6.50593">
        <ele>2129.6000976562</ele>
        <time>2014-02-12T12:27:09.000Z</time>
      </trkpt>
      <trkpt lat="45.91613" lon="6.50593">
        <ele>2129.8000488281</ele>
        <time>2014-02-12T12:27:10.000Z</time>
      </trkpt>
      <trkpt lat="45.91613" lon="6.50593">
        <ele>2129.8000488281</ele>
        <time>2014-02-12T12:27:11.000Z</time>
      </trkpt>
      <trkpt lat="45.91613" lon="6.50594">
        <ele>2130.1999511719</ele>
        <time>2014-02-12T12:27:12.000Z</time>
      </trkpt>
      <trkpt lat="45.91613" lon="6.50594">
        <ele>2130.1999511719</ele>
        <time>2014-02-12T12:27:13.000Z</time>
      </trkpt>
      <trkpt lat="45.91613" lon="6.50594">
        <ele>2130.1999511719</ele>
        <time>2014-02-12T12:27:14.000Z</time>
      </trkpt>
      <trkpt lat="45.91614" lon="6.50595">
        <ele>2130.6000976562</ele>
        <time>2014-02-12T12:27:15.000Z</time>
      </trkpt>
      <trkpt lat="45.91615" lon="6.50596">
        <ele>2131</ele>
        <time>2014-02-12T12:27:16.000Z</time>
      </trkpt>
      <trkpt lat="45.91615" lon="6.50596">
        <ele>2131</ele>
        <time>2014-02-12T12:27:17.000Z</time>
      </trkpt>
      <trkpt lat="45.91616" lon="6.50597">
        <ele>2131.3999023438</ele>
        <time>2014-02-12T12:27:18.000Z</time>
      </trkpt>
      <trkpt lat="45.91617" lon="6.50598">
        <ele>2131.3999023438</ele>
        <time>2014-02-12T12:27:19.000Z</time>
      </trkpt>
      <trkpt lat="45.91618" lon="6.50598">
        <ele>2131.6000976562</ele>
        <time>2014-02-12T12:27:20.000Z</time>
      </trkpt>
      <trkpt lat="45.91618" lon="6.50598">
        <ele>2131.6000976562</ele>
        <time>2014-02-12T12:27:21.000Z</time>
      </trkpt>
      <trkpt lat="45.91619" lon="6.50599">
        <ele>2131.8000488281</ele>
        <time>2014-02-12T12:27:22.000Z</time>
      </trkpt>
      <trkpt lat="45.9162" lon="6.506">
        <ele>2132.1999511719</ele>
        <time>2014-02-12T12:27:23.000Z</time>
      </trkpt>
      <trkpt lat="45.9162" lon="6.506">
        <ele>2132.3999023438</ele>
        <time>2014-02-12T12:27:24.000Z</time>
      </trkpt>
      <trkpt lat="45.91621" lon="6.50601">
        <ele>2132.6000976562</ele>
        <time>2014-02-12T12:27:25.000Z</time>
      </trkpt>
      <trkpt lat="45.91622" lon="6.50602">
        <ele>2132.8000488281</ele>
        <time>2014-02-12T12:27:26.000Z</time>
      </trkpt>
      <trkpt lat="45.91622" lon="6.50602">
        <ele>2132.8000488281</ele>
        <time>2014-02-12T12:27:27.000Z</time>
      </trkpt>
      <trkpt lat="45.91622" lon="6.50602">
        <ele>2132.8000488281</ele>
        <time>2014-02-12T12:27:28.000Z</time>
      </trkpt>
      <trkpt lat="45.91622" lon="6.50603">
        <ele>2133.1999511719</ele>
        <time>2014-02-12T12:27:29.000Z</time>
      </trkpt>
      <trkpt lat="45.91623" lon="6.50604">
        <ele>2133.8000488281</ele>
        <time>2014-02-12T12:27:30.000Z</time>
      </trkpt>
      <trkpt lat="45.91623" lon="6.50604">
        <ele>2133.8000488281</ele>
        <time>2014-02-12T12:27:31.000Z</time>
      </trkpt>
      <trkpt lat="45.91623" lon="6.50605">
        <ele>2134</ele>
        <time>2014-02-12T12:27:32.000Z</time>
      </trkpt>
      <trkpt lat="45.91624" lon="6.50605">
        <ele>2134</ele>
        <time>2014-02-12T12:27:33.000Z</time>
      </trkpt>
      <trkpt lat="45.91624" lon="6.50605">
        <ele>2134</ele>
        <time>2014-02-12T12:27:34.000Z</time>
      </trkpt>
      <trkpt lat="45.91624" lon="6.50605">
        <ele>2134</ele>
        <time>2014-02-12T12:27:35.000Z</time>
      </trkpt>
      <trkpt lat="45.91624" lon="6.50605">
        <ele>2134</ele>
        <time>2014-02-12T12:27:36.000Z</time>
      </trkpt>
      <trkpt lat="45.91625" lon="6.50606">
        <ele>2134.3999023438</ele>
        <time>2014-02-12T12:27:37.000Z</time>
      </trkpt>
      <trkpt lat="45.91625" lon="6.50607">
        <ele>2134.6000976562</ele>
        <time>2014-02-12T12:27:38.000Z</time>
      </trkpt>
      <trkpt lat="45.91626" lon="6.50607">
        <ele>2135</ele>
        <time>2014-02-12T12:27:39.000Z</time>
      </trkpt>
      <trkpt lat="45.91627" lon="6.50608">
        <ele>2135.3999023438</ele>
        <time>2014-02-12T12:27:40.000Z</time>
      </trkpt>
      <trkpt lat="45.91627" lon="6.50609">
        <ele>2135.6000976562</ele>
        <time>2014-02-12T12:27:41.000Z</time>
      </trkpt>
      <trkpt lat="45.91628" lon="6.5061">
        <ele>2136</ele>
        <time>2014-02-12T12:27:42.000Z</time>
      </trkpt>
      <trkpt lat="45.91628" lon="6.50611">
        <ele>2136.1999511719</ele>
        <time>2014-02-12T12:27:43.000Z</time>
      </trkpt>
      <trkpt lat="45.91628" lon="6.50611">
        <ele>2136.1999511719</ele>
        <time>2014-02-12T12:27:44.000Z</time>
      </trkpt>
      <trkpt lat="45.91628" lon="6.50611">
        <ele>2136.1999511719</ele>
        <time>2014-02-12T12:27:45.000Z</time>
      </trkpt>
      <trkpt lat="45.91629" lon="6.50612">
        <ele>2136.3999023438</ele>
        <time>2014-02-12T12:27:46.000Z</time>
      </trkpt>
      <trkpt lat="45.91629" lon="6.50612">
        <ele>2136.6000976562</ele>
        <time>2014-02-12T12:27:47.000Z</time>
      </trkpt>
      <trkpt lat="45.9163" lon="6.50613">
        <ele>2136.8000488281</ele>
        <time>2014-02-12T12:27:48.000Z</time>
      </trkpt>
      <trkpt lat="45.9163" lon="6.50613">
        <ele>2137</ele>
        <time>2014-02-12T12:27:49.000Z</time>
      </trkpt>
      <trkpt lat="45.9163" lon="6.50614">
        <ele>2137.1999511719</ele>
        <time>2014-02-12T12:27:50.000Z</time>
      </trkpt>
      <trkpt lat="45.91631" lon="6.50615">
        <ele>2137.3999023438</ele>
        <time>2014-02-12T12:27:51.000Z</time>
      </trkpt>
      <trkpt lat="45.91631" lon="6.50615">
        <ele>2137.3999023438</ele>
        <time>2014-02-12T12:27:52.000Z</time>
      </trkpt>
      <trkpt lat="45.91631" lon="6.50616">
        <ele>2137.8000488281</ele>
        <time>2014-02-12T12:27:53.000Z</time>
      </trkpt>
      <trkpt lat="45.91632" lon="6.50617">
        <ele>2138.1999511719</ele>
        <time>2014-02-12T12:27:54.000Z</time>
      </trkpt>
      <trkpt lat="45.91633" lon="6.50618">
        <ele>2138.6000976562</ele>
        <time>2014-02-12T12:27:55.000Z</time>
      </trkpt>
      <trkpt lat="45.91633" lon="6.50618">
        <ele>2138.6000976562</ele>
        <time>2014-02-12T12:27:56.000Z</time>
      </trkpt>
      <trkpt lat="45.91633" lon="6.50618">
        <ele>2138.8000488281</ele>
        <time>2014-02-12T12:27:57.000Z</time>
      </trkpt>
      <trkpt lat="45.91634" lon="6.50619">
        <ele>2139</ele>
        <time>2014-02-12T12:27:58.000Z</time>
      </trkpt>
      <trkpt lat="45.91634" lon="6.50619">
        <ele>2139.1999511719</ele>
        <time>2014-02-12T12:27:59.000Z</time>
      </trkpt>
      <trkpt lat="45.91635" lon="6.5062">
        <ele>2139.3999023438</ele>
        <time>2014-02-12T12:28:00.000Z</time>
      </trkpt>
      <trkpt lat="45.91635" lon="6.5062">
        <ele>2139.3999023438</ele>
        <time>2014-02-12T12:28:01.000Z</time>
      </trkpt>
      <trkpt lat="45.91635" lon="6.5062">
        <ele>2139.3999023438</ele>
        <time>2014-02-12T12:28:02.000Z</time>
      </trkpt>
      <trkpt lat="45.91635" lon="6.5062">
        <ele>2139.3999023438</ele>
        <time>2014-02-12T12:28:03.000Z</time>
      </trkpt>
      <trkpt lat="45.91635" lon="6.5062">
        <ele>2139.3999023438</ele>
        <time>2014-02-12T12:28:04.000Z</time>
      </trkpt>
      <trkpt lat="45.91635" lon="6.5062">
        <ele>2139.3999023438</ele>
        <time>2014-02-12T12:28:05.000Z</time>
      </trkpt>
      <trkpt lat="45.91635" lon="6.5062">
        <ele>2139.3999023438</ele>
        <time>2014-02-12T12:28:06.000Z</time>
      </trkpt>
      <trkpt lat="45.91634" lon="6.5062">
        <ele>2139.3999023438</ele>
        <time>2014-02-12T12:28:07.000Z</time>
      </trkpt>
      <trkpt lat="45.91633" lon="6.5062">
        <ele>2139.3999023438</ele>
        <time>2014-02-12T12:28:08.000Z</time>
      </trkpt>
      <trkpt lat="45.91633" lon="6.5062">
        <ele>2139.3999023438</ele>
        <time>2014-02-12T12:28:09.000Z</time>
      </trkpt>
      <trkpt lat="45.91632" lon="6.5062">
        <ele>2139.3999023438</ele>
        <time>2014-02-12T12:28:10.000Z</time>
      </trkpt>
      <trkpt lat="45.91631" lon="6.5062">
        <ele>2139.1999511719</ele>
        <time>2014-02-12T12:28:11.000Z</time>
      </trkpt>
      <trkpt lat="45.91631" lon="6.5062">
        <ele>2139.3999023438</ele>
        <time>2014-02-12T12:28:12.000Z</time>
      </trkpt>
      <trkpt lat="45.9163" lon="6.50621">
        <ele>2139.8000488281</ele>
        <time>2014-02-12T12:28:13.000Z</time>
      </trkpt>
      <trkpt lat="45.9163" lon="6.50622">
        <ele>2140.1999511719</ele>
        <time>2014-02-12T12:28:14.000Z</time>
      </trkpt>
      <trkpt lat="45.91629" lon="6.50623">
        <ele>2140.6000976562</ele>
        <time>2014-02-12T12:28:15.000Z</time>
      </trkpt>
      <trkpt lat="45.91629" lon="6.50624">
        <ele>2140.8000488281</ele>
        <time>2014-02-12T12:28:16.000Z</time>
      </trkpt>
      <trkpt lat="45.91629" lon="6.50626">
        <ele>2141.1999511719</ele>
        <time>2014-02-12T12:28:17.000Z</time>
      </trkpt>
      <trkpt lat="45.91628" lon="6.50626">
        <ele>2141.3999023438</ele>
        <time>2014-02-12T12:28:18.000Z</time>
      </trkpt>
      <trkpt lat="45.91628" lon="6.50627">
        <ele>2141.8000488281</ele>
        <time>2014-02-12T12:28:19.000Z</time>
      </trkpt>
      <trkpt lat="45.91628" lon="6.50628">
        <ele>2142.1999511719</ele>
        <time>2014-02-12T12:28:20.000Z</time>
      </trkpt>
      <trkpt lat="45.91628" lon="6.5063">
        <ele>2142.8000488281</ele>
        <time>2014-02-12T12:28:21.000Z</time>
      </trkpt>
      <trkpt lat="45.91628" lon="6.50632">
        <ele>2143.3999023438</ele>
        <time>2014-02-12T12:28:22.000Z</time>
      </trkpt>
      <trkpt lat="45.91627" lon="6.50632">
        <ele>2143.3999023438</ele>
        <time>2014-02-12T12:28:23.000Z</time>
      </trkpt>
      <trkpt lat="45.91627" lon="6.50633">
        <ele>2143.6000976562</ele>
        <time>2014-02-12T12:28:24.000Z</time>
      </trkpt>
      <trkpt lat="45.91626" lon="6.50633">
        <ele>2143.8000488281</ele>
        <time>2014-02-12T12:28:25.000Z</time>
      </trkpt>
      <trkpt lat="45.91626" lon="6.50633">
        <ele>2143.6000976562</ele>
        <time>2014-02-12T12:28:26.000Z</time>
      </trkpt>
      <trkpt lat="45.91625" lon="6.50633">
        <ele>2143.8000488281</ele>
        <time>2014-02-12T12:28:27.000Z</time>
      </trkpt>
      <trkpt lat="45.91625" lon="6.50633">
        <ele>2143.6000976562</ele>
        <time>2014-02-12T12:28:28.000Z</time>
      </trkpt>
      <trkpt lat="45.91624" lon="6.50632">
        <ele>2143.3999023438</ele>
        <time>2014-02-12T12:28:29.000Z</time>
      </trkpt>
      <trkpt lat="45.91623" lon="6.50632">
        <ele>2143.6000976562</ele>
        <time>2014-02-12T12:28:30.000Z</time>
      </trkpt>
      <trkpt lat="45.91622" lon="6.50632">
        <ele>2143.6000976562</ele>
        <time>2014-02-12T12:28:31.000Z</time>
      </trkpt>
      <trkpt lat="45.91622" lon="6.50633">
        <ele>2143.6000976562</ele>
        <time>2014-02-12T12:28:32.000Z</time>
      </trkpt>
      <trkpt lat="45.91621" lon="6.50633">
        <ele>2143.6000976562</ele>
        <time>2014-02-12T12:28:33.000Z</time>
      </trkpt>
      <trkpt lat="45.91621" lon="6.50634">
        <ele>2144.1999511719</ele>
        <time>2014-02-12T12:28:34.000Z</time>
      </trkpt>
      <trkpt lat="45.9162" lon="6.50635">
        <ele>2144.1999511719</ele>
        <time>2014-02-12T12:28:35.000Z</time>
      </trkpt>
      <trkpt lat="45.91619" lon="6.50635">
        <ele>2144.3999023438</ele>
        <time>2014-02-12T12:28:36.000Z</time>
      </trkpt>
      <trkpt lat="45.91619" lon="6.50635">
        <ele>2144.3999023438</ele>
        <time>2014-02-12T12:28:37.000Z</time>
      </trkpt>
      <trkpt lat="45.91619" lon="6.50636">
        <ele>2144.8000488281</ele>
        <time>2014-02-12T12:28:38.000Z</time>
      </trkpt>
      <trkpt lat="45.91618" lon="6.50637">
        <ele>2144.8000488281</ele>
        <time>2014-02-12T12:28:39.000Z</time>
      </trkpt>
      <trkpt lat="45.91618" lon="6.50637">
        <ele>2145</ele>
        <time>2014-02-12T12:28:40.000Z</time>
      </trkpt>
      <trkpt lat="45.91618" lon="6.50638">
        <ele>2145.3999023438</ele>
        <time>2014-02-12T12:28:41.000Z</time>
      </trkpt>
      <trkpt lat="45.91617" lon="6.50639">
        <ele>2145.6000976562</ele>
        <time>2014-02-12T12:28:42.000Z</time>
      </trkpt>
      <trkpt lat="45.91617" lon="6.5064">
        <ele>2145.8000488281</ele>
        <time>2014-02-12T12:28:43.000Z</time>
      </trkpt>
      <trkpt lat="45.91616" lon="6.5064">
        <ele>2145.8000488281</ele>
        <time>2014-02-12T12:28:44.000Z</time>
      </trkpt>
      <trkpt lat="45.91616" lon="6.50639">
        <ele>2145.6000976562</ele>
        <time>2014-02-12T12:28:45.000Z</time>
      </trkpt>
      <trkpt lat="45.91614" lon="6.50637">
        <ele>2144.8000488281</ele>
        <time>2014-02-12T12:28:46.000Z</time>
      </trkpt>
      <trkpt lat="45.91614" lon="6.50637">
        <ele>2144.8000488281</ele>
        <time>2014-02-12T12:28:47.000Z</time>
      </trkpt>
      <trkpt lat="45.91614" lon="6.50637">
        <ele>2144.8000488281</ele>
        <time>2014-02-12T12:28:48.000Z</time>
      </trkpt>
      <trkpt lat="45.91615" lon="6.50638">
        <ele>2145</ele>
        <time>2014-02-12T12:28:50.000Z</time>
      </trkpt>
      <trkpt lat="45.91615" lon="6.50638">
        <ele>2145</ele>
        <time>2014-02-12T12:28:51.000Z</time>
      </trkpt>
      <trkpt lat="45.91615" lon="6.50638">
        <ele>2145</ele>
        <time>2014-02-12T12:28:52.000Z</time>
      </trkpt>
      <trkpt lat="45.91615" lon="6.50638">
        <ele>2145.1999511719</ele>
        <time>2014-02-12T12:28:53.000Z</time>
      </trkpt>
      <trkpt lat="45.91615" lon="6.50638">
        <ele>2145.1999511719</ele>
        <time>2014-02-12T12:28:54.000Z</time>
      </trkpt>
      <trkpt lat="45.91617" lon="6.50639">
        <ele>2145.6000976562</ele>
        <time>2014-02-12T12:28:55.000Z</time>
      </trkpt>
      <trkpt lat="45.91617" lon="6.50639">
        <ele>2145.6000976562</ele>
        <time>2014-02-12T12:28:56.000Z</time>
      </trkpt>
      <trkpt lat="45.91618" lon="6.5064">
        <ele>2145.8000488281</ele>
        <time>2014-02-12T12:28:57.000Z</time>
      </trkpt>
      <trkpt lat="45.91618" lon="6.5064">
        <ele>2145.8000488281</ele>
        <time>2014-02-12T12:28:58.000Z</time>
      </trkpt>
      <trkpt lat="45.91618" lon="6.50641">
        <ele>2146.3999023438</ele>
        <time>2014-02-12T12:28:59.000Z</time>
      </trkpt>
      <trkpt lat="45.91619" lon="6.50643">
        <ele>2146.8000488281</ele>
        <time>2014-02-12T12:29:00.000Z</time>
      </trkpt>
      <trkpt lat="45.9162" lon="6.50643">
        <ele>2147</ele>
        <time>2014-02-12T12:29:01.000Z</time>
      </trkpt>
      <trkpt lat="45.91621" lon="6.50644">
        <ele>2147.1999511719</ele>
        <time>2014-02-12T12:29:02.000Z</time>
      </trkpt>
      <trkpt lat="45.91621" lon="6.50644">
        <ele>2147.1999511719</ele>
        <time>2014-02-12T12:29:03.000Z</time>
      </trkpt>
      <trkpt lat="45.91621" lon="6.50644">
        <ele>2147.1999511719</ele>
        <time>2014-02-12T12:29:04.000Z</time>
      </trkpt>
      <trkpt lat="45.91621" lon="6.50644">
        <ele>2147.1999511719</ele>
        <time>2014-02-12T12:29:05.000Z</time>
      </trkpt>
      <trkpt lat="45.91622" lon="6.50644">
        <ele>2147.3999023438</ele>
        <time>2014-02-12T12:29:06.000Z</time>
      </trkpt>
      <trkpt lat="45.91622" lon="6.50644">
        <ele>2147.3999023438</ele>
        <time>2014-02-12T12:29:07.000Z</time>
      </trkpt>
      <trkpt lat="45.91622" lon="6.50644">
        <ele>2147.3999023438</ele>
        <time>2014-02-12T12:29:08.000Z</time>
      </trkpt>
      <trkpt lat="45.91622" lon="6.50644">
        <ele>2147.3999023438</ele>
        <time>2014-02-12T12:29:09.000Z</time>
      </trkpt>
      <trkpt lat="45.91622" lon="6.50644">
        <ele>2147.3999023438</ele>
        <time>2014-02-12T12:29:10.000Z</time>
      </trkpt>
      <trkpt lat="45.91622" lon="6.50644">
        <ele>2147.3999023438</ele>
        <time>2014-02-12T12:29:11.000Z</time>
      </trkpt>
      <trkpt lat="45.91622" lon="6.50645">
        <ele>2147.6000976562</ele>
        <time>2014-02-12T12:29:12.000Z</time>
      </trkpt>
      <trkpt lat="45.91622" lon="6.50645">
        <ele>2147.6000976562</ele>
        <time>2014-02-12T12:29:13.000Z</time>
      </trkpt>
      <trkpt lat="45.91623" lon="6.50646">
        <ele>2148</ele>
        <time>2014-02-12T12:29:14.000Z</time>
      </trkpt>
      <trkpt lat="45.91623" lon="6.50646">
        <ele>2148</ele>
        <time>2014-02-12T12:29:15.000Z</time>
      </trkpt>
      <trkpt lat="45.91624" lon="6.50647">
        <ele>2148.1999511719</ele>
        <time>2014-02-12T12:29:16.000Z</time>
      </trkpt>
      <trkpt lat="45.91624" lon="6.50647">
        <ele>2148.1999511719</ele>
        <time>2014-02-12T12:29:17.000Z</time>
      </trkpt>
      <trkpt lat="45.91625" lon="6.50648">
        <ele>2148.6000976562</ele>
        <time>2014-02-12T12:29:18.000Z</time>
      </trkpt>
      <trkpt lat="45.91625" lon="6.50649">
        <ele>2149</ele>
        <time>2014-02-12T12:29:19.000Z</time>
      </trkpt>
      <trkpt lat="45.91626" lon="6.5065">
        <ele>2149.3999023438</ele>
        <time>2014-02-12T12:29:20.000Z</time>
      </trkpt>
      <trkpt lat="45.91626" lon="6.5065">
        <ele>2149.3999023438</ele>
        <time>2014-02-12T12:29:21.000Z</time>
      </trkpt>
      <trkpt lat="45.91627" lon="6.50651">
        <ele>2149.8000488281</ele>
        <time>2014-02-12T12:29:22.000Z</time>
      </trkpt>
      <trkpt lat="45.91627" lon="6.50651">
        <ele>2149.8000488281</ele>
        <time>2014-02-12T12:29:23.000Z</time>
      </trkpt>
      <trkpt lat="45.91627" lon="6.50652">
        <ele>2150.3999023438</ele>
        <time>2014-02-12T12:29:24.000Z</time>
      </trkpt>
      <trkpt lat="45.91628" lon="6.50653">
        <ele>2150.6000976562</ele>
        <time>2014-02-12T12:29:25.000Z</time>
      </trkpt>
      <trkpt lat="45.91628" lon="6.50654">
        <ele>2151.1999511719</ele>
        <time>2014-02-12T12:29:26.000Z</time>
      </trkpt>
      <trkpt lat="45.91629" lon="6.50654">
        <ele>2151.1999511719</ele>
        <time>2014-02-12T12:29:27.000Z</time>
      </trkpt>
      <trkpt lat="45.91629" lon="6.50654">
        <ele>2151.3999023438</ele>
        <time>2014-02-12T12:29:28.000Z</time>
      </trkpt>
      <trkpt lat="45.91629" lon="6.50653">
        <ele>2151.1999511719</ele>
        <time>2014-02-12T12:29:29.000Z</time>
      </trkpt>
      <trkpt lat="45.91629" lon="6.50653">
        <ele>2151</ele>
        <time>2014-02-12T12:29:30.000Z</time>
      </trkpt>
      <trkpt lat="45.91629" lon="6.50653">
        <ele>2151</ele>
        <time>2014-02-12T12:29:31.000Z</time>
      </trkpt>
      <trkpt lat="45.91628" lon="6.50653">
        <ele>2150.8000488281</ele>
        <time>2014-02-12T12:29:32.000Z</time>
      </trkpt>
      <trkpt lat="45.91628" lon="6.50653">
        <ele>2150.8000488281</ele>
        <time>2014-02-12T12:29:33.000Z</time>
      </trkpt>
      <trkpt lat="45.91627" lon="6.50653">
        <ele>2151</ele>
        <time>2014-02-12T12:29:34.000Z</time>
      </trkpt>
      <trkpt lat="45.91627" lon="6.50654">
        <ele>2151.3999023438</ele>
        <time>2014-02-12T12:29:35.000Z</time>
      </trkpt>
      <trkpt lat="45.91627" lon="6.50654">
        <ele>2151.3999023438</ele>
        <time>2014-02-12T12:29:36.000Z</time>
      </trkpt>
      <trkpt lat="45.91626" lon="6.50655">
        <ele>2151.6000976562</ele>
        <time>2014-02-12T12:29:37.000Z</time>
      </trkpt>
      <trkpt lat="45.91626" lon="6.50655">
        <ele>2152</ele>
        <time>2014-02-12T12:29:38.000Z</time>
      </trkpt>
      <trkpt lat="45.91626" lon="6.50656">
        <ele>2152.3999023438</ele>
        <time>2014-02-12T12:29:39.000Z</time>
      </trkpt>
      <trkpt lat="45.91625" lon="6.50658">
        <ele>2153</ele>
        <time>2014-02-12T12:29:40.000Z</time>
      </trkpt>
      <trkpt lat="45.91625" lon="6.50658">
        <ele>2153.3999023438</ele>
        <time>2014-02-12T12:29:41.000Z</time>
      </trkpt>
      <trkpt lat="45.91625" lon="6.50659">
        <ele>2153.8000488281</ele>
        <time>2014-02-12T12:29:42.000Z</time>
      </trkpt>
      <trkpt lat="45.91625" lon="6.5066">
        <ele>2154.1999511719</ele>
        <time>2014-02-12T12:29:43.000Z</time>
      </trkpt>
      <trkpt lat="45.91624" lon="6.5066">
        <ele>2154</ele>
        <time>2014-02-12T12:29:44.000Z</time>
      </trkpt>
      <trkpt lat="45.91624" lon="6.5066">
        <ele>2154.1999511719</ele>
        <time>2014-02-12T12:29:45.000Z</time>
      </trkpt>
      <trkpt lat="45.91623" lon="6.50661">
        <ele>2154.8000488281</ele>
        <time>2014-02-12T12:29:46.000Z</time>
      </trkpt>
      <trkpt lat="45.91623" lon="6.50662">
        <ele>2155.1999511719</ele>
        <time>2014-02-12T12:29:47.000Z</time>
      </trkpt>
      <trkpt lat="45.91622" lon="6.50663">
        <ele>2155.1999511719</ele>
        <time>2014-02-12T12:29:48.000Z</time>
      </trkpt>
      <trkpt lat="45.91622" lon="6.50663">
        <ele>2155.3999023438</ele>
        <time>2014-02-12T12:29:49.000Z</time>
      </trkpt>
      <trkpt lat="45.91621" lon="6.50663">
        <ele>2155.6000976562</ele>
        <time>2014-02-12T12:29:50.000Z</time>
      </trkpt>
      <trkpt lat="45.9162" lon="6.50664">
        <ele>2155.8000488281</ele>
        <time>2014-02-12T12:29:51.000Z</time>
      </trkpt>
      <trkpt lat="45.9162" lon="6.50665">
        <ele>2156.1999511719</ele>
        <time>2014-02-12T12:29:52.000Z</time>
      </trkpt>
      <trkpt lat="45.91619" lon="6.50665">
        <ele>2156.3999023438</ele>
        <time>2014-02-12T12:29:53.000Z</time>
      </trkpt>
      <trkpt lat="45.91619" lon="6.50666">
        <ele>2157</ele>
        <time>2014-02-12T12:29:54.000Z</time>
      </trkpt>
      <trkpt lat="45.91619" lon="6.50667">
        <ele>2157.1999511719</ele>
        <time>2014-02-12T12:29:55.000Z</time>
      </trkpt>
      <trkpt lat="45.91619" lon="6.50667">
        <ele>2157.1999511719</ele>
        <time>2014-02-12T12:29:56.000Z</time>
      </trkpt>
      <trkpt lat="45.91619" lon="6.50667">
        <ele>2157.3999023438</ele>
        <time>2014-02-12T12:29:57.000Z</time>
      </trkpt>
      <trkpt lat="45.91618" lon="6.50668">
        <ele>2157.6000976562</ele>
        <time>2014-02-12T12:29:58.000Z</time>
      </trkpt>
      <trkpt lat="45.91617" lon="6.50668">
        <ele>2157.6000976562</ele>
        <time>2014-02-12T12:29:59.000Z</time>
      </trkpt>
      <trkpt lat="45.91617" lon="6.50669">
        <ele>2158</ele>
        <time>2014-02-12T12:30:00.000Z</time>
      </trkpt>
      <trkpt lat="45.91616" lon="6.5067">
        <ele>2158.3999023438</ele>
        <time>2014-02-12T12:30:01.000Z</time>
      </trkpt>
      <trkpt lat="45.91615" lon="6.5067">
        <ele>2158.6000976562</ele>
        <time>2014-02-12T12:30:02.000Z</time>
      </trkpt>
      <trkpt lat="45.91615" lon="6.5067">
        <ele>2158.8000488281</ele>
        <time>2014-02-12T12:30:03.000Z</time>
      </trkpt>
      <trkpt lat="45.91614" lon="6.50671">
        <ele>2158.8000488281</ele>
        <time>2014-02-12T12:30:04.000Z</time>
      </trkpt>
      <trkpt lat="45.91613" lon="6.50671">
        <ele>2159</ele>
        <time>2014-02-12T12:30:05.000Z</time>
      </trkpt>
      <trkpt lat="45.91613" lon="6.50672">
        <ele>2159.1999511719</ele>
        <time>2014-02-12T12:30:06.000Z</time>
      </trkpt>
      <trkpt lat="45.91613" lon="6.50672">
        <ele>2159.6000976562</ele>
        <time>2014-02-12T12:30:07.000Z</time>
      </trkpt>
      <trkpt lat="45.91612" lon="6.50673">
        <ele>2159.8000488281</ele>
        <time>2014-02-12T12:30:08.000Z</time>
      </trkpt>
      <trkpt lat="45.91612" lon="6.50674">
        <ele>2160.1999511719</ele>
        <time>2014-02-12T12:30:09.000Z</time>
      </trkpt>
      <trkpt lat="45.91611" lon="6.50674">
        <ele>2160.3999023438</ele>
        <time>2014-02-12T12:30:10.000Z</time>
      </trkpt>
      <trkpt lat="45.91611" lon="6.50674">
        <ele>2160.3999023438</ele>
        <time>2014-02-12T12:30:11.000Z</time>
      </trkpt>
      <trkpt lat="45.9161" lon="6.50674">
        <ele>2160.1999511719</ele>
        <time>2014-02-12T12:30:12.000Z</time>
      </trkpt>
      <trkpt lat="45.9161" lon="6.50674">
        <ele>2160.1999511719</ele>
        <time>2014-02-12T12:30:13.000Z</time>
      </trkpt>
      <trkpt lat="45.9161" lon="6.50674">
        <ele>2160.1999511719</ele>
        <time>2014-02-12T12:30:14.000Z</time>
      </trkpt>
      <trkpt lat="45.9161" lon="6.50674">
        <ele>2160.1999511719</ele>
        <time>2014-02-12T12:30:15.000Z</time>
      </trkpt>
      <trkpt lat="45.9161" lon="6.50674">
        <ele>2160.1999511719</ele>
        <time>2014-02-12T12:30:16.000Z</time>
      </trkpt>
      <trkpt lat="45.9161" lon="6.50674">
        <ele>2160.1999511719</ele>
        <time>2014-02-12T12:30:17.000Z</time>
      </trkpt>
      <trkpt lat="45.9161" lon="6.50674">
        <ele>2160.1999511719</ele>
        <time>2014-02-12T12:30:18.000Z</time>
      </trkpt>
      <trkpt lat="45.9161" lon="6.50673">
        <ele>2160</ele>
        <time>2014-02-12T12:30:19.000Z</time>
      </trkpt>
      <trkpt lat="45.9161" lon="6.50673">
        <ele>2160</ele>
        <time>2014-02-12T12:30:20.000Z</time>
      </trkpt>
      <trkpt lat="45.9161" lon="6.50673">
        <ele>2160</ele>
        <time>2014-02-12T12:30:21.000Z</time>
      </trkpt>
      <trkpt lat="45.91611" lon="6.50674">
        <ele>2160.6000976562</ele>
        <time>2014-02-12T12:30:22.000Z</time>
      </trkpt>
      <trkpt lat="45.91611" lon="6.50674">
        <ele>2160.6000976562</ele>
        <time>2014-02-12T12:30:23.000Z</time>
      </trkpt>
      <trkpt lat="45.91612" lon="6.50676">
        <ele>2161.3999023438</ele>
        <time>2014-02-12T12:30:24.000Z</time>
      </trkpt>
      <trkpt lat="45.91612" lon="6.50677">
        <ele>2162</ele>
        <time>2014-02-12T12:30:25.000Z</time>
      </trkpt>
      <trkpt lat="45.91613" lon="6.50678">
        <ele>2162.6000976562</ele>
        <time>2014-02-12T12:30:26.000Z</time>
      </trkpt>
      <trkpt lat="45.91613" lon="6.50679">
        <ele>2162.8000488281</ele>
        <time>2014-02-12T12:30:27.000Z</time>
      </trkpt>
      <trkpt lat="45.91613" lon="6.50679">
        <ele>2162.8000488281</ele>
        <time>2014-02-12T12:30:28.000Z</time>
      </trkpt>
      <trkpt lat="45.91614" lon="6.5068">
        <ele>2163.1999511719</ele>
        <time>2014-02-12T12:30:29.000Z</time>
      </trkpt>
      <trkpt lat="45.91614" lon="6.5068">
        <ele>2163.1999511719</ele>
        <time>2014-02-12T12:30:30.000Z</time>
      </trkpt>
      <trkpt lat="45.91615" lon="6.5068">
        <ele>2163.6000976562</ele>
        <time>2014-02-12T12:30:31.000Z</time>
      </trkpt>
      <trkpt lat="45.91615" lon="6.5068">
        <ele>2163.6000976562</ele>
        <time>2014-02-12T12:30:32.000Z</time>
      </trkpt>
      <trkpt lat="45.91616" lon="6.50681">
        <ele>2163.8000488281</ele>
        <time>2014-02-12T12:30:33.000Z</time>
      </trkpt>
      <trkpt lat="45.91616" lon="6.50682">
        <ele>2164.1999511719</ele>
        <time>2014-02-12T12:30:34.000Z</time>
      </trkpt>
      <trkpt lat="45.91616" lon="6.50682">
        <ele>2164.3999023438</ele>
        <time>2014-02-12T12:30:35.000Z</time>
      </trkpt>
      <trkpt lat="45.91616" lon="6.50682">
        <ele>2164.3999023438</ele>
        <time>2014-02-12T12:30:36.000Z</time>
      </trkpt>
      <trkpt lat="45.91617" lon="6.50682">
        <ele>2164.6000976562</ele>
        <time>2014-02-12T12:30:37.000Z</time>
      </trkpt>
      <trkpt lat="45.91617" lon="6.50684">
        <ele>2165.1999511719</ele>
        <time>2014-02-12T12:30:38.000Z</time>
      </trkpt>
      <trkpt lat="45.91617" lon="6.50684">
        <ele>2165.1999511719</ele>
        <time>2014-02-12T12:30:39.000Z</time>
      </trkpt>
      <trkpt lat="45.91618" lon="6.50684">
        <ele>2165.6000976562</ele>
        <time>2014-02-12T12:30:40.000Z</time>
      </trkpt>
      <trkpt lat="45.91618" lon="6.50685">
        <ele>2165.8000488281</ele>
        <time>2014-02-12T12:30:41.000Z</time>
      </trkpt>
      <trkpt lat="45.91619" lon="6.50686">
        <ele>2166.1999511719</ele>
        <time>2014-02-12T12:30:42.000Z</time>
      </trkpt>
      <trkpt lat="45.91619" lon="6.50686">
        <ele>2166.1999511719</ele>
        <time>2014-02-12T12:30:43.000Z</time>
      </trkpt>
      <trkpt lat="45.91619" lon="6.50687">
        <ele>2166.8000488281</ele>
        <time>2014-02-12T12:30:44.000Z</time>
      </trkpt>
      <trkpt lat="45.91619" lon="6.50687">
        <ele>2166.8000488281</ele>
        <time>2014-02-12T12:30:45.000Z</time>
      </trkpt>
      <trkpt lat="45.9162" lon="6.50688">
        <ele>2167.3999023438</ele>
        <time>2014-02-12T12:30:46.000Z</time>
      </trkpt>
      <trkpt lat="45.9162" lon="6.50688">
        <ele>2167.3999023438</ele>
        <time>2014-02-12T12:30:47.000Z</time>
      </trkpt>
      <trkpt lat="45.9162" lon="6.50689">
        <ele>2168</ele>
        <time>2014-02-12T12:30:48.000Z</time>
      </trkpt>
      <trkpt lat="45.9162" lon="6.50689">
        <ele>2168</ele>
        <time>2014-02-12T12:30:49.000Z</time>
      </trkpt>
      <trkpt lat="45.9162" lon="6.50689">
        <ele>2168</ele>
        <time>2014-02-12T12:30:50.000Z</time>
      </trkpt>
      <trkpt lat="45.9162" lon="6.50689">
        <ele>2168</ele>
        <time>2014-02-12T12:30:51.000Z</time>
      </trkpt>
      <trkpt lat="45.91619" lon="6.50689">
        <ele>2168</ele>
        <time>2014-02-12T12:30:52.000Z</time>
      </trkpt>
      <trkpt lat="45.91619" lon="6.50689">
        <ele>2167.8000488281</ele>
        <time>2014-02-12T12:30:53.000Z</time>
      </trkpt>
      <trkpt lat="45.91619" lon="6.50689">
        <ele>2167.8000488281</ele>
        <time>2014-02-12T12:30:54.000Z</time>
      </trkpt>
      <trkpt lat="45.91619" lon="6.50689">
        <ele>2168</ele>
        <time>2014-02-12T12:30:55.000Z</time>
      </trkpt>
      <trkpt lat="45.91619" lon="6.50689">
        <ele>2168</ele>
        <time>2014-02-12T12:30:56.000Z</time>
      </trkpt>
      <trkpt lat="45.91618" lon="6.50689">
        <ele>2168</ele>
        <time>2014-02-12T12:30:57.000Z</time>
      </trkpt>
      <trkpt lat="45.91618" lon="6.50689">
        <ele>2168</ele>
        <time>2014-02-12T12:30:58.000Z</time>
      </trkpt>
      <trkpt lat="45.91617" lon="6.50689">
        <ele>2168</ele>
        <time>2014-02-12T12:30:59.000Z</time>
      </trkpt>
      <trkpt lat="45.91616" lon="6.5069">
        <ele>2168</ele>
        <time>2014-02-12T12:31:00.000Z</time>
      </trkpt>
      <trkpt lat="45.91615" lon="6.5069">
        <ele>2168</ele>
        <time>2014-02-12T12:31:01.000Z</time>
      </trkpt>
      <trkpt lat="45.91614" lon="6.5069">
        <ele>2168</ele>
        <time>2014-02-12T12:31:02.000Z</time>
      </trkpt>
      <trkpt lat="45.91613" lon="6.5069">
        <ele>2168</ele>
        <time>2014-02-12T12:31:03.000Z</time>
      </trkpt>
      <trkpt lat="45.91613" lon="6.5069">
        <ele>2168.3999023438</ele>
        <time>2014-02-12T12:31:04.000Z</time>
      </trkpt>
      <trkpt lat="45.91613" lon="6.50691">
        <ele>2168.6000976562</ele>
        <time>2014-02-12T12:31:05.000Z</time>
      </trkpt>
      <trkpt lat="45.91613" lon="6.50691">
        <ele>2168.8000488281</ele>
        <time>2014-02-12T12:31:06.000Z</time>
      </trkpt>
      <trkpt lat="45.91612" lon="6.50691">
        <ele>2168.8000488281</ele>
        <time>2014-02-12T12:31:07.000Z</time>
      </trkpt>
      <trkpt lat="45.91612" lon="6.50692">
        <ele>2168.8000488281</ele>
        <time>2014-02-12T12:31:08.000Z</time>
      </trkpt>
      <trkpt lat="45.91611" lon="6.50692">
        <ele>2168.8000488281</ele>
        <time>2014-02-12T12:31:09.000Z</time>
      </trkpt>
      <trkpt lat="45.9161" lon="6.50692">
        <ele>2168.8000488281</ele>
        <time>2014-02-12T12:31:10.000Z</time>
      </trkpt>
      <trkpt lat="45.9161" lon="6.50692">
        <ele>2169</ele>
        <time>2014-02-12T12:31:11.000Z</time>
      </trkpt>
      <trkpt lat="45.91609" lon="6.50693">
        <ele>2169.3999023438</ele>
        <time>2014-02-12T12:31:12.000Z</time>
      </trkpt>
      <trkpt lat="45.91608" lon="6.50693">
        <ele>2169.3999023438</ele>
        <time>2014-02-12T12:31:13.000Z</time>
      </trkpt>
      <trkpt lat="45.91608" lon="6.50694">
        <ele>2169.8000488281</ele>
        <time>2014-02-12T12:31:14.000Z</time>
      </trkpt>
      <trkpt lat="45.91608" lon="6.50695">
        <ele>2170.3999023438</ele>
        <time>2014-02-12T12:31:15.000Z</time>
      </trkpt>
      <trkpt lat="45.91607" lon="6.50695">
        <ele>2170.3999023438</ele>
        <time>2014-02-12T12:31:16.000Z</time>
      </trkpt>
      <trkpt lat="45.91607" lon="6.50695">
        <ele>2170.6000976562</ele>
        <time>2014-02-12T12:31:17.000Z</time>
      </trkpt>
      <trkpt lat="45.91607" lon="6.50696">
        <ele>2170.8000488281</ele>
        <time>2014-02-12T12:31:18.000Z</time>
      </trkpt>
      <trkpt lat="45.91607" lon="6.50696">
        <ele>2170.8000488281</ele>
        <time>2014-02-12T12:31:19.000Z</time>
      </trkpt>
      <trkpt lat="45.91606" lon="6.50696">
        <ele>2170.8000488281</ele>
        <time>2014-02-12T12:31:20.000Z</time>
      </trkpt>
      <trkpt lat="45.91605" lon="6.50696">
        <ele>2170.6000976562</ele>
        <time>2014-02-12T12:31:21.000Z</time>
      </trkpt>
      <trkpt lat="45.91605" lon="6.50696">
        <ele>2170.8000488281</ele>
        <time>2014-02-12T12:31:22.000Z</time>
      </trkpt>
      <trkpt lat="45.91604" lon="6.50697">
        <ele>2171</ele>
        <time>2014-02-12T12:31:23.000Z</time>
      </trkpt>
      <trkpt lat="45.91603" lon="6.50698">
        <ele>2171.3999023438</ele>
        <time>2014-02-12T12:31:24.000Z</time>
      </trkpt>
      <trkpt lat="45.91603" lon="6.50698">
        <ele>2171.6000976562</ele>
        <time>2014-02-12T12:31:25.000Z</time>
      </trkpt>
      <trkpt lat="45.91602" lon="6.50699">
        <ele>2171.6000976562</ele>
        <time>2014-02-12T12:31:26.000Z</time>
      </trkpt>
      <trkpt lat="45.91601" lon="6.50699">
        <ele>2171.8000488281</ele>
        <time>2014-02-12T12:31:27.000Z</time>
      </trkpt>
      <trkpt lat="45.91601" lon="6.50699">
        <ele>2171.8000488281</ele>
        <time>2014-02-12T12:31:28.000Z</time>
      </trkpt>
      <trkpt lat="45.91601" lon="6.50699">
        <ele>2171.8000488281</ele>
        <time>2014-02-12T12:31:29.000Z</time>
      </trkpt>
      <trkpt lat="45.91601" lon="6.507">
        <ele>2172</ele>
        <time>2014-02-12T12:31:30.000Z</time>
      </trkpt>
      <trkpt lat="45.916" lon="6.507">
        <ele>2172</ele>
        <time>2014-02-12T12:31:31.000Z</time>
      </trkpt>
      <trkpt lat="45.91599" lon="6.507">
        <ele>2172.1999511719</ele>
        <time>2014-02-12T12:31:32.000Z</time>
      </trkpt>
      <trkpt lat="45.91599" lon="6.507">
        <ele>2172.1999511719</ele>
        <time>2014-02-12T12:31:33.000Z</time>
      </trkpt>
      <trkpt lat="45.91598" lon="6.50701">
        <ele>2172.3999023438</ele>
        <time>2014-02-12T12:31:34.000Z</time>
      </trkpt>
      <trkpt lat="45.91598" lon="6.50701">
        <ele>2172.1999511719</ele>
        <time>2014-02-12T12:31:35.000Z</time>
      </trkpt>
      <trkpt lat="45.91597" lon="6.50701">
        <ele>2172.1999511719</ele>
        <time>2014-02-12T12:31:36.000Z</time>
      </trkpt>
      <trkpt lat="45.91597" lon="6.50701">
        <ele>2172.1999511719</ele>
        <time>2014-02-12T12:31:37.000Z</time>
      </trkpt>
      <trkpt lat="45.91597" lon="6.50701">
        <ele>2172.3999023438</ele>
        <time>2014-02-12T12:31:38.000Z</time>
      </trkpt>
      <trkpt lat="45.91597" lon="6.50701">
        <ele>2172.3999023438</ele>
        <time>2014-02-12T12:31:39.000Z</time>
      </trkpt>
      <trkpt lat="45.91596" lon="6.50701">
        <ele>2172.3999023438</ele>
        <time>2014-02-12T12:31:40.000Z</time>
      </trkpt>
      <trkpt lat="45.91596" lon="6.50701">
        <ele>2172.3999023438</ele>
        <time>2014-02-12T12:31:41.000Z</time>
      </trkpt>
      <trkpt lat="45.91596" lon="6.50701">
        <ele>2172.3999023438</ele>
        <time>2014-02-12T12:31:42.000Z</time>
      </trkpt>
      <trkpt lat="45.91596" lon="6.50701">
        <ele>2172.3999023438</ele>
        <time>2014-02-12T12:31:43.000Z</time>
      </trkpt>
      <trkpt lat="45.91596" lon="6.50701">
        <ele>2172.3999023438</ele>
        <time>2014-02-12T12:31:44.000Z</time>
      </trkpt>
      <trkpt lat="45.91596" lon="6.50701">
        <ele>2172.3999023438</ele>
        <time>2014-02-12T12:31:45.000Z</time>
      </trkpt>
      <trkpt lat="45.91596" lon="6.50702">
        <ele>2172.8000488281</ele>
        <time>2014-02-12T12:31:46.000Z</time>
      </trkpt>
      <trkpt lat="45.91596" lon="6.50702">
        <ele>2172.8000488281</ele>
        <time>2014-02-12T12:31:47.000Z</time>
      </trkpt>
      <trkpt lat="45.91597" lon="6.50703">
        <ele>2173.3999023438</ele>
        <time>2014-02-12T12:31:48.000Z</time>
      </trkpt>
      <trkpt lat="45.91597" lon="6.50704">
        <ele>2173.8000488281</ele>
        <time>2014-02-12T12:31:49.000Z</time>
      </trkpt>
      <trkpt lat="45.91597" lon="6.50706">
        <ele>2174.6000976562</ele>
        <time>2014-02-12T12:31:51.000Z</time>
      </trkpt>
      <trkpt lat="45.91597" lon="6.50707">
        <ele>2175</ele>
        <time>2014-02-12T12:31:52.000Z</time>
      </trkpt>
      <trkpt lat="45.91597" lon="6.50709">
        <ele>2175.6000976562</ele>
        <time>2014-02-12T12:31:53.000Z</time>
      </trkpt>
      <trkpt lat="45.91597" lon="6.50709">
        <ele>2175.6000976562</ele>
        <time>2014-02-12T12:31:54.000Z</time>
      </trkpt>
      <trkpt lat="45.91598" lon="6.5071">
        <ele>2176</ele>
        <time>2014-02-12T12:31:55.000Z</time>
      </trkpt>
      <trkpt lat="45.91598" lon="6.5071">
        <ele>2176</ele>
        <time>2014-02-12T12:31:56.000Z</time>
      </trkpt>
      <trkpt lat="45.91598" lon="6.5071">
        <ele>2176.3999023438</ele>
        <time>2014-02-12T12:31:57.000Z</time>
      </trkpt>
      <trkpt lat="45.91598" lon="6.50712">
        <ele>2177</ele>
        <time>2014-02-12T12:31:58.000Z</time>
      </trkpt>
      <trkpt lat="45.91599" lon="6.50713">
        <ele>2177.6000976562</ele>
        <time>2014-02-12T12:31:59.000Z</time>
      </trkpt>
      <trkpt lat="45.91599" lon="6.50715">
        <ele>2178.3999023438</ele>
        <time>2014-02-12T12:32:00.000Z</time>
      </trkpt>
      <trkpt lat="45.91599" lon="6.50715">
        <ele>2178.6000976562</ele>
        <time>2014-02-12T12:32:01.000Z</time>
      </trkpt>
      <trkpt lat="45.91599" lon="6.50715">
        <ele>2178.6000976562</ele>
        <time>2014-02-12T12:32:02.000Z</time>
      </trkpt>
      <trkpt lat="45.91599" lon="6.50715">
        <ele>2178.6000976562</ele>
        <time>2014-02-12T12:32:03.000Z</time>
      </trkpt>
      <trkpt lat="45.91599" lon="6.50717">
        <ele>2179.3999023438</ele>
        <time>2014-02-12T12:32:04.000Z</time>
      </trkpt>
      <trkpt lat="45.91599" lon="6.50718">
        <ele>2180</ele>
        <time>2014-02-12T12:32:05.000Z</time>
      </trkpt>
      <trkpt lat="45.91599" lon="6.5072">
        <ele>2180.6000976562</ele>
        <time>2014-02-12T12:32:06.000Z</time>
      </trkpt>
      <trkpt lat="45.91599" lon="6.50721">
        <ele>2181.3999023438</ele>
        <time>2014-02-12T12:32:07.000Z</time>
      </trkpt>
      <trkpt lat="45.916" lon="6.50723">
        <ele>2182</ele>
        <time>2014-02-12T12:32:08.000Z</time>
      </trkpt>
      <trkpt lat="45.916" lon="6.50723">
        <ele>2182</ele>
        <time>2014-02-12T12:32:09.000Z</time>
      </trkpt>
      <trkpt lat="45.916" lon="6.50723">
        <ele>2182</ele>
        <time>2014-02-12T12:32:10.000Z</time>
      </trkpt>
      <trkpt lat="45.916" lon="6.50723">
        <ele>2182</ele>
        <time>2014-02-12T12:32:11.000Z</time>
      </trkpt>
      <trkpt lat="45.916" lon="6.50723">
        <ele>2182</ele>
        <time>2014-02-12T12:32:12.000Z</time>
      </trkpt>
      <trkpt lat="45.916" lon="6.50723">
        <ele>2182</ele>
        <time>2014-02-12T12:32:13.000Z</time>
      </trkpt>
      <trkpt lat="45.916" lon="6.50723">
        <ele>2182</ele>
        <time>2014-02-12T12:32:14.000Z</time>
      </trkpt>
      <trkpt lat="45.916" lon="6.50723">
        <ele>2182</ele>
        <time>2014-02-12T12:32:15.000Z</time>
      </trkpt>
      <trkpt lat="45.916" lon="6.50723">
        <ele>2182</ele>
        <time>2014-02-12T12:32:16.000Z</time>
      </trkpt>
      <trkpt lat="45.916" lon="6.50723">
        <ele>2182</ele>
        <time>2014-02-12T12:32:17.000Z</time>
      </trkpt>
      <trkpt lat="45.916" lon="6.50723">
        <ele>2182</ele>
        <time>2014-02-12T12:32:18.000Z</time>
      </trkpt>
      <trkpt lat="45.916" lon="6.50723">
        <ele>2182.1999511719</ele>
        <time>2014-02-12T12:32:19.000Z</time>
      </trkpt>
      <trkpt lat="45.916" lon="6.50723">
        <ele>2182.1999511719</ele>
        <time>2014-02-12T12:32:20.000Z</time>
      </trkpt>
      <trkpt lat="45.916" lon="6.50724">
        <ele>2182.6000976562</ele>
        <time>2014-02-12T12:32:21.000Z</time>
      </trkpt>
      <trkpt lat="45.916" lon="6.50724">
        <ele>2182.6000976562</ele>
        <time>2014-02-12T12:32:22.000Z</time>
      </trkpt>
      <trkpt lat="45.916" lon="6.50724">
        <ele>2182.6000976562</ele>
        <time>2014-02-12T12:32:23.000Z</time>
      </trkpt>
      <trkpt lat="45.916" lon="6.50724">
        <ele>2182.6000976562</ele>
        <time>2014-02-12T12:32:24.000Z</time>
      </trkpt>
      <trkpt lat="45.916" lon="6.50724">
        <ele>2182.6000976562</ele>
        <time>2014-02-12T12:32:25.000Z</time>
      </trkpt>
      <trkpt lat="45.916" lon="6.50725">
        <ele>2183</ele>
        <time>2014-02-12T12:32:26.000Z</time>
      </trkpt>
      <trkpt lat="45.916" lon="6.50725">
        <ele>2183</ele>
        <time>2014-02-12T12:32:27.000Z</time>
      </trkpt>
      <trkpt lat="45.91601" lon="6.50727">
        <ele>2183.6000976562</ele>
        <time>2014-02-12T12:32:28.000Z</time>
      </trkpt>
      <trkpt lat="45.91601" lon="6.50727">
        <ele>2183.6000976562</ele>
        <time>2014-02-12T12:32:29.000Z</time>
      </trkpt>
      <trkpt lat="45.91601" lon="6.50728">
        <ele>2184.1999511719</ele>
        <time>2014-02-12T12:32:30.000Z</time>
      </trkpt>
      <trkpt lat="45.91601" lon="6.50728">
        <ele>2184.1999511719</ele>
        <time>2014-02-12T12:32:31.000Z</time>
      </trkpt>
      <trkpt lat="45.91601" lon="6.50728">
        <ele>2184.1999511719</ele>
        <time>2014-02-12T12:32:32.000Z</time>
      </trkpt>
      <trkpt lat="45.91601" lon="6.50728">
        <ele>2184.1999511719</ele>
        <time>2014-02-12T12:32:33.000Z</time>
      </trkpt>
      <trkpt lat="45.91601" lon="6.50728">
        <ele>2184.1999511719</ele>
        <time>2014-02-12T12:32:34.000Z</time>
      </trkpt>
      <trkpt lat="45.91601" lon="6.50728">
        <ele>2184.3999023438</ele>
        <time>2014-02-12T12:32:35.000Z</time>
      </trkpt>
      <trkpt lat="45.91599" lon="6.50732">
        <ele>2185.8000488281</ele>
        <time>2014-02-12T12:32:38.000Z</time>
      </trkpt>
      <trkpt lat="45.91599" lon="6.50734">
        <ele>2186.8000488281</ele>
        <time>2014-02-12T12:32:39.000Z</time>
      </trkpt>
      <trkpt lat="45.91599" lon="6.50735">
        <ele>2187.3999023438</ele>
        <time>2014-02-12T12:32:40.000Z</time>
      </trkpt>
      <trkpt lat="45.91599" lon="6.50735">
        <ele>2187.3999023438</ele>
        <time>2014-02-12T12:32:41.000Z</time>
      </trkpt>
      <trkpt lat="45.91599" lon="6.50735">
        <ele>2187.3999023438</ele>
        <time>2014-02-12T12:32:42.000Z</time>
      </trkpt>
      <trkpt lat="45.91599" lon="6.50737">
        <ele>2188.3999023438</ele>
        <time>2014-02-12T12:32:43.000Z</time>
      </trkpt>
      <trkpt lat="45.91599" lon="6.50739">
        <ele>2189.3999023438</ele>
        <time>2014-02-12T12:32:44.000Z</time>
      </trkpt>
      <trkpt lat="45.91599" lon="6.50741">
        <ele>2190.1999511719</ele>
        <time>2014-02-12T12:32:45.000Z</time>
      </trkpt>
      <trkpt lat="45.91598" lon="6.50742">
        <ele>2191</ele>
        <time>2014-02-12T12:32:46.000Z</time>
      </trkpt>
      <trkpt lat="45.91598" lon="6.50745">
        <ele>2192.1999511719</ele>
        <time>2014-02-12T12:32:47.000Z</time>
      </trkpt>
      <trkpt lat="45.91598" lon="6.50746">
        <ele>2193</ele>
        <time>2014-02-12T12:32:48.000Z</time>
      </trkpt>
      <trkpt lat="45.91597" lon="6.50749">
        <ele>2194.1999511719</ele>
        <time>2014-02-12T12:32:49.000Z</time>
      </trkpt>
      <trkpt lat="45.91597" lon="6.50751">
        <ele>2195.1999511719</ele>
        <time>2014-02-12T12:32:50.000Z</time>
      </trkpt>
      <trkpt lat="45.91597" lon="6.50752">
        <ele>2195.8000488281</ele>
        <time>2014-02-12T12:32:51.000Z</time>
      </trkpt>
      <trkpt lat="45.91596" lon="6.50752">
        <ele>2196</ele>
        <time>2014-02-12T12:32:52.000Z</time>
      </trkpt>
      <trkpt lat="45.91596" lon="6.50753">
        <ele>2196.6000976562</ele>
        <time>2014-02-12T12:32:53.000Z</time>
      </trkpt>
      <trkpt lat="45.91596" lon="6.50754">
        <ele>2196.8000488281</ele>
        <time>2014-02-12T12:32:54.000Z</time>
      </trkpt>
      <trkpt lat="45.91596" lon="6.50755">
        <ele>2197.1999511719</ele>
        <time>2014-02-12T12:32:55.000Z</time>
      </trkpt>
      <trkpt lat="45.91595" lon="6.50756">
        <ele>2197.8000488281</ele>
        <time>2014-02-12T12:32:56.000Z</time>
      </trkpt>
      <trkpt lat="45.91595" lon="6.50757">
        <ele>2198.3999023438</ele>
        <time>2014-02-12T12:32:57.000Z</time>
      </trkpt>
      <trkpt lat="45.91595" lon="6.50757">
        <ele>2198.3999023438</ele>
        <time>2014-02-12T12:32:58.000Z</time>
      </trkpt>
      <trkpt lat="45.91594" lon="6.50759">
        <ele>2199.1999511719</ele>
        <time>2014-02-12T12:32:59.000Z</time>
      </trkpt>
      <trkpt lat="45.91594" lon="6.50761">
        <ele>2200</ele>
        <time>2014-02-12T12:33:00.000Z</time>
      </trkpt>
      <trkpt lat="45.91594" lon="6.50761">
        <ele>2200.3999023438</ele>
        <time>2014-02-12T12:33:01.000Z</time>
      </trkpt>
      <trkpt lat="45.91594" lon="6.50762">
        <ele>2200.8000488281</ele>
        <time>2014-02-12T12:33:02.000Z</time>
      </trkpt>
      <trkpt lat="45.91594" lon="6.50762">
        <ele>2201</ele>
        <time>2014-02-12T12:33:03.000Z</time>
      </trkpt>
      <trkpt lat="45.91593" lon="6.50763">
        <ele>2201.1999511719</ele>
        <time>2014-02-12T12:33:04.000Z</time>
      </trkpt>
      <trkpt lat="45.91593" lon="6.50764">
        <ele>2201.6000976562</ele>
        <time>2014-02-12T12:33:05.000Z</time>
      </trkpt>
      <trkpt lat="45.91593" lon="6.50765">
        <ele>2202.3999023438</ele>
        <time>2014-02-12T12:33:06.000Z</time>
      </trkpt>
      <trkpt lat="45.91593" lon="6.50766">
        <ele>2203</ele>
        <time>2014-02-12T12:33:07.000Z</time>
      </trkpt>
      <trkpt lat="45.91593" lon="6.50766">
        <ele>2203</ele>
        <time>2014-02-12T12:33:08.000Z</time>
      </trkpt>
      <trkpt lat="45.91593" lon="6.50766">
        <ele>2203</ele>
        <time>2014-02-12T12:33:09.000Z</time>
      </trkpt>
      <trkpt lat="45.91593" lon="6.50766">
        <ele>2203</ele>
        <time>2014-02-12T12:33:10.000Z</time>
      </trkpt>
      <trkpt lat="45.91593" lon="6.50766">
        <ele>2203</ele>
        <time>2014-02-12T12:33:11.000Z</time>
      </trkpt>
      <trkpt lat="45.91593" lon="6.50766">
        <ele>2203</ele>
        <time>2014-02-12T12:33:12.000Z</time>
      </trkpt>
      <trkpt lat="45.91593" lon="6.50766">
        <ele>2203</ele>
        <time>2014-02-12T12:33:13.000Z</time>
      </trkpt>
      <trkpt lat="45.91593" lon="6.50766">
        <ele>2203</ele>
        <time>2014-02-12T12:33:14.000Z</time>
      </trkpt>
      <trkpt lat="45.91593" lon="6.50766">
        <ele>2203</ele>
        <time>2014-02-12T12:33:15.000Z</time>
      </trkpt>
      <trkpt lat="45.91592" lon="6.50768">
        <ele>2203.6000976562</ele>
        <time>2014-02-12T12:33:16.000Z</time>
      </trkpt>
      <trkpt lat="45.91592" lon="6.50769">
        <ele>2204.1999511719</ele>
        <time>2014-02-12T12:33:17.000Z</time>
      </trkpt>
      <trkpt lat="45.91591" lon="6.50771">
        <ele>2204.6000976562</ele>
        <time>2014-02-12T12:33:18.000Z</time>
      </trkpt>
      <trkpt lat="45.91591" lon="6.50771">
        <ele>2204.6000976562</ele>
        <time>2014-02-12T12:33:19.000Z</time>
      </trkpt>
      <trkpt lat="45.9159" lon="6.50772">
        <ele>2205.1999511719</ele>
        <time>2014-02-12T12:33:20.000Z</time>
      </trkpt>
      <trkpt lat="45.9159" lon="6.50772">
        <ele>2205.1999511719</ele>
        <time>2014-02-12T12:33:21.000Z</time>
      </trkpt>
      <trkpt lat="45.9159" lon="6.50772">
        <ele>2205.1999511719</ele>
        <time>2014-02-12T12:33:22.000Z</time>
      </trkpt>
      <trkpt lat="45.9159" lon="6.50772">
        <ele>2205.1999511719</ele>
        <time>2014-02-12T12:33:23.000Z</time>
      </trkpt>
      <trkpt lat="45.9159" lon="6.50772">
        <ele>2205.1999511719</ele>
        <time>2014-02-12T12:33:24.000Z</time>
      </trkpt>
      <trkpt lat="45.9159" lon="6.50773">
        <ele>2205.3999023438</ele>
        <time>2014-02-12T12:33:25.000Z</time>
      </trkpt>
      <trkpt lat="45.9159" lon="6.50773">
        <ele>2205.3999023438</ele>
        <time>2014-02-12T12:33:26.000Z</time>
      </trkpt>
      <trkpt lat="45.9159" lon="6.50775">
        <ele>2205.8000488281</ele>
        <time>2014-02-12T12:33:27.000Z</time>
      </trkpt>
      <trkpt lat="45.9159" lon="6.50775">
        <ele>2205.8000488281</ele>
        <time>2014-02-12T12:33:28.000Z</time>
      </trkpt>
      <trkpt lat="45.91589" lon="6.50775">
        <ele>2206</ele>
        <time>2014-02-12T12:33:29.000Z</time>
      </trkpt>
      <trkpt lat="45.91589" lon="6.50775">
        <ele>2206</ele>
        <time>2014-02-12T12:33:30.000Z</time>
      </trkpt>
      <trkpt lat="45.91589" lon="6.50775">
        <ele>2206</ele>
        <time>2014-02-12T12:33:31.000Z</time>
      </trkpt>
      <trkpt lat="45.91588" lon="6.50776">
        <ele>2206.1999511719</ele>
        <time>2014-02-12T12:33:32.000Z</time>
      </trkpt>
      <trkpt lat="45.91587" lon="6.50777">
        <ele>2206.3999023438</ele>
        <time>2014-02-12T12:33:33.000Z</time>
      </trkpt>
      <trkpt lat="45.91586" lon="6.50778">
        <ele>2206.6000976562</ele>
        <time>2014-02-12T12:33:34.000Z</time>
      </trkpt>
      <trkpt lat="45.91586" lon="6.5078">
        <ele>2207</ele>
        <time>2014-02-12T12:33:35.000Z</time>
      </trkpt>
      <trkpt lat="45.91585" lon="6.50782">
        <ele>2207.6000976562</ele>
        <time>2014-02-12T12:33:36.000Z</time>
      </trkpt>
      <trkpt lat="45.91585" lon="6.50783">
        <ele>2208.1999511719</ele>
        <time>2014-02-12T12:33:37.000Z</time>
      </trkpt>
      <trkpt lat="45.91584" lon="6.50785">
        <ele>2208.6000976562</ele>
        <time>2014-02-12T12:33:38.000Z</time>
      </trkpt>
      <trkpt lat="45.91584" lon="6.50786">
        <ele>2208.8000488281</ele>
        <time>2014-02-12T12:33:39.000Z</time>
      </trkpt>
      <trkpt lat="45.91583" lon="6.50787">
        <ele>2209</ele>
        <time>2014-02-12T12:33:40.000Z</time>
      </trkpt>
      <trkpt lat="45.91582" lon="6.50788">
        <ele>2209.3999023438</ele>
        <time>2014-02-12T12:33:41.000Z</time>
      </trkpt>
      <trkpt lat="45.91582" lon="6.50789">
        <ele>2209.6000976562</ele>
        <time>2014-02-12T12:33:42.000Z</time>
      </trkpt>
      <trkpt lat="45.91582" lon="6.5079">
        <ele>2210</ele>
        <time>2014-02-12T12:33:43.000Z</time>
      </trkpt>
      <trkpt lat="45.91582" lon="6.5079">
        <ele>2210</ele>
        <time>2014-02-12T12:33:44.000Z</time>
      </trkpt>
      <trkpt lat="45.91582" lon="6.5079">
        <ele>2210</ele>
        <time>2014-02-12T12:33:45.000Z</time>
      </trkpt>
      <trkpt lat="45.91581" lon="6.50791">
        <ele>2210</ele>
        <time>2014-02-12T12:33:46.000Z</time>
      </trkpt>
      <trkpt lat="45.9158" lon="6.50791">
        <ele>2210.1999511719</ele>
        <time>2014-02-12T12:33:47.000Z</time>
      </trkpt>
      <trkpt lat="45.9158" lon="6.50792">
        <ele>2210.6000976562</ele>
        <time>2014-02-12T12:33:48.000Z</time>
      </trkpt>
      <trkpt lat="45.9158" lon="6.50792">
        <ele>2210.6000976562</ele>
        <time>2014-02-12T12:33:49.000Z</time>
      </trkpt>
      <trkpt lat="45.9158" lon="6.50793">
        <ele>2210.6000976562</ele>
        <time>2014-02-12T12:33:50.000Z</time>
      </trkpt>
      <trkpt lat="45.9158" lon="6.50793">
        <ele>2210.6000976562</ele>
        <time>2014-02-12T12:33:51.000Z</time>
      </trkpt>
      <trkpt lat="45.91579" lon="6.50794">
        <ele>2211</ele>
        <time>2014-02-12T12:33:52.000Z</time>
      </trkpt>
      <trkpt lat="45.91579" lon="6.50795">
        <ele>2211.3999023438</ele>
        <time>2014-02-12T12:33:53.000Z</time>
      </trkpt>
      <trkpt lat="45.91578" lon="6.50796">
        <ele>2211.6000976562</ele>
        <time>2014-02-12T12:33:54.000Z</time>
      </trkpt>
      <trkpt lat="45.91578" lon="6.50797">
        <ele>2211.8000488281</ele>
        <time>2014-02-12T12:33:55.000Z</time>
      </trkpt>
      <trkpt lat="45.91578" lon="6.50797">
        <ele>2211.8000488281</ele>
        <time>2014-02-12T12:33:56.000Z</time>
      </trkpt>
      <trkpt lat="45.91578" lon="6.50798">
        <ele>2212</ele>
        <time>2014-02-12T12:33:57.000Z</time>
      </trkpt>
      <trkpt lat="45.91577" lon="6.50799">
        <ele>2212.3999023438</ele>
        <time>2014-02-12T12:33:58.000Z</time>
      </trkpt>
      <trkpt lat="45.91577" lon="6.50799">
        <ele>2212.6000976562</ele>
        <time>2014-02-12T12:33:59.000Z</time>
      </trkpt>
      <trkpt lat="45.91576" lon="6.50799">
        <ele>2212.1999511719</ele>
        <time>2014-02-12T12:34:00.000Z</time>
      </trkpt>
      <trkpt lat="45.91575" lon="6.50799">
        <ele>2212</ele>
        <time>2014-02-12T12:34:01.000Z</time>
      </trkpt>
      <trkpt lat="45.91575" lon="6.50799">
        <ele>2212</ele>
        <time>2014-02-12T12:34:02.000Z</time>
      </trkpt>
      <trkpt lat="45.91574" lon="6.508">
        <ele>2212</ele>
        <time>2014-02-12T12:34:03.000Z</time>
      </trkpt>
      <trkpt lat="45.91574" lon="6.508">
        <ele>2212</ele>
        <time>2014-02-12T12:34:04.000Z</time>
      </trkpt>
      <trkpt lat="45.91573" lon="6.508">
        <ele>2212</ele>
        <time>2014-02-12T12:34:05.000Z</time>
      </trkpt>
      <trkpt lat="45.91573" lon="6.508">
        <ele>2212.1999511719</ele>
        <time>2014-02-12T12:34:06.000Z</time>
      </trkpt>
      <trkpt lat="45.91573" lon="6.50801">
        <ele>2212.1999511719</ele>
        <time>2014-02-12T12:34:07.000Z</time>
      </trkpt>
      <trkpt lat="45.91572" lon="6.50802">
        <ele>2212.3999023438</ele>
        <time>2014-02-12T12:34:08.000Z</time>
      </trkpt>
      <trkpt lat="45.91572" lon="6.50802">
        <ele>2212.3999023438</ele>
        <time>2014-02-12T12:34:09.000Z</time>
      </trkpt>
      <trkpt lat="45.91572" lon="6.50802">
        <ele>2212.6000976562</ele>
        <time>2014-02-12T12:34:10.000Z</time>
      </trkpt>
      <trkpt lat="45.91572" lon="6.50802">
        <ele>2212.6000976562</ele>
        <time>2014-02-12T12:34:11.000Z</time>
      </trkpt>
      <trkpt lat="45.91571" lon="6.50803">
        <ele>2212.6000976562</ele>
        <time>2014-02-12T12:34:12.000Z</time>
      </trkpt>
      <trkpt lat="45.91571" lon="6.50803">
        <ele>2212.6000976562</ele>
        <time>2014-02-12T12:34:13.000Z</time>
      </trkpt>
      <trkpt lat="45.91571" lon="6.50803">
        <ele>2212.6000976562</ele>
        <time>2014-02-12T12:34:14.000Z</time>
      </trkpt>
      <trkpt lat="45.91571" lon="6.50803">
        <ele>2212.6000976562</ele>
        <time>2014-02-12T12:34:15.000Z</time>
      </trkpt>
      <trkpt lat="45.9157" lon="6.50804">
        <ele>2212.8000488281</ele>
        <time>2014-02-12T12:34:16.000Z</time>
      </trkpt>
      <trkpt lat="45.9157" lon="6.50804">
        <ele>2212.8000488281</ele>
        <time>2014-02-12T12:34:17.000Z</time>
      </trkpt>
      <trkpt lat="45.9157" lon="6.50804">
        <ele>2212.8000488281</ele>
        <time>2014-02-12T12:34:18.000Z</time>
      </trkpt>
      <trkpt lat="45.91569" lon="6.50805">
        <ele>2213</ele>
        <time>2014-02-12T12:34:19.000Z</time>
      </trkpt>
      <trkpt lat="45.91569" lon="6.50805">
        <ele>2213</ele>
        <time>2014-02-12T12:34:20.000Z</time>
      </trkpt>
      <trkpt lat="45.91569" lon="6.50805">
        <ele>2213</ele>
        <time>2014-02-12T12:34:21.000Z</time>
      </trkpt>
      <trkpt lat="45.91569" lon="6.50805">
        <ele>2213</ele>
        <time>2014-02-12T12:34:22.000Z</time>
      </trkpt>
      <trkpt lat="45.91569" lon="6.50806">
        <ele>2213.3999023438</ele>
        <time>2014-02-12T12:34:23.000Z</time>
      </trkpt>
      <trkpt lat="45.91569" lon="6.50806">
        <ele>2213.3999023438</ele>
        <time>2014-02-12T12:34:24.000Z</time>
      </trkpt>
      <trkpt lat="45.91567" lon="6.50807">
        <ele>2213.3999023438</ele>
        <time>2014-02-12T12:34:25.000Z</time>
      </trkpt>
      <trkpt lat="45.91567" lon="6.50807">
        <ele>2213.3999023438</ele>
        <time>2014-02-12T12:34:26.000Z</time>
      </trkpt>
      <trkpt lat="45.91566" lon="6.50809">
        <ele>2214</ele>
        <time>2014-02-12T12:34:27.000Z</time>
      </trkpt>
      <trkpt lat="45.91566" lon="6.5081">
        <ele>2214.3999023438</ele>
        <time>2014-02-12T12:34:28.000Z</time>
      </trkpt>
      <trkpt lat="45.91565" lon="6.50812">
        <ele>2214.8000488281</ele>
        <time>2014-02-12T12:34:29.000Z</time>
      </trkpt>
      <trkpt lat="45.91564" lon="6.50813">
        <ele>2215</ele>
        <time>2014-02-12T12:34:30.000Z</time>
      </trkpt>
      <trkpt lat="45.91564" lon="6.50813">
        <ele>2215</ele>
        <time>2014-02-12T12:34:31.000Z</time>
      </trkpt>
      <trkpt lat="45.91564" lon="6.50814">
        <ele>2215.1999511719</ele>
        <time>2014-02-12T12:34:32.000Z</time>
      </trkpt>
      <trkpt lat="45.91564" lon="6.50814">
        <ele>2215.1999511719</ele>
        <time>2014-02-12T12:34:33.000Z</time>
      </trkpt>
      <trkpt lat="45.91563" lon="6.50814">
        <ele>2215.1999511719</ele>
        <time>2014-02-12T12:34:34.000Z</time>
      </trkpt>
      <trkpt lat="45.91563" lon="6.50814">
        <ele>2215.1999511719</ele>
        <time>2014-02-12T12:34:35.000Z</time>
      </trkpt>
      <trkpt lat="45.91562" lon="6.50815">
        <ele>2215.3999023438</ele>
        <time>2014-02-12T12:34:36.000Z</time>
      </trkpt>
      <trkpt lat="45.91562" lon="6.50816">
        <ele>2215.8000488281</ele>
        <time>2014-02-12T12:34:37.000Z</time>
      </trkpt>
      <trkpt lat="45.91561" lon="6.50817">
        <ele>2216</ele>
        <time>2014-02-12T12:34:38.000Z</time>
      </trkpt>
      <trkpt lat="45.91561" lon="6.50818">
        <ele>2216.8000488281</ele>
        <time>2014-02-12T12:34:39.000Z</time>
      </trkpt>
      <trkpt lat="45.91561" lon="6.50818">
        <ele>2216.8000488281</ele>
        <time>2014-02-12T12:34:40.000Z</time>
      </trkpt>
      <trkpt lat="45.91561" lon="6.50819">
        <ele>2217.3999023438</ele>
        <time>2014-02-12T12:34:41.000Z</time>
      </trkpt>
      <trkpt lat="45.91561" lon="6.50819">
        <ele>2217.3999023438</ele>
        <time>2014-02-12T12:34:42.000Z</time>
      </trkpt>
      <trkpt lat="45.9156" lon="6.5082">
        <ele>2218.1999511719</ele>
        <time>2014-02-12T12:34:43.000Z</time>
      </trkpt>
      <trkpt lat="45.9156" lon="6.50821">
        <ele>2218.6000976562</ele>
        <time>2014-02-12T12:34:44.000Z</time>
      </trkpt>
      <trkpt lat="45.9156" lon="6.50823">
        <ele>2219</ele>
        <time>2014-02-12T12:34:45.000Z</time>
      </trkpt>
      <trkpt lat="45.91559" lon="6.50823">
        <ele>2219.1999511719</ele>
        <time>2014-02-12T12:34:46.000Z</time>
      </trkpt>
      <trkpt lat="45.91559" lon="6.50824">
        <ele>2219.3999023438</ele>
        <time>2014-02-12T12:34:47.000Z</time>
      </trkpt>
      <trkpt lat="45.91558" lon="6.50825">
        <ele>2219.1999511719</ele>
        <time>2014-02-12T12:34:48.000Z</time>
      </trkpt>
      <trkpt lat="45.91557" lon="6.50826">
        <ele>2219.3999023438</ele>
        <time>2014-02-12T12:34:49.000Z</time>
      </trkpt>
      <trkpt lat="45.91556" lon="6.50827">
        <ele>2220</ele>
        <time>2014-02-12T12:34:50.000Z</time>
      </trkpt>
      <trkpt lat="45.91556" lon="6.50828">
        <ele>2220.6000976562</ele>
        <time>2014-02-12T12:34:51.000Z</time>
      </trkpt>
      <trkpt lat="45.91555" lon="6.5083">
        <ele>2221.3999023438</ele>
        <time>2014-02-12T12:34:52.000Z</time>
      </trkpt>
      <trkpt lat="45.91555" lon="6.50831">
        <ele>2222</ele>
        <time>2014-02-12T12:34:53.000Z</time>
      </trkpt>
      <trkpt lat="45.91554" lon="6.50831">
        <ele>2222.1999511719</ele>
        <time>2014-02-12T12:34:54.000Z</time>
      </trkpt>
      <trkpt lat="45.91554" lon="6.50832">
        <ele>2222.6000976562</ele>
        <time>2014-02-12T12:34:55.000Z</time>
      </trkpt>
      <trkpt lat="45.91553" lon="6.50832">
        <ele>2222.8000488281</ele>
        <time>2014-02-12T12:34:56.000Z</time>
      </trkpt>
      <trkpt lat="45.91553" lon="6.50832">
        <ele>2222.8000488281</ele>
        <time>2014-02-12T12:34:57.000Z</time>
      </trkpt>
      <trkpt lat="45.91553" lon="6.50832">
        <ele>2222.8000488281</ele>
        <time>2014-02-12T12:34:58.000Z</time>
      </trkpt>
      <trkpt lat="45.91553" lon="6.50832">
        <ele>2222.8000488281</ele>
        <time>2014-02-12T12:34:59.000Z</time>
      </trkpt>
      <trkpt lat="45.91553" lon="6.50833">
        <ele>2223</ele>
        <time>2014-02-12T12:35:00.000Z</time>
      </trkpt>
      <trkpt lat="45.91552" lon="6.50833">
        <ele>2223.6000976562</ele>
        <time>2014-02-12T12:35:01.000Z</time>
      </trkpt>
      <trkpt lat="45.91552" lon="6.50834">
        <ele>2224</ele>
        <time>2014-02-12T12:35:02.000Z</time>
      </trkpt>
      <trkpt lat="45.91552" lon="6.50834">
        <ele>2224</ele>
        <time>2014-02-12T12:35:03.000Z</time>
      </trkpt>
      <trkpt lat="45.91552" lon="6.50834">
        <ele>2224</ele>
        <time>2014-02-12T12:35:04.000Z</time>
      </trkpt>
      <trkpt lat="45.91552" lon="6.50835">
        <ele>2224.6000976562</ele>
        <time>2014-02-12T12:35:05.000Z</time>
      </trkpt>
      <trkpt lat="45.91552" lon="6.50835">
        <ele>2224.6000976562</ele>
        <time>2014-02-12T12:35:06.000Z</time>
      </trkpt>
      <trkpt lat="45.91551" lon="6.50836">
        <ele>2225</ele>
        <time>2014-02-12T12:35:07.000Z</time>
      </trkpt>
      <trkpt lat="45.91551" lon="6.50836">
        <ele>2225</ele>
        <time>2014-02-12T12:35:08.000Z</time>
      </trkpt>
      <trkpt lat="45.9155" lon="6.50837">
        <ele>2225.1999511719</ele>
        <time>2014-02-12T12:35:09.000Z</time>
      </trkpt>
      <trkpt lat="45.91549" lon="6.50837">
        <ele>2225.6000976562</ele>
        <time>2014-02-12T12:35:10.000Z</time>
      </trkpt>
      <trkpt lat="45.91549" lon="6.50837">
        <ele>2225.6000976562</ele>
        <time>2014-02-12T12:35:11.000Z</time>
      </trkpt>
      <trkpt lat="45.91548" lon="6.50838">
        <ele>2226.1999511719</ele>
        <time>2014-02-12T12:35:12.000Z</time>
      </trkpt>
      <trkpt lat="45.91548" lon="6.50839">
        <ele>2226.8000488281</ele>
        <time>2014-02-12T12:35:13.000Z</time>
      </trkpt>
      <trkpt lat="45.91547" lon="6.5084">
        <ele>2227.1999511719</ele>
        <time>2014-02-12T12:35:14.000Z</time>
      </trkpt>
      <trkpt lat="45.91546" lon="6.50841">
        <ele>2227.6000976562</ele>
        <time>2014-02-12T12:35:15.000Z</time>
      </trkpt>
      <trkpt lat="45.91546" lon="6.50842">
        <ele>2228</ele>
        <time>2014-02-12T12:35:16.000Z</time>
      </trkpt>
      <trkpt lat="45.91545" lon="6.50842">
        <ele>2228.3999023438</ele>
        <time>2014-02-12T12:35:17.000Z</time>
      </trkpt>
      <trkpt lat="45.91545" lon="6.50843">
        <ele>2229</ele>
        <time>2014-02-12T12:35:18.000Z</time>
      </trkpt>
      <trkpt lat="45.91545" lon="6.50844">
        <ele>2229.6000976562</ele>
        <time>2014-02-12T12:35:19.000Z</time>
      </trkpt>
      <trkpt lat="45.91545" lon="6.50845">
        <ele>2230</ele>
        <time>2014-02-12T12:35:20.000Z</time>
      </trkpt>
      <trkpt lat="45.91544" lon="6.50846">
        <ele>2230.1999511719</ele>
        <time>2014-02-12T12:35:21.000Z</time>
      </trkpt>
      <trkpt lat="45.91544" lon="6.50846">
        <ele>2230.6000976562</ele>
        <time>2014-02-12T12:35:22.000Z</time>
      </trkpt>
      <trkpt lat="45.91543" lon="6.50847">
        <ele>2231</ele>
        <time>2014-02-12T12:35:23.000Z</time>
      </trkpt>
      <trkpt lat="45.91543" lon="6.50848">
        <ele>2231.1999511719</ele>
        <time>2014-02-12T12:35:24.000Z</time>
      </trkpt>
      <trkpt lat="45.91543" lon="6.50848">
        <ele>2231.8000488281</ele>
        <time>2014-02-12T12:35:25.000Z</time>
      </trkpt>
      <trkpt lat="45.91542" lon="6.50849">
        <ele>2232.1999511719</ele>
        <time>2014-02-12T12:35:26.000Z</time>
      </trkpt>
      <trkpt lat="45.91542" lon="6.5085">
        <ele>2232.6000976562</ele>
        <time>2014-02-12T12:35:27.000Z</time>
      </trkpt>
      <trkpt lat="45.91542" lon="6.50851">
        <ele>2233.1999511719</ele>
        <time>2014-02-12T12:35:28.000Z</time>
      </trkpt>
      <trkpt lat="45.91541" lon="6.50852">
        <ele>2233.6000976562</ele>
        <time>2014-02-12T12:35:29.000Z</time>
      </trkpt>
      <trkpt lat="45.91541" lon="6.50852">
        <ele>2233.6000976562</ele>
        <time>2014-02-12T12:35:30.000Z</time>
      </trkpt>
      <trkpt lat="45.91541" lon="6.50852">
        <ele>2233.8000488281</ele>
        <time>2014-02-12T12:35:31.000Z</time>
      </trkpt>
      <trkpt lat="45.91541" lon="6.50852">
        <ele>2233.8000488281</ele>
        <time>2014-02-12T12:35:32.000Z</time>
      </trkpt>
      <trkpt lat="45.91541" lon="6.50852">
        <ele>2233.8000488281</ele>
        <time>2014-02-12T12:35:33.000Z</time>
      </trkpt>
      <trkpt lat="45.91541" lon="6.50853">
        <ele>2234.3999023438</ele>
        <time>2014-02-12T12:35:34.000Z</time>
      </trkpt>
      <trkpt lat="45.91541" lon="6.50853">
        <ele>2234.3999023438</ele>
        <time>2014-02-12T12:35:35.000Z</time>
      </trkpt>
      <trkpt lat="45.9154" lon="6.50854">
        <ele>2234.8000488281</ele>
        <time>2014-02-12T12:35:36.000Z</time>
      </trkpt>
      <trkpt lat="45.9154" lon="6.50854">
        <ele>2234.8000488281</ele>
        <time>2014-02-12T12:35:37.000Z</time>
      </trkpt>
      <trkpt lat="45.9154" lon="6.50855">
        <ele>2235.3999023438</ele>
        <time>2014-02-12T12:35:38.000Z</time>
      </trkpt>
      <trkpt lat="45.9154" lon="6.50857">
        <ele>2236</ele>
        <time>2014-02-12T12:35:39.000Z</time>
      </trkpt>
      <trkpt lat="45.91539" lon="6.50858">
        <ele>2236.6000976562</ele>
        <time>2014-02-12T12:35:40.000Z</time>
      </trkpt>
      <trkpt lat="45.91539" lon="6.50859">
        <ele>2237.1999511719</ele>
        <time>2014-02-12T12:35:41.000Z</time>
      </trkpt>
      <trkpt lat="45.91539" lon="6.5086">
        <ele>2237.6000976562</ele>
        <time>2014-02-12T12:35:42.000Z</time>
      </trkpt>
      <trkpt lat="45.91538" lon="6.5086">
        <ele>2238</ele>
        <time>2014-02-12T12:35:43.000Z</time>
      </trkpt>
      <trkpt lat="45.91537" lon="6.50861">
        <ele>2238.3999023438</ele>
        <time>2014-02-12T12:35:44.000Z</time>
      </trkpt>
      <trkpt lat="45.91537" lon="6.50862">
        <ele>2238.8000488281</ele>
        <time>2014-02-12T12:35:45.000Z</time>
      </trkpt>
      <trkpt lat="45.91536" lon="6.50862">
        <ele>2239</ele>
        <time>2014-02-12T12:35:46.000Z</time>
      </trkpt>
      <trkpt lat="45.91536" lon="6.50862">
        <ele>2239.1999511719</ele>
        <time>2014-02-12T12:35:47.000Z</time>
      </trkpt>
      <trkpt lat="45.91536" lon="6.50863">
        <ele>2239.1999511719</ele>
        <time>2014-02-12T12:35:48.000Z</time>
      </trkpt>
      <trkpt lat="45.91536" lon="6.50863">
        <ele>2239.1999511719</ele>
        <time>2014-02-12T12:35:49.000Z</time>
      </trkpt>
      <trkpt lat="45.91536" lon="6.50863">
        <ele>2239.1999511719</ele>
        <time>2014-02-12T12:35:50.000Z</time>
      </trkpt>
      <trkpt lat="45.91536" lon="6.50863">
        <ele>2239.1999511719</ele>
        <time>2014-02-12T12:35:51.000Z</time>
      </trkpt>
      <trkpt lat="45.91536" lon="6.50863">
        <ele>2239.1999511719</ele>
        <time>2014-02-12T12:35:52.000Z</time>
      </trkpt>
      <trkpt lat="45.91536" lon="6.50863">
        <ele>2239.1999511719</ele>
        <time>2014-02-12T12:35:53.000Z</time>
      </trkpt>
      <trkpt lat="45.91536" lon="6.50863">
        <ele>2239.1999511719</ele>
        <time>2014-02-12T12:35:54.000Z</time>
      </trkpt>
      <trkpt lat="45.91536" lon="6.50863">
        <ele>2239.1999511719</ele>
        <time>2014-02-12T12:35:55.000Z</time>
      </trkpt>
      <trkpt lat="45.91536" lon="6.50863">
        <ele>2239.1999511719</ele>
        <time>2014-02-12T12:35:56.000Z</time>
      </trkpt>
      <trkpt lat="45.91536" lon="6.50863">
        <ele>2239.1999511719</ele>
        <time>2014-02-12T12:35:57.000Z</time>
      </trkpt>
      <trkpt lat="45.91536" lon="6.50863">
        <ele>2239.1999511719</ele>
        <time>2014-02-12T12:35:58.000Z</time>
      </trkpt>
      <trkpt lat="45.91536" lon="6.50863">
        <ele>2239.1999511719</ele>
        <time>2014-02-12T12:35:59.000Z</time>
      </trkpt>
      <trkpt lat="45.91536" lon="6.50863">
        <ele>2239.1999511719</ele>
        <time>2014-02-12T12:36:00.000Z</time>
      </trkpt>
      <trkpt lat="45.91536" lon="6.50863">
        <ele>2239.1999511719</ele>
        <time>2014-02-12T12:36:01.000Z</time>
      </trkpt>
      <trkpt lat="45.91536" lon="6.50863">
        <ele>2239.1999511719</ele>
        <time>2014-02-12T12:36:02.000Z</time>
      </trkpt>
      <trkpt lat="45.91536" lon="6.50863">
        <ele>2239.1999511719</ele>
        <time>2014-02-12T12:36:03.000Z</time>
      </trkpt>
      <trkpt lat="45.91536" lon="6.50863">
        <ele>2239.1999511719</ele>
        <time>2014-02-12T12:36:04.000Z</time>
      </trkpt>
      <trkpt lat="45.91536" lon="6.50863">
        <ele>2239.1999511719</ele>
        <time>2014-02-12T12:36:05.000Z</time>
      </trkpt>
      <trkpt lat="45.91536" lon="6.50863">
        <ele>2239.1999511719</ele>
        <time>2014-02-12T12:36:06.000Z</time>
      </trkpt>
      <trkpt lat="45.91536" lon="6.50863">
        <ele>2239.1999511719</ele>
        <time>2014-02-12T12:36:07.000Z</time>
      </trkpt>
      <trkpt lat="45.91536" lon="6.50863">
        <ele>2239.1999511719</ele>
        <time>2014-02-12T12:36:08.000Z</time>
      </trkpt>
      <trkpt lat="45.91536" lon="6.50863">
        <ele>2239.1999511719</ele>
        <time>2014-02-12T12:36:09.000Z</time>
      </trkpt>
      <trkpt lat="45.91536" lon="6.50863">
        <ele>2239.1999511719</ele>
        <time>2014-02-12T12:36:10.000Z</time>
      </trkpt>
      <trkpt lat="45.91536" lon="6.50863">
        <ele>2239.1999511719</ele>
        <time>2014-02-12T12:36:11.000Z</time>
      </trkpt>
      <trkpt lat="45.91536" lon="6.50863">
        <ele>2239.1999511719</ele>
        <time>2014-02-12T12:36:12.000Z</time>
      </trkpt>
      <trkpt lat="45.91536" lon="6.50863">
        <ele>2239.1999511719</ele>
        <time>2014-02-12T12:36:13.000Z</time>
      </trkpt>
      <trkpt lat="45.91536" lon="6.50863">
        <ele>2239.1999511719</ele>
        <time>2014-02-12T12:36:14.000Z</time>
      </trkpt>
      <trkpt lat="45.91536" lon="6.50863">
        <ele>2239.1999511719</ele>
        <time>2014-02-12T12:36:15.000Z</time>
      </trkpt>
      <trkpt lat="45.91536" lon="6.50863">
        <ele>2239.1999511719</ele>
        <time>2014-02-12T12:36:17.000Z</time>
      </trkpt>
      <trkpt lat="45.91536" lon="6.50863">
        <ele>2239.1999511719</ele>
        <time>2014-02-12T12:36:18.000Z</time>
      </trkpt>
      <trkpt lat="45.91536" lon="6.50863">
        <ele>2239.1999511719</ele>
        <time>2014-02-12T12:36:19.000Z</time>
      </trkpt>
      <trkpt lat="45.91536" lon="6.50863">
        <ele>2239.1999511719</ele>
        <time>2014-02-12T12:36:20.000Z</time>
      </trkpt>
      <trkpt lat="45.91536" lon="6.50863">
        <ele>2239.1999511719</ele>
        <time>2014-02-12T12:36:21.000Z</time>
      </trkpt>
      <trkpt lat="45.91536" lon="6.50863">
        <ele>2239.1999511719</ele>
        <time>2014-02-12T12:36:22.000Z</time>
      </trkpt>
      <trkpt lat="45.91536" lon="6.50863">
        <ele>2239.1999511719</ele>
        <time>2014-02-12T12:36:23.000Z</time>
      </trkpt>
      <trkpt lat="45.91536" lon="6.50863">
        <ele>2239.1999511719</ele>
        <time>2014-02-12T12:36:24.000Z</time>
      </trkpt>
      <trkpt lat="45.91536" lon="6.50863">
        <ele>2239.1999511719</ele>
        <time>2014-02-12T12:36:25.000Z</time>
      </trkpt>
      <trkpt lat="45.91536" lon="6.50863">
        <ele>2239.1999511719</ele>
        <time>2014-02-12T12:36:26.000Z</time>
      </trkpt>
      <trkpt lat="45.91536" lon="6.50863">
        <ele>2239.1999511719</ele>
        <time>2014-02-12T12:36:27.000Z</time>
      </trkpt>
      <trkpt lat="45.91535" lon="6.50862">
        <ele>2239.1999511719</ele>
        <time>2014-02-12T12:36:29.000Z</time>
      </trkpt>
      <trkpt lat="45.91535" lon="6.50862">
        <ele>2239.1999511719</ele>
        <time>2014-02-12T12:36:30.000Z</time>
      </trkpt>
      <trkpt lat="45.91535" lon="6.50862">
        <ele>2239.1999511719</ele>
        <time>2014-02-12T12:36:31.000Z</time>
      </trkpt>
      <trkpt lat="45.91535" lon="6.50862">
        <ele>2239.1999511719</ele>
        <time>2014-02-12T12:36:32.000Z</time>
      </trkpt>
      <trkpt lat="45.91535" lon="6.50862">
        <ele>2239.1999511719</ele>
        <time>2014-02-12T12:36:33.000Z</time>
      </trkpt>
      <trkpt lat="45.91535" lon="6.50862">
        <ele>2239.1999511719</ele>
        <time>2014-02-12T12:36:34.000Z</time>
      </trkpt>
      <trkpt lat="45.91535" lon="6.50862">
        <ele>2239.1999511719</ele>
        <time>2014-02-12T12:36:35.000Z</time>
      </trkpt>
      <trkpt lat="45.91535" lon="6.50862">
        <ele>2239.1999511719</ele>
        <time>2014-02-12T12:36:36.000Z</time>
      </trkpt>
      <trkpt lat="45.91535" lon="6.50862">
        <ele>2239.1999511719</ele>
        <time>2014-02-12T12:36:37.000Z</time>
      </trkpt>
      <trkpt lat="45.91535" lon="6.50862">
        <ele>2239.1999511719</ele>
        <time>2014-02-12T12:36:38.000Z</time>
      </trkpt>
      <trkpt lat="45.91535" lon="6.50862">
        <ele>2239.1999511719</ele>
        <time>2014-02-12T12:36:39.000Z</time>
      </trkpt>
      <trkpt lat="45.91535" lon="6.50862">
        <ele>2239.1999511719</ele>
        <time>2014-02-12T12:36:40.000Z</time>
      </trkpt>
      <trkpt lat="45.91535" lon="6.50862">
        <ele>2239.1999511719</ele>
        <time>2014-02-12T12:36:41.000Z</time>
      </trkpt>
      <trkpt lat="45.91535" lon="6.50862">
        <ele>2239.1999511719</ele>
        <time>2014-02-12T12:36:44.000Z</time>
      </trkpt>
      <trkpt lat="45.91535" lon="6.50862">
        <ele>2239.1999511719</ele>
        <time>2014-02-12T12:36:46.000Z</time>
      </trkpt>
      <trkpt lat="45.91535" lon="6.50862">
        <ele>2239.1999511719</ele>
        <time>2014-02-12T12:36:47.000Z</time>
      </trkpt>
      <trkpt lat="45.91535" lon="6.50862">
        <ele>2239.1999511719</ele>
        <time>2014-02-12T12:36:48.000Z</time>
      </trkpt>
      <trkpt lat="45.91535" lon="6.50862">
        <ele>2239.1999511719</ele>
        <time>2014-02-12T12:36:49.000Z</time>
      </trkpt>
      <trkpt lat="45.91535" lon="6.50864">
        <ele>2240</ele>
        <time>2014-02-12T12:36:50.000Z</time>
      </trkpt>
      <trkpt lat="45.91534" lon="6.50865">
        <ele>2240.6000976562</ele>
        <time>2014-02-12T12:36:51.000Z</time>
      </trkpt>
      <trkpt lat="45.91534" lon="6.50866">
        <ele>2241.3999023438</ele>
        <time>2014-02-12T12:36:52.000Z</time>
      </trkpt>
      <trkpt lat="45.91533" lon="6.50868">
        <ele>2242.1999511719</ele>
        <time>2014-02-12T12:36:53.000Z</time>
      </trkpt>
      <trkpt lat="45.91532" lon="6.50869">
        <ele>2242.8000488281</ele>
        <time>2014-02-12T12:36:54.000Z</time>
      </trkpt>
      <trkpt lat="45.91531" lon="6.5087">
        <ele>2243.3999023438</ele>
        <time>2014-02-12T12:36:55.000Z</time>
      </trkpt>
      <trkpt lat="45.91531" lon="6.50871">
        <ele>2243.8000488281</ele>
        <time>2014-02-12T12:36:56.000Z</time>
      </trkpt>
      <trkpt lat="45.9153" lon="6.50872">
        <ele>2244.1999511719</ele>
        <time>2014-02-12T12:36:57.000Z</time>
      </trkpt>
      <trkpt lat="45.91529" lon="6.50872">
        <ele>2244.6000976562</ele>
        <time>2014-02-12T12:36:58.000Z</time>
      </trkpt>
      <trkpt lat="45.91528" lon="6.50873">
        <ele>2244.6000976562</ele>
        <time>2014-02-12T12:36:59.000Z</time>
      </trkpt>
      <trkpt lat="45.91527" lon="6.50874">
        <ele>2244.6000976562</ele>
        <time>2014-02-12T12:37:00.000Z</time>
      </trkpt>
      <trkpt lat="45.91527" lon="6.50874">
        <ele>2244.6000976562</ele>
        <time>2014-02-12T12:37:01.000Z</time>
      </trkpt>
      <trkpt lat="45.91526" lon="6.50875">
        <ele>2244.8000488281</ele>
        <time>2014-02-12T12:37:02.000Z</time>
      </trkpt>
      <trkpt lat="45.91526" lon="6.50876">
        <ele>2244.8000488281</ele>
        <time>2014-02-12T12:37:03.000Z</time>
      </trkpt>
      <trkpt lat="45.91525" lon="6.50876">
        <ele>2245</ele>
        <time>2014-02-12T12:37:04.000Z</time>
      </trkpt>
      <trkpt lat="45.91525" lon="6.50877">
        <ele>2245</ele>
        <time>2014-02-12T12:37:05.000Z</time>
      </trkpt>
      <trkpt lat="45.91524" lon="6.50878">
        <ele>2245</ele>
        <time>2014-02-12T12:37:06.000Z</time>
      </trkpt>
      <trkpt lat="45.91524" lon="6.50878">
        <ele>2245.1999511719</ele>
        <time>2014-02-12T12:37:07.000Z</time>
      </trkpt>
      <trkpt lat="45.91524" lon="6.50879">
        <ele>2245.1999511719</ele>
        <time>2014-02-12T12:37:08.000Z</time>
      </trkpt>
      <trkpt lat="45.91524" lon="6.50879">
        <ele>2245.3999023438</ele>
        <time>2014-02-12T12:37:09.000Z</time>
      </trkpt>
      <trkpt lat="45.91523" lon="6.5088">
        <ele>2245.3999023438</ele>
        <time>2014-02-12T12:37:10.000Z</time>
      </trkpt>
      <trkpt lat="45.91523" lon="6.5088">
        <ele>2245.3999023438</ele>
        <time>2014-02-12T12:37:11.000Z</time>
      </trkpt>
      <trkpt lat="45.91523" lon="6.5088">
        <ele>2245.3999023438</ele>
        <time>2014-02-12T12:37:12.000Z</time>
      </trkpt>
      <trkpt lat="45.91523" lon="6.5088">
        <ele>2245.3999023438</ele>
        <time>2014-02-12T12:37:13.000Z</time>
      </trkpt>
      <trkpt lat="45.91523" lon="6.5088">
        <ele>2245.3999023438</ele>
        <time>2014-02-12T12:37:14.000Z</time>
      </trkpt>
      <trkpt lat="45.91522" lon="6.5088">
        <ele>2245.1999511719</ele>
        <time>2014-02-12T12:37:15.000Z</time>
      </trkpt>
      <trkpt lat="45.91522" lon="6.5088">
        <ele>2245.1999511719</ele>
        <time>2014-02-12T12:37:16.000Z</time>
      </trkpt>
      <trkpt lat="45.91522" lon="6.50881">
        <ele>2245.3999023438</ele>
        <time>2014-02-12T12:37:17.000Z</time>
      </trkpt>
      <trkpt lat="45.91521" lon="6.50881">
        <ele>2245.3999023438</ele>
        <time>2014-02-12T12:37:18.000Z</time>
      </trkpt>
      <trkpt lat="45.91521" lon="6.50882">
        <ele>2245.3999023438</ele>
        <time>2014-02-12T12:37:19.000Z</time>
      </trkpt>
      <trkpt lat="45.91521" lon="6.50882">
        <ele>2245.6000976562</ele>
        <time>2014-02-12T12:37:20.000Z</time>
      </trkpt>
      <trkpt lat="45.91521" lon="6.50882">
        <ele>2245.6000976562</ele>
        <time>2014-02-12T12:37:21.000Z</time>
      </trkpt>
      <trkpt lat="45.9152" lon="6.50883">
        <ele>2245.6000976562</ele>
        <time>2014-02-12T12:37:22.000Z</time>
      </trkpt>
      <trkpt lat="45.9152" lon="6.50884">
        <ele>2245.8000488281</ele>
        <time>2014-02-12T12:37:23.000Z</time>
      </trkpt>
      <trkpt lat="45.91519" lon="6.50884">
        <ele>2245.8000488281</ele>
        <time>2014-02-12T12:37:24.000Z</time>
      </trkpt>
      <trkpt lat="45.91518" lon="6.50884">
        <ele>2245.8000488281</ele>
        <time>2014-02-12T12:37:25.000Z</time>
      </trkpt>
      <trkpt lat="45.91518" lon="6.50884">
        <ele>2245.3999023438</ele>
        <time>2014-02-12T12:37:26.000Z</time>
      </trkpt>
      <trkpt lat="45.91517" lon="6.50884">
        <ele>2245.3999023438</ele>
        <time>2014-02-12T12:37:27.000Z</time>
      </trkpt>
      <trkpt lat="45.91517" lon="6.50885">
        <ele>2245.3999023438</ele>
        <time>2014-02-12T12:37:28.000Z</time>
      </trkpt>
      <trkpt lat="45.91516" lon="6.50885">
        <ele>2245.3999023438</ele>
        <time>2014-02-12T12:37:29.000Z</time>
      </trkpt>
      <trkpt lat="45.91515" lon="6.50885">
        <ele>2245.3999023438</ele>
        <time>2014-02-12T12:37:30.000Z</time>
      </trkpt>
      <trkpt lat="45.91515" lon="6.50885">
        <ele>2245.1999511719</ele>
        <time>2014-02-12T12:37:31.000Z</time>
      </trkpt>
      <trkpt lat="45.91515" lon="6.50885">
        <ele>2245.1999511719</ele>
        <time>2014-02-12T12:37:32.000Z</time>
      </trkpt>
      <trkpt lat="45.91514" lon="6.50885">
        <ele>2245.1999511719</ele>
        <time>2014-02-12T12:37:33.000Z</time>
      </trkpt>
      <trkpt lat="45.91514" lon="6.50886">
        <ele>2245.3999023438</ele>
        <time>2014-02-12T12:37:34.000Z</time>
      </trkpt>
      <trkpt lat="45.91513" lon="6.50887">
        <ele>2245.3999023438</ele>
        <time>2014-02-12T12:37:35.000Z</time>
      </trkpt>
      <trkpt lat="45.91513" lon="6.50887">
        <ele>2245.3999023438</ele>
        <time>2014-02-12T12:37:36.000Z</time>
      </trkpt>
      <trkpt lat="45.91512" lon="6.50887">
        <ele>2245.3999023438</ele>
        <time>2014-02-12T12:37:37.000Z</time>
      </trkpt>
      <trkpt lat="45.91512" lon="6.50888">
        <ele>2245.3999023438</ele>
        <time>2014-02-12T12:37:38.000Z</time>
      </trkpt>
      <trkpt lat="45.91511" lon="6.50888">
        <ele>2245.3999023438</ele>
        <time>2014-02-12T12:37:39.000Z</time>
      </trkpt>
      <trkpt lat="45.9151" lon="6.50889">
        <ele>2245.3999023438</ele>
        <time>2014-02-12T12:37:40.000Z</time>
      </trkpt>
      <trkpt lat="45.9151" lon="6.50889">
        <ele>2245.1999511719</ele>
        <time>2014-02-12T12:37:41.000Z</time>
      </trkpt>
      <trkpt lat="45.91509" lon="6.50888">
        <ele>2245</ele>
        <time>2014-02-12T12:37:42.000Z</time>
      </trkpt>
      <trkpt lat="45.91508" lon="6.50889">
        <ele>2245</ele>
        <time>2014-02-12T12:37:43.000Z</time>
      </trkpt>
      <trkpt lat="45.91508" lon="6.50889">
        <ele>2245</ele>
        <time>2014-02-12T12:37:44.000Z</time>
      </trkpt>
      <trkpt lat="45.91507" lon="6.50888">
        <ele>2244.8000488281</ele>
        <time>2014-02-12T12:37:45.000Z</time>
      </trkpt>
      <trkpt lat="45.91507" lon="6.50889">
        <ele>2244.8000488281</ele>
        <time>2014-02-12T12:37:46.000Z</time>
      </trkpt>
      <trkpt lat="45.91506" lon="6.50889">
        <ele>2244.8000488281</ele>
        <time>2014-02-12T12:37:47.000Z</time>
      </trkpt>
      <trkpt lat="45.91506" lon="6.50889">
        <ele>2244.8000488281</ele>
        <time>2014-02-12T12:37:48.000Z</time>
      </trkpt>
      <trkpt lat="45.91505" lon="6.5089">
        <ele>2244.8000488281</ele>
        <time>2014-02-12T12:37:49.000Z</time>
      </trkpt>
      <trkpt lat="45.91505" lon="6.5089">
        <ele>2244.8000488281</ele>
        <time>2014-02-12T12:37:50.000Z</time>
      </trkpt>
      <trkpt lat="45.91504" lon="6.50891">
        <ele>2244.8000488281</ele>
        <time>2014-02-12T12:37:51.000Z</time>
      </trkpt>
      <trkpt lat="45.91504" lon="6.50891">
        <ele>2245</ele>
        <time>2014-02-12T12:37:52.000Z</time>
      </trkpt>
      <trkpt lat="45.91503" lon="6.50892">
        <ele>2245</ele>
        <time>2014-02-12T12:37:53.000Z</time>
      </trkpt>
      <trkpt lat="45.91503" lon="6.50893">
        <ele>2245</ele>
        <time>2014-02-12T12:37:54.000Z</time>
      </trkpt>
      <trkpt lat="45.91503" lon="6.50893">
        <ele>2245.1999511719</ele>
        <time>2014-02-12T12:37:55.000Z</time>
      </trkpt>
      <trkpt lat="45.91502" lon="6.50894">
        <ele>2245.1999511719</ele>
        <time>2014-02-12T12:37:56.000Z</time>
      </trkpt>
      <trkpt lat="45.91502" lon="6.50894">
        <ele>2245.1999511719</ele>
        <time>2014-02-12T12:37:57.000Z</time>
      </trkpt>
      <trkpt lat="45.91502" lon="6.50894">
        <ele>2245.1999511719</ele>
        <time>2014-02-12T12:37:58.000Z</time>
      </trkpt>
      <trkpt lat="45.91502" lon="6.50894">
        <ele>2245.1999511719</ele>
        <time>2014-02-12T12:37:59.000Z</time>
      </trkpt>
      <trkpt lat="45.91502" lon="6.50894">
        <ele>2245.1999511719</ele>
        <time>2014-02-12T12:38:00.000Z</time>
      </trkpt>
      <trkpt lat="45.91502" lon="6.50894">
        <ele>2245.1999511719</ele>
        <time>2014-02-12T12:38:01.000Z</time>
      </trkpt>
      <trkpt lat="45.91502" lon="6.50894">
        <ele>2245.1999511719</ele>
        <time>2014-02-12T12:38:02.000Z</time>
      </trkpt>
      <trkpt lat="45.91501" lon="6.50894">
        <ele>2245.1999511719</ele>
        <time>2014-02-12T12:38:04.000Z</time>
      </trkpt>
      <trkpt lat="45.91501" lon="6.50894">
        <ele>2245.1999511719</ele>
        <time>2014-02-12T12:38:05.000Z</time>
      </trkpt>
      <trkpt lat="45.915" lon="6.50894">
        <ele>2245</ele>
        <time>2014-02-12T12:38:06.000Z</time>
      </trkpt>
      <trkpt lat="45.915" lon="6.50895">
        <ele>2245.1999511719</ele>
        <time>2014-02-12T12:38:07.000Z</time>
      </trkpt>
      <trkpt lat="45.915" lon="6.50896">
        <ele>2245.1999511719</ele>
        <time>2014-02-12T12:38:08.000Z</time>
      </trkpt>
      <trkpt lat="45.91499" lon="6.50896">
        <ele>2245.3999023438</ele>
        <time>2014-02-12T12:38:09.000Z</time>
      </trkpt>
      <trkpt lat="45.91499" lon="6.50896">
        <ele>2245.3999023438</ele>
        <time>2014-02-12T12:38:10.000Z</time>
      </trkpt>
      <trkpt lat="45.91499" lon="6.50897">
        <ele>2245.6000976562</ele>
        <time>2014-02-12T12:38:11.000Z</time>
      </trkpt>
      <trkpt lat="45.91499" lon="6.50897">
        <ele>2245.6000976562</ele>
        <time>2014-02-12T12:38:12.000Z</time>
      </trkpt>
      <trkpt lat="45.91499" lon="6.50898">
        <ele>2245.8000488281</ele>
        <time>2014-02-12T12:38:13.000Z</time>
      </trkpt>
      <trkpt lat="45.91498" lon="6.509">
        <ele>2246</ele>
        <time>2014-02-12T12:38:14.000Z</time>
      </trkpt>
      <trkpt lat="45.91497" lon="6.509">
        <ele>2246.1999511719</ele>
        <time>2014-02-12T12:38:15.000Z</time>
      </trkpt>
      <trkpt lat="45.91497" lon="6.50901">
        <ele>2246.3999023438</ele>
        <time>2014-02-12T12:38:16.000Z</time>
      </trkpt>
      <trkpt lat="45.91496" lon="6.50901">
        <ele>2246.1999511719</ele>
        <time>2014-02-12T12:38:17.000Z</time>
      </trkpt>
      <trkpt lat="45.91495" lon="6.50901">
        <ele>2246</ele>
        <time>2014-02-12T12:38:18.000Z</time>
      </trkpt>
      <trkpt lat="45.91494" lon="6.50901">
        <ele>2245.8000488281</ele>
        <time>2014-02-12T12:38:19.000Z</time>
      </trkpt>
      <trkpt lat="45.91493" lon="6.509">
        <ele>2245.1999511719</ele>
        <time>2014-02-12T12:38:20.000Z</time>
      </trkpt>
      <trkpt lat="45.91493" lon="6.509">
        <ele>2245.1999511719</ele>
        <time>2014-02-12T12:38:21.000Z</time>
      </trkpt>
      <trkpt lat="45.91493" lon="6.509">
        <ele>2245.1999511719</ele>
        <time>2014-02-12T12:38:22.000Z</time>
      </trkpt>
      <trkpt lat="45.91492" lon="6.509">
        <ele>2245.1999511719</ele>
        <time>2014-02-12T12:38:23.000Z</time>
      </trkpt>
      <trkpt lat="45.91492" lon="6.50901">
        <ele>2245.3999023438</ele>
        <time>2014-02-12T12:38:24.000Z</time>
      </trkpt>
      <trkpt lat="45.91491" lon="6.50901">
        <ele>2245.6000976562</ele>
        <time>2014-02-12T12:38:25.000Z</time>
      </trkpt>
      <trkpt lat="45.9149" lon="6.50901">
        <ele>2245.3999023438</ele>
        <time>2014-02-12T12:38:26.000Z</time>
      </trkpt>
      <trkpt lat="45.9149" lon="6.50901">
        <ele>2245</ele>
        <time>2014-02-12T12:38:27.000Z</time>
      </trkpt>
      <trkpt lat="45.91489" lon="6.50901">
        <ele>2244.8000488281</ele>
        <time>2014-02-12T12:38:28.000Z</time>
      </trkpt>
      <trkpt lat="45.91488" lon="6.509">
        <ele>2244.3999023438</ele>
        <time>2014-02-12T12:38:29.000Z</time>
      </trkpt>
      <trkpt lat="45.91488" lon="6.509">
        <ele>2244.1999511719</ele>
        <time>2014-02-12T12:38:30.000Z</time>
      </trkpt>
      <trkpt lat="45.91487" lon="6.50899">
        <ele>2244</ele>
        <time>2014-02-12T12:38:31.000Z</time>
      </trkpt>
      <trkpt lat="45.91486" lon="6.50899">
        <ele>2243.8000488281</ele>
        <time>2014-02-12T12:38:32.000Z</time>
      </trkpt>
      <trkpt lat="45.91486" lon="6.50899">
        <ele>2243.8000488281</ele>
        <time>2014-02-12T12:38:33.000Z</time>
      </trkpt>
      <trkpt lat="45.91485" lon="6.509">
        <ele>2243.8000488281</ele>
        <time>2014-02-12T12:38:34.000Z</time>
      </trkpt>
      <trkpt lat="45.91484" lon="6.50899">
        <ele>2243.6000976562</ele>
        <time>2014-02-12T12:38:35.000Z</time>
      </trkpt>
      <trkpt lat="45.91484" lon="6.509">
        <ele>2243.6000976562</ele>
        <time>2014-02-12T12:38:36.000Z</time>
      </trkpt>
      <trkpt lat="45.91483" lon="6.50899">
        <ele>2243.3999023438</ele>
        <time>2014-02-12T12:38:37.000Z</time>
      </trkpt>
      <trkpt lat="45.91483" lon="6.50899">
        <ele>2243.3999023438</ele>
        <time>2014-02-12T12:38:38.000Z</time>
      </trkpt>
      <trkpt lat="45.91482" lon="6.50899">
        <ele>2243.1999511719</ele>
        <time>2014-02-12T12:38:39.000Z</time>
      </trkpt>
      <trkpt lat="45.91482" lon="6.509">
        <ele>2243.1999511719</ele>
        <time>2014-02-12T12:38:40.000Z</time>
      </trkpt>
      <trkpt lat="45.91481" lon="6.50899">
        <ele>2243</ele>
        <time>2014-02-12T12:38:41.000Z</time>
      </trkpt>
      <trkpt lat="45.91481" lon="6.50898">
        <ele>2242.8000488281</ele>
        <time>2014-02-12T12:38:42.000Z</time>
      </trkpt>
      <trkpt lat="45.9148" lon="6.50898">
        <ele>2242.3999023438</ele>
        <time>2014-02-12T12:38:43.000Z</time>
      </trkpt>
      <trkpt lat="45.91479" lon="6.50897">
        <ele>2242.1999511719</ele>
        <time>2014-02-12T12:38:44.000Z</time>
      </trkpt>
      <trkpt lat="45.91479" lon="6.50897">
        <ele>2242.1999511719</ele>
        <time>2014-02-12T12:38:45.000Z</time>
      </trkpt>
      <trkpt lat="45.91478" lon="6.50897">
        <ele>2242</ele>
        <time>2014-02-12T12:38:46.000Z</time>
      </trkpt>
      <trkpt lat="45.91478" lon="6.50897">
        <ele>2241.8000488281</ele>
        <time>2014-02-12T12:38:47.000Z</time>
      </trkpt>
      <trkpt lat="45.91477" lon="6.50896">
        <ele>2241.3999023438</ele>
        <time>2014-02-12T12:38:48.000Z</time>
      </trkpt>
      <trkpt lat="45.91476" lon="6.50895">
        <ele>2241.1999511719</ele>
        <time>2014-02-12T12:38:49.000Z</time>
      </trkpt>
      <trkpt lat="45.91476" lon="6.50895">
        <ele>2241.1999511719</ele>
        <time>2014-02-12T12:38:50.000Z</time>
      </trkpt>
      <trkpt lat="45.91475" lon="6.50895">
        <ele>2241</ele>
        <time>2014-02-12T12:38:51.000Z</time>
      </trkpt>
      <trkpt lat="45.91475" lon="6.50895">
        <ele>2241</ele>
        <time>2014-02-12T12:38:52.000Z</time>
      </trkpt>
      <trkpt lat="45.91474" lon="6.50895">
        <ele>2240.8000488281</ele>
        <time>2014-02-12T12:38:53.000Z</time>
      </trkpt>
      <trkpt lat="45.91473" lon="6.50894">
        <ele>2240.6000976562</ele>
        <time>2014-02-12T12:38:54.000Z</time>
      </trkpt>
      <trkpt lat="45.91473" lon="6.50894">
        <ele>2240.6000976562</ele>
        <time>2014-02-12T12:38:55.000Z</time>
      </trkpt>
      <trkpt lat="45.91473" lon="6.50894">
        <ele>2240.6000976562</ele>
        <time>2014-02-12T12:38:56.000Z</time>
      </trkpt>
      <trkpt lat="45.91472" lon="6.50894">
        <ele>2240.6000976562</ele>
        <time>2014-02-12T12:38:57.000Z</time>
      </trkpt>
      <trkpt lat="45.91472" lon="6.50894">
        <ele>2240.6000976562</ele>
        <time>2014-02-12T12:38:58.000Z</time>
      </trkpt>
      <trkpt lat="45.91472" lon="6.50894">
        <ele>2240.6000976562</ele>
        <time>2014-02-12T12:38:59.000Z</time>
      </trkpt>
      <trkpt lat="45.91472" lon="6.50894">
        <ele>2240.6000976562</ele>
        <time>2014-02-12T12:39:00.000Z</time>
      </trkpt>
      <trkpt lat="45.91472" lon="6.50894">
        <ele>2240.6000976562</ele>
        <time>2014-02-12T12:39:01.000Z</time>
      </trkpt>
      <trkpt lat="45.91472" lon="6.50894">
        <ele>2240.6000976562</ele>
        <time>2014-02-12T12:39:02.000Z</time>
      </trkpt>
      <trkpt lat="45.91472" lon="6.50894">
        <ele>2240.6000976562</ele>
        <time>2014-02-12T12:39:03.000Z</time>
      </trkpt>
      <trkpt lat="45.91472" lon="6.50894">
        <ele>2240.6000976562</ele>
        <time>2014-02-12T12:39:05.000Z</time>
      </trkpt>
      <trkpt lat="45.91473" lon="6.50896">
        <ele>2241</ele>
        <time>2014-02-12T12:39:06.000Z</time>
      </trkpt>
      <trkpt lat="45.91473" lon="6.50896">
        <ele>2241</ele>
        <time>2014-02-12T12:39:07.000Z</time>
      </trkpt>
      <trkpt lat="45.91473" lon="6.50898">
        <ele>2241.3999023438</ele>
        <time>2014-02-12T12:39:08.000Z</time>
      </trkpt>
      <trkpt lat="45.91473" lon="6.50899">
        <ele>2241.8000488281</ele>
        <time>2014-02-12T12:39:09.000Z</time>
      </trkpt>
      <trkpt lat="45.91473" lon="6.50901">
        <ele>2242.1999511719</ele>
        <time>2014-02-12T12:39:10.000Z</time>
      </trkpt>
      <trkpt lat="45.91473" lon="6.50902">
        <ele>2243</ele>
        <time>2014-02-12T12:39:11.000Z</time>
      </trkpt>
      <trkpt lat="45.91474" lon="6.50904">
        <ele>2243.6000976562</ele>
        <time>2014-02-12T12:39:12.000Z</time>
      </trkpt>
      <trkpt lat="45.91474" lon="6.50905">
        <ele>2244.3999023438</ele>
        <time>2014-02-12T12:39:13.000Z</time>
      </trkpt>
      <trkpt lat="45.91474" lon="6.50906">
        <ele>2244.8000488281</ele>
        <time>2014-02-12T12:39:14.000Z</time>
      </trkpt>
      <trkpt lat="45.91474" lon="6.50907">
        <ele>2245.1999511719</ele>
        <time>2014-02-12T12:39:15.000Z</time>
      </trkpt>
      <trkpt lat="45.91474" lon="6.50908">
        <ele>2245.6000976562</ele>
        <time>2014-02-12T12:39:16.000Z</time>
      </trkpt>
      <trkpt lat="45.91474" lon="6.50909">
        <ele>2246.1999511719</ele>
        <time>2014-02-12T12:39:17.000Z</time>
      </trkpt>
      <trkpt lat="45.91474" lon="6.50909">
        <ele>2246.6000976562</ele>
        <time>2014-02-12T12:39:18.000Z</time>
      </trkpt>
      <trkpt lat="45.91475" lon="6.5091">
        <ele>2247</ele>
        <time>2014-02-12T12:39:19.000Z</time>
      </trkpt>
      <trkpt lat="45.91475" lon="6.50911">
        <ele>2247.3999023438</ele>
        <time>2014-02-12T12:39:20.000Z</time>
      </trkpt>
      <trkpt lat="45.91475" lon="6.50912">
        <ele>2248</ele>
        <time>2014-02-12T12:39:21.000Z</time>
      </trkpt>
      <trkpt lat="45.91476" lon="6.50913">
        <ele>2248.8000488281</ele>
        <time>2014-02-12T12:39:22.000Z</time>
      </trkpt>
      <trkpt lat="45.91476" lon="6.50915">
        <ele>2249.3999023438</ele>
        <time>2014-02-12T12:39:23.000Z</time>
      </trkpt>
      <trkpt lat="45.91476" lon="6.50916">
        <ele>2249.8000488281</ele>
        <time>2014-02-12T12:39:24.000Z</time>
      </trkpt>
      <trkpt lat="45.91476" lon="6.50916">
        <ele>2249.8000488281</ele>
        <time>2014-02-12T12:39:25.000Z</time>
      </trkpt>
      <trkpt lat="45.91476" lon="6.50916">
        <ele>2249.8000488281</ele>
        <time>2014-02-12T12:39:26.000Z</time>
      </trkpt>
      <trkpt lat="45.91476" lon="6.50916">
        <ele>2249.8000488281</ele>
        <time>2014-02-12T12:39:27.000Z</time>
      </trkpt>
      <trkpt lat="45.91476" lon="6.50916">
        <ele>2249.8000488281</ele>
        <time>2014-02-12T12:39:28.000Z</time>
      </trkpt>
      <trkpt lat="45.91476" lon="6.50916">
        <ele>2249.8000488281</ele>
        <time>2014-02-12T12:39:29.000Z</time>
      </trkpt>
      <trkpt lat="45.91476" lon="6.50916">
        <ele>2249.8000488281</ele>
        <time>2014-02-12T12:39:30.000Z</time>
      </trkpt>
      <trkpt lat="45.91476" lon="6.50916">
        <ele>2249.8000488281</ele>
        <time>2014-02-12T12:39:31.000Z</time>
      </trkpt>
      <trkpt lat="45.91476" lon="6.50916">
        <ele>2249.8000488281</ele>
        <time>2014-02-12T12:39:32.000Z</time>
      </trkpt>
      <trkpt lat="45.91476" lon="6.50917">
        <ele>2250.6000976562</ele>
        <time>2014-02-12T12:39:33.000Z</time>
      </trkpt>
      <trkpt lat="45.91476" lon="6.50917">
        <ele>2250.6000976562</ele>
        <time>2014-02-12T12:39:34.000Z</time>
      </trkpt>
      <trkpt lat="45.91476" lon="6.50919">
        <ele>2251.6000976562</ele>
        <time>2014-02-12T12:39:35.000Z</time>
      </trkpt>
      <trkpt lat="45.91477" lon="6.5092">
        <ele>2252.3999023438</ele>
        <time>2014-02-12T12:39:36.000Z</time>
      </trkpt>
      <trkpt lat="45.91477" lon="6.50922">
        <ele>2253</ele>
        <time>2014-02-12T12:39:37.000Z</time>
      </trkpt>
      <trkpt lat="45.91477" lon="6.50922">
        <ele>2253.1999511719</ele>
        <time>2014-02-12T12:39:38.000Z</time>
      </trkpt>
      <trkpt lat="45.91478" lon="6.50923">
        <ele>2253.8000488281</ele>
        <time>2014-02-12T12:39:39.000Z</time>
      </trkpt>
      <trkpt lat="45.91478" lon="6.50923">
        <ele>2253.8000488281</ele>
        <time>2014-02-12T12:39:40.000Z</time>
      </trkpt>
      <trkpt lat="45.91478" lon="6.50924">
        <ele>2254.6000976562</ele>
        <time>2014-02-12T12:39:41.000Z</time>
      </trkpt>
      <trkpt lat="45.91478" lon="6.50924">
        <ele>2254.6000976562</ele>
        <time>2014-02-12T12:39:42.000Z</time>
      </trkpt>
      <trkpt lat="45.91479" lon="6.50926">
        <ele>2255.6000976562</ele>
        <time>2014-02-12T12:39:43.000Z</time>
      </trkpt>
      <trkpt lat="45.91479" lon="6.50926">
        <ele>2255.6000976562</ele>
        <time>2014-02-12T12:39:44.000Z</time>
      </trkpt>
      <trkpt lat="45.9148" lon="6.50927">
        <ele>2256.1999511719</ele>
        <time>2014-02-12T12:39:45.000Z</time>
      </trkpt>
      <trkpt lat="45.91481" lon="6.50928">
        <ele>2257</ele>
        <time>2014-02-12T12:39:46.000Z</time>
      </trkpt>
      <trkpt lat="45.91481" lon="6.50929">
        <ele>2257.6000976562</ele>
        <time>2014-02-12T12:39:47.000Z</time>
      </trkpt>
      <trkpt lat="45.91481" lon="6.5093">
        <ele>2258.1999511719</ele>
        <time>2014-02-12T12:39:48.000Z</time>
      </trkpt>
      <trkpt lat="45.91482" lon="6.50931">
        <ele>2258.6000976562</ele>
        <time>2014-02-12T12:39:49.000Z</time>
      </trkpt>
      <trkpt lat="45.91482" lon="6.50931">
        <ele>2258.6000976562</ele>
        <time>2014-02-12T12:39:50.000Z</time>
      </trkpt>
      <trkpt lat="45.91482" lon="6.50931">
        <ele>2258.6000976562</ele>
        <time>2014-02-12T12:39:51.000Z</time>
      </trkpt>
      <trkpt lat="45.91482" lon="6.50931">
        <ele>2258.6000976562</ele>
        <time>2014-02-12T12:39:52.000Z</time>
      </trkpt>
      <trkpt lat="45.91482" lon="6.50931">
        <ele>2258.6000976562</ele>
        <time>2014-02-12T12:39:53.000Z</time>
      </trkpt>
      <trkpt lat="45.91482" lon="6.50931">
        <ele>2258.6000976562</ele>
        <time>2014-02-12T12:39:54.000Z</time>
      </trkpt>
      <trkpt lat="45.91482" lon="6.50931">
        <ele>2258.6000976562</ele>
        <time>2014-02-12T12:39:55.000Z</time>
      </trkpt>
      <trkpt lat="45.91482" lon="6.50931">
        <ele>2258.6000976562</ele>
        <time>2014-02-12T12:39:56.000Z</time>
      </trkpt>
      <trkpt lat="45.91482" lon="6.50931">
        <ele>2258.3999023438</ele>
        <time>2014-02-12T12:39:57.000Z</time>
      </trkpt>
      <trkpt lat="45.91481" lon="6.5093">
        <ele>2258.1999511719</ele>
        <time>2014-02-12T12:39:58.000Z</time>
      </trkpt>
      <trkpt lat="45.91481" lon="6.5093">
        <ele>2258.1999511719</ele>
        <time>2014-02-12T12:39:59.000Z</time>
      </trkpt>
      <trkpt lat="45.91481" lon="6.5093">
        <ele>2258.1999511719</ele>
        <time>2014-02-12T12:40:00.000Z</time>
      </trkpt>
      <trkpt lat="45.91481" lon="6.5093">
        <ele>2258.1999511719</ele>
        <time>2014-02-12T12:40:01.000Z</time>
      </trkpt>
      <trkpt lat="45.9148" lon="6.50929">
        <ele>2257.6000976562</ele>
        <time>2014-02-12T12:40:02.000Z</time>
      </trkpt>
      <trkpt lat="45.91479" lon="6.50929">
        <ele>2257.1999511719</ele>
        <time>2014-02-12T12:40:03.000Z</time>
      </trkpt>
      <trkpt lat="45.91479" lon="6.50929">
        <ele>2257</ele>
        <time>2014-02-12T12:40:04.000Z</time>
      </trkpt>
      <trkpt lat="45.91478" lon="6.5093">
        <ele>2257.1999511719</ele>
        <time>2014-02-12T12:40:05.000Z</time>
      </trkpt>
      <trkpt lat="45.91478" lon="6.5093">
        <ele>2257.3999023438</ele>
        <time>2014-02-12T12:40:06.000Z</time>
      </trkpt>
      <trkpt lat="45.91477" lon="6.5093">
        <ele>2257.1999511719</ele>
        <time>2014-02-12T12:40:07.000Z</time>
      </trkpt>
      <trkpt lat="45.91477" lon="6.5093">
        <ele>2257</ele>
        <time>2014-02-12T12:40:08.000Z</time>
      </trkpt>
      <trkpt lat="45.91476" lon="6.50931">
        <ele>2257.1999511719</ele>
        <time>2014-02-12T12:40:09.000Z</time>
      </trkpt>
      <trkpt lat="45.91476" lon="6.50931">
        <ele>2257.1999511719</ele>
        <time>2014-02-12T12:40:10.000Z</time>
      </trkpt>
      <trkpt lat="45.91476" lon="6.50931">
        <ele>2257.1999511719</ele>
        <time>2014-02-12T12:40:11.000Z</time>
      </trkpt>
      <trkpt lat="45.91475" lon="6.50931">
        <ele>2257.1999511719</ele>
        <time>2014-02-12T12:40:12.000Z</time>
      </trkpt>
      <trkpt lat="45.91474" lon="6.50931">
        <ele>2257</ele>
        <time>2014-02-12T12:40:13.000Z</time>
      </trkpt>
      <trkpt lat="45.91474" lon="6.50931">
        <ele>2257</ele>
        <time>2014-02-12T12:40:14.000Z</time>
      </trkpt>
      <trkpt lat="45.91473" lon="6.50931">
        <ele>2257</ele>
        <time>2014-02-12T12:40:15.000Z</time>
      </trkpt>
      <trkpt lat="45.91473" lon="6.50931">
        <ele>2256.8000488281</ele>
        <time>2014-02-12T12:40:16.000Z</time>
      </trkpt>
      <trkpt lat="45.91472" lon="6.50931">
        <ele>2257</ele>
        <time>2014-02-12T12:40:17.000Z</time>
      </trkpt>
      <trkpt lat="45.91471" lon="6.50932">
        <ele>2257</ele>
        <time>2014-02-12T12:40:18.000Z</time>
      </trkpt>
      <trkpt lat="45.91471" lon="6.50932">
        <ele>2257</ele>
        <time>2014-02-12T12:40:19.000Z</time>
      </trkpt>
      <trkpt lat="45.9147" lon="6.50931">
        <ele>2257</ele>
        <time>2014-02-12T12:40:20.000Z</time>
      </trkpt>
      <trkpt lat="45.9147" lon="6.50932">
        <ele>2257.1999511719</ele>
        <time>2014-02-12T12:40:21.000Z</time>
      </trkpt>
      <trkpt lat="45.9147" lon="6.50933">
        <ele>2257.6000976562</ele>
        <time>2014-02-12T12:40:22.000Z</time>
      </trkpt>
      <trkpt lat="45.9147" lon="6.50934">
        <ele>2258</ele>
        <time>2014-02-12T12:40:23.000Z</time>
      </trkpt>
      <trkpt lat="45.91469" lon="6.50934">
        <ele>2258.1999511719</ele>
        <time>2014-02-12T12:40:24.000Z</time>
      </trkpt>
      <trkpt lat="45.91469" lon="6.50934">
        <ele>2258.3999023438</ele>
        <time>2014-02-12T12:40:25.000Z</time>
      </trkpt>
      <trkpt lat="45.91468" lon="6.50934">
        <ele>2258.3999023438</ele>
        <time>2014-02-12T12:40:26.000Z</time>
      </trkpt>
      <trkpt lat="45.91468" lon="6.50934">
        <ele>2258</ele>
        <time>2014-02-12T12:40:27.000Z</time>
      </trkpt>
      <trkpt lat="45.91467" lon="6.50934">
        <ele>2258</ele>
        <time>2014-02-12T12:40:28.000Z</time>
      </trkpt>
      <trkpt lat="45.91466" lon="6.50934">
        <ele>2258</ele>
        <time>2014-02-12T12:40:29.000Z</time>
      </trkpt>
      <trkpt lat="45.91466" lon="6.50934">
        <ele>2258.1999511719</ele>
        <time>2014-02-12T12:40:30.000Z</time>
      </trkpt>
      <trkpt lat="45.91466" lon="6.50934">
        <ele>2258.1999511719</ele>
        <time>2014-02-12T12:40:31.000Z</time>
      </trkpt>
      <trkpt lat="45.91465" lon="6.50934">
        <ele>2258</ele>
        <time>2014-02-12T12:40:32.000Z</time>
      </trkpt>
      <trkpt lat="45.91464" lon="6.50934">
        <ele>2258</ele>
        <time>2014-02-12T12:40:33.000Z</time>
      </trkpt>
      <trkpt lat="45.91464" lon="6.50934">
        <ele>2258</ele>
        <time>2014-02-12T12:40:34.000Z</time>
      </trkpt>
      <trkpt lat="45.91462" lon="6.50933">
        <ele>2257.8000488281</ele>
        <time>2014-02-12T12:40:35.000Z</time>
      </trkpt>
      <trkpt lat="45.91462" lon="6.50933">
        <ele>2257.6000976562</ele>
        <time>2014-02-12T12:40:36.000Z</time>
      </trkpt>
      <trkpt lat="45.91461" lon="6.50933">
        <ele>2257.3999023438</ele>
        <time>2014-02-12T12:40:37.000Z</time>
      </trkpt>
      <trkpt lat="45.91461" lon="6.50933">
        <ele>2257.3999023438</ele>
        <time>2014-02-12T12:40:38.000Z</time>
      </trkpt>
      <trkpt lat="45.9146" lon="6.50932">
        <ele>2257.1999511719</ele>
        <time>2014-02-12T12:40:39.000Z</time>
      </trkpt>
      <trkpt lat="45.9146" lon="6.50932">
        <ele>2257.1999511719</ele>
        <time>2014-02-12T12:40:40.000Z</time>
      </trkpt>
      <trkpt lat="45.91459" lon="6.50933">
        <ele>2257.3999023438</ele>
        <time>2014-02-12T12:40:41.000Z</time>
      </trkpt>
      <trkpt lat="45.91458" lon="6.50932">
        <ele>2257.1999511719</ele>
        <time>2014-02-12T12:40:42.000Z</time>
      </trkpt>
      <trkpt lat="45.91457" lon="6.50932">
        <ele>2257.1999511719</ele>
        <time>2014-02-12T12:40:43.000Z</time>
      </trkpt>
      <trkpt lat="45.91456" lon="6.50932">
        <ele>2257.1999511719</ele>
        <time>2014-02-12T12:40:44.000Z</time>
      </trkpt>
      <trkpt lat="45.91456" lon="6.50932">
        <ele>2257</ele>
        <time>2014-02-12T12:40:45.000Z</time>
      </trkpt>
      <trkpt lat="45.91455" lon="6.50932">
        <ele>2257</ele>
        <time>2014-02-12T12:40:46.000Z</time>
      </trkpt>
      <trkpt lat="45.91455" lon="6.50932">
        <ele>2257.1999511719</ele>
        <time>2014-02-12T12:40:47.000Z</time>
      </trkpt>
      <trkpt lat="45.91455" lon="6.50933">
        <ele>2257.3999023438</ele>
        <time>2014-02-12T12:40:48.000Z</time>
      </trkpt>
      <trkpt lat="45.91455" lon="6.50934">
        <ele>2258</ele>
        <time>2014-02-12T12:40:49.000Z</time>
      </trkpt>
      <trkpt lat="45.91454" lon="6.50935">
        <ele>2258.3999023438</ele>
        <time>2014-02-12T12:40:50.000Z</time>
      </trkpt>
      <trkpt lat="45.91454" lon="6.50935">
        <ele>2258.6000976562</ele>
        <time>2014-02-12T12:40:51.000Z</time>
      </trkpt>
      <trkpt lat="45.91454" lon="6.50935">
        <ele>2258.6000976562</ele>
        <time>2014-02-12T12:40:52.000Z</time>
      </trkpt>
      <trkpt lat="45.91454" lon="6.50935">
        <ele>2258.6000976562</ele>
        <time>2014-02-12T12:40:53.000Z</time>
      </trkpt>
      <trkpt lat="45.91454" lon="6.50935">
        <ele>2258.6000976562</ele>
        <time>2014-02-12T12:40:54.000Z</time>
      </trkpt>
      <trkpt lat="45.91454" lon="6.50936">
        <ele>2259</ele>
        <time>2014-02-12T12:40:55.000Z</time>
      </trkpt>
      <trkpt lat="45.91454" lon="6.50936">
        <ele>2259</ele>
        <time>2014-02-12T12:40:56.000Z</time>
      </trkpt>
      <trkpt lat="45.91455" lon="6.50937">
        <ele>2259.6000976562</ele>
        <time>2014-02-12T12:40:57.000Z</time>
      </trkpt>
      <trkpt lat="45.91455" lon="6.50938">
        <ele>2259.6000976562</ele>
        <time>2014-02-12T12:40:58.000Z</time>
      </trkpt>
      <trkpt lat="45.91455" lon="6.50939">
        <ele>2260.1999511719</ele>
        <time>2014-02-12T12:40:59.000Z</time>
      </trkpt>
      <trkpt lat="45.91455" lon="6.50939">
        <ele>2260.1999511719</ele>
        <time>2014-02-12T12:41:00.000Z</time>
      </trkpt>
      <trkpt lat="45.91456" lon="6.5094">
        <ele>2261</ele>
        <time>2014-02-12T12:41:01.000Z</time>
      </trkpt>
      <trkpt lat="45.91457" lon="6.50942">
        <ele>2261.8000488281</ele>
        <time>2014-02-12T12:41:02.000Z</time>
      </trkpt>
      <trkpt lat="45.91457" lon="6.50942">
        <ele>2261.8000488281</ele>
        <time>2014-02-12T12:41:03.000Z</time>
      </trkpt>
      <trkpt lat="45.91458" lon="6.50943">
        <ele>2262.3999023438</ele>
        <time>2014-02-12T12:41:04.000Z</time>
      </trkpt>
      <trkpt lat="45.91458" lon="6.50943">
        <ele>2262.3999023438</ele>
        <time>2014-02-12T12:41:05.000Z</time>
      </trkpt>
      <trkpt lat="45.91458" lon="6.50944">
        <ele>2262.8000488281</ele>
        <time>2014-02-12T12:41:06.000Z</time>
      </trkpt>
      <trkpt lat="45.91458" lon="6.50944">
        <ele>2262.8000488281</ele>
        <time>2014-02-12T12:41:07.000Z</time>
      </trkpt>
      <trkpt lat="45.91458" lon="6.50945">
        <ele>2263.3999023438</ele>
        <time>2014-02-12T12:41:08.000Z</time>
      </trkpt>
      <trkpt lat="45.91458" lon="6.50945">
        <ele>2263.3999023438</ele>
        <time>2014-02-12T12:41:09.000Z</time>
      </trkpt>
      <trkpt lat="45.91459" lon="6.50946">
        <ele>2263.8000488281</ele>
        <time>2014-02-12T12:41:10.000Z</time>
      </trkpt>
      <trkpt lat="45.91459" lon="6.50947">
        <ele>2264.1999511719</ele>
        <time>2014-02-12T12:41:11.000Z</time>
      </trkpt>
      <trkpt lat="45.9146" lon="6.50948">
        <ele>2264.6000976562</ele>
        <time>2014-02-12T12:41:12.000Z</time>
      </trkpt>
      <trkpt lat="45.9146" lon="6.50949">
        <ele>2265.1999511719</ele>
        <time>2014-02-12T12:41:13.000Z</time>
      </trkpt>
      <trkpt lat="45.9146" lon="6.5095">
        <ele>2265.8000488281</ele>
        <time>2014-02-12T12:41:14.000Z</time>
      </trkpt>
      <trkpt lat="45.91461" lon="6.50951">
        <ele>2266.3999023438</ele>
        <time>2014-02-12T12:41:15.000Z</time>
      </trkpt>
      <trkpt lat="45.91461" lon="6.50953">
        <ele>2267</ele>
        <time>2014-02-12T12:41:16.000Z</time>
      </trkpt>
      <trkpt lat="45.91461" lon="6.50954">
        <ele>2267.6000976562</ele>
        <time>2014-02-12T12:41:17.000Z</time>
      </trkpt>
      <trkpt lat="45.91461" lon="6.50955">
        <ele>2268.1999511719</ele>
        <time>2014-02-12T12:41:18.000Z</time>
      </trkpt>
      <trkpt lat="45.91461" lon="6.50955">
        <ele>2268.1999511719</ele>
        <time>2014-02-12T12:41:19.000Z</time>
      </trkpt>
      <trkpt lat="45.91461" lon="6.50956">
        <ele>2268.8000488281</ele>
        <time>2014-02-12T12:41:20.000Z</time>
      </trkpt>
      <trkpt lat="45.91462" lon="6.50958">
        <ele>2269.3999023438</ele>
        <time>2014-02-12T12:41:21.000Z</time>
      </trkpt>
      <trkpt lat="45.91462" lon="6.50958">
        <ele>2269.8000488281</ele>
        <time>2014-02-12T12:41:22.000Z</time>
      </trkpt>
      <trkpt lat="45.91462" lon="6.50959">
        <ele>2270.1999511719</ele>
        <time>2014-02-12T12:41:23.000Z</time>
      </trkpt>
      <trkpt lat="45.91463" lon="6.5096">
        <ele>2270.6000976562</ele>
        <time>2014-02-12T12:41:24.000Z</time>
      </trkpt>
      <trkpt lat="45.91463" lon="6.50961">
        <ele>2271</ele>
        <time>2014-02-12T12:41:25.000Z</time>
      </trkpt>
      <trkpt lat="45.91462" lon="6.50962">
        <ele>2271.6000976562</ele>
        <time>2014-02-12T12:41:26.000Z</time>
      </trkpt>
      <trkpt lat="45.91462" lon="6.50963">
        <ele>2272.1999511719</ele>
        <time>2014-02-12T12:41:27.000Z</time>
      </trkpt>
      <trkpt lat="45.91461" lon="6.50964">
        <ele>2272.6000976562</ele>
        <time>2014-02-12T12:41:28.000Z</time>
      </trkpt>
      <trkpt lat="45.91461" lon="6.50965">
        <ele>2272.8000488281</ele>
        <time>2014-02-12T12:41:29.000Z</time>
      </trkpt>
      <trkpt lat="45.91461" lon="6.50965">
        <ele>2273.1999511719</ele>
        <time>2014-02-12T12:41:30.000Z</time>
      </trkpt>
      <trkpt lat="45.91461" lon="6.50965">
        <ele>2273.1999511719</ele>
        <time>2014-02-12T12:41:31.000Z</time>
      </trkpt>
      <trkpt lat="45.91461" lon="6.50965">
        <ele>2273.1999511719</ele>
        <time>2014-02-12T12:41:32.000Z</time>
      </trkpt>
      <trkpt lat="45.91461" lon="6.50965">
        <ele>2273.1999511719</ele>
        <time>2014-02-12T12:41:33.000Z</time>
      </trkpt>
      <trkpt lat="45.91461" lon="6.50965">
        <ele>2273.1999511719</ele>
        <time>2014-02-12T12:41:34.000Z</time>
      </trkpt>
      <trkpt lat="45.91461" lon="6.50965">
        <ele>2273.1999511719</ele>
        <time>2014-02-12T12:41:35.000Z</time>
      </trkpt>
      <trkpt lat="45.91461" lon="6.50965">
        <ele>2273.1999511719</ele>
        <time>2014-02-12T12:41:36.000Z</time>
      </trkpt>
      <trkpt lat="45.91461" lon="6.50965">
        <ele>2273.1999511719</ele>
        <time>2014-02-12T12:41:37.000Z</time>
      </trkpt>
      <trkpt lat="45.91461" lon="6.50966">
        <ele>2273.3999023438</ele>
        <time>2014-02-12T12:41:38.000Z</time>
      </trkpt>
      <trkpt lat="45.91461" lon="6.50966">
        <ele>2273.3999023438</ele>
        <time>2014-02-12T12:41:39.000Z</time>
      </trkpt>
      <trkpt lat="45.91462" lon="6.50966">
        <ele>2273.6000976562</ele>
        <time>2014-02-12T12:41:40.000Z</time>
      </trkpt>
      <trkpt lat="45.91462" lon="6.50966">
        <ele>2273.6000976562</ele>
        <time>2014-02-12T12:41:41.000Z</time>
      </trkpt>
      <trkpt lat="45.91462" lon="6.50967">
        <ele>2273.8000488281</ele>
        <time>2014-02-12T12:41:42.000Z</time>
      </trkpt>
      <trkpt lat="45.91462" lon="6.50967">
        <ele>2273.8000488281</ele>
        <time>2014-02-12T12:41:43.000Z</time>
      </trkpt>
      <trkpt lat="45.91462" lon="6.50967">
        <ele>2273.8000488281</ele>
        <time>2014-02-12T12:41:44.000Z</time>
      </trkpt>
      <trkpt lat="45.91462" lon="6.50967">
        <ele>2273.8000488281</ele>
        <time>2014-02-12T12:41:45.000Z</time>
      </trkpt>
      <trkpt lat="45.91462" lon="6.50967">
        <ele>2273.8000488281</ele>
        <time>2014-02-12T12:41:46.000Z</time>
      </trkpt>
      <trkpt lat="45.91462" lon="6.50967">
        <ele>2273.8000488281</ele>
        <time>2014-02-12T12:41:47.000Z</time>
      </trkpt>
      <trkpt lat="45.91462" lon="6.50967">
        <ele>2273.8000488281</ele>
        <time>2014-02-12T12:41:48.000Z</time>
      </trkpt>
      <trkpt lat="45.91462" lon="6.50967">
        <ele>2273.8000488281</ele>
        <time>2014-02-12T12:41:49.000Z</time>
      </trkpt>
      <trkpt lat="45.91462" lon="6.50967">
        <ele>2273.8000488281</ele>
        <time>2014-02-12T12:41:50.000Z</time>
      </trkpt>
      <trkpt lat="45.91462" lon="6.50967">
        <ele>2273.8000488281</ele>
        <time>2014-02-12T12:41:51.000Z</time>
      </trkpt>
      <trkpt lat="45.91462" lon="6.50967">
        <ele>2273.8000488281</ele>
        <time>2014-02-12T12:41:52.000Z</time>
      </trkpt>
      <trkpt lat="45.91462" lon="6.50967">
        <ele>2273.8000488281</ele>
        <time>2014-02-12T12:41:57.000Z</time>
      </trkpt>
      <trkpt lat="45.91462" lon="6.50967">
        <ele>2273.8000488281</ele>
        <time>2014-02-12T12:42:01.000Z</time>
      </trkpt>
      <trkpt lat="45.91462" lon="6.50967">
        <ele>2273.8000488281</ele>
        <time>2014-02-12T12:42:02.000Z</time>
      </trkpt>
      <trkpt lat="45.91462" lon="6.50967">
        <ele>2273.8000488281</ele>
        <time>2014-02-12T12:42:03.000Z</time>
      </trkpt>
      <trkpt lat="45.91462" lon="6.50967">
        <ele>2273.8000488281</ele>
        <time>2014-02-12T12:42:04.000Z</time>
      </trkpt>
      <trkpt lat="45.91462" lon="6.50968">
        <ele>2274.3999023438</ele>
        <time>2014-02-12T12:42:05.000Z</time>
      </trkpt>
      <trkpt lat="45.91462" lon="6.50969">
        <ele>2275</ele>
        <time>2014-02-12T12:42:07.000Z</time>
      </trkpt>
      <trkpt lat="45.91462" lon="6.5097">
        <ele>2275.3999023438</ele>
        <time>2014-02-12T12:42:08.000Z</time>
      </trkpt>
      <trkpt lat="45.91462" lon="6.5097">
        <ele>2275.6000976562</ele>
        <time>2014-02-12T12:42:09.000Z</time>
      </trkpt>
      <trkpt lat="45.91463" lon="6.50971">
        <ele>2275.8000488281</ele>
        <time>2014-02-12T12:42:10.000Z</time>
      </trkpt>
      <trkpt lat="45.91464" lon="6.50972">
        <ele>2276.1999511719</ele>
        <time>2014-02-12T12:42:11.000Z</time>
      </trkpt>
      <trkpt lat="45.91465" lon="6.50973">
        <ele>2276.6000976562</ele>
        <time>2014-02-12T12:42:12.000Z</time>
      </trkpt>
      <trkpt lat="45.91466" lon="6.50973">
        <ele>2276.8000488281</ele>
        <time>2014-02-12T12:42:13.000Z</time>
      </trkpt>
      <trkpt lat="45.91467" lon="6.50973">
        <ele>2277</ele>
        <time>2014-02-12T12:42:14.000Z</time>
      </trkpt>
      <trkpt lat="45.91467" lon="6.50974">
        <ele>2277.3999023438</ele>
        <time>2014-02-12T12:42:15.000Z</time>
      </trkpt>
      <trkpt lat="45.91468" lon="6.50974">
        <ele>2277.3999023438</ele>
        <time>2014-02-12T12:42:16.000Z</time>
      </trkpt>
      <trkpt lat="45.91469" lon="6.50974">
        <ele>2277.6000976562</ele>
        <time>2014-02-12T12:42:17.000Z</time>
      </trkpt>
      <trkpt lat="45.9147" lon="6.50975">
        <ele>2277.8000488281</ele>
        <time>2014-02-12T12:42:18.000Z</time>
      </trkpt>
      <trkpt lat="45.9147" lon="6.50975">
        <ele>2278</ele>
        <time>2014-02-12T12:42:19.000Z</time>
      </trkpt>
      <trkpt lat="45.91471" lon="6.50976">
        <ele>2278.1999511719</ele>
        <time>2014-02-12T12:42:20.000Z</time>
      </trkpt>
      <trkpt lat="45.91471" lon="6.50976">
        <ele>2278.1999511719</ele>
        <time>2014-02-12T12:42:21.000Z</time>
      </trkpt>
      <trkpt lat="45.91472" lon="6.50976">
        <ele>2278.3999023438</ele>
        <time>2014-02-12T12:42:22.000Z</time>
      </trkpt>
      <trkpt lat="45.91474" lon="6.50976">
        <ele>2278.3999023438</ele>
        <time>2014-02-12T12:42:23.000Z</time>
      </trkpt>
      <trkpt lat="45.91474" lon="6.50977">
        <ele>2278.8000488281</ele>
        <time>2014-02-12T12:42:24.000Z</time>
      </trkpt>
      <trkpt lat="45.91475" lon="6.50977">
        <ele>2279</ele>
        <time>2014-02-12T12:42:25.000Z</time>
      </trkpt>
      <trkpt lat="45.91475" lon="6.50977">
        <ele>2279</ele>
        <time>2014-02-12T12:42:26.000Z</time>
      </trkpt>
      <trkpt lat="45.91476" lon="6.50977">
        <ele>2279.3999023438</ele>
        <time>2014-02-12T12:42:27.000Z</time>
      </trkpt>
      <trkpt lat="45.91476" lon="6.50978">
        <ele>2279.8000488281</ele>
        <time>2014-02-12T12:42:28.000Z</time>
      </trkpt>
      <trkpt lat="45.91477" lon="6.50978">
        <ele>2280.3999023438</ele>
        <time>2014-02-12T12:42:29.000Z</time>
      </trkpt>
      <trkpt lat="45.91478" lon="6.50978">
        <ele>2280.3999023438</ele>
        <time>2014-02-12T12:42:30.000Z</time>
      </trkpt>
      <trkpt lat="45.91479" lon="6.50978">
        <ele>2280.8000488281</ele>
        <time>2014-02-12T12:42:31.000Z</time>
      </trkpt>
      <trkpt lat="45.91479" lon="6.50978">
        <ele>2280.8000488281</ele>
        <time>2014-02-12T12:42:32.000Z</time>
      </trkpt>
      <trkpt lat="45.91479" lon="6.50978">
        <ele>2280.8000488281</ele>
        <time>2014-02-12T12:42:33.000Z</time>
      </trkpt>
      <trkpt lat="45.91479" lon="6.50978">
        <ele>2280.8000488281</ele>
        <time>2014-02-12T12:42:34.000Z</time>
      </trkpt>
      <trkpt lat="45.9148" lon="6.50979">
        <ele>2281</ele>
        <time>2014-02-12T12:42:35.000Z</time>
      </trkpt>
      <trkpt lat="45.91481" lon="6.50979">
        <ele>2281.6000976562</ele>
        <time>2014-02-12T12:42:36.000Z</time>
      </trkpt>
      <trkpt lat="45.91481" lon="6.5098">
        <ele>2282</ele>
        <time>2014-02-12T12:42:37.000Z</time>
      </trkpt>
      <trkpt lat="45.91482" lon="6.50981">
        <ele>2282.6000976562</ele>
        <time>2014-02-12T12:42:38.000Z</time>
      </trkpt>
      <trkpt lat="45.91482" lon="6.50981">
        <ele>2282.8000488281</ele>
        <time>2014-02-12T12:42:39.000Z</time>
      </trkpt>
      <trkpt lat="45.91483" lon="6.50981">
        <ele>2283</ele>
        <time>2014-02-12T12:42:40.000Z</time>
      </trkpt>
      <trkpt lat="45.91484" lon="6.50981">
        <ele>2283.3999023438</ele>
        <time>2014-02-12T12:42:41.000Z</time>
      </trkpt>
      <trkpt lat="45.91484" lon="6.50981">
        <ele>2283.3999023438</ele>
        <time>2014-02-12T12:42:42.000Z</time>
      </trkpt>
      <trkpt lat="45.91484" lon="6.50981">
        <ele>2283.3999023438</ele>
        <time>2014-02-12T12:42:43.000Z</time>
      </trkpt>
      <trkpt lat="45.91484" lon="6.50981">
        <ele>2283.3999023438</ele>
        <time>2014-02-12T12:42:44.000Z</time>
      </trkpt>
      <trkpt lat="45.91484" lon="6.50981">
        <ele>2283.3999023438</ele>
        <time>2014-02-12T12:42:45.000Z</time>
      </trkpt>
      <trkpt lat="45.91484" lon="6.50981">
        <ele>2283.3999023438</ele>
        <time>2014-02-12T12:42:46.000Z</time>
      </trkpt>
      <trkpt lat="45.91485" lon="6.50982">
        <ele>2283.8000488281</ele>
        <time>2014-02-12T12:42:47.000Z</time>
      </trkpt>
      <trkpt lat="45.91485" lon="6.50982">
        <ele>2284</ele>
        <time>2014-02-12T12:42:48.000Z</time>
      </trkpt>
      <trkpt lat="45.91486" lon="6.50983">
        <ele>2284.6000976562</ele>
        <time>2014-02-12T12:42:49.000Z</time>
      </trkpt>
      <trkpt lat="45.91486" lon="6.50983">
        <ele>2284.8000488281</ele>
        <time>2014-02-12T12:42:50.000Z</time>
      </trkpt>
      <trkpt lat="45.91487" lon="6.50983">
        <ele>2285</ele>
        <time>2014-02-12T12:42:51.000Z</time>
      </trkpt>
      <trkpt lat="45.91487" lon="6.50983">
        <ele>2285</ele>
        <time>2014-02-12T12:42:52.000Z</time>
      </trkpt>
      <trkpt lat="45.91487" lon="6.50983">
        <ele>2285</ele>
        <time>2014-02-12T12:42:53.000Z</time>
      </trkpt>
      <trkpt lat="45.91487" lon="6.50983">
        <ele>2285</ele>
        <time>2014-02-12T12:42:54.000Z</time>
      </trkpt>
      <trkpt lat="45.91487" lon="6.50983">
        <ele>2285</ele>
        <time>2014-02-12T12:42:55.000Z</time>
      </trkpt>
      <trkpt lat="45.91487" lon="6.50984">
        <ele>2285</ele>
        <time>2014-02-12T12:42:56.000Z</time>
      </trkpt>
      <trkpt lat="45.91486" lon="6.50983">
        <ele>2284.8000488281</ele>
        <time>2014-02-12T12:42:57.000Z</time>
      </trkpt>
      <trkpt lat="45.91486" lon="6.50983">
        <ele>2284.8000488281</ele>
        <time>2014-02-12T12:42:58.000Z</time>
      </trkpt>
      <trkpt lat="45.91486" lon="6.50983">
        <ele>2284.8000488281</ele>
        <time>2014-02-12T12:42:59.000Z</time>
      </trkpt>
      <trkpt lat="45.91486" lon="6.50983">
        <ele>2284.8000488281</ele>
        <time>2014-02-12T12:43:00.000Z</time>
      </trkpt>
      <trkpt lat="45.91485" lon="6.50984">
        <ele>2284.8000488281</ele>
        <time>2014-02-12T12:43:01.000Z</time>
      </trkpt>
      <trkpt lat="45.91485" lon="6.50984">
        <ele>2284.8000488281</ele>
        <time>2014-02-12T12:43:02.000Z</time>
      </trkpt>
      <trkpt lat="45.91485" lon="6.50984">
        <ele>2285</ele>
        <time>2014-02-12T12:43:03.000Z</time>
      </trkpt>
      <trkpt lat="45.91484" lon="6.50985">
        <ele>2285.1999511719</ele>
        <time>2014-02-12T12:43:04.000Z</time>
      </trkpt>
      <trkpt lat="45.91483" lon="6.50986">
        <ele>2285.6000976562</ele>
        <time>2014-02-12T12:43:06.000Z</time>
      </trkpt>
      <trkpt lat="45.91482" lon="6.50987">
        <ele>2285.8000488281</ele>
        <time>2014-02-12T12:43:07.000Z</time>
      </trkpt>
      <trkpt lat="45.91482" lon="6.50987">
        <ele>2286</ele>
        <time>2014-02-12T12:43:08.000Z</time>
      </trkpt>
      <trkpt lat="45.91482" lon="6.50988">
        <ele>2286.3999023438</ele>
        <time>2014-02-12T12:43:09.000Z</time>
      </trkpt>
      <trkpt lat="45.91481" lon="6.50989">
        <ele>2286.8000488281</ele>
        <time>2014-02-12T12:43:13.000Z</time>
      </trkpt>
      <trkpt lat="45.91481" lon="6.5099">
        <ele>2287.1999511719</ele>
        <time>2014-02-12T12:43:14.000Z</time>
      </trkpt>
      <trkpt lat="45.91482" lon="6.5099">
        <ele>2287.3999023438</ele>
        <time>2014-02-12T12:43:15.000Z</time>
      </trkpt>
      <trkpt lat="45.91482" lon="6.5099">
        <ele>2287.3999023438</ele>
        <time>2014-02-12T12:43:16.000Z</time>
      </trkpt>
      <trkpt lat="45.91482" lon="6.50991">
        <ele>2287.8000488281</ele>
        <time>2014-02-12T12:43:17.000Z</time>
      </trkpt>
      <trkpt lat="45.91483" lon="6.50991">
        <ele>2288.1999511719</ele>
        <time>2014-02-12T12:43:18.000Z</time>
      </trkpt>
      <trkpt lat="45.91484" lon="6.50991">
        <ele>2288.6000976562</ele>
        <time>2014-02-12T12:43:19.000Z</time>
      </trkpt>
      <trkpt lat="45.91484" lon="6.50992">
        <ele>2289</ele>
        <time>2014-02-12T12:43:20.000Z</time>
      </trkpt>
      <trkpt lat="45.91485" lon="6.50993">
        <ele>2289.6000976562</ele>
        <time>2014-02-12T12:43:21.000Z</time>
      </trkpt>
      <trkpt lat="45.91485" lon="6.50993">
        <ele>2289.6000976562</ele>
        <time>2014-02-12T12:43:22.000Z</time>
      </trkpt>
      <trkpt lat="45.91486" lon="6.50993">
        <ele>2290</ele>
        <time>2014-02-12T12:43:23.000Z</time>
      </trkpt>
      <trkpt lat="45.91486" lon="6.50993">
        <ele>2290</ele>
        <time>2014-02-12T12:43:24.000Z</time>
      </trkpt>
      <trkpt lat="45.91486" lon="6.50993">
        <ele>2290</ele>
        <time>2014-02-12T12:43:25.000Z</time>
      </trkpt>
      <trkpt lat="45.91486" lon="6.50993">
        <ele>2290</ele>
        <time>2014-02-12T12:43:26.000Z</time>
      </trkpt>
      <trkpt lat="45.91486" lon="6.50993">
        <ele>2290</ele>
        <time>2014-02-12T12:43:27.000Z</time>
      </trkpt>
      <trkpt lat="45.91486" lon="6.50993">
        <ele>2290</ele>
        <time>2014-02-12T12:43:28.000Z</time>
      </trkpt>
      <trkpt lat="45.91486" lon="6.50993">
        <ele>2290</ele>
        <time>2014-02-12T12:43:29.000Z</time>
      </trkpt>
      <trkpt lat="45.91486" lon="6.50993">
        <ele>2290</ele>
        <time>2014-02-12T12:43:30.000Z</time>
      </trkpt>
      <trkpt lat="45.91485" lon="6.50993">
        <ele>2290.1999511719</ele>
        <time>2014-02-12T12:43:31.000Z</time>
      </trkpt>
      <trkpt lat="45.91485" lon="6.50994">
        <ele>2290</ele>
        <time>2014-02-12T12:43:32.000Z</time>
      </trkpt>
      <trkpt lat="45.91485" lon="6.50994">
        <ele>2290</ele>
        <time>2014-02-12T12:43:33.000Z</time>
      </trkpt>
      <trkpt lat="45.91485" lon="6.50994">
        <ele>2290.3999023438</ele>
        <time>2014-02-12T12:43:34.000Z</time>
      </trkpt>
      <trkpt lat="45.91485" lon="6.50995">
        <ele>2290.8000488281</ele>
        <time>2014-02-12T12:43:35.000Z</time>
      </trkpt>
      <trkpt lat="45.91485" lon="6.50995">
        <ele>2290.8000488281</ele>
        <time>2014-02-12T12:43:36.000Z</time>
      </trkpt>
      <trkpt lat="45.91484" lon="6.50996">
        <ele>2291.1999511719</ele>
        <time>2014-02-12T12:43:37.000Z</time>
      </trkpt>
      <trkpt lat="45.91484" lon="6.50998">
        <ele>2291.6000976562</ele>
        <time>2014-02-12T12:43:38.000Z</time>
      </trkpt>
      <trkpt lat="45.91483" lon="6.50999">
        <ele>2291.8000488281</ele>
        <time>2014-02-12T12:43:39.000Z</time>
      </trkpt>
      <trkpt lat="45.91483" lon="6.50999">
        <ele>2292</ele>
        <time>2014-02-12T12:43:40.000Z</time>
      </trkpt>
      <trkpt lat="45.91482" lon="6.51">
        <ele>2292.1999511719</ele>
        <time>2014-02-12T12:43:41.000Z</time>
      </trkpt>
      <trkpt lat="45.91482" lon="6.51001">
        <ele>2292.3999023438</ele>
        <time>2014-02-12T12:43:42.000Z</time>
      </trkpt>
      <trkpt lat="45.91481" lon="6.51001">
        <ele>2292.3999023438</ele>
        <time>2014-02-12T12:43:43.000Z</time>
      </trkpt>
      <trkpt lat="45.91481" lon="6.51002">
        <ele>2292.6000976562</ele>
        <time>2014-02-12T12:43:44.000Z</time>
      </trkpt>
      <trkpt lat="45.91481" lon="6.51002">
        <ele>2292.6000976562</ele>
        <time>2014-02-12T12:43:45.000Z</time>
      </trkpt>
      <trkpt lat="45.91481" lon="6.51002">
        <ele>2292.6000976562</ele>
        <time>2014-02-12T12:43:46.000Z</time>
      </trkpt>
      <trkpt lat="45.91481" lon="6.51002">
        <ele>2292.6000976562</ele>
        <time>2014-02-12T12:43:47.000Z</time>
      </trkpt>
      <trkpt lat="45.91481" lon="6.51002">
        <ele>2292.6000976562</ele>
        <time>2014-02-12T12:43:48.000Z</time>
      </trkpt>
      <trkpt lat="45.91481" lon="6.51002">
        <ele>2292.6000976562</ele>
        <time>2014-02-12T12:43:49.000Z</time>
      </trkpt>
      <trkpt lat="45.91481" lon="6.51002">
        <ele>2292.8000488281</ele>
        <time>2014-02-12T12:43:50.000Z</time>
      </trkpt>
      <trkpt lat="45.91481" lon="6.51003">
        <ele>2293</ele>
        <time>2014-02-12T12:43:51.000Z</time>
      </trkpt>
      <trkpt lat="45.91481" lon="6.51003">
        <ele>2293</ele>
        <time>2014-02-12T12:43:52.000Z</time>
      </trkpt>
      <trkpt lat="45.91482" lon="6.51003">
        <ele>2293.1999511719</ele>
        <time>2014-02-12T12:43:53.000Z</time>
      </trkpt>
      <trkpt lat="45.91482" lon="6.51003">
        <ele>2293.3999023438</ele>
        <time>2014-02-12T12:43:54.000Z</time>
      </trkpt>
      <trkpt lat="45.91483" lon="6.51003">
        <ele>2293.8000488281</ele>
        <time>2014-02-12T12:43:55.000Z</time>
      </trkpt>
      <trkpt lat="45.91484" lon="6.51004">
        <ele>2294.3999023438</ele>
        <time>2014-02-12T12:43:56.000Z</time>
      </trkpt>
      <trkpt lat="45.91485" lon="6.51004">
        <ele>2294.8000488281</ele>
        <time>2014-02-12T12:43:57.000Z</time>
      </trkpt>
      <trkpt lat="45.91485" lon="6.51004">
        <ele>2295.1999511719</ele>
        <time>2014-02-12T12:43:58.000Z</time>
      </trkpt>
      <trkpt lat="45.91486" lon="6.51004">
        <ele>2295.1999511719</ele>
        <time>2014-02-12T12:43:59.000Z</time>
      </trkpt>
      <trkpt lat="45.91487" lon="6.51004">
        <ele>2295.3999023438</ele>
        <time>2014-02-12T12:44:00.000Z</time>
      </trkpt>
      <trkpt lat="45.91487" lon="6.51004">
        <ele>2295.3999023438</ele>
        <time>2014-02-12T12:44:01.000Z</time>
      </trkpt>
      <trkpt lat="45.91487" lon="6.51004">
        <ele>2295.6000976562</ele>
        <time>2014-02-12T12:44:02.000Z</time>
      </trkpt>
      <trkpt lat="45.91488" lon="6.51004">
        <ele>2296</ele>
        <time>2014-02-12T12:44:03.000Z</time>
      </trkpt>
      <trkpt lat="45.91488" lon="6.51004">
        <ele>2296</ele>
        <time>2014-02-12T12:44:04.000Z</time>
      </trkpt>
      <trkpt lat="45.91488" lon="6.51005">
        <ele>2296.3999023438</ele>
        <time>2014-02-12T12:44:05.000Z</time>
      </trkpt>
      <trkpt lat="45.91488" lon="6.51005">
        <ele>2296.6000976562</ele>
        <time>2014-02-12T12:44:06.000Z</time>
      </trkpt>
      <trkpt lat="45.91489" lon="6.51006">
        <ele>2297</ele>
        <time>2014-02-12T12:44:07.000Z</time>
      </trkpt>
      <trkpt lat="45.91489" lon="6.51006">
        <ele>2297.1999511719</ele>
        <time>2014-02-12T12:44:08.000Z</time>
      </trkpt>
      <trkpt lat="45.91489" lon="6.51007">
        <ele>2297.6000976562</ele>
        <time>2014-02-12T12:44:09.000Z</time>
      </trkpt>
      <trkpt lat="45.9149" lon="6.51008">
        <ele>2298.3999023438</ele>
        <time>2014-02-12T12:44:10.000Z</time>
      </trkpt>
      <trkpt lat="45.9149" lon="6.51008">
        <ele>2298.6000976562</ele>
        <time>2014-02-12T12:44:11.000Z</time>
      </trkpt>
      <trkpt lat="45.9149" lon="6.51008">
        <ele>2298.6000976562</ele>
        <time>2014-02-12T12:44:12.000Z</time>
      </trkpt>
      <trkpt lat="45.9149" lon="6.51008">
        <ele>2298.6000976562</ele>
        <time>2014-02-12T12:44:13.000Z</time>
      </trkpt>
      <trkpt lat="45.9149" lon="6.51008">
        <ele>2298.6000976562</ele>
        <time>2014-02-12T12:44:14.000Z</time>
      </trkpt>
      <trkpt lat="45.9149" lon="6.51008">
        <ele>2298.6000976562</ele>
        <time>2014-02-12T12:44:15.000Z</time>
      </trkpt>
      <trkpt lat="45.9149" lon="6.51008">
        <ele>2298.6000976562</ele>
        <time>2014-02-12T12:44:16.000Z</time>
      </trkpt>
      <trkpt lat="45.9149" lon="6.51008">
        <ele>2298.6000976562</ele>
        <time>2014-02-12T12:44:17.000Z</time>
      </trkpt>
      <trkpt lat="45.9149" lon="6.51008">
        <ele>2298.3999023438</ele>
        <time>2014-02-12T12:44:18.000Z</time>
      </trkpt>
      <trkpt lat="45.9149" lon="6.51008">
        <ele>2298.3999023438</ele>
        <time>2014-02-12T12:44:19.000Z</time>
      </trkpt>
      <trkpt lat="45.9149" lon="6.51008">
        <ele>2298.3999023438</ele>
        <time>2014-02-12T12:44:20.000Z</time>
      </trkpt>
      <trkpt lat="45.9149" lon="6.51009">
        <ele>2298.6000976562</ele>
        <time>2014-02-12T12:44:21.000Z</time>
      </trkpt>
      <trkpt lat="45.91489" lon="6.51009">
        <ele>2298.6000976562</ele>
        <time>2014-02-12T12:44:22.000Z</time>
      </trkpt>
      <trkpt lat="45.91489" lon="6.51009">
        <ele>2298.6000976562</ele>
        <time>2014-02-12T12:44:23.000Z</time>
      </trkpt>
      <trkpt lat="45.91489" lon="6.51009">
        <ele>2298.6000976562</ele>
        <time>2014-02-12T12:44:24.000Z</time>
      </trkpt>
      <trkpt lat="45.91489" lon="6.5101">
        <ele>2298.6000976562</ele>
        <time>2014-02-12T12:44:25.000Z</time>
      </trkpt>
      <trkpt lat="45.91488" lon="6.5101">
        <ele>2298.6000976562</ele>
        <time>2014-02-12T12:44:26.000Z</time>
      </trkpt>
      <trkpt lat="45.91488" lon="6.51011">
        <ele>2298.8000488281</ele>
        <time>2014-02-12T12:44:27.000Z</time>
      </trkpt>
      <trkpt lat="45.91487" lon="6.51011">
        <ele>2298.8000488281</ele>
        <time>2014-02-12T12:44:28.000Z</time>
      </trkpt>
      <trkpt lat="45.91487" lon="6.51012">
        <ele>2298.8000488281</ele>
        <time>2014-02-12T12:44:29.000Z</time>
      </trkpt>
      <trkpt lat="45.91486" lon="6.51012">
        <ele>2298.8000488281</ele>
        <time>2014-02-12T12:44:30.000Z</time>
      </trkpt>
      <trkpt lat="45.91485" lon="6.51012">
        <ele>2298.6000976562</ele>
        <time>2014-02-12T12:44:31.000Z</time>
      </trkpt>
      <trkpt lat="45.91485" lon="6.51013">
        <ele>2298.6000976562</ele>
        <time>2014-02-12T12:44:32.000Z</time>
      </trkpt>
      <trkpt lat="45.91484" lon="6.51013">
        <ele>2298.6000976562</ele>
        <time>2014-02-12T12:44:33.000Z</time>
      </trkpt>
      <trkpt lat="45.91483" lon="6.51013">
        <ele>2298.3999023438</ele>
        <time>2014-02-12T12:44:34.000Z</time>
      </trkpt>
      <trkpt lat="45.91482" lon="6.51014">
        <ele>2298.3999023438</ele>
        <time>2014-02-12T12:44:35.000Z</time>
      </trkpt>
      <trkpt lat="45.91482" lon="6.51014">
        <ele>2298.3999023438</ele>
        <time>2014-02-12T12:44:36.000Z</time>
      </trkpt>
      <trkpt lat="45.91481" lon="6.51014">
        <ele>2298.1999511719</ele>
        <time>2014-02-12T12:44:37.000Z</time>
      </trkpt>
      <trkpt lat="45.91481" lon="6.51014">
        <ele>2298</ele>
        <time>2014-02-12T12:44:38.000Z</time>
      </trkpt>
      <trkpt lat="45.9148" lon="6.51014">
        <ele>2298</ele>
        <time>2014-02-12T12:44:39.000Z</time>
      </trkpt>
      <trkpt lat="45.9148" lon="6.51015">
        <ele>2298</ele>
        <time>2014-02-12T12:44:40.000Z</time>
      </trkpt>
      <trkpt lat="45.9148" lon="6.51015">
        <ele>2298.1999511719</ele>
        <time>2014-02-12T12:44:41.000Z</time>
      </trkpt>
      <trkpt lat="45.9148" lon="6.51015">
        <ele>2298</ele>
        <time>2014-02-12T12:44:42.000Z</time>
      </trkpt>
      <trkpt lat="45.9148" lon="6.51015">
        <ele>2298</ele>
        <time>2014-02-12T12:44:43.000Z</time>
      </trkpt>
      <trkpt lat="45.91479" lon="6.51016">
        <ele>2298.1999511719</ele>
        <time>2014-02-12T12:44:44.000Z</time>
      </trkpt>
      <trkpt lat="45.91479" lon="6.51017">
        <ele>2298.8000488281</ele>
        <time>2014-02-12T12:44:46.000Z</time>
      </trkpt>
      <trkpt lat="45.91479" lon="6.51017">
        <ele>2298.8000488281</ele>
        <time>2014-02-12T12:44:47.000Z</time>
      </trkpt>
      <trkpt lat="45.91479" lon="6.51018">
        <ele>2299</ele>
        <time>2014-02-12T12:44:48.000Z</time>
      </trkpt>
      <trkpt lat="45.91479" lon="6.51018">
        <ele>2299</ele>
        <time>2014-02-12T12:44:49.000Z</time>
      </trkpt>
      <trkpt lat="45.91479" lon="6.51018">
        <ele>2299</ele>
        <time>2014-02-12T12:44:50.000Z</time>
      </trkpt>
      <trkpt lat="45.91479" lon="6.51018">
        <ele>2299</ele>
        <time>2014-02-12T12:44:51.000Z</time>
      </trkpt>
      <trkpt lat="45.91479" lon="6.51018">
        <ele>2299</ele>
        <time>2014-02-12T12:44:52.000Z</time>
      </trkpt>
      <trkpt lat="45.91479" lon="6.51019">
        <ele>2299.1999511719</ele>
        <time>2014-02-12T12:44:53.000Z</time>
      </trkpt>
      <trkpt lat="45.91479" lon="6.51019">
        <ele>2299.1999511719</ele>
        <time>2014-02-12T12:44:54.000Z</time>
      </trkpt>
      <trkpt lat="45.91478" lon="6.5102">
        <ele>2299.6000976562</ele>
        <time>2014-02-12T12:44:55.000Z</time>
      </trkpt>
      <trkpt lat="45.91478" lon="6.5102">
        <ele>2299.6000976562</ele>
        <time>2014-02-12T12:44:56.000Z</time>
      </trkpt>
      <trkpt lat="45.91478" lon="6.51021">
        <ele>2299.8000488281</ele>
        <time>2014-02-12T12:44:57.000Z</time>
      </trkpt>
      <trkpt lat="45.91478" lon="6.51021">
        <ele>2299.8000488281</ele>
        <time>2014-02-12T12:44:58.000Z</time>
      </trkpt>
      <trkpt lat="45.91477" lon="6.51022">
        <ele>2300.1999511719</ele>
        <time>2014-02-12T12:44:59.000Z</time>
      </trkpt>
      <trkpt lat="45.91478" lon="6.51024">
        <ele>2301</ele>
        <time>2014-02-12T12:45:00.000Z</time>
      </trkpt>
      <trkpt lat="45.91478" lon="6.51024">
        <ele>2301</ele>
        <time>2014-02-12T12:45:01.000Z</time>
      </trkpt>
      <trkpt lat="45.91478" lon="6.51024">
        <ele>2301</ele>
        <time>2014-02-12T12:45:02.000Z</time>
      </trkpt>
      <trkpt lat="45.91478" lon="6.51024">
        <ele>2301</ele>
        <time>2014-02-12T12:45:03.000Z</time>
      </trkpt>
      <trkpt lat="45.91478" lon="6.51024">
        <ele>2301</ele>
        <time>2014-02-12T12:45:04.000Z</time>
      </trkpt>
      <trkpt lat="45.91478" lon="6.51024">
        <ele>2301</ele>
        <time>2014-02-12T12:45:05.000Z</time>
      </trkpt>
      <trkpt lat="45.91478" lon="6.51024">
        <ele>2301</ele>
        <time>2014-02-12T12:45:06.000Z</time>
      </trkpt>
      <trkpt lat="45.91478" lon="6.51023">
        <ele>2301</ele>
        <time>2014-02-12T12:45:07.000Z</time>
      </trkpt>
      <trkpt lat="45.91479" lon="6.51022">
        <ele>2301.1999511719</ele>
        <time>2014-02-12T12:45:08.000Z</time>
      </trkpt>
      <trkpt lat="45.9148" lon="6.51023">
        <ele>2301.6000976562</ele>
        <time>2014-02-12T12:45:09.000Z</time>
      </trkpt>
      <trkpt lat="45.91481" lon="6.51023">
        <ele>2302</ele>
        <time>2014-02-12T12:45:10.000Z</time>
      </trkpt>
      <trkpt lat="45.91482" lon="6.51023">
        <ele>2302.6000976562</ele>
        <time>2014-02-12T12:45:11.000Z</time>
      </trkpt>
      <trkpt lat="45.91483" lon="6.51024">
        <ele>2303</ele>
        <time>2014-02-12T12:45:12.000Z</time>
      </trkpt>
      <trkpt lat="45.91484" lon="6.51024">
        <ele>2303.3999023438</ele>
        <time>2014-02-12T12:45:13.000Z</time>
      </trkpt>
      <trkpt lat="45.91484" lon="6.51024">
        <ele>2303.6000976562</ele>
        <time>2014-02-12T12:45:14.000Z</time>
      </trkpt>
      <trkpt lat="45.91485" lon="6.51024">
        <ele>2303.8000488281</ele>
        <time>2014-02-12T12:45:15.000Z</time>
      </trkpt>
      <trkpt lat="45.91485" lon="6.51024">
        <ele>2304</ele>
        <time>2014-02-12T12:45:16.000Z</time>
      </trkpt>
      <trkpt lat="45.91486" lon="6.51024">
        <ele>2304.1999511719</ele>
        <time>2014-02-12T12:45:17.000Z</time>
      </trkpt>
      <trkpt lat="45.91486" lon="6.51025">
        <ele>2304.3999023438</ele>
        <time>2014-02-12T12:45:18.000Z</time>
      </trkpt>
      <trkpt lat="45.91487" lon="6.51025">
        <ele>2304.6000976562</ele>
        <time>2014-02-12T12:45:19.000Z</time>
      </trkpt>
      <trkpt lat="45.91487" lon="6.51025">
        <ele>2305</ele>
        <time>2014-02-12T12:45:20.000Z</time>
      </trkpt>
      <trkpt lat="45.91487" lon="6.51025">
        <ele>2305</ele>
        <time>2014-02-12T12:45:21.000Z</time>
      </trkpt>
      <trkpt lat="45.91487" lon="6.51025">
        <ele>2305</ele>
        <time>2014-02-12T12:45:22.000Z</time>
      </trkpt>
      <trkpt lat="45.91487" lon="6.51026">
        <ele>2305</ele>
        <time>2014-02-12T12:45:23.000Z</time>
      </trkpt>
      <trkpt lat="45.91487" lon="6.51026">
        <ele>2305</ele>
        <time>2014-02-12T12:45:24.000Z</time>
      </trkpt>
      <trkpt lat="45.91487" lon="6.51026">
        <ele>2305</ele>
        <time>2014-02-12T12:45:25.000Z</time>
      </trkpt>
      <trkpt lat="45.91487" lon="6.51026">
        <ele>2305</ele>
        <time>2014-02-12T12:45:26.000Z</time>
      </trkpt>
      <trkpt lat="45.91487" lon="6.51026">
        <ele>2305.6000976562</ele>
        <time>2014-02-12T12:45:27.000Z</time>
      </trkpt>
      <trkpt lat="45.91487" lon="6.51026">
        <ele>2305.6000976562</ele>
        <time>2014-02-12T12:45:28.000Z</time>
      </trkpt>
      <trkpt lat="45.91488" lon="6.51028">
        <ele>2306.3999023438</ele>
        <time>2014-02-12T12:45:29.000Z</time>
      </trkpt>
      <trkpt lat="45.91488" lon="6.51028">
        <ele>2306.3999023438</ele>
        <time>2014-02-12T12:45:30.000Z</time>
      </trkpt>
      <trkpt lat="45.91488" lon="6.51029">
        <ele>2307</ele>
        <time>2014-02-12T12:45:31.000Z</time>
      </trkpt>
      <trkpt lat="45.9149" lon="6.51029">
        <ele>2307.6000976562</ele>
        <time>2014-02-12T12:45:32.000Z</time>
      </trkpt>
      <trkpt lat="45.9149" lon="6.5103">
        <ele>2308</ele>
        <time>2014-02-12T12:45:33.000Z</time>
      </trkpt>
      <trkpt lat="45.91491" lon="6.51031">
        <ele>2308.6000976562</ele>
        <time>2014-02-12T12:45:34.000Z</time>
      </trkpt>
      <trkpt lat="45.91491" lon="6.51031">
        <ele>2308.8000488281</ele>
        <time>2014-02-12T12:45:35.000Z</time>
      </trkpt>
      <trkpt lat="45.91492" lon="6.51031">
        <ele>2309.3999023438</ele>
        <time>2014-02-12T12:45:36.000Z</time>
      </trkpt>
      <trkpt lat="45.91493" lon="6.51031">
        <ele>2309.6000976562</ele>
        <time>2014-02-12T12:45:37.000Z</time>
      </trkpt>
      <trkpt lat="45.91494" lon="6.51032">
        <ele>2310.1999511719</ele>
        <time>2014-02-12T12:45:38.000Z</time>
      </trkpt>
      <trkpt lat="45.91494" lon="6.51032">
        <ele>2310.3999023438</ele>
        <time>2014-02-12T12:45:39.000Z</time>
      </trkpt>
      <trkpt lat="45.91494" lon="6.51032">
        <ele>2310.3999023438</ele>
        <time>2014-02-12T12:45:40.000Z</time>
      </trkpt>
      <trkpt lat="45.91494" lon="6.51032">
        <ele>2310.3999023438</ele>
        <time>2014-02-12T12:45:41.000Z</time>
      </trkpt>
      <trkpt lat="45.91494" lon="6.51032">
        <ele>2310.3999023438</ele>
        <time>2014-02-12T12:45:43.000Z</time>
      </trkpt>
      <trkpt lat="45.91494" lon="6.51032">
        <ele>2310.3999023438</ele>
        <time>2014-02-12T12:45:44.000Z</time>
      </trkpt>
      <trkpt lat="45.91494" lon="6.51032">
        <ele>2310.3999023438</ele>
        <time>2014-02-12T12:45:45.000Z</time>
      </trkpt>
      <trkpt lat="45.91494" lon="6.51032">
        <ele>2310.3999023438</ele>
        <time>2014-02-12T12:45:46.000Z</time>
      </trkpt>
      <trkpt lat="45.91494" lon="6.51032">
        <ele>2310.3999023438</ele>
        <time>2014-02-12T12:45:47.000Z</time>
      </trkpt>
      <trkpt lat="45.91494" lon="6.51032">
        <ele>2310.3999023438</ele>
        <time>2014-02-12T12:45:48.000Z</time>
      </trkpt>
      <trkpt lat="45.91494" lon="6.51033">
        <ele>2310.8000488281</ele>
        <time>2014-02-12T12:45:49.000Z</time>
      </trkpt>
      <trkpt lat="45.91494" lon="6.51033">
        <ele>2310.8000488281</ele>
        <time>2014-02-12T12:45:50.000Z</time>
      </trkpt>
      <trkpt lat="45.91494" lon="6.51033">
        <ele>2310.8000488281</ele>
        <time>2014-02-12T12:45:51.000Z</time>
      </trkpt>
      <trkpt lat="45.91495" lon="6.51034">
        <ele>2311.3999023438</ele>
        <time>2014-02-12T12:45:52.000Z</time>
      </trkpt>
      <trkpt lat="45.91495" lon="6.51034">
        <ele>2311.3999023438</ele>
        <time>2014-02-12T12:45:53.000Z</time>
      </trkpt>
      <trkpt lat="45.91495" lon="6.51036">
        <ele>2312.1999511719</ele>
        <time>2014-02-12T12:45:54.000Z</time>
      </trkpt>
      <trkpt lat="45.91495" lon="6.51036">
        <ele>2312.6000976562</ele>
        <time>2014-02-12T12:45:55.000Z</time>
      </trkpt>
      <trkpt lat="45.91495" lon="6.51036">
        <ele>2312.6000976562</ele>
        <time>2014-02-12T12:45:56.000Z</time>
      </trkpt>
      <trkpt lat="45.91495" lon="6.51036">
        <ele>2312.6000976562</ele>
        <time>2014-02-12T12:45:57.000Z</time>
      </trkpt>
      <trkpt lat="45.91495" lon="6.51036">
        <ele>2312.6000976562</ele>
        <time>2014-02-12T12:45:58.000Z</time>
      </trkpt>
      <trkpt lat="45.91495" lon="6.51036">
        <ele>2312.6000976562</ele>
        <time>2014-02-12T12:45:59.000Z</time>
      </trkpt>
      <trkpt lat="45.91495" lon="6.51036">
        <ele>2312.6000976562</ele>
        <time>2014-02-12T12:46:00.000Z</time>
      </trkpt>
      <trkpt lat="45.91495" lon="6.51036">
        <ele>2312.6000976562</ele>
        <time>2014-02-12T12:46:01.000Z</time>
      </trkpt>
      <trkpt lat="45.91495" lon="6.51036">
        <ele>2312.6000976562</ele>
        <time>2014-02-12T12:46:02.000Z</time>
      </trkpt>
      <trkpt lat="45.91495" lon="6.51036">
        <ele>2312.6000976562</ele>
        <time>2014-02-12T12:46:03.000Z</time>
      </trkpt>
      <trkpt lat="45.91495" lon="6.51036">
        <ele>2312.6000976562</ele>
        <time>2014-02-12T12:46:04.000Z</time>
      </trkpt>
      <trkpt lat="45.91495" lon="6.51036">
        <ele>2312.6000976562</ele>
        <time>2014-02-12T12:46:05.000Z</time>
      </trkpt>
      <trkpt lat="45.91495" lon="6.51036">
        <ele>2312.6000976562</ele>
        <time>2014-02-12T12:46:06.000Z</time>
      </trkpt>
      <trkpt lat="45.91495" lon="6.51036">
        <ele>2312.6000976562</ele>
        <time>2014-02-12T12:46:07.000Z</time>
      </trkpt>
      <trkpt lat="45.91495" lon="6.51036">
        <ele>2312.6000976562</ele>
        <time>2014-02-12T12:46:08.000Z</time>
      </trkpt>
      <trkpt lat="45.91495" lon="6.51036">
        <ele>2312.6000976562</ele>
        <time>2014-02-12T12:46:09.000Z</time>
      </trkpt>
      <trkpt lat="45.91495" lon="6.51036">
        <ele>2312.6000976562</ele>
        <time>2014-02-12T12:46:10.000Z</time>
      </trkpt>
      <trkpt lat="45.91494" lon="6.51036">
        <ele>2312</ele>
        <time>2014-02-12T12:46:11.000Z</time>
      </trkpt>
      <trkpt lat="45.91494" lon="6.51036">
        <ele>2312</ele>
        <time>2014-02-12T12:46:12.000Z</time>
      </trkpt>
      <trkpt lat="45.91493" lon="6.51036">
        <ele>2312</ele>
        <time>2014-02-12T12:46:13.000Z</time>
      </trkpt>
      <trkpt lat="45.91493" lon="6.51036">
        <ele>2311.8000488281</ele>
        <time>2014-02-12T12:46:14.000Z</time>
      </trkpt>
      <trkpt lat="45.91493" lon="6.51036">
        <ele>2311.8000488281</ele>
        <time>2014-02-12T12:46:15.000Z</time>
      </trkpt>
      <trkpt lat="45.91492" lon="6.51036">
        <ele>2311.6000976562</ele>
        <time>2014-02-12T12:46:16.000Z</time>
      </trkpt>
      <trkpt lat="45.91492" lon="6.51036">
        <ele>2311.6000976562</ele>
        <time>2014-02-12T12:46:17.000Z</time>
      </trkpt>
      <trkpt lat="45.91491" lon="6.51037">
        <ele>2311.6000976562</ele>
        <time>2014-02-12T12:46:18.000Z</time>
      </trkpt>
      <trkpt lat="45.91491" lon="6.51037">
        <ele>2311.6000976562</ele>
        <time>2014-02-12T12:46:19.000Z</time>
      </trkpt>
      <trkpt lat="45.91491" lon="6.51037">
        <ele>2311.6000976562</ele>
        <time>2014-02-12T12:46:20.000Z</time>
      </trkpt>
      <trkpt lat="45.91491" lon="6.51037">
        <ele>2311.6000976562</ele>
        <time>2014-02-12T12:46:21.000Z</time>
      </trkpt>
      <trkpt lat="45.91491" lon="6.51037">
        <ele>2311.6000976562</ele>
        <time>2014-02-12T12:46:22.000Z</time>
      </trkpt>
      <trkpt lat="45.91491" lon="6.51036">
        <ele>2311.1999511719</ele>
        <time>2014-02-12T12:46:23.000Z</time>
      </trkpt>
      <trkpt lat="45.91491" lon="6.51036">
        <ele>2311</ele>
        <time>2014-02-12T12:46:24.000Z</time>
      </trkpt>
      <trkpt lat="45.91491" lon="6.51036">
        <ele>2311</ele>
        <time>2014-02-12T12:46:25.000Z</time>
      </trkpt>
      <trkpt lat="45.91491" lon="6.51036">
        <ele>2311</ele>
        <time>2014-02-12T12:46:26.000Z</time>
      </trkpt>
      <trkpt lat="45.9149" lon="6.51035">
        <ele>2310.3999023438</ele>
        <time>2014-02-12T12:46:27.000Z</time>
      </trkpt>
      <trkpt lat="45.9149" lon="6.51035">
        <ele>2310.3999023438</ele>
        <time>2014-02-12T12:46:28.000Z</time>
      </trkpt>
      <trkpt lat="45.9149" lon="6.51035">
        <ele>2310.1999511719</ele>
        <time>2014-02-12T12:46:29.000Z</time>
      </trkpt>
      <trkpt lat="45.9149" lon="6.51035">
        <ele>2310.1999511719</ele>
        <time>2014-02-12T12:46:30.000Z</time>
      </trkpt>
      <trkpt lat="45.9149" lon="6.51035">
        <ele>2310.1999511719</ele>
        <time>2014-02-12T12:46:31.000Z</time>
      </trkpt>
      <trkpt lat="45.9149" lon="6.51035">
        <ele>2310.1999511719</ele>
        <time>2014-02-12T12:46:32.000Z</time>
      </trkpt>
      <trkpt lat="45.9149" lon="6.51035">
        <ele>2310.1999511719</ele>
        <time>2014-02-12T12:46:33.000Z</time>
      </trkpt>
      <trkpt lat="45.9149" lon="6.51035">
        <ele>2310.1999511719</ele>
        <time>2014-02-12T12:46:34.000Z</time>
      </trkpt>
      <trkpt lat="45.9149" lon="6.51035">
        <ele>2310.1999511719</ele>
        <time>2014-02-12T12:46:35.000Z</time>
      </trkpt>
      <trkpt lat="45.9149" lon="6.51035">
        <ele>2310.1999511719</ele>
        <time>2014-02-12T12:46:36.000Z</time>
      </trkpt>
      <trkpt lat="45.9149" lon="6.51035">
        <ele>2310.1999511719</ele>
        <time>2014-02-12T12:46:37.000Z</time>
      </trkpt>
      <trkpt lat="45.9149" lon="6.51035">
        <ele>2310.1999511719</ele>
        <time>2014-02-12T12:46:38.000Z</time>
      </trkpt>
      <trkpt lat="45.9149" lon="6.51035">
        <ele>2310.1999511719</ele>
        <time>2014-02-12T12:46:39.000Z</time>
      </trkpt>
      <trkpt lat="45.9149" lon="6.51036">
        <ele>2310.8000488281</ele>
        <time>2014-02-12T12:46:40.000Z</time>
      </trkpt>
      <trkpt lat="45.9149" lon="6.51036">
        <ele>2310.8000488281</ele>
        <time>2014-02-12T12:46:41.000Z</time>
      </trkpt>
      <trkpt lat="45.9149" lon="6.51038">
        <ele>2311.6000976562</ele>
        <time>2014-02-12T12:46:42.000Z</time>
      </trkpt>
      <trkpt lat="45.9149" lon="6.5104">
        <ele>2312.6000976562</ele>
        <time>2014-02-12T12:46:43.000Z</time>
      </trkpt>
      <trkpt lat="45.91489" lon="6.51042">
        <ele>2313.1999511719</ele>
        <time>2014-02-12T12:46:44.000Z</time>
      </trkpt>
      <trkpt lat="45.91489" lon="6.51044">
        <ele>2313.8000488281</ele>
        <time>2014-02-12T12:46:45.000Z</time>
      </trkpt>
      <trkpt lat="45.91489" lon="6.51045">
        <ele>2314.6000976562</ele>
        <time>2014-02-12T12:46:46.000Z</time>
      </trkpt>
      <trkpt lat="45.91489" lon="6.51047">
        <ele>2315.1999511719</ele>
        <time>2014-02-12T12:46:47.000Z</time>
      </trkpt>
      <trkpt lat="45.91489" lon="6.51047">
        <ele>2315.1999511719</ele>
        <time>2014-02-12T12:46:48.000Z</time>
      </trkpt>
      <trkpt lat="45.91489" lon="6.51047">
        <ele>2315.1999511719</ele>
        <time>2014-02-12T12:46:49.000Z</time>
      </trkpt>
      <trkpt lat="45.91489" lon="6.51047">
        <ele>2315.1999511719</ele>
        <time>2014-02-12T12:46:50.000Z</time>
      </trkpt>
      <trkpt lat="45.91489" lon="6.51047">
        <ele>2315.1999511719</ele>
        <time>2014-02-12T12:46:51.000Z</time>
      </trkpt>
      <trkpt lat="45.91489" lon="6.51047">
        <ele>2315.1999511719</ele>
        <time>2014-02-12T12:46:52.000Z</time>
      </trkpt>
      <trkpt lat="45.91489" lon="6.51047">
        <ele>2315.1999511719</ele>
        <time>2014-02-12T12:46:53.000Z</time>
      </trkpt>
      <trkpt lat="45.9149" lon="6.51047">
        <ele>2315.6000976562</ele>
        <time>2014-02-12T12:46:54.000Z</time>
      </trkpt>
      <trkpt lat="45.9149" lon="6.51047">
        <ele>2315.6000976562</ele>
        <time>2014-02-12T12:46:55.000Z</time>
      </trkpt>
      <trkpt lat="45.9149" lon="6.51047">
        <ele>2315.6000976562</ele>
        <time>2014-02-12T12:46:56.000Z</time>
      </trkpt>
      <trkpt lat="45.9149" lon="6.51047">
        <ele>2315.6000976562</ele>
        <time>2014-02-12T12:46:57.000Z</time>
      </trkpt>
      <trkpt lat="45.9149" lon="6.51047">
        <ele>2315.6000976562</ele>
        <time>2014-02-12T12:46:58.000Z</time>
      </trkpt>
      <trkpt lat="45.9149" lon="6.51047">
        <ele>2315.6000976562</ele>
        <time>2014-02-12T12:46:59.000Z</time>
      </trkpt>
      <trkpt lat="45.9149" lon="6.51048">
        <ele>2316.1999511719</ele>
        <time>2014-02-12T12:47:00.000Z</time>
      </trkpt>
      <trkpt lat="45.9149" lon="6.51048">
        <ele>2316.1999511719</ele>
        <time>2014-02-12T12:47:01.000Z</time>
      </trkpt>
      <trkpt lat="45.9149" lon="6.51049">
        <ele>2317</ele>
        <time>2014-02-12T12:47:02.000Z</time>
      </trkpt>
      <trkpt lat="45.9149" lon="6.51049">
        <ele>2317</ele>
        <time>2014-02-12T12:47:03.000Z</time>
      </trkpt>
      <trkpt lat="45.91491" lon="6.51051">
        <ele>2318</ele>
        <time>2014-02-12T12:47:04.000Z</time>
      </trkpt>
      <trkpt lat="45.91491" lon="6.51051">
        <ele>2318</ele>
        <time>2014-02-12T12:47:05.000Z</time>
      </trkpt>
      <trkpt lat="45.91492" lon="6.51053">
        <ele>2318.8000488281</ele>
        <time>2014-02-12T12:47:06.000Z</time>
      </trkpt>
      <trkpt lat="45.91492" lon="6.51054">
        <ele>2319.6000976562</ele>
        <time>2014-02-12T12:47:07.000Z</time>
      </trkpt>
      <trkpt lat="45.91492" lon="6.51055">
        <ele>2319.8000488281</ele>
        <time>2014-02-12T12:47:08.000Z</time>
      </trkpt>
      <trkpt lat="45.91493" lon="6.51056">
        <ele>2320.3999023438</ele>
        <time>2014-02-12T12:47:09.000Z</time>
      </trkpt>
      <trkpt lat="45.91493" lon="6.51056">
        <ele>2320.3999023438</ele>
        <time>2014-02-12T12:47:10.000Z</time>
      </trkpt>
      <trkpt lat="45.91493" lon="6.51056">
        <ele>2320.3999023438</ele>
        <time>2014-02-12T12:47:11.000Z</time>
      </trkpt>
      <trkpt lat="45.91494" lon="6.51057">
        <ele>2321.6000976562</ele>
        <time>2014-02-12T12:47:12.000Z</time>
      </trkpt>
      <trkpt lat="45.91494" lon="6.51057">
        <ele>2321.6000976562</ele>
        <time>2014-02-12T12:47:13.000Z</time>
      </trkpt>
      <trkpt lat="45.91494" lon="6.51059">
        <ele>2322.3999023438</ele>
        <time>2014-02-12T12:47:14.000Z</time>
      </trkpt>
      <trkpt lat="45.91495" lon="6.5106">
        <ele>2323.1999511719</ele>
        <time>2014-02-12T12:47:15.000Z</time>
      </trkpt>
      <trkpt lat="45.91495" lon="6.5106">
        <ele>2323.1999511719</ele>
        <time>2014-02-12T12:47:16.000Z</time>
      </trkpt>
      <trkpt lat="45.91495" lon="6.51061">
        <ele>2323.8000488281</ele>
        <time>2014-02-12T12:47:17.000Z</time>
      </trkpt>
      <trkpt lat="45.91496" lon="6.51061">
        <ele>2324</ele>
        <time>2014-02-12T12:47:18.000Z</time>
      </trkpt>
      <trkpt lat="45.91496" lon="6.51061">
        <ele>2324</ele>
        <time>2014-02-12T12:47:19.000Z</time>
      </trkpt>
      <trkpt lat="45.91496" lon="6.51061">
        <ele>2324.1999511719</ele>
        <time>2014-02-12T12:47:20.000Z</time>
      </trkpt>
      <trkpt lat="45.91496" lon="6.51061">
        <ele>2324.1999511719</ele>
        <time>2014-02-12T12:47:21.000Z</time>
      </trkpt>
      <trkpt lat="45.91498" lon="6.51062">
        <ele>2324.8000488281</ele>
        <time>2014-02-12T12:47:22.000Z</time>
      </trkpt>
      <trkpt lat="45.91498" lon="6.51062">
        <ele>2324.8000488281</ele>
        <time>2014-02-12T12:47:23.000Z</time>
      </trkpt>
      <trkpt lat="45.91498" lon="6.51062">
        <ele>2324.8000488281</ele>
        <time>2014-02-12T12:47:24.000Z</time>
      </trkpt>
      <trkpt lat="45.91498" lon="6.51062">
        <ele>2324.8000488281</ele>
        <time>2014-02-12T12:47:25.000Z</time>
      </trkpt>
      <trkpt lat="45.91498" lon="6.51062">
        <ele>2325</ele>
        <time>2014-02-12T12:47:26.000Z</time>
      </trkpt>
      <trkpt lat="45.91498" lon="6.51062">
        <ele>2325</ele>
        <time>2014-02-12T12:47:27.000Z</time>
      </trkpt>
      <trkpt lat="45.91498" lon="6.51063">
        <ele>2325.3999023438</ele>
        <time>2014-02-12T12:47:28.000Z</time>
      </trkpt>
      <trkpt lat="45.91498" lon="6.51063">
        <ele>2325.3999023438</ele>
        <time>2014-02-12T12:47:29.000Z</time>
      </trkpt>
      <trkpt lat="45.91499" lon="6.51063">
        <ele>2325.8000488281</ele>
        <time>2014-02-12T12:47:30.000Z</time>
      </trkpt>
      <trkpt lat="45.91499" lon="6.51063">
        <ele>2325.8000488281</ele>
        <time>2014-02-12T12:47:31.000Z</time>
      </trkpt>
      <trkpt lat="45.91499" lon="6.51064">
        <ele>2326.1999511719</ele>
        <time>2014-02-12T12:47:33.000Z</time>
      </trkpt>
      <trkpt lat="45.915" lon="6.51065">
        <ele>2326.8000488281</ele>
        <time>2014-02-12T12:47:34.000Z</time>
      </trkpt>
      <trkpt lat="45.915" lon="6.51065">
        <ele>2326.8000488281</ele>
        <time>2014-02-12T12:47:35.000Z</time>
      </trkpt>
      <trkpt lat="45.91501" lon="6.51066">
        <ele>2327.8000488281</ele>
        <time>2014-02-12T12:47:36.000Z</time>
      </trkpt>
      <trkpt lat="45.91501" lon="6.51066">
        <ele>2327.8000488281</ele>
        <time>2014-02-12T12:47:37.000Z</time>
      </trkpt>
      <trkpt lat="45.91502" lon="6.51067">
        <ele>2328.6000976562</ele>
        <time>2014-02-12T12:47:38.000Z</time>
      </trkpt>
      <trkpt lat="45.91502" lon="6.51068">
        <ele>2328.8000488281</ele>
        <time>2014-02-12T12:47:39.000Z</time>
      </trkpt>
      <trkpt lat="45.91502" lon="6.51068">
        <ele>2329.1999511719</ele>
        <time>2014-02-12T12:47:40.000Z</time>
      </trkpt>
      <trkpt lat="45.91502" lon="6.51068">
        <ele>2329.1999511719</ele>
        <time>2014-02-12T12:47:41.000Z</time>
      </trkpt>
      <trkpt lat="45.91503" lon="6.51069">
        <ele>2329.8000488281</ele>
        <time>2014-02-12T12:47:42.000Z</time>
      </trkpt>
      <trkpt lat="45.91503" lon="6.51069">
        <ele>2329.8000488281</ele>
        <time>2014-02-12T12:47:43.000Z</time>
      </trkpt>
      <trkpt lat="45.91503" lon="6.5107">
        <ele>2330.8000488281</ele>
        <time>2014-02-12T12:47:44.000Z</time>
      </trkpt>
      <trkpt lat="45.91503" lon="6.51071">
        <ele>2331.6000976562</ele>
        <time>2014-02-12T12:47:45.000Z</time>
      </trkpt>
      <trkpt lat="45.91504" lon="6.51073">
        <ele>2332.3999023438</ele>
        <time>2014-02-12T12:47:46.000Z</time>
      </trkpt>
      <trkpt lat="45.91504" lon="6.51073">
        <ele>2332.3999023438</ele>
        <time>2014-02-12T12:47:47.000Z</time>
      </trkpt>
      <trkpt lat="45.91504" lon="6.51074">
        <ele>2333.1999511719</ele>
        <time>2014-02-12T12:47:48.000Z</time>
      </trkpt>
      <trkpt lat="45.91504" lon="6.51075">
        <ele>2334</ele>
        <time>2014-02-12T12:47:49.000Z</time>
      </trkpt>
      <trkpt lat="45.91504" lon="6.51076">
        <ele>2334.8000488281</ele>
        <time>2014-02-12T12:47:50.000Z</time>
      </trkpt>
      <trkpt lat="45.91504" lon="6.51076">
        <ele>2334.8000488281</ele>
        <time>2014-02-12T12:47:51.000Z</time>
      </trkpt>
      <trkpt lat="45.91505" lon="6.51078">
        <ele>2335.8000488281</ele>
        <time>2014-02-12T12:47:52.000Z</time>
      </trkpt>
      <trkpt lat="45.91505" lon="6.51078">
        <ele>2335.8000488281</ele>
        <time>2014-02-12T12:47:53.000Z</time>
      </trkpt>
      <trkpt lat="45.91505" lon="6.5108">
        <ele>2336.8000488281</ele>
        <time>2014-02-12T12:47:54.000Z</time>
      </trkpt>
      <trkpt lat="45.91505" lon="6.5108">
        <ele>2336.8000488281</ele>
        <time>2014-02-12T12:47:55.000Z</time>
      </trkpt>
      <trkpt lat="45.91505" lon="6.5108">
        <ele>2336.8000488281</ele>
        <time>2014-02-12T12:47:56.000Z</time>
      </trkpt>
      <trkpt lat="45.91505" lon="6.5108">
        <ele>2336.8000488281</ele>
        <time>2014-02-12T12:47:57.000Z</time>
      </trkpt>
      <trkpt lat="45.91505" lon="6.5108">
        <ele>2336.8000488281</ele>
        <time>2014-02-12T12:47:58.000Z</time>
      </trkpt>
      <trkpt lat="45.91505" lon="6.5108">
        <ele>2336.8000488281</ele>
        <time>2014-02-12T12:47:59.000Z</time>
      </trkpt>
      <trkpt lat="45.91505" lon="6.5108">
        <ele>2336.8000488281</ele>
        <time>2014-02-12T12:48:00.000Z</time>
      </trkpt>
      <trkpt lat="45.91505" lon="6.5108">
        <ele>2336.8000488281</ele>
        <time>2014-02-12T12:48:01.000Z</time>
      </trkpt>
      <trkpt lat="45.91505" lon="6.5108">
        <ele>2336.8000488281</ele>
        <time>2014-02-12T12:48:02.000Z</time>
      </trkpt>
      <trkpt lat="45.91505" lon="6.5108">
        <ele>2336.8000488281</ele>
        <time>2014-02-12T12:48:03.000Z</time>
      </trkpt>
      <trkpt lat="45.91505" lon="6.5108">
        <ele>2336.8000488281</ele>
        <time>2014-02-12T12:48:04.000Z</time>
      </trkpt>
      <trkpt lat="45.91506" lon="6.51078">
        <ele>2336.3999023438</ele>
        <time>2014-02-12T12:48:05.000Z</time>
      </trkpt>
      <trkpt lat="45.91507" lon="6.51078">
        <ele>2336.3999023438</ele>
        <time>2014-02-12T12:48:06.000Z</time>
      </trkpt>
      <trkpt lat="45.91508" lon="6.51078">
        <ele>2336.6000976562</ele>
        <time>2014-02-12T12:48:07.000Z</time>
      </trkpt>
      <trkpt lat="45.91508" lon="6.51078">
        <ele>2336.6000976562</ele>
        <time>2014-02-12T12:48:08.000Z</time>
      </trkpt>
      <trkpt lat="45.91509" lon="6.51078">
        <ele>2337.3999023438</ele>
        <time>2014-02-12T12:48:09.000Z</time>
      </trkpt>
      <trkpt lat="45.91509" lon="6.51078">
        <ele>2337.3999023438</ele>
        <time>2014-02-12T12:48:10.000Z</time>
      </trkpt>
      <trkpt lat="45.9151" lon="6.51079">
        <ele>2337.8000488281</ele>
        <time>2014-02-12T12:48:11.000Z</time>
      </trkpt>
      <trkpt lat="45.9151" lon="6.51079">
        <ele>2337.8000488281</ele>
        <time>2014-02-12T12:48:12.000Z</time>
      </trkpt>
      <trkpt lat="45.91511" lon="6.5108">
        <ele>2338.8000488281</ele>
        <time>2014-02-12T12:48:13.000Z</time>
      </trkpt>
      <trkpt lat="45.91512" lon="6.51081">
        <ele>2339.8000488281</ele>
        <time>2014-02-12T12:48:14.000Z</time>
      </trkpt>
      <trkpt lat="45.91512" lon="6.51081">
        <ele>2340</ele>
        <time>2014-02-12T12:48:15.000Z</time>
      </trkpt>
      <trkpt lat="45.91513" lon="6.51082">
        <ele>2340.6000976562</ele>
        <time>2014-02-12T12:48:16.000Z</time>
      </trkpt>
      <trkpt lat="45.91513" lon="6.51082">
        <ele>2340.6000976562</ele>
        <time>2014-02-12T12:48:17.000Z</time>
      </trkpt>
      <trkpt lat="45.91513" lon="6.51083">
        <ele>2341.6000976562</ele>
        <time>2014-02-12T12:48:18.000Z</time>
      </trkpt>
      <trkpt lat="45.91513" lon="6.51083">
        <ele>2341.6000976562</ele>
        <time>2014-02-12T12:48:19.000Z</time>
      </trkpt>
      <trkpt lat="45.91514" lon="6.51084">
        <ele>2342.1999511719</ele>
        <time>2014-02-12T12:48:20.000Z</time>
      </trkpt>
      <trkpt lat="45.91515" lon="6.51084">
        <ele>2342.8000488281</ele>
        <time>2014-02-12T12:48:21.000Z</time>
      </trkpt>
      <trkpt lat="45.91516" lon="6.51085">
        <ele>2343.6000976562</ele>
        <time>2014-02-12T12:48:22.000Z</time>
      </trkpt>
      <trkpt lat="45.91517" lon="6.51085">
        <ele>2344</ele>
        <time>2014-02-12T12:48:23.000Z</time>
      </trkpt>
      <trkpt lat="45.91517" lon="6.51085">
        <ele>2344.1999511719</ele>
        <time>2014-02-12T12:48:24.000Z</time>
      </trkpt>
      <trkpt lat="45.91518" lon="6.51085">
        <ele>2344.6000976562</ele>
        <time>2014-02-12T12:48:25.000Z</time>
      </trkpt>
      <trkpt lat="45.91519" lon="6.51086">
        <ele>2345</ele>
        <time>2014-02-12T12:48:26.000Z</time>
      </trkpt>
      <trkpt lat="45.9152" lon="6.51086">
        <ele>2345.6000976562</ele>
        <time>2014-02-12T12:48:27.000Z</time>
      </trkpt>
      <trkpt lat="45.9152" lon="6.51086">
        <ele>2345.6000976562</ele>
        <time>2014-02-12T12:48:28.000Z</time>
      </trkpt>
      <trkpt lat="45.9152" lon="6.51087">
        <ele>2346.1999511719</ele>
        <time>2014-02-12T12:48:29.000Z</time>
      </trkpt>
      <trkpt lat="45.9152" lon="6.51087">
        <ele>2346.1999511719</ele>
        <time>2014-02-12T12:48:30.000Z</time>
      </trkpt>
      <trkpt lat="45.91521" lon="6.51087">
        <ele>2346.6000976562</ele>
        <time>2014-02-12T12:48:31.000Z</time>
      </trkpt>
      <trkpt lat="45.91521" lon="6.51087">
        <ele>2346.6000976562</ele>
        <time>2014-02-12T12:48:32.000Z</time>
      </trkpt>
      <trkpt lat="45.91521" lon="6.51087">
        <ele>2346.6000976562</ele>
        <time>2014-02-12T12:48:33.000Z</time>
      </trkpt>
      <trkpt lat="45.91521" lon="6.51087">
        <ele>2346.6000976562</ele>
        <time>2014-02-12T12:48:34.000Z</time>
      </trkpt>
      <trkpt lat="45.91521" lon="6.51087">
        <ele>2346.6000976562</ele>
        <time>2014-02-12T12:48:35.000Z</time>
      </trkpt>
      <trkpt lat="45.91521" lon="6.51087">
        <ele>2346.6000976562</ele>
        <time>2014-02-12T12:48:36.000Z</time>
      </trkpt>
      <trkpt lat="45.91521" lon="6.51088">
        <ele>2347.1999511719</ele>
        <time>2014-02-12T12:48:37.000Z</time>
      </trkpt>
      <trkpt lat="45.91522" lon="6.51089">
        <ele>2347.8000488281</ele>
        <time>2014-02-12T12:48:38.000Z</time>
      </trkpt>
      <trkpt lat="45.91523" lon="6.51089">
        <ele>2348.1999511719</ele>
        <time>2014-02-12T12:48:39.000Z</time>
      </trkpt>
      <trkpt lat="45.91523" lon="6.5109">
        <ele>2349</ele>
        <time>2014-02-12T12:48:40.000Z</time>
      </trkpt>
      <trkpt lat="45.91523" lon="6.5109">
        <ele>2349</ele>
        <time>2014-02-12T12:48:41.000Z</time>
      </trkpt>
      <trkpt lat="45.91524" lon="6.5109">
        <ele>2349.3999023438</ele>
        <time>2014-02-12T12:48:42.000Z</time>
      </trkpt>
      <trkpt lat="45.91524" lon="6.5109">
        <ele>2349.3999023438</ele>
        <time>2014-02-12T12:48:43.000Z</time>
      </trkpt>
      <trkpt lat="45.91524" lon="6.5109">
        <ele>2349.3999023438</ele>
        <time>2014-02-12T12:48:44.000Z</time>
      </trkpt>
      <trkpt lat="45.91525" lon="6.5109">
        <ele>2349.3999023438</ele>
        <time>2014-02-12T12:48:45.000Z</time>
      </trkpt>
      <trkpt lat="45.91525" lon="6.5109">
        <ele>2349.3999023438</ele>
        <time>2014-02-12T12:48:46.000Z</time>
      </trkpt>
      <trkpt lat="45.91525" lon="6.5109">
        <ele>2349.3999023438</ele>
        <time>2014-02-12T12:48:47.000Z</time>
      </trkpt>
      <trkpt lat="45.91525" lon="6.5109">
        <ele>2349.3999023438</ele>
        <time>2014-02-12T12:48:48.000Z</time>
      </trkpt>
      <trkpt lat="45.91525" lon="6.5109">
        <ele>2349.3999023438</ele>
        <time>2014-02-12T12:48:49.000Z</time>
      </trkpt>
      <trkpt lat="45.91525" lon="6.5109">
        <ele>2349.3999023438</ele>
        <time>2014-02-12T12:48:50.000Z</time>
      </trkpt>
      <trkpt lat="45.91524" lon="6.5109">
        <ele>2349.3999023438</ele>
        <time>2014-02-12T12:48:51.000Z</time>
      </trkpt>
      <trkpt lat="45.91524" lon="6.51091">
        <ele>2349.6000976562</ele>
        <time>2014-02-12T12:48:52.000Z</time>
      </trkpt>
      <trkpt lat="45.91523" lon="6.51091">
        <ele>2349.8000488281</ele>
        <time>2014-02-12T12:48:53.000Z</time>
      </trkpt>
      <trkpt lat="45.91523" lon="6.51092">
        <ele>2350</ele>
        <time>2014-02-12T12:48:54.000Z</time>
      </trkpt>
      <trkpt lat="45.91522" lon="6.51093">
        <ele>2350.1999511719</ele>
        <time>2014-02-12T12:48:55.000Z</time>
      </trkpt>
      <trkpt lat="45.91522" lon="6.51093">
        <ele>2350.3999023438</ele>
        <time>2014-02-12T12:48:56.000Z</time>
      </trkpt>
      <trkpt lat="45.91522" lon="6.51094">
        <ele>2350.8000488281</ele>
        <time>2014-02-12T12:48:57.000Z</time>
      </trkpt>
      <trkpt lat="45.91521" lon="6.51094">
        <ele>2350.8000488281</ele>
        <time>2014-02-12T12:48:58.000Z</time>
      </trkpt>
      <trkpt lat="45.91521" lon="6.51095">
        <ele>2350.8000488281</ele>
        <time>2014-02-12T12:48:59.000Z</time>
      </trkpt>
      <trkpt lat="45.9152" lon="6.51095">
        <ele>2351.1999511719</ele>
        <time>2014-02-12T12:49:00.000Z</time>
      </trkpt>
      <trkpt lat="45.9152" lon="6.51096">
        <ele>2351.3999023438</ele>
        <time>2014-02-12T12:49:01.000Z</time>
      </trkpt>
      <trkpt lat="45.91519" lon="6.51096">
        <ele>2351.1999511719</ele>
        <time>2014-02-12T12:49:02.000Z</time>
      </trkpt>
      <trkpt lat="45.91519" lon="6.51097">
        <ele>2351.3999023438</ele>
        <time>2014-02-12T12:49:03.000Z</time>
      </trkpt>
      <trkpt lat="45.91519" lon="6.51097">
        <ele>2351.3999023438</ele>
        <time>2014-02-12T12:49:04.000Z</time>
      </trkpt>
      <trkpt lat="45.91519" lon="6.51098">
        <ele>2352</ele>
        <time>2014-02-12T12:49:05.000Z</time>
      </trkpt>
      <trkpt lat="45.91519" lon="6.51098">
        <ele>2352</ele>
        <time>2014-02-12T12:49:06.000Z</time>
      </trkpt>
      <trkpt lat="45.91519" lon="6.51099">
        <ele>2352.8000488281</ele>
        <time>2014-02-12T12:49:07.000Z</time>
      </trkpt>
      <trkpt lat="45.91519" lon="6.51101">
        <ele>2354</ele>
        <time>2014-02-12T12:49:09.000Z</time>
      </trkpt>
      <trkpt lat="45.91519" lon="6.51103">
        <ele>2354.8000488281</ele>
        <time>2014-02-12T12:49:10.000Z</time>
      </trkpt>
      <trkpt lat="45.91518" lon="6.51104">
        <ele>2355.3999023438</ele>
        <time>2014-02-12T12:49:11.000Z</time>
      </trkpt>
      <trkpt lat="45.91518" lon="6.51105">
        <ele>2355.8000488281</ele>
        <time>2014-02-12T12:49:12.000Z</time>
      </trkpt>
      <trkpt lat="45.91518" lon="6.51105">
        <ele>2356</ele>
        <time>2014-02-12T12:49:13.000Z</time>
      </trkpt>
      <trkpt lat="45.91517" lon="6.51106">
        <ele>2356.3999023438</ele>
        <time>2014-02-12T12:49:14.000Z</time>
      </trkpt>
      <trkpt lat="45.91517" lon="6.51107">
        <ele>2356.6000976562</ele>
        <time>2014-02-12T12:49:15.000Z</time>
      </trkpt>
      <trkpt lat="45.91517" lon="6.51107">
        <ele>2356.6000976562</ele>
        <time>2014-02-12T12:49:16.000Z</time>
      </trkpt>
      <trkpt lat="45.91517" lon="6.51108">
        <ele>2357.3999023438</ele>
        <time>2014-02-12T12:49:17.000Z</time>
      </trkpt>
      <trkpt lat="45.91516" lon="6.5111">
        <ele>2358</ele>
        <time>2014-02-12T12:49:18.000Z</time>
      </trkpt>
      <trkpt lat="45.91516" lon="6.51111">
        <ele>2358.3999023438</ele>
        <time>2014-02-12T12:49:19.000Z</time>
      </trkpt>
      <trkpt lat="45.91516" lon="6.51112">
        <ele>2358.8000488281</ele>
        <time>2014-02-12T12:49:20.000Z</time>
      </trkpt>
      <trkpt lat="45.91516" lon="6.51113">
        <ele>2359.3999023438</ele>
        <time>2014-02-12T12:49:21.000Z</time>
      </trkpt>
      <trkpt lat="45.91517" lon="6.51114">
        <ele>2360.1999511719</ele>
        <time>2014-02-12T12:49:22.000Z</time>
      </trkpt>
      <trkpt lat="45.91517" lon="6.51114">
        <ele>2360.1999511719</ele>
        <time>2014-02-12T12:49:23.000Z</time>
      </trkpt>
      <trkpt lat="45.91517" lon="6.51114">
        <ele>2360.1999511719</ele>
        <time>2014-02-12T12:49:24.000Z</time>
      </trkpt>
      <trkpt lat="45.91517" lon="6.51114">
        <ele>2360.1999511719</ele>
        <time>2014-02-12T12:49:25.000Z</time>
      </trkpt>
      <trkpt lat="45.91518" lon="6.51113">
        <ele>2360</ele>
        <time>2014-02-12T12:49:26.000Z</time>
      </trkpt>
      <trkpt lat="45.91518" lon="6.51113">
        <ele>2360</ele>
        <time>2014-02-12T12:49:27.000Z</time>
      </trkpt>
      <trkpt lat="45.91518" lon="6.51113">
        <ele>2360</ele>
        <time>2014-02-12T12:49:28.000Z</time>
      </trkpt>
      <trkpt lat="45.91519" lon="6.51112">
        <ele>2360.1999511719</ele>
        <time>2014-02-12T12:49:29.000Z</time>
      </trkpt>
      <trkpt lat="45.91519" lon="6.51112">
        <ele>2360.1999511719</ele>
        <time>2014-02-12T12:49:30.000Z</time>
      </trkpt>
      <trkpt lat="45.9152" lon="6.51112">
        <ele>2360.1999511719</ele>
        <time>2014-02-12T12:49:31.000Z</time>
      </trkpt>
      <trkpt lat="45.9152" lon="6.51112">
        <ele>2360.1999511719</ele>
        <time>2014-02-12T12:49:33.000Z</time>
      </trkpt>
      <trkpt lat="45.91521" lon="6.51112">
        <ele>2360.8000488281</ele>
        <time>2014-02-12T12:49:34.000Z</time>
      </trkpt>
      <trkpt lat="45.91521" lon="6.51112">
        <ele>2360.8000488281</ele>
        <time>2014-02-12T12:49:35.000Z</time>
      </trkpt>
      <trkpt lat="45.91521" lon="6.51112">
        <ele>2360.8000488281</ele>
        <time>2014-02-12T12:49:36.000Z</time>
      </trkpt>
      <trkpt lat="45.91521" lon="6.51112">
        <ele>2360.8000488281</ele>
        <time>2014-02-12T12:49:37.000Z</time>
      </trkpt>
      <trkpt lat="45.91522" lon="6.51112">
        <ele>2360.8000488281</ele>
        <time>2014-02-12T12:49:38.000Z</time>
      </trkpt>
      <trkpt lat="45.91522" lon="6.51112">
        <ele>2360.8000488281</ele>
        <time>2014-02-12T12:49:39.000Z</time>
      </trkpt>
      <trkpt lat="45.91523" lon="6.51112">
        <ele>2361.1999511719</ele>
        <time>2014-02-12T12:49:40.000Z</time>
      </trkpt>
      <trkpt lat="45.91523" lon="6.51112">
        <ele>2361.1999511719</ele>
        <time>2014-02-12T12:49:41.000Z</time>
      </trkpt>
      <trkpt lat="45.91523" lon="6.51112">
        <ele>2361.1999511719</ele>
        <time>2014-02-12T12:49:42.000Z</time>
      </trkpt>
      <trkpt lat="45.91523" lon="6.51112">
        <ele>2361.1999511719</ele>
        <time>2014-02-12T12:49:43.000Z</time>
      </trkpt>
      <trkpt lat="45.91523" lon="6.51112">
        <ele>2361.1999511719</ele>
        <time>2014-02-12T12:49:44.000Z</time>
      </trkpt>
      <trkpt lat="45.91523" lon="6.51112">
        <ele>2361.1999511719</ele>
        <time>2014-02-12T12:49:45.000Z</time>
      </trkpt>
      <trkpt lat="45.91523" lon="6.51112">
        <ele>2361.1999511719</ele>
        <time>2014-02-12T12:49:46.000Z</time>
      </trkpt>
      <trkpt lat="45.91523" lon="6.51112">
        <ele>2361.1999511719</ele>
        <time>2014-02-12T12:49:47.000Z</time>
      </trkpt>
      <trkpt lat="45.91522" lon="6.51112">
        <ele>2361.1999511719</ele>
        <time>2014-02-12T12:49:48.000Z</time>
      </trkpt>
      <trkpt lat="45.91522" lon="6.51112">
        <ele>2361.1999511719</ele>
        <time>2014-02-12T12:49:49.000Z</time>
      </trkpt>
      <trkpt lat="45.91522" lon="6.51112">
        <ele>2361.1999511719</ele>
        <time>2014-02-12T12:49:50.000Z</time>
      </trkpt>
      <trkpt lat="45.91521" lon="6.51113">
        <ele>2361.3999023438</ele>
        <time>2014-02-12T12:49:51.000Z</time>
      </trkpt>
      <trkpt lat="45.91521" lon="6.51113">
        <ele>2361.6000976562</ele>
        <time>2014-02-12T12:49:52.000Z</time>
      </trkpt>
      <trkpt lat="45.91521" lon="6.51114">
        <ele>2361.8000488281</ele>
        <time>2014-02-12T12:49:53.000Z</time>
      </trkpt>
      <trkpt lat="45.91521" lon="6.51114">
        <ele>2362</ele>
        <time>2014-02-12T12:49:54.000Z</time>
      </trkpt>
      <trkpt lat="45.91521" lon="6.51115">
        <ele>2362.6000976562</ele>
        <time>2014-02-12T12:49:55.000Z</time>
      </trkpt>
      <trkpt lat="45.91521" lon="6.51115">
        <ele>2362.6000976562</ele>
        <time>2014-02-12T12:49:56.000Z</time>
      </trkpt>
      <trkpt lat="45.91521" lon="6.51116">
        <ele>2363</ele>
        <time>2014-02-12T12:49:57.000Z</time>
      </trkpt>
      <trkpt lat="45.91521" lon="6.51116">
        <ele>2363</ele>
        <time>2014-02-12T12:49:58.000Z</time>
      </trkpt>
      <trkpt lat="45.91521" lon="6.51118">
        <ele>2363.6000976562</ele>
        <time>2014-02-12T12:49:59.000Z</time>
      </trkpt>
      <trkpt lat="45.91521" lon="6.51118">
        <ele>2363.6000976562</ele>
        <time>2014-02-12T12:50:00.000Z</time>
      </trkpt>
      <trkpt lat="45.91521" lon="6.51119">
        <ele>2364.1999511719</ele>
        <time>2014-02-12T12:50:01.000Z</time>
      </trkpt>
      <trkpt lat="45.91521" lon="6.5112">
        <ele>2364.8000488281</ele>
        <time>2014-02-12T12:50:02.000Z</time>
      </trkpt>
      <trkpt lat="45.9152" lon="6.51121">
        <ele>2365</ele>
        <time>2014-02-12T12:50:03.000Z</time>
      </trkpt>
      <trkpt lat="45.91519" lon="6.51123">
        <ele>2365.1999511719</ele>
        <time>2014-02-12T12:50:04.000Z</time>
      </trkpt>
      <trkpt lat="45.91519" lon="6.51123">
        <ele>2365.1999511719</ele>
        <time>2014-02-12T12:50:05.000Z</time>
      </trkpt>
      <trkpt lat="45.91519" lon="6.51124">
        <ele>2365.6000976562</ele>
        <time>2014-02-12T12:50:06.000Z</time>
      </trkpt>
      <trkpt lat="45.91518" lon="6.51125">
        <ele>2365.8000488281</ele>
        <time>2014-02-12T12:50:07.000Z</time>
      </trkpt>
      <trkpt lat="45.91517" lon="6.51126">
        <ele>2366</ele>
        <time>2014-02-12T12:50:08.000Z</time>
      </trkpt>
      <trkpt lat="45.91517" lon="6.51127">
        <ele>2366.3999023438</ele>
        <time>2014-02-12T12:50:09.000Z</time>
      </trkpt>
      <trkpt lat="45.91517" lon="6.51128">
        <ele>2366.3999023438</ele>
        <time>2014-02-12T12:50:10.000Z</time>
      </trkpt>
      <trkpt lat="45.91517" lon="6.51129">
        <ele>2366.8000488281</ele>
        <time>2014-02-12T12:50:11.000Z</time>
      </trkpt>
      <trkpt lat="45.91516" lon="6.51129">
        <ele>2366.8000488281</ele>
        <time>2014-02-12T12:50:12.000Z</time>
      </trkpt>
      <trkpt lat="45.91516" lon="6.51129">
        <ele>2366.8000488281</ele>
        <time>2014-02-12T12:50:13.000Z</time>
      </trkpt>
      <trkpt lat="45.91516" lon="6.51129">
        <ele>2366.8000488281</ele>
        <time>2014-02-12T12:50:14.000Z</time>
      </trkpt>
      <trkpt lat="45.91516" lon="6.5113">
        <ele>2367</ele>
        <time>2014-02-12T12:50:15.000Z</time>
      </trkpt>
      <trkpt lat="45.91516" lon="6.5113">
        <ele>2367</ele>
        <time>2014-02-12T12:50:16.000Z</time>
      </trkpt>
      <trkpt lat="45.91516" lon="6.51131">
        <ele>2367.3999023438</ele>
        <time>2014-02-12T12:50:17.000Z</time>
      </trkpt>
      <trkpt lat="45.91516" lon="6.51131">
        <ele>2367.6000976562</ele>
        <time>2014-02-12T12:50:18.000Z</time>
      </trkpt>
      <trkpt lat="45.91516" lon="6.51131">
        <ele>2367.6000976562</ele>
        <time>2014-02-12T12:50:19.000Z</time>
      </trkpt>
      <trkpt lat="45.91516" lon="6.51131">
        <ele>2367.6000976562</ele>
        <time>2014-02-12T12:50:20.000Z</time>
      </trkpt>
      <trkpt lat="45.91516" lon="6.51131">
        <ele>2367.6000976562</ele>
        <time>2014-02-12T12:50:21.000Z</time>
      </trkpt>
      <trkpt lat="45.91516" lon="6.51131">
        <ele>2367.6000976562</ele>
        <time>2014-02-12T12:50:22.000Z</time>
      </trkpt>
      <trkpt lat="45.91516" lon="6.51131">
        <ele>2367.6000976562</ele>
        <time>2014-02-12T12:50:23.000Z</time>
      </trkpt>
      <trkpt lat="45.91517" lon="6.51131">
        <ele>2367.6000976562</ele>
        <time>2014-02-12T12:50:24.000Z</time>
      </trkpt>
      <trkpt lat="45.91517" lon="6.51131">
        <ele>2367.6000976562</ele>
        <time>2014-02-12T12:50:25.000Z</time>
      </trkpt>
      <trkpt lat="45.91517" lon="6.51131">
        <ele>2368</ele>
        <time>2014-02-12T12:50:26.000Z</time>
      </trkpt>
      <trkpt lat="45.91518" lon="6.51131">
        <ele>2368.3999023438</ele>
        <time>2014-02-12T12:50:27.000Z</time>
      </trkpt>
      <trkpt lat="45.91519" lon="6.51131">
        <ele>2368.6000976562</ele>
        <time>2014-02-12T12:50:28.000Z</time>
      </trkpt>
      <trkpt lat="45.9152" lon="6.5113">
        <ele>2368.8000488281</ele>
        <time>2014-02-12T12:50:29.000Z</time>
      </trkpt>
      <trkpt lat="45.9152" lon="6.5113">
        <ele>2368.8000488281</ele>
        <time>2014-02-12T12:50:30.000Z</time>
      </trkpt>
      <trkpt lat="45.9152" lon="6.5113">
        <ele>2369</ele>
        <time>2014-02-12T12:50:31.000Z</time>
      </trkpt>
      <trkpt lat="45.9152" lon="6.5113">
        <ele>2369</ele>
        <time>2014-02-12T12:50:32.000Z</time>
      </trkpt>
      <trkpt lat="45.91521" lon="6.5113">
        <ele>2369.6000976562</ele>
        <time>2014-02-12T12:50:33.000Z</time>
      </trkpt>
      <trkpt lat="45.91521" lon="6.5113">
        <ele>2369.6000976562</ele>
        <time>2014-02-12T12:50:34.000Z</time>
      </trkpt>
      <trkpt lat="45.91523" lon="6.5113">
        <ele>2370.1999511719</ele>
        <time>2014-02-12T12:50:35.000Z</time>
      </trkpt>
      <trkpt lat="45.91523" lon="6.5113">
        <ele>2370.1999511719</ele>
        <time>2014-02-12T12:50:36.000Z</time>
      </trkpt>
      <trkpt lat="45.91524" lon="6.5113">
        <ele>2370.8000488281</ele>
        <time>2014-02-12T12:50:37.000Z</time>
      </trkpt>
      <trkpt lat="45.91525" lon="6.51131">
        <ele>2371.3999023438</ele>
        <time>2014-02-12T12:50:38.000Z</time>
      </trkpt>
      <trkpt lat="45.91526" lon="6.51131">
        <ele>2371.8000488281</ele>
        <time>2014-02-12T12:50:39.000Z</time>
      </trkpt>
      <trkpt lat="45.91527" lon="6.5113">
        <ele>2372.1999511719</ele>
        <time>2014-02-12T12:50:40.000Z</time>
      </trkpt>
      <trkpt lat="45.91528" lon="6.5113">
        <ele>2372.3999023438</ele>
        <time>2014-02-12T12:50:41.000Z</time>
      </trkpt>
      <trkpt lat="45.91529" lon="6.5113">
        <ele>2372.6000976562</ele>
        <time>2014-02-12T12:50:42.000Z</time>
      </trkpt>
      <trkpt lat="45.91529" lon="6.5113">
        <ele>2373</ele>
        <time>2014-02-12T12:50:43.000Z</time>
      </trkpt>
      <trkpt lat="45.9153" lon="6.51129">
        <ele>2373.1999511719</ele>
        <time>2014-02-12T12:50:44.000Z</time>
      </trkpt>
      <trkpt lat="45.9153" lon="6.51129">
        <ele>2373.1999511719</ele>
        <time>2014-02-12T12:50:45.000Z</time>
      </trkpt>
      <trkpt lat="45.91531" lon="6.51129">
        <ele>2373.3999023438</ele>
        <time>2014-02-12T12:50:46.000Z</time>
      </trkpt>
      <trkpt lat="45.91531" lon="6.51129">
        <ele>2373.3999023438</ele>
        <time>2014-02-12T12:50:47.000Z</time>
      </trkpt>
      <trkpt lat="45.91531" lon="6.51129">
        <ele>2373.6000976562</ele>
        <time>2014-02-12T12:50:48.000Z</time>
      </trkpt>
      <trkpt lat="45.91531" lon="6.5113">
        <ele>2374</ele>
        <time>2014-02-12T12:50:49.000Z</time>
      </trkpt>
      <trkpt lat="45.91531" lon="6.5113">
        <ele>2374</ele>
        <time>2014-02-12T12:50:50.000Z</time>
      </trkpt>
      <trkpt lat="45.91531" lon="6.5113">
        <ele>2374.1999511719</ele>
        <time>2014-02-12T12:50:51.000Z</time>
      </trkpt>
      <trkpt lat="45.91531" lon="6.5113">
        <ele>2374.1999511719</ele>
        <time>2014-02-12T12:50:52.000Z</time>
      </trkpt>
      <trkpt lat="45.91531" lon="6.5113">
        <ele>2374.1999511719</ele>
        <time>2014-02-12T12:50:53.000Z</time>
      </trkpt>
      <trkpt lat="45.91531" lon="6.5113">
        <ele>2374.1999511719</ele>
        <time>2014-02-12T12:50:54.000Z</time>
      </trkpt>
      <trkpt lat="45.91531" lon="6.5113">
        <ele>2374.1999511719</ele>
        <time>2014-02-12T12:50:55.000Z</time>
      </trkpt>
      <trkpt lat="45.91531" lon="6.51131">
        <ele>2374.1999511719</ele>
        <time>2014-02-12T12:50:56.000Z</time>
      </trkpt>
      <trkpt lat="45.91531" lon="6.51132">
        <ele>2374.6000976562</ele>
        <time>2014-02-12T12:50:57.000Z</time>
      </trkpt>
      <trkpt lat="45.91531" lon="6.51133">
        <ele>2375</ele>
        <time>2014-02-12T12:50:58.000Z</time>
      </trkpt>
      <trkpt lat="45.9153" lon="6.51134">
        <ele>2375.1999511719</ele>
        <time>2014-02-12T12:50:59.000Z</time>
      </trkpt>
      <trkpt lat="45.9153" lon="6.51135">
        <ele>2375.3999023438</ele>
        <time>2014-02-12T12:51:00.000Z</time>
      </trkpt>
      <trkpt lat="45.91529" lon="6.51136">
        <ele>2375.8000488281</ele>
        <time>2014-02-12T12:51:01.000Z</time>
      </trkpt>
      <trkpt lat="45.91529" lon="6.51137">
        <ele>2376</ele>
        <time>2014-02-12T12:51:02.000Z</time>
      </trkpt>
      <trkpt lat="45.91529" lon="6.51137">
        <ele>2376.3999023438</ele>
        <time>2014-02-12T12:51:03.000Z</time>
      </trkpt>
      <trkpt lat="45.91529" lon="6.51138">
        <ele>2376.6000976562</ele>
        <time>2014-02-12T12:51:04.000Z</time>
      </trkpt>
      <trkpt lat="45.91529" lon="6.51138">
        <ele>2376.8000488281</ele>
        <time>2014-02-12T12:51:05.000Z</time>
      </trkpt>
      <trkpt lat="45.91529" lon="6.51138">
        <ele>2376.8000488281</ele>
        <time>2014-02-12T12:51:06.000Z</time>
      </trkpt>
      <trkpt lat="45.91528" lon="6.51139">
        <ele>2376.8000488281</ele>
        <time>2014-02-12T12:51:07.000Z</time>
      </trkpt>
      <trkpt lat="45.91528" lon="6.5114">
        <ele>2377</ele>
        <time>2014-02-12T12:51:08.000Z</time>
      </trkpt>
      <trkpt lat="45.91528" lon="6.51141">
        <ele>2377.1999511719</ele>
        <time>2014-02-12T12:51:09.000Z</time>
      </trkpt>
      <trkpt lat="45.91528" lon="6.51141">
        <ele>2377.6000976562</ele>
        <time>2014-02-12T12:51:10.000Z</time>
      </trkpt>
      <trkpt lat="45.91527" lon="6.51142">
        <ele>2377.8000488281</ele>
        <time>2014-02-12T12:51:11.000Z</time>
      </trkpt>
      <trkpt lat="45.91527" lon="6.51143">
        <ele>2378</ele>
        <time>2014-02-12T12:51:12.000Z</time>
      </trkpt>
      <trkpt lat="45.91527" lon="6.51144">
        <ele>2378.3999023438</ele>
        <time>2014-02-12T12:51:13.000Z</time>
      </trkpt>
      <trkpt lat="45.91527" lon="6.51145">
        <ele>2378.8000488281</ele>
        <time>2014-02-12T12:51:14.000Z</time>
      </trkpt>
      <trkpt lat="45.91527" lon="6.51145">
        <ele>2378.8000488281</ele>
        <time>2014-02-12T12:51:15.000Z</time>
      </trkpt>
      <trkpt lat="45.91527" lon="6.51145">
        <ele>2379</ele>
        <time>2014-02-12T12:51:16.000Z</time>
      </trkpt>
      <trkpt lat="45.91526" lon="6.51147">
        <ele>2379.1999511719</ele>
        <time>2014-02-12T12:51:18.000Z</time>
      </trkpt>
      <trkpt lat="45.91525" lon="6.51148">
        <ele>2379.3999023438</ele>
        <time>2014-02-12T12:51:19.000Z</time>
      </trkpt>
      <trkpt lat="45.91524" lon="6.51149">
        <ele>2379.6000976562</ele>
        <time>2014-02-12T12:51:20.000Z</time>
      </trkpt>
      <trkpt lat="45.91524" lon="6.5115">
        <ele>2380</ele>
        <time>2014-02-12T12:51:21.000Z</time>
      </trkpt>
      <trkpt lat="45.91523" lon="6.51151">
        <ele>2380.1999511719</ele>
        <time>2014-02-12T12:51:22.000Z</time>
      </trkpt>
      <trkpt lat="45.91523" lon="6.51152">
        <ele>2380.1999511719</ele>
        <time>2014-02-12T12:51:23.000Z</time>
      </trkpt>
      <trkpt lat="45.91523" lon="6.51152">
        <ele>2380.1999511719</ele>
        <time>2014-02-12T12:51:24.000Z</time>
      </trkpt>
      <trkpt lat="45.91523" lon="6.51153">
        <ele>2380.3999023438</ele>
        <time>2014-02-12T12:51:25.000Z</time>
      </trkpt>
      <trkpt lat="45.91522" lon="6.51154">
        <ele>2380.8000488281</ele>
        <time>2014-02-12T12:51:26.000Z</time>
      </trkpt>
      <trkpt lat="45.91522" lon="6.51155">
        <ele>2380.8000488281</ele>
        <time>2014-02-12T12:51:27.000Z</time>
      </trkpt>
      <trkpt lat="45.91522" lon="6.51155">
        <ele>2380.8000488281</ele>
        <time>2014-02-12T12:51:28.000Z</time>
      </trkpt>
      <trkpt lat="45.91522" lon="6.51155">
        <ele>2380.8000488281</ele>
        <time>2014-02-12T12:51:29.000Z</time>
      </trkpt>
      <trkpt lat="45.91522" lon="6.51155">
        <ele>2380.8000488281</ele>
        <time>2014-02-12T12:51:30.000Z</time>
      </trkpt>
      <trkpt lat="45.91522" lon="6.51155">
        <ele>2380.8000488281</ele>
        <time>2014-02-12T12:51:31.000Z</time>
      </trkpt>
      <trkpt lat="45.91522" lon="6.51155">
        <ele>2380.8000488281</ele>
        <time>2014-02-12T12:51:32.000Z</time>
      </trkpt>
      <trkpt lat="45.91522" lon="6.51155">
        <ele>2380.8000488281</ele>
        <time>2014-02-12T12:51:33.000Z</time>
      </trkpt>
      <trkpt lat="45.91522" lon="6.51155">
        <ele>2380.8000488281</ele>
        <time>2014-02-12T12:51:34.000Z</time>
      </trkpt>
      <trkpt lat="45.91522" lon="6.51155">
        <ele>2380.8000488281</ele>
        <time>2014-02-12T12:51:35.000Z</time>
      </trkpt>
      <trkpt lat="45.91522" lon="6.51155">
        <ele>2380.8000488281</ele>
        <time>2014-02-12T12:51:36.000Z</time>
      </trkpt>
      <trkpt lat="45.91522" lon="6.51155">
        <ele>2380.8000488281</ele>
        <time>2014-02-12T12:51:37.000Z</time>
      </trkpt>
      <trkpt lat="45.91522" lon="6.51155">
        <ele>2380.8000488281</ele>
        <time>2014-02-12T12:51:38.000Z</time>
      </trkpt>
      <trkpt lat="45.91521" lon="6.51156">
        <ele>2381</ele>
        <time>2014-02-12T12:51:39.000Z</time>
      </trkpt>
      <trkpt lat="45.91521" lon="6.51156">
        <ele>2381</ele>
        <time>2014-02-12T12:51:40.000Z</time>
      </trkpt>
      <trkpt lat="45.91521" lon="6.51156">
        <ele>2381</ele>
        <time>2014-02-12T12:51:41.000Z</time>
      </trkpt>
      <trkpt lat="45.91521" lon="6.51156">
        <ele>2381</ele>
        <time>2014-02-12T12:51:42.000Z</time>
      </trkpt>
      <trkpt lat="45.91521" lon="6.51156">
        <ele>2381</ele>
        <time>2014-02-12T12:51:43.000Z</time>
      </trkpt>
      <trkpt lat="45.91521" lon="6.51156">
        <ele>2381</ele>
        <time>2014-02-12T12:51:44.000Z</time>
      </trkpt>
      <trkpt lat="45.91521" lon="6.51156">
        <ele>2381</ele>
        <time>2014-02-12T12:51:45.000Z</time>
      </trkpt>
      <trkpt lat="45.91521" lon="6.51156">
        <ele>2381</ele>
        <time>2014-02-12T12:51:46.000Z</time>
      </trkpt>
      <trkpt lat="45.91521" lon="6.51156">
        <ele>2381</ele>
        <time>2014-02-12T12:51:47.000Z</time>
      </trkpt>
      <trkpt lat="45.91521" lon="6.51157">
        <ele>2381.3999023438</ele>
        <time>2014-02-12T12:51:49.000Z</time>
      </trkpt>
      <trkpt lat="45.91521" lon="6.51157">
        <ele>2381.3999023438</ele>
        <time>2014-02-12T12:51:50.000Z</time>
      </trkpt>
      <trkpt lat="45.91522" lon="6.51157">
        <ele>2382</ele>
        <time>2014-02-12T12:51:51.000Z</time>
      </trkpt>
      <trkpt lat="45.91522" lon="6.51157">
        <ele>2382</ele>
        <time>2014-02-12T12:51:52.000Z</time>
      </trkpt>
      <trkpt lat="45.91522" lon="6.51157">
        <ele>2382</ele>
        <time>2014-02-12T12:51:53.000Z</time>
      </trkpt>
      <trkpt lat="45.91522" lon="6.51157">
        <ele>2382</ele>
        <time>2014-02-12T12:51:54.000Z</time>
      </trkpt>
      <trkpt lat="45.91523" lon="6.51157">
        <ele>2382.3999023438</ele>
        <time>2014-02-12T12:51:55.000Z</time>
      </trkpt>
      <trkpt lat="45.91524" lon="6.51157">
        <ele>2382.8000488281</ele>
        <time>2014-02-12T12:51:56.000Z</time>
      </trkpt>
      <trkpt lat="45.91525" lon="6.51157">
        <ele>2383</ele>
        <time>2014-02-12T12:51:57.000Z</time>
      </trkpt>
      <trkpt lat="45.91525" lon="6.51157">
        <ele>2383.3999023438</ele>
        <time>2014-02-12T12:51:58.000Z</time>
      </trkpt>
      <trkpt lat="45.91525" lon="6.51157">
        <ele>2383.3999023438</ele>
        <time>2014-02-12T12:51:59.000Z</time>
      </trkpt>
      <trkpt lat="45.91526" lon="6.51157">
        <ele>2384</ele>
        <time>2014-02-12T12:52:00.000Z</time>
      </trkpt>
      <trkpt lat="45.91527" lon="6.51157">
        <ele>2384.3999023438</ele>
        <time>2014-02-12T12:52:01.000Z</time>
      </trkpt>
      <trkpt lat="45.91528" lon="6.51157">
        <ele>2384.8000488281</ele>
        <time>2014-02-12T12:52:02.000Z</time>
      </trkpt>
      <trkpt lat="45.91529" lon="6.51157">
        <ele>2385.1999511719</ele>
        <time>2014-02-12T12:52:03.000Z</time>
      </trkpt>
      <trkpt lat="45.9153" lon="6.51156">
        <ele>2385.3999023438</ele>
        <time>2014-02-12T12:52:04.000Z</time>
      </trkpt>
      <trkpt lat="45.91531" lon="6.51155">
        <ele>2385.6000976562</ele>
        <time>2014-02-12T12:52:05.000Z</time>
      </trkpt>
      <trkpt lat="45.91532" lon="6.51155">
        <ele>2385.6000976562</ele>
        <time>2014-02-12T12:52:06.000Z</time>
      </trkpt>
      <trkpt lat="45.91533" lon="6.51154">
        <ele>2385.6000976562</ele>
        <time>2014-02-12T12:52:07.000Z</time>
      </trkpt>
      <trkpt lat="45.91533" lon="6.51154">
        <ele>2385.8000488281</ele>
        <time>2014-02-12T12:52:08.000Z</time>
      </trkpt>
      <trkpt lat="45.91533" lon="6.51154">
        <ele>2385.8000488281</ele>
        <time>2014-02-12T12:52:09.000Z</time>
      </trkpt>
      <trkpt lat="45.91534" lon="6.51154">
        <ele>2385.8000488281</ele>
        <time>2014-02-12T12:52:10.000Z</time>
      </trkpt>
      <trkpt lat="45.91535" lon="6.51154">
        <ele>2386.1999511719</ele>
        <time>2014-02-12T12:52:11.000Z</time>
      </trkpt>
      <trkpt lat="45.91535" lon="6.51154">
        <ele>2386.3999023438</ele>
        <time>2014-02-12T12:52:12.000Z</time>
      </trkpt>
      <trkpt lat="45.91536" lon="6.51153">
        <ele>2386.8000488281</ele>
        <time>2014-02-12T12:52:13.000Z</time>
      </trkpt>
      <trkpt lat="45.91537" lon="6.51153">
        <ele>2387</ele>
        <time>2014-02-12T12:52:14.000Z</time>
      </trkpt>
      <trkpt lat="45.91539" lon="6.51153">
        <ele>2387.6000976562</ele>
        <time>2014-02-12T12:52:15.000Z</time>
      </trkpt>
      <trkpt lat="45.91539" lon="6.51153">
        <ele>2387.6000976562</ele>
        <time>2014-02-12T12:52:16.000Z</time>
      </trkpt>
      <trkpt lat="45.91539" lon="6.51153">
        <ele>2387.8000488281</ele>
        <time>2014-02-12T12:52:17.000Z</time>
      </trkpt>
      <trkpt lat="45.91539" lon="6.51153">
        <ele>2387.8000488281</ele>
        <time>2014-02-12T12:52:18.000Z</time>
      </trkpt>
      <trkpt lat="45.91539" lon="6.51153">
        <ele>2387.8000488281</ele>
        <time>2014-02-12T12:52:19.000Z</time>
      </trkpt>
      <trkpt lat="45.91539" lon="6.51153">
        <ele>2387.8000488281</ele>
        <time>2014-02-12T12:52:20.000Z</time>
      </trkpt>
      <trkpt lat="45.91539" lon="6.51153">
        <ele>2387.8000488281</ele>
        <time>2014-02-12T12:52:21.000Z</time>
      </trkpt>
      <trkpt lat="45.91539" lon="6.51153">
        <ele>2387.8000488281</ele>
        <time>2014-02-12T12:52:22.000Z</time>
      </trkpt>
      <trkpt lat="45.91539" lon="6.51153">
        <ele>2387.8000488281</ele>
        <time>2014-02-12T12:52:23.000Z</time>
      </trkpt>
      <trkpt lat="45.91539" lon="6.51153">
        <ele>2387.8000488281</ele>
        <time>2014-02-12T12:52:24.000Z</time>
      </trkpt>
      <trkpt lat="45.91538" lon="6.51153">
        <ele>2387.8000488281</ele>
        <time>2014-02-12T12:52:25.000Z</time>
      </trkpt>
      <trkpt lat="45.91538" lon="6.51154">
        <ele>2387.8000488281</ele>
        <time>2014-02-12T12:52:26.000Z</time>
      </trkpt>
      <trkpt lat="45.91537" lon="6.51155">
        <ele>2388</ele>
        <time>2014-02-12T12:52:27.000Z</time>
      </trkpt>
      <trkpt lat="45.91537" lon="6.51156">
        <ele>2388.1999511719</ele>
        <time>2014-02-12T12:52:28.000Z</time>
      </trkpt>
      <trkpt lat="45.91536" lon="6.51157">
        <ele>2388.3999023438</ele>
        <time>2014-02-12T12:52:29.000Z</time>
      </trkpt>
      <trkpt lat="45.91536" lon="6.51158">
        <ele>2388.6000976562</ele>
        <time>2014-02-12T12:52:30.000Z</time>
      </trkpt>
      <trkpt lat="45.91535" lon="6.51158">
        <ele>2388.6000976562</ele>
        <time>2014-02-12T12:52:31.000Z</time>
      </trkpt>
      <trkpt lat="45.91535" lon="6.51159">
        <ele>2388.6000976562</ele>
        <time>2014-02-12T12:52:32.000Z</time>
      </trkpt>
      <trkpt lat="45.91535" lon="6.5116">
        <ele>2389</ele>
        <time>2014-02-12T12:52:33.000Z</time>
      </trkpt>
      <trkpt lat="45.91535" lon="6.51161">
        <ele>2389.3999023438</ele>
        <time>2014-02-12T12:52:34.000Z</time>
      </trkpt>
      <trkpt lat="45.91534" lon="6.51163">
        <ele>2389.8000488281</ele>
        <time>2014-02-12T12:52:35.000Z</time>
      </trkpt>
      <trkpt lat="45.91534" lon="6.51164">
        <ele>2390.3999023438</ele>
        <time>2014-02-12T12:52:36.000Z</time>
      </trkpt>
      <trkpt lat="45.91533" lon="6.51166">
        <ele>2390.6000976562</ele>
        <time>2014-02-12T12:52:37.000Z</time>
      </trkpt>
      <trkpt lat="45.91533" lon="6.51167">
        <ele>2390.8000488281</ele>
        <time>2014-02-12T12:52:38.000Z</time>
      </trkpt>
      <trkpt lat="45.91532" lon="6.51167">
        <ele>2390.8000488281</ele>
        <time>2014-02-12T12:52:39.000Z</time>
      </trkpt>
      <trkpt lat="45.91531" lon="6.51168">
        <ele>2390.8000488281</ele>
        <time>2014-02-12T12:52:40.000Z</time>
      </trkpt>
      <trkpt lat="45.91531" lon="6.51169">
        <ele>2391</ele>
        <time>2014-02-12T12:52:41.000Z</time>
      </trkpt>
      <trkpt lat="45.9153" lon="6.5117">
        <ele>2391</ele>
        <time>2014-02-12T12:52:42.000Z</time>
      </trkpt>
      <trkpt lat="45.91529" lon="6.5117">
        <ele>2390.8000488281</ele>
        <time>2014-02-12T12:52:43.000Z</time>
      </trkpt>
      <trkpt lat="45.91529" lon="6.51171">
        <ele>2391</ele>
        <time>2014-02-12T12:52:44.000Z</time>
      </trkpt>
      <trkpt lat="45.91528" lon="6.51172">
        <ele>2391</ele>
        <time>2014-02-12T12:52:45.000Z</time>
      </trkpt>
      <trkpt lat="45.91528" lon="6.51172">
        <ele>2391</ele>
        <time>2014-02-12T12:52:46.000Z</time>
      </trkpt>
      <trkpt lat="45.91529" lon="6.51172">
        <ele>2391.3999023438</ele>
        <time>2014-02-12T12:52:47.000Z</time>
      </trkpt>
      <trkpt lat="45.91529" lon="6.51172">
        <ele>2391.3999023438</ele>
        <time>2014-02-12T12:52:48.000Z</time>
      </trkpt>
      <trkpt lat="45.91529" lon="6.51172">
        <ele>2391.3999023438</ele>
        <time>2014-02-12T12:52:49.000Z</time>
      </trkpt>
      <trkpt lat="45.91529" lon="6.51172">
        <ele>2391.3999023438</ele>
        <time>2014-02-12T12:52:50.000Z</time>
      </trkpt>
      <trkpt lat="45.91529" lon="6.51172">
        <ele>2391.3999023438</ele>
        <time>2014-02-12T12:52:51.000Z</time>
      </trkpt>
      <trkpt lat="45.91529" lon="6.51172">
        <ele>2391.3999023438</ele>
        <time>2014-02-12T12:52:52.000Z</time>
      </trkpt>
      <trkpt lat="45.91529" lon="6.51172">
        <ele>2391.3999023438</ele>
        <time>2014-02-12T12:52:53.000Z</time>
      </trkpt>
      <trkpt lat="45.91529" lon="6.51172">
        <ele>2391.3999023438</ele>
        <time>2014-02-12T12:52:54.000Z</time>
      </trkpt>
      <trkpt lat="45.9153" lon="6.51172">
        <ele>2391.6000976562</ele>
        <time>2014-02-12T12:52:55.000Z</time>
      </trkpt>
      <trkpt lat="45.9153" lon="6.51172">
        <ele>2391.8000488281</ele>
        <time>2014-02-12T12:52:56.000Z</time>
      </trkpt>
      <trkpt lat="45.91531" lon="6.51171">
        <ele>2391.8000488281</ele>
        <time>2014-02-12T12:52:57.000Z</time>
      </trkpt>
      <trkpt lat="45.91531" lon="6.51171">
        <ele>2392</ele>
        <time>2014-02-12T12:52:58.000Z</time>
      </trkpt>
      <trkpt lat="45.91532" lon="6.51171">
        <ele>2392.1999511719</ele>
        <time>2014-02-12T12:52:59.000Z</time>
      </trkpt>
      <trkpt lat="45.91532" lon="6.51171">
        <ele>2392.1999511719</ele>
        <time>2014-02-12T12:53:00.000Z</time>
      </trkpt>
      <trkpt lat="45.91533" lon="6.5117">
        <ele>2392.3999023438</ele>
        <time>2014-02-12T12:53:01.000Z</time>
      </trkpt>
      <trkpt lat="45.91534" lon="6.5117">
        <ele>2392.6000976562</ele>
        <time>2014-02-12T12:53:02.000Z</time>
      </trkpt>
      <trkpt lat="45.91535" lon="6.51169">
        <ele>2392.8000488281</ele>
        <time>2014-02-12T12:53:03.000Z</time>
      </trkpt>
      <trkpt lat="45.91536" lon="6.51169">
        <ele>2393.1999511719</ele>
        <time>2014-02-12T12:53:04.000Z</time>
      </trkpt>
      <trkpt lat="45.91537" lon="6.51168">
        <ele>2393.3999023438</ele>
        <time>2014-02-12T12:53:05.000Z</time>
      </trkpt>
      <trkpt lat="45.91538" lon="6.51168">
        <ele>2393.8000488281</ele>
        <time>2014-02-12T12:53:06.000Z</time>
      </trkpt>
      <trkpt lat="45.91539" lon="6.51168">
        <ele>2394.1999511719</ele>
        <time>2014-02-12T12:53:07.000Z</time>
      </trkpt>
      <trkpt lat="45.9154" lon="6.51167">
        <ele>2394.3999023438</ele>
        <time>2014-02-12T12:53:08.000Z</time>
      </trkpt>
      <trkpt lat="45.9154" lon="6.51167">
        <ele>2394.3999023438</ele>
        <time>2014-02-12T12:53:09.000Z</time>
      </trkpt>
      <trkpt lat="45.9154" lon="6.51167">
        <ele>2394.3999023438</ele>
        <time>2014-02-12T12:53:10.000Z</time>
      </trkpt>
      <trkpt lat="45.91541" lon="6.51167">
        <ele>2394.8000488281</ele>
        <time>2014-02-12T12:53:11.000Z</time>
      </trkpt>
      <trkpt lat="45.91542" lon="6.51166">
        <ele>2394.8000488281</ele>
        <time>2014-02-12T12:53:12.000Z</time>
      </trkpt>
      <trkpt lat="45.91543" lon="6.51166">
        <ele>2395.1999511719</ele>
        <time>2014-02-12T12:53:13.000Z</time>
      </trkpt>
      <trkpt lat="45.91543" lon="6.51166">
        <ele>2395.1999511719</ele>
        <time>2014-02-12T12:53:14.000Z</time>
      </trkpt>
      <trkpt lat="45.91543" lon="6.51166">
        <ele>2395.1999511719</ele>
        <time>2014-02-12T12:53:15.000Z</time>
      </trkpt>
      <trkpt lat="45.91543" lon="6.51166">
        <ele>2395.1999511719</ele>
        <time>2014-02-12T12:53:16.000Z</time>
      </trkpt>
      <trkpt lat="45.91543" lon="6.51166">
        <ele>2395.1999511719</ele>
        <time>2014-02-12T12:53:17.000Z</time>
      </trkpt>
      <trkpt lat="45.91543" lon="6.51166">
        <ele>2395.1999511719</ele>
        <time>2014-02-12T12:53:18.000Z</time>
      </trkpt>
      <trkpt lat="45.91543" lon="6.51166">
        <ele>2395.1999511719</ele>
        <time>2014-02-12T12:53:19.000Z</time>
      </trkpt>
      <trkpt lat="45.91543" lon="6.51166">
        <ele>2395.1999511719</ele>
        <time>2014-02-12T12:53:20.000Z</time>
      </trkpt>
      <trkpt lat="45.91543" lon="6.51166">
        <ele>2395.1999511719</ele>
        <time>2014-02-12T12:53:21.000Z</time>
      </trkpt>
      <trkpt lat="45.91543" lon="6.51166">
        <ele>2395.1999511719</ele>
        <time>2014-02-12T12:53:22.000Z</time>
      </trkpt>
      <trkpt lat="45.91542" lon="6.51167">
        <ele>2395.1999511719</ele>
        <time>2014-02-12T12:53:23.000Z</time>
      </trkpt>
      <trkpt lat="45.91541" lon="6.51167">
        <ele>2395</ele>
        <time>2014-02-12T12:53:24.000Z</time>
      </trkpt>
      <trkpt lat="45.91541" lon="6.51168">
        <ele>2395</ele>
        <time>2014-02-12T12:53:25.000Z</time>
      </trkpt>
      <trkpt lat="45.9154" lon="6.51168">
        <ele>2395</ele>
        <time>2014-02-12T12:53:26.000Z</time>
      </trkpt>
      <trkpt lat="45.9154" lon="6.51168">
        <ele>2395</ele>
        <time>2014-02-12T12:53:27.000Z</time>
      </trkpt>
      <trkpt lat="45.9154" lon="6.51169">
        <ele>2395.1999511719</ele>
        <time>2014-02-12T12:53:28.000Z</time>
      </trkpt>
      <trkpt lat="45.9154" lon="6.51169">
        <ele>2395.1999511719</ele>
        <time>2014-02-12T12:53:29.000Z</time>
      </trkpt>
      <trkpt lat="45.9154" lon="6.5117">
        <ele>2395.3999023438</ele>
        <time>2014-02-12T12:53:30.000Z</time>
      </trkpt>
      <trkpt lat="45.91539" lon="6.51171">
        <ele>2395.8000488281</ele>
        <time>2014-02-12T12:53:31.000Z</time>
      </trkpt>
      <trkpt lat="45.91539" lon="6.51172">
        <ele>2396</ele>
        <time>2014-02-12T12:53:32.000Z</time>
      </trkpt>
      <trkpt lat="45.91539" lon="6.51174">
        <ele>2396.6000976562</ele>
        <time>2014-02-12T12:53:33.000Z</time>
      </trkpt>
      <trkpt lat="45.91538" lon="6.51175">
        <ele>2397</ele>
        <time>2014-02-12T12:53:34.000Z</time>
      </trkpt>
      <trkpt lat="45.91538" lon="6.51176">
        <ele>2397</ele>
        <time>2014-02-12T12:53:35.000Z</time>
      </trkpt>
      <trkpt lat="45.91537" lon="6.51177">
        <ele>2397</ele>
        <time>2014-02-12T12:53:36.000Z</time>
      </trkpt>
      <trkpt lat="45.91537" lon="6.51178">
        <ele>2397.1999511719</ele>
        <time>2014-02-12T12:53:37.000Z</time>
      </trkpt>
      <trkpt lat="45.91536" lon="6.51178">
        <ele>2397.1999511719</ele>
        <time>2014-02-12T12:53:38.000Z</time>
      </trkpt>
      <trkpt lat="45.91536" lon="6.5118">
        <ele>2397.6000976562</ele>
        <time>2014-02-12T12:53:39.000Z</time>
      </trkpt>
      <trkpt lat="45.91535" lon="6.51181">
        <ele>2397.8000488281</ele>
        <time>2014-02-12T12:53:40.000Z</time>
      </trkpt>
      <trkpt lat="45.91535" lon="6.51182">
        <ele>2398.1999511719</ele>
        <time>2014-02-12T12:53:41.000Z</time>
      </trkpt>
      <trkpt lat="45.91535" lon="6.51183">
        <ele>2398.8000488281</ele>
        <time>2014-02-12T12:53:42.000Z</time>
      </trkpt>
      <trkpt lat="45.91534" lon="6.51184">
        <ele>2398.8000488281</ele>
        <time>2014-02-12T12:53:43.000Z</time>
      </trkpt>
      <trkpt lat="45.91533" lon="6.51186">
        <ele>2399</ele>
        <time>2014-02-12T12:53:44.000Z</time>
      </trkpt>
      <trkpt lat="45.91533" lon="6.51187">
        <ele>2399.3999023438</ele>
        <time>2014-02-12T12:53:45.000Z</time>
      </trkpt>
      <trkpt lat="45.91533" lon="6.51188">
        <ele>2399.8000488281</ele>
        <time>2014-02-12T12:53:46.000Z</time>
      </trkpt>
      <trkpt lat="45.91533" lon="6.51188">
        <ele>2400.1999511719</ele>
        <time>2014-02-12T12:53:47.000Z</time>
      </trkpt>
      <trkpt lat="45.91534" lon="6.51189">
        <ele>2400.8000488281</ele>
        <time>2014-02-12T12:53:48.000Z</time>
      </trkpt>
      <trkpt lat="45.91535" lon="6.51188">
        <ele>2400.8000488281</ele>
        <time>2014-02-12T12:53:49.000Z</time>
      </trkpt>
      <trkpt lat="45.91535" lon="6.51188">
        <ele>2400.8000488281</ele>
        <time>2014-02-12T12:53:50.000Z</time>
      </trkpt>
      <trkpt lat="45.91535" lon="6.51188">
        <ele>2400.8000488281</ele>
        <time>2014-02-12T12:53:51.000Z</time>
      </trkpt>
      <trkpt lat="45.91536" lon="6.51186">
        <ele>2400.3999023438</ele>
        <time>2014-02-12T12:53:52.000Z</time>
      </trkpt>
      <trkpt lat="45.91536" lon="6.51186">
        <ele>2400.3999023438</ele>
        <time>2014-02-12T12:53:53.000Z</time>
      </trkpt>
      <trkpt lat="45.91536" lon="6.51185">
        <ele>2400.1999511719</ele>
        <time>2014-02-12T12:53:54.000Z</time>
      </trkpt>
      <trkpt lat="45.91537" lon="6.51184">
        <ele>2400.1999511719</ele>
        <time>2014-02-12T12:53:55.000Z</time>
      </trkpt>
      <trkpt lat="45.91537" lon="6.51184">
        <ele>2400</ele>
        <time>2014-02-12T12:53:56.000Z</time>
      </trkpt>
      <trkpt lat="45.91538" lon="6.51183">
        <ele>2400.1999511719</ele>
        <time>2014-02-12T12:53:57.000Z</time>
      </trkpt>
      <trkpt lat="45.91539" lon="6.51182">
        <ele>2400.1999511719</ele>
        <time>2014-02-12T12:53:58.000Z</time>
      </trkpt>
      <trkpt lat="45.9154" lon="6.51182">
        <ele>2400.1999511719</ele>
        <time>2014-02-12T12:53:59.000Z</time>
      </trkpt>
      <trkpt lat="45.9154" lon="6.51182">
        <ele>2400.1999511719</ele>
        <time>2014-02-12T12:54:00.000Z</time>
      </trkpt>
      <trkpt lat="45.9154" lon="6.51181">
        <ele>2400.3999023438</ele>
        <time>2014-02-12T12:54:01.000Z</time>
      </trkpt>
      <trkpt lat="45.91541" lon="6.51181">
        <ele>2400.8000488281</ele>
        <time>2014-02-12T12:54:02.000Z</time>
      </trkpt>
      <trkpt lat="45.91542" lon="6.51181">
        <ele>2401</ele>
        <time>2014-02-12T12:54:03.000Z</time>
      </trkpt>
      <trkpt lat="45.91542" lon="6.51181">
        <ele>2401</ele>
        <time>2014-02-12T12:54:04.000Z</time>
      </trkpt>
      <trkpt lat="45.91541" lon="6.51181">
        <ele>2400.6000976562</ele>
        <time>2014-02-12T12:54:05.000Z</time>
      </trkpt>
      <trkpt lat="45.9154" lon="6.51182">
        <ele>2400.3999023438</ele>
        <time>2014-02-12T12:54:06.000Z</time>
      </trkpt>
      <trkpt lat="45.9154" lon="6.51182">
        <ele>2400.3999023438</ele>
        <time>2014-02-12T12:54:07.000Z</time>
      </trkpt>
      <trkpt lat="45.9154" lon="6.51182">
        <ele>2400.3999023438</ele>
        <time>2014-02-12T12:54:08.000Z</time>
      </trkpt>
      <trkpt lat="45.9154" lon="6.51182">
        <ele>2400.3999023438</ele>
        <time>2014-02-12T12:54:09.000Z</time>
      </trkpt>
      <trkpt lat="45.9154" lon="6.51182">
        <ele>2400.8000488281</ele>
        <time>2014-02-12T12:54:10.000Z</time>
      </trkpt>
      <trkpt lat="45.91539" lon="6.51183">
        <ele>2400.8000488281</ele>
        <time>2014-02-12T12:54:11.000Z</time>
      </trkpt>
      <trkpt lat="45.91539" lon="6.51184">
        <ele>2401.1999511719</ele>
        <time>2014-02-12T12:54:12.000Z</time>
      </trkpt>
      <trkpt lat="45.91539" lon="6.51187">
        <ele>2402</ele>
        <time>2014-02-12T12:54:14.000Z</time>
      </trkpt>
      <trkpt lat="45.91539" lon="6.51187">
        <ele>2402.1999511719</ele>
        <time>2014-02-12T12:54:15.000Z</time>
      </trkpt>
      <trkpt lat="45.91538" lon="6.51188">
        <ele>2402.1999511719</ele>
        <time>2014-02-12T12:54:16.000Z</time>
      </trkpt>
      <trkpt lat="45.91538" lon="6.51189">
        <ele>2402.3999023438</ele>
        <time>2014-02-12T12:54:17.000Z</time>
      </trkpt>
      <trkpt lat="45.91538" lon="6.5119">
        <ele>2402.8000488281</ele>
        <time>2014-02-12T12:54:18.000Z</time>
      </trkpt>
      <trkpt lat="45.91537" lon="6.51191">
        <ele>2403</ele>
        <time>2014-02-12T12:54:19.000Z</time>
      </trkpt>
      <trkpt lat="45.91537" lon="6.51192">
        <ele>2403.3999023438</ele>
        <time>2014-02-12T12:54:20.000Z</time>
      </trkpt>
      <trkpt lat="45.91536" lon="6.51194">
        <ele>2403.8000488281</ele>
        <time>2014-02-12T12:54:21.000Z</time>
      </trkpt>
      <trkpt lat="45.91536" lon="6.51195">
        <ele>2404</ele>
        <time>2014-02-12T12:54:22.000Z</time>
      </trkpt>
      <trkpt lat="45.91536" lon="6.51196">
        <ele>2404.6000976562</ele>
        <time>2014-02-12T12:54:23.000Z</time>
      </trkpt>
      <trkpt lat="45.91536" lon="6.51197">
        <ele>2405</ele>
        <time>2014-02-12T12:54:24.000Z</time>
      </trkpt>
      <trkpt lat="45.91537" lon="6.51197">
        <ele>2405.6000976562</ele>
        <time>2014-02-12T12:54:25.000Z</time>
      </trkpt>
      <trkpt lat="45.91537" lon="6.51197">
        <ele>2405.6000976562</ele>
        <time>2014-02-12T12:54:26.000Z</time>
      </trkpt>
      <trkpt lat="45.91537" lon="6.51197">
        <ele>2405.6000976562</ele>
        <time>2014-02-12T12:54:27.000Z</time>
      </trkpt>
      <trkpt lat="45.91538" lon="6.51194">
        <ele>2405</ele>
        <time>2014-02-12T12:54:28.000Z</time>
      </trkpt>
      <trkpt lat="45.91538" lon="6.51194">
        <ele>2405</ele>
        <time>2014-02-12T12:54:29.000Z</time>
      </trkpt>
      <trkpt lat="45.91538" lon="6.51194">
        <ele>2405</ele>
        <time>2014-02-12T12:54:30.000Z</time>
      </trkpt>
      <trkpt lat="45.91539" lon="6.51193">
        <ele>2405</ele>
        <time>2014-02-12T12:54:31.000Z</time>
      </trkpt>
      <trkpt lat="45.9154" lon="6.51193">
        <ele>2405.1999511719</ele>
        <time>2014-02-12T12:54:32.000Z</time>
      </trkpt>
      <trkpt lat="45.91541" lon="6.51193">
        <ele>2405.3999023438</ele>
        <time>2014-02-12T12:54:33.000Z</time>
      </trkpt>
      <trkpt lat="45.91541" lon="6.51193">
        <ele>2405.3999023438</ele>
        <time>2014-02-12T12:54:34.000Z</time>
      </trkpt>
      <trkpt lat="45.91541" lon="6.51193">
        <ele>2405.3999023438</ele>
        <time>2014-02-12T12:54:35.000Z</time>
      </trkpt>
      <trkpt lat="45.91541" lon="6.51193">
        <ele>2405.3999023438</ele>
        <time>2014-02-12T12:54:36.000Z</time>
      </trkpt>
      <trkpt lat="45.91541" lon="6.51193">
        <ele>2405.3999023438</ele>
        <time>2014-02-12T12:54:37.000Z</time>
      </trkpt>
      <trkpt lat="45.91541" lon="6.51193">
        <ele>2405.3999023438</ele>
        <time>2014-02-12T12:54:38.000Z</time>
      </trkpt>
      <trkpt lat="45.91541" lon="6.51193">
        <ele>2405.3999023438</ele>
        <time>2014-02-12T12:54:39.000Z</time>
      </trkpt>
      <trkpt lat="45.91541" lon="6.51195">
        <ele>2406.1999511719</ele>
        <time>2014-02-12T12:54:41.000Z</time>
      </trkpt>
      <trkpt lat="45.9154" lon="6.51196">
        <ele>2406.6000976562</ele>
        <time>2014-02-12T12:54:42.000Z</time>
      </trkpt>
      <trkpt lat="45.9154" lon="6.51198">
        <ele>2407.1999511719</ele>
        <time>2014-02-12T12:54:44.000Z</time>
      </trkpt>
      <trkpt lat="45.9154" lon="6.51198">
        <ele>2407.1999511719</ele>
        <time>2014-02-12T12:54:45.000Z</time>
      </trkpt>
      <trkpt lat="45.9154" lon="6.51198">
        <ele>2407.1999511719</ele>
        <time>2014-02-12T12:54:46.000Z</time>
      </trkpt>
      <trkpt lat="45.9154" lon="6.51198">
        <ele>2407.1999511719</ele>
        <time>2014-02-12T12:54:47.000Z</time>
      </trkpt>
      <trkpt lat="45.9154" lon="6.51198">
        <ele>2407.1999511719</ele>
        <time>2014-02-12T12:54:48.000Z</time>
      </trkpt>
      <trkpt lat="45.9154" lon="6.51198">
        <ele>2407.1999511719</ele>
        <time>2014-02-12T12:54:49.000Z</time>
      </trkpt>
      <trkpt lat="45.9154" lon="6.51198">
        <ele>2407.1999511719</ele>
        <time>2014-02-12T12:54:50.000Z</time>
      </trkpt>
      <trkpt lat="45.9154" lon="6.51198">
        <ele>2407.1999511719</ele>
        <time>2014-02-12T12:54:53.000Z</time>
      </trkpt>
      <trkpt lat="45.9154" lon="6.51198">
        <ele>2407.1999511719</ele>
        <time>2014-02-12T12:54:54.000Z</time>
      </trkpt>
      <trkpt lat="45.9154" lon="6.51198">
        <ele>2407.1999511719</ele>
        <time>2014-02-12T12:54:55.000Z</time>
      </trkpt>
      <trkpt lat="45.9154" lon="6.51198">
        <ele>2407.1999511719</ele>
        <time>2014-02-12T12:54:56.000Z</time>
      </trkpt>
      <trkpt lat="45.9154" lon="6.51198">
        <ele>2407.1999511719</ele>
        <time>2014-02-12T12:54:57.000Z</time>
      </trkpt>
      <trkpt lat="45.9154" lon="6.51198">
        <ele>2407.1999511719</ele>
        <time>2014-02-12T12:54:58.000Z</time>
      </trkpt>
      <trkpt lat="45.9154" lon="6.51198">
        <ele>2407.1999511719</ele>
        <time>2014-02-12T12:54:59.000Z</time>
      </trkpt>
      <trkpt lat="45.9154" lon="6.51198">
        <ele>2407.1999511719</ele>
        <time>2014-02-12T12:55:00.000Z</time>
      </trkpt>
      <trkpt lat="45.9154" lon="6.51198">
        <ele>2407.1999511719</ele>
        <time>2014-02-12T12:55:01.000Z</time>
      </trkpt>
      <trkpt lat="45.9154" lon="6.51198">
        <ele>2407.1999511719</ele>
        <time>2014-02-12T12:55:02.000Z</time>
      </trkpt>
      <trkpt lat="45.9154" lon="6.51198">
        <ele>2407.1999511719</ele>
        <time>2014-02-12T12:55:03.000Z</time>
      </trkpt>
      <trkpt lat="45.9154" lon="6.51198">
        <ele>2407.1999511719</ele>
        <time>2014-02-12T12:55:04.000Z</time>
      </trkpt>
      <trkpt lat="45.9154" lon="6.51198">
        <ele>2407.1999511719</ele>
        <time>2014-02-12T12:55:05.000Z</time>
      </trkpt>
      <trkpt lat="45.9154" lon="6.51198">
        <ele>2407.1999511719</ele>
        <time>2014-02-12T12:55:06.000Z</time>
      </trkpt>
      <trkpt lat="45.9154" lon="6.51198">
        <ele>2407.1999511719</ele>
        <time>2014-02-12T12:55:07.000Z</time>
      </trkpt>
      <trkpt lat="45.9154" lon="6.51198">
        <ele>2407.1999511719</ele>
        <time>2014-02-12T12:55:08.000Z</time>
      </trkpt>
      <trkpt lat="45.9154" lon="6.51198">
        <ele>2407.1999511719</ele>
        <time>2014-02-12T12:55:09.000Z</time>
      </trkpt>
      <trkpt lat="45.9154" lon="6.51198">
        <ele>2407.3999023438</ele>
        <time>2014-02-12T12:55:10.000Z</time>
      </trkpt>
      <trkpt lat="45.9154" lon="6.51198">
        <ele>2407.3999023438</ele>
        <time>2014-02-12T12:55:11.000Z</time>
      </trkpt>
      <trkpt lat="45.91541" lon="6.51199">
        <ele>2408</ele>
        <time>2014-02-12T12:55:12.000Z</time>
      </trkpt>
      <trkpt lat="45.91541" lon="6.51199">
        <ele>2408.3999023438</ele>
        <time>2014-02-12T12:55:13.000Z</time>
      </trkpt>
      <trkpt lat="45.91541" lon="6.51199">
        <ele>2408.3999023438</ele>
        <time>2014-02-12T12:55:14.000Z</time>
      </trkpt>
      <trkpt lat="45.91541" lon="6.51199">
        <ele>2408.3999023438</ele>
        <time>2014-02-12T12:55:15.000Z</time>
      </trkpt>
      <trkpt lat="45.91541" lon="6.51201">
        <ele>2409.1999511719</ele>
        <time>2014-02-12T12:55:16.000Z</time>
      </trkpt>
      <trkpt lat="45.91541" lon="6.51204">
        <ele>2410.1999511719</ele>
        <time>2014-02-12T12:55:17.000Z</time>
      </trkpt>
      <trkpt lat="45.91541" lon="6.51206">
        <ele>2411.3999023438</ele>
        <time>2014-02-12T12:55:18.000Z</time>
      </trkpt>
      <trkpt lat="45.91541" lon="6.51209">
        <ele>2412.3999023438</ele>
        <time>2014-02-12T12:55:19.000Z</time>
      </trkpt>
      <trkpt lat="45.91541" lon="6.51211">
        <ele>2413.1999511719</ele>
        <time>2014-02-12T12:55:20.000Z</time>
      </trkpt>
      <trkpt lat="45.91541" lon="6.51212">
        <ele>2413.6000976562</ele>
        <time>2014-02-12T12:55:21.000Z</time>
      </trkpt>
      <trkpt lat="45.91541" lon="6.51212">
        <ele>2413.6000976562</ele>
        <time>2014-02-12T12:55:22.000Z</time>
      </trkpt>
      <trkpt lat="45.91541" lon="6.51214">
        <ele>2414.1999511719</ele>
        <time>2014-02-12T12:55:23.000Z</time>
      </trkpt>
      <trkpt lat="45.9154" lon="6.51215">
        <ele>2414.6000976562</ele>
        <time>2014-02-12T12:55:24.000Z</time>
      </trkpt>
      <trkpt lat="45.9154" lon="6.51217">
        <ele>2415.1999511719</ele>
        <time>2014-02-12T12:55:26.000Z</time>
      </trkpt>
      <trkpt lat="45.9154" lon="6.51218">
        <ele>2415.3999023438</ele>
        <time>2014-02-12T12:55:27.000Z</time>
      </trkpt>
      <trkpt lat="45.9154" lon="6.51218">
        <ele>2415.6000976562</ele>
        <time>2014-02-12T12:55:28.000Z</time>
      </trkpt>
      <trkpt lat="45.9154" lon="6.51219">
        <ele>2415.8000488281</ele>
        <time>2014-02-12T12:55:29.000Z</time>
      </trkpt>
      <trkpt lat="45.9154" lon="6.5122">
        <ele>2416.1999511719</ele>
        <time>2014-02-12T12:55:30.000Z</time>
      </trkpt>
      <trkpt lat="45.9154" lon="6.51221">
        <ele>2416.3999023438</ele>
        <time>2014-02-12T12:55:31.000Z</time>
      </trkpt>
      <trkpt lat="45.91539" lon="6.51221">
        <ele>2416.3999023438</ele>
        <time>2014-02-12T12:55:32.000Z</time>
      </trkpt>
      <trkpt lat="45.91539" lon="6.51222">
        <ele>2416.6000976562</ele>
        <time>2014-02-12T12:55:33.000Z</time>
      </trkpt>
      <trkpt lat="45.91539" lon="6.51222">
        <ele>2416.1999511719</ele>
        <time>2014-02-12T12:55:34.000Z</time>
      </trkpt>
      <trkpt lat="45.91538" lon="6.51221">
        <ele>2415.8000488281</ele>
        <time>2014-02-12T12:55:35.000Z</time>
      </trkpt>
      <trkpt lat="45.91538" lon="6.51221">
        <ele>2415.8000488281</ele>
        <time>2014-02-12T12:55:36.000Z</time>
      </trkpt>
      <trkpt lat="45.91538" lon="6.51221">
        <ele>2415.8000488281</ele>
        <time>2014-02-12T12:55:37.000Z</time>
      </trkpt>
      <trkpt lat="45.91538" lon="6.51221">
        <ele>2415.8000488281</ele>
        <time>2014-02-12T12:55:38.000Z</time>
      </trkpt>
      <trkpt lat="45.91538" lon="6.51221">
        <ele>2415.8000488281</ele>
        <time>2014-02-12T12:55:39.000Z</time>
      </trkpt>
      <trkpt lat="45.91538" lon="6.51221">
        <ele>2415.8000488281</ele>
        <time>2014-02-12T12:55:40.000Z</time>
      </trkpt>
      <trkpt lat="45.91538" lon="6.51221">
        <ele>2415.8000488281</ele>
        <time>2014-02-12T12:55:41.000Z</time>
      </trkpt>
      <trkpt lat="45.91538" lon="6.51221">
        <ele>2415.8000488281</ele>
        <time>2014-02-12T12:55:42.000Z</time>
      </trkpt>
      <trkpt lat="45.91538" lon="6.51221">
        <ele>2415.8000488281</ele>
        <time>2014-02-12T12:55:43.000Z</time>
      </trkpt>
      <trkpt lat="45.91538" lon="6.51221">
        <ele>2415.8000488281</ele>
        <time>2014-02-12T12:55:44.000Z</time>
      </trkpt>
      <trkpt lat="45.91538" lon="6.51221">
        <ele>2415.8000488281</ele>
        <time>2014-02-12T12:55:45.000Z</time>
      </trkpt>
      <trkpt lat="45.91538" lon="6.51221">
        <ele>2415.8000488281</ele>
        <time>2014-02-12T12:55:46.000Z</time>
      </trkpt>
      <trkpt lat="45.91538" lon="6.51222">
        <ele>2416.1999511719</ele>
        <time>2014-02-12T12:55:47.000Z</time>
      </trkpt>
      <trkpt lat="45.91538" lon="6.51224">
        <ele>2416.3999023438</ele>
        <time>2014-02-12T12:55:48.000Z</time>
      </trkpt>
      <trkpt lat="45.91537" lon="6.51225">
        <ele>2416.3999023438</ele>
        <time>2014-02-12T12:55:49.000Z</time>
      </trkpt>
      <trkpt lat="45.91537" lon="6.51226">
        <ele>2416.6000976562</ele>
        <time>2014-02-12T12:55:50.000Z</time>
      </trkpt>
      <trkpt lat="45.91536" lon="6.51227">
        <ele>2416.6000976562</ele>
        <time>2014-02-12T12:55:51.000Z</time>
      </trkpt>
      <trkpt lat="45.91536" lon="6.51227">
        <ele>2416.8000488281</ele>
        <time>2014-02-12T12:55:52.000Z</time>
      </trkpt>
      <trkpt lat="45.91536" lon="6.51228">
        <ele>2417</ele>
        <time>2014-02-12T12:55:53.000Z</time>
      </trkpt>
      <trkpt lat="45.91536" lon="6.51228">
        <ele>2417</ele>
        <time>2014-02-12T12:55:54.000Z</time>
      </trkpt>
      <trkpt lat="45.91536" lon="6.51228">
        <ele>2417</ele>
        <time>2014-02-12T12:55:55.000Z</time>
      </trkpt>
      <trkpt lat="45.91536" lon="6.51229">
        <ele>2417.1999511719</ele>
        <time>2014-02-12T12:55:56.000Z</time>
      </trkpt>
      <trkpt lat="45.91536" lon="6.51229">
        <ele>2417.1999511719</ele>
        <time>2014-02-12T12:55:57.000Z</time>
      </trkpt>
      <trkpt lat="45.91536" lon="6.51229">
        <ele>2417.1999511719</ele>
        <time>2014-02-12T12:55:58.000Z</time>
      </trkpt>
      <trkpt lat="45.91536" lon="6.51229">
        <ele>2417.1999511719</ele>
        <time>2014-02-12T12:55:59.000Z</time>
      </trkpt>
      <trkpt lat="45.91536" lon="6.51229">
        <ele>2417.1999511719</ele>
        <time>2014-02-12T12:56:01.000Z</time>
      </trkpt>
      <trkpt lat="45.91536" lon="6.51229">
        <ele>2417.1999511719</ele>
        <time>2014-02-12T12:56:02.000Z</time>
      </trkpt>
      <trkpt lat="45.91536" lon="6.51229">
        <ele>2417.1999511719</ele>
        <time>2014-02-12T12:56:03.000Z</time>
      </trkpt>
      <trkpt lat="45.91536" lon="6.51229">
        <ele>2417.1999511719</ele>
        <time>2014-02-12T12:56:04.000Z</time>
      </trkpt>
      <trkpt lat="45.91536" lon="6.51229">
        <ele>2417.1999511719</ele>
        <time>2014-02-12T12:56:05.000Z</time>
      </trkpt>
      <trkpt lat="45.91536" lon="6.51229">
        <ele>2417.1999511719</ele>
        <time>2014-02-12T12:56:07.000Z</time>
      </trkpt>
      <trkpt lat="45.91536" lon="6.51229">
        <ele>2417.1999511719</ele>
        <time>2014-02-12T12:56:08.000Z</time>
      </trkpt>
      <trkpt lat="45.91536" lon="6.51229">
        <ele>2417.1999511719</ele>
        <time>2014-02-12T12:56:09.000Z</time>
      </trkpt>
      <trkpt lat="45.91536" lon="6.51229">
        <ele>2417.1999511719</ele>
        <time>2014-02-12T12:56:10.000Z</time>
      </trkpt>
      <trkpt lat="45.91535" lon="6.5123">
        <ele>2417.1999511719</ele>
        <time>2014-02-12T12:56:11.000Z</time>
      </trkpt>
      <trkpt lat="45.91535" lon="6.51231">
        <ele>2417.3999023438</ele>
        <time>2014-02-12T12:56:12.000Z</time>
      </trkpt>
      <trkpt lat="45.91535" lon="6.51232">
        <ele>2417.8000488281</ele>
        <time>2014-02-12T12:56:13.000Z</time>
      </trkpt>
      <trkpt lat="45.91534" lon="6.51234">
        <ele>2417.6000976562</ele>
        <time>2014-02-12T12:56:14.000Z</time>
      </trkpt>
      <trkpt lat="45.91533" lon="6.51236">
        <ele>2416.3999023438</ele>
        <time>2014-02-12T12:56:15.000Z</time>
      </trkpt>
      <trkpt lat="45.91533" lon="6.51239">
        <ele>2415.1999511719</ele>
        <time>2014-02-12T12:56:16.000Z</time>
      </trkpt>
      <trkpt lat="45.91532" lon="6.5124">
        <ele>2414</ele>
        <time>2014-02-12T12:56:17.000Z</time>
      </trkpt>
      <trkpt lat="45.91532" lon="6.51242">
        <ele>2413.1999511719</ele>
        <time>2014-02-12T12:56:18.000Z</time>
      </trkpt>
      <trkpt lat="45.91531" lon="6.51243">
        <ele>2412.1999511719</ele>
        <time>2014-02-12T12:56:19.000Z</time>
      </trkpt>
      <trkpt lat="45.91531" lon="6.51245">
        <ele>2411.1999511719</ele>
        <time>2014-02-12T12:56:20.000Z</time>
      </trkpt>
      <trkpt lat="45.9153" lon="6.51247">
        <ele>2410.1999511719</ele>
        <time>2014-02-12T12:56:21.000Z</time>
      </trkpt>
      <trkpt lat="45.9153" lon="6.51248">
        <ele>2409.3999023438</ele>
        <time>2014-02-12T12:56:22.000Z</time>
      </trkpt>
      <trkpt lat="45.9153" lon="6.51248">
        <ele>2409.3999023438</ele>
        <time>2014-02-12T12:56:23.000Z</time>
      </trkpt>
      <trkpt lat="45.9153" lon="6.51248">
        <ele>2409.3999023438</ele>
        <time>2014-02-12T12:56:24.000Z</time>
      </trkpt>
      <trkpt lat="45.9153" lon="6.5125">
        <ele>2408.3999023438</ele>
        <time>2014-02-12T12:56:25.000Z</time>
      </trkpt>
      <trkpt lat="45.91529" lon="6.51251">
        <ele>2407.3999023438</ele>
        <time>2014-02-12T12:56:26.000Z</time>
      </trkpt>
      <trkpt lat="45.91529" lon="6.51251">
        <ele>2407.3999023438</ele>
        <time>2014-02-12T12:56:27.000Z</time>
      </trkpt>
      <trkpt lat="45.91529" lon="6.51251">
        <ele>2407.3999023438</ele>
        <time>2014-02-12T12:56:28.000Z</time>
      </trkpt>
      <trkpt lat="45.91529" lon="6.51251">
        <ele>2407.3999023438</ele>
        <time>2014-02-12T12:56:29.000Z</time>
      </trkpt>
      <trkpt lat="45.91529" lon="6.51251">
        <ele>2407.3999023438</ele>
        <time>2014-02-12T12:56:30.000Z</time>
      </trkpt>
      <trkpt lat="45.91529" lon="6.51251">
        <ele>2407.3999023438</ele>
        <time>2014-02-12T12:56:31.000Z</time>
      </trkpt>
      <trkpt lat="45.91529" lon="6.51251">
        <ele>2407.3999023438</ele>
        <time>2014-02-12T12:56:32.000Z</time>
      </trkpt>
      <trkpt lat="45.91529" lon="6.51252">
        <ele>2407</ele>
        <time>2014-02-12T12:56:33.000Z</time>
      </trkpt>
      <trkpt lat="45.91529" lon="6.51252">
        <ele>2407</ele>
        <time>2014-02-12T12:56:34.000Z</time>
      </trkpt>
      <trkpt lat="45.91529" lon="6.51253">
        <ele>2406.6000976562</ele>
        <time>2014-02-12T12:56:35.000Z</time>
      </trkpt>
      <trkpt lat="45.91529" lon="6.51253">
        <ele>2406.6000976562</ele>
        <time>2014-02-12T12:56:36.000Z</time>
      </trkpt>
      <trkpt lat="45.91529" lon="6.51254">
        <ele>2406</ele>
        <time>2014-02-12T12:56:37.000Z</time>
      </trkpt>
      <trkpt lat="45.91528" lon="6.51255">
        <ele>2405.3999023438</ele>
        <time>2014-02-12T12:56:38.000Z</time>
      </trkpt>
      <trkpt lat="45.91528" lon="6.51257">
        <ele>2404.6000976562</ele>
        <time>2014-02-12T12:56:39.000Z</time>
      </trkpt>
      <trkpt lat="45.91528" lon="6.51258">
        <ele>2403.8000488281</ele>
        <time>2014-02-12T12:56:40.000Z</time>
      </trkpt>
      <trkpt lat="45.91527" lon="6.51259">
        <ele>2403.1999511719</ele>
        <time>2014-02-12T12:56:41.000Z</time>
      </trkpt>
      <trkpt lat="45.91528" lon="6.51259">
        <ele>2403</ele>
        <time>2014-02-12T12:56:42.000Z</time>
      </trkpt>
      <trkpt lat="45.91527" lon="6.5126">
        <ele>2402.3999023438</ele>
        <time>2014-02-12T12:56:43.000Z</time>
      </trkpt>
      <trkpt lat="45.91527" lon="6.51261">
        <ele>2401.8000488281</ele>
        <time>2014-02-12T12:56:44.000Z</time>
      </trkpt>
      <trkpt lat="45.91527" lon="6.51262">
        <ele>2401.3999023438</ele>
        <time>2014-02-12T12:56:45.000Z</time>
      </trkpt>
      <trkpt lat="45.91527" lon="6.51263">
        <ele>2401</ele>
        <time>2014-02-12T12:56:46.000Z</time>
      </trkpt>
      <trkpt lat="45.91527" lon="6.51263">
        <ele>2401</ele>
        <time>2014-02-12T12:56:47.000Z</time>
      </trkpt>
      <trkpt lat="45.91526" lon="6.51264">
        <ele>2400.6000976562</ele>
        <time>2014-02-12T12:56:48.000Z</time>
      </trkpt>
      <trkpt lat="45.91526" lon="6.51264">
        <ele>2400.6000976562</ele>
        <time>2014-02-12T12:56:49.000Z</time>
      </trkpt>
      <trkpt lat="45.91526" lon="6.51264">
        <ele>2400</ele>
        <time>2014-02-12T12:56:50.000Z</time>
      </trkpt>
      <trkpt lat="45.91526" lon="6.51264">
        <ele>2400</ele>
        <time>2014-02-12T12:56:51.000Z</time>
      </trkpt>
      <trkpt lat="45.91526" lon="6.51265">
        <ele>2399.6000976562</ele>
        <time>2014-02-12T12:56:52.000Z</time>
      </trkpt>
      <trkpt lat="45.91526" lon="6.51265">
        <ele>2399.6000976562</ele>
        <time>2014-02-12T12:56:53.000Z</time>
      </trkpt>
      <trkpt lat="45.91525" lon="6.51266">
        <ele>2399</ele>
        <time>2014-02-12T12:56:54.000Z</time>
      </trkpt>
      <trkpt lat="45.91525" lon="6.51266">
        <ele>2399</ele>
        <time>2014-02-12T12:56:55.000Z</time>
      </trkpt>
      <trkpt lat="45.91525" lon="6.51266">
        <ele>2399</ele>
        <time>2014-02-12T12:56:56.000Z</time>
      </trkpt>
      <trkpt lat="45.91525" lon="6.51266">
        <ele>2399</ele>
        <time>2014-02-12T12:56:57.000Z</time>
      </trkpt>
      <trkpt lat="45.91525" lon="6.51266">
        <ele>2399</ele>
        <time>2014-02-12T12:56:58.000Z</time>
      </trkpt>
      <trkpt lat="45.91525" lon="6.51266">
        <ele>2399</ele>
        <time>2014-02-12T12:56:59.000Z</time>
      </trkpt>
      <trkpt lat="45.91525" lon="6.51266">
        <ele>2399</ele>
        <time>2014-02-12T12:57:00.000Z</time>
      </trkpt>
      <trkpt lat="45.91525" lon="6.51266">
        <ele>2399</ele>
        <time>2014-02-12T12:57:01.000Z</time>
      </trkpt>
      <trkpt lat="45.91525" lon="6.51266">
        <ele>2399</ele>
        <time>2014-02-12T12:57:02.000Z</time>
      </trkpt>
      <trkpt lat="45.91525" lon="6.51266">
        <ele>2399</ele>
        <time>2014-02-12T12:57:03.000Z</time>
      </trkpt>
      <trkpt lat="45.91525" lon="6.51266">
        <ele>2399</ele>
        <time>2014-02-12T12:57:04.000Z</time>
      </trkpt>
      <trkpt lat="45.91526" lon="6.51265">
        <ele>2400</ele>
        <time>2014-02-12T12:57:05.000Z</time>
      </trkpt>
      <trkpt lat="45.91526" lon="6.51265">
        <ele>2400</ele>
        <time>2014-02-12T12:57:06.000Z</time>
      </trkpt>
      <trkpt lat="45.91527" lon="6.51264">
        <ele>2400.6000976562</ele>
        <time>2014-02-12T12:57:07.000Z</time>
      </trkpt>
      <trkpt lat="45.91528" lon="6.51263">
        <ele>2401.3999023438</ele>
        <time>2014-02-12T12:57:08.000Z</time>
      </trkpt>
      <trkpt lat="45.91528" lon="6.51263">
        <ele>2401.8000488281</ele>
        <time>2014-02-12T12:57:09.000Z</time>
      </trkpt>
      <trkpt lat="45.91528" lon="6.51263">
        <ele>2401.8000488281</ele>
        <time>2014-02-12T12:57:10.000Z</time>
      </trkpt>
      <trkpt lat="45.91529" lon="6.51263">
        <ele>2402.3999023438</ele>
        <time>2014-02-12T12:57:11.000Z</time>
      </trkpt>
      <trkpt lat="45.91529" lon="6.51263">
        <ele>2402.3999023438</ele>
        <time>2014-02-12T12:57:12.000Z</time>
      </trkpt>
      <trkpt lat="45.9153" lon="6.51263">
        <ele>2403</ele>
        <time>2014-02-12T12:57:13.000Z</time>
      </trkpt>
      <trkpt lat="45.9153" lon="6.51263">
        <ele>2403</ele>
        <time>2014-02-12T12:57:14.000Z</time>
      </trkpt>
      <trkpt lat="45.91531" lon="6.51263">
        <ele>2403.1999511719</ele>
        <time>2014-02-12T12:57:15.000Z</time>
      </trkpt>
      <trkpt lat="45.91531" lon="6.51263">
        <ele>2403.1999511719</ele>
        <time>2014-02-12T12:57:16.000Z</time>
      </trkpt>
      <trkpt lat="45.91532" lon="6.51263">
        <ele>2403.8000488281</ele>
        <time>2014-02-12T12:57:17.000Z</time>
      </trkpt>
      <trkpt lat="45.91533" lon="6.51263">
        <ele>2404.1999511719</ele>
        <time>2014-02-12T12:57:18.000Z</time>
      </trkpt>
      <trkpt lat="45.91534" lon="6.51263">
        <ele>2404.8000488281</ele>
        <time>2014-02-12T12:57:19.000Z</time>
      </trkpt>
      <trkpt lat="45.91534" lon="6.51263">
        <ele>2404.8000488281</ele>
        <time>2014-02-12T12:57:20.000Z</time>
      </trkpt>
      <trkpt lat="45.91535" lon="6.51263">
        <ele>2405.6000976562</ele>
        <time>2014-02-12T12:57:21.000Z</time>
      </trkpt>
      <trkpt lat="45.91535" lon="6.51263">
        <ele>2405.6000976562</ele>
        <time>2014-02-12T12:57:22.000Z</time>
      </trkpt>
      <trkpt lat="45.91536" lon="6.51263">
        <ele>2406</ele>
        <time>2014-02-12T12:57:23.000Z</time>
      </trkpt>
      <trkpt lat="45.91536" lon="6.51263">
        <ele>2406</ele>
        <time>2014-02-12T12:57:24.000Z</time>
      </trkpt>
      <trkpt lat="45.91537" lon="6.51262">
        <ele>2406.6000976562</ele>
        <time>2014-02-12T12:57:25.000Z</time>
      </trkpt>
      <trkpt lat="45.91538" lon="6.51262">
        <ele>2407.1999511719</ele>
        <time>2014-02-12T12:57:26.000Z</time>
      </trkpt>
      <trkpt lat="45.91539" lon="6.51261">
        <ele>2408</ele>
        <time>2014-02-12T12:57:27.000Z</time>
      </trkpt>
      <trkpt lat="45.91539" lon="6.51261">
        <ele>2408.3999023438</ele>
        <time>2014-02-12T12:57:28.000Z</time>
      </trkpt>
      <trkpt lat="45.91539" lon="6.51261">
        <ele>2408.3999023438</ele>
        <time>2014-02-12T12:57:29.000Z</time>
      </trkpt>
      <trkpt lat="45.9154" lon="6.51261">
        <ele>2408.8000488281</ele>
        <time>2014-02-12T12:57:30.000Z</time>
      </trkpt>
      <trkpt lat="45.9154" lon="6.51261">
        <ele>2408.8000488281</ele>
        <time>2014-02-12T12:57:31.000Z</time>
      </trkpt>
      <trkpt lat="45.91541" lon="6.51261">
        <ele>2409.1999511719</ele>
        <time>2014-02-12T12:57:32.000Z</time>
      </trkpt>
      <trkpt lat="45.91542" lon="6.51261">
        <ele>2409.8000488281</ele>
        <time>2014-02-12T12:57:33.000Z</time>
      </trkpt>
      <trkpt lat="45.91542" lon="6.5126">
        <ele>2410.3999023438</ele>
        <time>2014-02-12T12:57:34.000Z</time>
      </trkpt>
      <trkpt lat="45.91543" lon="6.5126">
        <ele>2411</ele>
        <time>2014-02-12T12:57:35.000Z</time>
      </trkpt>
      <trkpt lat="45.91543" lon="6.51259">
        <ele>2411.1999511719</ele>
        <time>2014-02-12T12:57:36.000Z</time>
      </trkpt>
      <trkpt lat="45.91543" lon="6.51259">
        <ele>2411.1999511719</ele>
        <time>2014-02-12T12:57:37.000Z</time>
      </trkpt>
      <trkpt lat="45.91543" lon="6.51259">
        <ele>2411.1999511719</ele>
        <time>2014-02-12T12:57:38.000Z</time>
      </trkpt>
      <trkpt lat="45.91543" lon="6.51259">
        <ele>2411.1999511719</ele>
        <time>2014-02-12T12:57:39.000Z</time>
      </trkpt>
      <trkpt lat="45.91543" lon="6.51259">
        <ele>2411.1999511719</ele>
        <time>2014-02-12T12:57:40.000Z</time>
      </trkpt>
      <trkpt lat="45.91543" lon="6.51259">
        <ele>2411.1999511719</ele>
        <time>2014-02-12T12:57:41.000Z</time>
      </trkpt>
      <trkpt lat="45.91543" lon="6.51259">
        <ele>2411.1999511719</ele>
        <time>2014-02-12T12:57:42.000Z</time>
      </trkpt>
      <trkpt lat="45.91543" lon="6.51259">
        <ele>2411.1999511719</ele>
        <time>2014-02-12T12:57:43.000Z</time>
      </trkpt>
      <trkpt lat="45.91543" lon="6.51259">
        <ele>2411.1999511719</ele>
        <time>2014-02-12T12:57:44.000Z</time>
      </trkpt>
      <trkpt lat="45.91543" lon="6.51259">
        <ele>2411.1999511719</ele>
        <time>2014-02-12T12:57:45.000Z</time>
      </trkpt>
      <trkpt lat="45.91543" lon="6.51259">
        <ele>2411.1999511719</ele>
        <time>2014-02-12T12:57:46.000Z</time>
      </trkpt>
      <trkpt lat="45.91543" lon="6.51259">
        <ele>2411.1999511719</ele>
        <time>2014-02-12T12:57:47.000Z</time>
      </trkpt>
      <trkpt lat="45.91543" lon="6.51259">
        <ele>2411.1999511719</ele>
        <time>2014-02-12T12:57:48.000Z</time>
      </trkpt>
      <trkpt lat="45.91543" lon="6.51259">
        <ele>2411.1999511719</ele>
        <time>2014-02-12T12:57:49.000Z</time>
      </trkpt>
      <trkpt lat="45.91543" lon="6.51259">
        <ele>2411.1999511719</ele>
        <time>2014-02-12T12:57:50.000Z</time>
      </trkpt>
      <trkpt lat="45.91543" lon="6.51259">
        <ele>2411.1999511719</ele>
        <time>2014-02-12T12:57:51.000Z</time>
      </trkpt>
      <trkpt lat="45.91543" lon="6.5126">
        <ele>2410.6000976562</ele>
        <time>2014-02-12T12:57:52.000Z</time>
      </trkpt>
      <trkpt lat="45.91542" lon="6.51262">
        <ele>2409.8000488281</ele>
        <time>2014-02-12T12:57:53.000Z</time>
      </trkpt>
      <trkpt lat="45.91542" lon="6.51263">
        <ele>2409</ele>
        <time>2014-02-12T12:57:54.000Z</time>
      </trkpt>
      <trkpt lat="45.91541" lon="6.51264">
        <ele>2408.1999511719</ele>
        <time>2014-02-12T12:57:55.000Z</time>
      </trkpt>
      <trkpt lat="45.91541" lon="6.51265">
        <ele>2407.8000488281</ele>
        <time>2014-02-12T12:57:56.000Z</time>
      </trkpt>
      <trkpt lat="45.91541" lon="6.51265">
        <ele>2407.1999511719</ele>
        <time>2014-02-12T12:57:57.000Z</time>
      </trkpt>
      <trkpt lat="45.9154" lon="6.51267">
        <ele>2406.3999023438</ele>
        <time>2014-02-12T12:57:58.000Z</time>
      </trkpt>
      <trkpt lat="45.9154" lon="6.51268">
        <ele>2405.6000976562</ele>
        <time>2014-02-12T12:57:59.000Z</time>
      </trkpt>
      <trkpt lat="45.91539" lon="6.51269">
        <ele>2405</ele>
        <time>2014-02-12T12:58:00.000Z</time>
      </trkpt>
      <trkpt lat="45.91539" lon="6.5127">
        <ele>2404.1999511719</ele>
        <time>2014-02-12T12:58:01.000Z</time>
      </trkpt>
      <trkpt lat="45.91538" lon="6.51271">
        <ele>2403.3999023438</ele>
        <time>2014-02-12T12:58:02.000Z</time>
      </trkpt>
      <trkpt lat="45.91538" lon="6.51272">
        <ele>2402.6000976562</ele>
        <time>2014-02-12T12:58:03.000Z</time>
      </trkpt>
      <trkpt lat="45.91537" lon="6.51273">
        <ele>2401.8000488281</ele>
        <time>2014-02-12T12:58:04.000Z</time>
      </trkpt>
      <trkpt lat="45.91536" lon="6.51274">
        <ele>2401</ele>
        <time>2014-02-12T12:58:05.000Z</time>
      </trkpt>
      <trkpt lat="45.91536" lon="6.51275">
        <ele>2400.3999023438</ele>
        <time>2014-02-12T12:58:06.000Z</time>
      </trkpt>
      <trkpt lat="45.91535" lon="6.51276">
        <ele>2399.6000976562</ele>
        <time>2014-02-12T12:58:07.000Z</time>
      </trkpt>
      <trkpt lat="45.91535" lon="6.51278">
        <ele>2398.8000488281</ele>
        <time>2014-02-12T12:58:08.000Z</time>
      </trkpt>
      <trkpt lat="45.91535" lon="6.51278">
        <ele>2398.3999023438</ele>
        <time>2014-02-12T12:58:09.000Z</time>
      </trkpt>
      <trkpt lat="45.91535" lon="6.51279">
        <ele>2398.1999511719</ele>
        <time>2014-02-12T12:58:10.000Z</time>
      </trkpt>
      <trkpt lat="45.91535" lon="6.51279">
        <ele>2398</ele>
        <time>2014-02-12T12:58:11.000Z</time>
      </trkpt>
      <trkpt lat="45.91535" lon="6.51279">
        <ele>2398</ele>
        <time>2014-02-12T12:58:12.000Z</time>
      </trkpt>
      <trkpt lat="45.91535" lon="6.51279">
        <ele>2398</ele>
        <time>2014-02-12T12:58:13.000Z</time>
      </trkpt>
      <trkpt lat="45.91535" lon="6.51279">
        <ele>2398</ele>
        <time>2014-02-12T12:58:14.000Z</time>
      </trkpt>
      <trkpt lat="45.91535" lon="6.51279">
        <ele>2398</ele>
        <time>2014-02-12T12:58:15.000Z</time>
      </trkpt>
      <trkpt lat="45.91535" lon="6.51279">
        <ele>2398</ele>
        <time>2014-02-12T12:58:16.000Z</time>
      </trkpt>
      <trkpt lat="45.91535" lon="6.51279">
        <ele>2398</ele>
        <time>2014-02-12T12:58:17.000Z</time>
      </trkpt>
      <trkpt lat="45.91535" lon="6.51279">
        <ele>2398</ele>
        <time>2014-02-12T12:58:18.000Z</time>
      </trkpt>
      <trkpt lat="45.91536" lon="6.51277">
        <ele>2399.8000488281</ele>
        <time>2014-02-12T12:58:19.000Z</time>
      </trkpt>
      <trkpt lat="45.91536" lon="6.51277">
        <ele>2399.8000488281</ele>
        <time>2014-02-12T12:58:20.000Z</time>
      </trkpt>
      <trkpt lat="45.91537" lon="6.51277">
        <ele>2400.3999023438</ele>
        <time>2014-02-12T12:58:21.000Z</time>
      </trkpt>
      <trkpt lat="45.91537" lon="6.51277">
        <ele>2400.3999023438</ele>
        <time>2014-02-12T12:58:22.000Z</time>
      </trkpt>
      <trkpt lat="45.9154" lon="6.51276">
        <ele>2402</ele>
        <time>2014-02-12T12:58:23.000Z</time>
      </trkpt>
      <trkpt lat="45.9154" lon="6.51276">
        <ele>2402</ele>
        <time>2014-02-12T12:58:24.000Z</time>
      </trkpt>
      <trkpt lat="45.91541" lon="6.51275">
        <ele>2403.1999511719</ele>
        <time>2014-02-12T12:58:25.000Z</time>
      </trkpt>
      <trkpt lat="45.91542" lon="6.51274">
        <ele>2404.1999511719</ele>
        <time>2014-02-12T12:58:26.000Z</time>
      </trkpt>
      <trkpt lat="45.91544" lon="6.51273">
        <ele>2405.1999511719</ele>
        <time>2014-02-12T12:58:27.000Z</time>
      </trkpt>
      <trkpt lat="45.91545" lon="6.51273">
        <ele>2406</ele>
        <time>2014-02-12T12:58:28.000Z</time>
      </trkpt>
      <trkpt lat="45.91545" lon="6.51273">
        <ele>2406.6000976562</ele>
        <time>2014-02-12T12:58:29.000Z</time>
      </trkpt>
      <trkpt lat="45.91546" lon="6.51272">
        <ele>2407.3999023438</ele>
        <time>2014-02-12T12:58:30.000Z</time>
      </trkpt>
      <trkpt lat="45.91546" lon="6.51272">
        <ele>2407.3999023438</ele>
        <time>2014-02-12T12:58:31.000Z</time>
      </trkpt>
      <trkpt lat="45.91547" lon="6.51271">
        <ele>2408</ele>
        <time>2014-02-12T12:58:32.000Z</time>
      </trkpt>
      <trkpt lat="45.91548" lon="6.51271">
        <ele>2408.6000976562</ele>
        <time>2014-02-12T12:58:33.000Z</time>
      </trkpt>
      <trkpt lat="45.91548" lon="6.51271">
        <ele>2408.6000976562</ele>
        <time>2014-02-12T12:58:34.000Z</time>
      </trkpt>
      <trkpt lat="45.91549" lon="6.51271">
        <ele>2409</ele>
        <time>2014-02-12T12:58:35.000Z</time>
      </trkpt>
      <trkpt lat="45.91549" lon="6.51271">
        <ele>2409</ele>
        <time>2014-02-12T12:58:36.000Z</time>
      </trkpt>
      <trkpt lat="45.91549" lon="6.5127">
        <ele>2409.6000976562</ele>
        <time>2014-02-12T12:58:37.000Z</time>
      </trkpt>
      <trkpt lat="45.91549" lon="6.5127">
        <ele>2409.6000976562</ele>
        <time>2014-02-12T12:58:38.000Z</time>
      </trkpt>
      <trkpt lat="45.9155" lon="6.51269">
        <ele>2410.3999023438</ele>
        <time>2014-02-12T12:58:39.000Z</time>
      </trkpt>
      <trkpt lat="45.9155" lon="6.51269">
        <ele>2411</ele>
        <time>2014-02-12T12:58:40.000Z</time>
      </trkpt>
      <trkpt lat="45.91551" lon="6.51268">
        <ele>2411.3999023438</ele>
        <time>2014-02-12T12:58:41.000Z</time>
      </trkpt>
      <trkpt lat="45.91551" lon="6.51268">
        <ele>2411.3999023438</ele>
        <time>2014-02-12T12:58:42.000Z</time>
      </trkpt>
      <trkpt lat="45.91551" lon="6.51268">
        <ele>2411.3999023438</ele>
        <time>2014-02-12T12:58:43.000Z</time>
      </trkpt>
      <trkpt lat="45.91551" lon="6.51268">
        <ele>2411.3999023438</ele>
        <time>2014-02-12T12:58:44.000Z</time>
      </trkpt>
      <trkpt lat="45.91551" lon="6.51268">
        <ele>2411.3999023438</ele>
        <time>2014-02-12T12:58:45.000Z</time>
      </trkpt>
      <trkpt lat="45.91551" lon="6.51268">
        <ele>2411.3999023438</ele>
        <time>2014-02-12T12:58:46.000Z</time>
      </trkpt>
      <trkpt lat="45.91551" lon="6.51268">
        <ele>2411.3999023438</ele>
        <time>2014-02-12T12:58:47.000Z</time>
      </trkpt>
      <trkpt lat="45.91551" lon="6.51268">
        <ele>2411.3999023438</ele>
        <time>2014-02-12T12:58:48.000Z</time>
      </trkpt>
      <trkpt lat="45.91551" lon="6.51268">
        <ele>2411.3999023438</ele>
        <time>2014-02-12T12:58:49.000Z</time>
      </trkpt>
      <trkpt lat="45.91551" lon="6.51268">
        <ele>2411.3999023438</ele>
        <time>2014-02-12T12:58:50.000Z</time>
      </trkpt>
      <trkpt lat="45.91551" lon="6.51269">
        <ele>2411</ele>
        <time>2014-02-12T12:58:51.000Z</time>
      </trkpt>
      <trkpt lat="45.91551" lon="6.51269">
        <ele>2411</ele>
        <time>2014-02-12T12:58:52.000Z</time>
      </trkpt>
      <trkpt lat="45.91551" lon="6.51269">
        <ele>2411</ele>
        <time>2014-02-12T12:58:53.000Z</time>
      </trkpt>
      <trkpt lat="45.91551" lon="6.51269">
        <ele>2411</ele>
        <time>2014-02-12T12:58:54.000Z</time>
      </trkpt>
      <trkpt lat="45.91551" lon="6.51269">
        <ele>2411</ele>
        <time>2014-02-12T12:58:55.000Z</time>
      </trkpt>
      <trkpt lat="45.91551" lon="6.51271">
        <ele>2410.3999023438</ele>
        <time>2014-02-12T12:58:56.000Z</time>
      </trkpt>
      <trkpt lat="45.91551" lon="6.51271">
        <ele>2410.3999023438</ele>
        <time>2014-02-12T12:58:57.000Z</time>
      </trkpt>
      <trkpt lat="45.9155" lon="6.51272">
        <ele>2409.6000976562</ele>
        <time>2014-02-12T12:58:58.000Z</time>
      </trkpt>
      <trkpt lat="45.9155" lon="6.51272">
        <ele>2409.6000976562</ele>
        <time>2014-02-12T12:58:59.000Z</time>
      </trkpt>
      <trkpt lat="45.9155" lon="6.51272">
        <ele>2409.6000976562</ele>
        <time>2014-02-12T12:59:00.000Z</time>
      </trkpt>
      <trkpt lat="45.9155" lon="6.51272">
        <ele>2409.6000976562</ele>
        <time>2014-02-12T12:59:01.000Z</time>
      </trkpt>
      <trkpt lat="45.9155" lon="6.51273">
        <ele>2408.8000488281</ele>
        <time>2014-02-12T12:59:02.000Z</time>
      </trkpt>
      <trkpt lat="45.9155" lon="6.51275">
        <ele>2408</ele>
        <time>2014-02-12T12:59:03.000Z</time>
      </trkpt>
      <trkpt lat="45.91549" lon="6.51276">
        <ele>2407.1999511719</ele>
        <time>2014-02-12T12:59:04.000Z</time>
      </trkpt>
      <trkpt lat="45.91549" lon="6.51277">
        <ele>2406.6000976562</ele>
        <time>2014-02-12T12:59:05.000Z</time>
      </trkpt>
      <trkpt lat="45.91548" lon="6.51278">
        <ele>2405.8000488281</ele>
        <time>2014-02-12T12:59:06.000Z</time>
      </trkpt>
      <trkpt lat="45.91548" lon="6.51279">
        <ele>2405.3999023438</ele>
        <time>2014-02-12T12:59:07.000Z</time>
      </trkpt>
      <trkpt lat="45.91548" lon="6.51279">
        <ele>2405.3999023438</ele>
        <time>2014-02-12T12:59:08.000Z</time>
      </trkpt>
      <trkpt lat="45.91548" lon="6.51279">
        <ele>2405.3999023438</ele>
        <time>2014-02-12T12:59:09.000Z</time>
      </trkpt>
      <trkpt lat="45.91548" lon="6.51279">
        <ele>2405.3999023438</ele>
        <time>2014-02-12T12:59:10.000Z</time>
      </trkpt>
      <trkpt lat="45.91549" lon="6.5128">
        <ele>2405.1999511719</ele>
        <time>2014-02-12T12:59:11.000Z</time>
      </trkpt>
      <trkpt lat="45.91549" lon="6.5128">
        <ele>2405</ele>
        <time>2014-02-12T12:59:12.000Z</time>
      </trkpt>
      <trkpt lat="45.9155" lon="6.51281">
        <ele>2405.1999511719</ele>
        <time>2014-02-12T12:59:14.000Z</time>
      </trkpt>
      <trkpt lat="45.9155" lon="6.51281">
        <ele>2405.1999511719</ele>
        <time>2014-02-12T12:59:15.000Z</time>
      </trkpt>
      <trkpt lat="45.91551" lon="6.51281">
        <ele>2406</ele>
        <time>2014-02-12T12:59:16.000Z</time>
      </trkpt>
      <trkpt lat="45.91551" lon="6.51281">
        <ele>2406</ele>
        <time>2014-02-12T12:59:17.000Z</time>
      </trkpt>
      <trkpt lat="45.91552" lon="6.5128">
        <ele>2407.1999511719</ele>
        <time>2014-02-12T12:59:18.000Z</time>
      </trkpt>
      <trkpt lat="45.91553" lon="6.51279">
        <ele>2407.3999023438</ele>
        <time>2014-02-12T12:59:19.000Z</time>
      </trkpt>
      <trkpt lat="45.91553" lon="6.51279">
        <ele>2407.8000488281</ele>
        <time>2014-02-12T12:59:20.000Z</time>
      </trkpt>
      <trkpt lat="45.91554" lon="6.51279">
        <ele>2408.3999023438</ele>
        <time>2014-02-12T12:59:21.000Z</time>
      </trkpt>
      <trkpt lat="45.91554" lon="6.51279">
        <ele>2408.3999023438</ele>
        <time>2014-02-12T12:59:22.000Z</time>
      </trkpt>
      <trkpt lat="45.91555" lon="6.51278">
        <ele>2409</ele>
        <time>2014-02-12T12:59:23.000Z</time>
      </trkpt>
      <trkpt lat="45.91555" lon="6.51278">
        <ele>2409</ele>
        <time>2014-02-12T12:59:24.000Z</time>
      </trkpt>
      <trkpt lat="45.91555" lon="6.51278">
        <ele>2409.6000976562</ele>
        <time>2014-02-12T12:59:25.000Z</time>
      </trkpt>
      <trkpt lat="45.91556" lon="6.51277">
        <ele>2410.3999023438</ele>
        <time>2014-02-12T12:59:26.000Z</time>
      </trkpt>
      <trkpt lat="45.91557" lon="6.51276">
        <ele>2411.1999511719</ele>
        <time>2014-02-12T12:59:27.000Z</time>
      </trkpt>
      <trkpt lat="45.91558" lon="6.51275">
        <ele>2411.1999511719</ele>
        <time>2014-02-12T12:59:28.000Z</time>
      </trkpt>
      <trkpt lat="45.91558" lon="6.51273">
        <ele>2411.6000976562</ele>
        <time>2014-02-12T12:59:29.000Z</time>
      </trkpt>
      <trkpt lat="45.91558" lon="6.51273">
        <ele>2411.8000488281</ele>
        <time>2014-02-12T12:59:30.000Z</time>
      </trkpt>
      <trkpt lat="45.91559" lon="6.51272">
        <ele>2412</ele>
        <time>2014-02-12T12:59:31.000Z</time>
      </trkpt>
      <trkpt lat="45.91559" lon="6.51272">
        <ele>2411.8000488281</ele>
        <time>2014-02-12T12:59:32.000Z</time>
      </trkpt>
      <trkpt lat="45.91559" lon="6.51272">
        <ele>2411.8000488281</ele>
        <time>2014-02-12T12:59:33.000Z</time>
      </trkpt>
      <trkpt lat="45.91559" lon="6.51271">
        <ele>2412</ele>
        <time>2014-02-12T12:59:34.000Z</time>
      </trkpt>
      <trkpt lat="45.91559" lon="6.51271">
        <ele>2412</ele>
        <time>2014-02-12T12:59:35.000Z</time>
      </trkpt>
      <trkpt lat="45.9156" lon="6.5127">
        <ele>2412.1999511719</ele>
        <time>2014-02-12T12:59:36.000Z</time>
      </trkpt>
      <trkpt lat="45.91561" lon="6.51269">
        <ele>2412.3999023438</ele>
        <time>2014-02-12T12:59:37.000Z</time>
      </trkpt>
      <trkpt lat="45.91561" lon="6.51269">
        <ele>2412.3999023438</ele>
        <time>2014-02-12T12:59:38.000Z</time>
      </trkpt>
      <trkpt lat="45.91562" lon="6.51268">
        <ele>2412.1999511719</ele>
        <time>2014-02-12T12:59:39.000Z</time>
      </trkpt>
      <trkpt lat="45.91562" lon="6.51268">
        <ele>2412.1999511719</ele>
        <time>2014-02-12T12:59:40.000Z</time>
      </trkpt>
      <trkpt lat="45.91563" lon="6.51267">
        <ele>2412</ele>
        <time>2014-02-12T12:59:41.000Z</time>
      </trkpt>
      <trkpt lat="45.91563" lon="6.51267">
        <ele>2412</ele>
        <time>2014-02-12T12:59:42.000Z</time>
      </trkpt>
      <trkpt lat="45.91564" lon="6.51266">
        <ele>2411.8000488281</ele>
        <time>2014-02-12T12:59:43.000Z</time>
      </trkpt>
      <trkpt lat="45.91564" lon="6.51266">
        <ele>2411.8000488281</ele>
        <time>2014-02-12T12:59:44.000Z</time>
      </trkpt>
      <trkpt lat="45.91565" lon="6.51266">
        <ele>2411.3999023438</ele>
        <time>2014-02-12T12:59:45.000Z</time>
      </trkpt>
      <trkpt lat="45.91565" lon="6.51266">
        <ele>2411.3999023438</ele>
        <time>2014-02-12T12:59:46.000Z</time>
      </trkpt>
      <trkpt lat="45.91565" lon="6.51266">
        <ele>2411.3999023438</ele>
        <time>2014-02-12T12:59:47.000Z</time>
      </trkpt>
      <trkpt lat="45.91565" lon="6.51266">
        <ele>2411.3999023438</ele>
        <time>2014-02-12T12:59:48.000Z</time>
      </trkpt>
      <trkpt lat="45.91565" lon="6.51266">
        <ele>2411.3999023438</ele>
        <time>2014-02-12T12:59:49.000Z</time>
      </trkpt>
      <trkpt lat="45.91565" lon="6.51266">
        <ele>2411.3999023438</ele>
        <time>2014-02-12T12:59:51.000Z</time>
      </trkpt>
      <trkpt lat="45.91565" lon="6.51266">
        <ele>2411.3999023438</ele>
        <time>2014-02-12T12:59:52.000Z</time>
      </trkpt>
      <trkpt lat="45.91567" lon="6.51266">
        <ele>2410.6000976562</ele>
        <time>2014-02-12T12:59:53.000Z</time>
      </trkpt>
      <trkpt lat="45.91568" lon="6.51266">
        <ele>2409.8000488281</ele>
        <time>2014-02-12T12:59:54.000Z</time>
      </trkpt>
      <trkpt lat="45.9157" lon="6.51266">
        <ele>2409.1999511719</ele>
        <time>2014-02-12T12:59:55.000Z</time>
      </trkpt>
      <trkpt lat="45.91572" lon="6.51265">
        <ele>2408.3999023438</ele>
        <time>2014-02-12T12:59:56.000Z</time>
      </trkpt>
      <trkpt lat="45.91572" lon="6.51265">
        <ele>2408.3999023438</ele>
        <time>2014-02-12T12:59:57.000Z</time>
      </trkpt>
      <trkpt lat="45.91573" lon="6.51265">
        <ele>2408</ele>
        <time>2014-02-12T12:59:58.000Z</time>
      </trkpt>
      <trkpt lat="45.91573" lon="6.51265">
        <ele>2408</ele>
        <time>2014-02-12T12:59:59.000Z</time>
      </trkpt>
      <trkpt lat="45.91574" lon="6.51265">
        <ele>2407.3999023438</ele>
        <time>2014-02-12T13:00:00.000Z</time>
      </trkpt>
      <trkpt lat="45.91575" lon="6.51264">
        <ele>2406.8000488281</ele>
        <time>2014-02-12T13:00:01.000Z</time>
      </trkpt>
      <trkpt lat="45.91576" lon="6.51264">
        <ele>2406.6000976562</ele>
        <time>2014-02-12T13:00:02.000Z</time>
      </trkpt>
      <trkpt lat="45.91577" lon="6.51264">
        <ele>2406.3999023438</ele>
        <time>2014-02-12T13:00:03.000Z</time>
      </trkpt>
      <trkpt lat="45.91577" lon="6.51264">
        <ele>2406.3999023438</ele>
        <time>2014-02-12T13:00:04.000Z</time>
      </trkpt>
      <trkpt lat="45.91578" lon="6.51263">
        <ele>2406.3999023438</ele>
        <time>2014-02-12T13:00:05.000Z</time>
      </trkpt>
      <trkpt lat="45.91578" lon="6.51263">
        <ele>2406.3999023438</ele>
        <time>2014-02-12T13:00:06.000Z</time>
      </trkpt>
      <trkpt lat="45.91579" lon="6.51262">
        <ele>2406.3999023438</ele>
        <time>2014-02-12T13:00:07.000Z</time>
      </trkpt>
      <trkpt lat="45.91579" lon="6.51262">
        <ele>2406.3999023438</ele>
        <time>2014-02-12T13:00:08.000Z</time>
      </trkpt>
      <trkpt lat="45.9158" lon="6.5126">
        <ele>2406.3999023438</ele>
        <time>2014-02-12T13:00:09.000Z</time>
      </trkpt>
      <trkpt lat="45.9158" lon="6.5126">
        <ele>2406.3999023438</ele>
        <time>2014-02-12T13:00:10.000Z</time>
      </trkpt>
      <trkpt lat="45.91581" lon="6.51259">
        <ele>2406.1999511719</ele>
        <time>2014-02-12T13:00:11.000Z</time>
      </trkpt>
      <trkpt lat="45.91581" lon="6.51259">
        <ele>2406.1999511719</ele>
        <time>2014-02-12T13:00:12.000Z</time>
      </trkpt>
      <trkpt lat="45.91581" lon="6.51259">
        <ele>2406.1999511719</ele>
        <time>2014-02-12T13:00:13.000Z</time>
      </trkpt>
      <trkpt lat="45.91581" lon="6.51259">
        <ele>2406.1999511719</ele>
        <time>2014-02-12T13:00:14.000Z</time>
      </trkpt>
      <trkpt lat="45.91581" lon="6.51259">
        <ele>2406.1999511719</ele>
        <time>2014-02-12T13:00:15.000Z</time>
      </trkpt>
      <trkpt lat="45.91581" lon="6.51259">
        <ele>2406.1999511719</ele>
        <time>2014-02-12T13:00:16.000Z</time>
      </trkpt>
      <trkpt lat="45.91581" lon="6.51259">
        <ele>2406.1999511719</ele>
        <time>2014-02-12T13:00:17.000Z</time>
      </trkpt>
      <trkpt lat="45.91581" lon="6.51259">
        <ele>2406.1999511719</ele>
        <time>2014-02-12T13:00:18.000Z</time>
      </trkpt>
      <trkpt lat="45.91581" lon="6.51259">
        <ele>2406.1999511719</ele>
        <time>2014-02-12T13:00:19.000Z</time>
      </trkpt>
      <trkpt lat="45.91581" lon="6.51259">
        <ele>2406.1999511719</ele>
        <time>2014-02-12T13:00:20.000Z</time>
      </trkpt>
      <trkpt lat="45.91581" lon="6.51259">
        <ele>2406.1999511719</ele>
        <time>2014-02-12T13:00:21.000Z</time>
      </trkpt>
      <trkpt lat="45.91581" lon="6.51259">
        <ele>2406.1999511719</ele>
        <time>2014-02-12T13:00:22.000Z</time>
      </trkpt>
      <trkpt lat="45.91581" lon="6.51259">
        <ele>2406.1999511719</ele>
        <time>2014-02-12T13:00:23.000Z</time>
      </trkpt>
      <trkpt lat="45.91581" lon="6.51259">
        <ele>2406.1999511719</ele>
        <time>2014-02-12T13:00:24.000Z</time>
      </trkpt>
      <trkpt lat="45.91581" lon="6.51259">
        <ele>2406.1999511719</ele>
        <time>2014-02-12T13:00:25.000Z</time>
      </trkpt>
      <trkpt lat="45.91581" lon="6.51259">
        <ele>2406.1999511719</ele>
        <time>2014-02-12T13:00:26.000Z</time>
      </trkpt>
      <trkpt lat="45.91581" lon="6.51259">
        <ele>2406.1999511719</ele>
        <time>2014-02-12T13:00:27.000Z</time>
      </trkpt>
      <trkpt lat="45.91581" lon="6.51259">
        <ele>2406.1999511719</ele>
        <time>2014-02-12T13:00:28.000Z</time>
      </trkpt>
      <trkpt lat="45.91581" lon="6.51259">
        <ele>2406.1999511719</ele>
        <time>2014-02-12T13:00:29.000Z</time>
      </trkpt>
      <trkpt lat="45.91581" lon="6.51259">
        <ele>2406.1999511719</ele>
        <time>2014-02-12T13:00:30.000Z</time>
      </trkpt>
      <trkpt lat="45.91581" lon="6.51259">
        <ele>2406.1999511719</ele>
        <time>2014-02-12T13:00:31.000Z</time>
      </trkpt>
      <trkpt lat="45.91581" lon="6.51259">
        <ele>2406.8000488281</ele>
        <time>2014-02-12T13:00:32.000Z</time>
      </trkpt>
      <trkpt lat="45.91581" lon="6.51259">
        <ele>2406.6000976562</ele>
        <time>2014-02-12T13:00:33.000Z</time>
      </trkpt>
      <trkpt lat="45.9158" lon="6.5126">
        <ele>2406.3999023438</ele>
        <time>2014-02-12T13:00:34.000Z</time>
      </trkpt>
      <trkpt lat="45.9158" lon="6.5126">
        <ele>2406.3999023438</ele>
        <time>2014-02-12T13:00:35.000Z</time>
      </trkpt>
      <trkpt lat="45.9158" lon="6.5126">
        <ele>2406.1999511719</ele>
        <time>2014-02-12T13:00:36.000Z</time>
      </trkpt>
      <trkpt lat="45.91579" lon="6.51261">
        <ele>2406.1999511719</ele>
        <time>2014-02-12T13:00:37.000Z</time>
      </trkpt>
      <trkpt lat="45.91579" lon="6.51262">
        <ele>2406.1999511719</ele>
        <time>2014-02-12T13:00:38.000Z</time>
      </trkpt>
      <trkpt lat="45.91579" lon="6.51262">
        <ele>2406.1999511719</ele>
        <time>2014-02-12T13:00:39.000Z</time>
      </trkpt>
      <trkpt lat="45.91578" lon="6.51263">
        <ele>2406</ele>
        <time>2014-02-12T13:00:40.000Z</time>
      </trkpt>
      <trkpt lat="45.91578" lon="6.51264">
        <ele>2405.8000488281</ele>
        <time>2014-02-12T13:00:41.000Z</time>
      </trkpt>
      <trkpt lat="45.91578" lon="6.51264">
        <ele>2405.8000488281</ele>
        <time>2014-02-12T13:00:42.000Z</time>
      </trkpt>
      <trkpt lat="45.91578" lon="6.51264">
        <ele>2405.8000488281</ele>
        <time>2014-02-12T13:00:43.000Z</time>
      </trkpt>
      <trkpt lat="45.91578" lon="6.51264">
        <ele>2405.8000488281</ele>
        <time>2014-02-12T13:00:44.000Z</time>
      </trkpt>
      <trkpt lat="45.91578" lon="6.51264">
        <ele>2405.8000488281</ele>
        <time>2014-02-12T13:00:45.000Z</time>
      </trkpt>
      <trkpt lat="45.91578" lon="6.51264">
        <ele>2405.8000488281</ele>
        <time>2014-02-12T13:00:46.000Z</time>
      </trkpt>
      <trkpt lat="45.91578" lon="6.51264">
        <ele>2405.8000488281</ele>
        <time>2014-02-12T13:00:47.000Z</time>
      </trkpt>
      <trkpt lat="45.91578" lon="6.51264">
        <ele>2405.8000488281</ele>
        <time>2014-02-12T13:00:48.000Z</time>
      </trkpt>
      <trkpt lat="45.91578" lon="6.51264">
        <ele>2405.8000488281</ele>
        <time>2014-02-12T13:00:49.000Z</time>
      </trkpt>
      <trkpt lat="45.91578" lon="6.51264">
        <ele>2405.8000488281</ele>
        <time>2014-02-12T13:00:50.000Z</time>
      </trkpt>
      <trkpt lat="45.91578" lon="6.51264">
        <ele>2405.8000488281</ele>
        <time>2014-02-12T13:00:51.000Z</time>
      </trkpt>
      <trkpt lat="45.91578" lon="6.51264">
        <ele>2405.8000488281</ele>
        <time>2014-02-12T13:00:52.000Z</time>
      </trkpt>
      <trkpt lat="45.91578" lon="6.51264">
        <ele>2405.8000488281</ele>
        <time>2014-02-12T13:00:53.000Z</time>
      </trkpt>
      <trkpt lat="45.91578" lon="6.51264">
        <ele>2405.8000488281</ele>
        <time>2014-02-12T13:00:54.000Z</time>
      </trkpt>
      <trkpt lat="45.91578" lon="6.51264">
        <ele>2405.8000488281</ele>
        <time>2014-02-12T13:00:55.000Z</time>
      </trkpt>
      <trkpt lat="45.91578" lon="6.51264">
        <ele>2405.8000488281</ele>
        <time>2014-02-12T13:00:56.000Z</time>
      </trkpt>
      <trkpt lat="45.91578" lon="6.51264">
        <ele>2405.8000488281</ele>
        <time>2014-02-12T13:00:57.000Z</time>
      </trkpt>
      <trkpt lat="45.91578" lon="6.51264">
        <ele>2405.8000488281</ele>
        <time>2014-02-12T13:00:58.000Z</time>
      </trkpt>
      <trkpt lat="45.91578" lon="6.51264">
        <ele>2405.8000488281</ele>
        <time>2014-02-12T13:00:59.000Z</time>
      </trkpt>
      <trkpt lat="45.91578" lon="6.51264">
        <ele>2405.8000488281</ele>
        <time>2014-02-12T13:01:00.000Z</time>
      </trkpt>
      <trkpt lat="45.91578" lon="6.51264">
        <ele>2405.8000488281</ele>
        <time>2014-02-12T13:01:01.000Z</time>
      </trkpt>
      <trkpt lat="45.91578" lon="6.51264">
        <ele>2405.8000488281</ele>
        <time>2014-02-12T13:01:02.000Z</time>
      </trkpt>
      <trkpt lat="45.91578" lon="6.51264">
        <ele>2405.8000488281</ele>
        <time>2014-02-12T13:01:03.000Z</time>
      </trkpt>
      <trkpt lat="45.91578" lon="6.51264">
        <ele>2405.8000488281</ele>
        <time>2014-02-12T13:01:04.000Z</time>
      </trkpt>
      <trkpt lat="45.91578" lon="6.51264">
        <ele>2405.8000488281</ele>
        <time>2014-02-12T13:01:05.000Z</time>
      </trkpt>
      <trkpt lat="45.91578" lon="6.51264">
        <ele>2405.8000488281</ele>
        <time>2014-02-12T13:01:06.000Z</time>
      </trkpt>
      <trkpt lat="45.91579" lon="6.51264">
        <ele>2405</ele>
        <time>2014-02-12T13:01:07.000Z</time>
      </trkpt>
      <trkpt lat="45.91579" lon="6.51264">
        <ele>2405</ele>
        <time>2014-02-12T13:01:08.000Z</time>
      </trkpt>
      <trkpt lat="45.9158" lon="6.51265">
        <ele>2404</ele>
        <time>2014-02-12T13:01:09.000Z</time>
      </trkpt>
      <trkpt lat="45.91582" lon="6.51266">
        <ele>2403</ele>
        <time>2014-02-12T13:01:10.000Z</time>
      </trkpt>
      <trkpt lat="45.91583" lon="6.51266">
        <ele>2402</ele>
        <time>2014-02-12T13:01:11.000Z</time>
      </trkpt>
      <trkpt lat="45.91584" lon="6.51267">
        <ele>2401.1999511719</ele>
        <time>2014-02-12T13:01:12.000Z</time>
      </trkpt>
      <trkpt lat="45.91585" lon="6.51268">
        <ele>2400.6000976562</ele>
        <time>2014-02-12T13:01:13.000Z</time>
      </trkpt>
      <trkpt lat="45.91585" lon="6.51269">
        <ele>2400</ele>
        <time>2014-02-12T13:01:14.000Z</time>
      </trkpt>
      <trkpt lat="45.91585" lon="6.51269">
        <ele>2400</ele>
        <time>2014-02-12T13:01:15.000Z</time>
      </trkpt>
      <trkpt lat="45.91585" lon="6.51269">
        <ele>2400</ele>
        <time>2014-02-12T13:01:16.000Z</time>
      </trkpt>
      <trkpt lat="45.91585" lon="6.51269">
        <ele>2400</ele>
        <time>2014-02-12T13:01:17.000Z</time>
      </trkpt>
      <trkpt lat="45.91585" lon="6.51269">
        <ele>2400</ele>
        <time>2014-02-12T13:01:18.000Z</time>
      </trkpt>
      <trkpt lat="45.91585" lon="6.51269">
        <ele>2400</ele>
        <time>2014-02-12T13:01:21.000Z</time>
      </trkpt>
      <trkpt lat="45.91586" lon="6.51269">
        <ele>2399.8000488281</ele>
        <time>2014-02-12T13:01:25.000Z</time>
      </trkpt>
      <trkpt lat="45.91586" lon="6.51269">
        <ele>2399.8000488281</ele>
        <time>2014-02-12T13:01:26.000Z</time>
      </trkpt>
      <trkpt lat="45.91586" lon="6.51269">
        <ele>2399.8000488281</ele>
        <time>2014-02-12T13:01:27.000Z</time>
      </trkpt>
      <trkpt lat="45.91586" lon="6.51269">
        <ele>2399.8000488281</ele>
        <time>2014-02-12T13:01:28.000Z</time>
      </trkpt>
      <trkpt lat="45.91586" lon="6.51269">
        <ele>2399.8000488281</ele>
        <time>2014-02-12T13:01:29.000Z</time>
      </trkpt>
      <trkpt lat="45.91586" lon="6.51269">
        <ele>2399.8000488281</ele>
        <time>2014-02-12T13:01:30.000Z</time>
      </trkpt>
      <trkpt lat="45.91586" lon="6.51269">
        <ele>2399.8000488281</ele>
        <time>2014-02-12T13:01:31.000Z</time>
      </trkpt>
      <trkpt lat="45.91586" lon="6.51269">
        <ele>2399.8000488281</ele>
        <time>2014-02-12T13:01:32.000Z</time>
      </trkpt>
      <trkpt lat="45.91586" lon="6.51269">
        <ele>2399.8000488281</ele>
        <time>2014-02-12T13:01:33.000Z</time>
      </trkpt>
      <trkpt lat="45.91586" lon="6.51269">
        <ele>2399.8000488281</ele>
        <time>2014-02-12T13:01:36.000Z</time>
      </trkpt>
      <trkpt lat="45.91586" lon="6.51269">
        <ele>2399.8000488281</ele>
        <time>2014-02-12T13:01:37.000Z</time>
      </trkpt>
      <trkpt lat="45.91586" lon="6.51269">
        <ele>2399.8000488281</ele>
        <time>2014-02-12T13:01:38.000Z</time>
      </trkpt>
      <trkpt lat="45.91586" lon="6.51269">
        <ele>2399.8000488281</ele>
        <time>2014-02-12T13:01:39.000Z</time>
      </trkpt>
      <trkpt lat="45.91586" lon="6.51269">
        <ele>2399.8000488281</ele>
        <time>2014-02-12T13:01:40.000Z</time>
      </trkpt>
      <trkpt lat="45.91586" lon="6.51269">
        <ele>2399.8000488281</ele>
        <time>2014-02-12T13:01:41.000Z</time>
      </trkpt>
      <trkpt lat="45.91586" lon="6.51269">
        <ele>2399.8000488281</ele>
        <time>2014-02-12T13:01:42.000Z</time>
      </trkpt>
      <trkpt lat="45.91586" lon="6.51269">
        <ele>2399.8000488281</ele>
        <time>2014-02-12T13:01:43.000Z</time>
      </trkpt>
      <trkpt lat="45.91586" lon="6.51269">
        <ele>2399.8000488281</ele>
        <time>2014-02-12T13:01:44.000Z</time>
      </trkpt>
      <trkpt lat="45.91586" lon="6.51269">
        <ele>2399.8000488281</ele>
        <time>2014-02-12T13:01:45.000Z</time>
      </trkpt>
      <trkpt lat="45.91586" lon="6.51269">
        <ele>2399.8000488281</ele>
        <time>2014-02-12T13:01:46.000Z</time>
      </trkpt>
      <trkpt lat="45.91586" lon="6.51269">
        <ele>2399.8000488281</ele>
        <time>2014-02-12T13:01:47.000Z</time>
      </trkpt>
      <trkpt lat="45.91586" lon="6.51269">
        <ele>2399.8000488281</ele>
        <time>2014-02-12T13:01:48.000Z</time>
      </trkpt>
      <trkpt lat="45.91586" lon="6.51269">
        <ele>2399.8000488281</ele>
        <time>2014-02-12T13:01:49.000Z</time>
      </trkpt>
      <trkpt lat="45.91586" lon="6.51269">
        <ele>2399.8000488281</ele>
        <time>2014-02-12T13:01:50.000Z</time>
      </trkpt>
      <trkpt lat="45.91586" lon="6.51269">
        <ele>2399.8000488281</ele>
        <time>2014-02-12T13:01:51.000Z</time>
      </trkpt>
      <trkpt lat="45.91586" lon="6.51269">
        <ele>2399.8000488281</ele>
        <time>2014-02-12T13:01:52.000Z</time>
      </trkpt>
      <trkpt lat="45.91586" lon="6.51269">
        <ele>2399.8000488281</ele>
        <time>2014-02-12T13:01:53.000Z</time>
      </trkpt>
      <trkpt lat="45.91586" lon="6.51269">
        <ele>2399.8000488281</ele>
        <time>2014-02-12T13:01:54.000Z</time>
      </trkpt>
      <trkpt lat="45.91586" lon="6.51269">
        <ele>2399.8000488281</ele>
        <time>2014-02-12T13:01:55.000Z</time>
      </trkpt>
      <trkpt lat="45.91586" lon="6.51269">
        <ele>2399.8000488281</ele>
        <time>2014-02-12T13:01:56.000Z</time>
      </trkpt>
      <trkpt lat="45.91586" lon="6.51269">
        <ele>2399.8000488281</ele>
        <time>2014-02-12T13:01:57.000Z</time>
      </trkpt>
      <trkpt lat="45.91586" lon="6.51269">
        <ele>2399.8000488281</ele>
        <time>2014-02-12T13:01:58.000Z</time>
      </trkpt>
      <trkpt lat="45.91586" lon="6.51269">
        <ele>2399.8000488281</ele>
        <time>2014-02-12T13:01:59.000Z</time>
      </trkpt>
      <trkpt lat="45.91586" lon="6.51269">
        <ele>2399.8000488281</ele>
        <time>2014-02-12T13:02:00.000Z</time>
      </trkpt>
      <trkpt lat="45.91586" lon="6.51269">
        <ele>2399.8000488281</ele>
        <time>2014-02-12T13:02:01.000Z</time>
      </trkpt>
      <trkpt lat="45.91586" lon="6.51269">
        <ele>2399.8000488281</ele>
        <time>2014-02-12T13:02:02.000Z</time>
      </trkpt>
      <trkpt lat="45.91586" lon="6.51269">
        <ele>2399.8000488281</ele>
        <time>2014-02-12T13:02:03.000Z</time>
      </trkpt>
      <trkpt lat="45.91586" lon="6.51269">
        <ele>2399.8000488281</ele>
        <time>2014-02-12T13:02:04.000Z</time>
      </trkpt>
      <trkpt lat="45.91586" lon="6.51269">
        <ele>2399.8000488281</ele>
        <time>2014-02-12T13:02:05.000Z</time>
      </trkpt>
      <trkpt lat="45.91586" lon="6.51269">
        <ele>2399.8000488281</ele>
        <time>2014-02-12T13:02:06.000Z</time>
      </trkpt>
      <trkpt lat="45.91586" lon="6.51269">
        <ele>2399.8000488281</ele>
        <time>2014-02-12T13:02:07.000Z</time>
      </trkpt>
      <trkpt lat="45.91586" lon="6.51269">
        <ele>2399.8000488281</ele>
        <time>2014-02-12T13:02:08.000Z</time>
      </trkpt>
      <trkpt lat="45.91586" lon="6.51269">
        <ele>2399.8000488281</ele>
        <time>2014-02-12T13:02:09.000Z</time>
      </trkpt>
      <trkpt lat="45.91586" lon="6.51269">
        <ele>2399.8000488281</ele>
        <time>2014-02-12T13:02:10.000Z</time>
      </trkpt>
      <trkpt lat="45.91586" lon="6.51269">
        <ele>2399.8000488281</ele>
        <time>2014-02-12T13:02:11.000Z</time>
      </trkpt>
      <trkpt lat="45.91586" lon="6.51269">
        <ele>2399.8000488281</ele>
        <time>2014-02-12T13:02:12.000Z</time>
      </trkpt>
      <trkpt lat="45.91586" lon="6.51269">
        <ele>2399.8000488281</ele>
        <time>2014-02-12T13:02:14.000Z</time>
      </trkpt>
      <trkpt lat="45.91586" lon="6.51269">
        <ele>2399.8000488281</ele>
        <time>2014-02-12T13:02:15.000Z</time>
      </trkpt>
      <trkpt lat="45.91586" lon="6.51269">
        <ele>2399.8000488281</ele>
        <time>2014-02-12T13:02:16.000Z</time>
      </trkpt>
      <trkpt lat="45.91586" lon="6.51269">
        <ele>2399.8000488281</ele>
        <time>2014-02-12T13:02:17.000Z</time>
      </trkpt>
      <trkpt lat="45.91586" lon="6.51269">
        <ele>2399.8000488281</ele>
        <time>2014-02-12T13:02:18.000Z</time>
      </trkpt>
      <trkpt lat="45.91586" lon="6.51269">
        <ele>2399.8000488281</ele>
        <time>2014-02-12T13:02:19.000Z</time>
      </trkpt>
      <trkpt lat="45.91586" lon="6.51269">
        <ele>2399.8000488281</ele>
        <time>2014-02-12T13:02:20.000Z</time>
      </trkpt>
      <trkpt lat="45.91586" lon="6.51269">
        <ele>2399.8000488281</ele>
        <time>2014-02-12T13:02:21.000Z</time>
      </trkpt>
      <trkpt lat="45.91586" lon="6.51269">
        <ele>2399.8000488281</ele>
        <time>2014-02-12T13:02:22.000Z</time>
      </trkpt>
      <trkpt lat="45.91586" lon="6.51269">
        <ele>2399.8000488281</ele>
        <time>2014-02-12T13:02:23.000Z</time>
      </trkpt>
      <trkpt lat="45.91586" lon="6.51269">
        <ele>2399.8000488281</ele>
        <time>2014-02-12T13:02:24.000Z</time>
      </trkpt>
      <trkpt lat="45.91586" lon="6.51269">
        <ele>2399.8000488281</ele>
        <time>2014-02-12T13:02:25.000Z</time>
      </trkpt>
      <trkpt lat="45.91586" lon="6.51269">
        <ele>2399.8000488281</ele>
        <time>2014-02-12T13:02:26.000Z</time>
      </trkpt>
      <trkpt lat="45.91586" lon="6.51269">
        <ele>2399.8000488281</ele>
        <time>2014-02-12T13:02:27.000Z</time>
      </trkpt>
      <trkpt lat="45.91586" lon="6.51269">
        <ele>2399.8000488281</ele>
        <time>2014-02-12T13:02:28.000Z</time>
      </trkpt>
      <trkpt lat="45.91586" lon="6.51269">
        <ele>2399.8000488281</ele>
        <time>2014-02-12T13:02:29.000Z</time>
      </trkpt>
      <trkpt lat="45.91586" lon="6.51269">
        <ele>2399.8000488281</ele>
        <time>2014-02-12T13:02:30.000Z</time>
      </trkpt>
      <trkpt lat="45.91586" lon="6.51269">
        <ele>2399.8000488281</ele>
        <time>2014-02-12T13:02:31.000Z</time>
      </trkpt>
      <trkpt lat="45.91586" lon="6.51269">
        <ele>2399.8000488281</ele>
        <time>2014-02-12T13:02:32.000Z</time>
      </trkpt>
      <trkpt lat="45.91586" lon="6.51269">
        <ele>2399.8000488281</ele>
        <time>2014-02-12T13:02:33.000Z</time>
      </trkpt>
      <trkpt lat="45.91586" lon="6.51269">
        <ele>2399.8000488281</ele>
        <time>2014-02-12T13:02:34.000Z</time>
      </trkpt>
      <trkpt lat="45.91586" lon="6.51269">
        <ele>2399.8000488281</ele>
        <time>2014-02-12T13:02:36.000Z</time>
      </trkpt>
      <trkpt lat="45.91586" lon="6.51269">
        <ele>2399.8000488281</ele>
        <time>2014-02-12T13:02:37.000Z</time>
      </trkpt>
      <trkpt lat="45.91586" lon="6.51269">
        <ele>2399.8000488281</ele>
        <time>2014-02-12T13:02:38.000Z</time>
      </trkpt>
      <trkpt lat="45.91586" lon="6.51269">
        <ele>2399.8000488281</ele>
        <time>2014-02-12T13:02:39.000Z</time>
      </trkpt>
      <trkpt lat="45.91586" lon="6.51269">
        <ele>2399.8000488281</ele>
        <time>2014-02-12T13:02:40.000Z</time>
      </trkpt>
      <trkpt lat="45.91586" lon="6.51269">
        <ele>2399.8000488281</ele>
        <time>2014-02-12T13:02:41.000Z</time>
      </trkpt>
      <trkpt lat="45.91586" lon="6.51269">
        <ele>2399.8000488281</ele>
        <time>2014-02-12T13:02:42.000Z</time>
      </trkpt>
      <trkpt lat="45.91586" lon="6.51269">
        <ele>2399.8000488281</ele>
        <time>2014-02-12T13:02:43.000Z</time>
      </trkpt>
      <trkpt lat="45.91586" lon="6.51269">
        <ele>2399.8000488281</ele>
        <time>2014-02-12T13:02:44.000Z</time>
      </trkpt>
      <trkpt lat="45.91586" lon="6.51269">
        <ele>2399.6000976562</ele>
        <time>2014-02-12T13:02:46.000Z</time>
      </trkpt>
      <trkpt lat="45.91586" lon="6.51269">
        <ele>2399.6000976562</ele>
        <time>2014-02-12T13:02:47.000Z</time>
      </trkpt>
      <trkpt lat="45.91586" lon="6.51269">
        <ele>2399.6000976562</ele>
        <time>2014-02-12T13:02:48.000Z</time>
      </trkpt>
      <trkpt lat="45.91586" lon="6.51269">
        <ele>2399.6000976562</ele>
        <time>2014-02-12T13:02:49.000Z</time>
      </trkpt>
      <trkpt lat="45.91586" lon="6.51269">
        <ele>2399.6000976562</ele>
        <time>2014-02-12T13:02:50.000Z</time>
      </trkpt>
      <trkpt lat="45.91586" lon="6.51269">
        <ele>2399.6000976562</ele>
        <time>2014-02-12T13:02:51.000Z</time>
      </trkpt>
      <trkpt lat="45.91586" lon="6.51269">
        <ele>2399.6000976562</ele>
        <time>2014-02-12T13:02:52.000Z</time>
      </trkpt>
      <trkpt lat="45.91586" lon="6.51269">
        <ele>2399.6000976562</ele>
        <time>2014-02-12T13:02:54.000Z</time>
      </trkpt>
      <trkpt lat="45.91586" lon="6.51269">
        <ele>2399.6000976562</ele>
        <time>2014-02-12T13:02:58.000Z</time>
      </trkpt>
      <trkpt lat="45.91586" lon="6.51269">
        <ele>2399.6000976562</ele>
        <time>2014-02-12T13:02:59.000Z</time>
      </trkpt>
      <trkpt lat="45.91586" lon="6.51269">
        <ele>2399.6000976562</ele>
        <time>2014-02-12T13:03:01.000Z</time>
      </trkpt>
      <trkpt lat="45.91586" lon="6.51269">
        <ele>2399.6000976562</ele>
        <time>2014-02-12T13:03:02.000Z</time>
      </trkpt>
      <trkpt lat="45.91586" lon="6.51269">
        <ele>2399.6000976562</ele>
        <time>2014-02-12T13:03:04.000Z</time>
      </trkpt>
      <trkpt lat="45.91586" lon="6.51269">
        <ele>2399.6000976562</ele>
        <time>2014-02-12T13:03:05.000Z</time>
      </trkpt>
      <trkpt lat="45.91586" lon="6.51269">
        <ele>2399.6000976562</ele>
        <time>2014-02-12T13:03:06.000Z</time>
      </trkpt>
      <trkpt lat="45.91586" lon="6.51269">
        <ele>2399.6000976562</ele>
        <time>2014-02-12T13:03:07.000Z</time>
      </trkpt>
      <trkpt lat="45.91586" lon="6.51269">
        <ele>2399.6000976562</ele>
        <time>2014-02-12T13:03:08.000Z</time>
      </trkpt>
      <trkpt lat="45.91586" lon="6.51269">
        <ele>2399.6000976562</ele>
        <time>2014-02-12T13:03:09.000Z</time>
      </trkpt>
      <trkpt lat="45.91586" lon="6.51269">
        <ele>2399.6000976562</ele>
        <time>2014-02-12T13:03:10.000Z</time>
      </trkpt>
      <trkpt lat="45.91586" lon="6.51269">
        <ele>2399.6000976562</ele>
        <time>2014-02-12T13:03:11.000Z</time>
      </trkpt>
      <trkpt lat="45.91586" lon="6.51269">
        <ele>2399.6000976562</ele>
        <time>2014-02-12T13:03:15.000Z</time>
      </trkpt>
      <trkpt lat="45.91586" lon="6.51269">
        <ele>2399.6000976562</ele>
        <time>2014-02-12T13:03:16.000Z</time>
      </trkpt>
      <trkpt lat="45.91586" lon="6.51269">
        <ele>2399.6000976562</ele>
        <time>2014-02-12T13:03:17.000Z</time>
      </trkpt>
      <trkpt lat="45.91586" lon="6.51269">
        <ele>2399.6000976562</ele>
        <time>2014-02-12T13:03:18.000Z</time>
      </trkpt>
      <trkpt lat="45.91586" lon="6.51269">
        <ele>2399.6000976562</ele>
        <time>2014-02-12T13:03:19.000Z</time>
      </trkpt>
      <trkpt lat="45.91586" lon="6.51269">
        <ele>2399.6000976562</ele>
        <time>2014-02-12T13:03:20.000Z</time>
      </trkpt>
      <trkpt lat="45.91586" lon="6.51269">
        <ele>2399.6000976562</ele>
        <time>2014-02-12T13:03:21.000Z</time>
      </trkpt>
      <trkpt lat="45.91586" lon="6.51269">
        <ele>2399.6000976562</ele>
        <time>2014-02-12T13:03:22.000Z</time>
      </trkpt>
      <trkpt lat="45.91586" lon="6.51269">
        <ele>2399.6000976562</ele>
        <time>2014-02-12T13:03:23.000Z</time>
      </trkpt>
      <trkpt lat="45.91586" lon="6.51269">
        <ele>2399.6000976562</ele>
        <time>2014-02-12T13:03:24.000Z</time>
      </trkpt>
      <trkpt lat="45.91586" lon="6.51268">
        <ele>2399.6000976562</ele>
        <time>2014-02-12T13:03:26.000Z</time>
      </trkpt>
      <trkpt lat="45.91586" lon="6.51268">
        <ele>2399.6000976562</ele>
        <time>2014-02-12T13:03:27.000Z</time>
      </trkpt>
      <trkpt lat="45.91586" lon="6.51268">
        <ele>2399.6000976562</ele>
        <time>2014-02-12T13:03:28.000Z</time>
      </trkpt>
      <trkpt lat="45.91586" lon="6.51268">
        <ele>2399.6000976562</ele>
        <time>2014-02-12T13:03:29.000Z</time>
      </trkpt>
      <trkpt lat="45.91586" lon="6.51268">
        <ele>2399.6000976562</ele>
        <time>2014-02-12T13:03:30.000Z</time>
      </trkpt>
      <trkpt lat="45.91586" lon="6.51268">
        <ele>2399.6000976562</ele>
        <time>2014-02-12T13:03:31.000Z</time>
      </trkpt>
      <trkpt lat="45.91586" lon="6.51268">
        <ele>2399.6000976562</ele>
        <time>2014-02-12T13:03:32.000Z</time>
      </trkpt>
      <trkpt lat="45.91586" lon="6.51268">
        <ele>2399.6000976562</ele>
        <time>2014-02-12T13:03:33.000Z</time>
      </trkpt>
      <trkpt lat="45.91586" lon="6.51268">
        <ele>2399.6000976562</ele>
        <time>2014-02-12T13:03:34.000Z</time>
      </trkpt>
      <trkpt lat="45.91586" lon="6.51268">
        <ele>2399.6000976562</ele>
        <time>2014-02-12T13:03:35.000Z</time>
      </trkpt>
      <trkpt lat="45.91586" lon="6.51268">
        <ele>2399.6000976562</ele>
        <time>2014-02-12T13:03:36.000Z</time>
      </trkpt>
      <trkpt lat="45.91586" lon="6.51268">
        <ele>2399.6000976562</ele>
        <time>2014-02-12T13:03:37.000Z</time>
      </trkpt>
      <trkpt lat="45.91586" lon="6.51268">
        <ele>2399.6000976562</ele>
        <time>2014-02-12T13:03:38.000Z</time>
      </trkpt>
      <trkpt lat="45.91586" lon="6.51268">
        <ele>2399.6000976562</ele>
        <time>2014-02-12T13:03:39.000Z</time>
      </trkpt>
      <trkpt lat="45.91586" lon="6.51268">
        <ele>2399.6000976562</ele>
        <time>2014-02-12T13:03:40.000Z</time>
      </trkpt>
      <trkpt lat="45.91586" lon="6.51268">
        <ele>2399.6000976562</ele>
        <time>2014-02-12T13:03:41.000Z</time>
      </trkpt>
      <trkpt lat="45.91586" lon="6.51268">
        <ele>2399.6000976562</ele>
        <time>2014-02-12T13:03:42.000Z</time>
      </trkpt>
      <trkpt lat="45.91586" lon="6.51268">
        <ele>2399.6000976562</ele>
        <time>2014-02-12T13:03:43.000Z</time>
      </trkpt>
      <trkpt lat="45.91586" lon="6.51268">
        <ele>2399.6000976562</ele>
        <time>2014-02-12T13:03:44.000Z</time>
      </trkpt>
      <trkpt lat="45.91586" lon="6.51266">
        <ele>2400.1999511719</ele>
        <time>2014-02-12T13:03:45.000Z</time>
      </trkpt>
      <trkpt lat="45.91586" lon="6.51266">
        <ele>2400.1999511719</ele>
        <time>2014-02-12T13:03:46.000Z</time>
      </trkpt>
      <trkpt lat="45.91586" lon="6.51266">
        <ele>2400.1999511719</ele>
        <time>2014-02-12T13:03:47.000Z</time>
      </trkpt>
      <trkpt lat="45.91586" lon="6.51266">
        <ele>2400.1999511719</ele>
        <time>2014-02-12T13:03:48.000Z</time>
      </trkpt>
      <trkpt lat="45.91586" lon="6.51266">
        <ele>2400.1999511719</ele>
        <time>2014-02-12T13:03:49.000Z</time>
      </trkpt>
      <trkpt lat="45.91586" lon="6.51266">
        <ele>2400.1999511719</ele>
        <time>2014-02-12T13:03:50.000Z</time>
      </trkpt>
      <trkpt lat="45.91586" lon="6.51266">
        <ele>2400.1999511719</ele>
        <time>2014-02-12T13:03:51.000Z</time>
      </trkpt>
      <trkpt lat="45.91586" lon="6.51266">
        <ele>2400.1999511719</ele>
        <time>2014-02-12T13:03:52.000Z</time>
      </trkpt>
      <trkpt lat="45.91586" lon="6.51266">
        <ele>2400.1999511719</ele>
        <time>2014-02-12T13:03:53.000Z</time>
      </trkpt>
      <trkpt lat="45.91586" lon="6.51266">
        <ele>2400.1999511719</ele>
        <time>2014-02-12T13:03:54.000Z</time>
      </trkpt>
      <trkpt lat="45.91586" lon="6.51266">
        <ele>2400.1999511719</ele>
        <time>2014-02-12T13:03:55.000Z</time>
      </trkpt>
      <trkpt lat="45.91586" lon="6.51266">
        <ele>2400.1999511719</ele>
        <time>2014-02-12T13:03:56.000Z</time>
      </trkpt>
      <trkpt lat="45.91586" lon="6.51266">
        <ele>2400.1999511719</ele>
        <time>2014-02-12T13:03:57.000Z</time>
      </trkpt>
      <trkpt lat="45.91586" lon="6.51266">
        <ele>2400.1999511719</ele>
        <time>2014-02-12T13:03:58.000Z</time>
      </trkpt>
      <trkpt lat="45.91586" lon="6.51266">
        <ele>2400.1999511719</ele>
        <time>2014-02-12T13:03:59.000Z</time>
      </trkpt>
      <trkpt lat="45.91586" lon="6.51266">
        <ele>2400.1999511719</ele>
        <time>2014-02-12T13:04:00.000Z</time>
      </trkpt>
      <trkpt lat="45.91586" lon="6.51266">
        <ele>2400.1999511719</ele>
        <time>2014-02-12T13:04:01.000Z</time>
      </trkpt>
      <trkpt lat="45.91586" lon="6.51266">
        <ele>2400.1999511719</ele>
        <time>2014-02-12T13:04:02.000Z</time>
      </trkpt>
      <trkpt lat="45.91586" lon="6.51266">
        <ele>2400.1999511719</ele>
        <time>2014-02-12T13:04:03.000Z</time>
      </trkpt>
      <trkpt lat="45.91586" lon="6.51266">
        <ele>2400.1999511719</ele>
        <time>2014-02-12T13:04:04.000Z</time>
      </trkpt>
      <trkpt lat="45.91586" lon="6.51266">
        <ele>2400.1999511719</ele>
        <time>2014-02-12T13:04:05.000Z</time>
      </trkpt>
      <trkpt lat="45.91586" lon="6.51266">
        <ele>2400.1999511719</ele>
        <time>2014-02-12T13:04:06.000Z</time>
      </trkpt>
      <trkpt lat="45.91586" lon="6.51266">
        <ele>2400.1999511719</ele>
        <time>2014-02-12T13:04:08.000Z</time>
      </trkpt>
      <trkpt lat="45.91586" lon="6.51266">
        <ele>2400.1999511719</ele>
        <time>2014-02-12T13:04:09.000Z</time>
      </trkpt>
      <trkpt lat="45.91586" lon="6.51266">
        <ele>2400.1999511719</ele>
        <time>2014-02-12T13:04:10.000Z</time>
      </trkpt>
      <trkpt lat="45.91586" lon="6.51266">
        <ele>2400.1999511719</ele>
        <time>2014-02-12T13:04:11.000Z</time>
      </trkpt>
      <trkpt lat="45.91586" lon="6.51266">
        <ele>2400.1999511719</ele>
        <time>2014-02-12T13:04:12.000Z</time>
      </trkpt>
      <trkpt lat="45.91586" lon="6.51266">
        <ele>2400.1999511719</ele>
        <time>2014-02-12T13:04:13.000Z</time>
      </trkpt>
      <trkpt lat="45.91586" lon="6.51266">
        <ele>2400.1999511719</ele>
        <time>2014-02-12T13:04:14.000Z</time>
      </trkpt>
      <trkpt lat="45.91586" lon="6.51266">
        <ele>2400.1999511719</ele>
        <time>2014-02-12T13:04:15.000Z</time>
      </trkpt>
      <trkpt lat="45.91586" lon="6.51266">
        <ele>2400.1999511719</ele>
        <time>2014-02-12T13:04:16.000Z</time>
      </trkpt>
      <trkpt lat="45.91586" lon="6.51266">
        <ele>2400.1999511719</ele>
        <time>2014-02-12T13:04:17.000Z</time>
      </trkpt>
      <trkpt lat="45.91586" lon="6.51266">
        <ele>2400.1999511719</ele>
        <time>2014-02-12T13:04:19.000Z</time>
      </trkpt>
      <trkpt lat="45.91586" lon="6.51266">
        <ele>2400.1999511719</ele>
        <time>2014-02-12T13:04:20.000Z</time>
      </trkpt>
      <trkpt lat="45.91586" lon="6.51266">
        <ele>2400.1999511719</ele>
        <time>2014-02-12T13:04:22.000Z</time>
      </trkpt>
      <trkpt lat="45.91586" lon="6.51266">
        <ele>2400.1999511719</ele>
        <time>2014-02-12T13:04:24.000Z</time>
      </trkpt>
      <trkpt lat="45.91586" lon="6.51266">
        <ele>2400.3999023438</ele>
        <time>2014-02-12T13:04:25.000Z</time>
      </trkpt>
      <trkpt lat="45.91586" lon="6.51266">
        <ele>2400.3999023438</ele>
        <time>2014-02-12T13:04:26.000Z</time>
      </trkpt>
      <trkpt lat="45.91586" lon="6.51266">
        <ele>2400.3999023438</ele>
        <time>2014-02-12T13:04:27.000Z</time>
      </trkpt>
      <trkpt lat="45.91586" lon="6.51266">
        <ele>2400.3999023438</ele>
        <time>2014-02-12T13:04:28.000Z</time>
      </trkpt>
      <trkpt lat="45.91586" lon="6.51266">
        <ele>2400.3999023438</ele>
        <time>2014-02-12T13:04:29.000Z</time>
      </trkpt>
      <trkpt lat="45.91586" lon="6.51266">
        <ele>2400.3999023438</ele>
        <time>2014-02-12T13:04:30.000Z</time>
      </trkpt>
      <trkpt lat="45.91586" lon="6.51266">
        <ele>2400.3999023438</ele>
        <time>2014-02-12T13:04:31.000Z</time>
      </trkpt>
      <trkpt lat="45.91586" lon="6.51266">
        <ele>2400.3999023438</ele>
        <time>2014-02-12T13:04:32.000Z</time>
      </trkpt>
      <trkpt lat="45.91586" lon="6.51266">
        <ele>2400.3999023438</ele>
        <time>2014-02-12T13:04:33.000Z</time>
      </trkpt>
      <trkpt lat="45.91586" lon="6.51266">
        <ele>2400.3999023438</ele>
        <time>2014-02-12T13:04:34.000Z</time>
      </trkpt>
      <trkpt lat="45.91586" lon="6.51266">
        <ele>2400.3999023438</ele>
        <time>2014-02-12T13:04:35.000Z</time>
      </trkpt>
      <trkpt lat="45.91586" lon="6.51266">
        <ele>2400.3999023438</ele>
        <time>2014-02-12T13:04:36.000Z</time>
      </trkpt>
      <trkpt lat="45.91587" lon="6.51266">
        <ele>2400.3999023438</ele>
        <time>2014-02-12T13:04:37.000Z</time>
      </trkpt>
      <trkpt lat="45.91587" lon="6.51266">
        <ele>2400.3999023438</ele>
        <time>2014-02-12T13:04:41.000Z</time>
      </trkpt>
      <trkpt lat="45.91587" lon="6.51266">
        <ele>2400.3999023438</ele>
        <time>2014-02-12T13:04:42.000Z</time>
      </trkpt>
      <trkpt lat="45.91587" lon="6.51266">
        <ele>2400.3999023438</ele>
        <time>2014-02-12T13:04:43.000Z</time>
      </trkpt>
      <trkpt lat="45.91587" lon="6.51266">
        <ele>2400.3999023438</ele>
        <time>2014-02-12T13:04:44.000Z</time>
      </trkpt>
      <trkpt lat="45.91587" lon="6.51266">
        <ele>2400.3999023438</ele>
        <time>2014-02-12T13:04:45.000Z</time>
      </trkpt>
      <trkpt lat="45.91587" lon="6.51266">
        <ele>2400.3999023438</ele>
        <time>2014-02-12T13:04:46.000Z</time>
      </trkpt>
      <trkpt lat="45.91587" lon="6.51266">
        <ele>2400.3999023438</ele>
        <time>2014-02-12T13:04:47.000Z</time>
      </trkpt>
      <trkpt lat="45.91587" lon="6.51266">
        <ele>2400.3999023438</ele>
        <time>2014-02-12T13:04:50.000Z</time>
      </trkpt>
      <trkpt lat="45.91587" lon="6.51266">
        <ele>2400.3999023438</ele>
        <time>2014-02-12T13:04:51.000Z</time>
      </trkpt>
      <trkpt lat="45.91587" lon="6.51266">
        <ele>2400.3999023438</ele>
        <time>2014-02-12T13:04:52.000Z</time>
      </trkpt>
      <trkpt lat="45.91587" lon="6.51266">
        <ele>2400.3999023438</ele>
        <time>2014-02-12T13:04:53.000Z</time>
      </trkpt>
      <trkpt lat="45.91587" lon="6.51266">
        <ele>2400.3999023438</ele>
        <time>2014-02-12T13:04:54.000Z</time>
      </trkpt>
      <trkpt lat="45.91587" lon="6.51266">
        <ele>2400.3999023438</ele>
        <time>2014-02-12T13:04:55.000Z</time>
      </trkpt>
      <trkpt lat="45.91587" lon="6.51266">
        <ele>2400.3999023438</ele>
        <time>2014-02-12T13:04:56.000Z</time>
      </trkpt>
      <trkpt lat="45.91587" lon="6.51266">
        <ele>2400.3999023438</ele>
        <time>2014-02-12T13:04:57.000Z</time>
      </trkpt>
      <trkpt lat="45.91587" lon="6.51266">
        <ele>2400.3999023438</ele>
        <time>2014-02-12T13:04:58.000Z</time>
      </trkpt>
      <trkpt lat="45.91587" lon="6.51266">
        <ele>2400.3999023438</ele>
        <time>2014-02-12T13:04:59.000Z</time>
      </trkpt>
      <trkpt lat="45.91587" lon="6.51266">
        <ele>2400.3999023438</ele>
        <time>2014-02-12T13:05:00.000Z</time>
      </trkpt>
      <trkpt lat="45.91587" lon="6.51266">
        <ele>2400.3999023438</ele>
        <time>2014-02-12T13:05:01.000Z</time>
      </trkpt>
      <trkpt lat="45.91587" lon="6.51266">
        <ele>2400.3999023438</ele>
        <time>2014-02-12T13:05:02.000Z</time>
      </trkpt>
      <trkpt lat="45.91587" lon="6.51266">
        <ele>2400.3999023438</ele>
        <time>2014-02-12T13:05:03.000Z</time>
      </trkpt>
      <trkpt lat="45.91587" lon="6.51266">
        <ele>2400.3999023438</ele>
        <time>2014-02-12T13:05:04.000Z</time>
      </trkpt>
      <trkpt lat="45.91587" lon="6.51266">
        <ele>2400.3999023438</ele>
        <time>2014-02-12T13:05:05.000Z</time>
      </trkpt>
      <trkpt lat="45.91587" lon="6.51266">
        <ele>2400.3999023438</ele>
        <time>2014-02-12T13:05:06.000Z</time>
      </trkpt>
      <trkpt lat="45.91587" lon="6.51266">
        <ele>2400.3999023438</ele>
        <time>2014-02-12T13:05:07.000Z</time>
      </trkpt>
      <trkpt lat="45.91587" lon="6.51266">
        <ele>2400.3999023438</ele>
        <time>2014-02-12T13:05:08.000Z</time>
      </trkpt>
      <trkpt lat="45.91587" lon="6.51266">
        <ele>2400.3999023438</ele>
        <time>2014-02-12T13:05:09.000Z</time>
      </trkpt>
      <trkpt lat="45.91587" lon="6.51266">
        <ele>2400.3999023438</ele>
        <time>2014-02-12T13:05:10.000Z</time>
      </trkpt>
      <trkpt lat="45.91587" lon="6.51266">
        <ele>2400.3999023438</ele>
        <time>2014-02-12T13:05:11.000Z</time>
      </trkpt>
      <trkpt lat="45.91587" lon="6.51266">
        <ele>2400.3999023438</ele>
        <time>2014-02-12T13:05:12.000Z</time>
      </trkpt>
      <trkpt lat="45.91587" lon="6.51266">
        <ele>2400.3999023438</ele>
        <time>2014-02-12T13:05:13.000Z</time>
      </trkpt>
      <trkpt lat="45.91587" lon="6.51266">
        <ele>2400.3999023438</ele>
        <time>2014-02-12T13:05:14.000Z</time>
      </trkpt>
      <trkpt lat="45.91587" lon="6.51266">
        <ele>2400.3999023438</ele>
        <time>2014-02-12T13:05:15.000Z</time>
      </trkpt>
      <trkpt lat="45.91587" lon="6.51266">
        <ele>2400.3999023438</ele>
        <time>2014-02-12T13:05:16.000Z</time>
      </trkpt>
      <trkpt lat="45.91587" lon="6.51266">
        <ele>2400.1999511719</ele>
        <time>2014-02-12T13:05:17.000Z</time>
      </trkpt>
      <trkpt lat="45.91587" lon="6.51266">
        <ele>2400.1999511719</ele>
        <time>2014-02-12T13:05:18.000Z</time>
      </trkpt>
      <trkpt lat="45.91587" lon="6.51266">
        <ele>2400.1999511719</ele>
        <time>2014-02-12T13:05:19.000Z</time>
      </trkpt>
      <trkpt lat="45.91587" lon="6.51266">
        <ele>2400.1999511719</ele>
        <time>2014-02-12T13:05:20.000Z</time>
      </trkpt>
      <trkpt lat="45.91587" lon="6.51266">
        <ele>2400.1999511719</ele>
        <time>2014-02-12T13:05:21.000Z</time>
      </trkpt>
      <trkpt lat="45.91587" lon="6.51266">
        <ele>2400.1999511719</ele>
        <time>2014-02-12T13:05:22.000Z</time>
      </trkpt>
      <trkpt lat="45.91587" lon="6.51266">
        <ele>2400.1999511719</ele>
        <time>2014-02-12T13:05:23.000Z</time>
      </trkpt>
      <trkpt lat="45.91587" lon="6.51266">
        <ele>2400.1999511719</ele>
        <time>2014-02-12T13:05:24.000Z</time>
      </trkpt>
      <trkpt lat="45.91587" lon="6.51266">
        <ele>2400.1999511719</ele>
        <time>2014-02-12T13:05:25.000Z</time>
      </trkpt>
      <trkpt lat="45.91587" lon="6.51266">
        <ele>2400.1999511719</ele>
        <time>2014-02-12T13:05:26.000Z</time>
      </trkpt>
      <trkpt lat="45.91587" lon="6.51266">
        <ele>2400.1999511719</ele>
        <time>2014-02-12T13:05:27.000Z</time>
      </trkpt>
      <trkpt lat="45.91587" lon="6.51266">
        <ele>2400.1999511719</ele>
        <time>2014-02-12T13:05:28.000Z</time>
      </trkpt>
      <trkpt lat="45.91587" lon="6.51266">
        <ele>2400.1999511719</ele>
        <time>2014-02-12T13:05:29.000Z</time>
      </trkpt>
      <trkpt lat="45.91587" lon="6.51266">
        <ele>2400.1999511719</ele>
        <time>2014-02-12T13:05:30.000Z</time>
      </trkpt>
      <trkpt lat="45.91587" lon="6.51266">
        <ele>2400.1999511719</ele>
        <time>2014-02-12T13:05:31.000Z</time>
      </trkpt>
      <trkpt lat="45.91587" lon="6.51266">
        <ele>2400.1999511719</ele>
        <time>2014-02-12T13:05:32.000Z</time>
      </trkpt>
      <trkpt lat="45.91587" lon="6.51266">
        <ele>2400.1999511719</ele>
        <time>2014-02-12T13:05:33.000Z</time>
      </trkpt>
      <trkpt lat="45.91587" lon="6.51266">
        <ele>2400.1999511719</ele>
        <time>2014-02-12T13:05:34.000Z</time>
      </trkpt>
      <trkpt lat="45.91587" lon="6.51266">
        <ele>2400.1999511719</ele>
        <time>2014-02-12T13:05:35.000Z</time>
      </trkpt>
      <trkpt lat="45.91587" lon="6.51266">
        <ele>2400.1999511719</ele>
        <time>2014-02-12T13:05:36.000Z</time>
      </trkpt>
      <trkpt lat="45.91587" lon="6.51266">
        <ele>2400.1999511719</ele>
        <time>2014-02-12T13:05:38.000Z</time>
      </trkpt>
      <trkpt lat="45.91587" lon="6.51266">
        <ele>2400.1999511719</ele>
        <time>2014-02-12T13:05:39.000Z</time>
      </trkpt>
      <trkpt lat="45.91587" lon="6.51266">
        <ele>2400.1999511719</ele>
        <time>2014-02-12T13:05:40.000Z</time>
      </trkpt>
      <trkpt lat="45.91587" lon="6.51266">
        <ele>2400.1999511719</ele>
        <time>2014-02-12T13:05:41.000Z</time>
      </trkpt>
      <trkpt lat="45.91587" lon="6.51266">
        <ele>2400.1999511719</ele>
        <time>2014-02-12T13:05:42.000Z</time>
      </trkpt>
      <trkpt lat="45.91587" lon="6.51266">
        <ele>2400.1999511719</ele>
        <time>2014-02-12T13:05:43.000Z</time>
      </trkpt>
      <trkpt lat="45.91587" lon="6.51266">
        <ele>2400.1999511719</ele>
        <time>2014-02-12T13:05:44.000Z</time>
      </trkpt>
      <trkpt lat="45.91587" lon="6.51266">
        <ele>2400.1999511719</ele>
        <time>2014-02-12T13:05:45.000Z</time>
      </trkpt>
      <trkpt lat="45.91587" lon="6.51266">
        <ele>2400.1999511719</ele>
        <time>2014-02-12T13:05:46.000Z</time>
      </trkpt>
      <trkpt lat="45.91587" lon="6.51266">
        <ele>2400.1999511719</ele>
        <time>2014-02-12T13:05:47.000Z</time>
      </trkpt>
      <trkpt lat="45.91587" lon="6.51266">
        <ele>2400.1999511719</ele>
        <time>2014-02-12T13:05:48.000Z</time>
      </trkpt>
      <trkpt lat="45.91587" lon="6.51266">
        <ele>2400.1999511719</ele>
        <time>2014-02-12T13:05:49.000Z</time>
      </trkpt>
      <trkpt lat="45.91587" lon="6.51266">
        <ele>2400.1999511719</ele>
        <time>2014-02-12T13:05:50.000Z</time>
      </trkpt>
      <trkpt lat="45.91587" lon="6.51266">
        <ele>2400.1999511719</ele>
        <time>2014-02-12T13:05:51.000Z</time>
      </trkpt>
      <trkpt lat="45.91587" lon="6.51266">
        <ele>2400.1999511719</ele>
        <time>2014-02-12T13:05:52.000Z</time>
      </trkpt>
      <trkpt lat="45.91587" lon="6.51266">
        <ele>2400.1999511719</ele>
        <time>2014-02-12T13:05:53.000Z</time>
      </trkpt>
      <trkpt lat="45.91587" lon="6.51266">
        <ele>2400.1999511719</ele>
        <time>2014-02-12T13:05:54.000Z</time>
      </trkpt>
      <trkpt lat="45.91587" lon="6.51266">
        <ele>2400.1999511719</ele>
        <time>2014-02-12T13:05:55.000Z</time>
      </trkpt>
      <trkpt lat="45.91587" lon="6.51266">
        <ele>2400.1999511719</ele>
        <time>2014-02-12T13:05:57.000Z</time>
      </trkpt>
      <trkpt lat="45.91587" lon="6.51266">
        <ele>2400.1999511719</ele>
        <time>2014-02-12T13:05:58.000Z</time>
      </trkpt>
      <trkpt lat="45.91587" lon="6.51266">
        <ele>2400.1999511719</ele>
        <time>2014-02-12T13:05:59.000Z</time>
      </trkpt>
      <trkpt lat="45.91587" lon="6.51266">
        <ele>2400.1999511719</ele>
        <time>2014-02-12T13:06:00.000Z</time>
      </trkpt>
      <trkpt lat="45.91587" lon="6.51266">
        <ele>2400.1999511719</ele>
        <time>2014-02-12T13:06:01.000Z</time>
      </trkpt>
      <trkpt lat="45.91587" lon="6.51266">
        <ele>2400.1999511719</ele>
        <time>2014-02-12T13:06:02.000Z</time>
      </trkpt>
      <trkpt lat="45.91587" lon="6.51266">
        <ele>2400.1999511719</ele>
        <time>2014-02-12T13:06:03.000Z</time>
      </trkpt>
      <trkpt lat="45.91587" lon="6.51266">
        <ele>2400.1999511719</ele>
        <time>2014-02-12T13:06:04.000Z</time>
      </trkpt>
      <trkpt lat="45.91587" lon="6.51266">
        <ele>2400.1999511719</ele>
        <time>2014-02-12T13:06:05.000Z</time>
      </trkpt>
      <trkpt lat="45.91587" lon="6.51266">
        <ele>2400.1999511719</ele>
        <time>2014-02-12T13:06:06.000Z</time>
      </trkpt>
      <trkpt lat="45.91587" lon="6.51266">
        <ele>2400.1999511719</ele>
        <time>2014-02-12T13:06:07.000Z</time>
      </trkpt>
      <trkpt lat="45.91587" lon="6.51266">
        <ele>2400.1999511719</ele>
        <time>2014-02-12T13:06:08.000Z</time>
      </trkpt>
      <trkpt lat="45.91587" lon="6.51266">
        <ele>2400.1999511719</ele>
        <time>2014-02-12T13:06:09.000Z</time>
      </trkpt>
      <trkpt lat="45.91587" lon="6.51266">
        <ele>2400.1999511719</ele>
        <time>2014-02-12T13:06:11.000Z</time>
      </trkpt>
      <trkpt lat="45.91587" lon="6.51266">
        <ele>2400.1999511719</ele>
        <time>2014-02-12T13:06:12.000Z</time>
      </trkpt>
      <trkpt lat="45.91587" lon="6.51266">
        <ele>2400.1999511719</ele>
        <time>2014-02-12T13:06:13.000Z</time>
      </trkpt>
      <trkpt lat="45.91587" lon="6.51266">
        <ele>2400.1999511719</ele>
        <time>2014-02-12T13:06:14.000Z</time>
      </trkpt>
      <trkpt lat="45.91587" lon="6.51266">
        <ele>2400.1999511719</ele>
        <time>2014-02-12T13:06:15.000Z</time>
      </trkpt>
      <trkpt lat="45.91587" lon="6.51266">
        <ele>2400.1999511719</ele>
        <time>2014-02-12T13:06:16.000Z</time>
      </trkpt>
      <trkpt lat="45.91587" lon="6.51266">
        <ele>2400.1999511719</ele>
        <time>2014-02-12T13:06:17.000Z</time>
      </trkpt>
      <trkpt lat="45.91587" lon="6.51266">
        <ele>2400.1999511719</ele>
        <time>2014-02-12T13:06:19.000Z</time>
      </trkpt>
      <trkpt lat="45.91587" lon="6.51266">
        <ele>2400.1999511719</ele>
        <time>2014-02-12T13:06:20.000Z</time>
      </trkpt>
      <trkpt lat="45.91587" lon="6.51266">
        <ele>2400.1999511719</ele>
        <time>2014-02-12T13:06:21.000Z</time>
      </trkpt>
      <trkpt lat="45.91587" lon="6.51266">
        <ele>2400.1999511719</ele>
        <time>2014-02-12T13:06:22.000Z</time>
      </trkpt>
      <trkpt lat="45.91587" lon="6.51266">
        <ele>2400.1999511719</ele>
        <time>2014-02-12T13:06:23.000Z</time>
      </trkpt>
      <trkpt lat="45.91587" lon="6.51266">
        <ele>2400.1999511719</ele>
        <time>2014-02-12T13:06:24.000Z</time>
      </trkpt>
      <trkpt lat="45.91587" lon="6.51266">
        <ele>2400.1999511719</ele>
        <time>2014-02-12T13:06:25.000Z</time>
      </trkpt>
      <trkpt lat="45.91587" lon="6.51266">
        <ele>2400.1999511719</ele>
        <time>2014-02-12T13:06:29.000Z</time>
      </trkpt>
      <trkpt lat="45.91587" lon="6.51266">
        <ele>2400.1999511719</ele>
        <time>2014-02-12T13:06:30.000Z</time>
      </trkpt>
      <trkpt lat="45.91587" lon="6.51266">
        <ele>2400.1999511719</ele>
        <time>2014-02-12T13:06:32.000Z</time>
      </trkpt>
      <trkpt lat="45.91587" lon="6.51266">
        <ele>2400.1999511719</ele>
        <time>2014-02-12T13:06:33.000Z</time>
      </trkpt>
      <trkpt lat="45.91587" lon="6.51266">
        <ele>2400.1999511719</ele>
        <time>2014-02-12T13:06:34.000Z</time>
      </trkpt>
      <trkpt lat="45.91587" lon="6.51266">
        <ele>2400.1999511719</ele>
        <time>2014-02-12T13:06:35.000Z</time>
      </trkpt>
      <trkpt lat="45.91587" lon="6.51266">
        <ele>2400.1999511719</ele>
        <time>2014-02-12T13:06:36.000Z</time>
      </trkpt>
      <trkpt lat="45.91587" lon="6.51266">
        <ele>2400</ele>
        <time>2014-02-12T13:06:37.000Z</time>
      </trkpt>
      <trkpt lat="45.91587" lon="6.51266">
        <ele>2400</ele>
        <time>2014-02-12T13:06:38.000Z</time>
      </trkpt>
      <trkpt lat="45.91587" lon="6.51266">
        <ele>2400</ele>
        <time>2014-02-12T13:06:39.000Z</time>
      </trkpt>
      <trkpt lat="45.91587" lon="6.51266">
        <ele>2400</ele>
        <time>2014-02-12T13:06:40.000Z</time>
      </trkpt>
      <trkpt lat="45.91587" lon="6.51266">
        <ele>2400</ele>
        <time>2014-02-12T13:06:42.000Z</time>
      </trkpt>
      <trkpt lat="45.91587" lon="6.51266">
        <ele>2400</ele>
        <time>2014-02-12T13:06:43.000Z</time>
      </trkpt>
      <trkpt lat="45.91587" lon="6.51266">
        <ele>2400</ele>
        <time>2014-02-12T13:06:44.000Z</time>
      </trkpt>
      <trkpt lat="45.91587" lon="6.51266">
        <ele>2400</ele>
        <time>2014-02-12T13:06:45.000Z</time>
      </trkpt>
      <trkpt lat="45.91587" lon="6.51266">
        <ele>2400</ele>
        <time>2014-02-12T13:06:46.000Z</time>
      </trkpt>
      <trkpt lat="45.91587" lon="6.51266">
        <ele>2400</ele>
        <time>2014-02-12T13:06:47.000Z</time>
      </trkpt>
      <trkpt lat="45.91587" lon="6.51266">
        <ele>2400</ele>
        <time>2014-02-12T13:06:48.000Z</time>
      </trkpt>
      <trkpt lat="45.91587" lon="6.51266">
        <ele>2400</ele>
        <time>2014-02-12T13:06:49.000Z</time>
      </trkpt>
      <trkpt lat="45.91587" lon="6.51266">
        <ele>2400</ele>
        <time>2014-02-12T13:06:50.000Z</time>
      </trkpt>
      <trkpt lat="45.91587" lon="6.51266">
        <ele>2400</ele>
        <time>2014-02-12T13:06:51.000Z</time>
      </trkpt>
      <trkpt lat="45.91587" lon="6.51266">
        <ele>2400</ele>
        <time>2014-02-12T13:06:52.000Z</time>
      </trkpt>
      <trkpt lat="45.91587" lon="6.51266">
        <ele>2400</ele>
        <time>2014-02-12T13:06:53.000Z</time>
      </trkpt>
      <trkpt lat="45.91587" lon="6.51266">
        <ele>2400</ele>
        <time>2014-02-12T13:06:54.000Z</time>
      </trkpt>
      <trkpt lat="45.91587" lon="6.51266">
        <ele>2400</ele>
        <time>2014-02-12T13:06:55.000Z</time>
      </trkpt>
      <trkpt lat="45.91587" lon="6.51266">
        <ele>2400</ele>
        <time>2014-02-12T13:06:56.000Z</time>
      </trkpt>
      <trkpt lat="45.91587" lon="6.51266">
        <ele>2400</ele>
        <time>2014-02-12T13:06:57.000Z</time>
      </trkpt>
      <trkpt lat="45.91587" lon="6.51266">
        <ele>2400</ele>
        <time>2014-02-12T13:06:58.000Z</time>
      </trkpt>
      <trkpt lat="45.91587" lon="6.51266">
        <ele>2400</ele>
        <time>2014-02-12T13:06:59.000Z</time>
      </trkpt>
      <trkpt lat="45.91587" lon="6.51266">
        <ele>2400</ele>
        <time>2014-02-12T13:07:01.000Z</time>
      </trkpt>
      <trkpt lat="45.91587" lon="6.51266">
        <ele>2400</ele>
        <time>2014-02-12T13:07:02.000Z</time>
      </trkpt>
      <trkpt lat="45.91587" lon="6.51266">
        <ele>2400</ele>
        <time>2014-02-12T13:07:03.000Z</time>
      </trkpt>
      <trkpt lat="45.91587" lon="6.51266">
        <ele>2400</ele>
        <time>2014-02-12T13:07:04.000Z</time>
      </trkpt>
      <trkpt lat="45.91587" lon="6.51266">
        <ele>2400</ele>
        <time>2014-02-12T13:07:05.000Z</time>
      </trkpt>
      <trkpt lat="45.91587" lon="6.51266">
        <ele>2400</ele>
        <time>2014-02-12T13:07:06.000Z</time>
      </trkpt>
      <trkpt lat="45.91587" lon="6.51266">
        <ele>2400</ele>
        <time>2014-02-12T13:07:07.000Z</time>
      </trkpt>
      <trkpt lat="45.91587" lon="6.51266">
        <ele>2400</ele>
        <time>2014-02-12T13:07:08.000Z</time>
      </trkpt>
      <trkpt lat="45.91587" lon="6.51266">
        <ele>2400</ele>
        <time>2014-02-12T13:07:09.000Z</time>
      </trkpt>
      <trkpt lat="45.91587" lon="6.51266">
        <ele>2400</ele>
        <time>2014-02-12T13:07:10.000Z</time>
      </trkpt>
      <trkpt lat="45.91587" lon="6.51266">
        <ele>2400</ele>
        <time>2014-02-12T13:07:14.000Z</time>
      </trkpt>
      <trkpt lat="45.91587" lon="6.51266">
        <ele>2400</ele>
        <time>2014-02-12T13:07:15.000Z</time>
      </trkpt>
      <trkpt lat="45.91587" lon="6.51266">
        <ele>2400</ele>
        <time>2014-02-12T13:07:16.000Z</time>
      </trkpt>
      <trkpt lat="45.91587" lon="6.51267">
        <ele>2400</ele>
        <time>2014-02-12T13:07:17.000Z</time>
      </trkpt>
      <trkpt lat="45.91587" lon="6.51267">
        <ele>2400</ele>
        <time>2014-02-12T13:07:18.000Z</time>
      </trkpt>
      <trkpt lat="45.91587" lon="6.51267">
        <ele>2400</ele>
        <time>2014-02-12T13:07:19.000Z</time>
      </trkpt>
      <trkpt lat="45.91587" lon="6.51267">
        <ele>2400</ele>
        <time>2014-02-12T13:07:20.000Z</time>
      </trkpt>
      <trkpt lat="45.91587" lon="6.51267">
        <ele>2400</ele>
        <time>2014-02-12T13:07:25.000Z</time>
      </trkpt>
      <trkpt lat="45.91587" lon="6.51267">
        <ele>2400</ele>
        <time>2014-02-12T13:07:27.000Z</time>
      </trkpt>
      <trkpt lat="45.91587" lon="6.51267">
        <ele>2400</ele>
        <time>2014-02-12T13:07:28.000Z</time>
      </trkpt>
      <trkpt lat="45.91587" lon="6.51267">
        <ele>2400</ele>
        <time>2014-02-12T13:07:29.000Z</time>
      </trkpt>
      <trkpt lat="45.91587" lon="6.51267">
        <ele>2400</ele>
        <time>2014-02-12T13:07:30.000Z</time>
      </trkpt>
      <trkpt lat="45.91587" lon="6.51267">
        <ele>2400</ele>
        <time>2014-02-12T13:07:31.000Z</time>
      </trkpt>
      <trkpt lat="45.91587" lon="6.51267">
        <ele>2400</ele>
        <time>2014-02-12T13:07:32.000Z</time>
      </trkpt>
      <trkpt lat="45.91587" lon="6.51267">
        <ele>2400</ele>
        <time>2014-02-12T13:07:33.000Z</time>
      </trkpt>
      <trkpt lat="45.91587" lon="6.51267">
        <ele>2400</ele>
        <time>2014-02-12T13:07:35.000Z</time>
      </trkpt>
      <trkpt lat="45.91587" lon="6.51267">
        <ele>2400</ele>
        <time>2014-02-12T13:07:36.000Z</time>
      </trkpt>
      <trkpt lat="45.91587" lon="6.51267">
        <ele>2400</ele>
        <time>2014-02-12T13:07:37.000Z</time>
      </trkpt>
      <trkpt lat="45.91587" lon="6.51267">
        <ele>2400</ele>
        <time>2014-02-12T13:07:38.000Z</time>
      </trkpt>
      <trkpt lat="45.91587" lon="6.51267">
        <ele>2400</ele>
        <time>2014-02-12T13:07:39.000Z</time>
      </trkpt>
      <trkpt lat="45.91587" lon="6.51267">
        <ele>2400</ele>
        <time>2014-02-12T13:07:40.000Z</time>
      </trkpt>
      <trkpt lat="45.91587" lon="6.51267">
        <ele>2400</ele>
        <time>2014-02-12T13:07:41.000Z</time>
      </trkpt>
      <trkpt lat="45.91587" lon="6.51267">
        <ele>2400</ele>
        <time>2014-02-12T13:07:42.000Z</time>
      </trkpt>
      <trkpt lat="45.91587" lon="6.51267">
        <ele>2400</ele>
        <time>2014-02-12T13:07:43.000Z</time>
      </trkpt>
      <trkpt lat="45.91587" lon="6.51267">
        <ele>2400</ele>
        <time>2014-02-12T13:07:44.000Z</time>
      </trkpt>
      <trkpt lat="45.91587" lon="6.51267">
        <ele>2400</ele>
        <time>2014-02-12T13:07:45.000Z</time>
      </trkpt>
      <trkpt lat="45.91587" lon="6.51267">
        <ele>2400</ele>
        <time>2014-02-12T13:07:46.000Z</time>
      </trkpt>
      <trkpt lat="45.91587" lon="6.51267">
        <ele>2400</ele>
        <time>2014-02-12T13:07:47.000Z</time>
      </trkpt>
      <trkpt lat="45.91587" lon="6.51267">
        <ele>2400</ele>
        <time>2014-02-12T13:07:48.000Z</time>
      </trkpt>
      <trkpt lat="45.91587" lon="6.51267">
        <ele>2400</ele>
        <time>2014-02-12T13:07:49.000Z</time>
      </trkpt>
      <trkpt lat="45.91587" lon="6.51267">
        <ele>2400</ele>
        <time>2014-02-12T13:07:51.000Z</time>
      </trkpt>
      <trkpt lat="45.91587" lon="6.51267">
        <ele>2400</ele>
        <time>2014-02-12T13:07:52.000Z</time>
      </trkpt>
      <trkpt lat="45.91587" lon="6.51267">
        <ele>2400</ele>
        <time>2014-02-12T13:07:53.000Z</time>
      </trkpt>
      <trkpt lat="45.91587" lon="6.51267">
        <ele>2400</ele>
        <time>2014-02-12T13:07:54.000Z</time>
      </trkpt>
      <trkpt lat="45.91587" lon="6.51267">
        <ele>2400</ele>
        <time>2014-02-12T13:07:55.000Z</time>
      </trkpt>
      <trkpt lat="45.91587" lon="6.51267">
        <ele>2400</ele>
        <time>2014-02-12T13:07:56.000Z</time>
      </trkpt>
      <trkpt lat="45.91587" lon="6.51266">
        <ele>2400</ele>
        <time>2014-02-12T13:07:58.000Z</time>
      </trkpt>
      <trkpt lat="45.91587" lon="6.51266">
        <ele>2400</ele>
        <time>2014-02-12T13:07:59.000Z</time>
      </trkpt>
      <trkpt lat="45.91587" lon="6.51266">
        <ele>2400</ele>
        <time>2014-02-12T13:08:00.000Z</time>
      </trkpt>
      <trkpt lat="45.91587" lon="6.51266">
        <ele>2400</ele>
        <time>2014-02-12T13:08:01.000Z</time>
      </trkpt>
      <trkpt lat="45.91587" lon="6.51266">
        <ele>2400</ele>
        <time>2014-02-12T13:08:02.000Z</time>
      </trkpt>
      <trkpt lat="45.91587" lon="6.51266">
        <ele>2400</ele>
        <time>2014-02-12T13:08:03.000Z</time>
      </trkpt>
      <trkpt lat="45.91587" lon="6.51266">
        <ele>2400</ele>
        <time>2014-02-12T13:08:06.000Z</time>
      </trkpt>
      <trkpt lat="45.91587" lon="6.51266">
        <ele>2400</ele>
        <time>2014-02-12T13:08:07.000Z</time>
      </trkpt>
      <trkpt lat="45.91587" lon="6.51266">
        <ele>2400</ele>
        <time>2014-02-12T13:08:08.000Z</time>
      </trkpt>
      <trkpt lat="45.91587" lon="6.51266">
        <ele>2400</ele>
        <time>2014-02-12T13:08:09.000Z</time>
      </trkpt>
      <trkpt lat="45.91587" lon="6.51266">
        <ele>2400</ele>
        <time>2014-02-12T13:08:10.000Z</time>
      </trkpt>
      <trkpt lat="45.91587" lon="6.51266">
        <ele>2400</ele>
        <time>2014-02-12T13:08:11.000Z</time>
      </trkpt>
      <trkpt lat="45.91587" lon="6.51266">
        <ele>2400</ele>
        <time>2014-02-12T13:08:15.000Z</time>
      </trkpt>
      <trkpt lat="45.91587" lon="6.51266">
        <ele>2400</ele>
        <time>2014-02-12T13:08:16.000Z</time>
      </trkpt>
      <trkpt lat="45.91587" lon="6.51266">
        <ele>2400</ele>
        <time>2014-02-12T13:08:17.000Z</time>
      </trkpt>
      <trkpt lat="45.91587" lon="6.51266">
        <ele>2400</ele>
        <time>2014-02-12T13:08:18.000Z</time>
      </trkpt>
      <trkpt lat="45.91587" lon="6.51266">
        <ele>2400</ele>
        <time>2014-02-12T13:08:19.000Z</time>
      </trkpt>
      <trkpt lat="45.91587" lon="6.51266">
        <ele>2400</ele>
        <time>2014-02-12T13:08:20.000Z</time>
      </trkpt>
      <trkpt lat="45.91587" lon="6.51266">
        <ele>2400</ele>
        <time>2014-02-12T13:08:21.000Z</time>
      </trkpt>
      <trkpt lat="45.91587" lon="6.51266">
        <ele>2400</ele>
        <time>2014-02-12T13:08:22.000Z</time>
      </trkpt>
      <trkpt lat="45.91587" lon="6.51266">
        <ele>2400</ele>
        <time>2014-02-12T13:08:24.000Z</time>
      </trkpt>
      <trkpt lat="45.91587" lon="6.51266">
        <ele>2400</ele>
        <time>2014-02-12T13:08:25.000Z</time>
      </trkpt>
      <trkpt lat="45.91587" lon="6.51266">
        <ele>2400</ele>
        <time>2014-02-12T13:08:26.000Z</time>
      </trkpt>
      <trkpt lat="45.91587" lon="6.51266">
        <ele>2400</ele>
        <time>2014-02-12T13:08:27.000Z</time>
      </trkpt>
      <trkpt lat="45.91587" lon="6.51266">
        <ele>2400</ele>
        <time>2014-02-12T13:08:28.000Z</time>
      </trkpt>
      <trkpt lat="45.91587" lon="6.51266">
        <ele>2400</ele>
        <time>2014-02-12T13:08:29.000Z</time>
      </trkpt>
      <trkpt lat="45.91587" lon="6.51266">
        <ele>2400</ele>
        <time>2014-02-12T13:08:30.000Z</time>
      </trkpt>
      <trkpt lat="45.91587" lon="6.51266">
        <ele>2400</ele>
        <time>2014-02-12T13:08:31.000Z</time>
      </trkpt>
      <trkpt lat="45.91587" lon="6.51266">
        <ele>2400</ele>
        <time>2014-02-12T13:08:32.000Z</time>
      </trkpt>
      <trkpt lat="45.91587" lon="6.51266">
        <ele>2400</ele>
        <time>2014-02-12T13:08:33.000Z</time>
      </trkpt>
      <trkpt lat="45.91587" lon="6.51266">
        <ele>2400</ele>
        <time>2014-02-12T13:08:34.000Z</time>
      </trkpt>
      <trkpt lat="45.91587" lon="6.51266">
        <ele>2400</ele>
        <time>2014-02-12T13:08:35.000Z</time>
      </trkpt>
      <trkpt lat="45.91587" lon="6.51266">
        <ele>2400</ele>
        <time>2014-02-12T13:08:36.000Z</time>
      </trkpt>
      <trkpt lat="45.91587" lon="6.51267">
        <ele>2399.6000976562</ele>
        <time>2014-02-12T13:08:37.000Z</time>
      </trkpt>
      <trkpt lat="45.91587" lon="6.51267">
        <ele>2399.6000976562</ele>
        <time>2014-02-12T13:08:39.000Z</time>
      </trkpt>
      <trkpt lat="45.91587" lon="6.51267">
        <ele>2399.6000976562</ele>
        <time>2014-02-12T13:08:41.000Z</time>
      </trkpt>
      <trkpt lat="45.91587" lon="6.51267">
        <ele>2399.6000976562</ele>
        <time>2014-02-12T13:08:42.000Z</time>
      </trkpt>
      <trkpt lat="45.91587" lon="6.51267">
        <ele>2399.6000976562</ele>
        <time>2014-02-12T13:08:43.000Z</time>
      </trkpt>
      <trkpt lat="45.91587" lon="6.51267">
        <ele>2399.6000976562</ele>
        <time>2014-02-12T13:08:44.000Z</time>
      </trkpt>
      <trkpt lat="45.91587" lon="6.51267">
        <ele>2399.6000976562</ele>
        <time>2014-02-12T13:08:46.000Z</time>
      </trkpt>
      <trkpt lat="45.91587" lon="6.51267">
        <ele>2399.6000976562</ele>
        <time>2014-02-12T13:08:48.000Z</time>
      </trkpt>
      <trkpt lat="45.91587" lon="6.51267">
        <ele>2399.6000976562</ele>
        <time>2014-02-12T13:08:49.000Z</time>
      </trkpt>
      <trkpt lat="45.91587" lon="6.51267">
        <ele>2399.6000976562</ele>
        <time>2014-02-12T13:08:50.000Z</time>
      </trkpt>
      <trkpt lat="45.91587" lon="6.51267">
        <ele>2399.6000976562</ele>
        <time>2014-02-12T13:08:51.000Z</time>
      </trkpt>
      <trkpt lat="45.91587" lon="6.51267">
        <ele>2399.6000976562</ele>
        <time>2014-02-12T13:08:52.000Z</time>
      </trkpt>
      <trkpt lat="45.91587" lon="6.51267">
        <ele>2399.6000976562</ele>
        <time>2014-02-12T13:08:53.000Z</time>
      </trkpt>
      <trkpt lat="45.91587" lon="6.51267">
        <ele>2399.6000976562</ele>
        <time>2014-02-12T13:08:54.000Z</time>
      </trkpt>
      <trkpt lat="45.91587" lon="6.51267">
        <ele>2399.6000976562</ele>
        <time>2014-02-12T13:08:55.000Z</time>
      </trkpt>
      <trkpt lat="45.91587" lon="6.51267">
        <ele>2399.6000976562</ele>
        <time>2014-02-12T13:08:56.000Z</time>
      </trkpt>
      <trkpt lat="45.91587" lon="6.51267">
        <ele>2399.6000976562</ele>
        <time>2014-02-12T13:08:57.000Z</time>
      </trkpt>
      <trkpt lat="45.91587" lon="6.51267">
        <ele>2399.6000976562</ele>
        <time>2014-02-12T13:08:58.000Z</time>
      </trkpt>
      <trkpt lat="45.91587" lon="6.51267">
        <ele>2399.6000976562</ele>
        <time>2014-02-12T13:08:59.000Z</time>
      </trkpt>
      <trkpt lat="45.91587" lon="6.51267">
        <ele>2399.6000976562</ele>
        <time>2014-02-12T13:09:00.000Z</time>
      </trkpt>
      <trkpt lat="45.91587" lon="6.51267">
        <ele>2399.6000976562</ele>
        <time>2014-02-12T13:09:01.000Z</time>
      </trkpt>
      <trkpt lat="45.91587" lon="6.51267">
        <ele>2399.6000976562</ele>
        <time>2014-02-12T13:09:02.000Z</time>
      </trkpt>
      <trkpt lat="45.91587" lon="6.51267">
        <ele>2399.6000976562</ele>
        <time>2014-02-12T13:09:03.000Z</time>
      </trkpt>
      <trkpt lat="45.91587" lon="6.51267">
        <ele>2399.6000976562</ele>
        <time>2014-02-12T13:09:04.000Z</time>
      </trkpt>
      <trkpt lat="45.91587" lon="6.51267">
        <ele>2399.6000976562</ele>
        <time>2014-02-12T13:09:05.000Z</time>
      </trkpt>
      <trkpt lat="45.91587" lon="6.51267">
        <ele>2399.6000976562</ele>
        <time>2014-02-12T13:09:06.000Z</time>
      </trkpt>
      <trkpt lat="45.91587" lon="6.51267">
        <ele>2399.6000976562</ele>
        <time>2014-02-12T13:09:07.000Z</time>
      </trkpt>
      <trkpt lat="45.91587" lon="6.51267">
        <ele>2399.6000976562</ele>
        <time>2014-02-12T13:09:08.000Z</time>
      </trkpt>
      <trkpt lat="45.91587" lon="6.51267">
        <ele>2399.6000976562</ele>
        <time>2014-02-12T13:09:09.000Z</time>
      </trkpt>
      <trkpt lat="45.91587" lon="6.51267">
        <ele>2399.6000976562</ele>
        <time>2014-02-12T13:09:10.000Z</time>
      </trkpt>
      <trkpt lat="45.91587" lon="6.51267">
        <ele>2399.6000976562</ele>
        <time>2014-02-12T13:09:13.000Z</time>
      </trkpt>
      <trkpt lat="45.91587" lon="6.51267">
        <ele>2399.6000976562</ele>
        <time>2014-02-12T13:09:14.000Z</time>
      </trkpt>
      <trkpt lat="45.91587" lon="6.51267">
        <ele>2399.6000976562</ele>
        <time>2014-02-12T13:09:16.000Z</time>
      </trkpt>
      <trkpt lat="45.91588" lon="6.51267">
        <ele>2399.3999023438</ele>
        <time>2014-02-12T13:09:17.000Z</time>
      </trkpt>
      <trkpt lat="45.91588" lon="6.51267">
        <ele>2399.3999023438</ele>
        <time>2014-02-12T13:09:18.000Z</time>
      </trkpt>
      <trkpt lat="45.91588" lon="6.51267">
        <ele>2399.3999023438</ele>
        <time>2014-02-12T13:09:19.000Z</time>
      </trkpt>
      <trkpt lat="45.91588" lon="6.51267">
        <ele>2399.3999023438</ele>
        <time>2014-02-12T13:09:20.000Z</time>
      </trkpt>
      <trkpt lat="45.91588" lon="6.51267">
        <ele>2399.3999023438</ele>
        <time>2014-02-12T13:09:21.000Z</time>
      </trkpt>
      <trkpt lat="45.91588" lon="6.51267">
        <ele>2399.3999023438</ele>
        <time>2014-02-12T13:09:23.000Z</time>
      </trkpt>
      <trkpt lat="45.91588" lon="6.51267">
        <ele>2399.3999023438</ele>
        <time>2014-02-12T13:09:27.000Z</time>
      </trkpt>
      <trkpt lat="45.91588" lon="6.51267">
        <ele>2399.3999023438</ele>
        <time>2014-02-12T13:09:28.000Z</time>
      </trkpt>
      <trkpt lat="45.91588" lon="6.51267">
        <ele>2399.3999023438</ele>
        <time>2014-02-12T13:09:29.000Z</time>
      </trkpt>
      <trkpt lat="45.91588" lon="6.51267">
        <ele>2399.3999023438</ele>
        <time>2014-02-12T13:09:30.000Z</time>
      </trkpt>
      <trkpt lat="45.91588" lon="6.51267">
        <ele>2399.3999023438</ele>
        <time>2014-02-12T13:09:31.000Z</time>
      </trkpt>
      <trkpt lat="45.91588" lon="6.51267">
        <ele>2399.3999023438</ele>
        <time>2014-02-12T13:09:32.000Z</time>
      </trkpt>
      <trkpt lat="45.91588" lon="6.51267">
        <ele>2399.3999023438</ele>
        <time>2014-02-12T13:09:33.000Z</time>
      </trkpt>
      <trkpt lat="45.91588" lon="6.51267">
        <ele>2399.3999023438</ele>
        <time>2014-02-12T13:09:34.000Z</time>
      </trkpt>
      <trkpt lat="45.91588" lon="6.51267">
        <ele>2399.3999023438</ele>
        <time>2014-02-12T13:09:35.000Z</time>
      </trkpt>
      <trkpt lat="45.91588" lon="6.51267">
        <ele>2399.3999023438</ele>
        <time>2014-02-12T13:09:36.000Z</time>
      </trkpt>
      <trkpt lat="45.91588" lon="6.51267">
        <ele>2399.3999023438</ele>
        <time>2014-02-12T13:09:37.000Z</time>
      </trkpt>
      <trkpt lat="45.91588" lon="6.51267">
        <ele>2399.3999023438</ele>
        <time>2014-02-12T13:09:38.000Z</time>
      </trkpt>
      <trkpt lat="45.91588" lon="6.51267">
        <ele>2399.3999023438</ele>
        <time>2014-02-12T13:09:39.000Z</time>
      </trkpt>
      <trkpt lat="45.91588" lon="6.51267">
        <ele>2399.3999023438</ele>
        <time>2014-02-12T13:09:40.000Z</time>
      </trkpt>
      <trkpt lat="45.91588" lon="6.51267">
        <ele>2399.3999023438</ele>
        <time>2014-02-12T13:09:41.000Z</time>
      </trkpt>
      <trkpt lat="45.91588" lon="6.51267">
        <ele>2399.3999023438</ele>
        <time>2014-02-12T13:09:42.000Z</time>
      </trkpt>
      <trkpt lat="45.91588" lon="6.51267">
        <ele>2399.3999023438</ele>
        <time>2014-02-12T13:09:43.000Z</time>
      </trkpt>
      <trkpt lat="45.91588" lon="6.51267">
        <ele>2399.3999023438</ele>
        <time>2014-02-12T13:09:44.000Z</time>
      </trkpt>
      <trkpt lat="45.91588" lon="6.51267">
        <ele>2399.3999023438</ele>
        <time>2014-02-12T13:09:45.000Z</time>
      </trkpt>
      <trkpt lat="45.91588" lon="6.51267">
        <ele>2399.3999023438</ele>
        <time>2014-02-12T13:09:46.000Z</time>
      </trkpt>
      <trkpt lat="45.91588" lon="6.51267">
        <ele>2399.3999023438</ele>
        <time>2014-02-12T13:09:47.000Z</time>
      </trkpt>
      <trkpt lat="45.91588" lon="6.51267">
        <ele>2399.3999023438</ele>
        <time>2014-02-12T13:09:48.000Z</time>
      </trkpt>
      <trkpt lat="45.91588" lon="6.51267">
        <ele>2399.3999023438</ele>
        <time>2014-02-12T13:09:49.000Z</time>
      </trkpt>
      <trkpt lat="45.91588" lon="6.51267">
        <ele>2399.3999023438</ele>
        <time>2014-02-12T13:09:50.000Z</time>
      </trkpt>
      <trkpt lat="45.91588" lon="6.51267">
        <ele>2399.3999023438</ele>
        <time>2014-02-12T13:09:51.000Z</time>
      </trkpt>
      <trkpt lat="45.91588" lon="6.51267">
        <ele>2399.3999023438</ele>
        <time>2014-02-12T13:09:52.000Z</time>
      </trkpt>
      <trkpt lat="45.91588" lon="6.51267">
        <ele>2399.3999023438</ele>
        <time>2014-02-12T13:09:53.000Z</time>
      </trkpt>
      <trkpt lat="45.91588" lon="6.51267">
        <ele>2399.3999023438</ele>
        <time>2014-02-12T13:09:54.000Z</time>
      </trkpt>
      <trkpt lat="45.91588" lon="6.51267">
        <ele>2399.3999023438</ele>
        <time>2014-02-12T13:09:55.000Z</time>
      </trkpt>
      <trkpt lat="45.91588" lon="6.51267">
        <ele>2399.3999023438</ele>
        <time>2014-02-12T13:09:56.000Z</time>
      </trkpt>
      <trkpt lat="45.91588" lon="6.51267">
        <ele>2399.1999511719</ele>
        <time>2014-02-12T13:09:57.000Z</time>
      </trkpt>
      <trkpt lat="45.91588" lon="6.51267">
        <ele>2399.1999511719</ele>
        <time>2014-02-12T13:09:58.000Z</time>
      </trkpt>
      <trkpt lat="45.91588" lon="6.51267">
        <ele>2399.1999511719</ele>
        <time>2014-02-12T13:09:59.000Z</time>
      </trkpt>
      <trkpt lat="45.91588" lon="6.51267">
        <ele>2399.1999511719</ele>
        <time>2014-02-12T13:10:00.000Z</time>
      </trkpt>
      <trkpt lat="45.91588" lon="6.51267">
        <ele>2399.1999511719</ele>
        <time>2014-02-12T13:10:01.000Z</time>
      </trkpt>
      <trkpt lat="45.91588" lon="6.51267">
        <ele>2399.1999511719</ele>
        <time>2014-02-12T13:10:02.000Z</time>
      </trkpt>
      <trkpt lat="45.91588" lon="6.51267">
        <ele>2399.1999511719</ele>
        <time>2014-02-12T13:10:03.000Z</time>
      </trkpt>
      <trkpt lat="45.91588" lon="6.51267">
        <ele>2399.1999511719</ele>
        <time>2014-02-12T13:10:04.000Z</time>
      </trkpt>
      <trkpt lat="45.91588" lon="6.51267">
        <ele>2399.1999511719</ele>
        <time>2014-02-12T13:10:05.000Z</time>
      </trkpt>
      <trkpt lat="45.91588" lon="6.51267">
        <ele>2399.1999511719</ele>
        <time>2014-02-12T13:10:06.000Z</time>
      </trkpt>
      <trkpt lat="45.91588" lon="6.51267">
        <ele>2399.1999511719</ele>
        <time>2014-02-12T13:10:07.000Z</time>
      </trkpt>
      <trkpt lat="45.91588" lon="6.51267">
        <ele>2399.1999511719</ele>
        <time>2014-02-12T13:10:08.000Z</time>
      </trkpt>
      <trkpt lat="45.91588" lon="6.51267">
        <ele>2399.1999511719</ele>
        <time>2014-02-12T13:10:09.000Z</time>
      </trkpt>
      <trkpt lat="45.91588" lon="6.51267">
        <ele>2399.1999511719</ele>
        <time>2014-02-12T13:10:10.000Z</time>
      </trkpt>
      <trkpt lat="45.91588" lon="6.51267">
        <ele>2399.1999511719</ele>
        <time>2014-02-12T13:10:11.000Z</time>
      </trkpt>
      <trkpt lat="45.91588" lon="6.51267">
        <ele>2399.1999511719</ele>
        <time>2014-02-12T13:10:12.000Z</time>
      </trkpt>
      <trkpt lat="45.91588" lon="6.51267">
        <ele>2399.1999511719</ele>
        <time>2014-02-12T13:10:15.000Z</time>
      </trkpt>
      <trkpt lat="45.91588" lon="6.51267">
        <ele>2399.1999511719</ele>
        <time>2014-02-12T13:10:16.000Z</time>
      </trkpt>
      <trkpt lat="45.91588" lon="6.51267">
        <ele>2399.1999511719</ele>
        <time>2014-02-12T13:10:17.000Z</time>
      </trkpt>
      <trkpt lat="45.91588" lon="6.51267">
        <ele>2399.1999511719</ele>
        <time>2014-02-12T13:10:18.000Z</time>
      </trkpt>
      <trkpt lat="45.91588" lon="6.51267">
        <ele>2399.1999511719</ele>
        <time>2014-02-12T13:10:19.000Z</time>
      </trkpt>
      <trkpt lat="45.91588" lon="6.51267">
        <ele>2399.1999511719</ele>
        <time>2014-02-12T13:10:20.000Z</time>
      </trkpt>
      <trkpt lat="45.91588" lon="6.51267">
        <ele>2399.1999511719</ele>
        <time>2014-02-12T13:10:21.000Z</time>
      </trkpt>
      <trkpt lat="45.91588" lon="6.51267">
        <ele>2399.1999511719</ele>
        <time>2014-02-12T13:10:22.000Z</time>
      </trkpt>
      <trkpt lat="45.91588" lon="6.51267">
        <ele>2399.1999511719</ele>
        <time>2014-02-12T13:10:23.000Z</time>
      </trkpt>
      <trkpt lat="45.91588" lon="6.51267">
        <ele>2399.1999511719</ele>
        <time>2014-02-12T13:10:24.000Z</time>
      </trkpt>
      <trkpt lat="45.91588" lon="6.51267">
        <ele>2399.1999511719</ele>
        <time>2014-02-12T13:10:25.000Z</time>
      </trkpt>
      <trkpt lat="45.91588" lon="6.51267">
        <ele>2399.1999511719</ele>
        <time>2014-02-12T13:10:26.000Z</time>
      </trkpt>
      <trkpt lat="45.91588" lon="6.51267">
        <ele>2399.1999511719</ele>
        <time>2014-02-12T13:10:29.000Z</time>
      </trkpt>
      <trkpt lat="45.91588" lon="6.51267">
        <ele>2399.1999511719</ele>
        <time>2014-02-12T13:10:30.000Z</time>
      </trkpt>
      <trkpt lat="45.91588" lon="6.51267">
        <ele>2399.1999511719</ele>
        <time>2014-02-12T13:10:31.000Z</time>
      </trkpt>
      <trkpt lat="45.91588" lon="6.51267">
        <ele>2399.1999511719</ele>
        <time>2014-02-12T13:10:32.000Z</time>
      </trkpt>
      <trkpt lat="45.91588" lon="6.51267">
        <ele>2399.1999511719</ele>
        <time>2014-02-12T13:10:33.000Z</time>
      </trkpt>
      <trkpt lat="45.91588" lon="6.51267">
        <ele>2399.1999511719</ele>
        <time>2014-02-12T13:10:34.000Z</time>
      </trkpt>
      <trkpt lat="45.91588" lon="6.51267">
        <ele>2399.1999511719</ele>
        <time>2014-02-12T13:10:35.000Z</time>
      </trkpt>
      <trkpt lat="45.91588" lon="6.51267">
        <ele>2399.1999511719</ele>
        <time>2014-02-12T13:10:36.000Z</time>
      </trkpt>
      <trkpt lat="45.91588" lon="6.51267">
        <ele>2399</ele>
        <time>2014-02-12T13:10:37.000Z</time>
      </trkpt>
      <trkpt lat="45.91588" lon="6.51267">
        <ele>2399</ele>
        <time>2014-02-12T13:10:38.000Z</time>
      </trkpt>
      <trkpt lat="45.91588" lon="6.51267">
        <ele>2399</ele>
        <time>2014-02-12T13:10:39.000Z</time>
      </trkpt>
      <trkpt lat="45.91588" lon="6.51267">
        <ele>2399</ele>
        <time>2014-02-12T13:10:40.000Z</time>
      </trkpt>
      <trkpt lat="45.91588" lon="6.51267">
        <ele>2399</ele>
        <time>2014-02-12T13:10:41.000Z</time>
      </trkpt>
      <trkpt lat="45.91588" lon="6.51267">
        <ele>2399</ele>
        <time>2014-02-12T13:10:42.000Z</time>
      </trkpt>
      <trkpt lat="45.91588" lon="6.51267">
        <ele>2399</ele>
        <time>2014-02-12T13:10:43.000Z</time>
      </trkpt>
      <trkpt lat="45.91588" lon="6.51267">
        <ele>2399</ele>
        <time>2014-02-12T13:10:44.000Z</time>
      </trkpt>
      <trkpt lat="45.91588" lon="6.51267">
        <ele>2399</ele>
        <time>2014-02-12T13:10:45.000Z</time>
      </trkpt>
      <trkpt lat="45.91588" lon="6.51267">
        <ele>2399</ele>
        <time>2014-02-12T13:10:46.000Z</time>
      </trkpt>
      <trkpt lat="45.91588" lon="6.51267">
        <ele>2399</ele>
        <time>2014-02-12T13:10:47.000Z</time>
      </trkpt>
      <trkpt lat="45.91588" lon="6.51267">
        <ele>2399</ele>
        <time>2014-02-12T13:10:48.000Z</time>
      </trkpt>
      <trkpt lat="45.91588" lon="6.51267">
        <ele>2399</ele>
        <time>2014-02-12T13:10:49.000Z</time>
      </trkpt>
      <trkpt lat="45.91588" lon="6.51267">
        <ele>2399</ele>
        <time>2014-02-12T13:10:50.000Z</time>
      </trkpt>
      <trkpt lat="45.91588" lon="6.51267">
        <ele>2399</ele>
        <time>2014-02-12T13:10:51.000Z</time>
      </trkpt>
      <trkpt lat="45.91588" lon="6.51267">
        <ele>2399</ele>
        <time>2014-02-12T13:10:52.000Z</time>
      </trkpt>
      <trkpt lat="45.91588" lon="6.51268">
        <ele>2399.1999511719</ele>
        <time>2014-02-12T13:10:53.000Z</time>
      </trkpt>
      <trkpt lat="45.91587" lon="6.51268">
        <ele>2399.1999511719</ele>
        <time>2014-02-12T13:10:54.000Z</time>
      </trkpt>
      <trkpt lat="45.91587" lon="6.51268">
        <ele>2399.1999511719</ele>
        <time>2014-02-12T13:10:56.000Z</time>
      </trkpt>
      <trkpt lat="45.91586" lon="6.51269">
        <ele>2399.1999511719</ele>
        <time>2014-02-12T13:10:57.000Z</time>
      </trkpt>
      <trkpt lat="45.91586" lon="6.51269">
        <ele>2399.1999511719</ele>
        <time>2014-02-12T13:10:58.000Z</time>
      </trkpt>
      <trkpt lat="45.91586" lon="6.51269">
        <ele>2399.1999511719</ele>
        <time>2014-02-12T13:10:59.000Z</time>
      </trkpt>
      <trkpt lat="45.91586" lon="6.51269">
        <ele>2399.3999023438</ele>
        <time>2014-02-12T13:11:00.000Z</time>
      </trkpt>
      <trkpt lat="45.91586" lon="6.51268">
        <ele>2399.6000976562</ele>
        <time>2014-02-12T13:11:01.000Z</time>
      </trkpt>
      <trkpt lat="45.91586" lon="6.51268">
        <ele>2399.3999023438</ele>
        <time>2014-02-12T13:11:02.000Z</time>
      </trkpt>
      <trkpt lat="45.91586" lon="6.51268">
        <ele>2399.3999023438</ele>
        <time>2014-02-12T13:11:03.000Z</time>
      </trkpt>
      <trkpt lat="45.91586" lon="6.51268">
        <ele>2399.3999023438</ele>
        <time>2014-02-12T13:11:06.000Z</time>
      </trkpt>
      <trkpt lat="45.91586" lon="6.51268">
        <ele>2399.3999023438</ele>
        <time>2014-02-12T13:11:07.000Z</time>
      </trkpt>
      <trkpt lat="45.91586" lon="6.51268">
        <ele>2399.3999023438</ele>
        <time>2014-02-12T13:11:08.000Z</time>
      </trkpt>
      <trkpt lat="45.91586" lon="6.51268">
        <ele>2399.3999023438</ele>
        <time>2014-02-12T13:11:09.000Z</time>
      </trkpt>
      <trkpt lat="45.91586" lon="6.51268">
        <ele>2399.3999023438</ele>
        <time>2014-02-12T13:11:10.000Z</time>
      </trkpt>
      <trkpt lat="45.91586" lon="6.51268">
        <ele>2399.3999023438</ele>
        <time>2014-02-12T13:11:11.000Z</time>
      </trkpt>
      <trkpt lat="45.91586" lon="6.51268">
        <ele>2399.3999023438</ele>
        <time>2014-02-12T13:11:12.000Z</time>
      </trkpt>
      <trkpt lat="45.91586" lon="6.51268">
        <ele>2399.3999023438</ele>
        <time>2014-02-12T13:11:13.000Z</time>
      </trkpt>
      <trkpt lat="45.91586" lon="6.51268">
        <ele>2399.3999023438</ele>
        <time>2014-02-12T13:11:14.000Z</time>
      </trkpt>
      <trkpt lat="45.91586" lon="6.51268">
        <ele>2399.3999023438</ele>
        <time>2014-02-12T13:11:15.000Z</time>
      </trkpt>
      <trkpt lat="45.91586" lon="6.51268">
        <ele>2399.3999023438</ele>
        <time>2014-02-12T13:11:16.000Z</time>
      </trkpt>
      <trkpt lat="45.91586" lon="6.51268">
        <ele>2399.3999023438</ele>
        <time>2014-02-12T13:11:17.000Z</time>
      </trkpt>
      <trkpt lat="45.91586" lon="6.51268">
        <ele>2399.3999023438</ele>
        <time>2014-02-12T13:11:18.000Z</time>
      </trkpt>
      <trkpt lat="45.91586" lon="6.51268">
        <ele>2399.3999023438</ele>
        <time>2014-02-12T13:11:19.000Z</time>
      </trkpt>
      <trkpt lat="45.91586" lon="6.51268">
        <ele>2399.3999023438</ele>
        <time>2014-02-12T13:11:20.000Z</time>
      </trkpt>
      <trkpt lat="45.91586" lon="6.51268">
        <ele>2399.3999023438</ele>
        <time>2014-02-12T13:11:21.000Z</time>
      </trkpt>
      <trkpt lat="45.91586" lon="6.51268">
        <ele>2399.3999023438</ele>
        <time>2014-02-12T13:11:22.000Z</time>
      </trkpt>
      <trkpt lat="45.91586" lon="6.51268">
        <ele>2399.3999023438</ele>
        <time>2014-02-12T13:11:23.000Z</time>
      </trkpt>
      <trkpt lat="45.91586" lon="6.51268">
        <ele>2399.3999023438</ele>
        <time>2014-02-12T13:11:24.000Z</time>
      </trkpt>
      <trkpt lat="45.91586" lon="6.51268">
        <ele>2399.3999023438</ele>
        <time>2014-02-12T13:11:25.000Z</time>
      </trkpt>
      <trkpt lat="45.91586" lon="6.51268">
        <ele>2399.3999023438</ele>
        <time>2014-02-12T13:11:26.000Z</time>
      </trkpt>
      <trkpt lat="45.91586" lon="6.51268">
        <ele>2399.3999023438</ele>
        <time>2014-02-12T13:11:27.000Z</time>
      </trkpt>
      <trkpt lat="45.91586" lon="6.51268">
        <ele>2399.3999023438</ele>
        <time>2014-02-12T13:11:30.000Z</time>
      </trkpt>
      <trkpt lat="45.91586" lon="6.51268">
        <ele>2399.3999023438</ele>
        <time>2014-02-12T13:11:31.000Z</time>
      </trkpt>
      <trkpt lat="45.91586" lon="6.51268">
        <ele>2399.3999023438</ele>
        <time>2014-02-12T13:11:32.000Z</time>
      </trkpt>
      <trkpt lat="45.91586" lon="6.51268">
        <ele>2399.3999023438</ele>
        <time>2014-02-12T13:11:33.000Z</time>
      </trkpt>
      <trkpt lat="45.91586" lon="6.51268">
        <ele>2399.3999023438</ele>
        <time>2014-02-12T13:11:36.000Z</time>
      </trkpt>
      <trkpt lat="45.91586" lon="6.51268">
        <ele>2399.3999023438</ele>
        <time>2014-02-12T13:11:37.000Z</time>
      </trkpt>
      <trkpt lat="45.91586" lon="6.51268">
        <ele>2399.3999023438</ele>
        <time>2014-02-12T13:11:38.000Z</time>
      </trkpt>
      <trkpt lat="45.91586" lon="6.51268">
        <ele>2399.3999023438</ele>
        <time>2014-02-12T13:11:40.000Z</time>
      </trkpt>
      <trkpt lat="45.91586" lon="6.51268">
        <ele>2399.3999023438</ele>
        <time>2014-02-12T13:11:41.000Z</time>
      </trkpt>
      <trkpt lat="45.91587" lon="6.51268">
        <ele>2399.1999511719</ele>
        <time>2014-02-12T13:11:42.000Z</time>
      </trkpt>
      <trkpt lat="45.91587" lon="6.51268">
        <ele>2399.1999511719</ele>
        <time>2014-02-12T13:11:43.000Z</time>
      </trkpt>
      <trkpt lat="45.91587" lon="6.51268">
        <ele>2399.1999511719</ele>
        <time>2014-02-12T13:11:45.000Z</time>
      </trkpt>
      <trkpt lat="45.91587" lon="6.51268">
        <ele>2399.1999511719</ele>
        <time>2014-02-12T13:11:46.000Z</time>
      </trkpt>
      <trkpt lat="45.91587" lon="6.51268">
        <ele>2399.1999511719</ele>
        <time>2014-02-12T13:11:47.000Z</time>
      </trkpt>
      <trkpt lat="45.91587" lon="6.51268">
        <ele>2399.1999511719</ele>
        <time>2014-02-12T13:11:48.000Z</time>
      </trkpt>
      <trkpt lat="45.91587" lon="6.51268">
        <ele>2399.1999511719</ele>
        <time>2014-02-12T13:11:49.000Z</time>
      </trkpt>
      <trkpt lat="45.91587" lon="6.51268">
        <ele>2399.1999511719</ele>
        <time>2014-02-12T13:11:50.000Z</time>
      </trkpt>
      <trkpt lat="45.91587" lon="6.51268">
        <ele>2399.1999511719</ele>
        <time>2014-02-12T13:11:51.000Z</time>
      </trkpt>
      <trkpt lat="45.91587" lon="6.51268">
        <ele>2399.1999511719</ele>
        <time>2014-02-12T13:11:52.000Z</time>
      </trkpt>
      <trkpt lat="45.91587" lon="6.51268">
        <ele>2399.1999511719</ele>
        <time>2014-02-12T13:11:55.000Z</time>
      </trkpt>
      <trkpt lat="45.91587" lon="6.51268">
        <ele>2399.1999511719</ele>
        <time>2014-02-12T13:11:57.000Z</time>
      </trkpt>
      <trkpt lat="45.91587" lon="6.51268">
        <ele>2399.1999511719</ele>
        <time>2014-02-12T13:11:58.000Z</time>
      </trkpt>
      <trkpt lat="45.91587" lon="6.51268">
        <ele>2399.1999511719</ele>
        <time>2014-02-12T13:11:59.000Z</time>
      </trkpt>
      <trkpt lat="45.91587" lon="6.51268">
        <ele>2399.1999511719</ele>
        <time>2014-02-12T13:12:00.000Z</time>
      </trkpt>
      <trkpt lat="45.91587" lon="6.51268">
        <ele>2399.1999511719</ele>
        <time>2014-02-12T13:12:01.000Z</time>
      </trkpt>
      <trkpt lat="45.91587" lon="6.51268">
        <ele>2399.1999511719</ele>
        <time>2014-02-12T13:12:02.000Z</time>
      </trkpt>
      <trkpt lat="45.91587" lon="6.51268">
        <ele>2399.1999511719</ele>
        <time>2014-02-12T13:12:03.000Z</time>
      </trkpt>
      <trkpt lat="45.91587" lon="6.51268">
        <ele>2399.1999511719</ele>
        <time>2014-02-12T13:12:04.000Z</time>
      </trkpt>
      <trkpt lat="45.91587" lon="6.51268">
        <ele>2399.1999511719</ele>
        <time>2014-02-12T13:12:05.000Z</time>
      </trkpt>
      <trkpt lat="45.91587" lon="6.51268">
        <ele>2399.1999511719</ele>
        <time>2014-02-12T13:12:06.000Z</time>
      </trkpt>
      <trkpt lat="45.91587" lon="6.51268">
        <ele>2399.1999511719</ele>
        <time>2014-02-12T13:12:07.000Z</time>
      </trkpt>
      <trkpt lat="45.91587" lon="6.51268">
        <ele>2399.1999511719</ele>
        <time>2014-02-12T13:12:08.000Z</time>
      </trkpt>
      <trkpt lat="45.91587" lon="6.51268">
        <ele>2399.1999511719</ele>
        <time>2014-02-12T13:12:09.000Z</time>
      </trkpt>
      <trkpt lat="45.91587" lon="6.51268">
        <ele>2399.1999511719</ele>
        <time>2014-02-12T13:12:10.000Z</time>
      </trkpt>
      <trkpt lat="45.91587" lon="6.51268">
        <ele>2399.1999511719</ele>
        <time>2014-02-12T13:12:12.000Z</time>
      </trkpt>
      <trkpt lat="45.91587" lon="6.51268">
        <ele>2399.1999511719</ele>
        <time>2014-02-12T13:12:13.000Z</time>
      </trkpt>
      <trkpt lat="45.91587" lon="6.51268">
        <ele>2399.1999511719</ele>
        <time>2014-02-12T13:12:14.000Z</time>
      </trkpt>
      <trkpt lat="45.91587" lon="6.51268">
        <ele>2399.1999511719</ele>
        <time>2014-02-12T13:12:15.000Z</time>
      </trkpt>
      <trkpt lat="45.91587" lon="6.51268">
        <ele>2399.1999511719</ele>
        <time>2014-02-12T13:12:16.000Z</time>
      </trkpt>
      <trkpt lat="45.91587" lon="6.51268">
        <ele>2399.1999511719</ele>
        <time>2014-02-12T13:12:17.000Z</time>
      </trkpt>
      <trkpt lat="45.91587" lon="6.51268">
        <ele>2399.1999511719</ele>
        <time>2014-02-12T13:12:18.000Z</time>
      </trkpt>
      <trkpt lat="45.91587" lon="6.51268">
        <ele>2399.1999511719</ele>
        <time>2014-02-12T13:12:19.000Z</time>
      </trkpt>
      <trkpt lat="45.91587" lon="6.51268">
        <ele>2399.3999023438</ele>
        <time>2014-02-12T13:12:20.000Z</time>
      </trkpt>
      <trkpt lat="45.91587" lon="6.51268">
        <ele>2399.3999023438</ele>
        <time>2014-02-12T13:12:21.000Z</time>
      </trkpt>
      <trkpt lat="45.91588" lon="6.51267">
        <ele>2399.3999023438</ele>
        <time>2014-02-12T13:12:22.000Z</time>
      </trkpt>
      <trkpt lat="45.91588" lon="6.51266">
        <ele>2399.3999023438</ele>
        <time>2014-02-12T13:12:23.000Z</time>
      </trkpt>
      <trkpt lat="45.91589" lon="6.51266">
        <ele>2399.1999511719</ele>
        <time>2014-02-12T13:12:24.000Z</time>
      </trkpt>
      <trkpt lat="45.9159" lon="6.51264">
        <ele>2399.8000488281</ele>
        <time>2014-02-12T13:12:25.000Z</time>
      </trkpt>
      <trkpt lat="45.9159" lon="6.51264">
        <ele>2400</ele>
        <time>2014-02-12T13:12:26.000Z</time>
      </trkpt>
      <trkpt lat="45.9159" lon="6.51263">
        <ele>2400.3999023438</ele>
        <time>2014-02-12T13:12:27.000Z</time>
      </trkpt>
      <trkpt lat="45.9159" lon="6.51263">
        <ele>2400.3999023438</ele>
        <time>2014-02-12T13:12:28.000Z</time>
      </trkpt>
      <trkpt lat="45.9159" lon="6.51263">
        <ele>2400.3999023438</ele>
        <time>2014-02-12T13:12:29.000Z</time>
      </trkpt>
      <trkpt lat="45.9159" lon="6.51263">
        <ele>2400.3999023438</ele>
        <time>2014-02-12T13:12:30.000Z</time>
      </trkpt>
      <trkpt lat="45.9159" lon="6.51263">
        <ele>2400.3999023438</ele>
        <time>2014-02-12T13:12:31.000Z</time>
      </trkpt>
      <trkpt lat="45.9159" lon="6.51263">
        <ele>2400.3999023438</ele>
        <time>2014-02-12T13:12:32.000Z</time>
      </trkpt>
      <trkpt lat="45.9159" lon="6.51263">
        <ele>2400.3999023438</ele>
        <time>2014-02-12T13:12:33.000Z</time>
      </trkpt>
      <trkpt lat="45.9159" lon="6.51263">
        <ele>2400.3999023438</ele>
        <time>2014-02-12T13:12:34.000Z</time>
      </trkpt>
      <trkpt lat="45.9159" lon="6.51263">
        <ele>2400.3999023438</ele>
        <time>2014-02-12T13:12:35.000Z</time>
      </trkpt>
      <trkpt lat="45.9159" lon="6.51263">
        <ele>2400.3999023438</ele>
        <time>2014-02-12T13:12:36.000Z</time>
      </trkpt>
      <trkpt lat="45.9159" lon="6.51263">
        <ele>2400.3999023438</ele>
        <time>2014-02-12T13:12:37.000Z</time>
      </trkpt>
      <trkpt lat="45.9159" lon="6.51263">
        <ele>2400.3999023438</ele>
        <time>2014-02-12T13:12:38.000Z</time>
      </trkpt>
      <trkpt lat="45.9159" lon="6.51263">
        <ele>2400.3999023438</ele>
        <time>2014-02-12T13:12:39.000Z</time>
      </trkpt>
      <trkpt lat="45.9159" lon="6.51263">
        <ele>2400.3999023438</ele>
        <time>2014-02-12T13:12:40.000Z</time>
      </trkpt>
      <trkpt lat="45.9159" lon="6.51263">
        <ele>2400.3999023438</ele>
        <time>2014-02-12T13:12:43.000Z</time>
      </trkpt>
      <trkpt lat="45.9159" lon="6.51263">
        <ele>2400.3999023438</ele>
        <time>2014-02-12T13:12:44.000Z</time>
      </trkpt>
      <trkpt lat="45.9159" lon="6.51263">
        <ele>2400.3999023438</ele>
        <time>2014-02-12T13:12:45.000Z</time>
      </trkpt>
      <trkpt lat="45.9159" lon="6.51263">
        <ele>2400.3999023438</ele>
        <time>2014-02-12T13:12:46.000Z</time>
      </trkpt>
      <trkpt lat="45.9159" lon="6.51263">
        <ele>2400.3999023438</ele>
        <time>2014-02-12T13:12:47.000Z</time>
      </trkpt>
      <trkpt lat="45.9159" lon="6.51263">
        <ele>2400.3999023438</ele>
        <time>2014-02-12T13:12:48.000Z</time>
      </trkpt>
      <trkpt lat="45.9159" lon="6.51263">
        <ele>2400.3999023438</ele>
        <time>2014-02-12T13:12:49.000Z</time>
      </trkpt>
      <trkpt lat="45.9159" lon="6.51263">
        <ele>2400.3999023438</ele>
        <time>2014-02-12T13:12:50.000Z</time>
      </trkpt>
      <trkpt lat="45.9159" lon="6.51263">
        <ele>2400.3999023438</ele>
        <time>2014-02-12T13:12:55.000Z</time>
      </trkpt>
      <trkpt lat="45.9159" lon="6.51263">
        <ele>2400.3999023438</ele>
        <time>2014-02-12T13:12:56.000Z</time>
      </trkpt>
      <trkpt lat="45.9159" lon="6.51263">
        <ele>2400.3999023438</ele>
        <time>2014-02-12T13:12:57.000Z</time>
      </trkpt>
      <trkpt lat="45.9159" lon="6.51263">
        <ele>2400.3999023438</ele>
        <time>2014-02-12T13:12:58.000Z</time>
      </trkpt>
      <trkpt lat="45.9159" lon="6.51263">
        <ele>2400.3999023438</ele>
        <time>2014-02-12T13:12:59.000Z</time>
      </trkpt>
      <trkpt lat="45.9159" lon="6.51263">
        <ele>2400.3999023438</ele>
        <time>2014-02-12T13:13:00.000Z</time>
      </trkpt>
      <trkpt lat="45.9159" lon="6.51263">
        <ele>2400.3999023438</ele>
        <time>2014-02-12T13:13:01.000Z</time>
      </trkpt>
      <trkpt lat="45.9159" lon="6.51263">
        <ele>2400.3999023438</ele>
        <time>2014-02-12T13:13:02.000Z</time>
      </trkpt>
      <trkpt lat="45.9159" lon="6.51263">
        <ele>2400.3999023438</ele>
        <time>2014-02-12T13:13:03.000Z</time>
      </trkpt>
      <trkpt lat="45.9159" lon="6.51263">
        <ele>2400.3999023438</ele>
        <time>2014-02-12T13:13:05.000Z</time>
      </trkpt>
      <trkpt lat="45.9159" lon="6.51263">
        <ele>2400.3999023438</ele>
        <time>2014-02-12T13:13:06.000Z</time>
      </trkpt>
      <trkpt lat="45.9159" lon="6.51265">
        <ele>2399.8000488281</ele>
        <time>2014-02-12T13:13:07.000Z</time>
      </trkpt>
      <trkpt lat="45.91589" lon="6.51265">
        <ele>2399.3999023438</ele>
        <time>2014-02-12T13:13:08.000Z</time>
      </trkpt>
      <trkpt lat="45.91588" lon="6.51266">
        <ele>2399.3999023438</ele>
        <time>2014-02-12T13:13:09.000Z</time>
      </trkpt>
      <trkpt lat="45.91588" lon="6.51267">
        <ele>2399.3999023438</ele>
        <time>2014-02-12T13:13:10.000Z</time>
      </trkpt>
      <trkpt lat="45.91587" lon="6.51267">
        <ele>2399.3999023438</ele>
        <time>2014-02-12T13:13:11.000Z</time>
      </trkpt>
      <trkpt lat="45.91587" lon="6.51267">
        <ele>2399.3999023438</ele>
        <time>2014-02-12T13:13:12.000Z</time>
      </trkpt>
      <trkpt lat="45.91587" lon="6.51267">
        <ele>2399.3999023438</ele>
        <time>2014-02-12T13:13:13.000Z</time>
      </trkpt>
      <trkpt lat="45.91587" lon="6.51267">
        <ele>2399.3999023438</ele>
        <time>2014-02-12T13:13:14.000Z</time>
      </trkpt>
      <trkpt lat="45.91587" lon="6.51267">
        <ele>2399.3999023438</ele>
        <time>2014-02-12T13:13:15.000Z</time>
      </trkpt>
      <trkpt lat="45.91587" lon="6.51267">
        <ele>2399.3999023438</ele>
        <time>2014-02-12T13:13:16.000Z</time>
      </trkpt>
      <trkpt lat="45.91587" lon="6.51267">
        <ele>2399.3999023438</ele>
        <time>2014-02-12T13:13:17.000Z</time>
      </trkpt>
      <trkpt lat="45.91587" lon="6.51267">
        <ele>2399.3999023438</ele>
        <time>2014-02-12T13:13:18.000Z</time>
      </trkpt>
      <trkpt lat="45.91587" lon="6.51267">
        <ele>2399.3999023438</ele>
        <time>2014-02-12T13:13:19.000Z</time>
      </trkpt>
      <trkpt lat="45.91587" lon="6.51267">
        <ele>2399.3999023438</ele>
        <time>2014-02-12T13:13:20.000Z</time>
      </trkpt>
      <trkpt lat="45.91587" lon="6.51267">
        <ele>2399.3999023438</ele>
        <time>2014-02-12T13:13:21.000Z</time>
      </trkpt>
      <trkpt lat="45.91587" lon="6.51267">
        <ele>2399.3999023438</ele>
        <time>2014-02-12T13:13:25.000Z</time>
      </trkpt>
      <trkpt lat="45.91587" lon="6.51267">
        <ele>2399.3999023438</ele>
        <time>2014-02-12T13:13:26.000Z</time>
      </trkpt>
      <trkpt lat="45.91587" lon="6.51267">
        <ele>2399.3999023438</ele>
        <time>2014-02-12T13:13:30.000Z</time>
      </trkpt>
      <trkpt lat="45.91587" lon="6.51267">
        <ele>2399.3999023438</ele>
        <time>2014-02-12T13:13:31.000Z</time>
      </trkpt>
      <trkpt lat="45.91587" lon="6.51267">
        <ele>2399.3999023438</ele>
        <time>2014-02-12T13:13:32.000Z</time>
      </trkpt>
      <trkpt lat="45.91587" lon="6.51267">
        <ele>2399.3999023438</ele>
        <time>2014-02-12T13:13:33.000Z</time>
      </trkpt>
      <trkpt lat="45.91587" lon="6.51267">
        <ele>2399.3999023438</ele>
        <time>2014-02-12T13:13:36.000Z</time>
      </trkpt>
      <trkpt lat="45.91587" lon="6.51267">
        <ele>2399.3999023438</ele>
        <time>2014-02-12T13:13:37.000Z</time>
      </trkpt>
      <trkpt lat="45.91587" lon="6.51267">
        <ele>2399.3999023438</ele>
        <time>2014-02-12T13:13:38.000Z</time>
      </trkpt>
      <trkpt lat="45.91587" lon="6.51267">
        <ele>2399.3999023438</ele>
        <time>2014-02-12T13:13:39.000Z</time>
      </trkpt>
      <trkpt lat="45.91588" lon="6.51267">
        <ele>2399.1999511719</ele>
        <time>2014-02-12T13:13:40.000Z</time>
      </trkpt>
      <trkpt lat="45.91588" lon="6.51267">
        <ele>2399.1999511719</ele>
        <time>2014-02-12T13:13:41.000Z</time>
      </trkpt>
      <trkpt lat="45.91588" lon="6.51267">
        <ele>2399.1999511719</ele>
        <time>2014-02-12T13:13:42.000Z</time>
      </trkpt>
      <trkpt lat="45.91588" lon="6.51267">
        <ele>2399.1999511719</ele>
        <time>2014-02-12T13:13:43.000Z</time>
      </trkpt>
      <trkpt lat="45.91588" lon="6.51267">
        <ele>2399.1999511719</ele>
        <time>2014-02-12T13:13:44.000Z</time>
      </trkpt>
      <trkpt lat="45.91588" lon="6.51267">
        <ele>2399.1999511719</ele>
        <time>2014-02-12T13:13:45.000Z</time>
      </trkpt>
      <trkpt lat="45.91588" lon="6.51267">
        <ele>2399.1999511719</ele>
        <time>2014-02-12T13:13:46.000Z</time>
      </trkpt>
      <trkpt lat="45.91588" lon="6.51267">
        <ele>2399.1999511719</ele>
        <time>2014-02-12T13:13:47.000Z</time>
      </trkpt>
      <trkpt lat="45.91588" lon="6.51267">
        <ele>2399.1999511719</ele>
        <time>2014-02-12T13:13:48.000Z</time>
      </trkpt>
      <trkpt lat="45.91588" lon="6.51267">
        <ele>2399.1999511719</ele>
        <time>2014-02-12T13:13:49.000Z</time>
      </trkpt>
      <trkpt lat="45.91588" lon="6.51267">
        <ele>2399.1999511719</ele>
        <time>2014-02-12T13:13:50.000Z</time>
      </trkpt>
      <trkpt lat="45.91588" lon="6.51267">
        <ele>2399.1999511719</ele>
        <time>2014-02-12T13:13:51.000Z</time>
      </trkpt>
      <trkpt lat="45.91588" lon="6.51267">
        <ele>2399.1999511719</ele>
        <time>2014-02-12T13:13:52.000Z</time>
      </trkpt>
      <trkpt lat="45.91588" lon="6.51267">
        <ele>2399.1999511719</ele>
        <time>2014-02-12T13:13:53.000Z</time>
      </trkpt>
      <trkpt lat="45.91588" lon="6.51267">
        <ele>2399.1999511719</ele>
        <time>2014-02-12T13:13:54.000Z</time>
      </trkpt>
      <trkpt lat="45.91588" lon="6.51267">
        <ele>2399.1999511719</ele>
        <time>2014-02-12T13:13:55.000Z</time>
      </trkpt>
      <trkpt lat="45.91588" lon="6.51267">
        <ele>2399.1999511719</ele>
        <time>2014-02-12T13:13:56.000Z</time>
      </trkpt>
      <trkpt lat="45.91588" lon="6.51267">
        <ele>2399.1999511719</ele>
        <time>2014-02-12T13:13:57.000Z</time>
      </trkpt>
      <trkpt lat="45.91588" lon="6.51267">
        <ele>2399.1999511719</ele>
        <time>2014-02-12T13:13:58.000Z</time>
      </trkpt>
      <trkpt lat="45.91588" lon="6.51267">
        <ele>2399.1999511719</ele>
        <time>2014-02-12T13:13:59.000Z</time>
      </trkpt>
      <trkpt lat="45.91588" lon="6.51267">
        <ele>2399.1999511719</ele>
        <time>2014-02-12T13:14:00.000Z</time>
      </trkpt>
      <trkpt lat="45.91588" lon="6.51267">
        <ele>2399.1999511719</ele>
        <time>2014-02-12T13:14:01.000Z</time>
      </trkpt>
      <trkpt lat="45.91588" lon="6.51267">
        <ele>2399.1999511719</ele>
        <time>2014-02-12T13:14:02.000Z</time>
      </trkpt>
      <trkpt lat="45.91588" lon="6.51267">
        <ele>2399.1999511719</ele>
        <time>2014-02-12T13:14:03.000Z</time>
      </trkpt>
      <trkpt lat="45.91588" lon="6.51267">
        <ele>2399.1999511719</ele>
        <time>2014-02-12T13:14:04.000Z</time>
      </trkpt>
      <trkpt lat="45.91588" lon="6.51267">
        <ele>2399.1999511719</ele>
        <time>2014-02-12T13:14:05.000Z</time>
      </trkpt>
      <trkpt lat="45.91588" lon="6.51267">
        <ele>2399.1999511719</ele>
        <time>2014-02-12T13:14:06.000Z</time>
      </trkpt>
      <trkpt lat="45.91588" lon="6.51267">
        <ele>2399.1999511719</ele>
        <time>2014-02-12T13:14:07.000Z</time>
      </trkpt>
      <trkpt lat="45.91588" lon="6.51267">
        <ele>2399.1999511719</ele>
        <time>2014-02-12T13:14:08.000Z</time>
      </trkpt>
      <trkpt lat="45.91588" lon="6.51267">
        <ele>2399.1999511719</ele>
        <time>2014-02-12T13:14:09.000Z</time>
      </trkpt>
      <trkpt lat="45.91588" lon="6.51267">
        <ele>2399.1999511719</ele>
        <time>2014-02-12T13:14:10.000Z</time>
      </trkpt>
      <trkpt lat="45.91588" lon="6.51267">
        <ele>2399.1999511719</ele>
        <time>2014-02-12T13:14:11.000Z</time>
      </trkpt>
      <trkpt lat="45.91588" lon="6.51267">
        <ele>2399.1999511719</ele>
        <time>2014-02-12T13:14:12.000Z</time>
      </trkpt>
      <trkpt lat="45.91588" lon="6.51267">
        <ele>2399.1999511719</ele>
        <time>2014-02-12T13:14:13.000Z</time>
      </trkpt>
      <trkpt lat="45.91588" lon="6.51267">
        <ele>2399.1999511719</ele>
        <time>2014-02-12T13:14:14.000Z</time>
      </trkpt>
      <trkpt lat="45.91588" lon="6.51267">
        <ele>2399.1999511719</ele>
        <time>2014-02-12T13:14:15.000Z</time>
      </trkpt>
      <trkpt lat="45.91588" lon="6.51267">
        <ele>2399.1999511719</ele>
        <time>2014-02-12T13:14:16.000Z</time>
      </trkpt>
      <trkpt lat="45.91588" lon="6.51267">
        <ele>2399.1999511719</ele>
        <time>2014-02-12T13:14:17.000Z</time>
      </trkpt>
      <trkpt lat="45.91588" lon="6.51267">
        <ele>2399.1999511719</ele>
        <time>2014-02-12T13:14:18.000Z</time>
      </trkpt>
      <trkpt lat="45.91588" lon="6.51267">
        <ele>2399.1999511719</ele>
        <time>2014-02-12T13:14:19.000Z</time>
      </trkpt>
      <trkpt lat="45.91588" lon="6.51267">
        <ele>2399.1999511719</ele>
        <time>2014-02-12T13:14:20.000Z</time>
      </trkpt>
      <trkpt lat="45.91588" lon="6.51267">
        <ele>2399.1999511719</ele>
        <time>2014-02-12T13:14:21.000Z</time>
      </trkpt>
      <trkpt lat="45.91588" lon="6.51267">
        <ele>2399.1999511719</ele>
        <time>2014-02-12T13:14:22.000Z</time>
      </trkpt>
      <trkpt lat="45.91588" lon="6.51267">
        <ele>2399.1999511719</ele>
        <time>2014-02-12T13:14:23.000Z</time>
      </trkpt>
      <trkpt lat="45.91588" lon="6.51267">
        <ele>2399.1999511719</ele>
        <time>2014-02-12T13:14:24.000Z</time>
      </trkpt>
      <trkpt lat="45.91588" lon="6.51267">
        <ele>2399.1999511719</ele>
        <time>2014-02-12T13:14:25.000Z</time>
      </trkpt>
      <trkpt lat="45.91589" lon="6.51267">
        <ele>2398.6000976562</ele>
        <time>2014-02-12T13:14:26.000Z</time>
      </trkpt>
      <trkpt lat="45.91588" lon="6.51268">
        <ele>2398.3999023438</ele>
        <time>2014-02-12T13:14:27.000Z</time>
      </trkpt>
      <trkpt lat="45.91589" lon="6.51269">
        <ele>2397.8000488281</ele>
        <time>2014-02-12T13:14:30.000Z</time>
      </trkpt>
      <trkpt lat="45.9159" lon="6.51269">
        <ele>2397.6000976562</ele>
        <time>2014-02-12T13:14:31.000Z</time>
      </trkpt>
      <trkpt lat="45.9159" lon="6.51269">
        <ele>2397.6000976562</ele>
        <time>2014-02-12T13:14:32.000Z</time>
      </trkpt>
      <trkpt lat="45.9159" lon="6.51269">
        <ele>2397.6000976562</ele>
        <time>2014-02-12T13:14:33.000Z</time>
      </trkpt>
      <trkpt lat="45.9159" lon="6.51269">
        <ele>2397.6000976562</ele>
        <time>2014-02-12T13:14:34.000Z</time>
      </trkpt>
      <trkpt lat="45.9159" lon="6.51269">
        <ele>2397.6000976562</ele>
        <time>2014-02-12T13:14:36.000Z</time>
      </trkpt>
      <trkpt lat="45.9159" lon="6.51269">
        <ele>2397.6000976562</ele>
        <time>2014-02-12T13:14:37.000Z</time>
      </trkpt>
      <trkpt lat="45.9159" lon="6.51269">
        <ele>2397.6000976562</ele>
        <time>2014-02-12T13:14:38.000Z</time>
      </trkpt>
      <trkpt lat="45.9159" lon="6.51269">
        <ele>2397.6000976562</ele>
        <time>2014-02-12T13:14:39.000Z</time>
      </trkpt>
      <trkpt lat="45.9159" lon="6.51269">
        <ele>2397.6000976562</ele>
        <time>2014-02-12T13:14:40.000Z</time>
      </trkpt>
      <trkpt lat="45.9159" lon="6.51269">
        <ele>2397.6000976562</ele>
        <time>2014-02-12T13:14:41.000Z</time>
      </trkpt>
      <trkpt lat="45.9159" lon="6.51269">
        <ele>2397.6000976562</ele>
        <time>2014-02-12T13:14:42.000Z</time>
      </trkpt>
      <trkpt lat="45.9159" lon="6.51269">
        <ele>2397.6000976562</ele>
        <time>2014-02-12T13:14:43.000Z</time>
      </trkpt>
      <trkpt lat="45.9159" lon="6.51269">
        <ele>2397.6000976562</ele>
        <time>2014-02-12T13:14:44.000Z</time>
      </trkpt>
      <trkpt lat="45.9159" lon="6.51269">
        <ele>2397.6000976562</ele>
        <time>2014-02-12T13:14:45.000Z</time>
      </trkpt>
      <trkpt lat="45.9159" lon="6.51269">
        <ele>2397.6000976562</ele>
        <time>2014-02-12T13:14:46.000Z</time>
      </trkpt>
      <trkpt lat="45.9159" lon="6.51269">
        <ele>2397.6000976562</ele>
        <time>2014-02-12T13:14:47.000Z</time>
      </trkpt>
      <trkpt lat="45.9159" lon="6.51269">
        <ele>2397.6000976562</ele>
        <time>2014-02-12T13:14:48.000Z</time>
      </trkpt>
      <trkpt lat="45.9159" lon="6.51269">
        <ele>2397.6000976562</ele>
        <time>2014-02-12T13:14:49.000Z</time>
      </trkpt>
      <trkpt lat="45.9159" lon="6.51269">
        <ele>2397.6000976562</ele>
        <time>2014-02-12T13:14:50.000Z</time>
      </trkpt>
      <trkpt lat="45.9159" lon="6.51269">
        <ele>2397.6000976562</ele>
        <time>2014-02-12T13:14:51.000Z</time>
      </trkpt>
      <trkpt lat="45.9159" lon="6.51269">
        <ele>2397.6000976562</ele>
        <time>2014-02-12T13:14:52.000Z</time>
      </trkpt>
      <trkpt lat="45.9159" lon="6.51269">
        <ele>2397.6000976562</ele>
        <time>2014-02-12T13:14:53.000Z</time>
      </trkpt>
      <trkpt lat="45.9159" lon="6.51269">
        <ele>2397.6000976562</ele>
        <time>2014-02-12T13:14:54.000Z</time>
      </trkpt>
      <trkpt lat="45.9159" lon="6.51269">
        <ele>2397.6000976562</ele>
        <time>2014-02-12T13:14:55.000Z</time>
      </trkpt>
      <trkpt lat="45.9159" lon="6.51269">
        <ele>2397.6000976562</ele>
        <time>2014-02-12T13:14:56.000Z</time>
      </trkpt>
      <trkpt lat="45.9159" lon="6.51269">
        <ele>2397.6000976562</ele>
        <time>2014-02-12T13:14:57.000Z</time>
      </trkpt>
      <trkpt lat="45.9159" lon="6.51269">
        <ele>2397.6000976562</ele>
        <time>2014-02-12T13:14:58.000Z</time>
      </trkpt>
      <trkpt lat="45.9159" lon="6.51269">
        <ele>2397.6000976562</ele>
        <time>2014-02-12T13:14:59.000Z</time>
      </trkpt>
      <trkpt lat="45.9159" lon="6.51269">
        <ele>2397.6000976562</ele>
        <time>2014-02-12T13:15:00.000Z</time>
      </trkpt>
      <trkpt lat="45.9159" lon="6.51269">
        <ele>2397.6000976562</ele>
        <time>2014-02-12T13:15:01.000Z</time>
      </trkpt>
      <trkpt lat="45.9159" lon="6.51269">
        <ele>2397.6000976562</ele>
        <time>2014-02-12T13:15:02.000Z</time>
      </trkpt>
      <trkpt lat="45.9159" lon="6.51269">
        <ele>2397.6000976562</ele>
        <time>2014-02-12T13:15:03.000Z</time>
      </trkpt>
      <trkpt lat="45.9159" lon="6.51269">
        <ele>2397.6000976562</ele>
        <time>2014-02-12T13:15:04.000Z</time>
      </trkpt>
      <trkpt lat="45.9159" lon="6.51269">
        <ele>2397.6000976562</ele>
        <time>2014-02-12T13:15:05.000Z</time>
      </trkpt>
      <trkpt lat="45.9159" lon="6.51269">
        <ele>2397.6000976562</ele>
        <time>2014-02-12T13:15:06.000Z</time>
      </trkpt>
      <trkpt lat="45.9159" lon="6.51269">
        <ele>2397.6000976562</ele>
        <time>2014-02-12T13:15:07.000Z</time>
      </trkpt>
      <trkpt lat="45.9159" lon="6.51269">
        <ele>2397.6000976562</ele>
        <time>2014-02-12T13:15:08.000Z</time>
      </trkpt>
      <trkpt lat="45.9159" lon="6.51269">
        <ele>2397.6000976562</ele>
        <time>2014-02-12T13:15:09.000Z</time>
      </trkpt>
      <trkpt lat="45.91589" lon="6.51267">
        <ele>2398.3999023438</ele>
        <time>2014-02-12T13:15:11.000Z</time>
      </trkpt>
      <trkpt lat="45.91589" lon="6.51267">
        <ele>2398.3999023438</ele>
        <time>2014-02-12T13:15:12.000Z</time>
      </trkpt>
      <trkpt lat="45.91589" lon="6.51267">
        <ele>2398.3999023438</ele>
        <time>2014-02-12T13:15:13.000Z</time>
      </trkpt>
      <trkpt lat="45.91589" lon="6.51267">
        <ele>2398.3999023438</ele>
        <time>2014-02-12T13:15:14.000Z</time>
      </trkpt>
      <trkpt lat="45.91589" lon="6.51267">
        <ele>2398.3999023438</ele>
        <time>2014-02-12T13:15:15.000Z</time>
      </trkpt>
      <trkpt lat="45.91589" lon="6.51267">
        <ele>2398.3999023438</ele>
        <time>2014-02-12T13:15:17.000Z</time>
      </trkpt>
      <trkpt lat="45.91589" lon="6.51267">
        <ele>2398.3999023438</ele>
        <time>2014-02-12T13:15:18.000Z</time>
      </trkpt>
      <trkpt lat="45.91589" lon="6.51267">
        <ele>2398.3999023438</ele>
        <time>2014-02-12T13:15:19.000Z</time>
      </trkpt>
      <trkpt lat="45.91589" lon="6.51267">
        <ele>2398.3999023438</ele>
        <time>2014-02-12T13:15:20.000Z</time>
      </trkpt>
      <trkpt lat="45.91589" lon="6.51267">
        <ele>2398.3999023438</ele>
        <time>2014-02-12T13:15:21.000Z</time>
      </trkpt>
      <trkpt lat="45.91589" lon="6.51267">
        <ele>2398.3999023438</ele>
        <time>2014-02-12T13:15:22.000Z</time>
      </trkpt>
      <trkpt lat="45.91589" lon="6.51267">
        <ele>2398.3999023438</ele>
        <time>2014-02-12T13:15:23.000Z</time>
      </trkpt>
      <trkpt lat="45.91589" lon="6.51267">
        <ele>2398.3999023438</ele>
        <time>2014-02-12T13:15:26.000Z</time>
      </trkpt>
      <trkpt lat="45.91589" lon="6.51267">
        <ele>2398.3999023438</ele>
        <time>2014-02-12T13:15:27.000Z</time>
      </trkpt>
      <trkpt lat="45.91589" lon="6.51267">
        <ele>2398.3999023438</ele>
        <time>2014-02-12T13:15:28.000Z</time>
      </trkpt>
      <trkpt lat="45.91589" lon="6.51267">
        <ele>2398.3999023438</ele>
        <time>2014-02-12T13:15:29.000Z</time>
      </trkpt>
      <trkpt lat="45.91589" lon="6.51267">
        <ele>2398.3999023438</ele>
        <time>2014-02-12T13:15:30.000Z</time>
      </trkpt>
      <trkpt lat="45.91589" lon="6.51267">
        <ele>2398.3999023438</ele>
        <time>2014-02-12T13:15:31.000Z</time>
      </trkpt>
      <trkpt lat="45.91589" lon="6.51267">
        <ele>2398.3999023438</ele>
        <time>2014-02-12T13:15:32.000Z</time>
      </trkpt>
      <trkpt lat="45.91589" lon="6.51267">
        <ele>2398.3999023438</ele>
        <time>2014-02-12T13:15:33.000Z</time>
      </trkpt>
      <trkpt lat="45.91589" lon="6.51267">
        <ele>2398.3999023438</ele>
        <time>2014-02-12T13:15:34.000Z</time>
      </trkpt>
      <trkpt lat="45.91589" lon="6.51267">
        <ele>2398.3999023438</ele>
        <time>2014-02-12T13:15:35.000Z</time>
      </trkpt>
      <trkpt lat="45.91589" lon="6.51267">
        <ele>2398.3999023438</ele>
        <time>2014-02-12T13:15:36.000Z</time>
      </trkpt>
      <trkpt lat="45.91589" lon="6.51267">
        <ele>2398.3999023438</ele>
        <time>2014-02-12T13:15:37.000Z</time>
      </trkpt>
      <trkpt lat="45.91589" lon="6.51267">
        <ele>2398.3999023438</ele>
        <time>2014-02-12T13:15:38.000Z</time>
      </trkpt>
      <trkpt lat="45.91589" lon="6.51267">
        <ele>2398.3999023438</ele>
        <time>2014-02-12T13:15:39.000Z</time>
      </trkpt>
      <trkpt lat="45.91589" lon="6.51267">
        <ele>2398.3999023438</ele>
        <time>2014-02-12T13:15:40.000Z</time>
      </trkpt>
      <trkpt lat="45.91589" lon="6.51267">
        <ele>2398.3999023438</ele>
        <time>2014-02-12T13:15:41.000Z</time>
      </trkpt>
      <trkpt lat="45.91589" lon="6.51267">
        <ele>2398.3999023438</ele>
        <time>2014-02-12T13:15:42.000Z</time>
      </trkpt>
      <trkpt lat="45.91589" lon="6.51267">
        <ele>2398.3999023438</ele>
        <time>2014-02-12T13:15:43.000Z</time>
      </trkpt>
      <trkpt lat="45.91589" lon="6.51267">
        <ele>2398.3999023438</ele>
        <time>2014-02-12T13:15:44.000Z</time>
      </trkpt>
      <trkpt lat="45.91589" lon="6.51267">
        <ele>2398.3999023438</ele>
        <time>2014-02-12T13:15:45.000Z</time>
      </trkpt>
      <trkpt lat="45.91589" lon="6.51267">
        <ele>2398.3999023438</ele>
        <time>2014-02-12T13:15:46.000Z</time>
      </trkpt>
      <trkpt lat="45.91589" lon="6.51267">
        <ele>2398.3999023438</ele>
        <time>2014-02-12T13:15:47.000Z</time>
      </trkpt>
      <trkpt lat="45.91589" lon="6.51267">
        <ele>2398.3999023438</ele>
        <time>2014-02-12T13:15:48.000Z</time>
      </trkpt>
      <trkpt lat="45.91589" lon="6.51267">
        <ele>2398.3999023438</ele>
        <time>2014-02-12T13:15:49.000Z</time>
      </trkpt>
      <trkpt lat="45.9159" lon="6.51267">
        <ele>2398.1999511719</ele>
        <time>2014-02-12T13:15:50.000Z</time>
      </trkpt>
      <trkpt lat="45.9159" lon="6.51267">
        <ele>2398.1999511719</ele>
        <time>2014-02-12T13:15:51.000Z</time>
      </trkpt>
      <trkpt lat="45.9159" lon="6.51267">
        <ele>2398.1999511719</ele>
        <time>2014-02-12T13:15:52.000Z</time>
      </trkpt>
      <trkpt lat="45.9159" lon="6.51267">
        <ele>2398.1999511719</ele>
        <time>2014-02-12T13:15:53.000Z</time>
      </trkpt>
      <trkpt lat="45.9159" lon="6.51267">
        <ele>2398.1999511719</ele>
        <time>2014-02-12T13:15:54.000Z</time>
      </trkpt>
      <trkpt lat="45.9159" lon="6.51267">
        <ele>2398.1999511719</ele>
        <time>2014-02-12T13:15:55.000Z</time>
      </trkpt>
      <trkpt lat="45.9159" lon="6.51267">
        <ele>2398.1999511719</ele>
        <time>2014-02-12T13:15:56.000Z</time>
      </trkpt>
      <trkpt lat="45.9159" lon="6.51267">
        <ele>2398.1999511719</ele>
        <time>2014-02-12T13:15:57.000Z</time>
      </trkpt>
      <trkpt lat="45.9159" lon="6.51267">
        <ele>2398.1999511719</ele>
        <time>2014-02-12T13:15:58.000Z</time>
      </trkpt>
      <trkpt lat="45.9159" lon="6.51267">
        <ele>2398.1999511719</ele>
        <time>2014-02-12T13:15:59.000Z</time>
      </trkpt>
      <trkpt lat="45.9159" lon="6.51267">
        <ele>2398.1999511719</ele>
        <time>2014-02-12T13:16:00.000Z</time>
      </trkpt>
      <trkpt lat="45.9159" lon="6.51267">
        <ele>2398.1999511719</ele>
        <time>2014-02-12T13:16:01.000Z</time>
      </trkpt>
      <trkpt lat="45.9159" lon="6.51267">
        <ele>2398.1999511719</ele>
        <time>2014-02-12T13:16:03.000Z</time>
      </trkpt>
      <trkpt lat="45.9159" lon="6.51267">
        <ele>2398.1999511719</ele>
        <time>2014-02-12T13:16:04.000Z</time>
      </trkpt>
      <trkpt lat="45.9159" lon="6.51267">
        <ele>2398.1999511719</ele>
        <time>2014-02-12T13:16:05.000Z</time>
      </trkpt>
      <trkpt lat="45.9159" lon="6.51267">
        <ele>2398.1999511719</ele>
        <time>2014-02-12T13:16:07.000Z</time>
      </trkpt>
      <trkpt lat="45.9159" lon="6.51267">
        <ele>2398.1999511719</ele>
        <time>2014-02-12T13:16:08.000Z</time>
      </trkpt>
      <trkpt lat="45.9159" lon="6.51267">
        <ele>2398.1999511719</ele>
        <time>2014-02-12T13:16:09.000Z</time>
      </trkpt>
      <trkpt lat="45.9159" lon="6.51267">
        <ele>2398.1999511719</ele>
        <time>2014-02-12T13:16:10.000Z</time>
      </trkpt>
      <trkpt lat="45.9159" lon="6.51267">
        <ele>2398.1999511719</ele>
        <time>2014-02-12T13:16:11.000Z</time>
      </trkpt>
      <trkpt lat="45.9159" lon="6.51267">
        <ele>2398.1999511719</ele>
        <time>2014-02-12T13:16:12.000Z</time>
      </trkpt>
      <trkpt lat="45.9159" lon="6.51267">
        <ele>2398.1999511719</ele>
        <time>2014-02-12T13:16:13.000Z</time>
      </trkpt>
      <trkpt lat="45.9159" lon="6.51267">
        <ele>2398.1999511719</ele>
        <time>2014-02-12T13:16:14.000Z</time>
      </trkpt>
      <trkpt lat="45.9159" lon="6.51267">
        <ele>2398.1999511719</ele>
        <time>2014-02-12T13:16:15.000Z</time>
      </trkpt>
      <trkpt lat="45.9159" lon="6.51267">
        <ele>2398.1999511719</ele>
        <time>2014-02-12T13:16:16.000Z</time>
      </trkpt>
      <trkpt lat="45.9159" lon="6.51267">
        <ele>2398.1999511719</ele>
        <time>2014-02-12T13:16:17.000Z</time>
      </trkpt>
      <trkpt lat="45.9159" lon="6.51267">
        <ele>2398.1999511719</ele>
        <time>2014-02-12T13:16:18.000Z</time>
      </trkpt>
      <trkpt lat="45.9159" lon="6.51267">
        <ele>2398.1999511719</ele>
        <time>2014-02-12T13:16:19.000Z</time>
      </trkpt>
      <trkpt lat="45.9159" lon="6.51267">
        <ele>2398.1999511719</ele>
        <time>2014-02-12T13:16:20.000Z</time>
      </trkpt>
      <trkpt lat="45.9159" lon="6.51267">
        <ele>2398.1999511719</ele>
        <time>2014-02-12T13:16:21.000Z</time>
      </trkpt>
      <trkpt lat="45.9159" lon="6.51267">
        <ele>2398.1999511719</ele>
        <time>2014-02-12T13:16:22.000Z</time>
      </trkpt>
      <trkpt lat="45.9159" lon="6.51267">
        <ele>2398.1999511719</ele>
        <time>2014-02-12T13:16:23.000Z</time>
      </trkpt>
      <trkpt lat="45.9159" lon="6.51267">
        <ele>2398.1999511719</ele>
        <time>2014-02-12T13:16:24.000Z</time>
      </trkpt>
      <trkpt lat="45.9159" lon="6.51267">
        <ele>2398.1999511719</ele>
        <time>2014-02-12T13:16:25.000Z</time>
      </trkpt>
      <trkpt lat="45.9159" lon="6.51267">
        <ele>2398.1999511719</ele>
        <time>2014-02-12T13:16:26.000Z</time>
      </trkpt>
      <trkpt lat="45.9159" lon="6.51267">
        <ele>2398.1999511719</ele>
        <time>2014-02-12T13:16:27.000Z</time>
      </trkpt>
      <trkpt lat="45.9159" lon="6.51267">
        <ele>2398.1999511719</ele>
        <time>2014-02-12T13:16:28.000Z</time>
      </trkpt>
      <trkpt lat="45.9159" lon="6.51267">
        <ele>2398.1999511719</ele>
        <time>2014-02-12T13:16:29.000Z</time>
      </trkpt>
      <trkpt lat="45.9159" lon="6.51267">
        <ele>2398.1999511719</ele>
        <time>2014-02-12T13:16:30.000Z</time>
      </trkpt>
      <trkpt lat="45.9159" lon="6.51268">
        <ele>2398</ele>
        <time>2014-02-12T13:16:31.000Z</time>
      </trkpt>
      <trkpt lat="45.9159" lon="6.51268">
        <ele>2398</ele>
        <time>2014-02-12T13:16:33.000Z</time>
      </trkpt>
      <trkpt lat="45.9159" lon="6.51268">
        <ele>2398</ele>
        <time>2014-02-12T13:16:34.000Z</time>
      </trkpt>
      <trkpt lat="45.9159" lon="6.51268">
        <ele>2398</ele>
        <time>2014-02-12T13:16:35.000Z</time>
      </trkpt>
      <trkpt lat="45.9159" lon="6.51268">
        <ele>2398</ele>
        <time>2014-02-12T13:16:36.000Z</time>
      </trkpt>
      <trkpt lat="45.9159" lon="6.51268">
        <ele>2398</ele>
        <time>2014-02-12T13:16:37.000Z</time>
      </trkpt>
      <trkpt lat="45.9159" lon="6.51268">
        <ele>2398</ele>
        <time>2014-02-12T13:16:38.000Z</time>
      </trkpt>
      <trkpt lat="45.9159" lon="6.51268">
        <ele>2398</ele>
        <time>2014-02-12T13:16:39.000Z</time>
      </trkpt>
      <trkpt lat="45.9159" lon="6.51268">
        <ele>2398</ele>
        <time>2014-02-12T13:16:40.000Z</time>
      </trkpt>
      <trkpt lat="45.9159" lon="6.51268">
        <ele>2398</ele>
        <time>2014-02-12T13:16:41.000Z</time>
      </trkpt>
      <trkpt lat="45.9159" lon="6.51268">
        <ele>2398</ele>
        <time>2014-02-12T13:16:42.000Z</time>
      </trkpt>
      <trkpt lat="45.9159" lon="6.51268">
        <ele>2398</ele>
        <time>2014-02-12T13:16:43.000Z</time>
      </trkpt>
      <trkpt lat="45.9159" lon="6.51268">
        <ele>2398</ele>
        <time>2014-02-12T13:16:44.000Z</time>
      </trkpt>
      <trkpt lat="45.9159" lon="6.51268">
        <ele>2398</ele>
        <time>2014-02-12T13:16:45.000Z</time>
      </trkpt>
      <trkpt lat="45.9159" lon="6.51268">
        <ele>2398</ele>
        <time>2014-02-12T13:16:46.000Z</time>
      </trkpt>
      <trkpt lat="45.9159" lon="6.51268">
        <ele>2398</ele>
        <time>2014-02-12T13:16:47.000Z</time>
      </trkpt>
      <trkpt lat="45.9159" lon="6.51268">
        <ele>2398</ele>
        <time>2014-02-12T13:16:48.000Z</time>
      </trkpt>
      <trkpt lat="45.9159" lon="6.51268">
        <ele>2398</ele>
        <time>2014-02-12T13:16:49.000Z</time>
      </trkpt>
      <trkpt lat="45.9159" lon="6.51268">
        <ele>2398</ele>
        <time>2014-02-12T13:16:50.000Z</time>
      </trkpt>
      <trkpt lat="45.9159" lon="6.51268">
        <ele>2398</ele>
        <time>2014-02-12T13:16:51.000Z</time>
      </trkpt>
      <trkpt lat="45.9159" lon="6.51268">
        <ele>2398</ele>
        <time>2014-02-12T13:16:52.000Z</time>
      </trkpt>
      <trkpt lat="45.9159" lon="6.51268">
        <ele>2398</ele>
        <time>2014-02-12T13:16:53.000Z</time>
      </trkpt>
      <trkpt lat="45.9159" lon="6.51268">
        <ele>2398</ele>
        <time>2014-02-12T13:16:54.000Z</time>
      </trkpt>
      <trkpt lat="45.9159" lon="6.51268">
        <ele>2398</ele>
        <time>2014-02-12T13:16:55.000Z</time>
      </trkpt>
      <trkpt lat="45.9159" lon="6.51268">
        <ele>2398</ele>
        <time>2014-02-12T13:16:56.000Z</time>
      </trkpt>
      <trkpt lat="45.9159" lon="6.51268">
        <ele>2398</ele>
        <time>2014-02-12T13:16:57.000Z</time>
      </trkpt>
      <trkpt lat="45.9159" lon="6.51268">
        <ele>2398</ele>
        <time>2014-02-12T13:16:58.000Z</time>
      </trkpt>
      <trkpt lat="45.9159" lon="6.51268">
        <ele>2398</ele>
        <time>2014-02-12T13:16:59.000Z</time>
      </trkpt>
      <trkpt lat="45.9159" lon="6.51268">
        <ele>2398</ele>
        <time>2014-02-12T13:17:00.000Z</time>
      </trkpt>
      <trkpt lat="45.9159" lon="6.51268">
        <ele>2398</ele>
        <time>2014-02-12T13:17:01.000Z</time>
      </trkpt>
      <trkpt lat="45.9159" lon="6.51268">
        <ele>2398</ele>
        <time>2014-02-12T13:17:02.000Z</time>
      </trkpt>
      <trkpt lat="45.9159" lon="6.51268">
        <ele>2398</ele>
        <time>2014-02-12T13:17:03.000Z</time>
      </trkpt>
      <trkpt lat="45.9159" lon="6.51268">
        <ele>2398</ele>
        <time>2014-02-12T13:17:04.000Z</time>
      </trkpt>
      <trkpt lat="45.9159" lon="6.51268">
        <ele>2398</ele>
        <time>2014-02-12T13:17:05.000Z</time>
      </trkpt>
      <trkpt lat="45.9159" lon="6.51268">
        <ele>2398</ele>
        <time>2014-02-12T13:17:06.000Z</time>
      </trkpt>
      <trkpt lat="45.9159" lon="6.51268">
        <ele>2398</ele>
        <time>2014-02-12T13:17:07.000Z</time>
      </trkpt>
      <trkpt lat="45.9159" lon="6.51268">
        <ele>2398</ele>
        <time>2014-02-12T13:17:08.000Z</time>
      </trkpt>
      <trkpt lat="45.9159" lon="6.51268">
        <ele>2398</ele>
        <time>2014-02-12T13:17:09.000Z</time>
      </trkpt>
      <trkpt lat="45.9159" lon="6.51268">
        <ele>2397.8000488281</ele>
        <time>2014-02-12T13:17:10.000Z</time>
      </trkpt>
      <trkpt lat="45.9159" lon="6.51268">
        <ele>2397.8000488281</ele>
        <time>2014-02-12T13:17:11.000Z</time>
      </trkpt>
      <trkpt lat="45.9159" lon="6.51268">
        <ele>2397.8000488281</ele>
        <time>2014-02-12T13:17:12.000Z</time>
      </trkpt>
      <trkpt lat="45.9159" lon="6.51268">
        <ele>2397.8000488281</ele>
        <time>2014-02-12T13:17:13.000Z</time>
      </trkpt>
      <trkpt lat="45.9159" lon="6.51268">
        <ele>2397.8000488281</ele>
        <time>2014-02-12T13:17:14.000Z</time>
      </trkpt>
      <trkpt lat="45.9159" lon="6.51268">
        <ele>2397.8000488281</ele>
        <time>2014-02-12T13:17:15.000Z</time>
      </trkpt>
      <trkpt lat="45.9159" lon="6.51268">
        <ele>2397.8000488281</ele>
        <time>2014-02-12T13:17:16.000Z</time>
      </trkpt>
      <trkpt lat="45.9159" lon="6.51268">
        <ele>2397.8000488281</ele>
        <time>2014-02-12T13:17:17.000Z</time>
      </trkpt>
      <trkpt lat="45.9159" lon="6.51268">
        <ele>2397.8000488281</ele>
        <time>2014-02-12T13:17:18.000Z</time>
      </trkpt>
      <trkpt lat="45.9159" lon="6.51268">
        <ele>2397.8000488281</ele>
        <time>2014-02-12T13:17:19.000Z</time>
      </trkpt>
      <trkpt lat="45.9159" lon="6.51268">
        <ele>2397.8000488281</ele>
        <time>2014-02-12T13:17:20.000Z</time>
      </trkpt>
      <trkpt lat="45.9159" lon="6.51268">
        <ele>2397.8000488281</ele>
        <time>2014-02-12T13:17:21.000Z</time>
      </trkpt>
      <trkpt lat="45.9159" lon="6.51268">
        <ele>2397.8000488281</ele>
        <time>2014-02-12T13:17:22.000Z</time>
      </trkpt>
      <trkpt lat="45.9159" lon="6.51268">
        <ele>2397.8000488281</ele>
        <time>2014-02-12T13:17:23.000Z</time>
      </trkpt>
      <trkpt lat="45.9159" lon="6.51268">
        <ele>2397.8000488281</ele>
        <time>2014-02-12T13:17:24.000Z</time>
      </trkpt>
      <trkpt lat="45.9159" lon="6.51268">
        <ele>2397.8000488281</ele>
        <time>2014-02-12T13:17:25.000Z</time>
      </trkpt>
      <trkpt lat="45.9159" lon="6.51268">
        <ele>2397.8000488281</ele>
        <time>2014-02-12T13:17:26.000Z</time>
      </trkpt>
      <trkpt lat="45.9159" lon="6.51268">
        <ele>2397.8000488281</ele>
        <time>2014-02-12T13:17:27.000Z</time>
      </trkpt>
      <trkpt lat="45.9159" lon="6.51268">
        <ele>2397.8000488281</ele>
        <time>2014-02-12T13:17:28.000Z</time>
      </trkpt>
      <trkpt lat="45.9159" lon="6.51268">
        <ele>2397.8000488281</ele>
        <time>2014-02-12T13:17:29.000Z</time>
      </trkpt>
      <trkpt lat="45.9159" lon="6.51268">
        <ele>2397.8000488281</ele>
        <time>2014-02-12T13:17:30.000Z</time>
      </trkpt>
      <trkpt lat="45.9159" lon="6.51268">
        <ele>2397.8000488281</ele>
        <time>2014-02-12T13:17:31.000Z</time>
      </trkpt>
      <trkpt lat="45.9159" lon="6.51268">
        <ele>2397.8000488281</ele>
        <time>2014-02-12T13:17:32.000Z</time>
      </trkpt>
      <trkpt lat="45.9159" lon="6.51268">
        <ele>2397.8000488281</ele>
        <time>2014-02-12T13:17:33.000Z</time>
      </trkpt>
      <trkpt lat="45.9159" lon="6.51268">
        <ele>2397.8000488281</ele>
        <time>2014-02-12T13:17:34.000Z</time>
      </trkpt>
      <trkpt lat="45.9159" lon="6.51268">
        <ele>2397.8000488281</ele>
        <time>2014-02-12T13:17:35.000Z</time>
      </trkpt>
      <trkpt lat="45.9159" lon="6.51268">
        <ele>2397.8000488281</ele>
        <time>2014-02-12T13:17:36.000Z</time>
      </trkpt>
      <trkpt lat="45.9159" lon="6.51268">
        <ele>2397.8000488281</ele>
        <time>2014-02-12T13:17:37.000Z</time>
      </trkpt>
      <trkpt lat="45.9159" lon="6.51268">
        <ele>2397.8000488281</ele>
        <time>2014-02-12T13:17:38.000Z</time>
      </trkpt>
      <trkpt lat="45.9159" lon="6.51268">
        <ele>2397.8000488281</ele>
        <time>2014-02-12T13:17:39.000Z</time>
      </trkpt>
      <trkpt lat="45.9159" lon="6.51268">
        <ele>2397.8000488281</ele>
        <time>2014-02-12T13:17:40.000Z</time>
      </trkpt>
      <trkpt lat="45.9159" lon="6.51268">
        <ele>2397.6000976562</ele>
        <time>2014-02-12T13:17:43.000Z</time>
      </trkpt>
      <trkpt lat="45.9159" lon="6.51268">
        <ele>2397.6000976562</ele>
        <time>2014-02-12T13:17:44.000Z</time>
      </trkpt>
      <trkpt lat="45.9159" lon="6.51268">
        <ele>2397.6000976562</ele>
        <time>2014-02-12T13:17:45.000Z</time>
      </trkpt>
      <trkpt lat="45.9159" lon="6.51269">
        <ele>2397.3999023438</ele>
        <time>2014-02-12T13:17:46.000Z</time>
      </trkpt>
      <trkpt lat="45.9159" lon="6.5127">
        <ele>2397</ele>
        <time>2014-02-12T13:17:47.000Z</time>
      </trkpt>
      <trkpt lat="45.9159" lon="6.51271">
        <ele>2396.6000976562</ele>
        <time>2014-02-12T13:17:48.000Z</time>
      </trkpt>
      <trkpt lat="45.9159" lon="6.51271">
        <ele>2396.3999023438</ele>
        <time>2014-02-12T13:17:49.000Z</time>
      </trkpt>
      <trkpt lat="45.9159" lon="6.51271">
        <ele>2396.8000488281</ele>
        <time>2014-02-12T13:17:50.000Z</time>
      </trkpt>
      <trkpt lat="45.9159" lon="6.51271">
        <ele>2396.8000488281</ele>
        <time>2014-02-12T13:17:51.000Z</time>
      </trkpt>
      <trkpt lat="45.9159" lon="6.51271">
        <ele>2396.8000488281</ele>
        <time>2014-02-12T13:17:52.000Z</time>
      </trkpt>
      <trkpt lat="45.9159" lon="6.51271">
        <ele>2396.8000488281</ele>
        <time>2014-02-12T13:17:53.000Z</time>
      </trkpt>
      <trkpt lat="45.91589" lon="6.5127">
        <ele>2397</ele>
        <time>2014-02-12T13:17:54.000Z</time>
      </trkpt>
      <trkpt lat="45.91589" lon="6.5127">
        <ele>2397</ele>
        <time>2014-02-12T13:17:55.000Z</time>
      </trkpt>
      <trkpt lat="45.91589" lon="6.5127">
        <ele>2397</ele>
        <time>2014-02-12T13:17:56.000Z</time>
      </trkpt>
      <trkpt lat="45.91589" lon="6.5127">
        <ele>2397</ele>
        <time>2014-02-12T13:17:57.000Z</time>
      </trkpt>
      <trkpt lat="45.91589" lon="6.5127">
        <ele>2397</ele>
        <time>2014-02-12T13:17:58.000Z</time>
      </trkpt>
      <trkpt lat="45.91589" lon="6.5127">
        <ele>2397</ele>
        <time>2014-02-12T13:17:59.000Z</time>
      </trkpt>
      <trkpt lat="45.91589" lon="6.5127">
        <ele>2397</ele>
        <time>2014-02-12T13:18:00.000Z</time>
      </trkpt>
      <trkpt lat="45.91589" lon="6.5127">
        <ele>2397</ele>
        <time>2014-02-12T13:18:01.000Z</time>
      </trkpt>
      <trkpt lat="45.91589" lon="6.5127">
        <ele>2397</ele>
        <time>2014-02-12T13:18:03.000Z</time>
      </trkpt>
      <trkpt lat="45.91589" lon="6.5127">
        <ele>2397</ele>
        <time>2014-02-12T13:18:05.000Z</time>
      </trkpt>
      <trkpt lat="45.91589" lon="6.5127">
        <ele>2397</ele>
        <time>2014-02-12T13:18:09.000Z</time>
      </trkpt>
      <trkpt lat="45.91589" lon="6.5127">
        <ele>2397</ele>
        <time>2014-02-12T13:18:10.000Z</time>
      </trkpt>
      <trkpt lat="45.91589" lon="6.5127">
        <ele>2397</ele>
        <time>2014-02-12T13:18:11.000Z</time>
      </trkpt>
      <trkpt lat="45.91589" lon="6.5127">
        <ele>2397</ele>
        <time>2014-02-12T13:18:12.000Z</time>
      </trkpt>
      <trkpt lat="45.91589" lon="6.5127">
        <ele>2397</ele>
        <time>2014-02-12T13:18:13.000Z</time>
      </trkpt>
      <trkpt lat="45.91589" lon="6.5127">
        <ele>2397</ele>
        <time>2014-02-12T13:18:15.000Z</time>
      </trkpt>
      <trkpt lat="45.91589" lon="6.5127">
        <ele>2397</ele>
        <time>2014-02-12T13:18:16.000Z</time>
      </trkpt>
      <trkpt lat="45.91589" lon="6.5127">
        <ele>2397</ele>
        <time>2014-02-12T13:18:17.000Z</time>
      </trkpt>
      <trkpt lat="45.91589" lon="6.5127">
        <ele>2397</ele>
        <time>2014-02-12T13:18:18.000Z</time>
      </trkpt>
      <trkpt lat="45.9159" lon="6.51271">
        <ele>2396.6000976562</ele>
        <time>2014-02-12T13:18:19.000Z</time>
      </trkpt>
      <trkpt lat="45.9159" lon="6.51271">
        <ele>2396.3999023438</ele>
        <time>2014-02-12T13:18:20.000Z</time>
      </trkpt>
      <trkpt lat="45.9159" lon="6.51271">
        <ele>2396.3999023438</ele>
        <time>2014-02-12T13:18:21.000Z</time>
      </trkpt>
      <trkpt lat="45.9159" lon="6.51271">
        <ele>2396.3999023438</ele>
        <time>2014-02-12T13:18:22.000Z</time>
      </trkpt>
      <trkpt lat="45.9159" lon="6.51271">
        <ele>2396.3999023438</ele>
        <time>2014-02-12T13:18:23.000Z</time>
      </trkpt>
      <trkpt lat="45.9159" lon="6.51271">
        <ele>2396.3999023438</ele>
        <time>2014-02-12T13:18:24.000Z</time>
      </trkpt>
      <trkpt lat="45.9159" lon="6.51271">
        <ele>2396.3999023438</ele>
        <time>2014-02-12T13:18:25.000Z</time>
      </trkpt>
      <trkpt lat="45.9159" lon="6.51271">
        <ele>2396.3999023438</ele>
        <time>2014-02-12T13:18:26.000Z</time>
      </trkpt>
      <trkpt lat="45.9159" lon="6.51271">
        <ele>2396.3999023438</ele>
        <time>2014-02-12T13:18:27.000Z</time>
      </trkpt>
      <trkpt lat="45.9159" lon="6.51271">
        <ele>2396.3999023438</ele>
        <time>2014-02-12T13:18:28.000Z</time>
      </trkpt>
      <trkpt lat="45.9159" lon="6.51271">
        <ele>2396.3999023438</ele>
        <time>2014-02-12T13:18:29.000Z</time>
      </trkpt>
      <trkpt lat="45.9159" lon="6.51271">
        <ele>2396.3999023438</ele>
        <time>2014-02-12T13:18:30.000Z</time>
      </trkpt>
      <trkpt lat="45.9159" lon="6.51271">
        <ele>2396.3999023438</ele>
        <time>2014-02-12T13:18:31.000Z</time>
      </trkpt>
      <trkpt lat="45.9159" lon="6.51271">
        <ele>2396.3999023438</ele>
        <time>2014-02-12T13:18:32.000Z</time>
      </trkpt>
      <trkpt lat="45.9159" lon="6.51271">
        <ele>2396.3999023438</ele>
        <time>2014-02-12T13:18:33.000Z</time>
      </trkpt>
      <trkpt lat="45.9159" lon="6.51271">
        <ele>2396.3999023438</ele>
        <time>2014-02-12T13:18:34.000Z</time>
      </trkpt>
      <trkpt lat="45.9159" lon="6.51271">
        <ele>2396.3999023438</ele>
        <time>2014-02-12T13:18:35.000Z</time>
      </trkpt>
      <trkpt lat="45.9159" lon="6.51271">
        <ele>2396.3999023438</ele>
        <time>2014-02-12T13:18:36.000Z</time>
      </trkpt>
      <trkpt lat="45.9159" lon="6.51271">
        <ele>2396.3999023438</ele>
        <time>2014-02-12T13:18:37.000Z</time>
      </trkpt>
      <trkpt lat="45.9159" lon="6.51271">
        <ele>2396.3999023438</ele>
        <time>2014-02-12T13:18:38.000Z</time>
      </trkpt>
      <trkpt lat="45.9159" lon="6.51271">
        <ele>2396.3999023438</ele>
        <time>2014-02-12T13:18:39.000Z</time>
      </trkpt>
      <trkpt lat="45.9159" lon="6.51271">
        <ele>2396.3999023438</ele>
        <time>2014-02-12T13:18:40.000Z</time>
      </trkpt>
      <trkpt lat="45.9159" lon="6.51271">
        <ele>2396.3999023438</ele>
        <time>2014-02-12T13:18:41.000Z</time>
      </trkpt>
      <trkpt lat="45.9159" lon="6.51271">
        <ele>2396.3999023438</ele>
        <time>2014-02-12T13:18:42.000Z</time>
      </trkpt>
      <trkpt lat="45.9159" lon="6.51271">
        <ele>2396.3999023438</ele>
        <time>2014-02-12T13:18:43.000Z</time>
      </trkpt>
      <trkpt lat="45.9159" lon="6.51271">
        <ele>2396.3999023438</ele>
        <time>2014-02-12T13:18:44.000Z</time>
      </trkpt>
      <trkpt lat="45.9159" lon="6.51271">
        <ele>2396.3999023438</ele>
        <time>2014-02-12T13:18:46.000Z</time>
      </trkpt>
      <trkpt lat="45.9159" lon="6.51271">
        <ele>2396.3999023438</ele>
        <time>2014-02-12T13:18:47.000Z</time>
      </trkpt>
      <trkpt lat="45.9159" lon="6.51271">
        <ele>2396.3999023438</ele>
        <time>2014-02-12T13:18:48.000Z</time>
      </trkpt>
      <trkpt lat="45.9159" lon="6.51271">
        <ele>2396.3999023438</ele>
        <time>2014-02-12T13:18:49.000Z</time>
      </trkpt>
      <trkpt lat="45.9159" lon="6.51271">
        <ele>2396.3999023438</ele>
        <time>2014-02-12T13:18:50.000Z</time>
      </trkpt>
      <trkpt lat="45.9159" lon="6.51271">
        <ele>2396.3999023438</ele>
        <time>2014-02-12T13:18:51.000Z</time>
      </trkpt>
      <trkpt lat="45.9159" lon="6.51271">
        <ele>2396.3999023438</ele>
        <time>2014-02-12T13:18:52.000Z</time>
      </trkpt>
      <trkpt lat="45.9159" lon="6.51271">
        <ele>2396.3999023438</ele>
        <time>2014-02-12T13:18:53.000Z</time>
      </trkpt>
      <trkpt lat="45.9159" lon="6.51271">
        <ele>2396.3999023438</ele>
        <time>2014-02-12T13:18:54.000Z</time>
      </trkpt>
      <trkpt lat="45.9159" lon="6.51271">
        <ele>2396.3999023438</ele>
        <time>2014-02-12T13:18:55.000Z</time>
      </trkpt>
      <trkpt lat="45.9159" lon="6.51271">
        <ele>2396.3999023438</ele>
        <time>2014-02-12T13:18:56.000Z</time>
      </trkpt>
      <trkpt lat="45.9159" lon="6.51271">
        <ele>2396.3999023438</ele>
        <time>2014-02-12T13:18:57.000Z</time>
      </trkpt>
      <trkpt lat="45.9159" lon="6.51271">
        <ele>2396.3999023438</ele>
        <time>2014-02-12T13:18:58.000Z</time>
      </trkpt>
      <trkpt lat="45.9159" lon="6.51271">
        <ele>2396.3999023438</ele>
        <time>2014-02-12T13:18:59.000Z</time>
      </trkpt>
      <trkpt lat="45.91589" lon="6.51271">
        <ele>2396.6000976562</ele>
        <time>2014-02-12T13:19:00.000Z</time>
      </trkpt>
      <trkpt lat="45.91589" lon="6.51271">
        <ele>2396.6000976562</ele>
        <time>2014-02-12T13:19:01.000Z</time>
      </trkpt>
      <trkpt lat="45.91589" lon="6.51271">
        <ele>2396.6000976562</ele>
        <time>2014-02-12T13:19:02.000Z</time>
      </trkpt>
      <trkpt lat="45.91589" lon="6.51271">
        <ele>2396.6000976562</ele>
        <time>2014-02-12T13:19:03.000Z</time>
      </trkpt>
      <trkpt lat="45.91589" lon="6.51271">
        <ele>2396.6000976562</ele>
        <time>2014-02-12T13:19:04.000Z</time>
      </trkpt>
      <trkpt lat="45.91589" lon="6.51271">
        <ele>2396.6000976562</ele>
        <time>2014-02-12T13:19:05.000Z</time>
      </trkpt>
      <trkpt lat="45.91589" lon="6.51271">
        <ele>2396.6000976562</ele>
        <time>2014-02-12T13:19:07.000Z</time>
      </trkpt>
      <trkpt lat="45.91589" lon="6.51271">
        <ele>2396.6000976562</ele>
        <time>2014-02-12T13:19:08.000Z</time>
      </trkpt>
      <trkpt lat="45.91589" lon="6.51271">
        <ele>2396.6000976562</ele>
        <time>2014-02-12T13:19:09.000Z</time>
      </trkpt>
      <trkpt lat="45.91589" lon="6.51271">
        <ele>2396.6000976562</ele>
        <time>2014-02-12T13:19:10.000Z</time>
      </trkpt>
      <trkpt lat="45.91589" lon="6.51271">
        <ele>2396.6000976562</ele>
        <time>2014-02-12T13:19:11.000Z</time>
      </trkpt>
      <trkpt lat="45.91589" lon="6.51271">
        <ele>2396.6000976562</ele>
        <time>2014-02-12T13:19:12.000Z</time>
      </trkpt>
      <trkpt lat="45.91589" lon="6.51271">
        <ele>2396.6000976562</ele>
        <time>2014-02-12T13:19:13.000Z</time>
      </trkpt>
      <trkpt lat="45.91589" lon="6.51271">
        <ele>2396.6000976562</ele>
        <time>2014-02-12T13:19:14.000Z</time>
      </trkpt>
      <trkpt lat="45.91589" lon="6.51271">
        <ele>2396.6000976562</ele>
        <time>2014-02-12T13:19:15.000Z</time>
      </trkpt>
      <trkpt lat="45.91589" lon="6.51271">
        <ele>2396.6000976562</ele>
        <time>2014-02-12T13:19:16.000Z</time>
      </trkpt>
      <trkpt lat="45.91589" lon="6.51271">
        <ele>2396.6000976562</ele>
        <time>2014-02-12T13:19:17.000Z</time>
      </trkpt>
      <trkpt lat="45.91589" lon="6.51271">
        <ele>2396.6000976562</ele>
        <time>2014-02-12T13:19:18.000Z</time>
      </trkpt>
      <trkpt lat="45.91589" lon="6.51271">
        <ele>2396.6000976562</ele>
        <time>2014-02-12T13:19:19.000Z</time>
      </trkpt>
      <trkpt lat="45.91589" lon="6.51271">
        <ele>2396.6000976562</ele>
        <time>2014-02-12T13:19:21.000Z</time>
      </trkpt>
      <trkpt lat="45.91589" lon="6.51271">
        <ele>2396.6000976562</ele>
        <time>2014-02-12T13:19:22.000Z</time>
      </trkpt>
      <trkpt lat="45.91589" lon="6.51271">
        <ele>2396.6000976562</ele>
        <time>2014-02-12T13:19:23.000Z</time>
      </trkpt>
      <trkpt lat="45.91589" lon="6.51271">
        <ele>2396.6000976562</ele>
        <time>2014-02-12T13:19:24.000Z</time>
      </trkpt>
      <trkpt lat="45.91589" lon="6.51271">
        <ele>2396.6000976562</ele>
        <time>2014-02-12T13:19:25.000Z</time>
      </trkpt>
      <trkpt lat="45.91589" lon="6.51271">
        <ele>2396.6000976562</ele>
        <time>2014-02-12T13:19:26.000Z</time>
      </trkpt>
      <trkpt lat="45.91589" lon="6.51271">
        <ele>2396.6000976562</ele>
        <time>2014-02-12T13:19:27.000Z</time>
      </trkpt>
      <trkpt lat="45.91589" lon="6.51271">
        <ele>2396.6000976562</ele>
        <time>2014-02-12T13:19:28.000Z</time>
      </trkpt>
      <trkpt lat="45.91589" lon="6.51271">
        <ele>2396.6000976562</ele>
        <time>2014-02-12T13:19:29.000Z</time>
      </trkpt>
      <trkpt lat="45.91589" lon="6.51271">
        <ele>2396.6000976562</ele>
        <time>2014-02-12T13:19:30.000Z</time>
      </trkpt>
      <trkpt lat="45.91589" lon="6.51271">
        <ele>2396.6000976562</ele>
        <time>2014-02-12T13:19:31.000Z</time>
      </trkpt>
      <trkpt lat="45.91589" lon="6.51271">
        <ele>2396.6000976562</ele>
        <time>2014-02-12T13:19:32.000Z</time>
      </trkpt>
      <trkpt lat="45.91589" lon="6.51271">
        <ele>2396.6000976562</ele>
        <time>2014-02-12T13:19:33.000Z</time>
      </trkpt>
      <trkpt lat="45.91589" lon="6.51271">
        <ele>2396.6000976562</ele>
        <time>2014-02-12T13:19:34.000Z</time>
      </trkpt>
      <trkpt lat="45.91589" lon="6.51271">
        <ele>2396.6000976562</ele>
        <time>2014-02-12T13:19:35.000Z</time>
      </trkpt>
      <trkpt lat="45.91589" lon="6.51271">
        <ele>2396.6000976562</ele>
        <time>2014-02-12T13:19:36.000Z</time>
      </trkpt>
      <trkpt lat="45.91589" lon="6.51271">
        <ele>2396.6000976562</ele>
        <time>2014-02-12T13:19:37.000Z</time>
      </trkpt>
      <trkpt lat="45.91589" lon="6.51271">
        <ele>2396.6000976562</ele>
        <time>2014-02-12T13:19:38.000Z</time>
      </trkpt>
      <trkpt lat="45.91589" lon="6.51271">
        <ele>2396.6000976562</ele>
        <time>2014-02-12T13:19:39.000Z</time>
      </trkpt>
      <trkpt lat="45.9159" lon="6.51271">
        <ele>2396.6000976562</ele>
        <time>2014-02-12T13:19:40.000Z</time>
      </trkpt>
      <trkpt lat="45.9159" lon="6.51271">
        <ele>2396.6000976562</ele>
        <time>2014-02-12T13:19:41.000Z</time>
      </trkpt>
      <trkpt lat="45.9159" lon="6.51271">
        <ele>2396.6000976562</ele>
        <time>2014-02-12T13:19:42.000Z</time>
      </trkpt>
      <trkpt lat="45.9159" lon="6.51271">
        <ele>2396.6000976562</ele>
        <time>2014-02-12T13:19:43.000Z</time>
      </trkpt>
      <trkpt lat="45.9159" lon="6.51271">
        <ele>2396.6000976562</ele>
        <time>2014-02-12T13:19:44.000Z</time>
      </trkpt>
      <trkpt lat="45.9159" lon="6.51271">
        <ele>2396.6000976562</ele>
        <time>2014-02-12T13:19:45.000Z</time>
      </trkpt>
      <trkpt lat="45.9159" lon="6.51271">
        <ele>2396.6000976562</ele>
        <time>2014-02-12T13:19:46.000Z</time>
      </trkpt>
      <trkpt lat="45.9159" lon="6.51271">
        <ele>2396.6000976562</ele>
        <time>2014-02-12T13:19:47.000Z</time>
      </trkpt>
      <trkpt lat="45.9159" lon="6.51271">
        <ele>2396.6000976562</ele>
        <time>2014-02-12T13:19:48.000Z</time>
      </trkpt>
      <trkpt lat="45.9159" lon="6.51271">
        <ele>2396.6000976562</ele>
        <time>2014-02-12T13:19:49.000Z</time>
      </trkpt>
      <trkpt lat="45.9159" lon="6.51271">
        <ele>2396.6000976562</ele>
        <time>2014-02-12T13:19:50.000Z</time>
      </trkpt>
      <trkpt lat="45.9159" lon="6.51271">
        <ele>2396.6000976562</ele>
        <time>2014-02-12T13:19:51.000Z</time>
      </trkpt>
      <trkpt lat="45.9159" lon="6.51271">
        <ele>2396.6000976562</ele>
        <time>2014-02-12T13:19:52.000Z</time>
      </trkpt>
      <trkpt lat="45.9159" lon="6.51271">
        <ele>2396.6000976562</ele>
        <time>2014-02-12T13:19:53.000Z</time>
      </trkpt>
      <trkpt lat="45.9159" lon="6.51271">
        <ele>2396.6000976562</ele>
        <time>2014-02-12T13:19:54.000Z</time>
      </trkpt>
      <trkpt lat="45.9159" lon="6.51271">
        <ele>2396.6000976562</ele>
        <time>2014-02-12T13:19:56.000Z</time>
      </trkpt>
      <trkpt lat="45.9159" lon="6.51271">
        <ele>2396.6000976562</ele>
        <time>2014-02-12T13:19:57.000Z</time>
      </trkpt>
      <trkpt lat="45.9159" lon="6.51271">
        <ele>2396.6000976562</ele>
        <time>2014-02-12T13:19:58.000Z</time>
      </trkpt>
      <trkpt lat="45.9159" lon="6.51271">
        <ele>2396.6000976562</ele>
        <time>2014-02-12T13:19:59.000Z</time>
      </trkpt>
      <trkpt lat="45.9159" lon="6.51271">
        <ele>2396.6000976562</ele>
        <time>2014-02-12T13:20:02.000Z</time>
      </trkpt>
      <trkpt lat="45.9159" lon="6.51271">
        <ele>2396.6000976562</ele>
        <time>2014-02-12T13:20:08.000Z</time>
      </trkpt>
      <trkpt lat="45.9159" lon="6.51271">
        <ele>2396.6000976562</ele>
        <time>2014-02-12T13:20:09.000Z</time>
      </trkpt>
      <trkpt lat="45.9159" lon="6.51271">
        <ele>2396.6000976562</ele>
        <time>2014-02-12T13:20:10.000Z</time>
      </trkpt>
      <trkpt lat="45.9159" lon="6.51271">
        <ele>2396.6000976562</ele>
        <time>2014-02-12T13:20:11.000Z</time>
      </trkpt>
      <trkpt lat="45.9159" lon="6.51271">
        <ele>2396.6000976562</ele>
        <time>2014-02-12T13:20:12.000Z</time>
      </trkpt>
      <trkpt lat="45.9159" lon="6.51271">
        <ele>2396.6000976562</ele>
        <time>2014-02-12T13:20:13.000Z</time>
      </trkpt>
      <trkpt lat="45.9159" lon="6.51271">
        <ele>2396.6000976562</ele>
        <time>2014-02-12T13:20:14.000Z</time>
      </trkpt>
      <trkpt lat="45.9159" lon="6.51271">
        <ele>2396.6000976562</ele>
        <time>2014-02-12T13:20:15.000Z</time>
      </trkpt>
      <trkpt lat="45.9159" lon="6.51271">
        <ele>2396.6000976562</ele>
        <time>2014-02-12T13:20:16.000Z</time>
      </trkpt>
      <trkpt lat="45.9159" lon="6.51271">
        <ele>2396.6000976562</ele>
        <time>2014-02-12T13:20:17.000Z</time>
      </trkpt>
      <trkpt lat="45.9159" lon="6.51271">
        <ele>2396.6000976562</ele>
        <time>2014-02-12T13:20:18.000Z</time>
      </trkpt>
      <trkpt lat="45.91589" lon="6.51271">
        <ele>2396.8000488281</ele>
        <time>2014-02-12T13:20:20.000Z</time>
      </trkpt>
      <trkpt lat="45.91589" lon="6.51271">
        <ele>2396.8000488281</ele>
        <time>2014-02-12T13:20:22.000Z</time>
      </trkpt>
      <trkpt lat="45.91589" lon="6.51271">
        <ele>2396.8000488281</ele>
        <time>2014-02-12T13:20:23.000Z</time>
      </trkpt>
      <trkpt lat="45.91589" lon="6.51271">
        <ele>2396.8000488281</ele>
        <time>2014-02-12T13:20:24.000Z</time>
      </trkpt>
      <trkpt lat="45.91589" lon="6.51271">
        <ele>2396.8000488281</ele>
        <time>2014-02-12T13:20:25.000Z</time>
      </trkpt>
      <trkpt lat="45.91589" lon="6.51271">
        <ele>2396.8000488281</ele>
        <time>2014-02-12T13:20:26.000Z</time>
      </trkpt>
      <trkpt lat="45.91589" lon="6.51271">
        <ele>2396.8000488281</ele>
        <time>2014-02-12T13:20:27.000Z</time>
      </trkpt>
      <trkpt lat="45.91589" lon="6.51271">
        <ele>2396.8000488281</ele>
        <time>2014-02-12T13:20:28.000Z</time>
      </trkpt>
      <trkpt lat="45.91589" lon="6.51271">
        <ele>2396.8000488281</ele>
        <time>2014-02-12T13:20:29.000Z</time>
      </trkpt>
      <trkpt lat="45.91589" lon="6.51271">
        <ele>2396.8000488281</ele>
        <time>2014-02-12T13:20:30.000Z</time>
      </trkpt>
      <trkpt lat="45.91589" lon="6.51271">
        <ele>2396.8000488281</ele>
        <time>2014-02-12T13:20:33.000Z</time>
      </trkpt>
      <trkpt lat="45.91589" lon="6.51271">
        <ele>2396.8000488281</ele>
        <time>2014-02-12T13:20:34.000Z</time>
      </trkpt>
      <trkpt lat="45.91589" lon="6.51271">
        <ele>2396.8000488281</ele>
        <time>2014-02-12T13:20:35.000Z</time>
      </trkpt>
      <trkpt lat="45.91589" lon="6.51271">
        <ele>2396.8000488281</ele>
        <time>2014-02-12T13:20:36.000Z</time>
      </trkpt>
      <trkpt lat="45.91589" lon="6.51271">
        <ele>2396.8000488281</ele>
        <time>2014-02-12T13:20:40.000Z</time>
      </trkpt>
      <trkpt lat="45.91589" lon="6.51271">
        <ele>2396.8000488281</ele>
        <time>2014-02-12T13:20:41.000Z</time>
      </trkpt>
      <trkpt lat="45.91589" lon="6.51271">
        <ele>2396.8000488281</ele>
        <time>2014-02-12T13:20:42.000Z</time>
      </trkpt>
      <trkpt lat="45.91589" lon="6.51271">
        <ele>2396.8000488281</ele>
        <time>2014-02-12T13:20:43.000Z</time>
      </trkpt>
      <trkpt lat="45.91589" lon="6.51271">
        <ele>2396.8000488281</ele>
        <time>2014-02-12T13:20:44.000Z</time>
      </trkpt>
      <trkpt lat="45.91589" lon="6.51271">
        <ele>2396.8000488281</ele>
        <time>2014-02-12T13:20:45.000Z</time>
      </trkpt>
      <trkpt lat="45.91589" lon="6.51271">
        <ele>2396.8000488281</ele>
        <time>2014-02-12T13:20:46.000Z</time>
      </trkpt>
      <trkpt lat="45.91589" lon="6.51271">
        <ele>2396.8000488281</ele>
        <time>2014-02-12T13:20:47.000Z</time>
      </trkpt>
      <trkpt lat="45.91589" lon="6.51271">
        <ele>2396.8000488281</ele>
        <time>2014-02-12T13:20:48.000Z</time>
      </trkpt>
      <trkpt lat="45.91589" lon="6.51272">
        <ele>2396.6000976562</ele>
        <time>2014-02-12T13:20:49.000Z</time>
      </trkpt>
      <trkpt lat="45.91589" lon="6.51272">
        <ele>2396.6000976562</ele>
        <time>2014-02-12T13:20:50.000Z</time>
      </trkpt>
      <trkpt lat="45.91589" lon="6.51272">
        <ele>2396.6000976562</ele>
        <time>2014-02-12T13:20:51.000Z</time>
      </trkpt>
      <trkpt lat="45.91589" lon="6.51272">
        <ele>2396.6000976562</ele>
        <time>2014-02-12T13:20:52.000Z</time>
      </trkpt>
      <trkpt lat="45.91589" lon="6.51272">
        <ele>2396.6000976562</ele>
        <time>2014-02-12T13:20:53.000Z</time>
      </trkpt>
      <trkpt lat="45.91589" lon="6.51272">
        <ele>2396.6000976562</ele>
        <time>2014-02-12T13:20:54.000Z</time>
      </trkpt>
      <trkpt lat="45.91589" lon="6.51272">
        <ele>2396.6000976562</ele>
        <time>2014-02-12T13:20:55.000Z</time>
      </trkpt>
      <trkpt lat="45.91589" lon="6.51272">
        <ele>2396.6000976562</ele>
        <time>2014-02-12T13:20:56.000Z</time>
      </trkpt>
      <trkpt lat="45.91589" lon="6.51272">
        <ele>2396.6000976562</ele>
        <time>2014-02-12T13:20:57.000Z</time>
      </trkpt>
      <trkpt lat="45.91589" lon="6.51272">
        <ele>2396.6000976562</ele>
        <time>2014-02-12T13:20:58.000Z</time>
      </trkpt>
      <trkpt lat="45.91589" lon="6.51272">
        <ele>2396.6000976562</ele>
        <time>2014-02-12T13:20:59.000Z</time>
      </trkpt>
      <trkpt lat="45.91589" lon="6.51272">
        <ele>2396.6000976562</ele>
        <time>2014-02-12T13:21:00.000Z</time>
      </trkpt>
      <trkpt lat="45.91589" lon="6.51272">
        <ele>2396.6000976562</ele>
        <time>2014-02-12T13:21:01.000Z</time>
      </trkpt>
      <trkpt lat="45.91589" lon="6.51272">
        <ele>2396.6000976562</ele>
        <time>2014-02-12T13:21:02.000Z</time>
      </trkpt>
      <trkpt lat="45.91589" lon="6.51272">
        <ele>2396.6000976562</ele>
        <time>2014-02-12T13:21:03.000Z</time>
      </trkpt>
      <trkpt lat="45.91589" lon="6.51272">
        <ele>2396.6000976562</ele>
        <time>2014-02-12T13:21:05.000Z</time>
      </trkpt>
      <trkpt lat="45.91589" lon="6.51272">
        <ele>2396.6000976562</ele>
        <time>2014-02-12T13:21:06.000Z</time>
      </trkpt>
      <trkpt lat="45.91589" lon="6.51272">
        <ele>2396.6000976562</ele>
        <time>2014-02-12T13:21:07.000Z</time>
      </trkpt>
      <trkpt lat="45.91589" lon="6.51272">
        <ele>2396.6000976562</ele>
        <time>2014-02-12T13:21:08.000Z</time>
      </trkpt>
      <trkpt lat="45.91589" lon="6.51272">
        <ele>2396.6000976562</ele>
        <time>2014-02-12T13:21:09.000Z</time>
      </trkpt>
      <trkpt lat="45.91589" lon="6.51272">
        <ele>2396.6000976562</ele>
        <time>2014-02-12T13:21:10.000Z</time>
      </trkpt>
      <trkpt lat="45.91589" lon="6.51272">
        <ele>2396.6000976562</ele>
        <time>2014-02-12T13:21:11.000Z</time>
      </trkpt>
      <trkpt lat="45.91589" lon="6.51272">
        <ele>2396.6000976562</ele>
        <time>2014-02-12T13:21:13.000Z</time>
      </trkpt>
      <trkpt lat="45.91589" lon="6.51272">
        <ele>2396.6000976562</ele>
        <time>2014-02-12T13:21:15.000Z</time>
      </trkpt>
      <trkpt lat="45.91589" lon="6.51272">
        <ele>2396.6000976562</ele>
        <time>2014-02-12T13:21:16.000Z</time>
      </trkpt>
      <trkpt lat="45.91589" lon="6.51272">
        <ele>2396.6000976562</ele>
        <time>2014-02-12T13:21:17.000Z</time>
      </trkpt>
      <trkpt lat="45.91589" lon="6.51272">
        <ele>2396.6000976562</ele>
        <time>2014-02-12T13:21:18.000Z</time>
      </trkpt>
      <trkpt lat="45.91589" lon="6.51272">
        <ele>2396.6000976562</ele>
        <time>2014-02-12T13:21:19.000Z</time>
      </trkpt>
      <trkpt lat="45.91589" lon="6.51272">
        <ele>2396.6000976562</ele>
        <time>2014-02-12T13:21:21.000Z</time>
      </trkpt>
      <trkpt lat="45.91589" lon="6.51272">
        <ele>2396.6000976562</ele>
        <time>2014-02-12T13:21:23.000Z</time>
      </trkpt>
      <trkpt lat="45.91589" lon="6.51272">
        <ele>2396.6000976562</ele>
        <time>2014-02-12T13:21:24.000Z</time>
      </trkpt>
      <trkpt lat="45.91589" lon="6.51272">
        <ele>2396.6000976562</ele>
        <time>2014-02-12T13:21:25.000Z</time>
      </trkpt>
      <trkpt lat="45.91589" lon="6.51272">
        <ele>2396.6000976562</ele>
        <time>2014-02-12T13:21:26.000Z</time>
      </trkpt>
      <trkpt lat="45.91589" lon="6.51272">
        <ele>2396.6000976562</ele>
        <time>2014-02-12T13:21:27.000Z</time>
      </trkpt>
      <trkpt lat="45.91589" lon="6.51272">
        <ele>2396.6000976562</ele>
        <time>2014-02-12T13:21:28.000Z</time>
      </trkpt>
      <trkpt lat="45.91589" lon="6.51272">
        <ele>2396.6000976562</ele>
        <time>2014-02-12T13:21:29.000Z</time>
      </trkpt>
      <trkpt lat="45.91589" lon="6.51272">
        <ele>2396.6000976562</ele>
        <time>2014-02-12T13:21:30.000Z</time>
      </trkpt>
      <trkpt lat="45.91589" lon="6.51272">
        <ele>2396.6000976562</ele>
        <time>2014-02-12T13:21:31.000Z</time>
      </trkpt>
      <trkpt lat="45.91589" lon="6.51272">
        <ele>2396.6000976562</ele>
        <time>2014-02-12T13:21:32.000Z</time>
      </trkpt>
      <trkpt lat="45.91589" lon="6.51272">
        <ele>2396.6000976562</ele>
        <time>2014-02-12T13:21:33.000Z</time>
      </trkpt>
      <trkpt lat="45.91589" lon="6.51272">
        <ele>2396.6000976562</ele>
        <time>2014-02-12T13:21:34.000Z</time>
      </trkpt>
      <trkpt lat="45.91589" lon="6.51272">
        <ele>2396.6000976562</ele>
        <time>2014-02-12T13:21:35.000Z</time>
      </trkpt>
      <trkpt lat="45.91589" lon="6.51272">
        <ele>2396.6000976562</ele>
        <time>2014-02-12T13:21:36.000Z</time>
      </trkpt>
      <trkpt lat="45.91589" lon="6.51272">
        <ele>2396.6000976562</ele>
        <time>2014-02-12T13:21:38.000Z</time>
      </trkpt>
      <trkpt lat="45.91589" lon="6.51272">
        <ele>2396.6000976562</ele>
        <time>2014-02-12T13:21:39.000Z</time>
      </trkpt>
      <trkpt lat="45.91589" lon="6.51272">
        <ele>2396.6000976562</ele>
        <time>2014-02-12T13:21:40.000Z</time>
      </trkpt>
      <trkpt lat="45.91589" lon="6.51272">
        <ele>2396.6000976562</ele>
        <time>2014-02-12T13:21:41.000Z</time>
      </trkpt>
      <trkpt lat="45.91589" lon="6.51272">
        <ele>2396.6000976562</ele>
        <time>2014-02-12T13:21:42.000Z</time>
      </trkpt>
      <trkpt lat="45.91589" lon="6.51272">
        <ele>2396.6000976562</ele>
        <time>2014-02-12T13:21:43.000Z</time>
      </trkpt>
      <trkpt lat="45.91589" lon="6.51272">
        <ele>2396.6000976562</ele>
        <time>2014-02-12T13:21:44.000Z</time>
      </trkpt>
      <trkpt lat="45.91589" lon="6.51272">
        <ele>2396.6000976562</ele>
        <time>2014-02-12T13:21:45.000Z</time>
      </trkpt>
      <trkpt lat="45.91589" lon="6.51272">
        <ele>2396.6000976562</ele>
        <time>2014-02-12T13:21:46.000Z</time>
      </trkpt>
      <trkpt lat="45.91589" lon="6.51272">
        <ele>2396.6000976562</ele>
        <time>2014-02-12T13:21:47.000Z</time>
      </trkpt>
      <trkpt lat="45.91589" lon="6.51272">
        <ele>2396.6000976562</ele>
        <time>2014-02-12T13:21:48.000Z</time>
      </trkpt>
      <trkpt lat="45.91589" lon="6.51272">
        <ele>2396.6000976562</ele>
        <time>2014-02-12T13:21:49.000Z</time>
      </trkpt>
      <trkpt lat="45.91589" lon="6.51272">
        <ele>2396.6000976562</ele>
        <time>2014-02-12T13:21:50.000Z</time>
      </trkpt>
      <trkpt lat="45.91589" lon="6.51272">
        <ele>2396.6000976562</ele>
        <time>2014-02-12T13:21:51.000Z</time>
      </trkpt>
      <trkpt lat="45.91589" lon="6.51272">
        <ele>2396.6000976562</ele>
        <time>2014-02-12T13:21:52.000Z</time>
      </trkpt>
      <trkpt lat="45.91589" lon="6.51272">
        <ele>2396.6000976562</ele>
        <time>2014-02-12T13:21:53.000Z</time>
      </trkpt>
      <trkpt lat="45.91589" lon="6.51272">
        <ele>2396.6000976562</ele>
        <time>2014-02-12T13:21:54.000Z</time>
      </trkpt>
      <trkpt lat="45.91589" lon="6.51272">
        <ele>2396.6000976562</ele>
        <time>2014-02-12T13:21:55.000Z</time>
      </trkpt>
      <trkpt lat="45.91589" lon="6.51272">
        <ele>2396.6000976562</ele>
        <time>2014-02-12T13:21:56.000Z</time>
      </trkpt>
      <trkpt lat="45.91589" lon="6.51272">
        <ele>2396.6000976562</ele>
        <time>2014-02-12T13:21:57.000Z</time>
      </trkpt>
      <trkpt lat="45.91589" lon="6.51272">
        <ele>2396.6000976562</ele>
        <time>2014-02-12T13:21:58.000Z</time>
      </trkpt>
      <trkpt lat="45.91589" lon="6.51272">
        <ele>2396.6000976562</ele>
        <time>2014-02-12T13:21:59.000Z</time>
      </trkpt>
      <trkpt lat="45.91589" lon="6.51272">
        <ele>2396.6000976562</ele>
        <time>2014-02-12T13:22:00.000Z</time>
      </trkpt>
      <trkpt lat="45.91589" lon="6.51272">
        <ele>2396.6000976562</ele>
        <time>2014-02-12T13:22:01.000Z</time>
      </trkpt>
      <trkpt lat="45.91589" lon="6.51272">
        <ele>2396.6000976562</ele>
        <time>2014-02-12T13:22:02.000Z</time>
      </trkpt>
      <trkpt lat="45.91589" lon="6.51272">
        <ele>2396.6000976562</ele>
        <time>2014-02-12T13:22:03.000Z</time>
      </trkpt>
      <trkpt lat="45.91589" lon="6.51272">
        <ele>2396.6000976562</ele>
        <time>2014-02-12T13:22:04.000Z</time>
      </trkpt>
      <trkpt lat="45.91589" lon="6.51272">
        <ele>2396.6000976562</ele>
        <time>2014-02-12T13:22:05.000Z</time>
      </trkpt>
      <trkpt lat="45.91589" lon="6.51272">
        <ele>2396.6000976562</ele>
        <time>2014-02-12T13:22:06.000Z</time>
      </trkpt>
      <trkpt lat="45.91589" lon="6.51272">
        <ele>2396.6000976562</ele>
        <time>2014-02-12T13:22:07.000Z</time>
      </trkpt>
      <trkpt lat="45.91589" lon="6.51272">
        <ele>2396.6000976562</ele>
        <time>2014-02-12T13:22:08.000Z</time>
      </trkpt>
      <trkpt lat="45.91589" lon="6.51272">
        <ele>2396.6000976562</ele>
        <time>2014-02-12T13:22:09.000Z</time>
      </trkpt>
      <trkpt lat="45.91589" lon="6.51272">
        <ele>2396.6000976562</ele>
        <time>2014-02-12T13:22:10.000Z</time>
      </trkpt>
      <trkpt lat="45.91589" lon="6.51272">
        <ele>2396.6000976562</ele>
        <time>2014-02-12T13:22:11.000Z</time>
      </trkpt>
      <trkpt lat="45.91589" lon="6.51272">
        <ele>2396.6000976562</ele>
        <time>2014-02-12T13:22:12.000Z</time>
      </trkpt>
      <trkpt lat="45.91589" lon="6.51272">
        <ele>2396.6000976562</ele>
        <time>2014-02-12T13:22:13.000Z</time>
      </trkpt>
      <trkpt lat="45.91589" lon="6.51272">
        <ele>2396.6000976562</ele>
        <time>2014-02-12T13:22:14.000Z</time>
      </trkpt>
      <trkpt lat="45.91589" lon="6.51272">
        <ele>2396.6000976562</ele>
        <time>2014-02-12T13:22:15.000Z</time>
      </trkpt>
      <trkpt lat="45.91589" lon="6.51272">
        <ele>2396.6000976562</ele>
        <time>2014-02-12T13:22:16.000Z</time>
      </trkpt>
      <trkpt lat="45.91589" lon="6.51272">
        <ele>2396.6000976562</ele>
        <time>2014-02-12T13:22:17.000Z</time>
      </trkpt>
      <trkpt lat="45.91589" lon="6.51272">
        <ele>2396.6000976562</ele>
        <time>2014-02-12T13:22:18.000Z</time>
      </trkpt>
      <trkpt lat="45.91589" lon="6.51272">
        <ele>2396.6000976562</ele>
        <time>2014-02-12T13:22:19.000Z</time>
      </trkpt>
      <trkpt lat="45.91589" lon="6.51272">
        <ele>2396.6000976562</ele>
        <time>2014-02-12T13:22:20.000Z</time>
      </trkpt>
      <trkpt lat="45.91589" lon="6.51272">
        <ele>2396.6000976562</ele>
        <time>2014-02-12T13:22:21.000Z</time>
      </trkpt>
      <trkpt lat="45.91589" lon="6.51272">
        <ele>2396.6000976562</ele>
        <time>2014-02-12T13:22:22.000Z</time>
      </trkpt>
      <trkpt lat="45.91589" lon="6.51272">
        <ele>2396.6000976562</ele>
        <time>2014-02-12T13:22:25.000Z</time>
      </trkpt>
      <trkpt lat="45.91589" lon="6.51272">
        <ele>2396.6000976562</ele>
        <time>2014-02-12T13:22:26.000Z</time>
      </trkpt>
      <trkpt lat="45.91589" lon="6.51272">
        <ele>2396.6000976562</ele>
        <time>2014-02-12T13:22:27.000Z</time>
      </trkpt>
      <trkpt lat="45.91589" lon="6.51272">
        <ele>2396.6000976562</ele>
        <time>2014-02-12T13:22:28.000Z</time>
      </trkpt>
      <trkpt lat="45.91589" lon="6.51272">
        <ele>2396.6000976562</ele>
        <time>2014-02-12T13:22:29.000Z</time>
      </trkpt>
      <trkpt lat="45.91589" lon="6.51272">
        <ele>2396.6000976562</ele>
        <time>2014-02-12T13:22:30.000Z</time>
      </trkpt>
      <trkpt lat="45.91589" lon="6.51272">
        <ele>2396.6000976562</ele>
        <time>2014-02-12T13:22:31.000Z</time>
      </trkpt>
      <trkpt lat="45.91589" lon="6.51272">
        <ele>2396.6000976562</ele>
        <time>2014-02-12T13:22:32.000Z</time>
      </trkpt>
      <trkpt lat="45.91589" lon="6.51272">
        <ele>2396.6000976562</ele>
        <time>2014-02-12T13:22:33.000Z</time>
      </trkpt>
      <trkpt lat="45.91589" lon="6.51272">
        <ele>2396.6000976562</ele>
        <time>2014-02-12T13:22:34.000Z</time>
      </trkpt>
      <trkpt lat="45.91589" lon="6.51272">
        <ele>2396.6000976562</ele>
        <time>2014-02-12T13:22:35.000Z</time>
      </trkpt>
      <trkpt lat="45.91589" lon="6.51272">
        <ele>2396.6000976562</ele>
        <time>2014-02-12T13:22:36.000Z</time>
      </trkpt>
      <trkpt lat="45.91589" lon="6.51272">
        <ele>2396.6000976562</ele>
        <time>2014-02-12T13:22:37.000Z</time>
      </trkpt>
      <trkpt lat="45.91589" lon="6.51272">
        <ele>2396.6000976562</ele>
        <time>2014-02-12T13:22:38.000Z</time>
      </trkpt>
      <trkpt lat="45.91589" lon="6.51272">
        <ele>2396.6000976562</ele>
        <time>2014-02-12T13:22:39.000Z</time>
      </trkpt>
      <trkpt lat="45.91589" lon="6.51272">
        <ele>2396.6000976562</ele>
        <time>2014-02-12T13:22:40.000Z</time>
      </trkpt>
      <trkpt lat="45.91589" lon="6.51272">
        <ele>2396.6000976562</ele>
        <time>2014-02-12T13:22:41.000Z</time>
      </trkpt>
      <trkpt lat="45.91589" lon="6.51272">
        <ele>2396.6000976562</ele>
        <time>2014-02-12T13:22:42.000Z</time>
      </trkpt>
      <trkpt lat="45.91589" lon="6.51272">
        <ele>2396.6000976562</ele>
        <time>2014-02-12T13:22:43.000Z</time>
      </trkpt>
      <trkpt lat="45.91589" lon="6.51272">
        <ele>2396.6000976562</ele>
        <time>2014-02-12T13:22:44.000Z</time>
      </trkpt>
      <trkpt lat="45.91589" lon="6.51272">
        <ele>2396.6000976562</ele>
        <time>2014-02-12T13:22:46.000Z</time>
      </trkpt>
      <trkpt lat="45.91589" lon="6.51272">
        <ele>2396.6000976562</ele>
        <time>2014-02-12T13:22:47.000Z</time>
      </trkpt>
      <trkpt lat="45.91589" lon="6.51272">
        <ele>2396.6000976562</ele>
        <time>2014-02-12T13:22:48.000Z</time>
      </trkpt>
      <trkpt lat="45.91589" lon="6.51272">
        <ele>2396.6000976562</ele>
        <time>2014-02-12T13:22:49.000Z</time>
      </trkpt>
      <trkpt lat="45.91589" lon="6.51272">
        <ele>2396.6000976562</ele>
        <time>2014-02-12T13:22:50.000Z</time>
      </trkpt>
      <trkpt lat="45.91589" lon="6.51272">
        <ele>2396.6000976562</ele>
        <time>2014-02-12T13:22:51.000Z</time>
      </trkpt>
      <trkpt lat="45.91589" lon="6.51272">
        <ele>2396.6000976562</ele>
        <time>2014-02-12T13:22:52.000Z</time>
      </trkpt>
      <trkpt lat="45.91589" lon="6.51272">
        <ele>2396.6000976562</ele>
        <time>2014-02-12T13:22:53.000Z</time>
      </trkpt>
      <trkpt lat="45.91589" lon="6.51272">
        <ele>2396.6000976562</ele>
        <time>2014-02-12T13:22:54.000Z</time>
      </trkpt>
      <trkpt lat="45.91589" lon="6.51272">
        <ele>2396.6000976562</ele>
        <time>2014-02-12T13:22:55.000Z</time>
      </trkpt>
      <trkpt lat="45.91589" lon="6.51272">
        <ele>2396.6000976562</ele>
        <time>2014-02-12T13:22:58.000Z</time>
      </trkpt>
      <trkpt lat="45.91589" lon="6.51272">
        <ele>2396.6000976562</ele>
        <time>2014-02-12T13:22:59.000Z</time>
      </trkpt>
      <trkpt lat="45.91589" lon="6.51272">
        <ele>2396.6000976562</ele>
        <time>2014-02-12T13:23:00.000Z</time>
      </trkpt>
      <trkpt lat="45.91589" lon="6.51272">
        <ele>2396.6000976562</ele>
        <time>2014-02-12T13:23:01.000Z</time>
      </trkpt>
      <trkpt lat="45.91589" lon="6.51272">
        <ele>2396.6000976562</ele>
        <time>2014-02-12T13:23:02.000Z</time>
      </trkpt>
      <trkpt lat="45.91589" lon="6.51272">
        <ele>2396.6000976562</ele>
        <time>2014-02-12T13:23:03.000Z</time>
      </trkpt>
      <trkpt lat="45.91589" lon="6.51272">
        <ele>2396.6000976562</ele>
        <time>2014-02-12T13:23:04.000Z</time>
      </trkpt>
      <trkpt lat="45.91589" lon="6.51272">
        <ele>2396.6000976562</ele>
        <time>2014-02-12T13:23:05.000Z</time>
      </trkpt>
      <trkpt lat="45.91589" lon="6.51272">
        <ele>2396.6000976562</ele>
        <time>2014-02-12T13:23:08.000Z</time>
      </trkpt>
      <trkpt lat="45.91589" lon="6.51272">
        <ele>2396.6000976562</ele>
        <time>2014-02-12T13:23:09.000Z</time>
      </trkpt>
      <trkpt lat="45.91589" lon="6.51272">
        <ele>2396.6000976562</ele>
        <time>2014-02-12T13:23:10.000Z</time>
      </trkpt>
      <trkpt lat="45.91589" lon="6.51272">
        <ele>2396.6000976562</ele>
        <time>2014-02-12T13:23:11.000Z</time>
      </trkpt>
      <trkpt lat="45.91589" lon="6.51272">
        <ele>2396.6000976562</ele>
        <time>2014-02-12T13:23:12.000Z</time>
      </trkpt>
      <trkpt lat="45.91589" lon="6.51272">
        <ele>2396.6000976562</ele>
        <time>2014-02-12T13:23:13.000Z</time>
      </trkpt>
      <trkpt lat="45.91589" lon="6.51272">
        <ele>2396.6000976562</ele>
        <time>2014-02-12T13:23:14.000Z</time>
      </trkpt>
      <trkpt lat="45.91589" lon="6.51272">
        <ele>2396.3999023438</ele>
        <time>2014-02-12T13:23:15.000Z</time>
      </trkpt>
      <trkpt lat="45.91589" lon="6.51273">
        <ele>2396</ele>
        <time>2014-02-12T13:23:16.000Z</time>
      </trkpt>
      <trkpt lat="45.9159" lon="6.51273">
        <ele>2395.8000488281</ele>
        <time>2014-02-12T13:23:17.000Z</time>
      </trkpt>
      <trkpt lat="45.9159" lon="6.51274">
        <ele>2395.3999023438</ele>
        <time>2014-02-12T13:23:18.000Z</time>
      </trkpt>
      <trkpt lat="45.91591" lon="6.51274">
        <ele>2394.8000488281</ele>
        <time>2014-02-12T13:23:19.000Z</time>
      </trkpt>
      <trkpt lat="45.91591" lon="6.51274">
        <ele>2394.1999511719</ele>
        <time>2014-02-12T13:23:20.000Z</time>
      </trkpt>
      <trkpt lat="45.91591" lon="6.51274">
        <ele>2394.1999511719</ele>
        <time>2014-02-12T13:23:21.000Z</time>
      </trkpt>
      <trkpt lat="45.91591" lon="6.51274">
        <ele>2394.1999511719</ele>
        <time>2014-02-12T13:23:22.000Z</time>
      </trkpt>
      <trkpt lat="45.91592" lon="6.51275">
        <ele>2393.3999023438</ele>
        <time>2014-02-12T13:23:23.000Z</time>
      </trkpt>
      <trkpt lat="45.91593" lon="6.51277">
        <ele>2392.6000976562</ele>
        <time>2014-02-12T13:23:24.000Z</time>
      </trkpt>
      <trkpt lat="45.91593" lon="6.51277">
        <ele>2392.6000976562</ele>
        <time>2014-02-12T13:23:25.000Z</time>
      </trkpt>
      <trkpt lat="45.91594" lon="6.5128">
        <ele>2390.6000976562</ele>
        <time>2014-02-12T13:23:26.000Z</time>
      </trkpt>
      <trkpt lat="45.91595" lon="6.51281">
        <ele>2389.3999023438</ele>
        <time>2014-02-12T13:23:27.000Z</time>
      </trkpt>
      <trkpt lat="45.91595" lon="6.51282">
        <ele>2389</ele>
        <time>2014-02-12T13:23:28.000Z</time>
      </trkpt>
      <trkpt lat="45.91596" lon="6.51281">
        <ele>2388.8000488281</ele>
        <time>2014-02-12T13:23:29.000Z</time>
      </trkpt>
      <trkpt lat="45.91596" lon="6.51281">
        <ele>2388.8000488281</ele>
        <time>2014-02-12T13:23:30.000Z</time>
      </trkpt>
      <trkpt lat="45.91596" lon="6.51282">
        <ele>2388.6000976562</ele>
        <time>2014-02-12T13:23:31.000Z</time>
      </trkpt>
      <trkpt lat="45.91597" lon="6.51282">
        <ele>2388</ele>
        <time>2014-02-12T13:23:32.000Z</time>
      </trkpt>
      <trkpt lat="45.91598" lon="6.51281">
        <ele>2387.6000976562</ele>
        <time>2014-02-12T13:23:33.000Z</time>
      </trkpt>
      <trkpt lat="45.91599" lon="6.5128">
        <ele>2387.6000976562</ele>
        <time>2014-02-12T13:23:34.000Z</time>
      </trkpt>
      <trkpt lat="45.916" lon="6.5128">
        <ele>2387.6000976562</ele>
        <time>2014-02-12T13:23:35.000Z</time>
      </trkpt>
      <trkpt lat="45.916" lon="6.5128">
        <ele>2387.3999023438</ele>
        <time>2014-02-12T13:23:36.000Z</time>
      </trkpt>
      <trkpt lat="45.916" lon="6.5128">
        <ele>2387.3999023438</ele>
        <time>2014-02-12T13:23:37.000Z</time>
      </trkpt>
      <trkpt lat="45.916" lon="6.5128">
        <ele>2387.3999023438</ele>
        <time>2014-02-12T13:23:38.000Z</time>
      </trkpt>
      <trkpt lat="45.916" lon="6.5128">
        <ele>2387.3999023438</ele>
        <time>2014-02-12T13:23:39.000Z</time>
      </trkpt>
      <trkpt lat="45.916" lon="6.5128">
        <ele>2387.3999023438</ele>
        <time>2014-02-12T13:23:40.000Z</time>
      </trkpt>
      <trkpt lat="45.916" lon="6.5128">
        <ele>2387.3999023438</ele>
        <time>2014-02-12T13:23:41.000Z</time>
      </trkpt>
      <trkpt lat="45.916" lon="6.5128">
        <ele>2387.3999023438</ele>
        <time>2014-02-12T13:23:42.000Z</time>
      </trkpt>
      <trkpt lat="45.916" lon="6.5128">
        <ele>2387.3999023438</ele>
        <time>2014-02-12T13:23:43.000Z</time>
      </trkpt>
      <trkpt lat="45.916" lon="6.51279">
        <ele>2387.6000976562</ele>
        <time>2014-02-12T13:23:44.000Z</time>
      </trkpt>
      <trkpt lat="45.91601" lon="6.51278">
        <ele>2387.8000488281</ele>
        <time>2014-02-12T13:23:45.000Z</time>
      </trkpt>
      <trkpt lat="45.91601" lon="6.51277">
        <ele>2388.3999023438</ele>
        <time>2014-02-12T13:23:46.000Z</time>
      </trkpt>
      <trkpt lat="45.91602" lon="6.51276">
        <ele>2388.8000488281</ele>
        <time>2014-02-12T13:23:47.000Z</time>
      </trkpt>
      <trkpt lat="45.91602" lon="6.51275">
        <ele>2389</ele>
        <time>2014-02-12T13:23:48.000Z</time>
      </trkpt>
      <trkpt lat="45.91603" lon="6.51275">
        <ele>2389.1999511719</ele>
        <time>2014-02-12T13:23:49.000Z</time>
      </trkpt>
      <trkpt lat="45.91603" lon="6.51275">
        <ele>2389.1999511719</ele>
        <time>2014-02-12T13:23:50.000Z</time>
      </trkpt>
      <trkpt lat="45.91603" lon="6.51275">
        <ele>2389.1999511719</ele>
        <time>2014-02-12T13:23:51.000Z</time>
      </trkpt>
      <trkpt lat="45.91603" lon="6.51275">
        <ele>2389.1999511719</ele>
        <time>2014-02-12T13:23:52.000Z</time>
      </trkpt>
      <trkpt lat="45.91603" lon="6.51275">
        <ele>2389.1999511719</ele>
        <time>2014-02-12T13:23:53.000Z</time>
      </trkpt>
      <trkpt lat="45.91603" lon="6.51275">
        <ele>2389.1999511719</ele>
        <time>2014-02-12T13:23:54.000Z</time>
      </trkpt>
      <trkpt lat="45.91603" lon="6.51275">
        <ele>2389.1999511719</ele>
        <time>2014-02-12T13:23:55.000Z</time>
      </trkpt>
      <trkpt lat="45.91603" lon="6.51275">
        <ele>2389.1999511719</ele>
        <time>2014-02-12T13:23:56.000Z</time>
      </trkpt>
      <trkpt lat="45.91603" lon="6.51275">
        <ele>2389.1999511719</ele>
        <time>2014-02-12T13:23:57.000Z</time>
      </trkpt>
      <trkpt lat="45.91603" lon="6.51275">
        <ele>2389.1999511719</ele>
        <time>2014-02-12T13:23:58.000Z</time>
      </trkpt>
      <trkpt lat="45.91603" lon="6.51275">
        <ele>2389.1999511719</ele>
        <time>2014-02-12T13:23:59.000Z</time>
      </trkpt>
      <trkpt lat="45.91603" lon="6.51275">
        <ele>2389.1999511719</ele>
        <time>2014-02-12T13:24:00.000Z</time>
      </trkpt>
      <trkpt lat="45.91604" lon="6.51274">
        <ele>2389.3999023438</ele>
        <time>2014-02-12T13:24:01.000Z</time>
      </trkpt>
      <trkpt lat="45.91605" lon="6.51273">
        <ele>2389.6000976562</ele>
        <time>2014-02-12T13:24:02.000Z</time>
      </trkpt>
      <trkpt lat="45.91606" lon="6.51272">
        <ele>2389.6000976562</ele>
        <time>2014-02-12T13:24:03.000Z</time>
      </trkpt>
      <trkpt lat="45.91607" lon="6.51272">
        <ele>2389.6000976562</ele>
        <time>2014-02-12T13:24:04.000Z</time>
      </trkpt>
      <trkpt lat="45.91608" lon="6.51271">
        <ele>2390</ele>
        <time>2014-02-12T13:24:05.000Z</time>
      </trkpt>
      <trkpt lat="45.91609" lon="6.5127">
        <ele>2390</ele>
        <time>2014-02-12T13:24:06.000Z</time>
      </trkpt>
      <trkpt lat="45.9161" lon="6.51269">
        <ele>2390.1999511719</ele>
        <time>2014-02-12T13:24:07.000Z</time>
      </trkpt>
      <trkpt lat="45.91611" lon="6.51269">
        <ele>2390.1999511719</ele>
        <time>2014-02-12T13:24:08.000Z</time>
      </trkpt>
      <trkpt lat="45.91611" lon="6.51268">
        <ele>2390.6000976562</ele>
        <time>2014-02-12T13:24:09.000Z</time>
      </trkpt>
      <trkpt lat="45.91611" lon="6.51268">
        <ele>2390.6000976562</ele>
        <time>2014-02-12T13:24:10.000Z</time>
      </trkpt>
      <trkpt lat="45.91612" lon="6.51267">
        <ele>2390.8000488281</ele>
        <time>2014-02-12T13:24:11.000Z</time>
      </trkpt>
      <trkpt lat="45.91612" lon="6.51268">
        <ele>2390.6000976562</ele>
        <time>2014-02-12T13:24:12.000Z</time>
      </trkpt>
      <trkpt lat="45.91612" lon="6.51268">
        <ele>2390.1999511719</ele>
        <time>2014-02-12T13:24:13.000Z</time>
      </trkpt>
      <trkpt lat="45.91613" lon="6.51268">
        <ele>2390</ele>
        <time>2014-02-12T13:24:14.000Z</time>
      </trkpt>
      <trkpt lat="45.91614" lon="6.51268">
        <ele>2389.8000488281</ele>
        <time>2014-02-12T13:24:15.000Z</time>
      </trkpt>
      <trkpt lat="45.91614" lon="6.51269">
        <ele>2389.1999511719</ele>
        <time>2014-02-12T13:24:16.000Z</time>
      </trkpt>
      <trkpt lat="45.91614" lon="6.51269">
        <ele>2389.1999511719</ele>
        <time>2014-02-12T13:24:17.000Z</time>
      </trkpt>
      <trkpt lat="45.91613" lon="6.51269">
        <ele>2389.1999511719</ele>
        <time>2014-02-12T13:24:18.000Z</time>
      </trkpt>
      <trkpt lat="45.91613" lon="6.51269">
        <ele>2389.1999511719</ele>
        <time>2014-02-12T13:24:19.000Z</time>
      </trkpt>
      <trkpt lat="45.91613" lon="6.51269">
        <ele>2389.1999511719</ele>
        <time>2014-02-12T13:24:20.000Z</time>
      </trkpt>
      <trkpt lat="45.91613" lon="6.51269">
        <ele>2389.1999511719</ele>
        <time>2014-02-12T13:24:21.000Z</time>
      </trkpt>
      <trkpt lat="45.91613" lon="6.51269">
        <ele>2389.1999511719</ele>
        <time>2014-02-12T13:24:22.000Z</time>
      </trkpt>
      <trkpt lat="45.91613" lon="6.51269">
        <ele>2389.1999511719</ele>
        <time>2014-02-12T13:24:23.000Z</time>
      </trkpt>
      <trkpt lat="45.91613" lon="6.51269">
        <ele>2389.1999511719</ele>
        <time>2014-02-12T13:24:24.000Z</time>
      </trkpt>
      <trkpt lat="45.91613" lon="6.51269">
        <ele>2389.1999511719</ele>
        <time>2014-02-12T13:24:25.000Z</time>
      </trkpt>
      <trkpt lat="45.91614" lon="6.51268">
        <ele>2389.6000976562</ele>
        <time>2014-02-12T13:24:26.000Z</time>
      </trkpt>
      <trkpt lat="45.91615" lon="6.51267">
        <ele>2390</ele>
        <time>2014-02-12T13:24:27.000Z</time>
      </trkpt>
      <trkpt lat="45.91616" lon="6.51267">
        <ele>2389.6000976562</ele>
        <time>2014-02-12T13:24:28.000Z</time>
      </trkpt>
      <trkpt lat="45.91617" lon="6.51269">
        <ele>2388.3999023438</ele>
        <time>2014-02-12T13:24:29.000Z</time>
      </trkpt>
      <trkpt lat="45.91617" lon="6.51269">
        <ele>2387.8000488281</ele>
        <time>2014-02-12T13:24:30.000Z</time>
      </trkpt>
      <trkpt lat="45.91617" lon="6.51269">
        <ele>2388</ele>
        <time>2014-02-12T13:24:31.000Z</time>
      </trkpt>
      <trkpt lat="45.91617" lon="6.51269">
        <ele>2388</ele>
        <time>2014-02-12T13:24:32.000Z</time>
      </trkpt>
      <trkpt lat="45.91617" lon="6.51269">
        <ele>2387.8000488281</ele>
        <time>2014-02-12T13:24:33.000Z</time>
      </trkpt>
      <trkpt lat="45.91618" lon="6.51269">
        <ele>2387.8000488281</ele>
        <time>2014-02-12T13:24:34.000Z</time>
      </trkpt>
      <trkpt lat="45.9162" lon="6.51267">
        <ele>2388.1999511719</ele>
        <time>2014-02-12T13:24:35.000Z</time>
      </trkpt>
      <trkpt lat="45.91622" lon="6.51265">
        <ele>2388.8000488281</ele>
        <time>2014-02-12T13:24:36.000Z</time>
      </trkpt>
      <trkpt lat="45.91623" lon="6.51264">
        <ele>2389.3999023438</ele>
        <time>2014-02-12T13:24:37.000Z</time>
      </trkpt>
      <trkpt lat="45.91623" lon="6.51263">
        <ele>2390</ele>
        <time>2014-02-12T13:24:38.000Z</time>
      </trkpt>
      <trkpt lat="45.91624" lon="6.51262">
        <ele>2390.3999023438</ele>
        <time>2014-02-12T13:24:39.000Z</time>
      </trkpt>
      <trkpt lat="45.91625" lon="6.51261">
        <ele>2390.8000488281</ele>
        <time>2014-02-12T13:24:40.000Z</time>
      </trkpt>
      <trkpt lat="45.91625" lon="6.5126">
        <ele>2391</ele>
        <time>2014-02-12T13:24:41.000Z</time>
      </trkpt>
      <trkpt lat="45.91626" lon="6.51259">
        <ele>2391.3999023438</ele>
        <time>2014-02-12T13:24:42.000Z</time>
      </trkpt>
      <trkpt lat="45.91626" lon="6.51258">
        <ele>2392</ele>
        <time>2014-02-12T13:24:43.000Z</time>
      </trkpt>
      <trkpt lat="45.91625" lon="6.51258">
        <ele>2392.3999023438</ele>
        <time>2014-02-12T13:24:44.000Z</time>
      </trkpt>
      <trkpt lat="45.91626" lon="6.51257">
        <ele>2393</ele>
        <time>2014-02-12T13:24:45.000Z</time>
      </trkpt>
      <trkpt lat="45.91626" lon="6.51256">
        <ele>2393.6000976562</ele>
        <time>2014-02-12T13:24:46.000Z</time>
      </trkpt>
      <trkpt lat="45.91626" lon="6.51254">
        <ele>2394.3999023438</ele>
        <time>2014-02-12T13:24:47.000Z</time>
      </trkpt>
      <trkpt lat="45.91626" lon="6.51255">
        <ele>2394</ele>
        <time>2014-02-12T13:24:48.000Z</time>
      </trkpt>
      <trkpt lat="45.91627" lon="6.51255">
        <ele>2393.6000976562</ele>
        <time>2014-02-12T13:24:49.000Z</time>
      </trkpt>
      <trkpt lat="45.91627" lon="6.51255">
        <ele>2393.6000976562</ele>
        <time>2014-02-12T13:24:50.000Z</time>
      </trkpt>
      <trkpt lat="45.91626" lon="6.51256">
        <ele>2393.1999511719</ele>
        <time>2014-02-12T13:24:51.000Z</time>
      </trkpt>
      <trkpt lat="45.91626" lon="6.51256">
        <ele>2393.1999511719</ele>
        <time>2014-02-12T13:24:52.000Z</time>
      </trkpt>
      <trkpt lat="45.91626" lon="6.51256">
        <ele>2393.1999511719</ele>
        <time>2014-02-12T13:24:53.000Z</time>
      </trkpt>
      <trkpt lat="45.91626" lon="6.51256">
        <ele>2393.3999023438</ele>
        <time>2014-02-12T13:24:54.000Z</time>
      </trkpt>
      <trkpt lat="45.91628" lon="6.51254">
        <ele>2394.3999023438</ele>
        <time>2014-02-12T13:24:55.000Z</time>
      </trkpt>
      <trkpt lat="45.91629" lon="6.51251">
        <ele>2395.8000488281</ele>
        <time>2014-02-12T13:24:56.000Z</time>
      </trkpt>
      <trkpt lat="45.9163" lon="6.51247">
        <ele>2397.3999023438</ele>
        <time>2014-02-12T13:24:57.000Z</time>
      </trkpt>
      <trkpt lat="45.91632" lon="6.51245">
        <ele>2398.3999023438</ele>
        <time>2014-02-12T13:24:58.000Z</time>
      </trkpt>
      <trkpt lat="45.91633" lon="6.51243">
        <ele>2399.6000976562</ele>
        <time>2014-02-12T13:24:59.000Z</time>
      </trkpt>
      <trkpt lat="45.91634" lon="6.5124">
        <ele>2401</ele>
        <time>2014-02-12T13:25:00.000Z</time>
      </trkpt>
      <trkpt lat="45.91635" lon="6.51237">
        <ele>2402.8000488281</ele>
        <time>2014-02-12T13:25:01.000Z</time>
      </trkpt>
      <trkpt lat="45.91636" lon="6.51233">
        <ele>2404.3999023438</ele>
        <time>2014-02-12T13:25:02.000Z</time>
      </trkpt>
      <trkpt lat="45.91636" lon="6.51231">
        <ele>2403</ele>
        <time>2014-02-12T13:25:03.000Z</time>
      </trkpt>
      <trkpt lat="45.91637" lon="6.5123">
        <ele>2403</ele>
        <time>2014-02-12T13:25:04.000Z</time>
      </trkpt>
      <trkpt lat="45.91639" lon="6.51233">
        <ele>2403</ele>
        <time>2014-02-12T13:25:05.000Z</time>
      </trkpt>
      <trkpt lat="45.91642" lon="6.51237">
        <ele>2400.1999511719</ele>
        <time>2014-02-12T13:25:06.000Z</time>
      </trkpt>
      <trkpt lat="45.91645" lon="6.51239">
        <ele>2397</ele>
        <time>2014-02-12T13:25:07.000Z</time>
      </trkpt>
      <trkpt lat="45.91648" lon="6.51241">
        <ele>2394</ele>
        <time>2014-02-12T13:25:08.000Z</time>
      </trkpt>
      <trkpt lat="45.91651" lon="6.51242">
        <ele>2391.6000976562</ele>
        <time>2014-02-12T13:25:09.000Z</time>
      </trkpt>
      <trkpt lat="45.91652" lon="6.51243">
        <ele>2390</ele>
        <time>2014-02-12T13:25:10.000Z</time>
      </trkpt>
      <trkpt lat="45.91653" lon="6.51244">
        <ele>2389.1999511719</ele>
        <time>2014-02-12T13:25:11.000Z</time>
      </trkpt>
      <trkpt lat="45.91653" lon="6.51246">
        <ele>2387.8000488281</ele>
        <time>2014-02-12T13:25:12.000Z</time>
      </trkpt>
      <trkpt lat="45.91653" lon="6.51248">
        <ele>2387</ele>
        <time>2014-02-12T13:25:13.000Z</time>
      </trkpt>
      <trkpt lat="45.91653" lon="6.51248">
        <ele>2387</ele>
        <time>2014-02-12T13:25:14.000Z</time>
      </trkpt>
      <trkpt lat="45.91653" lon="6.51248">
        <ele>2387</ele>
        <time>2014-02-12T13:25:15.000Z</time>
      </trkpt>
      <trkpt lat="45.91653" lon="6.51248">
        <ele>2387</ele>
        <time>2014-02-12T13:25:16.000Z</time>
      </trkpt>
      <trkpt lat="45.91653" lon="6.51248">
        <ele>2387</ele>
        <time>2014-02-12T13:25:17.000Z</time>
      </trkpt>
      <trkpt lat="45.91653" lon="6.51248">
        <ele>2387</ele>
        <time>2014-02-12T13:25:18.000Z</time>
      </trkpt>
      <trkpt lat="45.91653" lon="6.51248">
        <ele>2387</ele>
        <time>2014-02-12T13:25:19.000Z</time>
      </trkpt>
      <trkpt lat="45.91653" lon="6.51248">
        <ele>2387</ele>
        <time>2014-02-12T13:25:20.000Z</time>
      </trkpt>
      <trkpt lat="45.91653" lon="6.51248">
        <ele>2387</ele>
        <time>2014-02-12T13:25:21.000Z</time>
      </trkpt>
      <trkpt lat="45.91653" lon="6.51248">
        <ele>2387</ele>
        <time>2014-02-12T13:25:22.000Z</time>
      </trkpt>
      <trkpt lat="45.91653" lon="6.51248">
        <ele>2387</ele>
        <time>2014-02-12T13:25:23.000Z</time>
      </trkpt>
      <trkpt lat="45.91653" lon="6.51248">
        <ele>2387</ele>
        <time>2014-02-12T13:25:24.000Z</time>
      </trkpt>
      <trkpt lat="45.91653" lon="6.51248">
        <ele>2387</ele>
        <time>2014-02-12T13:25:25.000Z</time>
      </trkpt>
      <trkpt lat="45.91653" lon="6.51248">
        <ele>2387</ele>
        <time>2014-02-12T13:25:26.000Z</time>
      </trkpt>
      <trkpt lat="45.91653" lon="6.51248">
        <ele>2387</ele>
        <time>2014-02-12T13:25:27.000Z</time>
      </trkpt>
      <trkpt lat="45.91653" lon="6.51248">
        <ele>2387</ele>
        <time>2014-02-12T13:25:28.000Z</time>
      </trkpt>
      <trkpt lat="45.91653" lon="6.51248">
        <ele>2387</ele>
        <time>2014-02-12T13:25:30.000Z</time>
      </trkpt>
      <trkpt lat="45.91653" lon="6.51248">
        <ele>2387</ele>
        <time>2014-02-12T13:25:31.000Z</time>
      </trkpt>
      <trkpt lat="45.91653" lon="6.51248">
        <ele>2387</ele>
        <time>2014-02-12T13:25:32.000Z</time>
      </trkpt>
      <trkpt lat="45.91653" lon="6.51248">
        <ele>2387</ele>
        <time>2014-02-12T13:25:33.000Z</time>
      </trkpt>
      <trkpt lat="45.91653" lon="6.51248">
        <ele>2387</ele>
        <time>2014-02-12T13:25:34.000Z</time>
      </trkpt>
      <trkpt lat="45.91653" lon="6.51248">
        <ele>2387</ele>
        <time>2014-02-12T13:25:35.000Z</time>
      </trkpt>
      <trkpt lat="45.91653" lon="6.51248">
        <ele>2387</ele>
        <time>2014-02-12T13:25:36.000Z</time>
      </trkpt>
      <trkpt lat="45.91653" lon="6.51248">
        <ele>2387</ele>
        <time>2014-02-12T13:25:39.000Z</time>
      </trkpt>
      <trkpt lat="45.91653" lon="6.51248">
        <ele>2387</ele>
        <time>2014-02-12T13:25:40.000Z</time>
      </trkpt>
      <trkpt lat="45.91653" lon="6.51248">
        <ele>2387</ele>
        <time>2014-02-12T13:25:41.000Z</time>
      </trkpt>
      <trkpt lat="45.91653" lon="6.51248">
        <ele>2387</ele>
        <time>2014-02-12T13:25:42.000Z</time>
      </trkpt>
      <trkpt lat="45.91653" lon="6.51248">
        <ele>2387</ele>
        <time>2014-02-12T13:25:43.000Z</time>
      </trkpt>
      <trkpt lat="45.91653" lon="6.51248">
        <ele>2387</ele>
        <time>2014-02-12T13:25:44.000Z</time>
      </trkpt>
      <trkpt lat="45.91653" lon="6.51248">
        <ele>2387</ele>
        <time>2014-02-12T13:25:45.000Z</time>
      </trkpt>
      <trkpt lat="45.91653" lon="6.51248">
        <ele>2387</ele>
        <time>2014-02-12T13:25:46.000Z</time>
      </trkpt>
      <trkpt lat="45.91653" lon="6.51248">
        <ele>2387</ele>
        <time>2014-02-12T13:25:48.000Z</time>
      </trkpt>
      <trkpt lat="45.91653" lon="6.51248">
        <ele>2387</ele>
        <time>2014-02-12T13:25:49.000Z</time>
      </trkpt>
      <trkpt lat="45.91653" lon="6.51248">
        <ele>2387</ele>
        <time>2014-02-12T13:25:50.000Z</time>
      </trkpt>
      <trkpt lat="45.91653" lon="6.51248">
        <ele>2387</ele>
        <time>2014-02-12T13:25:51.000Z</time>
      </trkpt>
      <trkpt lat="45.91653" lon="6.51248">
        <ele>2387.1999511719</ele>
        <time>2014-02-12T13:25:54.000Z</time>
      </trkpt>
      <trkpt lat="45.91653" lon="6.51248">
        <ele>2387.1999511719</ele>
        <time>2014-02-12T13:25:55.000Z</time>
      </trkpt>
      <trkpt lat="45.91653" lon="6.51248">
        <ele>2387.1999511719</ele>
        <time>2014-02-12T13:25:56.000Z</time>
      </trkpt>
      <trkpt lat="45.91653" lon="6.51248">
        <ele>2387.1999511719</ele>
        <time>2014-02-12T13:25:57.000Z</time>
      </trkpt>
      <trkpt lat="45.91653" lon="6.51248">
        <ele>2387.1999511719</ele>
        <time>2014-02-12T13:25:58.000Z</time>
      </trkpt>
      <trkpt lat="45.91653" lon="6.51248">
        <ele>2387.1999511719</ele>
        <time>2014-02-12T13:25:59.000Z</time>
      </trkpt>
      <trkpt lat="45.91653" lon="6.51248">
        <ele>2387.1999511719</ele>
        <time>2014-02-12T13:26:00.000Z</time>
      </trkpt>
      <trkpt lat="45.91653" lon="6.51248">
        <ele>2387.1999511719</ele>
        <time>2014-02-12T13:26:01.000Z</time>
      </trkpt>
      <trkpt lat="45.91653" lon="6.51248">
        <ele>2387.1999511719</ele>
        <time>2014-02-12T13:26:03.000Z</time>
      </trkpt>
      <trkpt lat="45.91653" lon="6.51248">
        <ele>2387.1999511719</ele>
        <time>2014-02-12T13:26:04.000Z</time>
      </trkpt>
      <trkpt lat="45.91653" lon="6.51248">
        <ele>2387.1999511719</ele>
        <time>2014-02-12T13:26:05.000Z</time>
      </trkpt>
      <trkpt lat="45.91653" lon="6.51248">
        <ele>2387.1999511719</ele>
        <time>2014-02-12T13:26:07.000Z</time>
      </trkpt>
      <trkpt lat="45.91653" lon="6.51248">
        <ele>2387.1999511719</ele>
        <time>2014-02-12T13:26:08.000Z</time>
      </trkpt>
      <trkpt lat="45.91653" lon="6.51248">
        <ele>2387.1999511719</ele>
        <time>2014-02-12T13:26:09.000Z</time>
      </trkpt>
      <trkpt lat="45.91653" lon="6.51248">
        <ele>2387.1999511719</ele>
        <time>2014-02-12T13:26:10.000Z</time>
      </trkpt>
      <trkpt lat="45.91653" lon="6.51248">
        <ele>2387.1999511719</ele>
        <time>2014-02-12T13:26:11.000Z</time>
      </trkpt>
      <trkpt lat="45.91653" lon="6.51248">
        <ele>2387.1999511719</ele>
        <time>2014-02-12T13:26:12.000Z</time>
      </trkpt>
      <trkpt lat="45.91653" lon="6.51248">
        <ele>2387.1999511719</ele>
        <time>2014-02-12T13:26:13.000Z</time>
      </trkpt>
      <trkpt lat="45.91653" lon="6.51248">
        <ele>2387.1999511719</ele>
        <time>2014-02-12T13:26:14.000Z</time>
      </trkpt>
      <trkpt lat="45.91653" lon="6.51248">
        <ele>2387.1999511719</ele>
        <time>2014-02-12T13:26:15.000Z</time>
      </trkpt>
      <trkpt lat="45.91653" lon="6.51248">
        <ele>2387.1999511719</ele>
        <time>2014-02-12T13:26:16.000Z</time>
      </trkpt>
      <trkpt lat="45.91653" lon="6.51248">
        <ele>2387.1999511719</ele>
        <time>2014-02-12T13:26:17.000Z</time>
      </trkpt>
      <trkpt lat="45.91653" lon="6.51248">
        <ele>2387.1999511719</ele>
        <time>2014-02-12T13:26:18.000Z</time>
      </trkpt>
      <trkpt lat="45.91653" lon="6.51248">
        <ele>2387.1999511719</ele>
        <time>2014-02-12T13:26:19.000Z</time>
      </trkpt>
      <trkpt lat="45.91653" lon="6.51248">
        <ele>2387.1999511719</ele>
        <time>2014-02-12T13:26:20.000Z</time>
      </trkpt>
      <trkpt lat="45.91653" lon="6.51248">
        <ele>2387.1999511719</ele>
        <time>2014-02-12T13:26:21.000Z</time>
      </trkpt>
      <trkpt lat="45.91653" lon="6.51248">
        <ele>2387.1999511719</ele>
        <time>2014-02-12T13:26:22.000Z</time>
      </trkpt>
      <trkpt lat="45.91653" lon="6.51248">
        <ele>2387.1999511719</ele>
        <time>2014-02-12T13:26:23.000Z</time>
      </trkpt>
      <trkpt lat="45.91653" lon="6.51248">
        <ele>2387.1999511719</ele>
        <time>2014-02-12T13:26:24.000Z</time>
      </trkpt>
      <trkpt lat="45.91653" lon="6.51248">
        <ele>2387.1999511719</ele>
        <time>2014-02-12T13:26:25.000Z</time>
      </trkpt>
      <trkpt lat="45.91653" lon="6.51248">
        <ele>2387.1999511719</ele>
        <time>2014-02-12T13:26:26.000Z</time>
      </trkpt>
      <trkpt lat="45.91653" lon="6.51248">
        <ele>2387.1999511719</ele>
        <time>2014-02-12T13:26:28.000Z</time>
      </trkpt>
      <trkpt lat="45.91653" lon="6.51248">
        <ele>2387.1999511719</ele>
        <time>2014-02-12T13:26:30.000Z</time>
      </trkpt>
      <trkpt lat="45.91653" lon="6.51248">
        <ele>2387.1999511719</ele>
        <time>2014-02-12T13:26:31.000Z</time>
      </trkpt>
      <trkpt lat="45.91653" lon="6.51248">
        <ele>2387.1999511719</ele>
        <time>2014-02-12T13:26:32.000Z</time>
      </trkpt>
      <trkpt lat="45.91652" lon="6.51245">
        <ele>2389.1999511719</ele>
        <time>2014-02-12T13:26:33.000Z</time>
      </trkpt>
      <trkpt lat="45.91652" lon="6.51245">
        <ele>2389.1999511719</ele>
        <time>2014-02-12T13:26:34.000Z</time>
      </trkpt>
      <trkpt lat="45.91652" lon="6.51245">
        <ele>2389.1999511719</ele>
        <time>2014-02-12T13:26:35.000Z</time>
      </trkpt>
      <trkpt lat="45.91652" lon="6.51245">
        <ele>2389.1999511719</ele>
        <time>2014-02-12T13:26:38.000Z</time>
      </trkpt>
      <trkpt lat="45.91652" lon="6.51245">
        <ele>2389.1999511719</ele>
        <time>2014-02-12T13:26:39.000Z</time>
      </trkpt>
      <trkpt lat="45.91652" lon="6.51245">
        <ele>2389.1999511719</ele>
        <time>2014-02-12T13:26:40.000Z</time>
      </trkpt>
      <trkpt lat="45.91652" lon="6.51245">
        <ele>2389.1999511719</ele>
        <time>2014-02-12T13:26:41.000Z</time>
      </trkpt>
      <trkpt lat="45.91652" lon="6.51245">
        <ele>2389.1999511719</ele>
        <time>2014-02-12T13:26:42.000Z</time>
      </trkpt>
      <trkpt lat="45.91652" lon="6.51245">
        <ele>2389.1999511719</ele>
        <time>2014-02-12T13:26:44.000Z</time>
      </trkpt>
      <trkpt lat="45.91652" lon="6.51244">
        <ele>2390.3999023438</ele>
        <time>2014-02-12T13:26:49.000Z</time>
      </trkpt>
      <trkpt lat="45.91652" lon="6.51244">
        <ele>2390.3999023438</ele>
        <time>2014-02-12T13:26:50.000Z</time>
      </trkpt>
      <trkpt lat="45.91652" lon="6.51244">
        <ele>2390.3999023438</ele>
        <time>2014-02-12T13:26:51.000Z</time>
      </trkpt>
      <trkpt lat="45.91652" lon="6.51244">
        <ele>2390.3999023438</ele>
        <time>2014-02-12T13:26:52.000Z</time>
      </trkpt>
      <trkpt lat="45.91652" lon="6.51244">
        <ele>2390.3999023438</ele>
        <time>2014-02-12T13:26:53.000Z</time>
      </trkpt>
      <trkpt lat="45.91652" lon="6.51244">
        <ele>2390.3999023438</ele>
        <time>2014-02-12T13:26:55.000Z</time>
      </trkpt>
      <trkpt lat="45.91652" lon="6.51244">
        <ele>2390.3999023438</ele>
        <time>2014-02-12T13:26:58.000Z</time>
      </trkpt>
      <trkpt lat="45.91652" lon="6.51244">
        <ele>2390.3999023438</ele>
        <time>2014-02-12T13:26:59.000Z</time>
      </trkpt>
      <trkpt lat="45.91652" lon="6.51244">
        <ele>2390.3999023438</ele>
        <time>2014-02-12T13:27:00.000Z</time>
      </trkpt>
      <trkpt lat="45.91652" lon="6.51244">
        <ele>2390.3999023438</ele>
        <time>2014-02-12T13:27:01.000Z</time>
      </trkpt>
      <trkpt lat="45.91652" lon="6.51244">
        <ele>2390.3999023438</ele>
        <time>2014-02-12T13:27:02.000Z</time>
      </trkpt>
      <trkpt lat="45.91652" lon="6.51244">
        <ele>2390.3999023438</ele>
        <time>2014-02-12T13:27:03.000Z</time>
      </trkpt>
      <trkpt lat="45.91652" lon="6.51244">
        <ele>2390.3999023438</ele>
        <time>2014-02-12T13:27:07.000Z</time>
      </trkpt>
      <trkpt lat="45.91652" lon="6.51244">
        <ele>2390.3999023438</ele>
        <time>2014-02-12T13:27:08.000Z</time>
      </trkpt>
      <trkpt lat="45.91652" lon="6.51244">
        <ele>2390.3999023438</ele>
        <time>2014-02-12T13:27:09.000Z</time>
      </trkpt>
      <trkpt lat="45.91652" lon="6.51244">
        <ele>2390.3999023438</ele>
        <time>2014-02-12T13:27:10.000Z</time>
      </trkpt>
      <trkpt lat="45.91652" lon="6.51244">
        <ele>2390.3999023438</ele>
        <time>2014-02-12T13:27:11.000Z</time>
      </trkpt>
      <trkpt lat="45.91652" lon="6.51244">
        <ele>2390.3999023438</ele>
        <time>2014-02-12T13:27:12.000Z</time>
      </trkpt>
      <trkpt lat="45.91652" lon="6.51244">
        <ele>2390.3999023438</ele>
        <time>2014-02-12T13:27:13.000Z</time>
      </trkpt>
      <trkpt lat="45.91652" lon="6.51244">
        <ele>2390.3999023438</ele>
        <time>2014-02-12T13:27:14.000Z</time>
      </trkpt>
      <trkpt lat="45.91652" lon="6.51244">
        <ele>2390.3999023438</ele>
        <time>2014-02-12T13:27:15.000Z</time>
      </trkpt>
      <trkpt lat="45.91652" lon="6.51244">
        <ele>2390.3999023438</ele>
        <time>2014-02-12T13:27:16.000Z</time>
      </trkpt>
      <trkpt lat="45.91652" lon="6.51244">
        <ele>2390.3999023438</ele>
        <time>2014-02-12T13:27:17.000Z</time>
      </trkpt>
      <trkpt lat="45.91652" lon="6.51244">
        <ele>2390.3999023438</ele>
        <time>2014-02-12T13:27:18.000Z</time>
      </trkpt>
      <trkpt lat="45.91652" lon="6.51244">
        <ele>2390.3999023438</ele>
        <time>2014-02-12T13:27:19.000Z</time>
      </trkpt>
      <trkpt lat="45.91652" lon="6.51244">
        <ele>2390.3999023438</ele>
        <time>2014-02-12T13:27:20.000Z</time>
      </trkpt>
      <trkpt lat="45.91652" lon="6.51244">
        <ele>2390.3999023438</ele>
        <time>2014-02-12T13:27:21.000Z</time>
      </trkpt>
      <trkpt lat="45.91652" lon="6.51244">
        <ele>2390.3999023438</ele>
        <time>2014-02-12T13:27:22.000Z</time>
      </trkpt>
      <trkpt lat="45.91652" lon="6.51244">
        <ele>2390.3999023438</ele>
        <time>2014-02-12T13:27:23.000Z</time>
      </trkpt>
      <trkpt lat="45.91652" lon="6.51244">
        <ele>2390.3999023438</ele>
        <time>2014-02-12T13:27:25.000Z</time>
      </trkpt>
      <trkpt lat="45.91651" lon="6.51242">
        <ele>2391</ele>
        <time>2014-02-12T13:27:26.000Z</time>
      </trkpt>
      <trkpt lat="45.91651" lon="6.51242">
        <ele>2391</ele>
        <time>2014-02-12T13:27:28.000Z</time>
      </trkpt>
      <trkpt lat="45.91651" lon="6.51242">
        <ele>2391</ele>
        <time>2014-02-12T13:27:29.000Z</time>
      </trkpt>
      <trkpt lat="45.91651" lon="6.51242">
        <ele>2391</ele>
        <time>2014-02-12T13:27:30.000Z</time>
      </trkpt>
      <trkpt lat="45.91651" lon="6.51242">
        <ele>2391</ele>
        <time>2014-02-12T13:27:31.000Z</time>
      </trkpt>
      <trkpt lat="45.91651" lon="6.51242">
        <ele>2391</ele>
        <time>2014-02-12T13:27:33.000Z</time>
      </trkpt>
      <trkpt lat="45.91651" lon="6.51243">
        <ele>2390.8000488281</ele>
        <time>2014-02-12T13:27:34.000Z</time>
      </trkpt>
      <trkpt lat="45.91656" lon="6.51245">
        <ele>2386.3999023438</ele>
        <time>2014-02-12T13:27:36.000Z</time>
      </trkpt>
      <trkpt lat="45.91658" lon="6.51248">
        <ele>2383.8000488281</ele>
        <time>2014-02-12T13:27:37.000Z</time>
      </trkpt>
      <trkpt lat="45.91659" lon="6.51252">
        <ele>2381.3999023438</ele>
        <time>2014-02-12T13:27:38.000Z</time>
      </trkpt>
      <trkpt lat="45.91661" lon="6.51254">
        <ele>2378.6000976562</ele>
        <time>2014-02-12T13:27:39.000Z</time>
      </trkpt>
      <trkpt lat="45.91663" lon="6.51258">
        <ele>2375.1999511719</ele>
        <time>2014-02-12T13:27:40.000Z</time>
      </trkpt>
      <trkpt lat="45.91665" lon="6.51262">
        <ele>2371.3999023438</ele>
        <time>2014-02-12T13:27:41.000Z</time>
      </trkpt>
      <trkpt lat="45.91664" lon="6.51264">
        <ele>2370.8000488281</ele>
        <time>2014-02-12T13:27:42.000Z</time>
      </trkpt>
      <trkpt lat="45.91663" lon="6.51265">
        <ele>2370.8000488281</ele>
        <time>2014-02-12T13:27:43.000Z</time>
      </trkpt>
      <trkpt lat="45.91661" lon="6.51267">
        <ele>2370.3999023438</ele>
        <time>2014-02-12T13:27:44.000Z</time>
      </trkpt>
      <trkpt lat="45.91659" lon="6.5127">
        <ele>2369.3999023438</ele>
        <time>2014-02-12T13:27:45.000Z</time>
      </trkpt>
      <trkpt lat="45.9166" lon="6.51272">
        <ele>2368</ele>
        <time>2014-02-12T13:27:46.000Z</time>
      </trkpt>
      <trkpt lat="45.91661" lon="6.51274">
        <ele>2366</ele>
        <time>2014-02-12T13:27:47.000Z</time>
      </trkpt>
      <trkpt lat="45.91662" lon="6.51278">
        <ele>2362.8000488281</ele>
        <time>2014-02-12T13:27:48.000Z</time>
      </trkpt>
      <trkpt lat="45.91665" lon="6.51283">
        <ele>2358.3999023438</ele>
        <time>2014-02-12T13:27:49.000Z</time>
      </trkpt>
      <trkpt lat="45.91669" lon="6.51287">
        <ele>2353.8000488281</ele>
        <time>2014-02-12T13:27:50.000Z</time>
      </trkpt>
      <trkpt lat="45.91672" lon="6.51292">
        <ele>2348.8000488281</ele>
        <time>2014-02-12T13:27:51.000Z</time>
      </trkpt>
      <trkpt lat="45.91677" lon="6.51296">
        <ele>2343.3999023438</ele>
        <time>2014-02-12T13:27:52.000Z</time>
      </trkpt>
      <trkpt lat="45.91681" lon="6.513">
        <ele>2338.6000976562</ele>
        <time>2014-02-12T13:27:53.000Z</time>
      </trkpt>
      <trkpt lat="45.91685" lon="6.51304">
        <ele>2333.8000488281</ele>
        <time>2014-02-12T13:27:54.000Z</time>
      </trkpt>
      <trkpt lat="45.91689" lon="6.51308">
        <ele>2329</ele>
        <time>2014-02-12T13:27:55.000Z</time>
      </trkpt>
      <trkpt lat="45.91694" lon="6.51311">
        <ele>2324.6000976562</ele>
        <time>2014-02-12T13:27:56.000Z</time>
      </trkpt>
      <trkpt lat="45.91698" lon="6.51316">
        <ele>2319.6000976562</ele>
        <time>2014-02-12T13:27:57.000Z</time>
      </trkpt>
      <trkpt lat="45.91702" lon="6.5132">
        <ele>2316</ele>
        <time>2014-02-12T13:27:58.000Z</time>
      </trkpt>
      <trkpt lat="45.91707" lon="6.51322">
        <ele>2313.1999511719</ele>
        <time>2014-02-12T13:27:59.000Z</time>
      </trkpt>
      <trkpt lat="45.91711" lon="6.51326">
        <ele>2310</ele>
        <time>2014-02-12T13:28:00.000Z</time>
      </trkpt>
      <trkpt lat="45.91716" lon="6.5133">
        <ele>2306.8000488281</ele>
        <time>2014-02-12T13:28:01.000Z</time>
      </trkpt>
      <trkpt lat="45.9172" lon="6.51334">
        <ele>2304</ele>
        <time>2014-02-12T13:28:02.000Z</time>
      </trkpt>
      <trkpt lat="45.91724" lon="6.51338">
        <ele>2300.8000488281</ele>
        <time>2014-02-12T13:28:03.000Z</time>
      </trkpt>
      <trkpt lat="45.91728" lon="6.51343">
        <ele>2298.1999511719</ele>
        <time>2014-02-12T13:28:04.000Z</time>
      </trkpt>
      <trkpt lat="45.91732" lon="6.51348">
        <ele>2295.1999511719</ele>
        <time>2014-02-12T13:28:05.000Z</time>
      </trkpt>
      <trkpt lat="45.91737" lon="6.51352">
        <ele>2292.1999511719</ele>
        <time>2014-02-12T13:28:06.000Z</time>
      </trkpt>
      <trkpt lat="45.91741" lon="6.51357">
        <ele>2289.6000976562</ele>
        <time>2014-02-12T13:28:07.000Z</time>
      </trkpt>
      <trkpt lat="45.91746" lon="6.5136">
        <ele>2287</ele>
        <time>2014-02-12T13:28:08.000Z</time>
      </trkpt>
      <trkpt lat="45.9175" lon="6.51362">
        <ele>2284.6000976562</ele>
        <time>2014-02-12T13:28:09.000Z</time>
      </trkpt>
      <trkpt lat="45.91755" lon="6.51365">
        <ele>2281.8000488281</ele>
        <time>2014-02-12T13:28:10.000Z</time>
      </trkpt>
      <trkpt lat="45.9176" lon="6.51368">
        <ele>2279</ele>
        <time>2014-02-12T13:28:11.000Z</time>
      </trkpt>
      <trkpt lat="45.91764" lon="6.51371">
        <ele>2276.8000488281</ele>
        <time>2014-02-12T13:28:12.000Z</time>
      </trkpt>
      <trkpt lat="45.91765" lon="6.51373">
        <ele>2275.6000976562</ele>
        <time>2014-02-12T13:28:13.000Z</time>
      </trkpt>
      <trkpt lat="45.91769" lon="6.51374">
        <ele>2274</ele>
        <time>2014-02-12T13:28:14.000Z</time>
      </trkpt>
      <trkpt lat="45.91773" lon="6.51375">
        <ele>2272.1999511719</ele>
        <time>2014-02-12T13:28:15.000Z</time>
      </trkpt>
      <trkpt lat="45.91777" lon="6.51377">
        <ele>2269.8000488281</ele>
        <time>2014-02-12T13:28:16.000Z</time>
      </trkpt>
      <trkpt lat="45.91782" lon="6.5138">
        <ele>2267</ele>
        <time>2014-02-12T13:28:17.000Z</time>
      </trkpt>
      <trkpt lat="45.91787" lon="6.51382">
        <ele>2264.3999023438</ele>
        <time>2014-02-12T13:28:18.000Z</time>
      </trkpt>
      <trkpt lat="45.91791" lon="6.51389">
        <ele>2261.1999511719</ele>
        <time>2014-02-12T13:28:19.000Z</time>
      </trkpt>
      <trkpt lat="45.91795" lon="6.51396">
        <ele>2258.1999511719</ele>
        <time>2014-02-12T13:28:20.000Z</time>
      </trkpt>
      <trkpt lat="45.91799" lon="6.514">
        <ele>2255.8000488281</ele>
        <time>2014-02-12T13:28:21.000Z</time>
      </trkpt>
      <trkpt lat="45.91801" lon="6.51403">
        <ele>2255.8000488281</ele>
        <time>2014-02-12T13:28:22.000Z</time>
      </trkpt>
      <trkpt lat="45.91802" lon="6.51405">
        <ele>2255.8000488281</ele>
        <time>2014-02-12T13:28:23.000Z</time>
      </trkpt>
      <trkpt lat="45.91803" lon="6.51405">
        <ele>2255.8000488281</ele>
        <time>2014-02-12T13:28:24.000Z</time>
      </trkpt>
      <trkpt lat="45.91802" lon="6.51405">
        <ele>2256</ele>
        <time>2014-02-12T13:28:25.000Z</time>
      </trkpt>
      <trkpt lat="45.91802" lon="6.51405">
        <ele>2256</ele>
        <time>2014-02-12T13:28:26.000Z</time>
      </trkpt>
      <trkpt lat="45.91801" lon="6.51404">
        <ele>2256</ele>
        <time>2014-02-12T13:28:27.000Z</time>
      </trkpt>
      <trkpt lat="45.91801" lon="6.51404">
        <ele>2256</ele>
        <time>2014-02-12T13:28:28.000Z</time>
      </trkpt>
      <trkpt lat="45.91801" lon="6.51404">
        <ele>2256</ele>
        <time>2014-02-12T13:28:29.000Z</time>
      </trkpt>
      <trkpt lat="45.91801" lon="6.51404">
        <ele>2256</ele>
        <time>2014-02-12T13:28:30.000Z</time>
      </trkpt>
      <trkpt lat="45.91801" lon="6.51404">
        <ele>2256</ele>
        <time>2014-02-12T13:28:32.000Z</time>
      </trkpt>
      <trkpt lat="45.91801" lon="6.51404">
        <ele>2256</ele>
        <time>2014-02-12T13:28:33.000Z</time>
      </trkpt>
      <trkpt lat="45.91801" lon="6.51404">
        <ele>2256</ele>
        <time>2014-02-12T13:28:34.000Z</time>
      </trkpt>
      <trkpt lat="45.91801" lon="6.51404">
        <ele>2256</ele>
        <time>2014-02-12T13:28:35.000Z</time>
      </trkpt>
      <trkpt lat="45.91801" lon="6.51404">
        <ele>2256</ele>
        <time>2014-02-12T13:28:36.000Z</time>
      </trkpt>
      <trkpt lat="45.91801" lon="6.51404">
        <ele>2256</ele>
        <time>2014-02-12T13:28:37.000Z</time>
      </trkpt>
      <trkpt lat="45.91801" lon="6.51404">
        <ele>2256</ele>
        <time>2014-02-12T13:28:38.000Z</time>
      </trkpt>
      <trkpt lat="45.91801" lon="6.51404">
        <ele>2256</ele>
        <time>2014-02-12T13:28:41.000Z</time>
      </trkpt>
      <trkpt lat="45.91801" lon="6.51404">
        <ele>2256</ele>
        <time>2014-02-12T13:28:42.000Z</time>
      </trkpt>
      <trkpt lat="45.91801" lon="6.51404">
        <ele>2256</ele>
        <time>2014-02-12T13:28:43.000Z</time>
      </trkpt>
      <trkpt lat="45.91801" lon="6.51404">
        <ele>2256</ele>
        <time>2014-02-12T13:28:44.000Z</time>
      </trkpt>
      <trkpt lat="45.91801" lon="6.51404">
        <ele>2256</ele>
        <time>2014-02-12T13:28:45.000Z</time>
      </trkpt>
      <trkpt lat="45.91801" lon="6.51404">
        <ele>2256</ele>
        <time>2014-02-12T13:28:46.000Z</time>
      </trkpt>
      <trkpt lat="45.91801" lon="6.51404">
        <ele>2256</ele>
        <time>2014-02-12T13:28:47.000Z</time>
      </trkpt>
      <trkpt lat="45.91801" lon="6.51404">
        <ele>2256</ele>
        <time>2014-02-12T13:28:48.000Z</time>
      </trkpt>
      <trkpt lat="45.91801" lon="6.51404">
        <ele>2256</ele>
        <time>2014-02-12T13:28:49.000Z</time>
      </trkpt>
      <trkpt lat="45.91801" lon="6.51404">
        <ele>2256</ele>
        <time>2014-02-12T13:28:50.000Z</time>
      </trkpt>
      <trkpt lat="45.91801" lon="6.51404">
        <ele>2256</ele>
        <time>2014-02-12T13:28:51.000Z</time>
      </trkpt>
      <trkpt lat="45.91801" lon="6.51404">
        <ele>2256</ele>
        <time>2014-02-12T13:28:52.000Z</time>
      </trkpt>
      <trkpt lat="45.91801" lon="6.51404">
        <ele>2256</ele>
        <time>2014-02-12T13:28:53.000Z</time>
      </trkpt>
      <trkpt lat="45.91801" lon="6.51404">
        <ele>2256</ele>
        <time>2014-02-12T13:28:54.000Z</time>
      </trkpt>
      <trkpt lat="45.91801" lon="6.51404">
        <ele>2256</ele>
        <time>2014-02-12T13:28:55.000Z</time>
      </trkpt>
      <trkpt lat="45.91801" lon="6.51404">
        <ele>2256</ele>
        <time>2014-02-12T13:28:57.000Z</time>
      </trkpt>
      <trkpt lat="45.91801" lon="6.51404">
        <ele>2256</ele>
        <time>2014-02-12T13:28:58.000Z</time>
      </trkpt>
      <trkpt lat="45.91801" lon="6.51404">
        <ele>2256</ele>
        <time>2014-02-12T13:28:59.000Z</time>
      </trkpt>
      <trkpt lat="45.91801" lon="6.51404">
        <ele>2256</ele>
        <time>2014-02-12T13:29:00.000Z</time>
      </trkpt>
      <trkpt lat="45.91801" lon="6.51404">
        <ele>2256</ele>
        <time>2014-02-12T13:29:01.000Z</time>
      </trkpt>
      <trkpt lat="45.91801" lon="6.51404">
        <ele>2256.1999511719</ele>
        <time>2014-02-12T13:29:08.000Z</time>
      </trkpt>
      <trkpt lat="45.91801" lon="6.51404">
        <ele>2256.1999511719</ele>
        <time>2014-02-12T13:29:09.000Z</time>
      </trkpt>
      <trkpt lat="45.91801" lon="6.51404">
        <ele>2256.1999511719</ele>
        <time>2014-02-12T13:29:10.000Z</time>
      </trkpt>
      <trkpt lat="45.91801" lon="6.51404">
        <ele>2256.1999511719</ele>
        <time>2014-02-12T13:29:11.000Z</time>
      </trkpt>
      <trkpt lat="45.91801" lon="6.51404">
        <ele>2256.1999511719</ele>
        <time>2014-02-12T13:29:13.000Z</time>
      </trkpt>
      <trkpt lat="45.91801" lon="6.51404">
        <ele>2256.1999511719</ele>
        <time>2014-02-12T13:29:15.000Z</time>
      </trkpt>
      <trkpt lat="45.91801" lon="6.51404">
        <ele>2256.1999511719</ele>
        <time>2014-02-12T13:29:16.000Z</time>
      </trkpt>
      <trkpt lat="45.91801" lon="6.51404">
        <ele>2256.1999511719</ele>
        <time>2014-02-12T13:29:17.000Z</time>
      </trkpt>
      <trkpt lat="45.91801" lon="6.51404">
        <ele>2256.1999511719</ele>
        <time>2014-02-12T13:29:18.000Z</time>
      </trkpt>
      <trkpt lat="45.91801" lon="6.51404">
        <ele>2256.1999511719</ele>
        <time>2014-02-12T13:29:19.000Z</time>
      </trkpt>
      <trkpt lat="45.91801" lon="6.51404">
        <ele>2256.1999511719</ele>
        <time>2014-02-12T13:29:20.000Z</time>
      </trkpt>
      <trkpt lat="45.91801" lon="6.51404">
        <ele>2256.1999511719</ele>
        <time>2014-02-12T13:29:21.000Z</time>
      </trkpt>
      <trkpt lat="45.91801" lon="6.51404">
        <ele>2256.1999511719</ele>
        <time>2014-02-12T13:29:22.000Z</time>
      </trkpt>
      <trkpt lat="45.91801" lon="6.51404">
        <ele>2256.1999511719</ele>
        <time>2014-02-12T13:29:23.000Z</time>
      </trkpt>
      <trkpt lat="45.91801" lon="6.51404">
        <ele>2256.1999511719</ele>
        <time>2014-02-12T13:29:24.000Z</time>
      </trkpt>
      <trkpt lat="45.91801" lon="6.51404">
        <ele>2256.1999511719</ele>
        <time>2014-02-12T13:29:25.000Z</time>
      </trkpt>
      <trkpt lat="45.91801" lon="6.51404">
        <ele>2256.1999511719</ele>
        <time>2014-02-12T13:29:26.000Z</time>
      </trkpt>
      <trkpt lat="45.91801" lon="6.51404">
        <ele>2256.1999511719</ele>
        <time>2014-02-12T13:29:27.000Z</time>
      </trkpt>
      <trkpt lat="45.91801" lon="6.51404">
        <ele>2256.1999511719</ele>
        <time>2014-02-12T13:29:28.000Z</time>
      </trkpt>
      <trkpt lat="45.91801" lon="6.51404">
        <ele>2256.1999511719</ele>
        <time>2014-02-12T13:29:29.000Z</time>
      </trkpt>
      <trkpt lat="45.91801" lon="6.51404">
        <ele>2256.1999511719</ele>
        <time>2014-02-12T13:29:30.000Z</time>
      </trkpt>
      <trkpt lat="45.91801" lon="6.51404">
        <ele>2256.1999511719</ele>
        <time>2014-02-12T13:29:31.000Z</time>
      </trkpt>
      <trkpt lat="45.91801" lon="6.51404">
        <ele>2256.1999511719</ele>
        <time>2014-02-12T13:29:32.000Z</time>
      </trkpt>
      <trkpt lat="45.91801" lon="6.51404">
        <ele>2256.1999511719</ele>
        <time>2014-02-12T13:29:33.000Z</time>
      </trkpt>
      <trkpt lat="45.91801" lon="6.51404">
        <ele>2256.1999511719</ele>
        <time>2014-02-12T13:29:34.000Z</time>
      </trkpt>
      <trkpt lat="45.91801" lon="6.51404">
        <ele>2256.1999511719</ele>
        <time>2014-02-12T13:29:36.000Z</time>
      </trkpt>
      <trkpt lat="45.91801" lon="6.51404">
        <ele>2256.1999511719</ele>
        <time>2014-02-12T13:29:38.000Z</time>
      </trkpt>
      <trkpt lat="45.91801" lon="6.51404">
        <ele>2256.1999511719</ele>
        <time>2014-02-12T13:29:39.000Z</time>
      </trkpt>
      <trkpt lat="45.91801" lon="6.51404">
        <ele>2256.1999511719</ele>
        <time>2014-02-12T13:29:40.000Z</time>
      </trkpt>
      <trkpt lat="45.91801" lon="6.51404">
        <ele>2256.1999511719</ele>
        <time>2014-02-12T13:29:41.000Z</time>
      </trkpt>
      <trkpt lat="45.91801" lon="6.51404">
        <ele>2256.1999511719</ele>
        <time>2014-02-12T13:29:43.000Z</time>
      </trkpt>
      <trkpt lat="45.91801" lon="6.51404">
        <ele>2256.1999511719</ele>
        <time>2014-02-12T13:29:44.000Z</time>
      </trkpt>
      <trkpt lat="45.91801" lon="6.51404">
        <ele>2256.1999511719</ele>
        <time>2014-02-12T13:29:45.000Z</time>
      </trkpt>
      <trkpt lat="45.91801" lon="6.51404">
        <ele>2256.1999511719</ele>
        <time>2014-02-12T13:29:46.000Z</time>
      </trkpt>
      <trkpt lat="45.918" lon="6.51403">
        <ele>2256.1999511719</ele>
        <time>2014-02-12T13:29:47.000Z</time>
      </trkpt>
      <trkpt lat="45.918" lon="6.51403">
        <ele>2256.1999511719</ele>
        <time>2014-02-12T13:29:48.000Z</time>
      </trkpt>
      <trkpt lat="45.918" lon="6.51403">
        <ele>2256.1999511719</ele>
        <time>2014-02-12T13:29:50.000Z</time>
      </trkpt>
      <trkpt lat="45.918" lon="6.51403">
        <ele>2256.1999511719</ele>
        <time>2014-02-12T13:29:51.000Z</time>
      </trkpt>
      <trkpt lat="45.918" lon="6.51403">
        <ele>2256.1999511719</ele>
        <time>2014-02-12T13:29:52.000Z</time>
      </trkpt>
      <trkpt lat="45.918" lon="6.51403">
        <ele>2256.1999511719</ele>
        <time>2014-02-12T13:29:53.000Z</time>
      </trkpt>
      <trkpt lat="45.918" lon="6.51403">
        <ele>2256.1999511719</ele>
        <time>2014-02-12T13:29:54.000Z</time>
      </trkpt>
      <trkpt lat="45.918" lon="6.51403">
        <ele>2256.1999511719</ele>
        <time>2014-02-12T13:29:55.000Z</time>
      </trkpt>
      <trkpt lat="45.918" lon="6.51403">
        <ele>2256.1999511719</ele>
        <time>2014-02-12T13:29:56.000Z</time>
      </trkpt>
      <trkpt lat="45.918" lon="6.51403">
        <ele>2256.1999511719</ele>
        <time>2014-02-12T13:29:57.000Z</time>
      </trkpt>
      <trkpt lat="45.91801" lon="6.51403">
        <ele>2255.8000488281</ele>
        <time>2014-02-12T13:29:58.000Z</time>
      </trkpt>
      <trkpt lat="45.91803" lon="6.51402">
        <ele>2254.6000976562</ele>
        <time>2014-02-12T13:29:59.000Z</time>
      </trkpt>
      <trkpt lat="45.91805" lon="6.51401">
        <ele>2253.1999511719</ele>
        <time>2014-02-12T13:30:00.000Z</time>
      </trkpt>
      <trkpt lat="45.91806" lon="6.514">
        <ele>2252.3999023438</ele>
        <time>2014-02-12T13:30:01.000Z</time>
      </trkpt>
      <trkpt lat="45.91807" lon="6.514">
        <ele>2252</ele>
        <time>2014-02-12T13:30:02.000Z</time>
      </trkpt>
      <trkpt lat="45.91807" lon="6.51401">
        <ele>2252</ele>
        <time>2014-02-12T13:30:03.000Z</time>
      </trkpt>
      <trkpt lat="45.91807" lon="6.51401">
        <ele>2252</ele>
        <time>2014-02-12T13:30:04.000Z</time>
      </trkpt>
      <trkpt lat="45.91807" lon="6.51401">
        <ele>2252</ele>
        <time>2014-02-12T13:30:05.000Z</time>
      </trkpt>
      <trkpt lat="45.91807" lon="6.51401">
        <ele>2252</ele>
        <time>2014-02-12T13:30:06.000Z</time>
      </trkpt>
      <trkpt lat="45.91807" lon="6.51401">
        <ele>2252</ele>
        <time>2014-02-12T13:30:07.000Z</time>
      </trkpt>
      <trkpt lat="45.91807" lon="6.51401">
        <ele>2252</ele>
        <time>2014-02-12T13:30:08.000Z</time>
      </trkpt>
      <trkpt lat="45.91807" lon="6.51401">
        <ele>2252</ele>
        <time>2014-02-12T13:30:09.000Z</time>
      </trkpt>
      <trkpt lat="45.91807" lon="6.51401">
        <ele>2252</ele>
        <time>2014-02-12T13:30:10.000Z</time>
      </trkpt>
      <trkpt lat="45.91807" lon="6.51401">
        <ele>2252</ele>
        <time>2014-02-12T13:30:11.000Z</time>
      </trkpt>
      <trkpt lat="45.91807" lon="6.51401">
        <ele>2252</ele>
        <time>2014-02-12T13:30:13.000Z</time>
      </trkpt>
      <trkpt lat="45.91807" lon="6.51401">
        <ele>2252</ele>
        <time>2014-02-12T13:30:17.000Z</time>
      </trkpt>
      <trkpt lat="45.91807" lon="6.51401">
        <ele>2252</ele>
        <time>2014-02-12T13:30:18.000Z</time>
      </trkpt>
      <trkpt lat="45.91807" lon="6.51401">
        <ele>2252</ele>
        <time>2014-02-12T13:30:19.000Z</time>
      </trkpt>
      <trkpt lat="45.91807" lon="6.51401">
        <ele>2252</ele>
        <time>2014-02-12T13:30:20.000Z</time>
      </trkpt>
      <trkpt lat="45.91807" lon="6.51401">
        <ele>2252</ele>
        <time>2014-02-12T13:30:21.000Z</time>
      </trkpt>
      <trkpt lat="45.91807" lon="6.51401">
        <ele>2252</ele>
        <time>2014-02-12T13:30:22.000Z</time>
      </trkpt>
      <trkpt lat="45.91807" lon="6.51401">
        <ele>2252</ele>
        <time>2014-02-12T13:30:23.000Z</time>
      </trkpt>
      <trkpt lat="45.91807" lon="6.51401">
        <ele>2252</ele>
        <time>2014-02-12T13:30:24.000Z</time>
      </trkpt>
      <trkpt lat="45.91807" lon="6.514">
        <ele>2251.6000976562</ele>
        <time>2014-02-12T13:30:25.000Z</time>
      </trkpt>
      <trkpt lat="45.91809" lon="6.51401">
        <ele>2250.8000488281</ele>
        <time>2014-02-12T13:30:26.000Z</time>
      </trkpt>
      <trkpt lat="45.91811" lon="6.51401">
        <ele>2249.3999023438</ele>
        <time>2014-02-12T13:30:27.000Z</time>
      </trkpt>
      <trkpt lat="45.91814" lon="6.51402">
        <ele>2247.6000976562</ele>
        <time>2014-02-12T13:30:28.000Z</time>
      </trkpt>
      <trkpt lat="45.91818" lon="6.51402">
        <ele>2243.6000976562</ele>
        <time>2014-02-12T13:30:29.000Z</time>
      </trkpt>
      <trkpt lat="45.91822" lon="6.514">
        <ele>2238.1999511719</ele>
        <time>2014-02-12T13:30:30.000Z</time>
      </trkpt>
      <trkpt lat="45.91827" lon="6.51398">
        <ele>2233.6000976562</ele>
        <time>2014-02-12T13:30:31.000Z</time>
      </trkpt>
      <trkpt lat="45.91831" lon="6.51395">
        <ele>2229</ele>
        <time>2014-02-12T13:30:32.000Z</time>
      </trkpt>
      <trkpt lat="45.91836" lon="6.51394">
        <ele>2224.3999023438</ele>
        <time>2014-02-12T13:30:33.000Z</time>
      </trkpt>
      <trkpt lat="45.91841" lon="6.51393">
        <ele>2219.8000488281</ele>
        <time>2014-02-12T13:30:34.000Z</time>
      </trkpt>
      <trkpt lat="45.91846" lon="6.51392">
        <ele>2215.1999511719</ele>
        <time>2014-02-12T13:30:35.000Z</time>
      </trkpt>
      <trkpt lat="45.9185" lon="6.51391">
        <ele>2210.6000976562</ele>
        <time>2014-02-12T13:30:36.000Z</time>
      </trkpt>
      <trkpt lat="45.91853" lon="6.51391">
        <ele>2208.1999511719</ele>
        <time>2014-02-12T13:30:37.000Z</time>
      </trkpt>
      <trkpt lat="45.91858" lon="6.51391">
        <ele>2203.8000488281</ele>
        <time>2014-02-12T13:30:38.000Z</time>
      </trkpt>
      <trkpt lat="45.91864" lon="6.51393">
        <ele>2198.6000976562</ele>
        <time>2014-02-12T13:30:39.000Z</time>
      </trkpt>
      <trkpt lat="45.9187" lon="6.51394">
        <ele>2193.6000976562</ele>
        <time>2014-02-12T13:30:40.000Z</time>
      </trkpt>
      <trkpt lat="45.91876" lon="6.51397">
        <ele>2188.8000488281</ele>
        <time>2014-02-12T13:30:41.000Z</time>
      </trkpt>
      <trkpt lat="45.91881" lon="6.51399">
        <ele>2184.3999023438</ele>
        <time>2014-02-12T13:30:42.000Z</time>
      </trkpt>
      <trkpt lat="45.91886" lon="6.51401">
        <ele>2180.3999023438</ele>
        <time>2014-02-12T13:30:43.000Z</time>
      </trkpt>
      <trkpt lat="45.9189" lon="6.51402">
        <ele>2178</ele>
        <time>2014-02-12T13:30:44.000Z</time>
      </trkpt>
      <trkpt lat="45.91893" lon="6.51403">
        <ele>2177.1999511719</ele>
        <time>2014-02-12T13:30:45.000Z</time>
      </trkpt>
      <trkpt lat="45.91895" lon="6.51403">
        <ele>2177.3999023438</ele>
        <time>2014-02-12T13:30:46.000Z</time>
      </trkpt>
      <trkpt lat="45.91896" lon="6.51403">
        <ele>2177.6000976562</ele>
        <time>2014-02-12T13:30:47.000Z</time>
      </trkpt>
      <trkpt lat="45.91896" lon="6.51404">
        <ele>2177.8000488281</ele>
        <time>2014-02-12T13:30:48.000Z</time>
      </trkpt>
      <trkpt lat="45.91897" lon="6.51405">
        <ele>2178.3999023438</ele>
        <time>2014-02-12T13:30:49.000Z</time>
      </trkpt>
      <trkpt lat="45.91897" lon="6.51406">
        <ele>2179</ele>
        <time>2014-02-12T13:30:50.000Z</time>
      </trkpt>
      <trkpt lat="45.91897" lon="6.51407">
        <ele>2179.3999023438</ele>
        <time>2014-02-12T13:30:51.000Z</time>
      </trkpt>
      <trkpt lat="45.91895" lon="6.51408">
        <ele>2180.6000976562</ele>
        <time>2014-02-12T13:30:52.000Z</time>
      </trkpt>
      <trkpt lat="45.91895" lon="6.51408">
        <ele>2180.6000976562</ele>
        <time>2014-02-12T13:30:53.000Z</time>
      </trkpt>
      <trkpt lat="45.91895" lon="6.51408">
        <ele>2180.6000976562</ele>
        <time>2014-02-12T13:30:54.000Z</time>
      </trkpt>
      <trkpt lat="45.91895" lon="6.51408">
        <ele>2180.6000976562</ele>
        <time>2014-02-12T13:30:55.000Z</time>
      </trkpt>
      <trkpt lat="45.91895" lon="6.51408">
        <ele>2180.6000976562</ele>
        <time>2014-02-12T13:30:56.000Z</time>
      </trkpt>
      <trkpt lat="45.91895" lon="6.51408">
        <ele>2180.6000976562</ele>
        <time>2014-02-12T13:30:57.000Z</time>
      </trkpt>
      <trkpt lat="45.91895" lon="6.51408">
        <ele>2180.6000976562</ele>
        <time>2014-02-12T13:30:58.000Z</time>
      </trkpt>
      <trkpt lat="45.91895" lon="6.51408">
        <ele>2180.6000976562</ele>
        <time>2014-02-12T13:30:59.000Z</time>
      </trkpt>
      <trkpt lat="45.91895" lon="6.51408">
        <ele>2180.6000976562</ele>
        <time>2014-02-12T13:31:00.000Z</time>
      </trkpt>
      <trkpt lat="45.91895" lon="6.51408">
        <ele>2180.6000976562</ele>
        <time>2014-02-12T13:31:01.000Z</time>
      </trkpt>
      <trkpt lat="45.91895" lon="6.51408">
        <ele>2180.6000976562</ele>
        <time>2014-02-12T13:31:02.000Z</time>
      </trkpt>
      <trkpt lat="45.91895" lon="6.51408">
        <ele>2180.6000976562</ele>
        <time>2014-02-12T13:31:06.000Z</time>
      </trkpt>
      <trkpt lat="45.91895" lon="6.5141">
        <ele>2182.1999511719</ele>
        <time>2014-02-12T13:31:07.000Z</time>
      </trkpt>
      <trkpt lat="45.91893" lon="6.51408">
        <ele>2181.3999023438</ele>
        <time>2014-02-12T13:31:08.000Z</time>
      </trkpt>
      <trkpt lat="45.91892" lon="6.51407">
        <ele>2180.3999023438</ele>
        <time>2014-02-12T13:31:09.000Z</time>
      </trkpt>
      <trkpt lat="45.91893" lon="6.51405">
        <ele>2179.1999511719</ele>
        <time>2014-02-12T13:31:10.000Z</time>
      </trkpt>
      <trkpt lat="45.91893" lon="6.51404">
        <ele>2177.8000488281</ele>
        <time>2014-02-12T13:31:11.000Z</time>
      </trkpt>
      <trkpt lat="45.91892" lon="6.51401">
        <ele>2176.3999023438</ele>
        <time>2014-02-12T13:31:12.000Z</time>
      </trkpt>
      <trkpt lat="45.91894" lon="6.51399">
        <ele>2176.1999511719</ele>
        <time>2014-02-12T13:31:13.000Z</time>
      </trkpt>
      <trkpt lat="45.91897" lon="6.51401">
        <ele>2176.8000488281</ele>
        <time>2014-02-12T13:31:14.000Z</time>
      </trkpt>
      <trkpt lat="45.91901" lon="6.51404">
        <ele>2178.1999511719</ele>
        <time>2014-02-12T13:31:15.000Z</time>
      </trkpt>
      <trkpt lat="45.91904" lon="6.51405">
        <ele>2179</ele>
        <time>2014-02-12T13:31:16.000Z</time>
      </trkpt>
      <trkpt lat="45.91906" lon="6.51403">
        <ele>2178.3999023438</ele>
        <time>2014-02-12T13:31:17.000Z</time>
      </trkpt>
      <trkpt lat="45.91908" lon="6.514">
        <ele>2177.1999511719</ele>
        <time>2014-02-12T13:31:18.000Z</time>
      </trkpt>
      <trkpt lat="45.9191" lon="6.51397">
        <ele>2177.1999511719</ele>
        <time>2014-02-12T13:31:19.000Z</time>
      </trkpt>
      <trkpt lat="45.91912" lon="6.51396">
        <ele>2177.3999023438</ele>
        <time>2014-02-12T13:31:20.000Z</time>
      </trkpt>
      <trkpt lat="45.91915" lon="6.51394">
        <ele>2177.3999023438</ele>
        <time>2014-02-12T13:31:21.000Z</time>
      </trkpt>
      <trkpt lat="45.91918" lon="6.51391">
        <ele>2177.6000976562</ele>
        <time>2014-02-12T13:31:22.000Z</time>
      </trkpt>
      <trkpt lat="45.91921" lon="6.51387">
        <ele>2177.6000976562</ele>
        <time>2014-02-12T13:31:23.000Z</time>
      </trkpt>
      <trkpt lat="45.91924" lon="6.51384">
        <ele>2177.6000976562</ele>
        <time>2014-02-12T13:31:24.000Z</time>
      </trkpt>
      <trkpt lat="45.91926" lon="6.51382">
        <ele>2177.8000488281</ele>
        <time>2014-02-12T13:31:25.000Z</time>
      </trkpt>
      <trkpt lat="45.91929" lon="6.51378">
        <ele>2177.8000488281</ele>
        <time>2014-02-12T13:31:26.000Z</time>
      </trkpt>
      <trkpt lat="45.91931" lon="6.51375">
        <ele>2177.8000488281</ele>
        <time>2014-02-12T13:31:27.000Z</time>
      </trkpt>
      <trkpt lat="45.91934" lon="6.51372">
        <ele>2177.8000488281</ele>
        <time>2014-02-12T13:31:28.000Z</time>
      </trkpt>
      <trkpt lat="45.91937" lon="6.51369">
        <ele>2177.8000488281</ele>
        <time>2014-02-12T13:31:29.000Z</time>
      </trkpt>
      <trkpt lat="45.91942" lon="6.51367">
        <ele>2177.8000488281</ele>
        <time>2014-02-12T13:31:30.000Z</time>
      </trkpt>
      <trkpt lat="45.91947" lon="6.51364">
        <ele>2176.3999023438</ele>
        <time>2014-02-12T13:31:31.000Z</time>
      </trkpt>
      <trkpt lat="45.91948" lon="6.5136">
        <ele>2175.1999511719</ele>
        <time>2014-02-12T13:31:32.000Z</time>
      </trkpt>
      <trkpt lat="45.91945" lon="6.51359">
        <ele>2175.1999511719</ele>
        <time>2014-02-12T13:31:33.000Z</time>
      </trkpt>
      <trkpt lat="45.91942" lon="6.51358">
        <ele>2175.3999023438</ele>
        <time>2014-02-12T13:31:34.000Z</time>
      </trkpt>
      <trkpt lat="45.9194" lon="6.51358">
        <ele>2175.6000976562</ele>
        <time>2014-02-12T13:31:35.000Z</time>
      </trkpt>
      <trkpt lat="45.91938" lon="6.51357">
        <ele>2175.6000976562</ele>
        <time>2014-02-12T13:31:36.000Z</time>
      </trkpt>
      <trkpt lat="45.91938" lon="6.51357">
        <ele>2175.6000976562</ele>
        <time>2014-02-12T13:31:37.000Z</time>
      </trkpt>
      <trkpt lat="45.91938" lon="6.51357">
        <ele>2175.6000976562</ele>
        <time>2014-02-12T13:31:38.000Z</time>
      </trkpt>
      <trkpt lat="45.91938" lon="6.51357">
        <ele>2175.6000976562</ele>
        <time>2014-02-12T13:31:39.000Z</time>
      </trkpt>
      <trkpt lat="45.91938" lon="6.51357">
        <ele>2175.6000976562</ele>
        <time>2014-02-12T13:31:40.000Z</time>
      </trkpt>
      <trkpt lat="45.91938" lon="6.51357">
        <ele>2175.6000976562</ele>
        <time>2014-02-12T13:31:41.000Z</time>
      </trkpt>
      <trkpt lat="45.91938" lon="6.51357">
        <ele>2175.6000976562</ele>
        <time>2014-02-12T13:31:42.000Z</time>
      </trkpt>
      <trkpt lat="45.91938" lon="6.51357">
        <ele>2175.6000976562</ele>
        <time>2014-02-12T13:31:43.000Z</time>
      </trkpt>
      <trkpt lat="45.91938" lon="6.51357">
        <ele>2175.6000976562</ele>
        <time>2014-02-12T13:31:44.000Z</time>
      </trkpt>
      <trkpt lat="45.91937" lon="6.51353">
        <ele>2174.8000488281</ele>
        <time>2014-02-12T13:31:45.000Z</time>
      </trkpt>
      <trkpt lat="45.91936" lon="6.51349">
        <ele>2173.8000488281</ele>
        <time>2014-02-12T13:31:46.000Z</time>
      </trkpt>
      <trkpt lat="45.91937" lon="6.51345">
        <ele>2172.6000976562</ele>
        <time>2014-02-12T13:31:47.000Z</time>
      </trkpt>
      <trkpt lat="45.91939" lon="6.51339">
        <ele>2170.8000488281</ele>
        <time>2014-02-12T13:31:48.000Z</time>
      </trkpt>
      <trkpt lat="45.91941" lon="6.51333">
        <ele>2169</ele>
        <time>2014-02-12T13:31:49.000Z</time>
      </trkpt>
      <trkpt lat="45.91945" lon="6.51326">
        <ele>2166.6000976562</ele>
        <time>2014-02-12T13:31:50.000Z</time>
      </trkpt>
      <trkpt lat="45.91949" lon="6.51316">
        <ele>2163.6000976562</ele>
        <time>2014-02-12T13:31:51.000Z</time>
      </trkpt>
      <trkpt lat="45.91952" lon="6.51305">
        <ele>2163</ele>
        <time>2014-02-12T13:31:52.000Z</time>
      </trkpt>
      <trkpt lat="45.91956" lon="6.51294">
        <ele>2162</ele>
        <time>2014-02-12T13:31:53.000Z</time>
      </trkpt>
      <trkpt lat="45.9196" lon="6.51284">
        <ele>2160.8000488281</ele>
        <time>2014-02-12T13:31:54.000Z</time>
      </trkpt>
      <trkpt lat="45.91963" lon="6.51274">
        <ele>2159.6000976562</ele>
        <time>2014-02-12T13:31:55.000Z</time>
      </trkpt>
      <trkpt lat="45.91965" lon="6.51264">
        <ele>2158.6000976562</ele>
        <time>2014-02-12T13:31:56.000Z</time>
      </trkpt>
      <trkpt lat="45.91967" lon="6.51254">
        <ele>2157.6000976562</ele>
        <time>2014-02-12T13:31:57.000Z</time>
      </trkpt>
      <trkpt lat="45.91969" lon="6.51245">
        <ele>2156.6000976562</ele>
        <time>2014-02-12T13:31:58.000Z</time>
      </trkpt>
      <trkpt lat="45.91971" lon="6.51234">
        <ele>2155.6000976562</ele>
        <time>2014-02-12T13:31:59.000Z</time>
      </trkpt>
      <trkpt lat="45.91973" lon="6.51224">
        <ele>2154.8000488281</ele>
        <time>2014-02-12T13:32:00.000Z</time>
      </trkpt>
      <trkpt lat="45.91976" lon="6.51219">
        <ele>2154.3999023438</ele>
        <time>2014-02-12T13:32:01.000Z</time>
      </trkpt>
      <trkpt lat="45.91979" lon="6.51214">
        <ele>2154.1999511719</ele>
        <time>2014-02-12T13:32:02.000Z</time>
      </trkpt>
      <trkpt lat="45.91982" lon="6.5121">
        <ele>2154</ele>
        <time>2014-02-12T13:32:03.000Z</time>
      </trkpt>
      <trkpt lat="45.91985" lon="6.51207">
        <ele>2154</ele>
        <time>2014-02-12T13:32:04.000Z</time>
      </trkpt>
      <trkpt lat="45.91987" lon="6.51204">
        <ele>2153.8000488281</ele>
        <time>2014-02-12T13:32:05.000Z</time>
      </trkpt>
      <trkpt lat="45.91988" lon="6.51201">
        <ele>2153.6000976562</ele>
        <time>2014-02-12T13:32:06.000Z</time>
      </trkpt>
      <trkpt lat="45.9199" lon="6.51199">
        <ele>2153.6000976562</ele>
        <time>2014-02-12T13:32:07.000Z</time>
      </trkpt>
      <trkpt lat="45.91992" lon="6.51196">
        <ele>2153.3999023438</ele>
        <time>2014-02-12T13:32:08.000Z</time>
      </trkpt>
      <trkpt lat="45.91994" lon="6.51194">
        <ele>2153.3999023438</ele>
        <time>2014-02-12T13:32:09.000Z</time>
      </trkpt>
      <trkpt lat="45.91997" lon="6.51191">
        <ele>2153.1999511719</ele>
        <time>2014-02-12T13:32:10.000Z</time>
      </trkpt>
      <trkpt lat="45.91999" lon="6.51189">
        <ele>2153.1999511719</ele>
        <time>2014-02-12T13:32:11.000Z</time>
      </trkpt>
      <trkpt lat="45.92002" lon="6.51188">
        <ele>2153</ele>
        <time>2014-02-12T13:32:12.000Z</time>
      </trkpt>
      <trkpt lat="45.92005" lon="6.51187">
        <ele>2153</ele>
        <time>2014-02-12T13:32:13.000Z</time>
      </trkpt>
      <trkpt lat="45.92008" lon="6.51186">
        <ele>2152.8000488281</ele>
        <time>2014-02-12T13:32:14.000Z</time>
      </trkpt>
      <trkpt lat="45.9201" lon="6.51184">
        <ele>2151.8000488281</ele>
        <time>2014-02-12T13:32:15.000Z</time>
      </trkpt>
      <trkpt lat="45.92013" lon="6.51183">
        <ele>2150.3999023438</ele>
        <time>2014-02-12T13:32:16.000Z</time>
      </trkpt>
      <trkpt lat="45.92015" lon="6.51181">
        <ele>2149.6000976562</ele>
        <time>2014-02-12T13:32:17.000Z</time>
      </trkpt>
      <trkpt lat="45.92016" lon="6.5118">
        <ele>2148.8000488281</ele>
        <time>2014-02-12T13:32:18.000Z</time>
      </trkpt>
      <trkpt lat="45.92017" lon="6.51179">
        <ele>2147.8000488281</ele>
        <time>2014-02-12T13:32:19.000Z</time>
      </trkpt>
      <trkpt lat="45.92018" lon="6.51176">
        <ele>2146.8000488281</ele>
        <time>2014-02-12T13:32:20.000Z</time>
      </trkpt>
      <trkpt lat="45.92018" lon="6.51174">
        <ele>2146</ele>
        <time>2014-02-12T13:32:21.000Z</time>
      </trkpt>
      <trkpt lat="45.92018" lon="6.51172">
        <ele>2145.1999511719</ele>
        <time>2014-02-12T13:32:22.000Z</time>
      </trkpt>
      <trkpt lat="45.92019" lon="6.5117">
        <ele>2144.1999511719</ele>
        <time>2014-02-12T13:32:23.000Z</time>
      </trkpt>
      <trkpt lat="45.92019" lon="6.51167">
        <ele>2143.3999023438</ele>
        <time>2014-02-12T13:32:24.000Z</time>
      </trkpt>
      <trkpt lat="45.92019" lon="6.51165">
        <ele>2142.6000976562</ele>
        <time>2014-02-12T13:32:25.000Z</time>
      </trkpt>
      <trkpt lat="45.92019" lon="6.51164">
        <ele>2142</ele>
        <time>2014-02-12T13:32:26.000Z</time>
      </trkpt>
      <trkpt lat="45.92019" lon="6.5116">
        <ele>2140.8000488281</ele>
        <time>2014-02-12T13:32:28.000Z</time>
      </trkpt>
      <trkpt lat="45.92019" lon="6.51158">
        <ele>2139.8000488281</ele>
        <time>2014-02-12T13:32:29.000Z</time>
      </trkpt>
      <trkpt lat="45.9202" lon="6.51156">
        <ele>2139</ele>
        <time>2014-02-12T13:32:30.000Z</time>
      </trkpt>
      <trkpt lat="45.9202" lon="6.51153">
        <ele>2138.1999511719</ele>
        <time>2014-02-12T13:32:31.000Z</time>
      </trkpt>
      <trkpt lat="45.9202" lon="6.51151">
        <ele>2137.3999023438</ele>
        <time>2014-02-12T13:32:32.000Z</time>
      </trkpt>
      <trkpt lat="45.9202" lon="6.51149">
        <ele>2136.6000976562</ele>
        <time>2014-02-12T13:32:33.000Z</time>
      </trkpt>
      <trkpt lat="45.92021" lon="6.51147">
        <ele>2136.1999511719</ele>
        <time>2014-02-12T13:32:34.000Z</time>
      </trkpt>
      <trkpt lat="45.92022" lon="6.51146">
        <ele>2135.8000488281</ele>
        <time>2014-02-12T13:32:35.000Z</time>
      </trkpt>
      <trkpt lat="45.92023" lon="6.51146">
        <ele>2135.3999023438</ele>
        <time>2014-02-12T13:32:36.000Z</time>
      </trkpt>
      <trkpt lat="45.92024" lon="6.51146">
        <ele>2135</ele>
        <time>2014-02-12T13:32:37.000Z</time>
      </trkpt>
      <trkpt lat="45.92024" lon="6.51146">
        <ele>2135</ele>
        <time>2014-02-12T13:32:38.000Z</time>
      </trkpt>
      <trkpt lat="45.92024" lon="6.51146">
        <ele>2135</ele>
        <time>2014-02-12T13:32:39.000Z</time>
      </trkpt>
      <trkpt lat="45.92024" lon="6.51146">
        <ele>2135</ele>
        <time>2014-02-12T13:32:40.000Z</time>
      </trkpt>
      <trkpt lat="45.92024" lon="6.51146">
        <ele>2135</ele>
        <time>2014-02-12T13:32:41.000Z</time>
      </trkpt>
      <trkpt lat="45.92024" lon="6.51146">
        <ele>2135</ele>
        <time>2014-02-12T13:32:42.000Z</time>
      </trkpt>
      <trkpt lat="45.92024" lon="6.51146">
        <ele>2135</ele>
        <time>2014-02-12T13:32:43.000Z</time>
      </trkpt>
      <trkpt lat="45.92024" lon="6.51146">
        <ele>2135</ele>
        <time>2014-02-12T13:32:44.000Z</time>
      </trkpt>
      <trkpt lat="45.92024" lon="6.51146">
        <ele>2135</ele>
        <time>2014-02-12T13:32:45.000Z</time>
      </trkpt>
      <trkpt lat="45.92024" lon="6.51146">
        <ele>2135</ele>
        <time>2014-02-12T13:32:46.000Z</time>
      </trkpt>
      <trkpt lat="45.92024" lon="6.51146">
        <ele>2135</ele>
        <time>2014-02-12T13:32:47.000Z</time>
      </trkpt>
      <trkpt lat="45.92024" lon="6.51146">
        <ele>2135</ele>
        <time>2014-02-12T13:32:49.000Z</time>
      </trkpt>
      <trkpt lat="45.92024" lon="6.51146">
        <ele>2135</ele>
        <time>2014-02-12T13:32:50.000Z</time>
      </trkpt>
      <trkpt lat="45.92024" lon="6.51146">
        <ele>2135</ele>
        <time>2014-02-12T13:32:51.000Z</time>
      </trkpt>
      <trkpt lat="45.92024" lon="6.51146">
        <ele>2135</ele>
        <time>2014-02-12T13:32:52.000Z</time>
      </trkpt>
      <trkpt lat="45.92024" lon="6.51146">
        <ele>2135</ele>
        <time>2014-02-12T13:32:53.000Z</time>
      </trkpt>
      <trkpt lat="45.92024" lon="6.51146">
        <ele>2135</ele>
        <time>2014-02-12T13:32:54.000Z</time>
      </trkpt>
      <trkpt lat="45.92024" lon="6.51146">
        <ele>2135</ele>
        <time>2014-02-12T13:32:55.000Z</time>
      </trkpt>
      <trkpt lat="45.92024" lon="6.51146">
        <ele>2135</ele>
        <time>2014-02-12T13:32:56.000Z</time>
      </trkpt>
      <trkpt lat="45.92024" lon="6.51146">
        <ele>2135</ele>
        <time>2014-02-12T13:32:57.000Z</time>
      </trkpt>
      <trkpt lat="45.92024" lon="6.51146">
        <ele>2135</ele>
        <time>2014-02-12T13:32:58.000Z</time>
      </trkpt>
      <trkpt lat="45.92024" lon="6.51146">
        <ele>2135</ele>
        <time>2014-02-12T13:32:59.000Z</time>
      </trkpt>
      <trkpt lat="45.92024" lon="6.51146">
        <ele>2135</ele>
        <time>2014-02-12T13:33:00.000Z</time>
      </trkpt>
      <trkpt lat="45.92024" lon="6.51146">
        <ele>2135</ele>
        <time>2014-02-12T13:33:01.000Z</time>
      </trkpt>
      <trkpt lat="45.92024" lon="6.51146">
        <ele>2135</ele>
        <time>2014-02-12T13:33:02.000Z</time>
      </trkpt>
      <trkpt lat="45.92024" lon="6.51146">
        <ele>2135</ele>
        <time>2014-02-12T13:33:03.000Z</time>
      </trkpt>
      <trkpt lat="45.92024" lon="6.51146">
        <ele>2135</ele>
        <time>2014-02-12T13:33:04.000Z</time>
      </trkpt>
      <trkpt lat="45.92024" lon="6.51146">
        <ele>2135</ele>
        <time>2014-02-12T13:33:05.000Z</time>
      </trkpt>
      <trkpt lat="45.92024" lon="6.51146">
        <ele>2135</ele>
        <time>2014-02-12T13:33:06.000Z</time>
      </trkpt>
      <trkpt lat="45.92025" lon="6.51147">
        <ele>2135</ele>
        <time>2014-02-12T13:33:07.000Z</time>
      </trkpt>
      <trkpt lat="45.92025" lon="6.51147">
        <ele>2135</ele>
        <time>2014-02-12T13:33:08.000Z</time>
      </trkpt>
      <trkpt lat="45.92025" lon="6.51147">
        <ele>2135</ele>
        <time>2014-02-12T13:33:09.000Z</time>
      </trkpt>
      <trkpt lat="45.92025" lon="6.51146">
        <ele>2134.6000976562</ele>
        <time>2014-02-12T13:33:10.000Z</time>
      </trkpt>
      <trkpt lat="45.92023" lon="6.51143">
        <ele>2135</ele>
        <time>2014-02-12T13:33:11.000Z</time>
      </trkpt>
      <trkpt lat="45.92022" lon="6.51141">
        <ele>2135</ele>
        <time>2014-02-12T13:33:12.000Z</time>
      </trkpt>
      <trkpt lat="45.9202" lon="6.51138">
        <ele>2135.1999511719</ele>
        <time>2014-02-12T13:33:13.000Z</time>
      </trkpt>
      <trkpt lat="45.92017" lon="6.51135">
        <ele>2135.6000976562</ele>
        <time>2014-02-12T13:33:14.000Z</time>
      </trkpt>
      <trkpt lat="45.92014" lon="6.51131">
        <ele>2135.8000488281</ele>
        <time>2014-02-12T13:33:15.000Z</time>
      </trkpt>
      <trkpt lat="45.92012" lon="6.51126">
        <ele>2136</ele>
        <time>2014-02-12T13:33:16.000Z</time>
      </trkpt>
      <trkpt lat="45.92009" lon="6.51122">
        <ele>2136</ele>
        <time>2014-02-12T13:33:17.000Z</time>
      </trkpt>
      <trkpt lat="45.92007" lon="6.51117">
        <ele>2136</ele>
        <time>2014-02-12T13:33:18.000Z</time>
      </trkpt>
      <trkpt lat="45.92006" lon="6.51113">
        <ele>2135.8000488281</ele>
        <time>2014-02-12T13:33:19.000Z</time>
      </trkpt>
      <trkpt lat="45.92005" lon="6.51108">
        <ele>2135.3999023438</ele>
        <time>2014-02-12T13:33:20.000Z</time>
      </trkpt>
      <trkpt lat="45.92003" lon="6.51103">
        <ele>2135.1999511719</ele>
        <time>2014-02-12T13:33:21.000Z</time>
      </trkpt>
      <trkpt lat="45.92002" lon="6.51099">
        <ele>2135</ele>
        <time>2014-02-12T13:33:22.000Z</time>
      </trkpt>
      <trkpt lat="45.92" lon="6.51094">
        <ele>2134.6000976562</ele>
        <time>2014-02-12T13:33:23.000Z</time>
      </trkpt>
      <trkpt lat="45.91999" lon="6.51089">
        <ele>2133.1999511719</ele>
        <time>2014-02-12T13:33:24.000Z</time>
      </trkpt>
      <trkpt lat="45.91998" lon="6.51084">
        <ele>2131.6000976562</ele>
        <time>2014-02-12T13:33:25.000Z</time>
      </trkpt>
      <trkpt lat="45.91996" lon="6.51079">
        <ele>2130</ele>
        <time>2014-02-12T13:33:26.000Z</time>
      </trkpt>
      <trkpt lat="45.91995" lon="6.51075">
        <ele>2128.6000976562</ele>
        <time>2014-02-12T13:33:27.000Z</time>
      </trkpt>
      <trkpt lat="45.91994" lon="6.51071">
        <ele>2127.1999511719</ele>
        <time>2014-02-12T13:33:28.000Z</time>
      </trkpt>
      <trkpt lat="45.91993" lon="6.51066">
        <ele>2126</ele>
        <time>2014-02-12T13:33:29.000Z</time>
      </trkpt>
      <trkpt lat="45.91992" lon="6.51062">
        <ele>2126.1999511719</ele>
        <time>2014-02-12T13:33:30.000Z</time>
      </trkpt>
      <trkpt lat="45.91991" lon="6.51058">
        <ele>2126.3999023438</ele>
        <time>2014-02-12T13:33:31.000Z</time>
      </trkpt>
      <trkpt lat="45.91989" lon="6.51054">
        <ele>2127</ele>
        <time>2014-02-12T13:33:32.000Z</time>
      </trkpt>
      <trkpt lat="45.91988" lon="6.5105">
        <ele>2127.1999511719</ele>
        <time>2014-02-12T13:33:33.000Z</time>
      </trkpt>
      <trkpt lat="45.91987" lon="6.51047">
        <ele>2127.6000976562</ele>
        <time>2014-02-12T13:33:34.000Z</time>
      </trkpt>
      <trkpt lat="45.91988" lon="6.51049">
        <ele>2127</ele>
        <time>2014-02-12T13:33:35.000Z</time>
      </trkpt>
      <trkpt lat="45.91989" lon="6.5105">
        <ele>2126.6000976562</ele>
        <time>2014-02-12T13:33:36.000Z</time>
      </trkpt>
      <trkpt lat="45.9199" lon="6.5105">
        <ele>2126</ele>
        <time>2014-02-12T13:33:37.000Z</time>
      </trkpt>
      <trkpt lat="45.91991" lon="6.51049">
        <ele>2125.3999023438</ele>
        <time>2014-02-12T13:33:38.000Z</time>
      </trkpt>
      <trkpt lat="45.91991" lon="6.51048">
        <ele>2125</ele>
        <time>2014-02-12T13:33:39.000Z</time>
      </trkpt>
      <trkpt lat="45.91992" lon="6.51046">
        <ele>2124.6000976562</ele>
        <time>2014-02-12T13:33:40.000Z</time>
      </trkpt>
      <trkpt lat="45.91992" lon="6.51046">
        <ele>2124</ele>
        <time>2014-02-12T13:33:41.000Z</time>
      </trkpt>
      <trkpt lat="45.91993" lon="6.51045">
        <ele>2123.6000976562</ele>
        <time>2014-02-12T13:33:42.000Z</time>
      </trkpt>
      <trkpt lat="45.91993" lon="6.51043">
        <ele>2123.3999023438</ele>
        <time>2014-02-12T13:33:43.000Z</time>
      </trkpt>
      <trkpt lat="45.91993" lon="6.5104">
        <ele>2123</ele>
        <time>2014-02-12T13:33:44.000Z</time>
      </trkpt>
      <trkpt lat="45.91993" lon="6.51038">
        <ele>2122.6000976562</ele>
        <time>2014-02-12T13:33:45.000Z</time>
      </trkpt>
      <trkpt lat="45.91993" lon="6.51036">
        <ele>2122.1999511719</ele>
        <time>2014-02-12T13:33:46.000Z</time>
      </trkpt>
      <trkpt lat="45.91994" lon="6.51034">
        <ele>2121.6000976562</ele>
        <time>2014-02-12T13:33:47.000Z</time>
      </trkpt>
      <trkpt lat="45.91994" lon="6.5103">
        <ele>2120.8000488281</ele>
        <time>2014-02-12T13:33:48.000Z</time>
      </trkpt>
      <trkpt lat="45.91995" lon="6.51026">
        <ele>2120</ele>
        <time>2014-02-12T13:33:49.000Z</time>
      </trkpt>
      <trkpt lat="45.91996" lon="6.5102">
        <ele>2118.6000976562</ele>
        <time>2014-02-12T13:33:50.000Z</time>
      </trkpt>
      <trkpt lat="45.91998" lon="6.51015">
        <ele>2116.6000976562</ele>
        <time>2014-02-12T13:33:51.000Z</time>
      </trkpt>
      <trkpt lat="45.92" lon="6.51008">
        <ele>2114.8000488281</ele>
        <time>2014-02-12T13:33:52.000Z</time>
      </trkpt>
      <trkpt lat="45.92001" lon="6.51005">
        <ele>2113.8000488281</ele>
        <time>2014-02-12T13:33:53.000Z</time>
      </trkpt>
      <trkpt lat="45.92002" lon="6.51003">
        <ele>2113.3999023438</ele>
        <time>2014-02-12T13:33:54.000Z</time>
      </trkpt>
      <trkpt lat="45.92003" lon="6.51001">
        <ele>2113</ele>
        <time>2014-02-12T13:33:55.000Z</time>
      </trkpt>
      <trkpt lat="45.92004" lon="6.50998">
        <ele>2112.3999023438</ele>
        <time>2014-02-12T13:33:56.000Z</time>
      </trkpt>
      <trkpt lat="45.92006" lon="6.50994">
        <ele>2111.6000976562</ele>
        <time>2014-02-12T13:33:57.000Z</time>
      </trkpt>
      <trkpt lat="45.92007" lon="6.5099">
        <ele>2110.8000488281</ele>
        <time>2014-02-12T13:33:58.000Z</time>
      </trkpt>
      <trkpt lat="45.92009" lon="6.50986">
        <ele>2109.8000488281</ele>
        <time>2014-02-12T13:33:59.000Z</time>
      </trkpt>
      <trkpt lat="45.92011" lon="6.50982">
        <ele>2109.6000976562</ele>
        <time>2014-02-12T13:34:00.000Z</time>
      </trkpt>
      <trkpt lat="45.92013" lon="6.50977">
        <ele>2109.6000976562</ele>
        <time>2014-02-12T13:34:01.000Z</time>
      </trkpt>
      <trkpt lat="45.92015" lon="6.50972">
        <ele>2109.8000488281</ele>
        <time>2014-02-12T13:34:02.000Z</time>
      </trkpt>
      <trkpt lat="45.92017" lon="6.50966">
        <ele>2110</ele>
        <time>2014-02-12T13:34:03.000Z</time>
      </trkpt>
      <trkpt lat="45.9202" lon="6.5096">
        <ele>2110.1999511719</ele>
        <time>2014-02-12T13:34:04.000Z</time>
      </trkpt>
      <trkpt lat="45.92022" lon="6.50956">
        <ele>2109.8000488281</ele>
        <time>2014-02-12T13:34:05.000Z</time>
      </trkpt>
      <trkpt lat="45.92025" lon="6.50953">
        <ele>2109.1999511719</ele>
        <time>2014-02-12T13:34:06.000Z</time>
      </trkpt>
      <trkpt lat="45.92026" lon="6.50953">
        <ele>2108.3999023438</ele>
        <time>2014-02-12T13:34:07.000Z</time>
      </trkpt>
      <trkpt lat="45.92028" lon="6.50953">
        <ele>2107.1999511719</ele>
        <time>2014-02-12T13:34:08.000Z</time>
      </trkpt>
      <trkpt lat="45.92028" lon="6.50953">
        <ele>2107.1999511719</ele>
        <time>2014-02-12T13:34:09.000Z</time>
      </trkpt>
      <trkpt lat="45.92028" lon="6.50953">
        <ele>2107.1999511719</ele>
        <time>2014-02-12T13:34:10.000Z</time>
      </trkpt>
      <trkpt lat="45.92028" lon="6.50953">
        <ele>2107.1999511719</ele>
        <time>2014-02-12T13:34:11.000Z</time>
      </trkpt>
      <trkpt lat="45.92028" lon="6.50953">
        <ele>2107.1999511719</ele>
        <time>2014-02-12T13:34:12.000Z</time>
      </trkpt>
      <trkpt lat="45.92028" lon="6.50953">
        <ele>2107.1999511719</ele>
        <time>2014-02-12T13:34:13.000Z</time>
      </trkpt>
      <trkpt lat="45.92028" lon="6.50953">
        <ele>2107.1999511719</ele>
        <time>2014-02-12T13:34:14.000Z</time>
      </trkpt>
      <trkpt lat="45.92028" lon="6.50953">
        <ele>2107.1999511719</ele>
        <time>2014-02-12T13:34:15.000Z</time>
      </trkpt>
      <trkpt lat="45.92028" lon="6.50953">
        <ele>2107.1999511719</ele>
        <time>2014-02-12T13:34:16.000Z</time>
      </trkpt>
      <trkpt lat="45.92028" lon="6.50953">
        <ele>2107.1999511719</ele>
        <time>2014-02-12T13:34:17.000Z</time>
      </trkpt>
      <trkpt lat="45.92028" lon="6.50953">
        <ele>2107.1999511719</ele>
        <time>2014-02-12T13:34:18.000Z</time>
      </trkpt>
      <trkpt lat="45.92028" lon="6.50953">
        <ele>2107.1999511719</ele>
        <time>2014-02-12T13:34:19.000Z</time>
      </trkpt>
      <trkpt lat="45.92028" lon="6.50953">
        <ele>2107.1999511719</ele>
        <time>2014-02-12T13:34:20.000Z</time>
      </trkpt>
      <trkpt lat="45.92028" lon="6.50953">
        <ele>2107.1999511719</ele>
        <time>2014-02-12T13:34:21.000Z</time>
      </trkpt>
      <trkpt lat="45.92028" lon="6.50953">
        <ele>2107.1999511719</ele>
        <time>2014-02-12T13:34:22.000Z</time>
      </trkpt>
      <trkpt lat="45.92028" lon="6.50953">
        <ele>2107.1999511719</ele>
        <time>2014-02-12T13:34:24.000Z</time>
      </trkpt>
      <trkpt lat="45.92028" lon="6.50953">
        <ele>2107.1999511719</ele>
        <time>2014-02-12T13:34:26.000Z</time>
      </trkpt>
      <trkpt lat="45.92028" lon="6.50953">
        <ele>2107.1999511719</ele>
        <time>2014-02-12T13:34:27.000Z</time>
      </trkpt>
      <trkpt lat="45.92028" lon="6.50953">
        <ele>2107.1999511719</ele>
        <time>2014-02-12T13:34:28.000Z</time>
      </trkpt>
      <trkpt lat="45.92028" lon="6.50953">
        <ele>2107.1999511719</ele>
        <time>2014-02-12T13:34:29.000Z</time>
      </trkpt>
      <trkpt lat="45.92028" lon="6.50953">
        <ele>2107.1999511719</ele>
        <time>2014-02-12T13:34:30.000Z</time>
      </trkpt>
      <trkpt lat="45.92028" lon="6.50953">
        <ele>2107.1999511719</ele>
        <time>2014-02-12T13:34:31.000Z</time>
      </trkpt>
      <trkpt lat="45.92028" lon="6.50953">
        <ele>2107.1999511719</ele>
        <time>2014-02-12T13:34:32.000Z</time>
      </trkpt>
      <trkpt lat="45.92028" lon="6.50953">
        <ele>2107.1999511719</ele>
        <time>2014-02-12T13:34:33.000Z</time>
      </trkpt>
      <trkpt lat="45.92028" lon="6.50953">
        <ele>2107.1999511719</ele>
        <time>2014-02-12T13:34:34.000Z</time>
      </trkpt>
      <trkpt lat="45.92028" lon="6.50953">
        <ele>2107.1999511719</ele>
        <time>2014-02-12T13:34:35.000Z</time>
      </trkpt>
      <trkpt lat="45.92028" lon="6.50953">
        <ele>2107.1999511719</ele>
        <time>2014-02-12T13:34:36.000Z</time>
      </trkpt>
      <trkpt lat="45.92028" lon="6.50953">
        <ele>2107.1999511719</ele>
        <time>2014-02-12T13:34:38.000Z</time>
      </trkpt>
      <trkpt lat="45.92028" lon="6.50953">
        <ele>2107.1999511719</ele>
        <time>2014-02-12T13:34:39.000Z</time>
      </trkpt>
      <trkpt lat="45.92032" lon="6.50951">
        <ele>2103.1999511719</ele>
        <time>2014-02-12T13:34:41.000Z</time>
      </trkpt>
      <trkpt lat="45.92035" lon="6.50948">
        <ele>2100.6000976562</ele>
        <time>2014-02-12T13:34:42.000Z</time>
      </trkpt>
      <trkpt lat="45.92038" lon="6.50945">
        <ele>2097.1999511719</ele>
        <time>2014-02-12T13:34:43.000Z</time>
      </trkpt>
      <trkpt lat="45.92042" lon="6.50941">
        <ele>2093.8000488281</ele>
        <time>2014-02-12T13:34:44.000Z</time>
      </trkpt>
      <trkpt lat="45.92045" lon="6.50938">
        <ele>2090.1999511719</ele>
        <time>2014-02-12T13:34:45.000Z</time>
      </trkpt>
      <trkpt lat="45.92049" lon="6.50937">
        <ele>2086.6000976562</ele>
        <time>2014-02-12T13:34:46.000Z</time>
      </trkpt>
      <trkpt lat="45.92052" lon="6.5094">
        <ele>2084.3999023438</ele>
        <time>2014-02-12T13:34:47.000Z</time>
      </trkpt>
      <trkpt lat="45.92056" lon="6.50941">
        <ele>2080.3999023438</ele>
        <time>2014-02-12T13:34:48.000Z</time>
      </trkpt>
      <trkpt lat="45.92061" lon="6.5094">
        <ele>2078</ele>
        <time>2014-02-12T13:34:49.000Z</time>
      </trkpt>
      <trkpt lat="45.92066" lon="6.50942">
        <ele>2075.1999511719</ele>
        <time>2014-02-12T13:34:50.000Z</time>
      </trkpt>
      <trkpt lat="45.92068" lon="6.50942">
        <ele>2074</ele>
        <time>2014-02-12T13:34:51.000Z</time>
      </trkpt>
      <trkpt lat="45.92073" lon="6.50945">
        <ele>2071.6000976562</ele>
        <time>2014-02-12T13:34:52.000Z</time>
      </trkpt>
      <trkpt lat="45.92077" lon="6.50947">
        <ele>2069.1999511719</ele>
        <time>2014-02-12T13:34:53.000Z</time>
      </trkpt>
      <trkpt lat="45.92081" lon="6.50951">
        <ele>2067.6000976562</ele>
        <time>2014-02-12T13:34:54.000Z</time>
      </trkpt>
      <trkpt lat="45.92085" lon="6.50953">
        <ele>2065.3999023438</ele>
        <time>2014-02-12T13:34:55.000Z</time>
      </trkpt>
      <trkpt lat="45.9209" lon="6.50954">
        <ele>2062.8000488281</ele>
        <time>2014-02-12T13:34:56.000Z</time>
      </trkpt>
      <trkpt lat="45.92096" lon="6.50958">
        <ele>2059.8000488281</ele>
        <time>2014-02-12T13:34:57.000Z</time>
      </trkpt>
      <trkpt lat="45.92102" lon="6.50959">
        <ele>2056.6000976562</ele>
        <time>2014-02-12T13:34:58.000Z</time>
      </trkpt>
      <trkpt lat="45.92109" lon="6.5096">
        <ele>2052.1999511719</ele>
        <time>2014-02-12T13:34:59.000Z</time>
      </trkpt>
      <trkpt lat="45.92118" lon="6.50959">
        <ele>2047.4000244141</ele>
        <time>2014-02-12T13:35:00.000Z</time>
      </trkpt>
      <trkpt lat="45.92126" lon="6.5096">
        <ele>2043</ele>
        <time>2014-02-12T13:35:01.000Z</time>
      </trkpt>
      <trkpt lat="45.92133" lon="6.50961">
        <ele>2039.1999511719</ele>
        <time>2014-02-12T13:35:02.000Z</time>
      </trkpt>
      <trkpt lat="45.92139" lon="6.50962">
        <ele>2035.8000488281</ele>
        <time>2014-02-12T13:35:03.000Z</time>
      </trkpt>
      <trkpt lat="45.92144" lon="6.50959">
        <ele>2033</ele>
        <time>2014-02-12T13:35:04.000Z</time>
      </trkpt>
      <trkpt lat="45.92149" lon="6.50957">
        <ele>2030.1999511719</ele>
        <time>2014-02-12T13:35:05.000Z</time>
      </trkpt>
      <trkpt lat="45.92155" lon="6.50957">
        <ele>2027.4000244141</ele>
        <time>2014-02-12T13:35:06.000Z</time>
      </trkpt>
      <trkpt lat="45.92158" lon="6.50961">
        <ele>2026.1999511719</ele>
        <time>2014-02-12T13:35:07.000Z</time>
      </trkpt>
      <trkpt lat="45.92163" lon="6.50965">
        <ele>2024</ele>
        <time>2014-02-12T13:35:08.000Z</time>
      </trkpt>
      <trkpt lat="45.92168" lon="6.50968">
        <ele>2021.5999755859</ele>
        <time>2014-02-12T13:35:09.000Z</time>
      </trkpt>
      <trkpt lat="45.92173" lon="6.50972">
        <ele>2019.4000244141</ele>
        <time>2014-02-12T13:35:10.000Z</time>
      </trkpt>
      <trkpt lat="45.92178" lon="6.50975">
        <ele>2017.1999511719</ele>
        <time>2014-02-12T13:35:11.000Z</time>
      </trkpt>
      <trkpt lat="45.9218" lon="6.50973">
        <ele>2016</ele>
        <time>2014-02-12T13:35:12.000Z</time>
      </trkpt>
      <trkpt lat="45.92184" lon="6.50972">
        <ele>2014.1999511719</ele>
        <time>2014-02-12T13:35:13.000Z</time>
      </trkpt>
      <trkpt lat="45.92182" lon="6.50966">
        <ele>2014.5999755859</ele>
        <time>2014-02-12T13:35:14.000Z</time>
      </trkpt>
      <trkpt lat="45.92187" lon="6.5097">
        <ele>2012.5999755859</ele>
        <time>2014-02-12T13:35:15.000Z</time>
      </trkpt>
      <trkpt lat="45.92185" lon="6.50968">
        <ele>2013</ele>
        <time>2014-02-12T13:35:16.000Z</time>
      </trkpt>
      <trkpt lat="45.92187" lon="6.50971">
        <ele>2012.8000488281</ele>
        <time>2014-02-12T13:35:17.000Z</time>
      </trkpt>
      <trkpt lat="45.92188" lon="6.50974">
        <ele>2012.4000244141</ele>
        <time>2014-02-12T13:35:18.000Z</time>
      </trkpt>
      <trkpt lat="45.92188" lon="6.50975">
        <ele>2012.1999511719</ele>
        <time>2014-02-12T13:35:19.000Z</time>
      </trkpt>
      <trkpt lat="45.92189" lon="6.50977">
        <ele>2012</ele>
        <time>2014-02-12T13:35:20.000Z</time>
      </trkpt>
      <trkpt lat="45.92189" lon="6.50977">
        <ele>2012</ele>
        <time>2014-02-12T13:35:21.000Z</time>
      </trkpt>
      <trkpt lat="45.92189" lon="6.50977">
        <ele>2012.1999511719</ele>
        <time>2014-02-12T13:35:22.000Z</time>
      </trkpt>
      <trkpt lat="45.92188" lon="6.50978">
        <ele>2012.4000244141</ele>
        <time>2014-02-12T13:35:23.000Z</time>
      </trkpt>
      <trkpt lat="45.92188" lon="6.50977">
        <ele>2012.5999755859</ele>
        <time>2014-02-12T13:35:24.000Z</time>
      </trkpt>
      <trkpt lat="45.92187" lon="6.50977">
        <ele>2013</ele>
        <time>2014-02-12T13:35:25.000Z</time>
      </trkpt>
      <trkpt lat="45.92184" lon="6.50979">
        <ele>2014.5999755859</ele>
        <time>2014-02-12T13:35:26.000Z</time>
      </trkpt>
      <trkpt lat="45.92183" lon="6.5098">
        <ele>2015.4000244141</ele>
        <time>2014-02-12T13:35:27.000Z</time>
      </trkpt>
      <trkpt lat="45.92183" lon="6.5098">
        <ele>2015.4000244141</ele>
        <time>2014-02-12T13:35:30.000Z</time>
      </trkpt>
      <trkpt lat="45.92183" lon="6.5098">
        <ele>2015.4000244141</ele>
        <time>2014-02-12T13:35:31.000Z</time>
      </trkpt>
      <trkpt lat="45.92183" lon="6.5098">
        <ele>2015.4000244141</ele>
        <time>2014-02-12T13:35:33.000Z</time>
      </trkpt>
      <trkpt lat="45.92183" lon="6.5098">
        <ele>2015.4000244141</ele>
        <time>2014-02-12T13:35:35.000Z</time>
      </trkpt>
      <trkpt lat="45.92183" lon="6.5098">
        <ele>2015.4000244141</ele>
        <time>2014-02-12T13:35:36.000Z</time>
      </trkpt>
      <trkpt lat="45.92183" lon="6.5098">
        <ele>2015.4000244141</ele>
        <time>2014-02-12T13:35:37.000Z</time>
      </trkpt>
      <trkpt lat="45.92183" lon="6.5098">
        <ele>2015.4000244141</ele>
        <time>2014-02-12T13:35:40.000Z</time>
      </trkpt>
      <trkpt lat="45.92183" lon="6.5098">
        <ele>2015.4000244141</ele>
        <time>2014-02-12T13:35:41.000Z</time>
      </trkpt>
      <trkpt lat="45.92183" lon="6.5098">
        <ele>2015.4000244141</ele>
        <time>2014-02-12T13:35:42.000Z</time>
      </trkpt>
      <trkpt lat="45.92183" lon="6.5098">
        <ele>2015.4000244141</ele>
        <time>2014-02-12T13:35:43.000Z</time>
      </trkpt>
      <trkpt lat="45.92183" lon="6.5098">
        <ele>2015.4000244141</ele>
        <time>2014-02-12T13:35:44.000Z</time>
      </trkpt>
      <trkpt lat="45.92183" lon="6.5098">
        <ele>2015.4000244141</ele>
        <time>2014-02-12T13:35:47.000Z</time>
      </trkpt>
      <trkpt lat="45.92183" lon="6.5098">
        <ele>2015.4000244141</ele>
        <time>2014-02-12T13:35:48.000Z</time>
      </trkpt>
      <trkpt lat="45.92183" lon="6.5098">
        <ele>2015.4000244141</ele>
        <time>2014-02-12T13:35:49.000Z</time>
      </trkpt>
      <trkpt lat="45.92183" lon="6.5098">
        <ele>2015.4000244141</ele>
        <time>2014-02-12T13:35:51.000Z</time>
      </trkpt>
      <trkpt lat="45.92183" lon="6.5098">
        <ele>2015.4000244141</ele>
        <time>2014-02-12T13:35:52.000Z</time>
      </trkpt>
      <trkpt lat="45.92183" lon="6.5098">
        <ele>2015.4000244141</ele>
        <time>2014-02-12T13:35:53.000Z</time>
      </trkpt>
      <trkpt lat="45.92183" lon="6.5098">
        <ele>2015.4000244141</ele>
        <time>2014-02-12T13:35:54.000Z</time>
      </trkpt>
      <trkpt lat="45.92183" lon="6.5098">
        <ele>2015.4000244141</ele>
        <time>2014-02-12T13:35:55.000Z</time>
      </trkpt>
      <trkpt lat="45.92183" lon="6.5098">
        <ele>2015.4000244141</ele>
        <time>2014-02-12T13:35:56.000Z</time>
      </trkpt>
      <trkpt lat="45.92183" lon="6.5098">
        <ele>2015.4000244141</ele>
        <time>2014-02-12T13:35:57.000Z</time>
      </trkpt>
      <trkpt lat="45.92179" lon="6.50977">
        <ele>2017.1999511719</ele>
        <time>2014-02-12T13:35:58.000Z</time>
      </trkpt>
      <trkpt lat="45.92176" lon="6.50974">
        <ele>2018.4000244141</ele>
        <time>2014-02-12T13:35:59.000Z</time>
      </trkpt>
      <trkpt lat="45.92175" lon="6.5097">
        <ele>2018.4000244141</ele>
        <time>2014-02-12T13:36:00.000Z</time>
      </trkpt>
      <trkpt lat="45.92174" lon="6.50964">
        <ele>2018.8000488281</ele>
        <time>2014-02-12T13:36:01.000Z</time>
      </trkpt>
      <trkpt lat="45.92174" lon="6.50962">
        <ele>2018</ele>
        <time>2014-02-12T13:36:02.000Z</time>
      </trkpt>
      <trkpt lat="45.92176" lon="6.50959">
        <ele>2017.1999511719</ele>
        <time>2014-02-12T13:36:03.000Z</time>
      </trkpt>
      <trkpt lat="45.92178" lon="6.50957">
        <ele>2016</ele>
        <time>2014-02-12T13:36:04.000Z</time>
      </trkpt>
      <trkpt lat="45.92182" lon="6.50959">
        <ele>2014.1999511719</ele>
        <time>2014-02-12T13:36:05.000Z</time>
      </trkpt>
      <trkpt lat="45.92187" lon="6.50964">
        <ele>2011.8000488281</ele>
        <time>2014-02-12T13:36:06.000Z</time>
      </trkpt>
      <trkpt lat="45.9219" lon="6.50965">
        <ele>2010.4000244141</ele>
        <time>2014-02-12T13:36:07.000Z</time>
      </trkpt>
      <trkpt lat="45.92192" lon="6.50963">
        <ele>2009.1999511719</ele>
        <time>2014-02-12T13:36:08.000Z</time>
      </trkpt>
      <trkpt lat="45.92196" lon="6.50961">
        <ele>2007</ele>
        <time>2014-02-12T13:36:09.000Z</time>
      </trkpt>
      <trkpt lat="45.92199" lon="6.50957">
        <ele>2004.8000488281</ele>
        <time>2014-02-12T13:36:10.000Z</time>
      </trkpt>
      <trkpt lat="45.92203" lon="6.50953">
        <ele>2001.5999755859</ele>
        <time>2014-02-12T13:36:11.000Z</time>
      </trkpt>
      <trkpt lat="45.92208" lon="6.50949">
        <ele>1998.4000244141</ele>
        <time>2014-02-12T13:36:12.000Z</time>
      </trkpt>
      <trkpt lat="45.92212" lon="6.50945">
        <ele>1995.4000244141</ele>
        <time>2014-02-12T13:36:13.000Z</time>
      </trkpt>
      <trkpt lat="45.92216" lon="6.50941">
        <ele>1992.1999511719</ele>
        <time>2014-02-12T13:36:14.000Z</time>
      </trkpt>
      <trkpt lat="45.92218" lon="6.50941">
        <ele>1990.8000488281</ele>
        <time>2014-02-12T13:36:15.000Z</time>
      </trkpt>
      <trkpt lat="45.92221" lon="6.50943">
        <ele>1989.4000244141</ele>
        <time>2014-02-12T13:36:16.000Z</time>
      </trkpt>
      <trkpt lat="45.92224" lon="6.50942">
        <ele>1987.5999755859</ele>
        <time>2014-02-12T13:36:17.000Z</time>
      </trkpt>
      <trkpt lat="45.92227" lon="6.50942">
        <ele>1987.4000244141</ele>
        <time>2014-02-12T13:36:18.000Z</time>
      </trkpt>
      <trkpt lat="45.92232" lon="6.50943">
        <ele>1987.1999511719</ele>
        <time>2014-02-12T13:36:19.000Z</time>
      </trkpt>
      <trkpt lat="45.92238" lon="6.50947">
        <ele>1987.1999511719</ele>
        <time>2014-02-12T13:36:20.000Z</time>
      </trkpt>
      <trkpt lat="45.92245" lon="6.5095">
        <ele>1987.1999511719</ele>
        <time>2014-02-12T13:36:21.000Z</time>
      </trkpt>
      <trkpt lat="45.9225" lon="6.50951">
        <ele>1987</ele>
        <time>2014-02-12T13:36:22.000Z</time>
      </trkpt>
      <trkpt lat="45.92254" lon="6.50952">
        <ele>1986.8000488281</ele>
        <time>2014-02-12T13:36:23.000Z</time>
      </trkpt>
      <trkpt lat="45.92261" lon="6.50954">
        <ele>1986.5999755859</ele>
        <time>2014-02-12T13:36:24.000Z</time>
      </trkpt>
      <trkpt lat="45.92267" lon="6.50956">
        <ele>1986.4000244141</ele>
        <time>2014-02-12T13:36:25.000Z</time>
      </trkpt>
      <trkpt lat="45.92272" lon="6.50956">
        <ele>1986</ele>
        <time>2014-02-12T13:36:26.000Z</time>
      </trkpt>
      <trkpt lat="45.92276" lon="6.50954">
        <ele>1985.1999511719</ele>
        <time>2014-02-12T13:36:27.000Z</time>
      </trkpt>
      <trkpt lat="45.92281" lon="6.50951">
        <ele>1983</ele>
        <time>2014-02-12T13:36:28.000Z</time>
      </trkpt>
      <trkpt lat="45.92287" lon="6.50948">
        <ele>1980.5999755859</ele>
        <time>2014-02-12T13:36:29.000Z</time>
      </trkpt>
      <trkpt lat="45.92292" lon="6.50945">
        <ele>1978.4000244141</ele>
        <time>2014-02-12T13:36:30.000Z</time>
      </trkpt>
      <trkpt lat="45.92296" lon="6.50941">
        <ele>1975.5999755859</ele>
        <time>2014-02-12T13:36:31.000Z</time>
      </trkpt>
      <trkpt lat="45.92302" lon="6.50936">
        <ele>1972.4000244141</ele>
        <time>2014-02-12T13:36:32.000Z</time>
      </trkpt>
      <trkpt lat="45.92308" lon="6.50931">
        <ele>1969.1999511719</ele>
        <time>2014-02-12T13:36:33.000Z</time>
      </trkpt>
      <trkpt lat="45.92315" lon="6.50928">
        <ele>1968.5999755859</ele>
        <time>2014-02-12T13:36:34.000Z</time>
      </trkpt>
      <trkpt lat="45.92321" lon="6.50929">
        <ele>1970</ele>
        <time>2014-02-12T13:36:35.000Z</time>
      </trkpt>
      <trkpt lat="45.92325" lon="6.50931">
        <ele>1971.1999511719</ele>
        <time>2014-02-12T13:36:36.000Z</time>
      </trkpt>
      <trkpt lat="45.9233" lon="6.50932">
        <ele>1972</ele>
        <time>2014-02-12T13:36:37.000Z</time>
      </trkpt>
      <trkpt lat="45.92335" lon="6.50932">
        <ele>1972.5999755859</ele>
        <time>2014-02-12T13:36:38.000Z</time>
      </trkpt>
      <trkpt lat="45.9234" lon="6.50932">
        <ele>1973.1999511719</ele>
        <time>2014-02-12T13:36:39.000Z</time>
      </trkpt>
      <trkpt lat="45.92346" lon="6.50932">
        <ele>1973.5999755859</ele>
        <time>2014-02-12T13:36:40.000Z</time>
      </trkpt>
      <trkpt lat="45.92352" lon="6.50932">
        <ele>1973.8000488281</ele>
        <time>2014-02-12T13:36:41.000Z</time>
      </trkpt>
      <trkpt lat="45.92359" lon="6.50932">
        <ele>1973.8000488281</ele>
        <time>2014-02-12T13:36:42.000Z</time>
      </trkpt>
      <trkpt lat="45.92366" lon="6.50931">
        <ele>1974.1999511719</ele>
        <time>2014-02-12T13:36:43.000Z</time>
      </trkpt>
      <trkpt lat="45.92372" lon="6.50931">
        <ele>1974.4000244141</ele>
        <time>2014-02-12T13:36:44.000Z</time>
      </trkpt>
      <trkpt lat="45.92377" lon="6.50931">
        <ele>1974.5999755859</ele>
        <time>2014-02-12T13:36:45.000Z</time>
      </trkpt>
      <trkpt lat="45.92382" lon="6.50931">
        <ele>1975</ele>
        <time>2014-02-12T13:36:46.000Z</time>
      </trkpt>
      <trkpt lat="45.92386" lon="6.50932">
        <ele>1975.5999755859</ele>
        <time>2014-02-12T13:36:47.000Z</time>
      </trkpt>
      <trkpt lat="45.9239" lon="6.50933">
        <ele>1976.4000244141</ele>
        <time>2014-02-12T13:36:48.000Z</time>
      </trkpt>
      <trkpt lat="45.92391" lon="6.50934">
        <ele>1977.1999511719</ele>
        <time>2014-02-12T13:36:49.000Z</time>
      </trkpt>
      <trkpt lat="45.92392" lon="6.50934">
        <ele>1977.8000488281</ele>
        <time>2014-02-12T13:36:50.000Z</time>
      </trkpt>
      <trkpt lat="45.92395" lon="6.50935">
        <ele>1979.1999511719</ele>
        <time>2014-02-12T13:36:51.000Z</time>
      </trkpt>
      <trkpt lat="45.92395" lon="6.50935">
        <ele>1979.1999511719</ele>
        <time>2014-02-12T13:36:52.000Z</time>
      </trkpt>
      <trkpt lat="45.92395" lon="6.50935">
        <ele>1979.1999511719</ele>
        <time>2014-02-12T13:36:53.000Z</time>
      </trkpt>
      <trkpt lat="45.92395" lon="6.50935">
        <ele>1979.1999511719</ele>
        <time>2014-02-12T13:36:54.000Z</time>
      </trkpt>
      <trkpt lat="45.92395" lon="6.50935">
        <ele>1979.1999511719</ele>
        <time>2014-02-12T13:36:55.000Z</time>
      </trkpt>
      <trkpt lat="45.92395" lon="6.50935">
        <ele>1979.1999511719</ele>
        <time>2014-02-12T13:36:56.000Z</time>
      </trkpt>
      <trkpt lat="45.92395" lon="6.50935">
        <ele>1979.1999511719</ele>
        <time>2014-02-12T13:36:57.000Z</time>
      </trkpt>
      <trkpt lat="45.92395" lon="6.50935">
        <ele>1979.1999511719</ele>
        <time>2014-02-12T13:36:58.000Z</time>
      </trkpt>
      <trkpt lat="45.92395" lon="6.50935">
        <ele>1979.1999511719</ele>
        <time>2014-02-12T13:36:59.000Z</time>
      </trkpt>
      <trkpt lat="45.92395" lon="6.50935">
        <ele>1979.1999511719</ele>
        <time>2014-02-12T13:37:00.000Z</time>
      </trkpt>
      <trkpt lat="45.92395" lon="6.50935">
        <ele>1979.1999511719</ele>
        <time>2014-02-12T13:37:01.000Z</time>
      </trkpt>
      <trkpt lat="45.92395" lon="6.50935">
        <ele>1979.1999511719</ele>
        <time>2014-02-12T13:37:03.000Z</time>
      </trkpt>
      <trkpt lat="45.92395" lon="6.50935">
        <ele>1979.1999511719</ele>
        <time>2014-02-12T13:37:04.000Z</time>
      </trkpt>
      <trkpt lat="45.92395" lon="6.50935">
        <ele>1979.1999511719</ele>
        <time>2014-02-12T13:37:05.000Z</time>
      </trkpt>
      <trkpt lat="45.92395" lon="6.50935">
        <ele>1979.1999511719</ele>
        <time>2014-02-12T13:37:06.000Z</time>
      </trkpt>
      <trkpt lat="45.92395" lon="6.50935">
        <ele>1979.1999511719</ele>
        <time>2014-02-12T13:37:07.000Z</time>
      </trkpt>
      <trkpt lat="45.92395" lon="6.50935">
        <ele>1979.1999511719</ele>
        <time>2014-02-12T13:37:08.000Z</time>
      </trkpt>
      <trkpt lat="45.92395" lon="6.50935">
        <ele>1979.1999511719</ele>
        <time>2014-02-12T13:37:09.000Z</time>
      </trkpt>
      <trkpt lat="45.92395" lon="6.50935">
        <ele>1979.1999511719</ele>
        <time>2014-02-12T13:37:10.000Z</time>
      </trkpt>
      <trkpt lat="45.92395" lon="6.50935">
        <ele>1979.1999511719</ele>
        <time>2014-02-12T13:37:11.000Z</time>
      </trkpt>
      <trkpt lat="45.92395" lon="6.50935">
        <ele>1979.1999511719</ele>
        <time>2014-02-12T13:37:12.000Z</time>
      </trkpt>
      <trkpt lat="45.92395" lon="6.50935">
        <ele>1979.1999511719</ele>
        <time>2014-02-12T13:37:13.000Z</time>
      </trkpt>
      <trkpt lat="45.92395" lon="6.50935">
        <ele>1979.1999511719</ele>
        <time>2014-02-12T13:37:14.000Z</time>
      </trkpt>
      <trkpt lat="45.92395" lon="6.50935">
        <ele>1979.1999511719</ele>
        <time>2014-02-12T13:37:15.000Z</time>
      </trkpt>
      <trkpt lat="45.92395" lon="6.50935">
        <ele>1979.1999511719</ele>
        <time>2014-02-12T13:37:16.000Z</time>
      </trkpt>
      <trkpt lat="45.92395" lon="6.50935">
        <ele>1979.1999511719</ele>
        <time>2014-02-12T13:37:17.000Z</time>
      </trkpt>
      <trkpt lat="45.92395" lon="6.50935">
        <ele>1979.1999511719</ele>
        <time>2014-02-12T13:37:18.000Z</time>
      </trkpt>
      <trkpt lat="45.92395" lon="6.50935">
        <ele>1979.1999511719</ele>
        <time>2014-02-12T13:37:19.000Z</time>
      </trkpt>
      <trkpt lat="45.92395" lon="6.50935">
        <ele>1979.1999511719</ele>
        <time>2014-02-12T13:37:20.000Z</time>
      </trkpt>
      <trkpt lat="45.92395" lon="6.50935">
        <ele>1979.1999511719</ele>
        <time>2014-02-12T13:37:21.000Z</time>
      </trkpt>
      <trkpt lat="45.92395" lon="6.50935">
        <ele>1979.1999511719</ele>
        <time>2014-02-12T13:37:22.000Z</time>
      </trkpt>
      <trkpt lat="45.92395" lon="6.50935">
        <ele>1979.1999511719</ele>
        <time>2014-02-12T13:37:23.000Z</time>
      </trkpt>
      <trkpt lat="45.92395" lon="6.50935">
        <ele>1979.1999511719</ele>
        <time>2014-02-12T13:37:24.000Z</time>
      </trkpt>
      <trkpt lat="45.92395" lon="6.50935">
        <ele>1979.1999511719</ele>
        <time>2014-02-12T13:37:25.000Z</time>
      </trkpt>
      <trkpt lat="45.92395" lon="6.50935">
        <ele>1979.1999511719</ele>
        <time>2014-02-12T13:37:26.000Z</time>
      </trkpt>
      <trkpt lat="45.92395" lon="6.50935">
        <ele>1979.1999511719</ele>
        <time>2014-02-12T13:37:27.000Z</time>
      </trkpt>
      <trkpt lat="45.92395" lon="6.50935">
        <ele>1979.1999511719</ele>
        <time>2014-02-12T13:37:28.000Z</time>
      </trkpt>
      <trkpt lat="45.92395" lon="6.50935">
        <ele>1979.1999511719</ele>
        <time>2014-02-12T13:37:29.000Z</time>
      </trkpt>
      <trkpt lat="45.92395" lon="6.50935">
        <ele>1979.1999511719</ele>
        <time>2014-02-12T13:37:30.000Z</time>
      </trkpt>
      <trkpt lat="45.92398" lon="6.50936">
        <ele>1980.8000488281</ele>
        <time>2014-02-12T13:37:31.000Z</time>
      </trkpt>
      <trkpt lat="45.92398" lon="6.50936">
        <ele>1980.8000488281</ele>
        <time>2014-02-12T13:37:32.000Z</time>
      </trkpt>
      <trkpt lat="45.92398" lon="6.50936">
        <ele>1980.8000488281</ele>
        <time>2014-02-12T13:37:33.000Z</time>
      </trkpt>
      <trkpt lat="45.92398" lon="6.50936">
        <ele>1980.8000488281</ele>
        <time>2014-02-12T13:37:34.000Z</time>
      </trkpt>
      <trkpt lat="45.92398" lon="6.50936">
        <ele>1980.8000488281</ele>
        <time>2014-02-12T13:37:35.000Z</time>
      </trkpt>
      <trkpt lat="45.92398" lon="6.50936">
        <ele>1980.8000488281</ele>
        <time>2014-02-12T13:37:36.000Z</time>
      </trkpt>
      <trkpt lat="45.92398" lon="6.50936">
        <ele>1980.8000488281</ele>
        <time>2014-02-12T13:37:37.000Z</time>
      </trkpt>
      <trkpt lat="45.92398" lon="6.50936">
        <ele>1980.8000488281</ele>
        <time>2014-02-12T13:37:38.000Z</time>
      </trkpt>
      <trkpt lat="45.92398" lon="6.50936">
        <ele>1980.8000488281</ele>
        <time>2014-02-12T13:37:39.000Z</time>
      </trkpt>
      <trkpt lat="45.92398" lon="6.50936">
        <ele>1980.8000488281</ele>
        <time>2014-02-12T13:37:40.000Z</time>
      </trkpt>
      <trkpt lat="45.92398" lon="6.50936">
        <ele>1980.8000488281</ele>
        <time>2014-02-12T13:37:41.000Z</time>
      </trkpt>
      <trkpt lat="45.92398" lon="6.50936">
        <ele>1980.8000488281</ele>
        <time>2014-02-12T13:37:42.000Z</time>
      </trkpt>
      <trkpt lat="45.92398" lon="6.50936">
        <ele>1980.8000488281</ele>
        <time>2014-02-12T13:37:44.000Z</time>
      </trkpt>
      <trkpt lat="45.92398" lon="6.50936">
        <ele>1980.8000488281</ele>
        <time>2014-02-12T13:37:45.000Z</time>
      </trkpt>
      <trkpt lat="45.92398" lon="6.50936">
        <ele>1980.8000488281</ele>
        <time>2014-02-12T13:37:46.000Z</time>
      </trkpt>
      <trkpt lat="45.92398" lon="6.50936">
        <ele>1980.8000488281</ele>
        <time>2014-02-12T13:37:47.000Z</time>
      </trkpt>
      <trkpt lat="45.92398" lon="6.50936">
        <ele>1980.8000488281</ele>
        <time>2014-02-12T13:37:48.000Z</time>
      </trkpt>
      <trkpt lat="45.92398" lon="6.50936">
        <ele>1980.8000488281</ele>
        <time>2014-02-12T13:37:49.000Z</time>
      </trkpt>
      <trkpt lat="45.92398" lon="6.50936">
        <ele>1980.8000488281</ele>
        <time>2014-02-12T13:37:50.000Z</time>
      </trkpt>
      <trkpt lat="45.92398" lon="6.50936">
        <ele>1980.8000488281</ele>
        <time>2014-02-12T13:37:51.000Z</time>
      </trkpt>
      <trkpt lat="45.92398" lon="6.50936">
        <ele>1980.8000488281</ele>
        <time>2014-02-12T13:37:52.000Z</time>
      </trkpt>
      <trkpt lat="45.92398" lon="6.50936">
        <ele>1980.8000488281</ele>
        <time>2014-02-12T13:37:53.000Z</time>
      </trkpt>
      <trkpt lat="45.92398" lon="6.50936">
        <ele>1980.8000488281</ele>
        <time>2014-02-12T13:37:54.000Z</time>
      </trkpt>
      <trkpt lat="45.92398" lon="6.50936">
        <ele>1980.8000488281</ele>
        <time>2014-02-12T13:37:55.000Z</time>
      </trkpt>
      <trkpt lat="45.92398" lon="6.50936">
        <ele>1980.8000488281</ele>
        <time>2014-02-12T13:37:56.000Z</time>
      </trkpt>
      <trkpt lat="45.92398" lon="6.50936">
        <ele>1980.8000488281</ele>
        <time>2014-02-12T13:37:57.000Z</time>
      </trkpt>
      <trkpt lat="45.92398" lon="6.50936">
        <ele>1980.8000488281</ele>
        <time>2014-02-12T13:37:58.000Z</time>
      </trkpt>
      <trkpt lat="45.92398" lon="6.50936">
        <ele>1980.8000488281</ele>
        <time>2014-02-12T13:37:59.000Z</time>
      </trkpt>
      <trkpt lat="45.92398" lon="6.50936">
        <ele>1980.8000488281</ele>
        <time>2014-02-12T13:38:00.000Z</time>
      </trkpt>
      <trkpt lat="45.92398" lon="6.50936">
        <ele>1980.8000488281</ele>
        <time>2014-02-12T13:38:01.000Z</time>
      </trkpt>
      <trkpt lat="45.92398" lon="6.50936">
        <ele>1980.8000488281</ele>
        <time>2014-02-12T13:38:02.000Z</time>
      </trkpt>
      <trkpt lat="45.92398" lon="6.50936">
        <ele>1980.8000488281</ele>
        <time>2014-02-12T13:38:03.000Z</time>
      </trkpt>
      <trkpt lat="45.92398" lon="6.50936">
        <ele>1980.8000488281</ele>
        <time>2014-02-12T13:38:04.000Z</time>
      </trkpt>
      <trkpt lat="45.92398" lon="6.50936">
        <ele>1980.8000488281</ele>
        <time>2014-02-12T13:38:05.000Z</time>
      </trkpt>
      <trkpt lat="45.92398" lon="6.50936">
        <ele>1980.8000488281</ele>
        <time>2014-02-12T13:38:06.000Z</time>
      </trkpt>
      <trkpt lat="45.92398" lon="6.50936">
        <ele>1980.8000488281</ele>
        <time>2014-02-12T13:38:07.000Z</time>
      </trkpt>
      <trkpt lat="45.92398" lon="6.50936">
        <ele>1980.8000488281</ele>
        <time>2014-02-12T13:38:08.000Z</time>
      </trkpt>
      <trkpt lat="45.92398" lon="6.50936">
        <ele>1980.8000488281</ele>
        <time>2014-02-12T13:38:09.000Z</time>
      </trkpt>
      <trkpt lat="45.92398" lon="6.50936">
        <ele>1980.8000488281</ele>
        <time>2014-02-12T13:38:10.000Z</time>
      </trkpt>
      <trkpt lat="45.92401" lon="6.50937">
        <ele>1982.8000488281</ele>
        <time>2014-02-12T13:38:11.000Z</time>
      </trkpt>
      <trkpt lat="45.92401" lon="6.50937">
        <ele>1982.8000488281</ele>
        <time>2014-02-12T13:38:12.000Z</time>
      </trkpt>
      <trkpt lat="45.92401" lon="6.50937">
        <ele>1982.8000488281</ele>
        <time>2014-02-12T13:38:13.000Z</time>
      </trkpt>
      <trkpt lat="45.92401" lon="6.50937">
        <ele>1982.8000488281</ele>
        <time>2014-02-12T13:38:14.000Z</time>
      </trkpt>
      <trkpt lat="45.92401" lon="6.50937">
        <ele>1982.8000488281</ele>
        <time>2014-02-12T13:38:15.000Z</time>
      </trkpt>
      <trkpt lat="45.92401" lon="6.50937">
        <ele>1982.8000488281</ele>
        <time>2014-02-12T13:38:16.000Z</time>
      </trkpt>
      <trkpt lat="45.92401" lon="6.50937">
        <ele>1982.8000488281</ele>
        <time>2014-02-12T13:38:17.000Z</time>
      </trkpt>
      <trkpt lat="45.92401" lon="6.50937">
        <ele>1982.8000488281</ele>
        <time>2014-02-12T13:38:18.000Z</time>
      </trkpt>
      <trkpt lat="45.92401" lon="6.50937">
        <ele>1982.8000488281</ele>
        <time>2014-02-12T13:38:19.000Z</time>
      </trkpt>
      <trkpt lat="45.92401" lon="6.50937">
        <ele>1982.8000488281</ele>
        <time>2014-02-12T13:38:20.000Z</time>
      </trkpt>
      <trkpt lat="45.92401" lon="6.50937">
        <ele>1982.8000488281</ele>
        <time>2014-02-12T13:38:21.000Z</time>
      </trkpt>
      <trkpt lat="45.92401" lon="6.50937">
        <ele>1982.8000488281</ele>
        <time>2014-02-12T13:38:22.000Z</time>
      </trkpt>
      <trkpt lat="45.92401" lon="6.50937">
        <ele>1982.8000488281</ele>
        <time>2014-02-12T13:38:23.000Z</time>
      </trkpt>
      <trkpt lat="45.92401" lon="6.50937">
        <ele>1982.8000488281</ele>
        <time>2014-02-12T13:38:24.000Z</time>
      </trkpt>
      <trkpt lat="45.92401" lon="6.50937">
        <ele>1982.8000488281</ele>
        <time>2014-02-12T13:38:25.000Z</time>
      </trkpt>
      <trkpt lat="45.92401" lon="6.50937">
        <ele>1982.8000488281</ele>
        <time>2014-02-12T13:38:28.000Z</time>
      </trkpt>
      <trkpt lat="45.92401" lon="6.50937">
        <ele>1982.8000488281</ele>
        <time>2014-02-12T13:38:29.000Z</time>
      </trkpt>
      <trkpt lat="45.92401" lon="6.50937">
        <ele>1982.8000488281</ele>
        <time>2014-02-12T13:38:30.000Z</time>
      </trkpt>
      <trkpt lat="45.92401" lon="6.50937">
        <ele>1982.8000488281</ele>
        <time>2014-02-12T13:38:31.000Z</time>
      </trkpt>
      <trkpt lat="45.92401" lon="6.50937">
        <ele>1982.8000488281</ele>
        <time>2014-02-12T13:38:32.000Z</time>
      </trkpt>
      <trkpt lat="45.92401" lon="6.50937">
        <ele>1982.8000488281</ele>
        <time>2014-02-12T13:38:33.000Z</time>
      </trkpt>
      <trkpt lat="45.92401" lon="6.50937">
        <ele>1982.8000488281</ele>
        <time>2014-02-12T13:38:34.000Z</time>
      </trkpt>
      <trkpt lat="45.92401" lon="6.50937">
        <ele>1982.8000488281</ele>
        <time>2014-02-12T13:38:35.000Z</time>
      </trkpt>
      <trkpt lat="45.92401" lon="6.50937">
        <ele>1982.8000488281</ele>
        <time>2014-02-12T13:38:36.000Z</time>
      </trkpt>
      <trkpt lat="45.92401" lon="6.50937">
        <ele>1982.8000488281</ele>
        <time>2014-02-12T13:38:37.000Z</time>
      </trkpt>
      <trkpt lat="45.92401" lon="6.50937">
        <ele>1982.8000488281</ele>
        <time>2014-02-12T13:38:38.000Z</time>
      </trkpt>
      <trkpt lat="45.92401" lon="6.50937">
        <ele>1982.8000488281</ele>
        <time>2014-02-12T13:38:39.000Z</time>
      </trkpt>
      <trkpt lat="45.92401" lon="6.50937">
        <ele>1982.8000488281</ele>
        <time>2014-02-12T13:38:40.000Z</time>
      </trkpt>
      <trkpt lat="45.92401" lon="6.50937">
        <ele>1982.8000488281</ele>
        <time>2014-02-12T13:38:41.000Z</time>
      </trkpt>
      <trkpt lat="45.92401" lon="6.50937">
        <ele>1982.8000488281</ele>
        <time>2014-02-12T13:38:42.000Z</time>
      </trkpt>
      <trkpt lat="45.92401" lon="6.50937">
        <ele>1982.8000488281</ele>
        <time>2014-02-12T13:38:43.000Z</time>
      </trkpt>
      <trkpt lat="45.92401" lon="6.50937">
        <ele>1982.8000488281</ele>
        <time>2014-02-12T13:38:44.000Z</time>
      </trkpt>
      <trkpt lat="45.92401" lon="6.50937">
        <ele>1982.8000488281</ele>
        <time>2014-02-12T13:38:46.000Z</time>
      </trkpt>
      <trkpt lat="45.92401" lon="6.50937">
        <ele>1982.8000488281</ele>
        <time>2014-02-12T13:38:47.000Z</time>
      </trkpt>
      <trkpt lat="45.92401" lon="6.50937">
        <ele>1982.8000488281</ele>
        <time>2014-02-12T13:38:48.000Z</time>
      </trkpt>
      <trkpt lat="45.92401" lon="6.50937">
        <ele>1982.8000488281</ele>
        <time>2014-02-12T13:38:49.000Z</time>
      </trkpt>
      <trkpt lat="45.92401" lon="6.50937">
        <ele>1982.8000488281</ele>
        <time>2014-02-12T13:38:50.000Z</time>
      </trkpt>
      <trkpt lat="45.92402" lon="6.50938">
        <ele>1983.4000244141</ele>
        <time>2014-02-12T13:38:51.000Z</time>
      </trkpt>
      <trkpt lat="45.92402" lon="6.50938">
        <ele>1983.4000244141</ele>
        <time>2014-02-12T13:38:53.000Z</time>
      </trkpt>
      <trkpt lat="45.92402" lon="6.50938">
        <ele>1983.4000244141</ele>
        <time>2014-02-12T13:38:54.000Z</time>
      </trkpt>
      <trkpt lat="45.92402" lon="6.50938">
        <ele>1983.4000244141</ele>
        <time>2014-02-12T13:38:55.000Z</time>
      </trkpt>
      <trkpt lat="45.92402" lon="6.50938">
        <ele>1983.4000244141</ele>
        <time>2014-02-12T13:38:56.000Z</time>
      </trkpt>
      <trkpt lat="45.92402" lon="6.50938">
        <ele>1983.4000244141</ele>
        <time>2014-02-12T13:38:57.000Z</time>
      </trkpt>
      <trkpt lat="45.92402" lon="6.50938">
        <ele>1983.4000244141</ele>
        <time>2014-02-12T13:38:58.000Z</time>
      </trkpt>
      <trkpt lat="45.92402" lon="6.50938">
        <ele>1983.4000244141</ele>
        <time>2014-02-12T13:38:59.000Z</time>
      </trkpt>
      <trkpt lat="45.92402" lon="6.50938">
        <ele>1983.4000244141</ele>
        <time>2014-02-12T13:39:00.000Z</time>
      </trkpt>
      <trkpt lat="45.92402" lon="6.50938">
        <ele>1983.4000244141</ele>
        <time>2014-02-12T13:39:01.000Z</time>
      </trkpt>
      <trkpt lat="45.92402" lon="6.50938">
        <ele>1983.4000244141</ele>
        <time>2014-02-12T13:39:02.000Z</time>
      </trkpt>
      <trkpt lat="45.92402" lon="6.50938">
        <ele>1983.4000244141</ele>
        <time>2014-02-12T13:39:03.000Z</time>
      </trkpt>
      <trkpt lat="45.92402" lon="6.50938">
        <ele>1983.4000244141</ele>
        <time>2014-02-12T13:39:04.000Z</time>
      </trkpt>
      <trkpt lat="45.92402" lon="6.50938">
        <ele>1983.4000244141</ele>
        <time>2014-02-12T13:39:05.000Z</time>
      </trkpt>
      <trkpt lat="45.92402" lon="6.50938">
        <ele>1983.4000244141</ele>
        <time>2014-02-12T13:39:06.000Z</time>
      </trkpt>
      <trkpt lat="45.92402" lon="6.50938">
        <ele>1983.4000244141</ele>
        <time>2014-02-12T13:39:07.000Z</time>
      </trkpt>
      <trkpt lat="45.92402" lon="6.50938">
        <ele>1983.4000244141</ele>
        <time>2014-02-12T13:39:08.000Z</time>
      </trkpt>
      <trkpt lat="45.92402" lon="6.50938">
        <ele>1983.4000244141</ele>
        <time>2014-02-12T13:39:09.000Z</time>
      </trkpt>
      <trkpt lat="45.92402" lon="6.50938">
        <ele>1983.4000244141</ele>
        <time>2014-02-12T13:39:11.000Z</time>
      </trkpt>
      <trkpt lat="45.92402" lon="6.50938">
        <ele>1983.4000244141</ele>
        <time>2014-02-12T13:39:13.000Z</time>
      </trkpt>
      <trkpt lat="45.92402" lon="6.50938">
        <ele>1983.4000244141</ele>
        <time>2014-02-12T13:39:14.000Z</time>
      </trkpt>
      <trkpt lat="45.92402" lon="6.50938">
        <ele>1983.4000244141</ele>
        <time>2014-02-12T13:39:15.000Z</time>
      </trkpt>
      <trkpt lat="45.92402" lon="6.50938">
        <ele>1983.4000244141</ele>
        <time>2014-02-12T13:39:16.000Z</time>
      </trkpt>
      <trkpt lat="45.92402" lon="6.50938">
        <ele>1983.4000244141</ele>
        <time>2014-02-12T13:39:17.000Z</time>
      </trkpt>
      <trkpt lat="45.92402" lon="6.50938">
        <ele>1983.4000244141</ele>
        <time>2014-02-12T13:39:18.000Z</time>
      </trkpt>
      <trkpt lat="45.92402" lon="6.50938">
        <ele>1983.4000244141</ele>
        <time>2014-02-12T13:39:19.000Z</time>
      </trkpt>
      <trkpt lat="45.92402" lon="6.50938">
        <ele>1983.4000244141</ele>
        <time>2014-02-12T13:39:20.000Z</time>
      </trkpt>
      <trkpt lat="45.92402" lon="6.50938">
        <ele>1983.4000244141</ele>
        <time>2014-02-12T13:39:21.000Z</time>
      </trkpt>
      <trkpt lat="45.92402" lon="6.50938">
        <ele>1983.4000244141</ele>
        <time>2014-02-12T13:39:22.000Z</time>
      </trkpt>
      <trkpt lat="45.92402" lon="6.50938">
        <ele>1983.4000244141</ele>
        <time>2014-02-12T13:39:24.000Z</time>
      </trkpt>
      <trkpt lat="45.92402" lon="6.50938">
        <ele>1983.4000244141</ele>
        <time>2014-02-12T13:39:25.000Z</time>
      </trkpt>
      <trkpt lat="45.92402" lon="6.50938">
        <ele>1983.4000244141</ele>
        <time>2014-02-12T13:39:26.000Z</time>
      </trkpt>
      <trkpt lat="45.92402" lon="6.50938">
        <ele>1983.4000244141</ele>
        <time>2014-02-12T13:39:27.000Z</time>
      </trkpt>
      <trkpt lat="45.92402" lon="6.50938">
        <ele>1983.4000244141</ele>
        <time>2014-02-12T13:39:28.000Z</time>
      </trkpt>
      <trkpt lat="45.92402" lon="6.50938">
        <ele>1983.4000244141</ele>
        <time>2014-02-12T13:39:29.000Z</time>
      </trkpt>
      <trkpt lat="45.92402" lon="6.50938">
        <ele>1983.4000244141</ele>
        <time>2014-02-12T13:39:30.000Z</time>
      </trkpt>
      <trkpt lat="45.92402" lon="6.50938">
        <ele>1983.4000244141</ele>
        <time>2014-02-12T13:39:31.000Z</time>
      </trkpt>
      <trkpt lat="45.92404" lon="6.50939">
        <ele>1985.1999511719</ele>
        <time>2014-02-12T13:39:32.000Z</time>
      </trkpt>
      <trkpt lat="45.92404" lon="6.50939">
        <ele>1985.1999511719</ele>
        <time>2014-02-12T13:39:33.000Z</time>
      </trkpt>
      <trkpt lat="45.92404" lon="6.50939">
        <ele>1985.1999511719</ele>
        <time>2014-02-12T13:39:34.000Z</time>
      </trkpt>
      <trkpt lat="45.92404" lon="6.50939">
        <ele>1985.1999511719</ele>
        <time>2014-02-12T13:39:35.000Z</time>
      </trkpt>
      <trkpt lat="45.92404" lon="6.50939">
        <ele>1985.1999511719</ele>
        <time>2014-02-12T13:39:36.000Z</time>
      </trkpt>
      <trkpt lat="45.92404" lon="6.50939">
        <ele>1985.1999511719</ele>
        <time>2014-02-12T13:39:37.000Z</time>
      </trkpt>
      <trkpt lat="45.92404" lon="6.50939">
        <ele>1985.1999511719</ele>
        <time>2014-02-12T13:39:38.000Z</time>
      </trkpt>
      <trkpt lat="45.92404" lon="6.50939">
        <ele>1985.1999511719</ele>
        <time>2014-02-12T13:39:39.000Z</time>
      </trkpt>
      <trkpt lat="45.92404" lon="6.50939">
        <ele>1985.1999511719</ele>
        <time>2014-02-12T13:39:40.000Z</time>
      </trkpt>
      <trkpt lat="45.92404" lon="6.50939">
        <ele>1985.1999511719</ele>
        <time>2014-02-12T13:39:41.000Z</time>
      </trkpt>
      <trkpt lat="45.92404" lon="6.50939">
        <ele>1985.1999511719</ele>
        <time>2014-02-12T13:39:42.000Z</time>
      </trkpt>
      <trkpt lat="45.92404" lon="6.50939">
        <ele>1985.1999511719</ele>
        <time>2014-02-12T13:39:43.000Z</time>
      </trkpt>
      <trkpt lat="45.92404" lon="6.50939">
        <ele>1985.1999511719</ele>
        <time>2014-02-12T13:39:44.000Z</time>
      </trkpt>
      <trkpt lat="45.92404" lon="6.50939">
        <ele>1985.1999511719</ele>
        <time>2014-02-12T13:39:45.000Z</time>
      </trkpt>
      <trkpt lat="45.92404" lon="6.50939">
        <ele>1985.1999511719</ele>
        <time>2014-02-12T13:39:46.000Z</time>
      </trkpt>
      <trkpt lat="45.92404" lon="6.50939">
        <ele>1985.1999511719</ele>
        <time>2014-02-12T13:39:47.000Z</time>
      </trkpt>
      <trkpt lat="45.92404" lon="6.50939">
        <ele>1985.1999511719</ele>
        <time>2014-02-12T13:39:48.000Z</time>
      </trkpt>
      <trkpt lat="45.92404" lon="6.50939">
        <ele>1985.1999511719</ele>
        <time>2014-02-12T13:39:49.000Z</time>
      </trkpt>
      <trkpt lat="45.92404" lon="6.50939">
        <ele>1985.1999511719</ele>
        <time>2014-02-12T13:39:50.000Z</time>
      </trkpt>
      <trkpt lat="45.92404" lon="6.50939">
        <ele>1985.1999511719</ele>
        <time>2014-02-12T13:39:51.000Z</time>
      </trkpt>
      <trkpt lat="45.92404" lon="6.50939">
        <ele>1985.1999511719</ele>
        <time>2014-02-12T13:39:52.000Z</time>
      </trkpt>
      <trkpt lat="45.92404" lon="6.50939">
        <ele>1985.1999511719</ele>
        <time>2014-02-12T13:39:53.000Z</time>
      </trkpt>
      <trkpt lat="45.92404" lon="6.50939">
        <ele>1985.1999511719</ele>
        <time>2014-02-12T13:39:56.000Z</time>
      </trkpt>
      <trkpt lat="45.92404" lon="6.50939">
        <ele>1985.1999511719</ele>
        <time>2014-02-12T13:39:57.000Z</time>
      </trkpt>
      <trkpt lat="45.92404" lon="6.50939">
        <ele>1985.1999511719</ele>
        <time>2014-02-12T13:39:58.000Z</time>
      </trkpt>
      <trkpt lat="45.92404" lon="6.50939">
        <ele>1985.1999511719</ele>
        <time>2014-02-12T13:40:00.000Z</time>
      </trkpt>
      <trkpt lat="45.92404" lon="6.50939">
        <ele>1985.1999511719</ele>
        <time>2014-02-12T13:40:01.000Z</time>
      </trkpt>
      <trkpt lat="45.92404" lon="6.50939">
        <ele>1985.1999511719</ele>
        <time>2014-02-12T13:40:02.000Z</time>
      </trkpt>
      <trkpt lat="45.92404" lon="6.50939">
        <ele>1985.1999511719</ele>
        <time>2014-02-12T13:40:03.000Z</time>
      </trkpt>
      <trkpt lat="45.92404" lon="6.50939">
        <ele>1985.1999511719</ele>
        <time>2014-02-12T13:40:04.000Z</time>
      </trkpt>
      <trkpt lat="45.92404" lon="6.50939">
        <ele>1985.1999511719</ele>
        <time>2014-02-12T13:40:05.000Z</time>
      </trkpt>
      <trkpt lat="45.92404" lon="6.50939">
        <ele>1985.1999511719</ele>
        <time>2014-02-12T13:40:06.000Z</time>
      </trkpt>
      <trkpt lat="45.92404" lon="6.50939">
        <ele>1985.1999511719</ele>
        <time>2014-02-12T13:40:07.000Z</time>
      </trkpt>
      <trkpt lat="45.92404" lon="6.50939">
        <ele>1985.1999511719</ele>
        <time>2014-02-12T13:40:08.000Z</time>
      </trkpt>
      <trkpt lat="45.92404" lon="6.50939">
        <ele>1985.1999511719</ele>
        <time>2014-02-12T13:40:09.000Z</time>
      </trkpt>
      <trkpt lat="45.92404" lon="6.50939">
        <ele>1985.1999511719</ele>
        <time>2014-02-12T13:40:10.000Z</time>
      </trkpt>
      <trkpt lat="45.92404" lon="6.50939">
        <ele>1985.1999511719</ele>
        <time>2014-02-12T13:40:11.000Z</time>
      </trkpt>
      <trkpt lat="45.92408" lon="6.50941">
        <ele>1987.4000244141</ele>
        <time>2014-02-12T13:40:12.000Z</time>
      </trkpt>
      <trkpt lat="45.92408" lon="6.50941">
        <ele>1987.4000244141</ele>
        <time>2014-02-12T13:40:13.000Z</time>
      </trkpt>
      <trkpt lat="45.92408" lon="6.50941">
        <ele>1987.4000244141</ele>
        <time>2014-02-12T13:40:14.000Z</time>
      </trkpt>
      <trkpt lat="45.92408" lon="6.50941">
        <ele>1987.4000244141</ele>
        <time>2014-02-12T13:40:15.000Z</time>
      </trkpt>
      <trkpt lat="45.92408" lon="6.50941">
        <ele>1987.4000244141</ele>
        <time>2014-02-12T13:40:16.000Z</time>
      </trkpt>
      <trkpt lat="45.92408" lon="6.50941">
        <ele>1987.4000244141</ele>
        <time>2014-02-12T13:40:17.000Z</time>
      </trkpt>
      <trkpt lat="45.92408" lon="6.50941">
        <ele>1987.4000244141</ele>
        <time>2014-02-12T13:40:18.000Z</time>
      </trkpt>
      <trkpt lat="45.92408" lon="6.50941">
        <ele>1987.4000244141</ele>
        <time>2014-02-12T13:40:19.000Z</time>
      </trkpt>
      <trkpt lat="45.92408" lon="6.50941">
        <ele>1987.4000244141</ele>
        <time>2014-02-12T13:40:20.000Z</time>
      </trkpt>
      <trkpt lat="45.92408" lon="6.50941">
        <ele>1987.4000244141</ele>
        <time>2014-02-12T13:40:21.000Z</time>
      </trkpt>
      <trkpt lat="45.92408" lon="6.50941">
        <ele>1987.4000244141</ele>
        <time>2014-02-12T13:40:22.000Z</time>
      </trkpt>
      <trkpt lat="45.92408" lon="6.50941">
        <ele>1987.4000244141</ele>
        <time>2014-02-12T13:40:23.000Z</time>
      </trkpt>
      <trkpt lat="45.92408" lon="6.50941">
        <ele>1987.4000244141</ele>
        <time>2014-02-12T13:40:24.000Z</time>
      </trkpt>
      <trkpt lat="45.92408" lon="6.50941">
        <ele>1987.4000244141</ele>
        <time>2014-02-12T13:40:25.000Z</time>
      </trkpt>
      <trkpt lat="45.92408" lon="6.50941">
        <ele>1987.4000244141</ele>
        <time>2014-02-12T13:40:26.000Z</time>
      </trkpt>
      <trkpt lat="45.92408" lon="6.50941">
        <ele>1987.4000244141</ele>
        <time>2014-02-12T13:40:27.000Z</time>
      </trkpt>
      <trkpt lat="45.92408" lon="6.50941">
        <ele>1987.4000244141</ele>
        <time>2014-02-12T13:40:28.000Z</time>
      </trkpt>
      <trkpt lat="45.92408" lon="6.50941">
        <ele>1987.4000244141</ele>
        <time>2014-02-12T13:40:29.000Z</time>
      </trkpt>
      <trkpt lat="45.92408" lon="6.50941">
        <ele>1987.4000244141</ele>
        <time>2014-02-12T13:40:30.000Z</time>
      </trkpt>
      <trkpt lat="45.92408" lon="6.50941">
        <ele>1987.4000244141</ele>
        <time>2014-02-12T13:40:31.000Z</time>
      </trkpt>
      <trkpt lat="45.92408" lon="6.50941">
        <ele>1987.4000244141</ele>
        <time>2014-02-12T13:40:32.000Z</time>
      </trkpt>
      <trkpt lat="45.92408" lon="6.50941">
        <ele>1987.4000244141</ele>
        <time>2014-02-12T13:40:33.000Z</time>
      </trkpt>
      <trkpt lat="45.92408" lon="6.50941">
        <ele>1987.4000244141</ele>
        <time>2014-02-12T13:40:34.000Z</time>
      </trkpt>
      <trkpt lat="45.92408" lon="6.50941">
        <ele>1987.4000244141</ele>
        <time>2014-02-12T13:40:35.000Z</time>
      </trkpt>
      <trkpt lat="45.92408" lon="6.50941">
        <ele>1987.4000244141</ele>
        <time>2014-02-12T13:40:36.000Z</time>
      </trkpt>
      <trkpt lat="45.92408" lon="6.50941">
        <ele>1987.4000244141</ele>
        <time>2014-02-12T13:40:37.000Z</time>
      </trkpt>
      <trkpt lat="45.92408" lon="6.50941">
        <ele>1987.4000244141</ele>
        <time>2014-02-12T13:40:39.000Z</time>
      </trkpt>
      <trkpt lat="45.92408" lon="6.50941">
        <ele>1987.4000244141</ele>
        <time>2014-02-12T13:40:40.000Z</time>
      </trkpt>
      <trkpt lat="45.92408" lon="6.50941">
        <ele>1987.4000244141</ele>
        <time>2014-02-12T13:40:41.000Z</time>
      </trkpt>
      <trkpt lat="45.92408" lon="6.50941">
        <ele>1987.4000244141</ele>
        <time>2014-02-12T13:40:42.000Z</time>
      </trkpt>
      <trkpt lat="45.92408" lon="6.50941">
        <ele>1987.4000244141</ele>
        <time>2014-02-12T13:40:43.000Z</time>
      </trkpt>
      <trkpt lat="45.92408" lon="6.50941">
        <ele>1987.4000244141</ele>
        <time>2014-02-12T13:40:44.000Z</time>
      </trkpt>
      <trkpt lat="45.92408" lon="6.50941">
        <ele>1987.4000244141</ele>
        <time>2014-02-12T13:40:45.000Z</time>
      </trkpt>
      <trkpt lat="45.92408" lon="6.50941">
        <ele>1987.4000244141</ele>
        <time>2014-02-12T13:40:46.000Z</time>
      </trkpt>
      <trkpt lat="45.92408" lon="6.50941">
        <ele>1987.4000244141</ele>
        <time>2014-02-12T13:40:47.000Z</time>
      </trkpt>
      <trkpt lat="45.92408" lon="6.50941">
        <ele>1987.4000244141</ele>
        <time>2014-02-12T13:40:48.000Z</time>
      </trkpt>
      <trkpt lat="45.92408" lon="6.50941">
        <ele>1987.4000244141</ele>
        <time>2014-02-12T13:40:49.000Z</time>
      </trkpt>
      <trkpt lat="45.92408" lon="6.50941">
        <ele>1987.4000244141</ele>
        <time>2014-02-12T13:40:50.000Z</time>
      </trkpt>
      <trkpt lat="45.92408" lon="6.50941">
        <ele>1987.4000244141</ele>
        <time>2014-02-12T13:40:51.000Z</time>
      </trkpt>
      <trkpt lat="45.9241" lon="6.50941">
        <ele>1988.4000244141</ele>
        <time>2014-02-12T13:40:52.000Z</time>
      </trkpt>
      <trkpt lat="45.9241" lon="6.50941">
        <ele>1988.4000244141</ele>
        <time>2014-02-12T13:40:54.000Z</time>
      </trkpt>
      <trkpt lat="45.9241" lon="6.50941">
        <ele>1988.4000244141</ele>
        <time>2014-02-12T13:40:55.000Z</time>
      </trkpt>
      <trkpt lat="45.9241" lon="6.50941">
        <ele>1988.4000244141</ele>
        <time>2014-02-12T13:40:56.000Z</time>
      </trkpt>
      <trkpt lat="45.9241" lon="6.50941">
        <ele>1988.4000244141</ele>
        <time>2014-02-12T13:40:57.000Z</time>
      </trkpt>
      <trkpt lat="45.9241" lon="6.50941">
        <ele>1988.4000244141</ele>
        <time>2014-02-12T13:40:58.000Z</time>
      </trkpt>
      <trkpt lat="45.9241" lon="6.50941">
        <ele>1988.4000244141</ele>
        <time>2014-02-12T13:40:59.000Z</time>
      </trkpt>
      <trkpt lat="45.9241" lon="6.50941">
        <ele>1988.4000244141</ele>
        <time>2014-02-12T13:41:00.000Z</time>
      </trkpt>
      <trkpt lat="45.9241" lon="6.50941">
        <ele>1988.4000244141</ele>
        <time>2014-02-12T13:41:01.000Z</time>
      </trkpt>
      <trkpt lat="45.9241" lon="6.50941">
        <ele>1988.4000244141</ele>
        <time>2014-02-12T13:41:02.000Z</time>
      </trkpt>
      <trkpt lat="45.9241" lon="6.50941">
        <ele>1988.4000244141</ele>
        <time>2014-02-12T13:41:03.000Z</time>
      </trkpt>
      <trkpt lat="45.9241" lon="6.50941">
        <ele>1988.4000244141</ele>
        <time>2014-02-12T13:41:04.000Z</time>
      </trkpt>
      <trkpt lat="45.9241" lon="6.50941">
        <ele>1988.4000244141</ele>
        <time>2014-02-12T13:41:05.000Z</time>
      </trkpt>
      <trkpt lat="45.9241" lon="6.50941">
        <ele>1988.4000244141</ele>
        <time>2014-02-12T13:41:06.000Z</time>
      </trkpt>
      <trkpt lat="45.9241" lon="6.50941">
        <ele>1988.4000244141</ele>
        <time>2014-02-12T13:41:07.000Z</time>
      </trkpt>
      <trkpt lat="45.9241" lon="6.50941">
        <ele>1988.4000244141</ele>
        <time>2014-02-12T13:41:08.000Z</time>
      </trkpt>
      <trkpt lat="45.9241" lon="6.50941">
        <ele>1988.4000244141</ele>
        <time>2014-02-12T13:41:09.000Z</time>
      </trkpt>
      <trkpt lat="45.9241" lon="6.50941">
        <ele>1988.4000244141</ele>
        <time>2014-02-12T13:41:10.000Z</time>
      </trkpt>
      <trkpt lat="45.9241" lon="6.50941">
        <ele>1988.4000244141</ele>
        <time>2014-02-12T13:41:11.000Z</time>
      </trkpt>
      <trkpt lat="45.9241" lon="6.50941">
        <ele>1988.4000244141</ele>
        <time>2014-02-12T13:41:12.000Z</time>
      </trkpt>
      <trkpt lat="45.9241" lon="6.50941">
        <ele>1988.4000244141</ele>
        <time>2014-02-12T13:41:13.000Z</time>
      </trkpt>
      <trkpt lat="45.9241" lon="6.50941">
        <ele>1988.4000244141</ele>
        <time>2014-02-12T13:41:15.000Z</time>
      </trkpt>
      <trkpt lat="45.9241" lon="6.50941">
        <ele>1988.4000244141</ele>
        <time>2014-02-12T13:41:16.000Z</time>
      </trkpt>
      <trkpt lat="45.9241" lon="6.50941">
        <ele>1988.4000244141</ele>
        <time>2014-02-12T13:41:17.000Z</time>
      </trkpt>
      <trkpt lat="45.9241" lon="6.50941">
        <ele>1988.4000244141</ele>
        <time>2014-02-12T13:41:18.000Z</time>
      </trkpt>
      <trkpt lat="45.9241" lon="6.50941">
        <ele>1988.4000244141</ele>
        <time>2014-02-12T13:41:19.000Z</time>
      </trkpt>
      <trkpt lat="45.9241" lon="6.50941">
        <ele>1988.4000244141</ele>
        <time>2014-02-12T13:41:20.000Z</time>
      </trkpt>
      <trkpt lat="45.9241" lon="6.50941">
        <ele>1988.4000244141</ele>
        <time>2014-02-12T13:41:21.000Z</time>
      </trkpt>
      <trkpt lat="45.9241" lon="6.50941">
        <ele>1988.4000244141</ele>
        <time>2014-02-12T13:41:22.000Z</time>
      </trkpt>
      <trkpt lat="45.9241" lon="6.50941">
        <ele>1988.4000244141</ele>
        <time>2014-02-12T13:41:23.000Z</time>
      </trkpt>
      <trkpt lat="45.9241" lon="6.50941">
        <ele>1988.4000244141</ele>
        <time>2014-02-12T13:41:24.000Z</time>
      </trkpt>
      <trkpt lat="45.9241" lon="6.50941">
        <ele>1988.4000244141</ele>
        <time>2014-02-12T13:41:27.000Z</time>
      </trkpt>
      <trkpt lat="45.9241" lon="6.50941">
        <ele>1988.4000244141</ele>
        <time>2014-02-12T13:41:28.000Z</time>
      </trkpt>
      <trkpt lat="45.9241" lon="6.50941">
        <ele>1988.4000244141</ele>
        <time>2014-02-12T13:41:29.000Z</time>
      </trkpt>
      <trkpt lat="45.9241" lon="6.50941">
        <ele>1988.4000244141</ele>
        <time>2014-02-12T13:41:30.000Z</time>
      </trkpt>
      <trkpt lat="45.92412" lon="6.50942">
        <ele>1989.8000488281</ele>
        <time>2014-02-12T13:41:32.000Z</time>
      </trkpt>
      <trkpt lat="45.92412" lon="6.50942">
        <ele>1989.8000488281</ele>
        <time>2014-02-12T13:41:33.000Z</time>
      </trkpt>
      <trkpt lat="45.92412" lon="6.50942">
        <ele>1989.8000488281</ele>
        <time>2014-02-12T13:41:35.000Z</time>
      </trkpt>
      <trkpt lat="45.92412" lon="6.50942">
        <ele>1989.8000488281</ele>
        <time>2014-02-12T13:41:36.000Z</time>
      </trkpt>
      <trkpt lat="45.92412" lon="6.50942">
        <ele>1989.8000488281</ele>
        <time>2014-02-12T13:41:37.000Z</time>
      </trkpt>
      <trkpt lat="45.92412" lon="6.50942">
        <ele>1989.8000488281</ele>
        <time>2014-02-12T13:41:39.000Z</time>
      </trkpt>
      <trkpt lat="45.92412" lon="6.50942">
        <ele>1989.8000488281</ele>
        <time>2014-02-12T13:41:40.000Z</time>
      </trkpt>
      <trkpt lat="45.92412" lon="6.50942">
        <ele>1989.8000488281</ele>
        <time>2014-02-12T13:41:41.000Z</time>
      </trkpt>
      <trkpt lat="45.92412" lon="6.50942">
        <ele>1989.8000488281</ele>
        <time>2014-02-12T13:41:42.000Z</time>
      </trkpt>
      <trkpt lat="45.92412" lon="6.50942">
        <ele>1989.8000488281</ele>
        <time>2014-02-12T13:41:43.000Z</time>
      </trkpt>
      <trkpt lat="45.92412" lon="6.50942">
        <ele>1989.8000488281</ele>
        <time>2014-02-12T13:41:44.000Z</time>
      </trkpt>
      <trkpt lat="45.92412" lon="6.50942">
        <ele>1989.8000488281</ele>
        <time>2014-02-12T13:41:45.000Z</time>
      </trkpt>
      <trkpt lat="45.92412" lon="6.50942">
        <ele>1989.8000488281</ele>
        <time>2014-02-12T13:41:46.000Z</time>
      </trkpt>
      <trkpt lat="45.92412" lon="6.50942">
        <ele>1989.8000488281</ele>
        <time>2014-02-12T13:41:47.000Z</time>
      </trkpt>
      <trkpt lat="45.92412" lon="6.50942">
        <ele>1989.8000488281</ele>
        <time>2014-02-12T13:41:48.000Z</time>
      </trkpt>
      <trkpt lat="45.92412" lon="6.50942">
        <ele>1989.8000488281</ele>
        <time>2014-02-12T13:41:49.000Z</time>
      </trkpt>
      <trkpt lat="45.92412" lon="6.50942">
        <ele>1989.8000488281</ele>
        <time>2014-02-12T13:41:51.000Z</time>
      </trkpt>
      <trkpt lat="45.92412" lon="6.50942">
        <ele>1989.8000488281</ele>
        <time>2014-02-12T13:41:52.000Z</time>
      </trkpt>
      <trkpt lat="45.92412" lon="6.50942">
        <ele>1989.8000488281</ele>
        <time>2014-02-12T13:41:53.000Z</time>
      </trkpt>
      <trkpt lat="45.92412" lon="6.50942">
        <ele>1989.8000488281</ele>
        <time>2014-02-12T13:41:54.000Z</time>
      </trkpt>
      <trkpt lat="45.92412" lon="6.50942">
        <ele>1989.8000488281</ele>
        <time>2014-02-12T13:41:55.000Z</time>
      </trkpt>
      <trkpt lat="45.92412" lon="6.50942">
        <ele>1989.8000488281</ele>
        <time>2014-02-12T13:41:56.000Z</time>
      </trkpt>
      <trkpt lat="45.92412" lon="6.50942">
        <ele>1989.8000488281</ele>
        <time>2014-02-12T13:41:57.000Z</time>
      </trkpt>
      <trkpt lat="45.92412" lon="6.50942">
        <ele>1989.8000488281</ele>
        <time>2014-02-12T13:41:58.000Z</time>
      </trkpt>
      <trkpt lat="45.92412" lon="6.50942">
        <ele>1989.8000488281</ele>
        <time>2014-02-12T13:41:59.000Z</time>
      </trkpt>
      <trkpt lat="45.92412" lon="6.50942">
        <ele>1989.8000488281</ele>
        <time>2014-02-12T13:42:00.000Z</time>
      </trkpt>
      <trkpt lat="45.92412" lon="6.50942">
        <ele>1989.8000488281</ele>
        <time>2014-02-12T13:42:01.000Z</time>
      </trkpt>
      <trkpt lat="45.92412" lon="6.50942">
        <ele>1989.8000488281</ele>
        <time>2014-02-12T13:42:02.000Z</time>
      </trkpt>
      <trkpt lat="45.92412" lon="6.50942">
        <ele>1989.8000488281</ele>
        <time>2014-02-12T13:42:03.000Z</time>
      </trkpt>
      <trkpt lat="45.92412" lon="6.50942">
        <ele>1989.8000488281</ele>
        <time>2014-02-12T13:42:04.000Z</time>
      </trkpt>
      <trkpt lat="45.92412" lon="6.50942">
        <ele>1989.8000488281</ele>
        <time>2014-02-12T13:42:05.000Z</time>
      </trkpt>
      <trkpt lat="45.92412" lon="6.50942">
        <ele>1989.8000488281</ele>
        <time>2014-02-12T13:42:06.000Z</time>
      </trkpt>
      <trkpt lat="45.92412" lon="6.50942">
        <ele>1989.8000488281</ele>
        <time>2014-02-12T13:42:07.000Z</time>
      </trkpt>
      <trkpt lat="45.92412" lon="6.50942">
        <ele>1989.8000488281</ele>
        <time>2014-02-12T13:42:08.000Z</time>
      </trkpt>
      <trkpt lat="45.92412" lon="6.50942">
        <ele>1989.8000488281</ele>
        <time>2014-02-12T13:42:09.000Z</time>
      </trkpt>
      <trkpt lat="45.92412" lon="6.50942">
        <ele>1989.8000488281</ele>
        <time>2014-02-12T13:42:10.000Z</time>
      </trkpt>
      <trkpt lat="45.92412" lon="6.50942">
        <ele>1989.8000488281</ele>
        <time>2014-02-12T13:42:11.000Z</time>
      </trkpt>
      <trkpt lat="45.92414" lon="6.50943">
        <ele>1990.5999755859</ele>
        <time>2014-02-12T13:42:12.000Z</time>
      </trkpt>
      <trkpt lat="45.92414" lon="6.50943">
        <ele>1990.5999755859</ele>
        <time>2014-02-12T13:42:13.000Z</time>
      </trkpt>
      <trkpt lat="45.92414" lon="6.50943">
        <ele>1990.5999755859</ele>
        <time>2014-02-12T13:42:14.000Z</time>
      </trkpt>
      <trkpt lat="45.92414" lon="6.50943">
        <ele>1990.5999755859</ele>
        <time>2014-02-12T13:42:15.000Z</time>
      </trkpt>
      <trkpt lat="45.92414" lon="6.50943">
        <ele>1990.5999755859</ele>
        <time>2014-02-12T13:42:17.000Z</time>
      </trkpt>
      <trkpt lat="45.92414" lon="6.50943">
        <ele>1990.5999755859</ele>
        <time>2014-02-12T13:42:18.000Z</time>
      </trkpt>
      <trkpt lat="45.92414" lon="6.50943">
        <ele>1990.5999755859</ele>
        <time>2014-02-12T13:42:19.000Z</time>
      </trkpt>
      <trkpt lat="45.92414" lon="6.50943">
        <ele>1990.5999755859</ele>
        <time>2014-02-12T13:42:20.000Z</time>
      </trkpt>
      <trkpt lat="45.92414" lon="6.50943">
        <ele>1990.5999755859</ele>
        <time>2014-02-12T13:42:21.000Z</time>
      </trkpt>
      <trkpt lat="45.92414" lon="6.50943">
        <ele>1990.5999755859</ele>
        <time>2014-02-12T13:42:22.000Z</time>
      </trkpt>
      <trkpt lat="45.92414" lon="6.50943">
        <ele>1990.5999755859</ele>
        <time>2014-02-12T13:42:23.000Z</time>
      </trkpt>
      <trkpt lat="45.92414" lon="6.50943">
        <ele>1990.5999755859</ele>
        <time>2014-02-12T13:42:24.000Z</time>
      </trkpt>
      <trkpt lat="45.92414" lon="6.50943">
        <ele>1990.5999755859</ele>
        <time>2014-02-12T13:42:25.000Z</time>
      </trkpt>
      <trkpt lat="45.92414" lon="6.50943">
        <ele>1990.5999755859</ele>
        <time>2014-02-12T13:42:26.000Z</time>
      </trkpt>
      <trkpt lat="45.92414" lon="6.50943">
        <ele>1990.5999755859</ele>
        <time>2014-02-12T13:42:27.000Z</time>
      </trkpt>
      <trkpt lat="45.92414" lon="6.50943">
        <ele>1990.5999755859</ele>
        <time>2014-02-12T13:42:28.000Z</time>
      </trkpt>
      <trkpt lat="45.92414" lon="6.50943">
        <ele>1990.5999755859</ele>
        <time>2014-02-12T13:42:29.000Z</time>
      </trkpt>
      <trkpt lat="45.92414" lon="6.50943">
        <ele>1990.5999755859</ele>
        <time>2014-02-12T13:42:30.000Z</time>
      </trkpt>
      <trkpt lat="45.92414" lon="6.50943">
        <ele>1990.5999755859</ele>
        <time>2014-02-12T13:42:31.000Z</time>
      </trkpt>
      <trkpt lat="45.92414" lon="6.50943">
        <ele>1990.5999755859</ele>
        <time>2014-02-12T13:42:32.000Z</time>
      </trkpt>
      <trkpt lat="45.92414" lon="6.50943">
        <ele>1990.5999755859</ele>
        <time>2014-02-12T13:42:33.000Z</time>
      </trkpt>
      <trkpt lat="45.92414" lon="6.50943">
        <ele>1990.5999755859</ele>
        <time>2014-02-12T13:42:34.000Z</time>
      </trkpt>
      <trkpt lat="45.92414" lon="6.50943">
        <ele>1990.5999755859</ele>
        <time>2014-02-12T13:42:35.000Z</time>
      </trkpt>
      <trkpt lat="45.92414" lon="6.50943">
        <ele>1990.5999755859</ele>
        <time>2014-02-12T13:42:36.000Z</time>
      </trkpt>
      <trkpt lat="45.92414" lon="6.50943">
        <ele>1990.5999755859</ele>
        <time>2014-02-12T13:42:37.000Z</time>
      </trkpt>
      <trkpt lat="45.92414" lon="6.50943">
        <ele>1990.5999755859</ele>
        <time>2014-02-12T13:42:38.000Z</time>
      </trkpt>
      <trkpt lat="45.92414" lon="6.50943">
        <ele>1990.5999755859</ele>
        <time>2014-02-12T13:42:39.000Z</time>
      </trkpt>
      <trkpt lat="45.92414" lon="6.50943">
        <ele>1990.5999755859</ele>
        <time>2014-02-12T13:42:40.000Z</time>
      </trkpt>
      <trkpt lat="45.92414" lon="6.50943">
        <ele>1990.5999755859</ele>
        <time>2014-02-12T13:42:41.000Z</time>
      </trkpt>
      <trkpt lat="45.92414" lon="6.50943">
        <ele>1990.5999755859</ele>
        <time>2014-02-12T13:42:42.000Z</time>
      </trkpt>
      <trkpt lat="45.92414" lon="6.50943">
        <ele>1990.5999755859</ele>
        <time>2014-02-12T13:42:43.000Z</time>
      </trkpt>
      <trkpt lat="45.92414" lon="6.50943">
        <ele>1990.5999755859</ele>
        <time>2014-02-12T13:42:44.000Z</time>
      </trkpt>
      <trkpt lat="45.92414" lon="6.50943">
        <ele>1990.5999755859</ele>
        <time>2014-02-12T13:42:45.000Z</time>
      </trkpt>
      <trkpt lat="45.92414" lon="6.50943">
        <ele>1990.5999755859</ele>
        <time>2014-02-12T13:42:46.000Z</time>
      </trkpt>
      <trkpt lat="45.92414" lon="6.50943">
        <ele>1990.5999755859</ele>
        <time>2014-02-12T13:42:47.000Z</time>
      </trkpt>
      <trkpt lat="45.92414" lon="6.50943">
        <ele>1990.5999755859</ele>
        <time>2014-02-12T13:42:48.000Z</time>
      </trkpt>
      <trkpt lat="45.92414" lon="6.50943">
        <ele>1990.5999755859</ele>
        <time>2014-02-12T13:42:49.000Z</time>
      </trkpt>
      <trkpt lat="45.92414" lon="6.50943">
        <ele>1990.5999755859</ele>
        <time>2014-02-12T13:42:50.000Z</time>
      </trkpt>
      <trkpt lat="45.92414" lon="6.50943">
        <ele>1990.5999755859</ele>
        <time>2014-02-12T13:42:51.000Z</time>
      </trkpt>
      <trkpt lat="45.92416" lon="6.50942">
        <ele>1991.4000244141</ele>
        <time>2014-02-12T13:42:52.000Z</time>
      </trkpt>
      <trkpt lat="45.92416" lon="6.50942">
        <ele>1991.4000244141</ele>
        <time>2014-02-12T13:42:53.000Z</time>
      </trkpt>
      <trkpt lat="45.92416" lon="6.50942">
        <ele>1991.4000244141</ele>
        <time>2014-02-12T13:42:54.000Z</time>
      </trkpt>
      <trkpt lat="45.92416" lon="6.50942">
        <ele>1991.4000244141</ele>
        <time>2014-02-12T13:42:55.000Z</time>
      </trkpt>
      <trkpt lat="45.92416" lon="6.50942">
        <ele>1991.4000244141</ele>
        <time>2014-02-12T13:42:56.000Z</time>
      </trkpt>
      <trkpt lat="45.92416" lon="6.50942">
        <ele>1991.4000244141</ele>
        <time>2014-02-12T13:42:57.000Z</time>
      </trkpt>
      <trkpt lat="45.92416" lon="6.50942">
        <ele>1991.4000244141</ele>
        <time>2014-02-12T13:42:58.000Z</time>
      </trkpt>
      <trkpt lat="45.92416" lon="6.50942">
        <ele>1991.4000244141</ele>
        <time>2014-02-12T13:42:59.000Z</time>
      </trkpt>
      <trkpt lat="45.92416" lon="6.50942">
        <ele>1991.4000244141</ele>
        <time>2014-02-12T13:43:00.000Z</time>
      </trkpt>
      <trkpt lat="45.92416" lon="6.50942">
        <ele>1991.4000244141</ele>
        <time>2014-02-12T13:43:01.000Z</time>
      </trkpt>
      <trkpt lat="45.92416" lon="6.50942">
        <ele>1991.4000244141</ele>
        <time>2014-02-12T13:43:02.000Z</time>
      </trkpt>
      <trkpt lat="45.92416" lon="6.50942">
        <ele>1991.4000244141</ele>
        <time>2014-02-12T13:43:03.000Z</time>
      </trkpt>
      <trkpt lat="45.92416" lon="6.50942">
        <ele>1991.4000244141</ele>
        <time>2014-02-12T13:43:04.000Z</time>
      </trkpt>
      <trkpt lat="45.92416" lon="6.50942">
        <ele>1991.4000244141</ele>
        <time>2014-02-12T13:43:05.000Z</time>
      </trkpt>
      <trkpt lat="45.92416" lon="6.50942">
        <ele>1991.4000244141</ele>
        <time>2014-02-12T13:43:06.000Z</time>
      </trkpt>
      <trkpt lat="45.92416" lon="6.50942">
        <ele>1991.4000244141</ele>
        <time>2014-02-12T13:43:07.000Z</time>
      </trkpt>
      <trkpt lat="45.92416" lon="6.50942">
        <ele>1991.4000244141</ele>
        <time>2014-02-12T13:43:08.000Z</time>
      </trkpt>
      <trkpt lat="45.92416" lon="6.50942">
        <ele>1991.4000244141</ele>
        <time>2014-02-12T13:43:09.000Z</time>
      </trkpt>
      <trkpt lat="45.92416" lon="6.50942">
        <ele>1991.4000244141</ele>
        <time>2014-02-12T13:43:10.000Z</time>
      </trkpt>
      <trkpt lat="45.92416" lon="6.50942">
        <ele>1991.4000244141</ele>
        <time>2014-02-12T13:43:11.000Z</time>
      </trkpt>
      <trkpt lat="45.92416" lon="6.50942">
        <ele>1991.4000244141</ele>
        <time>2014-02-12T13:43:12.000Z</time>
      </trkpt>
      <trkpt lat="45.92416" lon="6.50942">
        <ele>1991.4000244141</ele>
        <time>2014-02-12T13:43:13.000Z</time>
      </trkpt>
      <trkpt lat="45.92416" lon="6.50942">
        <ele>1991.4000244141</ele>
        <time>2014-02-12T13:43:14.000Z</time>
      </trkpt>
      <trkpt lat="45.92416" lon="6.50942">
        <ele>1991.4000244141</ele>
        <time>2014-02-12T13:43:15.000Z</time>
      </trkpt>
      <trkpt lat="45.92416" lon="6.50942">
        <ele>1991.4000244141</ele>
        <time>2014-02-12T13:43:16.000Z</time>
      </trkpt>
      <trkpt lat="45.92416" lon="6.50942">
        <ele>1991.4000244141</ele>
        <time>2014-02-12T13:43:17.000Z</time>
      </trkpt>
      <trkpt lat="45.92416" lon="6.50942">
        <ele>1991.4000244141</ele>
        <time>2014-02-12T13:43:18.000Z</time>
      </trkpt>
      <trkpt lat="45.92416" lon="6.50942">
        <ele>1991.4000244141</ele>
        <time>2014-02-12T13:43:19.000Z</time>
      </trkpt>
      <trkpt lat="45.92416" lon="6.50942">
        <ele>1991.4000244141</ele>
        <time>2014-02-12T13:43:20.000Z</time>
      </trkpt>
      <trkpt lat="45.92416" lon="6.50942">
        <ele>1991.4000244141</ele>
        <time>2014-02-12T13:43:21.000Z</time>
      </trkpt>
      <trkpt lat="45.92416" lon="6.50942">
        <ele>1991.4000244141</ele>
        <time>2014-02-12T13:43:22.000Z</time>
      </trkpt>
      <trkpt lat="45.92416" lon="6.50942">
        <ele>1991.4000244141</ele>
        <time>2014-02-12T13:43:23.000Z</time>
      </trkpt>
      <trkpt lat="45.92416" lon="6.50942">
        <ele>1991.4000244141</ele>
        <time>2014-02-12T13:43:24.000Z</time>
      </trkpt>
      <trkpt lat="45.92416" lon="6.50942">
        <ele>1991.4000244141</ele>
        <time>2014-02-12T13:43:25.000Z</time>
      </trkpt>
      <trkpt lat="45.92416" lon="6.50942">
        <ele>1991.4000244141</ele>
        <time>2014-02-12T13:43:26.000Z</time>
      </trkpt>
      <trkpt lat="45.92416" lon="6.50942">
        <ele>1991.4000244141</ele>
        <time>2014-02-12T13:43:27.000Z</time>
      </trkpt>
      <trkpt lat="45.92416" lon="6.50942">
        <ele>1991.4000244141</ele>
        <time>2014-02-12T13:43:28.000Z</time>
      </trkpt>
      <trkpt lat="45.92416" lon="6.50942">
        <ele>1991.4000244141</ele>
        <time>2014-02-12T13:43:29.000Z</time>
      </trkpt>
      <trkpt lat="45.92416" lon="6.50942">
        <ele>1991.4000244141</ele>
        <time>2014-02-12T13:43:30.000Z</time>
      </trkpt>
      <trkpt lat="45.92416" lon="6.50942">
        <ele>1991.4000244141</ele>
        <time>2014-02-12T13:43:31.000Z</time>
      </trkpt>
      <trkpt lat="45.92418" lon="6.50944">
        <ele>1992.5999755859</ele>
        <time>2014-02-12T13:43:32.000Z</time>
      </trkpt>
      <trkpt lat="45.92418" lon="6.50944">
        <ele>1992.5999755859</ele>
        <time>2014-02-12T13:43:33.000Z</time>
      </trkpt>
      <trkpt lat="45.92418" lon="6.50944">
        <ele>1992.5999755859</ele>
        <time>2014-02-12T13:43:34.000Z</time>
      </trkpt>
      <trkpt lat="45.92418" lon="6.50944">
        <ele>1992.5999755859</ele>
        <time>2014-02-12T13:43:35.000Z</time>
      </trkpt>
      <trkpt lat="45.92418" lon="6.50944">
        <ele>1992.5999755859</ele>
        <time>2014-02-12T13:43:36.000Z</time>
      </trkpt>
      <trkpt lat="45.92418" lon="6.50944">
        <ele>1992.5999755859</ele>
        <time>2014-02-12T13:43:37.000Z</time>
      </trkpt>
      <trkpt lat="45.92418" lon="6.50944">
        <ele>1992.5999755859</ele>
        <time>2014-02-12T13:43:39.000Z</time>
      </trkpt>
      <trkpt lat="45.92418" lon="6.50944">
        <ele>1992.5999755859</ele>
        <time>2014-02-12T13:43:40.000Z</time>
      </trkpt>
      <trkpt lat="45.92418" lon="6.50944">
        <ele>1992.5999755859</ele>
        <time>2014-02-12T13:43:41.000Z</time>
      </trkpt>
      <trkpt lat="45.92418" lon="6.50944">
        <ele>1992.5999755859</ele>
        <time>2014-02-12T13:43:42.000Z</time>
      </trkpt>
      <trkpt lat="45.92418" lon="6.50944">
        <ele>1992.5999755859</ele>
        <time>2014-02-12T13:43:43.000Z</time>
      </trkpt>
      <trkpt lat="45.92418" lon="6.50944">
        <ele>1992.5999755859</ele>
        <time>2014-02-12T13:43:44.000Z</time>
      </trkpt>
      <trkpt lat="45.92418" lon="6.50944">
        <ele>1992.5999755859</ele>
        <time>2014-02-12T13:43:45.000Z</time>
      </trkpt>
      <trkpt lat="45.92418" lon="6.50944">
        <ele>1992.5999755859</ele>
        <time>2014-02-12T13:43:46.000Z</time>
      </trkpt>
      <trkpt lat="45.92418" lon="6.50944">
        <ele>1992.5999755859</ele>
        <time>2014-02-12T13:43:47.000Z</time>
      </trkpt>
      <trkpt lat="45.92418" lon="6.50944">
        <ele>1992.5999755859</ele>
        <time>2014-02-12T13:43:49.000Z</time>
      </trkpt>
      <trkpt lat="45.92418" lon="6.50944">
        <ele>1992.5999755859</ele>
        <time>2014-02-12T13:43:50.000Z</time>
      </trkpt>
      <trkpt lat="45.92418" lon="6.50944">
        <ele>1992.5999755859</ele>
        <time>2014-02-12T13:43:51.000Z</time>
      </trkpt>
      <trkpt lat="45.92418" lon="6.50944">
        <ele>1992.5999755859</ele>
        <time>2014-02-12T13:43:52.000Z</time>
      </trkpt>
      <trkpt lat="45.92418" lon="6.50944">
        <ele>1992.5999755859</ele>
        <time>2014-02-12T13:43:53.000Z</time>
      </trkpt>
      <trkpt lat="45.92418" lon="6.50944">
        <ele>1992.5999755859</ele>
        <time>2014-02-12T13:43:54.000Z</time>
      </trkpt>
      <trkpt lat="45.92418" lon="6.50944">
        <ele>1992.5999755859</ele>
        <time>2014-02-12T13:43:55.000Z</time>
      </trkpt>
      <trkpt lat="45.92418" lon="6.50944">
        <ele>1992.5999755859</ele>
        <time>2014-02-12T13:43:56.000Z</time>
      </trkpt>
      <trkpt lat="45.92418" lon="6.50944">
        <ele>1992.5999755859</ele>
        <time>2014-02-12T13:43:57.000Z</time>
      </trkpt>
      <trkpt lat="45.92418" lon="6.50944">
        <ele>1992.5999755859</ele>
        <time>2014-02-12T13:43:58.000Z</time>
      </trkpt>
      <trkpt lat="45.92418" lon="6.50944">
        <ele>1992.5999755859</ele>
        <time>2014-02-12T13:43:59.000Z</time>
      </trkpt>
      <trkpt lat="45.92418" lon="6.50944">
        <ele>1992.5999755859</ele>
        <time>2014-02-12T13:44:00.000Z</time>
      </trkpt>
      <trkpt lat="45.92418" lon="6.50944">
        <ele>1992.5999755859</ele>
        <time>2014-02-12T13:44:01.000Z</time>
      </trkpt>
      <trkpt lat="45.92418" lon="6.50944">
        <ele>1992.5999755859</ele>
        <time>2014-02-12T13:44:02.000Z</time>
      </trkpt>
      <trkpt lat="45.92418" lon="6.50944">
        <ele>1992.5999755859</ele>
        <time>2014-02-12T13:44:03.000Z</time>
      </trkpt>
      <trkpt lat="45.92418" lon="6.50944">
        <ele>1992.5999755859</ele>
        <time>2014-02-12T13:44:04.000Z</time>
      </trkpt>
      <trkpt lat="45.92418" lon="6.50944">
        <ele>1992.5999755859</ele>
        <time>2014-02-12T13:44:05.000Z</time>
      </trkpt>
      <trkpt lat="45.92418" lon="6.50944">
        <ele>1992.5999755859</ele>
        <time>2014-02-12T13:44:06.000Z</time>
      </trkpt>
      <trkpt lat="45.92418" lon="6.50944">
        <ele>1992.5999755859</ele>
        <time>2014-02-12T13:44:07.000Z</time>
      </trkpt>
      <trkpt lat="45.92418" lon="6.50944">
        <ele>1992.5999755859</ele>
        <time>2014-02-12T13:44:08.000Z</time>
      </trkpt>
      <trkpt lat="45.92418" lon="6.50944">
        <ele>1992.5999755859</ele>
        <time>2014-02-12T13:44:09.000Z</time>
      </trkpt>
      <trkpt lat="45.92418" lon="6.50944">
        <ele>1992.5999755859</ele>
        <time>2014-02-12T13:44:11.000Z</time>
      </trkpt>
      <trkpt lat="45.9242" lon="6.50945">
        <ele>1994.4000244141</ele>
        <time>2014-02-12T13:44:12.000Z</time>
      </trkpt>
      <trkpt lat="45.9242" lon="6.50945">
        <ele>1994.4000244141</ele>
        <time>2014-02-12T13:44:13.000Z</time>
      </trkpt>
      <trkpt lat="45.9242" lon="6.50945">
        <ele>1994.4000244141</ele>
        <time>2014-02-12T13:44:14.000Z</time>
      </trkpt>
      <trkpt lat="45.9242" lon="6.50945">
        <ele>1994.4000244141</ele>
        <time>2014-02-12T13:44:15.000Z</time>
      </trkpt>
      <trkpt lat="45.9242" lon="6.50945">
        <ele>1994.4000244141</ele>
        <time>2014-02-12T13:44:17.000Z</time>
      </trkpt>
      <trkpt lat="45.9242" lon="6.50945">
        <ele>1994.4000244141</ele>
        <time>2014-02-12T13:44:18.000Z</time>
      </trkpt>
      <trkpt lat="45.9242" lon="6.50945">
        <ele>1994.4000244141</ele>
        <time>2014-02-12T13:44:19.000Z</time>
      </trkpt>
      <trkpt lat="45.9242" lon="6.50945">
        <ele>1994.4000244141</ele>
        <time>2014-02-12T13:44:20.000Z</time>
      </trkpt>
      <trkpt lat="45.9242" lon="6.50945">
        <ele>1994.4000244141</ele>
        <time>2014-02-12T13:44:21.000Z</time>
      </trkpt>
      <trkpt lat="45.9242" lon="6.50945">
        <ele>1994.4000244141</ele>
        <time>2014-02-12T13:44:22.000Z</time>
      </trkpt>
      <trkpt lat="45.9242" lon="6.50945">
        <ele>1994.4000244141</ele>
        <time>2014-02-12T13:44:23.000Z</time>
      </trkpt>
      <trkpt lat="45.9242" lon="6.50945">
        <ele>1994.4000244141</ele>
        <time>2014-02-12T13:44:24.000Z</time>
      </trkpt>
      <trkpt lat="45.9242" lon="6.50945">
        <ele>1994.4000244141</ele>
        <time>2014-02-12T13:44:25.000Z</time>
      </trkpt>
      <trkpt lat="45.9242" lon="6.50945">
        <ele>1994.4000244141</ele>
        <time>2014-02-12T13:44:26.000Z</time>
      </trkpt>
      <trkpt lat="45.9242" lon="6.50945">
        <ele>1994.4000244141</ele>
        <time>2014-02-12T13:44:27.000Z</time>
      </trkpt>
      <trkpt lat="45.9242" lon="6.50945">
        <ele>1994.4000244141</ele>
        <time>2014-02-12T13:44:29.000Z</time>
      </trkpt>
      <trkpt lat="45.9242" lon="6.50945">
        <ele>1994.4000244141</ele>
        <time>2014-02-12T13:44:30.000Z</time>
      </trkpt>
      <trkpt lat="45.92424" lon="6.50949">
        <ele>1997.8000488281</ele>
        <time>2014-02-12T13:44:31.000Z</time>
      </trkpt>
      <trkpt lat="45.92424" lon="6.50949">
        <ele>1997.8000488281</ele>
        <time>2014-02-12T13:44:32.000Z</time>
      </trkpt>
      <trkpt lat="45.92427" lon="6.50951">
        <ele>2000</ele>
        <time>2014-02-12T13:44:33.000Z</time>
      </trkpt>
      <trkpt lat="45.92429" lon="6.50952">
        <ele>2001.1999511719</ele>
        <time>2014-02-12T13:44:34.000Z</time>
      </trkpt>
      <trkpt lat="45.92429" lon="6.50953">
        <ele>2001.8000488281</ele>
        <time>2014-02-12T13:44:35.000Z</time>
      </trkpt>
      <trkpt lat="45.92429" lon="6.50953">
        <ele>2001.8000488281</ele>
        <time>2014-02-12T13:44:36.000Z</time>
      </trkpt>
      <trkpt lat="45.92429" lon="6.50954">
        <ele>2002.1999511719</ele>
        <time>2014-02-12T13:44:37.000Z</time>
      </trkpt>
      <trkpt lat="45.92429" lon="6.50954">
        <ele>2002.1999511719</ele>
        <time>2014-02-12T13:44:38.000Z</time>
      </trkpt>
      <trkpt lat="45.92429" lon="6.50954">
        <ele>2002.1999511719</ele>
        <time>2014-02-12T13:44:39.000Z</time>
      </trkpt>
      <trkpt lat="45.92429" lon="6.50954">
        <ele>2002.1999511719</ele>
        <time>2014-02-12T13:44:40.000Z</time>
      </trkpt>
      <trkpt lat="45.9243" lon="6.50954">
        <ele>2002.5999755859</ele>
        <time>2014-02-12T13:44:41.000Z</time>
      </trkpt>
      <trkpt lat="45.9243" lon="6.50954">
        <ele>2002.5999755859</ele>
        <time>2014-02-12T13:44:42.000Z</time>
      </trkpt>
      <trkpt lat="45.92432" lon="6.50955">
        <ele>2003.8000488281</ele>
        <time>2014-02-12T13:44:43.000Z</time>
      </trkpt>
      <trkpt lat="45.92432" lon="6.50956">
        <ele>2004.1999511719</ele>
        <time>2014-02-12T13:44:44.000Z</time>
      </trkpt>
      <trkpt lat="45.92433" lon="6.50956">
        <ele>2004.8000488281</ele>
        <time>2014-02-12T13:44:45.000Z</time>
      </trkpt>
      <trkpt lat="45.92434" lon="6.50957">
        <ele>2005.5999755859</ele>
        <time>2014-02-12T13:44:46.000Z</time>
      </trkpt>
      <trkpt lat="45.92434" lon="6.50957">
        <ele>2005.5999755859</ele>
        <time>2014-02-12T13:44:47.000Z</time>
      </trkpt>
      <trkpt lat="45.92434" lon="6.50958">
        <ele>2006</ele>
        <time>2014-02-12T13:44:48.000Z</time>
      </trkpt>
      <trkpt lat="45.92435" lon="6.50958">
        <ele>2006.5999755859</ele>
        <time>2014-02-12T13:44:49.000Z</time>
      </trkpt>
      <trkpt lat="45.92435" lon="6.50958">
        <ele>2006.5999755859</ele>
        <time>2014-02-12T13:44:50.000Z</time>
      </trkpt>
      <trkpt lat="45.92436" lon="6.50959">
        <ele>2007</ele>
        <time>2014-02-12T13:44:51.000Z</time>
      </trkpt>
      <trkpt lat="45.92436" lon="6.50959">
        <ele>2007</ele>
        <time>2014-02-12T13:44:52.000Z</time>
      </trkpt>
      <trkpt lat="45.92436" lon="6.50959">
        <ele>2007</ele>
        <time>2014-02-12T13:44:53.000Z</time>
      </trkpt>
      <trkpt lat="45.92436" lon="6.50959">
        <ele>2007</ele>
        <time>2014-02-12T13:44:54.000Z</time>
      </trkpt>
      <trkpt lat="45.92436" lon="6.50959">
        <ele>2007</ele>
        <time>2014-02-12T13:44:55.000Z</time>
      </trkpt>
      <trkpt lat="45.92436" lon="6.50959">
        <ele>2007</ele>
        <time>2014-02-12T13:44:56.000Z</time>
      </trkpt>
      <trkpt lat="45.92436" lon="6.5096">
        <ele>2007.5999755859</ele>
        <time>2014-02-12T13:44:57.000Z</time>
      </trkpt>
      <trkpt lat="45.92436" lon="6.5096">
        <ele>2007.5999755859</ele>
        <time>2014-02-12T13:44:58.000Z</time>
      </trkpt>
      <trkpt lat="45.92437" lon="6.5096">
        <ele>2008.1999511719</ele>
        <time>2014-02-12T13:44:59.000Z</time>
      </trkpt>
      <trkpt lat="45.92437" lon="6.50961">
        <ele>2008.4000244141</ele>
        <time>2014-02-12T13:45:00.000Z</time>
      </trkpt>
      <trkpt lat="45.92438" lon="6.50961">
        <ele>2009</ele>
        <time>2014-02-12T13:45:01.000Z</time>
      </trkpt>
      <trkpt lat="45.92438" lon="6.50961">
        <ele>2009.1999511719</ele>
        <time>2014-02-12T13:45:02.000Z</time>
      </trkpt>
      <trkpt lat="45.92438" lon="6.50962">
        <ele>2009.4000244141</ele>
        <time>2014-02-12T13:45:03.000Z</time>
      </trkpt>
      <trkpt lat="45.92438" lon="6.50962">
        <ele>2009.5999755859</ele>
        <time>2014-02-12T13:45:04.000Z</time>
      </trkpt>
      <trkpt lat="45.92439" lon="6.50962">
        <ele>2009.8000488281</ele>
        <time>2014-02-12T13:45:05.000Z</time>
      </trkpt>
      <trkpt lat="45.92438" lon="6.50962">
        <ele>2009.5999755859</ele>
        <time>2014-02-12T13:45:06.000Z</time>
      </trkpt>
      <trkpt lat="45.92438" lon="6.50962">
        <ele>2009.5999755859</ele>
        <time>2014-02-12T13:45:07.000Z</time>
      </trkpt>
      <trkpt lat="45.92438" lon="6.50962">
        <ele>2009.5999755859</ele>
        <time>2014-02-12T13:45:08.000Z</time>
      </trkpt>
      <trkpt lat="45.92438" lon="6.50962">
        <ele>2009.5999755859</ele>
        <time>2014-02-12T13:45:09.000Z</time>
      </trkpt>
      <trkpt lat="45.92438" lon="6.50962">
        <ele>2009.5999755859</ele>
        <time>2014-02-12T13:45:10.000Z</time>
      </trkpt>
      <trkpt lat="45.92437" lon="6.50962">
        <ele>2009</ele>
        <time>2014-02-12T13:45:11.000Z</time>
      </trkpt>
      <trkpt lat="45.92436" lon="6.50962">
        <ele>2008.1999511719</ele>
        <time>2014-02-12T13:45:12.000Z</time>
      </trkpt>
      <trkpt lat="45.92435" lon="6.50961">
        <ele>2007.5999755859</ele>
        <time>2014-02-12T13:45:13.000Z</time>
      </trkpt>
      <trkpt lat="45.92434" lon="6.50961">
        <ele>2007</ele>
        <time>2014-02-12T13:45:14.000Z</time>
      </trkpt>
      <trkpt lat="45.92432" lon="6.50961">
        <ele>2006.1999511719</ele>
        <time>2014-02-12T13:45:15.000Z</time>
      </trkpt>
      <trkpt lat="45.92429" lon="6.50962">
        <ele>2005.4000244141</ele>
        <time>2014-02-12T13:45:16.000Z</time>
      </trkpt>
      <trkpt lat="45.92428" lon="6.50962">
        <ele>2004.8000488281</ele>
        <time>2014-02-12T13:45:17.000Z</time>
      </trkpt>
      <trkpt lat="45.92427" lon="6.50963">
        <ele>2004.8000488281</ele>
        <time>2014-02-12T13:45:18.000Z</time>
      </trkpt>
      <trkpt lat="45.92426" lon="6.50962">
        <ele>2004.1999511719</ele>
        <time>2014-02-12T13:45:19.000Z</time>
      </trkpt>
      <trkpt lat="45.92425" lon="6.50962">
        <ele>2003.4000244141</ele>
        <time>2014-02-12T13:45:20.000Z</time>
      </trkpt>
      <trkpt lat="45.92425" lon="6.50962">
        <ele>2003.4000244141</ele>
        <time>2014-02-12T13:45:21.000Z</time>
      </trkpt>
      <trkpt lat="45.92424" lon="6.50961">
        <ele>2002.5999755859</ele>
        <time>2014-02-12T13:45:22.000Z</time>
      </trkpt>
      <trkpt lat="45.92422" lon="6.50961">
        <ele>2001.8000488281</ele>
        <time>2014-02-12T13:45:23.000Z</time>
      </trkpt>
      <trkpt lat="45.92422" lon="6.50961">
        <ele>2001.8000488281</ele>
        <time>2014-02-12T13:45:24.000Z</time>
      </trkpt>
      <trkpt lat="45.92421" lon="6.5096">
        <ele>2000.8000488281</ele>
        <time>2014-02-12T13:45:25.000Z</time>
      </trkpt>
      <trkpt lat="45.9242" lon="6.5096">
        <ele>2000.1999511719</ele>
        <time>2014-02-12T13:45:26.000Z</time>
      </trkpt>
      <trkpt lat="45.92418" lon="6.50959">
        <ele>1999.4000244141</ele>
        <time>2014-02-12T13:45:27.000Z</time>
      </trkpt>
      <trkpt lat="45.92417" lon="6.50959">
        <ele>1998.5999755859</ele>
        <time>2014-02-12T13:45:28.000Z</time>
      </trkpt>
      <trkpt lat="45.92416" lon="6.50959">
        <ele>1998</ele>
        <time>2014-02-12T13:45:29.000Z</time>
      </trkpt>
      <trkpt lat="45.92414" lon="6.50959">
        <ele>1997.1999511719</ele>
        <time>2014-02-12T13:45:30.000Z</time>
      </trkpt>
      <trkpt lat="45.92413" lon="6.50958">
        <ele>1996.5999755859</ele>
        <time>2014-02-12T13:45:31.000Z</time>
      </trkpt>
      <trkpt lat="45.92411" lon="6.50958">
        <ele>1996</ele>
        <time>2014-02-12T13:45:32.000Z</time>
      </trkpt>
      <trkpt lat="45.9241" lon="6.50958">
        <ele>1995</ele>
        <time>2014-02-12T13:45:33.000Z</time>
      </trkpt>
      <trkpt lat="45.92408" lon="6.50957">
        <ele>1994.1999511719</ele>
        <time>2014-02-12T13:45:34.000Z</time>
      </trkpt>
      <trkpt lat="45.92407" lon="6.50957">
        <ele>1993.1999511719</ele>
        <time>2014-02-12T13:45:35.000Z</time>
      </trkpt>
      <trkpt lat="45.92405" lon="6.50956">
        <ele>1992.4000244141</ele>
        <time>2014-02-12T13:45:36.000Z</time>
      </trkpt>
      <trkpt lat="45.92403" lon="6.50956">
        <ele>1991.4000244141</ele>
        <time>2014-02-12T13:45:37.000Z</time>
      </trkpt>
      <trkpt lat="45.92402" lon="6.50955">
        <ele>1990.5999755859</ele>
        <time>2014-02-12T13:45:38.000Z</time>
      </trkpt>
      <trkpt lat="45.924" lon="6.50955">
        <ele>1989.8000488281</ele>
        <time>2014-02-12T13:45:39.000Z</time>
      </trkpt>
      <trkpt lat="45.92399" lon="6.50955">
        <ele>1988.8000488281</ele>
        <time>2014-02-12T13:45:40.000Z</time>
      </trkpt>
      <trkpt lat="45.92398" lon="6.50954">
        <ele>1988.1999511719</ele>
        <time>2014-02-12T13:45:41.000Z</time>
      </trkpt>
      <trkpt lat="45.92396" lon="6.50954">
        <ele>1987.4000244141</ele>
        <time>2014-02-12T13:45:42.000Z</time>
      </trkpt>
      <trkpt lat="45.92395" lon="6.50954">
        <ele>1986.8000488281</ele>
        <time>2014-02-12T13:45:43.000Z</time>
      </trkpt>
      <trkpt lat="45.92394" lon="6.50954">
        <ele>1986.1999511719</ele>
        <time>2014-02-12T13:45:44.000Z</time>
      </trkpt>
      <trkpt lat="45.92392" lon="6.50953">
        <ele>1985.4000244141</ele>
        <time>2014-02-12T13:45:45.000Z</time>
      </trkpt>
      <trkpt lat="45.92391" lon="6.50953">
        <ele>1985</ele>
        <time>2014-02-12T13:45:46.000Z</time>
      </trkpt>
      <trkpt lat="45.9239" lon="6.50953">
        <ele>1984.4000244141</ele>
        <time>2014-02-12T13:45:47.000Z</time>
      </trkpt>
      <trkpt lat="45.92389" lon="6.50952">
        <ele>1984.1999511719</ele>
        <time>2014-02-12T13:45:48.000Z</time>
      </trkpt>
      <trkpt lat="45.92387" lon="6.50952">
        <ele>1984</ele>
        <time>2014-02-12T13:45:49.000Z</time>
      </trkpt>
      <trkpt lat="45.92387" lon="6.50952">
        <ele>1984</ele>
        <time>2014-02-12T13:45:50.000Z</time>
      </trkpt>
      <trkpt lat="45.92387" lon="6.50952">
        <ele>1984</ele>
        <time>2014-02-12T13:45:51.000Z</time>
      </trkpt>
      <trkpt lat="45.92387" lon="6.50952">
        <ele>1984</ele>
        <time>2014-02-12T13:45:52.000Z</time>
      </trkpt>
      <trkpt lat="45.92387" lon="6.50953">
        <ele>1984.4000244141</ele>
        <time>2014-02-12T13:45:57.000Z</time>
      </trkpt>
      <trkpt lat="45.92387" lon="6.50954">
        <ele>1984.8000488281</ele>
        <time>2014-02-12T13:45:58.000Z</time>
      </trkpt>
      <trkpt lat="45.92387" lon="6.50956">
        <ele>1985.4000244141</ele>
        <time>2014-02-12T13:45:59.000Z</time>
      </trkpt>
      <trkpt lat="45.92387" lon="6.50956">
        <ele>1985.4000244141</ele>
        <time>2014-02-12T13:46:00.000Z</time>
      </trkpt>
      <trkpt lat="45.92387" lon="6.50957">
        <ele>1986.1999511719</ele>
        <time>2014-02-12T13:46:01.000Z</time>
      </trkpt>
      <trkpt lat="45.92388" lon="6.50959">
        <ele>1986.8000488281</ele>
        <time>2014-02-12T13:46:02.000Z</time>
      </trkpt>
      <trkpt lat="45.92389" lon="6.5096">
        <ele>1987.4000244141</ele>
        <time>2014-02-12T13:46:03.000Z</time>
      </trkpt>
      <trkpt lat="45.92391" lon="6.50962">
        <ele>1988.4000244141</ele>
        <time>2014-02-12T13:46:04.000Z</time>
      </trkpt>
      <trkpt lat="45.92391" lon="6.50962">
        <ele>1988.4000244141</ele>
        <time>2014-02-12T13:46:05.000Z</time>
      </trkpt>
      <trkpt lat="45.92391" lon="6.50962">
        <ele>1988.4000244141</ele>
        <time>2014-02-12T13:46:06.000Z</time>
      </trkpt>
      <trkpt lat="45.92392" lon="6.50964">
        <ele>1989.5999755859</ele>
        <time>2014-02-12T13:46:07.000Z</time>
      </trkpt>
      <trkpt lat="45.92392" lon="6.50964">
        <ele>1989.5999755859</ele>
        <time>2014-02-12T13:46:08.000Z</time>
      </trkpt>
      <trkpt lat="45.92392" lon="6.50964">
        <ele>1989.5999755859</ele>
        <time>2014-02-12T13:46:09.000Z</time>
      </trkpt>
      <trkpt lat="45.92393" lon="6.50965">
        <ele>1990.5999755859</ele>
        <time>2014-02-12T13:46:10.000Z</time>
      </trkpt>
      <trkpt lat="45.92394" lon="6.50967">
        <ele>1991.8000488281</ele>
        <time>2014-02-12T13:46:11.000Z</time>
      </trkpt>
      <trkpt lat="45.92395" lon="6.50969">
        <ele>1993</ele>
        <time>2014-02-12T13:46:12.000Z</time>
      </trkpt>
      <trkpt lat="45.92396" lon="6.5097">
        <ele>1994</ele>
        <time>2014-02-12T13:46:13.000Z</time>
      </trkpt>
      <trkpt lat="45.92396" lon="6.5097">
        <ele>1994</ele>
        <time>2014-02-12T13:46:14.000Z</time>
      </trkpt>
      <trkpt lat="45.92397" lon="6.50972">
        <ele>1995.1999511719</ele>
        <time>2014-02-12T13:46:15.000Z</time>
      </trkpt>
      <trkpt lat="45.92398" lon="6.50973">
        <ele>1996.4000244141</ele>
        <time>2014-02-12T13:46:16.000Z</time>
      </trkpt>
      <trkpt lat="45.924" lon="6.50975">
        <ele>1997.5999755859</ele>
        <time>2014-02-12T13:46:17.000Z</time>
      </trkpt>
      <trkpt lat="45.924" lon="6.50975">
        <ele>1997.5999755859</ele>
        <time>2014-02-12T13:46:18.000Z</time>
      </trkpt>
      <trkpt lat="45.924" lon="6.50975">
        <ele>1997.5999755859</ele>
        <time>2014-02-12T13:46:19.000Z</time>
      </trkpt>
      <trkpt lat="45.924" lon="6.50975">
        <ele>1997.5999755859</ele>
        <time>2014-02-12T13:46:20.000Z</time>
      </trkpt>
      <trkpt lat="45.924" lon="6.50975">
        <ele>1997.5999755859</ele>
        <time>2014-02-12T13:46:21.000Z</time>
      </trkpt>
      <trkpt lat="45.924" lon="6.50975">
        <ele>1997.5999755859</ele>
        <time>2014-02-12T13:46:22.000Z</time>
      </trkpt>
      <trkpt lat="45.924" lon="6.50975">
        <ele>1997.5999755859</ele>
        <time>2014-02-12T13:46:23.000Z</time>
      </trkpt>
      <trkpt lat="45.924" lon="6.50975">
        <ele>1997.5999755859</ele>
        <time>2014-02-12T13:46:24.000Z</time>
      </trkpt>
      <trkpt lat="45.924" lon="6.50975">
        <ele>1997.5999755859</ele>
        <time>2014-02-12T13:46:25.000Z</time>
      </trkpt>
      <trkpt lat="45.924" lon="6.50975">
        <ele>1997.5999755859</ele>
        <time>2014-02-12T13:46:26.000Z</time>
      </trkpt>
      <trkpt lat="45.92402" lon="6.50976">
        <ele>1998.8000488281</ele>
        <time>2014-02-12T13:46:27.000Z</time>
      </trkpt>
      <trkpt lat="45.92402" lon="6.50976">
        <ele>1998.8000488281</ele>
        <time>2014-02-12T13:46:28.000Z</time>
      </trkpt>
      <trkpt lat="45.92404" lon="6.50977">
        <ele>2000.1999511719</ele>
        <time>2014-02-12T13:46:29.000Z</time>
      </trkpt>
      <trkpt lat="45.92405" lon="6.50977">
        <ele>2001</ele>
        <time>2014-02-12T13:46:30.000Z</time>
      </trkpt>
      <trkpt lat="45.92405" lon="6.50977">
        <ele>2001</ele>
        <time>2014-02-12T13:46:31.000Z</time>
      </trkpt>
      <trkpt lat="45.92406" lon="6.50978">
        <ele>2001.4000244141</ele>
        <time>2014-02-12T13:46:32.000Z</time>
      </trkpt>
      <trkpt lat="45.92407" lon="6.50978">
        <ele>2002</ele>
        <time>2014-02-12T13:46:33.000Z</time>
      </trkpt>
      <trkpt lat="45.92408" lon="6.50978">
        <ele>2002.4000244141</ele>
        <time>2014-02-12T13:46:34.000Z</time>
      </trkpt>
      <trkpt lat="45.92408" lon="6.50978">
        <ele>2002.4000244141</ele>
        <time>2014-02-12T13:46:35.000Z</time>
      </trkpt>
      <trkpt lat="45.92408" lon="6.50979">
        <ele>2003.1999511719</ele>
        <time>2014-02-12T13:46:36.000Z</time>
      </trkpt>
      <trkpt lat="45.92408" lon="6.50979">
        <ele>2003.1999511719</ele>
        <time>2014-02-12T13:46:37.000Z</time>
      </trkpt>
      <trkpt lat="45.92408" lon="6.50979">
        <ele>2003.1999511719</ele>
        <time>2014-02-12T13:46:38.000Z</time>
      </trkpt>
      <trkpt lat="45.92408" lon="6.50979">
        <ele>2003.1999511719</ele>
        <time>2014-02-12T13:46:39.000Z</time>
      </trkpt>
      <trkpt lat="45.92409" lon="6.5098">
        <ele>2003.8000488281</ele>
        <time>2014-02-12T13:46:40.000Z</time>
      </trkpt>
      <trkpt lat="45.92409" lon="6.5098">
        <ele>2003.8000488281</ele>
        <time>2014-02-12T13:46:41.000Z</time>
      </trkpt>
      <trkpt lat="45.92411" lon="6.50981">
        <ele>2004.8000488281</ele>
        <time>2014-02-12T13:46:42.000Z</time>
      </trkpt>
      <trkpt lat="45.92411" lon="6.50981">
        <ele>2004.8000488281</ele>
        <time>2014-02-12T13:46:43.000Z</time>
      </trkpt>
      <trkpt lat="45.92411" lon="6.50981">
        <ele>2004.8000488281</ele>
        <time>2014-02-12T13:46:44.000Z</time>
      </trkpt>
      <trkpt lat="45.92411" lon="6.50981">
        <ele>2004.8000488281</ele>
        <time>2014-02-12T13:46:45.000Z</time>
      </trkpt>
      <trkpt lat="45.92411" lon="6.50981">
        <ele>2004.8000488281</ele>
        <time>2014-02-12T13:46:46.000Z</time>
      </trkpt>
      <trkpt lat="45.92411" lon="6.50981">
        <ele>2004.8000488281</ele>
        <time>2014-02-12T13:46:47.000Z</time>
      </trkpt>
      <trkpt lat="45.92411" lon="6.50981">
        <ele>2004.8000488281</ele>
        <time>2014-02-12T13:46:48.000Z</time>
      </trkpt>
      <trkpt lat="45.92412" lon="6.50981">
        <ele>2005.1999511719</ele>
        <time>2014-02-12T13:46:49.000Z</time>
      </trkpt>
      <trkpt lat="45.92412" lon="6.50981">
        <ele>2005.1999511719</ele>
        <time>2014-02-12T13:46:50.000Z</time>
      </trkpt>
      <trkpt lat="45.92412" lon="6.50981">
        <ele>2005.1999511719</ele>
        <time>2014-02-12T13:46:51.000Z</time>
      </trkpt>
      <trkpt lat="45.92412" lon="6.50981">
        <ele>2005.1999511719</ele>
        <time>2014-02-12T13:46:52.000Z</time>
      </trkpt>
      <trkpt lat="45.92412" lon="6.50981">
        <ele>2005.1999511719</ele>
        <time>2014-02-12T13:46:53.000Z</time>
      </trkpt>
      <trkpt lat="45.92412" lon="6.50981">
        <ele>2005.1999511719</ele>
        <time>2014-02-12T13:46:54.000Z</time>
      </trkpt>
      <trkpt lat="45.92412" lon="6.50981">
        <ele>2005.1999511719</ele>
        <time>2014-02-12T13:46:55.000Z</time>
      </trkpt>
      <trkpt lat="45.92413" lon="6.50982">
        <ele>2006.4000244141</ele>
        <time>2014-02-12T13:46:56.000Z</time>
      </trkpt>
      <trkpt lat="45.92415" lon="6.50983">
        <ele>2007.8000488281</ele>
        <time>2014-02-12T13:46:57.000Z</time>
      </trkpt>
      <trkpt lat="45.92416" lon="6.50985">
        <ele>2009.5999755859</ele>
        <time>2014-02-12T13:46:58.000Z</time>
      </trkpt>
      <trkpt lat="45.92416" lon="6.50985">
        <ele>2009.5999755859</ele>
        <time>2014-02-12T13:46:59.000Z</time>
      </trkpt>
      <trkpt lat="45.92416" lon="6.50985">
        <ele>2009.5999755859</ele>
        <time>2014-02-12T13:47:00.000Z</time>
      </trkpt>
      <trkpt lat="45.92416" lon="6.50985">
        <ele>2009.5999755859</ele>
        <time>2014-02-12T13:47:01.000Z</time>
      </trkpt>
      <trkpt lat="45.92416" lon="6.50985">
        <ele>2009.8000488281</ele>
        <time>2014-02-12T13:47:02.000Z</time>
      </trkpt>
      <trkpt lat="45.92415" lon="6.50985">
        <ele>2010</ele>
        <time>2014-02-12T13:47:03.000Z</time>
      </trkpt>
      <trkpt lat="45.92415" lon="6.50986">
        <ele>2010.1999511719</ele>
        <time>2014-02-12T13:47:04.000Z</time>
      </trkpt>
      <trkpt lat="45.92415" lon="6.50986">
        <ele>2010.4000244141</ele>
        <time>2014-02-12T13:47:05.000Z</time>
      </trkpt>
      <trkpt lat="45.92414" lon="6.50986">
        <ele>2010.5999755859</ele>
        <time>2014-02-12T13:47:06.000Z</time>
      </trkpt>
      <trkpt lat="45.92414" lon="6.50987">
        <ele>2011.1999511719</ele>
        <time>2014-02-12T13:47:07.000Z</time>
      </trkpt>
      <trkpt lat="45.92413" lon="6.50987">
        <ele>2011.1999511719</ele>
        <time>2014-02-12T13:47:08.000Z</time>
      </trkpt>
      <trkpt lat="45.92413" lon="6.50987">
        <ele>2011.1999511719</ele>
        <time>2014-02-12T13:47:09.000Z</time>
      </trkpt>
      <trkpt lat="45.92413" lon="6.50988">
        <ele>2011.4000244141</ele>
        <time>2014-02-12T13:47:10.000Z</time>
      </trkpt>
      <trkpt lat="45.92412" lon="6.50988">
        <ele>2011.4000244141</ele>
        <time>2014-02-12T13:47:11.000Z</time>
      </trkpt>
      <trkpt lat="45.92411" lon="6.50989">
        <ele>2011.8000488281</ele>
        <time>2014-02-12T13:47:12.000Z</time>
      </trkpt>
      <trkpt lat="45.92411" lon="6.50989">
        <ele>2012.4000244141</ele>
        <time>2014-02-12T13:47:13.000Z</time>
      </trkpt>
      <trkpt lat="45.9241" lon="6.5099">
        <ele>2013</ele>
        <time>2014-02-12T13:47:14.000Z</time>
      </trkpt>
      <trkpt lat="45.9241" lon="6.50991">
        <ele>2013.5999755859</ele>
        <time>2014-02-12T13:47:15.000Z</time>
      </trkpt>
      <trkpt lat="45.9241" lon="6.50991">
        <ele>2014</ele>
        <time>2014-02-12T13:47:16.000Z</time>
      </trkpt>
      <trkpt lat="45.9241" lon="6.50992">
        <ele>2014.4000244141</ele>
        <time>2014-02-12T13:47:17.000Z</time>
      </trkpt>
      <trkpt lat="45.9241" lon="6.50992">
        <ele>2014.4000244141</ele>
        <time>2014-02-12T13:47:18.000Z</time>
      </trkpt>
      <trkpt lat="45.9241" lon="6.50992">
        <ele>2014.4000244141</ele>
        <time>2014-02-12T13:47:19.000Z</time>
      </trkpt>
      <trkpt lat="45.9241" lon="6.50992">
        <ele>2014.4000244141</ele>
        <time>2014-02-12T13:47:20.000Z</time>
      </trkpt>
      <trkpt lat="45.9241" lon="6.50992">
        <ele>2014.4000244141</ele>
        <time>2014-02-12T13:47:21.000Z</time>
      </trkpt>
      <trkpt lat="45.9241" lon="6.50992">
        <ele>2014.4000244141</ele>
        <time>2014-02-12T13:47:22.000Z</time>
      </trkpt>
      <trkpt lat="45.9241" lon="6.50992">
        <ele>2014.4000244141</ele>
        <time>2014-02-12T13:47:23.000Z</time>
      </trkpt>
      <trkpt lat="45.9241" lon="6.50992">
        <ele>2014.4000244141</ele>
        <time>2014-02-12T13:47:24.000Z</time>
      </trkpt>
      <trkpt lat="45.9241" lon="6.50992">
        <ele>2014.4000244141</ele>
        <time>2014-02-12T13:47:25.000Z</time>
      </trkpt>
      <trkpt lat="45.9241" lon="6.50992">
        <ele>2014.4000244141</ele>
        <time>2014-02-12T13:47:27.000Z</time>
      </trkpt>
      <trkpt lat="45.9241" lon="6.50992">
        <ele>2014.4000244141</ele>
        <time>2014-02-12T13:47:28.000Z</time>
      </trkpt>
      <trkpt lat="45.9241" lon="6.50992">
        <ele>2014.4000244141</ele>
        <time>2014-02-12T13:47:29.000Z</time>
      </trkpt>
      <trkpt lat="45.92409" lon="6.50992">
        <ele>2014.8000488281</ele>
        <time>2014-02-12T13:47:30.000Z</time>
      </trkpt>
      <trkpt lat="45.92409" lon="6.50993">
        <ele>2015.1999511719</ele>
        <time>2014-02-12T13:47:31.000Z</time>
      </trkpt>
      <trkpt lat="45.92408" lon="6.50993">
        <ele>2015.5999755859</ele>
        <time>2014-02-12T13:47:32.000Z</time>
      </trkpt>
      <trkpt lat="45.92408" lon="6.50993">
        <ele>2015.5999755859</ele>
        <time>2014-02-12T13:47:33.000Z</time>
      </trkpt>
      <trkpt lat="45.92408" lon="6.50993">
        <ele>2015.5999755859</ele>
        <time>2014-02-12T13:47:34.000Z</time>
      </trkpt>
      <trkpt lat="45.92408" lon="6.50993">
        <ele>2015.5999755859</ele>
        <time>2014-02-12T13:47:35.000Z</time>
      </trkpt>
      <trkpt lat="45.92408" lon="6.50993">
        <ele>2015.5999755859</ele>
        <time>2014-02-12T13:47:36.000Z</time>
      </trkpt>
      <trkpt lat="45.92408" lon="6.50993">
        <ele>2015.5999755859</ele>
        <time>2014-02-12T13:47:37.000Z</time>
      </trkpt>
      <trkpt lat="45.92408" lon="6.50993">
        <ele>2015.5999755859</ele>
        <time>2014-02-12T13:47:38.000Z</time>
      </trkpt>
      <trkpt lat="45.92408" lon="6.50993">
        <ele>2015.5999755859</ele>
        <time>2014-02-12T13:47:39.000Z</time>
      </trkpt>
      <trkpt lat="45.92408" lon="6.50993">
        <ele>2015.5999755859</ele>
        <time>2014-02-12T13:47:40.000Z</time>
      </trkpt>
      <trkpt lat="45.92408" lon="6.50993">
        <ele>2015.5999755859</ele>
        <time>2014-02-12T13:47:41.000Z</time>
      </trkpt>
      <trkpt lat="45.92408" lon="6.50993">
        <ele>2015.5999755859</ele>
        <time>2014-02-12T13:47:42.000Z</time>
      </trkpt>
      <trkpt lat="45.92408" lon="6.50993">
        <ele>2015.5999755859</ele>
        <time>2014-02-12T13:47:43.000Z</time>
      </trkpt>
      <trkpt lat="45.92408" lon="6.50993">
        <ele>2015.5999755859</ele>
        <time>2014-02-12T13:47:44.000Z</time>
      </trkpt>
      <trkpt lat="45.92408" lon="6.50993">
        <ele>2015.5999755859</ele>
        <time>2014-02-12T13:47:45.000Z</time>
      </trkpt>
      <trkpt lat="45.92408" lon="6.50993">
        <ele>2015.5999755859</ele>
        <time>2014-02-12T13:47:46.000Z</time>
      </trkpt>
      <trkpt lat="45.92408" lon="6.50993">
        <ele>2015.5999755859</ele>
        <time>2014-02-12T13:47:47.000Z</time>
      </trkpt>
      <trkpt lat="45.92408" lon="6.50993">
        <ele>2015.5999755859</ele>
        <time>2014-02-12T13:47:48.000Z</time>
      </trkpt>
      <trkpt lat="45.92408" lon="6.50993">
        <ele>2015.5999755859</ele>
        <time>2014-02-12T13:47:49.000Z</time>
      </trkpt>
      <trkpt lat="45.92408" lon="6.50993">
        <ele>2015.5999755859</ele>
        <time>2014-02-12T13:47:50.000Z</time>
      </trkpt>
      <trkpt lat="45.92408" lon="6.50993">
        <ele>2015.5999755859</ele>
        <time>2014-02-12T13:47:51.000Z</time>
      </trkpt>
      <trkpt lat="45.92408" lon="6.50993">
        <ele>2015.5999755859</ele>
        <time>2014-02-12T13:47:52.000Z</time>
      </trkpt>
      <trkpt lat="45.92408" lon="6.50993">
        <ele>2015.5999755859</ele>
        <time>2014-02-12T13:47:53.000Z</time>
      </trkpt>
      <trkpt lat="45.92408" lon="6.50993">
        <ele>2015.5999755859</ele>
        <time>2014-02-12T13:47:54.000Z</time>
      </trkpt>
      <trkpt lat="45.92408" lon="6.50993">
        <ele>2015.5999755859</ele>
        <time>2014-02-12T13:47:55.000Z</time>
      </trkpt>
      <trkpt lat="45.92408" lon="6.50993">
        <ele>2015.5999755859</ele>
        <time>2014-02-12T13:47:56.000Z</time>
      </trkpt>
      <trkpt lat="45.92408" lon="6.50993">
        <ele>2015.5999755859</ele>
        <time>2014-02-12T13:47:57.000Z</time>
      </trkpt>
      <trkpt lat="45.92408" lon="6.50993">
        <ele>2015.5999755859</ele>
        <time>2014-02-12T13:47:58.000Z</time>
      </trkpt>
      <trkpt lat="45.92408" lon="6.50993">
        <ele>2015.5999755859</ele>
        <time>2014-02-12T13:47:59.000Z</time>
      </trkpt>
      <trkpt lat="45.92408" lon="6.50993">
        <ele>2015.5999755859</ele>
        <time>2014-02-12T13:48:00.000Z</time>
      </trkpt>
      <trkpt lat="45.92408" lon="6.50993">
        <ele>2015.5999755859</ele>
        <time>2014-02-12T13:48:01.000Z</time>
      </trkpt>
      <trkpt lat="45.92408" lon="6.50993">
        <ele>2015.5999755859</ele>
        <time>2014-02-12T13:48:02.000Z</time>
      </trkpt>
      <trkpt lat="45.92408" lon="6.50993">
        <ele>2015.5999755859</ele>
        <time>2014-02-12T13:48:03.000Z</time>
      </trkpt>
      <trkpt lat="45.92408" lon="6.50993">
        <ele>2015.5999755859</ele>
        <time>2014-02-12T13:48:04.000Z</time>
      </trkpt>
      <trkpt lat="45.92408" lon="6.50993">
        <ele>2015.5999755859</ele>
        <time>2014-02-12T13:48:05.000Z</time>
      </trkpt>
      <trkpt lat="45.92408" lon="6.50993">
        <ele>2015.5999755859</ele>
        <time>2014-02-12T13:48:06.000Z</time>
      </trkpt>
      <trkpt lat="45.92408" lon="6.50993">
        <ele>2015.5999755859</ele>
        <time>2014-02-12T13:48:07.000Z</time>
      </trkpt>
      <trkpt lat="45.92408" lon="6.50993">
        <ele>2015.5999755859</ele>
        <time>2014-02-12T13:48:08.000Z</time>
      </trkpt>
      <trkpt lat="45.92408" lon="6.50993">
        <ele>2015.5999755859</ele>
        <time>2014-02-12T13:48:09.000Z</time>
      </trkpt>
      <trkpt lat="45.92408" lon="6.50993">
        <ele>2015.5999755859</ele>
        <time>2014-02-12T13:48:10.000Z</time>
      </trkpt>
      <trkpt lat="45.92408" lon="6.50993">
        <ele>2015.5999755859</ele>
        <time>2014-02-12T13:48:11.000Z</time>
      </trkpt>
      <trkpt lat="45.92408" lon="6.50996">
        <ele>2018.1999511719</ele>
        <time>2014-02-12T13:48:12.000Z</time>
      </trkpt>
      <trkpt lat="45.92408" lon="6.50996">
        <ele>2018.1999511719</ele>
        <time>2014-02-12T13:48:13.000Z</time>
      </trkpt>
      <trkpt lat="45.92408" lon="6.50996">
        <ele>2018.1999511719</ele>
        <time>2014-02-12T13:48:14.000Z</time>
      </trkpt>
      <trkpt lat="45.92408" lon="6.50996">
        <ele>2018.1999511719</ele>
        <time>2014-02-12T13:48:15.000Z</time>
      </trkpt>
      <trkpt lat="45.92408" lon="6.50996">
        <ele>2018.1999511719</ele>
        <time>2014-02-12T13:48:16.000Z</time>
      </trkpt>
      <trkpt lat="45.92408" lon="6.51004">
        <ele>2026</ele>
        <time>2014-02-12T13:48:17.000Z</time>
      </trkpt>
      <trkpt lat="45.92409" lon="6.5101">
        <ele>2030.8000488281</ele>
        <time>2014-02-12T13:48:18.000Z</time>
      </trkpt>
      <trkpt lat="45.92409" lon="6.51014">
        <ele>2034</ele>
        <time>2014-02-12T13:48:19.000Z</time>
      </trkpt>
      <trkpt lat="45.92409" lon="6.51014">
        <ele>2034</ele>
        <time>2014-02-12T13:48:20.000Z</time>
      </trkpt>
      <trkpt lat="45.92409" lon="6.51014">
        <ele>2034</ele>
        <time>2014-02-12T13:48:21.000Z</time>
      </trkpt>
      <trkpt lat="45.92409" lon="6.51016">
        <ele>2035.5999755859</ele>
        <time>2014-02-12T13:48:22.000Z</time>
      </trkpt>
      <trkpt lat="45.92409" lon="6.51018">
        <ele>2036.8000488281</ele>
        <time>2014-02-12T13:48:23.000Z</time>
      </trkpt>
      <trkpt lat="45.92409" lon="6.51018">
        <ele>2036.8000488281</ele>
        <time>2014-02-12T13:48:24.000Z</time>
      </trkpt>
      <trkpt lat="45.92409" lon="6.51018">
        <ele>2036.8000488281</ele>
        <time>2014-02-12T13:48:25.000Z</time>
      </trkpt>
      <trkpt lat="45.9241" lon="6.5102">
        <ele>2039</ele>
        <time>2014-02-12T13:48:26.000Z</time>
      </trkpt>
      <trkpt lat="45.9241" lon="6.5102">
        <ele>2039</ele>
        <time>2014-02-12T13:48:27.000Z</time>
      </trkpt>
      <trkpt lat="45.92411" lon="6.51021">
        <ele>2040.1999511719</ele>
        <time>2014-02-12T13:48:28.000Z</time>
      </trkpt>
      <trkpt lat="45.92412" lon="6.51022">
        <ele>2041.8000488281</ele>
        <time>2014-02-12T13:48:29.000Z</time>
      </trkpt>
      <trkpt lat="45.92413" lon="6.51023">
        <ele>2042.8000488281</ele>
        <time>2014-02-12T13:48:30.000Z</time>
      </trkpt>
      <trkpt lat="45.92413" lon="6.51023">
        <ele>2042.8000488281</ele>
        <time>2014-02-12T13:48:31.000Z</time>
      </trkpt>
      <trkpt lat="45.92413" lon="6.51023">
        <ele>2042.8000488281</ele>
        <time>2014-02-12T13:48:32.000Z</time>
      </trkpt>
      <trkpt lat="45.92413" lon="6.51023">
        <ele>2042.8000488281</ele>
        <time>2014-02-12T13:48:33.000Z</time>
      </trkpt>
      <trkpt lat="45.92413" lon="6.51023">
        <ele>2042.8000488281</ele>
        <time>2014-02-12T13:48:34.000Z</time>
      </trkpt>
      <trkpt lat="45.92413" lon="6.51023">
        <ele>2042.8000488281</ele>
        <time>2014-02-12T13:48:35.000Z</time>
      </trkpt>
      <trkpt lat="45.92413" lon="6.51023">
        <ele>2042.8000488281</ele>
        <time>2014-02-12T13:48:36.000Z</time>
      </trkpt>
      <trkpt lat="45.92413" lon="6.51023">
        <ele>2042.8000488281</ele>
        <time>2014-02-12T13:48:37.000Z</time>
      </trkpt>
      <trkpt lat="45.92413" lon="6.51023">
        <ele>2042.8000488281</ele>
        <time>2014-02-12T13:48:38.000Z</time>
      </trkpt>
      <trkpt lat="45.92413" lon="6.51023">
        <ele>2042.8000488281</ele>
        <time>2014-02-12T13:48:39.000Z</time>
      </trkpt>
      <trkpt lat="45.92413" lon="6.51023">
        <ele>2042.8000488281</ele>
        <time>2014-02-12T13:48:40.000Z</time>
      </trkpt>
      <trkpt lat="45.92413" lon="6.51023">
        <ele>2042.8000488281</ele>
        <time>2014-02-12T13:48:47.000Z</time>
      </trkpt>
      <trkpt lat="45.92413" lon="6.51023">
        <ele>2042.8000488281</ele>
        <time>2014-02-12T13:48:48.000Z</time>
      </trkpt>
      <trkpt lat="45.92413" lon="6.51023">
        <ele>2042.8000488281</ele>
        <time>2014-02-12T13:48:49.000Z</time>
      </trkpt>
      <trkpt lat="45.92413" lon="6.51023">
        <ele>2042.8000488281</ele>
        <time>2014-02-12T13:48:50.000Z</time>
      </trkpt>
      <trkpt lat="45.92413" lon="6.51023">
        <ele>2042.8000488281</ele>
        <time>2014-02-12T13:48:51.000Z</time>
      </trkpt>
      <trkpt lat="45.92413" lon="6.51023">
        <ele>2042.8000488281</ele>
        <time>2014-02-12T13:48:52.000Z</time>
      </trkpt>
      <trkpt lat="45.92413" lon="6.51023">
        <ele>2042.8000488281</ele>
        <time>2014-02-12T13:48:53.000Z</time>
      </trkpt>
      <trkpt lat="45.92413" lon="6.51023">
        <ele>2042.8000488281</ele>
        <time>2014-02-12T13:48:54.000Z</time>
      </trkpt>
      <trkpt lat="45.92414" lon="6.51023">
        <ele>2043.8000488281</ele>
        <time>2014-02-12T13:48:55.000Z</time>
      </trkpt>
      <trkpt lat="45.92415" lon="6.51023">
        <ele>2044.5999755859</ele>
        <time>2014-02-12T13:48:56.000Z</time>
      </trkpt>
      <trkpt lat="45.92415" lon="6.51023">
        <ele>2044.5999755859</ele>
        <time>2014-02-12T13:48:57.000Z</time>
      </trkpt>
      <trkpt lat="45.92416" lon="6.51025">
        <ele>2047.8000488281</ele>
        <time>2014-02-12T13:48:58.000Z</time>
      </trkpt>
      <trkpt lat="45.92416" lon="6.51025">
        <ele>2047.8000488281</ele>
        <time>2014-02-12T13:48:59.000Z</time>
      </trkpt>
      <trkpt lat="45.92416" lon="6.51027">
        <ele>2049</ele>
        <time>2014-02-12T13:49:00.000Z</time>
      </trkpt>
      <trkpt lat="45.92416" lon="6.51029">
        <ele>2050.1999511719</ele>
        <time>2014-02-12T13:49:01.000Z</time>
      </trkpt>
      <trkpt lat="45.92416" lon="6.51029">
        <ele>2050.1999511719</ele>
        <time>2014-02-12T13:49:02.000Z</time>
      </trkpt>
      <trkpt lat="45.92416" lon="6.51029">
        <ele>2050.1999511719</ele>
        <time>2014-02-12T13:49:03.000Z</time>
      </trkpt>
      <trkpt lat="45.92416" lon="6.51029">
        <ele>2050.1999511719</ele>
        <time>2014-02-12T13:49:04.000Z</time>
      </trkpt>
      <trkpt lat="45.92416" lon="6.51029">
        <ele>2050.1999511719</ele>
        <time>2014-02-12T13:49:05.000Z</time>
      </trkpt>
      <trkpt lat="45.92416" lon="6.51029">
        <ele>2050.1999511719</ele>
        <time>2014-02-12T13:49:06.000Z</time>
      </trkpt>
      <trkpt lat="45.92416" lon="6.51029">
        <ele>2050.1999511719</ele>
        <time>2014-02-12T13:49:07.000Z</time>
      </trkpt>
      <trkpt lat="45.92416" lon="6.51029">
        <ele>2050.1999511719</ele>
        <time>2014-02-12T13:49:08.000Z</time>
      </trkpt>
      <trkpt lat="45.92416" lon="6.51029">
        <ele>2050.1999511719</ele>
        <time>2014-02-12T13:49:09.000Z</time>
      </trkpt>
      <trkpt lat="45.92416" lon="6.51029">
        <ele>2050.1999511719</ele>
        <time>2014-02-12T13:49:10.000Z</time>
      </trkpt>
      <trkpt lat="45.92416" lon="6.51029">
        <ele>2050.1999511719</ele>
        <time>2014-02-12T13:49:11.000Z</time>
      </trkpt>
      <trkpt lat="45.92416" lon="6.51029">
        <ele>2050.1999511719</ele>
        <time>2014-02-12T13:49:12.000Z</time>
      </trkpt>
      <trkpt lat="45.92416" lon="6.51029">
        <ele>2050.1999511719</ele>
        <time>2014-02-12T13:49:13.000Z</time>
      </trkpt>
      <trkpt lat="45.92416" lon="6.51029">
        <ele>2050.1999511719</ele>
        <time>2014-02-12T13:49:14.000Z</time>
      </trkpt>
      <trkpt lat="45.92416" lon="6.51029">
        <ele>2050.1999511719</ele>
        <time>2014-02-12T13:49:15.000Z</time>
      </trkpt>
      <trkpt lat="45.92416" lon="6.51029">
        <ele>2050.1999511719</ele>
        <time>2014-02-12T13:49:16.000Z</time>
      </trkpt>
      <trkpt lat="45.92416" lon="6.51029">
        <ele>2050.1999511719</ele>
        <time>2014-02-12T13:49:17.000Z</time>
      </trkpt>
      <trkpt lat="45.92416" lon="6.51029">
        <ele>2050.1999511719</ele>
        <time>2014-02-12T13:49:18.000Z</time>
      </trkpt>
      <trkpt lat="45.92416" lon="6.51029">
        <ele>2050.1999511719</ele>
        <time>2014-02-12T13:49:19.000Z</time>
      </trkpt>
      <trkpt lat="45.92416" lon="6.51029">
        <ele>2050.1999511719</ele>
        <time>2014-02-12T13:49:20.000Z</time>
      </trkpt>
      <trkpt lat="45.92416" lon="6.51029">
        <ele>2050.1999511719</ele>
        <time>2014-02-12T13:49:21.000Z</time>
      </trkpt>
      <trkpt lat="45.92416" lon="6.51029">
        <ele>2050.1999511719</ele>
        <time>2014-02-12T13:49:22.000Z</time>
      </trkpt>
      <trkpt lat="45.92416" lon="6.51029">
        <ele>2050.1999511719</ele>
        <time>2014-02-12T13:49:23.000Z</time>
      </trkpt>
      <trkpt lat="45.92416" lon="6.51029">
        <ele>2050.1999511719</ele>
        <time>2014-02-12T13:49:24.000Z</time>
      </trkpt>
      <trkpt lat="45.92416" lon="6.51029">
        <ele>2050.1999511719</ele>
        <time>2014-02-12T13:49:25.000Z</time>
      </trkpt>
      <trkpt lat="45.92416" lon="6.51029">
        <ele>2050.1999511719</ele>
        <time>2014-02-12T13:49:26.000Z</time>
      </trkpt>
      <trkpt lat="45.92416" lon="6.51029">
        <ele>2050.1999511719</ele>
        <time>2014-02-12T13:49:27.000Z</time>
      </trkpt>
      <trkpt lat="45.92416" lon="6.51029">
        <ele>2050.1999511719</ele>
        <time>2014-02-12T13:49:28.000Z</time>
      </trkpt>
      <trkpt lat="45.92416" lon="6.51029">
        <ele>2050.1999511719</ele>
        <time>2014-02-12T13:49:29.000Z</time>
      </trkpt>
      <trkpt lat="45.92416" lon="6.51029">
        <ele>2050.1999511719</ele>
        <time>2014-02-12T13:49:30.000Z</time>
      </trkpt>
      <trkpt lat="45.92416" lon="6.51029">
        <ele>2050.1999511719</ele>
        <time>2014-02-12T13:49:31.000Z</time>
      </trkpt>
      <trkpt lat="45.92416" lon="6.51029">
        <ele>2050.1999511719</ele>
        <time>2014-02-12T13:49:32.000Z</time>
      </trkpt>
      <trkpt lat="45.92416" lon="6.51029">
        <ele>2050.1999511719</ele>
        <time>2014-02-12T13:49:33.000Z</time>
      </trkpt>
      <trkpt lat="45.92416" lon="6.51029">
        <ele>2050.1999511719</ele>
        <time>2014-02-12T13:49:34.000Z</time>
      </trkpt>
      <trkpt lat="45.92416" lon="6.51029">
        <ele>2050.1999511719</ele>
        <time>2014-02-12T13:49:35.000Z</time>
      </trkpt>
      <trkpt lat="45.92416" lon="6.51029">
        <ele>2050.1999511719</ele>
        <time>2014-02-12T13:49:36.000Z</time>
      </trkpt>
      <trkpt lat="45.92416" lon="6.51029">
        <ele>2050.1999511719</ele>
        <time>2014-02-12T13:49:37.000Z</time>
      </trkpt>
      <trkpt lat="45.92416" lon="6.51029">
        <ele>2050.1999511719</ele>
        <time>2014-02-12T13:49:38.000Z</time>
      </trkpt>
      <trkpt lat="45.92416" lon="6.51029">
        <ele>2050.1999511719</ele>
        <time>2014-02-12T13:49:39.000Z</time>
      </trkpt>
      <trkpt lat="45.92416" lon="6.51029">
        <ele>2050.1999511719</ele>
        <time>2014-02-12T13:49:40.000Z</time>
      </trkpt>
      <trkpt lat="45.92416" lon="6.5103">
        <ele>2051</ele>
        <time>2014-02-12T13:49:41.000Z</time>
      </trkpt>
      <trkpt lat="45.92416" lon="6.5103">
        <ele>2051</ele>
        <time>2014-02-12T13:49:42.000Z</time>
      </trkpt>
      <trkpt lat="45.92416" lon="6.5103">
        <ele>2051</ele>
        <time>2014-02-12T13:49:43.000Z</time>
      </trkpt>
      <trkpt lat="45.92416" lon="6.5103">
        <ele>2051</ele>
        <time>2014-02-12T13:49:44.000Z</time>
      </trkpt>
      <trkpt lat="45.92416" lon="6.5103">
        <ele>2051</ele>
        <time>2014-02-12T13:49:45.000Z</time>
      </trkpt>
      <trkpt lat="45.92416" lon="6.5103">
        <ele>2051</ele>
        <time>2014-02-12T13:49:46.000Z</time>
      </trkpt>
      <trkpt lat="45.92417" lon="6.51033">
        <ele>2053.6000976562</ele>
        <time>2014-02-12T13:49:47.000Z</time>
      </trkpt>
      <trkpt lat="45.92417" lon="6.51036">
        <ele>2056</ele>
        <time>2014-02-12T13:49:48.000Z</time>
      </trkpt>
      <trkpt lat="45.92418" lon="6.51038">
        <ele>2057.8000488281</ele>
        <time>2014-02-12T13:49:49.000Z</time>
      </trkpt>
      <trkpt lat="45.92418" lon="6.51038">
        <ele>2057.8000488281</ele>
        <time>2014-02-12T13:49:50.000Z</time>
      </trkpt>
      <trkpt lat="45.92418" lon="6.51038">
        <ele>2057.8000488281</ele>
        <time>2014-02-12T13:49:51.000Z</time>
      </trkpt>
      <trkpt lat="45.92418" lon="6.5104">
        <ele>2059.6000976562</ele>
        <time>2014-02-12T13:49:52.000Z</time>
      </trkpt>
      <trkpt lat="45.92418" lon="6.51042">
        <ele>2061</ele>
        <time>2014-02-12T13:49:53.000Z</time>
      </trkpt>
      <trkpt lat="45.92418" lon="6.51042">
        <ele>2061</ele>
        <time>2014-02-12T13:49:54.000Z</time>
      </trkpt>
      <trkpt lat="45.92418" lon="6.51042">
        <ele>2061</ele>
        <time>2014-02-12T13:49:55.000Z</time>
      </trkpt>
      <trkpt lat="45.92418" lon="6.51043">
        <ele>2062.3999023438</ele>
        <time>2014-02-12T13:49:56.000Z</time>
      </trkpt>
      <trkpt lat="45.92419" lon="6.51045">
        <ele>2064</ele>
        <time>2014-02-12T13:49:57.000Z</time>
      </trkpt>
      <trkpt lat="45.92419" lon="6.51046">
        <ele>2065.6000976562</ele>
        <time>2014-02-12T13:49:58.000Z</time>
      </trkpt>
      <trkpt lat="45.9242" lon="6.51048">
        <ele>2067.1999511719</ele>
        <time>2014-02-12T13:49:59.000Z</time>
      </trkpt>
      <trkpt lat="45.92421" lon="6.51049">
        <ele>2068.8000488281</ele>
        <time>2014-02-12T13:50:00.000Z</time>
      </trkpt>
      <trkpt lat="45.92422" lon="6.5105">
        <ele>2070.1999511719</ele>
        <time>2014-02-12T13:50:01.000Z</time>
      </trkpt>
      <trkpt lat="45.92422" lon="6.5105">
        <ele>2070.1999511719</ele>
        <time>2014-02-12T13:50:02.000Z</time>
      </trkpt>
      <trkpt lat="45.92422" lon="6.51052">
        <ele>2071.1999511719</ele>
        <time>2014-02-12T13:50:03.000Z</time>
      </trkpt>
      <trkpt lat="45.92422" lon="6.51052">
        <ele>2071.1999511719</ele>
        <time>2014-02-12T13:50:04.000Z</time>
      </trkpt>
      <trkpt lat="45.92422" lon="6.51053">
        <ele>2071.8000488281</ele>
        <time>2014-02-12T13:50:05.000Z</time>
      </trkpt>
      <trkpt lat="45.92422" lon="6.51053">
        <ele>2071.8000488281</ele>
        <time>2014-02-12T13:50:06.000Z</time>
      </trkpt>
      <trkpt lat="45.92422" lon="6.51053">
        <ele>2071.8000488281</ele>
        <time>2014-02-12T13:50:07.000Z</time>
      </trkpt>
      <trkpt lat="45.92422" lon="6.51053">
        <ele>2071.8000488281</ele>
        <time>2014-02-12T13:50:08.000Z</time>
      </trkpt>
      <trkpt lat="45.92422" lon="6.51053">
        <ele>2071.8000488281</ele>
        <time>2014-02-12T13:50:09.000Z</time>
      </trkpt>
      <trkpt lat="45.9242" lon="6.51053">
        <ele>2071.1999511719</ele>
        <time>2014-02-12T13:50:10.000Z</time>
      </trkpt>
      <trkpt lat="45.9242" lon="6.51054">
        <ele>2071</ele>
        <time>2014-02-12T13:50:11.000Z</time>
      </trkpt>
      <trkpt lat="45.9242" lon="6.51054">
        <ele>2071</ele>
        <time>2014-02-12T13:50:12.000Z</time>
      </trkpt>
      <trkpt lat="45.9242" lon="6.51054">
        <ele>2071</ele>
        <time>2014-02-12T13:50:13.000Z</time>
      </trkpt>
      <trkpt lat="45.9242" lon="6.51054">
        <ele>2071</ele>
        <time>2014-02-12T13:50:14.000Z</time>
      </trkpt>
      <trkpt lat="45.9242" lon="6.51054">
        <ele>2071</ele>
        <time>2014-02-12T13:50:15.000Z</time>
      </trkpt>
      <trkpt lat="45.9242" lon="6.51054">
        <ele>2071</ele>
        <time>2014-02-12T13:50:16.000Z</time>
      </trkpt>
      <trkpt lat="45.9242" lon="6.51054">
        <ele>2071</ele>
        <time>2014-02-12T13:50:17.000Z</time>
      </trkpt>
      <trkpt lat="45.9242" lon="6.51054">
        <ele>2071</ele>
        <time>2014-02-12T13:50:18.000Z</time>
      </trkpt>
      <trkpt lat="45.9242" lon="6.51054">
        <ele>2071</ele>
        <time>2014-02-12T13:50:19.000Z</time>
      </trkpt>
      <trkpt lat="45.9242" lon="6.51054">
        <ele>2071</ele>
        <time>2014-02-12T13:50:20.000Z</time>
      </trkpt>
      <trkpt lat="45.9242" lon="6.51054">
        <ele>2071</ele>
        <time>2014-02-12T13:50:21.000Z</time>
      </trkpt>
      <trkpt lat="45.9242" lon="6.51054">
        <ele>2071</ele>
        <time>2014-02-12T13:50:22.000Z</time>
      </trkpt>
      <trkpt lat="45.9242" lon="6.51054">
        <ele>2071</ele>
        <time>2014-02-12T13:50:23.000Z</time>
      </trkpt>
      <trkpt lat="45.9242" lon="6.51054">
        <ele>2071</ele>
        <time>2014-02-12T13:50:24.000Z</time>
      </trkpt>
      <trkpt lat="45.9242" lon="6.51054">
        <ele>2071</ele>
        <time>2014-02-12T13:50:25.000Z</time>
      </trkpt>
      <trkpt lat="45.9242" lon="6.51054">
        <ele>2071</ele>
        <time>2014-02-12T13:50:26.000Z</time>
      </trkpt>
      <trkpt lat="45.9242" lon="6.51054">
        <ele>2071</ele>
        <time>2014-02-12T13:50:27.000Z</time>
      </trkpt>
      <trkpt lat="45.9242" lon="6.51054">
        <ele>2071</ele>
        <time>2014-02-12T13:50:28.000Z</time>
      </trkpt>
      <trkpt lat="45.9242" lon="6.51054">
        <ele>2071</ele>
        <time>2014-02-12T13:50:29.000Z</time>
      </trkpt>
      <trkpt lat="45.9242" lon="6.51054">
        <ele>2071</ele>
        <time>2014-02-12T13:50:30.000Z</time>
      </trkpt>
      <trkpt lat="45.9242" lon="6.51054">
        <ele>2071</ele>
        <time>2014-02-12T13:50:31.000Z</time>
      </trkpt>
      <trkpt lat="45.9242" lon="6.51054">
        <ele>2071</ele>
        <time>2014-02-12T13:50:32.000Z</time>
      </trkpt>
      <trkpt lat="45.9242" lon="6.51054">
        <ele>2071</ele>
        <time>2014-02-12T13:50:33.000Z</time>
      </trkpt>
      <trkpt lat="45.9242" lon="6.51054">
        <ele>2071</ele>
        <time>2014-02-12T13:50:34.000Z</time>
      </trkpt>
      <trkpt lat="45.9242" lon="6.51054">
        <ele>2071</ele>
        <time>2014-02-12T13:50:35.000Z</time>
      </trkpt>
      <trkpt lat="45.9242" lon="6.51054">
        <ele>2071</ele>
        <time>2014-02-12T13:50:36.000Z</time>
      </trkpt>
      <trkpt lat="45.9242" lon="6.51054">
        <ele>2071</ele>
        <time>2014-02-12T13:50:37.000Z</time>
      </trkpt>
      <trkpt lat="45.9242" lon="6.51054">
        <ele>2071</ele>
        <time>2014-02-12T13:50:38.000Z</time>
      </trkpt>
      <trkpt lat="45.9242" lon="6.51054">
        <ele>2071</ele>
        <time>2014-02-12T13:50:39.000Z</time>
      </trkpt>
      <trkpt lat="45.9242" lon="6.51054">
        <ele>2071</ele>
        <time>2014-02-12T13:50:40.000Z</time>
      </trkpt>
      <trkpt lat="45.9242" lon="6.51054">
        <ele>2071</ele>
        <time>2014-02-12T13:50:41.000Z</time>
      </trkpt>
      <trkpt lat="45.9242" lon="6.51054">
        <ele>2071</ele>
        <time>2014-02-12T13:50:42.000Z</time>
      </trkpt>
      <trkpt lat="45.9242" lon="6.51054">
        <ele>2071</ele>
        <time>2014-02-12T13:50:43.000Z</time>
      </trkpt>
      <trkpt lat="45.9242" lon="6.51054">
        <ele>2071</ele>
        <time>2014-02-12T13:50:44.000Z</time>
      </trkpt>
      <trkpt lat="45.9242" lon="6.51054">
        <ele>2071</ele>
        <time>2014-02-12T13:50:45.000Z</time>
      </trkpt>
      <trkpt lat="45.9242" lon="6.51054">
        <ele>2071</ele>
        <time>2014-02-12T13:50:46.000Z</time>
      </trkpt>
      <trkpt lat="45.9242" lon="6.51054">
        <ele>2071</ele>
        <time>2014-02-12T13:50:47.000Z</time>
      </trkpt>
      <trkpt lat="45.9242" lon="6.51054">
        <ele>2071</ele>
        <time>2014-02-12T13:50:48.000Z</time>
      </trkpt>
      <trkpt lat="45.9242" lon="6.51054">
        <ele>2071</ele>
        <time>2014-02-12T13:50:49.000Z</time>
      </trkpt>
      <trkpt lat="45.9242" lon="6.51054">
        <ele>2071</ele>
        <time>2014-02-12T13:50:50.000Z</time>
      </trkpt>
      <trkpt lat="45.9242" lon="6.51054">
        <ele>2070.8000488281</ele>
        <time>2014-02-12T13:50:51.000Z</time>
      </trkpt>
      <trkpt lat="45.9242" lon="6.51054">
        <ele>2070.8000488281</ele>
        <time>2014-02-12T13:50:52.000Z</time>
      </trkpt>
      <trkpt lat="45.9242" lon="6.51054">
        <ele>2070.8000488281</ele>
        <time>2014-02-12T13:50:53.000Z</time>
      </trkpt>
      <trkpt lat="45.9242" lon="6.51054">
        <ele>2070.8000488281</ele>
        <time>2014-02-12T13:50:54.000Z</time>
      </trkpt>
      <trkpt lat="45.9242" lon="6.51054">
        <ele>2070.8000488281</ele>
        <time>2014-02-12T13:50:55.000Z</time>
      </trkpt>
      <trkpt lat="45.9242" lon="6.51054">
        <ele>2070.8000488281</ele>
        <time>2014-02-12T13:50:56.000Z</time>
      </trkpt>
      <trkpt lat="45.9242" lon="6.51054">
        <ele>2070.8000488281</ele>
        <time>2014-02-12T13:50:57.000Z</time>
      </trkpt>
      <trkpt lat="45.9242" lon="6.51054">
        <ele>2070.8000488281</ele>
        <time>2014-02-12T13:50:58.000Z</time>
      </trkpt>
      <trkpt lat="45.9242" lon="6.51054">
        <ele>2070.8000488281</ele>
        <time>2014-02-12T13:50:59.000Z</time>
      </trkpt>
      <trkpt lat="45.9242" lon="6.51054">
        <ele>2070.8000488281</ele>
        <time>2014-02-12T13:51:00.000Z</time>
      </trkpt>
      <trkpt lat="45.9242" lon="6.51054">
        <ele>2070.8000488281</ele>
        <time>2014-02-12T13:51:01.000Z</time>
      </trkpt>
      <trkpt lat="45.9242" lon="6.51054">
        <ele>2070.8000488281</ele>
        <time>2014-02-12T13:51:02.000Z</time>
      </trkpt>
      <trkpt lat="45.9242" lon="6.51054">
        <ele>2070.8000488281</ele>
        <time>2014-02-12T13:51:03.000Z</time>
      </trkpt>
      <trkpt lat="45.9242" lon="6.51054">
        <ele>2070.8000488281</ele>
        <time>2014-02-12T13:51:04.000Z</time>
      </trkpt>
      <trkpt lat="45.9242" lon="6.51054">
        <ele>2070.8000488281</ele>
        <time>2014-02-12T13:51:05.000Z</time>
      </trkpt>
      <trkpt lat="45.92419" lon="6.51054">
        <ele>2069.8000488281</ele>
        <time>2014-02-12T13:51:06.000Z</time>
      </trkpt>
      <trkpt lat="45.92419" lon="6.51054">
        <ele>2069.8000488281</ele>
        <time>2014-02-12T13:51:07.000Z</time>
      </trkpt>
      <trkpt lat="45.92419" lon="6.51054">
        <ele>2069.8000488281</ele>
        <time>2014-02-12T13:51:08.000Z</time>
      </trkpt>
      <trkpt lat="45.92418" lon="6.51053">
        <ele>2069.1999511719</ele>
        <time>2014-02-12T13:51:09.000Z</time>
      </trkpt>
      <trkpt lat="45.92418" lon="6.51053">
        <ele>2069.1999511719</ele>
        <time>2014-02-12T13:51:10.000Z</time>
      </trkpt>
      <trkpt lat="45.92418" lon="6.51055">
        <ele>2070.1999511719</ele>
        <time>2014-02-12T13:51:11.000Z</time>
      </trkpt>
      <trkpt lat="45.92417" lon="6.51056">
        <ele>2070.8000488281</ele>
        <time>2014-02-12T13:51:12.000Z</time>
      </trkpt>
      <trkpt lat="45.92417" lon="6.51056">
        <ele>2070.8000488281</ele>
        <time>2014-02-12T13:51:13.000Z</time>
      </trkpt>
      <trkpt lat="45.92416" lon="6.51059">
        <ele>2071.3999023438</ele>
        <time>2014-02-12T13:51:14.000Z</time>
      </trkpt>
      <trkpt lat="45.92416" lon="6.51059">
        <ele>2071.3999023438</ele>
        <time>2014-02-12T13:51:15.000Z</time>
      </trkpt>
      <trkpt lat="45.92416" lon="6.51059">
        <ele>2071.3999023438</ele>
        <time>2014-02-12T13:51:16.000Z</time>
      </trkpt>
      <trkpt lat="45.92416" lon="6.5106">
        <ele>2072</ele>
        <time>2014-02-12T13:51:17.000Z</time>
      </trkpt>
      <trkpt lat="45.92416" lon="6.5106">
        <ele>2072</ele>
        <time>2014-02-12T13:51:18.000Z</time>
      </trkpt>
      <trkpt lat="45.92417" lon="6.51063">
        <ele>2075.3999023438</ele>
        <time>2014-02-12T13:51:19.000Z</time>
      </trkpt>
      <trkpt lat="45.92418" lon="6.51066">
        <ele>2077.8000488281</ele>
        <time>2014-02-12T13:51:20.000Z</time>
      </trkpt>
      <trkpt lat="45.92418" lon="6.51066">
        <ele>2077.8000488281</ele>
        <time>2014-02-12T13:51:21.000Z</time>
      </trkpt>
      <trkpt lat="45.92418" lon="6.5107">
        <ele>2080</ele>
        <time>2014-02-12T13:51:22.000Z</time>
      </trkpt>
      <trkpt lat="45.92419" lon="6.51072">
        <ele>2081.6000976562</ele>
        <time>2014-02-12T13:51:23.000Z</time>
      </trkpt>
      <trkpt lat="45.92419" lon="6.51072">
        <ele>2081.6000976562</ele>
        <time>2014-02-12T13:51:24.000Z</time>
      </trkpt>
      <trkpt lat="45.92419" lon="6.51074">
        <ele>2082.6000976562</ele>
        <time>2014-02-12T13:51:25.000Z</time>
      </trkpt>
      <trkpt lat="45.92419" lon="6.51074">
        <ele>2082.6000976562</ele>
        <time>2014-02-12T13:51:26.000Z</time>
      </trkpt>
      <trkpt lat="45.92419" lon="6.51074">
        <ele>2082.6000976562</ele>
        <time>2014-02-12T13:51:27.000Z</time>
      </trkpt>
      <trkpt lat="45.9242" lon="6.51075">
        <ele>2083.6000976562</ele>
        <time>2014-02-12T13:51:28.000Z</time>
      </trkpt>
      <trkpt lat="45.9242" lon="6.51075">
        <ele>2083.6000976562</ele>
        <time>2014-02-12T13:51:29.000Z</time>
      </trkpt>
      <trkpt lat="45.9242" lon="6.51075">
        <ele>2083.6000976562</ele>
        <time>2014-02-12T13:51:30.000Z</time>
      </trkpt>
      <trkpt lat="45.9242" lon="6.51075">
        <ele>2083.6000976562</ele>
        <time>2014-02-12T13:51:31.000Z</time>
      </trkpt>
      <trkpt lat="45.9242" lon="6.51075">
        <ele>2083.6000976562</ele>
        <time>2014-02-12T13:51:32.000Z</time>
      </trkpt>
      <trkpt lat="45.9242" lon="6.51075">
        <ele>2083.6000976562</ele>
        <time>2014-02-12T13:51:33.000Z</time>
      </trkpt>
      <trkpt lat="45.9242" lon="6.51075">
        <ele>2083.6000976562</ele>
        <time>2014-02-12T13:51:34.000Z</time>
      </trkpt>
      <trkpt lat="45.92419" lon="6.51078">
        <ele>2084.1999511719</ele>
        <time>2014-02-12T13:51:35.000Z</time>
      </trkpt>
      <trkpt lat="45.92419" lon="6.51078">
        <ele>2084.1999511719</ele>
        <time>2014-02-12T13:51:36.000Z</time>
      </trkpt>
      <trkpt lat="45.92419" lon="6.51078">
        <ele>2084.1999511719</ele>
        <time>2014-02-12T13:51:37.000Z</time>
      </trkpt>
      <trkpt lat="45.92418" lon="6.51079">
        <ele>2083.8000488281</ele>
        <time>2014-02-12T13:51:38.000Z</time>
      </trkpt>
      <trkpt lat="45.92418" lon="6.51079">
        <ele>2083.8000488281</ele>
        <time>2014-02-12T13:51:39.000Z</time>
      </trkpt>
      <trkpt lat="45.92418" lon="6.51079">
        <ele>2083.8000488281</ele>
        <time>2014-02-12T13:51:40.000Z</time>
      </trkpt>
      <trkpt lat="45.92418" lon="6.5108">
        <ele>2083.6000976562</ele>
        <time>2014-02-12T13:51:41.000Z</time>
      </trkpt>
      <trkpt lat="45.92418" lon="6.5108">
        <ele>2083.6000976562</ele>
        <time>2014-02-12T13:51:42.000Z</time>
      </trkpt>
      <trkpt lat="45.92416" lon="6.51082">
        <ele>2083.3999023438</ele>
        <time>2014-02-12T13:51:43.000Z</time>
      </trkpt>
      <trkpt lat="45.92416" lon="6.51083">
        <ele>2083</ele>
        <time>2014-02-12T13:51:44.000Z</time>
      </trkpt>
      <trkpt lat="45.92415" lon="6.51083">
        <ele>2082.6000976562</ele>
        <time>2014-02-12T13:51:45.000Z</time>
      </trkpt>
      <trkpt lat="45.92414" lon="6.51084">
        <ele>2082.1999511719</ele>
        <time>2014-02-12T13:51:46.000Z</time>
      </trkpt>
      <trkpt lat="45.92414" lon="6.51084">
        <ele>2081.8000488281</ele>
        <time>2014-02-12T13:51:47.000Z</time>
      </trkpt>
      <trkpt lat="45.92413" lon="6.51084">
        <ele>2081.6000976562</ele>
        <time>2014-02-12T13:51:48.000Z</time>
      </trkpt>
      <trkpt lat="45.92413" lon="6.51085">
        <ele>2081.6000976562</ele>
        <time>2014-02-12T13:51:49.000Z</time>
      </trkpt>
      <trkpt lat="45.92413" lon="6.51085">
        <ele>2081.6000976562</ele>
        <time>2014-02-12T13:51:50.000Z</time>
      </trkpt>
      <trkpt lat="45.92413" lon="6.51085">
        <ele>2081.6000976562</ele>
        <time>2014-02-12T13:51:51.000Z</time>
      </trkpt>
      <trkpt lat="45.92413" lon="6.51085">
        <ele>2081.6000976562</ele>
        <time>2014-02-12T13:51:52.000Z</time>
      </trkpt>
      <trkpt lat="45.92413" lon="6.51085">
        <ele>2081.6000976562</ele>
        <time>2014-02-12T13:51:53.000Z</time>
      </trkpt>
      <trkpt lat="45.92413" lon="6.51085">
        <ele>2081.6000976562</ele>
        <time>2014-02-12T13:51:54.000Z</time>
      </trkpt>
      <trkpt lat="45.92413" lon="6.51085">
        <ele>2081.6000976562</ele>
        <time>2014-02-12T13:51:55.000Z</time>
      </trkpt>
      <trkpt lat="45.92413" lon="6.51085">
        <ele>2081.6000976562</ele>
        <time>2014-02-12T13:51:56.000Z</time>
      </trkpt>
      <trkpt lat="45.92413" lon="6.51085">
        <ele>2081.6000976562</ele>
        <time>2014-02-12T13:51:57.000Z</time>
      </trkpt>
      <trkpt lat="45.92413" lon="6.51085">
        <ele>2081.6000976562</ele>
        <time>2014-02-12T13:51:58.000Z</time>
      </trkpt>
      <trkpt lat="45.92413" lon="6.51085">
        <ele>2081.6000976562</ele>
        <time>2014-02-12T13:51:59.000Z</time>
      </trkpt>
      <trkpt lat="45.92413" lon="6.51085">
        <ele>2081.6000976562</ele>
        <time>2014-02-12T13:52:00.000Z</time>
      </trkpt>
      <trkpt lat="45.92413" lon="6.51085">
        <ele>2081.6000976562</ele>
        <time>2014-02-12T13:52:01.000Z</time>
      </trkpt>
      <trkpt lat="45.92413" lon="6.51085">
        <ele>2081.6000976562</ele>
        <time>2014-02-12T13:52:02.000Z</time>
      </trkpt>
      <trkpt lat="45.92413" lon="6.51085">
        <ele>2081.6000976562</ele>
        <time>2014-02-12T13:52:03.000Z</time>
      </trkpt>
      <trkpt lat="45.92413" lon="6.51085">
        <ele>2081.6000976562</ele>
        <time>2014-02-12T13:52:04.000Z</time>
      </trkpt>
      <trkpt lat="45.92413" lon="6.51085">
        <ele>2081.6000976562</ele>
        <time>2014-02-12T13:52:05.000Z</time>
      </trkpt>
      <trkpt lat="45.92413" lon="6.51085">
        <ele>2081.6000976562</ele>
        <time>2014-02-12T13:52:06.000Z</time>
      </trkpt>
      <trkpt lat="45.92413" lon="6.51085">
        <ele>2081.6000976562</ele>
        <time>2014-02-12T13:52:07.000Z</time>
      </trkpt>
      <trkpt lat="45.92413" lon="6.51085">
        <ele>2081.6000976562</ele>
        <time>2014-02-12T13:52:08.000Z</time>
      </trkpt>
      <trkpt lat="45.92413" lon="6.51085">
        <ele>2081.6000976562</ele>
        <time>2014-02-12T13:52:09.000Z</time>
      </trkpt>
      <trkpt lat="45.92413" lon="6.51085">
        <ele>2081.6000976562</ele>
        <time>2014-02-12T13:52:10.000Z</time>
      </trkpt>
      <trkpt lat="45.92413" lon="6.51085">
        <ele>2081.6000976562</ele>
        <time>2014-02-12T13:52:11.000Z</time>
      </trkpt>
      <trkpt lat="45.92413" lon="6.51085">
        <ele>2081.6000976562</ele>
        <time>2014-02-12T13:52:12.000Z</time>
      </trkpt>
      <trkpt lat="45.92413" lon="6.51085">
        <ele>2081.6000976562</ele>
        <time>2014-02-12T13:52:13.000Z</time>
      </trkpt>
      <trkpt lat="45.92413" lon="6.51085">
        <ele>2081.6000976562</ele>
        <time>2014-02-12T13:52:14.000Z</time>
      </trkpt>
      <trkpt lat="45.92413" lon="6.51085">
        <ele>2081.6000976562</ele>
        <time>2014-02-12T13:52:15.000Z</time>
      </trkpt>
      <trkpt lat="45.92413" lon="6.51085">
        <ele>2081.6000976562</ele>
        <time>2014-02-12T13:52:16.000Z</time>
      </trkpt>
      <trkpt lat="45.92413" lon="6.51085">
        <ele>2081.6000976562</ele>
        <time>2014-02-12T13:52:17.000Z</time>
      </trkpt>
      <trkpt lat="45.92413" lon="6.51085">
        <ele>2081.6000976562</ele>
        <time>2014-02-12T13:52:18.000Z</time>
      </trkpt>
      <trkpt lat="45.92413" lon="6.51085">
        <ele>2081.6000976562</ele>
        <time>2014-02-12T13:52:19.000Z</time>
      </trkpt>
      <trkpt lat="45.92413" lon="6.51085">
        <ele>2081.6000976562</ele>
        <time>2014-02-12T13:52:20.000Z</time>
      </trkpt>
      <trkpt lat="45.92413" lon="6.51085">
        <ele>2081.6000976562</ele>
        <time>2014-02-12T13:52:21.000Z</time>
      </trkpt>
      <trkpt lat="45.92413" lon="6.51085">
        <ele>2081.6000976562</ele>
        <time>2014-02-12T13:52:22.000Z</time>
      </trkpt>
      <trkpt lat="45.92413" lon="6.51085">
        <ele>2081.6000976562</ele>
        <time>2014-02-12T13:52:23.000Z</time>
      </trkpt>
      <trkpt lat="45.92413" lon="6.51085">
        <ele>2081.6000976562</ele>
        <time>2014-02-12T13:52:24.000Z</time>
      </trkpt>
      <trkpt lat="45.92413" lon="6.51085">
        <ele>2081.6000976562</ele>
        <time>2014-02-12T13:52:25.000Z</time>
      </trkpt>
      <trkpt lat="45.92413" lon="6.51085">
        <ele>2081.6000976562</ele>
        <time>2014-02-12T13:52:26.000Z</time>
      </trkpt>
      <trkpt lat="45.92413" lon="6.51085">
        <ele>2081.6000976562</ele>
        <time>2014-02-12T13:52:27.000Z</time>
      </trkpt>
      <trkpt lat="45.92415" lon="6.51088">
        <ele>2084</ele>
        <time>2014-02-12T13:52:28.000Z</time>
      </trkpt>
      <trkpt lat="45.92416" lon="6.5109">
        <ele>2086.1999511719</ele>
        <time>2014-02-12T13:52:29.000Z</time>
      </trkpt>
      <trkpt lat="45.92417" lon="6.51093">
        <ele>2087.6000976562</ele>
        <time>2014-02-12T13:52:30.000Z</time>
      </trkpt>
      <trkpt lat="45.92419" lon="6.51097">
        <ele>2091.1999511719</ele>
        <time>2014-02-12T13:52:32.000Z</time>
      </trkpt>
      <trkpt lat="45.9242" lon="6.51099">
        <ele>2093</ele>
        <time>2014-02-12T13:52:33.000Z</time>
      </trkpt>
      <trkpt lat="45.92421" lon="6.511">
        <ele>2094.8000488281</ele>
        <time>2014-02-12T13:52:34.000Z</time>
      </trkpt>
      <trkpt lat="45.92422" lon="6.51102">
        <ele>2096</ele>
        <time>2014-02-12T13:52:35.000Z</time>
      </trkpt>
      <trkpt lat="45.92422" lon="6.51102">
        <ele>2096</ele>
        <time>2014-02-12T13:52:36.000Z</time>
      </trkpt>
      <trkpt lat="45.92422" lon="6.51102">
        <ele>2096.6000976562</ele>
        <time>2014-02-12T13:52:37.000Z</time>
      </trkpt>
      <trkpt lat="45.92422" lon="6.51102">
        <ele>2096.6000976562</ele>
        <time>2014-02-12T13:52:38.000Z</time>
      </trkpt>
      <trkpt lat="45.92422" lon="6.51102">
        <ele>2096.6000976562</ele>
        <time>2014-02-12T13:52:39.000Z</time>
      </trkpt>
      <trkpt lat="45.92423" lon="6.51103">
        <ele>2097.3999023438</ele>
        <time>2014-02-12T13:52:40.000Z</time>
      </trkpt>
      <trkpt lat="45.92424" lon="6.51104">
        <ele>2098.3999023438</ele>
        <time>2014-02-12T13:52:41.000Z</time>
      </trkpt>
      <trkpt lat="45.92424" lon="6.51105">
        <ele>2099.3999023438</ele>
        <time>2014-02-12T13:52:42.000Z</time>
      </trkpt>
      <trkpt lat="45.92426" lon="6.51105">
        <ele>2100.8000488281</ele>
        <time>2014-02-12T13:52:43.000Z</time>
      </trkpt>
      <trkpt lat="45.92426" lon="6.51106">
        <ele>2101</ele>
        <time>2014-02-12T13:52:44.000Z</time>
      </trkpt>
      <trkpt lat="45.92427" lon="6.51106">
        <ele>2101.8000488281</ele>
        <time>2014-02-12T13:52:45.000Z</time>
      </trkpt>
      <trkpt lat="45.92427" lon="6.51106">
        <ele>2102</ele>
        <time>2014-02-12T13:52:46.000Z</time>
      </trkpt>
      <trkpt lat="45.92428" lon="6.51106">
        <ele>2102.1999511719</ele>
        <time>2014-02-12T13:52:47.000Z</time>
      </trkpt>
      <trkpt lat="45.92428" lon="6.51106">
        <ele>2102.1999511719</ele>
        <time>2014-02-12T13:52:48.000Z</time>
      </trkpt>
      <trkpt lat="45.92428" lon="6.51106">
        <ele>2102.8000488281</ele>
        <time>2014-02-12T13:52:49.000Z</time>
      </trkpt>
      <trkpt lat="45.92428" lon="6.51106">
        <ele>2102.8000488281</ele>
        <time>2014-02-12T13:52:50.000Z</time>
      </trkpt>
      <trkpt lat="45.92428" lon="6.51106">
        <ele>2102.8000488281</ele>
        <time>2014-02-12T13:52:51.000Z</time>
      </trkpt>
      <trkpt lat="45.92429" lon="6.51107">
        <ele>2103.3999023438</ele>
        <time>2014-02-12T13:52:52.000Z</time>
      </trkpt>
      <trkpt lat="45.9243" lon="6.51107">
        <ele>2104.1999511719</ele>
        <time>2014-02-12T13:52:53.000Z</time>
      </trkpt>
      <trkpt lat="45.92431" lon="6.51107">
        <ele>2105</ele>
        <time>2014-02-12T13:52:54.000Z</time>
      </trkpt>
      <trkpt lat="45.92432" lon="6.51107">
        <ele>2105.8000488281</ele>
        <time>2014-02-12T13:52:55.000Z</time>
      </trkpt>
      <trkpt lat="45.92433" lon="6.51107">
        <ele>2106.3999023438</ele>
        <time>2014-02-12T13:52:56.000Z</time>
      </trkpt>
      <trkpt lat="45.92433" lon="6.51107">
        <ele>2106.8000488281</ele>
        <time>2014-02-12T13:52:57.000Z</time>
      </trkpt>
      <trkpt lat="45.92433" lon="6.51107">
        <ele>2106.8000488281</ele>
        <time>2014-02-12T13:52:58.000Z</time>
      </trkpt>
      <trkpt lat="45.92433" lon="6.51107">
        <ele>2106.8000488281</ele>
        <time>2014-02-12T13:52:59.000Z</time>
      </trkpt>
      <trkpt lat="45.92433" lon="6.51107">
        <ele>2106.8000488281</ele>
        <time>2014-02-12T13:53:00.000Z</time>
      </trkpt>
      <trkpt lat="45.92433" lon="6.51107">
        <ele>2106.8000488281</ele>
        <time>2014-02-12T13:53:01.000Z</time>
      </trkpt>
      <trkpt lat="45.92433" lon="6.51107">
        <ele>2106.8000488281</ele>
        <time>2014-02-12T13:53:02.000Z</time>
      </trkpt>
      <trkpt lat="45.92433" lon="6.51107">
        <ele>2106.8000488281</ele>
        <time>2014-02-12T13:53:03.000Z</time>
      </trkpt>
      <trkpt lat="45.92432" lon="6.51108">
        <ele>2106.6000976562</ele>
        <time>2014-02-12T13:53:04.000Z</time>
      </trkpt>
      <trkpt lat="45.92431" lon="6.51109">
        <ele>2106.3999023438</ele>
        <time>2014-02-12T13:53:05.000Z</time>
      </trkpt>
      <trkpt lat="45.92431" lon="6.5111">
        <ele>2106.3999023438</ele>
        <time>2014-02-12T13:53:06.000Z</time>
      </trkpt>
      <trkpt lat="45.9243" lon="6.51111">
        <ele>2106.6000976562</ele>
        <time>2014-02-12T13:53:07.000Z</time>
      </trkpt>
      <trkpt lat="45.9243" lon="6.51111">
        <ele>2106.6000976562</ele>
        <time>2014-02-12T13:53:08.000Z</time>
      </trkpt>
      <trkpt lat="45.92429" lon="6.51112">
        <ele>2106.3999023438</ele>
        <time>2014-02-12T13:53:09.000Z</time>
      </trkpt>
      <trkpt lat="45.92429" lon="6.51112">
        <ele>2106.3999023438</ele>
        <time>2014-02-12T13:53:10.000Z</time>
      </trkpt>
      <trkpt lat="45.92428" lon="6.51112">
        <ele>2106.1999511719</ele>
        <time>2014-02-12T13:53:11.000Z</time>
      </trkpt>
      <trkpt lat="45.92428" lon="6.51112">
        <ele>2106.1999511719</ele>
        <time>2014-02-12T13:53:12.000Z</time>
      </trkpt>
      <trkpt lat="45.92428" lon="6.51112">
        <ele>2106.1999511719</ele>
        <time>2014-02-12T13:53:13.000Z</time>
      </trkpt>
      <trkpt lat="45.92428" lon="6.51112">
        <ele>2106.1999511719</ele>
        <time>2014-02-12T13:53:14.000Z</time>
      </trkpt>
      <trkpt lat="45.92428" lon="6.51112">
        <ele>2106.1999511719</ele>
        <time>2014-02-12T13:53:15.000Z</time>
      </trkpt>
      <trkpt lat="45.92428" lon="6.51112">
        <ele>2106.1999511719</ele>
        <time>2014-02-12T13:53:16.000Z</time>
      </trkpt>
      <trkpt lat="45.92428" lon="6.51112">
        <ele>2106.1999511719</ele>
        <time>2014-02-12T13:53:17.000Z</time>
      </trkpt>
      <trkpt lat="45.92428" lon="6.51112">
        <ele>2106.1999511719</ele>
        <time>2014-02-12T13:53:18.000Z</time>
      </trkpt>
      <trkpt lat="45.92428" lon="6.51112">
        <ele>2106.1999511719</ele>
        <time>2014-02-12T13:53:19.000Z</time>
      </trkpt>
      <trkpt lat="45.92428" lon="6.51112">
        <ele>2106.1999511719</ele>
        <time>2014-02-12T13:53:20.000Z</time>
      </trkpt>
      <trkpt lat="45.92429" lon="6.51113">
        <ele>2107</ele>
        <time>2014-02-12T13:53:21.000Z</time>
      </trkpt>
      <trkpt lat="45.9243" lon="6.51113">
        <ele>2107.8000488281</ele>
        <time>2014-02-12T13:53:22.000Z</time>
      </trkpt>
      <trkpt lat="45.92431" lon="6.51114">
        <ele>2108.6000976562</ele>
        <time>2014-02-12T13:53:23.000Z</time>
      </trkpt>
      <trkpt lat="45.92432" lon="6.51114">
        <ele>2109.6000976562</ele>
        <time>2014-02-12T13:53:24.000Z</time>
      </trkpt>
      <trkpt lat="45.92432" lon="6.51114">
        <ele>2109.6000976562</ele>
        <time>2014-02-12T13:53:25.000Z</time>
      </trkpt>
      <trkpt lat="45.92432" lon="6.51114">
        <ele>2109.6000976562</ele>
        <time>2014-02-12T13:53:26.000Z</time>
      </trkpt>
      <trkpt lat="45.92432" lon="6.51114">
        <ele>2109.6000976562</ele>
        <time>2014-02-12T13:53:27.000Z</time>
      </trkpt>
      <trkpt lat="45.92432" lon="6.51114">
        <ele>2109.6000976562</ele>
        <time>2014-02-12T13:53:28.000Z</time>
      </trkpt>
      <trkpt lat="45.92432" lon="6.51114">
        <ele>2109.6000976562</ele>
        <time>2014-02-12T13:53:29.000Z</time>
      </trkpt>
      <trkpt lat="45.92433" lon="6.51115">
        <ele>2111</ele>
        <time>2014-02-12T13:53:30.000Z</time>
      </trkpt>
      <trkpt lat="45.92433" lon="6.51116">
        <ele>2111.8000488281</ele>
        <time>2014-02-12T13:53:31.000Z</time>
      </trkpt>
      <trkpt lat="45.92433" lon="6.51116">
        <ele>2111.8000488281</ele>
        <time>2014-02-12T13:53:32.000Z</time>
      </trkpt>
      <trkpt lat="45.92433" lon="6.51116">
        <ele>2111.8000488281</ele>
        <time>2014-02-12T13:53:33.000Z</time>
      </trkpt>
      <trkpt lat="45.92433" lon="6.51116">
        <ele>2111.8000488281</ele>
        <time>2014-02-12T13:53:34.000Z</time>
      </trkpt>
      <trkpt lat="45.92434" lon="6.51117">
        <ele>2112.6000976562</ele>
        <time>2014-02-12T13:53:35.000Z</time>
      </trkpt>
      <trkpt lat="45.92434" lon="6.51117">
        <ele>2112.6000976562</ele>
        <time>2014-02-12T13:53:36.000Z</time>
      </trkpt>
      <trkpt lat="45.92434" lon="6.51117">
        <ele>2112.6000976562</ele>
        <time>2014-02-12T13:53:37.000Z</time>
      </trkpt>
      <trkpt lat="45.92434" lon="6.51117">
        <ele>2112.6000976562</ele>
        <time>2014-02-12T13:53:38.000Z</time>
      </trkpt>
      <trkpt lat="45.92434" lon="6.51117">
        <ele>2112.6000976562</ele>
        <time>2014-02-12T13:53:39.000Z</time>
      </trkpt>
      <trkpt lat="45.92434" lon="6.51117">
        <ele>2112.6000976562</ele>
        <time>2014-02-12T13:53:40.000Z</time>
      </trkpt>
      <trkpt lat="45.92434" lon="6.51117">
        <ele>2112.6000976562</ele>
        <time>2014-02-12T13:53:41.000Z</time>
      </trkpt>
      <trkpt lat="45.92434" lon="6.51117">
        <ele>2112.6000976562</ele>
        <time>2014-02-12T13:53:42.000Z</time>
      </trkpt>
      <trkpt lat="45.92434" lon="6.51117">
        <ele>2112.6000976562</ele>
        <time>2014-02-12T13:53:43.000Z</time>
      </trkpt>
      <trkpt lat="45.92434" lon="6.51118">
        <ele>2112.6000976562</ele>
        <time>2014-02-12T13:53:44.000Z</time>
      </trkpt>
      <trkpt lat="45.92434" lon="6.51118">
        <ele>2112.8000488281</ele>
        <time>2014-02-12T13:53:45.000Z</time>
      </trkpt>
      <trkpt lat="45.92433" lon="6.51119">
        <ele>2113.1999511719</ele>
        <time>2014-02-12T13:53:46.000Z</time>
      </trkpt>
      <trkpt lat="45.92433" lon="6.5112">
        <ele>2113.6000976562</ele>
        <time>2014-02-12T13:53:47.000Z</time>
      </trkpt>
      <trkpt lat="45.92433" lon="6.5112">
        <ele>2113.8000488281</ele>
        <time>2014-02-12T13:53:48.000Z</time>
      </trkpt>
      <trkpt lat="45.92431" lon="6.51122">
        <ele>2114</ele>
        <time>2014-02-12T13:53:49.000Z</time>
      </trkpt>
      <trkpt lat="45.92431" lon="6.51123">
        <ele>2114.3999023438</ele>
        <time>2014-02-12T13:53:50.000Z</time>
      </trkpt>
      <trkpt lat="45.9243" lon="6.51124">
        <ele>2114.3999023438</ele>
        <time>2014-02-12T13:53:51.000Z</time>
      </trkpt>
      <trkpt lat="45.92429" lon="6.51125">
        <ele>2114.6000976562</ele>
        <time>2014-02-12T13:53:52.000Z</time>
      </trkpt>
      <trkpt lat="45.92429" lon="6.51125">
        <ele>2114.3999023438</ele>
        <time>2014-02-12T13:53:53.000Z</time>
      </trkpt>
      <trkpt lat="45.92429" lon="6.51126">
        <ele>2114.8000488281</ele>
        <time>2014-02-12T13:53:54.000Z</time>
      </trkpt>
      <trkpt lat="45.92429" lon="6.51127">
        <ele>2115.8000488281</ele>
        <time>2014-02-12T13:53:55.000Z</time>
      </trkpt>
      <trkpt lat="45.92429" lon="6.51129">
        <ele>2116.1999511719</ele>
        <time>2014-02-12T13:53:56.000Z</time>
      </trkpt>
      <trkpt lat="45.92429" lon="6.51129">
        <ele>2116.3999023438</ele>
        <time>2014-02-12T13:53:57.000Z</time>
      </trkpt>
      <trkpt lat="45.92429" lon="6.51129">
        <ele>2116.3999023438</ele>
        <time>2014-02-12T13:53:58.000Z</time>
      </trkpt>
      <trkpt lat="45.92429" lon="6.51129">
        <ele>2116.3999023438</ele>
        <time>2014-02-12T13:53:59.000Z</time>
      </trkpt>
      <trkpt lat="45.92429" lon="6.51129">
        <ele>2116.3999023438</ele>
        <time>2014-02-12T13:54:00.000Z</time>
      </trkpt>
      <trkpt lat="45.92429" lon="6.51129">
        <ele>2116.3999023438</ele>
        <time>2014-02-12T13:54:01.000Z</time>
      </trkpt>
      <trkpt lat="45.92429" lon="6.51129">
        <ele>2116.3999023438</ele>
        <time>2014-02-12T13:54:02.000Z</time>
      </trkpt>
      <trkpt lat="45.92429" lon="6.51129">
        <ele>2116.3999023438</ele>
        <time>2014-02-12T13:54:03.000Z</time>
      </trkpt>
      <trkpt lat="45.92429" lon="6.51129">
        <ele>2116.3999023438</ele>
        <time>2014-02-12T13:54:04.000Z</time>
      </trkpt>
      <trkpt lat="45.92429" lon="6.51129">
        <ele>2116.3999023438</ele>
        <time>2014-02-12T13:54:05.000Z</time>
      </trkpt>
      <trkpt lat="45.92429" lon="6.51129">
        <ele>2116.3999023438</ele>
        <time>2014-02-12T13:54:06.000Z</time>
      </trkpt>
      <trkpt lat="45.92429" lon="6.51131">
        <ele>2117.8000488281</ele>
        <time>2014-02-12T13:54:07.000Z</time>
      </trkpt>
      <trkpt lat="45.92431" lon="6.51132">
        <ele>2119.1999511719</ele>
        <time>2014-02-12T13:54:08.000Z</time>
      </trkpt>
      <trkpt lat="45.92432" lon="6.51133">
        <ele>2120.6000976562</ele>
        <time>2014-02-12T13:54:09.000Z</time>
      </trkpt>
      <trkpt lat="45.92432" lon="6.51133">
        <ele>2120.6000976562</ele>
        <time>2014-02-12T13:54:10.000Z</time>
      </trkpt>
      <trkpt lat="45.92432" lon="6.51133">
        <ele>2120.6000976562</ele>
        <time>2014-02-12T13:54:11.000Z</time>
      </trkpt>
      <trkpt lat="45.92433" lon="6.51133">
        <ele>2121.3999023438</ele>
        <time>2014-02-12T13:54:12.000Z</time>
      </trkpt>
      <trkpt lat="45.92433" lon="6.51133">
        <ele>2121.3999023438</ele>
        <time>2014-02-12T13:54:13.000Z</time>
      </trkpt>
      <trkpt lat="45.92433" lon="6.51133">
        <ele>2121.3999023438</ele>
        <time>2014-02-12T13:54:14.000Z</time>
      </trkpt>
      <trkpt lat="45.92434" lon="6.51133">
        <ele>2122.3999023438</ele>
        <time>2014-02-12T13:54:15.000Z</time>
      </trkpt>
      <trkpt lat="45.92435" lon="6.51133">
        <ele>2122.8000488281</ele>
        <time>2014-02-12T13:54:16.000Z</time>
      </trkpt>
      <trkpt lat="45.92435" lon="6.51134">
        <ele>2123.3999023438</ele>
        <time>2014-02-12T13:54:17.000Z</time>
      </trkpt>
      <trkpt lat="45.92436" lon="6.51135">
        <ele>2124.3999023438</ele>
        <time>2014-02-12T13:54:18.000Z</time>
      </trkpt>
      <trkpt lat="45.92436" lon="6.51136">
        <ele>2125.1999511719</ele>
        <time>2014-02-12T13:54:19.000Z</time>
      </trkpt>
      <trkpt lat="45.92436" lon="6.51137">
        <ele>2125.8000488281</ele>
        <time>2014-02-12T13:54:20.000Z</time>
      </trkpt>
      <trkpt lat="45.92436" lon="6.51137">
        <ele>2125.8000488281</ele>
        <time>2014-02-12T13:54:21.000Z</time>
      </trkpt>
      <trkpt lat="45.92436" lon="6.51137">
        <ele>2125.8000488281</ele>
        <time>2014-02-12T13:54:22.000Z</time>
      </trkpt>
      <trkpt lat="45.92436" lon="6.51137">
        <ele>2125.8000488281</ele>
        <time>2014-02-12T13:54:23.000Z</time>
      </trkpt>
      <trkpt lat="45.92436" lon="6.51137">
        <ele>2125.8000488281</ele>
        <time>2014-02-12T13:54:24.000Z</time>
      </trkpt>
      <trkpt lat="45.92436" lon="6.51137">
        <ele>2125.8000488281</ele>
        <time>2014-02-12T13:54:25.000Z</time>
      </trkpt>
      <trkpt lat="45.92436" lon="6.51138">
        <ele>2126.3999023438</ele>
        <time>2014-02-12T13:54:26.000Z</time>
      </trkpt>
      <trkpt lat="45.92436" lon="6.51139">
        <ele>2126.6000976562</ele>
        <time>2014-02-12T13:54:27.000Z</time>
      </trkpt>
      <trkpt lat="45.92435" lon="6.5114">
        <ele>2127</ele>
        <time>2014-02-12T13:54:28.000Z</time>
      </trkpt>
      <trkpt lat="45.92434" lon="6.51142">
        <ele>2127.3999023438</ele>
        <time>2014-02-12T13:54:29.000Z</time>
      </trkpt>
      <trkpt lat="45.92433" lon="6.51142">
        <ele>2127.1999511719</ele>
        <time>2014-02-12T13:54:30.000Z</time>
      </trkpt>
      <trkpt lat="45.92433" lon="6.51143">
        <ele>2127.1999511719</ele>
        <time>2014-02-12T13:54:31.000Z</time>
      </trkpt>
      <trkpt lat="45.92432" lon="6.51144">
        <ele>2127.3999023438</ele>
        <time>2014-02-12T13:54:32.000Z</time>
      </trkpt>
      <trkpt lat="45.92432" lon="6.51145">
        <ele>2127.6000976562</ele>
        <time>2014-02-12T13:54:33.000Z</time>
      </trkpt>
      <trkpt lat="45.92431" lon="6.51145">
        <ele>2127.8000488281</ele>
        <time>2014-02-12T13:54:34.000Z</time>
      </trkpt>
      <trkpt lat="45.92431" lon="6.51145">
        <ele>2127.6000976562</ele>
        <time>2014-02-12T13:54:35.000Z</time>
      </trkpt>
      <trkpt lat="45.92431" lon="6.51146">
        <ele>2127.8000488281</ele>
        <time>2014-02-12T13:54:36.000Z</time>
      </trkpt>
      <trkpt lat="45.92431" lon="6.51146">
        <ele>2127.8000488281</ele>
        <time>2014-02-12T13:54:37.000Z</time>
      </trkpt>
      <trkpt lat="45.92431" lon="6.51146">
        <ele>2127.8000488281</ele>
        <time>2014-02-12T13:54:38.000Z</time>
      </trkpt>
      <trkpt lat="45.92431" lon="6.51146">
        <ele>2127.8000488281</ele>
        <time>2014-02-12T13:54:39.000Z</time>
      </trkpt>
      <trkpt lat="45.92431" lon="6.51146">
        <ele>2127.8000488281</ele>
        <time>2014-02-12T13:54:40.000Z</time>
      </trkpt>
      <trkpt lat="45.92431" lon="6.51146">
        <ele>2127.8000488281</ele>
        <time>2014-02-12T13:54:41.000Z</time>
      </trkpt>
      <trkpt lat="45.92431" lon="6.51146">
        <ele>2127.8000488281</ele>
        <time>2014-02-12T13:54:42.000Z</time>
      </trkpt>
      <trkpt lat="45.92431" lon="6.51146">
        <ele>2127.8000488281</ele>
        <time>2014-02-12T13:54:43.000Z</time>
      </trkpt>
      <trkpt lat="45.92431" lon="6.51146">
        <ele>2127.8000488281</ele>
        <time>2014-02-12T13:54:44.000Z</time>
      </trkpt>
      <trkpt lat="45.92432" lon="6.51146">
        <ele>2128.8000488281</ele>
        <time>2014-02-12T13:54:45.000Z</time>
      </trkpt>
      <trkpt lat="45.92432" lon="6.51146">
        <ele>2128.8000488281</ele>
        <time>2014-02-12T13:54:46.000Z</time>
      </trkpt>
      <trkpt lat="45.92432" lon="6.51146">
        <ele>2128.8000488281</ele>
        <time>2014-02-12T13:54:47.000Z</time>
      </trkpt>
      <trkpt lat="45.92432" lon="6.51146">
        <ele>2128.8000488281</ele>
        <time>2014-02-12T13:54:48.000Z</time>
      </trkpt>
      <trkpt lat="45.92432" lon="6.51146">
        <ele>2128.8000488281</ele>
        <time>2014-02-12T13:54:49.000Z</time>
      </trkpt>
      <trkpt lat="45.92432" lon="6.51146">
        <ele>2128.8000488281</ele>
        <time>2014-02-12T13:54:50.000Z</time>
      </trkpt>
      <trkpt lat="45.92434" lon="6.51146">
        <ele>2129.8000488281</ele>
        <time>2014-02-12T13:54:51.000Z</time>
      </trkpt>
      <trkpt lat="45.92435" lon="6.51147">
        <ele>2130.6000976562</ele>
        <time>2014-02-12T13:54:52.000Z</time>
      </trkpt>
      <trkpt lat="45.92435" lon="6.51147">
        <ele>2130.6000976562</ele>
        <time>2014-02-12T13:54:53.000Z</time>
      </trkpt>
      <trkpt lat="45.92435" lon="6.51147">
        <ele>2130.6000976562</ele>
        <time>2014-02-12T13:54:54.000Z</time>
      </trkpt>
      <trkpt lat="45.92435" lon="6.51147">
        <ele>2130.6000976562</ele>
        <time>2014-02-12T13:54:55.000Z</time>
      </trkpt>
      <trkpt lat="45.92435" lon="6.51147">
        <ele>2130.6000976562</ele>
        <time>2014-02-12T13:54:56.000Z</time>
      </trkpt>
      <trkpt lat="45.92435" lon="6.51147">
        <ele>2130.6000976562</ele>
        <time>2014-02-12T13:54:57.000Z</time>
      </trkpt>
      <trkpt lat="45.92435" lon="6.51147">
        <ele>2130.6000976562</ele>
        <time>2014-02-12T13:54:58.000Z</time>
      </trkpt>
      <trkpt lat="45.92435" lon="6.51147">
        <ele>2130.6000976562</ele>
        <time>2014-02-12T13:54:59.000Z</time>
      </trkpt>
      <trkpt lat="45.92435" lon="6.51147">
        <ele>2130.6000976562</ele>
        <time>2014-02-12T13:55:00.000Z</time>
      </trkpt>
      <trkpt lat="45.92435" lon="6.51147">
        <ele>2130.6000976562</ele>
        <time>2014-02-12T13:55:01.000Z</time>
      </trkpt>
      <trkpt lat="45.92435" lon="6.51147">
        <ele>2130.6000976562</ele>
        <time>2014-02-12T13:55:02.000Z</time>
      </trkpt>
      <trkpt lat="45.92435" lon="6.51148">
        <ele>2131.1999511719</ele>
        <time>2014-02-12T13:55:03.000Z</time>
      </trkpt>
      <trkpt lat="45.92435" lon="6.51149">
        <ele>2131.8000488281</ele>
        <time>2014-02-12T13:55:04.000Z</time>
      </trkpt>
      <trkpt lat="45.92435" lon="6.5115">
        <ele>2132.6000976562</ele>
        <time>2014-02-12T13:55:05.000Z</time>
      </trkpt>
      <trkpt lat="45.92435" lon="6.51152">
        <ele>2132.6000976562</ele>
        <time>2014-02-12T13:55:06.000Z</time>
      </trkpt>
      <trkpt lat="45.92435" lon="6.51153">
        <ele>2132.6000976562</ele>
        <time>2014-02-12T13:55:07.000Z</time>
      </trkpt>
      <trkpt lat="45.92435" lon="6.51154">
        <ele>2132.8000488281</ele>
        <time>2014-02-12T13:55:08.000Z</time>
      </trkpt>
      <trkpt lat="45.92434" lon="6.51155">
        <ele>2132</ele>
        <time>2014-02-12T13:55:10.000Z</time>
      </trkpt>
      <trkpt lat="45.92433" lon="6.51156">
        <ele>2131.6000976562</ele>
        <time>2014-02-12T13:55:11.000Z</time>
      </trkpt>
      <trkpt lat="45.92433" lon="6.51156">
        <ele>2131.6000976562</ele>
        <time>2014-02-12T13:55:12.000Z</time>
      </trkpt>
      <trkpt lat="45.92433" lon="6.51156">
        <ele>2131.3999023438</ele>
        <time>2014-02-12T13:55:13.000Z</time>
      </trkpt>
      <trkpt lat="45.92432" lon="6.51157">
        <ele>2130.8000488281</ele>
        <time>2014-02-12T13:55:14.000Z</time>
      </trkpt>
      <trkpt lat="45.92431" lon="6.51157">
        <ele>2130.3999023438</ele>
        <time>2014-02-12T13:55:15.000Z</time>
      </trkpt>
      <trkpt lat="45.92431" lon="6.51158">
        <ele>2130.1999511719</ele>
        <time>2014-02-12T13:55:16.000Z</time>
      </trkpt>
      <trkpt lat="45.92431" lon="6.51158">
        <ele>2130</ele>
        <time>2014-02-12T13:55:17.000Z</time>
      </trkpt>
      <trkpt lat="45.92431" lon="6.51158">
        <ele>2130</ele>
        <time>2014-02-12T13:55:18.000Z</time>
      </trkpt>
      <trkpt lat="45.92431" lon="6.51158">
        <ele>2130</ele>
        <time>2014-02-12T13:55:19.000Z</time>
      </trkpt>
      <trkpt lat="45.92431" lon="6.51158">
        <ele>2130</ele>
        <time>2014-02-12T13:55:20.000Z</time>
      </trkpt>
      <trkpt lat="45.92431" lon="6.51158">
        <ele>2130</ele>
        <time>2014-02-12T13:55:21.000Z</time>
      </trkpt>
      <trkpt lat="45.92431" lon="6.51158">
        <ele>2130</ele>
        <time>2014-02-12T13:55:22.000Z</time>
      </trkpt>
      <trkpt lat="45.92431" lon="6.51158">
        <ele>2130</ele>
        <time>2014-02-12T13:55:23.000Z</time>
      </trkpt>
      <trkpt lat="45.92432" lon="6.51158">
        <ele>2131.1999511719</ele>
        <time>2014-02-12T13:55:24.000Z</time>
      </trkpt>
      <trkpt lat="45.92434" lon="6.51158">
        <ele>2132.1999511719</ele>
        <time>2014-02-12T13:55:25.000Z</time>
      </trkpt>
      <trkpt lat="45.92436" lon="6.51157">
        <ele>2133.3999023438</ele>
        <time>2014-02-12T13:55:28.000Z</time>
      </trkpt>
      <trkpt lat="45.92437" lon="6.51157">
        <ele>2134.1999511719</ele>
        <time>2014-02-12T13:55:29.000Z</time>
      </trkpt>
      <trkpt lat="45.92437" lon="6.51157">
        <ele>2134.1999511719</ele>
        <time>2014-02-12T13:55:30.000Z</time>
      </trkpt>
      <trkpt lat="45.92437" lon="6.51157">
        <ele>2134.1999511719</ele>
        <time>2014-02-12T13:55:31.000Z</time>
      </trkpt>
      <trkpt lat="45.92437" lon="6.51157">
        <ele>2134.1999511719</ele>
        <time>2014-02-12T13:55:32.000Z</time>
      </trkpt>
      <trkpt lat="45.92437" lon="6.51157">
        <ele>2134.1999511719</ele>
        <time>2014-02-12T13:55:33.000Z</time>
      </trkpt>
      <trkpt lat="45.92437" lon="6.51157">
        <ele>2134.1999511719</ele>
        <time>2014-02-12T13:55:34.000Z</time>
      </trkpt>
      <trkpt lat="45.92437" lon="6.51157">
        <ele>2134.1999511719</ele>
        <time>2014-02-12T13:55:35.000Z</time>
      </trkpt>
      <trkpt lat="45.92437" lon="6.51157">
        <ele>2134.1999511719</ele>
        <time>2014-02-12T13:55:36.000Z</time>
      </trkpt>
      <trkpt lat="45.92437" lon="6.51157">
        <ele>2134.1999511719</ele>
        <time>2014-02-12T13:55:37.000Z</time>
      </trkpt>
      <trkpt lat="45.92437" lon="6.51157">
        <ele>2134.1999511719</ele>
        <time>2014-02-12T13:55:38.000Z</time>
      </trkpt>
      <trkpt lat="45.92437" lon="6.51157">
        <ele>2134.1999511719</ele>
        <time>2014-02-12T13:55:39.000Z</time>
      </trkpt>
      <trkpt lat="45.92437" lon="6.51157">
        <ele>2134.1999511719</ele>
        <time>2014-02-12T13:55:40.000Z</time>
      </trkpt>
      <trkpt lat="45.92437" lon="6.51157">
        <ele>2134.1999511719</ele>
        <time>2014-02-12T13:55:41.000Z</time>
      </trkpt>
      <trkpt lat="45.92437" lon="6.51157">
        <ele>2134.1999511719</ele>
        <time>2014-02-12T13:55:42.000Z</time>
      </trkpt>
      <trkpt lat="45.92437" lon="6.51157">
        <ele>2134.1999511719</ele>
        <time>2014-02-12T13:55:43.000Z</time>
      </trkpt>
      <trkpt lat="45.92437" lon="6.51157">
        <ele>2134.1999511719</ele>
        <time>2014-02-12T13:55:44.000Z</time>
      </trkpt>
      <trkpt lat="45.92437" lon="6.51157">
        <ele>2134.1999511719</ele>
        <time>2014-02-12T13:55:45.000Z</time>
      </trkpt>
      <trkpt lat="45.92437" lon="6.51159">
        <ele>2134.1999511719</ele>
        <time>2014-02-12T13:55:46.000Z</time>
      </trkpt>
      <trkpt lat="45.92437" lon="6.5116">
        <ele>2134</ele>
        <time>2014-02-12T13:55:47.000Z</time>
      </trkpt>
      <trkpt lat="45.92436" lon="6.51161">
        <ele>2133.6000976562</ele>
        <time>2014-02-12T13:55:48.000Z</time>
      </trkpt>
      <trkpt lat="45.92436" lon="6.51161">
        <ele>2133.6000976562</ele>
        <time>2014-02-12T13:55:49.000Z</time>
      </trkpt>
      <trkpt lat="45.92436" lon="6.51162">
        <ele>2133.6000976562</ele>
        <time>2014-02-12T13:55:50.000Z</time>
      </trkpt>
      <trkpt lat="45.92436" lon="6.51162">
        <ele>2133.6000976562</ele>
        <time>2014-02-12T13:55:51.000Z</time>
      </trkpt>
      <trkpt lat="45.92436" lon="6.51163">
        <ele>2133.1999511719</ele>
        <time>2014-02-12T13:55:52.000Z</time>
      </trkpt>
      <trkpt lat="45.92436" lon="6.51163">
        <ele>2133.1999511719</ele>
        <time>2014-02-12T13:55:53.000Z</time>
      </trkpt>
      <trkpt lat="45.92436" lon="6.51163">
        <ele>2133.1999511719</ele>
        <time>2014-02-12T13:55:54.000Z</time>
      </trkpt>
      <trkpt lat="45.92436" lon="6.51163">
        <ele>2133.1999511719</ele>
        <time>2014-02-12T13:55:55.000Z</time>
      </trkpt>
      <trkpt lat="45.92436" lon="6.51163">
        <ele>2133.1999511719</ele>
        <time>2014-02-12T13:55:56.000Z</time>
      </trkpt>
      <trkpt lat="45.92436" lon="6.51163">
        <ele>2133.1999511719</ele>
        <time>2014-02-12T13:55:57.000Z</time>
      </trkpt>
      <trkpt lat="45.92436" lon="6.51163">
        <ele>2133.1999511719</ele>
        <time>2014-02-12T13:55:58.000Z</time>
      </trkpt>
      <trkpt lat="45.92436" lon="6.51163">
        <ele>2133.1999511719</ele>
        <time>2014-02-12T13:55:59.000Z</time>
      </trkpt>
      <trkpt lat="45.92436" lon="6.51163">
        <ele>2133.1999511719</ele>
        <time>2014-02-12T13:56:00.000Z</time>
      </trkpt>
      <trkpt lat="45.92436" lon="6.51163">
        <ele>2133.1999511719</ele>
        <time>2014-02-12T13:56:01.000Z</time>
      </trkpt>
      <trkpt lat="45.92436" lon="6.51163">
        <ele>2133.1999511719</ele>
        <time>2014-02-12T13:56:02.000Z</time>
      </trkpt>
      <trkpt lat="45.92436" lon="6.51163">
        <ele>2133.1999511719</ele>
        <time>2014-02-12T13:56:03.000Z</time>
      </trkpt>
      <trkpt lat="45.92436" lon="6.51163">
        <ele>2133.1999511719</ele>
        <time>2014-02-12T13:56:04.000Z</time>
      </trkpt>
      <trkpt lat="45.92436" lon="6.51163">
        <ele>2133.1999511719</ele>
        <time>2014-02-12T13:56:05.000Z</time>
      </trkpt>
      <trkpt lat="45.92436" lon="6.51163">
        <ele>2133.1999511719</ele>
        <time>2014-02-12T13:56:06.000Z</time>
      </trkpt>
      <trkpt lat="45.92436" lon="6.51163">
        <ele>2133.1999511719</ele>
        <time>2014-02-12T13:56:07.000Z</time>
      </trkpt>
      <trkpt lat="45.92436" lon="6.51163">
        <ele>2133.1999511719</ele>
        <time>2014-02-12T13:56:08.000Z</time>
      </trkpt>
      <trkpt lat="45.92436" lon="6.51163">
        <ele>2133.1999511719</ele>
        <time>2014-02-12T13:56:09.000Z</time>
      </trkpt>
      <trkpt lat="45.92437" lon="6.51163">
        <ele>2133.8000488281</ele>
        <time>2014-02-12T13:56:10.000Z</time>
      </trkpt>
      <trkpt lat="45.92437" lon="6.51163">
        <ele>2133.8000488281</ele>
        <time>2014-02-12T13:56:11.000Z</time>
      </trkpt>
      <trkpt lat="45.92438" lon="6.51163">
        <ele>2134.6000976562</ele>
        <time>2014-02-12T13:56:12.000Z</time>
      </trkpt>
      <trkpt lat="45.92439" lon="6.51164">
        <ele>2135</ele>
        <time>2014-02-12T13:56:13.000Z</time>
      </trkpt>
      <trkpt lat="45.92439" lon="6.51165">
        <ele>2135.3999023438</ele>
        <time>2014-02-12T13:56:14.000Z</time>
      </trkpt>
      <trkpt lat="45.92439" lon="6.51165">
        <ele>2135.3999023438</ele>
        <time>2014-02-12T13:56:15.000Z</time>
      </trkpt>
      <trkpt lat="45.92439" lon="6.51165">
        <ele>2135.3999023438</ele>
        <time>2014-02-12T13:56:16.000Z</time>
      </trkpt>
      <trkpt lat="45.92439" lon="6.51165">
        <ele>2135.3999023438</ele>
        <time>2014-02-12T13:56:17.000Z</time>
      </trkpt>
      <trkpt lat="45.92439" lon="6.51165">
        <ele>2135.3999023438</ele>
        <time>2014-02-12T13:56:18.000Z</time>
      </trkpt>
      <trkpt lat="45.92439" lon="6.51165">
        <ele>2135.3999023438</ele>
        <time>2014-02-12T13:56:19.000Z</time>
      </trkpt>
      <trkpt lat="45.92439" lon="6.51165">
        <ele>2135.3999023438</ele>
        <time>2014-02-12T13:56:20.000Z</time>
      </trkpt>
      <trkpt lat="45.92439" lon="6.51165">
        <ele>2135.3999023438</ele>
        <time>2014-02-12T13:56:21.000Z</time>
      </trkpt>
      <trkpt lat="45.92439" lon="6.51165">
        <ele>2135.3999023438</ele>
        <time>2014-02-12T13:56:22.000Z</time>
      </trkpt>
      <trkpt lat="45.92439" lon="6.51165">
        <ele>2135.3999023438</ele>
        <time>2014-02-12T13:56:23.000Z</time>
      </trkpt>
      <trkpt lat="45.92439" lon="6.51165">
        <ele>2135.3999023438</ele>
        <time>2014-02-12T13:56:24.000Z</time>
      </trkpt>
      <trkpt lat="45.92439" lon="6.51165">
        <ele>2135.3999023438</ele>
        <time>2014-02-12T13:56:25.000Z</time>
      </trkpt>
      <trkpt lat="45.92439" lon="6.51165">
        <ele>2135.3999023438</ele>
        <time>2014-02-12T13:56:26.000Z</time>
      </trkpt>
      <trkpt lat="45.92439" lon="6.51165">
        <ele>2135.3999023438</ele>
        <time>2014-02-12T13:56:27.000Z</time>
      </trkpt>
      <trkpt lat="45.92439" lon="6.51165">
        <ele>2135.3999023438</ele>
        <time>2014-02-12T13:56:28.000Z</time>
      </trkpt>
      <trkpt lat="45.92439" lon="6.51166">
        <ele>2135.3999023438</ele>
        <time>2014-02-12T13:56:29.000Z</time>
      </trkpt>
      <trkpt lat="45.92439" lon="6.51166">
        <ele>2135.3999023438</ele>
        <time>2014-02-12T13:56:30.000Z</time>
      </trkpt>
      <trkpt lat="45.92439" lon="6.51166">
        <ele>2135.3999023438</ele>
        <time>2014-02-12T13:56:31.000Z</time>
      </trkpt>
      <trkpt lat="45.92439" lon="6.51168">
        <ele>2135.3999023438</ele>
        <time>2014-02-12T13:56:32.000Z</time>
      </trkpt>
      <trkpt lat="45.92439" lon="6.51168">
        <ele>2135.3999023438</ele>
        <time>2014-02-12T13:56:33.000Z</time>
      </trkpt>
      <trkpt lat="45.92439" lon="6.51169">
        <ele>2135</ele>
        <time>2014-02-12T13:56:34.000Z</time>
      </trkpt>
      <trkpt lat="45.92438" lon="6.5117">
        <ele>2135</ele>
        <time>2014-02-12T13:56:35.000Z</time>
      </trkpt>
      <trkpt lat="45.92438" lon="6.51171">
        <ele>2134.8000488281</ele>
        <time>2014-02-12T13:56:36.000Z</time>
      </trkpt>
      <trkpt lat="45.92438" lon="6.51173">
        <ele>2134.8000488281</ele>
        <time>2014-02-12T13:56:37.000Z</time>
      </trkpt>
      <trkpt lat="45.92438" lon="6.51173">
        <ele>2134.8000488281</ele>
        <time>2014-02-12T13:56:38.000Z</time>
      </trkpt>
      <trkpt lat="45.92438" lon="6.51173">
        <ele>2134.8000488281</ele>
        <time>2014-02-12T13:56:39.000Z</time>
      </trkpt>
      <trkpt lat="45.92438" lon="6.51173">
        <ele>2134.8000488281</ele>
        <time>2014-02-12T13:56:40.000Z</time>
      </trkpt>
      <trkpt lat="45.92438" lon="6.51174">
        <ele>2134.6000976562</ele>
        <time>2014-02-12T13:56:41.000Z</time>
      </trkpt>
      <trkpt lat="45.92438" lon="6.51174">
        <ele>2134.8000488281</ele>
        <time>2014-02-12T13:56:42.000Z</time>
      </trkpt>
      <trkpt lat="45.92438" lon="6.51174">
        <ele>2134.8000488281</ele>
        <time>2014-02-12T13:56:43.000Z</time>
      </trkpt>
      <trkpt lat="45.92438" lon="6.51174">
        <ele>2134.8000488281</ele>
        <time>2014-02-12T13:56:44.000Z</time>
      </trkpt>
      <trkpt lat="45.92438" lon="6.51174">
        <ele>2134.8000488281</ele>
        <time>2014-02-12T13:56:45.000Z</time>
      </trkpt>
      <trkpt lat="45.92438" lon="6.51174">
        <ele>2134.8000488281</ele>
        <time>2014-02-12T13:56:46.000Z</time>
      </trkpt>
      <trkpt lat="45.92438" lon="6.51174">
        <ele>2134.8000488281</ele>
        <time>2014-02-12T13:56:47.000Z</time>
      </trkpt>
      <trkpt lat="45.92438" lon="6.51174">
        <ele>2134.8000488281</ele>
        <time>2014-02-12T13:56:48.000Z</time>
      </trkpt>
      <trkpt lat="45.92438" lon="6.51174">
        <ele>2134.8000488281</ele>
        <time>2014-02-12T13:56:49.000Z</time>
      </trkpt>
      <trkpt lat="45.92438" lon="6.51174">
        <ele>2134.8000488281</ele>
        <time>2014-02-12T13:56:50.000Z</time>
      </trkpt>
      <trkpt lat="45.92438" lon="6.51174">
        <ele>2134.8000488281</ele>
        <time>2014-02-12T13:56:51.000Z</time>
      </trkpt>
      <trkpt lat="45.92442" lon="6.51173">
        <ele>2136.8000488281</ele>
        <time>2014-02-12T13:56:52.000Z</time>
      </trkpt>
      <trkpt lat="45.92442" lon="6.51173">
        <ele>2136.8000488281</ele>
        <time>2014-02-12T13:56:53.000Z</time>
      </trkpt>
      <trkpt lat="45.92444" lon="6.51172">
        <ele>2138.3999023438</ele>
        <time>2014-02-12T13:56:54.000Z</time>
      </trkpt>
      <trkpt lat="45.92444" lon="6.51172">
        <ele>2138.3999023438</ele>
        <time>2014-02-12T13:56:55.000Z</time>
      </trkpt>
      <trkpt lat="45.92444" lon="6.51172">
        <ele>2138.3999023438</ele>
        <time>2014-02-12T13:56:56.000Z</time>
      </trkpt>
      <trkpt lat="45.92446" lon="6.51171">
        <ele>2139.6000976562</ele>
        <time>2014-02-12T13:56:57.000Z</time>
      </trkpt>
      <trkpt lat="45.92447" lon="6.51171">
        <ele>2140.3999023438</ele>
        <time>2014-02-12T13:56:58.000Z</time>
      </trkpt>
      <trkpt lat="45.92448" lon="6.51172">
        <ele>2140.8000488281</ele>
        <time>2014-02-12T13:56:59.000Z</time>
      </trkpt>
      <trkpt lat="45.92449" lon="6.51171">
        <ele>2141.1999511719</ele>
        <time>2014-02-12T13:57:00.000Z</time>
      </trkpt>
      <trkpt lat="45.92449" lon="6.51171">
        <ele>2141.6000976562</ele>
        <time>2014-02-12T13:57:01.000Z</time>
      </trkpt>
      <trkpt lat="45.9245" lon="6.5117">
        <ele>2141.8000488281</ele>
        <time>2014-02-12T13:57:02.000Z</time>
      </trkpt>
      <trkpt lat="45.9245" lon="6.5117">
        <ele>2142.1999511719</ele>
        <time>2014-02-12T13:57:03.000Z</time>
      </trkpt>
      <trkpt lat="45.9245" lon="6.51169">
        <ele>2142.3999023438</ele>
        <time>2014-02-12T13:57:04.000Z</time>
      </trkpt>
      <trkpt lat="45.92451" lon="6.51169">
        <ele>2142.6000976562</ele>
        <time>2014-02-12T13:57:05.000Z</time>
      </trkpt>
      <trkpt lat="45.92451" lon="6.51169">
        <ele>2142.6000976562</ele>
        <time>2014-02-12T13:57:06.000Z</time>
      </trkpt>
      <trkpt lat="45.92451" lon="6.51169">
        <ele>2142.8000488281</ele>
        <time>2014-02-12T13:57:07.000Z</time>
      </trkpt>
      <trkpt lat="45.92452" lon="6.5117">
        <ele>2143.1999511719</ele>
        <time>2014-02-12T13:57:09.000Z</time>
      </trkpt>
      <trkpt lat="45.92452" lon="6.5117">
        <ele>2143.6000976562</ele>
        <time>2014-02-12T13:57:10.000Z</time>
      </trkpt>
      <trkpt lat="45.92453" lon="6.5117">
        <ele>2143.8000488281</ele>
        <time>2014-02-12T13:57:11.000Z</time>
      </trkpt>
      <trkpt lat="45.92453" lon="6.5117">
        <ele>2144</ele>
        <time>2014-02-12T13:57:12.000Z</time>
      </trkpt>
      <trkpt lat="45.92453" lon="6.51171">
        <ele>2143.8000488281</ele>
        <time>2014-02-12T13:57:13.000Z</time>
      </trkpt>
      <trkpt lat="45.92452" lon="6.51171">
        <ele>2143.6000976562</ele>
        <time>2014-02-12T13:57:14.000Z</time>
      </trkpt>
      <trkpt lat="45.92452" lon="6.51171">
        <ele>2143.6000976562</ele>
        <time>2014-02-12T13:57:15.000Z</time>
      </trkpt>
      <trkpt lat="45.92452" lon="6.51174">
        <ele>2143.1999511719</ele>
        <time>2014-02-12T13:57:17.000Z</time>
      </trkpt>
      <trkpt lat="45.92451" lon="6.51176">
        <ele>2142.8000488281</ele>
        <time>2014-02-12T13:57:18.000Z</time>
      </trkpt>
      <trkpt lat="45.92451" lon="6.51177">
        <ele>2142.3999023438</ele>
        <time>2014-02-12T13:57:19.000Z</time>
      </trkpt>
      <trkpt lat="45.9245" lon="6.51179">
        <ele>2142</ele>
        <time>2014-02-12T13:57:20.000Z</time>
      </trkpt>
      <trkpt lat="45.92449" lon="6.5118">
        <ele>2141.3999023438</ele>
        <time>2014-02-12T13:57:21.000Z</time>
      </trkpt>
      <trkpt lat="45.92449" lon="6.5118">
        <ele>2141.3999023438</ele>
        <time>2014-02-12T13:57:22.000Z</time>
      </trkpt>
      <trkpt lat="45.92449" lon="6.5118">
        <ele>2141.3999023438</ele>
        <time>2014-02-12T13:57:23.000Z</time>
      </trkpt>
      <trkpt lat="45.92448" lon="6.51181">
        <ele>2141</ele>
        <time>2014-02-12T13:57:24.000Z</time>
      </trkpt>
      <trkpt lat="45.92448" lon="6.51181">
        <ele>2141</ele>
        <time>2014-02-12T13:57:25.000Z</time>
      </trkpt>
      <trkpt lat="45.92448" lon="6.51181">
        <ele>2140.6000976562</ele>
        <time>2014-02-12T13:57:26.000Z</time>
      </trkpt>
      <trkpt lat="45.92448" lon="6.51181">
        <ele>2140.6000976562</ele>
        <time>2014-02-12T13:57:27.000Z</time>
      </trkpt>
      <trkpt lat="45.92448" lon="6.51181">
        <ele>2140.6000976562</ele>
        <time>2014-02-12T13:57:28.000Z</time>
      </trkpt>
      <trkpt lat="45.92448" lon="6.51181">
        <ele>2140.6000976562</ele>
        <time>2014-02-12T13:57:29.000Z</time>
      </trkpt>
      <trkpt lat="45.92448" lon="6.51181">
        <ele>2140.6000976562</ele>
        <time>2014-02-12T13:57:30.000Z</time>
      </trkpt>
      <trkpt lat="45.92448" lon="6.51181">
        <ele>2140.6000976562</ele>
        <time>2014-02-12T13:57:31.000Z</time>
      </trkpt>
      <trkpt lat="45.92448" lon="6.51181">
        <ele>2140.6000976562</ele>
        <time>2014-02-12T13:57:32.000Z</time>
      </trkpt>
      <trkpt lat="45.92448" lon="6.51181">
        <ele>2140.6000976562</ele>
        <time>2014-02-12T13:57:33.000Z</time>
      </trkpt>
      <trkpt lat="45.92448" lon="6.51181">
        <ele>2140.6000976562</ele>
        <time>2014-02-12T13:57:34.000Z</time>
      </trkpt>
      <trkpt lat="45.92448" lon="6.51181">
        <ele>2140.6000976562</ele>
        <time>2014-02-12T13:57:35.000Z</time>
      </trkpt>
      <trkpt lat="45.92448" lon="6.51181">
        <ele>2140.6000976562</ele>
        <time>2014-02-12T13:57:36.000Z</time>
      </trkpt>
      <trkpt lat="45.92448" lon="6.51181">
        <ele>2140.6000976562</ele>
        <time>2014-02-12T13:57:37.000Z</time>
      </trkpt>
      <trkpt lat="45.92448" lon="6.51181">
        <ele>2140.6000976562</ele>
        <time>2014-02-12T13:57:38.000Z</time>
      </trkpt>
      <trkpt lat="45.9245" lon="6.5118">
        <ele>2142.1999511719</ele>
        <time>2014-02-12T13:57:39.000Z</time>
      </trkpt>
      <trkpt lat="45.9245" lon="6.5118">
        <ele>2142.1999511719</ele>
        <time>2014-02-12T13:57:40.000Z</time>
      </trkpt>
      <trkpt lat="45.92451" lon="6.5118">
        <ele>2142.6000976562</ele>
        <time>2014-02-12T13:57:41.000Z</time>
      </trkpt>
      <trkpt lat="45.92451" lon="6.5118">
        <ele>2142.6000976562</ele>
        <time>2014-02-12T13:57:42.000Z</time>
      </trkpt>
      <trkpt lat="45.92452" lon="6.51181">
        <ele>2143.6000976562</ele>
        <time>2014-02-12T13:57:43.000Z</time>
      </trkpt>
      <trkpt lat="45.92454" lon="6.51181">
        <ele>2144.3999023438</ele>
        <time>2014-02-12T13:57:44.000Z</time>
      </trkpt>
      <trkpt lat="45.92455" lon="6.5118">
        <ele>2145</ele>
        <time>2014-02-12T13:57:45.000Z</time>
      </trkpt>
      <trkpt lat="45.92455" lon="6.5118">
        <ele>2145.3999023438</ele>
        <time>2014-02-12T13:57:46.000Z</time>
      </trkpt>
      <trkpt lat="45.92456" lon="6.5118">
        <ele>2145.8000488281</ele>
        <time>2014-02-12T13:57:47.000Z</time>
      </trkpt>
      <trkpt lat="45.92456" lon="6.51179">
        <ele>2146</ele>
        <time>2014-02-12T13:57:48.000Z</time>
      </trkpt>
      <trkpt lat="45.92457" lon="6.51179">
        <ele>2146.1999511719</ele>
        <time>2014-02-12T13:57:49.000Z</time>
      </trkpt>
      <trkpt lat="45.92457" lon="6.51179">
        <ele>2146.3999023438</ele>
        <time>2014-02-12T13:57:50.000Z</time>
      </trkpt>
      <trkpt lat="45.92457" lon="6.51178">
        <ele>2146.3999023438</ele>
        <time>2014-02-12T13:57:51.000Z</time>
      </trkpt>
      <trkpt lat="45.92457" lon="6.51178">
        <ele>2146.3999023438</ele>
        <time>2014-02-12T13:57:52.000Z</time>
      </trkpt>
      <trkpt lat="45.92457" lon="6.51177">
        <ele>2146.3999023438</ele>
        <time>2014-02-12T13:57:53.000Z</time>
      </trkpt>
      <trkpt lat="45.92457" lon="6.51177">
        <ele>2146.6000976562</ele>
        <time>2014-02-12T13:57:54.000Z</time>
      </trkpt>
      <trkpt lat="45.92458" lon="6.51176">
        <ele>2146.8000488281</ele>
        <time>2014-02-12T13:57:55.000Z</time>
      </trkpt>
      <trkpt lat="45.92458" lon="6.51175">
        <ele>2147</ele>
        <time>2014-02-12T13:57:56.000Z</time>
      </trkpt>
      <trkpt lat="45.92458" lon="6.51175">
        <ele>2147.1999511719</ele>
        <time>2014-02-12T13:57:57.000Z</time>
      </trkpt>
      <trkpt lat="45.92459" lon="6.51175">
        <ele>2147.6000976562</ele>
        <time>2014-02-12T13:57:58.000Z</time>
      </trkpt>
      <trkpt lat="45.92458" lon="6.51175">
        <ele>2147.3999023438</ele>
        <time>2014-02-12T13:57:59.000Z</time>
      </trkpt>
      <trkpt lat="45.92458" lon="6.51175">
        <ele>2147.3999023438</ele>
        <time>2014-02-12T13:58:00.000Z</time>
      </trkpt>
      <trkpt lat="45.92458" lon="6.51175">
        <ele>2146.8000488281</ele>
        <time>2014-02-12T13:58:01.000Z</time>
      </trkpt>
      <trkpt lat="45.92457" lon="6.51176">
        <ele>2146.6000976562</ele>
        <time>2014-02-12T13:58:02.000Z</time>
      </trkpt>
      <trkpt lat="45.92457" lon="6.51176">
        <ele>2146.6000976562</ele>
        <time>2014-02-12T13:58:03.000Z</time>
      </trkpt>
      <trkpt lat="45.92457" lon="6.51176">
        <ele>2146.6000976562</ele>
        <time>2014-02-12T13:58:04.000Z</time>
      </trkpt>
      <trkpt lat="45.92457" lon="6.51176">
        <ele>2146.6000976562</ele>
        <time>2014-02-12T13:58:05.000Z</time>
      </trkpt>
      <trkpt lat="45.92457" lon="6.51176">
        <ele>2146.6000976562</ele>
        <time>2014-02-12T13:58:06.000Z</time>
      </trkpt>
      <trkpt lat="45.92457" lon="6.51176">
        <ele>2146.6000976562</ele>
        <time>2014-02-12T13:58:07.000Z</time>
      </trkpt>
      <trkpt lat="45.92457" lon="6.51176">
        <ele>2146.6000976562</ele>
        <time>2014-02-12T13:58:10.000Z</time>
      </trkpt>
      <trkpt lat="45.92457" lon="6.51176">
        <ele>2146.6000976562</ele>
        <time>2014-02-12T13:58:11.000Z</time>
      </trkpt>
      <trkpt lat="45.92457" lon="6.51176">
        <ele>2146.6000976562</ele>
        <time>2014-02-12T13:58:12.000Z</time>
      </trkpt>
      <trkpt lat="45.92457" lon="6.51176">
        <ele>2146.6000976562</ele>
        <time>2014-02-12T13:58:13.000Z</time>
      </trkpt>
      <trkpt lat="45.92457" lon="6.51176">
        <ele>2146.6000976562</ele>
        <time>2014-02-12T13:58:14.000Z</time>
      </trkpt>
      <trkpt lat="45.92457" lon="6.51176">
        <ele>2146.6000976562</ele>
        <time>2014-02-12T13:58:15.000Z</time>
      </trkpt>
      <trkpt lat="45.92457" lon="6.51176">
        <ele>2146.6000976562</ele>
        <time>2014-02-12T13:58:16.000Z</time>
      </trkpt>
      <trkpt lat="45.92457" lon="6.51176">
        <ele>2146.6000976562</ele>
        <time>2014-02-12T13:58:17.000Z</time>
      </trkpt>
      <trkpt lat="45.92457" lon="6.51176">
        <ele>2146.6000976562</ele>
        <time>2014-02-12T13:58:18.000Z</time>
      </trkpt>
      <trkpt lat="45.92457" lon="6.51176">
        <ele>2146.6000976562</ele>
        <time>2014-02-12T13:58:19.000Z</time>
      </trkpt>
      <trkpt lat="45.92457" lon="6.51177">
        <ele>2146.1999511719</ele>
        <time>2014-02-12T13:58:20.000Z</time>
      </trkpt>
      <trkpt lat="45.92456" lon="6.51179">
        <ele>2145.8000488281</ele>
        <time>2014-02-12T13:58:21.000Z</time>
      </trkpt>
      <trkpt lat="45.92455" lon="6.5118">
        <ele>2145.1999511719</ele>
        <time>2014-02-12T13:58:22.000Z</time>
      </trkpt>
      <trkpt lat="45.92455" lon="6.5118">
        <ele>2145.1999511719</ele>
        <time>2014-02-12T13:58:23.000Z</time>
      </trkpt>
      <trkpt lat="45.92454" lon="6.51183">
        <ele>2144.3999023438</ele>
        <time>2014-02-12T13:58:24.000Z</time>
      </trkpt>
      <trkpt lat="45.92452" lon="6.51185">
        <ele>2143.3999023438</ele>
        <time>2014-02-12T13:58:25.000Z</time>
      </trkpt>
      <trkpt lat="45.9245" lon="6.51187">
        <ele>2142.1999511719</ele>
        <time>2014-02-12T13:58:26.000Z</time>
      </trkpt>
      <trkpt lat="45.9245" lon="6.51187">
        <ele>2142.1999511719</ele>
        <time>2014-02-12T13:58:27.000Z</time>
      </trkpt>
      <trkpt lat="45.9245" lon="6.51187">
        <ele>2142.1999511719</ele>
        <time>2014-02-12T13:58:28.000Z</time>
      </trkpt>
      <trkpt lat="45.9245" lon="6.51187">
        <ele>2142.1999511719</ele>
        <time>2014-02-12T13:58:29.000Z</time>
      </trkpt>
      <trkpt lat="45.9245" lon="6.51187">
        <ele>2142.1999511719</ele>
        <time>2014-02-12T13:58:30.000Z</time>
      </trkpt>
      <trkpt lat="45.9245" lon="6.51187">
        <ele>2142.1999511719</ele>
        <time>2014-02-12T13:58:31.000Z</time>
      </trkpt>
      <trkpt lat="45.9245" lon="6.51187">
        <ele>2142.1999511719</ele>
        <time>2014-02-12T13:58:32.000Z</time>
      </trkpt>
      <trkpt lat="45.9245" lon="6.51187">
        <ele>2142.1999511719</ele>
        <time>2014-02-12T13:58:33.000Z</time>
      </trkpt>
      <trkpt lat="45.92452" lon="6.51188">
        <ele>2143.1999511719</ele>
        <time>2014-02-12T13:58:34.000Z</time>
      </trkpt>
      <trkpt lat="45.92452" lon="6.51188">
        <ele>2143.1999511719</ele>
        <time>2014-02-12T13:58:35.000Z</time>
      </trkpt>
      <trkpt lat="45.92453" lon="6.51189">
        <ele>2144.1999511719</ele>
        <time>2014-02-12T13:58:36.000Z</time>
      </trkpt>
      <trkpt lat="45.92453" lon="6.51189">
        <ele>2144.1999511719</ele>
        <time>2014-02-12T13:58:37.000Z</time>
      </trkpt>
      <trkpt lat="45.92455" lon="6.51189">
        <ele>2145</ele>
        <time>2014-02-12T13:58:38.000Z</time>
      </trkpt>
      <trkpt lat="45.92455" lon="6.51189">
        <ele>2145</ele>
        <time>2014-02-12T13:58:39.000Z</time>
      </trkpt>
      <trkpt lat="45.92455" lon="6.5119">
        <ele>2145.6000976562</ele>
        <time>2014-02-12T13:58:40.000Z</time>
      </trkpt>
      <trkpt lat="45.92456" lon="6.5119">
        <ele>2145.8000488281</ele>
        <time>2014-02-12T13:58:41.000Z</time>
      </trkpt>
      <trkpt lat="45.92456" lon="6.5119">
        <ele>2146</ele>
        <time>2014-02-12T13:58:42.000Z</time>
      </trkpt>
      <trkpt lat="45.92457" lon="6.5119">
        <ele>2146.6000976562</ele>
        <time>2014-02-12T13:58:43.000Z</time>
      </trkpt>
      <trkpt lat="45.92458" lon="6.5119">
        <ele>2147</ele>
        <time>2014-02-12T13:58:44.000Z</time>
      </trkpt>
      <trkpt lat="45.92458" lon="6.5119">
        <ele>2147.3999023438</ele>
        <time>2014-02-12T13:58:45.000Z</time>
      </trkpt>
      <trkpt lat="45.92459" lon="6.5119">
        <ele>2147.3999023438</ele>
        <time>2014-02-12T13:58:46.000Z</time>
      </trkpt>
      <trkpt lat="45.92459" lon="6.5119">
        <ele>2147.3999023438</ele>
        <time>2014-02-12T13:58:47.000Z</time>
      </trkpt>
      <trkpt lat="45.92459" lon="6.5119">
        <ele>2147.6000976562</ele>
        <time>2014-02-12T13:58:48.000Z</time>
      </trkpt>
      <trkpt lat="45.92459" lon="6.5119">
        <ele>2147.6000976562</ele>
        <time>2014-02-12T13:58:49.000Z</time>
      </trkpt>
      <trkpt lat="45.92459" lon="6.5119">
        <ele>2147.6000976562</ele>
        <time>2014-02-12T13:58:50.000Z</time>
      </trkpt>
      <trkpt lat="45.92459" lon="6.5119">
        <ele>2147.6000976562</ele>
        <time>2014-02-12T13:58:51.000Z</time>
      </trkpt>
      <trkpt lat="45.92459" lon="6.5119">
        <ele>2147.6000976562</ele>
        <time>2014-02-12T13:58:52.000Z</time>
      </trkpt>
      <trkpt lat="45.92459" lon="6.5119">
        <ele>2147.6000976562</ele>
        <time>2014-02-12T13:58:53.000Z</time>
      </trkpt>
      <trkpt lat="45.92459" lon="6.5119">
        <ele>2147.6000976562</ele>
        <time>2014-02-12T13:58:54.000Z</time>
      </trkpt>
      <trkpt lat="45.92459" lon="6.5119">
        <ele>2147.6000976562</ele>
        <time>2014-02-12T13:58:55.000Z</time>
      </trkpt>
      <trkpt lat="45.92459" lon="6.5119">
        <ele>2147.6000976562</ele>
        <time>2014-02-12T13:58:56.000Z</time>
      </trkpt>
      <trkpt lat="45.92459" lon="6.5119">
        <ele>2147.6000976562</ele>
        <time>2014-02-12T13:58:57.000Z</time>
      </trkpt>
      <trkpt lat="45.92459" lon="6.5119">
        <ele>2147.6000976562</ele>
        <time>2014-02-12T13:58:58.000Z</time>
      </trkpt>
      <trkpt lat="45.92459" lon="6.5119">
        <ele>2147.6000976562</ele>
        <time>2014-02-12T13:58:59.000Z</time>
      </trkpt>
      <trkpt lat="45.92459" lon="6.5119">
        <ele>2147.6000976562</ele>
        <time>2014-02-12T13:59:00.000Z</time>
      </trkpt>
      <trkpt lat="45.92459" lon="6.5119">
        <ele>2147.6000976562</ele>
        <time>2014-02-12T13:59:01.000Z</time>
      </trkpt>
      <trkpt lat="45.92459" lon="6.5119">
        <ele>2147.6000976562</ele>
        <time>2014-02-12T13:59:02.000Z</time>
      </trkpt>
      <trkpt lat="45.92459" lon="6.5119">
        <ele>2147.6000976562</ele>
        <time>2014-02-12T13:59:03.000Z</time>
      </trkpt>
      <trkpt lat="45.92459" lon="6.5119">
        <ele>2147.6000976562</ele>
        <time>2014-02-12T13:59:04.000Z</time>
      </trkpt>
      <trkpt lat="45.92459" lon="6.5119">
        <ele>2147.6000976562</ele>
        <time>2014-02-12T13:59:05.000Z</time>
      </trkpt>
      <trkpt lat="45.92458" lon="6.51192">
        <ele>2147</ele>
        <time>2014-02-12T13:59:06.000Z</time>
      </trkpt>
      <trkpt lat="45.92457" lon="6.51193">
        <ele>2146.8000488281</ele>
        <time>2014-02-12T13:59:07.000Z</time>
      </trkpt>
      <trkpt lat="45.92457" lon="6.51194">
        <ele>2146.3999023438</ele>
        <time>2014-02-12T13:59:08.000Z</time>
      </trkpt>
      <trkpt lat="45.92456" lon="6.51196">
        <ele>2146</ele>
        <time>2014-02-12T13:59:09.000Z</time>
      </trkpt>
      <trkpt lat="45.92456" lon="6.51197">
        <ele>2145.6000976562</ele>
        <time>2014-02-12T13:59:10.000Z</time>
      </trkpt>
      <trkpt lat="45.92455" lon="6.51199">
        <ele>2145.3999023438</ele>
        <time>2014-02-12T13:59:11.000Z</time>
      </trkpt>
      <trkpt lat="45.92455" lon="6.512">
        <ele>2145.1999511719</ele>
        <time>2014-02-12T13:59:12.000Z</time>
      </trkpt>
      <trkpt lat="45.92454" lon="6.51202">
        <ele>2144.8000488281</ele>
        <time>2014-02-12T13:59:13.000Z</time>
      </trkpt>
      <trkpt lat="45.92454" lon="6.51203">
        <ele>2144.6000976562</ele>
        <time>2014-02-12T13:59:14.000Z</time>
      </trkpt>
      <trkpt lat="45.92454" lon="6.51203">
        <ele>2144.6000976562</ele>
        <time>2014-02-12T13:59:15.000Z</time>
      </trkpt>
      <trkpt lat="45.92454" lon="6.51203">
        <ele>2144.6000976562</ele>
        <time>2014-02-12T13:59:16.000Z</time>
      </trkpt>
      <trkpt lat="45.92454" lon="6.51203">
        <ele>2144.6000976562</ele>
        <time>2014-02-12T13:59:17.000Z</time>
      </trkpt>
      <trkpt lat="45.92454" lon="6.51203">
        <ele>2144.6000976562</ele>
        <time>2014-02-12T13:59:18.000Z</time>
      </trkpt>
      <trkpt lat="45.92454" lon="6.51203">
        <ele>2144.6000976562</ele>
        <time>2014-02-12T13:59:19.000Z</time>
      </trkpt>
      <trkpt lat="45.92454" lon="6.51203">
        <ele>2144.6000976562</ele>
        <time>2014-02-12T13:59:20.000Z</time>
      </trkpt>
      <trkpt lat="45.92454" lon="6.51203">
        <ele>2144.6000976562</ele>
        <time>2014-02-12T13:59:21.000Z</time>
      </trkpt>
      <trkpt lat="45.92454" lon="6.51204">
        <ele>2144.3999023438</ele>
        <time>2014-02-12T13:59:22.000Z</time>
      </trkpt>
      <trkpt lat="45.92453" lon="6.51204">
        <ele>2144.1999511719</ele>
        <time>2014-02-12T13:59:23.000Z</time>
      </trkpt>
      <trkpt lat="45.92453" lon="6.51205">
        <ele>2144</ele>
        <time>2014-02-12T13:59:24.000Z</time>
      </trkpt>
      <trkpt lat="45.92453" lon="6.51206">
        <ele>2144</ele>
        <time>2014-02-12T13:59:25.000Z</time>
      </trkpt>
      <trkpt lat="45.92453" lon="6.51206">
        <ele>2143.8000488281</ele>
        <time>2014-02-12T13:59:26.000Z</time>
      </trkpt>
      <trkpt lat="45.92453" lon="6.51207">
        <ele>2143.8000488281</ele>
        <time>2014-02-12T13:59:27.000Z</time>
      </trkpt>
      <trkpt lat="45.92453" lon="6.51208">
        <ele>2143.8000488281</ele>
        <time>2014-02-12T13:59:28.000Z</time>
      </trkpt>
      <trkpt lat="45.92453" lon="6.51209">
        <ele>2143.8000488281</ele>
        <time>2014-02-12T13:59:29.000Z</time>
      </trkpt>
      <trkpt lat="45.92453" lon="6.51209">
        <ele>2143.8000488281</ele>
        <time>2014-02-12T13:59:30.000Z</time>
      </trkpt>
      <trkpt lat="45.92452" lon="6.5121">
        <ele>2143.6000976562</ele>
        <time>2014-02-12T13:59:31.000Z</time>
      </trkpt>
      <trkpt lat="45.92452" lon="6.5121">
        <ele>2143.6000976562</ele>
        <time>2014-02-12T13:59:32.000Z</time>
      </trkpt>
      <trkpt lat="45.92452" lon="6.5121">
        <ele>2143.6000976562</ele>
        <time>2014-02-12T13:59:33.000Z</time>
      </trkpt>
      <trkpt lat="45.92452" lon="6.5121">
        <ele>2143.6000976562</ele>
        <time>2014-02-12T13:59:35.000Z</time>
      </trkpt>
      <trkpt lat="45.92452" lon="6.5121">
        <ele>2143.6000976562</ele>
        <time>2014-02-12T13:59:36.000Z</time>
      </trkpt>
      <trkpt lat="45.92452" lon="6.5121">
        <ele>2143.6000976562</ele>
        <time>2014-02-12T13:59:37.000Z</time>
      </trkpt>
      <trkpt lat="45.92452" lon="6.5121">
        <ele>2143.6000976562</ele>
        <time>2014-02-12T13:59:38.000Z</time>
      </trkpt>
      <trkpt lat="45.92452" lon="6.5121">
        <ele>2143.6000976562</ele>
        <time>2014-02-12T13:59:39.000Z</time>
      </trkpt>
      <trkpt lat="45.92452" lon="6.5121">
        <ele>2143.6000976562</ele>
        <time>2014-02-12T13:59:40.000Z</time>
      </trkpt>
      <trkpt lat="45.92452" lon="6.5121">
        <ele>2143.6000976562</ele>
        <time>2014-02-12T13:59:41.000Z</time>
      </trkpt>
      <trkpt lat="45.92452" lon="6.5121">
        <ele>2143.6000976562</ele>
        <time>2014-02-12T13:59:42.000Z</time>
      </trkpt>
      <trkpt lat="45.92452" lon="6.5121">
        <ele>2143.6000976562</ele>
        <time>2014-02-12T13:59:43.000Z</time>
      </trkpt>
      <trkpt lat="45.92452" lon="6.5121">
        <ele>2143.3999023438</ele>
        <time>2014-02-12T13:59:44.000Z</time>
      </trkpt>
      <trkpt lat="45.92452" lon="6.51211">
        <ele>2143.1999511719</ele>
        <time>2014-02-12T13:59:45.000Z</time>
      </trkpt>
      <trkpt lat="45.92452" lon="6.51211">
        <ele>2143.1999511719</ele>
        <time>2014-02-12T13:59:46.000Z</time>
      </trkpt>
      <trkpt lat="45.92452" lon="6.51212">
        <ele>2143.3999023438</ele>
        <time>2014-02-12T13:59:47.000Z</time>
      </trkpt>
      <trkpt lat="45.92452" lon="6.51212">
        <ele>2143.3999023438</ele>
        <time>2014-02-12T13:59:48.000Z</time>
      </trkpt>
      <trkpt lat="45.92452" lon="6.51212">
        <ele>2143.3999023438</ele>
        <time>2014-02-12T13:59:49.000Z</time>
      </trkpt>
      <trkpt lat="45.92452" lon="6.51212">
        <ele>2143.3999023438</ele>
        <time>2014-02-12T13:59:50.000Z</time>
      </trkpt>
      <trkpt lat="45.92452" lon="6.51212">
        <ele>2143.3999023438</ele>
        <time>2014-02-12T13:59:51.000Z</time>
      </trkpt>
      <trkpt lat="45.92452" lon="6.51212">
        <ele>2143.3999023438</ele>
        <time>2014-02-12T13:59:54.000Z</time>
      </trkpt>
      <trkpt lat="45.92452" lon="6.51212">
        <ele>2143.3999023438</ele>
        <time>2014-02-12T13:59:55.000Z</time>
      </trkpt>
      <trkpt lat="45.92452" lon="6.51212">
        <ele>2143.3999023438</ele>
        <time>2014-02-12T13:59:56.000Z</time>
      </trkpt>
      <trkpt lat="45.92452" lon="6.51212">
        <ele>2143.3999023438</ele>
        <time>2014-02-12T13:59:57.000Z</time>
      </trkpt>
      <trkpt lat="45.92452" lon="6.51212">
        <ele>2143.3999023438</ele>
        <time>2014-02-12T13:59:58.000Z</time>
      </trkpt>
      <trkpt lat="45.92454" lon="6.51213">
        <ele>2144.3999023438</ele>
        <time>2014-02-12T13:59:59.000Z</time>
      </trkpt>
      <trkpt lat="45.92454" lon="6.51213">
        <ele>2144.3999023438</ele>
        <time>2014-02-12T14:00:00.000Z</time>
      </trkpt>
      <trkpt lat="45.92455" lon="6.51213">
        <ele>2145.1999511719</ele>
        <time>2014-02-12T14:00:01.000Z</time>
      </trkpt>
      <trkpt lat="45.92455" lon="6.51213">
        <ele>2145.1999511719</ele>
        <time>2014-02-12T14:00:02.000Z</time>
      </trkpt>
      <trkpt lat="45.92456" lon="6.51212">
        <ele>2145.6000976562</ele>
        <time>2014-02-12T14:00:03.000Z</time>
      </trkpt>
      <trkpt lat="45.92456" lon="6.51211">
        <ele>2146</ele>
        <time>2014-02-12T14:00:04.000Z</time>
      </trkpt>
      <trkpt lat="45.92457" lon="6.5121">
        <ele>2146.1999511719</ele>
        <time>2014-02-12T14:00:05.000Z</time>
      </trkpt>
      <trkpt lat="45.92457" lon="6.5121">
        <ele>2146.6000976562</ele>
        <time>2014-02-12T14:00:06.000Z</time>
      </trkpt>
      <trkpt lat="45.92457" lon="6.5121">
        <ele>2146.6000976562</ele>
        <time>2014-02-12T14:00:07.000Z</time>
      </trkpt>
      <trkpt lat="45.92457" lon="6.5121">
        <ele>2146.6000976562</ele>
        <time>2014-02-12T14:00:08.000Z</time>
      </trkpt>
      <trkpt lat="45.92457" lon="6.5121">
        <ele>2146.6000976562</ele>
        <time>2014-02-12T14:00:09.000Z</time>
      </trkpt>
      <trkpt lat="45.92457" lon="6.5121">
        <ele>2146.6000976562</ele>
        <time>2014-02-12T14:00:10.000Z</time>
      </trkpt>
      <trkpt lat="45.92457" lon="6.5121">
        <ele>2146.6000976562</ele>
        <time>2014-02-12T14:00:11.000Z</time>
      </trkpt>
      <trkpt lat="45.92457" lon="6.5121">
        <ele>2146.6000976562</ele>
        <time>2014-02-12T14:00:12.000Z</time>
      </trkpt>
      <trkpt lat="45.92457" lon="6.5121">
        <ele>2146.6000976562</ele>
        <time>2014-02-12T14:00:13.000Z</time>
      </trkpt>
      <trkpt lat="45.92457" lon="6.5121">
        <ele>2146.6000976562</ele>
        <time>2014-02-12T14:00:14.000Z</time>
      </trkpt>
      <trkpt lat="45.92457" lon="6.51211">
        <ele>2146.6000976562</ele>
        <time>2014-02-12T14:00:15.000Z</time>
      </trkpt>
      <trkpt lat="45.92457" lon="6.51212">
        <ele>2146.3999023438</ele>
        <time>2014-02-12T14:00:16.000Z</time>
      </trkpt>
      <trkpt lat="45.92457" lon="6.51212">
        <ele>2146.6000976562</ele>
        <time>2014-02-12T14:00:17.000Z</time>
      </trkpt>
      <trkpt lat="45.92457" lon="6.51213">
        <ele>2146.6000976562</ele>
        <time>2014-02-12T14:00:18.000Z</time>
      </trkpt>
      <trkpt lat="45.92457" lon="6.51214">
        <ele>2146.3999023438</ele>
        <time>2014-02-12T14:00:19.000Z</time>
      </trkpt>
      <trkpt lat="45.92457" lon="6.51214">
        <ele>2146.3999023438</ele>
        <time>2014-02-12T14:00:20.000Z</time>
      </trkpt>
      <trkpt lat="45.92457" lon="6.51215">
        <ele>2146.3999023438</ele>
        <time>2014-02-12T14:00:21.000Z</time>
      </trkpt>
      <trkpt lat="45.92457" lon="6.51216">
        <ele>2146.1999511719</ele>
        <time>2014-02-12T14:00:22.000Z</time>
      </trkpt>
      <trkpt lat="45.92457" lon="6.51217">
        <ele>2146.1999511719</ele>
        <time>2014-02-12T14:00:23.000Z</time>
      </trkpt>
      <trkpt lat="45.92457" lon="6.51218">
        <ele>2146.6000976562</ele>
        <time>2014-02-12T14:00:24.000Z</time>
      </trkpt>
      <trkpt lat="45.92457" lon="6.51218">
        <ele>2146.8000488281</ele>
        <time>2014-02-12T14:00:25.000Z</time>
      </trkpt>
      <trkpt lat="45.92457" lon="6.51218">
        <ele>2146.8000488281</ele>
        <time>2014-02-12T14:00:26.000Z</time>
      </trkpt>
      <trkpt lat="45.92457" lon="6.51219">
        <ele>2147</ele>
        <time>2014-02-12T14:00:27.000Z</time>
      </trkpt>
      <trkpt lat="45.92456" lon="6.5122">
        <ele>2147.3999023438</ele>
        <time>2014-02-12T14:00:28.000Z</time>
      </trkpt>
      <trkpt lat="45.92456" lon="6.51221">
        <ele>2147.8000488281</ele>
        <time>2014-02-12T14:00:29.000Z</time>
      </trkpt>
      <trkpt lat="45.92456" lon="6.51223">
        <ele>2148</ele>
        <time>2014-02-12T14:00:30.000Z</time>
      </trkpt>
      <trkpt lat="45.92455" lon="6.51224">
        <ele>2148.1999511719</ele>
        <time>2014-02-12T14:00:31.000Z</time>
      </trkpt>
      <trkpt lat="45.92456" lon="6.51225">
        <ele>2148.6000976562</ele>
        <time>2014-02-12T14:00:32.000Z</time>
      </trkpt>
      <trkpt lat="45.92456" lon="6.51226">
        <ele>2148.8000488281</ele>
        <time>2014-02-12T14:00:33.000Z</time>
      </trkpt>
      <trkpt lat="45.92455" lon="6.51226">
        <ele>2149</ele>
        <time>2014-02-12T14:00:34.000Z</time>
      </trkpt>
      <trkpt lat="45.92455" lon="6.51226">
        <ele>2149</ele>
        <time>2014-02-12T14:00:35.000Z</time>
      </trkpt>
      <trkpt lat="45.92456" lon="6.51227">
        <ele>2149.1999511719</ele>
        <time>2014-02-12T14:00:36.000Z</time>
      </trkpt>
      <trkpt lat="45.92455" lon="6.51227">
        <ele>2149.1999511719</ele>
        <time>2014-02-12T14:00:37.000Z</time>
      </trkpt>
      <trkpt lat="45.92455" lon="6.51228">
        <ele>2149.3999023438</ele>
        <time>2014-02-12T14:00:38.000Z</time>
      </trkpt>
      <trkpt lat="45.92455" lon="6.51229">
        <ele>2149.3999023438</ele>
        <time>2014-02-12T14:00:39.000Z</time>
      </trkpt>
      <trkpt lat="45.92455" lon="6.51229">
        <ele>2149.3999023438</ele>
        <time>2014-02-12T14:00:40.000Z</time>
      </trkpt>
      <trkpt lat="45.92455" lon="6.51229">
        <ele>2149.3999023438</ele>
        <time>2014-02-12T14:00:41.000Z</time>
      </trkpt>
      <trkpt lat="45.92455" lon="6.51229">
        <ele>2149.3999023438</ele>
        <time>2014-02-12T14:00:42.000Z</time>
      </trkpt>
      <trkpt lat="45.92455" lon="6.51229">
        <ele>2149.3999023438</ele>
        <time>2014-02-12T14:00:43.000Z</time>
      </trkpt>
      <trkpt lat="45.92455" lon="6.51229">
        <ele>2149.3999023438</ele>
        <time>2014-02-12T14:00:45.000Z</time>
      </trkpt>
      <trkpt lat="45.92455" lon="6.51229">
        <ele>2149.3999023438</ele>
        <time>2014-02-12T14:00:46.000Z</time>
      </trkpt>
      <trkpt lat="45.92455" lon="6.51229">
        <ele>2149.3999023438</ele>
        <time>2014-02-12T14:00:47.000Z</time>
      </trkpt>
      <trkpt lat="45.92455" lon="6.51229">
        <ele>2149.3999023438</ele>
        <time>2014-02-12T14:00:48.000Z</time>
      </trkpt>
      <trkpt lat="45.92455" lon="6.51229">
        <ele>2149.3999023438</ele>
        <time>2014-02-12T14:00:49.000Z</time>
      </trkpt>
      <trkpt lat="45.92455" lon="6.51229">
        <ele>2149.3999023438</ele>
        <time>2014-02-12T14:00:50.000Z</time>
      </trkpt>
      <trkpt lat="45.92455" lon="6.51229">
        <ele>2149.3999023438</ele>
        <time>2014-02-12T14:00:51.000Z</time>
      </trkpt>
      <trkpt lat="45.92455" lon="6.51229">
        <ele>2149.3999023438</ele>
        <time>2014-02-12T14:00:52.000Z</time>
      </trkpt>
      <trkpt lat="45.92455" lon="6.51229">
        <ele>2149.3999023438</ele>
        <time>2014-02-12T14:00:53.000Z</time>
      </trkpt>
      <trkpt lat="45.92455" lon="6.51229">
        <ele>2149.3999023438</ele>
        <time>2014-02-12T14:00:54.000Z</time>
      </trkpt>
      <trkpt lat="45.92455" lon="6.51229">
        <ele>2149.3999023438</ele>
        <time>2014-02-12T14:00:55.000Z</time>
      </trkpt>
      <trkpt lat="45.92455" lon="6.51229">
        <ele>2149.3999023438</ele>
        <time>2014-02-12T14:00:56.000Z</time>
      </trkpt>
      <trkpt lat="45.92455" lon="6.51229">
        <ele>2149.3999023438</ele>
        <time>2014-02-12T14:00:57.000Z</time>
      </trkpt>
      <trkpt lat="45.92455" lon="6.51229">
        <ele>2149.3999023438</ele>
        <time>2014-02-12T14:00:58.000Z</time>
      </trkpt>
      <trkpt lat="45.92455" lon="6.51229">
        <ele>2149.6000976562</ele>
        <time>2014-02-12T14:00:59.000Z</time>
      </trkpt>
      <trkpt lat="45.92455" lon="6.5123">
        <ele>2149.8000488281</ele>
        <time>2014-02-12T14:01:00.000Z</time>
      </trkpt>
      <trkpt lat="45.92455" lon="6.5123">
        <ele>2149.8000488281</ele>
        <time>2014-02-12T14:01:01.000Z</time>
      </trkpt>
      <trkpt lat="45.92455" lon="6.5123">
        <ele>2149.8000488281</ele>
        <time>2014-02-12T14:01:02.000Z</time>
      </trkpt>
      <trkpt lat="45.92455" lon="6.5123">
        <ele>2149.8000488281</ele>
        <time>2014-02-12T14:01:03.000Z</time>
      </trkpt>
      <trkpt lat="45.92455" lon="6.5123">
        <ele>2149.8000488281</ele>
        <time>2014-02-12T14:01:04.000Z</time>
      </trkpt>
      <trkpt lat="45.92455" lon="6.5123">
        <ele>2149.8000488281</ele>
        <time>2014-02-12T14:01:05.000Z</time>
      </trkpt>
      <trkpt lat="45.92455" lon="6.5123">
        <ele>2149.8000488281</ele>
        <time>2014-02-12T14:01:06.000Z</time>
      </trkpt>
      <trkpt lat="45.92455" lon="6.5123">
        <ele>2149.8000488281</ele>
        <time>2014-02-12T14:01:07.000Z</time>
      </trkpt>
      <trkpt lat="45.92455" lon="6.5123">
        <ele>2149.8000488281</ele>
        <time>2014-02-12T14:01:08.000Z</time>
      </trkpt>
      <trkpt lat="45.92455" lon="6.5123">
        <ele>2149.8000488281</ele>
        <time>2014-02-12T14:01:09.000Z</time>
      </trkpt>
      <trkpt lat="45.92455" lon="6.5123">
        <ele>2149.8000488281</ele>
        <time>2014-02-12T14:01:10.000Z</time>
      </trkpt>
      <trkpt lat="45.92455" lon="6.5123">
        <ele>2149.8000488281</ele>
        <time>2014-02-12T14:01:12.000Z</time>
      </trkpt>
      <trkpt lat="45.92457" lon="6.51229">
        <ele>2150.1999511719</ele>
        <time>2014-02-12T14:01:13.000Z</time>
      </trkpt>
      <trkpt lat="45.92457" lon="6.51229">
        <ele>2150.1999511719</ele>
        <time>2014-02-12T14:01:14.000Z</time>
      </trkpt>
      <trkpt lat="45.92457" lon="6.51229">
        <ele>2150.1999511719</ele>
        <time>2014-02-12T14:01:15.000Z</time>
      </trkpt>
      <trkpt lat="45.92457" lon="6.51229">
        <ele>2150.1999511719</ele>
        <time>2014-02-12T14:01:16.000Z</time>
      </trkpt>
      <trkpt lat="45.92457" lon="6.51229">
        <ele>2150.1999511719</ele>
        <time>2014-02-12T14:01:17.000Z</time>
      </trkpt>
      <trkpt lat="45.92457" lon="6.51229">
        <ele>2150.1999511719</ele>
        <time>2014-02-12T14:01:18.000Z</time>
      </trkpt>
      <trkpt lat="45.92458" lon="6.51229">
        <ele>2150.3999023438</ele>
        <time>2014-02-12T14:01:19.000Z</time>
      </trkpt>
      <trkpt lat="45.92458" lon="6.51229">
        <ele>2150.3999023438</ele>
        <time>2014-02-12T14:01:20.000Z</time>
      </trkpt>
      <trkpt lat="45.92458" lon="6.51229">
        <ele>2150.3999023438</ele>
        <time>2014-02-12T14:01:21.000Z</time>
      </trkpt>
      <trkpt lat="45.92458" lon="6.51229">
        <ele>2150.3999023438</ele>
        <time>2014-02-12T14:01:22.000Z</time>
      </trkpt>
      <trkpt lat="45.92458" lon="6.51229">
        <ele>2150.6000976562</ele>
        <time>2014-02-12T14:01:23.000Z</time>
      </trkpt>
      <trkpt lat="45.92457" lon="6.5123">
        <ele>2150.6000976562</ele>
        <time>2014-02-12T14:01:24.000Z</time>
      </trkpt>
      <trkpt lat="45.92457" lon="6.5123">
        <ele>2150.6000976562</ele>
        <time>2014-02-12T14:01:25.000Z</time>
      </trkpt>
      <trkpt lat="45.92457" lon="6.51231">
        <ele>2150.6000976562</ele>
        <time>2014-02-12T14:01:26.000Z</time>
      </trkpt>
      <trkpt lat="45.92456" lon="6.51231">
        <ele>2150.8000488281</ele>
        <time>2014-02-12T14:01:27.000Z</time>
      </trkpt>
      <trkpt lat="45.92456" lon="6.51231">
        <ele>2150.8000488281</ele>
        <time>2014-02-12T14:01:28.000Z</time>
      </trkpt>
      <trkpt lat="45.92456" lon="6.51232">
        <ele>2150.8000488281</ele>
        <time>2014-02-12T14:01:29.000Z</time>
      </trkpt>
      <trkpt lat="45.92456" lon="6.51232">
        <ele>2150.8000488281</ele>
        <time>2014-02-12T14:01:30.000Z</time>
      </trkpt>
      <trkpt lat="45.92456" lon="6.51232">
        <ele>2150.8000488281</ele>
        <time>2014-02-12T14:01:31.000Z</time>
      </trkpt>
      <trkpt lat="45.92456" lon="6.51232">
        <ele>2150.8000488281</ele>
        <time>2014-02-12T14:01:32.000Z</time>
      </trkpt>
      <trkpt lat="45.92456" lon="6.51232">
        <ele>2150.8000488281</ele>
        <time>2014-02-12T14:01:33.000Z</time>
      </trkpt>
      <trkpt lat="45.92456" lon="6.51232">
        <ele>2150.8000488281</ele>
        <time>2014-02-12T14:01:34.000Z</time>
      </trkpt>
      <trkpt lat="45.92456" lon="6.51232">
        <ele>2150.8000488281</ele>
        <time>2014-02-12T14:01:35.000Z</time>
      </trkpt>
      <trkpt lat="45.92456" lon="6.51232">
        <ele>2150.8000488281</ele>
        <time>2014-02-12T14:01:36.000Z</time>
      </trkpt>
      <trkpt lat="45.92458" lon="6.51231">
        <ele>2151.3999023438</ele>
        <time>2014-02-12T14:01:37.000Z</time>
      </trkpt>
      <trkpt lat="45.92458" lon="6.51231">
        <ele>2151.3999023438</ele>
        <time>2014-02-12T14:01:38.000Z</time>
      </trkpt>
      <trkpt lat="45.92461" lon="6.51231">
        <ele>2151.8000488281</ele>
        <time>2014-02-12T14:01:39.000Z</time>
      </trkpt>
      <trkpt lat="45.92461" lon="6.51231">
        <ele>2151.8000488281</ele>
        <time>2014-02-12T14:01:40.000Z</time>
      </trkpt>
      <trkpt lat="45.92462" lon="6.5123">
        <ele>2152.1999511719</ele>
        <time>2014-02-12T14:01:41.000Z</time>
      </trkpt>
      <trkpt lat="45.92462" lon="6.5123">
        <ele>2152.1999511719</ele>
        <time>2014-02-12T14:01:42.000Z</time>
      </trkpt>
      <trkpt lat="45.92462" lon="6.5123">
        <ele>2152.1999511719</ele>
        <time>2014-02-12T14:01:43.000Z</time>
      </trkpt>
      <trkpt lat="45.92462" lon="6.5123">
        <ele>2152.1999511719</ele>
        <time>2014-02-12T14:01:44.000Z</time>
      </trkpt>
      <trkpt lat="45.92462" lon="6.5123">
        <ele>2152.1999511719</ele>
        <time>2014-02-12T14:01:45.000Z</time>
      </trkpt>
      <trkpt lat="45.92462" lon="6.5123">
        <ele>2152.1999511719</ele>
        <time>2014-02-12T14:01:46.000Z</time>
      </trkpt>
      <trkpt lat="45.92462" lon="6.5123">
        <ele>2152.1999511719</ele>
        <time>2014-02-12T14:01:47.000Z</time>
      </trkpt>
      <trkpt lat="45.92462" lon="6.5123">
        <ele>2152.1999511719</ele>
        <time>2014-02-12T14:01:48.000Z</time>
      </trkpt>
      <trkpt lat="45.92462" lon="6.5123">
        <ele>2152.1999511719</ele>
        <time>2014-02-12T14:01:49.000Z</time>
      </trkpt>
      <trkpt lat="45.92462" lon="6.5123">
        <ele>2152.1999511719</ele>
        <time>2014-02-12T14:01:50.000Z</time>
      </trkpt>
      <trkpt lat="45.92462" lon="6.5123">
        <ele>2152.1999511719</ele>
        <time>2014-02-12T14:01:51.000Z</time>
      </trkpt>
      <trkpt lat="45.92462" lon="6.51231">
        <ele>2152.3999023438</ele>
        <time>2014-02-12T14:01:52.000Z</time>
      </trkpt>
      <trkpt lat="45.92462" lon="6.51231">
        <ele>2152.3999023438</ele>
        <time>2014-02-12T14:01:53.000Z</time>
      </trkpt>
      <trkpt lat="45.92462" lon="6.51231">
        <ele>2152.6000976562</ele>
        <time>2014-02-12T14:01:54.000Z</time>
      </trkpt>
      <trkpt lat="45.92461" lon="6.51232">
        <ele>2152.8000488281</ele>
        <time>2014-02-12T14:01:55.000Z</time>
      </trkpt>
      <trkpt lat="45.92461" lon="6.51233">
        <ele>2153</ele>
        <time>2014-02-12T14:01:56.000Z</time>
      </trkpt>
      <trkpt lat="45.92461" lon="6.51234">
        <ele>2153</ele>
        <time>2014-02-12T14:01:57.000Z</time>
      </trkpt>
      <trkpt lat="45.92461" lon="6.51234">
        <ele>2153</ele>
        <time>2014-02-12T14:01:58.000Z</time>
      </trkpt>
      <trkpt lat="45.92461" lon="6.51235">
        <ele>2153</ele>
        <time>2014-02-12T14:01:59.000Z</time>
      </trkpt>
      <trkpt lat="45.92461" lon="6.51235">
        <ele>2153</ele>
        <time>2014-02-12T14:02:00.000Z</time>
      </trkpt>
      <trkpt lat="45.92461" lon="6.51235">
        <ele>2153</ele>
        <time>2014-02-12T14:02:01.000Z</time>
      </trkpt>
      <trkpt lat="45.92461" lon="6.51235">
        <ele>2153</ele>
        <time>2014-02-12T14:02:02.000Z</time>
      </trkpt>
      <trkpt lat="45.92461" lon="6.51235">
        <ele>2153</ele>
        <time>2014-02-12T14:02:03.000Z</time>
      </trkpt>
      <trkpt lat="45.92461" lon="6.51235">
        <ele>2153</ele>
        <time>2014-02-12T14:02:04.000Z</time>
      </trkpt>
      <trkpt lat="45.92461" lon="6.51235">
        <ele>2153</ele>
        <time>2014-02-12T14:02:05.000Z</time>
      </trkpt>
      <trkpt lat="45.92461" lon="6.51235">
        <ele>2153</ele>
        <time>2014-02-12T14:02:06.000Z</time>
      </trkpt>
      <trkpt lat="45.92461" lon="6.51235">
        <ele>2153</ele>
        <time>2014-02-12T14:02:07.000Z</time>
      </trkpt>
      <trkpt lat="45.92461" lon="6.51235">
        <ele>2153</ele>
        <time>2014-02-12T14:02:08.000Z</time>
      </trkpt>
      <trkpt lat="45.92463" lon="6.51235">
        <ele>2153.6000976562</ele>
        <time>2014-02-12T14:02:09.000Z</time>
      </trkpt>
      <trkpt lat="45.92463" lon="6.51235">
        <ele>2153.6000976562</ele>
        <time>2014-02-12T14:02:10.000Z</time>
      </trkpt>
      <trkpt lat="45.92464" lon="6.51235">
        <ele>2154</ele>
        <time>2014-02-12T14:02:11.000Z</time>
      </trkpt>
      <trkpt lat="45.92464" lon="6.51235">
        <ele>2154</ele>
        <time>2014-02-12T14:02:12.000Z</time>
      </trkpt>
      <trkpt lat="45.92464" lon="6.51235">
        <ele>2154</ele>
        <time>2014-02-12T14:02:13.000Z</time>
      </trkpt>
      <trkpt lat="45.92465" lon="6.51235">
        <ele>2154.1999511719</ele>
        <time>2014-02-12T14:02:14.000Z</time>
      </trkpt>
      <trkpt lat="45.92465" lon="6.51235">
        <ele>2154.1999511719</ele>
        <time>2014-02-12T14:02:15.000Z</time>
      </trkpt>
      <trkpt lat="45.92465" lon="6.51235">
        <ele>2154.1999511719</ele>
        <time>2014-02-12T14:02:16.000Z</time>
      </trkpt>
      <trkpt lat="45.92465" lon="6.51235">
        <ele>2154.1999511719</ele>
        <time>2014-02-12T14:02:17.000Z</time>
      </trkpt>
      <trkpt lat="45.92465" lon="6.51235">
        <ele>2154.1999511719</ele>
        <time>2014-02-12T14:02:18.000Z</time>
      </trkpt>
      <trkpt lat="45.92465" lon="6.51235">
        <ele>2154.1999511719</ele>
        <time>2014-02-12T14:02:19.000Z</time>
      </trkpt>
      <trkpt lat="45.92465" lon="6.51235">
        <ele>2154.1999511719</ele>
        <time>2014-02-12T14:02:20.000Z</time>
      </trkpt>
      <trkpt lat="45.92465" lon="6.51235">
        <ele>2154.1999511719</ele>
        <time>2014-02-12T14:02:21.000Z</time>
      </trkpt>
      <trkpt lat="45.92466" lon="6.51234">
        <ele>2154.3999023438</ele>
        <time>2014-02-12T14:02:22.000Z</time>
      </trkpt>
      <trkpt lat="45.92466" lon="6.51234">
        <ele>2154.3999023438</ele>
        <time>2014-02-12T14:02:23.000Z</time>
      </trkpt>
      <trkpt lat="45.92466" lon="6.51233">
        <ele>2154.3999023438</ele>
        <time>2014-02-12T14:02:24.000Z</time>
      </trkpt>
      <trkpt lat="45.92466" lon="6.51232">
        <ele>2154.1999511719</ele>
        <time>2014-02-12T14:02:25.000Z</time>
      </trkpt>
      <trkpt lat="45.92467" lon="6.51231">
        <ele>2154</ele>
        <time>2014-02-12T14:02:26.000Z</time>
      </trkpt>
      <trkpt lat="45.92467" lon="6.51231">
        <ele>2154</ele>
        <time>2014-02-12T14:02:27.000Z</time>
      </trkpt>
      <trkpt lat="45.92468" lon="6.5123">
        <ele>2154</ele>
        <time>2014-02-12T14:02:28.000Z</time>
      </trkpt>
      <trkpt lat="45.92468" lon="6.5123">
        <ele>2154</ele>
        <time>2014-02-12T14:02:29.000Z</time>
      </trkpt>
      <trkpt lat="45.92468" lon="6.5123">
        <ele>2154</ele>
        <time>2014-02-12T14:02:30.000Z</time>
      </trkpt>
      <trkpt lat="45.92468" lon="6.5123">
        <ele>2154</ele>
        <time>2014-02-12T14:02:31.000Z</time>
      </trkpt>
      <trkpt lat="45.92468" lon="6.5123">
        <ele>2154</ele>
        <time>2014-02-12T14:02:32.000Z</time>
      </trkpt>
      <trkpt lat="45.92468" lon="6.51231">
        <ele>2154.1999511719</ele>
        <time>2014-02-12T14:02:33.000Z</time>
      </trkpt>
      <trkpt lat="45.92467" lon="6.51235">
        <ele>2155</ele>
        <time>2014-02-12T14:02:35.000Z</time>
      </trkpt>
      <trkpt lat="45.92467" lon="6.51236">
        <ele>2155</ele>
        <time>2014-02-12T14:02:36.000Z</time>
      </trkpt>
      <trkpt lat="45.92467" lon="6.51238">
        <ele>2155</ele>
        <time>2014-02-12T14:02:37.000Z</time>
      </trkpt>
      <trkpt lat="45.92466" lon="6.51239">
        <ele>2154.6000976562</ele>
        <time>2014-02-12T14:02:38.000Z</time>
      </trkpt>
      <trkpt lat="45.92466" lon="6.5124">
        <ele>2154.6000976562</ele>
        <time>2014-02-12T14:02:39.000Z</time>
      </trkpt>
      <trkpt lat="45.92466" lon="6.51241">
        <ele>2154.8000488281</ele>
        <time>2014-02-12T14:02:40.000Z</time>
      </trkpt>
      <trkpt lat="45.92467" lon="6.51242">
        <ele>2155</ele>
        <time>2014-02-12T14:02:41.000Z</time>
      </trkpt>
      <trkpt lat="45.92467" lon="6.51243">
        <ele>2155</ele>
        <time>2014-02-12T14:02:42.000Z</time>
      </trkpt>
      <trkpt lat="45.92467" lon="6.51243">
        <ele>2155.1999511719</ele>
        <time>2014-02-12T14:02:43.000Z</time>
      </trkpt>
      <trkpt lat="45.92468" lon="6.51243">
        <ele>2155.3999023438</ele>
        <time>2014-02-12T14:02:44.000Z</time>
      </trkpt>
      <trkpt lat="45.92468" lon="6.51244">
        <ele>2155.3999023438</ele>
        <time>2014-02-12T14:02:45.000Z</time>
      </trkpt>
      <trkpt lat="45.92468" lon="6.51244">
        <ele>2155.3999023438</ele>
        <time>2014-02-12T14:02:46.000Z</time>
      </trkpt>
      <trkpt lat="45.92468" lon="6.51244">
        <ele>2155.3999023438</ele>
        <time>2014-02-12T14:02:47.000Z</time>
      </trkpt>
      <trkpt lat="45.92468" lon="6.51244">
        <ele>2155.3999023438</ele>
        <time>2014-02-12T14:02:48.000Z</time>
      </trkpt>
      <trkpt lat="45.92468" lon="6.51244">
        <ele>2155.3999023438</ele>
        <time>2014-02-12T14:02:49.000Z</time>
      </trkpt>
      <trkpt lat="45.92468" lon="6.51244">
        <ele>2155.3999023438</ele>
        <time>2014-02-12T14:02:50.000Z</time>
      </trkpt>
      <trkpt lat="45.92468" lon="6.51244">
        <ele>2155.3999023438</ele>
        <time>2014-02-12T14:02:52.000Z</time>
      </trkpt>
      <trkpt lat="45.92468" lon="6.51244">
        <ele>2155.3999023438</ele>
        <time>2014-02-12T14:02:54.000Z</time>
      </trkpt>
      <trkpt lat="45.92468" lon="6.51244">
        <ele>2155.3999023438</ele>
        <time>2014-02-12T14:02:56.000Z</time>
      </trkpt>
      <trkpt lat="45.92468" lon="6.51244">
        <ele>2155.3999023438</ele>
        <time>2014-02-12T14:02:57.000Z</time>
      </trkpt>
      <trkpt lat="45.92468" lon="6.51244">
        <ele>2155.3999023438</ele>
        <time>2014-02-12T14:02:58.000Z</time>
      </trkpt>
      <trkpt lat="45.92469" lon="6.51244">
        <ele>2155.8000488281</ele>
        <time>2014-02-12T14:02:59.000Z</time>
      </trkpt>
      <trkpt lat="45.92469" lon="6.51244">
        <ele>2155.8000488281</ele>
        <time>2014-02-12T14:03:00.000Z</time>
      </trkpt>
      <trkpt lat="45.92469" lon="6.51244">
        <ele>2155.8000488281</ele>
        <time>2014-02-12T14:03:01.000Z</time>
      </trkpt>
      <trkpt lat="45.92472" lon="6.51245">
        <ele>2156.8000488281</ele>
        <time>2014-02-12T14:03:03.000Z</time>
      </trkpt>
      <trkpt lat="45.92472" lon="6.51245">
        <ele>2156.8000488281</ele>
        <time>2014-02-12T14:03:04.000Z</time>
      </trkpt>
      <trkpt lat="45.92472" lon="6.51245">
        <ele>2156.8000488281</ele>
        <time>2014-02-12T14:03:05.000Z</time>
      </trkpt>
      <trkpt lat="45.92473" lon="6.51246">
        <ele>2156.8000488281</ele>
        <time>2014-02-12T14:03:06.000Z</time>
      </trkpt>
      <trkpt lat="45.92473" lon="6.51246">
        <ele>2156.8000488281</ele>
        <time>2014-02-12T14:03:07.000Z</time>
      </trkpt>
      <trkpt lat="45.92472" lon="6.51247">
        <ele>2157</ele>
        <time>2014-02-12T14:03:08.000Z</time>
      </trkpt>
      <trkpt lat="45.92472" lon="6.51247">
        <ele>2157</ele>
        <time>2014-02-12T14:03:09.000Z</time>
      </trkpt>
      <trkpt lat="45.92472" lon="6.51249">
        <ele>2156.8000488281</ele>
        <time>2014-02-12T14:03:10.000Z</time>
      </trkpt>
      <trkpt lat="45.92472" lon="6.5125">
        <ele>2157</ele>
        <time>2014-02-12T14:03:11.000Z</time>
      </trkpt>
      <trkpt lat="45.92473" lon="6.51252">
        <ele>2157.1999511719</ele>
        <time>2014-02-12T14:03:12.000Z</time>
      </trkpt>
      <trkpt lat="45.92473" lon="6.51252">
        <ele>2157.1999511719</ele>
        <time>2014-02-12T14:03:13.000Z</time>
      </trkpt>
      <trkpt lat="45.92473" lon="6.51253">
        <ele>2157.1999511719</ele>
        <time>2014-02-12T14:03:14.000Z</time>
      </trkpt>
      <trkpt lat="45.92473" lon="6.51253">
        <ele>2157.1999511719</ele>
        <time>2014-02-12T14:03:15.000Z</time>
      </trkpt>
      <trkpt lat="45.92473" lon="6.51254">
        <ele>2157.1999511719</ele>
        <time>2014-02-12T14:03:16.000Z</time>
      </trkpt>
      <trkpt lat="45.92473" lon="6.51254">
        <ele>2157.1999511719</ele>
        <time>2014-02-12T14:03:17.000Z</time>
      </trkpt>
      <trkpt lat="45.92473" lon="6.51255">
        <ele>2157.1999511719</ele>
        <time>2014-02-12T14:03:18.000Z</time>
      </trkpt>
      <trkpt lat="45.92473" lon="6.51255">
        <ele>2157.1999511719</ele>
        <time>2014-02-12T14:03:19.000Z</time>
      </trkpt>
      <trkpt lat="45.92473" lon="6.51255">
        <ele>2157.1999511719</ele>
        <time>2014-02-12T14:03:20.000Z</time>
      </trkpt>
      <trkpt lat="45.92473" lon="6.51255">
        <ele>2157.1999511719</ele>
        <time>2014-02-12T14:03:21.000Z</time>
      </trkpt>
      <trkpt lat="45.92472" lon="6.51256">
        <ele>2157</ele>
        <time>2014-02-12T14:03:22.000Z</time>
      </trkpt>
      <trkpt lat="45.92472" lon="6.51256">
        <ele>2157</ele>
        <time>2014-02-12T14:03:23.000Z</time>
      </trkpt>
      <trkpt lat="45.92472" lon="6.51257">
        <ele>2157</ele>
        <time>2014-02-12T14:03:24.000Z</time>
      </trkpt>
      <trkpt lat="45.92471" lon="6.51258">
        <ele>2156.8000488281</ele>
        <time>2014-02-12T14:03:25.000Z</time>
      </trkpt>
      <trkpt lat="45.92471" lon="6.51259">
        <ele>2156.8000488281</ele>
        <time>2014-02-12T14:03:26.000Z</time>
      </trkpt>
      <trkpt lat="45.92471" lon="6.51259">
        <ele>2156.8000488281</ele>
        <time>2014-02-12T14:03:27.000Z</time>
      </trkpt>
      <trkpt lat="45.92471" lon="6.5126">
        <ele>2156.6000976562</ele>
        <time>2014-02-12T14:03:28.000Z</time>
      </trkpt>
      <trkpt lat="45.92471" lon="6.5126">
        <ele>2156.6000976562</ele>
        <time>2014-02-12T14:03:29.000Z</time>
      </trkpt>
      <trkpt lat="45.9247" lon="6.51261">
        <ele>2156.6000976562</ele>
        <time>2014-02-12T14:03:30.000Z</time>
      </trkpt>
      <trkpt lat="45.9247" lon="6.51261">
        <ele>2156.6000976562</ele>
        <time>2014-02-12T14:03:31.000Z</time>
      </trkpt>
      <trkpt lat="45.9247" lon="6.51261">
        <ele>2156.6000976562</ele>
        <time>2014-02-12T14:03:32.000Z</time>
      </trkpt>
      <trkpt lat="45.9247" lon="6.51261">
        <ele>2156.6000976562</ele>
        <time>2014-02-12T14:03:33.000Z</time>
      </trkpt>
      <trkpt lat="45.9247" lon="6.51261">
        <ele>2156.6000976562</ele>
        <time>2014-02-12T14:03:34.000Z</time>
      </trkpt>
      <trkpt lat="45.9247" lon="6.51261">
        <ele>2156.6000976562</ele>
        <time>2014-02-12T14:03:35.000Z</time>
      </trkpt>
      <trkpt lat="45.9247" lon="6.51261">
        <ele>2156.6000976562</ele>
        <time>2014-02-12T14:03:36.000Z</time>
      </trkpt>
      <trkpt lat="45.9247" lon="6.51261">
        <ele>2156.6000976562</ele>
        <time>2014-02-12T14:03:37.000Z</time>
      </trkpt>
      <trkpt lat="45.92472" lon="6.5126">
        <ele>2157</ele>
        <time>2014-02-12T14:03:38.000Z</time>
      </trkpt>
      <trkpt lat="45.92473" lon="6.5126">
        <ele>2157.3999023438</ele>
        <time>2014-02-12T14:03:39.000Z</time>
      </trkpt>
      <trkpt lat="45.92473" lon="6.5126">
        <ele>2157.3999023438</ele>
        <time>2014-02-12T14:03:40.000Z</time>
      </trkpt>
      <trkpt lat="45.92473" lon="6.5126">
        <ele>2157.3999023438</ele>
        <time>2014-02-12T14:03:41.000Z</time>
      </trkpt>
      <trkpt lat="45.92473" lon="6.5126">
        <ele>2157.3999023438</ele>
        <time>2014-02-12T14:03:42.000Z</time>
      </trkpt>
      <trkpt lat="45.92474" lon="6.51261">
        <ele>2157.6000976562</ele>
        <time>2014-02-12T14:03:43.000Z</time>
      </trkpt>
      <trkpt lat="45.92474" lon="6.51261">
        <ele>2157.6000976562</ele>
        <time>2014-02-12T14:03:44.000Z</time>
      </trkpt>
      <trkpt lat="45.92474" lon="6.51262">
        <ele>2157.1999511719</ele>
        <time>2014-02-12T14:03:45.000Z</time>
      </trkpt>
      <trkpt lat="45.92475" lon="6.51262">
        <ele>2156.8000488281</ele>
        <time>2014-02-12T14:03:46.000Z</time>
      </trkpt>
      <trkpt lat="45.92475" lon="6.51262">
        <ele>2156.6000976562</ele>
        <time>2014-02-12T14:03:47.000Z</time>
      </trkpt>
      <trkpt lat="45.92476" lon="6.51262">
        <ele>2156.6000976562</ele>
        <time>2014-02-12T14:03:48.000Z</time>
      </trkpt>
      <trkpt lat="45.92476" lon="6.51262">
        <ele>2156.3999023438</ele>
        <time>2014-02-12T14:03:49.000Z</time>
      </trkpt>
      <trkpt lat="45.92476" lon="6.51262">
        <ele>2156.3999023438</ele>
        <time>2014-02-12T14:03:50.000Z</time>
      </trkpt>
      <trkpt lat="45.92476" lon="6.51262">
        <ele>2156.3999023438</ele>
        <time>2014-02-12T14:03:51.000Z</time>
      </trkpt>
      <trkpt lat="45.92476" lon="6.51262">
        <ele>2156.3999023438</ele>
        <time>2014-02-12T14:03:52.000Z</time>
      </trkpt>
      <trkpt lat="45.92476" lon="6.51262">
        <ele>2156.3999023438</ele>
        <time>2014-02-12T14:03:53.000Z</time>
      </trkpt>
      <trkpt lat="45.92476" lon="6.51262">
        <ele>2156.3999023438</ele>
        <time>2014-02-12T14:03:54.000Z</time>
      </trkpt>
      <trkpt lat="45.92476" lon="6.51262">
        <ele>2156.3999023438</ele>
        <time>2014-02-12T14:03:55.000Z</time>
      </trkpt>
      <trkpt lat="45.92476" lon="6.51262">
        <ele>2156.3999023438</ele>
        <time>2014-02-12T14:03:56.000Z</time>
      </trkpt>
      <trkpt lat="45.92475" lon="6.51263">
        <ele>2156.8000488281</ele>
        <time>2014-02-12T14:03:57.000Z</time>
      </trkpt>
      <trkpt lat="45.92475" lon="6.51264">
        <ele>2157.1999511719</ele>
        <time>2014-02-12T14:03:58.000Z</time>
      </trkpt>
      <trkpt lat="45.92474" lon="6.51266">
        <ele>2157.6000976562</ele>
        <time>2014-02-12T14:03:59.000Z</time>
      </trkpt>
      <trkpt lat="45.92473" lon="6.51267">
        <ele>2157.6000976562</ele>
        <time>2014-02-12T14:04:00.000Z</time>
      </trkpt>
      <trkpt lat="45.92473" lon="6.51268">
        <ele>2157.3999023438</ele>
        <time>2014-02-12T14:04:01.000Z</time>
      </trkpt>
      <trkpt lat="45.92472" lon="6.51269">
        <ele>2157.1999511719</ele>
        <time>2014-02-12T14:04:02.000Z</time>
      </trkpt>
      <trkpt lat="45.92471" lon="6.51269">
        <ele>2157</ele>
        <time>2014-02-12T14:04:03.000Z</time>
      </trkpt>
      <trkpt lat="45.92471" lon="6.5127">
        <ele>2157</ele>
        <time>2014-02-12T14:04:04.000Z</time>
      </trkpt>
      <trkpt lat="45.92471" lon="6.51271">
        <ele>2157</ele>
        <time>2014-02-12T14:04:05.000Z</time>
      </trkpt>
      <trkpt lat="45.92471" lon="6.51271">
        <ele>2157</ele>
        <time>2014-02-12T14:04:06.000Z</time>
      </trkpt>
      <trkpt lat="45.92471" lon="6.51271">
        <ele>2157</ele>
        <time>2014-02-12T14:04:07.000Z</time>
      </trkpt>
      <trkpt lat="45.92471" lon="6.51271">
        <ele>2157</ele>
        <time>2014-02-12T14:04:08.000Z</time>
      </trkpt>
      <trkpt lat="45.92471" lon="6.51271">
        <ele>2157</ele>
        <time>2014-02-12T14:04:09.000Z</time>
      </trkpt>
      <trkpt lat="45.92471" lon="6.51272">
        <ele>2157.1999511719</ele>
        <time>2014-02-12T14:04:10.000Z</time>
      </trkpt>
      <trkpt lat="45.92471" lon="6.51272">
        <ele>2157.1999511719</ele>
        <time>2014-02-12T14:04:11.000Z</time>
      </trkpt>
      <trkpt lat="45.92471" lon="6.51272">
        <ele>2157.1999511719</ele>
        <time>2014-02-12T14:04:12.000Z</time>
      </trkpt>
      <trkpt lat="45.92471" lon="6.51272">
        <ele>2157.1999511719</ele>
        <time>2014-02-12T14:04:13.000Z</time>
      </trkpt>
      <trkpt lat="45.92471" lon="6.51272">
        <ele>2157.1999511719</ele>
        <time>2014-02-12T14:04:14.000Z</time>
      </trkpt>
      <trkpt lat="45.92471" lon="6.51272">
        <ele>2157.1999511719</ele>
        <time>2014-02-12T14:04:15.000Z</time>
      </trkpt>
      <trkpt lat="45.92471" lon="6.51272">
        <ele>2157.1999511719</ele>
        <time>2014-02-12T14:04:16.000Z</time>
      </trkpt>
      <trkpt lat="45.92473" lon="6.51272">
        <ele>2157.6000976562</ele>
        <time>2014-02-12T14:04:17.000Z</time>
      </trkpt>
      <trkpt lat="45.92474" lon="6.51271">
        <ele>2157.8000488281</ele>
        <time>2014-02-12T14:04:18.000Z</time>
      </trkpt>
      <trkpt lat="45.92475" lon="6.51271">
        <ele>2157.1999511719</ele>
        <time>2014-02-12T14:04:19.000Z</time>
      </trkpt>
      <trkpt lat="45.92475" lon="6.51271">
        <ele>2157.1999511719</ele>
        <time>2014-02-12T14:04:20.000Z</time>
      </trkpt>
      <trkpt lat="45.92476" lon="6.5127">
        <ele>2156.3999023438</ele>
        <time>2014-02-12T14:04:21.000Z</time>
      </trkpt>
      <trkpt lat="45.92476" lon="6.5127">
        <ele>2156.3999023438</ele>
        <time>2014-02-12T14:04:22.000Z</time>
      </trkpt>
      <trkpt lat="45.92476" lon="6.5127">
        <ele>2156.3999023438</ele>
        <time>2014-02-12T14:04:23.000Z</time>
      </trkpt>
      <trkpt lat="45.92476" lon="6.5127">
        <ele>2156.3999023438</ele>
        <time>2014-02-12T14:04:24.000Z</time>
      </trkpt>
      <trkpt lat="45.92476" lon="6.5127">
        <ele>2156.3999023438</ele>
        <time>2014-02-12T14:04:25.000Z</time>
      </trkpt>
      <trkpt lat="45.92477" lon="6.51271">
        <ele>2156.1999511719</ele>
        <time>2014-02-12T14:04:26.000Z</time>
      </trkpt>
      <trkpt lat="45.92477" lon="6.51271">
        <ele>2156.1999511719</ele>
        <time>2014-02-12T14:04:27.000Z</time>
      </trkpt>
      <trkpt lat="45.92477" lon="6.51271">
        <ele>2156.1999511719</ele>
        <time>2014-02-12T14:04:28.000Z</time>
      </trkpt>
      <trkpt lat="45.92477" lon="6.51271">
        <ele>2155.8000488281</ele>
        <time>2014-02-12T14:04:29.000Z</time>
      </trkpt>
      <trkpt lat="45.92477" lon="6.51271">
        <ele>2155.8000488281</ele>
        <time>2014-02-12T14:04:30.000Z</time>
      </trkpt>
      <trkpt lat="45.92477" lon="6.51272">
        <ele>2156</ele>
        <time>2014-02-12T14:04:31.000Z</time>
      </trkpt>
      <trkpt lat="45.92477" lon="6.51273">
        <ele>2156.1999511719</ele>
        <time>2014-02-12T14:04:32.000Z</time>
      </trkpt>
      <trkpt lat="45.92476" lon="6.51274">
        <ele>2156.3999023438</ele>
        <time>2014-02-12T14:04:33.000Z</time>
      </trkpt>
      <trkpt lat="45.92476" lon="6.51275">
        <ele>2156.6000976562</ele>
        <time>2014-02-12T14:04:34.000Z</time>
      </trkpt>
      <trkpt lat="45.92475" lon="6.51276">
        <ele>2157</ele>
        <time>2014-02-12T14:04:35.000Z</time>
      </trkpt>
      <trkpt lat="45.92475" lon="6.51277">
        <ele>2157.1999511719</ele>
        <time>2014-02-12T14:04:36.000Z</time>
      </trkpt>
      <trkpt lat="45.92474" lon="6.51277">
        <ele>2157.6000976562</ele>
        <time>2014-02-12T14:04:37.000Z</time>
      </trkpt>
      <trkpt lat="45.92474" lon="6.51278">
        <ele>2157.8000488281</ele>
        <time>2014-02-12T14:04:38.000Z</time>
      </trkpt>
      <trkpt lat="45.92474" lon="6.51278">
        <ele>2157.8000488281</ele>
        <time>2014-02-12T14:04:39.000Z</time>
      </trkpt>
      <trkpt lat="45.92475" lon="6.51278">
        <ele>2157.6000976562</ele>
        <time>2014-02-12T14:04:40.000Z</time>
      </trkpt>
      <trkpt lat="45.92475" lon="6.51278">
        <ele>2157.6000976562</ele>
        <time>2014-02-12T14:04:41.000Z</time>
      </trkpt>
      <trkpt lat="45.92475" lon="6.51278">
        <ele>2157.6000976562</ele>
        <time>2014-02-12T14:04:42.000Z</time>
      </trkpt>
      <trkpt lat="45.92475" lon="6.51278">
        <ele>2157.6000976562</ele>
        <time>2014-02-12T14:04:43.000Z</time>
      </trkpt>
      <trkpt lat="45.92475" lon="6.51278">
        <ele>2157.6000976562</ele>
        <time>2014-02-12T14:04:44.000Z</time>
      </trkpt>
      <trkpt lat="45.92475" lon="6.51278">
        <ele>2157.6000976562</ele>
        <time>2014-02-12T14:04:45.000Z</time>
      </trkpt>
      <trkpt lat="45.92475" lon="6.51278">
        <ele>2157.6000976562</ele>
        <time>2014-02-12T14:04:46.000Z</time>
      </trkpt>
      <trkpt lat="45.92477" lon="6.51277">
        <ele>2156</ele>
        <time>2014-02-12T14:04:47.000Z</time>
      </trkpt>
      <trkpt lat="45.92477" lon="6.51277">
        <ele>2156</ele>
        <time>2014-02-12T14:04:48.000Z</time>
      </trkpt>
      <trkpt lat="45.92479" lon="6.51276">
        <ele>2155</ele>
        <time>2014-02-12T14:04:49.000Z</time>
      </trkpt>
      <trkpt lat="45.92479" lon="6.51276">
        <ele>2155</ele>
        <time>2014-02-12T14:04:50.000Z</time>
      </trkpt>
      <trkpt lat="45.92479" lon="6.51276">
        <ele>2155</ele>
        <time>2014-02-12T14:04:51.000Z</time>
      </trkpt>
      <trkpt lat="45.92479" lon="6.51276">
        <ele>2155</ele>
        <time>2014-02-12T14:04:52.000Z</time>
      </trkpt>
      <trkpt lat="45.9248" lon="6.51276">
        <ele>2154.1999511719</ele>
        <time>2014-02-12T14:04:53.000Z</time>
      </trkpt>
      <trkpt lat="45.9248" lon="6.51276">
        <ele>2154.1999511719</ele>
        <time>2014-02-12T14:04:54.000Z</time>
      </trkpt>
      <trkpt lat="45.9248" lon="6.51276">
        <ele>2154.1999511719</ele>
        <time>2014-02-12T14:04:55.000Z</time>
      </trkpt>
      <trkpt lat="45.9248" lon="6.51276">
        <ele>2154.1999511719</ele>
        <time>2014-02-12T14:04:56.000Z</time>
      </trkpt>
      <trkpt lat="45.9248" lon="6.51276">
        <ele>2154.1999511719</ele>
        <time>2014-02-12T14:04:57.000Z</time>
      </trkpt>
      <trkpt lat="45.92481" lon="6.51275">
        <ele>2153.6000976562</ele>
        <time>2014-02-12T14:04:58.000Z</time>
      </trkpt>
      <trkpt lat="45.92481" lon="6.51275">
        <ele>2153.6000976562</ele>
        <time>2014-02-12T14:04:59.000Z</time>
      </trkpt>
      <trkpt lat="45.92482" lon="6.51275">
        <ele>2152.8000488281</ele>
        <time>2014-02-12T14:05:00.000Z</time>
      </trkpt>
      <trkpt lat="45.92482" lon="6.51275">
        <ele>2152.8000488281</ele>
        <time>2014-02-12T14:05:01.000Z</time>
      </trkpt>
      <trkpt lat="45.92482" lon="6.51275">
        <ele>2152.8000488281</ele>
        <time>2014-02-12T14:05:02.000Z</time>
      </trkpt>
      <trkpt lat="45.92482" lon="6.51275">
        <ele>2152.8000488281</ele>
        <time>2014-02-12T14:05:03.000Z</time>
      </trkpt>
      <trkpt lat="45.92482" lon="6.51275">
        <ele>2152.8000488281</ele>
        <time>2014-02-12T14:05:04.000Z</time>
      </trkpt>
      <trkpt lat="45.92482" lon="6.51275">
        <ele>2152.8000488281</ele>
        <time>2014-02-12T14:05:05.000Z</time>
      </trkpt>
      <trkpt lat="45.92482" lon="6.51275">
        <ele>2152.8000488281</ele>
        <time>2014-02-12T14:05:06.000Z</time>
      </trkpt>
      <trkpt lat="45.92482" lon="6.51276">
        <ele>2152.8000488281</ele>
        <time>2014-02-12T14:05:07.000Z</time>
      </trkpt>
      <trkpt lat="45.92482" lon="6.51276">
        <ele>2152.8000488281</ele>
        <time>2014-02-12T14:05:08.000Z</time>
      </trkpt>
      <trkpt lat="45.92482" lon="6.51277">
        <ele>2153</ele>
        <time>2014-02-12T14:05:09.000Z</time>
      </trkpt>
      <trkpt lat="45.92482" lon="6.51278">
        <ele>2153</ele>
        <time>2014-02-12T14:05:10.000Z</time>
      </trkpt>
      <trkpt lat="45.92482" lon="6.51278">
        <ele>2153.1999511719</ele>
        <time>2014-02-12T14:05:11.000Z</time>
      </trkpt>
      <trkpt lat="45.92482" lon="6.51279">
        <ele>2153.1999511719</ele>
        <time>2014-02-12T14:05:12.000Z</time>
      </trkpt>
      <trkpt lat="45.92482" lon="6.51281">
        <ele>2153</ele>
        <time>2014-02-12T14:05:13.000Z</time>
      </trkpt>
      <trkpt lat="45.92482" lon="6.51282">
        <ele>2152.6000976562</ele>
        <time>2014-02-12T14:05:14.000Z</time>
      </trkpt>
      <trkpt lat="45.92482" lon="6.51282">
        <ele>2152.6000976562</ele>
        <time>2014-02-12T14:05:15.000Z</time>
      </trkpt>
      <trkpt lat="45.92483" lon="6.51283">
        <ele>2152.3999023438</ele>
        <time>2014-02-12T14:05:16.000Z</time>
      </trkpt>
      <trkpt lat="45.92483" lon="6.51283">
        <ele>2152.3999023438</ele>
        <time>2014-02-12T14:05:17.000Z</time>
      </trkpt>
      <trkpt lat="45.92483" lon="6.51284">
        <ele>2152.3999023438</ele>
        <time>2014-02-12T14:05:18.000Z</time>
      </trkpt>
      <trkpt lat="45.92483" lon="6.51285">
        <ele>2152.1999511719</ele>
        <time>2014-02-12T14:05:19.000Z</time>
      </trkpt>
      <trkpt lat="45.92484" lon="6.51286">
        <ele>2152</ele>
        <time>2014-02-12T14:05:20.000Z</time>
      </trkpt>
      <trkpt lat="45.92484" lon="6.51287">
        <ele>2151.6000976562</ele>
        <time>2014-02-12T14:05:21.000Z</time>
      </trkpt>
      <trkpt lat="45.92485" lon="6.51287">
        <ele>2151.3999023438</ele>
        <time>2014-02-12T14:05:22.000Z</time>
      </trkpt>
      <trkpt lat="45.92485" lon="6.51287">
        <ele>2151</ele>
        <time>2014-02-12T14:05:23.000Z</time>
      </trkpt>
      <trkpt lat="45.92485" lon="6.51287">
        <ele>2151</ele>
        <time>2014-02-12T14:05:24.000Z</time>
      </trkpt>
      <trkpt lat="45.92485" lon="6.51287">
        <ele>2151</ele>
        <time>2014-02-12T14:05:25.000Z</time>
      </trkpt>
      <trkpt lat="45.92485" lon="6.51287">
        <ele>2151</ele>
        <time>2014-02-12T14:05:26.000Z</time>
      </trkpt>
      <trkpt lat="45.92485" lon="6.51287">
        <ele>2151</ele>
        <time>2014-02-12T14:05:27.000Z</time>
      </trkpt>
      <trkpt lat="45.92485" lon="6.51287">
        <ele>2151</ele>
        <time>2014-02-12T14:05:28.000Z</time>
      </trkpt>
      <trkpt lat="45.92485" lon="6.51287">
        <ele>2151</ele>
        <time>2014-02-12T14:05:29.000Z</time>
      </trkpt>
      <trkpt lat="45.92485" lon="6.51287">
        <ele>2151</ele>
        <time>2014-02-12T14:05:30.000Z</time>
      </trkpt>
      <trkpt lat="45.92485" lon="6.51287">
        <ele>2151</ele>
        <time>2014-02-12T14:05:31.000Z</time>
      </trkpt>
      <trkpt lat="45.92485" lon="6.51287">
        <ele>2151</ele>
        <time>2014-02-12T14:05:32.000Z</time>
      </trkpt>
      <trkpt lat="45.92485" lon="6.51287">
        <ele>2151</ele>
        <time>2014-02-12T14:05:33.000Z</time>
      </trkpt>
      <trkpt lat="45.92485" lon="6.51287">
        <ele>2151</ele>
        <time>2014-02-12T14:05:34.000Z</time>
      </trkpt>
      <trkpt lat="45.92485" lon="6.51287">
        <ele>2151</ele>
        <time>2014-02-12T14:05:35.000Z</time>
      </trkpt>
      <trkpt lat="45.92485" lon="6.51287">
        <ele>2151</ele>
        <time>2014-02-12T14:05:36.000Z</time>
      </trkpt>
      <trkpt lat="45.92485" lon="6.51287">
        <ele>2151</ele>
        <time>2014-02-12T14:05:37.000Z</time>
      </trkpt>
      <trkpt lat="45.92485" lon="6.51287">
        <ele>2151</ele>
        <time>2014-02-12T14:05:39.000Z</time>
      </trkpt>
      <trkpt lat="45.92485" lon="6.51287">
        <ele>2151</ele>
        <time>2014-02-12T14:05:40.000Z</time>
      </trkpt>
      <trkpt lat="45.92485" lon="6.51287">
        <ele>2151</ele>
        <time>2014-02-12T14:05:41.000Z</time>
      </trkpt>
      <trkpt lat="45.92485" lon="6.51287">
        <ele>2151</ele>
        <time>2014-02-12T14:05:42.000Z</time>
      </trkpt>
      <trkpt lat="45.92485" lon="6.51287">
        <ele>2151</ele>
        <time>2014-02-12T14:05:43.000Z</time>
      </trkpt>
      <trkpt lat="45.92485" lon="6.51287">
        <ele>2151</ele>
        <time>2014-02-12T14:05:44.000Z</time>
      </trkpt>
      <trkpt lat="45.92485" lon="6.51287">
        <ele>2151</ele>
        <time>2014-02-12T14:05:45.000Z</time>
      </trkpt>
      <trkpt lat="45.92485" lon="6.51287">
        <ele>2151</ele>
        <time>2014-02-12T14:05:46.000Z</time>
      </trkpt>
      <trkpt lat="45.92485" lon="6.51287">
        <ele>2151</ele>
        <time>2014-02-12T14:05:47.000Z</time>
      </trkpt>
      <trkpt lat="45.92485" lon="6.51287">
        <ele>2151</ele>
        <time>2014-02-12T14:05:48.000Z</time>
      </trkpt>
      <trkpt lat="45.92485" lon="6.51287">
        <ele>2151</ele>
        <time>2014-02-12T14:05:49.000Z</time>
      </trkpt>
      <trkpt lat="45.92485" lon="6.51287">
        <ele>2151</ele>
        <time>2014-02-12T14:05:50.000Z</time>
      </trkpt>
      <trkpt lat="45.92485" lon="6.51287">
        <ele>2151</ele>
        <time>2014-02-12T14:05:51.000Z</time>
      </trkpt>
      <trkpt lat="45.92485" lon="6.51287">
        <ele>2151</ele>
        <time>2014-02-12T14:05:52.000Z</time>
      </trkpt>
      <trkpt lat="45.92486" lon="6.51287">
        <ele>2150.8000488281</ele>
        <time>2014-02-12T14:05:53.000Z</time>
      </trkpt>
      <trkpt lat="45.92486" lon="6.51287">
        <ele>2150.8000488281</ele>
        <time>2014-02-12T14:05:54.000Z</time>
      </trkpt>
      <trkpt lat="45.92486" lon="6.51287">
        <ele>2150.8000488281</ele>
        <time>2014-02-12T14:05:55.000Z</time>
      </trkpt>
      <trkpt lat="45.92486" lon="6.51287">
        <ele>2150.8000488281</ele>
        <time>2014-02-12T14:05:56.000Z</time>
      </trkpt>
      <trkpt lat="45.92486" lon="6.51287">
        <ele>2150.8000488281</ele>
        <time>2014-02-12T14:05:59.000Z</time>
      </trkpt>
      <trkpt lat="45.92486" lon="6.51287">
        <ele>2150.8000488281</ele>
        <time>2014-02-12T14:06:00.000Z</time>
      </trkpt>
      <trkpt lat="45.92486" lon="6.51287">
        <ele>2150.8000488281</ele>
        <time>2014-02-12T14:06:01.000Z</time>
      </trkpt>
      <trkpt lat="45.92486" lon="6.51287">
        <ele>2150.8000488281</ele>
        <time>2014-02-12T14:06:02.000Z</time>
      </trkpt>
      <trkpt lat="45.92486" lon="6.51287">
        <ele>2150.8000488281</ele>
        <time>2014-02-12T14:06:04.000Z</time>
      </trkpt>
      <trkpt lat="45.92486" lon="6.51287">
        <ele>2150.8000488281</ele>
        <time>2014-02-12T14:06:05.000Z</time>
      </trkpt>
      <trkpt lat="45.92486" lon="6.51287">
        <ele>2150.8000488281</ele>
        <time>2014-02-12T14:06:13.000Z</time>
      </trkpt>
      <trkpt lat="45.92486" lon="6.51287">
        <ele>2150.8000488281</ele>
        <time>2014-02-12T14:06:14.000Z</time>
      </trkpt>
      <trkpt lat="45.92486" lon="6.51287">
        <ele>2150.8000488281</ele>
        <time>2014-02-12T14:06:15.000Z</time>
      </trkpt>
      <trkpt lat="45.92486" lon="6.51287">
        <ele>2150.8000488281</ele>
        <time>2014-02-12T14:06:16.000Z</time>
      </trkpt>
      <trkpt lat="45.92486" lon="6.51287">
        <ele>2150.8000488281</ele>
        <time>2014-02-12T14:06:17.000Z</time>
      </trkpt>
      <trkpt lat="45.92486" lon="6.51287">
        <ele>2150.8000488281</ele>
        <time>2014-02-12T14:06:18.000Z</time>
      </trkpt>
      <trkpt lat="45.92486" lon="6.51287">
        <ele>2150.8000488281</ele>
        <time>2014-02-12T14:06:19.000Z</time>
      </trkpt>
      <trkpt lat="45.92486" lon="6.51287">
        <ele>2150.8000488281</ele>
        <time>2014-02-12T14:06:20.000Z</time>
      </trkpt>
      <trkpt lat="45.92486" lon="6.51287">
        <ele>2150.8000488281</ele>
        <time>2014-02-12T14:06:21.000Z</time>
      </trkpt>
      <trkpt lat="45.92486" lon="6.51287">
        <ele>2150.8000488281</ele>
        <time>2014-02-12T14:06:22.000Z</time>
      </trkpt>
      <trkpt lat="45.92486" lon="6.51287">
        <ele>2150.8000488281</ele>
        <time>2014-02-12T14:06:23.000Z</time>
      </trkpt>
      <trkpt lat="45.92486" lon="6.51287">
        <ele>2150.8000488281</ele>
        <time>2014-02-12T14:06:24.000Z</time>
      </trkpt>
      <trkpt lat="45.92486" lon="6.51287">
        <ele>2150.8000488281</ele>
        <time>2014-02-12T14:06:25.000Z</time>
      </trkpt>
      <trkpt lat="45.92486" lon="6.51287">
        <ele>2150.8000488281</ele>
        <time>2014-02-12T14:06:26.000Z</time>
      </trkpt>
      <trkpt lat="45.92486" lon="6.51287">
        <ele>2150.8000488281</ele>
        <time>2014-02-12T14:06:27.000Z</time>
      </trkpt>
      <trkpt lat="45.92486" lon="6.51287">
        <ele>2150.8000488281</ele>
        <time>2014-02-12T14:06:28.000Z</time>
      </trkpt>
      <trkpt lat="45.92486" lon="6.51287">
        <ele>2150.8000488281</ele>
        <time>2014-02-12T14:06:29.000Z</time>
      </trkpt>
      <trkpt lat="45.92486" lon="6.51287">
        <ele>2150.8000488281</ele>
        <time>2014-02-12T14:06:30.000Z</time>
      </trkpt>
      <trkpt lat="45.92486" lon="6.51287">
        <ele>2150.8000488281</ele>
        <time>2014-02-12T14:06:31.000Z</time>
      </trkpt>
      <trkpt lat="45.92486" lon="6.51287">
        <ele>2150.8000488281</ele>
        <time>2014-02-12T14:06:32.000Z</time>
      </trkpt>
      <trkpt lat="45.92484" lon="6.51288">
        <ele>2151.6000976562</ele>
        <time>2014-02-12T14:06:33.000Z</time>
      </trkpt>
      <trkpt lat="45.92484" lon="6.51288">
        <ele>2151.6000976562</ele>
        <time>2014-02-12T14:06:35.000Z</time>
      </trkpt>
      <trkpt lat="45.92484" lon="6.51288">
        <ele>2151.6000976562</ele>
        <time>2014-02-12T14:06:37.000Z</time>
      </trkpt>
      <trkpt lat="45.92484" lon="6.51288">
        <ele>2151.6000976562</ele>
        <time>2014-02-12T14:06:38.000Z</time>
      </trkpt>
      <trkpt lat="45.92484" lon="6.51288">
        <ele>2151.6000976562</ele>
        <time>2014-02-12T14:06:39.000Z</time>
      </trkpt>
      <trkpt lat="45.92484" lon="6.51288">
        <ele>2151.6000976562</ele>
        <time>2014-02-12T14:06:40.000Z</time>
      </trkpt>
      <trkpt lat="45.92484" lon="6.51288">
        <ele>2151.6000976562</ele>
        <time>2014-02-12T14:06:43.000Z</time>
      </trkpt>
      <trkpt lat="45.92484" lon="6.51288">
        <ele>2151.6000976562</ele>
        <time>2014-02-12T14:06:44.000Z</time>
      </trkpt>
      <trkpt lat="45.92484" lon="6.51288">
        <ele>2151.6000976562</ele>
        <time>2014-02-12T14:06:46.000Z</time>
      </trkpt>
      <trkpt lat="45.92484" lon="6.51287">
        <ele>2151.8000488281</ele>
        <time>2014-02-12T14:06:47.000Z</time>
      </trkpt>
      <trkpt lat="45.92484" lon="6.51287">
        <ele>2151.8000488281</ele>
        <time>2014-02-12T14:06:48.000Z</time>
      </trkpt>
      <trkpt lat="45.92484" lon="6.51287">
        <ele>2151.8000488281</ele>
        <time>2014-02-12T14:06:50.000Z</time>
      </trkpt>
      <trkpt lat="45.92484" lon="6.51287">
        <ele>2151.8000488281</ele>
        <time>2014-02-12T14:06:53.000Z</time>
      </trkpt>
      <trkpt lat="45.92484" lon="6.51287">
        <ele>2151.8000488281</ele>
        <time>2014-02-12T14:06:54.000Z</time>
      </trkpt>
      <trkpt lat="45.92484" lon="6.51287">
        <ele>2151.8000488281</ele>
        <time>2014-02-12T14:06:55.000Z</time>
      </trkpt>
      <trkpt lat="45.92484" lon="6.51287">
        <ele>2151.8000488281</ele>
        <time>2014-02-12T14:06:56.000Z</time>
      </trkpt>
      <trkpt lat="45.92484" lon="6.51287">
        <ele>2151.8000488281</ele>
        <time>2014-02-12T14:06:57.000Z</time>
      </trkpt>
      <trkpt lat="45.92484" lon="6.51287">
        <ele>2151.8000488281</ele>
        <time>2014-02-12T14:06:58.000Z</time>
      </trkpt>
      <trkpt lat="45.92484" lon="6.51287">
        <ele>2151.8000488281</ele>
        <time>2014-02-12T14:06:59.000Z</time>
      </trkpt>
      <trkpt lat="45.92484" lon="6.51287">
        <ele>2151.8000488281</ele>
        <time>2014-02-12T14:07:00.000Z</time>
      </trkpt>
      <trkpt lat="45.92484" lon="6.51287">
        <ele>2151.8000488281</ele>
        <time>2014-02-12T14:07:01.000Z</time>
      </trkpt>
      <trkpt lat="45.92484" lon="6.51287">
        <ele>2151.8000488281</ele>
        <time>2014-02-12T14:07:02.000Z</time>
      </trkpt>
      <trkpt lat="45.92484" lon="6.51287">
        <ele>2151.8000488281</ele>
        <time>2014-02-12T14:07:03.000Z</time>
      </trkpt>
      <trkpt lat="45.92484" lon="6.51287">
        <ele>2151.8000488281</ele>
        <time>2014-02-12T14:07:04.000Z</time>
      </trkpt>
      <trkpt lat="45.92484" lon="6.51287">
        <ele>2151.8000488281</ele>
        <time>2014-02-12T14:07:05.000Z</time>
      </trkpt>
      <trkpt lat="45.92484" lon="6.51287">
        <ele>2151.8000488281</ele>
        <time>2014-02-12T14:07:06.000Z</time>
      </trkpt>
      <trkpt lat="45.92484" lon="6.51287">
        <ele>2151.8000488281</ele>
        <time>2014-02-12T14:07:07.000Z</time>
      </trkpt>
      <trkpt lat="45.92484" lon="6.51287">
        <ele>2151.8000488281</ele>
        <time>2014-02-12T14:07:08.000Z</time>
      </trkpt>
      <trkpt lat="45.92484" lon="6.51287">
        <ele>2151.8000488281</ele>
        <time>2014-02-12T14:07:09.000Z</time>
      </trkpt>
      <trkpt lat="45.92484" lon="6.51287">
        <ele>2151.8000488281</ele>
        <time>2014-02-12T14:07:10.000Z</time>
      </trkpt>
      <trkpt lat="45.92484" lon="6.51287">
        <ele>2151.8000488281</ele>
        <time>2014-02-12T14:07:11.000Z</time>
      </trkpt>
      <trkpt lat="45.92484" lon="6.51287">
        <ele>2151.8000488281</ele>
        <time>2014-02-12T14:07:12.000Z</time>
      </trkpt>
      <trkpt lat="45.92484" lon="6.51287">
        <ele>2151.8000488281</ele>
        <time>2014-02-12T14:07:13.000Z</time>
      </trkpt>
      <trkpt lat="45.92484" lon="6.51287">
        <ele>2151.8000488281</ele>
        <time>2014-02-12T14:07:14.000Z</time>
      </trkpt>
      <trkpt lat="45.92484" lon="6.51287">
        <ele>2151.8000488281</ele>
        <time>2014-02-12T14:07:15.000Z</time>
      </trkpt>
      <trkpt lat="45.92484" lon="6.51287">
        <ele>2151.8000488281</ele>
        <time>2014-02-12T14:07:18.000Z</time>
      </trkpt>
      <trkpt lat="45.92484" lon="6.51287">
        <ele>2151.8000488281</ele>
        <time>2014-02-12T14:07:19.000Z</time>
      </trkpt>
      <trkpt lat="45.92484" lon="6.51287">
        <ele>2151.8000488281</ele>
        <time>2014-02-12T14:07:20.000Z</time>
      </trkpt>
      <trkpt lat="45.92484" lon="6.51287">
        <ele>2151.8000488281</ele>
        <time>2014-02-12T14:07:22.000Z</time>
      </trkpt>
      <trkpt lat="45.92484" lon="6.51287">
        <ele>2151.8000488281</ele>
        <time>2014-02-12T14:07:23.000Z</time>
      </trkpt>
      <trkpt lat="45.92484" lon="6.51287">
        <ele>2151.8000488281</ele>
        <time>2014-02-12T14:07:24.000Z</time>
      </trkpt>
      <trkpt lat="45.92484" lon="6.51287">
        <ele>2151.8000488281</ele>
        <time>2014-02-12T14:07:25.000Z</time>
      </trkpt>
      <trkpt lat="45.92484" lon="6.51287">
        <ele>2151.8000488281</ele>
        <time>2014-02-12T14:07:26.000Z</time>
      </trkpt>
      <trkpt lat="45.92484" lon="6.51287">
        <ele>2151.8000488281</ele>
        <time>2014-02-12T14:07:28.000Z</time>
      </trkpt>
      <trkpt lat="45.92484" lon="6.51287">
        <ele>2151.8000488281</ele>
        <time>2014-02-12T14:07:29.000Z</time>
      </trkpt>
      <trkpt lat="45.92484" lon="6.51287">
        <ele>2151.8000488281</ele>
        <time>2014-02-12T14:07:30.000Z</time>
      </trkpt>
      <trkpt lat="45.92484" lon="6.51287">
        <ele>2151.8000488281</ele>
        <time>2014-02-12T14:07:31.000Z</time>
      </trkpt>
      <trkpt lat="45.92484" lon="6.51287">
        <ele>2151.8000488281</ele>
        <time>2014-02-12T14:07:32.000Z</time>
      </trkpt>
      <trkpt lat="45.92484" lon="6.51287">
        <ele>2151.8000488281</ele>
        <time>2014-02-12T14:07:33.000Z</time>
      </trkpt>
      <trkpt lat="45.92484" lon="6.51287">
        <ele>2151.8000488281</ele>
        <time>2014-02-12T14:07:34.000Z</time>
      </trkpt>
      <trkpt lat="45.92484" lon="6.51287">
        <ele>2151.8000488281</ele>
        <time>2014-02-12T14:07:36.000Z</time>
      </trkpt>
      <trkpt lat="45.92484" lon="6.51287">
        <ele>2151.8000488281</ele>
        <time>2014-02-12T14:07:37.000Z</time>
      </trkpt>
      <trkpt lat="45.92484" lon="6.51287">
        <ele>2151.8000488281</ele>
        <time>2014-02-12T14:07:38.000Z</time>
      </trkpt>
      <trkpt lat="45.92484" lon="6.51287">
        <ele>2151.8000488281</ele>
        <time>2014-02-12T14:07:39.000Z</time>
      </trkpt>
      <trkpt lat="45.92484" lon="6.51287">
        <ele>2151.8000488281</ele>
        <time>2014-02-12T14:07:40.000Z</time>
      </trkpt>
      <trkpt lat="45.92484" lon="6.51287">
        <ele>2151.8000488281</ele>
        <time>2014-02-12T14:07:41.000Z</time>
      </trkpt>
      <trkpt lat="45.92484" lon="6.51287">
        <ele>2151.8000488281</ele>
        <time>2014-02-12T14:07:42.000Z</time>
      </trkpt>
      <trkpt lat="45.92484" lon="6.51287">
        <ele>2151.8000488281</ele>
        <time>2014-02-12T14:07:44.000Z</time>
      </trkpt>
      <trkpt lat="45.92484" lon="6.51287">
        <ele>2151.8000488281</ele>
        <time>2014-02-12T14:07:45.000Z</time>
      </trkpt>
      <trkpt lat="45.92484" lon="6.51287">
        <ele>2151.8000488281</ele>
        <time>2014-02-12T14:07:48.000Z</time>
      </trkpt>
      <trkpt lat="45.92484" lon="6.51287">
        <ele>2151.8000488281</ele>
        <time>2014-02-12T14:07:49.000Z</time>
      </trkpt>
      <trkpt lat="45.92484" lon="6.51287">
        <ele>2151.8000488281</ele>
        <time>2014-02-12T14:07:50.000Z</time>
      </trkpt>
      <trkpt lat="45.92484" lon="6.51287">
        <ele>2151.8000488281</ele>
        <time>2014-02-12T14:07:51.000Z</time>
      </trkpt>
      <trkpt lat="45.92484" lon="6.51287">
        <ele>2151.8000488281</ele>
        <time>2014-02-12T14:07:54.000Z</time>
      </trkpt>
      <trkpt lat="45.92484" lon="6.51287">
        <ele>2151.8000488281</ele>
        <time>2014-02-12T14:07:55.000Z</time>
      </trkpt>
      <trkpt lat="45.92484" lon="6.51287">
        <ele>2151.8000488281</ele>
        <time>2014-02-12T14:07:57.000Z</time>
      </trkpt>
      <trkpt lat="45.92484" lon="6.51287">
        <ele>2151.8000488281</ele>
        <time>2014-02-12T14:07:58.000Z</time>
      </trkpt>
      <trkpt lat="45.92484" lon="6.51287">
        <ele>2151.8000488281</ele>
        <time>2014-02-12T14:08:01.000Z</time>
      </trkpt>
      <trkpt lat="45.92484" lon="6.51287">
        <ele>2151.8000488281</ele>
        <time>2014-02-12T14:08:02.000Z</time>
      </trkpt>
      <trkpt lat="45.92484" lon="6.51287">
        <ele>2151.8000488281</ele>
        <time>2014-02-12T14:08:03.000Z</time>
      </trkpt>
      <trkpt lat="45.92484" lon="6.51287">
        <ele>2151.8000488281</ele>
        <time>2014-02-12T14:08:04.000Z</time>
      </trkpt>
      <trkpt lat="45.92484" lon="6.51287">
        <ele>2151.8000488281</ele>
        <time>2014-02-12T14:08:05.000Z</time>
      </trkpt>
      <trkpt lat="45.92484" lon="6.51287">
        <ele>2151.8000488281</ele>
        <time>2014-02-12T14:08:06.000Z</time>
      </trkpt>
      <trkpt lat="45.92484" lon="6.51287">
        <ele>2151.8000488281</ele>
        <time>2014-02-12T14:08:07.000Z</time>
      </trkpt>
      <trkpt lat="45.92484" lon="6.51287">
        <ele>2151.8000488281</ele>
        <time>2014-02-12T14:08:08.000Z</time>
      </trkpt>
      <trkpt lat="45.92484" lon="6.51287">
        <ele>2151.8000488281</ele>
        <time>2014-02-12T14:08:09.000Z</time>
      </trkpt>
      <trkpt lat="45.92484" lon="6.51287">
        <ele>2151.8000488281</ele>
        <time>2014-02-12T14:08:10.000Z</time>
      </trkpt>
      <trkpt lat="45.92484" lon="6.51287">
        <ele>2151.8000488281</ele>
        <time>2014-02-12T14:08:12.000Z</time>
      </trkpt>
      <trkpt lat="45.92484" lon="6.51287">
        <ele>2151.8000488281</ele>
        <time>2014-02-12T14:08:13.000Z</time>
      </trkpt>
      <trkpt lat="45.92484" lon="6.51287">
        <ele>2151.8000488281</ele>
        <time>2014-02-12T14:08:14.000Z</time>
      </trkpt>
      <trkpt lat="45.92484" lon="6.51287">
        <ele>2151.8000488281</ele>
        <time>2014-02-12T14:08:15.000Z</time>
      </trkpt>
      <trkpt lat="45.92484" lon="6.51287">
        <ele>2151.8000488281</ele>
        <time>2014-02-12T14:08:16.000Z</time>
      </trkpt>
      <trkpt lat="45.92484" lon="6.51287">
        <ele>2151.8000488281</ele>
        <time>2014-02-12T14:08:17.000Z</time>
      </trkpt>
      <trkpt lat="45.92484" lon="6.51287">
        <ele>2151.8000488281</ele>
        <time>2014-02-12T14:08:18.000Z</time>
      </trkpt>
      <trkpt lat="45.92484" lon="6.51287">
        <ele>2151.8000488281</ele>
        <time>2014-02-12T14:08:21.000Z</time>
      </trkpt>
      <trkpt lat="45.92484" lon="6.51287">
        <ele>2151.8000488281</ele>
        <time>2014-02-12T14:08:22.000Z</time>
      </trkpt>
      <trkpt lat="45.92485" lon="6.51286">
        <ele>2151.3999023438</ele>
        <time>2014-02-12T14:08:26.000Z</time>
      </trkpt>
      <trkpt lat="45.92485" lon="6.51286">
        <ele>2151.3999023438</ele>
        <time>2014-02-12T14:08:28.000Z</time>
      </trkpt>
      <trkpt lat="45.92485" lon="6.51286">
        <ele>2151.3999023438</ele>
        <time>2014-02-12T14:08:30.000Z</time>
      </trkpt>
      <trkpt lat="45.92485" lon="6.51286">
        <ele>2151.3999023438</ele>
        <time>2014-02-12T14:08:31.000Z</time>
      </trkpt>
      <trkpt lat="45.92485" lon="6.51286">
        <ele>2151.3999023438</ele>
        <time>2014-02-12T14:08:36.000Z</time>
      </trkpt>
      <trkpt lat="45.92485" lon="6.51286">
        <ele>2151.3999023438</ele>
        <time>2014-02-12T14:08:37.000Z</time>
      </trkpt>
      <trkpt lat="45.92485" lon="6.51286">
        <ele>2151.3999023438</ele>
        <time>2014-02-12T14:08:39.000Z</time>
      </trkpt>
      <trkpt lat="45.92485" lon="6.51286">
        <ele>2151.3999023438</ele>
        <time>2014-02-12T14:08:41.000Z</time>
      </trkpt>
      <trkpt lat="45.92485" lon="6.51286">
        <ele>2151.3999023438</ele>
        <time>2014-02-12T14:08:42.000Z</time>
      </trkpt>
      <trkpt lat="45.92485" lon="6.51286">
        <ele>2151.3999023438</ele>
        <time>2014-02-12T14:08:43.000Z</time>
      </trkpt>
      <trkpt lat="45.92485" lon="6.51286">
        <ele>2151.3999023438</ele>
        <time>2014-02-12T14:08:44.000Z</time>
      </trkpt>
      <trkpt lat="45.92485" lon="6.51286">
        <ele>2151.3999023438</ele>
        <time>2014-02-12T14:08:47.000Z</time>
      </trkpt>
      <trkpt lat="45.92485" lon="6.51286">
        <ele>2151.3999023438</ele>
        <time>2014-02-12T14:08:48.000Z</time>
      </trkpt>
      <trkpt lat="45.92485" lon="6.51286">
        <ele>2151.3999023438</ele>
        <time>2014-02-12T14:08:49.000Z</time>
      </trkpt>
      <trkpt lat="45.92485" lon="6.51286">
        <ele>2151.3999023438</ele>
        <time>2014-02-12T14:08:50.000Z</time>
      </trkpt>
      <trkpt lat="45.92485" lon="6.51286">
        <ele>2151.3999023438</ele>
        <time>2014-02-12T14:08:53.000Z</time>
      </trkpt>
      <trkpt lat="45.92485" lon="6.51286">
        <ele>2151.3999023438</ele>
        <time>2014-02-12T14:08:54.000Z</time>
      </trkpt>
      <trkpt lat="45.92485" lon="6.51286">
        <ele>2151.3999023438</ele>
        <time>2014-02-12T14:08:55.000Z</time>
      </trkpt>
      <trkpt lat="45.92485" lon="6.51286">
        <ele>2151.3999023438</ele>
        <time>2014-02-12T14:08:56.000Z</time>
      </trkpt>
      <trkpt lat="45.92485" lon="6.51286">
        <ele>2151.3999023438</ele>
        <time>2014-02-12T14:08:57.000Z</time>
      </trkpt>
      <trkpt lat="45.92485" lon="6.51286">
        <ele>2151.3999023438</ele>
        <time>2014-02-12T14:08:58.000Z</time>
      </trkpt>
      <trkpt lat="45.92485" lon="6.51286">
        <ele>2151.3999023438</ele>
        <time>2014-02-12T14:09:00.000Z</time>
      </trkpt>
      <trkpt lat="45.92485" lon="6.51286">
        <ele>2151.3999023438</ele>
        <time>2014-02-12T14:09:03.000Z</time>
      </trkpt>
      <trkpt lat="45.92485" lon="6.51286">
        <ele>2151.3999023438</ele>
        <time>2014-02-12T14:09:04.000Z</time>
      </trkpt>
      <trkpt lat="45.92485" lon="6.51286">
        <ele>2151.1999511719</ele>
        <time>2014-02-12T14:09:05.000Z</time>
      </trkpt>
      <trkpt lat="45.92485" lon="6.51286">
        <ele>2151.1999511719</ele>
        <time>2014-02-12T14:09:06.000Z</time>
      </trkpt>
      <trkpt lat="45.92485" lon="6.51286">
        <ele>2151.1999511719</ele>
        <time>2014-02-12T14:09:07.000Z</time>
      </trkpt>
      <trkpt lat="45.92485" lon="6.51286">
        <ele>2151.1999511719</ele>
        <time>2014-02-12T14:09:08.000Z</time>
      </trkpt>
      <trkpt lat="45.92485" lon="6.51286">
        <ele>2151.1999511719</ele>
        <time>2014-02-12T14:09:09.000Z</time>
      </trkpt>
      <trkpt lat="45.92485" lon="6.51286">
        <ele>2151.1999511719</ele>
        <time>2014-02-12T14:09:10.000Z</time>
      </trkpt>
      <trkpt lat="45.92485" lon="6.51286">
        <ele>2151.1999511719</ele>
        <time>2014-02-12T14:09:11.000Z</time>
      </trkpt>
      <trkpt lat="45.92485" lon="6.51286">
        <ele>2151.1999511719</ele>
        <time>2014-02-12T14:09:12.000Z</time>
      </trkpt>
      <trkpt lat="45.92485" lon="6.51286">
        <ele>2151.1999511719</ele>
        <time>2014-02-12T14:09:14.000Z</time>
      </trkpt>
      <trkpt lat="45.92485" lon="6.51286">
        <ele>2151.1999511719</ele>
        <time>2014-02-12T14:09:15.000Z</time>
      </trkpt>
      <trkpt lat="45.92485" lon="6.51286">
        <ele>2151.1999511719</ele>
        <time>2014-02-12T14:09:16.000Z</time>
      </trkpt>
      <trkpt lat="45.92485" lon="6.51286">
        <ele>2151.1999511719</ele>
        <time>2014-02-12T14:09:17.000Z</time>
      </trkpt>
      <trkpt lat="45.92485" lon="6.51286">
        <ele>2151.1999511719</ele>
        <time>2014-02-12T14:09:18.000Z</time>
      </trkpt>
      <trkpt lat="45.92485" lon="6.51286">
        <ele>2151.1999511719</ele>
        <time>2014-02-12T14:09:19.000Z</time>
      </trkpt>
      <trkpt lat="45.92485" lon="6.51286">
        <ele>2151.1999511719</ele>
        <time>2014-02-12T14:09:20.000Z</time>
      </trkpt>
      <trkpt lat="45.92485" lon="6.51286">
        <ele>2151.1999511719</ele>
        <time>2014-02-12T14:09:21.000Z</time>
      </trkpt>
      <trkpt lat="45.92485" lon="6.51286">
        <ele>2151.1999511719</ele>
        <time>2014-02-12T14:09:22.000Z</time>
      </trkpt>
      <trkpt lat="45.92485" lon="6.51286">
        <ele>2151.1999511719</ele>
        <time>2014-02-12T14:09:23.000Z</time>
      </trkpt>
      <trkpt lat="45.92485" lon="6.51286">
        <ele>2151.1999511719</ele>
        <time>2014-02-12T14:09:24.000Z</time>
      </trkpt>
      <trkpt lat="45.92485" lon="6.51286">
        <ele>2151.1999511719</ele>
        <time>2014-02-12T14:09:25.000Z</time>
      </trkpt>
      <trkpt lat="45.92485" lon="6.51286">
        <ele>2151.1999511719</ele>
        <time>2014-02-12T14:09:26.000Z</time>
      </trkpt>
      <trkpt lat="45.92485" lon="6.51286">
        <ele>2151.1999511719</ele>
        <time>2014-02-12T14:09:27.000Z</time>
      </trkpt>
      <trkpt lat="45.92485" lon="6.51286">
        <ele>2151.1999511719</ele>
        <time>2014-02-12T14:09:28.000Z</time>
      </trkpt>
      <trkpt lat="45.92485" lon="6.51286">
        <ele>2151.1999511719</ele>
        <time>2014-02-12T14:09:29.000Z</time>
      </trkpt>
      <trkpt lat="45.92485" lon="6.51286">
        <ele>2151.1999511719</ele>
        <time>2014-02-12T14:09:30.000Z</time>
      </trkpt>
      <trkpt lat="45.92485" lon="6.51286">
        <ele>2151.1999511719</ele>
        <time>2014-02-12T14:09:31.000Z</time>
      </trkpt>
      <trkpt lat="45.92485" lon="6.51286">
        <ele>2151.1999511719</ele>
        <time>2014-02-12T14:09:32.000Z</time>
      </trkpt>
      <trkpt lat="45.92485" lon="6.51286">
        <ele>2151.1999511719</ele>
        <time>2014-02-12T14:09:33.000Z</time>
      </trkpt>
      <trkpt lat="45.92485" lon="6.51286">
        <ele>2151.1999511719</ele>
        <time>2014-02-12T14:09:35.000Z</time>
      </trkpt>
      <trkpt lat="45.92485" lon="6.51286">
        <ele>2151.1999511719</ele>
        <time>2014-02-12T14:09:36.000Z</time>
      </trkpt>
      <trkpt lat="45.92485" lon="6.51286">
        <ele>2151.1999511719</ele>
        <time>2014-02-12T14:09:37.000Z</time>
      </trkpt>
      <trkpt lat="45.92485" lon="6.51286">
        <ele>2151.1999511719</ele>
        <time>2014-02-12T14:09:38.000Z</time>
      </trkpt>
      <trkpt lat="45.92485" lon="6.51286">
        <ele>2151.1999511719</ele>
        <time>2014-02-12T14:09:39.000Z</time>
      </trkpt>
      <trkpt lat="45.92485" lon="6.51286">
        <ele>2151.1999511719</ele>
        <time>2014-02-12T14:09:40.000Z</time>
      </trkpt>
      <trkpt lat="45.92485" lon="6.51286">
        <ele>2151.1999511719</ele>
        <time>2014-02-12T14:09:41.000Z</time>
      </trkpt>
      <trkpt lat="45.92485" lon="6.51286">
        <ele>2151.1999511719</ele>
        <time>2014-02-12T14:09:42.000Z</time>
      </trkpt>
      <trkpt lat="45.92485" lon="6.51286">
        <ele>2151.1999511719</ele>
        <time>2014-02-12T14:09:44.000Z</time>
      </trkpt>
      <trkpt lat="45.92485" lon="6.51286">
        <ele>2151.1999511719</ele>
        <time>2014-02-12T14:09:45.000Z</time>
      </trkpt>
      <trkpt lat="45.92485" lon="6.51286">
        <ele>2151.1999511719</ele>
        <time>2014-02-12T14:09:47.000Z</time>
      </trkpt>
      <trkpt lat="45.92485" lon="6.51286">
        <ele>2151.1999511719</ele>
        <time>2014-02-12T14:09:48.000Z</time>
      </trkpt>
      <trkpt lat="45.92485" lon="6.51286">
        <ele>2151.1999511719</ele>
        <time>2014-02-12T14:09:49.000Z</time>
      </trkpt>
      <trkpt lat="45.92485" lon="6.51286">
        <ele>2151.1999511719</ele>
        <time>2014-02-12T14:09:50.000Z</time>
      </trkpt>
      <trkpt lat="45.92485" lon="6.51286">
        <ele>2151.1999511719</ele>
        <time>2014-02-12T14:09:51.000Z</time>
      </trkpt>
      <trkpt lat="45.92485" lon="6.51286">
        <ele>2151.1999511719</ele>
        <time>2014-02-12T14:09:52.000Z</time>
      </trkpt>
      <trkpt lat="45.92485" lon="6.51286">
        <ele>2151.1999511719</ele>
        <time>2014-02-12T14:09:53.000Z</time>
      </trkpt>
      <trkpt lat="45.92485" lon="6.51286">
        <ele>2151.1999511719</ele>
        <time>2014-02-12T14:09:54.000Z</time>
      </trkpt>
      <trkpt lat="45.92485" lon="6.51286">
        <ele>2151.1999511719</ele>
        <time>2014-02-12T14:09:55.000Z</time>
      </trkpt>
      <trkpt lat="45.92485" lon="6.51286">
        <ele>2151.1999511719</ele>
        <time>2014-02-12T14:09:56.000Z</time>
      </trkpt>
      <trkpt lat="45.92485" lon="6.51286">
        <ele>2151.1999511719</ele>
        <time>2014-02-12T14:09:57.000Z</time>
      </trkpt>
      <trkpt lat="45.92485" lon="6.51286">
        <ele>2151.1999511719</ele>
        <time>2014-02-12T14:09:58.000Z</time>
      </trkpt>
      <trkpt lat="45.92485" lon="6.51286">
        <ele>2151.1999511719</ele>
        <time>2014-02-12T14:09:59.000Z</time>
      </trkpt>
      <trkpt lat="45.92485" lon="6.51286">
        <ele>2151.1999511719</ele>
        <time>2014-02-12T14:10:00.000Z</time>
      </trkpt>
      <trkpt lat="45.92485" lon="6.51286">
        <ele>2151.1999511719</ele>
        <time>2014-02-12T14:10:01.000Z</time>
      </trkpt>
      <trkpt lat="45.92485" lon="6.51286">
        <ele>2151.1999511719</ele>
        <time>2014-02-12T14:10:02.000Z</time>
      </trkpt>
      <trkpt lat="45.92485" lon="6.51286">
        <ele>2151.1999511719</ele>
        <time>2014-02-12T14:10:03.000Z</time>
      </trkpt>
      <trkpt lat="45.92485" lon="6.51286">
        <ele>2151.1999511719</ele>
        <time>2014-02-12T14:10:04.000Z</time>
      </trkpt>
      <trkpt lat="45.92485" lon="6.51286">
        <ele>2151.1999511719</ele>
        <time>2014-02-12T14:10:05.000Z</time>
      </trkpt>
      <trkpt lat="45.92485" lon="6.51286">
        <ele>2151.1999511719</ele>
        <time>2014-02-12T14:10:06.000Z</time>
      </trkpt>
      <trkpt lat="45.92485" lon="6.51286">
        <ele>2151.1999511719</ele>
        <time>2014-02-12T14:10:07.000Z</time>
      </trkpt>
      <trkpt lat="45.92485" lon="6.51286">
        <ele>2151.1999511719</ele>
        <time>2014-02-12T14:10:08.000Z</time>
      </trkpt>
      <trkpt lat="45.92485" lon="6.51286">
        <ele>2151.1999511719</ele>
        <time>2014-02-12T14:10:09.000Z</time>
      </trkpt>
      <trkpt lat="45.92485" lon="6.51286">
        <ele>2151.1999511719</ele>
        <time>2014-02-12T14:10:10.000Z</time>
      </trkpt>
      <trkpt lat="45.92485" lon="6.51286">
        <ele>2151.1999511719</ele>
        <time>2014-02-12T14:10:11.000Z</time>
      </trkpt>
      <trkpt lat="45.92485" lon="6.51286">
        <ele>2151.1999511719</ele>
        <time>2014-02-12T14:10:12.000Z</time>
      </trkpt>
      <trkpt lat="45.92485" lon="6.51286">
        <ele>2151.1999511719</ele>
        <time>2014-02-12T14:10:13.000Z</time>
      </trkpt>
      <trkpt lat="45.92485" lon="6.51286">
        <ele>2151.1999511719</ele>
        <time>2014-02-12T14:10:14.000Z</time>
      </trkpt>
      <trkpt lat="45.92485" lon="6.51286">
        <ele>2151.1999511719</ele>
        <time>2014-02-12T14:10:15.000Z</time>
      </trkpt>
      <trkpt lat="45.92485" lon="6.51286">
        <ele>2151.1999511719</ele>
        <time>2014-02-12T14:10:16.000Z</time>
      </trkpt>
      <trkpt lat="45.92485" lon="6.51286">
        <ele>2151.1999511719</ele>
        <time>2014-02-12T14:10:18.000Z</time>
      </trkpt>
      <trkpt lat="45.92485" lon="6.51286">
        <ele>2151.1999511719</ele>
        <time>2014-02-12T14:10:19.000Z</time>
      </trkpt>
      <trkpt lat="45.92485" lon="6.51286">
        <ele>2151.1999511719</ele>
        <time>2014-02-12T14:10:20.000Z</time>
      </trkpt>
      <trkpt lat="45.92485" lon="6.51286">
        <ele>2151.1999511719</ele>
        <time>2014-02-12T14:10:22.000Z</time>
      </trkpt>
      <trkpt lat="45.92485" lon="6.51286">
        <ele>2151.1999511719</ele>
        <time>2014-02-12T14:10:23.000Z</time>
      </trkpt>
      <trkpt lat="45.92485" lon="6.51286">
        <ele>2151.1999511719</ele>
        <time>2014-02-12T14:10:24.000Z</time>
      </trkpt>
      <trkpt lat="45.92485" lon="6.51286">
        <ele>2151.1999511719</ele>
        <time>2014-02-12T14:10:25.000Z</time>
      </trkpt>
      <trkpt lat="45.92485" lon="6.51286">
        <ele>2151.1999511719</ele>
        <time>2014-02-12T14:10:26.000Z</time>
      </trkpt>
      <trkpt lat="45.92485" lon="6.51286">
        <ele>2151.1999511719</ele>
        <time>2014-02-12T14:10:27.000Z</time>
      </trkpt>
      <trkpt lat="45.92485" lon="6.51286">
        <ele>2151.1999511719</ele>
        <time>2014-02-12T14:10:28.000Z</time>
      </trkpt>
      <trkpt lat="45.92485" lon="6.51286">
        <ele>2151.1999511719</ele>
        <time>2014-02-12T14:10:29.000Z</time>
      </trkpt>
      <trkpt lat="45.92485" lon="6.51286">
        <ele>2151.1999511719</ele>
        <time>2014-02-12T14:10:30.000Z</time>
      </trkpt>
      <trkpt lat="45.92485" lon="6.51286">
        <ele>2151.1999511719</ele>
        <time>2014-02-12T14:10:31.000Z</time>
      </trkpt>
      <trkpt lat="45.92485" lon="6.51286">
        <ele>2151.1999511719</ele>
        <time>2014-02-12T14:10:32.000Z</time>
      </trkpt>
      <trkpt lat="45.92485" lon="6.51286">
        <ele>2151.1999511719</ele>
        <time>2014-02-12T14:10:33.000Z</time>
      </trkpt>
      <trkpt lat="45.92485" lon="6.51286">
        <ele>2151.1999511719</ele>
        <time>2014-02-12T14:10:34.000Z</time>
      </trkpt>
      <trkpt lat="45.92485" lon="6.51286">
        <ele>2151.1999511719</ele>
        <time>2014-02-12T14:10:35.000Z</time>
      </trkpt>
      <trkpt lat="45.92485" lon="6.51286">
        <ele>2151.1999511719</ele>
        <time>2014-02-12T14:10:36.000Z</time>
      </trkpt>
      <trkpt lat="45.92485" lon="6.51286">
        <ele>2151.1999511719</ele>
        <time>2014-02-12T14:10:37.000Z</time>
      </trkpt>
      <trkpt lat="45.92485" lon="6.51286">
        <ele>2151.1999511719</ele>
        <time>2014-02-12T14:10:38.000Z</time>
      </trkpt>
      <trkpt lat="45.92485" lon="6.51286">
        <ele>2151.1999511719</ele>
        <time>2014-02-12T14:10:39.000Z</time>
      </trkpt>
      <trkpt lat="45.92485" lon="6.51286">
        <ele>2151.1999511719</ele>
        <time>2014-02-12T14:10:40.000Z</time>
      </trkpt>
      <trkpt lat="45.92485" lon="6.51286">
        <ele>2151.1999511719</ele>
        <time>2014-02-12T14:10:41.000Z</time>
      </trkpt>
      <trkpt lat="45.92485" lon="6.51286">
        <ele>2151.1999511719</ele>
        <time>2014-02-12T14:10:42.000Z</time>
      </trkpt>
      <trkpt lat="45.92485" lon="6.51286">
        <ele>2151.1999511719</ele>
        <time>2014-02-12T14:10:43.000Z</time>
      </trkpt>
      <trkpt lat="45.92485" lon="6.51286">
        <ele>2151.1999511719</ele>
        <time>2014-02-12T14:10:44.000Z</time>
      </trkpt>
      <trkpt lat="45.92485" lon="6.51286">
        <ele>2151.1999511719</ele>
        <time>2014-02-12T14:10:45.000Z</time>
      </trkpt>
      <trkpt lat="45.92485" lon="6.51286">
        <ele>2151.1999511719</ele>
        <time>2014-02-12T14:10:46.000Z</time>
      </trkpt>
      <trkpt lat="45.92485" lon="6.51286">
        <ele>2151.1999511719</ele>
        <time>2014-02-12T14:10:47.000Z</time>
      </trkpt>
      <trkpt lat="45.92485" lon="6.51286">
        <ele>2151.1999511719</ele>
        <time>2014-02-12T14:10:48.000Z</time>
      </trkpt>
      <trkpt lat="45.92485" lon="6.51286">
        <ele>2151.1999511719</ele>
        <time>2014-02-12T14:10:49.000Z</time>
      </trkpt>
      <trkpt lat="45.92485" lon="6.51286">
        <ele>2151.1999511719</ele>
        <time>2014-02-12T14:10:50.000Z</time>
      </trkpt>
      <trkpt lat="45.92485" lon="6.51286">
        <ele>2151.1999511719</ele>
        <time>2014-02-12T14:10:51.000Z</time>
      </trkpt>
      <trkpt lat="45.92485" lon="6.51286">
        <ele>2151</ele>
        <time>2014-02-12T14:10:52.000Z</time>
      </trkpt>
      <trkpt lat="45.92485" lon="6.51286">
        <ele>2151</ele>
        <time>2014-02-12T14:10:53.000Z</time>
      </trkpt>
      <trkpt lat="45.92485" lon="6.51286">
        <ele>2151</ele>
        <time>2014-02-12T14:10:54.000Z</time>
      </trkpt>
      <trkpt lat="45.92485" lon="6.51286">
        <ele>2151</ele>
        <time>2014-02-12T14:10:55.000Z</time>
      </trkpt>
      <trkpt lat="45.92485" lon="6.51286">
        <ele>2151</ele>
        <time>2014-02-12T14:10:56.000Z</time>
      </trkpt>
      <trkpt lat="45.92485" lon="6.51286">
        <ele>2151</ele>
        <time>2014-02-12T14:10:57.000Z</time>
      </trkpt>
      <trkpt lat="45.92485" lon="6.51286">
        <ele>2151</ele>
        <time>2014-02-12T14:10:58.000Z</time>
      </trkpt>
      <trkpt lat="45.92485" lon="6.51286">
        <ele>2151</ele>
        <time>2014-02-12T14:10:59.000Z</time>
      </trkpt>
      <trkpt lat="45.92485" lon="6.51286">
        <ele>2151</ele>
        <time>2014-02-12T14:11:00.000Z</time>
      </trkpt>
      <trkpt lat="45.92485" lon="6.51286">
        <ele>2151</ele>
        <time>2014-02-12T14:11:01.000Z</time>
      </trkpt>
      <trkpt lat="45.92485" lon="6.51286">
        <ele>2151</ele>
        <time>2014-02-12T14:11:02.000Z</time>
      </trkpt>
      <trkpt lat="45.92485" lon="6.51286">
        <ele>2151</ele>
        <time>2014-02-12T14:11:03.000Z</time>
      </trkpt>
      <trkpt lat="45.92485" lon="6.51286">
        <ele>2151</ele>
        <time>2014-02-12T14:11:04.000Z</time>
      </trkpt>
      <trkpt lat="45.92485" lon="6.51286">
        <ele>2151</ele>
        <time>2014-02-12T14:11:05.000Z</time>
      </trkpt>
      <trkpt lat="45.92485" lon="6.51286">
        <ele>2151</ele>
        <time>2014-02-12T14:11:06.000Z</time>
      </trkpt>
      <trkpt lat="45.92485" lon="6.51286">
        <ele>2151</ele>
        <time>2014-02-12T14:11:08.000Z</time>
      </trkpt>
      <trkpt lat="45.92485" lon="6.51286">
        <ele>2151</ele>
        <time>2014-02-12T14:11:09.000Z</time>
      </trkpt>
      <trkpt lat="45.92485" lon="6.51286">
        <ele>2151</ele>
        <time>2014-02-12T14:11:10.000Z</time>
      </trkpt>
      <trkpt lat="45.92485" lon="6.51286">
        <ele>2151</ele>
        <time>2014-02-12T14:11:11.000Z</time>
      </trkpt>
      <trkpt lat="45.92485" lon="6.51286">
        <ele>2151</ele>
        <time>2014-02-12T14:11:12.000Z</time>
      </trkpt>
      <trkpt lat="45.92485" lon="6.51286">
        <ele>2151</ele>
        <time>2014-02-12T14:11:14.000Z</time>
      </trkpt>
      <trkpt lat="45.92485" lon="6.51286">
        <ele>2151</ele>
        <time>2014-02-12T14:11:15.000Z</time>
      </trkpt>
      <trkpt lat="45.92485" lon="6.51286">
        <ele>2151</ele>
        <time>2014-02-12T14:11:16.000Z</time>
      </trkpt>
      <trkpt lat="45.92485" lon="6.51286">
        <ele>2151</ele>
        <time>2014-02-12T14:11:17.000Z</time>
      </trkpt>
      <trkpt lat="45.92485" lon="6.51286">
        <ele>2151</ele>
        <time>2014-02-12T14:11:18.000Z</time>
      </trkpt>
      <trkpt lat="45.92485" lon="6.51286">
        <ele>2151</ele>
        <time>2014-02-12T14:11:19.000Z</time>
      </trkpt>
      <trkpt lat="45.92485" lon="6.51286">
        <ele>2151</ele>
        <time>2014-02-12T14:11:20.000Z</time>
      </trkpt>
      <trkpt lat="45.92485" lon="6.51286">
        <ele>2151</ele>
        <time>2014-02-12T14:11:21.000Z</time>
      </trkpt>
      <trkpt lat="45.92485" lon="6.51286">
        <ele>2151</ele>
        <time>2014-02-12T14:11:22.000Z</time>
      </trkpt>
      <trkpt lat="45.92485" lon="6.51286">
        <ele>2151</ele>
        <time>2014-02-12T14:11:24.000Z</time>
      </trkpt>
      <trkpt lat="45.92485" lon="6.51286">
        <ele>2151</ele>
        <time>2014-02-12T14:11:25.000Z</time>
      </trkpt>
      <trkpt lat="45.92485" lon="6.51286">
        <ele>2151</ele>
        <time>2014-02-12T14:11:26.000Z</time>
      </trkpt>
      <trkpt lat="45.92485" lon="6.51286">
        <ele>2151</ele>
        <time>2014-02-12T14:11:27.000Z</time>
      </trkpt>
      <trkpt lat="45.92485" lon="6.51286">
        <ele>2151</ele>
        <time>2014-02-12T14:11:28.000Z</time>
      </trkpt>
      <trkpt lat="45.92485" lon="6.51286">
        <ele>2151</ele>
        <time>2014-02-12T14:11:29.000Z</time>
      </trkpt>
      <trkpt lat="45.92485" lon="6.51286">
        <ele>2151</ele>
        <time>2014-02-12T14:11:30.000Z</time>
      </trkpt>
      <trkpt lat="45.92485" lon="6.51286">
        <ele>2151</ele>
        <time>2014-02-12T14:11:31.000Z</time>
      </trkpt>
      <trkpt lat="45.92486" lon="6.51286">
        <ele>2150.8000488281</ele>
        <time>2014-02-12T14:11:32.000Z</time>
      </trkpt>
      <trkpt lat="45.92486" lon="6.51286">
        <ele>2150.8000488281</ele>
        <time>2014-02-12T14:11:34.000Z</time>
      </trkpt>
      <trkpt lat="45.92486" lon="6.51286">
        <ele>2150.8000488281</ele>
        <time>2014-02-12T14:11:35.000Z</time>
      </trkpt>
      <trkpt lat="45.92486" lon="6.51286">
        <ele>2150.8000488281</ele>
        <time>2014-02-12T14:11:36.000Z</time>
      </trkpt>
      <trkpt lat="45.92486" lon="6.51286">
        <ele>2150.8000488281</ele>
        <time>2014-02-12T14:11:37.000Z</time>
      </trkpt>
      <trkpt lat="45.92486" lon="6.51286">
        <ele>2150.8000488281</ele>
        <time>2014-02-12T14:11:38.000Z</time>
      </trkpt>
      <trkpt lat="45.92486" lon="6.51286">
        <ele>2150.8000488281</ele>
        <time>2014-02-12T14:11:39.000Z</time>
      </trkpt>
      <trkpt lat="45.92486" lon="6.51286">
        <ele>2150.8000488281</ele>
        <time>2014-02-12T14:11:41.000Z</time>
      </trkpt>
      <trkpt lat="45.92486" lon="6.51286">
        <ele>2150.8000488281</ele>
        <time>2014-02-12T14:11:42.000Z</time>
      </trkpt>
      <trkpt lat="45.92486" lon="6.51286">
        <ele>2150.8000488281</ele>
        <time>2014-02-12T14:11:49.000Z</time>
      </trkpt>
      <trkpt lat="45.92486" lon="6.51286">
        <ele>2150.8000488281</ele>
        <time>2014-02-12T14:11:50.000Z</time>
      </trkpt>
      <trkpt lat="45.92486" lon="6.51286">
        <ele>2150.8000488281</ele>
        <time>2014-02-12T14:11:51.000Z</time>
      </trkpt>
      <trkpt lat="45.92486" lon="6.51286">
        <ele>2150.8000488281</ele>
        <time>2014-02-12T14:11:52.000Z</time>
      </trkpt>
      <trkpt lat="45.92486" lon="6.51286">
        <ele>2150.8000488281</ele>
        <time>2014-02-12T14:11:53.000Z</time>
      </trkpt>
      <trkpt lat="45.92486" lon="6.51286">
        <ele>2150.8000488281</ele>
        <time>2014-02-12T14:11:56.000Z</time>
      </trkpt>
      <trkpt lat="45.92486" lon="6.51286">
        <ele>2150.8000488281</ele>
        <time>2014-02-12T14:11:57.000Z</time>
      </trkpt>
      <trkpt lat="45.92486" lon="6.51286">
        <ele>2150.8000488281</ele>
        <time>2014-02-12T14:11:58.000Z</time>
      </trkpt>
      <trkpt lat="45.92486" lon="6.51286">
        <ele>2150.8000488281</ele>
        <time>2014-02-12T14:11:59.000Z</time>
      </trkpt>
      <trkpt lat="45.92486" lon="6.51286">
        <ele>2150.8000488281</ele>
        <time>2014-02-12T14:12:01.000Z</time>
      </trkpt>
      <trkpt lat="45.92486" lon="6.51286">
        <ele>2150.8000488281</ele>
        <time>2014-02-12T14:12:02.000Z</time>
      </trkpt>
      <trkpt lat="45.92486" lon="6.51286">
        <ele>2150.8000488281</ele>
        <time>2014-02-12T14:12:03.000Z</time>
      </trkpt>
      <trkpt lat="45.92486" lon="6.51286">
        <ele>2150.8000488281</ele>
        <time>2014-02-12T14:12:04.000Z</time>
      </trkpt>
      <trkpt lat="45.92486" lon="6.51286">
        <ele>2150.8000488281</ele>
        <time>2014-02-12T14:12:05.000Z</time>
      </trkpt>
      <trkpt lat="45.92486" lon="6.51286">
        <ele>2150.8000488281</ele>
        <time>2014-02-12T14:12:06.000Z</time>
      </trkpt>
      <trkpt lat="45.92486" lon="6.51286">
        <ele>2150.8000488281</ele>
        <time>2014-02-12T14:12:07.000Z</time>
      </trkpt>
      <trkpt lat="45.92486" lon="6.51286">
        <ele>2150.8000488281</ele>
        <time>2014-02-12T14:12:08.000Z</time>
      </trkpt>
      <trkpt lat="45.92486" lon="6.51284">
        <ele>2150.6000976562</ele>
        <time>2014-02-12T14:12:10.000Z</time>
      </trkpt>
      <trkpt lat="45.92486" lon="6.51284">
        <ele>2150.6000976562</ele>
        <time>2014-02-12T14:12:11.000Z</time>
      </trkpt>
      <trkpt lat="45.92486" lon="6.51284">
        <ele>2150.6000976562</ele>
        <time>2014-02-12T14:12:12.000Z</time>
      </trkpt>
      <trkpt lat="45.92486" lon="6.51284">
        <ele>2150.6000976562</ele>
        <time>2014-02-12T14:12:13.000Z</time>
      </trkpt>
      <trkpt lat="45.92486" lon="6.51284">
        <ele>2150.6000976562</ele>
        <time>2014-02-12T14:12:14.000Z</time>
      </trkpt>
      <trkpt lat="45.92486" lon="6.51284">
        <ele>2150.6000976562</ele>
        <time>2014-02-12T14:12:16.000Z</time>
      </trkpt>
      <trkpt lat="45.92486" lon="6.51284">
        <ele>2150.6000976562</ele>
        <time>2014-02-12T14:12:17.000Z</time>
      </trkpt>
      <trkpt lat="45.92486" lon="6.51284">
        <ele>2150.6000976562</ele>
        <time>2014-02-12T14:12:18.000Z</time>
      </trkpt>
      <trkpt lat="45.92486" lon="6.51284">
        <ele>2150.6000976562</ele>
        <time>2014-02-12T14:12:19.000Z</time>
      </trkpt>
      <trkpt lat="45.92486" lon="6.51284">
        <ele>2150.6000976562</ele>
        <time>2014-02-12T14:12:20.000Z</time>
      </trkpt>
      <trkpt lat="45.92486" lon="6.51284">
        <ele>2150.6000976562</ele>
        <time>2014-02-12T14:12:21.000Z</time>
      </trkpt>
      <trkpt lat="45.92486" lon="6.51284">
        <ele>2150.6000976562</ele>
        <time>2014-02-12T14:12:22.000Z</time>
      </trkpt>
      <trkpt lat="45.92486" lon="6.51284">
        <ele>2150.6000976562</ele>
        <time>2014-02-12T14:12:23.000Z</time>
      </trkpt>
      <trkpt lat="45.92486" lon="6.51284">
        <ele>2150.6000976562</ele>
        <time>2014-02-12T14:12:24.000Z</time>
      </trkpt>
      <trkpt lat="45.92486" lon="6.51284">
        <ele>2150.6000976562</ele>
        <time>2014-02-12T14:12:25.000Z</time>
      </trkpt>
      <trkpt lat="45.92486" lon="6.51284">
        <ele>2150.6000976562</ele>
        <time>2014-02-12T14:12:26.000Z</time>
      </trkpt>
      <trkpt lat="45.92486" lon="6.51284">
        <ele>2150.6000976562</ele>
        <time>2014-02-12T14:12:27.000Z</time>
      </trkpt>
      <trkpt lat="45.92486" lon="6.51284">
        <ele>2150.6000976562</ele>
        <time>2014-02-12T14:12:28.000Z</time>
      </trkpt>
      <trkpt lat="45.92486" lon="6.51284">
        <ele>2150.6000976562</ele>
        <time>2014-02-12T14:12:29.000Z</time>
      </trkpt>
      <trkpt lat="45.92486" lon="6.51284">
        <ele>2150.6000976562</ele>
        <time>2014-02-12T14:12:30.000Z</time>
      </trkpt>
      <trkpt lat="45.92486" lon="6.51284">
        <ele>2150.6000976562</ele>
        <time>2014-02-12T14:12:31.000Z</time>
      </trkpt>
      <trkpt lat="45.92486" lon="6.51284">
        <ele>2150.6000976562</ele>
        <time>2014-02-12T14:12:32.000Z</time>
      </trkpt>
      <trkpt lat="45.92486" lon="6.51284">
        <ele>2150.6000976562</ele>
        <time>2014-02-12T14:12:33.000Z</time>
      </trkpt>
      <trkpt lat="45.92486" lon="6.51284">
        <ele>2150.6000976562</ele>
        <time>2014-02-12T14:12:34.000Z</time>
      </trkpt>
      <trkpt lat="45.92486" lon="6.51284">
        <ele>2150.6000976562</ele>
        <time>2014-02-12T14:12:35.000Z</time>
      </trkpt>
      <trkpt lat="45.92486" lon="6.51284">
        <ele>2150.6000976562</ele>
        <time>2014-02-12T14:12:36.000Z</time>
      </trkpt>
      <trkpt lat="45.92486" lon="6.51284">
        <ele>2150.6000976562</ele>
        <time>2014-02-12T14:12:37.000Z</time>
      </trkpt>
      <trkpt lat="45.92486" lon="6.51284">
        <ele>2150.6000976562</ele>
        <time>2014-02-12T14:12:38.000Z</time>
      </trkpt>
      <trkpt lat="45.92486" lon="6.51284">
        <ele>2150.6000976562</ele>
        <time>2014-02-12T14:12:39.000Z</time>
      </trkpt>
      <trkpt lat="45.92486" lon="6.51284">
        <ele>2150.6000976562</ele>
        <time>2014-02-12T14:12:40.000Z</time>
      </trkpt>
      <trkpt lat="45.92486" lon="6.51284">
        <ele>2150.6000976562</ele>
        <time>2014-02-12T14:12:41.000Z</time>
      </trkpt>
      <trkpt lat="45.92486" lon="6.51284">
        <ele>2150.6000976562</ele>
        <time>2014-02-12T14:12:42.000Z</time>
      </trkpt>
      <trkpt lat="45.92486" lon="6.51284">
        <ele>2150.6000976562</ele>
        <time>2014-02-12T14:12:43.000Z</time>
      </trkpt>
      <trkpt lat="45.92486" lon="6.51284">
        <ele>2150.6000976562</ele>
        <time>2014-02-12T14:12:44.000Z</time>
      </trkpt>
      <trkpt lat="45.92486" lon="6.51284">
        <ele>2150.6000976562</ele>
        <time>2014-02-12T14:12:45.000Z</time>
      </trkpt>
      <trkpt lat="45.92486" lon="6.51284">
        <ele>2150.6000976562</ele>
        <time>2014-02-12T14:12:48.000Z</time>
      </trkpt>
      <trkpt lat="45.92486" lon="6.51284">
        <ele>2150.6000976562</ele>
        <time>2014-02-12T14:12:49.000Z</time>
      </trkpt>
      <trkpt lat="45.92486" lon="6.51284">
        <ele>2150.1999511719</ele>
        <time>2014-02-12T14:12:50.000Z</time>
      </trkpt>
      <trkpt lat="45.92486" lon="6.51284">
        <ele>2150.1999511719</ele>
        <time>2014-02-12T14:12:51.000Z</time>
      </trkpt>
      <trkpt lat="45.92486" lon="6.51284">
        <ele>2150.1999511719</ele>
        <time>2014-02-12T14:12:52.000Z</time>
      </trkpt>
      <trkpt lat="45.92486" lon="6.51284">
        <ele>2150.1999511719</ele>
        <time>2014-02-12T14:12:57.000Z</time>
      </trkpt>
      <trkpt lat="45.92486" lon="6.51284">
        <ele>2150.1999511719</ele>
        <time>2014-02-12T14:12:58.000Z</time>
      </trkpt>
      <trkpt lat="45.92486" lon="6.51284">
        <ele>2150.1999511719</ele>
        <time>2014-02-12T14:12:59.000Z</time>
      </trkpt>
      <trkpt lat="45.92486" lon="6.51284">
        <ele>2150.1999511719</ele>
        <time>2014-02-12T14:13:00.000Z</time>
      </trkpt>
      <trkpt lat="45.92486" lon="6.51284">
        <ele>2150.1999511719</ele>
        <time>2014-02-12T14:13:01.000Z</time>
      </trkpt>
      <trkpt lat="45.92486" lon="6.51284">
        <ele>2150.1999511719</ele>
        <time>2014-02-12T14:13:02.000Z</time>
      </trkpt>
      <trkpt lat="45.92486" lon="6.51284">
        <ele>2150.1999511719</ele>
        <time>2014-02-12T14:13:06.000Z</time>
      </trkpt>
      <trkpt lat="45.92486" lon="6.51284">
        <ele>2150.1999511719</ele>
        <time>2014-02-12T14:13:07.000Z</time>
      </trkpt>
      <trkpt lat="45.92486" lon="6.51284">
        <ele>2150.1999511719</ele>
        <time>2014-02-12T14:13:08.000Z</time>
      </trkpt>
      <trkpt lat="45.92486" lon="6.51284">
        <ele>2150.1999511719</ele>
        <time>2014-02-12T14:13:09.000Z</time>
      </trkpt>
      <trkpt lat="45.92486" lon="6.51284">
        <ele>2150.1999511719</ele>
        <time>2014-02-12T14:13:10.000Z</time>
      </trkpt>
      <trkpt lat="45.92486" lon="6.51284">
        <ele>2150.1999511719</ele>
        <time>2014-02-12T14:13:11.000Z</time>
      </trkpt>
      <trkpt lat="45.92486" lon="6.51284">
        <ele>2150.1999511719</ele>
        <time>2014-02-12T14:13:12.000Z</time>
      </trkpt>
      <trkpt lat="45.92486" lon="6.51284">
        <ele>2150.1999511719</ele>
        <time>2014-02-12T14:13:13.000Z</time>
      </trkpt>
      <trkpt lat="45.92486" lon="6.51284">
        <ele>2150.1999511719</ele>
        <time>2014-02-12T14:13:14.000Z</time>
      </trkpt>
      <trkpt lat="45.92486" lon="6.51284">
        <ele>2150.1999511719</ele>
        <time>2014-02-12T14:13:15.000Z</time>
      </trkpt>
      <trkpt lat="45.92486" lon="6.51284">
        <ele>2150.1999511719</ele>
        <time>2014-02-12T14:13:16.000Z</time>
      </trkpt>
      <trkpt lat="45.92486" lon="6.51284">
        <ele>2150.1999511719</ele>
        <time>2014-02-12T14:13:17.000Z</time>
      </trkpt>
      <trkpt lat="45.92486" lon="6.51284">
        <ele>2150.1999511719</ele>
        <time>2014-02-12T14:13:18.000Z</time>
      </trkpt>
      <trkpt lat="45.92486" lon="6.51284">
        <ele>2150.1999511719</ele>
        <time>2014-02-12T14:13:19.000Z</time>
      </trkpt>
      <trkpt lat="45.92486" lon="6.51284">
        <ele>2150.1999511719</ele>
        <time>2014-02-12T14:13:20.000Z</time>
      </trkpt>
      <trkpt lat="45.92486" lon="6.51284">
        <ele>2150.1999511719</ele>
        <time>2014-02-12T14:13:21.000Z</time>
      </trkpt>
      <trkpt lat="45.92486" lon="6.51284">
        <ele>2150.1999511719</ele>
        <time>2014-02-12T14:13:22.000Z</time>
      </trkpt>
      <trkpt lat="45.92486" lon="6.51284">
        <ele>2150.1999511719</ele>
        <time>2014-02-12T14:13:23.000Z</time>
      </trkpt>
      <trkpt lat="45.92486" lon="6.51284">
        <ele>2150.1999511719</ele>
        <time>2014-02-12T14:13:24.000Z</time>
      </trkpt>
      <trkpt lat="45.92486" lon="6.51284">
        <ele>2150.1999511719</ele>
        <time>2014-02-12T14:13:26.000Z</time>
      </trkpt>
      <trkpt lat="45.92486" lon="6.51284">
        <ele>2150.1999511719</ele>
        <time>2014-02-12T14:13:28.000Z</time>
      </trkpt>
      <trkpt lat="45.92487" lon="6.51284">
        <ele>2150</ele>
        <time>2014-02-12T14:13:31.000Z</time>
      </trkpt>
      <trkpt lat="45.92487" lon="6.51284">
        <ele>2150</ele>
        <time>2014-02-12T14:13:32.000Z</time>
      </trkpt>
      <trkpt lat="45.92487" lon="6.51284">
        <ele>2150</ele>
        <time>2014-02-12T14:13:33.000Z</time>
      </trkpt>
      <trkpt lat="45.92487" lon="6.51284">
        <ele>2150</ele>
        <time>2014-02-12T14:13:34.000Z</time>
      </trkpt>
      <trkpt lat="45.92487" lon="6.51284">
        <ele>2150</ele>
        <time>2014-02-12T14:13:35.000Z</time>
      </trkpt>
      <trkpt lat="45.92487" lon="6.51284">
        <ele>2150</ele>
        <time>2014-02-12T14:13:36.000Z</time>
      </trkpt>
      <trkpt lat="45.92487" lon="6.51284">
        <ele>2150</ele>
        <time>2014-02-12T14:13:38.000Z</time>
      </trkpt>
      <trkpt lat="45.92487" lon="6.51284">
        <ele>2150</ele>
        <time>2014-02-12T14:13:39.000Z</time>
      </trkpt>
      <trkpt lat="45.92487" lon="6.51284">
        <ele>2150</ele>
        <time>2014-02-12T14:13:40.000Z</time>
      </trkpt>
      <trkpt lat="45.92487" lon="6.51284">
        <ele>2150</ele>
        <time>2014-02-12T14:13:41.000Z</time>
      </trkpt>
      <trkpt lat="45.92487" lon="6.51284">
        <ele>2150</ele>
        <time>2014-02-12T14:13:42.000Z</time>
      </trkpt>
      <trkpt lat="45.92487" lon="6.51284">
        <ele>2150</ele>
        <time>2014-02-12T14:13:43.000Z</time>
      </trkpt>
      <trkpt lat="45.92487" lon="6.51284">
        <ele>2150</ele>
        <time>2014-02-12T14:13:44.000Z</time>
      </trkpt>
      <trkpt lat="45.92487" lon="6.51284">
        <ele>2150</ele>
        <time>2014-02-12T14:13:45.000Z</time>
      </trkpt>
      <trkpt lat="45.92487" lon="6.51284">
        <ele>2150</ele>
        <time>2014-02-12T14:13:46.000Z</time>
      </trkpt>
      <trkpt lat="45.92487" lon="6.51284">
        <ele>2150</ele>
        <time>2014-02-12T14:13:48.000Z</time>
      </trkpt>
      <trkpt lat="45.92487" lon="6.51284">
        <ele>2150</ele>
        <time>2014-02-12T14:13:49.000Z</time>
      </trkpt>
      <trkpt lat="45.92487" lon="6.51284">
        <ele>2150</ele>
        <time>2014-02-12T14:13:51.000Z</time>
      </trkpt>
      <trkpt lat="45.92487" lon="6.51284">
        <ele>2150</ele>
        <time>2014-02-12T14:13:52.000Z</time>
      </trkpt>
      <trkpt lat="45.92487" lon="6.51284">
        <ele>2150</ele>
        <time>2014-02-12T14:13:53.000Z</time>
      </trkpt>
      <trkpt lat="45.92487" lon="6.51284">
        <ele>2150</ele>
        <time>2014-02-12T14:13:54.000Z</time>
      </trkpt>
      <trkpt lat="45.92487" lon="6.51284">
        <ele>2150</ele>
        <time>2014-02-12T14:13:55.000Z</time>
      </trkpt>
      <trkpt lat="45.92487" lon="6.51284">
        <ele>2150</ele>
        <time>2014-02-12T14:13:57.000Z</time>
      </trkpt>
      <trkpt lat="45.92487" lon="6.51284">
        <ele>2150</ele>
        <time>2014-02-12T14:13:58.000Z</time>
      </trkpt>
      <trkpt lat="45.92487" lon="6.51284">
        <ele>2150</ele>
        <time>2014-02-12T14:13:59.000Z</time>
      </trkpt>
      <trkpt lat="45.92487" lon="6.51284">
        <ele>2150</ele>
        <time>2014-02-12T14:14:00.000Z</time>
      </trkpt>
      <trkpt lat="45.92487" lon="6.51284">
        <ele>2150</ele>
        <time>2014-02-12T14:14:01.000Z</time>
      </trkpt>
      <trkpt lat="45.92487" lon="6.51284">
        <ele>2150</ele>
        <time>2014-02-12T14:14:02.000Z</time>
      </trkpt>
      <trkpt lat="45.92487" lon="6.51284">
        <ele>2150</ele>
        <time>2014-02-12T14:14:07.000Z</time>
      </trkpt>
      <trkpt lat="45.92487" lon="6.51284">
        <ele>2150</ele>
        <time>2014-02-12T14:14:08.000Z</time>
      </trkpt>
      <trkpt lat="45.92487" lon="6.51284">
        <ele>2150</ele>
        <time>2014-02-12T14:14:09.000Z</time>
      </trkpt>
      <trkpt lat="45.92487" lon="6.51284">
        <ele>2150</ele>
        <time>2014-02-12T14:14:10.000Z</time>
      </trkpt>
      <trkpt lat="45.92487" lon="6.51284">
        <ele>2150</ele>
        <time>2014-02-12T14:14:11.000Z</time>
      </trkpt>
      <trkpt lat="45.92487" lon="6.51284">
        <ele>2150</ele>
        <time>2014-02-12T14:14:12.000Z</time>
      </trkpt>
      <trkpt lat="45.92487" lon="6.51284">
        <ele>2150</ele>
        <time>2014-02-12T14:14:13.000Z</time>
      </trkpt>
      <trkpt lat="45.92487" lon="6.51284">
        <ele>2150</ele>
        <time>2014-02-12T14:14:14.000Z</time>
      </trkpt>
      <trkpt lat="45.92487" lon="6.51284">
        <ele>2150</ele>
        <time>2014-02-12T14:14:15.000Z</time>
      </trkpt>
      <trkpt lat="45.92487" lon="6.51284">
        <ele>2150</ele>
        <time>2014-02-12T14:14:16.000Z</time>
      </trkpt>
      <trkpt lat="45.92487" lon="6.51284">
        <ele>2150</ele>
        <time>2014-02-12T14:14:17.000Z</time>
      </trkpt>
      <trkpt lat="45.92487" lon="6.51284">
        <ele>2150</ele>
        <time>2014-02-12T14:14:18.000Z</time>
      </trkpt>
      <trkpt lat="45.92487" lon="6.51284">
        <ele>2150</ele>
        <time>2014-02-12T14:14:19.000Z</time>
      </trkpt>
      <trkpt lat="45.92487" lon="6.51284">
        <ele>2150</ele>
        <time>2014-02-12T14:14:20.000Z</time>
      </trkpt>
      <trkpt lat="45.92487" lon="6.51284">
        <ele>2150</ele>
        <time>2014-02-12T14:14:24.000Z</time>
      </trkpt>
      <trkpt lat="45.92487" lon="6.51284">
        <ele>2150</ele>
        <time>2014-02-12T14:14:27.000Z</time>
      </trkpt>
      <trkpt lat="45.92487" lon="6.51284">
        <ele>2150</ele>
        <time>2014-02-12T14:14:28.000Z</time>
      </trkpt>
      <trkpt lat="45.92487" lon="6.51284">
        <ele>2150</ele>
        <time>2014-02-12T14:14:29.000Z</time>
      </trkpt>
      <trkpt lat="45.92487" lon="6.51284">
        <ele>2150</ele>
        <time>2014-02-12T14:14:30.000Z</time>
      </trkpt>
      <trkpt lat="45.92487" lon="6.51284">
        <ele>2150</ele>
        <time>2014-02-12T14:14:31.000Z</time>
      </trkpt>
      <trkpt lat="45.92487" lon="6.51284">
        <ele>2150</ele>
        <time>2014-02-12T14:14:33.000Z</time>
      </trkpt>
      <trkpt lat="45.92487" lon="6.51284">
        <ele>2150</ele>
        <time>2014-02-12T14:14:36.000Z</time>
      </trkpt>
      <trkpt lat="45.92487" lon="6.51284">
        <ele>2150</ele>
        <time>2014-02-12T14:14:37.000Z</time>
      </trkpt>
      <trkpt lat="45.92487" lon="6.51284">
        <ele>2150</ele>
        <time>2014-02-12T14:14:38.000Z</time>
      </trkpt>
      <trkpt lat="45.92487" lon="6.51284">
        <ele>2150</ele>
        <time>2014-02-12T14:14:40.000Z</time>
      </trkpt>
      <trkpt lat="45.92487" lon="6.51284">
        <ele>2150</ele>
        <time>2014-02-12T14:14:41.000Z</time>
      </trkpt>
      <trkpt lat="45.92487" lon="6.51284">
        <ele>2150</ele>
        <time>2014-02-12T14:14:42.000Z</time>
      </trkpt>
      <trkpt lat="45.92487" lon="6.51284">
        <ele>2150</ele>
        <time>2014-02-12T14:14:43.000Z</time>
      </trkpt>
      <trkpt lat="45.92487" lon="6.51284">
        <ele>2150</ele>
        <time>2014-02-12T14:14:45.000Z</time>
      </trkpt>
      <trkpt lat="45.92487" lon="6.51284">
        <ele>2150</ele>
        <time>2014-02-12T14:14:46.000Z</time>
      </trkpt>
      <trkpt lat="45.92487" lon="6.51284">
        <ele>2150</ele>
        <time>2014-02-12T14:14:48.000Z</time>
      </trkpt>
      <trkpt lat="45.92487" lon="6.51284">
        <ele>2150</ele>
        <time>2014-02-12T14:14:49.000Z</time>
      </trkpt>
      <trkpt lat="45.92487" lon="6.51284">
        <ele>2150</ele>
        <time>2014-02-12T14:14:50.000Z</time>
      </trkpt>
      <trkpt lat="45.92487" lon="6.51284">
        <ele>2150</ele>
        <time>2014-02-12T14:14:51.000Z</time>
      </trkpt>
      <trkpt lat="45.92487" lon="6.51284">
        <ele>2150</ele>
        <time>2014-02-12T14:14:52.000Z</time>
      </trkpt>
      <trkpt lat="45.92487" lon="6.51284">
        <ele>2150</ele>
        <time>2014-02-12T14:14:53.000Z</time>
      </trkpt>
      <trkpt lat="45.92487" lon="6.51284">
        <ele>2150</ele>
        <time>2014-02-12T14:14:54.000Z</time>
      </trkpt>
      <trkpt lat="45.92487" lon="6.51284">
        <ele>2150</ele>
        <time>2014-02-12T14:14:56.000Z</time>
      </trkpt>
      <trkpt lat="45.92487" lon="6.51284">
        <ele>2150</ele>
        <time>2014-02-12T14:14:58.000Z</time>
      </trkpt>
      <trkpt lat="45.92487" lon="6.51284">
        <ele>2150</ele>
        <time>2014-02-12T14:14:59.000Z</time>
      </trkpt>
      <trkpt lat="45.92487" lon="6.51284">
        <ele>2150</ele>
        <time>2014-02-12T14:15:01.000Z</time>
      </trkpt>
      <trkpt lat="45.92487" lon="6.51284">
        <ele>2150</ele>
        <time>2014-02-12T14:15:02.000Z</time>
      </trkpt>
      <trkpt lat="45.92487" lon="6.51284">
        <ele>2150</ele>
        <time>2014-02-12T14:15:03.000Z</time>
      </trkpt>
      <trkpt lat="45.92487" lon="6.51284">
        <ele>2150</ele>
        <time>2014-02-12T14:15:06.000Z</time>
      </trkpt>
      <trkpt lat="45.92487" lon="6.51284">
        <ele>2150</ele>
        <time>2014-02-12T14:15:07.000Z</time>
      </trkpt>
      <trkpt lat="45.92487" lon="6.51284">
        <ele>2150</ele>
        <time>2014-02-12T14:15:08.000Z</time>
      </trkpt>
      <trkpt lat="45.92487" lon="6.51284">
        <ele>2150</ele>
        <time>2014-02-12T14:15:09.000Z</time>
      </trkpt>
      <trkpt lat="45.92487" lon="6.51284">
        <ele>2150</ele>
        <time>2014-02-12T14:15:10.000Z</time>
      </trkpt>
      <trkpt lat="45.92487" lon="6.51284">
        <ele>2150</ele>
        <time>2014-02-12T14:15:11.000Z</time>
      </trkpt>
      <trkpt lat="45.92487" lon="6.51284">
        <ele>2150</ele>
        <time>2014-02-12T14:15:12.000Z</time>
      </trkpt>
      <trkpt lat="45.92487" lon="6.51284">
        <ele>2150</ele>
        <time>2014-02-12T14:15:13.000Z</time>
      </trkpt>
      <trkpt lat="45.92487" lon="6.51284">
        <ele>2150</ele>
        <time>2014-02-12T14:15:14.000Z</time>
      </trkpt>
      <trkpt lat="45.92487" lon="6.51284">
        <ele>2150</ele>
        <time>2014-02-12T14:15:15.000Z</time>
      </trkpt>
      <trkpt lat="45.92487" lon="6.51284">
        <ele>2150</ele>
        <time>2014-02-12T14:15:16.000Z</time>
      </trkpt>
      <trkpt lat="45.92487" lon="6.51284">
        <ele>2150</ele>
        <time>2014-02-12T14:15:19.000Z</time>
      </trkpt>
      <trkpt lat="45.92487" lon="6.51284">
        <ele>2150</ele>
        <time>2014-02-12T14:15:20.000Z</time>
      </trkpt>
      <trkpt lat="45.92487" lon="6.51284">
        <ele>2150</ele>
        <time>2014-02-12T14:15:24.000Z</time>
      </trkpt>
      <trkpt lat="45.92487" lon="6.51284">
        <ele>2150</ele>
        <time>2014-02-12T14:15:25.000Z</time>
      </trkpt>
      <trkpt lat="45.92487" lon="6.51284">
        <ele>2150</ele>
        <time>2014-02-12T14:15:26.000Z</time>
      </trkpt>
      <trkpt lat="45.92487" lon="6.51284">
        <ele>2150.1999511719</ele>
        <time>2014-02-12T14:15:32.000Z</time>
      </trkpt>
      <trkpt lat="45.92487" lon="6.51284">
        <ele>2150.1999511719</ele>
        <time>2014-02-12T14:15:33.000Z</time>
      </trkpt>
      <trkpt lat="45.92487" lon="6.51284">
        <ele>2150.1999511719</ele>
        <time>2014-02-12T14:15:34.000Z</time>
      </trkpt>
      <trkpt lat="45.92487" lon="6.51284">
        <ele>2150.1999511719</ele>
        <time>2014-02-12T14:15:37.000Z</time>
      </trkpt>
      <trkpt lat="45.92487" lon="6.51284">
        <ele>2150.1999511719</ele>
        <time>2014-02-12T14:15:38.000Z</time>
      </trkpt>
      <trkpt lat="45.92487" lon="6.51284">
        <ele>2150.1999511719</ele>
        <time>2014-02-12T14:15:39.000Z</time>
      </trkpt>
      <trkpt lat="45.92487" lon="6.51284">
        <ele>2150.1999511719</ele>
        <time>2014-02-12T14:15:40.000Z</time>
      </trkpt>
      <trkpt lat="45.92487" lon="6.51284">
        <ele>2150.1999511719</ele>
        <time>2014-02-12T14:15:42.000Z</time>
      </trkpt>
      <trkpt lat="45.92487" lon="6.51284">
        <ele>2150.1999511719</ele>
        <time>2014-02-12T14:15:43.000Z</time>
      </trkpt>
      <trkpt lat="45.92487" lon="6.51284">
        <ele>2150.1999511719</ele>
        <time>2014-02-12T14:15:44.000Z</time>
      </trkpt>
      <trkpt lat="45.92487" lon="6.51284">
        <ele>2150.1999511719</ele>
        <time>2014-02-12T14:15:45.000Z</time>
      </trkpt>
      <trkpt lat="45.92487" lon="6.51284">
        <ele>2150.1999511719</ele>
        <time>2014-02-12T14:15:46.000Z</time>
      </trkpt>
      <trkpt lat="45.92487" lon="6.51284">
        <ele>2150.1999511719</ele>
        <time>2014-02-12T14:15:47.000Z</time>
      </trkpt>
      <trkpt lat="45.92487" lon="6.51284">
        <ele>2150.1999511719</ele>
        <time>2014-02-12T14:15:48.000Z</time>
      </trkpt>
      <trkpt lat="45.92487" lon="6.51284">
        <ele>2150.1999511719</ele>
        <time>2014-02-12T14:15:49.000Z</time>
      </trkpt>
      <trkpt lat="45.92487" lon="6.51284">
        <ele>2150.1999511719</ele>
        <time>2014-02-12T14:15:50.000Z</time>
      </trkpt>
      <trkpt lat="45.92487" lon="6.51284">
        <ele>2150.1999511719</ele>
        <time>2014-02-12T14:15:51.000Z</time>
      </trkpt>
      <trkpt lat="45.92487" lon="6.51284">
        <ele>2150.1999511719</ele>
        <time>2014-02-12T14:15:52.000Z</time>
      </trkpt>
      <trkpt lat="45.92487" lon="6.51284">
        <ele>2150.1999511719</ele>
        <time>2014-02-12T14:15:53.000Z</time>
      </trkpt>
      <trkpt lat="45.92487" lon="6.51284">
        <ele>2150.1999511719</ele>
        <time>2014-02-12T14:15:54.000Z</time>
      </trkpt>
      <trkpt lat="45.92487" lon="6.51284">
        <ele>2150.1999511719</ele>
        <time>2014-02-12T14:15:55.000Z</time>
      </trkpt>
      <trkpt lat="45.92487" lon="6.51284">
        <ele>2150.1999511719</ele>
        <time>2014-02-12T14:15:56.000Z</time>
      </trkpt>
      <trkpt lat="45.92487" lon="6.51284">
        <ele>2150.1999511719</ele>
        <time>2014-02-12T14:15:57.000Z</time>
      </trkpt>
      <trkpt lat="45.92487" lon="6.51284">
        <ele>2150.1999511719</ele>
        <time>2014-02-12T14:15:58.000Z</time>
      </trkpt>
      <trkpt lat="45.92487" lon="6.51284">
        <ele>2150.1999511719</ele>
        <time>2014-02-12T14:15:59.000Z</time>
      </trkpt>
      <trkpt lat="45.92487" lon="6.51284">
        <ele>2150.1999511719</ele>
        <time>2014-02-12T14:16:00.000Z</time>
      </trkpt>
      <trkpt lat="45.92487" lon="6.51284">
        <ele>2150.1999511719</ele>
        <time>2014-02-12T14:16:01.000Z</time>
      </trkpt>
      <trkpt lat="45.92487" lon="6.51284">
        <ele>2150.1999511719</ele>
        <time>2014-02-12T14:16:02.000Z</time>
      </trkpt>
      <trkpt lat="45.92487" lon="6.51284">
        <ele>2150.1999511719</ele>
        <time>2014-02-12T14:16:03.000Z</time>
      </trkpt>
      <trkpt lat="45.92487" lon="6.51284">
        <ele>2150.1999511719</ele>
        <time>2014-02-12T14:16:04.000Z</time>
      </trkpt>
      <trkpt lat="45.92487" lon="6.51284">
        <ele>2150.1999511719</ele>
        <time>2014-02-12T14:16:05.000Z</time>
      </trkpt>
      <trkpt lat="45.92487" lon="6.51284">
        <ele>2150.1999511719</ele>
        <time>2014-02-12T14:16:06.000Z</time>
      </trkpt>
      <trkpt lat="45.92487" lon="6.51284">
        <ele>2150.1999511719</ele>
        <time>2014-02-12T14:16:07.000Z</time>
      </trkpt>
      <trkpt lat="45.92487" lon="6.51284">
        <ele>2150.1999511719</ele>
        <time>2014-02-12T14:16:08.000Z</time>
      </trkpt>
      <trkpt lat="45.92487" lon="6.51284">
        <ele>2150.1999511719</ele>
        <time>2014-02-12T14:16:09.000Z</time>
      </trkpt>
      <trkpt lat="45.92487" lon="6.51284">
        <ele>2150</ele>
        <time>2014-02-12T14:16:10.000Z</time>
      </trkpt>
      <trkpt lat="45.92487" lon="6.51284">
        <ele>2150</ele>
        <time>2014-02-12T14:16:11.000Z</time>
      </trkpt>
      <trkpt lat="45.92487" lon="6.51284">
        <ele>2150</ele>
        <time>2014-02-12T14:16:12.000Z</time>
      </trkpt>
      <trkpt lat="45.92487" lon="6.51284">
        <ele>2150</ele>
        <time>2014-02-12T14:16:13.000Z</time>
      </trkpt>
      <trkpt lat="45.92487" lon="6.51284">
        <ele>2150</ele>
        <time>2014-02-12T14:16:14.000Z</time>
      </trkpt>
      <trkpt lat="45.92487" lon="6.51284">
        <ele>2150</ele>
        <time>2014-02-12T14:16:15.000Z</time>
      </trkpt>
      <trkpt lat="45.92487" lon="6.51284">
        <ele>2150</ele>
        <time>2014-02-12T14:16:16.000Z</time>
      </trkpt>
      <trkpt lat="45.92487" lon="6.51284">
        <ele>2150</ele>
        <time>2014-02-12T14:16:17.000Z</time>
      </trkpt>
      <trkpt lat="45.92487" lon="6.51284">
        <ele>2150</ele>
        <time>2014-02-12T14:16:18.000Z</time>
      </trkpt>
      <trkpt lat="45.92487" lon="6.51284">
        <ele>2150</ele>
        <time>2014-02-12T14:16:19.000Z</time>
      </trkpt>
      <trkpt lat="45.92487" lon="6.51284">
        <ele>2150</ele>
        <time>2014-02-12T14:16:20.000Z</time>
      </trkpt>
      <trkpt lat="45.92487" lon="6.51284">
        <ele>2150</ele>
        <time>2014-02-12T14:16:21.000Z</time>
      </trkpt>
      <trkpt lat="45.92487" lon="6.51284">
        <ele>2150</ele>
        <time>2014-02-12T14:16:22.000Z</time>
      </trkpt>
      <trkpt lat="45.92487" lon="6.51284">
        <ele>2150</ele>
        <time>2014-02-12T14:16:23.000Z</time>
      </trkpt>
      <trkpt lat="45.92487" lon="6.51284">
        <ele>2150</ele>
        <time>2014-02-12T14:16:24.000Z</time>
      </trkpt>
      <trkpt lat="45.92487" lon="6.51284">
        <ele>2150</ele>
        <time>2014-02-12T14:16:25.000Z</time>
      </trkpt>
      <trkpt lat="45.92487" lon="6.51284">
        <ele>2150</ele>
        <time>2014-02-12T14:16:26.000Z</time>
      </trkpt>
      <trkpt lat="45.92487" lon="6.51284">
        <ele>2150</ele>
        <time>2014-02-12T14:16:27.000Z</time>
      </trkpt>
      <trkpt lat="45.92487" lon="6.51284">
        <ele>2150</ele>
        <time>2014-02-12T14:16:28.000Z</time>
      </trkpt>
      <trkpt lat="45.92487" lon="6.51284">
        <ele>2150</ele>
        <time>2014-02-12T14:16:29.000Z</time>
      </trkpt>
      <trkpt lat="45.92487" lon="6.51284">
        <ele>2150</ele>
        <time>2014-02-12T14:16:30.000Z</time>
      </trkpt>
      <trkpt lat="45.92487" lon="6.51284">
        <ele>2150</ele>
        <time>2014-02-12T14:16:31.000Z</time>
      </trkpt>
      <trkpt lat="45.92487" lon="6.51284">
        <ele>2150</ele>
        <time>2014-02-12T14:16:32.000Z</time>
      </trkpt>
      <trkpt lat="45.92487" lon="6.51284">
        <ele>2150</ele>
        <time>2014-02-12T14:16:34.000Z</time>
      </trkpt>
      <trkpt lat="45.92487" lon="6.51284">
        <ele>2150</ele>
        <time>2014-02-12T14:16:35.000Z</time>
      </trkpt>
      <trkpt lat="45.92487" lon="6.51284">
        <ele>2150</ele>
        <time>2014-02-12T14:16:36.000Z</time>
      </trkpt>
      <trkpt lat="45.92487" lon="6.51284">
        <ele>2150</ele>
        <time>2014-02-12T14:16:37.000Z</time>
      </trkpt>
      <trkpt lat="45.92487" lon="6.51284">
        <ele>2150</ele>
        <time>2014-02-12T14:16:38.000Z</time>
      </trkpt>
      <trkpt lat="45.92487" lon="6.51284">
        <ele>2150</ele>
        <time>2014-02-12T14:16:39.000Z</time>
      </trkpt>
      <trkpt lat="45.92487" lon="6.51284">
        <ele>2150</ele>
        <time>2014-02-12T14:16:40.000Z</time>
      </trkpt>
      <trkpt lat="45.92487" lon="6.51284">
        <ele>2150</ele>
        <time>2014-02-12T14:16:41.000Z</time>
      </trkpt>
      <trkpt lat="45.92487" lon="6.51284">
        <ele>2150</ele>
        <time>2014-02-12T14:16:42.000Z</time>
      </trkpt>
      <trkpt lat="45.92487" lon="6.51284">
        <ele>2150</ele>
        <time>2014-02-12T14:16:43.000Z</time>
      </trkpt>
      <trkpt lat="45.92487" lon="6.51284">
        <ele>2150</ele>
        <time>2014-02-12T14:16:44.000Z</time>
      </trkpt>
      <trkpt lat="45.92487" lon="6.51284">
        <ele>2150</ele>
        <time>2014-02-12T14:16:45.000Z</time>
      </trkpt>
      <trkpt lat="45.92487" lon="6.51284">
        <ele>2150</ele>
        <time>2014-02-12T14:16:46.000Z</time>
      </trkpt>
      <trkpt lat="45.92487" lon="6.51284">
        <ele>2150</ele>
        <time>2014-02-12T14:16:47.000Z</time>
      </trkpt>
      <trkpt lat="45.92487" lon="6.51284">
        <ele>2150</ele>
        <time>2014-02-12T14:16:48.000Z</time>
      </trkpt>
      <trkpt lat="45.92487" lon="6.51284">
        <ele>2150</ele>
        <time>2014-02-12T14:16:49.000Z</time>
      </trkpt>
      <trkpt lat="45.92487" lon="6.51284">
        <ele>2150</ele>
        <time>2014-02-12T14:16:50.000Z</time>
      </trkpt>
      <trkpt lat="45.92487" lon="6.51284">
        <ele>2150</ele>
        <time>2014-02-12T14:16:51.000Z</time>
      </trkpt>
      <trkpt lat="45.92487" lon="6.51284">
        <ele>2150</ele>
        <time>2014-02-12T14:16:52.000Z</time>
      </trkpt>
      <trkpt lat="45.92487" lon="6.51284">
        <ele>2150</ele>
        <time>2014-02-12T14:16:53.000Z</time>
      </trkpt>
      <trkpt lat="45.92487" lon="6.51284">
        <ele>2150</ele>
        <time>2014-02-12T14:16:54.000Z</time>
      </trkpt>
      <trkpt lat="45.92487" lon="6.51284">
        <ele>2150</ele>
        <time>2014-02-12T14:16:55.000Z</time>
      </trkpt>
      <trkpt lat="45.92487" lon="6.51284">
        <ele>2150</ele>
        <time>2014-02-12T14:16:56.000Z</time>
      </trkpt>
      <trkpt lat="45.92487" lon="6.51284">
        <ele>2150</ele>
        <time>2014-02-12T14:16:57.000Z</time>
      </trkpt>
      <trkpt lat="45.92487" lon="6.51284">
        <ele>2150</ele>
        <time>2014-02-12T14:16:58.000Z</time>
      </trkpt>
      <trkpt lat="45.92487" lon="6.51284">
        <ele>2150</ele>
        <time>2014-02-12T14:16:59.000Z</time>
      </trkpt>
      <trkpt lat="45.92487" lon="6.51284">
        <ele>2150</ele>
        <time>2014-02-12T14:17:00.000Z</time>
      </trkpt>
      <trkpt lat="45.92487" lon="6.51284">
        <ele>2150</ele>
        <time>2014-02-12T14:17:01.000Z</time>
      </trkpt>
      <trkpt lat="45.92487" lon="6.51284">
        <ele>2150</ele>
        <time>2014-02-12T14:17:02.000Z</time>
      </trkpt>
      <trkpt lat="45.92487" lon="6.51284">
        <ele>2150</ele>
        <time>2014-02-12T14:17:03.000Z</time>
      </trkpt>
      <trkpt lat="45.92487" lon="6.51284">
        <ele>2150</ele>
        <time>2014-02-12T14:17:04.000Z</time>
      </trkpt>
      <trkpt lat="45.92487" lon="6.51284">
        <ele>2150</ele>
        <time>2014-02-12T14:17:05.000Z</time>
      </trkpt>
      <trkpt lat="45.92487" lon="6.51284">
        <ele>2150</ele>
        <time>2014-02-12T14:17:06.000Z</time>
      </trkpt>
      <trkpt lat="45.92487" lon="6.51284">
        <ele>2150</ele>
        <time>2014-02-12T14:17:07.000Z</time>
      </trkpt>
      <trkpt lat="45.92487" lon="6.51284">
        <ele>2150</ele>
        <time>2014-02-12T14:17:08.000Z</time>
      </trkpt>
      <trkpt lat="45.92487" lon="6.51284">
        <ele>2150</ele>
        <time>2014-02-12T14:17:09.000Z</time>
      </trkpt>
      <trkpt lat="45.92487" lon="6.51284">
        <ele>2150</ele>
        <time>2014-02-12T14:17:10.000Z</time>
      </trkpt>
      <trkpt lat="45.92487" lon="6.51284">
        <ele>2150</ele>
        <time>2014-02-12T14:17:11.000Z</time>
      </trkpt>
      <trkpt lat="45.92487" lon="6.51284">
        <ele>2150</ele>
        <time>2014-02-12T14:17:12.000Z</time>
      </trkpt>
      <trkpt lat="45.92487" lon="6.51284">
        <ele>2150</ele>
        <time>2014-02-12T14:17:13.000Z</time>
      </trkpt>
      <trkpt lat="45.92487" lon="6.51284">
        <ele>2150</ele>
        <time>2014-02-12T14:17:14.000Z</time>
      </trkpt>
      <trkpt lat="45.92487" lon="6.51284">
        <ele>2150</ele>
        <time>2014-02-12T14:17:15.000Z</time>
      </trkpt>
      <trkpt lat="45.92487" lon="6.51284">
        <ele>2150</ele>
        <time>2014-02-12T14:17:16.000Z</time>
      </trkpt>
      <trkpt lat="45.92487" lon="6.51284">
        <ele>2150</ele>
        <time>2014-02-12T14:17:17.000Z</time>
      </trkpt>
      <trkpt lat="45.92487" lon="6.51284">
        <ele>2150</ele>
        <time>2014-02-12T14:17:18.000Z</time>
      </trkpt>
      <trkpt lat="45.92487" lon="6.51284">
        <ele>2150</ele>
        <time>2014-02-12T14:17:19.000Z</time>
      </trkpt>
      <trkpt lat="45.92487" lon="6.51284">
        <ele>2150</ele>
        <time>2014-02-12T14:17:20.000Z</time>
      </trkpt>
      <trkpt lat="45.92487" lon="6.51284">
        <ele>2150</ele>
        <time>2014-02-12T14:17:21.000Z</time>
      </trkpt>
      <trkpt lat="45.92487" lon="6.51284">
        <ele>2150</ele>
        <time>2014-02-12T14:17:22.000Z</time>
      </trkpt>
      <trkpt lat="45.92487" lon="6.51284">
        <ele>2150</ele>
        <time>2014-02-12T14:17:23.000Z</time>
      </trkpt>
      <trkpt lat="45.92487" lon="6.51284">
        <ele>2150</ele>
        <time>2014-02-12T14:17:24.000Z</time>
      </trkpt>
      <trkpt lat="45.92487" lon="6.51284">
        <ele>2150</ele>
        <time>2014-02-12T14:17:25.000Z</time>
      </trkpt>
      <trkpt lat="45.92487" lon="6.51284">
        <ele>2150</ele>
        <time>2014-02-12T14:17:26.000Z</time>
      </trkpt>
      <trkpt lat="45.92487" lon="6.51284">
        <ele>2150</ele>
        <time>2014-02-12T14:17:29.000Z</time>
      </trkpt>
      <trkpt lat="45.92487" lon="6.51284">
        <ele>2150</ele>
        <time>2014-02-12T14:17:30.000Z</time>
      </trkpt>
      <trkpt lat="45.92487" lon="6.51284">
        <ele>2150</ele>
        <time>2014-02-12T14:17:31.000Z</time>
      </trkpt>
      <trkpt lat="45.92487" lon="6.51284">
        <ele>2150</ele>
        <time>2014-02-12T14:17:32.000Z</time>
      </trkpt>
      <trkpt lat="45.92487" lon="6.51284">
        <ele>2150</ele>
        <time>2014-02-12T14:17:34.000Z</time>
      </trkpt>
      <trkpt lat="45.92487" lon="6.51284">
        <ele>2150</ele>
        <time>2014-02-12T14:17:36.000Z</time>
      </trkpt>
      <trkpt lat="45.92487" lon="6.51284">
        <ele>2150</ele>
        <time>2014-02-12T14:17:37.000Z</time>
      </trkpt>
      <trkpt lat="45.92487" lon="6.51284">
        <ele>2150</ele>
        <time>2014-02-12T14:17:38.000Z</time>
      </trkpt>
      <trkpt lat="45.92487" lon="6.51284">
        <ele>2150</ele>
        <time>2014-02-12T14:17:39.000Z</time>
      </trkpt>
      <trkpt lat="45.92487" lon="6.51284">
        <ele>2150</ele>
        <time>2014-02-12T14:17:40.000Z</time>
      </trkpt>
      <trkpt lat="45.92487" lon="6.51284">
        <ele>2150</ele>
        <time>2014-02-12T14:17:41.000Z</time>
      </trkpt>
      <trkpt lat="45.92487" lon="6.51284">
        <ele>2150</ele>
        <time>2014-02-12T14:17:42.000Z</time>
      </trkpt>
      <trkpt lat="45.92487" lon="6.51284">
        <ele>2150</ele>
        <time>2014-02-12T14:17:43.000Z</time>
      </trkpt>
      <trkpt lat="45.92487" lon="6.51284">
        <ele>2150</ele>
        <time>2014-02-12T14:17:44.000Z</time>
      </trkpt>
      <trkpt lat="45.92487" lon="6.51284">
        <ele>2150</ele>
        <time>2014-02-12T14:17:45.000Z</time>
      </trkpt>
      <trkpt lat="45.92487" lon="6.51284">
        <ele>2150</ele>
        <time>2014-02-12T14:17:46.000Z</time>
      </trkpt>
      <trkpt lat="45.92487" lon="6.51284">
        <ele>2150</ele>
        <time>2014-02-12T14:17:47.000Z</time>
      </trkpt>
      <trkpt lat="45.92487" lon="6.51284">
        <ele>2150</ele>
        <time>2014-02-12T14:17:48.000Z</time>
      </trkpt>
      <trkpt lat="45.92487" lon="6.51284">
        <ele>2150</ele>
        <time>2014-02-12T14:17:49.000Z</time>
      </trkpt>
      <trkpt lat="45.92487" lon="6.51284">
        <ele>2150</ele>
        <time>2014-02-12T14:17:50.000Z</time>
      </trkpt>
      <trkpt lat="45.92487" lon="6.51284">
        <ele>2150</ele>
        <time>2014-02-12T14:17:52.000Z</time>
      </trkpt>
      <trkpt lat="45.92487" lon="6.51284">
        <ele>2150</ele>
        <time>2014-02-12T14:17:53.000Z</time>
      </trkpt>
      <trkpt lat="45.92487" lon="6.51284">
        <ele>2150</ele>
        <time>2014-02-12T14:17:54.000Z</time>
      </trkpt>
      <trkpt lat="45.92487" lon="6.51284">
        <ele>2150</ele>
        <time>2014-02-12T14:17:55.000Z</time>
      </trkpt>
      <trkpt lat="45.92487" lon="6.51284">
        <ele>2150</ele>
        <time>2014-02-12T14:17:56.000Z</time>
      </trkpt>
      <trkpt lat="45.92487" lon="6.51284">
        <ele>2150</ele>
        <time>2014-02-12T14:17:57.000Z</time>
      </trkpt>
      <trkpt lat="45.92487" lon="6.51284">
        <ele>2150</ele>
        <time>2014-02-12T14:17:58.000Z</time>
      </trkpt>
      <trkpt lat="45.92487" lon="6.51284">
        <ele>2150</ele>
        <time>2014-02-12T14:17:59.000Z</time>
      </trkpt>
      <trkpt lat="45.92487" lon="6.51284">
        <ele>2150</ele>
        <time>2014-02-12T14:18:00.000Z</time>
      </trkpt>
      <trkpt lat="45.92487" lon="6.51284">
        <ele>2150</ele>
        <time>2014-02-12T14:18:01.000Z</time>
      </trkpt>
      <trkpt lat="45.92487" lon="6.51284">
        <ele>2150</ele>
        <time>2014-02-12T14:18:02.000Z</time>
      </trkpt>
      <trkpt lat="45.92487" lon="6.51284">
        <ele>2150</ele>
        <time>2014-02-12T14:18:03.000Z</time>
      </trkpt>
      <trkpt lat="45.92487" lon="6.51284">
        <ele>2150</ele>
        <time>2014-02-12T14:18:04.000Z</time>
      </trkpt>
      <trkpt lat="45.92487" lon="6.51284">
        <ele>2150</ele>
        <time>2014-02-12T14:18:05.000Z</time>
      </trkpt>
      <trkpt lat="45.92487" lon="6.51284">
        <ele>2150</ele>
        <time>2014-02-12T14:18:06.000Z</time>
      </trkpt>
      <trkpt lat="45.92487" lon="6.51284">
        <ele>2150</ele>
        <time>2014-02-12T14:18:07.000Z</time>
      </trkpt>
      <trkpt lat="45.92487" lon="6.51284">
        <ele>2150</ele>
        <time>2014-02-12T14:18:08.000Z</time>
      </trkpt>
      <trkpt lat="45.92487" lon="6.51284">
        <ele>2150</ele>
        <time>2014-02-12T14:18:09.000Z</time>
      </trkpt>
      <trkpt lat="45.92487" lon="6.51284">
        <ele>2150.1999511719</ele>
        <time>2014-02-12T14:18:10.000Z</time>
      </trkpt>
      <trkpt lat="45.92487" lon="6.51284">
        <ele>2150.1999511719</ele>
        <time>2014-02-12T14:18:11.000Z</time>
      </trkpt>
      <trkpt lat="45.92487" lon="6.51284">
        <ele>2150.1999511719</ele>
        <time>2014-02-12T14:18:12.000Z</time>
      </trkpt>
      <trkpt lat="45.92487" lon="6.51284">
        <ele>2150.1999511719</ele>
        <time>2014-02-12T14:18:13.000Z</time>
      </trkpt>
      <trkpt lat="45.92487" lon="6.51284">
        <ele>2150.1999511719</ele>
        <time>2014-02-12T14:18:14.000Z</time>
      </trkpt>
      <trkpt lat="45.92487" lon="6.51284">
        <ele>2150.1999511719</ele>
        <time>2014-02-12T14:18:15.000Z</time>
      </trkpt>
      <trkpt lat="45.92487" lon="6.51284">
        <ele>2150.1999511719</ele>
        <time>2014-02-12T14:18:16.000Z</time>
      </trkpt>
      <trkpt lat="45.92487" lon="6.51284">
        <ele>2150.1999511719</ele>
        <time>2014-02-12T14:18:17.000Z</time>
      </trkpt>
      <trkpt lat="45.92487" lon="6.51284">
        <ele>2150.1999511719</ele>
        <time>2014-02-12T14:18:18.000Z</time>
      </trkpt>
      <trkpt lat="45.92487" lon="6.51284">
        <ele>2150.1999511719</ele>
        <time>2014-02-12T14:18:19.000Z</time>
      </trkpt>
      <trkpt lat="45.92487" lon="6.51284">
        <ele>2150.1999511719</ele>
        <time>2014-02-12T14:18:20.000Z</time>
      </trkpt>
      <trkpt lat="45.92487" lon="6.51284">
        <ele>2150.1999511719</ele>
        <time>2014-02-12T14:18:21.000Z</time>
      </trkpt>
      <trkpt lat="45.92487" lon="6.51284">
        <ele>2150.1999511719</ele>
        <time>2014-02-12T14:18:22.000Z</time>
      </trkpt>
      <trkpt lat="45.92487" lon="6.51284">
        <ele>2150.1999511719</ele>
        <time>2014-02-12T14:18:23.000Z</time>
      </trkpt>
      <trkpt lat="45.92487" lon="6.51284">
        <ele>2150.1999511719</ele>
        <time>2014-02-12T14:18:24.000Z</time>
      </trkpt>
      <trkpt lat="45.92487" lon="6.51284">
        <ele>2150.1999511719</ele>
        <time>2014-02-12T14:18:25.000Z</time>
      </trkpt>
      <trkpt lat="45.92487" lon="6.51284">
        <ele>2150.1999511719</ele>
        <time>2014-02-12T14:18:26.000Z</time>
      </trkpt>
      <trkpt lat="45.92487" lon="6.51284">
        <ele>2150.1999511719</ele>
        <time>2014-02-12T14:18:27.000Z</time>
      </trkpt>
      <trkpt lat="45.92487" lon="6.51284">
        <ele>2150.1999511719</ele>
        <time>2014-02-12T14:18:28.000Z</time>
      </trkpt>
      <trkpt lat="45.92487" lon="6.51284">
        <ele>2150.1999511719</ele>
        <time>2014-02-12T14:18:29.000Z</time>
      </trkpt>
      <trkpt lat="45.92487" lon="6.51284">
        <ele>2150.1999511719</ele>
        <time>2014-02-12T14:18:30.000Z</time>
      </trkpt>
      <trkpt lat="45.92487" lon="6.51284">
        <ele>2150.1999511719</ele>
        <time>2014-02-12T14:18:31.000Z</time>
      </trkpt>
      <trkpt lat="45.92487" lon="6.51284">
        <ele>2150.1999511719</ele>
        <time>2014-02-12T14:18:32.000Z</time>
      </trkpt>
      <trkpt lat="45.92487" lon="6.51284">
        <ele>2150.1999511719</ele>
        <time>2014-02-12T14:18:33.000Z</time>
      </trkpt>
      <trkpt lat="45.92487" lon="6.51284">
        <ele>2150.1999511719</ele>
        <time>2014-02-12T14:18:34.000Z</time>
      </trkpt>
      <trkpt lat="45.92487" lon="6.51284">
        <ele>2150.1999511719</ele>
        <time>2014-02-12T14:18:35.000Z</time>
      </trkpt>
      <trkpt lat="45.92487" lon="6.51284">
        <ele>2150.1999511719</ele>
        <time>2014-02-12T14:18:36.000Z</time>
      </trkpt>
      <trkpt lat="45.92487" lon="6.51284">
        <ele>2150.1999511719</ele>
        <time>2014-02-12T14:18:37.000Z</time>
      </trkpt>
      <trkpt lat="45.92487" lon="6.51284">
        <ele>2150.1999511719</ele>
        <time>2014-02-12T14:18:38.000Z</time>
      </trkpt>
      <trkpt lat="45.92487" lon="6.51284">
        <ele>2150.1999511719</ele>
        <time>2014-02-12T14:18:39.000Z</time>
      </trkpt>
      <trkpt lat="45.92487" lon="6.51284">
        <ele>2150.1999511719</ele>
        <time>2014-02-12T14:18:40.000Z</time>
      </trkpt>
      <trkpt lat="45.92487" lon="6.51284">
        <ele>2150.1999511719</ele>
        <time>2014-02-12T14:18:41.000Z</time>
      </trkpt>
      <trkpt lat="45.92487" lon="6.51284">
        <ele>2150.1999511719</ele>
        <time>2014-02-12T14:18:42.000Z</time>
      </trkpt>
      <trkpt lat="45.92487" lon="6.51284">
        <ele>2150.1999511719</ele>
        <time>2014-02-12T14:18:43.000Z</time>
      </trkpt>
      <trkpt lat="45.92487" lon="6.51284">
        <ele>2150.1999511719</ele>
        <time>2014-02-12T14:18:45.000Z</time>
      </trkpt>
      <trkpt lat="45.92487" lon="6.51284">
        <ele>2150.1999511719</ele>
        <time>2014-02-12T14:18:46.000Z</time>
      </trkpt>
      <trkpt lat="45.92487" lon="6.51284">
        <ele>2150.1999511719</ele>
        <time>2014-02-12T14:18:47.000Z</time>
      </trkpt>
      <trkpt lat="45.92487" lon="6.51284">
        <ele>2150.1999511719</ele>
        <time>2014-02-12T14:18:48.000Z</time>
      </trkpt>
      <trkpt lat="45.92487" lon="6.51284">
        <ele>2150.1999511719</ele>
        <time>2014-02-12T14:18:49.000Z</time>
      </trkpt>
      <trkpt lat="45.92486" lon="6.51284">
        <ele>2150.1999511719</ele>
        <time>2014-02-12T14:18:50.000Z</time>
      </trkpt>
      <trkpt lat="45.92486" lon="6.51284">
        <ele>2150.1999511719</ele>
        <time>2014-02-12T14:18:51.000Z</time>
      </trkpt>
      <trkpt lat="45.92486" lon="6.51284">
        <ele>2150.1999511719</ele>
        <time>2014-02-12T14:18:52.000Z</time>
      </trkpt>
      <trkpt lat="45.92486" lon="6.51284">
        <ele>2150.1999511719</ele>
        <time>2014-02-12T14:18:53.000Z</time>
      </trkpt>
      <trkpt lat="45.92486" lon="6.51284">
        <ele>2150.1999511719</ele>
        <time>2014-02-12T14:18:54.000Z</time>
      </trkpt>
      <trkpt lat="45.92486" lon="6.51284">
        <ele>2150.1999511719</ele>
        <time>2014-02-12T14:18:55.000Z</time>
      </trkpt>
      <trkpt lat="45.92486" lon="6.51284">
        <ele>2150.1999511719</ele>
        <time>2014-02-12T14:18:56.000Z</time>
      </trkpt>
      <trkpt lat="45.92486" lon="6.51284">
        <ele>2150.1999511719</ele>
        <time>2014-02-12T14:18:57.000Z</time>
      </trkpt>
      <trkpt lat="45.92486" lon="6.51284">
        <ele>2150.1999511719</ele>
        <time>2014-02-12T14:18:58.000Z</time>
      </trkpt>
      <trkpt lat="45.92486" lon="6.51284">
        <ele>2150.1999511719</ele>
        <time>2014-02-12T14:18:59.000Z</time>
      </trkpt>
      <trkpt lat="45.92486" lon="6.51284">
        <ele>2150.1999511719</ele>
        <time>2014-02-12T14:19:00.000Z</time>
      </trkpt>
      <trkpt lat="45.92486" lon="6.51284">
        <ele>2150.1999511719</ele>
        <time>2014-02-12T14:19:01.000Z</time>
      </trkpt>
      <trkpt lat="45.92486" lon="6.51284">
        <ele>2150.1999511719</ele>
        <time>2014-02-12T14:19:02.000Z</time>
      </trkpt>
      <trkpt lat="45.92486" lon="6.51284">
        <ele>2150.1999511719</ele>
        <time>2014-02-12T14:19:06.000Z</time>
      </trkpt>
      <trkpt lat="45.92486" lon="6.51284">
        <ele>2150.1999511719</ele>
        <time>2014-02-12T14:19:08.000Z</time>
      </trkpt>
      <trkpt lat="45.92486" lon="6.51284">
        <ele>2150.1999511719</ele>
        <time>2014-02-12T14:19:09.000Z</time>
      </trkpt>
      <trkpt lat="45.92486" lon="6.51284">
        <ele>2150.1999511719</ele>
        <time>2014-02-12T14:19:10.000Z</time>
      </trkpt>
      <trkpt lat="45.92486" lon="6.51284">
        <ele>2150.1999511719</ele>
        <time>2014-02-12T14:19:11.000Z</time>
      </trkpt>
      <trkpt lat="45.92486" lon="6.51284">
        <ele>2150.1999511719</ele>
        <time>2014-02-12T14:19:12.000Z</time>
      </trkpt>
      <trkpt lat="45.92486" lon="6.51284">
        <ele>2150.1999511719</ele>
        <time>2014-02-12T14:19:13.000Z</time>
      </trkpt>
      <trkpt lat="45.92486" lon="6.51284">
        <ele>2150.1999511719</ele>
        <time>2014-02-12T14:19:14.000Z</time>
      </trkpt>
      <trkpt lat="45.92486" lon="6.51284">
        <ele>2150.1999511719</ele>
        <time>2014-02-12T14:19:15.000Z</time>
      </trkpt>
      <trkpt lat="45.92486" lon="6.51284">
        <ele>2150.1999511719</ele>
        <time>2014-02-12T14:19:16.000Z</time>
      </trkpt>
      <trkpt lat="45.92486" lon="6.51284">
        <ele>2150.1999511719</ele>
        <time>2014-02-12T14:19:17.000Z</time>
      </trkpt>
      <trkpt lat="45.92486" lon="6.51284">
        <ele>2150.1999511719</ele>
        <time>2014-02-12T14:19:18.000Z</time>
      </trkpt>
      <trkpt lat="45.92486" lon="6.51284">
        <ele>2150.1999511719</ele>
        <time>2014-02-12T14:19:19.000Z</time>
      </trkpt>
      <trkpt lat="45.92486" lon="6.51284">
        <ele>2150.1999511719</ele>
        <time>2014-02-12T14:19:20.000Z</time>
      </trkpt>
      <trkpt lat="45.92486" lon="6.51284">
        <ele>2150.1999511719</ele>
        <time>2014-02-12T14:19:21.000Z</time>
      </trkpt>
      <trkpt lat="45.92486" lon="6.51284">
        <ele>2150.1999511719</ele>
        <time>2014-02-12T14:19:22.000Z</time>
      </trkpt>
      <trkpt lat="45.92486" lon="6.51284">
        <ele>2150.1999511719</ele>
        <time>2014-02-12T14:19:25.000Z</time>
      </trkpt>
      <trkpt lat="45.92486" lon="6.51284">
        <ele>2150.1999511719</ele>
        <time>2014-02-12T14:19:26.000Z</time>
      </trkpt>
      <trkpt lat="45.92486" lon="6.51284">
        <ele>2150.1999511719</ele>
        <time>2014-02-12T14:19:27.000Z</time>
      </trkpt>
      <trkpt lat="45.92486" lon="6.51284">
        <ele>2150.1999511719</ele>
        <time>2014-02-12T14:19:28.000Z</time>
      </trkpt>
      <trkpt lat="45.92486" lon="6.51284">
        <ele>2150.1999511719</ele>
        <time>2014-02-12T14:19:29.000Z</time>
      </trkpt>
      <trkpt lat="45.92486" lon="6.51284">
        <ele>2150.1999511719</ele>
        <time>2014-02-12T14:19:30.000Z</time>
      </trkpt>
      <trkpt lat="45.92486" lon="6.51284">
        <ele>2150.1999511719</ele>
        <time>2014-02-12T14:19:31.000Z</time>
      </trkpt>
      <trkpt lat="45.92486" lon="6.51284">
        <ele>2150.1999511719</ele>
        <time>2014-02-12T14:19:32.000Z</time>
      </trkpt>
      <trkpt lat="45.92486" lon="6.51284">
        <ele>2150.1999511719</ele>
        <time>2014-02-12T14:19:33.000Z</time>
      </trkpt>
      <trkpt lat="45.92486" lon="6.51284">
        <ele>2150.1999511719</ele>
        <time>2014-02-12T14:19:44.000Z</time>
      </trkpt>
      <trkpt lat="45.92486" lon="6.51284">
        <ele>2150.1999511719</ele>
        <time>2014-02-12T14:19:45.000Z</time>
      </trkpt>
      <trkpt lat="45.92486" lon="6.51284">
        <ele>2150.1999511719</ele>
        <time>2014-02-12T14:19:46.000Z</time>
      </trkpt>
      <trkpt lat="45.92486" lon="6.51284">
        <ele>2150.1999511719</ele>
        <time>2014-02-12T14:19:47.000Z</time>
      </trkpt>
      <trkpt lat="45.92486" lon="6.51284">
        <ele>2150.1999511719</ele>
        <time>2014-02-12T14:19:48.000Z</time>
      </trkpt>
      <trkpt lat="45.92486" lon="6.51284">
        <ele>2150.1999511719</ele>
        <time>2014-02-12T14:19:49.000Z</time>
      </trkpt>
      <trkpt lat="45.92486" lon="6.51284">
        <ele>2150.1999511719</ele>
        <time>2014-02-12T14:19:50.000Z</time>
      </trkpt>
      <trkpt lat="45.92486" lon="6.51284">
        <ele>2150.1999511719</ele>
        <time>2014-02-12T14:19:51.000Z</time>
      </trkpt>
      <trkpt lat="45.92486" lon="6.51284">
        <ele>2150.1999511719</ele>
        <time>2014-02-12T14:19:52.000Z</time>
      </trkpt>
      <trkpt lat="45.92486" lon="6.51284">
        <ele>2150.1999511719</ele>
        <time>2014-02-12T14:19:53.000Z</time>
      </trkpt>
      <trkpt lat="45.92486" lon="6.51284">
        <ele>2150.1999511719</ele>
        <time>2014-02-12T14:19:54.000Z</time>
      </trkpt>
      <trkpt lat="45.92486" lon="6.51284">
        <ele>2150.1999511719</ele>
        <time>2014-02-12T14:19:55.000Z</time>
      </trkpt>
      <trkpt lat="45.92486" lon="6.51284">
        <ele>2150.1999511719</ele>
        <time>2014-02-12T14:19:56.000Z</time>
      </trkpt>
      <trkpt lat="45.92486" lon="6.51284">
        <ele>2150.1999511719</ele>
        <time>2014-02-12T14:19:57.000Z</time>
      </trkpt>
      <trkpt lat="45.92486" lon="6.51284">
        <ele>2150.1999511719</ele>
        <time>2014-02-12T14:19:58.000Z</time>
      </trkpt>
      <trkpt lat="45.92486" lon="6.51284">
        <ele>2150.1999511719</ele>
        <time>2014-02-12T14:19:59.000Z</time>
      </trkpt>
      <trkpt lat="45.92486" lon="6.51284">
        <ele>2150.1999511719</ele>
        <time>2014-02-12T14:20:02.000Z</time>
      </trkpt>
      <trkpt lat="45.92486" lon="6.51284">
        <ele>2150.1999511719</ele>
        <time>2014-02-12T14:20:03.000Z</time>
      </trkpt>
      <trkpt lat="45.92486" lon="6.51284">
        <ele>2150.1999511719</ele>
        <time>2014-02-12T14:20:04.000Z</time>
      </trkpt>
      <trkpt lat="45.92486" lon="6.51284">
        <ele>2150.1999511719</ele>
        <time>2014-02-12T14:20:09.000Z</time>
      </trkpt>
      <trkpt lat="45.92486" lon="6.51284">
        <ele>2150.1999511719</ele>
        <time>2014-02-12T14:20:10.000Z</time>
      </trkpt>
      <trkpt lat="45.92486" lon="6.51284">
        <ele>2150.1999511719</ele>
        <time>2014-02-12T14:20:11.000Z</time>
      </trkpt>
      <trkpt lat="45.92486" lon="6.51284">
        <ele>2150.1999511719</ele>
        <time>2014-02-12T14:20:12.000Z</time>
      </trkpt>
      <trkpt lat="45.92486" lon="6.51284">
        <ele>2150.1999511719</ele>
        <time>2014-02-12T14:20:13.000Z</time>
      </trkpt>
      <trkpt lat="45.92486" lon="6.51284">
        <ele>2150.1999511719</ele>
        <time>2014-02-12T14:20:14.000Z</time>
      </trkpt>
      <trkpt lat="45.92486" lon="6.51284">
        <ele>2150.1999511719</ele>
        <time>2014-02-12T14:20:15.000Z</time>
      </trkpt>
      <trkpt lat="45.92486" lon="6.51284">
        <ele>2150.1999511719</ele>
        <time>2014-02-12T14:20:16.000Z</time>
      </trkpt>
      <trkpt lat="45.92486" lon="6.51284">
        <ele>2150.1999511719</ele>
        <time>2014-02-12T14:20:17.000Z</time>
      </trkpt>
      <trkpt lat="45.92486" lon="6.51284">
        <ele>2150.1999511719</ele>
        <time>2014-02-12T14:20:18.000Z</time>
      </trkpt>
      <trkpt lat="45.92486" lon="6.51284">
        <ele>2150.1999511719</ele>
        <time>2014-02-12T14:20:19.000Z</time>
      </trkpt>
      <trkpt lat="45.92486" lon="6.51284">
        <ele>2150.1999511719</ele>
        <time>2014-02-12T14:20:20.000Z</time>
      </trkpt>
      <trkpt lat="45.92486" lon="6.51284">
        <ele>2150.1999511719</ele>
        <time>2014-02-12T14:20:21.000Z</time>
      </trkpt>
      <trkpt lat="45.92486" lon="6.51284">
        <ele>2150.1999511719</ele>
        <time>2014-02-12T14:20:22.000Z</time>
      </trkpt>
      <trkpt lat="45.92486" lon="6.51284">
        <ele>2150.1999511719</ele>
        <time>2014-02-12T14:20:23.000Z</time>
      </trkpt>
      <trkpt lat="45.92486" lon="6.51284">
        <ele>2150.1999511719</ele>
        <time>2014-02-12T14:20:24.000Z</time>
      </trkpt>
      <trkpt lat="45.92486" lon="6.51284">
        <ele>2150.1999511719</ele>
        <time>2014-02-12T14:20:25.000Z</time>
      </trkpt>
      <trkpt lat="45.92486" lon="6.51284">
        <ele>2150.1999511719</ele>
        <time>2014-02-12T14:20:26.000Z</time>
      </trkpt>
      <trkpt lat="45.92486" lon="6.51284">
        <ele>2150.1999511719</ele>
        <time>2014-02-12T14:20:27.000Z</time>
      </trkpt>
      <trkpt lat="45.92486" lon="6.51284">
        <ele>2150.1999511719</ele>
        <time>2014-02-12T14:20:28.000Z</time>
      </trkpt>
      <trkpt lat="45.92486" lon="6.51284">
        <ele>2150.1999511719</ele>
        <time>2014-02-12T14:20:29.000Z</time>
      </trkpt>
      <trkpt lat="45.92486" lon="6.51284">
        <ele>2150.1999511719</ele>
        <time>2014-02-12T14:20:30.000Z</time>
      </trkpt>
      <trkpt lat="45.92486" lon="6.51284">
        <ele>2150.1999511719</ele>
        <time>2014-02-12T14:20:31.000Z</time>
      </trkpt>
      <trkpt lat="45.92486" lon="6.51284">
        <ele>2150.1999511719</ele>
        <time>2014-02-12T14:20:32.000Z</time>
      </trkpt>
      <trkpt lat="45.92486" lon="6.51284">
        <ele>2150.1999511719</ele>
        <time>2014-02-12T14:20:33.000Z</time>
      </trkpt>
      <trkpt lat="45.92486" lon="6.51284">
        <ele>2150.1999511719</ele>
        <time>2014-02-12T14:20:34.000Z</time>
      </trkpt>
      <trkpt lat="45.92486" lon="6.51284">
        <ele>2150.1999511719</ele>
        <time>2014-02-12T14:20:35.000Z</time>
      </trkpt>
      <trkpt lat="45.92486" lon="6.51284">
        <ele>2150.1999511719</ele>
        <time>2014-02-12T14:20:36.000Z</time>
      </trkpt>
      <trkpt lat="45.92486" lon="6.51284">
        <ele>2150.1999511719</ele>
        <time>2014-02-12T14:20:37.000Z</time>
      </trkpt>
      <trkpt lat="45.92486" lon="6.51284">
        <ele>2150.1999511719</ele>
        <time>2014-02-12T14:20:38.000Z</time>
      </trkpt>
      <trkpt lat="45.92486" lon="6.51284">
        <ele>2150.1999511719</ele>
        <time>2014-02-12T14:20:39.000Z</time>
      </trkpt>
      <trkpt lat="45.92486" lon="6.51284">
        <ele>2150.1999511719</ele>
        <time>2014-02-12T14:20:40.000Z</time>
      </trkpt>
      <trkpt lat="45.92486" lon="6.51284">
        <ele>2150.1999511719</ele>
        <time>2014-02-12T14:20:41.000Z</time>
      </trkpt>
      <trkpt lat="45.92486" lon="6.51284">
        <ele>2150.1999511719</ele>
        <time>2014-02-12T14:20:42.000Z</time>
      </trkpt>
      <trkpt lat="45.92486" lon="6.51284">
        <ele>2150.1999511719</ele>
        <time>2014-02-12T14:20:43.000Z</time>
      </trkpt>
      <trkpt lat="45.92486" lon="6.51284">
        <ele>2150.1999511719</ele>
        <time>2014-02-12T14:20:44.000Z</time>
      </trkpt>
      <trkpt lat="45.92486" lon="6.51284">
        <ele>2150.1999511719</ele>
        <time>2014-02-12T14:20:45.000Z</time>
      </trkpt>
      <trkpt lat="45.92486" lon="6.51284">
        <ele>2150.1999511719</ele>
        <time>2014-02-12T14:20:46.000Z</time>
      </trkpt>
      <trkpt lat="45.92486" lon="6.51284">
        <ele>2150.1999511719</ele>
        <time>2014-02-12T14:20:47.000Z</time>
      </trkpt>
      <trkpt lat="45.92486" lon="6.51284">
        <ele>2150.1999511719</ele>
        <time>2014-02-12T14:20:48.000Z</time>
      </trkpt>
      <trkpt lat="45.92486" lon="6.51284">
        <ele>2150.1999511719</ele>
        <time>2014-02-12T14:20:49.000Z</time>
      </trkpt>
      <trkpt lat="45.92486" lon="6.51284">
        <ele>2150.1999511719</ele>
        <time>2014-02-12T14:20:50.000Z</time>
      </trkpt>
      <trkpt lat="45.92486" lon="6.51284">
        <ele>2150.1999511719</ele>
        <time>2014-02-12T14:20:51.000Z</time>
      </trkpt>
      <trkpt lat="45.92486" lon="6.51284">
        <ele>2150.1999511719</ele>
        <time>2014-02-12T14:20:52.000Z</time>
      </trkpt>
      <trkpt lat="45.92486" lon="6.51284">
        <ele>2150.1999511719</ele>
        <time>2014-02-12T14:20:54.000Z</time>
      </trkpt>
      <trkpt lat="45.92486" lon="6.51284">
        <ele>2150.1999511719</ele>
        <time>2014-02-12T14:20:55.000Z</time>
      </trkpt>
      <trkpt lat="45.92486" lon="6.51284">
        <ele>2150.1999511719</ele>
        <time>2014-02-12T14:20:56.000Z</time>
      </trkpt>
      <trkpt lat="45.92486" lon="6.51284">
        <ele>2150.1999511719</ele>
        <time>2014-02-12T14:20:57.000Z</time>
      </trkpt>
      <trkpt lat="45.92486" lon="6.51284">
        <ele>2150.1999511719</ele>
        <time>2014-02-12T14:20:59.000Z</time>
      </trkpt>
      <trkpt lat="45.92486" lon="6.51284">
        <ele>2150.1999511719</ele>
        <time>2014-02-12T14:21:00.000Z</time>
      </trkpt>
      <trkpt lat="45.92486" lon="6.51284">
        <ele>2150.1999511719</ele>
        <time>2014-02-12T14:21:01.000Z</time>
      </trkpt>
      <trkpt lat="45.92486" lon="6.51284">
        <ele>2150.1999511719</ele>
        <time>2014-02-12T14:21:02.000Z</time>
      </trkpt>
      <trkpt lat="45.92486" lon="6.51284">
        <ele>2150.1999511719</ele>
        <time>2014-02-12T14:21:03.000Z</time>
      </trkpt>
      <trkpt lat="45.92486" lon="6.51284">
        <ele>2150.1999511719</ele>
        <time>2014-02-12T14:21:04.000Z</time>
      </trkpt>
      <trkpt lat="45.92486" lon="6.51284">
        <ele>2150.1999511719</ele>
        <time>2014-02-12T14:21:05.000Z</time>
      </trkpt>
      <trkpt lat="45.92487" lon="6.51285">
        <ele>2150.1999511719</ele>
        <time>2014-02-12T14:21:06.000Z</time>
      </trkpt>
      <trkpt lat="45.92487" lon="6.51285">
        <ele>2150.1999511719</ele>
        <time>2014-02-12T14:21:07.000Z</time>
      </trkpt>
      <trkpt lat="45.92487" lon="6.51285">
        <ele>2150.1999511719</ele>
        <time>2014-02-12T14:21:08.000Z</time>
      </trkpt>
      <trkpt lat="45.92487" lon="6.51285">
        <ele>2150.1999511719</ele>
        <time>2014-02-12T14:21:09.000Z</time>
      </trkpt>
      <trkpt lat="45.92487" lon="6.51285">
        <ele>2150.1999511719</ele>
        <time>2014-02-12T14:21:10.000Z</time>
      </trkpt>
      <trkpt lat="45.92487" lon="6.51285">
        <ele>2150.1999511719</ele>
        <time>2014-02-12T14:21:11.000Z</time>
      </trkpt>
      <trkpt lat="45.92487" lon="6.51285">
        <ele>2150.1999511719</ele>
        <time>2014-02-12T14:21:12.000Z</time>
      </trkpt>
      <trkpt lat="45.92487" lon="6.51285">
        <ele>2150.1999511719</ele>
        <time>2014-02-12T14:21:13.000Z</time>
      </trkpt>
      <trkpt lat="45.92487" lon="6.51285">
        <ele>2150.1999511719</ele>
        <time>2014-02-12T14:21:14.000Z</time>
      </trkpt>
      <trkpt lat="45.92487" lon="6.51285">
        <ele>2150.1999511719</ele>
        <time>2014-02-12T14:21:15.000Z</time>
      </trkpt>
      <trkpt lat="45.92487" lon="6.51285">
        <ele>2150.1999511719</ele>
        <time>2014-02-12T14:21:16.000Z</time>
      </trkpt>
      <trkpt lat="45.92487" lon="6.51285">
        <ele>2150.1999511719</ele>
        <time>2014-02-12T14:21:17.000Z</time>
      </trkpt>
      <trkpt lat="45.92487" lon="6.51285">
        <ele>2150.1999511719</ele>
        <time>2014-02-12T14:21:18.000Z</time>
      </trkpt>
      <trkpt lat="45.92487" lon="6.51285">
        <ele>2150.1999511719</ele>
        <time>2014-02-12T14:21:19.000Z</time>
      </trkpt>
      <trkpt lat="45.92487" lon="6.51285">
        <ele>2150.1999511719</ele>
        <time>2014-02-12T14:21:20.000Z</time>
      </trkpt>
      <trkpt lat="45.92487" lon="6.51285">
        <ele>2150.1999511719</ele>
        <time>2014-02-12T14:21:21.000Z</time>
      </trkpt>
      <trkpt lat="45.92487" lon="6.51285">
        <ele>2150.1999511719</ele>
        <time>2014-02-12T14:21:22.000Z</time>
      </trkpt>
      <trkpt lat="45.92487" lon="6.51285">
        <ele>2150.1999511719</ele>
        <time>2014-02-12T14:21:23.000Z</time>
      </trkpt>
      <trkpt lat="45.92487" lon="6.51285">
        <ele>2150.1999511719</ele>
        <time>2014-02-12T14:21:24.000Z</time>
      </trkpt>
      <trkpt lat="45.92487" lon="6.51285">
        <ele>2150.1999511719</ele>
        <time>2014-02-12T14:21:25.000Z</time>
      </trkpt>
      <trkpt lat="45.92487" lon="6.51285">
        <ele>2150.1999511719</ele>
        <time>2014-02-12T14:21:26.000Z</time>
      </trkpt>
      <trkpt lat="45.92487" lon="6.51285">
        <ele>2150.1999511719</ele>
        <time>2014-02-12T14:21:27.000Z</time>
      </trkpt>
      <trkpt lat="45.92487" lon="6.51285">
        <ele>2150.1999511719</ele>
        <time>2014-02-12T14:21:28.000Z</time>
      </trkpt>
      <trkpt lat="45.92487" lon="6.51285">
        <ele>2150.1999511719</ele>
        <time>2014-02-12T14:21:29.000Z</time>
      </trkpt>
      <trkpt lat="45.92487" lon="6.51285">
        <ele>2150.1999511719</ele>
        <time>2014-02-12T14:21:30.000Z</time>
      </trkpt>
      <trkpt lat="45.92487" lon="6.51285">
        <ele>2150.1999511719</ele>
        <time>2014-02-12T14:21:31.000Z</time>
      </trkpt>
      <trkpt lat="45.92487" lon="6.51285">
        <ele>2150.1999511719</ele>
        <time>2014-02-12T14:21:32.000Z</time>
      </trkpt>
      <trkpt lat="45.92487" lon="6.51285">
        <ele>2150.1999511719</ele>
        <time>2014-02-12T14:21:33.000Z</time>
      </trkpt>
      <trkpt lat="45.92487" lon="6.51285">
        <ele>2150.1999511719</ele>
        <time>2014-02-12T14:21:34.000Z</time>
      </trkpt>
      <trkpt lat="45.92487" lon="6.51285">
        <ele>2150.1999511719</ele>
        <time>2014-02-12T14:21:35.000Z</time>
      </trkpt>
      <trkpt lat="45.92487" lon="6.51285">
        <ele>2150.1999511719</ele>
        <time>2014-02-12T14:21:38.000Z</time>
      </trkpt>
      <trkpt lat="45.92487" lon="6.51285">
        <ele>2150.1999511719</ele>
        <time>2014-02-12T14:21:42.000Z</time>
      </trkpt>
      <trkpt lat="45.92487" lon="6.51285">
        <ele>2150.1999511719</ele>
        <time>2014-02-12T14:21:43.000Z</time>
      </trkpt>
      <trkpt lat="45.92487" lon="6.51285">
        <ele>2150.1999511719</ele>
        <time>2014-02-12T14:21:44.000Z</time>
      </trkpt>
      <trkpt lat="45.92487" lon="6.51285">
        <ele>2150.1999511719</ele>
        <time>2014-02-12T14:21:45.000Z</time>
      </trkpt>
      <trkpt lat="45.92487" lon="6.51284">
        <ele>2149.8000488281</ele>
        <time>2014-02-12T14:21:46.000Z</time>
      </trkpt>
      <trkpt lat="45.92487" lon="6.51284">
        <ele>2149.8000488281</ele>
        <time>2014-02-12T14:21:47.000Z</time>
      </trkpt>
      <trkpt lat="45.92487" lon="6.51284">
        <ele>2149.8000488281</ele>
        <time>2014-02-12T14:21:48.000Z</time>
      </trkpt>
      <trkpt lat="45.92487" lon="6.51284">
        <ele>2149.8000488281</ele>
        <time>2014-02-12T14:21:49.000Z</time>
      </trkpt>
      <trkpt lat="45.92487" lon="6.51284">
        <ele>2149.8000488281</ele>
        <time>2014-02-12T14:21:51.000Z</time>
      </trkpt>
      <trkpt lat="45.92487" lon="6.51284">
        <ele>2149.8000488281</ele>
        <time>2014-02-12T14:21:52.000Z</time>
      </trkpt>
      <trkpt lat="45.92487" lon="6.51284">
        <ele>2149.8000488281</ele>
        <time>2014-02-12T14:21:53.000Z</time>
      </trkpt>
      <trkpt lat="45.92487" lon="6.51284">
        <ele>2149.8000488281</ele>
        <time>2014-02-12T14:21:54.000Z</time>
      </trkpt>
      <trkpt lat="45.92487" lon="6.51284">
        <ele>2149.8000488281</ele>
        <time>2014-02-12T14:21:59.000Z</time>
      </trkpt>
      <trkpt lat="45.92487" lon="6.51284">
        <ele>2149.8000488281</ele>
        <time>2014-02-12T14:22:00.000Z</time>
      </trkpt>
      <trkpt lat="45.92487" lon="6.51284">
        <ele>2149.8000488281</ele>
        <time>2014-02-12T14:22:01.000Z</time>
      </trkpt>
      <trkpt lat="45.92487" lon="6.51284">
        <ele>2149.8000488281</ele>
        <time>2014-02-12T14:22:02.000Z</time>
      </trkpt>
      <trkpt lat="45.92487" lon="6.51284">
        <ele>2149.8000488281</ele>
        <time>2014-02-12T14:22:05.000Z</time>
      </trkpt>
      <trkpt lat="45.92487" lon="6.51284">
        <ele>2149.8000488281</ele>
        <time>2014-02-12T14:22:06.000Z</time>
      </trkpt>
      <trkpt lat="45.92487" lon="6.51284">
        <ele>2149.8000488281</ele>
        <time>2014-02-12T14:22:07.000Z</time>
      </trkpt>
      <trkpt lat="45.92487" lon="6.51284">
        <ele>2149.8000488281</ele>
        <time>2014-02-12T14:22:08.000Z</time>
      </trkpt>
      <trkpt lat="45.92487" lon="6.51284">
        <ele>2149.8000488281</ele>
        <time>2014-02-12T14:22:10.000Z</time>
      </trkpt>
      <trkpt lat="45.92487" lon="6.51284">
        <ele>2149.8000488281</ele>
        <time>2014-02-12T14:22:12.000Z</time>
      </trkpt>
      <trkpt lat="45.92487" lon="6.51284">
        <ele>2149.8000488281</ele>
        <time>2014-02-12T14:22:14.000Z</time>
      </trkpt>
      <trkpt lat="45.92487" lon="6.51284">
        <ele>2149.8000488281</ele>
        <time>2014-02-12T14:22:15.000Z</time>
      </trkpt>
      <trkpt lat="45.92487" lon="6.51284">
        <ele>2149.8000488281</ele>
        <time>2014-02-12T14:22:16.000Z</time>
      </trkpt>
      <trkpt lat="45.92487" lon="6.51284">
        <ele>2149.8000488281</ele>
        <time>2014-02-12T14:22:17.000Z</time>
      </trkpt>
      <trkpt lat="45.92487" lon="6.51284">
        <ele>2149.8000488281</ele>
        <time>2014-02-12T14:22:18.000Z</time>
      </trkpt>
      <trkpt lat="45.92487" lon="6.51284">
        <ele>2149.8000488281</ele>
        <time>2014-02-12T14:22:20.000Z</time>
      </trkpt>
      <trkpt lat="45.92487" lon="6.51284">
        <ele>2149.8000488281</ele>
        <time>2014-02-12T14:22:21.000Z</time>
      </trkpt>
      <trkpt lat="45.92487" lon="6.51284">
        <ele>2149.8000488281</ele>
        <time>2014-02-12T14:22:22.000Z</time>
      </trkpt>
      <trkpt lat="45.92487" lon="6.51284">
        <ele>2149.8000488281</ele>
        <time>2014-02-12T14:22:23.000Z</time>
      </trkpt>
      <trkpt lat="45.92487" lon="6.51284">
        <ele>2149.8000488281</ele>
        <time>2014-02-12T14:22:24.000Z</time>
      </trkpt>
      <trkpt lat="45.92487" lon="6.51284">
        <ele>2149.8000488281</ele>
        <time>2014-02-12T14:22:25.000Z</time>
      </trkpt>
      <trkpt lat="45.92487" lon="6.51284">
        <ele>2149.6000976562</ele>
        <time>2014-02-12T14:22:28.000Z</time>
      </trkpt>
      <trkpt lat="45.92487" lon="6.51284">
        <ele>2149.6000976562</ele>
        <time>2014-02-12T14:22:30.000Z</time>
      </trkpt>
      <trkpt lat="45.92487" lon="6.51284">
        <ele>2149.6000976562</ele>
        <time>2014-02-12T14:22:31.000Z</time>
      </trkpt>
      <trkpt lat="45.92487" lon="6.51284">
        <ele>2149.6000976562</ele>
        <time>2014-02-12T14:22:32.000Z</time>
      </trkpt>
      <trkpt lat="45.92487" lon="6.51284">
        <ele>2149.6000976562</ele>
        <time>2014-02-12T14:22:33.000Z</time>
      </trkpt>
      <trkpt lat="45.92487" lon="6.51284">
        <ele>2149.6000976562</ele>
        <time>2014-02-12T14:22:34.000Z</time>
      </trkpt>
      <trkpt lat="45.92487" lon="6.51284">
        <ele>2149.6000976562</ele>
        <time>2014-02-12T14:22:35.000Z</time>
      </trkpt>
      <trkpt lat="45.92487" lon="6.51284">
        <ele>2149.6000976562</ele>
        <time>2014-02-12T14:22:36.000Z</time>
      </trkpt>
      <trkpt lat="45.92487" lon="6.51284">
        <ele>2149.6000976562</ele>
        <time>2014-02-12T14:22:37.000Z</time>
      </trkpt>
      <trkpt lat="45.92487" lon="6.51284">
        <ele>2149.6000976562</ele>
        <time>2014-02-12T14:22:38.000Z</time>
      </trkpt>
      <trkpt lat="45.92487" lon="6.51284">
        <ele>2149.6000976562</ele>
        <time>2014-02-12T14:22:39.000Z</time>
      </trkpt>
      <trkpt lat="45.92487" lon="6.51284">
        <ele>2149.6000976562</ele>
        <time>2014-02-12T14:22:42.000Z</time>
      </trkpt>
      <trkpt lat="45.92487" lon="6.51284">
        <ele>2149.6000976562</ele>
        <time>2014-02-12T14:22:43.000Z</time>
      </trkpt>
      <trkpt lat="45.92487" lon="6.51284">
        <ele>2149.6000976562</ele>
        <time>2014-02-12T14:22:44.000Z</time>
      </trkpt>
      <trkpt lat="45.92487" lon="6.51284">
        <ele>2149.6000976562</ele>
        <time>2014-02-12T14:22:45.000Z</time>
      </trkpt>
      <trkpt lat="45.92487" lon="6.51284">
        <ele>2149.6000976562</ele>
        <time>2014-02-12T14:22:46.000Z</time>
      </trkpt>
      <trkpt lat="45.92487" lon="6.51284">
        <ele>2149.6000976562</ele>
        <time>2014-02-12T14:22:47.000Z</time>
      </trkpt>
      <trkpt lat="45.92487" lon="6.51284">
        <ele>2149.6000976562</ele>
        <time>2014-02-12T14:22:48.000Z</time>
      </trkpt>
      <trkpt lat="45.92487" lon="6.51284">
        <ele>2149.6000976562</ele>
        <time>2014-02-12T14:22:49.000Z</time>
      </trkpt>
      <trkpt lat="45.92487" lon="6.51284">
        <ele>2149.6000976562</ele>
        <time>2014-02-12T14:22:50.000Z</time>
      </trkpt>
      <trkpt lat="45.92487" lon="6.51284">
        <ele>2149.6000976562</ele>
        <time>2014-02-12T14:22:51.000Z</time>
      </trkpt>
      <trkpt lat="45.92487" lon="6.51284">
        <ele>2149.6000976562</ele>
        <time>2014-02-12T14:22:52.000Z</time>
      </trkpt>
      <trkpt lat="45.92487" lon="6.51284">
        <ele>2149.6000976562</ele>
        <time>2014-02-12T14:22:53.000Z</time>
      </trkpt>
      <trkpt lat="45.92487" lon="6.51284">
        <ele>2149.6000976562</ele>
        <time>2014-02-12T14:22:54.000Z</time>
      </trkpt>
      <trkpt lat="45.92487" lon="6.51284">
        <ele>2149.6000976562</ele>
        <time>2014-02-12T14:22:55.000Z</time>
      </trkpt>
      <trkpt lat="45.92487" lon="6.51284">
        <ele>2149.6000976562</ele>
        <time>2014-02-12T14:22:56.000Z</time>
      </trkpt>
      <trkpt lat="45.92487" lon="6.51284">
        <ele>2149.6000976562</ele>
        <time>2014-02-12T14:22:57.000Z</time>
      </trkpt>
      <trkpt lat="45.92487" lon="6.51284">
        <ele>2149.6000976562</ele>
        <time>2014-02-12T14:22:58.000Z</time>
      </trkpt>
      <trkpt lat="45.92487" lon="6.51284">
        <ele>2149.6000976562</ele>
        <time>2014-02-12T14:23:00.000Z</time>
      </trkpt>
      <trkpt lat="45.92487" lon="6.51284">
        <ele>2149.6000976562</ele>
        <time>2014-02-12T14:23:01.000Z</time>
      </trkpt>
      <trkpt lat="45.92487" lon="6.51284">
        <ele>2149.6000976562</ele>
        <time>2014-02-12T14:23:02.000Z</time>
      </trkpt>
      <trkpt lat="45.92487" lon="6.51284">
        <ele>2149.6000976562</ele>
        <time>2014-02-12T14:23:03.000Z</time>
      </trkpt>
      <trkpt lat="45.92487" lon="6.51284">
        <ele>2149.6000976562</ele>
        <time>2014-02-12T14:23:04.000Z</time>
      </trkpt>
      <trkpt lat="45.92487" lon="6.51284">
        <ele>2149.6000976562</ele>
        <time>2014-02-12T14:23:05.000Z</time>
      </trkpt>
      <trkpt lat="45.92487" lon="6.51284">
        <ele>2149.8000488281</ele>
        <time>2014-02-12T14:23:06.000Z</time>
      </trkpt>
      <trkpt lat="45.92487" lon="6.51284">
        <ele>2149.8000488281</ele>
        <time>2014-02-12T14:23:07.000Z</time>
      </trkpt>
      <trkpt lat="45.92487" lon="6.51284">
        <ele>2149.8000488281</ele>
        <time>2014-02-12T14:23:08.000Z</time>
      </trkpt>
      <trkpt lat="45.92487" lon="6.51284">
        <ele>2149.8000488281</ele>
        <time>2014-02-12T14:23:09.000Z</time>
      </trkpt>
      <trkpt lat="45.92487" lon="6.51284">
        <ele>2149.8000488281</ele>
        <time>2014-02-12T14:23:10.000Z</time>
      </trkpt>
      <trkpt lat="45.92487" lon="6.51284">
        <ele>2149.8000488281</ele>
        <time>2014-02-12T14:23:11.000Z</time>
      </trkpt>
      <trkpt lat="45.92487" lon="6.51284">
        <ele>2149.8000488281</ele>
        <time>2014-02-12T14:23:12.000Z</time>
      </trkpt>
      <trkpt lat="45.92487" lon="6.51284">
        <ele>2149.8000488281</ele>
        <time>2014-02-12T14:23:13.000Z</time>
      </trkpt>
      <trkpt lat="45.92487" lon="6.51284">
        <ele>2149.8000488281</ele>
        <time>2014-02-12T14:23:14.000Z</time>
      </trkpt>
      <trkpt lat="45.92487" lon="6.51284">
        <ele>2149.8000488281</ele>
        <time>2014-02-12T14:23:15.000Z</time>
      </trkpt>
      <trkpt lat="45.92487" lon="6.51284">
        <ele>2149.8000488281</ele>
        <time>2014-02-12T14:23:16.000Z</time>
      </trkpt>
      <trkpt lat="45.92487" lon="6.51284">
        <ele>2149.8000488281</ele>
        <time>2014-02-12T14:23:17.000Z</time>
      </trkpt>
      <trkpt lat="45.92487" lon="6.51284">
        <ele>2149.8000488281</ele>
        <time>2014-02-12T14:23:18.000Z</time>
      </trkpt>
      <trkpt lat="45.92487" lon="6.51284">
        <ele>2149.8000488281</ele>
        <time>2014-02-12T14:23:19.000Z</time>
      </trkpt>
      <trkpt lat="45.92487" lon="6.51284">
        <ele>2149.8000488281</ele>
        <time>2014-02-12T14:23:20.000Z</time>
      </trkpt>
      <trkpt lat="45.92487" lon="6.51284">
        <ele>2149.8000488281</ele>
        <time>2014-02-12T14:23:21.000Z</time>
      </trkpt>
      <trkpt lat="45.92487" lon="6.51284">
        <ele>2149.8000488281</ele>
        <time>2014-02-12T14:23:22.000Z</time>
      </trkpt>
      <trkpt lat="45.92487" lon="6.51284">
        <ele>2149.8000488281</ele>
        <time>2014-02-12T14:23:25.000Z</time>
      </trkpt>
      <trkpt lat="45.92487" lon="6.51284">
        <ele>2149.8000488281</ele>
        <time>2014-02-12T14:23:26.000Z</time>
      </trkpt>
      <trkpt lat="45.92487" lon="6.51284">
        <ele>2149.8000488281</ele>
        <time>2014-02-12T14:23:27.000Z</time>
      </trkpt>
      <trkpt lat="45.92487" lon="6.51284">
        <ele>2149.8000488281</ele>
        <time>2014-02-12T14:23:28.000Z</time>
      </trkpt>
      <trkpt lat="45.92487" lon="6.51284">
        <ele>2149.8000488281</ele>
        <time>2014-02-12T14:23:38.000Z</time>
      </trkpt>
      <trkpt lat="45.92487" lon="6.51284">
        <ele>2149.8000488281</ele>
        <time>2014-02-12T14:23:39.000Z</time>
      </trkpt>
      <trkpt lat="45.92487" lon="6.51284">
        <ele>2149.8000488281</ele>
        <time>2014-02-12T14:23:40.000Z</time>
      </trkpt>
      <trkpt lat="45.92487" lon="6.51284">
        <ele>2149.8000488281</ele>
        <time>2014-02-12T14:23:41.000Z</time>
      </trkpt>
      <trkpt lat="45.92487" lon="6.51284">
        <ele>2149.8000488281</ele>
        <time>2014-02-12T14:23:42.000Z</time>
      </trkpt>
      <trkpt lat="45.92487" lon="6.51284">
        <ele>2149.8000488281</ele>
        <time>2014-02-12T14:23:43.000Z</time>
      </trkpt>
      <trkpt lat="45.92487" lon="6.51284">
        <ele>2149.8000488281</ele>
        <time>2014-02-12T14:23:44.000Z</time>
      </trkpt>
      <trkpt lat="45.92487" lon="6.51284">
        <ele>2149.8000488281</ele>
        <time>2014-02-12T14:23:45.000Z</time>
      </trkpt>
      <trkpt lat="45.92487" lon="6.51284">
        <ele>2150</ele>
        <time>2014-02-12T14:23:46.000Z</time>
      </trkpt>
      <trkpt lat="45.92487" lon="6.51284">
        <ele>2150</ele>
        <time>2014-02-12T14:23:47.000Z</time>
      </trkpt>
      <trkpt lat="45.92487" lon="6.51284">
        <ele>2150</ele>
        <time>2014-02-12T14:23:48.000Z</time>
      </trkpt>
      <trkpt lat="45.92487" lon="6.51284">
        <ele>2150</ele>
        <time>2014-02-12T14:23:49.000Z</time>
      </trkpt>
      <trkpt lat="45.92487" lon="6.51284">
        <ele>2150</ele>
        <time>2014-02-12T14:23:50.000Z</time>
      </trkpt>
      <trkpt lat="45.92487" lon="6.51284">
        <ele>2150</ele>
        <time>2014-02-12T14:23:51.000Z</time>
      </trkpt>
      <trkpt lat="45.92487" lon="6.51284">
        <ele>2150</ele>
        <time>2014-02-12T14:23:52.000Z</time>
      </trkpt>
      <trkpt lat="45.92487" lon="6.51284">
        <ele>2150</ele>
        <time>2014-02-12T14:23:53.000Z</time>
      </trkpt>
      <trkpt lat="45.92487" lon="6.51284">
        <ele>2150</ele>
        <time>2014-02-12T14:23:54.000Z</time>
      </trkpt>
      <trkpt lat="45.92487" lon="6.51284">
        <ele>2150</ele>
        <time>2014-02-12T14:23:55.000Z</time>
      </trkpt>
      <trkpt lat="45.92487" lon="6.51284">
        <ele>2150</ele>
        <time>2014-02-12T14:23:57.000Z</time>
      </trkpt>
      <trkpt lat="45.92487" lon="6.51284">
        <ele>2150</ele>
        <time>2014-02-12T14:23:58.000Z</time>
      </trkpt>
      <trkpt lat="45.92487" lon="6.51284">
        <ele>2150</ele>
        <time>2014-02-12T14:23:59.000Z</time>
      </trkpt>
      <trkpt lat="45.92487" lon="6.51284">
        <ele>2150</ele>
        <time>2014-02-12T14:24:00.000Z</time>
      </trkpt>
      <trkpt lat="45.92487" lon="6.51284">
        <ele>2150</ele>
        <time>2014-02-12T14:24:01.000Z</time>
      </trkpt>
      <trkpt lat="45.92487" lon="6.51284">
        <ele>2150</ele>
        <time>2014-02-12T14:24:02.000Z</time>
      </trkpt>
      <trkpt lat="45.92487" lon="6.51284">
        <ele>2150</ele>
        <time>2014-02-12T14:24:03.000Z</time>
      </trkpt>
      <trkpt lat="45.92487" lon="6.51284">
        <ele>2150</ele>
        <time>2014-02-12T14:24:04.000Z</time>
      </trkpt>
      <trkpt lat="45.92487" lon="6.51284">
        <ele>2150</ele>
        <time>2014-02-12T14:24:05.000Z</time>
      </trkpt>
      <trkpt lat="45.92487" lon="6.51284">
        <ele>2150</ele>
        <time>2014-02-12T14:24:06.000Z</time>
      </trkpt>
      <trkpt lat="45.92487" lon="6.51284">
        <ele>2150</ele>
        <time>2014-02-12T14:24:09.000Z</time>
      </trkpt>
      <trkpt lat="45.92487" lon="6.51284">
        <ele>2150</ele>
        <time>2014-02-12T14:24:10.000Z</time>
      </trkpt>
      <trkpt lat="45.92487" lon="6.51284">
        <ele>2150</ele>
        <time>2014-02-12T14:24:11.000Z</time>
      </trkpt>
      <trkpt lat="45.92487" lon="6.51284">
        <ele>2150</ele>
        <time>2014-02-12T14:24:13.000Z</time>
      </trkpt>
      <trkpt lat="45.92487" lon="6.51284">
        <ele>2150</ele>
        <time>2014-02-12T14:24:14.000Z</time>
      </trkpt>
      <trkpt lat="45.92487" lon="6.51284">
        <ele>2150</ele>
        <time>2014-02-12T14:24:16.000Z</time>
      </trkpt>
      <trkpt lat="45.92487" lon="6.51284">
        <ele>2150</ele>
        <time>2014-02-12T14:24:17.000Z</time>
      </trkpt>
      <trkpt lat="45.92487" lon="6.51284">
        <ele>2150</ele>
        <time>2014-02-12T14:24:18.000Z</time>
      </trkpt>
      <trkpt lat="45.92487" lon="6.51284">
        <ele>2150</ele>
        <time>2014-02-12T14:24:19.000Z</time>
      </trkpt>
      <trkpt lat="45.92487" lon="6.51284">
        <ele>2150</ele>
        <time>2014-02-12T14:24:20.000Z</time>
      </trkpt>
      <trkpt lat="45.92487" lon="6.51284">
        <ele>2150</ele>
        <time>2014-02-12T14:24:21.000Z</time>
      </trkpt>
      <trkpt lat="45.92487" lon="6.51284">
        <ele>2150</ele>
        <time>2014-02-12T14:24:22.000Z</time>
      </trkpt>
      <trkpt lat="45.92487" lon="6.51284">
        <ele>2150</ele>
        <time>2014-02-12T14:24:23.000Z</time>
      </trkpt>
      <trkpt lat="45.92487" lon="6.51284">
        <ele>2150</ele>
        <time>2014-02-12T14:24:24.000Z</time>
      </trkpt>
      <trkpt lat="45.92487" lon="6.51284">
        <ele>2150</ele>
        <time>2014-02-12T14:24:25.000Z</time>
      </trkpt>
      <trkpt lat="45.92486" lon="6.51283">
        <ele>2150.1999511719</ele>
        <time>2014-02-12T14:24:26.000Z</time>
      </trkpt>
      <trkpt lat="45.92486" lon="6.51283">
        <ele>2150.1999511719</ele>
        <time>2014-02-12T14:24:27.000Z</time>
      </trkpt>
      <trkpt lat="45.92486" lon="6.51283">
        <ele>2150.1999511719</ele>
        <time>2014-02-12T14:24:28.000Z</time>
      </trkpt>
      <trkpt lat="45.92486" lon="6.51283">
        <ele>2150.1999511719</ele>
        <time>2014-02-12T14:24:29.000Z</time>
      </trkpt>
      <trkpt lat="45.92486" lon="6.51283">
        <ele>2150.1999511719</ele>
        <time>2014-02-12T14:24:30.000Z</time>
      </trkpt>
      <trkpt lat="45.92486" lon="6.51283">
        <ele>2150.1999511719</ele>
        <time>2014-02-12T14:24:31.000Z</time>
      </trkpt>
      <trkpt lat="45.92486" lon="6.51283">
        <ele>2150.1999511719</ele>
        <time>2014-02-12T14:24:32.000Z</time>
      </trkpt>
      <trkpt lat="45.92486" lon="6.51283">
        <ele>2150.1999511719</ele>
        <time>2014-02-12T14:24:33.000Z</time>
      </trkpt>
      <trkpt lat="45.92486" lon="6.51283">
        <ele>2150.1999511719</ele>
        <time>2014-02-12T14:24:34.000Z</time>
      </trkpt>
      <trkpt lat="45.92486" lon="6.51283">
        <ele>2150.1999511719</ele>
        <time>2014-02-12T14:24:37.000Z</time>
      </trkpt>
      <trkpt lat="45.92486" lon="6.51283">
        <ele>2150.1999511719</ele>
        <time>2014-02-12T14:24:41.000Z</time>
      </trkpt>
      <trkpt lat="45.92486" lon="6.51283">
        <ele>2150.1999511719</ele>
        <time>2014-02-12T14:24:42.000Z</time>
      </trkpt>
      <trkpt lat="45.92486" lon="6.51283">
        <ele>2150.1999511719</ele>
        <time>2014-02-12T14:24:43.000Z</time>
      </trkpt>
      <trkpt lat="45.92486" lon="6.51283">
        <ele>2150.1999511719</ele>
        <time>2014-02-12T14:24:44.000Z</time>
      </trkpt>
      <trkpt lat="45.92486" lon="6.51283">
        <ele>2150.1999511719</ele>
        <time>2014-02-12T14:24:45.000Z</time>
      </trkpt>
      <trkpt lat="45.92486" lon="6.51283">
        <ele>2150.1999511719</ele>
        <time>2014-02-12T14:24:46.000Z</time>
      </trkpt>
      <trkpt lat="45.92486" lon="6.51283">
        <ele>2150.1999511719</ele>
        <time>2014-02-12T14:24:47.000Z</time>
      </trkpt>
      <trkpt lat="45.92486" lon="6.51283">
        <ele>2150.1999511719</ele>
        <time>2014-02-12T14:24:48.000Z</time>
      </trkpt>
      <trkpt lat="45.92486" lon="6.51283">
        <ele>2150.1999511719</ele>
        <time>2014-02-12T14:24:51.000Z</time>
      </trkpt>
      <trkpt lat="45.92486" lon="6.51283">
        <ele>2150.1999511719</ele>
        <time>2014-02-12T14:24:52.000Z</time>
      </trkpt>
      <trkpt lat="45.92486" lon="6.51283">
        <ele>2150.1999511719</ele>
        <time>2014-02-12T14:24:53.000Z</time>
      </trkpt>
      <trkpt lat="45.92486" lon="6.51283">
        <ele>2150.1999511719</ele>
        <time>2014-02-12T14:24:54.000Z</time>
      </trkpt>
      <trkpt lat="45.92486" lon="6.51283">
        <ele>2150.1999511719</ele>
        <time>2014-02-12T14:24:55.000Z</time>
      </trkpt>
      <trkpt lat="45.92486" lon="6.51283">
        <ele>2150.1999511719</ele>
        <time>2014-02-12T14:24:56.000Z</time>
      </trkpt>
      <trkpt lat="45.92486" lon="6.51283">
        <ele>2150.1999511719</ele>
        <time>2014-02-12T14:24:57.000Z</time>
      </trkpt>
      <trkpt lat="45.92486" lon="6.51283">
        <ele>2150.1999511719</ele>
        <time>2014-02-12T14:24:58.000Z</time>
      </trkpt>
      <trkpt lat="45.92486" lon="6.51283">
        <ele>2150.1999511719</ele>
        <time>2014-02-12T14:24:59.000Z</time>
      </trkpt>
      <trkpt lat="45.92486" lon="6.51283">
        <ele>2150.1999511719</ele>
        <time>2014-02-12T14:25:00.000Z</time>
      </trkpt>
      <trkpt lat="45.92486" lon="6.51283">
        <ele>2150.1999511719</ele>
        <time>2014-02-12T14:25:01.000Z</time>
      </trkpt>
      <trkpt lat="45.92486" lon="6.51283">
        <ele>2150.1999511719</ele>
        <time>2014-02-12T14:25:02.000Z</time>
      </trkpt>
      <trkpt lat="45.92488" lon="6.51286">
        <ele>2149</ele>
        <time>2014-02-12T14:25:05.000Z</time>
      </trkpt>
      <trkpt lat="45.9249" lon="6.51289">
        <ele>2148</ele>
        <time>2014-02-12T14:25:06.000Z</time>
      </trkpt>
      <trkpt lat="45.9249" lon="6.51289">
        <ele>2147.8000488281</ele>
        <time>2014-02-12T14:25:07.000Z</time>
      </trkpt>
      <trkpt lat="45.9249" lon="6.5129">
        <ele>2147.8000488281</ele>
        <time>2014-02-12T14:25:08.000Z</time>
      </trkpt>
      <trkpt lat="45.9249" lon="6.5129">
        <ele>2147.8000488281</ele>
        <time>2014-02-12T14:25:09.000Z</time>
      </trkpt>
      <trkpt lat="45.9249" lon="6.5129">
        <ele>2147.8000488281</ele>
        <time>2014-02-12T14:25:10.000Z</time>
      </trkpt>
      <trkpt lat="45.9249" lon="6.5129">
        <ele>2147.8000488281</ele>
        <time>2014-02-12T14:25:11.000Z</time>
      </trkpt>
      <trkpt lat="45.9249" lon="6.5129">
        <ele>2147.8000488281</ele>
        <time>2014-02-12T14:25:13.000Z</time>
      </trkpt>
      <trkpt lat="45.9249" lon="6.5129">
        <ele>2147.8000488281</ele>
        <time>2014-02-12T14:25:14.000Z</time>
      </trkpt>
      <trkpt lat="45.9249" lon="6.5129">
        <ele>2147.8000488281</ele>
        <time>2014-02-12T14:25:15.000Z</time>
      </trkpt>
      <trkpt lat="45.9249" lon="6.51289">
        <ele>2147.8000488281</ele>
        <time>2014-02-12T14:25:16.000Z</time>
      </trkpt>
      <trkpt lat="45.92491" lon="6.51287">
        <ele>2147.6000976562</ele>
        <time>2014-02-12T14:25:17.000Z</time>
      </trkpt>
      <trkpt lat="45.92492" lon="6.51286">
        <ele>2146.8000488281</ele>
        <time>2014-02-12T14:25:18.000Z</time>
      </trkpt>
      <trkpt lat="45.92494" lon="6.51287">
        <ele>2145.3999023438</ele>
        <time>2014-02-12T14:25:19.000Z</time>
      </trkpt>
      <trkpt lat="45.92495" lon="6.51287">
        <ele>2144.8000488281</ele>
        <time>2014-02-12T14:25:20.000Z</time>
      </trkpt>
      <trkpt lat="45.92496" lon="6.51287">
        <ele>2144.3999023438</ele>
        <time>2014-02-12T14:25:21.000Z</time>
      </trkpt>
      <trkpt lat="45.92496" lon="6.51287">
        <ele>2144.3999023438</ele>
        <time>2014-02-12T14:25:22.000Z</time>
      </trkpt>
      <trkpt lat="45.92496" lon="6.51287">
        <ele>2144.3999023438</ele>
        <time>2014-02-12T14:25:23.000Z</time>
      </trkpt>
      <trkpt lat="45.92496" lon="6.51287">
        <ele>2144.3999023438</ele>
        <time>2014-02-12T14:25:24.000Z</time>
      </trkpt>
      <trkpt lat="45.92496" lon="6.51287">
        <ele>2144.3999023438</ele>
        <time>2014-02-12T14:25:25.000Z</time>
      </trkpt>
      <trkpt lat="45.92496" lon="6.51287">
        <ele>2144.3999023438</ele>
        <time>2014-02-12T14:25:26.000Z</time>
      </trkpt>
      <trkpt lat="45.92496" lon="6.51286">
        <ele>2144</ele>
        <time>2014-02-12T14:25:27.000Z</time>
      </trkpt>
      <trkpt lat="45.92497" lon="6.51284">
        <ele>2143.6000976562</ele>
        <time>2014-02-12T14:25:28.000Z</time>
      </trkpt>
      <trkpt lat="45.92498" lon="6.51283">
        <ele>2143.1999511719</ele>
        <time>2014-02-12T14:25:29.000Z</time>
      </trkpt>
      <trkpt lat="45.925" lon="6.51284">
        <ele>2141.8000488281</ele>
        <time>2014-02-12T14:25:30.000Z</time>
      </trkpt>
      <trkpt lat="45.92502" lon="6.51283">
        <ele>2140.6000976562</ele>
        <time>2014-02-12T14:25:31.000Z</time>
      </trkpt>
      <trkpt lat="45.92503" lon="6.51283">
        <ele>2139.6000976562</ele>
        <time>2014-02-12T14:25:32.000Z</time>
      </trkpt>
      <trkpt lat="45.92504" lon="6.51281">
        <ele>2138.6000976562</ele>
        <time>2014-02-12T14:25:33.000Z</time>
      </trkpt>
      <trkpt lat="45.92506" lon="6.51281">
        <ele>2137.6000976562</ele>
        <time>2014-02-12T14:25:34.000Z</time>
      </trkpt>
      <trkpt lat="45.92508" lon="6.51282">
        <ele>2136.1999511719</ele>
        <time>2014-02-12T14:25:35.000Z</time>
      </trkpt>
      <trkpt lat="45.92511" lon="6.51282">
        <ele>2134.8000488281</ele>
        <time>2014-02-12T14:25:36.000Z</time>
      </trkpt>
      <trkpt lat="45.92513" lon="6.51282">
        <ele>2133.3999023438</ele>
        <time>2014-02-12T14:25:37.000Z</time>
      </trkpt>
      <trkpt lat="45.92516" lon="6.51283">
        <ele>2131.6000976562</ele>
        <time>2014-02-12T14:25:38.000Z</time>
      </trkpt>
      <trkpt lat="45.92518" lon="6.51283">
        <ele>2129.8000488281</ele>
        <time>2014-02-12T14:25:39.000Z</time>
      </trkpt>
      <trkpt lat="45.92521" lon="6.51283">
        <ele>2128.1999511719</ele>
        <time>2014-02-12T14:25:40.000Z</time>
      </trkpt>
      <trkpt lat="45.92524" lon="6.51283">
        <ele>2127</ele>
        <time>2014-02-12T14:25:41.000Z</time>
      </trkpt>
      <trkpt lat="45.92525" lon="6.51284">
        <ele>2126</ele>
        <time>2014-02-12T14:25:42.000Z</time>
      </trkpt>
      <trkpt lat="45.92528" lon="6.51286">
        <ele>2124.8000488281</ele>
        <time>2014-02-12T14:25:43.000Z</time>
      </trkpt>
      <trkpt lat="45.9253" lon="6.51287">
        <ele>2124.8000488281</ele>
        <time>2014-02-12T14:25:44.000Z</time>
      </trkpt>
      <trkpt lat="45.92533" lon="6.51287">
        <ele>2125</ele>
        <time>2014-02-12T14:25:45.000Z</time>
      </trkpt>
      <trkpt lat="45.92534" lon="6.51289">
        <ele>2123.8000488281</ele>
        <time>2014-02-12T14:25:46.000Z</time>
      </trkpt>
      <trkpt lat="45.92537" lon="6.5129">
        <ele>2123.1999511719</ele>
        <time>2014-02-12T14:25:47.000Z</time>
      </trkpt>
      <trkpt lat="45.9254" lon="6.51291">
        <ele>2123.3999023438</ele>
        <time>2014-02-12T14:25:48.000Z</time>
      </trkpt>
      <trkpt lat="45.92542" lon="6.5129">
        <ele>2123.8000488281</ele>
        <time>2014-02-12T14:25:49.000Z</time>
      </trkpt>
      <trkpt lat="45.92545" lon="6.5129">
        <ele>2124.8000488281</ele>
        <time>2014-02-12T14:25:50.000Z</time>
      </trkpt>
      <trkpt lat="45.92548" lon="6.51289">
        <ele>2125.6000976562</ele>
        <time>2014-02-12T14:25:51.000Z</time>
      </trkpt>
      <trkpt lat="45.9255" lon="6.51288">
        <ele>2126.6000976562</ele>
        <time>2014-02-12T14:25:52.000Z</time>
      </trkpt>
      <trkpt lat="45.92553" lon="6.51288">
        <ele>2127.1999511719</ele>
        <time>2014-02-12T14:25:53.000Z</time>
      </trkpt>
      <trkpt lat="45.92555" lon="6.51287">
        <ele>2128</ele>
        <time>2014-02-12T14:25:54.000Z</time>
      </trkpt>
      <trkpt lat="45.92557" lon="6.51287">
        <ele>2128.6000976562</ele>
        <time>2014-02-12T14:25:55.000Z</time>
      </trkpt>
      <trkpt lat="45.92559" lon="6.51286">
        <ele>2126.3999023438</ele>
        <time>2014-02-12T14:25:56.000Z</time>
      </trkpt>
      <trkpt lat="45.92561" lon="6.51286">
        <ele>2124.3999023438</ele>
        <time>2014-02-12T14:25:57.000Z</time>
      </trkpt>
      <trkpt lat="45.92562" lon="6.51285">
        <ele>2122.8000488281</ele>
        <time>2014-02-12T14:25:58.000Z</time>
      </trkpt>
      <trkpt lat="45.92563" lon="6.51285">
        <ele>2121.6000976562</ele>
        <time>2014-02-12T14:25:59.000Z</time>
      </trkpt>
      <trkpt lat="45.92564" lon="6.51285">
        <ele>2120.6000976562</ele>
        <time>2014-02-12T14:26:00.000Z</time>
      </trkpt>
      <trkpt lat="45.92564" lon="6.51284">
        <ele>2121.1999511719</ele>
        <time>2014-02-12T14:26:01.000Z</time>
      </trkpt>
      <trkpt lat="45.92564" lon="6.51282">
        <ele>2122.6000976562</ele>
        <time>2014-02-12T14:26:02.000Z</time>
      </trkpt>
      <trkpt lat="45.92563" lon="6.5128">
        <ele>2124.1999511719</ele>
        <time>2014-02-12T14:26:03.000Z</time>
      </trkpt>
      <trkpt lat="45.92562" lon="6.51281">
        <ele>2125.6000976562</ele>
        <time>2014-02-12T14:26:04.000Z</time>
      </trkpt>
      <trkpt lat="45.92563" lon="6.51281">
        <ele>2123.6000976562</ele>
        <time>2014-02-12T14:26:05.000Z</time>
      </trkpt>
      <trkpt lat="45.92561" lon="6.51285">
        <ele>2124.1999511719</ele>
        <time>2014-02-12T14:26:06.000Z</time>
      </trkpt>
      <trkpt lat="45.92562" lon="6.51285">
        <ele>2122.3999023438</ele>
        <time>2014-02-12T14:26:07.000Z</time>
      </trkpt>
      <trkpt lat="45.92564" lon="6.51284">
        <ele>2120</ele>
        <time>2014-02-12T14:26:08.000Z</time>
      </trkpt>
      <trkpt lat="45.92567" lon="6.51283">
        <ele>2117.1999511719</ele>
        <time>2014-02-12T14:26:09.000Z</time>
      </trkpt>
      <trkpt lat="45.92567" lon="6.51283">
        <ele>2116.1999511719</ele>
        <time>2014-02-12T14:26:10.000Z</time>
      </trkpt>
      <trkpt lat="45.9257" lon="6.51282">
        <ele>2114</ele>
        <time>2014-02-12T14:26:11.000Z</time>
      </trkpt>
      <trkpt lat="45.92572" lon="6.5128">
        <ele>2112.1999511719</ele>
        <time>2014-02-12T14:26:12.000Z</time>
      </trkpt>
      <trkpt lat="45.92574" lon="6.51278">
        <ele>2111</ele>
        <time>2014-02-12T14:26:13.000Z</time>
      </trkpt>
      <trkpt lat="45.92574" lon="6.51281">
        <ele>2107.8000488281</ele>
        <time>2014-02-12T14:26:14.000Z</time>
      </trkpt>
      <trkpt lat="45.92575" lon="6.51283">
        <ele>2104.6000976562</ele>
        <time>2014-02-12T14:26:15.000Z</time>
      </trkpt>
      <trkpt lat="45.92577" lon="6.51284">
        <ele>2101.1999511719</ele>
        <time>2014-02-12T14:26:16.000Z</time>
      </trkpt>
      <trkpt lat="45.92579" lon="6.51285">
        <ele>2098.3999023438</ele>
        <time>2014-02-12T14:26:17.000Z</time>
      </trkpt>
      <trkpt lat="45.92579" lon="6.51289">
        <ele>2095.8000488281</ele>
        <time>2014-02-12T14:26:18.000Z</time>
      </trkpt>
      <trkpt lat="45.9258" lon="6.51294">
        <ele>2090.6000976562</ele>
        <time>2014-02-12T14:26:19.000Z</time>
      </trkpt>
      <trkpt lat="45.92582" lon="6.51295">
        <ele>2085.6000976562</ele>
        <time>2014-02-12T14:26:20.000Z</time>
      </trkpt>
      <trkpt lat="45.92585" lon="6.51296">
        <ele>2081.1999511719</ele>
        <time>2014-02-12T14:26:21.000Z</time>
      </trkpt>
      <trkpt lat="45.92587" lon="6.513">
        <ele>2075.6000976562</ele>
        <time>2014-02-12T14:26:22.000Z</time>
      </trkpt>
      <trkpt lat="45.92587" lon="6.51306">
        <ele>2070.6000976562</ele>
        <time>2014-02-12T14:26:23.000Z</time>
      </trkpt>
      <trkpt lat="45.92587" lon="6.51311">
        <ele>2066.1999511719</ele>
        <time>2014-02-12T14:26:24.000Z</time>
      </trkpt>
      <trkpt lat="45.92588" lon="6.51312">
        <ele>2064.1999511719</ele>
        <time>2014-02-12T14:26:25.000Z</time>
      </trkpt>
      <trkpt lat="45.92589" lon="6.51314">
        <ele>2062.1999511719</ele>
        <time>2014-02-12T14:26:26.000Z</time>
      </trkpt>
      <trkpt lat="45.9259" lon="6.51314">
        <ele>2060</ele>
        <time>2014-02-12T14:26:27.000Z</time>
      </trkpt>
      <trkpt lat="45.92591" lon="6.51317">
        <ele>2056.3999023438</ele>
        <time>2014-02-12T14:26:28.000Z</time>
      </trkpt>
      <trkpt lat="45.92592" lon="6.5132">
        <ele>2053.3999023438</ele>
        <time>2014-02-12T14:26:29.000Z</time>
      </trkpt>
      <trkpt lat="45.92594" lon="6.51324">
        <ele>2050.1999511719</ele>
        <time>2014-02-12T14:26:30.000Z</time>
      </trkpt>
      <trkpt lat="45.92597" lon="6.51322">
        <ele>2046.1999511719</ele>
        <time>2014-02-12T14:26:31.000Z</time>
      </trkpt>
      <trkpt lat="45.92599" lon="6.51324">
        <ele>2042.8000488281</ele>
        <time>2014-02-12T14:26:32.000Z</time>
      </trkpt>
      <trkpt lat="45.926" lon="6.51325">
        <ele>2040.1999511719</ele>
        <time>2014-02-12T14:26:33.000Z</time>
      </trkpt>
      <trkpt lat="45.92604" lon="6.51321">
        <ele>2036.8000488281</ele>
        <time>2014-02-12T14:26:34.000Z</time>
      </trkpt>
      <trkpt lat="45.92607" lon="6.51318">
        <ele>2032.8000488281</ele>
        <time>2014-02-12T14:26:35.000Z</time>
      </trkpt>
      <trkpt lat="45.9261" lon="6.51316">
        <ele>2029</ele>
        <time>2014-02-12T14:26:36.000Z</time>
      </trkpt>
      <trkpt lat="45.92613" lon="6.51316">
        <ele>2024.8000488281</ele>
        <time>2014-02-12T14:26:37.000Z</time>
      </trkpt>
      <trkpt lat="45.92616" lon="6.51315">
        <ele>2021.4000244141</ele>
        <time>2014-02-12T14:26:38.000Z</time>
      </trkpt>
      <trkpt lat="45.92619" lon="6.51313">
        <ele>2019</ele>
        <time>2014-02-12T14:26:39.000Z</time>
      </trkpt>
      <trkpt lat="45.92621" lon="6.51312">
        <ele>2016.4000244141</ele>
        <time>2014-02-12T14:26:40.000Z</time>
      </trkpt>
      <trkpt lat="45.92623" lon="6.51311">
        <ele>2014</ele>
        <time>2014-02-12T14:26:41.000Z</time>
      </trkpt>
      <trkpt lat="45.92625" lon="6.5131">
        <ele>2012</ele>
        <time>2014-02-12T14:26:42.000Z</time>
      </trkpt>
      <trkpt lat="45.92627" lon="6.51309">
        <ele>2010</ele>
        <time>2014-02-12T14:26:43.000Z</time>
      </trkpt>
      <trkpt lat="45.92629" lon="6.51307">
        <ele>2008.1999511719</ele>
        <time>2014-02-12T14:26:44.000Z</time>
      </trkpt>
      <trkpt lat="45.92631" lon="6.51306">
        <ele>2006.5999755859</ele>
        <time>2014-02-12T14:26:45.000Z</time>
      </trkpt>
      <trkpt lat="45.92632" lon="6.51304">
        <ele>2005</ele>
        <time>2014-02-12T14:26:46.000Z</time>
      </trkpt>
      <trkpt lat="45.92634" lon="6.51303">
        <ele>2003.5999755859</ele>
        <time>2014-02-12T14:26:47.000Z</time>
      </trkpt>
      <trkpt lat="45.92635" lon="6.51301">
        <ele>2002</ele>
        <time>2014-02-12T14:26:48.000Z</time>
      </trkpt>
      <trkpt lat="45.92637" lon="6.51299">
        <ele>2001.4000244141</ele>
        <time>2014-02-12T14:26:49.000Z</time>
      </trkpt>
      <trkpt lat="45.92634" lon="6.51298">
        <ele>2005.1999511719</ele>
        <time>2014-02-12T14:26:50.000Z</time>
      </trkpt>
      <trkpt lat="45.92633" lon="6.51298">
        <ele>2007.5999755859</ele>
        <time>2014-02-12T14:26:51.000Z</time>
      </trkpt>
      <trkpt lat="45.92632" lon="6.51298">
        <ele>2009.5999755859</ele>
        <time>2014-02-12T14:26:52.000Z</time>
      </trkpt>
      <trkpt lat="45.9263" lon="6.51298">
        <ele>2011.8000488281</ele>
        <time>2014-02-12T14:26:53.000Z</time>
      </trkpt>
      <trkpt lat="45.9263" lon="6.51298">
        <ele>2011.8000488281</ele>
        <time>2014-02-12T14:26:55.000Z</time>
      </trkpt>
      <trkpt lat="45.9263" lon="6.51298">
        <ele>2011.8000488281</ele>
        <time>2014-02-12T14:26:56.000Z</time>
      </trkpt>
      <trkpt lat="45.9263" lon="6.51298">
        <ele>2011.8000488281</ele>
        <time>2014-02-12T14:26:57.000Z</time>
      </trkpt>
      <trkpt lat="45.9263" lon="6.51298">
        <ele>2011.8000488281</ele>
        <time>2014-02-12T14:26:58.000Z</time>
      </trkpt>
      <trkpt lat="45.9263" lon="6.51298">
        <ele>2011.8000488281</ele>
        <time>2014-02-12T14:26:59.000Z</time>
      </trkpt>
      <trkpt lat="45.9263" lon="6.51298">
        <ele>2011.8000488281</ele>
        <time>2014-02-12T14:27:01.000Z</time>
      </trkpt>
      <trkpt lat="45.9263" lon="6.51298">
        <ele>2011.8000488281</ele>
        <time>2014-02-12T14:27:05.000Z</time>
      </trkpt>
      <trkpt lat="45.9263" lon="6.51298">
        <ele>2011.8000488281</ele>
        <time>2014-02-12T14:27:06.000Z</time>
      </trkpt>
      <trkpt lat="45.9263" lon="6.51298">
        <ele>2011.8000488281</ele>
        <time>2014-02-12T14:27:07.000Z</time>
      </trkpt>
      <trkpt lat="45.9263" lon="6.51298">
        <ele>2011.8000488281</ele>
        <time>2014-02-12T14:27:08.000Z</time>
      </trkpt>
      <trkpt lat="45.9263" lon="6.51298">
        <ele>2011.8000488281</ele>
        <time>2014-02-12T14:27:09.000Z</time>
      </trkpt>
      <trkpt lat="45.9263" lon="6.51298">
        <ele>2011.8000488281</ele>
        <time>2014-02-12T14:27:13.000Z</time>
      </trkpt>
      <trkpt lat="45.9263" lon="6.51298">
        <ele>2011.8000488281</ele>
        <time>2014-02-12T14:27:20.000Z</time>
      </trkpt>
      <trkpt lat="45.9263" lon="6.51298">
        <ele>2011.8000488281</ele>
        <time>2014-02-12T14:27:21.000Z</time>
      </trkpt>
      <trkpt lat="45.9263" lon="6.51298">
        <ele>2011.8000488281</ele>
        <time>2014-02-12T14:27:22.000Z</time>
      </trkpt>
      <trkpt lat="45.9263" lon="6.51298">
        <ele>2011.8000488281</ele>
        <time>2014-02-12T14:27:23.000Z</time>
      </trkpt>
      <trkpt lat="45.9263" lon="6.51298">
        <ele>2011.8000488281</ele>
        <time>2014-02-12T14:27:28.000Z</time>
      </trkpt>
      <trkpt lat="45.9263" lon="6.51298">
        <ele>2011.8000488281</ele>
        <time>2014-02-12T14:27:29.000Z</time>
      </trkpt>
      <trkpt lat="45.9263" lon="6.51298">
        <ele>2011.8000488281</ele>
        <time>2014-02-12T14:27:30.000Z</time>
      </trkpt>
      <trkpt lat="45.9263" lon="6.51298">
        <ele>2011.8000488281</ele>
        <time>2014-02-12T14:27:32.000Z</time>
      </trkpt>
      <trkpt lat="45.9263" lon="6.51298">
        <ele>2012.1999511719</ele>
        <time>2014-02-12T14:27:33.000Z</time>
      </trkpt>
      <trkpt lat="45.9263" lon="6.51298">
        <ele>2012.1999511719</ele>
        <time>2014-02-12T14:27:35.000Z</time>
      </trkpt>
      <trkpt lat="45.9263" lon="6.51298">
        <ele>2012.1999511719</ele>
        <time>2014-02-12T14:27:36.000Z</time>
      </trkpt>
      <trkpt lat="45.9263" lon="6.51298">
        <ele>2012.1999511719</ele>
        <time>2014-02-12T14:27:37.000Z</time>
      </trkpt>
      <trkpt lat="45.9263" lon="6.51298">
        <ele>2012.1999511719</ele>
        <time>2014-02-12T14:27:38.000Z</time>
      </trkpt>
      <trkpt lat="45.9263" lon="6.51298">
        <ele>2012.1999511719</ele>
        <time>2014-02-12T14:27:39.000Z</time>
      </trkpt>
      <trkpt lat="45.9263" lon="6.51298">
        <ele>2012.1999511719</ele>
        <time>2014-02-12T14:27:41.000Z</time>
      </trkpt>
      <trkpt lat="45.9263" lon="6.51298">
        <ele>2012.1999511719</ele>
        <time>2014-02-12T14:27:43.000Z</time>
      </trkpt>
      <trkpt lat="45.9263" lon="6.51298">
        <ele>2012.1999511719</ele>
        <time>2014-02-12T14:27:48.000Z</time>
      </trkpt>
      <trkpt lat="45.9263" lon="6.51298">
        <ele>2012.1999511719</ele>
        <time>2014-02-12T14:27:49.000Z</time>
      </trkpt>
      <trkpt lat="45.9263" lon="6.51298">
        <ele>2012.1999511719</ele>
        <time>2014-02-12T14:27:52.000Z</time>
      </trkpt>
      <trkpt lat="45.9263" lon="6.51298">
        <ele>2012.1999511719</ele>
        <time>2014-02-12T14:27:53.000Z</time>
      </trkpt>
      <trkpt lat="45.9263" lon="6.51298">
        <ele>2012.1999511719</ele>
        <time>2014-02-12T14:27:54.000Z</time>
      </trkpt>
      <trkpt lat="45.9263" lon="6.51298">
        <ele>2012.1999511719</ele>
        <time>2014-02-12T14:27:55.000Z</time>
      </trkpt>
      <trkpt lat="45.9263" lon="6.51298">
        <ele>2012.1999511719</ele>
        <time>2014-02-12T14:27:56.000Z</time>
      </trkpt>
      <trkpt lat="45.9263" lon="6.51298">
        <ele>2012.1999511719</ele>
        <time>2014-02-12T14:27:57.000Z</time>
      </trkpt>
      <trkpt lat="45.9263" lon="6.51298">
        <ele>2012.1999511719</ele>
        <time>2014-02-12T14:27:59.000Z</time>
      </trkpt>
      <trkpt lat="45.9263" lon="6.51298">
        <ele>2012.1999511719</ele>
        <time>2014-02-12T14:28:00.000Z</time>
      </trkpt>
      <trkpt lat="45.9263" lon="6.51298">
        <ele>2012.1999511719</ele>
        <time>2014-02-12T14:28:01.000Z</time>
      </trkpt>
      <trkpt lat="45.9263" lon="6.51298">
        <ele>2012.1999511719</ele>
        <time>2014-02-12T14:28:02.000Z</time>
      </trkpt>
      <trkpt lat="45.9263" lon="6.51298">
        <ele>2012.1999511719</ele>
        <time>2014-02-12T14:28:05.000Z</time>
      </trkpt>
      <trkpt lat="45.9263" lon="6.51298">
        <ele>2012.1999511719</ele>
        <time>2014-02-12T14:28:06.000Z</time>
      </trkpt>
      <trkpt lat="45.9263" lon="6.51298">
        <ele>2012.1999511719</ele>
        <time>2014-02-12T14:28:07.000Z</time>
      </trkpt>
      <trkpt lat="45.9263" lon="6.51298">
        <ele>2012.1999511719</ele>
        <time>2014-02-12T14:28:08.000Z</time>
      </trkpt>
      <trkpt lat="45.9263" lon="6.51298">
        <ele>2012.8000488281</ele>
        <time>2014-02-12T14:28:13.000Z</time>
      </trkpt>
      <trkpt lat="45.9263" lon="6.51298">
        <ele>2012.8000488281</ele>
        <time>2014-02-12T14:28:14.000Z</time>
      </trkpt>
      <trkpt lat="45.9263" lon="6.51298">
        <ele>2012.8000488281</ele>
        <time>2014-02-12T14:28:15.000Z</time>
      </trkpt>
      <trkpt lat="45.9263" lon="6.51298">
        <ele>2012.8000488281</ele>
        <time>2014-02-12T14:28:16.000Z</time>
      </trkpt>
      <trkpt lat="45.9263" lon="6.51298">
        <ele>2012.8000488281</ele>
        <time>2014-02-12T14:28:17.000Z</time>
      </trkpt>
      <trkpt lat="45.9263" lon="6.51298">
        <ele>2012.8000488281</ele>
        <time>2014-02-12T14:28:18.000Z</time>
      </trkpt>
      <trkpt lat="45.9263" lon="6.51298">
        <ele>2012.8000488281</ele>
        <time>2014-02-12T14:28:21.000Z</time>
      </trkpt>
      <trkpt lat="45.9263" lon="6.51298">
        <ele>2012.8000488281</ele>
        <time>2014-02-12T14:28:22.000Z</time>
      </trkpt>
      <trkpt lat="45.9263" lon="6.51298">
        <ele>2012.8000488281</ele>
        <time>2014-02-12T14:28:23.000Z</time>
      </trkpt>
      <trkpt lat="45.9263" lon="6.51298">
        <ele>2012.8000488281</ele>
        <time>2014-02-12T14:28:24.000Z</time>
      </trkpt>
      <trkpt lat="45.9263" lon="6.51298">
        <ele>2012.8000488281</ele>
        <time>2014-02-12T14:28:25.000Z</time>
      </trkpt>
      <trkpt lat="45.9263" lon="6.51298">
        <ele>2012.8000488281</ele>
        <time>2014-02-12T14:28:26.000Z</time>
      </trkpt>
      <trkpt lat="45.9263" lon="6.51298">
        <ele>2012.8000488281</ele>
        <time>2014-02-12T14:28:27.000Z</time>
      </trkpt>
      <trkpt lat="45.9263" lon="6.51298">
        <ele>2012.8000488281</ele>
        <time>2014-02-12T14:28:31.000Z</time>
      </trkpt>
      <trkpt lat="45.9263" lon="6.51298">
        <ele>2012.8000488281</ele>
        <time>2014-02-12T14:28:35.000Z</time>
      </trkpt>
      <trkpt lat="45.9263" lon="6.51298">
        <ele>2012.8000488281</ele>
        <time>2014-02-12T14:28:36.000Z</time>
      </trkpt>
      <trkpt lat="45.9263" lon="6.51298">
        <ele>2012.8000488281</ele>
        <time>2014-02-12T14:28:37.000Z</time>
      </trkpt>
      <trkpt lat="45.9263" lon="6.51298">
        <ele>2012.8000488281</ele>
        <time>2014-02-12T14:28:38.000Z</time>
      </trkpt>
      <trkpt lat="45.9263" lon="6.51298">
        <ele>2012.8000488281</ele>
        <time>2014-02-12T14:28:40.000Z</time>
      </trkpt>
      <trkpt lat="45.9263" lon="6.51298">
        <ele>2012.8000488281</ele>
        <time>2014-02-12T14:28:41.000Z</time>
      </trkpt>
      <trkpt lat="45.9263" lon="6.51298">
        <ele>2012.8000488281</ele>
        <time>2014-02-12T14:28:42.000Z</time>
      </trkpt>
      <trkpt lat="45.9263" lon="6.51298">
        <ele>2012.8000488281</ele>
        <time>2014-02-12T14:28:43.000Z</time>
      </trkpt>
      <trkpt lat="45.9263" lon="6.51298">
        <ele>2012.8000488281</ele>
        <time>2014-02-12T14:28:44.000Z</time>
      </trkpt>
      <trkpt lat="45.9263" lon="6.51298">
        <ele>2012.8000488281</ele>
        <time>2014-02-12T14:28:45.000Z</time>
      </trkpt>
      <trkpt lat="45.9263" lon="6.51298">
        <ele>2012.8000488281</ele>
        <time>2014-02-12T14:28:46.000Z</time>
      </trkpt>
      <trkpt lat="45.9263" lon="6.51298">
        <ele>2012.8000488281</ele>
        <time>2014-02-12T14:28:47.000Z</time>
      </trkpt>
      <trkpt lat="45.9263" lon="6.51298">
        <ele>2012.8000488281</ele>
        <time>2014-02-12T14:28:48.000Z</time>
      </trkpt>
      <trkpt lat="45.9263" lon="6.51298">
        <ele>2012.8000488281</ele>
        <time>2014-02-12T14:28:51.000Z</time>
      </trkpt>
      <trkpt lat="45.9263" lon="6.51299">
        <ele>2012.1999511719</ele>
        <time>2014-02-12T14:28:52.000Z</time>
      </trkpt>
      <trkpt lat="45.92628" lon="6.51303">
        <ele>2012</ele>
        <time>2014-02-12T14:28:53.000Z</time>
      </trkpt>
      <trkpt lat="45.92629" lon="6.51305">
        <ele>2009.1999511719</ele>
        <time>2014-02-12T14:28:54.000Z</time>
      </trkpt>
      <trkpt lat="45.92624" lon="6.51311">
        <ele>2012.8000488281</ele>
        <time>2014-02-12T14:28:55.000Z</time>
      </trkpt>
      <trkpt lat="45.92622" lon="6.51318">
        <ele>2010.5999755859</ele>
        <time>2014-02-12T14:28:56.000Z</time>
      </trkpt>
      <trkpt lat="45.92624" lon="6.51319">
        <ele>2007.1999511719</ele>
        <time>2014-02-12T14:28:57.000Z</time>
      </trkpt>
      <trkpt lat="45.92627" lon="6.51321">
        <ele>2003.1999511719</ele>
        <time>2014-02-12T14:28:58.000Z</time>
      </trkpt>
      <trkpt lat="45.92628" lon="6.5132">
        <ele>2000.5999755859</ele>
        <time>2014-02-12T14:28:59.000Z</time>
      </trkpt>
      <trkpt lat="45.92628" lon="6.51322">
        <ele>2001</ele>
        <time>2014-02-12T14:29:00.000Z</time>
      </trkpt>
      <trkpt lat="45.92626" lon="6.51324">
        <ele>2002.8000488281</ele>
        <time>2014-02-12T14:29:01.000Z</time>
      </trkpt>
      <trkpt lat="45.92626" lon="6.51325">
        <ele>2003.4000244141</ele>
        <time>2014-02-12T14:29:02.000Z</time>
      </trkpt>
      <trkpt lat="45.92625" lon="6.51327">
        <ele>2004.1999511719</ele>
        <time>2014-02-12T14:29:03.000Z</time>
      </trkpt>
      <trkpt lat="45.92625" lon="6.51327">
        <ele>2004.1999511719</ele>
        <time>2014-02-12T14:29:04.000Z</time>
      </trkpt>
      <trkpt lat="45.92625" lon="6.51327">
        <ele>2004.1999511719</ele>
        <time>2014-02-12T14:29:05.000Z</time>
      </trkpt>
      <trkpt lat="45.92625" lon="6.51327">
        <ele>2004.1999511719</ele>
        <time>2014-02-12T14:29:06.000Z</time>
      </trkpt>
      <trkpt lat="45.92625" lon="6.51327">
        <ele>2004.1999511719</ele>
        <time>2014-02-12T14:29:07.000Z</time>
      </trkpt>
      <trkpt lat="45.92625" lon="6.51327">
        <ele>2004.1999511719</ele>
        <time>2014-02-12T14:29:08.000Z</time>
      </trkpt>
      <trkpt lat="45.92625" lon="6.51327">
        <ele>2004.1999511719</ele>
        <time>2014-02-12T14:29:09.000Z</time>
      </trkpt>
      <trkpt lat="45.92625" lon="6.51327">
        <ele>2004.1999511719</ele>
        <time>2014-02-12T14:29:10.000Z</time>
      </trkpt>
      <trkpt lat="45.92625" lon="6.51327">
        <ele>2004.1999511719</ele>
        <time>2014-02-12T14:29:11.000Z</time>
      </trkpt>
      <trkpt lat="45.92625" lon="6.51327">
        <ele>2004.1999511719</ele>
        <time>2014-02-12T14:29:12.000Z</time>
      </trkpt>
      <trkpt lat="45.92625" lon="6.51327">
        <ele>2004.1999511719</ele>
        <time>2014-02-12T14:29:13.000Z</time>
      </trkpt>
      <trkpt lat="45.92625" lon="6.51327">
        <ele>2004.1999511719</ele>
        <time>2014-02-12T14:29:14.000Z</time>
      </trkpt>
      <trkpt lat="45.92625" lon="6.51327">
        <ele>2004.1999511719</ele>
        <time>2014-02-12T14:29:15.000Z</time>
      </trkpt>
      <trkpt lat="45.92625" lon="6.51327">
        <ele>2004.1999511719</ele>
        <time>2014-02-12T14:29:16.000Z</time>
      </trkpt>
      <trkpt lat="45.92625" lon="6.51327">
        <ele>2004.1999511719</ele>
        <time>2014-02-12T14:29:17.000Z</time>
      </trkpt>
      <trkpt lat="45.92625" lon="6.51327">
        <ele>2004.1999511719</ele>
        <time>2014-02-12T14:29:18.000Z</time>
      </trkpt>
      <trkpt lat="45.92625" lon="6.51327">
        <ele>2004.1999511719</ele>
        <time>2014-02-12T14:29:19.000Z</time>
      </trkpt>
      <trkpt lat="45.92625" lon="6.51327">
        <ele>2004.1999511719</ele>
        <time>2014-02-12T14:29:20.000Z</time>
      </trkpt>
      <trkpt lat="45.92625" lon="6.51327">
        <ele>2004.1999511719</ele>
        <time>2014-02-12T14:29:21.000Z</time>
      </trkpt>
      <trkpt lat="45.92625" lon="6.51327">
        <ele>2004.1999511719</ele>
        <time>2014-02-12T14:29:23.000Z</time>
      </trkpt>
      <trkpt lat="45.92625" lon="6.51327">
        <ele>2004.1999511719</ele>
        <time>2014-02-12T14:29:24.000Z</time>
      </trkpt>
      <trkpt lat="45.92625" lon="6.51327">
        <ele>2004.1999511719</ele>
        <time>2014-02-12T14:29:25.000Z</time>
      </trkpt>
      <trkpt lat="45.92625" lon="6.51327">
        <ele>2004.1999511719</ele>
        <time>2014-02-12T14:29:26.000Z</time>
      </trkpt>
      <trkpt lat="45.92625" lon="6.51327">
        <ele>2004.1999511719</ele>
        <time>2014-02-12T14:29:27.000Z</time>
      </trkpt>
      <trkpt lat="45.92625" lon="6.51327">
        <ele>2004.1999511719</ele>
        <time>2014-02-12T14:29:30.000Z</time>
      </trkpt>
      <trkpt lat="45.92625" lon="6.51327">
        <ele>2004.1999511719</ele>
        <time>2014-02-12T14:29:31.000Z</time>
      </trkpt>
      <trkpt lat="45.92625" lon="6.51327">
        <ele>2004.1999511719</ele>
        <time>2014-02-12T14:29:32.000Z</time>
      </trkpt>
      <trkpt lat="45.92625" lon="6.51327">
        <ele>2004.1999511719</ele>
        <time>2014-02-12T14:29:34.000Z</time>
      </trkpt>
      <trkpt lat="45.92625" lon="6.51327">
        <ele>2004.1999511719</ele>
        <time>2014-02-12T14:29:35.000Z</time>
      </trkpt>
      <trkpt lat="45.92625" lon="6.51327">
        <ele>2004.1999511719</ele>
        <time>2014-02-12T14:29:38.000Z</time>
      </trkpt>
      <trkpt lat="45.92625" lon="6.51327">
        <ele>2004.1999511719</ele>
        <time>2014-02-12T14:29:39.000Z</time>
      </trkpt>
      <trkpt lat="45.92625" lon="6.51327">
        <ele>2004.1999511719</ele>
        <time>2014-02-12T14:29:40.000Z</time>
      </trkpt>
      <trkpt lat="45.92625" lon="6.51327">
        <ele>2004.1999511719</ele>
        <time>2014-02-12T14:29:41.000Z</time>
      </trkpt>
      <trkpt lat="45.92625" lon="6.51327">
        <ele>2004.1999511719</ele>
        <time>2014-02-12T14:29:42.000Z</time>
      </trkpt>
      <trkpt lat="45.92625" lon="6.51327">
        <ele>2004.1999511719</ele>
        <time>2014-02-12T14:29:43.000Z</time>
      </trkpt>
      <trkpt lat="45.92623" lon="6.51329">
        <ele>2005.4000244141</ele>
        <time>2014-02-12T14:29:44.000Z</time>
      </trkpt>
      <trkpt lat="45.92623" lon="6.51329">
        <ele>2005.4000244141</ele>
        <time>2014-02-12T14:29:47.000Z</time>
      </trkpt>
      <trkpt lat="45.92623" lon="6.51329">
        <ele>2005.4000244141</ele>
        <time>2014-02-12T14:29:48.000Z</time>
      </trkpt>
      <trkpt lat="45.92623" lon="6.51329">
        <ele>2005.4000244141</ele>
        <time>2014-02-12T14:29:49.000Z</time>
      </trkpt>
      <trkpt lat="45.92624" lon="6.51329">
        <ele>2005.1999511719</ele>
        <time>2014-02-12T14:29:50.000Z</time>
      </trkpt>
      <trkpt lat="45.92624" lon="6.51333">
        <ele>2002.8000488281</ele>
        <time>2014-02-12T14:29:51.000Z</time>
      </trkpt>
      <trkpt lat="45.92626" lon="6.51334">
        <ele>2000</ele>
        <time>2014-02-12T14:29:52.000Z</time>
      </trkpt>
      <trkpt lat="45.92628" lon="6.51332">
        <ele>1997.4000244141</ele>
        <time>2014-02-12T14:29:53.000Z</time>
      </trkpt>
      <trkpt lat="45.92631" lon="6.51331">
        <ele>1994.1999511719</ele>
        <time>2014-02-12T14:29:54.000Z</time>
      </trkpt>
      <trkpt lat="45.92632" lon="6.51332">
        <ele>1991.4000244141</ele>
        <time>2014-02-12T14:29:55.000Z</time>
      </trkpt>
      <trkpt lat="45.92636" lon="6.51331">
        <ele>1986.8000488281</ele>
        <time>2014-02-12T14:29:56.000Z</time>
      </trkpt>
      <trkpt lat="45.92639" lon="6.51328">
        <ele>1982.4000244141</ele>
        <time>2014-02-12T14:29:57.000Z</time>
      </trkpt>
      <trkpt lat="45.92643" lon="6.51323">
        <ele>1981</ele>
        <time>2014-02-12T14:29:58.000Z</time>
      </trkpt>
      <trkpt lat="45.92645" lon="6.51321">
        <ele>1980.8000488281</ele>
        <time>2014-02-12T14:29:59.000Z</time>
      </trkpt>
      <trkpt lat="45.92647" lon="6.51322">
        <ele>1979.4000244141</ele>
        <time>2014-02-12T14:30:00.000Z</time>
      </trkpt>
      <trkpt lat="45.92649" lon="6.51321">
        <ele>1977.4000244141</ele>
        <time>2014-02-12T14:30:01.000Z</time>
      </trkpt>
      <trkpt lat="45.92651" lon="6.5132">
        <ele>1975.1999511719</ele>
        <time>2014-02-12T14:30:02.000Z</time>
      </trkpt>
      <trkpt lat="45.92654" lon="6.5132">
        <ele>1973.1999511719</ele>
        <time>2014-02-12T14:30:03.000Z</time>
      </trkpt>
      <trkpt lat="45.92656" lon="6.51319">
        <ele>1971.1999511719</ele>
        <time>2014-02-12T14:30:04.000Z</time>
      </trkpt>
      <trkpt lat="45.92658" lon="6.51319">
        <ele>1969.1999511719</ele>
        <time>2014-02-12T14:30:05.000Z</time>
      </trkpt>
      <trkpt lat="45.9266" lon="6.5132">
        <ele>1967.4000244141</ele>
        <time>2014-02-12T14:30:06.000Z</time>
      </trkpt>
      <trkpt lat="45.9266" lon="6.51321">
        <ele>1968</ele>
        <time>2014-02-12T14:30:07.000Z</time>
      </trkpt>
      <trkpt lat="45.92659" lon="6.51324">
        <ele>1968.8000488281</ele>
        <time>2014-02-12T14:30:08.000Z</time>
      </trkpt>
      <trkpt lat="45.9266" lon="6.51327">
        <ele>1968.4000244141</ele>
        <time>2014-02-12T14:30:09.000Z</time>
      </trkpt>
      <trkpt lat="45.92662" lon="6.51329">
        <ele>1966.8000488281</ele>
        <time>2014-02-12T14:30:10.000Z</time>
      </trkpt>
      <trkpt lat="45.92664" lon="6.51329">
        <ele>1965.5999755859</ele>
        <time>2014-02-12T14:30:11.000Z</time>
      </trkpt>
      <trkpt lat="45.92665" lon="6.51329">
        <ele>1964.4000244141</ele>
        <time>2014-02-12T14:30:12.000Z</time>
      </trkpt>
      <trkpt lat="45.92667" lon="6.51329">
        <ele>1963</ele>
        <time>2014-02-12T14:30:13.000Z</time>
      </trkpt>
      <trkpt lat="45.92668" lon="6.51329">
        <ele>1961.8000488281</ele>
        <time>2014-02-12T14:30:14.000Z</time>
      </trkpt>
      <trkpt lat="45.9267" lon="6.5133">
        <ele>1960.8000488281</ele>
        <time>2014-02-12T14:30:15.000Z</time>
      </trkpt>
      <trkpt lat="45.9267" lon="6.51329">
        <ele>1960.1999511719</ele>
        <time>2014-02-12T14:30:16.000Z</time>
      </trkpt>
      <trkpt lat="45.9267" lon="6.51329">
        <ele>1960</ele>
        <time>2014-02-12T14:30:17.000Z</time>
      </trkpt>
      <trkpt lat="45.92671" lon="6.51329">
        <ele>1959.5999755859</ele>
        <time>2014-02-12T14:30:18.000Z</time>
      </trkpt>
      <trkpt lat="45.92671" lon="6.51328">
        <ele>1959.1999511719</ele>
        <time>2014-02-12T14:30:19.000Z</time>
      </trkpt>
      <trkpt lat="45.92672" lon="6.51328">
        <ele>1958.8000488281</ele>
        <time>2014-02-12T14:30:20.000Z</time>
      </trkpt>
      <trkpt lat="45.92672" lon="6.51329">
        <ele>1958.5999755859</ele>
        <time>2014-02-12T14:30:21.000Z</time>
      </trkpt>
      <trkpt lat="45.92672" lon="6.51329">
        <ele>1958.5999755859</ele>
        <time>2014-02-12T14:30:22.000Z</time>
      </trkpt>
      <trkpt lat="45.92672" lon="6.51329">
        <ele>1958.5999755859</ele>
        <time>2014-02-12T14:30:25.000Z</time>
      </trkpt>
      <trkpt lat="45.92672" lon="6.51329">
        <ele>1958.5999755859</ele>
        <time>2014-02-12T14:30:26.000Z</time>
      </trkpt>
      <trkpt lat="45.92672" lon="6.51329">
        <ele>1958.5999755859</ele>
        <time>2014-02-12T14:30:27.000Z</time>
      </trkpt>
      <trkpt lat="45.92672" lon="6.51329">
        <ele>1958.5999755859</ele>
        <time>2014-02-12T14:30:28.000Z</time>
      </trkpt>
      <trkpt lat="45.92672" lon="6.51329">
        <ele>1958.5999755859</ele>
        <time>2014-02-12T14:30:29.000Z</time>
      </trkpt>
      <trkpt lat="45.92672" lon="6.51329">
        <ele>1958.5999755859</ele>
        <time>2014-02-12T14:30:30.000Z</time>
      </trkpt>
      <trkpt lat="45.92672" lon="6.51329">
        <ele>1958.5999755859</ele>
        <time>2014-02-12T14:30:31.000Z</time>
      </trkpt>
      <trkpt lat="45.92672" lon="6.51329">
        <ele>1958.5999755859</ele>
        <time>2014-02-12T14:30:32.000Z</time>
      </trkpt>
      <trkpt lat="45.92673" lon="6.51329">
        <ele>1958</ele>
        <time>2014-02-12T14:30:33.000Z</time>
      </trkpt>
      <trkpt lat="45.92669" lon="6.51331">
        <ele>1961</ele>
        <time>2014-02-12T14:30:34.000Z</time>
      </trkpt>
      <trkpt lat="45.92669" lon="6.51331">
        <ele>1961</ele>
        <time>2014-02-12T14:30:35.000Z</time>
      </trkpt>
      <trkpt lat="45.92669" lon="6.51331">
        <ele>1961</ele>
        <time>2014-02-12T14:30:36.000Z</time>
      </trkpt>
      <trkpt lat="45.92669" lon="6.51331">
        <ele>1961</ele>
        <time>2014-02-12T14:30:37.000Z</time>
      </trkpt>
      <trkpt lat="45.92669" lon="6.51331">
        <ele>1961</ele>
        <time>2014-02-12T14:30:38.000Z</time>
      </trkpt>
      <trkpt lat="45.92669" lon="6.51331">
        <ele>1961</ele>
        <time>2014-02-12T14:30:39.000Z</time>
      </trkpt>
      <trkpt lat="45.92669" lon="6.51331">
        <ele>1961</ele>
        <time>2014-02-12T14:30:40.000Z</time>
      </trkpt>
      <trkpt lat="45.92669" lon="6.51331">
        <ele>1961</ele>
        <time>2014-02-12T14:30:41.000Z</time>
      </trkpt>
      <trkpt lat="45.92669" lon="6.51331">
        <ele>1961.1999511719</ele>
        <time>2014-02-12T14:30:42.000Z</time>
      </trkpt>
      <trkpt lat="45.92665" lon="6.51335">
        <ele>1965.5999755859</ele>
        <time>2014-02-12T14:30:43.000Z</time>
      </trkpt>
      <trkpt lat="45.92662" lon="6.51338">
        <ele>1968</ele>
        <time>2014-02-12T14:30:44.000Z</time>
      </trkpt>
      <trkpt lat="45.92661" lon="6.51339">
        <ele>1968.4000244141</ele>
        <time>2014-02-12T14:30:45.000Z</time>
      </trkpt>
      <trkpt lat="45.92661" lon="6.51341">
        <ele>1968.1999511719</ele>
        <time>2014-02-12T14:30:46.000Z</time>
      </trkpt>
      <trkpt lat="45.9266" lon="6.51343">
        <ele>1967.8000488281</ele>
        <time>2014-02-12T14:30:47.000Z</time>
      </trkpt>
      <trkpt lat="45.9266" lon="6.51345">
        <ele>1967.1999511719</ele>
        <time>2014-02-12T14:30:48.000Z</time>
      </trkpt>
      <trkpt lat="45.92661" lon="6.51344">
        <ele>1967.4000244141</ele>
        <time>2014-02-12T14:30:49.000Z</time>
      </trkpt>
      <trkpt lat="45.92661" lon="6.51343">
        <ele>1967.4000244141</ele>
        <time>2014-02-12T14:30:50.000Z</time>
      </trkpt>
      <trkpt lat="45.92662" lon="6.51342">
        <ele>1967.4000244141</ele>
        <time>2014-02-12T14:30:51.000Z</time>
      </trkpt>
      <trkpt lat="45.92662" lon="6.51341">
        <ele>1967.4000244141</ele>
        <time>2014-02-12T14:30:52.000Z</time>
      </trkpt>
      <trkpt lat="45.92662" lon="6.51342">
        <ele>1967.1999511719</ele>
        <time>2014-02-12T14:30:53.000Z</time>
      </trkpt>
      <trkpt lat="45.92664" lon="6.51339">
        <ele>1966.8000488281</ele>
        <time>2014-02-12T14:30:54.000Z</time>
      </trkpt>
      <trkpt lat="45.92665" lon="6.51336">
        <ele>1965.4000244141</ele>
        <time>2014-02-12T14:30:55.000Z</time>
      </trkpt>
      <trkpt lat="45.92666" lon="6.51334">
        <ele>1964</ele>
        <time>2014-02-12T14:30:56.000Z</time>
      </trkpt>
      <trkpt lat="45.92667" lon="6.51333">
        <ele>1963</ele>
        <time>2014-02-12T14:30:57.000Z</time>
      </trkpt>
      <trkpt lat="45.92667" lon="6.51333">
        <ele>1963</ele>
        <time>2014-02-12T14:30:58.000Z</time>
      </trkpt>
      <trkpt lat="45.92671" lon="6.51333">
        <ele>1960.1999511719</ele>
        <time>2014-02-12T14:30:59.000Z</time>
      </trkpt>
      <trkpt lat="45.92675" lon="6.51335">
        <ele>1957.1999511719</ele>
        <time>2014-02-12T14:31:00.000Z</time>
      </trkpt>
      <trkpt lat="45.92677" lon="6.51336">
        <ele>1955.4000244141</ele>
        <time>2014-02-12T14:31:01.000Z</time>
      </trkpt>
      <trkpt lat="45.92679" lon="6.51337">
        <ele>1954</ele>
        <time>2014-02-12T14:31:02.000Z</time>
      </trkpt>
      <trkpt lat="45.9268" lon="6.51338">
        <ele>1952.5999755859</ele>
        <time>2014-02-12T14:31:03.000Z</time>
      </trkpt>
      <trkpt lat="45.92681" lon="6.51338">
        <ele>1951.8000488281</ele>
        <time>2014-02-12T14:31:04.000Z</time>
      </trkpt>
      <trkpt lat="45.92681" lon="6.51338">
        <ele>1951.5999755859</ele>
        <time>2014-02-12T14:31:05.000Z</time>
      </trkpt>
      <trkpt lat="45.92682" lon="6.51337">
        <ele>1951</ele>
        <time>2014-02-12T14:31:06.000Z</time>
      </trkpt>
      <trkpt lat="45.92683" lon="6.51337">
        <ele>1950.4000244141</ele>
        <time>2014-02-12T14:31:07.000Z</time>
      </trkpt>
      <trkpt lat="45.92684" lon="6.51337">
        <ele>1949.8000488281</ele>
        <time>2014-02-12T14:31:08.000Z</time>
      </trkpt>
      <trkpt lat="45.92685" lon="6.51336">
        <ele>1948.4000244141</ele>
        <time>2014-02-12T14:31:09.000Z</time>
      </trkpt>
      <trkpt lat="45.92686" lon="6.51335">
        <ele>1947.4000244141</ele>
        <time>2014-02-12T14:31:10.000Z</time>
      </trkpt>
      <trkpt lat="45.92688" lon="6.51335">
        <ele>1946</ele>
        <time>2014-02-12T14:31:11.000Z</time>
      </trkpt>
      <trkpt lat="45.92691" lon="6.51336">
        <ele>1943.5999755859</ele>
        <time>2014-02-12T14:31:12.000Z</time>
      </trkpt>
      <trkpt lat="45.92694" lon="6.51337">
        <ele>1941.1999511719</ele>
        <time>2014-02-12T14:31:13.000Z</time>
      </trkpt>
      <trkpt lat="45.92696" lon="6.5134">
        <ele>1939.4000244141</ele>
        <time>2014-02-12T14:31:14.000Z</time>
      </trkpt>
      <trkpt lat="45.92698" lon="6.51343">
        <ele>1938.1999511719</ele>
        <time>2014-02-12T14:31:15.000Z</time>
      </trkpt>
      <trkpt lat="45.92701" lon="6.51347">
        <ele>1936.1999511719</ele>
        <time>2014-02-12T14:31:16.000Z</time>
      </trkpt>
      <trkpt lat="45.92706" lon="6.51352">
        <ele>1932.5999755859</ele>
        <time>2014-02-12T14:31:17.000Z</time>
      </trkpt>
      <trkpt lat="45.9271" lon="6.51355">
        <ele>1929.5999755859</ele>
        <time>2014-02-12T14:31:18.000Z</time>
      </trkpt>
      <trkpt lat="45.92714" lon="6.51356">
        <ele>1926</ele>
        <time>2014-02-12T14:31:19.000Z</time>
      </trkpt>
      <trkpt lat="45.92718" lon="6.51357">
        <ele>1922.4000244141</ele>
        <time>2014-02-12T14:31:20.000Z</time>
      </trkpt>
      <trkpt lat="45.92724" lon="6.51359">
        <ele>1918.4000244141</ele>
        <time>2014-02-12T14:31:21.000Z</time>
      </trkpt>
      <trkpt lat="45.92728" lon="6.51361">
        <ele>1916.5999755859</ele>
        <time>2014-02-12T14:31:22.000Z</time>
      </trkpt>
      <trkpt lat="45.92733" lon="6.51362">
        <ele>1915</ele>
        <time>2014-02-12T14:31:23.000Z</time>
      </trkpt>
      <trkpt lat="45.92739" lon="6.5136">
        <ele>1912.4000244141</ele>
        <time>2014-02-12T14:31:24.000Z</time>
      </trkpt>
      <trkpt lat="45.92745" lon="6.51358">
        <ele>1910</ele>
        <time>2014-02-12T14:31:25.000Z</time>
      </trkpt>
      <trkpt lat="45.92753" lon="6.51358">
        <ele>1907.1999511719</ele>
        <time>2014-02-12T14:31:26.000Z</time>
      </trkpt>
      <trkpt lat="45.92761" lon="6.51354">
        <ele>1903.8000488281</ele>
        <time>2014-02-12T14:31:27.000Z</time>
      </trkpt>
      <trkpt lat="45.92768" lon="6.5135">
        <ele>1900.1999511719</ele>
        <time>2014-02-12T14:31:28.000Z</time>
      </trkpt>
      <trkpt lat="45.92775" lon="6.51346">
        <ele>1896.8000488281</ele>
        <time>2014-02-12T14:31:29.000Z</time>
      </trkpt>
      <trkpt lat="45.92781" lon="6.51343">
        <ele>1894</ele>
        <time>2014-02-12T14:31:30.000Z</time>
      </trkpt>
      <trkpt lat="45.92787" lon="6.51342">
        <ele>1891.1999511719</ele>
        <time>2014-02-12T14:31:31.000Z</time>
      </trkpt>
      <trkpt lat="45.92785" lon="6.51344">
        <ele>1892.4000244141</ele>
        <time>2014-02-12T14:31:32.000Z</time>
      </trkpt>
      <trkpt lat="45.92788" lon="6.5134">
        <ele>1890.4000244141</ele>
        <time>2014-02-12T14:31:33.000Z</time>
      </trkpt>
      <trkpt lat="45.92791" lon="6.51339">
        <ele>1889</ele>
        <time>2014-02-12T14:31:34.000Z</time>
      </trkpt>
      <trkpt lat="45.92795" lon="6.51337">
        <ele>1887.1999511719</ele>
        <time>2014-02-12T14:31:35.000Z</time>
      </trkpt>
      <trkpt lat="45.92799" lon="6.51336">
        <ele>1885.4000244141</ele>
        <time>2014-02-12T14:31:36.000Z</time>
      </trkpt>
      <trkpt lat="45.92804" lon="6.51331">
        <ele>1882.5999755859</ele>
        <time>2014-02-12T14:31:37.000Z</time>
      </trkpt>
      <trkpt lat="45.92808" lon="6.51328">
        <ele>1880.5999755859</ele>
        <time>2014-02-12T14:31:38.000Z</time>
      </trkpt>
      <trkpt lat="45.92812" lon="6.51325">
        <ele>1879.5999755859</ele>
        <time>2014-02-12T14:31:39.000Z</time>
      </trkpt>
      <trkpt lat="45.92814" lon="6.51323">
        <ele>1878.8000488281</ele>
        <time>2014-02-12T14:31:40.000Z</time>
      </trkpt>
      <trkpt lat="45.92816" lon="6.51321">
        <ele>1877.8000488281</ele>
        <time>2014-02-12T14:31:41.000Z</time>
      </trkpt>
      <trkpt lat="45.92817" lon="6.51319">
        <ele>1877</ele>
        <time>2014-02-12T14:31:42.000Z</time>
      </trkpt>
      <trkpt lat="45.92817" lon="6.51319">
        <ele>1877.1999511719</ele>
        <time>2014-02-12T14:31:43.000Z</time>
      </trkpt>
      <trkpt lat="45.92815" lon="6.51319">
        <ele>1877.5999755859</ele>
        <time>2014-02-12T14:31:44.000Z</time>
      </trkpt>
      <trkpt lat="45.92814" lon="6.51319">
        <ele>1878</ele>
        <time>2014-02-12T14:31:45.000Z</time>
      </trkpt>
      <trkpt lat="45.92808" lon="6.51319">
        <ele>1879.1999511719</ele>
        <time>2014-02-12T14:31:47.000Z</time>
      </trkpt>
      <trkpt lat="45.92809" lon="6.51319">
        <ele>1879</ele>
        <time>2014-02-12T14:31:48.000Z</time>
      </trkpt>
      <trkpt lat="45.92809" lon="6.51318">
        <ele>1879</ele>
        <time>2014-02-12T14:31:49.000Z</time>
      </trkpt>
      <trkpt lat="45.92809" lon="6.51318">
        <ele>1878.8000488281</ele>
        <time>2014-02-12T14:31:50.000Z</time>
      </trkpt>
      <trkpt lat="45.92809" lon="6.51317">
        <ele>1878.8000488281</ele>
        <time>2014-02-12T14:31:56.000Z</time>
      </trkpt>
      <trkpt lat="45.92809" lon="6.51317">
        <ele>1878.8000488281</ele>
        <time>2014-02-12T14:31:59.000Z</time>
      </trkpt>
      <trkpt lat="45.92809" lon="6.51317">
        <ele>1878.8000488281</ele>
        <time>2014-02-12T14:32:00.000Z</time>
      </trkpt>
      <trkpt lat="45.92809" lon="6.51317">
        <ele>1878.8000488281</ele>
        <time>2014-02-12T14:32:01.000Z</time>
      </trkpt>
      <trkpt lat="45.92809" lon="6.51317">
        <ele>1878.8000488281</ele>
        <time>2014-02-12T14:32:02.000Z</time>
      </trkpt>
      <trkpt lat="45.92809" lon="6.51317">
        <ele>1878.8000488281</ele>
        <time>2014-02-12T14:32:03.000Z</time>
      </trkpt>
      <trkpt lat="45.92809" lon="6.51317">
        <ele>1878.8000488281</ele>
        <time>2014-02-12T14:32:04.000Z</time>
      </trkpt>
      <trkpt lat="45.92809" lon="6.51317">
        <ele>1878.8000488281</ele>
        <time>2014-02-12T14:32:05.000Z</time>
      </trkpt>
      <trkpt lat="45.92809" lon="6.51317">
        <ele>1878.8000488281</ele>
        <time>2014-02-12T14:32:06.000Z</time>
      </trkpt>
      <trkpt lat="45.92809" lon="6.51317">
        <ele>1878.8000488281</ele>
        <time>2014-02-12T14:32:08.000Z</time>
      </trkpt>
      <trkpt lat="45.92809" lon="6.51317">
        <ele>1878.8000488281</ele>
        <time>2014-02-12T14:32:10.000Z</time>
      </trkpt>
      <trkpt lat="45.92809" lon="6.51317">
        <ele>1878.8000488281</ele>
        <time>2014-02-12T14:32:11.000Z</time>
      </trkpt>
      <trkpt lat="45.92809" lon="6.51317">
        <ele>1878.8000488281</ele>
        <time>2014-02-12T14:32:14.000Z</time>
      </trkpt>
      <trkpt lat="45.92809" lon="6.51317">
        <ele>1878.8000488281</ele>
        <time>2014-02-12T14:32:15.000Z</time>
      </trkpt>
      <trkpt lat="45.92809" lon="6.51317">
        <ele>1878.8000488281</ele>
        <time>2014-02-12T14:32:16.000Z</time>
      </trkpt>
      <trkpt lat="45.92809" lon="6.51317">
        <ele>1878.8000488281</ele>
        <time>2014-02-12T14:32:17.000Z</time>
      </trkpt>
      <trkpt lat="45.92809" lon="6.51317">
        <ele>1878.8000488281</ele>
        <time>2014-02-12T14:32:18.000Z</time>
      </trkpt>
      <trkpt lat="45.92809" lon="6.51317">
        <ele>1878.8000488281</ele>
        <time>2014-02-12T14:32:20.000Z</time>
      </trkpt>
      <trkpt lat="45.92809" lon="6.51317">
        <ele>1878.8000488281</ele>
        <time>2014-02-12T14:32:21.000Z</time>
      </trkpt>
      <trkpt lat="45.92809" lon="6.51317">
        <ele>1878.8000488281</ele>
        <time>2014-02-12T14:32:22.000Z</time>
      </trkpt>
      <trkpt lat="45.92809" lon="6.51317">
        <ele>1878.8000488281</ele>
        <time>2014-02-12T14:32:23.000Z</time>
      </trkpt>
      <trkpt lat="45.92809" lon="6.51317">
        <ele>1878.8000488281</ele>
        <time>2014-02-12T14:32:25.000Z</time>
      </trkpt>
      <trkpt lat="45.92809" lon="6.51317">
        <ele>1878.8000488281</ele>
        <time>2014-02-12T14:32:26.000Z</time>
      </trkpt>
      <trkpt lat="45.92809" lon="6.51317">
        <ele>1878.8000488281</ele>
        <time>2014-02-12T14:32:27.000Z</time>
      </trkpt>
      <trkpt lat="45.92809" lon="6.51317">
        <ele>1878.8000488281</ele>
        <time>2014-02-12T14:32:28.000Z</time>
      </trkpt>
      <trkpt lat="45.92809" lon="6.51317">
        <ele>1878.8000488281</ele>
        <time>2014-02-12T14:32:29.000Z</time>
      </trkpt>
      <trkpt lat="45.92809" lon="6.51317">
        <ele>1878.8000488281</ele>
        <time>2014-02-12T14:32:30.000Z</time>
      </trkpt>
      <trkpt lat="45.92804" lon="6.51318">
        <ele>1880.5999755859</ele>
        <time>2014-02-12T14:32:32.000Z</time>
      </trkpt>
      <trkpt lat="45.92804" lon="6.51318">
        <ele>1880.5999755859</ele>
        <time>2014-02-12T14:32:34.000Z</time>
      </trkpt>
      <trkpt lat="45.92804" lon="6.51318">
        <ele>1880.5999755859</ele>
        <time>2014-02-12T14:32:35.000Z</time>
      </trkpt>
      <trkpt lat="45.92804" lon="6.51318">
        <ele>1880.5999755859</ele>
        <time>2014-02-12T14:32:36.000Z</time>
      </trkpt>
      <trkpt lat="45.92804" lon="6.51318">
        <ele>1880.5999755859</ele>
        <time>2014-02-12T14:32:37.000Z</time>
      </trkpt>
      <trkpt lat="45.92804" lon="6.51318">
        <ele>1880.5999755859</ele>
        <time>2014-02-12T14:32:38.000Z</time>
      </trkpt>
      <trkpt lat="45.92804" lon="6.51318">
        <ele>1880.5999755859</ele>
        <time>2014-02-12T14:32:39.000Z</time>
      </trkpt>
      <trkpt lat="45.92804" lon="6.51318">
        <ele>1880.5999755859</ele>
        <time>2014-02-12T14:32:40.000Z</time>
      </trkpt>
      <trkpt lat="45.92804" lon="6.51318">
        <ele>1880.5999755859</ele>
        <time>2014-02-12T14:32:41.000Z</time>
      </trkpt>
      <trkpt lat="45.92804" lon="6.51318">
        <ele>1880.5999755859</ele>
        <time>2014-02-12T14:32:42.000Z</time>
      </trkpt>
      <trkpt lat="45.92804" lon="6.51318">
        <ele>1880.5999755859</ele>
        <time>2014-02-12T14:32:43.000Z</time>
      </trkpt>
      <trkpt lat="45.92804" lon="6.51318">
        <ele>1880.5999755859</ele>
        <time>2014-02-12T14:32:44.000Z</time>
      </trkpt>
      <trkpt lat="45.92804" lon="6.51318">
        <ele>1880.5999755859</ele>
        <time>2014-02-12T14:32:45.000Z</time>
      </trkpt>
      <trkpt lat="45.92804" lon="6.51318">
        <ele>1880.5999755859</ele>
        <time>2014-02-12T14:32:46.000Z</time>
      </trkpt>
      <trkpt lat="45.92804" lon="6.51318">
        <ele>1880.5999755859</ele>
        <time>2014-02-12T14:32:47.000Z</time>
      </trkpt>
      <trkpt lat="45.92804" lon="6.51318">
        <ele>1880.5999755859</ele>
        <time>2014-02-12T14:32:48.000Z</time>
      </trkpt>
      <trkpt lat="45.92804" lon="6.51318">
        <ele>1880.5999755859</ele>
        <time>2014-02-12T14:32:49.000Z</time>
      </trkpt>
      <trkpt lat="45.92804" lon="6.51317">
        <ele>1880.4000244141</ele>
        <time>2014-02-12T14:32:50.000Z</time>
      </trkpt>
      <trkpt lat="45.92802" lon="6.51314">
        <ele>1880.5999755859</ele>
        <time>2014-02-12T14:32:51.000Z</time>
      </trkpt>
      <trkpt lat="45.928" lon="6.5131">
        <ele>1880.1999511719</ele>
        <time>2014-02-12T14:32:52.000Z</time>
      </trkpt>
      <trkpt lat="45.928" lon="6.51306">
        <ele>1879.1999511719</ele>
        <time>2014-02-12T14:32:53.000Z</time>
      </trkpt>
      <trkpt lat="45.92797" lon="6.51302">
        <ele>1879.4000244141</ele>
        <time>2014-02-12T14:32:54.000Z</time>
      </trkpt>
      <trkpt lat="45.92795" lon="6.513">
        <ele>1879.5999755859</ele>
        <time>2014-02-12T14:32:55.000Z</time>
      </trkpt>
      <trkpt lat="45.92793" lon="6.51298">
        <ele>1879.8000488281</ele>
        <time>2014-02-12T14:32:56.000Z</time>
      </trkpt>
      <trkpt lat="45.92792" lon="6.51297">
        <ele>1880.1999511719</ele>
        <time>2014-02-12T14:32:57.000Z</time>
      </trkpt>
      <trkpt lat="45.92791" lon="6.51296">
        <ele>1880.1999511719</ele>
        <time>2014-02-12T14:32:58.000Z</time>
      </trkpt>
      <trkpt lat="45.92791" lon="6.51294">
        <ele>1879.8000488281</ele>
        <time>2014-02-12T14:32:59.000Z</time>
      </trkpt>
      <trkpt lat="45.92791" lon="6.51292">
        <ele>1879.1999511719</ele>
        <time>2014-02-12T14:33:00.000Z</time>
      </trkpt>
      <trkpt lat="45.92791" lon="6.5129">
        <ele>1878.5999755859</ele>
        <time>2014-02-12T14:33:01.000Z</time>
      </trkpt>
      <trkpt lat="45.92791" lon="6.51287">
        <ele>1878</ele>
        <time>2014-02-12T14:33:02.000Z</time>
      </trkpt>
      <trkpt lat="45.92791" lon="6.51285">
        <ele>1877.1999511719</ele>
        <time>2014-02-12T14:33:03.000Z</time>
      </trkpt>
      <trkpt lat="45.92792" lon="6.51283">
        <ele>1876.4000244141</ele>
        <time>2014-02-12T14:33:04.000Z</time>
      </trkpt>
      <trkpt lat="45.92791" lon="6.51281">
        <ele>1876</ele>
        <time>2014-02-12T14:33:05.000Z</time>
      </trkpt>
      <trkpt lat="45.92791" lon="6.51282">
        <ele>1876</ele>
        <time>2014-02-12T14:33:06.000Z</time>
      </trkpt>
      <trkpt lat="45.92792" lon="6.51281">
        <ele>1875.5999755859</ele>
        <time>2014-02-12T14:33:07.000Z</time>
      </trkpt>
      <trkpt lat="45.92791" lon="6.51279">
        <ele>1875.4000244141</ele>
        <time>2014-02-12T14:33:08.000Z</time>
      </trkpt>
      <trkpt lat="45.92794" lon="6.51278">
        <ele>1873.5999755859</ele>
        <time>2014-02-12T14:33:09.000Z</time>
      </trkpt>
      <trkpt lat="45.92796" lon="6.51275">
        <ele>1872</ele>
        <time>2014-02-12T14:33:10.000Z</time>
      </trkpt>
      <trkpt lat="45.92798" lon="6.51274">
        <ele>1871</ele>
        <time>2014-02-12T14:33:11.000Z</time>
      </trkpt>
      <trkpt lat="45.928" lon="6.51271">
        <ele>1869.1999511719</ele>
        <time>2014-02-12T14:33:12.000Z</time>
      </trkpt>
      <trkpt lat="45.92801" lon="6.51265">
        <ele>1866.8000488281</ele>
        <time>2014-02-12T14:33:13.000Z</time>
      </trkpt>
      <trkpt lat="45.92804" lon="6.51262">
        <ele>1864.5999755859</ele>
        <time>2014-02-12T14:33:14.000Z</time>
      </trkpt>
      <trkpt lat="45.92806" lon="6.51256">
        <ele>1862</ele>
        <time>2014-02-12T14:33:15.000Z</time>
      </trkpt>
      <trkpt lat="45.92809" lon="6.51252">
        <ele>1860</ele>
        <time>2014-02-12T14:33:16.000Z</time>
      </trkpt>
      <trkpt lat="45.92811" lon="6.51247">
        <ele>1857.5999755859</ele>
        <time>2014-02-12T14:33:17.000Z</time>
      </trkpt>
      <trkpt lat="45.92814" lon="6.51241">
        <ele>1855.5999755859</ele>
        <time>2014-02-12T14:33:18.000Z</time>
      </trkpt>
      <trkpt lat="45.92816" lon="6.51236">
        <ele>1853.8000488281</ele>
        <time>2014-02-12T14:33:19.000Z</time>
      </trkpt>
      <trkpt lat="45.92819" lon="6.5123">
        <ele>1852</ele>
        <time>2014-02-12T14:33:20.000Z</time>
      </trkpt>
      <trkpt lat="45.9282" lon="6.51224">
        <ele>1850</ele>
        <time>2014-02-12T14:33:21.000Z</time>
      </trkpt>
      <trkpt lat="45.92823" lon="6.51219">
        <ele>1848.1999511719</ele>
        <time>2014-02-12T14:33:22.000Z</time>
      </trkpt>
      <trkpt lat="45.92825" lon="6.51213">
        <ele>1846.1999511719</ele>
        <time>2014-02-12T14:33:23.000Z</time>
      </trkpt>
      <trkpt lat="45.92827" lon="6.51207">
        <ele>1844</ele>
        <time>2014-02-12T14:33:24.000Z</time>
      </trkpt>
      <trkpt lat="45.9283" lon="6.512">
        <ele>1841.8000488281</ele>
        <time>2014-02-12T14:33:25.000Z</time>
      </trkpt>
      <trkpt lat="45.92832" lon="6.51193">
        <ele>1839.1999511719</ele>
        <time>2014-02-12T14:33:26.000Z</time>
      </trkpt>
      <trkpt lat="45.92835" lon="6.51185">
        <ele>1836.5999755859</ele>
        <time>2014-02-12T14:33:27.000Z</time>
      </trkpt>
      <trkpt lat="45.92839" lon="6.51175">
        <ele>1833.8000488281</ele>
        <time>2014-02-12T14:33:28.000Z</time>
      </trkpt>
      <trkpt lat="45.92843" lon="6.51166">
        <ele>1832</ele>
        <time>2014-02-12T14:33:29.000Z</time>
      </trkpt>
      <trkpt lat="45.92847" lon="6.51157">
        <ele>1830.1999511719</ele>
        <time>2014-02-12T14:33:30.000Z</time>
      </trkpt>
      <trkpt lat="45.92851" lon="6.51147">
        <ele>1828.4000244141</ele>
        <time>2014-02-12T14:33:31.000Z</time>
      </trkpt>
      <trkpt lat="45.92856" lon="6.51134">
        <ele>1827</ele>
        <time>2014-02-12T14:33:32.000Z</time>
      </trkpt>
      <trkpt lat="45.92861" lon="6.51121">
        <ele>1825.1999511719</ele>
        <time>2014-02-12T14:33:33.000Z</time>
      </trkpt>
      <trkpt lat="45.92865" lon="6.51108">
        <ele>1822.8000488281</ele>
        <time>2014-02-12T14:33:34.000Z</time>
      </trkpt>
      <trkpt lat="45.9287" lon="6.51093">
        <ele>1819.8000488281</ele>
        <time>2014-02-12T14:33:35.000Z</time>
      </trkpt>
      <trkpt lat="45.92874" lon="6.51077">
        <ele>1816.8000488281</ele>
        <time>2014-02-12T14:33:36.000Z</time>
      </trkpt>
      <trkpt lat="45.92879" lon="6.51062">
        <ele>1815</ele>
        <time>2014-02-12T14:33:37.000Z</time>
      </trkpt>
      <trkpt lat="45.92886" lon="6.51046">
        <ele>1812.4000244141</ele>
        <time>2014-02-12T14:33:38.000Z</time>
      </trkpt>
      <trkpt lat="45.92892" lon="6.51029">
        <ele>1808.5999755859</ele>
        <time>2014-02-12T14:33:39.000Z</time>
      </trkpt>
      <trkpt lat="45.92899" lon="6.51014">
        <ele>1805.1999511719</ele>
        <time>2014-02-12T14:33:40.000Z</time>
      </trkpt>
      <trkpt lat="45.92907" lon="6.50995">
        <ele>1801</ele>
        <time>2014-02-12T14:33:41.000Z</time>
      </trkpt>
      <trkpt lat="45.92915" lon="6.50976">
        <ele>1795.8000488281</ele>
        <time>2014-02-12T14:33:42.000Z</time>
      </trkpt>
      <trkpt lat="45.92922" lon="6.50957">
        <ele>1790.5999755859</ele>
        <time>2014-02-12T14:33:43.000Z</time>
      </trkpt>
      <trkpt lat="45.92929" lon="6.5094">
        <ele>1785.5999755859</ele>
        <time>2014-02-12T14:33:44.000Z</time>
      </trkpt>
      <trkpt lat="45.92938" lon="6.50927">
        <ele>1779</ele>
        <time>2014-02-12T14:33:45.000Z</time>
      </trkpt>
      <trkpt lat="45.92952" lon="6.50919">
        <ele>1772</ele>
        <time>2014-02-12T14:33:46.000Z</time>
      </trkpt>
      <trkpt lat="45.92962" lon="6.50916">
        <ele>1767.4000244141</ele>
        <time>2014-02-12T14:33:47.000Z</time>
      </trkpt>
      <trkpt lat="45.92972" lon="6.50915">
        <ele>1763.4000244141</ele>
        <time>2014-02-12T14:33:48.000Z</time>
      </trkpt>
      <trkpt lat="45.92979" lon="6.50914">
        <ele>1761</ele>
        <time>2014-02-12T14:33:49.000Z</time>
      </trkpt>
      <trkpt lat="45.92983" lon="6.50913">
        <ele>1759.4000244141</ele>
        <time>2014-02-12T14:33:50.000Z</time>
      </trkpt>
      <trkpt lat="45.92988" lon="6.50913">
        <ele>1758.1999511719</ele>
        <time>2014-02-12T14:33:51.000Z</time>
      </trkpt>
      <trkpt lat="45.9299" lon="6.50914">
        <ele>1757.4000244141</ele>
        <time>2014-02-12T14:33:52.000Z</time>
      </trkpt>
      <trkpt lat="45.92991" lon="6.50914">
        <ele>1757.1999511719</ele>
        <time>2014-02-12T14:33:53.000Z</time>
      </trkpt>
      <trkpt lat="45.92991" lon="6.50915">
        <ele>1757.5999755859</ele>
        <time>2014-02-12T14:33:54.000Z</time>
      </trkpt>
      <trkpt lat="45.92991" lon="6.50916">
        <ele>1758</ele>
        <time>2014-02-12T14:33:55.000Z</time>
      </trkpt>
      <trkpt lat="45.9299" lon="6.50917">
        <ele>1758.4000244141</ele>
        <time>2014-02-12T14:33:56.000Z</time>
      </trkpt>
      <trkpt lat="45.9299" lon="6.50919">
        <ele>1759</ele>
        <time>2014-02-12T14:33:57.000Z</time>
      </trkpt>
      <trkpt lat="45.9299" lon="6.50919">
        <ele>1759</ele>
        <time>2014-02-12T14:33:58.000Z</time>
      </trkpt>
      <trkpt lat="45.9299" lon="6.50919">
        <ele>1759</ele>
        <time>2014-02-12T14:33:59.000Z</time>
      </trkpt>
      <trkpt lat="45.9299" lon="6.50919">
        <ele>1759</ele>
        <time>2014-02-12T14:34:00.000Z</time>
      </trkpt>
      <trkpt lat="45.9299" lon="6.50919">
        <ele>1759</ele>
        <time>2014-02-12T14:34:01.000Z</time>
      </trkpt>
      <trkpt lat="45.92992" lon="6.50921">
        <ele>1758.8000488281</ele>
        <time>2014-02-12T14:34:02.000Z</time>
      </trkpt>
      <trkpt lat="45.92992" lon="6.50921">
        <ele>1758.8000488281</ele>
        <time>2014-02-12T14:34:03.000Z</time>
      </trkpt>
      <trkpt lat="45.92992" lon="6.50921">
        <ele>1758.8000488281</ele>
        <time>2014-02-12T14:34:04.000Z</time>
      </trkpt>
      <trkpt lat="45.92992" lon="6.50921">
        <ele>1758.8000488281</ele>
        <time>2014-02-12T14:34:05.000Z</time>
      </trkpt>
      <trkpt lat="45.92992" lon="6.50921">
        <ele>1758.8000488281</ele>
        <time>2014-02-12T14:34:06.000Z</time>
      </trkpt>
      <trkpt lat="45.92992" lon="6.50921">
        <ele>1758.8000488281</ele>
        <time>2014-02-12T14:34:07.000Z</time>
      </trkpt>
      <trkpt lat="45.92992" lon="6.50921">
        <ele>1758.8000488281</ele>
        <time>2014-02-12T14:34:08.000Z</time>
      </trkpt>
      <trkpt lat="45.92992" lon="6.50921">
        <ele>1758.8000488281</ele>
        <time>2014-02-12T14:34:09.000Z</time>
      </trkpt>
      <trkpt lat="45.92992" lon="6.50921">
        <ele>1758.8000488281</ele>
        <time>2014-02-12T14:34:10.000Z</time>
      </trkpt>
      <trkpt lat="45.92992" lon="6.50921">
        <ele>1758.8000488281</ele>
        <time>2014-02-12T14:34:11.000Z</time>
      </trkpt>
      <trkpt lat="45.92992" lon="6.50921">
        <ele>1758.8000488281</ele>
        <time>2014-02-12T14:34:12.000Z</time>
      </trkpt>
      <trkpt lat="45.92992" lon="6.50921">
        <ele>1758.8000488281</ele>
        <time>2014-02-12T14:34:13.000Z</time>
      </trkpt>
      <trkpt lat="45.92992" lon="6.50921">
        <ele>1758.8000488281</ele>
        <time>2014-02-12T14:34:14.000Z</time>
      </trkpt>
      <trkpt lat="45.92992" lon="6.50921">
        <ele>1758.8000488281</ele>
        <time>2014-02-12T14:34:15.000Z</time>
      </trkpt>
      <trkpt lat="45.92992" lon="6.50921">
        <ele>1758.8000488281</ele>
        <time>2014-02-12T14:34:16.000Z</time>
      </trkpt>
      <trkpt lat="45.92992" lon="6.50921">
        <ele>1758.8000488281</ele>
        <time>2014-02-12T14:34:17.000Z</time>
      </trkpt>
      <trkpt lat="45.92992" lon="6.50921">
        <ele>1758.8000488281</ele>
        <time>2014-02-12T14:34:18.000Z</time>
      </trkpt>
      <trkpt lat="45.92992" lon="6.50921">
        <ele>1758.8000488281</ele>
        <time>2014-02-12T14:34:19.000Z</time>
      </trkpt>
      <trkpt lat="45.92992" lon="6.50921">
        <ele>1758.8000488281</ele>
        <time>2014-02-12T14:34:20.000Z</time>
      </trkpt>
      <trkpt lat="45.92992" lon="6.50921">
        <ele>1758.8000488281</ele>
        <time>2014-02-12T14:34:21.000Z</time>
      </trkpt>
      <trkpt lat="45.92992" lon="6.50921">
        <ele>1758.8000488281</ele>
        <time>2014-02-12T14:34:22.000Z</time>
      </trkpt>
      <trkpt lat="45.92992" lon="6.50921">
        <ele>1758.8000488281</ele>
        <time>2014-02-12T14:34:23.000Z</time>
      </trkpt>
      <trkpt lat="45.92992" lon="6.50921">
        <ele>1758.8000488281</ele>
        <time>2014-02-12T14:34:24.000Z</time>
      </trkpt>
      <trkpt lat="45.92992" lon="6.50921">
        <ele>1758.8000488281</ele>
        <time>2014-02-12T14:34:25.000Z</time>
      </trkpt>
      <trkpt lat="45.92992" lon="6.50921">
        <ele>1758.8000488281</ele>
        <time>2014-02-12T14:34:29.000Z</time>
      </trkpt>
      <trkpt lat="45.92992" lon="6.50921">
        <ele>1758.8000488281</ele>
        <time>2014-02-12T14:34:32.000Z</time>
      </trkpt>
      <trkpt lat="45.92991" lon="6.50925">
        <ele>1760</ele>
        <time>2014-02-12T14:34:34.000Z</time>
      </trkpt>
      <trkpt lat="45.92991" lon="6.50927">
        <ele>1760.8000488281</ele>
        <time>2014-02-12T14:34:35.000Z</time>
      </trkpt>
      <trkpt lat="45.9299" lon="6.50927">
        <ele>1761</ele>
        <time>2014-02-12T14:34:36.000Z</time>
      </trkpt>
      <trkpt lat="45.92989" lon="6.50927">
        <ele>1761.4000244141</ele>
        <time>2014-02-12T14:34:37.000Z</time>
      </trkpt>
      <trkpt lat="45.92988" lon="6.50925">
        <ele>1761</ele>
        <time>2014-02-12T14:34:38.000Z</time>
      </trkpt>
      <trkpt lat="45.92987" lon="6.50921">
        <ele>1760.4000244141</ele>
        <time>2014-02-12T14:34:39.000Z</time>
      </trkpt>
      <trkpt lat="45.92988" lon="6.50915">
        <ele>1758.8000488281</ele>
        <time>2014-02-12T14:34:40.000Z</time>
      </trkpt>
      <trkpt lat="45.92988" lon="6.5091">
        <ele>1756.8000488281</ele>
        <time>2014-02-12T14:34:41.000Z</time>
      </trkpt>
      <trkpt lat="45.92996" lon="6.50904">
        <ele>1751.5999755859</ele>
        <time>2014-02-12T14:34:42.000Z</time>
      </trkpt>
      <trkpt lat="45.93" lon="6.50894">
        <ele>1746.5999755859</ele>
        <time>2014-02-12T14:34:43.000Z</time>
      </trkpt>
      <trkpt lat="45.93004" lon="6.50885">
        <ele>1741.8000488281</ele>
        <time>2014-02-12T14:34:44.000Z</time>
      </trkpt>
      <trkpt lat="45.93007" lon="6.50875">
        <ele>1737</ele>
        <time>2014-02-12T14:34:45.000Z</time>
      </trkpt>
      <trkpt lat="45.9301" lon="6.50867">
        <ele>1733.1999511719</ele>
        <time>2014-02-12T14:34:46.000Z</time>
      </trkpt>
      <trkpt lat="45.93007" lon="6.50861">
        <ele>1732.4000244141</ele>
        <time>2014-02-12T14:34:47.000Z</time>
      </trkpt>
      <trkpt lat="45.93004" lon="6.5086">
        <ele>1733</ele>
        <time>2014-02-12T14:34:48.000Z</time>
      </trkpt>
      <trkpt lat="45.93" lon="6.50859">
        <ele>1734.4000244141</ele>
        <time>2014-02-12T14:34:49.000Z</time>
      </trkpt>
      <trkpt lat="45.92997" lon="6.5086">
        <ele>1735.8000488281</ele>
        <time>2014-02-12T14:34:50.000Z</time>
      </trkpt>
      <trkpt lat="45.92993" lon="6.50863">
        <ele>1738.5999755859</ele>
        <time>2014-02-12T14:34:51.000Z</time>
      </trkpt>
      <trkpt lat="45.9299" lon="6.50865">
        <ele>1740.5999755859</ele>
        <time>2014-02-12T14:34:52.000Z</time>
      </trkpt>
      <trkpt lat="45.9299" lon="6.50865">
        <ele>1740.5999755859</ele>
        <time>2014-02-12T14:34:53.000Z</time>
      </trkpt>
      <trkpt lat="45.9299" lon="6.50865">
        <ele>1740.5999755859</ele>
        <time>2014-02-12T14:34:54.000Z</time>
      </trkpt>
      <trkpt lat="45.9299" lon="6.50865">
        <ele>1740.5999755859</ele>
        <time>2014-02-12T14:34:55.000Z</time>
      </trkpt>
      <trkpt lat="45.9299" lon="6.50865">
        <ele>1740.5999755859</ele>
        <time>2014-02-12T14:34:56.000Z</time>
      </trkpt>
      <trkpt lat="45.9299" lon="6.50865">
        <ele>1740.5999755859</ele>
        <time>2014-02-12T14:34:57.000Z</time>
      </trkpt>
      <trkpt lat="45.9299" lon="6.50865">
        <ele>1740.5999755859</ele>
        <time>2014-02-12T14:34:58.000Z</time>
      </trkpt>
      <trkpt lat="45.9299" lon="6.50865">
        <ele>1740.5999755859</ele>
        <time>2014-02-12T14:34:59.000Z</time>
      </trkpt>
      <trkpt lat="45.9299" lon="6.50865">
        <ele>1740.5999755859</ele>
        <time>2014-02-12T14:35:00.000Z</time>
      </trkpt>
      <trkpt lat="45.9299" lon="6.50865">
        <ele>1740.5999755859</ele>
        <time>2014-02-12T14:35:01.000Z</time>
      </trkpt>
      <trkpt lat="45.9299" lon="6.50865">
        <ele>1740.5999755859</ele>
        <time>2014-02-12T14:35:02.000Z</time>
      </trkpt>
      <trkpt lat="45.9299" lon="6.50865">
        <ele>1740.5999755859</ele>
        <time>2014-02-12T14:35:03.000Z</time>
      </trkpt>
      <trkpt lat="45.9299" lon="6.50865">
        <ele>1740.5999755859</ele>
        <time>2014-02-12T14:35:04.000Z</time>
      </trkpt>
      <trkpt lat="45.9299" lon="6.50865">
        <ele>1740.5999755859</ele>
        <time>2014-02-12T14:35:05.000Z</time>
      </trkpt>
      <trkpt lat="45.9299" lon="6.50865">
        <ele>1740.5999755859</ele>
        <time>2014-02-12T14:35:06.000Z</time>
      </trkpt>
      <trkpt lat="45.9299" lon="6.50865">
        <ele>1740.5999755859</ele>
        <time>2014-02-12T14:35:07.000Z</time>
      </trkpt>
      <trkpt lat="45.9299" lon="6.50865">
        <ele>1740.5999755859</ele>
        <time>2014-02-12T14:35:08.000Z</time>
      </trkpt>
      <trkpt lat="45.9299" lon="6.50865">
        <ele>1740.5999755859</ele>
        <time>2014-02-12T14:35:09.000Z</time>
      </trkpt>
      <trkpt lat="45.9299" lon="6.50865">
        <ele>1740.5999755859</ele>
        <time>2014-02-12T14:35:14.000Z</time>
      </trkpt>
      <trkpt lat="45.9299" lon="6.50865">
        <ele>1740.5999755859</ele>
        <time>2014-02-12T14:35:15.000Z</time>
      </trkpt>
      <trkpt lat="45.9299" lon="6.50865">
        <ele>1740.5999755859</ele>
        <time>2014-02-12T14:35:16.000Z</time>
      </trkpt>
      <trkpt lat="45.9299" lon="6.50865">
        <ele>1740.5999755859</ele>
        <time>2014-02-12T14:35:27.000Z</time>
      </trkpt>
      <trkpt lat="45.9299" lon="6.50865">
        <ele>1740.5999755859</ele>
        <time>2014-02-12T14:35:29.000Z</time>
      </trkpt>
      <trkpt lat="45.9299" lon="6.50865">
        <ele>1740.5999755859</ele>
        <time>2014-02-12T14:35:30.000Z</time>
      </trkpt>
      <trkpt lat="45.9299" lon="6.50865">
        <ele>1740.5999755859</ele>
        <time>2014-02-12T14:35:31.000Z</time>
      </trkpt>
      <trkpt lat="45.92987" lon="6.50865">
        <ele>1741.4000244141</ele>
        <time>2014-02-12T14:35:32.000Z</time>
      </trkpt>
      <trkpt lat="45.92988" lon="6.50863">
        <ele>1740.5999755859</ele>
        <time>2014-02-12T14:35:33.000Z</time>
      </trkpt>
      <trkpt lat="45.92978" lon="6.50858">
        <ele>1743</ele>
        <time>2014-02-12T14:35:34.000Z</time>
      </trkpt>
      <trkpt lat="45.92968" lon="6.50853">
        <ele>1745</ele>
        <time>2014-02-12T14:35:35.000Z</time>
      </trkpt>
      <trkpt lat="45.92958" lon="6.50847">
        <ele>1746.5999755859</ele>
        <time>2014-02-12T14:35:36.000Z</time>
      </trkpt>
      <trkpt lat="45.92947" lon="6.50841">
        <ele>1749.1999511719</ele>
        <time>2014-02-12T14:35:37.000Z</time>
      </trkpt>
      <trkpt lat="45.92938" lon="6.50836">
        <ele>1750.8000488281</ele>
        <time>2014-02-12T14:35:38.000Z</time>
      </trkpt>
      <trkpt lat="45.9293" lon="6.50828">
        <ele>1751.4000244141</ele>
        <time>2014-02-12T14:35:39.000Z</time>
      </trkpt>
      <trkpt lat="45.92926" lon="6.50821">
        <ele>1750.5999755859</ele>
        <time>2014-02-12T14:35:40.000Z</time>
      </trkpt>
      <trkpt lat="45.92921" lon="6.50815">
        <ele>1750.1999511719</ele>
        <time>2014-02-12T14:35:41.000Z</time>
      </trkpt>
      <trkpt lat="45.92915" lon="6.50809">
        <ele>1750.8000488281</ele>
        <time>2014-02-12T14:35:42.000Z</time>
      </trkpt>
      <trkpt lat="45.92912" lon="6.50804">
        <ele>1750.4000244141</ele>
        <time>2014-02-12T14:35:43.000Z</time>
      </trkpt>
      <trkpt lat="45.92906" lon="6.508">
        <ele>1751.5999755859</ele>
        <time>2014-02-12T14:35:44.000Z</time>
      </trkpt>
      <trkpt lat="45.92903" lon="6.50797">
        <ele>1751.8000488281</ele>
        <time>2014-02-12T14:35:45.000Z</time>
      </trkpt>
      <trkpt lat="45.929" lon="6.50795">
        <ele>1752.1999511719</ele>
        <time>2014-02-12T14:35:46.000Z</time>
      </trkpt>
      <trkpt lat="45.92895" lon="6.50792">
        <ele>1753</ele>
        <time>2014-02-12T14:35:47.000Z</time>
      </trkpt>
      <trkpt lat="45.92891" lon="6.50789">
        <ele>1753.8000488281</ele>
        <time>2014-02-12T14:35:48.000Z</time>
      </trkpt>
      <trkpt lat="45.92889" lon="6.50785">
        <ele>1753.4000244141</ele>
        <time>2014-02-12T14:35:49.000Z</time>
      </trkpt>
      <trkpt lat="45.92884" lon="6.5078">
        <ele>1754.5999755859</ele>
        <time>2014-02-12T14:35:50.000Z</time>
      </trkpt>
      <trkpt lat="45.92881" lon="6.50777">
        <ele>1755.1999511719</ele>
        <time>2014-02-12T14:35:51.000Z</time>
      </trkpt>
      <trkpt lat="45.92879" lon="6.50772">
        <ele>1755.1999511719</ele>
        <time>2014-02-12T14:35:52.000Z</time>
      </trkpt>
      <trkpt lat="45.92878" lon="6.50773">
        <ele>1755.8000488281</ele>
        <time>2014-02-12T14:35:53.000Z</time>
      </trkpt>
      <trkpt lat="45.92877" lon="6.50771">
        <ele>1755.5999755859</ele>
        <time>2014-02-12T14:35:54.000Z</time>
      </trkpt>
      <trkpt lat="45.92877" lon="6.50768">
        <ele>1755</ele>
        <time>2014-02-12T14:35:55.000Z</time>
      </trkpt>
      <trkpt lat="45.92877" lon="6.50768">
        <ele>1754.8000488281</ele>
        <time>2014-02-12T14:35:56.000Z</time>
      </trkpt>
      <trkpt lat="45.92877" lon="6.50763">
        <ele>1753.1999511719</ele>
        <time>2014-02-12T14:35:57.000Z</time>
      </trkpt>
      <trkpt lat="45.92879" lon="6.50756">
        <ele>1750</ele>
        <time>2014-02-12T14:35:58.000Z</time>
      </trkpt>
      <trkpt lat="45.92882" lon="6.5075">
        <ele>1746</ele>
        <time>2014-02-12T14:35:59.000Z</time>
      </trkpt>
      <trkpt lat="45.92885" lon="6.50743">
        <ele>1742</ele>
        <time>2014-02-12T14:36:00.000Z</time>
      </trkpt>
      <trkpt lat="45.92888" lon="6.50735">
        <ele>1737.5999755859</ele>
        <time>2014-02-12T14:36:01.000Z</time>
      </trkpt>
      <trkpt lat="45.92891" lon="6.50725">
        <ele>1732.8000488281</ele>
        <time>2014-02-12T14:36:02.000Z</time>
      </trkpt>
      <trkpt lat="45.9289" lon="6.50716">
        <ele>1729.5999755859</ele>
        <time>2014-02-12T14:36:03.000Z</time>
      </trkpt>
      <trkpt lat="45.9289" lon="6.50707">
        <ele>1725.5999755859</ele>
        <time>2014-02-12T14:36:04.000Z</time>
      </trkpt>
      <trkpt lat="45.92894" lon="6.50698">
        <ele>1720.4000244141</ele>
        <time>2014-02-12T14:36:05.000Z</time>
      </trkpt>
      <trkpt lat="45.92897" lon="6.50691">
        <ele>1716</ele>
        <time>2014-02-12T14:36:06.000Z</time>
      </trkpt>
      <trkpt lat="45.929" lon="6.50683">
        <ele>1711.5999755859</ele>
        <time>2014-02-12T14:36:07.000Z</time>
      </trkpt>
      <trkpt lat="45.92903" lon="6.50675">
        <ele>1707.4000244141</ele>
        <time>2014-02-12T14:36:08.000Z</time>
      </trkpt>
      <trkpt lat="45.92901" lon="6.50667">
        <ele>1705</ele>
        <time>2014-02-12T14:36:09.000Z</time>
      </trkpt>
      <trkpt lat="45.92899" lon="6.50662">
        <ele>1704</ele>
        <time>2014-02-12T14:36:10.000Z</time>
      </trkpt>
      <trkpt lat="45.92897" lon="6.50658">
        <ele>1703.1999511719</ele>
        <time>2014-02-12T14:36:11.000Z</time>
      </trkpt>
      <trkpt lat="45.92895" lon="6.50655">
        <ele>1703.1999511719</ele>
        <time>2014-02-12T14:36:12.000Z</time>
      </trkpt>
      <trkpt lat="45.92895" lon="6.50654">
        <ele>1702.5999755859</ele>
        <time>2014-02-12T14:36:13.000Z</time>
      </trkpt>
      <trkpt lat="45.92896" lon="6.50652">
        <ele>1701.4000244141</ele>
        <time>2014-02-12T14:36:14.000Z</time>
      </trkpt>
      <trkpt lat="45.92896" lon="6.50649">
        <ele>1700.8000488281</ele>
        <time>2014-02-12T14:36:15.000Z</time>
      </trkpt>
      <trkpt lat="45.92896" lon="6.50647">
        <ele>1700.1999511719</ele>
        <time>2014-02-12T14:36:16.000Z</time>
      </trkpt>
      <trkpt lat="45.92897" lon="6.50643">
        <ele>1699</ele>
        <time>2014-02-12T14:36:17.000Z</time>
      </trkpt>
      <trkpt lat="45.92898" lon="6.50639">
        <ele>1697.8000488281</ele>
        <time>2014-02-12T14:36:18.000Z</time>
      </trkpt>
      <trkpt lat="45.92896" lon="6.50636">
        <ele>1697.8000488281</ele>
        <time>2014-02-12T14:36:19.000Z</time>
      </trkpt>
      <trkpt lat="45.92895" lon="6.50635">
        <ele>1698</ele>
        <time>2014-02-12T14:36:20.000Z</time>
      </trkpt>
      <trkpt lat="45.92893" lon="6.50634">
        <ele>1698.8000488281</ele>
        <time>2014-02-12T14:36:21.000Z</time>
      </trkpt>
      <trkpt lat="45.92891" lon="6.50634">
        <ele>1699.1999511719</ele>
        <time>2014-02-12T14:36:22.000Z</time>
      </trkpt>
      <trkpt lat="45.92891" lon="6.50634">
        <ele>1699.1999511719</ele>
        <time>2014-02-12T14:36:23.000Z</time>
      </trkpt>
      <trkpt lat="45.92891" lon="6.50634">
        <ele>1699.1999511719</ele>
        <time>2014-02-12T14:36:24.000Z</time>
      </trkpt>
      <trkpt lat="45.92891" lon="6.50634">
        <ele>1699.1999511719</ele>
        <time>2014-02-12T14:36:25.000Z</time>
      </trkpt>
      <trkpt lat="45.92891" lon="6.50634">
        <ele>1699.1999511719</ele>
        <time>2014-02-12T14:36:26.000Z</time>
      </trkpt>
      <trkpt lat="45.92891" lon="6.50634">
        <ele>1699.1999511719</ele>
        <time>2014-02-12T14:36:27.000Z</time>
      </trkpt>
      <trkpt lat="45.92891" lon="6.50634">
        <ele>1699.1999511719</ele>
        <time>2014-02-12T14:36:28.000Z</time>
      </trkpt>
      <trkpt lat="45.92891" lon="6.50634">
        <ele>1699.1999511719</ele>
        <time>2014-02-12T14:36:29.000Z</time>
      </trkpt>
      <trkpt lat="45.92891" lon="6.50634">
        <ele>1699.1999511719</ele>
        <time>2014-02-12T14:36:30.000Z</time>
      </trkpt>
      <trkpt lat="45.92891" lon="6.50634">
        <ele>1699.1999511719</ele>
        <time>2014-02-12T14:36:31.000Z</time>
      </trkpt>
      <trkpt lat="45.92892" lon="6.50632">
        <ele>1698.1999511719</ele>
        <time>2014-02-12T14:36:32.000Z</time>
      </trkpt>
      <trkpt lat="45.92893" lon="6.50628">
        <ele>1697.1999511719</ele>
        <time>2014-02-12T14:36:33.000Z</time>
      </trkpt>
      <trkpt lat="45.92893" lon="6.50625">
        <ele>1696.1999511719</ele>
        <time>2014-02-12T14:36:34.000Z</time>
      </trkpt>
      <trkpt lat="45.92894" lon="6.5062">
        <ele>1695</ele>
        <time>2014-02-12T14:36:35.000Z</time>
      </trkpt>
      <trkpt lat="45.92894" lon="6.50615">
        <ele>1693.5999755859</ele>
        <time>2014-02-12T14:36:36.000Z</time>
      </trkpt>
      <trkpt lat="45.92895" lon="6.50611">
        <ele>1692.5999755859</ele>
        <time>2014-02-12T14:36:37.000Z</time>
      </trkpt>
      <trkpt lat="45.92896" lon="6.50604">
        <ele>1690.8000488281</ele>
        <time>2014-02-12T14:36:38.000Z</time>
      </trkpt>
      <trkpt lat="45.92896" lon="6.50599">
        <ele>1689.1999511719</ele>
        <time>2014-02-12T14:36:39.000Z</time>
      </trkpt>
      <trkpt lat="45.92897" lon="6.50594">
        <ele>1687.8000488281</ele>
        <time>2014-02-12T14:36:40.000Z</time>
      </trkpt>
      <trkpt lat="45.92898" lon="6.50587">
        <ele>1686</ele>
        <time>2014-02-12T14:36:41.000Z</time>
      </trkpt>
      <trkpt lat="45.92899" lon="6.50579">
        <ele>1683.8000488281</ele>
        <time>2014-02-12T14:36:42.000Z</time>
      </trkpt>
      <trkpt lat="45.929" lon="6.50574">
        <ele>1682.1999511719</ele>
        <time>2014-02-12T14:36:43.000Z</time>
      </trkpt>
      <trkpt lat="45.92899" lon="6.50571">
        <ele>1681.8000488281</ele>
        <time>2014-02-12T14:36:44.000Z</time>
      </trkpt>
      <trkpt lat="45.92899" lon="6.5057">
        <ele>1681.5999755859</ele>
        <time>2014-02-12T14:36:45.000Z</time>
      </trkpt>
      <trkpt lat="45.92898" lon="6.50569">
        <ele>1681.5999755859</ele>
        <time>2014-02-12T14:36:46.000Z</time>
      </trkpt>
      <trkpt lat="45.92897" lon="6.50568">
        <ele>1681.5999755859</ele>
        <time>2014-02-12T14:36:47.000Z</time>
      </trkpt>
      <trkpt lat="45.92896" lon="6.50567">
        <ele>1681.5999755859</ele>
        <time>2014-02-12T14:36:48.000Z</time>
      </trkpt>
      <trkpt lat="45.92896" lon="6.50566">
        <ele>1681.8000488281</ele>
        <time>2014-02-12T14:36:49.000Z</time>
      </trkpt>
      <trkpt lat="45.92895" lon="6.50566">
        <ele>1681.8000488281</ele>
        <time>2014-02-12T14:36:50.000Z</time>
      </trkpt>
      <trkpt lat="45.92897" lon="6.50568">
        <ele>1681.8000488281</ele>
        <time>2014-02-12T14:36:51.000Z</time>
      </trkpt>
      <trkpt lat="45.92897" lon="6.50568">
        <ele>1681.8000488281</ele>
        <time>2014-02-12T14:36:52.000Z</time>
      </trkpt>
      <trkpt lat="45.92897" lon="6.50568">
        <ele>1681.8000488281</ele>
        <time>2014-02-12T14:36:53.000Z</time>
      </trkpt>
      <trkpt lat="45.92899" lon="6.50564">
        <ele>1680</ele>
        <time>2014-02-12T14:36:54.000Z</time>
      </trkpt>
      <trkpt lat="45.92902" lon="6.50562">
        <ele>1678</ele>
        <time>2014-02-12T14:36:55.000Z</time>
      </trkpt>
      <trkpt lat="45.92905" lon="6.50555">
        <ele>1675</ele>
        <time>2014-02-12T14:36:56.000Z</time>
      </trkpt>
      <trkpt lat="45.92911" lon="6.50545">
        <ele>1670.1999511719</ele>
        <time>2014-02-12T14:36:57.000Z</time>
      </trkpt>
      <trkpt lat="45.92917" lon="6.50536">
        <ele>1665.4000244141</ele>
        <time>2014-02-12T14:36:58.000Z</time>
      </trkpt>
      <trkpt lat="45.92922" lon="6.50527">
        <ele>1661.1999511719</ele>
        <time>2014-02-12T14:36:59.000Z</time>
      </trkpt>
      <trkpt lat="45.92927" lon="6.50521">
        <ele>1657.8000488281</ele>
        <time>2014-02-12T14:37:00.000Z</time>
      </trkpt>
      <trkpt lat="45.92919" lon="6.50516">
        <ele>1659.5999755859</ele>
        <time>2014-02-12T14:37:01.000Z</time>
      </trkpt>
      <trkpt lat="45.92914" lon="6.50512">
        <ele>1660.8000488281</ele>
        <time>2014-02-12T14:37:02.000Z</time>
      </trkpt>
      <trkpt lat="45.92913" lon="6.5051">
        <ele>1660.8000488281</ele>
        <time>2014-02-12T14:37:03.000Z</time>
      </trkpt>
      <trkpt lat="45.92911" lon="6.50507">
        <ele>1660.8000488281</ele>
        <time>2014-02-12T14:37:04.000Z</time>
      </trkpt>
      <trkpt lat="45.92912" lon="6.50506">
        <ele>1659.8000488281</ele>
        <time>2014-02-12T14:37:05.000Z</time>
      </trkpt>
      <trkpt lat="45.92914" lon="6.50504">
        <ele>1658.4000244141</ele>
        <time>2014-02-12T14:37:06.000Z</time>
      </trkpt>
      <trkpt lat="45.92916" lon="6.50499">
        <ele>1656.4000244141</ele>
        <time>2014-02-12T14:37:07.000Z</time>
      </trkpt>
      <trkpt lat="45.92916" lon="6.50493">
        <ele>1654.8000488281</ele>
        <time>2014-02-12T14:37:08.000Z</time>
      </trkpt>
      <trkpt lat="45.92915" lon="6.50491">
        <ele>1654.5999755859</ele>
        <time>2014-02-12T14:37:09.000Z</time>
      </trkpt>
      <trkpt lat="45.92914" lon="6.5049">
        <ele>1654.8000488281</ele>
        <time>2014-02-12T14:37:10.000Z</time>
      </trkpt>
      <trkpt lat="45.92913" lon="6.5049">
        <ele>1655.4000244141</ele>
        <time>2014-02-12T14:37:11.000Z</time>
      </trkpt>
      <trkpt lat="45.92912" lon="6.5049">
        <ele>1655.5999755859</ele>
        <time>2014-02-12T14:37:12.000Z</time>
      </trkpt>
      <trkpt lat="45.92912" lon="6.50491">
        <ele>1656</ele>
        <time>2014-02-12T14:37:13.000Z</time>
      </trkpt>
      <trkpt lat="45.92912" lon="6.50491">
        <ele>1656</ele>
        <time>2014-02-12T14:37:14.000Z</time>
      </trkpt>
      <trkpt lat="45.92912" lon="6.50491">
        <ele>1656</ele>
        <time>2014-02-12T14:37:15.000Z</time>
      </trkpt>
      <trkpt lat="45.92912" lon="6.50491">
        <ele>1656</ele>
        <time>2014-02-12T14:37:16.000Z</time>
      </trkpt>
      <trkpt lat="45.92913" lon="6.5049">
        <ele>1655.4000244141</ele>
        <time>2014-02-12T14:37:17.000Z</time>
      </trkpt>
      <trkpt lat="45.92912" lon="6.50488">
        <ele>1655.1999511719</ele>
        <time>2014-02-12T14:37:18.000Z</time>
      </trkpt>
      <trkpt lat="45.92911" lon="6.50487">
        <ele>1655</ele>
        <time>2014-02-12T14:37:19.000Z</time>
      </trkpt>
      <trkpt lat="45.92911" lon="6.50486">
        <ele>1654.8000488281</ele>
        <time>2014-02-12T14:37:20.000Z</time>
      </trkpt>
      <trkpt lat="45.92911" lon="6.50481">
        <ele>1653.8000488281</ele>
        <time>2014-02-12T14:37:21.000Z</time>
      </trkpt>
      <trkpt lat="45.9291" lon="6.50475">
        <ele>1652.1999511719</ele>
        <time>2014-02-12T14:37:22.000Z</time>
      </trkpt>
      <trkpt lat="45.92911" lon="6.50471">
        <ele>1650.8000488281</ele>
        <time>2014-02-12T14:37:23.000Z</time>
      </trkpt>
      <trkpt lat="45.92913" lon="6.50471">
        <ele>1650.1999511719</ele>
        <time>2014-02-12T14:37:24.000Z</time>
      </trkpt>
      <trkpt lat="45.92914" lon="6.5047">
        <ele>1649.1999511719</ele>
        <time>2014-02-12T14:37:25.000Z</time>
      </trkpt>
      <trkpt lat="45.92917" lon="6.50469">
        <ele>1647.5999755859</ele>
        <time>2014-02-12T14:37:26.000Z</time>
      </trkpt>
      <trkpt lat="45.92917" lon="6.50469">
        <ele>1647.5999755859</ele>
        <time>2014-02-12T14:37:27.000Z</time>
      </trkpt>
      <trkpt lat="45.92917" lon="6.50469">
        <ele>1647.5999755859</ele>
        <time>2014-02-12T14:37:28.000Z</time>
      </trkpt>
      <trkpt lat="45.92917" lon="6.50469">
        <ele>1647.5999755859</ele>
        <time>2014-02-12T14:37:29.000Z</time>
      </trkpt>
      <trkpt lat="45.92917" lon="6.50469">
        <ele>1647.5999755859</ele>
        <time>2014-02-12T14:37:30.000Z</time>
      </trkpt>
      <trkpt lat="45.92917" lon="6.50469">
        <ele>1647.5999755859</ele>
        <time>2014-02-12T14:37:31.000Z</time>
      </trkpt>
      <trkpt lat="45.92918" lon="6.50469">
        <ele>1647.1999511719</ele>
        <time>2014-02-12T14:37:32.000Z</time>
      </trkpt>
      <trkpt lat="45.92918" lon="6.50469">
        <ele>1647.1999511719</ele>
        <time>2014-02-12T14:37:33.000Z</time>
      </trkpt>
      <trkpt lat="45.92918" lon="6.50469">
        <ele>1647.1999511719</ele>
        <time>2014-02-12T14:37:34.000Z</time>
      </trkpt>
      <trkpt lat="45.92918" lon="6.50469">
        <ele>1647.1999511719</ele>
        <time>2014-02-12T14:37:36.000Z</time>
      </trkpt>
      <trkpt lat="45.92918" lon="6.50469">
        <ele>1647.1999511719</ele>
        <time>2014-02-12T14:37:37.000Z</time>
      </trkpt>
      <trkpt lat="45.92918" lon="6.50469">
        <ele>1647.1999511719</ele>
        <time>2014-02-12T14:37:38.000Z</time>
      </trkpt>
      <trkpt lat="45.92918" lon="6.50469">
        <ele>1647.1999511719</ele>
        <time>2014-02-12T14:37:39.000Z</time>
      </trkpt>
      <trkpt lat="45.92918" lon="6.50469">
        <ele>1647.1999511719</ele>
        <time>2014-02-12T14:37:40.000Z</time>
      </trkpt>
      <trkpt lat="45.92918" lon="6.50469">
        <ele>1647.1999511719</ele>
        <time>2014-02-12T14:37:41.000Z</time>
      </trkpt>
      <trkpt lat="45.92918" lon="6.50469">
        <ele>1647.1999511719</ele>
        <time>2014-02-12T14:37:42.000Z</time>
      </trkpt>
      <trkpt lat="45.92918" lon="6.50469">
        <ele>1647.1999511719</ele>
        <time>2014-02-12T14:37:43.000Z</time>
      </trkpt>
      <trkpt lat="45.92915" lon="6.50467">
        <ele>1647.8000488281</ele>
        <time>2014-02-12T14:37:44.000Z</time>
      </trkpt>
      <trkpt lat="45.9291" lon="6.50467">
        <ele>1650</ele>
        <time>2014-02-12T14:37:45.000Z</time>
      </trkpt>
      <trkpt lat="45.92902" lon="6.50464">
        <ele>1652.5999755859</ele>
        <time>2014-02-12T14:37:46.000Z</time>
      </trkpt>
      <trkpt lat="45.92897" lon="6.50462">
        <ele>1654</ele>
        <time>2014-02-12T14:37:47.000Z</time>
      </trkpt>
      <trkpt lat="45.92893" lon="6.5046">
        <ele>1655</ele>
        <time>2014-02-12T14:37:48.000Z</time>
      </trkpt>
      <trkpt lat="45.9289" lon="6.50458">
        <ele>1655.5999755859</ele>
        <time>2014-02-12T14:37:49.000Z</time>
      </trkpt>
      <trkpt lat="45.92887" lon="6.50456">
        <ele>1655.4000244141</ele>
        <time>2014-02-12T14:37:50.000Z</time>
      </trkpt>
      <trkpt lat="45.92885" lon="6.50455">
        <ele>1655.1999511719</ele>
        <time>2014-02-12T14:37:51.000Z</time>
      </trkpt>
      <trkpt lat="45.92884" lon="6.50455">
        <ele>1655.4000244141</ele>
        <time>2014-02-12T14:37:52.000Z</time>
      </trkpt>
      <trkpt lat="45.92885" lon="6.50457">
        <ele>1655.8000488281</ele>
        <time>2014-02-12T14:37:53.000Z</time>
      </trkpt>
      <trkpt lat="45.92885" lon="6.50457">
        <ele>1655.8000488281</ele>
        <time>2014-02-12T14:37:54.000Z</time>
      </trkpt>
      <trkpt lat="45.92885" lon="6.50456">
        <ele>1655.8000488281</ele>
        <time>2014-02-12T14:37:55.000Z</time>
      </trkpt>
      <trkpt lat="45.92886" lon="6.50457">
        <ele>1656</ele>
        <time>2014-02-12T14:37:56.000Z</time>
      </trkpt>
      <trkpt lat="45.92886" lon="6.50457">
        <ele>1656</ele>
        <time>2014-02-12T14:37:57.000Z</time>
      </trkpt>
      <trkpt lat="45.92886" lon="6.50457">
        <ele>1656</ele>
        <time>2014-02-12T14:37:58.000Z</time>
      </trkpt>
      <trkpt lat="45.92886" lon="6.50457">
        <ele>1656</ele>
        <time>2014-02-12T14:37:59.000Z</time>
      </trkpt>
      <trkpt lat="45.92886" lon="6.50457">
        <ele>1656</ele>
        <time>2014-02-12T14:38:00.000Z</time>
      </trkpt>
      <trkpt lat="45.92886" lon="6.50457">
        <ele>1656</ele>
        <time>2014-02-12T14:38:01.000Z</time>
      </trkpt>
      <trkpt lat="45.92886" lon="6.50457">
        <ele>1656</ele>
        <time>2014-02-12T14:38:04.000Z</time>
      </trkpt>
      <trkpt lat="45.92885" lon="6.50458">
        <ele>1656.4000244141</ele>
        <time>2014-02-12T14:38:05.000Z</time>
      </trkpt>
      <trkpt lat="45.92884" lon="6.50455">
        <ele>1655.4000244141</ele>
        <time>2014-02-12T14:38:06.000Z</time>
      </trkpt>
      <trkpt lat="45.92882" lon="6.50453">
        <ele>1655</ele>
        <time>2014-02-12T14:38:07.000Z</time>
      </trkpt>
      <trkpt lat="45.9288" lon="6.50451">
        <ele>1654.5999755859</ele>
        <time>2014-02-12T14:38:08.000Z</time>
      </trkpt>
      <trkpt lat="45.92878" lon="6.50449">
        <ele>1654.4000244141</ele>
        <time>2014-02-12T14:38:09.000Z</time>
      </trkpt>
      <trkpt lat="45.92875" lon="6.50447">
        <ele>1654</ele>
        <time>2014-02-12T14:38:10.000Z</time>
      </trkpt>
      <trkpt lat="45.92873" lon="6.50446">
        <ele>1653.8000488281</ele>
        <time>2014-02-12T14:38:11.000Z</time>
      </trkpt>
      <trkpt lat="45.92871" lon="6.50445">
        <ele>1653.5999755859</ele>
        <time>2014-02-12T14:38:12.000Z</time>
      </trkpt>
      <trkpt lat="45.92869" lon="6.50443">
        <ele>1653.4000244141</ele>
        <time>2014-02-12T14:38:13.000Z</time>
      </trkpt>
      <trkpt lat="45.92867" lon="6.50442">
        <ele>1653.4000244141</ele>
        <time>2014-02-12T14:38:14.000Z</time>
      </trkpt>
      <trkpt lat="45.92865" lon="6.50442">
        <ele>1653.5999755859</ele>
        <time>2014-02-12T14:38:15.000Z</time>
      </trkpt>
      <trkpt lat="45.92863" lon="6.50441">
        <ele>1653.4000244141</ele>
        <time>2014-02-12T14:38:16.000Z</time>
      </trkpt>
      <trkpt lat="45.92861" lon="6.5044">
        <ele>1653.4000244141</ele>
        <time>2014-02-12T14:38:17.000Z</time>
      </trkpt>
      <trkpt lat="45.92859" lon="6.50439">
        <ele>1653.1999511719</ele>
        <time>2014-02-12T14:38:18.000Z</time>
      </trkpt>
      <trkpt lat="45.92858" lon="6.50438">
        <ele>1653.1999511719</ele>
        <time>2014-02-12T14:38:19.000Z</time>
      </trkpt>
      <trkpt lat="45.92858" lon="6.50438">
        <ele>1653.1999511719</ele>
        <time>2014-02-12T14:38:20.000Z</time>
      </trkpt>
      <trkpt lat="45.92858" lon="6.50438">
        <ele>1653.1999511719</ele>
        <time>2014-02-12T14:38:21.000Z</time>
      </trkpt>
      <trkpt lat="45.92858" lon="6.50438">
        <ele>1653.1999511719</ele>
        <time>2014-02-12T14:38:22.000Z</time>
      </trkpt>
      <trkpt lat="45.92858" lon="6.50438">
        <ele>1653.1999511719</ele>
        <time>2014-02-12T14:38:23.000Z</time>
      </trkpt>
      <trkpt lat="45.92858" lon="6.50438">
        <ele>1653.1999511719</ele>
        <time>2014-02-12T14:38:24.000Z</time>
      </trkpt>
      <trkpt lat="45.92858" lon="6.50438">
        <ele>1653.1999511719</ele>
        <time>2014-02-12T14:38:25.000Z</time>
      </trkpt>
      <trkpt lat="45.92858" lon="6.50438">
        <ele>1653.1999511719</ele>
        <time>2014-02-12T14:38:26.000Z</time>
      </trkpt>
      <trkpt lat="45.92858" lon="6.50438">
        <ele>1653.1999511719</ele>
        <time>2014-02-12T14:38:27.000Z</time>
      </trkpt>
      <trkpt lat="45.92858" lon="6.50438">
        <ele>1653.1999511719</ele>
        <time>2014-02-12T14:38:28.000Z</time>
      </trkpt>
      <trkpt lat="45.92858" lon="6.50438">
        <ele>1653.1999511719</ele>
        <time>2014-02-12T14:38:30.000Z</time>
      </trkpt>
      <trkpt lat="45.92858" lon="6.50438">
        <ele>1653.1999511719</ele>
        <time>2014-02-12T14:38:31.000Z</time>
      </trkpt>
      <trkpt lat="45.92858" lon="6.50438">
        <ele>1653.1999511719</ele>
        <time>2014-02-12T14:38:32.000Z</time>
      </trkpt>
      <trkpt lat="45.92858" lon="6.50438">
        <ele>1653.1999511719</ele>
        <time>2014-02-12T14:38:34.000Z</time>
      </trkpt>
      <trkpt lat="45.92858" lon="6.50438">
        <ele>1653.1999511719</ele>
        <time>2014-02-12T14:38:37.000Z</time>
      </trkpt>
      <trkpt lat="45.92858" lon="6.50438">
        <ele>1653.1999511719</ele>
        <time>2014-02-12T14:38:38.000Z</time>
      </trkpt>
      <trkpt lat="45.92858" lon="6.50438">
        <ele>1653.1999511719</ele>
        <time>2014-02-12T14:38:39.000Z</time>
      </trkpt>
      <trkpt lat="45.92858" lon="6.50438">
        <ele>1653.1999511719</ele>
        <time>2014-02-12T14:38:40.000Z</time>
      </trkpt>
      <trkpt lat="45.92858" lon="6.50438">
        <ele>1653.1999511719</ele>
        <time>2014-02-12T14:38:48.000Z</time>
      </trkpt>
      <trkpt lat="45.92858" lon="6.50438">
        <ele>1653.1999511719</ele>
        <time>2014-02-12T14:38:49.000Z</time>
      </trkpt>
      <trkpt lat="45.92858" lon="6.50438">
        <ele>1653.1999511719</ele>
        <time>2014-02-12T14:38:50.000Z</time>
      </trkpt>
      <trkpt lat="45.92858" lon="6.50438">
        <ele>1653.1999511719</ele>
        <time>2014-02-12T14:38:51.000Z</time>
      </trkpt>
      <trkpt lat="45.92858" lon="6.50438">
        <ele>1653.1999511719</ele>
        <time>2014-02-12T14:38:52.000Z</time>
      </trkpt>
      <trkpt lat="45.92858" lon="6.50438">
        <ele>1653.1999511719</ele>
        <time>2014-02-12T14:38:56.000Z</time>
      </trkpt>
      <trkpt lat="45.92858" lon="6.50438">
        <ele>1653.1999511719</ele>
        <time>2014-02-12T14:38:57.000Z</time>
      </trkpt>
      <trkpt lat="45.92858" lon="6.50438">
        <ele>1653.1999511719</ele>
        <time>2014-02-12T14:38:58.000Z</time>
      </trkpt>
      <trkpt lat="45.92858" lon="6.50438">
        <ele>1653.1999511719</ele>
        <time>2014-02-12T14:38:59.000Z</time>
      </trkpt>
      <trkpt lat="45.92858" lon="6.50439">
        <ele>1653.1999511719</ele>
        <time>2014-02-12T14:39:00.000Z</time>
      </trkpt>
      <trkpt lat="45.92858" lon="6.50439">
        <ele>1653.1999511719</ele>
        <time>2014-02-12T14:39:04.000Z</time>
      </trkpt>
      <trkpt lat="45.92858" lon="6.50439">
        <ele>1653.1999511719</ele>
        <time>2014-02-12T14:39:05.000Z</time>
      </trkpt>
      <trkpt lat="45.92858" lon="6.50439">
        <ele>1653.1999511719</ele>
        <time>2014-02-12T14:39:06.000Z</time>
      </trkpt>
      <trkpt lat="45.92858" lon="6.50439">
        <ele>1653.1999511719</ele>
        <time>2014-02-12T14:39:09.000Z</time>
      </trkpt>
      <trkpt lat="45.92858" lon="6.50439">
        <ele>1653.1999511719</ele>
        <time>2014-02-12T14:39:14.000Z</time>
      </trkpt>
      <trkpt lat="45.92858" lon="6.50439">
        <ele>1653.1999511719</ele>
        <time>2014-02-12T14:39:15.000Z</time>
      </trkpt>
      <trkpt lat="45.92858" lon="6.50439">
        <ele>1653.1999511719</ele>
        <time>2014-02-12T14:39:16.000Z</time>
      </trkpt>
      <trkpt lat="45.92858" lon="6.50439">
        <ele>1653.1999511719</ele>
        <time>2014-02-12T14:39:18.000Z</time>
      </trkpt>
      <trkpt lat="45.92858" lon="6.50439">
        <ele>1653.1999511719</ele>
        <time>2014-02-12T14:39:19.000Z</time>
      </trkpt>
      <trkpt lat="45.92858" lon="6.50439">
        <ele>1653.1999511719</ele>
        <time>2014-02-12T14:39:20.000Z</time>
      </trkpt>
      <trkpt lat="45.92858" lon="6.50439">
        <ele>1653.1999511719</ele>
        <time>2014-02-12T14:39:21.000Z</time>
      </trkpt>
      <trkpt lat="45.92858" lon="6.50439">
        <ele>1653.1999511719</ele>
        <time>2014-02-12T14:39:22.000Z</time>
      </trkpt>
      <trkpt lat="45.92858" lon="6.50439">
        <ele>1653.1999511719</ele>
        <time>2014-02-12T14:39:23.000Z</time>
      </trkpt>
      <trkpt lat="45.92858" lon="6.50439">
        <ele>1653.1999511719</ele>
        <time>2014-02-12T14:39:25.000Z</time>
      </trkpt>
      <trkpt lat="45.92858" lon="6.50439">
        <ele>1653.1999511719</ele>
        <time>2014-02-12T14:39:26.000Z</time>
      </trkpt>
      <trkpt lat="45.92858" lon="6.50439">
        <ele>1653.1999511719</ele>
        <time>2014-02-12T14:39:27.000Z</time>
      </trkpt>
      <trkpt lat="45.92858" lon="6.50439">
        <ele>1653.1999511719</ele>
        <time>2014-02-12T14:39:28.000Z</time>
      </trkpt>
      <trkpt lat="45.92858" lon="6.50439">
        <ele>1653.1999511719</ele>
        <time>2014-02-12T14:39:29.000Z</time>
      </trkpt>
      <trkpt lat="45.92858" lon="6.50439">
        <ele>1653.1999511719</ele>
        <time>2014-02-12T14:39:31.000Z</time>
      </trkpt>
      <trkpt lat="45.92858" lon="6.50439">
        <ele>1653.1999511719</ele>
        <time>2014-02-12T14:39:32.000Z</time>
      </trkpt>
      <trkpt lat="45.92858" lon="6.50439">
        <ele>1653.1999511719</ele>
        <time>2014-02-12T14:39:33.000Z</time>
      </trkpt>
      <trkpt lat="45.92858" lon="6.50439">
        <ele>1653.1999511719</ele>
        <time>2014-02-12T14:39:34.000Z</time>
      </trkpt>
      <trkpt lat="45.92858" lon="6.50439">
        <ele>1653.1999511719</ele>
        <time>2014-02-12T14:39:36.000Z</time>
      </trkpt>
      <trkpt lat="45.92858" lon="6.50439">
        <ele>1653.1999511719</ele>
        <time>2014-02-12T14:39:37.000Z</time>
      </trkpt>
      <trkpt lat="45.92858" lon="6.50439">
        <ele>1653.1999511719</ele>
        <time>2014-02-12T14:39:38.000Z</time>
      </trkpt>
      <trkpt lat="45.92858" lon="6.50439">
        <ele>1653.4000244141</ele>
        <time>2014-02-12T14:39:53.000Z</time>
      </trkpt>
      <trkpt lat="45.92858" lon="6.50439">
        <ele>1653.4000244141</ele>
        <time>2014-02-12T14:39:55.000Z</time>
      </trkpt>
      <trkpt lat="45.92858" lon="6.50439">
        <ele>1653.4000244141</ele>
        <time>2014-02-12T14:39:57.000Z</time>
      </trkpt>
      <trkpt lat="45.92858" lon="6.50439">
        <ele>1653.4000244141</ele>
        <time>2014-02-12T14:39:58.000Z</time>
      </trkpt>
      <trkpt lat="45.92858" lon="6.50439">
        <ele>1653.4000244141</ele>
        <time>2014-02-12T14:40:03.000Z</time>
      </trkpt>
      <trkpt lat="45.92858" lon="6.50439">
        <ele>1653.4000244141</ele>
        <time>2014-02-12T14:40:04.000Z</time>
      </trkpt>
      <trkpt lat="45.92858" lon="6.50439">
        <ele>1653.4000244141</ele>
        <time>2014-02-12T14:40:05.000Z</time>
      </trkpt>
      <trkpt lat="45.92858" lon="6.50439">
        <ele>1653.4000244141</ele>
        <time>2014-02-12T14:40:10.000Z</time>
      </trkpt>
      <trkpt lat="45.92858" lon="6.50439">
        <ele>1653.4000244141</ele>
        <time>2014-02-12T14:40:13.000Z</time>
      </trkpt>
      <trkpt lat="45.92858" lon="6.50439">
        <ele>1653.4000244141</ele>
        <time>2014-02-12T14:40:15.000Z</time>
      </trkpt>
      <trkpt lat="45.92858" lon="6.50439">
        <ele>1653.4000244141</ele>
        <time>2014-02-12T14:40:19.000Z</time>
      </trkpt>
      <trkpt lat="45.92857" lon="6.5044">
        <ele>1653.5999755859</ele>
        <time>2014-02-12T14:40:22.000Z</time>
      </trkpt>
      <trkpt lat="45.92857" lon="6.5044">
        <ele>1653.5999755859</ele>
        <time>2014-02-12T14:40:23.000Z</time>
      </trkpt>
      <trkpt lat="45.92857" lon="6.5044">
        <ele>1653.5999755859</ele>
        <time>2014-02-12T14:40:24.000Z</time>
      </trkpt>
      <trkpt lat="45.92857" lon="6.5044">
        <ele>1653.5999755859</ele>
        <time>2014-02-12T14:40:25.000Z</time>
      </trkpt>
      <trkpt lat="45.92857" lon="6.5044">
        <ele>1653.5999755859</ele>
        <time>2014-02-12T14:40:26.000Z</time>
      </trkpt>
      <trkpt lat="45.92857" lon="6.5044">
        <ele>1653.5999755859</ele>
        <time>2014-02-12T14:40:28.000Z</time>
      </trkpt>
      <trkpt lat="45.92857" lon="6.5044">
        <ele>1653.5999755859</ele>
        <time>2014-02-12T14:40:33.000Z</time>
      </trkpt>
      <trkpt lat="45.92857" lon="6.5044">
        <ele>1653.5999755859</ele>
        <time>2014-02-12T14:40:34.000Z</time>
      </trkpt>
      <trkpt lat="45.92857" lon="6.5044">
        <ele>1653.5999755859</ele>
        <time>2014-02-12T14:40:35.000Z</time>
      </trkpt>
      <trkpt lat="45.92857" lon="6.5044">
        <ele>1653.5999755859</ele>
        <time>2014-02-12T14:40:36.000Z</time>
      </trkpt>
      <trkpt lat="45.92857" lon="6.5044">
        <ele>1653.5999755859</ele>
        <time>2014-02-12T14:40:37.000Z</time>
      </trkpt>
      <trkpt lat="45.92857" lon="6.5044">
        <ele>1653.5999755859</ele>
        <time>2014-02-12T14:40:38.000Z</time>
      </trkpt>
      <trkpt lat="45.92857" lon="6.5044">
        <ele>1653.5999755859</ele>
        <time>2014-02-12T14:40:39.000Z</time>
      </trkpt>
      <trkpt lat="45.92857" lon="6.5044">
        <ele>1653.5999755859</ele>
        <time>2014-02-12T14:40:40.000Z</time>
      </trkpt>
      <trkpt lat="45.92857" lon="6.5044">
        <ele>1653.5999755859</ele>
        <time>2014-02-12T14:40:41.000Z</time>
      </trkpt>
      <trkpt lat="45.92857" lon="6.5044">
        <ele>1653.5999755859</ele>
        <time>2014-02-12T14:40:43.000Z</time>
      </trkpt>
      <trkpt lat="45.92857" lon="6.5044">
        <ele>1653.5999755859</ele>
        <time>2014-02-12T14:40:44.000Z</time>
      </trkpt>
      <trkpt lat="45.92857" lon="6.5044">
        <ele>1653.5999755859</ele>
        <time>2014-02-12T14:40:46.000Z</time>
      </trkpt>
      <trkpt lat="45.92857" lon="6.5044">
        <ele>1653.5999755859</ele>
        <time>2014-02-12T14:40:47.000Z</time>
      </trkpt>
      <trkpt lat="45.92857" lon="6.5044">
        <ele>1653.5999755859</ele>
        <time>2014-02-12T14:40:48.000Z</time>
      </trkpt>
      <trkpt lat="45.92857" lon="6.5044">
        <ele>1653.5999755859</ele>
        <time>2014-02-12T14:40:51.000Z</time>
      </trkpt>
      <trkpt lat="45.92857" lon="6.5044">
        <ele>1653.5999755859</ele>
        <time>2014-02-12T14:40:53.000Z</time>
      </trkpt>
      <trkpt lat="45.92857" lon="6.5044">
        <ele>1653.5999755859</ele>
        <time>2014-02-12T14:40:54.000Z</time>
      </trkpt>
      <trkpt lat="45.92857" lon="6.5044">
        <ele>1653.5999755859</ele>
        <time>2014-02-12T14:40:56.000Z</time>
      </trkpt>
      <trkpt lat="45.92857" lon="6.5044">
        <ele>1653.5999755859</ele>
        <time>2014-02-12T14:40:57.000Z</time>
      </trkpt>
      <trkpt lat="45.92857" lon="6.5044">
        <ele>1653.5999755859</ele>
        <time>2014-02-12T14:40:58.000Z</time>
      </trkpt>
      <trkpt lat="45.92857" lon="6.5044">
        <ele>1653.5999755859</ele>
        <time>2014-02-12T14:40:59.000Z</time>
      </trkpt>
      <trkpt lat="45.92858" lon="6.5044">
        <ele>1653.8000488281</ele>
        <time>2014-02-12T14:41:00.000Z</time>
      </trkpt>
      <trkpt lat="45.92858" lon="6.5044">
        <ele>1653.8000488281</ele>
        <time>2014-02-12T14:41:01.000Z</time>
      </trkpt>
      <trkpt lat="45.92858" lon="6.5044">
        <ele>1653.8000488281</ele>
        <time>2014-02-12T14:41:02.000Z</time>
      </trkpt>
      <trkpt lat="45.92858" lon="6.5044">
        <ele>1653.8000488281</ele>
        <time>2014-02-12T14:41:03.000Z</time>
      </trkpt>
      <trkpt lat="45.92858" lon="6.5044">
        <ele>1653.8000488281</ele>
        <time>2014-02-12T14:41:04.000Z</time>
      </trkpt>
      <trkpt lat="45.92858" lon="6.5044">
        <ele>1653.8000488281</ele>
        <time>2014-02-12T14:41:05.000Z</time>
      </trkpt>
      <trkpt lat="45.92858" lon="6.5044">
        <ele>1653.8000488281</ele>
        <time>2014-02-12T14:41:06.000Z</time>
      </trkpt>
      <trkpt lat="45.92858" lon="6.5044">
        <ele>1653.8000488281</ele>
        <time>2014-02-12T14:41:07.000Z</time>
      </trkpt>
      <trkpt lat="45.92858" lon="6.5044">
        <ele>1653.8000488281</ele>
        <time>2014-02-12T14:41:09.000Z</time>
      </trkpt>
      <trkpt lat="45.92858" lon="6.5044">
        <ele>1653.8000488281</ele>
        <time>2014-02-12T14:41:10.000Z</time>
      </trkpt>
      <trkpt lat="45.92858" lon="6.5044">
        <ele>1653.8000488281</ele>
        <time>2014-02-12T14:41:11.000Z</time>
      </trkpt>
      <trkpt lat="45.92858" lon="6.5044">
        <ele>1653.8000488281</ele>
        <time>2014-02-12T14:41:13.000Z</time>
      </trkpt>
      <trkpt lat="45.92858" lon="6.5044">
        <ele>1653.8000488281</ele>
        <time>2014-02-12T14:41:14.000Z</time>
      </trkpt>
      <trkpt lat="45.92858" lon="6.5044">
        <ele>1653.8000488281</ele>
        <time>2014-02-12T14:41:15.000Z</time>
      </trkpt>
      <trkpt lat="45.92858" lon="6.5044">
        <ele>1653.8000488281</ele>
        <time>2014-02-12T14:41:16.000Z</time>
      </trkpt>
      <trkpt lat="45.92858" lon="6.5044">
        <ele>1653.8000488281</ele>
        <time>2014-02-12T14:41:17.000Z</time>
      </trkpt>
      <trkpt lat="45.92858" lon="6.5044">
        <ele>1653.8000488281</ele>
        <time>2014-02-12T14:41:18.000Z</time>
      </trkpt>
      <trkpt lat="45.92858" lon="6.5044">
        <ele>1653.8000488281</ele>
        <time>2014-02-12T14:41:19.000Z</time>
      </trkpt>
      <trkpt lat="45.92858" lon="6.5044">
        <ele>1653.8000488281</ele>
        <time>2014-02-12T14:41:20.000Z</time>
      </trkpt>
      <trkpt lat="45.92857" lon="6.5044">
        <ele>1653.8000488281</ele>
        <time>2014-02-12T14:41:21.000Z</time>
      </trkpt>
      <trkpt lat="45.92853" lon="6.50439">
        <ele>1653.8000488281</ele>
        <time>2014-02-12T14:41:22.000Z</time>
      </trkpt>
      <trkpt lat="45.92847" lon="6.50437">
        <ele>1653.8000488281</ele>
        <time>2014-02-12T14:41:23.000Z</time>
      </trkpt>
      <trkpt lat="45.92843" lon="6.50433">
        <ele>1653</ele>
        <time>2014-02-12T14:41:24.000Z</time>
      </trkpt>
      <trkpt lat="45.92838" lon="6.50428">
        <ele>1652.1999511719</ele>
        <time>2014-02-12T14:41:25.000Z</time>
      </trkpt>
      <trkpt lat="45.92832" lon="6.50425">
        <ele>1651.5999755859</ele>
        <time>2014-02-12T14:41:26.000Z</time>
      </trkpt>
      <trkpt lat="45.92828" lon="6.50417">
        <ele>1650</ele>
        <time>2014-02-12T14:41:27.000Z</time>
      </trkpt>
      <trkpt lat="45.92822" lon="6.50409">
        <ele>1648.1999511719</ele>
        <time>2014-02-12T14:41:28.000Z</time>
      </trkpt>
      <trkpt lat="45.92817" lon="6.50399">
        <ele>1645.8000488281</ele>
        <time>2014-02-12T14:41:29.000Z</time>
      </trkpt>
      <trkpt lat="45.92812" lon="6.50389">
        <ele>1643.1999511719</ele>
        <time>2014-02-12T14:41:30.000Z</time>
      </trkpt>
      <trkpt lat="45.92807" lon="6.50382">
        <ele>1641.5999755859</ele>
        <time>2014-02-12T14:41:31.000Z</time>
      </trkpt>
      <trkpt lat="45.92802" lon="6.50376">
        <ele>1640.8000488281</ele>
        <time>2014-02-12T14:41:32.000Z</time>
      </trkpt>
      <trkpt lat="45.92798" lon="6.50369">
        <ele>1639.5999755859</ele>
        <time>2014-02-12T14:41:33.000Z</time>
      </trkpt>
      <trkpt lat="45.92794" lon="6.50363">
        <ele>1638.8000488281</ele>
        <time>2014-02-12T14:41:34.000Z</time>
      </trkpt>
      <trkpt lat="45.92791" lon="6.50359">
        <ele>1638.4000244141</ele>
        <time>2014-02-12T14:41:35.000Z</time>
      </trkpt>
      <trkpt lat="45.92789" lon="6.50359">
        <ele>1638.8000488281</ele>
        <time>2014-02-12T14:41:36.000Z</time>
      </trkpt>
      <trkpt lat="45.92788" lon="6.50357">
        <ele>1638.4000244141</ele>
        <time>2014-02-12T14:41:37.000Z</time>
      </trkpt>
      <trkpt lat="45.92786" lon="6.50354">
        <ele>1637.8000488281</ele>
        <time>2014-02-12T14:41:38.000Z</time>
      </trkpt>
      <trkpt lat="45.92783" lon="6.50349">
        <ele>1637.1999511719</ele>
        <time>2014-02-12T14:41:39.000Z</time>
      </trkpt>
      <trkpt lat="45.92781" lon="6.50344">
        <ele>1636.1999511719</ele>
        <time>2014-02-12T14:41:40.000Z</time>
      </trkpt>
      <trkpt lat="45.9278" lon="6.50339">
        <ele>1634.8000488281</ele>
        <time>2014-02-12T14:41:41.000Z</time>
      </trkpt>
      <trkpt lat="45.92779" lon="6.50335">
        <ele>1633.8000488281</ele>
        <time>2014-02-12T14:41:42.000Z</time>
      </trkpt>
      <trkpt lat="45.92779" lon="6.50334">
        <ele>1633.1999511719</ele>
        <time>2014-02-12T14:41:43.000Z</time>
      </trkpt>
      <trkpt lat="45.9278" lon="6.50335">
        <ele>1633.5999755859</ele>
        <time>2014-02-12T14:41:44.000Z</time>
      </trkpt>
      <trkpt lat="45.9278" lon="6.50337">
        <ele>1634.1999511719</ele>
        <time>2014-02-12T14:41:45.000Z</time>
      </trkpt>
      <trkpt lat="45.92781" lon="6.50339">
        <ele>1634.4000244141</ele>
        <time>2014-02-12T14:41:46.000Z</time>
      </trkpt>
      <trkpt lat="45.92782" lon="6.5034">
        <ele>1634.5999755859</ele>
        <time>2014-02-12T14:41:47.000Z</time>
      </trkpt>
      <trkpt lat="45.92783" lon="6.50342">
        <ele>1634.8000488281</ele>
        <time>2014-02-12T14:41:48.000Z</time>
      </trkpt>
      <trkpt lat="45.92784" lon="6.50343">
        <ele>1635.1999511719</ele>
        <time>2014-02-12T14:41:49.000Z</time>
      </trkpt>
      <trkpt lat="45.92784" lon="6.50345">
        <ele>1635.4000244141</ele>
        <time>2014-02-12T14:41:50.000Z</time>
      </trkpt>
      <trkpt lat="45.92785" lon="6.50346">
        <ele>1635.8000488281</ele>
        <time>2014-02-12T14:41:51.000Z</time>
      </trkpt>
      <trkpt lat="45.92786" lon="6.50348">
        <ele>1636.1999511719</ele>
        <time>2014-02-12T14:41:52.000Z</time>
      </trkpt>
      <trkpt lat="45.92787" lon="6.50353">
        <ele>1637.4000244141</ele>
        <time>2014-02-12T14:41:55.000Z</time>
      </trkpt>
      <trkpt lat="45.92788" lon="6.50354">
        <ele>1637.1999511719</ele>
        <time>2014-02-12T14:41:57.000Z</time>
      </trkpt>
      <trkpt lat="45.92789" lon="6.50352">
        <ele>1636.5999755859</ele>
        <time>2014-02-12T14:41:58.000Z</time>
      </trkpt>
      <trkpt lat="45.92789" lon="6.50349">
        <ele>1635.5999755859</ele>
        <time>2014-02-12T14:41:59.000Z</time>
      </trkpt>
      <trkpt lat="45.92789" lon="6.50343">
        <ele>1634</ele>
        <time>2014-02-12T14:42:00.000Z</time>
      </trkpt>
      <trkpt lat="45.92787" lon="6.50335">
        <ele>1631.5999755859</ele>
        <time>2014-02-12T14:42:01.000Z</time>
      </trkpt>
      <trkpt lat="45.92787" lon="6.50328">
        <ele>1629.8000488281</ele>
        <time>2014-02-12T14:42:02.000Z</time>
      </trkpt>
      <trkpt lat="45.92784" lon="6.5032">
        <ele>1627.8000488281</ele>
        <time>2014-02-12T14:42:03.000Z</time>
      </trkpt>
      <trkpt lat="45.92782" lon="6.50313">
        <ele>1625.5999755859</ele>
        <time>2014-02-12T14:42:04.000Z</time>
      </trkpt>
      <trkpt lat="45.92781" lon="6.50305">
        <ele>1622.8000488281</ele>
        <time>2014-02-12T14:42:05.000Z</time>
      </trkpt>
      <trkpt lat="45.92779" lon="6.50298">
        <ele>1619.8000488281</ele>
        <time>2014-02-12T14:42:06.000Z</time>
      </trkpt>
      <trkpt lat="45.92777" lon="6.50289">
        <ele>1616.8000488281</ele>
        <time>2014-02-12T14:42:07.000Z</time>
      </trkpt>
      <trkpt lat="45.92776" lon="6.50279">
        <ele>1613.4000244141</ele>
        <time>2014-02-12T14:42:08.000Z</time>
      </trkpt>
      <trkpt lat="45.92774" lon="6.50269">
        <ele>1610.5999755859</ele>
        <time>2014-02-12T14:42:09.000Z</time>
      </trkpt>
      <trkpt lat="45.92772" lon="6.50259">
        <ele>1607.5999755859</ele>
        <time>2014-02-12T14:42:10.000Z</time>
      </trkpt>
      <trkpt lat="45.92769" lon="6.50247">
        <ele>1604.4000244141</ele>
        <time>2014-02-12T14:42:11.000Z</time>
      </trkpt>
      <trkpt lat="45.92767" lon="6.50236">
        <ele>1601.1999511719</ele>
        <time>2014-02-12T14:42:12.000Z</time>
      </trkpt>
      <trkpt lat="45.92765" lon="6.5023">
        <ele>1599.5999755859</ele>
        <time>2014-02-12T14:42:13.000Z</time>
      </trkpt>
      <trkpt lat="45.92763" lon="6.50225">
        <ele>1598.1999511719</ele>
        <time>2014-02-12T14:42:14.000Z</time>
      </trkpt>
      <trkpt lat="45.92762" lon="6.50218">
        <ele>1596.4000244141</ele>
        <time>2014-02-12T14:42:15.000Z</time>
      </trkpt>
      <trkpt lat="45.92759" lon="6.50211">
        <ele>1594.5999755859</ele>
        <time>2014-02-12T14:42:16.000Z</time>
      </trkpt>
      <trkpt lat="45.92756" lon="6.50205">
        <ele>1593.1999511719</ele>
        <time>2014-02-12T14:42:17.000Z</time>
      </trkpt>
      <trkpt lat="45.92752" lon="6.50199">
        <ele>1592</ele>
        <time>2014-02-12T14:42:18.000Z</time>
      </trkpt>
      <trkpt lat="45.92748" lon="6.50194">
        <ele>1591</ele>
        <time>2014-02-12T14:42:19.000Z</time>
      </trkpt>
      <trkpt lat="45.92744" lon="6.50191">
        <ele>1590.4000244141</ele>
        <time>2014-02-12T14:42:20.000Z</time>
      </trkpt>
      <trkpt lat="45.92741" lon="6.50188">
        <ele>1590.1999511719</ele>
        <time>2014-02-12T14:42:21.000Z</time>
      </trkpt>
      <trkpt lat="45.92737" lon="6.50184">
        <ele>1589.4000244141</ele>
        <time>2014-02-12T14:42:22.000Z</time>
      </trkpt>
      <trkpt lat="45.92733" lon="6.5018">
        <ele>1588.8000488281</ele>
        <time>2014-02-12T14:42:23.000Z</time>
      </trkpt>
      <trkpt lat="45.92729" lon="6.50175">
        <ele>1587.8000488281</ele>
        <time>2014-02-12T14:42:24.000Z</time>
      </trkpt>
      <trkpt lat="45.92726" lon="6.50172">
        <ele>1587.1999511719</ele>
        <time>2014-02-12T14:42:25.000Z</time>
      </trkpt>
      <trkpt lat="45.92721" lon="6.50168">
        <ele>1587</ele>
        <time>2014-02-12T14:42:26.000Z</time>
      </trkpt>
      <trkpt lat="45.92716" lon="6.50164">
        <ele>1587.1999511719</ele>
        <time>2014-02-12T14:42:27.000Z</time>
      </trkpt>
      <trkpt lat="45.92713" lon="6.5016">
        <ele>1586.8000488281</ele>
        <time>2014-02-12T14:42:28.000Z</time>
      </trkpt>
      <trkpt lat="45.92708" lon="6.50155">
        <ele>1586.4000244141</ele>
        <time>2014-02-12T14:42:29.000Z</time>
      </trkpt>
      <trkpt lat="45.92703" lon="6.50151">
        <ele>1586.8000488281</ele>
        <time>2014-02-12T14:42:30.000Z</time>
      </trkpt>
      <trkpt lat="45.92698" lon="6.50149">
        <ele>1587.1999511719</ele>
        <time>2014-02-12T14:42:31.000Z</time>
      </trkpt>
      <trkpt lat="45.92693" lon="6.50145">
        <ele>1587.5999755859</ele>
        <time>2014-02-12T14:42:32.000Z</time>
      </trkpt>
      <trkpt lat="45.92688" lon="6.50141">
        <ele>1587.5999755859</ele>
        <time>2014-02-12T14:42:33.000Z</time>
      </trkpt>
      <trkpt lat="45.92683" lon="6.50136">
        <ele>1587.1999511719</ele>
        <time>2014-02-12T14:42:34.000Z</time>
      </trkpt>
      <trkpt lat="45.92679" lon="6.50128">
        <ele>1586.4000244141</ele>
        <time>2014-02-12T14:42:35.000Z</time>
      </trkpt>
      <trkpt lat="45.92675" lon="6.50123">
        <ele>1585.8000488281</ele>
        <time>2014-02-12T14:42:36.000Z</time>
      </trkpt>
      <trkpt lat="45.9267" lon="6.50117">
        <ele>1585.4000244141</ele>
        <time>2014-02-12T14:42:37.000Z</time>
      </trkpt>
      <trkpt lat="45.92665" lon="6.5011">
        <ele>1584.8000488281</ele>
        <time>2014-02-12T14:42:38.000Z</time>
      </trkpt>
      <trkpt lat="45.92661" lon="6.50104">
        <ele>1584.1999511719</ele>
        <time>2014-02-12T14:42:39.000Z</time>
      </trkpt>
      <trkpt lat="45.92657" lon="6.50096">
        <ele>1583</ele>
        <time>2014-02-12T14:42:40.000Z</time>
      </trkpt>
      <trkpt lat="45.92652" lon="6.50089">
        <ele>1582.1999511719</ele>
        <time>2014-02-12T14:42:41.000Z</time>
      </trkpt>
      <trkpt lat="45.92649" lon="6.5008">
        <ele>1580.4000244141</ele>
        <time>2014-02-12T14:42:42.000Z</time>
      </trkpt>
      <trkpt lat="45.92647" lon="6.50068">
        <ele>1577.5999755859</ele>
        <time>2014-02-12T14:42:43.000Z</time>
      </trkpt>
      <trkpt lat="45.92644" lon="6.50057">
        <ele>1575</ele>
        <time>2014-02-12T14:42:44.000Z</time>
      </trkpt>
      <trkpt lat="45.9264" lon="6.50045">
        <ele>1573</ele>
        <time>2014-02-12T14:42:45.000Z</time>
      </trkpt>
      <trkpt lat="45.92637" lon="6.50035">
        <ele>1571.5999755859</ele>
        <time>2014-02-12T14:42:46.000Z</time>
      </trkpt>
      <trkpt lat="45.92634" lon="6.50026">
        <ele>1570.5999755859</ele>
        <time>2014-02-12T14:42:47.000Z</time>
      </trkpt>
      <trkpt lat="45.92631" lon="6.50018">
        <ele>1570.4000244141</ele>
        <time>2014-02-12T14:42:48.000Z</time>
      </trkpt>
      <trkpt lat="45.92627" lon="6.50011">
        <ele>1570.4000244141</ele>
        <time>2014-02-12T14:42:49.000Z</time>
      </trkpt>
      <trkpt lat="45.92624" lon="6.5">
        <ele>1568.8000488281</ele>
        <time>2014-02-12T14:42:50.000Z</time>
      </trkpt>
      <trkpt lat="45.92621" lon="6.49992">
        <ele>1568.1999511719</ele>
        <time>2014-02-12T14:42:51.000Z</time>
      </trkpt>
      <trkpt lat="45.92618" lon="6.49984">
        <ele>1567.1999511719</ele>
        <time>2014-02-12T14:42:52.000Z</time>
      </trkpt>
      <trkpt lat="45.92615" lon="6.49976">
        <ele>1566.8000488281</ele>
        <time>2014-02-12T14:42:53.000Z</time>
      </trkpt>
      <trkpt lat="45.92613" lon="6.49973">
        <ele>1567.1999511719</ele>
        <time>2014-02-12T14:42:54.000Z</time>
      </trkpt>
      <trkpt lat="45.92611" lon="6.4997">
        <ele>1567.5999755859</ele>
        <time>2014-02-12T14:42:55.000Z</time>
      </trkpt>
      <trkpt lat="45.92609" lon="6.49967">
        <ele>1567.8000488281</ele>
        <time>2014-02-12T14:42:56.000Z</time>
      </trkpt>
      <trkpt lat="45.92608" lon="6.49964">
        <ele>1567.4000244141</ele>
        <time>2014-02-12T14:42:57.000Z</time>
      </trkpt>
      <trkpt lat="45.92608" lon="6.49962">
        <ele>1567</ele>
        <time>2014-02-12T14:42:58.000Z</time>
      </trkpt>
      <trkpt lat="45.92608" lon="6.49959">
        <ele>1566.4000244141</ele>
        <time>2014-02-12T14:42:59.000Z</time>
      </trkpt>
      <trkpt lat="45.92608" lon="6.49956">
        <ele>1565.5999755859</ele>
        <time>2014-02-12T14:43:00.000Z</time>
      </trkpt>
      <trkpt lat="45.92608" lon="6.49953">
        <ele>1565</ele>
        <time>2014-02-12T14:43:01.000Z</time>
      </trkpt>
      <trkpt lat="45.92608" lon="6.49953">
        <ele>1565</ele>
        <time>2014-02-12T14:43:02.000Z</time>
      </trkpt>
      <trkpt lat="45.92607" lon="6.49952">
        <ele>1565</ele>
        <time>2014-02-12T14:43:03.000Z</time>
      </trkpt>
      <trkpt lat="45.92609" lon="6.49952">
        <ele>1564.4000244141</ele>
        <time>2014-02-12T14:43:04.000Z</time>
      </trkpt>
      <trkpt lat="45.92611" lon="6.49952">
        <ele>1563.1999511719</ele>
        <time>2014-02-12T14:43:05.000Z</time>
      </trkpt>
      <trkpt lat="45.92613" lon="6.49952">
        <ele>1562.4000244141</ele>
        <time>2014-02-12T14:43:06.000Z</time>
      </trkpt>
      <trkpt lat="45.92613" lon="6.49953">
        <ele>1562.1999511719</ele>
        <time>2014-02-12T14:43:07.000Z</time>
      </trkpt>
      <trkpt lat="45.92614" lon="6.49953">
        <ele>1562</ele>
        <time>2014-02-12T14:43:08.000Z</time>
      </trkpt>
      <trkpt lat="45.92615" lon="6.49954">
        <ele>1561.4000244141</ele>
        <time>2014-02-12T14:43:09.000Z</time>
      </trkpt>
      <trkpt lat="45.92615" lon="6.49954">
        <ele>1561.4000244141</ele>
        <time>2014-02-12T14:43:10.000Z</time>
      </trkpt>
      <trkpt lat="45.92615" lon="6.49954">
        <ele>1561.4000244141</ele>
        <time>2014-02-12T14:43:11.000Z</time>
      </trkpt>
      <trkpt lat="45.92615" lon="6.49954">
        <ele>1561.5999755859</ele>
        <time>2014-02-12T14:43:12.000Z</time>
      </trkpt>
      <trkpt lat="45.92616" lon="6.49955">
        <ele>1561.5999755859</ele>
        <time>2014-02-12T14:43:13.000Z</time>
      </trkpt>
      <trkpt lat="45.92617" lon="6.49955">
        <ele>1561</ele>
        <time>2014-02-12T14:43:14.000Z</time>
      </trkpt>
      <trkpt lat="45.92617" lon="6.49955">
        <ele>1561</ele>
        <time>2014-02-12T14:43:17.000Z</time>
      </trkpt>
      <trkpt lat="45.92617" lon="6.49955">
        <ele>1561</ele>
        <time>2014-02-12T14:43:18.000Z</time>
      </trkpt>
      <trkpt lat="45.92617" lon="6.49955">
        <ele>1561</ele>
        <time>2014-02-12T14:43:19.000Z</time>
      </trkpt>
      <trkpt lat="45.92617" lon="6.49955">
        <ele>1561</ele>
        <time>2014-02-12T14:43:20.000Z</time>
      </trkpt>
      <trkpt lat="45.92617" lon="6.49955">
        <ele>1561</ele>
        <time>2014-02-12T14:43:21.000Z</time>
      </trkpt>
      <trkpt lat="45.92617" lon="6.49955">
        <ele>1561</ele>
        <time>2014-02-12T14:43:23.000Z</time>
      </trkpt>
      <trkpt lat="45.92617" lon="6.49955">
        <ele>1561</ele>
        <time>2014-02-12T14:43:24.000Z</time>
      </trkpt>
      <trkpt lat="45.92617" lon="6.49955">
        <ele>1561</ele>
        <time>2014-02-12T14:43:25.000Z</time>
      </trkpt>
      <trkpt lat="45.92617" lon="6.49955">
        <ele>1561</ele>
        <time>2014-02-12T14:43:35.000Z</time>
      </trkpt>
      <trkpt lat="45.92617" lon="6.49955">
        <ele>1561</ele>
        <time>2014-02-12T14:43:36.000Z</time>
      </trkpt>
      <trkpt lat="45.92617" lon="6.49955">
        <ele>1561</ele>
        <time>2014-02-12T14:43:37.000Z</time>
      </trkpt>
      <trkpt lat="45.92618" lon="6.49952">
        <ele>1559.5999755859</ele>
        <time>2014-02-12T14:43:38.000Z</time>
      </trkpt>
      <trkpt lat="45.92626" lon="6.49947">
        <ele>1555.1999511719</ele>
        <time>2014-02-12T14:43:39.000Z</time>
      </trkpt>
      <trkpt lat="45.92629" lon="6.49943">
        <ele>1552.5999755859</ele>
        <time>2014-02-12T14:43:40.000Z</time>
      </trkpt>
      <trkpt lat="45.92631" lon="6.49938">
        <ele>1551</ele>
        <time>2014-02-12T14:43:41.000Z</time>
      </trkpt>
      <trkpt lat="45.92633" lon="6.49936">
        <ele>1549.4000244141</ele>
        <time>2014-02-12T14:43:42.000Z</time>
      </trkpt>
      <trkpt lat="45.92636" lon="6.49933">
        <ele>1547.4000244141</ele>
        <time>2014-02-12T14:43:43.000Z</time>
      </trkpt>
      <trkpt lat="45.92639" lon="6.49929">
        <ele>1545.4000244141</ele>
        <time>2014-02-12T14:43:44.000Z</time>
      </trkpt>
      <trkpt lat="45.92642" lon="6.49925">
        <ele>1543.1999511719</ele>
        <time>2014-02-12T14:43:45.000Z</time>
      </trkpt>
      <trkpt lat="45.92644" lon="6.49919">
        <ele>1541.1999511719</ele>
        <time>2014-02-12T14:43:46.000Z</time>
      </trkpt>
      <trkpt lat="45.92649" lon="6.49916">
        <ele>1538.5999755859</ele>
        <time>2014-02-12T14:43:47.000Z</time>
      </trkpt>
      <trkpt lat="45.92649" lon="6.49908">
        <ele>1536.8000488281</ele>
        <time>2014-02-12T14:43:48.000Z</time>
      </trkpt>
      <trkpt lat="45.92646" lon="6.49903">
        <ele>1537</ele>
        <time>2014-02-12T14:43:49.000Z</time>
      </trkpt>
      <trkpt lat="45.92644" lon="6.49895">
        <ele>1537.1999511719</ele>
        <time>2014-02-12T14:43:50.000Z</time>
      </trkpt>
      <trkpt lat="45.92643" lon="6.49887">
        <ele>1536.8000488281</ele>
        <time>2014-02-12T14:43:51.000Z</time>
      </trkpt>
      <trkpt lat="45.92641" lon="6.4988">
        <ele>1536.8000488281</ele>
        <time>2014-02-12T14:43:52.000Z</time>
      </trkpt>
      <trkpt lat="45.9264" lon="6.49875">
        <ele>1536.5999755859</ele>
        <time>2014-02-12T14:43:53.000Z</time>
      </trkpt>
      <trkpt lat="45.92643" lon="6.49867">
        <ele>1535</ele>
        <time>2014-02-12T14:43:54.000Z</time>
      </trkpt>
      <trkpt lat="45.92647" lon="6.4986">
        <ele>1532.5999755859</ele>
        <time>2014-02-12T14:43:55.000Z</time>
      </trkpt>
      <trkpt lat="45.92651" lon="6.49853">
        <ele>1530.4000244141</ele>
        <time>2014-02-12T14:43:56.000Z</time>
      </trkpt>
      <trkpt lat="45.92654" lon="6.49849">
        <ele>1528.8000488281</ele>
        <time>2014-02-12T14:43:57.000Z</time>
      </trkpt>
      <trkpt lat="45.92656" lon="6.49847">
        <ele>1527.5999755859</ele>
        <time>2014-02-12T14:43:58.000Z</time>
      </trkpt>
      <trkpt lat="45.92659" lon="6.49846">
        <ele>1526.5999755859</ele>
        <time>2014-02-12T14:43:59.000Z</time>
      </trkpt>
      <trkpt lat="45.92661" lon="6.49843">
        <ele>1525.5999755859</ele>
        <time>2014-02-12T14:44:00.000Z</time>
      </trkpt>
      <trkpt lat="45.92663" lon="6.49841">
        <ele>1524.5999755859</ele>
        <time>2014-02-12T14:44:01.000Z</time>
      </trkpt>
      <trkpt lat="45.92664" lon="6.49837">
        <ele>1523.1999511719</ele>
        <time>2014-02-12T14:44:02.000Z</time>
      </trkpt>
      <trkpt lat="45.92669" lon="6.49834">
        <ele>1520.1999511719</ele>
        <time>2014-02-12T14:44:03.000Z</time>
      </trkpt>
      <trkpt lat="45.92671" lon="6.49826">
        <ele>1517.4000244141</ele>
        <time>2014-02-12T14:44:04.000Z</time>
      </trkpt>
      <trkpt lat="45.92674" lon="6.49819">
        <ele>1514.4000244141</ele>
        <time>2014-02-12T14:44:05.000Z</time>
      </trkpt>
      <trkpt lat="45.92679" lon="6.49813">
        <ele>1511</ele>
        <time>2014-02-12T14:44:06.000Z</time>
      </trkpt>
      <trkpt lat="45.92684" lon="6.49806">
        <ele>1507.5999755859</ele>
        <time>2014-02-12T14:44:07.000Z</time>
      </trkpt>
      <trkpt lat="45.9269" lon="6.49798">
        <ele>1503.8000488281</ele>
        <time>2014-02-12T14:44:08.000Z</time>
      </trkpt>
      <trkpt lat="45.927" lon="6.4979">
        <ele>1497.5999755859</ele>
        <time>2014-02-12T14:44:09.000Z</time>
      </trkpt>
      <trkpt lat="45.92711" lon="6.49784">
        <ele>1490.1999511719</ele>
        <time>2014-02-12T14:44:10.000Z</time>
      </trkpt>
      <trkpt lat="45.92721" lon="6.49776">
        <ele>1483</ele>
        <time>2014-02-12T14:44:11.000Z</time>
      </trkpt>
      <trkpt lat="45.92732" lon="6.49768">
        <ele>1478.8000488281</ele>
        <time>2014-02-12T14:44:12.000Z</time>
      </trkpt>
      <trkpt lat="45.92742" lon="6.49759">
        <ele>1476.1999511719</ele>
        <time>2014-02-12T14:44:13.000Z</time>
      </trkpt>
      <trkpt lat="45.92754" lon="6.49751">
        <ele>1473.4000244141</ele>
        <time>2014-02-12T14:44:14.000Z</time>
      </trkpt>
      <trkpt lat="45.92764" lon="6.49742">
        <ele>1470.1999511719</ele>
        <time>2014-02-12T14:44:15.000Z</time>
      </trkpt>
      <trkpt lat="45.92775" lon="6.49731">
        <ele>1467.1999511719</ele>
        <time>2014-02-12T14:44:16.000Z</time>
      </trkpt>
      <trkpt lat="45.92785" lon="6.4972">
        <ele>1465.1999511719</ele>
        <time>2014-02-12T14:44:17.000Z</time>
      </trkpt>
      <trkpt lat="45.92795" lon="6.49708">
        <ele>1463.5999755859</ele>
        <time>2014-02-12T14:44:18.000Z</time>
      </trkpt>
      <trkpt lat="45.92804" lon="6.49695">
        <ele>1462</ele>
        <time>2014-02-12T14:44:19.000Z</time>
      </trkpt>
      <trkpt lat="45.92813" lon="6.49682">
        <ele>1461</ele>
        <time>2014-02-12T14:44:20.000Z</time>
      </trkpt>
      <trkpt lat="45.92822" lon="6.4967">
        <ele>1460.5999755859</ele>
        <time>2014-02-12T14:44:21.000Z</time>
      </trkpt>
      <trkpt lat="45.92831" lon="6.4966">
        <ele>1461.8000488281</ele>
        <time>2014-02-12T14:44:22.000Z</time>
      </trkpt>
      <trkpt lat="45.9284" lon="6.49651">
        <ele>1463.5999755859</ele>
        <time>2014-02-12T14:44:23.000Z</time>
      </trkpt>
      <trkpt lat="45.92848" lon="6.49644">
        <ele>1465</ele>
        <time>2014-02-12T14:44:24.000Z</time>
      </trkpt>
      <trkpt lat="45.92854" lon="6.4964">
        <ele>1466.1999511719</ele>
        <time>2014-02-12T14:44:25.000Z</time>
      </trkpt>
      <trkpt lat="45.9286" lon="6.49635">
        <ele>1467.4000244141</ele>
        <time>2014-02-12T14:44:26.000Z</time>
      </trkpt>
      <trkpt lat="45.92866" lon="6.4963">
        <ele>1468.5999755859</ele>
        <time>2014-02-12T14:44:27.000Z</time>
      </trkpt>
      <trkpt lat="45.92871" lon="6.49625">
        <ele>1469</ele>
        <time>2014-02-12T14:44:28.000Z</time>
      </trkpt>
      <trkpt lat="45.92874" lon="6.49625">
        <ele>1469.1999511719</ele>
        <time>2014-02-12T14:44:29.000Z</time>
      </trkpt>
      <trkpt lat="45.92876" lon="6.49628">
        <ele>1469</ele>
        <time>2014-02-12T14:44:30.000Z</time>
      </trkpt>
      <trkpt lat="45.92875" lon="6.49632">
        <ele>1469</ele>
        <time>2014-02-12T14:44:31.000Z</time>
      </trkpt>
      <trkpt lat="45.92873" lon="6.49635">
        <ele>1468.8000488281</ele>
        <time>2014-02-12T14:44:32.000Z</time>
      </trkpt>
      <trkpt lat="45.92873" lon="6.49635">
        <ele>1468.8000488281</ele>
        <time>2014-02-12T14:44:33.000Z</time>
      </trkpt>
      <trkpt lat="45.92873" lon="6.49635">
        <ele>1468.8000488281</ele>
        <time>2014-02-12T14:44:34.000Z</time>
      </trkpt>
      <trkpt lat="45.92873" lon="6.49635">
        <ele>1468.8000488281</ele>
        <time>2014-02-12T14:44:35.000Z</time>
      </trkpt>
      <trkpt lat="45.92873" lon="6.49635">
        <ele>1468.8000488281</ele>
        <time>2014-02-12T14:44:36.000Z</time>
      </trkpt>
      <trkpt lat="45.92873" lon="6.49635">
        <ele>1468.8000488281</ele>
        <time>2014-02-12T14:44:37.000Z</time>
      </trkpt>
      <trkpt lat="45.92873" lon="6.49635">
        <ele>1468.8000488281</ele>
        <time>2014-02-12T14:44:38.000Z</time>
      </trkpt>
      <trkpt lat="45.92873" lon="6.49635">
        <ele>1468.8000488281</ele>
        <time>2014-02-12T14:44:39.000Z</time>
      </trkpt>
      <trkpt lat="45.92873" lon="6.49635">
        <ele>1468.8000488281</ele>
        <time>2014-02-12T14:44:40.000Z</time>
      </trkpt>
      <trkpt lat="45.92873" lon="6.49635">
        <ele>1468.8000488281</ele>
        <time>2014-02-12T14:44:41.000Z</time>
      </trkpt>
      <trkpt lat="45.92873" lon="6.49635">
        <ele>1468.8000488281</ele>
        <time>2014-02-12T14:44:42.000Z</time>
      </trkpt>
      <trkpt lat="45.92873" lon="6.49635">
        <ele>1468.8000488281</ele>
        <time>2014-02-12T14:44:43.000Z</time>
      </trkpt>
      <trkpt lat="45.92873" lon="6.49635">
        <ele>1468.8000488281</ele>
        <time>2014-02-12T14:44:44.000Z</time>
      </trkpt>
      <trkpt lat="45.92873" lon="6.49635">
        <ele>1468.8000488281</ele>
        <time>2014-02-12T14:44:45.000Z</time>
      </trkpt>
      <trkpt lat="45.92873" lon="6.49634">
        <ele>1468.8000488281</ele>
        <time>2014-02-12T14:44:46.000Z</time>
      </trkpt>
      <trkpt lat="45.92873" lon="6.49636">
        <ele>1468.5999755859</ele>
        <time>2014-02-12T14:44:47.000Z</time>
      </trkpt>
      <trkpt lat="45.92873" lon="6.49636">
        <ele>1468.5999755859</ele>
        <time>2014-02-12T14:44:48.000Z</time>
      </trkpt>
      <trkpt lat="45.92873" lon="6.49634">
        <ele>1468.8000488281</ele>
        <time>2014-02-12T14:44:49.000Z</time>
      </trkpt>
      <trkpt lat="45.92874" lon="6.49635">
        <ele>1468.8000488281</ele>
        <time>2014-02-12T14:44:50.000Z</time>
      </trkpt>
      <trkpt lat="45.92874" lon="6.49635">
        <ele>1468.8000488281</ele>
        <time>2014-02-12T14:44:51.000Z</time>
      </trkpt>
      <trkpt lat="45.92874" lon="6.49635">
        <ele>1468.8000488281</ele>
        <time>2014-02-12T14:44:52.000Z</time>
      </trkpt>
      <trkpt lat="45.92874" lon="6.49635">
        <ele>1468.8000488281</ele>
        <time>2014-02-12T14:44:53.000Z</time>
      </trkpt>
      <trkpt lat="45.92874" lon="6.49634">
        <ele>1469</ele>
        <time>2014-02-12T14:44:54.000Z</time>
      </trkpt>
      <trkpt lat="45.92875" lon="6.49635">
        <ele>1468.8000488281</ele>
        <time>2014-02-12T14:44:55.000Z</time>
      </trkpt>
      <trkpt lat="45.92875" lon="6.49635">
        <ele>1468.8000488281</ele>
        <time>2014-02-12T14:44:56.000Z</time>
      </trkpt>
      <trkpt lat="45.92875" lon="6.49635">
        <ele>1468.8000488281</ele>
        <time>2014-02-12T14:44:57.000Z</time>
      </trkpt>
      <trkpt lat="45.92875" lon="6.49635">
        <ele>1468.8000488281</ele>
        <time>2014-02-12T14:44:58.000Z</time>
      </trkpt>
      <trkpt lat="45.92875" lon="6.49635">
        <ele>1468.8000488281</ele>
        <time>2014-02-12T14:44:59.000Z</time>
      </trkpt>
      <trkpt lat="45.92875" lon="6.49635">
        <ele>1468.8000488281</ele>
        <time>2014-02-12T14:45:00.000Z</time>
      </trkpt>
      <trkpt lat="45.92875" lon="6.49635">
        <ele>1468.8000488281</ele>
        <time>2014-02-12T14:45:01.000Z</time>
      </trkpt>
      <trkpt lat="45.92875" lon="6.49635">
        <ele>1468.8000488281</ele>
        <time>2014-02-12T14:45:02.000Z</time>
      </trkpt>
      <trkpt lat="45.92875" lon="6.49635">
        <ele>1468.8000488281</ele>
        <time>2014-02-12T14:45:03.000Z</time>
      </trkpt>
      <trkpt lat="45.92875" lon="6.49635">
        <ele>1468.8000488281</ele>
        <time>2014-02-12T14:45:04.000Z</time>
      </trkpt>
      <trkpt lat="45.92875" lon="6.49635">
        <ele>1468.8000488281</ele>
        <time>2014-02-12T14:45:06.000Z</time>
      </trkpt>
      <trkpt lat="45.92875" lon="6.49635">
        <ele>1468.8000488281</ele>
        <time>2014-02-12T14:45:07.000Z</time>
      </trkpt>
      <trkpt lat="45.92875" lon="6.49635">
        <ele>1468.8000488281</ele>
        <time>2014-02-12T14:45:08.000Z</time>
      </trkpt>
      <trkpt lat="45.92875" lon="6.49635">
        <ele>1468.8000488281</ele>
        <time>2014-02-12T14:45:09.000Z</time>
      </trkpt>
      <trkpt lat="45.92875" lon="6.49635">
        <ele>1468.8000488281</ele>
        <time>2014-02-12T14:45:10.000Z</time>
      </trkpt>
      <trkpt lat="45.92875" lon="6.49634">
        <ele>1469</ele>
        <time>2014-02-12T14:45:11.000Z</time>
      </trkpt>
      <trkpt lat="45.92872" lon="6.49634">
        <ele>1468.8000488281</ele>
        <time>2014-02-12T14:45:12.000Z</time>
      </trkpt>
      <trkpt lat="45.92872" lon="6.49634">
        <ele>1468.8000488281</ele>
        <time>2014-02-12T14:45:13.000Z</time>
      </trkpt>
      <trkpt lat="45.92872" lon="6.49632">
        <ele>1468.8000488281</ele>
        <time>2014-02-12T14:45:14.000Z</time>
      </trkpt>
      <trkpt lat="45.9287" lon="6.49631">
        <ele>1468.8000488281</ele>
        <time>2014-02-12T14:45:15.000Z</time>
      </trkpt>
      <trkpt lat="45.9287" lon="6.49631">
        <ele>1468.8000488281</ele>
        <time>2014-02-12T14:45:16.000Z</time>
      </trkpt>
      <trkpt lat="45.9287" lon="6.49631">
        <ele>1468.8000488281</ele>
        <time>2014-02-12T14:45:17.000Z</time>
      </trkpt>
      <trkpt lat="45.9287" lon="6.49631">
        <ele>1468.8000488281</ele>
        <time>2014-02-12T14:45:18.000Z</time>
      </trkpt>
      <trkpt lat="45.9287" lon="6.4963">
        <ele>1468.8000488281</ele>
        <time>2014-02-12T14:45:19.000Z</time>
      </trkpt>
      <trkpt lat="45.92869" lon="6.49628">
        <ele>1469</ele>
        <time>2014-02-12T14:45:20.000Z</time>
      </trkpt>
      <trkpt lat="45.92869" lon="6.49628">
        <ele>1469</ele>
        <time>2014-02-12T14:45:21.000Z</time>
      </trkpt>
      <trkpt lat="45.92869" lon="6.49629">
        <ele>1469</ele>
        <time>2014-02-12T14:45:22.000Z</time>
      </trkpt>
      <trkpt lat="45.92869" lon="6.49629">
        <ele>1469</ele>
        <time>2014-02-12T14:45:23.000Z</time>
      </trkpt>
      <trkpt lat="45.92869" lon="6.49629">
        <ele>1469</ele>
        <time>2014-02-12T14:45:24.000Z</time>
      </trkpt>
      <trkpt lat="45.92869" lon="6.49629">
        <ele>1469</ele>
        <time>2014-02-12T14:45:25.000Z</time>
      </trkpt>
      <trkpt lat="45.92869" lon="6.49629">
        <ele>1469</ele>
        <time>2014-02-12T14:45:26.000Z</time>
      </trkpt>
      <trkpt lat="45.92869" lon="6.49629">
        <ele>1469</ele>
        <time>2014-02-12T14:45:27.000Z</time>
      </trkpt>
      <trkpt lat="45.92869" lon="6.49629">
        <ele>1469</ele>
        <time>2014-02-12T14:45:28.000Z</time>
      </trkpt>
      <trkpt lat="45.92869" lon="6.49628">
        <ele>1469</ele>
        <time>2014-02-12T14:45:29.000Z</time>
      </trkpt>
      <trkpt lat="45.92868" lon="6.49627">
        <ele>1469</ele>
        <time>2014-02-12T14:45:30.000Z</time>
      </trkpt>
      <trkpt lat="45.92868" lon="6.49627">
        <ele>1469</ele>
        <time>2014-02-12T14:45:31.000Z</time>
      </trkpt>
      <trkpt lat="45.92868" lon="6.49627">
        <ele>1469</ele>
        <time>2014-02-12T14:45:32.000Z</time>
      </trkpt>
      <trkpt lat="45.92868" lon="6.49627">
        <ele>1469</ele>
        <time>2014-02-12T14:45:33.000Z</time>
      </trkpt>
      <trkpt lat="45.92868" lon="6.49627">
        <ele>1469</ele>
        <time>2014-02-12T14:45:34.000Z</time>
      </trkpt>
      <trkpt lat="45.92868" lon="6.49627">
        <ele>1469</ele>
        <time>2014-02-12T14:45:35.000Z</time>
      </trkpt>
      <trkpt lat="45.92868" lon="6.49627">
        <ele>1469</ele>
        <time>2014-02-12T14:45:36.000Z</time>
      </trkpt>
      <trkpt lat="45.92868" lon="6.49627">
        <ele>1469</ele>
        <time>2014-02-12T14:45:37.000Z</time>
      </trkpt>
      <trkpt lat="45.92868" lon="6.49627">
        <ele>1469</ele>
        <time>2014-02-12T14:45:38.000Z</time>
      </trkpt>
      <trkpt lat="45.92868" lon="6.49627">
        <ele>1469</ele>
        <time>2014-02-12T14:45:39.000Z</time>
      </trkpt>
      <trkpt lat="45.92868" lon="6.49627">
        <ele>1469</ele>
        <time>2014-02-12T14:45:40.000Z</time>
      </trkpt>
      <trkpt lat="45.92868" lon="6.49627">
        <ele>1469</ele>
        <time>2014-02-12T14:45:41.000Z</time>
      </trkpt>
      <trkpt lat="45.92868" lon="6.49627">
        <ele>1469</ele>
        <time>2014-02-12T14:45:42.000Z</time>
      </trkpt>
      <trkpt lat="45.92868" lon="6.49627">
        <ele>1469</ele>
        <time>2014-02-12T14:45:43.000Z</time>
      </trkpt>
      <trkpt lat="45.92868" lon="6.49627">
        <ele>1469</ele>
        <time>2014-02-12T14:45:44.000Z</time>
      </trkpt>
      <trkpt lat="45.92868" lon="6.49627">
        <ele>1469</ele>
        <time>2014-02-12T14:45:45.000Z</time>
      </trkpt>
      <trkpt lat="45.92868" lon="6.49627">
        <ele>1469</ele>
        <time>2014-02-12T14:45:46.000Z</time>
      </trkpt>
      <trkpt lat="45.92868" lon="6.49627">
        <ele>1469</ele>
        <time>2014-02-12T14:45:47.000Z</time>
      </trkpt>
      <trkpt lat="45.92868" lon="6.49627">
        <ele>1469</ele>
        <time>2014-02-12T14:45:48.000Z</time>
      </trkpt>
      <trkpt lat="45.92868" lon="6.49627">
        <ele>1469</ele>
        <time>2014-02-12T14:45:49.000Z</time>
      </trkpt>
      <trkpt lat="45.92867" lon="6.49626">
        <ele>1469</ele>
        <time>2014-02-12T14:45:50.000Z</time>
      </trkpt>
      <trkpt lat="45.92865" lon="6.49623">
        <ele>1469</ele>
        <time>2014-02-12T14:45:51.000Z</time>
      </trkpt>
      <trkpt lat="45.92866" lon="6.49623">
        <ele>1469</ele>
        <time>2014-02-12T14:45:52.000Z</time>
      </trkpt>
      <trkpt lat="45.92865" lon="6.49622">
        <ele>1469</ele>
        <time>2014-02-12T14:45:53.000Z</time>
      </trkpt>
      <trkpt lat="45.92863" lon="6.4962">
        <ele>1469</ele>
        <time>2014-02-12T14:45:54.000Z</time>
      </trkpt>
      <trkpt lat="45.92864" lon="6.4962">
        <ele>1469</ele>
        <time>2014-02-12T14:45:55.000Z</time>
      </trkpt>
      <trkpt lat="45.92864" lon="6.49619">
        <ele>1469</ele>
        <time>2014-02-12T14:45:56.000Z</time>
      </trkpt>
      <trkpt lat="45.92862" lon="6.49618">
        <ele>1469</ele>
        <time>2014-02-12T14:45:57.000Z</time>
      </trkpt>
      <trkpt lat="45.92861" lon="6.49617">
        <ele>1469</ele>
        <time>2014-02-12T14:45:58.000Z</time>
      </trkpt>
      <trkpt lat="45.9286" lon="6.49615">
        <ele>1469</ele>
        <time>2014-02-12T14:45:59.000Z</time>
      </trkpt>
      <trkpt lat="45.92858" lon="6.49613">
        <ele>1469</ele>
        <time>2014-02-12T14:46:00.000Z</time>
      </trkpt>
      <trkpt lat="45.92858" lon="6.49613">
        <ele>1469</ele>
        <time>2014-02-12T14:46:01.000Z</time>
      </trkpt>
      <trkpt lat="45.92857" lon="6.49612">
        <ele>1469</ele>
        <time>2014-02-12T14:46:02.000Z</time>
      </trkpt>
      <trkpt lat="45.92855" lon="6.4961">
        <ele>1469</ele>
        <time>2014-02-12T14:46:03.000Z</time>
      </trkpt>
      <trkpt lat="45.92855" lon="6.4961">
        <ele>1469</ele>
        <time>2014-02-12T14:46:04.000Z</time>
      </trkpt>
      <trkpt lat="45.92855" lon="6.49611">
        <ele>1469</ele>
        <time>2014-02-12T14:46:05.000Z</time>
      </trkpt>
      <trkpt lat="45.92855" lon="6.49611">
        <ele>1469</ele>
        <time>2014-02-12T14:46:06.000Z</time>
      </trkpt>
      <trkpt lat="45.92855" lon="6.4961">
        <ele>1469</ele>
        <time>2014-02-12T14:46:07.000Z</time>
      </trkpt>
      <trkpt lat="45.92853" lon="6.49609">
        <ele>1469</ele>
        <time>2014-02-12T14:46:08.000Z</time>
      </trkpt>
      <trkpt lat="45.92853" lon="6.49609">
        <ele>1469</ele>
        <time>2014-02-12T14:46:09.000Z</time>
      </trkpt>
      <trkpt lat="45.92853" lon="6.49609">
        <ele>1469</ele>
        <time>2014-02-12T14:46:10.000Z</time>
      </trkpt>
      <trkpt lat="45.92853" lon="6.49609">
        <ele>1469</ele>
        <time>2014-02-12T14:46:11.000Z</time>
      </trkpt>
      <trkpt lat="45.92853" lon="6.49609">
        <ele>1469</ele>
        <time>2014-02-12T14:46:12.000Z</time>
      </trkpt>
      <trkpt lat="45.92853" lon="6.49609">
        <ele>1469</ele>
        <time>2014-02-12T14:46:13.000Z</time>
      </trkpt>
      <trkpt lat="45.92853" lon="6.49609">
        <ele>1469</ele>
        <time>2014-02-12T14:46:14.000Z</time>
      </trkpt>
      <trkpt lat="45.92853" lon="6.49609">
        <ele>1469</ele>
        <time>2014-02-12T14:46:15.000Z</time>
      </trkpt>
      <trkpt lat="45.92853" lon="6.49609">
        <ele>1469</ele>
        <time>2014-02-12T14:46:17.000Z</time>
      </trkpt>
      <trkpt lat="45.92853" lon="6.49609">
        <ele>1469</ele>
        <time>2014-02-12T14:46:18.000Z</time>
      </trkpt>
      <trkpt lat="45.92853" lon="6.49609">
        <ele>1469</ele>
        <time>2014-02-12T14:46:19.000Z</time>
      </trkpt>
      <trkpt lat="45.92853" lon="6.49609">
        <ele>1469</ele>
        <time>2014-02-12T14:46:20.000Z</time>
      </trkpt>
      <trkpt lat="45.92853" lon="6.49609">
        <ele>1469</ele>
        <time>2014-02-12T14:46:21.000Z</time>
      </trkpt>
      <trkpt lat="45.92853" lon="6.49609">
        <ele>1469</ele>
        <time>2014-02-12T14:46:22.000Z</time>
      </trkpt>
      <trkpt lat="45.92853" lon="6.49609">
        <ele>1469</ele>
        <time>2014-02-12T14:46:23.000Z</time>
      </trkpt>
      <trkpt lat="45.92853" lon="6.49609">
        <ele>1469</ele>
        <time>2014-02-12T14:46:24.000Z</time>
      </trkpt>
      <trkpt lat="45.92853" lon="6.49609">
        <ele>1469</ele>
        <time>2014-02-12T14:46:25.000Z</time>
      </trkpt>
      <trkpt lat="45.92853" lon="6.49609">
        <ele>1469</ele>
        <time>2014-02-12T14:46:26.000Z</time>
      </trkpt>
      <trkpt lat="45.92853" lon="6.49609">
        <ele>1469</ele>
        <time>2014-02-12T14:46:27.000Z</time>
      </trkpt>
      <trkpt lat="45.92853" lon="6.49609">
        <ele>1469</ele>
        <time>2014-02-12T14:46:28.000Z</time>
      </trkpt>
      <trkpt lat="45.92853" lon="6.49609">
        <ele>1469</ele>
        <time>2014-02-12T14:46:29.000Z</time>
      </trkpt>
      <trkpt lat="45.92853" lon="6.49609">
        <ele>1469</ele>
        <time>2014-02-12T14:46:30.000Z</time>
      </trkpt>
      <trkpt lat="45.92853" lon="6.49609">
        <ele>1469</ele>
        <time>2014-02-12T14:46:31.000Z</time>
      </trkpt>
      <trkpt lat="45.92853" lon="6.49609">
        <ele>1469</ele>
        <time>2014-02-12T14:46:32.000Z</time>
      </trkpt>
      <trkpt lat="45.92853" lon="6.49609">
        <ele>1469</ele>
        <time>2014-02-12T14:46:33.000Z</time>
      </trkpt>
      <trkpt lat="45.92853" lon="6.49609">
        <ele>1469</ele>
        <time>2014-02-12T14:46:34.000Z</time>
      </trkpt>
      <trkpt lat="45.92853" lon="6.49609">
        <ele>1469</ele>
        <time>2014-02-12T14:46:35.000Z</time>
      </trkpt>
      <trkpt lat="45.92853" lon="6.49609">
        <ele>1469</ele>
        <time>2014-02-12T14:46:36.000Z</time>
      </trkpt>
      <trkpt lat="45.92853" lon="6.49609">
        <ele>1469</ele>
        <time>2014-02-12T14:46:37.000Z</time>
      </trkpt>
      <trkpt lat="45.92853" lon="6.49609">
        <ele>1469</ele>
        <time>2014-02-12T14:46:38.000Z</time>
      </trkpt>
      <trkpt lat="45.92853" lon="6.49609">
        <ele>1469</ele>
        <time>2014-02-12T14:46:39.000Z</time>
      </trkpt>
      <trkpt lat="45.92853" lon="6.49609">
        <ele>1469</ele>
        <time>2014-02-12T14:46:41.000Z</time>
      </trkpt>
      <trkpt lat="45.92853" lon="6.49609">
        <ele>1469</ele>
        <time>2014-02-12T14:46:42.000Z</time>
      </trkpt>
      <trkpt lat="45.92853" lon="6.49609">
        <ele>1469</ele>
        <time>2014-02-12T14:46:43.000Z</time>
      </trkpt>
      <trkpt lat="45.92853" lon="6.49609">
        <ele>1469</ele>
        <time>2014-02-12T14:46:44.000Z</time>
      </trkpt>
      <trkpt lat="45.92853" lon="6.49609">
        <ele>1469</ele>
        <time>2014-02-12T14:46:45.000Z</time>
      </trkpt>
      <trkpt lat="45.92853" lon="6.49609">
        <ele>1469</ele>
        <time>2014-02-12T14:46:46.000Z</time>
      </trkpt>
      <trkpt lat="45.92853" lon="6.49609">
        <ele>1469</ele>
        <time>2014-02-12T14:46:47.000Z</time>
      </trkpt>
      <trkpt lat="45.92854" lon="6.49609">
        <ele>1469</ele>
        <time>2014-02-12T14:46:48.000Z</time>
      </trkpt>
      <trkpt lat="45.92854" lon="6.49609">
        <ele>1469</ele>
        <time>2014-02-12T14:46:49.000Z</time>
      </trkpt>
      <trkpt lat="45.92854" lon="6.49609">
        <ele>1469</ele>
        <time>2014-02-12T14:46:50.000Z</time>
      </trkpt>
      <trkpt lat="45.92854" lon="6.49609">
        <ele>1469</ele>
        <time>2014-02-12T14:46:51.000Z</time>
      </trkpt>
      <trkpt lat="45.92854" lon="6.49609">
        <ele>1469</ele>
        <time>2014-02-12T14:46:52.000Z</time>
      </trkpt>
      <trkpt lat="45.92854" lon="6.49609">
        <ele>1469</ele>
        <time>2014-02-12T14:46:53.000Z</time>
      </trkpt>
      <trkpt lat="45.92854" lon="6.49609">
        <ele>1469</ele>
        <time>2014-02-12T14:46:54.000Z</time>
      </trkpt>
      <trkpt lat="45.92854" lon="6.49609">
        <ele>1469</ele>
        <time>2014-02-12T14:46:55.000Z</time>
      </trkpt>
      <trkpt lat="45.92854" lon="6.49609">
        <ele>1469</ele>
        <time>2014-02-12T14:46:56.000Z</time>
      </trkpt>
      <trkpt lat="45.92854" lon="6.49609">
        <ele>1469</ele>
        <time>2014-02-12T14:46:57.000Z</time>
      </trkpt>
      <trkpt lat="45.92854" lon="6.49609">
        <ele>1469</ele>
        <time>2014-02-12T14:46:58.000Z</time>
      </trkpt>
      <trkpt lat="45.92854" lon="6.49609">
        <ele>1469</ele>
        <time>2014-02-12T14:46:59.000Z</time>
      </trkpt>
      <trkpt lat="45.92854" lon="6.49609">
        <ele>1469</ele>
        <time>2014-02-12T14:47:00.000Z</time>
      </trkpt>
      <trkpt lat="45.92854" lon="6.49609">
        <ele>1469</ele>
        <time>2014-02-12T14:47:01.000Z</time>
      </trkpt>
      <trkpt lat="45.92854" lon="6.49609">
        <ele>1469</ele>
        <time>2014-02-12T14:47:02.000Z</time>
      </trkpt>
      <trkpt lat="45.92854" lon="6.49609">
        <ele>1469</ele>
        <time>2014-02-12T14:47:03.000Z</time>
      </trkpt>
      <trkpt lat="45.92854" lon="6.49609">
        <ele>1469</ele>
        <time>2014-02-12T14:47:04.000Z</time>
      </trkpt>
      <trkpt lat="45.92854" lon="6.49609">
        <ele>1469</ele>
        <time>2014-02-12T14:47:05.000Z</time>
      </trkpt>
      <trkpt lat="45.92854" lon="6.49609">
        <ele>1469</ele>
        <time>2014-02-12T14:47:06.000Z</time>
      </trkpt>
      <trkpt lat="45.92854" lon="6.49609">
        <ele>1469</ele>
        <time>2014-02-12T14:47:07.000Z</time>
      </trkpt>
      <trkpt lat="45.92854" lon="6.49609">
        <ele>1469</ele>
        <time>2014-02-12T14:47:08.000Z</time>
      </trkpt>
      <trkpt lat="45.92854" lon="6.49609">
        <ele>1469</ele>
        <time>2014-02-12T14:47:09.000Z</time>
      </trkpt>
      <trkpt lat="45.92854" lon="6.49609">
        <ele>1469</ele>
        <time>2014-02-12T14:47:10.000Z</time>
      </trkpt>
      <trkpt lat="45.92854" lon="6.49609">
        <ele>1469</ele>
        <time>2014-02-12T14:47:11.000Z</time>
      </trkpt>
      <trkpt lat="45.92855" lon="6.49606">
        <ele>1469.1999511719</ele>
        <time>2014-02-12T14:47:13.000Z</time>
      </trkpt>
      <trkpt lat="45.92855" lon="6.49606">
        <ele>1469.1999511719</ele>
        <time>2014-02-12T14:47:14.000Z</time>
      </trkpt>
      <trkpt lat="45.92855" lon="6.49606">
        <ele>1469.1999511719</ele>
        <time>2014-02-12T14:47:15.000Z</time>
      </trkpt>
      <trkpt lat="45.92855" lon="6.49606">
        <ele>1469.1999511719</ele>
        <time>2014-02-12T14:47:16.000Z</time>
      </trkpt>
      <trkpt lat="45.92855" lon="6.49606">
        <ele>1469.1999511719</ele>
        <time>2014-02-12T14:47:17.000Z</time>
      </trkpt>
      <trkpt lat="45.92855" lon="6.49606">
        <ele>1469.1999511719</ele>
        <time>2014-02-12T14:47:18.000Z</time>
      </trkpt>
      <trkpt lat="45.92855" lon="6.49606">
        <ele>1469.1999511719</ele>
        <time>2014-02-12T14:47:19.000Z</time>
      </trkpt>
      <trkpt lat="45.92855" lon="6.49606">
        <ele>1469.1999511719</ele>
        <time>2014-02-12T14:47:20.000Z</time>
      </trkpt>
      <trkpt lat="45.92855" lon="6.49606">
        <ele>1469.1999511719</ele>
        <time>2014-02-12T14:47:21.000Z</time>
      </trkpt>
      <trkpt lat="45.92855" lon="6.49606">
        <ele>1469.1999511719</ele>
        <time>2014-02-12T14:47:22.000Z</time>
      </trkpt>
      <trkpt lat="45.92855" lon="6.49606">
        <ele>1469.1999511719</ele>
        <time>2014-02-12T14:47:23.000Z</time>
      </trkpt>
      <trkpt lat="45.92855" lon="6.49606">
        <ele>1469.1999511719</ele>
        <time>2014-02-12T14:47:24.000Z</time>
      </trkpt>
      <trkpt lat="45.92855" lon="6.49606">
        <ele>1469.1999511719</ele>
        <time>2014-02-12T14:47:25.000Z</time>
      </trkpt>
      <trkpt lat="45.92855" lon="6.49606">
        <ele>1469.1999511719</ele>
        <time>2014-02-12T14:47:26.000Z</time>
      </trkpt>
      <trkpt lat="45.92855" lon="6.49606">
        <ele>1469.1999511719</ele>
        <time>2014-02-12T14:47:27.000Z</time>
      </trkpt>
      <trkpt lat="45.92855" lon="6.49606">
        <ele>1469.1999511719</ele>
        <time>2014-02-12T14:47:28.000Z</time>
      </trkpt>
      <trkpt lat="45.92855" lon="6.49606">
        <ele>1469.1999511719</ele>
        <time>2014-02-12T14:47:29.000Z</time>
      </trkpt>
      <trkpt lat="45.92855" lon="6.49606">
        <ele>1469.1999511719</ele>
        <time>2014-02-12T14:47:30.000Z</time>
      </trkpt>
      <trkpt lat="45.92855" lon="6.49606">
        <ele>1469.1999511719</ele>
        <time>2014-02-12T14:47:31.000Z</time>
      </trkpt>
      <trkpt lat="45.92855" lon="6.49606">
        <ele>1469.1999511719</ele>
        <time>2014-02-12T14:47:32.000Z</time>
      </trkpt>
      <trkpt lat="45.92855" lon="6.49606">
        <ele>1469.1999511719</ele>
        <time>2014-02-12T14:47:33.000Z</time>
      </trkpt>
      <trkpt lat="45.92855" lon="6.49606">
        <ele>1469.1999511719</ele>
        <time>2014-02-12T14:47:34.000Z</time>
      </trkpt>
      <trkpt lat="45.92855" lon="6.49606">
        <ele>1469.1999511719</ele>
        <time>2014-02-12T14:47:35.000Z</time>
      </trkpt>
      <trkpt lat="45.92855" lon="6.49606">
        <ele>1469.1999511719</ele>
        <time>2014-02-12T14:47:36.000Z</time>
      </trkpt>
      <trkpt lat="45.92855" lon="6.49606">
        <ele>1469.1999511719</ele>
        <time>2014-02-12T14:47:37.000Z</time>
      </trkpt>
      <trkpt lat="45.92855" lon="6.49606">
        <ele>1469.1999511719</ele>
        <time>2014-02-12T14:47:38.000Z</time>
      </trkpt>
      <trkpt lat="45.92855" lon="6.49606">
        <ele>1469.1999511719</ele>
        <time>2014-02-12T14:47:39.000Z</time>
      </trkpt>
      <trkpt lat="45.92855" lon="6.49606">
        <ele>1469.1999511719</ele>
        <time>2014-02-12T14:47:40.000Z</time>
      </trkpt>
      <trkpt lat="45.92855" lon="6.49606">
        <ele>1469.1999511719</ele>
        <time>2014-02-12T14:47:41.000Z</time>
      </trkpt>
      <trkpt lat="45.92855" lon="6.49606">
        <ele>1469.1999511719</ele>
        <time>2014-02-12T14:47:42.000Z</time>
      </trkpt>
      <trkpt lat="45.92855" lon="6.49606">
        <ele>1469.1999511719</ele>
        <time>2014-02-12T14:47:43.000Z</time>
      </trkpt>
      <trkpt lat="45.92855" lon="6.49606">
        <ele>1469.1999511719</ele>
        <time>2014-02-12T14:47:44.000Z</time>
      </trkpt>
      <trkpt lat="45.92855" lon="6.49606">
        <ele>1469.1999511719</ele>
        <time>2014-02-12T14:47:45.000Z</time>
      </trkpt>
      <trkpt lat="45.92855" lon="6.49606">
        <ele>1469.1999511719</ele>
        <time>2014-02-12T14:47:46.000Z</time>
      </trkpt>
      <trkpt lat="45.92855" lon="6.49606">
        <ele>1469.1999511719</ele>
        <time>2014-02-12T14:47:47.000Z</time>
      </trkpt>
      <trkpt lat="45.92855" lon="6.49606">
        <ele>1469.1999511719</ele>
        <time>2014-02-12T14:47:48.000Z</time>
      </trkpt>
      <trkpt lat="45.92855" lon="6.49606">
        <ele>1469.1999511719</ele>
        <time>2014-02-12T14:47:49.000Z</time>
      </trkpt>
      <trkpt lat="45.92855" lon="6.49606">
        <ele>1469.1999511719</ele>
        <time>2014-02-12T14:47:50.000Z</time>
      </trkpt>
      <trkpt lat="45.92855" lon="6.49606">
        <ele>1469.1999511719</ele>
        <time>2014-02-12T14:47:51.000Z</time>
      </trkpt>
      <trkpt lat="45.92855" lon="6.49606">
        <ele>1469.1999511719</ele>
        <time>2014-02-12T14:47:52.000Z</time>
      </trkpt>
      <trkpt lat="45.92854" lon="6.49605">
        <ele>1469.1999511719</ele>
        <time>2014-02-12T14:47:53.000Z</time>
      </trkpt>
      <trkpt lat="45.92854" lon="6.49605">
        <ele>1469.1999511719</ele>
        <time>2014-02-12T14:47:54.000Z</time>
      </trkpt>
      <trkpt lat="45.92854" lon="6.49605">
        <ele>1469.1999511719</ele>
        <time>2014-02-12T14:47:55.000Z</time>
      </trkpt>
      <trkpt lat="45.92854" lon="6.49605">
        <ele>1469.1999511719</ele>
        <time>2014-02-12T14:47:56.000Z</time>
      </trkpt>
      <trkpt lat="45.92854" lon="6.49605">
        <ele>1469.1999511719</ele>
        <time>2014-02-12T14:47:57.000Z</time>
      </trkpt>
      <trkpt lat="45.92854" lon="6.49605">
        <ele>1469.1999511719</ele>
        <time>2014-02-12T14:47:58.000Z</time>
      </trkpt>
      <trkpt lat="45.92854" lon="6.49605">
        <ele>1469.1999511719</ele>
        <time>2014-02-12T14:47:59.000Z</time>
      </trkpt>
      <trkpt lat="45.92854" lon="6.49605">
        <ele>1469.1999511719</ele>
        <time>2014-02-12T14:48:00.000Z</time>
      </trkpt>
      <trkpt lat="45.92854" lon="6.49605">
        <ele>1469.1999511719</ele>
        <time>2014-02-12T14:48:01.000Z</time>
      </trkpt>
      <trkpt lat="45.92854" lon="6.49605">
        <ele>1469.1999511719</ele>
        <time>2014-02-12T14:48:02.000Z</time>
      </trkpt>
      <trkpt lat="45.92854" lon="6.49605">
        <ele>1469.1999511719</ele>
        <time>2014-02-12T14:48:03.000Z</time>
      </trkpt>
      <trkpt lat="45.92854" lon="6.49605">
        <ele>1469.1999511719</ele>
        <time>2014-02-12T14:48:04.000Z</time>
      </trkpt>
      <trkpt lat="45.92854" lon="6.49605">
        <ele>1469.1999511719</ele>
        <time>2014-02-12T14:48:05.000Z</time>
      </trkpt>
      <trkpt lat="45.92854" lon="6.49605">
        <ele>1469.1999511719</ele>
        <time>2014-02-12T14:48:06.000Z</time>
      </trkpt>
      <trkpt lat="45.92854" lon="6.49605">
        <ele>1469.1999511719</ele>
        <time>2014-02-12T14:48:07.000Z</time>
      </trkpt>
      <trkpt lat="45.92854" lon="6.49605">
        <ele>1469.1999511719</ele>
        <time>2014-02-12T14:48:08.000Z</time>
      </trkpt>
      <trkpt lat="45.92854" lon="6.49605">
        <ele>1469.1999511719</ele>
        <time>2014-02-12T14:48:09.000Z</time>
      </trkpt>
      <trkpt lat="45.92854" lon="6.49605">
        <ele>1469.1999511719</ele>
        <time>2014-02-12T14:48:11.000Z</time>
      </trkpt>
      <trkpt lat="45.92854" lon="6.49605">
        <ele>1469.1999511719</ele>
        <time>2014-02-12T14:48:12.000Z</time>
      </trkpt>
      <trkpt lat="45.92854" lon="6.49605">
        <ele>1469.1999511719</ele>
        <time>2014-02-12T14:48:14.000Z</time>
      </trkpt>
      <trkpt lat="45.92854" lon="6.49605">
        <ele>1469.1999511719</ele>
        <time>2014-02-12T14:48:15.000Z</time>
      </trkpt>
      <trkpt lat="45.92854" lon="6.49605">
        <ele>1469.1999511719</ele>
        <time>2014-02-12T14:48:16.000Z</time>
      </trkpt>
      <trkpt lat="45.92854" lon="6.49605">
        <ele>1469.1999511719</ele>
        <time>2014-02-12T14:48:17.000Z</time>
      </trkpt>
      <trkpt lat="45.92854" lon="6.49605">
        <ele>1469.1999511719</ele>
        <time>2014-02-12T14:48:18.000Z</time>
      </trkpt>
      <trkpt lat="45.92854" lon="6.49605">
        <ele>1469.1999511719</ele>
        <time>2014-02-12T14:48:19.000Z</time>
      </trkpt>
      <trkpt lat="45.92854" lon="6.49605">
        <ele>1469.1999511719</ele>
        <time>2014-02-12T14:48:20.000Z</time>
      </trkpt>
      <trkpt lat="45.92854" lon="6.49605">
        <ele>1469.1999511719</ele>
        <time>2014-02-12T14:48:21.000Z</time>
      </trkpt>
      <trkpt lat="45.92854" lon="6.49605">
        <ele>1469.1999511719</ele>
        <time>2014-02-12T14:48:22.000Z</time>
      </trkpt>
      <trkpt lat="45.92854" lon="6.49605">
        <ele>1469.1999511719</ele>
        <time>2014-02-12T14:48:23.000Z</time>
      </trkpt>
      <trkpt lat="45.92854" lon="6.49605">
        <ele>1469.1999511719</ele>
        <time>2014-02-12T14:48:24.000Z</time>
      </trkpt>
      <trkpt lat="45.92854" lon="6.49605">
        <ele>1469.1999511719</ele>
        <time>2014-02-12T14:48:25.000Z</time>
      </trkpt>
      <trkpt lat="45.92854" lon="6.49605">
        <ele>1469.1999511719</ele>
        <time>2014-02-12T14:48:26.000Z</time>
      </trkpt>
      <trkpt lat="45.92854" lon="6.49605">
        <ele>1469.1999511719</ele>
        <time>2014-02-12T14:48:27.000Z</time>
      </trkpt>
      <trkpt lat="45.92854" lon="6.49605">
        <ele>1469.1999511719</ele>
        <time>2014-02-12T14:48:28.000Z</time>
      </trkpt>
      <trkpt lat="45.92854" lon="6.49605">
        <ele>1469.1999511719</ele>
        <time>2014-02-12T14:48:29.000Z</time>
      </trkpt>
      <trkpt lat="45.92854" lon="6.49605">
        <ele>1469.1999511719</ele>
        <time>2014-02-12T14:48:31.000Z</time>
      </trkpt>
      <trkpt lat="45.92854" lon="6.49604">
        <ele>1469.1999511719</ele>
        <time>2014-02-12T14:48:33.000Z</time>
      </trkpt>
      <trkpt lat="45.92854" lon="6.49604">
        <ele>1469.1999511719</ele>
        <time>2014-02-12T14:48:34.000Z</time>
      </trkpt>
      <trkpt lat="45.92854" lon="6.49604">
        <ele>1469.1999511719</ele>
        <time>2014-02-12T14:48:35.000Z</time>
      </trkpt>
      <trkpt lat="45.92854" lon="6.49604">
        <ele>1469.1999511719</ele>
        <time>2014-02-12T14:48:36.000Z</time>
      </trkpt>
      <trkpt lat="45.92854" lon="6.49604">
        <ele>1469.1999511719</ele>
        <time>2014-02-12T14:48:37.000Z</time>
      </trkpt>
      <trkpt lat="45.92854" lon="6.49604">
        <ele>1469.1999511719</ele>
        <time>2014-02-12T14:48:38.000Z</time>
      </trkpt>
      <trkpt lat="45.92854" lon="6.49604">
        <ele>1469.1999511719</ele>
        <time>2014-02-12T14:48:39.000Z</time>
      </trkpt>
      <trkpt lat="45.92854" lon="6.49604">
        <ele>1469.1999511719</ele>
        <time>2014-02-12T14:48:40.000Z</time>
      </trkpt>
      <trkpt lat="45.92854" lon="6.49604">
        <ele>1469.1999511719</ele>
        <time>2014-02-12T14:48:41.000Z</time>
      </trkpt>
      <trkpt lat="45.92854" lon="6.49603">
        <ele>1469.1999511719</ele>
        <time>2014-02-12T14:48:42.000Z</time>
      </trkpt>
      <trkpt lat="45.92854" lon="6.49598">
        <ele>1469.1999511719</ele>
        <time>2014-02-12T14:48:43.000Z</time>
      </trkpt>
      <trkpt lat="45.92854" lon="6.49593">
        <ele>1469.1999511719</ele>
        <time>2014-02-12T14:48:44.000Z</time>
      </trkpt>
      <trkpt lat="45.92854" lon="6.49593">
        <ele>1469.1999511719</ele>
        <time>2014-02-12T14:48:45.000Z</time>
      </trkpt>
      <trkpt lat="45.92854" lon="6.49593">
        <ele>1469.1999511719</ele>
        <time>2014-02-12T14:48:46.000Z</time>
      </trkpt>
      <trkpt lat="45.92855" lon="6.49592">
        <ele>1469.1999511719</ele>
        <time>2014-02-12T14:48:47.000Z</time>
      </trkpt>
      <trkpt lat="45.92855" lon="6.49587">
        <ele>1469.4000244141</ele>
        <time>2014-02-12T14:48:48.000Z</time>
      </trkpt>
      <trkpt lat="45.92855" lon="6.49587">
        <ele>1469.4000244141</ele>
        <time>2014-02-12T14:48:49.000Z</time>
      </trkpt>
      <trkpt lat="45.92855" lon="6.49587">
        <ele>1469.4000244141</ele>
        <time>2014-02-12T14:48:50.000Z</time>
      </trkpt>
      <trkpt lat="45.92854" lon="6.49586">
        <ele>1469.4000244141</ele>
        <time>2014-02-12T14:48:51.000Z</time>
      </trkpt>
      <trkpt lat="45.92853" lon="6.49585">
        <ele>1469.4000244141</ele>
        <time>2014-02-12T14:48:52.000Z</time>
      </trkpt>
      <trkpt lat="45.92852" lon="6.49584">
        <ele>1469.4000244141</ele>
        <time>2014-02-12T14:48:53.000Z</time>
      </trkpt>
      <trkpt lat="45.92853" lon="6.49584">
        <ele>1469.4000244141</ele>
        <time>2014-02-12T14:48:54.000Z</time>
      </trkpt>
      <trkpt lat="45.92853" lon="6.49584">
        <ele>1469.4000244141</ele>
        <time>2014-02-12T14:48:55.000Z</time>
      </trkpt>
      <trkpt lat="45.92853" lon="6.49584">
        <ele>1469.4000244141</ele>
        <time>2014-02-12T14:48:56.000Z</time>
      </trkpt>
      <trkpt lat="45.92853" lon="6.49584">
        <ele>1469.4000244141</ele>
        <time>2014-02-12T14:48:57.000Z</time>
      </trkpt>
      <trkpt lat="45.92853" lon="6.49584">
        <ele>1469.4000244141</ele>
        <time>2014-02-12T14:48:58.000Z</time>
      </trkpt>
      <trkpt lat="45.92853" lon="6.49584">
        <ele>1469.4000244141</ele>
        <time>2014-02-12T14:48:59.000Z</time>
      </trkpt>
      <trkpt lat="45.92853" lon="6.49584">
        <ele>1469.4000244141</ele>
        <time>2014-02-12T14:49:00.000Z</time>
      </trkpt>
      <trkpt lat="45.92853" lon="6.49584">
        <ele>1469.4000244141</ele>
        <time>2014-02-12T14:49:01.000Z</time>
      </trkpt>
      <trkpt lat="45.92853" lon="6.49584">
        <ele>1469.4000244141</ele>
        <time>2014-02-12T14:49:02.000Z</time>
      </trkpt>
      <trkpt lat="45.92853" lon="6.49584">
        <ele>1469.4000244141</ele>
        <time>2014-02-12T14:49:03.000Z</time>
      </trkpt>
      <trkpt lat="45.92853" lon="6.49584">
        <ele>1469.4000244141</ele>
        <time>2014-02-12T14:49:04.000Z</time>
      </trkpt>
      <trkpt lat="45.92853" lon="6.49584">
        <ele>1469.4000244141</ele>
        <time>2014-02-12T14:49:05.000Z</time>
      </trkpt>
      <trkpt lat="45.92853" lon="6.49584">
        <ele>1469.4000244141</ele>
        <time>2014-02-12T14:49:06.000Z</time>
      </trkpt>
      <trkpt lat="45.92853" lon="6.49584">
        <ele>1469.4000244141</ele>
        <time>2014-02-12T14:49:07.000Z</time>
      </trkpt>
      <trkpt lat="45.92853" lon="6.49584">
        <ele>1469.4000244141</ele>
        <time>2014-02-12T14:49:08.000Z</time>
      </trkpt>
      <trkpt lat="45.92853" lon="6.49584">
        <ele>1469.4000244141</ele>
        <time>2014-02-12T14:49:09.000Z</time>
      </trkpt>
      <trkpt lat="45.92853" lon="6.49584">
        <ele>1469.4000244141</ele>
        <time>2014-02-12T14:49:10.000Z</time>
      </trkpt>
      <trkpt lat="45.92853" lon="6.49584">
        <ele>1469.4000244141</ele>
        <time>2014-02-12T14:49:11.000Z</time>
      </trkpt>
      <trkpt lat="45.92853" lon="6.49584">
        <ele>1469.4000244141</ele>
        <time>2014-02-12T14:49:12.000Z</time>
      </trkpt>
      <trkpt lat="45.92853" lon="6.49584">
        <ele>1469.4000244141</ele>
        <time>2014-02-12T14:49:13.000Z</time>
      </trkpt>
      <trkpt lat="45.92853" lon="6.49584">
        <ele>1469.4000244141</ele>
        <time>2014-02-12T14:49:14.000Z</time>
      </trkpt>
      <trkpt lat="45.92853" lon="6.49584">
        <ele>1469.4000244141</ele>
        <time>2014-02-12T14:49:15.000Z</time>
      </trkpt>
      <trkpt lat="45.92852" lon="6.49582">
        <ele>1469.4000244141</ele>
        <time>2014-02-12T14:49:16.000Z</time>
      </trkpt>
      <trkpt lat="45.92851" lon="6.4958">
        <ele>1469.4000244141</ele>
        <time>2014-02-12T14:49:17.000Z</time>
      </trkpt>
      <trkpt lat="45.92851" lon="6.49578">
        <ele>1469.4000244141</ele>
        <time>2014-02-12T14:49:18.000Z</time>
      </trkpt>
      <trkpt lat="45.9285" lon="6.49577">
        <ele>1469.4000244141</ele>
        <time>2014-02-12T14:49:19.000Z</time>
      </trkpt>
      <trkpt lat="45.9285" lon="6.49575">
        <ele>1469.4000244141</ele>
        <time>2014-02-12T14:49:20.000Z</time>
      </trkpt>
      <trkpt lat="45.92849" lon="6.49573">
        <ele>1469.4000244141</ele>
        <time>2014-02-12T14:49:21.000Z</time>
      </trkpt>
      <trkpt lat="45.92849" lon="6.49573">
        <ele>1469.4000244141</ele>
        <time>2014-02-12T14:49:22.000Z</time>
      </trkpt>
      <trkpt lat="45.92848" lon="6.49571">
        <ele>1469.4000244141</ele>
        <time>2014-02-12T14:49:23.000Z</time>
      </trkpt>
      <trkpt lat="45.92844" lon="6.49565">
        <ele>1469.5999755859</ele>
        <time>2014-02-12T14:49:24.000Z</time>
      </trkpt>
      <trkpt lat="45.92841" lon="6.4956">
        <ele>1469.5999755859</ele>
        <time>2014-02-12T14:49:25.000Z</time>
      </trkpt>
      <trkpt lat="45.92841" lon="6.4956">
        <ele>1469.5999755859</ele>
        <time>2014-02-12T14:49:26.000Z</time>
      </trkpt>
      <trkpt lat="45.92839" lon="6.49555">
        <ele>1469.8000488281</ele>
        <time>2014-02-12T14:49:27.000Z</time>
      </trkpt>
      <trkpt lat="45.92838" lon="6.49553">
        <ele>1469.8000488281</ele>
        <time>2014-02-12T14:49:28.000Z</time>
      </trkpt>
      <trkpt lat="45.92838" lon="6.49553">
        <ele>1469.8000488281</ele>
        <time>2014-02-12T14:49:29.000Z</time>
      </trkpt>
      <trkpt lat="45.92836" lon="6.49549">
        <ele>1470</ele>
        <time>2014-02-12T14:49:30.000Z</time>
      </trkpt>
      <trkpt lat="45.92836" lon="6.49548">
        <ele>1470</ele>
        <time>2014-02-12T14:49:31.000Z</time>
      </trkpt>
      <trkpt lat="45.92835" lon="6.49547">
        <ele>1470</ele>
        <time>2014-02-12T14:49:32.000Z</time>
      </trkpt>
      <trkpt lat="45.92835" lon="6.49547">
        <ele>1470</ele>
        <time>2014-02-12T14:49:33.000Z</time>
      </trkpt>
      <trkpt lat="45.92834" lon="6.49546">
        <ele>1470</ele>
        <time>2014-02-12T14:49:34.000Z</time>
      </trkpt>
      <trkpt lat="45.92834" lon="6.49546">
        <ele>1470</ele>
        <time>2014-02-12T14:49:35.000Z</time>
      </trkpt>
      <trkpt lat="45.92834" lon="6.49546">
        <ele>1470</ele>
        <time>2014-02-12T14:49:36.000Z</time>
      </trkpt>
      <trkpt lat="45.92834" lon="6.49546">
        <ele>1470</ele>
        <time>2014-02-12T14:49:37.000Z</time>
      </trkpt>
      <trkpt lat="45.92834" lon="6.49546">
        <ele>1470</ele>
        <time>2014-02-12T14:49:38.000Z</time>
      </trkpt>
      <trkpt lat="45.92833" lon="6.49544">
        <ele>1470.1999511719</ele>
        <time>2014-02-12T14:49:39.000Z</time>
      </trkpt>
      <trkpt lat="45.92833" lon="6.49544">
        <ele>1470.1999511719</ele>
        <time>2014-02-12T14:49:40.000Z</time>
      </trkpt>
      <trkpt lat="45.92833" lon="6.49544">
        <ele>1470.1999511719</ele>
        <time>2014-02-12T14:49:41.000Z</time>
      </trkpt>
      <trkpt lat="45.92833" lon="6.49544">
        <ele>1470.1999511719</ele>
        <time>2014-02-12T14:49:42.000Z</time>
      </trkpt>
      <trkpt lat="45.92833" lon="6.49544">
        <ele>1470.1999511719</ele>
        <time>2014-02-12T14:49:43.000Z</time>
      </trkpt>
      <trkpt lat="45.92833" lon="6.49543">
        <ele>1470.1999511719</ele>
        <time>2014-02-12T14:49:44.000Z</time>
      </trkpt>
      <trkpt lat="45.92832" lon="6.49542">
        <ele>1470.1999511719</ele>
        <time>2014-02-12T14:49:45.000Z</time>
      </trkpt>
      <trkpt lat="45.92832" lon="6.49542">
        <ele>1470.1999511719</ele>
        <time>2014-02-12T14:49:46.000Z</time>
      </trkpt>
      <trkpt lat="45.92832" lon="6.49542">
        <ele>1470.1999511719</ele>
        <time>2014-02-12T14:49:47.000Z</time>
      </trkpt>
      <trkpt lat="45.92831" lon="6.4954">
        <ele>1470.1999511719</ele>
        <time>2014-02-12T14:49:48.000Z</time>
      </trkpt>
      <trkpt lat="45.92831" lon="6.49539">
        <ele>1470.1999511719</ele>
        <time>2014-02-12T14:49:49.000Z</time>
      </trkpt>
      <trkpt lat="45.92831" lon="6.49539">
        <ele>1470.1999511719</ele>
        <time>2014-02-12T14:49:50.000Z</time>
      </trkpt>
      <trkpt lat="45.92831" lon="6.49539">
        <ele>1470.1999511719</ele>
        <time>2014-02-12T14:49:51.000Z</time>
      </trkpt>
      <trkpt lat="45.9283" lon="6.49537">
        <ele>1470.4000244141</ele>
        <time>2014-02-12T14:49:52.000Z</time>
      </trkpt>
      <trkpt lat="45.9283" lon="6.49537">
        <ele>1470.4000244141</ele>
        <time>2014-02-12T14:49:53.000Z</time>
      </trkpt>
      <trkpt lat="45.9283" lon="6.49537">
        <ele>1470.4000244141</ele>
        <time>2014-02-12T14:49:54.000Z</time>
      </trkpt>
      <trkpt lat="45.92829" lon="6.49534">
        <ele>1470.4000244141</ele>
        <time>2014-02-12T14:49:55.000Z</time>
      </trkpt>
      <trkpt lat="45.92828" lon="6.49533">
        <ele>1470.4000244141</ele>
        <time>2014-02-12T14:49:56.000Z</time>
      </trkpt>
      <trkpt lat="45.92828" lon="6.49532">
        <ele>1470.4000244141</ele>
        <time>2014-02-12T14:49:57.000Z</time>
      </trkpt>
      <trkpt lat="45.92827" lon="6.4953">
        <ele>1470.5999755859</ele>
        <time>2014-02-12T14:49:58.000Z</time>
      </trkpt>
      <trkpt lat="45.92827" lon="6.49529">
        <ele>1470.5999755859</ele>
        <time>2014-02-12T14:49:59.000Z</time>
      </trkpt>
      <trkpt lat="45.92827" lon="6.49528">
        <ele>1470.5999755859</ele>
        <time>2014-02-12T14:50:00.000Z</time>
      </trkpt>
      <trkpt lat="45.92826" lon="6.49527">
        <ele>1470.5999755859</ele>
        <time>2014-02-12T14:50:01.000Z</time>
      </trkpt>
      <trkpt lat="45.92826" lon="6.49525">
        <ele>1470.8000488281</ele>
        <time>2014-02-12T14:50:02.000Z</time>
      </trkpt>
      <trkpt lat="45.92826" lon="6.49525">
        <ele>1470.8000488281</ele>
        <time>2014-02-12T14:50:03.000Z</time>
      </trkpt>
      <trkpt lat="45.92824" lon="6.49522">
        <ele>1470.8000488281</ele>
        <time>2014-02-12T14:50:04.000Z</time>
      </trkpt>
      <trkpt lat="45.92823" lon="6.49521">
        <ele>1470.8000488281</ele>
        <time>2014-02-12T14:50:05.000Z</time>
      </trkpt>
      <trkpt lat="45.92822" lon="6.49519">
        <ele>1470.8000488281</ele>
        <time>2014-02-12T14:50:06.000Z</time>
      </trkpt>
      <trkpt lat="45.92822" lon="6.49519">
        <ele>1471</ele>
        <time>2014-02-12T14:50:07.000Z</time>
      </trkpt>
      <trkpt lat="45.92822" lon="6.49518">
        <ele>1471</ele>
        <time>2014-02-12T14:50:08.000Z</time>
      </trkpt>
      <trkpt lat="45.92822" lon="6.49518">
        <ele>1471</ele>
        <time>2014-02-12T14:50:09.000Z</time>
      </trkpt>
      <trkpt lat="45.92821" lon="6.49516">
        <ele>1471</ele>
        <time>2014-02-12T14:50:10.000Z</time>
      </trkpt>
      <trkpt lat="45.92819" lon="6.49513">
        <ele>1471</ele>
        <time>2014-02-12T14:50:11.000Z</time>
      </trkpt>
      <trkpt lat="45.92819" lon="6.49512">
        <ele>1471.1999511719</ele>
        <time>2014-02-12T14:50:12.000Z</time>
      </trkpt>
      <trkpt lat="45.92819" lon="6.49512">
        <ele>1471.1999511719</ele>
        <time>2014-02-12T14:50:13.000Z</time>
      </trkpt>
      <trkpt lat="45.92819" lon="6.49512">
        <ele>1471.1999511719</ele>
        <time>2014-02-12T14:50:14.000Z</time>
      </trkpt>
      <trkpt lat="45.92818" lon="6.4951">
        <ele>1471.1999511719</ele>
        <time>2014-02-12T14:50:15.000Z</time>
      </trkpt>
      <trkpt lat="45.92818" lon="6.49509">
        <ele>1471.1999511719</ele>
        <time>2014-02-12T14:50:16.000Z</time>
      </trkpt>
      <trkpt lat="45.92818" lon="6.49509">
        <ele>1471.1999511719</ele>
        <time>2014-02-12T14:50:17.000Z</time>
      </trkpt>
      <trkpt lat="45.92818" lon="6.49509">
        <ele>1471.1999511719</ele>
        <time>2014-02-12T14:50:18.000Z</time>
      </trkpt>
      <trkpt lat="45.92816" lon="6.49507">
        <ele>1471.1999511719</ele>
        <time>2014-02-12T14:50:19.000Z</time>
      </trkpt>
      <trkpt lat="45.92816" lon="6.49507">
        <ele>1471.1999511719</ele>
        <time>2014-02-12T14:50:20.000Z</time>
      </trkpt>
      <trkpt lat="45.92816" lon="6.49507">
        <ele>1471.1999511719</ele>
        <time>2014-02-12T14:50:21.000Z</time>
      </trkpt>
      <trkpt lat="45.92815" lon="6.49507">
        <ele>1471.1999511719</ele>
        <time>2014-02-12T14:50:22.000Z</time>
      </trkpt>
      <trkpt lat="45.92814" lon="6.49506">
        <ele>1471.1999511719</ele>
        <time>2014-02-12T14:50:23.000Z</time>
      </trkpt>
      <trkpt lat="45.92813" lon="6.49506">
        <ele>1471.1999511719</ele>
        <time>2014-02-12T14:50:24.000Z</time>
      </trkpt>
      <trkpt lat="45.92813" lon="6.49505">
        <ele>1471.1999511719</ele>
        <time>2014-02-12T14:50:25.000Z</time>
      </trkpt>
      <trkpt lat="45.92813" lon="6.49505">
        <ele>1471.1999511719</ele>
        <time>2014-02-12T14:50:26.000Z</time>
      </trkpt>
      <trkpt lat="45.92813" lon="6.49505">
        <ele>1471.1999511719</ele>
        <time>2014-02-12T14:50:27.000Z</time>
      </trkpt>
      <trkpt lat="45.92813" lon="6.49505">
        <ele>1471.1999511719</ele>
        <time>2014-02-12T14:50:28.000Z</time>
      </trkpt>
      <trkpt lat="45.92812" lon="6.49506">
        <ele>1471.1999511719</ele>
        <time>2014-02-12T14:50:29.000Z</time>
      </trkpt>
      <trkpt lat="45.92812" lon="6.49506">
        <ele>1471.1999511719</ele>
        <time>2014-02-12T14:50:30.000Z</time>
      </trkpt>
      <trkpt lat="45.92812" lon="6.49505">
        <ele>1471.1999511719</ele>
        <time>2014-02-12T14:50:31.000Z</time>
      </trkpt>
      <trkpt lat="45.92811" lon="6.49504">
        <ele>1471.4000244141</ele>
        <time>2014-02-12T14:50:32.000Z</time>
      </trkpt>
      <trkpt lat="45.9281" lon="6.49503">
        <ele>1471.4000244141</ele>
        <time>2014-02-12T14:50:33.000Z</time>
      </trkpt>
      <trkpt lat="45.92809" lon="6.49502">
        <ele>1471.4000244141</ele>
        <time>2014-02-12T14:50:34.000Z</time>
      </trkpt>
      <trkpt lat="45.92808" lon="6.49502">
        <ele>1471.4000244141</ele>
        <time>2014-02-12T14:50:35.000Z</time>
      </trkpt>
      <trkpt lat="45.92807" lon="6.49501">
        <ele>1471.4000244141</ele>
        <time>2014-02-12T14:50:36.000Z</time>
      </trkpt>
      <trkpt lat="45.92806" lon="6.495">
        <ele>1471.5999755859</ele>
        <time>2014-02-12T14:50:37.000Z</time>
      </trkpt>
      <trkpt lat="45.92805" lon="6.495">
        <ele>1471.8000488281</ele>
        <time>2014-02-12T14:50:38.000Z</time>
      </trkpt>
      <trkpt lat="45.92804" lon="6.49499">
        <ele>1472</ele>
        <time>2014-02-12T14:50:39.000Z</time>
      </trkpt>
      <trkpt lat="45.92803" lon="6.49499">
        <ele>1472.1999511719</ele>
        <time>2014-02-12T14:50:40.000Z</time>
      </trkpt>
      <trkpt lat="45.92802" lon="6.49498">
        <ele>1472.4000244141</ele>
        <time>2014-02-12T14:50:41.000Z</time>
      </trkpt>
      <trkpt lat="45.92801" lon="6.49498">
        <ele>1472.4000244141</ele>
        <time>2014-02-12T14:50:42.000Z</time>
      </trkpt>
      <trkpt lat="45.928" lon="6.49498">
        <ele>1472.5999755859</ele>
        <time>2014-02-12T14:50:44.000Z</time>
      </trkpt>
      <trkpt lat="45.928" lon="6.49498">
        <ele>1472.5999755859</ele>
        <time>2014-02-12T14:50:45.000Z</time>
      </trkpt>
      <trkpt lat="45.92799" lon="6.49498">
        <ele>1472.8000488281</ele>
        <time>2014-02-12T14:50:46.000Z</time>
      </trkpt>
      <trkpt lat="45.92799" lon="6.49498">
        <ele>1472.8000488281</ele>
        <time>2014-02-12T14:50:47.000Z</time>
      </trkpt>
      <trkpt lat="45.92798" lon="6.49497">
        <ele>1473</ele>
        <time>2014-02-12T14:50:48.000Z</time>
      </trkpt>
      <trkpt lat="45.92797" lon="6.49497">
        <ele>1473.1999511719</ele>
        <time>2014-02-12T14:50:49.000Z</time>
      </trkpt>
      <trkpt lat="45.92796" lon="6.49497">
        <ele>1473.4000244141</ele>
        <time>2014-02-12T14:50:50.000Z</time>
      </trkpt>
      <trkpt lat="45.92796" lon="6.49497">
        <ele>1473.4000244141</ele>
        <time>2014-02-12T14:50:51.000Z</time>
      </trkpt>
      <trkpt lat="45.92796" lon="6.49497">
        <ele>1473.4000244141</ele>
        <time>2014-02-12T14:50:52.000Z</time>
      </trkpt>
      <trkpt lat="45.92794" lon="6.49496">
        <ele>1473.5999755859</ele>
        <time>2014-02-12T14:50:53.000Z</time>
      </trkpt>
      <trkpt lat="45.92795" lon="6.49496">
        <ele>1473.5999755859</ele>
        <time>2014-02-12T14:50:54.000Z</time>
      </trkpt>
      <trkpt lat="45.92795" lon="6.49496">
        <ele>1473.5999755859</ele>
        <time>2014-02-12T14:50:55.000Z</time>
      </trkpt>
      <trkpt lat="45.92795" lon="6.49496">
        <ele>1473.5999755859</ele>
        <time>2014-02-12T14:50:56.000Z</time>
      </trkpt>
      <trkpt lat="45.92795" lon="6.49496">
        <ele>1473.5999755859</ele>
        <time>2014-02-12T14:50:57.000Z</time>
      </trkpt>
      <trkpt lat="45.92795" lon="6.49496">
        <ele>1473.5999755859</ele>
        <time>2014-02-12T14:50:58.000Z</time>
      </trkpt>
      <trkpt lat="45.92795" lon="6.49496">
        <ele>1473.5999755859</ele>
        <time>2014-02-12T14:50:59.000Z</time>
      </trkpt>
      <trkpt lat="45.92792" lon="6.49495">
        <ele>1474</ele>
        <time>2014-02-12T14:51:00.000Z</time>
      </trkpt>
      <trkpt lat="45.92791" lon="6.49495">
        <ele>1474.4000244141</ele>
        <time>2014-02-12T14:51:01.000Z</time>
      </trkpt>
      <trkpt lat="45.9279" lon="6.49495">
        <ele>1474.5999755859</ele>
        <time>2014-02-12T14:51:02.000Z</time>
      </trkpt>
      <trkpt lat="45.9279" lon="6.49495">
        <ele>1474.5999755859</ele>
        <time>2014-02-12T14:51:03.000Z</time>
      </trkpt>
      <trkpt lat="45.92789" lon="6.49494">
        <ele>1474.5999755859</ele>
        <time>2014-02-12T14:51:04.000Z</time>
      </trkpt>
      <trkpt lat="45.92789" lon="6.49494">
        <ele>1474.5999755859</ele>
        <time>2014-02-12T14:51:05.000Z</time>
      </trkpt>
      <trkpt lat="45.92788" lon="6.49494">
        <ele>1474.8000488281</ele>
        <time>2014-02-12T14:51:06.000Z</time>
      </trkpt>
      <trkpt lat="45.92787" lon="6.49493">
        <ele>1475</ele>
        <time>2014-02-12T14:51:07.000Z</time>
      </trkpt>
      <trkpt lat="45.92786" lon="6.49493">
        <ele>1475.1999511719</ele>
        <time>2014-02-12T14:51:08.000Z</time>
      </trkpt>
      <trkpt lat="45.92786" lon="6.49493">
        <ele>1475.1999511719</ele>
        <time>2014-02-12T14:51:09.000Z</time>
      </trkpt>
      <trkpt lat="45.92785" lon="6.49492">
        <ele>1475.4000244141</ele>
        <time>2014-02-12T14:51:10.000Z</time>
      </trkpt>
      <trkpt lat="45.92785" lon="6.49492">
        <ele>1475.4000244141</ele>
        <time>2014-02-12T14:51:11.000Z</time>
      </trkpt>
      <trkpt lat="45.92785" lon="6.49492">
        <ele>1475.4000244141</ele>
        <time>2014-02-12T14:51:12.000Z</time>
      </trkpt>
      <trkpt lat="45.92785" lon="6.49492">
        <ele>1475.4000244141</ele>
        <time>2014-02-12T14:51:13.000Z</time>
      </trkpt>
      <trkpt lat="45.92785" lon="6.49492">
        <ele>1475.5999755859</ele>
        <time>2014-02-12T14:51:14.000Z</time>
      </trkpt>
      <trkpt lat="45.92784" lon="6.49491">
        <ele>1475.5999755859</ele>
        <time>2014-02-12T14:51:15.000Z</time>
      </trkpt>
      <trkpt lat="45.92783" lon="6.4949">
        <ele>1475.8000488281</ele>
        <time>2014-02-12T14:51:16.000Z</time>
      </trkpt>
      <trkpt lat="45.92782" lon="6.4949">
        <ele>1476</ele>
        <time>2014-02-12T14:51:17.000Z</time>
      </trkpt>
      <trkpt lat="45.92782" lon="6.4949">
        <ele>1476</ele>
        <time>2014-02-12T14:51:18.000Z</time>
      </trkpt>
      <trkpt lat="45.92781" lon="6.4949">
        <ele>1476.1999511719</ele>
        <time>2014-02-12T14:51:19.000Z</time>
      </trkpt>
      <trkpt lat="45.9278" lon="6.49488">
        <ele>1476.4000244141</ele>
        <time>2014-02-12T14:51:20.000Z</time>
      </trkpt>
      <trkpt lat="45.9278" lon="6.49488">
        <ele>1476.4000244141</ele>
        <time>2014-02-12T14:51:21.000Z</time>
      </trkpt>
      <trkpt lat="45.92779" lon="6.49488">
        <ele>1476.5999755859</ele>
        <time>2014-02-12T14:51:22.000Z</time>
      </trkpt>
      <trkpt lat="45.92779" lon="6.49488">
        <ele>1476.5999755859</ele>
        <time>2014-02-12T14:51:23.000Z</time>
      </trkpt>
      <trkpt lat="45.92779" lon="6.49487">
        <ele>1476.5999755859</ele>
        <time>2014-02-12T14:51:24.000Z</time>
      </trkpt>
      <trkpt lat="45.92777" lon="6.49485">
        <ele>1477</ele>
        <time>2014-02-12T14:51:25.000Z</time>
      </trkpt>
      <trkpt lat="45.92777" lon="6.49485">
        <ele>1477</ele>
        <time>2014-02-12T14:51:26.000Z</time>
      </trkpt>
      <trkpt lat="45.92777" lon="6.49484">
        <ele>1477.1999511719</ele>
        <time>2014-02-12T14:51:27.000Z</time>
      </trkpt>
      <trkpt lat="45.92777" lon="6.49484">
        <ele>1477.1999511719</ele>
        <time>2014-02-12T14:51:28.000Z</time>
      </trkpt>
      <trkpt lat="45.92777" lon="6.49484">
        <ele>1477.1999511719</ele>
        <time>2014-02-12T14:51:29.000Z</time>
      </trkpt>
      <trkpt lat="45.92775" lon="6.49482">
        <ele>1477.4000244141</ele>
        <time>2014-02-12T14:51:30.000Z</time>
      </trkpt>
      <trkpt lat="45.92774" lon="6.49482">
        <ele>1477.5999755859</ele>
        <time>2014-02-12T14:51:31.000Z</time>
      </trkpt>
      <trkpt lat="45.92774" lon="6.49482">
        <ele>1477.5999755859</ele>
        <time>2014-02-12T14:51:32.000Z</time>
      </trkpt>
      <trkpt lat="45.92774" lon="6.49482">
        <ele>1477.5999755859</ele>
        <time>2014-02-12T14:51:33.000Z</time>
      </trkpt>
      <trkpt lat="45.92772" lon="6.49481">
        <ele>1477.8000488281</ele>
        <time>2014-02-12T14:51:34.000Z</time>
      </trkpt>
      <trkpt lat="45.92773" lon="6.49481">
        <ele>1477.8000488281</ele>
        <time>2014-02-12T14:51:35.000Z</time>
      </trkpt>
      <trkpt lat="45.92773" lon="6.49481">
        <ele>1477.8000488281</ele>
        <time>2014-02-12T14:51:36.000Z</time>
      </trkpt>
      <trkpt lat="45.92773" lon="6.49481">
        <ele>1477.8000488281</ele>
        <time>2014-02-12T14:51:37.000Z</time>
      </trkpt>
      <trkpt lat="45.92771" lon="6.4948">
        <ele>1478</ele>
        <time>2014-02-12T14:51:38.000Z</time>
      </trkpt>
      <trkpt lat="45.9277" lon="6.49479">
        <ele>1478.1999511719</ele>
        <time>2014-02-12T14:51:39.000Z</time>
      </trkpt>
      <trkpt lat="45.9277" lon="6.49479">
        <ele>1478.1999511719</ele>
        <time>2014-02-12T14:51:40.000Z</time>
      </trkpt>
      <trkpt lat="45.92769" lon="6.49479">
        <ele>1478.4000244141</ele>
        <time>2014-02-12T14:51:41.000Z</time>
      </trkpt>
      <trkpt lat="45.92768" lon="6.49478">
        <ele>1478.4000244141</ele>
        <time>2014-02-12T14:51:42.000Z</time>
      </trkpt>
      <trkpt lat="45.92768" lon="6.49478">
        <ele>1478.5999755859</ele>
        <time>2014-02-12T14:51:43.000Z</time>
      </trkpt>
      <trkpt lat="45.92767" lon="6.49476">
        <ele>1478.5999755859</ele>
        <time>2014-02-12T14:51:44.000Z</time>
      </trkpt>
      <trkpt lat="45.92767" lon="6.49477">
        <ele>1478.5999755859</ele>
        <time>2014-02-12T14:51:45.000Z</time>
      </trkpt>
      <trkpt lat="45.92767" lon="6.49477">
        <ele>1478.8000488281</ele>
        <time>2014-02-12T14:51:46.000Z</time>
      </trkpt>
      <trkpt lat="45.92766" lon="6.49477">
        <ele>1478.8000488281</ele>
        <time>2014-02-12T14:51:47.000Z</time>
      </trkpt>
      <trkpt lat="45.92764" lon="6.49476">
        <ele>1479.1999511719</ele>
        <time>2014-02-12T14:51:48.000Z</time>
      </trkpt>
      <trkpt lat="45.92763" lon="6.49475">
        <ele>1479.1999511719</ele>
        <time>2014-02-12T14:51:49.000Z</time>
      </trkpt>
      <trkpt lat="45.92764" lon="6.49475">
        <ele>1479.1999511719</ele>
        <time>2014-02-12T14:51:50.000Z</time>
      </trkpt>
      <trkpt lat="45.92763" lon="6.49475">
        <ele>1479.1999511719</ele>
        <time>2014-02-12T14:51:51.000Z</time>
      </trkpt>
      <trkpt lat="45.92762" lon="6.49474">
        <ele>1479.5999755859</ele>
        <time>2014-02-12T14:51:52.000Z</time>
      </trkpt>
      <trkpt lat="45.92761" lon="6.49473">
        <ele>1479.8000488281</ele>
        <time>2014-02-12T14:51:53.000Z</time>
      </trkpt>
      <trkpt lat="45.9276" lon="6.49473">
        <ele>1479.8000488281</ele>
        <time>2014-02-12T14:51:54.000Z</time>
      </trkpt>
      <trkpt lat="45.9276" lon="6.49473">
        <ele>1479.8000488281</ele>
        <time>2014-02-12T14:51:55.000Z</time>
      </trkpt>
      <trkpt lat="45.92759" lon="6.49473">
        <ele>1480</ele>
        <time>2014-02-12T14:51:56.000Z</time>
      </trkpt>
      <trkpt lat="45.92759" lon="6.49473">
        <ele>1480</ele>
        <time>2014-02-12T14:51:57.000Z</time>
      </trkpt>
      <trkpt lat="45.92758" lon="6.49472">
        <ele>1480.1999511719</ele>
        <time>2014-02-12T14:51:58.000Z</time>
      </trkpt>
      <trkpt lat="45.92757" lon="6.49471">
        <ele>1480.4000244141</ele>
        <time>2014-02-12T14:51:59.000Z</time>
      </trkpt>
      <trkpt lat="45.92757" lon="6.49471">
        <ele>1480.4000244141</ele>
        <time>2014-02-12T14:52:00.000Z</time>
      </trkpt>
      <trkpt lat="45.92756" lon="6.4947">
        <ele>1480.4000244141</ele>
        <time>2014-02-12T14:52:01.000Z</time>
      </trkpt>
      <trkpt lat="45.92756" lon="6.4947">
        <ele>1480.4000244141</ele>
        <time>2014-02-12T14:52:02.000Z</time>
      </trkpt>
      <trkpt lat="45.92756" lon="6.4947">
        <ele>1480.5999755859</ele>
        <time>2014-02-12T14:52:03.000Z</time>
      </trkpt>
      <trkpt lat="45.92754" lon="6.49468">
        <ele>1480.8000488281</ele>
        <time>2014-02-12T14:52:04.000Z</time>
      </trkpt>
      <trkpt lat="45.92754" lon="6.49469">
        <ele>1480.8000488281</ele>
        <time>2014-02-12T14:52:05.000Z</time>
      </trkpt>
      <trkpt lat="45.92754" lon="6.49468">
        <ele>1480.8000488281</ele>
        <time>2014-02-12T14:52:06.000Z</time>
      </trkpt>
      <trkpt lat="45.92754" lon="6.49468">
        <ele>1480.8000488281</ele>
        <time>2014-02-12T14:52:07.000Z</time>
      </trkpt>
      <trkpt lat="45.92751" lon="6.49467">
        <ele>1481.1999511719</ele>
        <time>2014-02-12T14:52:08.000Z</time>
      </trkpt>
      <trkpt lat="45.92751" lon="6.49467">
        <ele>1481.1999511719</ele>
        <time>2014-02-12T14:52:09.000Z</time>
      </trkpt>
      <trkpt lat="45.9275" lon="6.49467">
        <ele>1481.4000244141</ele>
        <time>2014-02-12T14:52:10.000Z</time>
      </trkpt>
      <trkpt lat="45.92747" lon="6.49464">
        <ele>1481.8000488281</ele>
        <time>2014-02-12T14:52:13.000Z</time>
      </trkpt>
      <trkpt lat="45.92746" lon="6.49463">
        <ele>1482</ele>
        <time>2014-02-12T14:52:14.000Z</time>
      </trkpt>
      <trkpt lat="45.92746" lon="6.49463">
        <ele>1482</ele>
        <time>2014-02-12T14:52:15.000Z</time>
      </trkpt>
      <trkpt lat="45.92746" lon="6.49462">
        <ele>1482.1999511719</ele>
        <time>2014-02-12T14:52:16.000Z</time>
      </trkpt>
      <trkpt lat="45.92744" lon="6.49461">
        <ele>1482.4000244141</ele>
        <time>2014-02-12T14:52:17.000Z</time>
      </trkpt>
      <trkpt lat="45.92742" lon="6.49461">
        <ele>1482.5999755859</ele>
        <time>2014-02-12T14:52:18.000Z</time>
      </trkpt>
      <trkpt lat="45.92741" lon="6.49461">
        <ele>1482.8000488281</ele>
        <time>2014-02-12T14:52:19.000Z</time>
      </trkpt>
      <trkpt lat="45.92742" lon="6.49461">
        <ele>1482.8000488281</ele>
        <time>2014-02-12T14:52:20.000Z</time>
      </trkpt>
      <trkpt lat="45.92742" lon="6.49461">
        <ele>1482.8000488281</ele>
        <time>2014-02-12T14:52:21.000Z</time>
      </trkpt>
      <trkpt lat="45.92742" lon="6.49461">
        <ele>1482.8000488281</ele>
        <time>2014-02-12T14:52:22.000Z</time>
      </trkpt>
      <trkpt lat="45.92742" lon="6.49461">
        <ele>1482.8000488281</ele>
        <time>2014-02-12T14:52:23.000Z</time>
      </trkpt>
      <trkpt lat="45.92742" lon="6.49461">
        <ele>1482.8000488281</ele>
        <time>2014-02-12T14:52:24.000Z</time>
      </trkpt>
      <trkpt lat="45.92742" lon="6.49461">
        <ele>1482.8000488281</ele>
        <time>2014-02-12T14:52:25.000Z</time>
      </trkpt>
      <trkpt lat="45.92742" lon="6.49461">
        <ele>1482.8000488281</ele>
        <time>2014-02-12T14:52:26.000Z</time>
      </trkpt>
      <trkpt lat="45.92742" lon="6.49461">
        <ele>1482.8000488281</ele>
        <time>2014-02-12T14:52:27.000Z</time>
      </trkpt>
      <trkpt lat="45.92742" lon="6.49461">
        <ele>1482.8000488281</ele>
        <time>2014-02-12T14:52:29.000Z</time>
      </trkpt>
      <trkpt lat="45.92742" lon="6.49461">
        <ele>1482.8000488281</ele>
        <time>2014-02-12T14:52:30.000Z</time>
      </trkpt>
      <trkpt lat="45.92742" lon="6.49461">
        <ele>1482.8000488281</ele>
        <time>2014-02-12T14:52:31.000Z</time>
      </trkpt>
      <trkpt lat="45.92742" lon="6.49461">
        <ele>1482.8000488281</ele>
        <time>2014-02-12T14:52:32.000Z</time>
      </trkpt>
      <trkpt lat="45.92742" lon="6.49461">
        <ele>1482.8000488281</ele>
        <time>2014-02-12T14:52:33.000Z</time>
      </trkpt>
      <trkpt lat="45.92742" lon="6.49461">
        <ele>1482.8000488281</ele>
        <time>2014-02-12T14:52:34.000Z</time>
      </trkpt>
      <trkpt lat="45.92742" lon="6.49461">
        <ele>1482.8000488281</ele>
        <time>2014-02-12T14:52:35.000Z</time>
      </trkpt>
      <trkpt lat="45.92742" lon="6.49461">
        <ele>1482.8000488281</ele>
        <time>2014-02-12T14:52:36.000Z</time>
      </trkpt>
      <trkpt lat="45.92742" lon="6.49461">
        <ele>1482.8000488281</ele>
        <time>2014-02-12T14:52:37.000Z</time>
      </trkpt>
      <trkpt lat="45.92742" lon="6.49461">
        <ele>1482.8000488281</ele>
        <time>2014-02-12T14:52:38.000Z</time>
      </trkpt>
      <trkpt lat="45.92742" lon="6.49461">
        <ele>1482.8000488281</ele>
        <time>2014-02-12T14:52:39.000Z</time>
      </trkpt>
      <trkpt lat="45.92742" lon="6.49461">
        <ele>1482.8000488281</ele>
        <time>2014-02-12T14:52:40.000Z</time>
      </trkpt>
      <trkpt lat="45.92742" lon="6.49461">
        <ele>1482.8000488281</ele>
        <time>2014-02-12T14:52:41.000Z</time>
      </trkpt>
      <trkpt lat="45.92742" lon="6.49461">
        <ele>1482.8000488281</ele>
        <time>2014-02-12T14:52:42.000Z</time>
      </trkpt>
      <trkpt lat="45.92742" lon="6.49461">
        <ele>1482.8000488281</ele>
        <time>2014-02-12T14:52:43.000Z</time>
      </trkpt>
      <trkpt lat="45.92742" lon="6.49461">
        <ele>1482.8000488281</ele>
        <time>2014-02-12T14:52:44.000Z</time>
      </trkpt>
      <trkpt lat="45.92742" lon="6.49461">
        <ele>1482.8000488281</ele>
        <time>2014-02-12T14:52:45.000Z</time>
      </trkpt>
      <trkpt lat="45.92742" lon="6.49461">
        <ele>1482.8000488281</ele>
        <time>2014-02-12T14:52:46.000Z</time>
      </trkpt>
      <trkpt lat="45.92742" lon="6.49461">
        <ele>1482.8000488281</ele>
        <time>2014-02-12T14:52:47.000Z</time>
      </trkpt>
      <trkpt lat="45.92742" lon="6.49461">
        <ele>1482.8000488281</ele>
        <time>2014-02-12T14:52:49.000Z</time>
      </trkpt>
      <trkpt lat="45.92742" lon="6.49461">
        <ele>1482.8000488281</ele>
        <time>2014-02-12T14:52:50.000Z</time>
      </trkpt>
      <trkpt lat="45.92742" lon="6.49461">
        <ele>1482.8000488281</ele>
        <time>2014-02-12T14:52:51.000Z</time>
      </trkpt>
      <trkpt lat="45.92742" lon="6.49461">
        <ele>1482.8000488281</ele>
        <time>2014-02-12T14:52:52.000Z</time>
      </trkpt>
      <trkpt lat="45.92742" lon="6.49461">
        <ele>1482.8000488281</ele>
        <time>2014-02-12T14:52:53.000Z</time>
      </trkpt>
      <trkpt lat="45.92742" lon="6.49461">
        <ele>1482.8000488281</ele>
        <time>2014-02-12T14:52:54.000Z</time>
      </trkpt>
      <trkpt lat="45.92742" lon="6.49461">
        <ele>1482.8000488281</ele>
        <time>2014-02-12T14:52:55.000Z</time>
      </trkpt>
      <trkpt lat="45.92742" lon="6.49461">
        <ele>1482.8000488281</ele>
        <time>2014-02-12T14:52:56.000Z</time>
      </trkpt>
      <trkpt lat="45.92742" lon="6.49461">
        <ele>1482.8000488281</ele>
        <time>2014-02-12T14:52:57.000Z</time>
      </trkpt>
      <trkpt lat="45.92742" lon="6.49461">
        <ele>1482.8000488281</ele>
        <time>2014-02-12T14:52:58.000Z</time>
      </trkpt>
      <trkpt lat="45.92742" lon="6.49461">
        <ele>1482.8000488281</ele>
        <time>2014-02-12T14:52:59.000Z</time>
      </trkpt>
      <trkpt lat="45.92742" lon="6.49461">
        <ele>1482.8000488281</ele>
        <time>2014-02-12T14:53:00.000Z</time>
      </trkpt>
      <trkpt lat="45.92742" lon="6.49461">
        <ele>1482.8000488281</ele>
        <time>2014-02-12T14:53:01.000Z</time>
      </trkpt>
      <trkpt lat="45.92742" lon="6.49461">
        <ele>1482.8000488281</ele>
        <time>2014-02-12T14:53:02.000Z</time>
      </trkpt>
      <trkpt lat="45.92742" lon="6.49461">
        <ele>1482.8000488281</ele>
        <time>2014-02-12T14:53:03.000Z</time>
      </trkpt>
      <trkpt lat="45.92742" lon="6.49461">
        <ele>1482.8000488281</ele>
        <time>2014-02-12T14:53:04.000Z</time>
      </trkpt>
      <trkpt lat="45.92742" lon="6.49461">
        <ele>1482.8000488281</ele>
        <time>2014-02-12T14:53:05.000Z</time>
      </trkpt>
      <trkpt lat="45.92742" lon="6.49461">
        <ele>1482.8000488281</ele>
        <time>2014-02-12T14:53:06.000Z</time>
      </trkpt>
      <trkpt lat="45.92742" lon="6.49461">
        <ele>1482.8000488281</ele>
        <time>2014-02-12T14:53:07.000Z</time>
      </trkpt>
      <trkpt lat="45.92742" lon="6.49461">
        <ele>1482.8000488281</ele>
        <time>2014-02-12T14:53:08.000Z</time>
      </trkpt>
      <trkpt lat="45.92742" lon="6.49461">
        <ele>1482.8000488281</ele>
        <time>2014-02-12T14:53:09.000Z</time>
      </trkpt>
      <trkpt lat="45.92742" lon="6.49461">
        <ele>1482.8000488281</ele>
        <time>2014-02-12T14:53:10.000Z</time>
      </trkpt>
      <trkpt lat="45.92742" lon="6.49461">
        <ele>1482.8000488281</ele>
        <time>2014-02-12T14:53:13.000Z</time>
      </trkpt>
      <trkpt lat="45.92742" lon="6.49461">
        <ele>1482.8000488281</ele>
        <time>2014-02-12T14:53:14.000Z</time>
      </trkpt>
      <trkpt lat="45.92742" lon="6.49461">
        <ele>1482.8000488281</ele>
        <time>2014-02-12T14:53:15.000Z</time>
      </trkpt>
      <trkpt lat="45.92742" lon="6.49461">
        <ele>1482.8000488281</ele>
        <time>2014-02-12T14:53:16.000Z</time>
      </trkpt>
      <trkpt lat="45.92742" lon="6.49461">
        <ele>1482.8000488281</ele>
        <time>2014-02-12T14:53:17.000Z</time>
      </trkpt>
      <trkpt lat="45.92742" lon="6.49461">
        <ele>1482.8000488281</ele>
        <time>2014-02-12T14:53:18.000Z</time>
      </trkpt>
      <trkpt lat="45.92742" lon="6.49461">
        <ele>1482.8000488281</ele>
        <time>2014-02-12T14:53:19.000Z</time>
      </trkpt>
      <trkpt lat="45.92742" lon="6.49461">
        <ele>1482.8000488281</ele>
        <time>2014-02-12T14:53:20.000Z</time>
      </trkpt>
      <trkpt lat="45.92742" lon="6.49461">
        <ele>1482.8000488281</ele>
        <time>2014-02-12T14:53:21.000Z</time>
      </trkpt>
      <trkpt lat="45.92742" lon="6.49461">
        <ele>1482.8000488281</ele>
        <time>2014-02-12T14:53:22.000Z</time>
      </trkpt>
      <trkpt lat="45.92742" lon="6.49461">
        <ele>1482.8000488281</ele>
        <time>2014-02-12T14:53:23.000Z</time>
      </trkpt>
      <trkpt lat="45.92742" lon="6.49461">
        <ele>1482.8000488281</ele>
        <time>2014-02-12T14:53:24.000Z</time>
      </trkpt>
      <trkpt lat="45.92742" lon="6.49461">
        <ele>1482.8000488281</ele>
        <time>2014-02-12T14:53:26.000Z</time>
      </trkpt>
      <trkpt lat="45.92742" lon="6.49461">
        <ele>1482.8000488281</ele>
        <time>2014-02-12T14:53:27.000Z</time>
      </trkpt>
      <trkpt lat="45.92742" lon="6.49461">
        <ele>1482.8000488281</ele>
        <time>2014-02-12T14:53:28.000Z</time>
      </trkpt>
      <trkpt lat="45.92742" lon="6.49461">
        <ele>1482.8000488281</ele>
        <time>2014-02-12T14:53:29.000Z</time>
      </trkpt>
      <trkpt lat="45.92742" lon="6.49461">
        <ele>1482.8000488281</ele>
        <time>2014-02-12T14:53:30.000Z</time>
      </trkpt>
      <trkpt lat="45.92742" lon="6.49461">
        <ele>1482.8000488281</ele>
        <time>2014-02-12T14:53:34.000Z</time>
      </trkpt>
      <trkpt lat="45.92742" lon="6.49461">
        <ele>1482.8000488281</ele>
        <time>2014-02-12T14:53:35.000Z</time>
      </trkpt>
      <trkpt lat="45.92742" lon="6.49461">
        <ele>1482.8000488281</ele>
        <time>2014-02-12T14:53:36.000Z</time>
      </trkpt>
      <trkpt lat="45.92742" lon="6.49461">
        <ele>1482.8000488281</ele>
        <time>2014-02-12T14:53:37.000Z</time>
      </trkpt>
      <trkpt lat="45.92742" lon="6.49461">
        <ele>1482.8000488281</ele>
        <time>2014-02-12T14:53:45.000Z</time>
      </trkpt>
      <trkpt lat="45.92742" lon="6.49461">
        <ele>1482.8000488281</ele>
        <time>2014-02-12T14:53:46.000Z</time>
      </trkpt>
      <trkpt lat="45.92742" lon="6.49461">
        <ele>1482.8000488281</ele>
        <time>2014-02-12T14:53:47.000Z</time>
      </trkpt>
      <trkpt lat="45.92742" lon="6.49461">
        <ele>1482.8000488281</ele>
        <time>2014-02-12T14:53:48.000Z</time>
      </trkpt>
      <trkpt lat="45.92742" lon="6.49461">
        <ele>1482.8000488281</ele>
        <time>2014-02-12T14:53:50.000Z</time>
      </trkpt>
      <trkpt lat="45.92742" lon="6.49461">
        <ele>1482.8000488281</ele>
        <time>2014-02-12T14:53:51.000Z</time>
      </trkpt>
      <trkpt lat="45.92742" lon="6.49461">
        <ele>1482.8000488281</ele>
        <time>2014-02-12T14:53:52.000Z</time>
      </trkpt>
      <trkpt lat="45.92742" lon="6.49461">
        <ele>1482.8000488281</ele>
        <time>2014-02-12T14:53:53.000Z</time>
      </trkpt>
      <trkpt lat="45.92742" lon="6.49461">
        <ele>1482.8000488281</ele>
        <time>2014-02-12T14:53:54.000Z</time>
      </trkpt>
      <trkpt lat="45.92742" lon="6.49461">
        <ele>1482.8000488281</ele>
        <time>2014-02-12T14:53:57.000Z</time>
      </trkpt>
      <trkpt lat="45.92742" lon="6.49461">
        <ele>1482.8000488281</ele>
        <time>2014-02-12T14:53:58.000Z</time>
      </trkpt>
      <trkpt lat="45.92742" lon="6.49461">
        <ele>1482.8000488281</ele>
        <time>2014-02-12T14:54:00.000Z</time>
      </trkpt>
      <trkpt lat="45.92742" lon="6.49461">
        <ele>1482.8000488281</ele>
        <time>2014-02-12T14:54:02.000Z</time>
      </trkpt>
      <trkpt lat="45.92742" lon="6.49461">
        <ele>1482.8000488281</ele>
        <time>2014-02-12T14:54:04.000Z</time>
      </trkpt>
      <trkpt lat="45.92742" lon="6.49461">
        <ele>1482.8000488281</ele>
        <time>2014-02-12T14:54:05.000Z</time>
      </trkpt>
      <trkpt lat="45.92742" lon="6.49461">
        <ele>1482.8000488281</ele>
        <time>2014-02-12T14:54:06.000Z</time>
      </trkpt>
      <trkpt lat="45.92742" lon="6.49461">
        <ele>1482.8000488281</ele>
        <time>2014-02-12T14:54:07.000Z</time>
      </trkpt>
      <trkpt lat="45.92742" lon="6.49461">
        <ele>1482.8000488281</ele>
        <time>2014-02-12T14:54:08.000Z</time>
      </trkpt>
      <trkpt lat="45.92742" lon="6.49461">
        <ele>1482.8000488281</ele>
        <time>2014-02-12T14:54:09.000Z</time>
      </trkpt>
      <trkpt lat="45.92742" lon="6.49461">
        <ele>1482.8000488281</ele>
        <time>2014-02-12T14:54:10.000Z</time>
      </trkpt>
      <trkpt lat="45.92742" lon="6.49461">
        <ele>1482.8000488281</ele>
        <time>2014-02-12T14:54:13.000Z</time>
      </trkpt>
      <trkpt lat="45.92742" lon="6.49461">
        <ele>1482.8000488281</ele>
        <time>2014-02-12T14:54:18.000Z</time>
      </trkpt>
      <trkpt lat="45.92742" lon="6.49461">
        <ele>1482.8000488281</ele>
        <time>2014-02-12T14:54:19.000Z</time>
      </trkpt>
      <trkpt lat="45.92742" lon="6.49461">
        <ele>1482.8000488281</ele>
        <time>2014-02-12T14:54:20.000Z</time>
      </trkpt>
      <trkpt lat="45.92742" lon="6.49458">
        <ele>1482.5999755859</ele>
        <time>2014-02-12T14:54:21.000Z</time>
      </trkpt>
      <trkpt lat="45.92742" lon="6.49457">
        <ele>1482.5999755859</ele>
        <time>2014-02-12T14:54:22.000Z</time>
      </trkpt>
      <trkpt lat="45.92743" lon="6.49457">
        <ele>1482.5999755859</ele>
        <time>2014-02-12T14:54:23.000Z</time>
      </trkpt>
      <trkpt lat="45.92743" lon="6.49454">
        <ele>1482.4000244141</ele>
        <time>2014-02-12T14:54:24.000Z</time>
      </trkpt>
      <trkpt lat="45.92742" lon="6.49448">
        <ele>1482.5999755859</ele>
        <time>2014-02-12T14:54:26.000Z</time>
      </trkpt>
      <trkpt lat="45.92743" lon="6.49447">
        <ele>1482.4000244141</ele>
        <time>2014-02-12T14:54:27.000Z</time>
      </trkpt>
      <trkpt lat="45.92742" lon="6.49443">
        <ele>1482.4000244141</ele>
        <time>2014-02-12T14:54:29.000Z</time>
      </trkpt>
      <trkpt lat="45.92742" lon="6.49442">
        <ele>1482.4000244141</ele>
        <time>2014-02-12T14:54:30.000Z</time>
      </trkpt>
      <trkpt lat="45.92741" lon="6.4944">
        <ele>1482.5999755859</ele>
        <time>2014-02-12T14:54:31.000Z</time>
      </trkpt>
      <trkpt lat="45.92741" lon="6.49439">
        <ele>1482.5999755859</ele>
        <time>2014-02-12T14:54:32.000Z</time>
      </trkpt>
      <trkpt lat="45.9274" lon="6.49437">
        <ele>1482.5999755859</ele>
        <time>2014-02-12T14:54:33.000Z</time>
      </trkpt>
      <trkpt lat="45.9274" lon="6.49435">
        <ele>1482.8000488281</ele>
        <time>2014-02-12T14:54:34.000Z</time>
      </trkpt>
      <trkpt lat="45.92739" lon="6.49432">
        <ele>1482.8000488281</ele>
        <time>2014-02-12T14:54:35.000Z</time>
      </trkpt>
      <trkpt lat="45.92739" lon="6.49429">
        <ele>1482.8000488281</ele>
        <time>2014-02-12T14:54:36.000Z</time>
      </trkpt>
      <trkpt lat="45.92738" lon="6.49425">
        <ele>1483</ele>
        <time>2014-02-12T14:54:37.000Z</time>
      </trkpt>
      <trkpt lat="45.92738" lon="6.49422">
        <ele>1483</ele>
        <time>2014-02-12T14:54:38.000Z</time>
      </trkpt>
      <trkpt lat="45.92737" lon="6.49419">
        <ele>1483</ele>
        <time>2014-02-12T14:54:39.000Z</time>
      </trkpt>
      <trkpt lat="45.92736" lon="6.49416">
        <ele>1483</ele>
        <time>2014-02-12T14:54:40.000Z</time>
      </trkpt>
      <trkpt lat="45.92736" lon="6.49412">
        <ele>1483.1999511719</ele>
        <time>2014-02-12T14:54:41.000Z</time>
      </trkpt>
      <trkpt lat="45.92735" lon="6.49408">
        <ele>1482.5999755859</ele>
        <time>2014-02-12T14:54:42.000Z</time>
      </trkpt>
      <trkpt lat="45.92734" lon="6.49405">
        <ele>1482.4000244141</ele>
        <time>2014-02-12T14:54:43.000Z</time>
      </trkpt>
      <trkpt lat="45.92733" lon="6.49403">
        <ele>1482</ele>
        <time>2014-02-12T14:54:44.000Z</time>
      </trkpt>
      <trkpt lat="45.92732" lon="6.494">
        <ele>1482</ele>
        <time>2014-02-12T14:54:45.000Z</time>
      </trkpt>
      <trkpt lat="45.92731" lon="6.49398">
        <ele>1482</ele>
        <time>2014-02-12T14:54:46.000Z</time>
      </trkpt>
      <trkpt lat="45.9273" lon="6.49396">
        <ele>1481.8000488281</ele>
        <time>2014-02-12T14:54:47.000Z</time>
      </trkpt>
      <trkpt lat="45.9273" lon="6.49393">
        <ele>1481.8000488281</ele>
        <time>2014-02-12T14:54:48.000Z</time>
      </trkpt>
      <trkpt lat="45.92729" lon="6.49391">
        <ele>1481.5999755859</ele>
        <time>2014-02-12T14:54:49.000Z</time>
      </trkpt>
      <trkpt lat="45.92729" lon="6.4939">
        <ele>1481.5999755859</ele>
        <time>2014-02-12T14:54:50.000Z</time>
      </trkpt>
      <trkpt lat="45.92728" lon="6.49388">
        <ele>1481.4000244141</ele>
        <time>2014-02-12T14:54:51.000Z</time>
      </trkpt>
      <trkpt lat="45.92727" lon="6.49386">
        <ele>1481.4000244141</ele>
        <time>2014-02-12T14:54:52.000Z</time>
      </trkpt>
      <trkpt lat="45.92726" lon="6.49383">
        <ele>1481.4000244141</ele>
        <time>2014-02-12T14:54:53.000Z</time>
      </trkpt>
      <trkpt lat="45.92725" lon="6.49381">
        <ele>1481.4000244141</ele>
        <time>2014-02-12T14:54:54.000Z</time>
      </trkpt>
      <trkpt lat="45.92724" lon="6.49379">
        <ele>1481.4000244141</ele>
        <time>2014-02-12T14:54:55.000Z</time>
      </trkpt>
      <trkpt lat="45.92724" lon="6.49377">
        <ele>1481.4000244141</ele>
        <time>2014-02-12T14:54:56.000Z</time>
      </trkpt>
      <trkpt lat="45.92723" lon="6.49375">
        <ele>1481.5999755859</ele>
        <time>2014-02-12T14:54:57.000Z</time>
      </trkpt>
      <trkpt lat="45.92721" lon="6.49372">
        <ele>1481.8000488281</ele>
        <time>2014-02-12T14:54:58.000Z</time>
      </trkpt>
      <trkpt lat="45.9272" lon="6.49368">
        <ele>1481.8000488281</ele>
        <time>2014-02-12T14:54:59.000Z</time>
      </trkpt>
      <trkpt lat="45.92718" lon="6.49364">
        <ele>1481.8000488281</ele>
        <time>2014-02-12T14:55:00.000Z</time>
      </trkpt>
      <trkpt lat="45.92716" lon="6.4936">
        <ele>1482</ele>
        <time>2014-02-12T14:55:01.000Z</time>
      </trkpt>
      <trkpt lat="45.92714" lon="6.49351">
        <ele>1481.4000244141</ele>
        <time>2014-02-12T14:55:02.000Z</time>
      </trkpt>
      <trkpt lat="45.92712" lon="6.49344">
        <ele>1481</ele>
        <time>2014-02-12T14:55:03.000Z</time>
      </trkpt>
      <trkpt lat="45.92711" lon="6.49337">
        <ele>1480.5999755859</ele>
        <time>2014-02-12T14:55:04.000Z</time>
      </trkpt>
      <trkpt lat="45.92709" lon="6.4933">
        <ele>1480.1999511719</ele>
        <time>2014-02-12T14:55:05.000Z</time>
      </trkpt>
      <trkpt lat="45.92708" lon="6.49323">
        <ele>1479.5999755859</ele>
        <time>2014-02-12T14:55:06.000Z</time>
      </trkpt>
      <trkpt lat="45.92706" lon="6.49317">
        <ele>1479.1999511719</ele>
        <time>2014-02-12T14:55:07.000Z</time>
      </trkpt>
      <trkpt lat="45.92704" lon="6.49311">
        <ele>1477.8000488281</ele>
        <time>2014-02-12T14:55:08.000Z</time>
      </trkpt>
      <trkpt lat="45.92702" lon="6.49305">
        <ele>1477</ele>
        <time>2014-02-12T14:55:09.000Z</time>
      </trkpt>
      <trkpt lat="45.92699" lon="6.493">
        <ele>1476.1999511719</ele>
        <time>2014-02-12T14:55:10.000Z</time>
      </trkpt>
      <trkpt lat="45.92696" lon="6.49294">
        <ele>1475.5999755859</ele>
        <time>2014-02-12T14:55:11.000Z</time>
      </trkpt>
      <trkpt lat="45.92692" lon="6.49289">
        <ele>1475</ele>
        <time>2014-02-12T14:55:12.000Z</time>
      </trkpt>
      <trkpt lat="45.92689" lon="6.49284">
        <ele>1474.5999755859</ele>
        <time>2014-02-12T14:55:13.000Z</time>
      </trkpt>
      <trkpt lat="45.92685" lon="6.4928">
        <ele>1474.5999755859</ele>
        <time>2014-02-12T14:55:14.000Z</time>
      </trkpt>
      <trkpt lat="45.92682" lon="6.49277">
        <ele>1475</ele>
        <time>2014-02-12T14:55:15.000Z</time>
      </trkpt>
      <trkpt lat="45.92678" lon="6.49275">
        <ele>1475.5999755859</ele>
        <time>2014-02-12T14:55:16.000Z</time>
      </trkpt>
      <trkpt lat="45.92676" lon="6.49273">
        <ele>1476</ele>
        <time>2014-02-12T14:55:17.000Z</time>
      </trkpt>
      <trkpt lat="45.92673" lon="6.49272">
        <ele>1476.5999755859</ele>
        <time>2014-02-12T14:55:18.000Z</time>
      </trkpt>
      <trkpt lat="45.92671" lon="6.49271">
        <ele>1477.1999511719</ele>
        <time>2014-02-12T14:55:19.000Z</time>
      </trkpt>
      <trkpt lat="45.92669" lon="6.4927">
        <ele>1477.4000244141</ele>
        <time>2014-02-12T14:55:20.000Z</time>
      </trkpt>
      <trkpt lat="45.92668" lon="6.49269">
        <ele>1477.5999755859</ele>
        <time>2014-02-12T14:55:21.000Z</time>
      </trkpt>
      <trkpt lat="45.92668" lon="6.4927">
        <ele>1477.8000488281</ele>
        <time>2014-02-12T14:55:22.000Z</time>
      </trkpt>
      <trkpt lat="45.92667" lon="6.49269">
        <ele>1478.1999511719</ele>
        <time>2014-02-12T14:55:23.000Z</time>
      </trkpt>
      <trkpt lat="45.92667" lon="6.4927">
        <ele>1478.1999511719</ele>
        <time>2014-02-12T14:55:24.000Z</time>
      </trkpt>
      <trkpt lat="45.92667" lon="6.4927">
        <ele>1478.5999755859</ele>
        <time>2014-02-12T14:55:25.000Z</time>
      </trkpt>
      <trkpt lat="45.92666" lon="6.4927">
        <ele>1478.8000488281</ele>
        <time>2014-02-12T14:55:26.000Z</time>
      </trkpt>
      <trkpt lat="45.92665" lon="6.4927">
        <ele>1479.1999511719</ele>
        <time>2014-02-12T14:55:27.000Z</time>
      </trkpt>
      <trkpt lat="45.92663" lon="6.49269">
        <ele>1479.5999755859</ele>
        <time>2014-02-12T14:55:28.000Z</time>
      </trkpt>
      <trkpt lat="45.92663" lon="6.49268">
        <ele>1479.5999755859</ele>
        <time>2014-02-12T14:55:29.000Z</time>
      </trkpt>
      <trkpt lat="45.92662" lon="6.49268">
        <ele>1479.5999755859</ele>
        <time>2014-02-12T14:55:30.000Z</time>
      </trkpt>
      <trkpt lat="45.92661" lon="6.49267">
        <ele>1479.8000488281</ele>
        <time>2014-02-12T14:55:31.000Z</time>
      </trkpt>
      <trkpt lat="45.9266" lon="6.49266">
        <ele>1480</ele>
        <time>2014-02-12T14:55:32.000Z</time>
      </trkpt>
      <trkpt lat="45.9266" lon="6.49266">
        <ele>1480</ele>
        <time>2014-02-12T14:55:33.000Z</time>
      </trkpt>
      <trkpt lat="45.92659" lon="6.49266">
        <ele>1480.1999511719</ele>
        <time>2014-02-12T14:55:34.000Z</time>
      </trkpt>
      <trkpt lat="45.92659" lon="6.49266">
        <ele>1480.1999511719</ele>
        <time>2014-02-12T14:55:35.000Z</time>
      </trkpt>
      <trkpt lat="45.92657" lon="6.49265">
        <ele>1480.5999755859</ele>
        <time>2014-02-12T14:55:36.000Z</time>
      </trkpt>
      <trkpt lat="45.92657" lon="6.49265">
        <ele>1480.8000488281</ele>
        <time>2014-02-12T14:55:37.000Z</time>
      </trkpt>
      <trkpt lat="45.92657" lon="6.49265">
        <ele>1480.8000488281</ele>
        <time>2014-02-12T14:55:38.000Z</time>
      </trkpt>
      <trkpt lat="45.92655" lon="6.49264">
        <ele>1481.1999511719</ele>
        <time>2014-02-12T14:55:39.000Z</time>
      </trkpt>
      <trkpt lat="45.92654" lon="6.49264">
        <ele>1481.4000244141</ele>
        <time>2014-02-12T14:55:40.000Z</time>
      </trkpt>
      <trkpt lat="45.92654" lon="6.49264">
        <ele>1481.4000244141</ele>
        <time>2014-02-12T14:55:41.000Z</time>
      </trkpt>
      <trkpt lat="45.92654" lon="6.49263">
        <ele>1481.4000244141</ele>
        <time>2014-02-12T14:55:42.000Z</time>
      </trkpt>
      <trkpt lat="45.92653" lon="6.49263">
        <ele>1481.4000244141</ele>
        <time>2014-02-12T14:55:43.000Z</time>
      </trkpt>
      <trkpt lat="45.92651" lon="6.49261">
        <ele>1481.5999755859</ele>
        <time>2014-02-12T14:55:44.000Z</time>
      </trkpt>
      <trkpt lat="45.9265" lon="6.49261">
        <ele>1482</ele>
        <time>2014-02-12T14:55:45.000Z</time>
      </trkpt>
      <trkpt lat="45.9265" lon="6.49261">
        <ele>1481.8000488281</ele>
        <time>2014-02-12T14:55:46.000Z</time>
      </trkpt>
      <trkpt lat="45.9265" lon="6.4926">
        <ele>1482</ele>
        <time>2014-02-12T14:55:47.000Z</time>
      </trkpt>
      <trkpt lat="45.92649" lon="6.4926">
        <ele>1482</ele>
        <time>2014-02-12T14:55:48.000Z</time>
      </trkpt>
      <trkpt lat="45.92649" lon="6.4926">
        <ele>1482.1999511719</ele>
        <time>2014-02-12T14:55:49.000Z</time>
      </trkpt>
      <trkpt lat="45.92649" lon="6.4926">
        <ele>1482.1999511719</ele>
        <time>2014-02-12T14:55:50.000Z</time>
      </trkpt>
      <trkpt lat="45.92649" lon="6.4926">
        <ele>1482.1999511719</ele>
        <time>2014-02-12T14:55:51.000Z</time>
      </trkpt>
      <trkpt lat="45.92649" lon="6.4926">
        <ele>1482.1999511719</ele>
        <time>2014-02-12T14:55:52.000Z</time>
      </trkpt>
      <trkpt lat="45.92649" lon="6.4926">
        <ele>1482.1999511719</ele>
        <time>2014-02-12T14:55:53.000Z</time>
      </trkpt>
      <trkpt lat="45.92649" lon="6.4926">
        <ele>1482.1999511719</ele>
        <time>2014-02-12T14:55:54.000Z</time>
      </trkpt>
      <trkpt lat="45.92649" lon="6.4926">
        <ele>1482.1999511719</ele>
        <time>2014-02-12T14:55:55.000Z</time>
      </trkpt>
      <trkpt lat="45.92649" lon="6.4926">
        <ele>1482.1999511719</ele>
        <time>2014-02-12T14:55:56.000Z</time>
      </trkpt>
      <trkpt lat="45.92649" lon="6.4926">
        <ele>1482.1999511719</ele>
        <time>2014-02-12T14:55:57.000Z</time>
      </trkpt>
      <trkpt lat="45.92649" lon="6.4926">
        <ele>1482.1999511719</ele>
        <time>2014-02-12T14:55:58.000Z</time>
      </trkpt>
      <trkpt lat="45.92649" lon="6.4926">
        <ele>1482.1999511719</ele>
        <time>2014-02-12T14:55:59.000Z</time>
      </trkpt>
      <trkpt lat="45.92649" lon="6.4926">
        <ele>1482.1999511719</ele>
        <time>2014-02-12T14:56:01.000Z</time>
      </trkpt>
      <trkpt lat="45.92649" lon="6.4926">
        <ele>1482.1999511719</ele>
        <time>2014-02-12T14:56:02.000Z</time>
      </trkpt>
      <trkpt lat="45.92649" lon="6.4926">
        <ele>1482.1999511719</ele>
        <time>2014-02-12T14:56:03.000Z</time>
      </trkpt>
      <trkpt lat="45.92649" lon="6.4926">
        <ele>1482.1999511719</ele>
        <time>2014-02-12T14:56:06.000Z</time>
      </trkpt>
      <trkpt lat="45.92649" lon="6.4926">
        <ele>1482.1999511719</ele>
        <time>2014-02-12T14:56:07.000Z</time>
      </trkpt>
      <trkpt lat="45.92649" lon="6.4926">
        <ele>1482.1999511719</ele>
        <time>2014-02-12T14:56:08.000Z</time>
      </trkpt>
      <trkpt lat="45.92649" lon="6.4926">
        <ele>1482.1999511719</ele>
        <time>2014-02-12T14:56:09.000Z</time>
      </trkpt>
      <trkpt lat="45.92649" lon="6.4926">
        <ele>1482.1999511719</ele>
        <time>2014-02-12T14:56:10.000Z</time>
      </trkpt>
      <trkpt lat="45.92649" lon="6.4926">
        <ele>1482.1999511719</ele>
        <time>2014-02-12T14:56:11.000Z</time>
      </trkpt>
      <trkpt lat="45.92649" lon="6.4926">
        <ele>1482.1999511719</ele>
        <time>2014-02-12T14:56:13.000Z</time>
      </trkpt>
      <trkpt lat="45.92649" lon="6.4926">
        <ele>1482.1999511719</ele>
        <time>2014-02-12T14:56:14.000Z</time>
      </trkpt>
      <trkpt lat="45.92649" lon="6.4926">
        <ele>1482.1999511719</ele>
        <time>2014-02-12T14:56:15.000Z</time>
      </trkpt>
      <trkpt lat="45.92649" lon="6.4926">
        <ele>1482.1999511719</ele>
        <time>2014-02-12T14:56:18.000Z</time>
      </trkpt>
      <trkpt lat="45.92649" lon="6.4926">
        <ele>1482.1999511719</ele>
        <time>2014-02-12T14:56:21.000Z</time>
      </trkpt>
      <trkpt lat="45.92649" lon="6.4926">
        <ele>1482.1999511719</ele>
        <time>2014-02-12T14:56:22.000Z</time>
      </trkpt>
      <trkpt lat="45.92649" lon="6.4926">
        <ele>1482.1999511719</ele>
        <time>2014-02-12T14:56:23.000Z</time>
      </trkpt>
      <trkpt lat="45.92649" lon="6.4926">
        <ele>1482.1999511719</ele>
        <time>2014-02-12T14:56:24.000Z</time>
      </trkpt>
      <trkpt lat="45.92649" lon="6.4926">
        <ele>1482.1999511719</ele>
        <time>2014-02-12T14:56:25.000Z</time>
      </trkpt>
      <trkpt lat="45.92649" lon="6.4926">
        <ele>1482.1999511719</ele>
        <time>2014-02-12T14:56:26.000Z</time>
      </trkpt>
      <trkpt lat="45.92649" lon="6.4926">
        <ele>1482.1999511719</ele>
        <time>2014-02-12T14:56:27.000Z</time>
      </trkpt>
      <trkpt lat="45.92649" lon="6.4926">
        <ele>1482.1999511719</ele>
        <time>2014-02-12T14:56:29.000Z</time>
      </trkpt>
      <trkpt lat="45.92649" lon="6.4926">
        <ele>1482.1999511719</ele>
        <time>2014-02-12T14:56:30.000Z</time>
      </trkpt>
      <trkpt lat="45.92649" lon="6.4926">
        <ele>1482.1999511719</ele>
        <time>2014-02-12T14:56:32.000Z</time>
      </trkpt>
      <trkpt lat="45.92649" lon="6.4926">
        <ele>1482.1999511719</ele>
        <time>2014-02-12T14:56:33.000Z</time>
      </trkpt>
      <trkpt lat="45.92649" lon="6.4926">
        <ele>1482.1999511719</ele>
        <time>2014-02-12T14:56:34.000Z</time>
      </trkpt>
      <trkpt lat="45.92649" lon="6.4926">
        <ele>1482.1999511719</ele>
        <time>2014-02-12T14:56:35.000Z</time>
      </trkpt>
      <trkpt lat="45.92649" lon="6.4926">
        <ele>1482.1999511719</ele>
        <time>2014-02-12T14:56:36.000Z</time>
      </trkpt>
      <trkpt lat="45.92649" lon="6.4926">
        <ele>1482.1999511719</ele>
        <time>2014-02-12T14:56:37.000Z</time>
      </trkpt>
      <trkpt lat="45.92649" lon="6.4926">
        <ele>1482.1999511719</ele>
        <time>2014-02-12T14:56:38.000Z</time>
      </trkpt>
      <trkpt lat="45.92649" lon="6.4926">
        <ele>1482.1999511719</ele>
        <time>2014-02-12T14:56:40.000Z</time>
      </trkpt>
      <trkpt lat="45.92649" lon="6.4926">
        <ele>1482.1999511719</ele>
        <time>2014-02-12T14:56:41.000Z</time>
      </trkpt>
      <trkpt lat="45.92649" lon="6.4926">
        <ele>1482.1999511719</ele>
        <time>2014-02-12T14:56:43.000Z</time>
      </trkpt>
      <trkpt lat="45.92649" lon="6.4926">
        <ele>1482.1999511719</ele>
        <time>2014-02-12T14:56:44.000Z</time>
      </trkpt>
      <trkpt lat="45.92649" lon="6.4926">
        <ele>1482.1999511719</ele>
        <time>2014-02-12T14:56:45.000Z</time>
      </trkpt>
      <trkpt lat="45.92649" lon="6.4926">
        <ele>1482.1999511719</ele>
        <time>2014-02-12T14:56:46.000Z</time>
      </trkpt>
      <trkpt lat="45.92649" lon="6.4926">
        <ele>1482.1999511719</ele>
        <time>2014-02-12T14:56:47.000Z</time>
      </trkpt>
      <trkpt lat="45.92649" lon="6.4926">
        <ele>1482.1999511719</ele>
        <time>2014-02-12T14:56:48.000Z</time>
      </trkpt>
      <trkpt lat="45.92649" lon="6.4926">
        <ele>1482.1999511719</ele>
        <time>2014-02-12T14:56:49.000Z</time>
      </trkpt>
      <trkpt lat="45.92649" lon="6.4926">
        <ele>1482.1999511719</ele>
        <time>2014-02-12T14:56:52.000Z</time>
      </trkpt>
      <trkpt lat="45.92649" lon="6.4926">
        <ele>1482.1999511719</ele>
        <time>2014-02-12T14:56:53.000Z</time>
      </trkpt>
      <trkpt lat="45.92649" lon="6.4926">
        <ele>1482.1999511719</ele>
        <time>2014-02-12T14:56:54.000Z</time>
      </trkpt>
      <trkpt lat="45.92649" lon="6.4926">
        <ele>1482.1999511719</ele>
        <time>2014-02-12T14:56:55.000Z</time>
      </trkpt>
      <trkpt lat="45.92649" lon="6.4926">
        <ele>1482.1999511719</ele>
        <time>2014-02-12T14:56:56.000Z</time>
      </trkpt>
      <trkpt lat="45.92649" lon="6.4926">
        <ele>1482.1999511719</ele>
        <time>2014-02-12T14:56:57.000Z</time>
      </trkpt>
      <trkpt lat="45.92649" lon="6.4926">
        <ele>1482.1999511719</ele>
        <time>2014-02-12T14:56:58.000Z</time>
      </trkpt>
      <trkpt lat="45.92649" lon="6.4926">
        <ele>1482.1999511719</ele>
        <time>2014-02-12T14:57:00.000Z</time>
      </trkpt>
      <trkpt lat="45.92649" lon="6.4926">
        <ele>1482.1999511719</ele>
        <time>2014-02-12T14:57:01.000Z</time>
      </trkpt>
      <trkpt lat="45.92649" lon="6.4926">
        <ele>1482.1999511719</ele>
        <time>2014-02-12T14:57:04.000Z</time>
      </trkpt>
      <trkpt lat="45.92649" lon="6.4926">
        <ele>1482.1999511719</ele>
        <time>2014-02-12T14:57:05.000Z</time>
      </trkpt>
      <trkpt lat="45.92649" lon="6.4926">
        <ele>1482.1999511719</ele>
        <time>2014-02-12T14:57:06.000Z</time>
      </trkpt>
      <trkpt lat="45.92649" lon="6.4926">
        <ele>1482.1999511719</ele>
        <time>2014-02-12T14:57:07.000Z</time>
      </trkpt>
      <trkpt lat="45.92649" lon="6.4926">
        <ele>1482.1999511719</ele>
        <time>2014-02-12T14:57:09.000Z</time>
      </trkpt>
      <trkpt lat="45.92649" lon="6.4926">
        <ele>1482.1999511719</ele>
        <time>2014-02-12T14:57:10.000Z</time>
      </trkpt>
      <trkpt lat="45.92649" lon="6.4926">
        <ele>1482.1999511719</ele>
        <time>2014-02-12T14:57:11.000Z</time>
      </trkpt>
      <trkpt lat="45.92649" lon="6.4926">
        <ele>1482.1999511719</ele>
        <time>2014-02-12T14:57:12.000Z</time>
      </trkpt>
      <trkpt lat="45.92649" lon="6.4926">
        <ele>1482.1999511719</ele>
        <time>2014-02-12T14:57:13.000Z</time>
      </trkpt>
      <trkpt lat="45.92649" lon="6.4926">
        <ele>1482.1999511719</ele>
        <time>2014-02-12T14:57:16.000Z</time>
      </trkpt>
      <trkpt lat="45.92649" lon="6.4926">
        <ele>1482.1999511719</ele>
        <time>2014-02-12T14:57:20.000Z</time>
      </trkpt>
      <trkpt lat="45.92649" lon="6.4926">
        <ele>1482.1999511719</ele>
        <time>2014-02-12T14:57:21.000Z</time>
      </trkpt>
      <trkpt lat="45.92649" lon="6.4926">
        <ele>1482.1999511719</ele>
        <time>2014-02-12T14:57:22.000Z</time>
      </trkpt>
      <trkpt lat="45.92649" lon="6.4926">
        <ele>1482.1999511719</ele>
        <time>2014-02-12T14:57:23.000Z</time>
      </trkpt>
      <trkpt lat="45.92649" lon="6.4926">
        <ele>1482.1999511719</ele>
        <time>2014-02-12T14:57:24.000Z</time>
      </trkpt>
      <trkpt lat="45.92649" lon="6.4926">
        <ele>1482.1999511719</ele>
        <time>2014-02-12T14:57:26.000Z</time>
      </trkpt>
      <trkpt lat="45.92649" lon="6.4926">
        <ele>1482.1999511719</ele>
        <time>2014-02-12T14:57:27.000Z</time>
      </trkpt>
      <trkpt lat="45.92649" lon="6.4926">
        <ele>1482.1999511719</ele>
        <time>2014-02-12T14:57:28.000Z</time>
      </trkpt>
      <trkpt lat="45.92649" lon="6.4926">
        <ele>1482.1999511719</ele>
        <time>2014-02-12T14:57:30.000Z</time>
      </trkpt>
      <trkpt lat="45.92649" lon="6.4926">
        <ele>1482.1999511719</ele>
        <time>2014-02-12T14:57:31.000Z</time>
      </trkpt>
      <trkpt lat="45.92649" lon="6.4926">
        <ele>1482.1999511719</ele>
        <time>2014-02-12T14:57:32.000Z</time>
      </trkpt>
      <trkpt lat="45.92649" lon="6.4926">
        <ele>1482.1999511719</ele>
        <time>2014-02-12T14:57:33.000Z</time>
      </trkpt>
      <trkpt lat="45.92649" lon="6.4926">
        <ele>1482.1999511719</ele>
        <time>2014-02-12T14:57:34.000Z</time>
      </trkpt>
      <trkpt lat="45.92649" lon="6.4926">
        <ele>1482.1999511719</ele>
        <time>2014-02-12T14:57:35.000Z</time>
      </trkpt>
      <trkpt lat="45.92649" lon="6.4926">
        <ele>1482.1999511719</ele>
        <time>2014-02-12T14:57:36.000Z</time>
      </trkpt>
      <trkpt lat="45.92649" lon="6.4926">
        <ele>1482.1999511719</ele>
        <time>2014-02-12T14:57:37.000Z</time>
      </trkpt>
      <trkpt lat="45.92649" lon="6.4926">
        <ele>1482.1999511719</ele>
        <time>2014-02-12T14:57:38.000Z</time>
      </trkpt>
      <trkpt lat="45.92649" lon="6.4926">
        <ele>1482.1999511719</ele>
        <time>2014-02-12T14:57:39.000Z</time>
      </trkpt>
      <trkpt lat="45.92649" lon="6.4926">
        <ele>1482.1999511719</ele>
        <time>2014-02-12T14:57:41.000Z</time>
      </trkpt>
      <trkpt lat="45.92649" lon="6.4926">
        <ele>1482.1999511719</ele>
        <time>2014-02-12T14:57:42.000Z</time>
      </trkpt>
      <trkpt lat="45.92649" lon="6.4926">
        <ele>1482.1999511719</ele>
        <time>2014-02-12T14:57:43.000Z</time>
      </trkpt>
      <trkpt lat="45.92649" lon="6.4926">
        <ele>1482.1999511719</ele>
        <time>2014-02-12T14:57:44.000Z</time>
      </trkpt>
      <trkpt lat="45.92649" lon="6.4926">
        <ele>1482.1999511719</ele>
        <time>2014-02-12T14:57:45.000Z</time>
      </trkpt>
      <trkpt lat="45.92649" lon="6.4926">
        <ele>1482.1999511719</ele>
        <time>2014-02-12T14:57:46.000Z</time>
      </trkpt>
      <trkpt lat="45.92649" lon="6.4926">
        <ele>1482.1999511719</ele>
        <time>2014-02-12T14:57:48.000Z</time>
      </trkpt>
      <trkpt lat="45.92649" lon="6.4926">
        <ele>1482.1999511719</ele>
        <time>2014-02-12T14:57:49.000Z</time>
      </trkpt>
      <trkpt lat="45.92649" lon="6.4926">
        <ele>1482.1999511719</ele>
        <time>2014-02-12T14:57:50.000Z</time>
      </trkpt>
      <trkpt lat="45.92649" lon="6.4926">
        <ele>1482.1999511719</ele>
        <time>2014-02-12T14:57:51.000Z</time>
      </trkpt>
      <trkpt lat="45.92649" lon="6.4926">
        <ele>1482.1999511719</ele>
        <time>2014-02-12T14:57:52.000Z</time>
      </trkpt>
      <trkpt lat="45.92649" lon="6.4926">
        <ele>1482.1999511719</ele>
        <time>2014-02-12T14:57:53.000Z</time>
      </trkpt>
      <trkpt lat="45.92649" lon="6.4926">
        <ele>1482.1999511719</ele>
        <time>2014-02-12T14:57:54.000Z</time>
      </trkpt>
      <trkpt lat="45.92649" lon="6.4926">
        <ele>1482.1999511719</ele>
        <time>2014-02-12T14:57:55.000Z</time>
      </trkpt>
      <trkpt lat="45.92649" lon="6.4926">
        <ele>1482.1999511719</ele>
        <time>2014-02-12T14:57:56.000Z</time>
      </trkpt>
      <trkpt lat="45.92649" lon="6.4926">
        <ele>1482.1999511719</ele>
        <time>2014-02-12T14:57:57.000Z</time>
      </trkpt>
      <trkpt lat="45.92649" lon="6.4926">
        <ele>1482.1999511719</ele>
        <time>2014-02-12T14:57:58.000Z</time>
      </trkpt>
      <trkpt lat="45.92649" lon="6.4926">
        <ele>1482.1999511719</ele>
        <time>2014-02-12T14:57:59.000Z</time>
      </trkpt>
      <trkpt lat="45.92649" lon="6.4926">
        <ele>1482.1999511719</ele>
        <time>2014-02-12T14:58:00.000Z</time>
      </trkpt>
      <trkpt lat="45.92649" lon="6.4926">
        <ele>1482.1999511719</ele>
        <time>2014-02-12T14:58:01.000Z</time>
      </trkpt>
      <trkpt lat="45.92649" lon="6.4926">
        <ele>1482.1999511719</ele>
        <time>2014-02-12T14:58:02.000Z</time>
      </trkpt>
      <trkpt lat="45.92649" lon="6.4926">
        <ele>1482.1999511719</ele>
        <time>2014-02-12T14:58:03.000Z</time>
      </trkpt>
      <trkpt lat="45.92649" lon="6.4926">
        <ele>1482.1999511719</ele>
        <time>2014-02-12T14:58:04.000Z</time>
      </trkpt>
      <trkpt lat="45.92649" lon="6.4926">
        <ele>1482.1999511719</ele>
        <time>2014-02-12T14:58:06.000Z</time>
      </trkpt>
      <trkpt lat="45.92649" lon="6.4926">
        <ele>1482.1999511719</ele>
        <time>2014-02-12T14:58:07.000Z</time>
      </trkpt>
      <trkpt lat="45.92649" lon="6.4926">
        <ele>1482.1999511719</ele>
        <time>2014-02-12T14:58:08.000Z</time>
      </trkpt>
      <trkpt lat="45.92649" lon="6.4926">
        <ele>1482.1999511719</ele>
        <time>2014-02-12T14:58:09.000Z</time>
      </trkpt>
      <trkpt lat="45.92649" lon="6.4926">
        <ele>1482.1999511719</ele>
        <time>2014-02-12T14:58:10.000Z</time>
      </trkpt>
      <trkpt lat="45.92649" lon="6.4926">
        <ele>1482.1999511719</ele>
        <time>2014-02-12T14:58:12.000Z</time>
      </trkpt>
      <trkpt lat="45.92649" lon="6.4926">
        <ele>1482.1999511719</ele>
        <time>2014-02-12T14:58:13.000Z</time>
      </trkpt>
      <trkpt lat="45.92649" lon="6.4926">
        <ele>1482.1999511719</ele>
        <time>2014-02-12T14:58:14.000Z</time>
      </trkpt>
      <trkpt lat="45.92649" lon="6.4926">
        <ele>1482.1999511719</ele>
        <time>2014-02-12T14:58:15.000Z</time>
      </trkpt>
      <trkpt lat="45.92649" lon="6.4926">
        <ele>1482.1999511719</ele>
        <time>2014-02-12T14:58:16.000Z</time>
      </trkpt>
      <trkpt lat="45.92649" lon="6.4926">
        <ele>1482.1999511719</ele>
        <time>2014-02-12T14:58:17.000Z</time>
      </trkpt>
      <trkpt lat="45.92649" lon="6.4926">
        <ele>1482.1999511719</ele>
        <time>2014-02-12T14:58:18.000Z</time>
      </trkpt>
      <trkpt lat="45.92649" lon="6.4926">
        <ele>1482.1999511719</ele>
        <time>2014-02-12T14:58:19.000Z</time>
      </trkpt>
      <trkpt lat="45.92649" lon="6.4926">
        <ele>1482.1999511719</ele>
        <time>2014-02-12T14:58:20.000Z</time>
      </trkpt>
      <trkpt lat="45.92649" lon="6.4926">
        <ele>1482.1999511719</ele>
        <time>2014-02-12T14:58:22.000Z</time>
      </trkpt>
      <trkpt lat="45.92649" lon="6.4926">
        <ele>1482.1999511719</ele>
        <time>2014-02-12T14:58:23.000Z</time>
      </trkpt>
      <trkpt lat="45.92649" lon="6.4926">
        <ele>1482.1999511719</ele>
        <time>2014-02-12T14:58:24.000Z</time>
      </trkpt>
      <trkpt lat="45.92649" lon="6.4926">
        <ele>1482.1999511719</ele>
        <time>2014-02-12T14:58:25.000Z</time>
      </trkpt>
      <trkpt lat="45.92649" lon="6.4926">
        <ele>1482.1999511719</ele>
        <time>2014-02-12T14:58:26.000Z</time>
      </trkpt>
      <trkpt lat="45.92649" lon="6.4926">
        <ele>1482.1999511719</ele>
        <time>2014-02-12T14:58:27.000Z</time>
      </trkpt>
      <trkpt lat="45.92649" lon="6.4926">
        <ele>1482</ele>
        <time>2014-02-12T14:58:28.000Z</time>
      </trkpt>
      <trkpt lat="45.92649" lon="6.4926">
        <ele>1482</ele>
        <time>2014-02-12T14:58:29.000Z</time>
      </trkpt>
      <trkpt lat="45.92649" lon="6.4926">
        <ele>1482</ele>
        <time>2014-02-12T14:58:30.000Z</time>
      </trkpt>
      <trkpt lat="45.92649" lon="6.4926">
        <ele>1482</ele>
        <time>2014-02-12T14:58:31.000Z</time>
      </trkpt>
      <trkpt lat="45.92649" lon="6.4926">
        <ele>1482</ele>
        <time>2014-02-12T14:58:32.000Z</time>
      </trkpt>
      <trkpt lat="45.92649" lon="6.4926">
        <ele>1482</ele>
        <time>2014-02-12T14:58:33.000Z</time>
      </trkpt>
      <trkpt lat="45.92649" lon="6.4926">
        <ele>1482</ele>
        <time>2014-02-12T14:58:34.000Z</time>
      </trkpt>
      <trkpt lat="45.92649" lon="6.4926">
        <ele>1482</ele>
        <time>2014-02-12T14:58:35.000Z</time>
      </trkpt>
      <trkpt lat="45.92649" lon="6.4926">
        <ele>1482</ele>
        <time>2014-02-12T14:58:36.000Z</time>
      </trkpt>
      <trkpt lat="45.92649" lon="6.4926">
        <ele>1482</ele>
        <time>2014-02-12T14:58:37.000Z</time>
      </trkpt>
      <trkpt lat="45.92649" lon="6.4926">
        <ele>1482</ele>
        <time>2014-02-12T14:58:38.000Z</time>
      </trkpt>
      <trkpt lat="45.92649" lon="6.4926">
        <ele>1482</ele>
        <time>2014-02-12T14:58:39.000Z</time>
      </trkpt>
      <trkpt lat="45.92649" lon="6.4926">
        <ele>1482</ele>
        <time>2014-02-12T14:58:40.000Z</time>
      </trkpt>
      <trkpt lat="45.92649" lon="6.4926">
        <ele>1482</ele>
        <time>2014-02-12T14:58:41.000Z</time>
      </trkpt>
      <trkpt lat="45.92649" lon="6.4926">
        <ele>1482</ele>
        <time>2014-02-12T14:58:42.000Z</time>
      </trkpt>
      <trkpt lat="45.92649" lon="6.4926">
        <ele>1482</ele>
        <time>2014-02-12T14:58:43.000Z</time>
      </trkpt>
      <trkpt lat="45.92649" lon="6.4926">
        <ele>1482</ele>
        <time>2014-02-12T14:58:44.000Z</time>
      </trkpt>
      <trkpt lat="45.92649" lon="6.4926">
        <ele>1482</ele>
        <time>2014-02-12T14:58:45.000Z</time>
      </trkpt>
      <trkpt lat="45.92649" lon="6.4926">
        <ele>1482</ele>
        <time>2014-02-12T14:58:46.000Z</time>
      </trkpt>
      <trkpt lat="45.92649" lon="6.4926">
        <ele>1482</ele>
        <time>2014-02-12T14:58:47.000Z</time>
      </trkpt>
      <trkpt lat="45.92648" lon="6.49259">
        <ele>1482.4000244141</ele>
        <time>2014-02-12T14:58:48.000Z</time>
      </trkpt>
      <trkpt lat="45.92645" lon="6.49257">
        <ele>1482.5999755859</ele>
        <time>2014-02-12T14:58:50.000Z</time>
      </trkpt>
      <trkpt lat="45.92644" lon="6.49257">
        <ele>1483</ele>
        <time>2014-02-12T14:58:51.000Z</time>
      </trkpt>
      <trkpt lat="45.92644" lon="6.49256">
        <ele>1483</ele>
        <time>2014-02-12T14:58:52.000Z</time>
      </trkpt>
      <trkpt lat="45.92643" lon="6.49256">
        <ele>1483</ele>
        <time>2014-02-12T14:58:53.000Z</time>
      </trkpt>
      <trkpt lat="45.92643" lon="6.49256">
        <ele>1483</ele>
        <time>2014-02-12T14:58:54.000Z</time>
      </trkpt>
      <trkpt lat="45.92643" lon="6.49256">
        <ele>1483.1999511719</ele>
        <time>2014-02-12T14:58:55.000Z</time>
      </trkpt>
      <trkpt lat="45.92642" lon="6.49256">
        <ele>1483.5999755859</ele>
        <time>2014-02-12T14:58:56.000Z</time>
      </trkpt>
      <trkpt lat="45.92641" lon="6.49256">
        <ele>1484</ele>
        <time>2014-02-12T14:58:57.000Z</time>
      </trkpt>
      <trkpt lat="45.92641" lon="6.49256">
        <ele>1484</ele>
        <time>2014-02-12T14:58:58.000Z</time>
      </trkpt>
      <trkpt lat="45.9264" lon="6.49255">
        <ele>1484</ele>
        <time>2014-02-12T14:58:59.000Z</time>
      </trkpt>
      <trkpt lat="45.9264" lon="6.49255">
        <ele>1484.1999511719</ele>
        <time>2014-02-12T14:59:00.000Z</time>
      </trkpt>
      <trkpt lat="45.9264" lon="6.49255">
        <ele>1484.1999511719</ele>
        <time>2014-02-12T14:59:01.000Z</time>
      </trkpt>
      <trkpt lat="45.9264" lon="6.49255">
        <ele>1484.1999511719</ele>
        <time>2014-02-12T14:59:02.000Z</time>
      </trkpt>
      <trkpt lat="45.9264" lon="6.49255">
        <ele>1484.1999511719</ele>
        <time>2014-02-12T14:59:03.000Z</time>
      </trkpt>
      <trkpt lat="45.9264" lon="6.49255">
        <ele>1484.1999511719</ele>
        <time>2014-02-12T14:59:04.000Z</time>
      </trkpt>
      <trkpt lat="45.92638" lon="6.49254">
        <ele>1484.1999511719</ele>
        <time>2014-02-12T14:59:05.000Z</time>
      </trkpt>
      <trkpt lat="45.92637" lon="6.49254">
        <ele>1484.4000244141</ele>
        <time>2014-02-12T14:59:06.000Z</time>
      </trkpt>
      <trkpt lat="45.92636" lon="6.49253">
        <ele>1484.4000244141</ele>
        <time>2014-02-12T14:59:07.000Z</time>
      </trkpt>
      <trkpt lat="45.92636" lon="6.49253">
        <ele>1484.4000244141</ele>
        <time>2014-02-12T14:59:08.000Z</time>
      </trkpt>
      <trkpt lat="45.92635" lon="6.49252">
        <ele>1484.4000244141</ele>
        <time>2014-02-12T14:59:09.000Z</time>
      </trkpt>
      <trkpt lat="45.92634" lon="6.49251">
        <ele>1484.1999511719</ele>
        <time>2014-02-12T14:59:10.000Z</time>
      </trkpt>
      <trkpt lat="45.92634" lon="6.49251">
        <ele>1484.1999511719</ele>
        <time>2014-02-12T14:59:11.000Z</time>
      </trkpt>
      <trkpt lat="45.92633" lon="6.49251">
        <ele>1484.1999511719</ele>
        <time>2014-02-12T14:59:12.000Z</time>
      </trkpt>
      <trkpt lat="45.92633" lon="6.49251">
        <ele>1484.1999511719</ele>
        <time>2014-02-12T14:59:13.000Z</time>
      </trkpt>
      <trkpt lat="45.92633" lon="6.49251">
        <ele>1484.1999511719</ele>
        <time>2014-02-12T14:59:14.000Z</time>
      </trkpt>
      <trkpt lat="45.92633" lon="6.49251">
        <ele>1484.1999511719</ele>
        <time>2014-02-12T14:59:15.000Z</time>
      </trkpt>
      <trkpt lat="45.92633" lon="6.4925">
        <ele>1484.1999511719</ele>
        <time>2014-02-12T14:59:16.000Z</time>
      </trkpt>
      <trkpt lat="45.92633" lon="6.4925">
        <ele>1484.1999511719</ele>
        <time>2014-02-12T14:59:17.000Z</time>
      </trkpt>
      <trkpt lat="45.92632" lon="6.49249">
        <ele>1484</ele>
        <time>2014-02-12T14:59:18.000Z</time>
      </trkpt>
      <trkpt lat="45.92632" lon="6.49248">
        <ele>1483.8000488281</ele>
        <time>2014-02-12T14:59:19.000Z</time>
      </trkpt>
      <trkpt lat="45.92631" lon="6.49247">
        <ele>1483.5999755859</ele>
        <time>2014-02-12T14:59:21.000Z</time>
      </trkpt>
      <trkpt lat="45.9263" lon="6.49246">
        <ele>1483.5999755859</ele>
        <time>2014-02-12T14:59:22.000Z</time>
      </trkpt>
      <trkpt lat="45.92629" lon="6.49246">
        <ele>1483.5999755859</ele>
        <time>2014-02-12T14:59:23.000Z</time>
      </trkpt>
      <trkpt lat="45.92629" lon="6.49245">
        <ele>1483.8000488281</ele>
        <time>2014-02-12T14:59:24.000Z</time>
      </trkpt>
      <trkpt lat="45.92629" lon="6.49245">
        <ele>1483.8000488281</ele>
        <time>2014-02-12T14:59:25.000Z</time>
      </trkpt>
      <trkpt lat="45.92628" lon="6.49245">
        <ele>1483.8000488281</ele>
        <time>2014-02-12T14:59:26.000Z</time>
      </trkpt>
      <trkpt lat="45.92628" lon="6.49245">
        <ele>1483.8000488281</ele>
        <time>2014-02-12T14:59:27.000Z</time>
      </trkpt>
      <trkpt lat="45.92628" lon="6.49245">
        <ele>1483.8000488281</ele>
        <time>2014-02-12T14:59:28.000Z</time>
      </trkpt>
      <trkpt lat="45.92628" lon="6.49245">
        <ele>1483.8000488281</ele>
        <time>2014-02-12T14:59:29.000Z</time>
      </trkpt>
      <trkpt lat="45.92627" lon="6.49244">
        <ele>1483.8000488281</ele>
        <time>2014-02-12T14:59:30.000Z</time>
      </trkpt>
      <trkpt lat="45.92626" lon="6.49244">
        <ele>1484</ele>
        <time>2014-02-12T14:59:31.000Z</time>
      </trkpt>
      <trkpt lat="45.92626" lon="6.49244">
        <ele>1484</ele>
        <time>2014-02-12T14:59:33.000Z</time>
      </trkpt>
      <trkpt lat="45.92626" lon="6.49244">
        <ele>1484</ele>
        <time>2014-02-12T14:59:34.000Z</time>
      </trkpt>
      <trkpt lat="45.92625" lon="6.49243">
        <ele>1483.8000488281</ele>
        <time>2014-02-12T14:59:35.000Z</time>
      </trkpt>
      <trkpt lat="45.92624" lon="6.49241">
        <ele>1483.8000488281</ele>
        <time>2014-02-12T14:59:36.000Z</time>
      </trkpt>
      <trkpt lat="45.92623" lon="6.49241">
        <ele>1483.5999755859</ele>
        <time>2014-02-12T14:59:37.000Z</time>
      </trkpt>
      <trkpt lat="45.92622" lon="6.4924">
        <ele>1483.8000488281</ele>
        <time>2014-02-12T14:59:38.000Z</time>
      </trkpt>
      <trkpt lat="45.92621" lon="6.4924">
        <ele>1484</ele>
        <time>2014-02-12T14:59:39.000Z</time>
      </trkpt>
      <trkpt lat="45.9262" lon="6.4924">
        <ele>1484</ele>
        <time>2014-02-12T14:59:40.000Z</time>
      </trkpt>
      <trkpt lat="45.9262" lon="6.4924">
        <ele>1484</ele>
        <time>2014-02-12T14:59:41.000Z</time>
      </trkpt>
      <trkpt lat="45.9262" lon="6.4924">
        <ele>1484</ele>
        <time>2014-02-12T14:59:42.000Z</time>
      </trkpt>
      <trkpt lat="45.9262" lon="6.49239">
        <ele>1484.1999511719</ele>
        <time>2014-02-12T14:59:43.000Z</time>
      </trkpt>
      <trkpt lat="45.92618" lon="6.49238">
        <ele>1484.1999511719</ele>
        <time>2014-02-12T14:59:46.000Z</time>
      </trkpt>
      <trkpt lat="45.92617" lon="6.49238">
        <ele>1484.1999511719</ele>
        <time>2014-02-12T14:59:47.000Z</time>
      </trkpt>
      <trkpt lat="45.92617" lon="6.49237">
        <ele>1484.1999511719</ele>
        <time>2014-02-12T14:59:48.000Z</time>
      </trkpt>
      <trkpt lat="45.92617" lon="6.49237">
        <ele>1484.1999511719</ele>
        <time>2014-02-12T14:59:50.000Z</time>
      </trkpt>
      <trkpt lat="45.92616" lon="6.49236">
        <ele>1484.1999511719</ele>
        <time>2014-02-12T14:59:51.000Z</time>
      </trkpt>
      <trkpt lat="45.92615" lon="6.49236">
        <ele>1484.1999511719</ele>
        <time>2014-02-12T14:59:52.000Z</time>
      </trkpt>
      <trkpt lat="45.92615" lon="6.49236">
        <ele>1484.1999511719</ele>
        <time>2014-02-12T14:59:53.000Z</time>
      </trkpt>
      <trkpt lat="45.92614" lon="6.49235">
        <ele>1484.1999511719</ele>
        <time>2014-02-12T14:59:54.000Z</time>
      </trkpt>
      <trkpt lat="45.92614" lon="6.49235">
        <ele>1484.1999511719</ele>
        <time>2014-02-12T14:59:55.000Z</time>
      </trkpt>
      <trkpt lat="45.92613" lon="6.49234">
        <ele>1484.4000244141</ele>
        <time>2014-02-12T14:59:56.000Z</time>
      </trkpt>
      <trkpt lat="45.92611" lon="6.49234">
        <ele>1484.5999755859</ele>
        <time>2014-02-12T14:59:57.000Z</time>
      </trkpt>
      <trkpt lat="45.9261" lon="6.49233">
        <ele>1484.5999755859</ele>
        <time>2014-02-12T14:59:58.000Z</time>
      </trkpt>
      <trkpt lat="45.92609" lon="6.49232">
        <ele>1484.5999755859</ele>
        <time>2014-02-12T14:59:59.000Z</time>
      </trkpt>
      <trkpt lat="45.92609" lon="6.49232">
        <ele>1484.5999755859</ele>
        <time>2014-02-12T15:00:00.000Z</time>
      </trkpt>
      <trkpt lat="45.92609" lon="6.49232">
        <ele>1484.5999755859</ele>
        <time>2014-02-12T15:00:01.000Z</time>
      </trkpt>
      <trkpt lat="45.92609" lon="6.49232">
        <ele>1484.5999755859</ele>
        <time>2014-02-12T15:00:02.000Z</time>
      </trkpt>
      <trkpt lat="45.92609" lon="6.49232">
        <ele>1484.5999755859</ele>
        <time>2014-02-12T15:00:03.000Z</time>
      </trkpt>
      <trkpt lat="45.92607" lon="6.49231">
        <ele>1484.8000488281</ele>
        <time>2014-02-12T15:00:04.000Z</time>
      </trkpt>
      <trkpt lat="45.92606" lon="6.49231">
        <ele>1485</ele>
        <time>2014-02-12T15:00:05.000Z</time>
      </trkpt>
      <trkpt lat="45.92605" lon="6.49231">
        <ele>1485.4000244141</ele>
        <time>2014-02-12T15:00:06.000Z</time>
      </trkpt>
      <trkpt lat="45.92604" lon="6.49231">
        <ele>1485.5999755859</ele>
        <time>2014-02-12T15:00:07.000Z</time>
      </trkpt>
      <trkpt lat="45.92603" lon="6.4923">
        <ele>1485.8000488281</ele>
        <time>2014-02-12T15:00:08.000Z</time>
      </trkpt>
      <trkpt lat="45.92602" lon="6.4923">
        <ele>1486</ele>
        <time>2014-02-12T15:00:09.000Z</time>
      </trkpt>
      <trkpt lat="45.92602" lon="6.4923">
        <ele>1486</ele>
        <time>2014-02-12T15:00:10.000Z</time>
      </trkpt>
      <trkpt lat="45.92601" lon="6.4923">
        <ele>1486.4000244141</ele>
        <time>2014-02-12T15:00:11.000Z</time>
      </trkpt>
      <trkpt lat="45.926" lon="6.4923">
        <ele>1486.4000244141</ele>
        <time>2014-02-12T15:00:12.000Z</time>
      </trkpt>
      <trkpt lat="45.92599" lon="6.4923">
        <ele>1486.8000488281</ele>
        <time>2014-02-12T15:00:13.000Z</time>
      </trkpt>
      <trkpt lat="45.92598" lon="6.4923">
        <ele>1487</ele>
        <time>2014-02-12T15:00:14.000Z</time>
      </trkpt>
      <trkpt lat="45.92596" lon="6.49229">
        <ele>1487.1999511719</ele>
        <time>2014-02-12T15:00:16.000Z</time>
      </trkpt>
      <trkpt lat="45.92595" lon="6.49228">
        <ele>1487.1999511719</ele>
        <time>2014-02-12T15:00:18.000Z</time>
      </trkpt>
      <trkpt lat="45.92594" lon="6.49227">
        <ele>1487.4000244141</ele>
        <time>2014-02-12T15:00:19.000Z</time>
      </trkpt>
      <trkpt lat="45.92593" lon="6.49227">
        <ele>1487.5999755859</ele>
        <time>2014-02-12T15:00:20.000Z</time>
      </trkpt>
      <trkpt lat="45.92591" lon="6.49227">
        <ele>1488</ele>
        <time>2014-02-12T15:00:22.000Z</time>
      </trkpt>
      <trkpt lat="45.9259" lon="6.49226">
        <ele>1488</ele>
        <time>2014-02-12T15:00:23.000Z</time>
      </trkpt>
      <trkpt lat="45.92589" lon="6.49226">
        <ele>1488.1999511719</ele>
        <time>2014-02-12T15:00:24.000Z</time>
      </trkpt>
      <trkpt lat="45.92588" lon="6.49226">
        <ele>1488.4000244141</ele>
        <time>2014-02-12T15:00:25.000Z</time>
      </trkpt>
      <trkpt lat="45.92587" lon="6.49225">
        <ele>1488.8000488281</ele>
        <time>2014-02-12T15:00:26.000Z</time>
      </trkpt>
      <trkpt lat="45.92586" lon="6.49225">
        <ele>1489</ele>
        <time>2014-02-12T15:00:27.000Z</time>
      </trkpt>
      <trkpt lat="45.92585" lon="6.49225">
        <ele>1489</ele>
        <time>2014-02-12T15:00:28.000Z</time>
      </trkpt>
      <trkpt lat="45.92584" lon="6.49225">
        <ele>1489.4000244141</ele>
        <time>2014-02-12T15:00:29.000Z</time>
      </trkpt>
      <trkpt lat="45.92583" lon="6.49225">
        <ele>1489.5999755859</ele>
        <time>2014-02-12T15:00:30.000Z</time>
      </trkpt>
      <trkpt lat="45.92582" lon="6.49224">
        <ele>1489.5999755859</ele>
        <time>2014-02-12T15:00:31.000Z</time>
      </trkpt>
      <trkpt lat="45.92582" lon="6.49224">
        <ele>1489.5999755859</ele>
        <time>2014-02-12T15:00:32.000Z</time>
      </trkpt>
      <trkpt lat="45.92582" lon="6.49224">
        <ele>1489.5999755859</ele>
        <time>2014-02-12T15:00:33.000Z</time>
      </trkpt>
      <trkpt lat="45.92581" lon="6.49224">
        <ele>1489.8000488281</ele>
        <time>2014-02-12T15:00:34.000Z</time>
      </trkpt>
      <trkpt lat="45.9258" lon="6.49224">
        <ele>1490.1999511719</ele>
        <time>2014-02-12T15:00:35.000Z</time>
      </trkpt>
      <trkpt lat="45.92579" lon="6.49224">
        <ele>1490.4000244141</ele>
        <time>2014-02-12T15:00:36.000Z</time>
      </trkpt>
      <trkpt lat="45.92578" lon="6.49224">
        <ele>1490.5999755859</ele>
        <time>2014-02-12T15:00:37.000Z</time>
      </trkpt>
      <trkpt lat="45.92578" lon="6.49225">
        <ele>1491</ele>
        <time>2014-02-12T15:00:38.000Z</time>
      </trkpt>
      <trkpt lat="45.92577" lon="6.49225">
        <ele>1491.4000244141</ele>
        <time>2014-02-12T15:00:39.000Z</time>
      </trkpt>
      <trkpt lat="45.92577" lon="6.49225">
        <ele>1491.4000244141</ele>
        <time>2014-02-12T15:00:40.000Z</time>
      </trkpt>
      <trkpt lat="45.92577" lon="6.49225">
        <ele>1491.4000244141</ele>
        <time>2014-02-12T15:00:41.000Z</time>
      </trkpt>
      <trkpt lat="45.92576" lon="6.49225">
        <ele>1491.8000488281</ele>
        <time>2014-02-12T15:00:42.000Z</time>
      </trkpt>
      <trkpt lat="45.92575" lon="6.49225">
        <ele>1492</ele>
        <time>2014-02-12T15:00:43.000Z</time>
      </trkpt>
      <trkpt lat="45.92574" lon="6.49225">
        <ele>1492.1999511719</ele>
        <time>2014-02-12T15:00:44.000Z</time>
      </trkpt>
      <trkpt lat="45.92574" lon="6.49225">
        <ele>1492.4000244141</ele>
        <time>2014-02-12T15:00:45.000Z</time>
      </trkpt>
      <trkpt lat="45.92573" lon="6.49225">
        <ele>1492.5999755859</ele>
        <time>2014-02-12T15:00:46.000Z</time>
      </trkpt>
      <trkpt lat="45.92573" lon="6.49225">
        <ele>1492.5999755859</ele>
        <time>2014-02-12T15:00:47.000Z</time>
      </trkpt>
      <trkpt lat="45.92572" lon="6.49225">
        <ele>1492.8000488281</ele>
        <time>2014-02-12T15:00:48.000Z</time>
      </trkpt>
      <trkpt lat="45.92572" lon="6.49225">
        <ele>1492.8000488281</ele>
        <time>2014-02-12T15:00:49.000Z</time>
      </trkpt>
      <trkpt lat="45.92572" lon="6.49225">
        <ele>1492.8000488281</ele>
        <time>2014-02-12T15:00:50.000Z</time>
      </trkpt>
      <trkpt lat="45.92572" lon="6.49225">
        <ele>1492.8000488281</ele>
        <time>2014-02-12T15:00:51.000Z</time>
      </trkpt>
      <trkpt lat="45.92572" lon="6.49225">
        <ele>1492.8000488281</ele>
        <time>2014-02-12T15:00:52.000Z</time>
      </trkpt>
      <trkpt lat="45.92571" lon="6.49224">
        <ele>1492.8000488281</ele>
        <time>2014-02-12T15:00:53.000Z</time>
      </trkpt>
      <trkpt lat="45.9257" lon="6.49223">
        <ele>1492.8000488281</ele>
        <time>2014-02-12T15:00:54.000Z</time>
      </trkpt>
      <trkpt lat="45.92569" lon="6.49223">
        <ele>1493</ele>
        <time>2014-02-12T15:00:55.000Z</time>
      </trkpt>
      <trkpt lat="45.92568" lon="6.49222">
        <ele>1493.1999511719</ele>
        <time>2014-02-12T15:00:56.000Z</time>
      </trkpt>
      <trkpt lat="45.92567" lon="6.49222">
        <ele>1493.4000244141</ele>
        <time>2014-02-12T15:00:57.000Z</time>
      </trkpt>
      <trkpt lat="45.92566" lon="6.49222">
        <ele>1493.5999755859</ele>
        <time>2014-02-12T15:00:58.000Z</time>
      </trkpt>
      <trkpt lat="45.92565" lon="6.49222">
        <ele>1493.8000488281</ele>
        <time>2014-02-12T15:00:59.000Z</time>
      </trkpt>
      <trkpt lat="45.92564" lon="6.49222">
        <ele>1494</ele>
        <time>2014-02-12T15:01:00.000Z</time>
      </trkpt>
      <trkpt lat="45.92564" lon="6.49222">
        <ele>1494.1999511719</ele>
        <time>2014-02-12T15:01:01.000Z</time>
      </trkpt>
      <trkpt lat="45.92563" lon="6.49222">
        <ele>1494.1999511719</ele>
        <time>2014-02-12T15:01:02.000Z</time>
      </trkpt>
      <trkpt lat="45.9256" lon="6.4922">
        <ele>1494.5999755859</ele>
        <time>2014-02-12T15:01:05.000Z</time>
      </trkpt>
      <trkpt lat="45.9256" lon="6.4922">
        <ele>1494.8000488281</ele>
        <time>2014-02-12T15:01:06.000Z</time>
      </trkpt>
      <trkpt lat="45.92559" lon="6.4922">
        <ele>1494.8000488281</ele>
        <time>2014-02-12T15:01:07.000Z</time>
      </trkpt>
      <trkpt lat="45.92558" lon="6.4922">
        <ele>1495.1999511719</ele>
        <time>2014-02-12T15:01:08.000Z</time>
      </trkpt>
      <trkpt lat="45.92556" lon="6.4922">
        <ele>1495.5999755859</ele>
        <time>2014-02-12T15:01:09.000Z</time>
      </trkpt>
      <trkpt lat="45.92555" lon="6.4922">
        <ele>1496</ele>
        <time>2014-02-12T15:01:10.000Z</time>
      </trkpt>
      <trkpt lat="45.92553" lon="6.4922">
        <ele>1496.4000244141</ele>
        <time>2014-02-12T15:01:11.000Z</time>
      </trkpt>
      <trkpt lat="45.92552" lon="6.4922">
        <ele>1496.8000488281</ele>
        <time>2014-02-12T15:01:12.000Z</time>
      </trkpt>
      <trkpt lat="45.92551" lon="6.4922">
        <ele>1497</ele>
        <time>2014-02-12T15:01:13.000Z</time>
      </trkpt>
      <trkpt lat="45.9255" lon="6.4922">
        <ele>1497</ele>
        <time>2014-02-12T15:01:14.000Z</time>
      </trkpt>
      <trkpt lat="45.92549" lon="6.4922">
        <ele>1497.1999511719</ele>
        <time>2014-02-12T15:01:15.000Z</time>
      </trkpt>
      <trkpt lat="45.92548" lon="6.4922">
        <ele>1497.4000244141</ele>
        <time>2014-02-12T15:01:16.000Z</time>
      </trkpt>
      <trkpt lat="45.92548" lon="6.4922">
        <ele>1497.5999755859</ele>
        <time>2014-02-12T15:01:17.000Z</time>
      </trkpt>
      <trkpt lat="45.92547" lon="6.4922">
        <ele>1498</ele>
        <time>2014-02-12T15:01:18.000Z</time>
      </trkpt>
      <trkpt lat="45.92546" lon="6.4922">
        <ele>1498</ele>
        <time>2014-02-12T15:01:19.000Z</time>
      </trkpt>
      <trkpt lat="45.92545" lon="6.4922">
        <ele>1498.1999511719</ele>
        <time>2014-02-12T15:01:20.000Z</time>
      </trkpt>
      <trkpt lat="45.92544" lon="6.49219">
        <ele>1498.1999511719</ele>
        <time>2014-02-12T15:01:21.000Z</time>
      </trkpt>
      <trkpt lat="45.92543" lon="6.49219">
        <ele>1498.4000244141</ele>
        <time>2014-02-12T15:01:22.000Z</time>
      </trkpt>
      <trkpt lat="45.92542" lon="6.49219">
        <ele>1498.5999755859</ele>
        <time>2014-02-12T15:01:23.000Z</time>
      </trkpt>
      <trkpt lat="45.92541" lon="6.49219">
        <ele>1498.8000488281</ele>
        <time>2014-02-12T15:01:24.000Z</time>
      </trkpt>
      <trkpt lat="45.92541" lon="6.49218">
        <ele>1498.5999755859</ele>
        <time>2014-02-12T15:01:25.000Z</time>
      </trkpt>
      <trkpt lat="45.92538" lon="6.49216">
        <ele>1498.5999755859</ele>
        <time>2014-02-12T15:01:28.000Z</time>
      </trkpt>
      <trkpt lat="45.92537" lon="6.49216">
        <ele>1498.5999755859</ele>
        <time>2014-02-12T15:01:29.000Z</time>
      </trkpt>
      <trkpt lat="45.92536" lon="6.49215">
        <ele>1498.5999755859</ele>
        <time>2014-02-12T15:01:30.000Z</time>
      </trkpt>
      <trkpt lat="45.92535" lon="6.49215">
        <ele>1498.5999755859</ele>
        <time>2014-02-12T15:01:31.000Z</time>
      </trkpt>
      <trkpt lat="45.92534" lon="6.49214">
        <ele>1498.5999755859</ele>
        <time>2014-02-12T15:01:32.000Z</time>
      </trkpt>
      <trkpt lat="45.92533" lon="6.49213">
        <ele>1498.8000488281</ele>
        <time>2014-02-12T15:01:33.000Z</time>
      </trkpt>
      <trkpt lat="45.92532" lon="6.49213">
        <ele>1498.8000488281</ele>
        <time>2014-02-12T15:01:34.000Z</time>
      </trkpt>
      <trkpt lat="45.92531" lon="6.49213">
        <ele>1499</ele>
        <time>2014-02-12T15:01:35.000Z</time>
      </trkpt>
      <trkpt lat="45.92531" lon="6.49213">
        <ele>1498.8000488281</ele>
        <time>2014-02-12T15:01:36.000Z</time>
      </trkpt>
      <trkpt lat="45.9253" lon="6.49212">
        <ele>1498.8000488281</ele>
        <time>2014-02-12T15:01:37.000Z</time>
      </trkpt>
      <trkpt lat="45.92529" lon="6.49211">
        <ele>1498.8000488281</ele>
        <time>2014-02-12T15:01:38.000Z</time>
      </trkpt>
      <trkpt lat="45.92528" lon="6.4921">
        <ele>1498.5999755859</ele>
        <time>2014-02-12T15:01:39.000Z</time>
      </trkpt>
      <trkpt lat="45.92528" lon="6.49209">
        <ele>1498.4000244141</ele>
        <time>2014-02-12T15:01:40.000Z</time>
      </trkpt>
      <trkpt lat="45.92527" lon="6.49209">
        <ele>1498.4000244141</ele>
        <time>2014-02-12T15:01:41.000Z</time>
      </trkpt>
      <trkpt lat="45.92526" lon="6.49208">
        <ele>1498.4000244141</ele>
        <time>2014-02-12T15:01:42.000Z</time>
      </trkpt>
      <trkpt lat="45.92525" lon="6.49207">
        <ele>1498.4000244141</ele>
        <time>2014-02-12T15:01:43.000Z</time>
      </trkpt>
      <trkpt lat="45.92524" lon="6.49206">
        <ele>1498.4000244141</ele>
        <time>2014-02-12T15:01:44.000Z</time>
      </trkpt>
      <trkpt lat="45.92523" lon="6.49206">
        <ele>1498.1999511719</ele>
        <time>2014-02-12T15:01:45.000Z</time>
      </trkpt>
      <trkpt lat="45.92523" lon="6.49205">
        <ele>1498.1999511719</ele>
        <time>2014-02-12T15:01:46.000Z</time>
      </trkpt>
      <trkpt lat="45.92522" lon="6.49205">
        <ele>1498.1999511719</ele>
        <time>2014-02-12T15:01:47.000Z</time>
      </trkpt>
      <trkpt lat="45.92521" lon="6.49204">
        <ele>1498.1999511719</ele>
        <time>2014-02-12T15:01:48.000Z</time>
      </trkpt>
      <trkpt lat="45.9252" lon="6.49203">
        <ele>1498</ele>
        <time>2014-02-12T15:01:49.000Z</time>
      </trkpt>
      <trkpt lat="45.92519" lon="6.49202">
        <ele>1498</ele>
        <time>2014-02-12T15:01:50.000Z</time>
      </trkpt>
      <trkpt lat="45.92518" lon="6.49202">
        <ele>1498</ele>
        <time>2014-02-12T15:01:51.000Z</time>
      </trkpt>
      <trkpt lat="45.92517" lon="6.49201">
        <ele>1498.1999511719</ele>
        <time>2014-02-12T15:01:52.000Z</time>
      </trkpt>
      <trkpt lat="45.92516" lon="6.49201">
        <ele>1498.1999511719</ele>
        <time>2014-02-12T15:01:53.000Z</time>
      </trkpt>
      <trkpt lat="45.92515" lon="6.49201">
        <ele>1498.1999511719</ele>
        <time>2014-02-12T15:01:54.000Z</time>
      </trkpt>
      <trkpt lat="45.92514" lon="6.492">
        <ele>1498.1999511719</ele>
        <time>2014-02-12T15:01:55.000Z</time>
      </trkpt>
      <trkpt lat="45.92513" lon="6.49199">
        <ele>1498.1999511719</ele>
        <time>2014-02-12T15:01:56.000Z</time>
      </trkpt>
      <trkpt lat="45.92512" lon="6.49199">
        <ele>1498.4000244141</ele>
        <time>2014-02-12T15:01:57.000Z</time>
      </trkpt>
      <trkpt lat="45.92511" lon="6.49199">
        <ele>1498.4000244141</ele>
        <time>2014-02-12T15:01:58.000Z</time>
      </trkpt>
      <trkpt lat="45.92511" lon="6.49198">
        <ele>1498.4000244141</ele>
        <time>2014-02-12T15:01:59.000Z</time>
      </trkpt>
      <trkpt lat="45.92508" lon="6.49197">
        <ele>1498.5999755859</ele>
        <time>2014-02-12T15:02:01.000Z</time>
      </trkpt>
      <trkpt lat="45.92507" lon="6.49197">
        <ele>1498.5999755859</ele>
        <time>2014-02-12T15:02:02.000Z</time>
      </trkpt>
      <trkpt lat="45.92506" lon="6.49196">
        <ele>1498.8000488281</ele>
        <time>2014-02-12T15:02:03.000Z</time>
      </trkpt>
      <trkpt lat="45.92504" lon="6.49196">
        <ele>1499</ele>
        <time>2014-02-12T15:02:04.000Z</time>
      </trkpt>
      <trkpt lat="45.92503" lon="6.49195">
        <ele>1499</ele>
        <time>2014-02-12T15:02:05.000Z</time>
      </trkpt>
      <trkpt lat="45.92503" lon="6.49195">
        <ele>1499</ele>
        <time>2014-02-12T15:02:06.000Z</time>
      </trkpt>
      <trkpt lat="45.92502" lon="6.49194">
        <ele>1498.8000488281</ele>
        <time>2014-02-12T15:02:07.000Z</time>
      </trkpt>
      <trkpt lat="45.92501" lon="6.49193">
        <ele>1498.8000488281</ele>
        <time>2014-02-12T15:02:08.000Z</time>
      </trkpt>
      <trkpt lat="45.92499" lon="6.49192">
        <ele>1498.8000488281</ele>
        <time>2014-02-12T15:02:10.000Z</time>
      </trkpt>
      <trkpt lat="45.92498" lon="6.49191">
        <ele>1498.5999755859</ele>
        <time>2014-02-12T15:02:11.000Z</time>
      </trkpt>
      <trkpt lat="45.92497" lon="6.4919">
        <ele>1498.4000244141</ele>
        <time>2014-02-12T15:02:12.000Z</time>
      </trkpt>
      <trkpt lat="45.92496" lon="6.49189">
        <ele>1498.4000244141</ele>
        <time>2014-02-12T15:02:13.000Z</time>
      </trkpt>
      <trkpt lat="45.92496" lon="6.49188">
        <ele>1498.4000244141</ele>
        <time>2014-02-12T15:02:14.000Z</time>
      </trkpt>
      <trkpt lat="45.92495" lon="6.49188">
        <ele>1498.4000244141</ele>
        <time>2014-02-12T15:02:15.000Z</time>
      </trkpt>
      <trkpt lat="45.92493" lon="6.49188">
        <ele>1498.5999755859</ele>
        <time>2014-02-12T15:02:16.000Z</time>
      </trkpt>
      <trkpt lat="45.92492" lon="6.49187">
        <ele>1498.5999755859</ele>
        <time>2014-02-12T15:02:17.000Z</time>
      </trkpt>
      <trkpt lat="45.92492" lon="6.49187">
        <ele>1498.5999755859</ele>
        <time>2014-02-12T15:02:18.000Z</time>
      </trkpt>
      <trkpt lat="45.92492" lon="6.49187">
        <ele>1498.5999755859</ele>
        <time>2014-02-12T15:02:19.000Z</time>
      </trkpt>
      <trkpt lat="45.92491" lon="6.49186">
        <ele>1498.5999755859</ele>
        <time>2014-02-12T15:02:20.000Z</time>
      </trkpt>
      <trkpt lat="45.92491" lon="6.49186">
        <ele>1498.5999755859</ele>
        <time>2014-02-12T15:02:21.000Z</time>
      </trkpt>
      <trkpt lat="45.9249" lon="6.49185">
        <ele>1498.4000244141</ele>
        <time>2014-02-12T15:02:22.000Z</time>
      </trkpt>
      <trkpt lat="45.9249" lon="6.49185">
        <ele>1498.4000244141</ele>
        <time>2014-02-12T15:02:23.000Z</time>
      </trkpt>
      <trkpt lat="45.9249" lon="6.49185">
        <ele>1498.4000244141</ele>
        <time>2014-02-12T15:02:24.000Z</time>
      </trkpt>
      <trkpt lat="45.9249" lon="6.49184">
        <ele>1498</ele>
        <time>2014-02-12T15:02:25.000Z</time>
      </trkpt>
      <trkpt lat="45.9249" lon="6.49184">
        <ele>1498</ele>
        <time>2014-02-12T15:02:26.000Z</time>
      </trkpt>
      <trkpt lat="45.9249" lon="6.49184">
        <ele>1498</ele>
        <time>2014-02-12T15:02:27.000Z</time>
      </trkpt>
      <trkpt lat="45.9249" lon="6.49184">
        <ele>1498</ele>
        <time>2014-02-12T15:02:28.000Z</time>
      </trkpt>
      <trkpt lat="45.9249" lon="6.49183">
        <ele>1497.8000488281</ele>
        <time>2014-02-12T15:02:29.000Z</time>
      </trkpt>
      <trkpt lat="45.92489" lon="6.49182">
        <ele>1497.8000488281</ele>
        <time>2014-02-12T15:02:30.000Z</time>
      </trkpt>
      <trkpt lat="45.92488" lon="6.49182">
        <ele>1497.8000488281</ele>
        <time>2014-02-12T15:02:31.000Z</time>
      </trkpt>
      <trkpt lat="45.92487" lon="6.49181">
        <ele>1498</ele>
        <time>2014-02-12T15:02:32.000Z</time>
      </trkpt>
      <trkpt lat="45.92486" lon="6.49181">
        <ele>1498</ele>
        <time>2014-02-12T15:02:33.000Z</time>
      </trkpt>
      <trkpt lat="45.92485" lon="6.4918">
        <ele>1497.8000488281</ele>
        <time>2014-02-12T15:02:34.000Z</time>
      </trkpt>
      <trkpt lat="45.92484" lon="6.49179">
        <ele>1497.8000488281</ele>
        <time>2014-02-12T15:02:35.000Z</time>
      </trkpt>
      <trkpt lat="45.92484" lon="6.49178">
        <ele>1497.5999755859</ele>
        <time>2014-02-12T15:02:36.000Z</time>
      </trkpt>
      <trkpt lat="45.92483" lon="6.49177">
        <ele>1497.4000244141</ele>
        <time>2014-02-12T15:02:37.000Z</time>
      </trkpt>
      <trkpt lat="45.92483" lon="6.49176">
        <ele>1497.1999511719</ele>
        <time>2014-02-12T15:02:38.000Z</time>
      </trkpt>
      <trkpt lat="45.92482" lon="6.49176">
        <ele>1497</ele>
        <time>2014-02-12T15:02:39.000Z</time>
      </trkpt>
      <trkpt lat="45.92481" lon="6.49174">
        <ele>1496.8000488281</ele>
        <time>2014-02-12T15:02:40.000Z</time>
      </trkpt>
      <trkpt lat="45.9248" lon="6.49173">
        <ele>1496.5999755859</ele>
        <time>2014-02-12T15:02:41.000Z</time>
      </trkpt>
      <trkpt lat="45.9248" lon="6.49172">
        <ele>1496.5999755859</ele>
        <time>2014-02-12T15:02:42.000Z</time>
      </trkpt>
      <trkpt lat="45.92479" lon="6.49172">
        <ele>1496.5999755859</ele>
        <time>2014-02-12T15:02:43.000Z</time>
      </trkpt>
      <trkpt lat="45.92479" lon="6.49172">
        <ele>1496.5999755859</ele>
        <time>2014-02-12T15:02:44.000Z</time>
      </trkpt>
      <trkpt lat="45.92478" lon="6.49171">
        <ele>1496.5999755859</ele>
        <time>2014-02-12T15:02:45.000Z</time>
      </trkpt>
      <trkpt lat="45.92477" lon="6.4917">
        <ele>1496.4000244141</ele>
        <time>2014-02-12T15:02:46.000Z</time>
      </trkpt>
      <trkpt lat="45.92476" lon="6.49169">
        <ele>1496.1999511719</ele>
        <time>2014-02-12T15:02:47.000Z</time>
      </trkpt>
      <trkpt lat="45.92476" lon="6.49168">
        <ele>1496</ele>
        <time>2014-02-12T15:02:48.000Z</time>
      </trkpt>
      <trkpt lat="45.92475" lon="6.49167">
        <ele>1495.8000488281</ele>
        <time>2014-02-12T15:02:49.000Z</time>
      </trkpt>
      <trkpt lat="45.92475" lon="6.49166">
        <ele>1495.5999755859</ele>
        <time>2014-02-12T15:02:50.000Z</time>
      </trkpt>
      <trkpt lat="45.92475" lon="6.49165">
        <ele>1495.4000244141</ele>
        <time>2014-02-12T15:02:51.000Z</time>
      </trkpt>
      <trkpt lat="45.92474" lon="6.49164">
        <ele>1495.1999511719</ele>
        <time>2014-02-12T15:02:52.000Z</time>
      </trkpt>
      <trkpt lat="45.92474" lon="6.49164">
        <ele>1495.1999511719</ele>
        <time>2014-02-12T15:02:53.000Z</time>
      </trkpt>
      <trkpt lat="45.92473" lon="6.49163">
        <ele>1495</ele>
        <time>2014-02-12T15:02:54.000Z</time>
      </trkpt>
      <trkpt lat="45.92473" lon="6.49162">
        <ele>1494.8000488281</ele>
        <time>2014-02-12T15:02:55.000Z</time>
      </trkpt>
      <trkpt lat="45.92473" lon="6.49161">
        <ele>1494.4000244141</ele>
        <time>2014-02-12T15:02:56.000Z</time>
      </trkpt>
      <trkpt lat="45.92473" lon="6.4916">
        <ele>1494.1999511719</ele>
        <time>2014-02-12T15:02:57.000Z</time>
      </trkpt>
      <trkpt lat="45.92472" lon="6.49159">
        <ele>1493.8000488281</ele>
        <time>2014-02-12T15:02:58.000Z</time>
      </trkpt>
      <trkpt lat="45.92472" lon="6.49158">
        <ele>1493.4000244141</ele>
        <time>2014-02-12T15:02:59.000Z</time>
      </trkpt>
      <trkpt lat="45.92471" lon="6.49157">
        <ele>1493.1999511719</ele>
        <time>2014-02-12T15:03:00.000Z</time>
      </trkpt>
      <trkpt lat="45.92471" lon="6.49157">
        <ele>1493</ele>
        <time>2014-02-12T15:03:01.000Z</time>
      </trkpt>
      <trkpt lat="45.9247" lon="6.49156">
        <ele>1492.8000488281</ele>
        <time>2014-02-12T15:03:02.000Z</time>
      </trkpt>
      <trkpt lat="45.92468" lon="6.49154">
        <ele>1492.4000244141</ele>
        <time>2014-02-12T15:03:04.000Z</time>
      </trkpt>
      <trkpt lat="45.92468" lon="6.49153">
        <ele>1492</ele>
        <time>2014-02-12T15:03:05.000Z</time>
      </trkpt>
      <trkpt lat="45.92467" lon="6.49152">
        <ele>1491.8000488281</ele>
        <time>2014-02-12T15:03:06.000Z</time>
      </trkpt>
      <trkpt lat="45.92466" lon="6.49151">
        <ele>1491.4000244141</ele>
        <time>2014-02-12T15:03:07.000Z</time>
      </trkpt>
      <trkpt lat="45.92466" lon="6.4915">
        <ele>1491</ele>
        <time>2014-02-12T15:03:08.000Z</time>
      </trkpt>
      <trkpt lat="45.92465" lon="6.49148">
        <ele>1490.8000488281</ele>
        <time>2014-02-12T15:03:09.000Z</time>
      </trkpt>
      <trkpt lat="45.92464" lon="6.49148">
        <ele>1490.8000488281</ele>
        <time>2014-02-12T15:03:10.000Z</time>
      </trkpt>
      <trkpt lat="45.92464" lon="6.49147">
        <ele>1490.5999755859</ele>
        <time>2014-02-12T15:03:11.000Z</time>
      </trkpt>
      <trkpt lat="45.92463" lon="6.49145">
        <ele>1490.4000244141</ele>
        <time>2014-02-12T15:03:12.000Z</time>
      </trkpt>
      <trkpt lat="45.92462" lon="6.49144">
        <ele>1490.1999511719</ele>
        <time>2014-02-12T15:03:14.000Z</time>
      </trkpt>
      <trkpt lat="45.92462" lon="6.49143">
        <ele>1490.1999511719</ele>
        <time>2014-02-12T15:03:15.000Z</time>
      </trkpt>
      <trkpt lat="45.92462" lon="6.49143">
        <ele>1490.1999511719</ele>
        <time>2014-02-12T15:03:16.000Z</time>
      </trkpt>
      <trkpt lat="45.92461" lon="6.49144">
        <ele>1490.1999511719</ele>
        <time>2014-02-12T15:03:17.000Z</time>
      </trkpt>
      <trkpt lat="45.92461" lon="6.49144">
        <ele>1490.1999511719</ele>
        <time>2014-02-12T15:03:18.000Z</time>
      </trkpt>
      <trkpt lat="45.92461" lon="6.49144">
        <ele>1490.1999511719</ele>
        <time>2014-02-12T15:03:19.000Z</time>
      </trkpt>
      <trkpt lat="45.92461" lon="6.49144">
        <ele>1490.1999511719</ele>
        <time>2014-02-12T15:03:20.000Z</time>
      </trkpt>
      <trkpt lat="45.92461" lon="6.49144">
        <ele>1490.1999511719</ele>
        <time>2014-02-12T15:03:21.000Z</time>
      </trkpt>
      <trkpt lat="45.92461" lon="6.49144">
        <ele>1490.1999511719</ele>
        <time>2014-02-12T15:03:22.000Z</time>
      </trkpt>
      <trkpt lat="45.92461" lon="6.49144">
        <ele>1490.1999511719</ele>
        <time>2014-02-12T15:03:23.000Z</time>
      </trkpt>
      <trkpt lat="45.92461" lon="6.49144">
        <ele>1490.1999511719</ele>
        <time>2014-02-12T15:03:24.000Z</time>
      </trkpt>
      <trkpt lat="45.92461" lon="6.49144">
        <ele>1490.1999511719</ele>
        <time>2014-02-12T15:03:25.000Z</time>
      </trkpt>
      <trkpt lat="45.92461" lon="6.49144">
        <ele>1490.1999511719</ele>
        <time>2014-02-12T15:03:26.000Z</time>
      </trkpt>
      <trkpt lat="45.92461" lon="6.49144">
        <ele>1490.1999511719</ele>
        <time>2014-02-12T15:03:27.000Z</time>
      </trkpt>
      <trkpt lat="45.92461" lon="6.49144">
        <ele>1490.1999511719</ele>
        <time>2014-02-12T15:03:28.000Z</time>
      </trkpt>
      <trkpt lat="45.92461" lon="6.49144">
        <ele>1490.1999511719</ele>
        <time>2014-02-12T15:03:29.000Z</time>
      </trkpt>
      <trkpt lat="45.92461" lon="6.49144">
        <ele>1490.1999511719</ele>
        <time>2014-02-12T15:03:30.000Z</time>
      </trkpt>
      <trkpt lat="45.92461" lon="6.49144">
        <ele>1490.1999511719</ele>
        <time>2014-02-12T15:03:31.000Z</time>
      </trkpt>
      <trkpt lat="45.92461" lon="6.49144">
        <ele>1490.1999511719</ele>
        <time>2014-02-12T15:03:32.000Z</time>
      </trkpt>
      <trkpt lat="45.92461" lon="6.49144">
        <ele>1490.1999511719</ele>
        <time>2014-02-12T15:03:33.000Z</time>
      </trkpt>
      <trkpt lat="45.92461" lon="6.49144">
        <ele>1490.1999511719</ele>
        <time>2014-02-12T15:03:34.000Z</time>
      </trkpt>
      <trkpt lat="45.92461" lon="6.49144">
        <ele>1490.1999511719</ele>
        <time>2014-02-12T15:03:35.000Z</time>
      </trkpt>
      <trkpt lat="45.92461" lon="6.49144">
        <ele>1490.1999511719</ele>
        <time>2014-02-12T15:03:36.000Z</time>
      </trkpt>
      <trkpt lat="45.92461" lon="6.49144">
        <ele>1490.1999511719</ele>
        <time>2014-02-12T15:03:37.000Z</time>
      </trkpt>
      <trkpt lat="45.92461" lon="6.49144">
        <ele>1490.1999511719</ele>
        <time>2014-02-12T15:03:38.000Z</time>
      </trkpt>
      <trkpt lat="45.92461" lon="6.49144">
        <ele>1490.1999511719</ele>
        <time>2014-02-12T15:03:39.000Z</time>
      </trkpt>
      <trkpt lat="45.92461" lon="6.49144">
        <ele>1490.1999511719</ele>
        <time>2014-02-12T15:03:40.000Z</time>
      </trkpt>
      <trkpt lat="45.92461" lon="6.49144">
        <ele>1490.1999511719</ele>
        <time>2014-02-12T15:03:41.000Z</time>
      </trkpt>
      <trkpt lat="45.92461" lon="6.49144">
        <ele>1490.1999511719</ele>
        <time>2014-02-12T15:03:42.000Z</time>
      </trkpt>
      <trkpt lat="45.92461" lon="6.49144">
        <ele>1490.1999511719</ele>
        <time>2014-02-12T15:03:43.000Z</time>
      </trkpt>
      <trkpt lat="45.92461" lon="6.49144">
        <ele>1490.1999511719</ele>
        <time>2014-02-12T15:03:44.000Z</time>
      </trkpt>
      <trkpt lat="45.92461" lon="6.49144">
        <ele>1490.1999511719</ele>
        <time>2014-02-12T15:03:45.000Z</time>
      </trkpt>
      <trkpt lat="45.92461" lon="6.49144">
        <ele>1490.1999511719</ele>
        <time>2014-02-12T15:03:46.000Z</time>
      </trkpt>
      <trkpt lat="45.92461" lon="6.49144">
        <ele>1490.1999511719</ele>
        <time>2014-02-12T15:03:47.000Z</time>
      </trkpt>
      <trkpt lat="45.92461" lon="6.49144">
        <ele>1490.1999511719</ele>
        <time>2014-02-12T15:03:48.000Z</time>
      </trkpt>
      <trkpt lat="45.92461" lon="6.49144">
        <ele>1490.1999511719</ele>
        <time>2014-02-12T15:03:49.000Z</time>
      </trkpt>
      <trkpt lat="45.92461" lon="6.49144">
        <ele>1490.1999511719</ele>
        <time>2014-02-12T15:03:50.000Z</time>
      </trkpt>
      <trkpt lat="45.92461" lon="6.49144">
        <ele>1490.1999511719</ele>
        <time>2014-02-12T15:03:51.000Z</time>
      </trkpt>
      <trkpt lat="45.92461" lon="6.49144">
        <ele>1490.1999511719</ele>
        <time>2014-02-12T15:03:52.000Z</time>
      </trkpt>
      <trkpt lat="45.92461" lon="6.49144">
        <ele>1490.1999511719</ele>
        <time>2014-02-12T15:03:53.000Z</time>
      </trkpt>
      <trkpt lat="45.92461" lon="6.49144">
        <ele>1490.1999511719</ele>
        <time>2014-02-12T15:03:54.000Z</time>
      </trkpt>
      <trkpt lat="45.92461" lon="6.49144">
        <ele>1490.1999511719</ele>
        <time>2014-02-12T15:03:55.000Z</time>
      </trkpt>
      <trkpt lat="45.92461" lon="6.49144">
        <ele>1490.1999511719</ele>
        <time>2014-02-12T15:03:56.000Z</time>
      </trkpt>
      <trkpt lat="45.92462" lon="6.49143">
        <ele>1490.1999511719</ele>
        <time>2014-02-12T15:03:57.000Z</time>
      </trkpt>
      <trkpt lat="45.92462" lon="6.49143">
        <ele>1490.1999511719</ele>
        <time>2014-02-12T15:03:58.000Z</time>
      </trkpt>
      <trkpt lat="45.92462" lon="6.49143">
        <ele>1490.1999511719</ele>
        <time>2014-02-12T15:04:00.000Z</time>
      </trkpt>
      <trkpt lat="45.92462" lon="6.49143">
        <ele>1490.1999511719</ele>
        <time>2014-02-12T15:04:01.000Z</time>
      </trkpt>
      <trkpt lat="45.92462" lon="6.49143">
        <ele>1490.1999511719</ele>
        <time>2014-02-12T15:04:02.000Z</time>
      </trkpt>
      <trkpt lat="45.92462" lon="6.49143">
        <ele>1490.1999511719</ele>
        <time>2014-02-12T15:04:03.000Z</time>
      </trkpt>
      <trkpt lat="45.92462" lon="6.49143">
        <ele>1490.1999511719</ele>
        <time>2014-02-12T15:04:04.000Z</time>
      </trkpt>
      <trkpt lat="45.92462" lon="6.49143">
        <ele>1490.1999511719</ele>
        <time>2014-02-12T15:04:05.000Z</time>
      </trkpt>
      <trkpt lat="45.92462" lon="6.49143">
        <ele>1490.1999511719</ele>
        <time>2014-02-12T15:04:06.000Z</time>
      </trkpt>
      <trkpt lat="45.92462" lon="6.49143">
        <ele>1490.1999511719</ele>
        <time>2014-02-12T15:04:07.000Z</time>
      </trkpt>
      <trkpt lat="45.92462" lon="6.49143">
        <ele>1490.1999511719</ele>
        <time>2014-02-12T15:04:08.000Z</time>
      </trkpt>
      <trkpt lat="45.92462" lon="6.49143">
        <ele>1490.1999511719</ele>
        <time>2014-02-12T15:04:09.000Z</time>
      </trkpt>
      <trkpt lat="45.92462" lon="6.49143">
        <ele>1490.1999511719</ele>
        <time>2014-02-12T15:04:10.000Z</time>
      </trkpt>
      <trkpt lat="45.92462" lon="6.49143">
        <ele>1490.1999511719</ele>
        <time>2014-02-12T15:04:12.000Z</time>
      </trkpt>
      <trkpt lat="45.92462" lon="6.49143">
        <ele>1490.1999511719</ele>
        <time>2014-02-12T15:04:13.000Z</time>
      </trkpt>
      <trkpt lat="45.92462" lon="6.49143">
        <ele>1490.1999511719</ele>
        <time>2014-02-12T15:04:14.000Z</time>
      </trkpt>
      <trkpt lat="45.92462" lon="6.49143">
        <ele>1490.1999511719</ele>
        <time>2014-02-12T15:04:15.000Z</time>
      </trkpt>
      <trkpt lat="45.92462" lon="6.49143">
        <ele>1490.1999511719</ele>
        <time>2014-02-12T15:04:16.000Z</time>
      </trkpt>
      <trkpt lat="45.92462" lon="6.49143">
        <ele>1490.1999511719</ele>
        <time>2014-02-12T15:04:17.000Z</time>
      </trkpt>
      <trkpt lat="45.92462" lon="6.49143">
        <ele>1490.1999511719</ele>
        <time>2014-02-12T15:04:18.000Z</time>
      </trkpt>
      <trkpt lat="45.92462" lon="6.49143">
        <ele>1490.1999511719</ele>
        <time>2014-02-12T15:04:19.000Z</time>
      </trkpt>
      <trkpt lat="45.92462" lon="6.49143">
        <ele>1490.1999511719</ele>
        <time>2014-02-12T15:04:20.000Z</time>
      </trkpt>
      <trkpt lat="45.92462" lon="6.49143">
        <ele>1490.1999511719</ele>
        <time>2014-02-12T15:04:21.000Z</time>
      </trkpt>
      <trkpt lat="45.92462" lon="6.49143">
        <ele>1490.1999511719</ele>
        <time>2014-02-12T15:04:22.000Z</time>
      </trkpt>
      <trkpt lat="45.92462" lon="6.49143">
        <ele>1490.1999511719</ele>
        <time>2014-02-12T15:04:23.000Z</time>
      </trkpt>
      <trkpt lat="45.92462" lon="6.49143">
        <ele>1490.1999511719</ele>
        <time>2014-02-12T15:04:24.000Z</time>
      </trkpt>
      <trkpt lat="45.92462" lon="6.49143">
        <ele>1490.1999511719</ele>
        <time>2014-02-12T15:04:25.000Z</time>
      </trkpt>
      <trkpt lat="45.92462" lon="6.49143">
        <ele>1490.1999511719</ele>
        <time>2014-02-12T15:04:26.000Z</time>
      </trkpt>
      <trkpt lat="45.92462" lon="6.49143">
        <ele>1490.1999511719</ele>
        <time>2014-02-12T15:04:28.000Z</time>
      </trkpt>
      <trkpt lat="45.92462" lon="6.49143">
        <ele>1490.1999511719</ele>
        <time>2014-02-12T15:04:30.000Z</time>
      </trkpt>
      <trkpt lat="45.92462" lon="6.49143">
        <ele>1490.1999511719</ele>
        <time>2014-02-12T15:04:31.000Z</time>
      </trkpt>
      <trkpt lat="45.92462" lon="6.49143">
        <ele>1490.1999511719</ele>
        <time>2014-02-12T15:04:32.000Z</time>
      </trkpt>
      <trkpt lat="45.92462" lon="6.49143">
        <ele>1490.1999511719</ele>
        <time>2014-02-12T15:04:33.000Z</time>
      </trkpt>
      <trkpt lat="45.92462" lon="6.49143">
        <ele>1490.1999511719</ele>
        <time>2014-02-12T15:04:34.000Z</time>
      </trkpt>
      <trkpt lat="45.92462" lon="6.49143">
        <ele>1490.1999511719</ele>
        <time>2014-02-12T15:04:35.000Z</time>
      </trkpt>
      <trkpt lat="45.92462" lon="6.49143">
        <ele>1490.1999511719</ele>
        <time>2014-02-12T15:04:36.000Z</time>
      </trkpt>
      <trkpt lat="45.92462" lon="6.49143">
        <ele>1490.1999511719</ele>
        <time>2014-02-12T15:04:37.000Z</time>
      </trkpt>
      <trkpt lat="45.92462" lon="6.49143">
        <ele>1490.1999511719</ele>
        <time>2014-02-12T15:04:38.000Z</time>
      </trkpt>
      <trkpt lat="45.92462" lon="6.49143">
        <ele>1490.1999511719</ele>
        <time>2014-02-12T15:04:39.000Z</time>
      </trkpt>
      <trkpt lat="45.92462" lon="6.49143">
        <ele>1490.1999511719</ele>
        <time>2014-02-12T15:04:40.000Z</time>
      </trkpt>
      <trkpt lat="45.92462" lon="6.49143">
        <ele>1490.1999511719</ele>
        <time>2014-02-12T15:04:41.000Z</time>
      </trkpt>
      <trkpt lat="45.92462" lon="6.49143">
        <ele>1490.1999511719</ele>
        <time>2014-02-12T15:04:42.000Z</time>
      </trkpt>
      <trkpt lat="45.92462" lon="6.49143">
        <ele>1490.1999511719</ele>
        <time>2014-02-12T15:04:43.000Z</time>
      </trkpt>
      <trkpt lat="45.92462" lon="6.49143">
        <ele>1490.1999511719</ele>
        <time>2014-02-12T15:04:44.000Z</time>
      </trkpt>
      <trkpt lat="45.92462" lon="6.49143">
        <ele>1490.1999511719</ele>
        <time>2014-02-12T15:04:45.000Z</time>
      </trkpt>
      <trkpt lat="45.92462" lon="6.49143">
        <ele>1490.1999511719</ele>
        <time>2014-02-12T15:04:46.000Z</time>
      </trkpt>
      <trkpt lat="45.92462" lon="6.49143">
        <ele>1490.1999511719</ele>
        <time>2014-02-12T15:04:47.000Z</time>
      </trkpt>
      <trkpt lat="45.92462" lon="6.49143">
        <ele>1490.1999511719</ele>
        <time>2014-02-12T15:04:48.000Z</time>
      </trkpt>
      <trkpt lat="45.92462" lon="6.49142">
        <ele>1490</ele>
        <time>2014-02-12T15:04:49.000Z</time>
      </trkpt>
      <trkpt lat="45.92462" lon="6.49142">
        <ele>1490</ele>
        <time>2014-02-12T15:04:50.000Z</time>
      </trkpt>
      <trkpt lat="45.92462" lon="6.49142">
        <ele>1490</ele>
        <time>2014-02-12T15:04:51.000Z</time>
      </trkpt>
      <trkpt lat="45.92462" lon="6.49142">
        <ele>1490</ele>
        <time>2014-02-12T15:04:52.000Z</time>
      </trkpt>
      <trkpt lat="45.92462" lon="6.49142">
        <ele>1490</ele>
        <time>2014-02-12T15:04:53.000Z</time>
      </trkpt>
      <trkpt lat="45.92462" lon="6.49142">
        <ele>1490</ele>
        <time>2014-02-12T15:04:54.000Z</time>
      </trkpt>
      <trkpt lat="45.92462" lon="6.49142">
        <ele>1490</ele>
        <time>2014-02-12T15:04:55.000Z</time>
      </trkpt>
      <trkpt lat="45.92462" lon="6.49142">
        <ele>1490</ele>
        <time>2014-02-12T15:04:56.000Z</time>
      </trkpt>
      <trkpt lat="45.92462" lon="6.49142">
        <ele>1490</ele>
        <time>2014-02-12T15:04:58.000Z</time>
      </trkpt>
      <trkpt lat="45.92462" lon="6.49142">
        <ele>1490</ele>
        <time>2014-02-12T15:04:59.000Z</time>
      </trkpt>
      <trkpt lat="45.92462" lon="6.49142">
        <ele>1490</ele>
        <time>2014-02-12T15:05:00.000Z</time>
      </trkpt>
      <trkpt lat="45.92462" lon="6.49142">
        <ele>1490</ele>
        <time>2014-02-12T15:05:01.000Z</time>
      </trkpt>
      <trkpt lat="45.92462" lon="6.49142">
        <ele>1490</ele>
        <time>2014-02-12T15:05:02.000Z</time>
      </trkpt>
      <trkpt lat="45.92462" lon="6.49142">
        <ele>1490</ele>
        <time>2014-02-12T15:05:04.000Z</time>
      </trkpt>
      <trkpt lat="45.92462" lon="6.49142">
        <ele>1490</ele>
        <time>2014-02-12T15:05:05.000Z</time>
      </trkpt>
      <trkpt lat="45.92462" lon="6.49142">
        <ele>1490</ele>
        <time>2014-02-12T15:05:06.000Z</time>
      </trkpt>
      <trkpt lat="45.92462" lon="6.49142">
        <ele>1490</ele>
        <time>2014-02-12T15:05:07.000Z</time>
      </trkpt>
      <trkpt lat="45.92462" lon="6.49142">
        <ele>1490</ele>
        <time>2014-02-12T15:05:08.000Z</time>
      </trkpt>
      <trkpt lat="45.92462" lon="6.49142">
        <ele>1490</ele>
        <time>2014-02-12T15:05:09.000Z</time>
      </trkpt>
      <trkpt lat="45.92462" lon="6.49142">
        <ele>1490</ele>
        <time>2014-02-12T15:05:12.000Z</time>
      </trkpt>
      <trkpt lat="45.92462" lon="6.49142">
        <ele>1490</ele>
        <time>2014-02-12T15:05:13.000Z</time>
      </trkpt>
      <trkpt lat="45.92462" lon="6.49142">
        <ele>1490</ele>
        <time>2014-02-12T15:05:14.000Z</time>
      </trkpt>
      <trkpt lat="45.92462" lon="6.49142">
        <ele>1490</ele>
        <time>2014-02-12T15:05:15.000Z</time>
      </trkpt>
      <trkpt lat="45.92462" lon="6.49142">
        <ele>1490</ele>
        <time>2014-02-12T15:05:16.000Z</time>
      </trkpt>
      <trkpt lat="45.92462" lon="6.49142">
        <ele>1490</ele>
        <time>2014-02-12T15:05:18.000Z</time>
      </trkpt>
      <trkpt lat="45.92462" lon="6.49142">
        <ele>1490</ele>
        <time>2014-02-12T15:05:20.000Z</time>
      </trkpt>
      <trkpt lat="45.92462" lon="6.49142">
        <ele>1490</ele>
        <time>2014-02-12T15:05:24.000Z</time>
      </trkpt>
      <trkpt lat="45.92462" lon="6.49142">
        <ele>1490</ele>
        <time>2014-02-12T15:05:27.000Z</time>
      </trkpt>
      <trkpt lat="45.92462" lon="6.49142">
        <ele>1490</ele>
        <time>2014-02-12T15:05:28.000Z</time>
      </trkpt>
      <trkpt lat="45.92462" lon="6.49142">
        <ele>1490</ele>
        <time>2014-02-12T15:05:31.000Z</time>
      </trkpt>
      <trkpt lat="45.92462" lon="6.49142">
        <ele>1490</ele>
        <time>2014-02-12T15:05:32.000Z</time>
      </trkpt>
      <trkpt lat="45.92462" lon="6.49142">
        <ele>1490</ele>
        <time>2014-02-12T15:05:33.000Z</time>
      </trkpt>
      <trkpt lat="45.92462" lon="6.49142">
        <ele>1490</ele>
        <time>2014-02-12T15:05:34.000Z</time>
      </trkpt>
      <trkpt lat="45.92462" lon="6.49142">
        <ele>1490</ele>
        <time>2014-02-12T15:05:35.000Z</time>
      </trkpt>
      <trkpt lat="45.92462" lon="6.49142">
        <ele>1490</ele>
        <time>2014-02-12T15:05:36.000Z</time>
      </trkpt>
      <trkpt lat="45.92459" lon="6.49137">
        <ele>1489.4000244141</ele>
        <time>2014-02-12T15:05:44.000Z</time>
      </trkpt>
      <trkpt lat="45.92458" lon="6.49135">
        <ele>1489</ele>
        <time>2014-02-12T15:05:45.000Z</time>
      </trkpt>
      <trkpt lat="45.92457" lon="6.49133">
        <ele>1488.8000488281</ele>
        <time>2014-02-12T15:05:46.000Z</time>
      </trkpt>
      <trkpt lat="45.92456" lon="6.49131">
        <ele>1488.4000244141</ele>
        <time>2014-02-12T15:05:47.000Z</time>
      </trkpt>
      <trkpt lat="45.92455" lon="6.4913">
        <ele>1488.1999511719</ele>
        <time>2014-02-12T15:05:48.000Z</time>
      </trkpt>
      <trkpt lat="45.92455" lon="6.49129">
        <ele>1487.8000488281</ele>
        <time>2014-02-12T15:05:49.000Z</time>
      </trkpt>
      <trkpt lat="45.92455" lon="6.49129">
        <ele>1487.8000488281</ele>
        <time>2014-02-12T15:05:50.000Z</time>
      </trkpt>
      <trkpt lat="45.92455" lon="6.49129">
        <ele>1487.8000488281</ele>
        <time>2014-02-12T15:05:51.000Z</time>
      </trkpt>
      <trkpt lat="45.92455" lon="6.49129">
        <ele>1487.8000488281</ele>
        <time>2014-02-12T15:05:52.000Z</time>
      </trkpt>
      <trkpt lat="45.92454" lon="6.49128">
        <ele>1487.8000488281</ele>
        <time>2014-02-12T15:05:53.000Z</time>
      </trkpt>
      <trkpt lat="45.92452" lon="6.49127">
        <ele>1487.8000488281</ele>
        <time>2014-02-12T15:05:54.000Z</time>
      </trkpt>
      <trkpt lat="45.92451" lon="6.49126">
        <ele>1487.8000488281</ele>
        <time>2014-02-12T15:05:55.000Z</time>
      </trkpt>
      <trkpt lat="45.92449" lon="6.49125">
        <ele>1487.8000488281</ele>
        <time>2014-02-12T15:05:56.000Z</time>
      </trkpt>
      <trkpt lat="45.92447" lon="6.49124">
        <ele>1487.5999755859</ele>
        <time>2014-02-12T15:05:57.000Z</time>
      </trkpt>
      <trkpt lat="45.92445" lon="6.49123">
        <ele>1487.5999755859</ele>
        <time>2014-02-12T15:05:58.000Z</time>
      </trkpt>
      <trkpt lat="45.92442" lon="6.49123">
        <ele>1487.4000244141</ele>
        <time>2014-02-12T15:05:59.000Z</time>
      </trkpt>
      <trkpt lat="45.92439" lon="6.49121">
        <ele>1487.1999511719</ele>
        <time>2014-02-12T15:06:00.000Z</time>
      </trkpt>
      <trkpt lat="45.92436" lon="6.4912">
        <ele>1487.1999511719</ele>
        <time>2014-02-12T15:06:01.000Z</time>
      </trkpt>
      <trkpt lat="45.92431" lon="6.49118">
        <ele>1487</ele>
        <time>2014-02-12T15:06:02.000Z</time>
      </trkpt>
      <trkpt lat="45.92427" lon="6.49116">
        <ele>1486.5999755859</ele>
        <time>2014-02-12T15:06:03.000Z</time>
      </trkpt>
      <trkpt lat="45.92421" lon="6.49113">
        <ele>1486.4000244141</ele>
        <time>2014-02-12T15:06:04.000Z</time>
      </trkpt>
      <trkpt lat="45.92415" lon="6.49111">
        <ele>1486.1999511719</ele>
        <time>2014-02-12T15:06:05.000Z</time>
      </trkpt>
      <trkpt lat="45.92408" lon="6.49108">
        <ele>1485.8000488281</ele>
        <time>2014-02-12T15:06:06.000Z</time>
      </trkpt>
      <trkpt lat="45.92401" lon="6.49103">
        <ele>1485.1999511719</ele>
        <time>2014-02-12T15:06:07.000Z</time>
      </trkpt>
      <trkpt lat="45.92393" lon="6.49099">
        <ele>1484.5999755859</ele>
        <time>2014-02-12T15:06:08.000Z</time>
      </trkpt>
      <trkpt lat="45.92385" lon="6.49093">
        <ele>1483.5999755859</ele>
        <time>2014-02-12T15:06:09.000Z</time>
      </trkpt>
      <trkpt lat="45.92377" lon="6.49086">
        <ele>1482.4000244141</ele>
        <time>2014-02-12T15:06:10.000Z</time>
      </trkpt>
      <trkpt lat="45.92368" lon="6.49079">
        <ele>1481.1999511719</ele>
        <time>2014-02-12T15:06:11.000Z</time>
      </trkpt>
      <trkpt lat="45.9236" lon="6.49072">
        <ele>1480</ele>
        <time>2014-02-12T15:06:12.000Z</time>
      </trkpt>
      <trkpt lat="45.92351" lon="6.49066">
        <ele>1479</ele>
        <time>2014-02-12T15:06:13.000Z</time>
      </trkpt>
      <trkpt lat="45.92342" lon="6.49062">
        <ele>1477.8000488281</ele>
        <time>2014-02-12T15:06:14.000Z</time>
      </trkpt>
      <trkpt lat="45.92333" lon="6.49057">
        <ele>1476.5999755859</ele>
        <time>2014-02-12T15:06:15.000Z</time>
      </trkpt>
      <trkpt lat="45.92325" lon="6.49051">
        <ele>1475.1999511719</ele>
        <time>2014-02-12T15:06:16.000Z</time>
      </trkpt>
      <trkpt lat="45.92317" lon="6.49044">
        <ele>1473.5999755859</ele>
        <time>2014-02-12T15:06:17.000Z</time>
      </trkpt>
      <trkpt lat="45.92309" lon="6.49036">
        <ele>1471.8000488281</ele>
        <time>2014-02-12T15:06:18.000Z</time>
      </trkpt>
      <trkpt lat="45.92301" lon="6.49028">
        <ele>1470.1999511719</ele>
        <time>2014-02-12T15:06:19.000Z</time>
      </trkpt>
      <trkpt lat="45.92293" lon="6.4902">
        <ele>1468.5999755859</ele>
        <time>2014-02-12T15:06:20.000Z</time>
      </trkpt>
      <trkpt lat="45.92285" lon="6.49011">
        <ele>1467</ele>
        <time>2014-02-12T15:06:21.000Z</time>
      </trkpt>
      <trkpt lat="45.92276" lon="6.49001">
        <ele>1465</ele>
        <time>2014-02-12T15:06:22.000Z</time>
      </trkpt>
      <trkpt lat="45.92267" lon="6.48991">
        <ele>1463</ele>
        <time>2014-02-12T15:06:23.000Z</time>
      </trkpt>
      <trkpt lat="45.92258" lon="6.48981">
        <ele>1461.1999511719</ele>
        <time>2014-02-12T15:06:24.000Z</time>
      </trkpt>
      <trkpt lat="45.9225" lon="6.48972">
        <ele>1459.8000488281</ele>
        <time>2014-02-12T15:06:25.000Z</time>
      </trkpt>
      <trkpt lat="45.92242" lon="6.48963">
        <ele>1458.4000244141</ele>
        <time>2014-02-12T15:06:26.000Z</time>
      </trkpt>
      <trkpt lat="45.92235" lon="6.48956">
        <ele>1457.1999511719</ele>
        <time>2014-02-12T15:06:27.000Z</time>
      </trkpt>
      <trkpt lat="45.92228" lon="6.48948">
        <ele>1456</ele>
        <time>2014-02-12T15:06:28.000Z</time>
      </trkpt>
      <trkpt lat="45.92221" lon="6.4894">
        <ele>1455</ele>
        <time>2014-02-12T15:06:29.000Z</time>
      </trkpt>
      <trkpt lat="45.92215" lon="6.48933">
        <ele>1454.4000244141</ele>
        <time>2014-02-12T15:06:30.000Z</time>
      </trkpt>
      <trkpt lat="45.92209" lon="6.48925">
        <ele>1453.8000488281</ele>
        <time>2014-02-12T15:06:31.000Z</time>
      </trkpt>
      <trkpt lat="45.92203" lon="6.48918">
        <ele>1453</ele>
        <time>2014-02-12T15:06:32.000Z</time>
      </trkpt>
      <trkpt lat="45.92197" lon="6.48911">
        <ele>1452.4000244141</ele>
        <time>2014-02-12T15:06:33.000Z</time>
      </trkpt>
      <trkpt lat="45.92191" lon="6.48904">
        <ele>1451.8000488281</ele>
        <time>2014-02-12T15:06:34.000Z</time>
      </trkpt>
      <trkpt lat="45.92186" lon="6.48898">
        <ele>1451.5999755859</ele>
        <time>2014-02-12T15:06:35.000Z</time>
      </trkpt>
      <trkpt lat="45.9218" lon="6.48893">
        <ele>1452.1999511719</ele>
        <time>2014-02-12T15:06:36.000Z</time>
      </trkpt>
      <trkpt lat="45.92175" lon="6.48888">
        <ele>1452.8000488281</ele>
        <time>2014-02-12T15:06:37.000Z</time>
      </trkpt>
      <trkpt lat="45.92171" lon="6.48884">
        <ele>1453.1999511719</ele>
        <time>2014-02-12T15:06:38.000Z</time>
      </trkpt>
      <trkpt lat="45.92167" lon="6.4888">
        <ele>1453.8000488281</ele>
        <time>2014-02-12T15:06:39.000Z</time>
      </trkpt>
      <trkpt lat="45.92163" lon="6.48877">
        <ele>1454.1999511719</ele>
        <time>2014-02-12T15:06:40.000Z</time>
      </trkpt>
      <trkpt lat="45.9216" lon="6.48872">
        <ele>1454.4000244141</ele>
        <time>2014-02-12T15:06:41.000Z</time>
      </trkpt>
      <trkpt lat="45.92158" lon="6.48868">
        <ele>1454.8000488281</ele>
        <time>2014-02-12T15:06:42.000Z</time>
      </trkpt>
      <trkpt lat="45.92157" lon="6.48863">
        <ele>1454.8000488281</ele>
        <time>2014-02-12T15:06:43.000Z</time>
      </trkpt>
      <trkpt lat="45.92156" lon="6.48858">
        <ele>1455</ele>
        <time>2014-02-12T15:06:44.000Z</time>
      </trkpt>
      <trkpt lat="45.92156" lon="6.48853">
        <ele>1455</ele>
        <time>2014-02-12T15:06:45.000Z</time>
      </trkpt>
      <trkpt lat="45.92156" lon="6.48849">
        <ele>1455.1999511719</ele>
        <time>2014-02-12T15:06:46.000Z</time>
      </trkpt>
      <trkpt lat="45.92157" lon="6.48846">
        <ele>1455</ele>
        <time>2014-02-12T15:06:47.000Z</time>
      </trkpt>
      <trkpt lat="45.92158" lon="6.48845">
        <ele>1455</ele>
        <time>2014-02-12T15:06:48.000Z</time>
      </trkpt>
      <trkpt lat="45.92159" lon="6.48843">
        <ele>1454.8000488281</ele>
        <time>2014-02-12T15:06:49.000Z</time>
      </trkpt>
      <trkpt lat="45.92161" lon="6.48842">
        <ele>1454.8000488281</ele>
        <time>2014-02-12T15:06:50.000Z</time>
      </trkpt>
      <trkpt lat="45.92162" lon="6.48841">
        <ele>1454.5999755859</ele>
        <time>2014-02-12T15:06:51.000Z</time>
      </trkpt>
      <trkpt lat="45.92163" lon="6.4884">
        <ele>1454.5999755859</ele>
        <time>2014-02-12T15:06:52.000Z</time>
      </trkpt>
      <trkpt lat="45.92164" lon="6.48839">
        <ele>1454.4000244141</ele>
        <time>2014-02-12T15:06:53.000Z</time>
      </trkpt>
      <trkpt lat="45.92165" lon="6.48838">
        <ele>1453.8000488281</ele>
        <time>2014-02-12T15:06:54.000Z</time>
      </trkpt>
      <trkpt lat="45.92165" lon="6.48837">
        <ele>1453.4000244141</ele>
        <time>2014-02-12T15:06:55.000Z</time>
      </trkpt>
      <trkpt lat="45.92166" lon="6.48836">
        <ele>1452.8000488281</ele>
        <time>2014-02-12T15:06:56.000Z</time>
      </trkpt>
      <trkpt lat="45.92167" lon="6.48836">
        <ele>1452.5999755859</ele>
        <time>2014-02-12T15:06:57.000Z</time>
      </trkpt>
      <trkpt lat="45.92167" lon="6.48836">
        <ele>1452.5999755859</ele>
        <time>2014-02-12T15:06:58.000Z</time>
      </trkpt>
      <trkpt lat="45.92167" lon="6.48836">
        <ele>1452.5999755859</ele>
        <time>2014-02-12T15:06:59.000Z</time>
      </trkpt>
      <trkpt lat="45.92167" lon="6.48836">
        <ele>1452.5999755859</ele>
        <time>2014-02-12T15:07:00.000Z</time>
      </trkpt>
      <trkpt lat="45.92167" lon="6.48836">
        <ele>1452.5999755859</ele>
        <time>2014-02-12T15:07:01.000Z</time>
      </trkpt>
      <trkpt lat="45.92168" lon="6.48835">
        <ele>1452.1999511719</ele>
        <time>2014-02-12T15:07:02.000Z</time>
      </trkpt>
      <trkpt lat="45.92168" lon="6.48834">
        <ele>1452</ele>
        <time>2014-02-12T15:07:03.000Z</time>
      </trkpt>
      <trkpt lat="45.92168" lon="6.48834">
        <ele>1452</ele>
        <time>2014-02-12T15:07:04.000Z</time>
      </trkpt>
      <trkpt lat="45.92168" lon="6.48834">
        <ele>1451.8000488281</ele>
        <time>2014-02-12T15:07:05.000Z</time>
      </trkpt>
      <trkpt lat="45.92169" lon="6.48833">
        <ele>1451.4000244141</ele>
        <time>2014-02-12T15:07:06.000Z</time>
      </trkpt>
      <trkpt lat="45.92169" lon="6.48831">
        <ele>1450.8000488281</ele>
        <time>2014-02-12T15:07:07.000Z</time>
      </trkpt>
      <trkpt lat="45.9217" lon="6.48831">
        <ele>1450.5999755859</ele>
        <time>2014-02-12T15:07:08.000Z</time>
      </trkpt>
      <trkpt lat="45.9217" lon="6.48831">
        <ele>1450.5999755859</ele>
        <time>2014-02-12T15:07:10.000Z</time>
      </trkpt>
      <trkpt lat="45.9217" lon="6.48829">
        <ele>1450</ele>
        <time>2014-02-12T15:07:11.000Z</time>
      </trkpt>
      <trkpt lat="45.92171" lon="6.48828">
        <ele>1449.5999755859</ele>
        <time>2014-02-12T15:07:12.000Z</time>
      </trkpt>
      <trkpt lat="45.92171" lon="6.48828">
        <ele>1449.5999755859</ele>
        <time>2014-02-12T15:07:13.000Z</time>
      </trkpt>
      <trkpt lat="45.92171" lon="6.48828">
        <ele>1449.5999755859</ele>
        <time>2014-02-12T15:07:14.000Z</time>
      </trkpt>
      <trkpt lat="45.92171" lon="6.48828">
        <ele>1449.5999755859</ele>
        <time>2014-02-12T15:07:15.000Z</time>
      </trkpt>
      <trkpt lat="45.92171" lon="6.48828">
        <ele>1449.5999755859</ele>
        <time>2014-02-12T15:07:16.000Z</time>
      </trkpt>
      <trkpt lat="45.92171" lon="6.48828">
        <ele>1449.5999755859</ele>
        <time>2014-02-12T15:07:17.000Z</time>
      </trkpt>
      <trkpt lat="45.92171" lon="6.48828">
        <ele>1449.5999755859</ele>
        <time>2014-02-12T15:07:18.000Z</time>
      </trkpt>
      <trkpt lat="45.92171" lon="6.48827">
        <ele>1449.1999511719</ele>
        <time>2014-02-12T15:07:19.000Z</time>
      </trkpt>
      <trkpt lat="45.92171" lon="6.48827">
        <ele>1449.1999511719</ele>
        <time>2014-02-12T15:07:20.000Z</time>
      </trkpt>
      <trkpt lat="45.92171" lon="6.48827">
        <ele>1449.1999511719</ele>
        <time>2014-02-12T15:07:21.000Z</time>
      </trkpt>
      <trkpt lat="45.92171" lon="6.48827">
        <ele>1449.1999511719</ele>
        <time>2014-02-12T15:07:22.000Z</time>
      </trkpt>
      <trkpt lat="45.92171" lon="6.48827">
        <ele>1449.1999511719</ele>
        <time>2014-02-12T15:07:23.000Z</time>
      </trkpt>
      <trkpt lat="45.92171" lon="6.48826">
        <ele>1449.1999511719</ele>
        <time>2014-02-12T15:07:24.000Z</time>
      </trkpt>
      <trkpt lat="45.92171" lon="6.48824">
        <ele>1448.5999755859</ele>
        <time>2014-02-12T15:07:25.000Z</time>
      </trkpt>
      <trkpt lat="45.92172" lon="6.48822">
        <ele>1448</ele>
        <time>2014-02-12T15:07:26.000Z</time>
      </trkpt>
      <trkpt lat="45.92172" lon="6.4882">
        <ele>1447.4000244141</ele>
        <time>2014-02-12T15:07:27.000Z</time>
      </trkpt>
      <trkpt lat="45.92172" lon="6.48818">
        <ele>1447</ele>
        <time>2014-02-12T15:07:28.000Z</time>
      </trkpt>
      <trkpt lat="45.92173" lon="6.48816">
        <ele>1446.5999755859</ele>
        <time>2014-02-12T15:07:29.000Z</time>
      </trkpt>
      <trkpt lat="45.92173" lon="6.48814">
        <ele>1446.4000244141</ele>
        <time>2014-02-12T15:07:30.000Z</time>
      </trkpt>
      <trkpt lat="45.92173" lon="6.48812">
        <ele>1446.1999511719</ele>
        <time>2014-02-12T15:07:31.000Z</time>
      </trkpt>
      <trkpt lat="45.92174" lon="6.4881">
        <ele>1446</ele>
        <time>2014-02-12T15:07:32.000Z</time>
      </trkpt>
      <trkpt lat="45.92174" lon="6.48808">
        <ele>1445.8000488281</ele>
        <time>2014-02-12T15:07:33.000Z</time>
      </trkpt>
      <trkpt lat="45.92174" lon="6.48806">
        <ele>1445.5999755859</ele>
        <time>2014-02-12T15:07:34.000Z</time>
      </trkpt>
      <trkpt lat="45.92174" lon="6.48804">
        <ele>1445.5999755859</ele>
        <time>2014-02-12T15:07:35.000Z</time>
      </trkpt>
      <trkpt lat="45.92174" lon="6.48803">
        <ele>1445.4000244141</ele>
        <time>2014-02-12T15:07:36.000Z</time>
      </trkpt>
      <trkpt lat="45.92174" lon="6.48802">
        <ele>1445.4000244141</ele>
        <time>2014-02-12T15:07:37.000Z</time>
      </trkpt>
      <trkpt lat="45.92174" lon="6.48802">
        <ele>1445.4000244141</ele>
        <time>2014-02-12T15:07:38.000Z</time>
      </trkpt>
      <trkpt lat="45.92174" lon="6.48802">
        <ele>1445.4000244141</ele>
        <time>2014-02-12T15:07:39.000Z</time>
      </trkpt>
      <trkpt lat="45.92174" lon="6.48802">
        <ele>1445.4000244141</ele>
        <time>2014-02-12T15:07:40.000Z</time>
      </trkpt>
      <trkpt lat="45.92174" lon="6.48802">
        <ele>1445.4000244141</ele>
        <time>2014-02-12T15:07:41.000Z</time>
      </trkpt>
      <trkpt lat="45.92174" lon="6.48802">
        <ele>1445.4000244141</ele>
        <time>2014-02-12T15:07:42.000Z</time>
      </trkpt>
      <trkpt lat="45.92174" lon="6.48802">
        <ele>1445.4000244141</ele>
        <time>2014-02-12T15:07:43.000Z</time>
      </trkpt>
      <trkpt lat="45.92174" lon="6.48802">
        <ele>1445.4000244141</ele>
        <time>2014-02-12T15:07:45.000Z</time>
      </trkpt>
      <trkpt lat="45.92174" lon="6.48802">
        <ele>1445.4000244141</ele>
        <time>2014-02-12T15:07:46.000Z</time>
      </trkpt>
      <trkpt lat="45.92174" lon="6.48802">
        <ele>1445.4000244141</ele>
        <time>2014-02-12T15:07:47.000Z</time>
      </trkpt>
      <trkpt lat="45.92174" lon="6.48801">
        <ele>1445.4000244141</ele>
        <time>2014-02-12T15:07:48.000Z</time>
      </trkpt>
      <trkpt lat="45.92174" lon="6.488">
        <ele>1445.1999511719</ele>
        <time>2014-02-12T15:07:49.000Z</time>
      </trkpt>
      <trkpt lat="45.92174" lon="6.48798">
        <ele>1445.1999511719</ele>
        <time>2014-02-12T15:07:50.000Z</time>
      </trkpt>
      <trkpt lat="45.92174" lon="6.48798">
        <ele>1445.1999511719</ele>
        <time>2014-02-12T15:07:51.000Z</time>
      </trkpt>
      <trkpt lat="45.92174" lon="6.48796">
        <ele>1445.1999511719</ele>
        <time>2014-02-12T15:07:52.000Z</time>
      </trkpt>
      <trkpt lat="45.92174" lon="6.48794">
        <ele>1445</ele>
        <time>2014-02-12T15:07:53.000Z</time>
      </trkpt>
      <trkpt lat="45.92174" lon="6.48791">
        <ele>1445</ele>
        <time>2014-02-12T15:07:54.000Z</time>
      </trkpt>
      <trkpt lat="45.92173" lon="6.48789">
        <ele>1445</ele>
        <time>2014-02-12T15:07:55.000Z</time>
      </trkpt>
      <trkpt lat="45.92173" lon="6.48787">
        <ele>1445</ele>
        <time>2014-02-12T15:07:56.000Z</time>
      </trkpt>
      <trkpt lat="45.92173" lon="6.48785">
        <ele>1445</ele>
        <time>2014-02-12T15:07:57.000Z</time>
      </trkpt>
      <trkpt lat="45.92172" lon="6.48782">
        <ele>1445</ele>
        <time>2014-02-12T15:07:58.000Z</time>
      </trkpt>
      <trkpt lat="45.92172" lon="6.4878">
        <ele>1445</ele>
        <time>2014-02-12T15:07:59.000Z</time>
      </trkpt>
      <trkpt lat="45.92172" lon="6.48778">
        <ele>1445</ele>
        <time>2014-02-12T15:08:00.000Z</time>
      </trkpt>
      <trkpt lat="45.92171" lon="6.48775">
        <ele>1445</ele>
        <time>2014-02-12T15:08:01.000Z</time>
      </trkpt>
      <trkpt lat="45.92171" lon="6.48773">
        <ele>1445</ele>
        <time>2014-02-12T15:08:02.000Z</time>
      </trkpt>
      <trkpt lat="45.92171" lon="6.4877">
        <ele>1445</ele>
        <time>2014-02-12T15:08:03.000Z</time>
      </trkpt>
      <trkpt lat="45.9217" lon="6.48768">
        <ele>1445</ele>
        <time>2014-02-12T15:08:04.000Z</time>
      </trkpt>
      <trkpt lat="45.92169" lon="6.4876">
        <ele>1444.8000488281</ele>
        <time>2014-02-12T15:08:07.000Z</time>
      </trkpt>
      <trkpt lat="45.92169" lon="6.48758">
        <ele>1444.4000244141</ele>
        <time>2014-02-12T15:08:08.000Z</time>
      </trkpt>
      <trkpt lat="45.92168" lon="6.48756">
        <ele>1444.1999511719</ele>
        <time>2014-02-12T15:08:09.000Z</time>
      </trkpt>
      <trkpt lat="45.92168" lon="6.48754">
        <ele>1444</ele>
        <time>2014-02-12T15:08:10.000Z</time>
      </trkpt>
      <trkpt lat="45.92167" lon="6.48752">
        <ele>1443.8000488281</ele>
        <time>2014-02-12T15:08:11.000Z</time>
      </trkpt>
      <trkpt lat="45.92167" lon="6.4875">
        <ele>1443.5999755859</ele>
        <time>2014-02-12T15:08:12.000Z</time>
      </trkpt>
      <trkpt lat="45.92166" lon="6.48748">
        <ele>1443.4000244141</ele>
        <time>2014-02-12T15:08:13.000Z</time>
      </trkpt>
      <trkpt lat="45.92166" lon="6.48745">
        <ele>1443</ele>
        <time>2014-02-12T15:08:14.000Z</time>
      </trkpt>
      <trkpt lat="45.92165" lon="6.48743">
        <ele>1443</ele>
        <time>2014-02-12T15:08:15.000Z</time>
      </trkpt>
      <trkpt lat="45.92164" lon="6.48741">
        <ele>1442.8000488281</ele>
        <time>2014-02-12T15:08:16.000Z</time>
      </trkpt>
      <trkpt lat="45.92164" lon="6.48739">
        <ele>1442.5999755859</ele>
        <time>2014-02-12T15:08:17.000Z</time>
      </trkpt>
      <trkpt lat="45.92163" lon="6.48736">
        <ele>1442.4000244141</ele>
        <time>2014-02-12T15:08:18.000Z</time>
      </trkpt>
      <trkpt lat="45.92163" lon="6.48734">
        <ele>1442.1999511719</ele>
        <time>2014-02-12T15:08:19.000Z</time>
      </trkpt>
      <trkpt lat="45.92162" lon="6.48732">
        <ele>1442.1999511719</ele>
        <time>2014-02-12T15:08:20.000Z</time>
      </trkpt>
      <trkpt lat="45.92162" lon="6.48729">
        <ele>1442.4000244141</ele>
        <time>2014-02-12T15:08:21.000Z</time>
      </trkpt>
      <trkpt lat="45.92161" lon="6.48727">
        <ele>1442.4000244141</ele>
        <time>2014-02-12T15:08:22.000Z</time>
      </trkpt>
      <trkpt lat="45.92161" lon="6.48725">
        <ele>1442.4000244141</ele>
        <time>2014-02-12T15:08:23.000Z</time>
      </trkpt>
      <trkpt lat="45.92161" lon="6.48723">
        <ele>1442.5999755859</ele>
        <time>2014-02-12T15:08:24.000Z</time>
      </trkpt>
      <trkpt lat="45.9216" lon="6.4872">
        <ele>1443</ele>
        <time>2014-02-12T15:08:25.000Z</time>
      </trkpt>
      <trkpt lat="45.92159" lon="6.48718">
        <ele>1443.4000244141</ele>
        <time>2014-02-12T15:08:26.000Z</time>
      </trkpt>
      <trkpt lat="45.92157" lon="6.48716">
        <ele>1443.8000488281</ele>
        <time>2014-02-12T15:08:27.000Z</time>
      </trkpt>
      <trkpt lat="45.92156" lon="6.48714">
        <ele>1444.1999511719</ele>
        <time>2014-02-12T15:08:28.000Z</time>
      </trkpt>
      <trkpt lat="45.92155" lon="6.48712">
        <ele>1444.5999755859</ele>
        <time>2014-02-12T15:08:29.000Z</time>
      </trkpt>
      <trkpt lat="45.92155" lon="6.4871">
        <ele>1444.8000488281</ele>
        <time>2014-02-12T15:08:30.000Z</time>
      </trkpt>
      <trkpt lat="45.92154" lon="6.48708">
        <ele>1445.1999511719</ele>
        <time>2014-02-12T15:08:31.000Z</time>
      </trkpt>
      <trkpt lat="45.92153" lon="6.48706">
        <ele>1445.4000244141</ele>
        <time>2014-02-12T15:08:32.000Z</time>
      </trkpt>
      <trkpt lat="45.92153" lon="6.48705">
        <ele>1445.5999755859</ele>
        <time>2014-02-12T15:08:33.000Z</time>
      </trkpt>
      <trkpt lat="45.92152" lon="6.48704">
        <ele>1446</ele>
        <time>2014-02-12T15:08:34.000Z</time>
      </trkpt>
      <trkpt lat="45.92151" lon="6.48702">
        <ele>1446.1999511719</ele>
        <time>2014-02-12T15:08:35.000Z</time>
      </trkpt>
      <trkpt lat="45.9215" lon="6.48701">
        <ele>1446.5999755859</ele>
        <time>2014-02-12T15:08:36.000Z</time>
      </trkpt>
      <trkpt lat="45.92149" lon="6.487">
        <ele>1447</ele>
        <time>2014-02-12T15:08:37.000Z</time>
      </trkpt>
      <trkpt lat="45.92148" lon="6.48699">
        <ele>1447.4000244141</ele>
        <time>2014-02-12T15:08:38.000Z</time>
      </trkpt>
      <trkpt lat="45.92148" lon="6.48699">
        <ele>1447.5999755859</ele>
        <time>2014-02-12T15:08:39.000Z</time>
      </trkpt>
      <trkpt lat="45.92147" lon="6.48698">
        <ele>1448</ele>
        <time>2014-02-12T15:08:40.000Z</time>
      </trkpt>
      <trkpt lat="45.92146" lon="6.48697">
        <ele>1448.1999511719</ele>
        <time>2014-02-12T15:08:41.000Z</time>
      </trkpt>
      <trkpt lat="45.92146" lon="6.48696">
        <ele>1448.4000244141</ele>
        <time>2014-02-12T15:08:42.000Z</time>
      </trkpt>
      <trkpt lat="45.92145" lon="6.48695">
        <ele>1448.5999755859</ele>
        <time>2014-02-12T15:08:43.000Z</time>
      </trkpt>
      <trkpt lat="45.92145" lon="6.48694">
        <ele>1449</ele>
        <time>2014-02-12T15:08:44.000Z</time>
      </trkpt>
      <trkpt lat="45.92144" lon="6.48694">
        <ele>1449.1999511719</ele>
        <time>2014-02-12T15:08:45.000Z</time>
      </trkpt>
      <trkpt lat="45.92143" lon="6.48693">
        <ele>1449.8000488281</ele>
        <time>2014-02-12T15:08:46.000Z</time>
      </trkpt>
      <trkpt lat="45.92142" lon="6.48692">
        <ele>1450.1999511719</ele>
        <time>2014-02-12T15:08:47.000Z</time>
      </trkpt>
      <trkpt lat="45.92141" lon="6.48691">
        <ele>1450.8000488281</ele>
        <time>2014-02-12T15:08:48.000Z</time>
      </trkpt>
      <trkpt lat="45.92139" lon="6.48689">
        <ele>1451.4000244141</ele>
        <time>2014-02-12T15:08:49.000Z</time>
      </trkpt>
      <trkpt lat="45.92137" lon="6.48688">
        <ele>1452</ele>
        <time>2014-02-12T15:08:50.000Z</time>
      </trkpt>
      <trkpt lat="45.92136" lon="6.48686">
        <ele>1452.4000244141</ele>
        <time>2014-02-12T15:08:51.000Z</time>
      </trkpt>
      <trkpt lat="45.92134" lon="6.48683">
        <ele>1452.8000488281</ele>
        <time>2014-02-12T15:08:52.000Z</time>
      </trkpt>
      <trkpt lat="45.92133" lon="6.48682">
        <ele>1453.1999511719</ele>
        <time>2014-02-12T15:08:53.000Z</time>
      </trkpt>
      <trkpt lat="45.92132" lon="6.4868">
        <ele>1453.4000244141</ele>
        <time>2014-02-12T15:08:54.000Z</time>
      </trkpt>
      <trkpt lat="45.92131" lon="6.48677">
        <ele>1453.8000488281</ele>
        <time>2014-02-12T15:08:55.000Z</time>
      </trkpt>
      <trkpt lat="45.9213" lon="6.48675">
        <ele>1454</ele>
        <time>2014-02-12T15:08:56.000Z</time>
      </trkpt>
      <trkpt lat="45.92129" lon="6.48673">
        <ele>1454.4000244141</ele>
        <time>2014-02-12T15:08:57.000Z</time>
      </trkpt>
      <trkpt lat="45.92127" lon="6.48669">
        <ele>1455</ele>
        <time>2014-02-12T15:08:59.000Z</time>
      </trkpt>
      <trkpt lat="45.92126" lon="6.48667">
        <ele>1455.4000244141</ele>
        <time>2014-02-12T15:09:00.000Z</time>
      </trkpt>
      <trkpt lat="45.92124" lon="6.48665">
        <ele>1455.5999755859</ele>
        <time>2014-02-12T15:09:01.000Z</time>
      </trkpt>
      <trkpt lat="45.92124" lon="6.48663">
        <ele>1456</ele>
        <time>2014-02-12T15:09:02.000Z</time>
      </trkpt>
      <trkpt lat="45.92123" lon="6.48661">
        <ele>1456.1999511719</ele>
        <time>2014-02-12T15:09:03.000Z</time>
      </trkpt>
      <trkpt lat="45.92122" lon="6.48659">
        <ele>1456.4000244141</ele>
        <time>2014-02-12T15:09:04.000Z</time>
      </trkpt>
      <trkpt lat="45.92121" lon="6.48657">
        <ele>1456.4000244141</ele>
        <time>2014-02-12T15:09:05.000Z</time>
      </trkpt>
      <trkpt lat="45.92121" lon="6.48655">
        <ele>1456.5999755859</ele>
        <time>2014-02-12T15:09:06.000Z</time>
      </trkpt>
      <trkpt lat="45.9212" lon="6.48653">
        <ele>1456.5999755859</ele>
        <time>2014-02-12T15:09:07.000Z</time>
      </trkpt>
      <trkpt lat="45.9212" lon="6.48651">
        <ele>1456.5999755859</ele>
        <time>2014-02-12T15:09:08.000Z</time>
      </trkpt>
      <trkpt lat="45.9212" lon="6.48648">
        <ele>1456.5999755859</ele>
        <time>2014-02-12T15:09:09.000Z</time>
      </trkpt>
      <trkpt lat="45.9212" lon="6.48646">
        <ele>1456.4000244141</ele>
        <time>2014-02-12T15:09:10.000Z</time>
      </trkpt>
      <trkpt lat="45.9212" lon="6.48644">
        <ele>1456.4000244141</ele>
        <time>2014-02-12T15:09:11.000Z</time>
      </trkpt>
      <trkpt lat="45.9212" lon="6.48641">
        <ele>1456.1999511719</ele>
        <time>2014-02-12T15:09:12.000Z</time>
      </trkpt>
      <trkpt lat="45.92121" lon="6.48638">
        <ele>1456</ele>
        <time>2014-02-12T15:09:13.000Z</time>
      </trkpt>
      <trkpt lat="45.92121" lon="6.48636">
        <ele>1455.8000488281</ele>
        <time>2014-02-12T15:09:14.000Z</time>
      </trkpt>
      <trkpt lat="45.92121" lon="6.48633">
        <ele>1455.5999755859</ele>
        <time>2014-02-12T15:09:15.000Z</time>
      </trkpt>
      <trkpt lat="45.92122" lon="6.48629">
        <ele>1455.1999511719</ele>
        <time>2014-02-12T15:09:16.000Z</time>
      </trkpt>
      <trkpt lat="45.92123" lon="6.48626">
        <ele>1455</ele>
        <time>2014-02-12T15:09:17.000Z</time>
      </trkpt>
      <trkpt lat="45.92124" lon="6.48624">
        <ele>1454.8000488281</ele>
        <time>2014-02-12T15:09:18.000Z</time>
      </trkpt>
      <trkpt lat="45.92125" lon="6.4862">
        <ele>1454.5999755859</ele>
        <time>2014-02-12T15:09:19.000Z</time>
      </trkpt>
      <trkpt lat="45.92126" lon="6.48617">
        <ele>1454.4000244141</ele>
        <time>2014-02-12T15:09:20.000Z</time>
      </trkpt>
      <trkpt lat="45.92127" lon="6.48614">
        <ele>1454.1999511719</ele>
        <time>2014-02-12T15:09:21.000Z</time>
      </trkpt>
      <trkpt lat="45.92128" lon="6.48611">
        <ele>1453.8000488281</ele>
        <time>2014-02-12T15:09:22.000Z</time>
      </trkpt>
      <trkpt lat="45.92129" lon="6.48609">
        <ele>1453.5999755859</ele>
        <time>2014-02-12T15:09:23.000Z</time>
      </trkpt>
      <trkpt lat="45.9213" lon="6.48607">
        <ele>1453.4000244141</ele>
        <time>2014-02-12T15:09:24.000Z</time>
      </trkpt>
      <trkpt lat="45.92131" lon="6.48605">
        <ele>1453</ele>
        <time>2014-02-12T15:09:25.000Z</time>
      </trkpt>
      <trkpt lat="45.92132" lon="6.48602">
        <ele>1452.5999755859</ele>
        <time>2014-02-12T15:09:26.000Z</time>
      </trkpt>
      <trkpt lat="45.92133" lon="6.48599">
        <ele>1452.4000244141</ele>
        <time>2014-02-12T15:09:27.000Z</time>
      </trkpt>
      <trkpt lat="45.92134" lon="6.48596">
        <ele>1452.1999511719</ele>
        <time>2014-02-12T15:09:28.000Z</time>
      </trkpt>
      <trkpt lat="45.92135" lon="6.48593">
        <ele>1452</ele>
        <time>2014-02-12T15:09:29.000Z</time>
      </trkpt>
      <trkpt lat="45.92137" lon="6.48587">
        <ele>1451.5999755859</ele>
        <time>2014-02-12T15:09:31.000Z</time>
      </trkpt>
      <trkpt lat="45.92138" lon="6.48584">
        <ele>1451.4000244141</ele>
        <time>2014-02-12T15:09:32.000Z</time>
      </trkpt>
      <trkpt lat="45.92138" lon="6.48582">
        <ele>1451.1999511719</ele>
        <time>2014-02-12T15:09:33.000Z</time>
      </trkpt>
      <trkpt lat="45.92139" lon="6.48579">
        <ele>1451.1999511719</ele>
        <time>2014-02-12T15:09:34.000Z</time>
      </trkpt>
      <trkpt lat="45.9214" lon="6.48577">
        <ele>1451</ele>
        <time>2014-02-12T15:09:35.000Z</time>
      </trkpt>
      <trkpt lat="45.92141" lon="6.48575">
        <ele>1450.8000488281</ele>
        <time>2014-02-12T15:09:36.000Z</time>
      </trkpt>
      <trkpt lat="45.92142" lon="6.48572">
        <ele>1450.1999511719</ele>
        <time>2014-02-12T15:09:37.000Z</time>
      </trkpt>
      <trkpt lat="45.92142" lon="6.4857">
        <ele>1449.8000488281</ele>
        <time>2014-02-12T15:09:38.000Z</time>
      </trkpt>
      <trkpt lat="45.92143" lon="6.48567">
        <ele>1449.5999755859</ele>
        <time>2014-02-12T15:09:39.000Z</time>
      </trkpt>
      <trkpt lat="45.92144" lon="6.48563">
        <ele>1449.1999511719</ele>
        <time>2014-02-12T15:09:40.000Z</time>
      </trkpt>
      <trkpt lat="45.92145" lon="6.4856">
        <ele>1448.8000488281</ele>
        <time>2014-02-12T15:09:41.000Z</time>
      </trkpt>
      <trkpt lat="45.92146" lon="6.48557">
        <ele>1448.4000244141</ele>
        <time>2014-02-12T15:09:42.000Z</time>
      </trkpt>
      <trkpt lat="45.92147" lon="6.48554">
        <ele>1448</ele>
        <time>2014-02-12T15:09:43.000Z</time>
      </trkpt>
      <trkpt lat="45.92148" lon="6.4855">
        <ele>1447.5999755859</ele>
        <time>2014-02-12T15:09:44.000Z</time>
      </trkpt>
      <trkpt lat="45.92149" lon="6.48545">
        <ele>1447.1999511719</ele>
        <time>2014-02-12T15:09:45.000Z</time>
      </trkpt>
      <trkpt lat="45.9215" lon="6.48541">
        <ele>1446.4000244141</ele>
        <time>2014-02-12T15:09:46.000Z</time>
      </trkpt>
      <trkpt lat="45.92153" lon="6.48536">
        <ele>1445.1999511719</ele>
        <time>2014-02-12T15:09:47.000Z</time>
      </trkpt>
      <trkpt lat="45.92156" lon="6.4853">
        <ele>1443.5999755859</ele>
        <time>2014-02-12T15:09:48.000Z</time>
      </trkpt>
      <trkpt lat="45.9216" lon="6.48521">
        <ele>1441.5999755859</ele>
        <time>2014-02-12T15:09:49.000Z</time>
      </trkpt>
      <trkpt lat="45.92167" lon="6.4851">
        <ele>1438.1999511719</ele>
        <time>2014-02-12T15:09:50.000Z</time>
      </trkpt>
      <trkpt lat="45.92174" lon="6.48498">
        <ele>1439.8000488281</ele>
        <time>2014-02-12T15:09:51.000Z</time>
      </trkpt>
      <trkpt lat="45.92181" lon="6.48486">
        <ele>1441.4000244141</ele>
        <time>2014-02-12T15:09:52.000Z</time>
      </trkpt>
      <trkpt lat="45.92189" lon="6.48475">
        <ele>1439.8000488281</ele>
        <time>2014-02-12T15:09:53.000Z</time>
      </trkpt>
      <trkpt lat="45.92199" lon="6.48464">
        <ele>1436.4000244141</ele>
        <time>2014-02-12T15:09:54.000Z</time>
      </trkpt>
      <trkpt lat="45.9221" lon="6.48454">
        <ele>1436</ele>
        <time>2014-02-12T15:09:55.000Z</time>
      </trkpt>
      <trkpt lat="45.92219" lon="6.48444">
        <ele>1436.5999755859</ele>
        <time>2014-02-12T15:09:56.000Z</time>
      </trkpt>
      <trkpt lat="45.92228" lon="6.48436">
        <ele>1435.8000488281</ele>
        <time>2014-02-12T15:09:57.000Z</time>
      </trkpt>
      <trkpt lat="45.92236" lon="6.48428">
        <ele>1434.1999511719</ele>
        <time>2014-02-12T15:09:58.000Z</time>
      </trkpt>
      <trkpt lat="45.92242" lon="6.48421">
        <ele>1432.8000488281</ele>
        <time>2014-02-12T15:09:59.000Z</time>
      </trkpt>
      <trkpt lat="45.92247" lon="6.48415">
        <ele>1433.8000488281</ele>
        <time>2014-02-12T15:10:00.000Z</time>
      </trkpt>
      <trkpt lat="45.92252" lon="6.4841">
        <ele>1435.1999511719</ele>
        <time>2014-02-12T15:10:01.000Z</time>
      </trkpt>
      <trkpt lat="45.92257" lon="6.48405">
        <ele>1436.4000244141</ele>
        <time>2014-02-12T15:10:02.000Z</time>
      </trkpt>
      <trkpt lat="45.92261" lon="6.484">
        <ele>1437.5999755859</ele>
        <time>2014-02-12T15:10:03.000Z</time>
      </trkpt>
      <trkpt lat="45.92272" lon="6.48394">
        <ele>1436.8000488281</ele>
        <time>2014-02-12T15:10:06.000Z</time>
      </trkpt>
      <trkpt lat="45.92275" lon="6.48394">
        <ele>1436.4000244141</ele>
        <time>2014-02-12T15:10:07.000Z</time>
      </trkpt>
      <trkpt lat="45.92278" lon="6.48394">
        <ele>1436.1999511719</ele>
        <time>2014-02-12T15:10:08.000Z</time>
      </trkpt>
      <trkpt lat="45.92279" lon="6.48395">
        <ele>1436.1999511719</ele>
        <time>2014-02-12T15:10:09.000Z</time>
      </trkpt>
      <trkpt lat="45.9228" lon="6.48396">
        <ele>1436.1999511719</ele>
        <time>2014-02-12T15:10:10.000Z</time>
      </trkpt>
      <trkpt lat="45.9228" lon="6.48396">
        <ele>1436.1999511719</ele>
        <time>2014-02-12T15:10:11.000Z</time>
      </trkpt>
      <trkpt lat="45.9228" lon="6.48397">
        <ele>1436.1999511719</ele>
        <time>2014-02-12T15:10:12.000Z</time>
      </trkpt>
      <trkpt lat="45.9228" lon="6.48397">
        <ele>1436.1999511719</ele>
        <time>2014-02-12T15:10:13.000Z</time>
      </trkpt>
      <trkpt lat="45.9228" lon="6.48397">
        <ele>1436.1999511719</ele>
        <time>2014-02-12T15:10:14.000Z</time>
      </trkpt>
      <trkpt lat="45.9228" lon="6.48397">
        <ele>1436.1999511719</ele>
        <time>2014-02-12T15:10:15.000Z</time>
      </trkpt>
      <trkpt lat="45.9228" lon="6.48397">
        <ele>1436.1999511719</ele>
        <time>2014-02-12T15:10:16.000Z</time>
      </trkpt>
      <trkpt lat="45.9228" lon="6.48397">
        <ele>1436.1999511719</ele>
        <time>2014-02-12T15:10:17.000Z</time>
      </trkpt>
      <trkpt lat="45.9228" lon="6.48397">
        <ele>1436.1999511719</ele>
        <time>2014-02-12T15:10:18.000Z</time>
      </trkpt>
      <trkpt lat="45.9228" lon="6.48397">
        <ele>1436.1999511719</ele>
        <time>2014-02-12T15:10:19.000Z</time>
      </trkpt>
      <trkpt lat="45.9228" lon="6.48397">
        <ele>1436.1999511719</ele>
        <time>2014-02-12T15:10:20.000Z</time>
      </trkpt>
      <trkpt lat="45.9228" lon="6.48397">
        <ele>1436.1999511719</ele>
        <time>2014-02-12T15:10:21.000Z</time>
      </trkpt>
      <trkpt lat="45.9228" lon="6.48397">
        <ele>1436.1999511719</ele>
        <time>2014-02-12T15:10:22.000Z</time>
      </trkpt>
      <trkpt lat="45.9228" lon="6.48397">
        <ele>1436.1999511719</ele>
        <time>2014-02-12T15:10:25.000Z</time>
      </trkpt>
      <trkpt lat="45.9228" lon="6.48397">
        <ele>1436.1999511719</ele>
        <time>2014-02-12T15:10:26.000Z</time>
      </trkpt>
      <trkpt lat="45.9228" lon="6.48397">
        <ele>1436.1999511719</ele>
        <time>2014-02-12T15:10:27.000Z</time>
      </trkpt>
      <trkpt lat="45.9228" lon="6.48397">
        <ele>1436.1999511719</ele>
        <time>2014-02-12T15:10:28.000Z</time>
      </trkpt>
      <trkpt lat="45.9228" lon="6.48397">
        <ele>1436.1999511719</ele>
        <time>2014-02-12T15:10:29.000Z</time>
      </trkpt>
      <trkpt lat="45.9228" lon="6.48397">
        <ele>1436.1999511719</ele>
        <time>2014-02-12T15:10:30.000Z</time>
      </trkpt>
      <trkpt lat="45.9228" lon="6.48397">
        <ele>1436.1999511719</ele>
        <time>2014-02-12T15:10:31.000Z</time>
      </trkpt>
      <trkpt lat="45.9228" lon="6.48397">
        <ele>1436.1999511719</ele>
        <time>2014-02-12T15:10:32.000Z</time>
      </trkpt>
      <trkpt lat="45.9228" lon="6.48397">
        <ele>1436.1999511719</ele>
        <time>2014-02-12T15:10:33.000Z</time>
      </trkpt>
      <trkpt lat="45.9228" lon="6.48397">
        <ele>1436.1999511719</ele>
        <time>2014-02-12T15:10:34.000Z</time>
      </trkpt>
      <trkpt lat="45.9228" lon="6.48397">
        <ele>1436.1999511719</ele>
        <time>2014-02-12T15:10:35.000Z</time>
      </trkpt>
      <trkpt lat="45.9228" lon="6.48397">
        <ele>1436.1999511719</ele>
        <time>2014-02-12T15:10:36.000Z</time>
      </trkpt>
      <trkpt lat="45.9228" lon="6.48397">
        <ele>1436.1999511719</ele>
        <time>2014-02-12T15:10:37.000Z</time>
      </trkpt>
      <trkpt lat="45.9228" lon="6.48397">
        <ele>1436.1999511719</ele>
        <time>2014-02-12T15:10:38.000Z</time>
      </trkpt>
      <trkpt lat="45.9228" lon="6.48397">
        <ele>1436.1999511719</ele>
        <time>2014-02-12T15:10:39.000Z</time>
      </trkpt>
      <trkpt lat="45.9228" lon="6.48397">
        <ele>1436.1999511719</ele>
        <time>2014-02-12T15:10:40.000Z</time>
      </trkpt>
      <trkpt lat="45.9228" lon="6.48397">
        <ele>1436.1999511719</ele>
        <time>2014-02-12T15:10:41.000Z</time>
      </trkpt>
      <trkpt lat="45.9228" lon="6.48397">
        <ele>1436.1999511719</ele>
        <time>2014-02-12T15:10:42.000Z</time>
      </trkpt>
      <trkpt lat="45.9228" lon="6.48397">
        <ele>1436.1999511719</ele>
        <time>2014-02-12T15:10:43.000Z</time>
      </trkpt>
      <trkpt lat="45.9228" lon="6.48397">
        <ele>1436.1999511719</ele>
        <time>2014-02-12T15:10:45.000Z</time>
      </trkpt>
      <trkpt lat="45.9228" lon="6.48397">
        <ele>1436.1999511719</ele>
        <time>2014-02-12T15:10:46.000Z</time>
      </trkpt>
      <trkpt lat="45.9228" lon="6.48397">
        <ele>1436.1999511719</ele>
        <time>2014-02-12T15:10:47.000Z</time>
      </trkpt>
      <trkpt lat="45.9228" lon="6.48397">
        <ele>1436.1999511719</ele>
        <time>2014-02-12T15:10:48.000Z</time>
      </trkpt>
      <trkpt lat="45.9228" lon="6.48397">
        <ele>1436.1999511719</ele>
        <time>2014-02-12T15:10:52.000Z</time>
      </trkpt>
      <trkpt lat="45.9228" lon="6.48397">
        <ele>1436.1999511719</ele>
        <time>2014-02-12T15:10:53.000Z</time>
      </trkpt>
      <trkpt lat="45.9228" lon="6.48397">
        <ele>1436.1999511719</ele>
        <time>2014-02-12T15:10:54.000Z</time>
      </trkpt>
      <trkpt lat="45.9228" lon="6.48397">
        <ele>1436.1999511719</ele>
        <time>2014-02-12T15:10:55.000Z</time>
      </trkpt>
      <trkpt lat="45.9228" lon="6.48397">
        <ele>1436.1999511719</ele>
        <time>2014-02-12T15:10:56.000Z</time>
      </trkpt>
      <trkpt lat="45.9228" lon="6.48397">
        <ele>1436.1999511719</ele>
        <time>2014-02-12T15:10:58.000Z</time>
      </trkpt>
      <trkpt lat="45.9228" lon="6.48397">
        <ele>1436.1999511719</ele>
        <time>2014-02-12T15:10:59.000Z</time>
      </trkpt>
      <trkpt lat="45.9228" lon="6.48397">
        <ele>1436.1999511719</ele>
        <time>2014-02-12T15:11:00.000Z</time>
      </trkpt>
      <trkpt lat="45.9228" lon="6.48397">
        <ele>1436.1999511719</ele>
        <time>2014-02-12T15:11:01.000Z</time>
      </trkpt>
      <trkpt lat="45.9228" lon="6.48397">
        <ele>1436.1999511719</ele>
        <time>2014-02-12T15:11:10.000Z</time>
      </trkpt>
    </trkseg>
  </trk>
</gpx>